<?xml version="1.0" encoding="UTF-8" standalone="no" ?>
<gpx xmlns="http://www.topografix.com/GPX/1/1" xmlns:xsi="http://www.w3.org/2001/XMLSchema-instance" xsi:schemaLocation="http://www.topografix.com/GPX/1/1 http://www.topografix.com/GPX/1/1/gpx.xsd" version="1.1" creator="VisuGPX - https://www.visugpx.com">
  <metadata>
    <name>Tour Pointe percée</name>
  </metadata>
  <trk>
    <name><![CDATA[Tour Pointe percée_1]]></name>
    <extensions>
      <line xmlns="http://www.topografix.com/GPX/gpx_style/0/2">
        <color>0000FF</color>
        <width>4</width>
      </line>
    </extensions>
    <trkseg>
      <trkpt lat="45.95737" lon="6.6102">
        <ele>975.8</ele>
        <time>2026-02-02T06:31:27Z</time>
      </trkpt>
      <trkpt lat="45.95738" lon="6.6102">
        <ele>975.8</ele>
        <time>2026-02-02T06:31:28Z</time>
      </trkpt>
      <trkpt lat="45.95738" lon="6.61019">
        <ele>975.8</ele>
        <time>2026-02-02T06:31:29Z</time>
      </trkpt>
      <trkpt lat="45.95738" lon="6.61019">
        <ele>975.8</ele>
        <time>2026-02-02T06:31:30Z</time>
      </trkpt>
      <trkpt lat="45.95738" lon="6.61019">
        <ele>975.8</ele>
        <time>2026-02-02T06:31:31Z</time>
      </trkpt>
      <trkpt lat="45.95738" lon="6.61019">
        <ele>975.8</ele>
        <time>2026-02-02T06:31:32Z</time>
      </trkpt>
      <trkpt lat="45.95738" lon="6.61019">
        <ele>975.8</ele>
        <time>2026-02-02T06:31:33Z</time>
      </trkpt>
      <trkpt lat="45.95738" lon="6.61019">
        <ele>975.8</ele>
        <time>2026-02-02T06:31:34Z</time>
      </trkpt>
      <trkpt lat="45.95738" lon="6.61019">
        <ele>975.8</ele>
        <time>2026-02-02T06:31:35Z</time>
      </trkpt>
      <trkpt lat="45.95738" lon="6.61019">
        <ele>975.8</ele>
        <time>2026-02-02T06:31:36Z</time>
      </trkpt>
      <trkpt lat="45.95738" lon="6.61019">
        <ele>975.8</ele>
        <time>2026-02-02T06:31:37Z</time>
      </trkpt>
      <trkpt lat="45.95738" lon="6.61019">
        <ele>975.8</ele>
        <time>2026-02-02T06:31:38Z</time>
      </trkpt>
      <trkpt lat="45.95738" lon="6.61019">
        <ele>975.8</ele>
        <time>2026-02-02T06:31:39Z</time>
      </trkpt>
      <trkpt lat="45.95738" lon="6.61019">
        <ele>975.8</ele>
        <time>2026-02-02T06:31:40Z</time>
      </trkpt>
      <trkpt lat="45.95738" lon="6.61019">
        <ele>975.8</ele>
        <time>2026-02-02T06:31:41Z</time>
      </trkpt>
      <trkpt lat="45.95738" lon="6.61019">
        <ele>975.8</ele>
        <time>2026-02-02T06:31:42Z</time>
      </trkpt>
      <trkpt lat="45.95738" lon="6.61019">
        <ele>975.8</ele>
        <time>2026-02-02T06:31:43Z</time>
      </trkpt>
      <trkpt lat="45.95738" lon="6.61019">
        <ele>975.8</ele>
        <time>2026-02-02T06:31:44Z</time>
      </trkpt>
      <trkpt lat="45.95738" lon="6.61019">
        <ele>975.8</ele>
        <time>2026-02-02T06:31:45Z</time>
      </trkpt>
      <trkpt lat="45.95738" lon="6.61019">
        <ele>975.8</ele>
        <time>2026-02-02T06:31:46Z</time>
      </trkpt>
      <trkpt lat="45.95738" lon="6.61019">
        <ele>975.8</ele>
        <time>2026-02-02T06:31:47Z</time>
      </trkpt>
      <trkpt lat="45.95738" lon="6.6102">
        <ele>975.8</ele>
        <time>2026-02-02T06:31:48Z</time>
      </trkpt>
      <trkpt lat="45.95738" lon="6.6102">
        <ele>975.8</ele>
        <time>2026-02-02T06:31:49Z</time>
      </trkpt>
      <trkpt lat="45.95738" lon="6.6102">
        <ele>975.8</ele>
        <time>2026-02-02T06:31:50Z</time>
      </trkpt>
      <trkpt lat="45.95738" lon="6.6102">
        <ele>975.8</ele>
        <time>2026-02-02T06:31:51Z</time>
      </trkpt>
      <trkpt lat="45.95738" lon="6.6102">
        <ele>975.8</ele>
        <time>2026-02-02T06:31:52Z</time>
      </trkpt>
      <trkpt lat="45.95737" lon="6.6102">
        <ele>975.8</ele>
        <time>2026-02-02T06:31:53Z</time>
      </trkpt>
      <trkpt lat="45.95737" lon="6.6102">
        <ele>975.8</ele>
        <time>2026-02-02T06:31:54Z</time>
      </trkpt>
      <trkpt lat="45.95736" lon="6.6102">
        <ele>975.8</ele>
        <time>2026-02-02T06:31:55Z</time>
      </trkpt>
      <trkpt lat="45.95735" lon="6.6102">
        <ele>975.7</ele>
        <time>2026-02-02T06:31:56Z</time>
      </trkpt>
      <trkpt lat="45.95734" lon="6.61019">
        <ele>975.7</ele>
        <time>2026-02-02T06:31:57Z</time>
      </trkpt>
      <trkpt lat="45.95734" lon="6.61019">
        <ele>975.7</ele>
        <time>2026-02-02T06:31:58Z</time>
      </trkpt>
      <trkpt lat="45.95734" lon="6.61019">
        <ele>975.7</ele>
        <time>2026-02-02T06:31:59Z</time>
      </trkpt>
      <trkpt lat="45.95733" lon="6.61019">
        <ele>975.7</ele>
        <time>2026-02-02T06:32:00Z</time>
      </trkpt>
      <trkpt lat="45.95734" lon="6.61019">
        <ele>975.7</ele>
        <time>2026-02-02T06:32:01Z</time>
      </trkpt>
      <trkpt lat="45.95734" lon="6.61019">
        <ele>975.7</ele>
        <time>2026-02-02T06:32:02Z</time>
      </trkpt>
      <trkpt lat="45.95735" lon="6.61018">
        <ele>975.7</ele>
        <time>2026-02-02T06:32:03Z</time>
      </trkpt>
      <trkpt lat="45.95735" lon="6.61018">
        <ele>975.7</ele>
        <time>2026-02-02T06:32:04Z</time>
      </trkpt>
      <trkpt lat="45.95735" lon="6.61018">
        <ele>975.7</ele>
        <time>2026-02-02T06:32:05Z</time>
      </trkpt>
      <trkpt lat="45.95735" lon="6.61018">
        <ele>975.7</ele>
        <time>2026-02-02T06:32:06Z</time>
      </trkpt>
      <trkpt lat="45.95735" lon="6.61018">
        <ele>975.7</ele>
        <time>2026-02-02T06:32:07Z</time>
      </trkpt>
      <trkpt lat="45.95736" lon="6.61019">
        <ele>975.7</ele>
        <time>2026-02-02T06:32:08Z</time>
      </trkpt>
      <trkpt lat="45.95736" lon="6.61021">
        <ele>975.7</ele>
        <time>2026-02-02T06:32:09Z</time>
      </trkpt>
      <trkpt lat="45.95736" lon="6.61023">
        <ele>975.7</ele>
        <time>2026-02-02T06:32:10Z</time>
      </trkpt>
      <trkpt lat="45.95736" lon="6.61023">
        <ele>975.7</ele>
        <time>2026-02-02T06:32:11Z</time>
      </trkpt>
      <trkpt lat="45.95737" lon="6.6102">
        <ele>975.7</ele>
        <time>2026-02-02T06:32:12Z</time>
      </trkpt>
      <trkpt lat="45.95738" lon="6.61019">
        <ele>975.7</ele>
        <time>2026-02-02T06:32:13Z</time>
      </trkpt>
      <trkpt lat="45.95738" lon="6.61017">
        <ele>975.6</ele>
        <time>2026-02-02T06:32:14Z</time>
      </trkpt>
      <trkpt lat="45.9574" lon="6.61013">
        <ele>975.6</ele>
        <time>2026-02-02T06:32:15Z</time>
      </trkpt>
      <trkpt lat="45.9574" lon="6.61012">
        <ele>975.6</ele>
        <time>2026-02-02T06:32:16Z</time>
      </trkpt>
      <trkpt lat="45.95741" lon="6.6101">
        <ele>975.6</ele>
        <time>2026-02-02T06:32:17Z</time>
      </trkpt>
      <trkpt lat="45.95743" lon="6.61009">
        <ele>975.6</ele>
        <time>2026-02-02T06:32:18Z</time>
      </trkpt>
      <trkpt lat="45.95744" lon="6.61008">
        <ele>975.6</ele>
        <time>2026-02-02T06:32:19Z</time>
      </trkpt>
      <trkpt lat="45.95745" lon="6.61007">
        <ele>975.6</ele>
        <time>2026-02-02T06:32:20Z</time>
      </trkpt>
      <trkpt lat="45.95747" lon="6.61006">
        <ele>975.6</ele>
        <time>2026-02-02T06:32:21Z</time>
      </trkpt>
      <trkpt lat="45.95748" lon="6.61004">
        <ele>975.5</ele>
        <time>2026-02-02T06:32:22Z</time>
      </trkpt>
      <trkpt lat="45.95749" lon="6.61003">
        <ele>975.5</ele>
        <time>2026-02-02T06:32:23Z</time>
      </trkpt>
      <trkpt lat="45.95751" lon="6.61002">
        <ele>975.5</ele>
        <time>2026-02-02T06:32:24Z</time>
      </trkpt>
      <trkpt lat="45.95752" lon="6.61002">
        <ele>975.5</ele>
        <time>2026-02-02T06:32:25Z</time>
      </trkpt>
      <trkpt lat="45.95753" lon="6.61002">
        <ele>975.5</ele>
        <time>2026-02-02T06:32:26Z</time>
      </trkpt>
      <trkpt lat="45.95756" lon="6.61002">
        <ele>975.5</ele>
        <time>2026-02-02T06:32:27Z</time>
      </trkpt>
      <trkpt lat="45.95756" lon="6.61001">
        <ele>975.5</ele>
        <time>2026-02-02T06:32:28Z</time>
      </trkpt>
      <trkpt lat="45.95757" lon="6.61001">
        <ele>975.5</ele>
        <time>2026-02-02T06:32:29Z</time>
      </trkpt>
      <trkpt lat="45.95759" lon="6.61">
        <ele>975.5</ele>
        <time>2026-02-02T06:32:30Z</time>
      </trkpt>
      <trkpt lat="45.95761" lon="6.61">
        <ele>975.5</ele>
        <time>2026-02-02T06:32:31Z</time>
      </trkpt>
      <trkpt lat="45.95762" lon="6.61">
        <ele>975.4</ele>
        <time>2026-02-02T06:32:32Z</time>
      </trkpt>
      <trkpt lat="45.95763" lon="6.60999">
        <ele>975.4</ele>
        <time>2026-02-02T06:32:33Z</time>
      </trkpt>
      <trkpt lat="45.95765" lon="6.60999">
        <ele>975.4</ele>
        <time>2026-02-02T06:32:34Z</time>
      </trkpt>
      <trkpt lat="45.95766" lon="6.60999">
        <ele>975.4</ele>
        <time>2026-02-02T06:32:35Z</time>
      </trkpt>
      <trkpt lat="45.95768" lon="6.60998">
        <ele>975.5</ele>
        <time>2026-02-02T06:32:36Z</time>
      </trkpt>
      <trkpt lat="45.95769" lon="6.60997">
        <ele>975.6</ele>
        <time>2026-02-02T06:32:37Z</time>
      </trkpt>
      <trkpt lat="45.9577" lon="6.60997">
        <ele>975.7</ele>
        <time>2026-02-02T06:32:38Z</time>
      </trkpt>
      <trkpt lat="45.95772" lon="6.60996">
        <ele>975.8</ele>
        <time>2026-02-02T06:32:39Z</time>
      </trkpt>
      <trkpt lat="45.95773" lon="6.60995">
        <ele>975.9</ele>
        <time>2026-02-02T06:32:40Z</time>
      </trkpt>
      <trkpt lat="45.95774" lon="6.60994">
        <ele>976</ele>
        <time>2026-02-02T06:32:41Z</time>
      </trkpt>
      <trkpt lat="45.95775" lon="6.60993">
        <ele>976</ele>
        <time>2026-02-02T06:32:42Z</time>
      </trkpt>
      <trkpt lat="45.95777" lon="6.60991">
        <ele>976.2</ele>
        <time>2026-02-02T06:32:43Z</time>
      </trkpt>
      <trkpt lat="45.95778" lon="6.6099">
        <ele>976.3</ele>
        <time>2026-02-02T06:32:44Z</time>
      </trkpt>
      <trkpt lat="45.95779" lon="6.60989">
        <ele>976.4</ele>
        <time>2026-02-02T06:32:45Z</time>
      </trkpt>
      <trkpt lat="45.95781" lon="6.60988">
        <ele>976.6</ele>
        <time>2026-02-02T06:32:46Z</time>
      </trkpt>
      <trkpt lat="45.95782" lon="6.60987">
        <ele>976.8</ele>
        <time>2026-02-02T06:32:47Z</time>
      </trkpt>
      <trkpt lat="45.95783" lon="6.60985">
        <ele>977</ele>
        <time>2026-02-02T06:32:48Z</time>
      </trkpt>
      <trkpt lat="45.95784" lon="6.60983">
        <ele>977.2</ele>
        <time>2026-02-02T06:32:49Z</time>
      </trkpt>
      <trkpt lat="45.95785" lon="6.60982">
        <ele>977.4</ele>
        <time>2026-02-02T06:32:50Z</time>
      </trkpt>
      <trkpt lat="45.95786" lon="6.6098">
        <ele>977.6</ele>
        <time>2026-02-02T06:32:52Z</time>
      </trkpt>
      <trkpt lat="45.95786" lon="6.60979">
        <ele>977.7</ele>
        <time>2026-02-02T06:32:53Z</time>
      </trkpt>
      <trkpt lat="45.95787" lon="6.60978">
        <ele>977.9</ele>
        <time>2026-02-02T06:32:54Z</time>
      </trkpt>
      <trkpt lat="45.95788" lon="6.60977">
        <ele>978</ele>
        <time>2026-02-02T06:32:55Z</time>
      </trkpt>
      <trkpt lat="45.95789" lon="6.60976">
        <ele>978.2</ele>
        <time>2026-02-02T06:32:56Z</time>
      </trkpt>
      <trkpt lat="45.9579" lon="6.60976">
        <ele>978.3</ele>
        <time>2026-02-02T06:32:57Z</time>
      </trkpt>
      <trkpt lat="45.95792" lon="6.60975">
        <ele>978.5</ele>
        <time>2026-02-02T06:32:58Z</time>
      </trkpt>
      <trkpt lat="45.95793" lon="6.60975">
        <ele>978.7</ele>
        <time>2026-02-02T06:32:59Z</time>
      </trkpt>
      <trkpt lat="45.95794" lon="6.60974">
        <ele>978.8</ele>
        <time>2026-02-02T06:33:00Z</time>
      </trkpt>
      <trkpt lat="45.95796" lon="6.60974">
        <ele>979</ele>
        <time>2026-02-02T06:33:01Z</time>
      </trkpt>
      <trkpt lat="45.95797" lon="6.60973">
        <ele>979.3</ele>
        <time>2026-02-02T06:33:02Z</time>
      </trkpt>
      <trkpt lat="45.95798" lon="6.60972">
        <ele>979.4</ele>
        <time>2026-02-02T06:33:03Z</time>
      </trkpt>
      <trkpt lat="45.958" lon="6.60971">
        <ele>979.6</ele>
        <time>2026-02-02T06:33:04Z</time>
      </trkpt>
      <trkpt lat="45.95802" lon="6.6097">
        <ele>979.9</ele>
        <time>2026-02-02T06:33:05Z</time>
      </trkpt>
      <trkpt lat="45.95803" lon="6.60969">
        <ele>980.1</ele>
        <time>2026-02-02T06:33:06Z</time>
      </trkpt>
      <trkpt lat="45.95803" lon="6.60969">
        <ele>980.2</ele>
        <time>2026-02-02T06:33:07Z</time>
      </trkpt>
      <trkpt lat="45.95805" lon="6.60967">
        <ele>980.4</ele>
        <time>2026-02-02T06:33:08Z</time>
      </trkpt>
      <trkpt lat="45.95806" lon="6.60966">
        <ele>980.7</ele>
        <time>2026-02-02T06:33:09Z</time>
      </trkpt>
      <trkpt lat="45.95808" lon="6.60966">
        <ele>980.9</ele>
        <time>2026-02-02T06:33:10Z</time>
      </trkpt>
      <trkpt lat="45.95809" lon="6.60965">
        <ele>981.1</ele>
        <time>2026-02-02T06:33:11Z</time>
      </trkpt>
      <trkpt lat="45.95811" lon="6.60964">
        <ele>981.3</ele>
        <time>2026-02-02T06:33:12Z</time>
      </trkpt>
      <trkpt lat="45.95812" lon="6.60963">
        <ele>981.5</ele>
        <time>2026-02-02T06:33:13Z</time>
      </trkpt>
      <trkpt lat="45.95814" lon="6.60961">
        <ele>981.8</ele>
        <time>2026-02-02T06:33:14Z</time>
      </trkpt>
      <trkpt lat="45.95815" lon="6.60961">
        <ele>981.9</ele>
        <time>2026-02-02T06:33:15Z</time>
      </trkpt>
      <trkpt lat="45.95815" lon="6.6096">
        <ele>982</ele>
        <time>2026-02-02T06:33:16Z</time>
      </trkpt>
      <trkpt lat="45.95817" lon="6.60958">
        <ele>982.3</ele>
        <time>2026-02-02T06:33:17Z</time>
      </trkpt>
      <trkpt lat="45.95818" lon="6.60958">
        <ele>982.5</ele>
        <time>2026-02-02T06:33:18Z</time>
      </trkpt>
      <trkpt lat="45.95818" lon="6.60957">
        <ele>982.6</ele>
        <time>2026-02-02T06:33:19Z</time>
      </trkpt>
      <trkpt lat="45.9582" lon="6.60956">
        <ele>982.9</ele>
        <time>2026-02-02T06:33:20Z</time>
      </trkpt>
      <trkpt lat="45.95821" lon="6.60956">
        <ele>983</ele>
        <time>2026-02-02T06:33:21Z</time>
      </trkpt>
      <trkpt lat="45.95822" lon="6.60956">
        <ele>983.1</ele>
        <time>2026-02-02T06:33:22Z</time>
      </trkpt>
      <trkpt lat="45.95824" lon="6.60954">
        <ele>983.4</ele>
        <time>2026-02-02T06:33:23Z</time>
      </trkpt>
      <trkpt lat="45.95824" lon="6.60954">
        <ele>983.5</ele>
        <time>2026-02-02T06:33:24Z</time>
      </trkpt>
      <trkpt lat="45.95825" lon="6.60953">
        <ele>983.6</ele>
        <time>2026-02-02T06:33:25Z</time>
      </trkpt>
      <trkpt lat="45.95826" lon="6.60953">
        <ele>983.8</ele>
        <time>2026-02-02T06:33:26Z</time>
      </trkpt>
      <trkpt lat="45.95827" lon="6.60952">
        <ele>983.9</ele>
        <time>2026-02-02T06:33:27Z</time>
      </trkpt>
      <trkpt lat="45.95828" lon="6.60951">
        <ele>984.1</ele>
        <time>2026-02-02T06:33:28Z</time>
      </trkpt>
      <trkpt lat="45.9583" lon="6.60949">
        <ele>984.3</ele>
        <time>2026-02-02T06:33:29Z</time>
      </trkpt>
      <trkpt lat="45.95831" lon="6.60948">
        <ele>984.5</ele>
        <time>2026-02-02T06:33:30Z</time>
      </trkpt>
      <trkpt lat="45.95832" lon="6.60946">
        <ele>984.7</ele>
        <time>2026-02-02T06:33:31Z</time>
      </trkpt>
      <trkpt lat="45.95833" lon="6.60945">
        <ele>984.8</ele>
        <time>2026-02-02T06:33:32Z</time>
      </trkpt>
      <trkpt lat="45.95834" lon="6.60945">
        <ele>984.9</ele>
        <time>2026-02-02T06:33:33Z</time>
      </trkpt>
      <trkpt lat="45.95834" lon="6.60944">
        <ele>985.1</ele>
        <time>2026-02-02T06:33:34Z</time>
      </trkpt>
      <trkpt lat="45.95835" lon="6.60943">
        <ele>985.2</ele>
        <time>2026-02-02T06:33:35Z</time>
      </trkpt>
      <trkpt lat="45.95836" lon="6.60942">
        <ele>985.3</ele>
        <time>2026-02-02T06:33:36Z</time>
      </trkpt>
      <trkpt lat="45.95837" lon="6.60942">
        <ele>985.4</ele>
        <time>2026-02-02T06:33:37Z</time>
      </trkpt>
      <trkpt lat="45.95838" lon="6.60941">
        <ele>985.6</ele>
        <time>2026-02-02T06:33:38Z</time>
      </trkpt>
      <trkpt lat="45.9584" lon="6.6094">
        <ele>985.8</ele>
        <time>2026-02-02T06:33:39Z</time>
      </trkpt>
      <trkpt lat="45.95841" lon="6.6094">
        <ele>985.9</ele>
        <time>2026-02-02T06:33:40Z</time>
      </trkpt>
      <trkpt lat="45.95842" lon="6.60939">
        <ele>986</ele>
        <time>2026-02-02T06:33:41Z</time>
      </trkpt>
      <trkpt lat="45.95844" lon="6.60938">
        <ele>986.3</ele>
        <time>2026-02-02T06:33:42Z</time>
      </trkpt>
      <trkpt lat="45.95844" lon="6.60937">
        <ele>986.4</ele>
        <time>2026-02-02T06:33:43Z</time>
      </trkpt>
      <trkpt lat="45.95845" lon="6.60936">
        <ele>986.5</ele>
        <time>2026-02-02T06:33:44Z</time>
      </trkpt>
      <trkpt lat="45.95846" lon="6.60935">
        <ele>986.6</ele>
        <time>2026-02-02T06:33:45Z</time>
      </trkpt>
      <trkpt lat="45.95847" lon="6.60934">
        <ele>986.8</ele>
        <time>2026-02-02T06:33:46Z</time>
      </trkpt>
      <trkpt lat="45.95849" lon="6.60932">
        <ele>987</ele>
        <time>2026-02-02T06:33:48Z</time>
      </trkpt>
      <trkpt lat="45.9585" lon="6.60931">
        <ele>987.3</ele>
        <time>2026-02-02T06:33:49Z</time>
      </trkpt>
      <trkpt lat="45.95852" lon="6.60929">
        <ele>987.6</ele>
        <time>2026-02-02T06:33:50Z</time>
      </trkpt>
      <trkpt lat="45.95853" lon="6.60928">
        <ele>987.8</ele>
        <time>2026-02-02T06:33:51Z</time>
      </trkpt>
      <trkpt lat="45.95853" lon="6.60928">
        <ele>987.9</ele>
        <time>2026-02-02T06:33:52Z</time>
      </trkpt>
      <trkpt lat="45.95854" lon="6.60927">
        <ele>988.1</ele>
        <time>2026-02-02T06:33:53Z</time>
      </trkpt>
      <trkpt lat="45.95856" lon="6.60926">
        <ele>988.3</ele>
        <time>2026-02-02T06:33:54Z</time>
      </trkpt>
      <trkpt lat="45.95858" lon="6.60924">
        <ele>988.7</ele>
        <time>2026-02-02T06:33:55Z</time>
      </trkpt>
      <trkpt lat="45.95858" lon="6.60923">
        <ele>988.8</ele>
        <time>2026-02-02T06:33:56Z</time>
      </trkpt>
      <trkpt lat="45.95859" lon="6.60923">
        <ele>988.9</ele>
        <time>2026-02-02T06:33:57Z</time>
      </trkpt>
      <trkpt lat="45.95861" lon="6.60921">
        <ele>989.3</ele>
        <time>2026-02-02T06:33:59Z</time>
      </trkpt>
      <trkpt lat="45.95862" lon="6.6092">
        <ele>989.5</ele>
        <time>2026-02-02T06:34:00Z</time>
      </trkpt>
      <trkpt lat="45.95863" lon="6.60919">
        <ele>989.7</ele>
        <time>2026-02-02T06:34:01Z</time>
      </trkpt>
      <trkpt lat="45.95864" lon="6.60918">
        <ele>989.9</ele>
        <time>2026-02-02T06:34:02Z</time>
      </trkpt>
      <trkpt lat="45.95865" lon="6.60918">
        <ele>990.1</ele>
        <time>2026-02-02T06:34:03Z</time>
      </trkpt>
      <trkpt lat="45.95866" lon="6.60917">
        <ele>990.3</ele>
        <time>2026-02-02T06:34:04Z</time>
      </trkpt>
      <trkpt lat="45.95867" lon="6.60916">
        <ele>990.5</ele>
        <time>2026-02-02T06:34:05Z</time>
      </trkpt>
      <trkpt lat="45.95867" lon="6.60915">
        <ele>990.6</ele>
        <time>2026-02-02T06:34:06Z</time>
      </trkpt>
      <trkpt lat="45.95868" lon="6.60914">
        <ele>990.8</ele>
        <time>2026-02-02T06:34:07Z</time>
      </trkpt>
      <trkpt lat="45.95868" lon="6.60913">
        <ele>990.9</ele>
        <time>2026-02-02T06:34:08Z</time>
      </trkpt>
      <trkpt lat="45.95869" lon="6.60912">
        <ele>991.1</ele>
        <time>2026-02-02T06:34:09Z</time>
      </trkpt>
      <trkpt lat="45.95869" lon="6.60911">
        <ele>991.3</ele>
        <time>2026-02-02T06:34:10Z</time>
      </trkpt>
      <trkpt lat="45.9587" lon="6.60909">
        <ele>991.5</ele>
        <time>2026-02-02T06:34:11Z</time>
      </trkpt>
      <trkpt lat="45.95871" lon="6.60908">
        <ele>991.7</ele>
        <time>2026-02-02T06:34:12Z</time>
      </trkpt>
      <trkpt lat="45.95871" lon="6.60906">
        <ele>991.9</ele>
        <time>2026-02-02T06:34:13Z</time>
      </trkpt>
      <trkpt lat="45.95871" lon="6.60905">
        <ele>992</ele>
        <time>2026-02-02T06:34:14Z</time>
      </trkpt>
      <trkpt lat="45.95872" lon="6.60905">
        <ele>992.1</ele>
        <time>2026-02-02T06:34:15Z</time>
      </trkpt>
      <trkpt lat="45.95872" lon="6.60904">
        <ele>992.3</ele>
        <time>2026-02-02T06:34:16Z</time>
      </trkpt>
      <trkpt lat="45.95874" lon="6.60904">
        <ele>992.6</ele>
        <time>2026-02-02T06:34:18Z</time>
      </trkpt>
      <trkpt lat="45.95875" lon="6.60903">
        <ele>992.8</ele>
        <time>2026-02-02T06:34:20Z</time>
      </trkpt>
      <trkpt lat="45.95875" lon="6.60901">
        <ele>993.1</ele>
        <time>2026-02-02T06:34:21Z</time>
      </trkpt>
      <trkpt lat="45.95876" lon="6.60897">
        <ele>993.6</ele>
        <time>2026-02-02T06:34:23Z</time>
      </trkpt>
      <trkpt lat="45.95876" lon="6.60896">
        <ele>993.8</ele>
        <time>2026-02-02T06:34:24Z</time>
      </trkpt>
      <trkpt lat="45.95876" lon="6.60894">
        <ele>994</ele>
        <time>2026-02-02T06:34:25Z</time>
      </trkpt>
      <trkpt lat="45.95876" lon="6.60892">
        <ele>994.3</ele>
        <time>2026-02-02T06:34:26Z</time>
      </trkpt>
      <trkpt lat="45.95877" lon="6.60891">
        <ele>994.5</ele>
        <time>2026-02-02T06:34:27Z</time>
      </trkpt>
      <trkpt lat="45.95877" lon="6.6089">
        <ele>994.6</ele>
        <time>2026-02-02T06:34:28Z</time>
      </trkpt>
      <trkpt lat="45.95877" lon="6.60889">
        <ele>994.8</ele>
        <time>2026-02-02T06:34:29Z</time>
      </trkpt>
      <trkpt lat="45.95877" lon="6.60887">
        <ele>995</ele>
        <time>2026-02-02T06:34:30Z</time>
      </trkpt>
      <trkpt lat="45.95878" lon="6.60886">
        <ele>995.2</ele>
        <time>2026-02-02T06:34:31Z</time>
      </trkpt>
      <trkpt lat="45.95878" lon="6.60885">
        <ele>995.4</ele>
        <time>2026-02-02T06:34:32Z</time>
      </trkpt>
      <trkpt lat="45.95879" lon="6.60883">
        <ele>995.6</ele>
        <time>2026-02-02T06:34:33Z</time>
      </trkpt>
      <trkpt lat="45.9588" lon="6.60883">
        <ele>995.8</ele>
        <time>2026-02-02T06:34:34Z</time>
      </trkpt>
      <trkpt lat="45.95882" lon="6.60881">
        <ele>996.1</ele>
        <time>2026-02-02T06:34:35Z</time>
      </trkpt>
      <trkpt lat="45.95882" lon="6.60881">
        <ele>996.3</ele>
        <time>2026-02-02T06:34:36Z</time>
      </trkpt>
      <trkpt lat="45.95883" lon="6.6088">
        <ele>996.5</ele>
        <time>2026-02-02T06:34:37Z</time>
      </trkpt>
      <trkpt lat="45.95883" lon="6.6088">
        <ele>996.6</ele>
        <time>2026-02-02T06:34:38Z</time>
      </trkpt>
      <trkpt lat="45.95885" lon="6.60877">
        <ele>997.1</ele>
        <time>2026-02-02T06:34:39Z</time>
      </trkpt>
      <trkpt lat="45.95885" lon="6.60876">
        <ele>997.2</ele>
        <time>2026-02-02T06:34:40Z</time>
      </trkpt>
      <trkpt lat="45.95885" lon="6.60875">
        <ele>997.4</ele>
        <time>2026-02-02T06:34:41Z</time>
      </trkpt>
      <trkpt lat="45.95887" lon="6.60873">
        <ele>997.8</ele>
        <time>2026-02-02T06:34:42Z</time>
      </trkpt>
      <trkpt lat="45.95887" lon="6.60872">
        <ele>998</ele>
        <time>2026-02-02T06:34:43Z</time>
      </trkpt>
      <trkpt lat="45.95888" lon="6.60871">
        <ele>998.2</ele>
        <time>2026-02-02T06:34:44Z</time>
      </trkpt>
      <trkpt lat="45.95889" lon="6.6087">
        <ele>998.5</ele>
        <time>2026-02-02T06:34:45Z</time>
      </trkpt>
      <trkpt lat="45.9589" lon="6.6087">
        <ele>998.7</ele>
        <time>2026-02-02T06:34:46Z</time>
      </trkpt>
      <trkpt lat="45.95891" lon="6.60869">
        <ele>998.9</ele>
        <time>2026-02-02T06:34:47Z</time>
      </trkpt>
      <trkpt lat="45.95892" lon="6.60868">
        <ele>999.1</ele>
        <time>2026-02-02T06:34:48Z</time>
      </trkpt>
      <trkpt lat="45.95891" lon="6.60867">
        <ele>999.3</ele>
        <time>2026-02-02T06:34:49Z</time>
      </trkpt>
      <trkpt lat="45.95891" lon="6.60866">
        <ele>999.5</ele>
        <time>2026-02-02T06:34:50Z</time>
      </trkpt>
      <trkpt lat="45.95891" lon="6.60865">
        <ele>999.6</ele>
        <time>2026-02-02T06:34:51Z</time>
      </trkpt>
      <trkpt lat="45.95891" lon="6.60864">
        <ele>999.7</ele>
        <time>2026-02-02T06:34:52Z</time>
      </trkpt>
      <trkpt lat="45.95892" lon="6.60864">
        <ele>1000</ele>
        <time>2026-02-02T06:34:53Z</time>
      </trkpt>
      <trkpt lat="45.95893" lon="6.60863">
        <ele>1000.2</ele>
        <time>2026-02-02T06:34:54Z</time>
      </trkpt>
      <trkpt lat="45.95894" lon="6.60864">
        <ele>1000.5</ele>
        <time>2026-02-02T06:34:55Z</time>
      </trkpt>
      <trkpt lat="45.95895" lon="6.60863">
        <ele>1000.8</ele>
        <time>2026-02-02T06:34:56Z</time>
      </trkpt>
      <trkpt lat="45.95896" lon="6.60863">
        <ele>1001</ele>
        <time>2026-02-02T06:34:57Z</time>
      </trkpt>
      <trkpt lat="45.95897" lon="6.60861">
        <ele>1001.4</ele>
        <time>2026-02-02T06:34:58Z</time>
      </trkpt>
      <trkpt lat="45.95897" lon="6.60858">
        <ele>1001.9</ele>
        <time>2026-02-02T06:34:59Z</time>
      </trkpt>
      <trkpt lat="45.95897" lon="6.60857">
        <ele>1002.1</ele>
        <time>2026-02-02T06:35:00Z</time>
      </trkpt>
      <trkpt lat="45.95897" lon="6.60856">
        <ele>1002.2</ele>
        <time>2026-02-02T06:35:01Z</time>
      </trkpt>
      <trkpt lat="45.95897" lon="6.60855">
        <ele>1002.4</ele>
        <time>2026-02-02T06:35:02Z</time>
      </trkpt>
      <trkpt lat="45.95897" lon="6.60854">
        <ele>1002.5</ele>
        <time>2026-02-02T06:35:03Z</time>
      </trkpt>
      <trkpt lat="45.95898" lon="6.60854">
        <ele>1002.8</ele>
        <time>2026-02-02T06:35:04Z</time>
      </trkpt>
      <trkpt lat="45.959" lon="6.60854">
        <ele>1003.1</ele>
        <time>2026-02-02T06:35:05Z</time>
      </trkpt>
      <trkpt lat="45.95901" lon="6.60854">
        <ele>1003.4</ele>
        <time>2026-02-02T06:35:06Z</time>
      </trkpt>
      <trkpt lat="45.95903" lon="6.60854">
        <ele>1003.8</ele>
        <time>2026-02-02T06:35:07Z</time>
      </trkpt>
      <trkpt lat="45.95904" lon="6.60853">
        <ele>1004.3</ele>
        <time>2026-02-02T06:35:08Z</time>
      </trkpt>
      <trkpt lat="45.95905" lon="6.60852">
        <ele>1004.4</ele>
        <time>2026-02-02T06:35:09Z</time>
      </trkpt>
      <trkpt lat="45.95906" lon="6.60851">
        <ele>1004.6</ele>
        <time>2026-02-02T06:35:10Z</time>
      </trkpt>
      <trkpt lat="45.95906" lon="6.60848">
        <ele>1005.2</ele>
        <time>2026-02-02T06:35:11Z</time>
      </trkpt>
      <trkpt lat="45.95907" lon="6.60847">
        <ele>1005.4</ele>
        <time>2026-02-02T06:35:12Z</time>
      </trkpt>
      <trkpt lat="45.95907" lon="6.60846">
        <ele>1005.6</ele>
        <time>2026-02-02T06:35:13Z</time>
      </trkpt>
      <trkpt lat="45.95907" lon="6.60844">
        <ele>1005.8</ele>
        <time>2026-02-02T06:35:14Z</time>
      </trkpt>
      <trkpt lat="45.95908" lon="6.60843">
        <ele>1006.1</ele>
        <time>2026-02-02T06:35:15Z</time>
      </trkpt>
      <trkpt lat="45.95909" lon="6.60843">
        <ele>1006.3</ele>
        <time>2026-02-02T06:35:16Z</time>
      </trkpt>
      <trkpt lat="45.9591" lon="6.60842">
        <ele>1006.7</ele>
        <time>2026-02-02T06:35:17Z</time>
      </trkpt>
      <trkpt lat="45.95912" lon="6.60841">
        <ele>1007</ele>
        <time>2026-02-02T06:35:18Z</time>
      </trkpt>
      <trkpt lat="45.95913" lon="6.6084">
        <ele>1007.3</ele>
        <time>2026-02-02T06:35:19Z</time>
      </trkpt>
      <trkpt lat="45.95914" lon="6.60839">
        <ele>1007.5</ele>
        <time>2026-02-02T06:35:20Z</time>
      </trkpt>
      <trkpt lat="45.95914" lon="6.60838">
        <ele>1007.8</ele>
        <time>2026-02-02T06:35:21Z</time>
      </trkpt>
      <trkpt lat="45.95914" lon="6.60837">
        <ele>1007.9</ele>
        <time>2026-02-02T06:35:22Z</time>
      </trkpt>
      <trkpt lat="45.95914" lon="6.60836">
        <ele>1008</ele>
        <time>2026-02-02T06:35:23Z</time>
      </trkpt>
      <trkpt lat="45.95914" lon="6.60836">
        <ele>1008.1</ele>
        <time>2026-02-02T06:35:24Z</time>
      </trkpt>
      <trkpt lat="45.95915" lon="6.60836">
        <ele>1008.2</ele>
        <time>2026-02-02T06:35:25Z</time>
      </trkpt>
      <trkpt lat="45.95915" lon="6.60835">
        <ele>1008.3</ele>
        <time>2026-02-02T06:35:26Z</time>
      </trkpt>
      <trkpt lat="45.95916" lon="6.60834">
        <ele>1008.5</ele>
        <time>2026-02-02T06:35:27Z</time>
      </trkpt>
      <trkpt lat="45.95916" lon="6.60834">
        <ele>1008.6</ele>
        <time>2026-02-02T06:35:28Z</time>
      </trkpt>
      <trkpt lat="45.95916" lon="6.60833">
        <ele>1008.7</ele>
        <time>2026-02-02T06:35:29Z</time>
      </trkpt>
      <trkpt lat="45.95916" lon="6.60831">
        <ele>1008.9</ele>
        <time>2026-02-02T06:35:30Z</time>
      </trkpt>
      <trkpt lat="45.95916" lon="6.60831">
        <ele>1009.1</ele>
        <time>2026-02-02T06:35:31Z</time>
      </trkpt>
      <trkpt lat="45.95915" lon="6.60829">
        <ele>1009.3</ele>
        <time>2026-02-02T06:35:32Z</time>
      </trkpt>
      <trkpt lat="45.95915" lon="6.60829">
        <ele>1009.5</ele>
        <time>2026-02-02T06:35:33Z</time>
      </trkpt>
      <trkpt lat="45.95915" lon="6.60828">
        <ele>1009.6</ele>
        <time>2026-02-02T06:35:34Z</time>
      </trkpt>
      <trkpt lat="45.95915" lon="6.60827">
        <ele>1009.7</ele>
        <time>2026-02-02T06:35:35Z</time>
      </trkpt>
      <trkpt lat="45.95915" lon="6.60827">
        <ele>1009.7</ele>
        <time>2026-02-02T06:35:36Z</time>
      </trkpt>
      <trkpt lat="45.95916" lon="6.60827">
        <ele>1009.9</ele>
        <time>2026-02-02T06:35:37Z</time>
      </trkpt>
      <trkpt lat="45.95917" lon="6.60826">
        <ele>1010.1</ele>
        <time>2026-02-02T06:35:38Z</time>
      </trkpt>
      <trkpt lat="45.95917" lon="6.60825">
        <ele>1010.3</ele>
        <time>2026-02-02T06:35:39Z</time>
      </trkpt>
      <trkpt lat="45.95917" lon="6.60824">
        <ele>1010.5</ele>
        <time>2026-02-02T06:35:40Z</time>
      </trkpt>
      <trkpt lat="45.95917" lon="6.60823">
        <ele>1010.7</ele>
        <time>2026-02-02T06:35:41Z</time>
      </trkpt>
      <trkpt lat="45.95917" lon="6.60821">
        <ele>1010.9</ele>
        <time>2026-02-02T06:35:42Z</time>
      </trkpt>
      <trkpt lat="45.95917" lon="6.6082">
        <ele>1011.1</ele>
        <time>2026-02-02T06:35:43Z</time>
      </trkpt>
      <trkpt lat="45.95917" lon="6.60818">
        <ele>1011.4</ele>
        <time>2026-02-02T06:35:44Z</time>
      </trkpt>
      <trkpt lat="45.95917" lon="6.60817">
        <ele>1011.5</ele>
        <time>2026-02-02T06:35:45Z</time>
      </trkpt>
      <trkpt lat="45.95917" lon="6.60816">
        <ele>1011.7</ele>
        <time>2026-02-02T06:35:46Z</time>
      </trkpt>
      <trkpt lat="45.95918" lon="6.60815">
        <ele>1011.9</ele>
        <time>2026-02-02T06:35:47Z</time>
      </trkpt>
      <trkpt lat="45.95919" lon="6.60813">
        <ele>1012.1</ele>
        <time>2026-02-02T06:35:48Z</time>
      </trkpt>
      <trkpt lat="45.95919" lon="6.60812">
        <ele>1012.3</ele>
        <time>2026-02-02T06:35:49Z</time>
      </trkpt>
      <trkpt lat="45.9592" lon="6.60811">
        <ele>1012.4</ele>
        <time>2026-02-02T06:35:50Z</time>
      </trkpt>
      <trkpt lat="45.9592" lon="6.6081">
        <ele>1012.6</ele>
        <time>2026-02-02T06:35:51Z</time>
      </trkpt>
      <trkpt lat="45.9592" lon="6.60808">
        <ele>1012.8</ele>
        <time>2026-02-02T06:35:52Z</time>
      </trkpt>
      <trkpt lat="45.95921" lon="6.60806">
        <ele>1013.1</ele>
        <time>2026-02-02T06:35:53Z</time>
      </trkpt>
      <trkpt lat="45.95921" lon="6.60805">
        <ele>1013.3</ele>
        <time>2026-02-02T06:35:54Z</time>
      </trkpt>
      <trkpt lat="45.95921" lon="6.60803">
        <ele>1013.4</ele>
        <time>2026-02-02T06:35:55Z</time>
      </trkpt>
      <trkpt lat="45.95921" lon="6.60803">
        <ele>1013.5</ele>
        <time>2026-02-02T06:35:56Z</time>
      </trkpt>
      <trkpt lat="45.95921" lon="6.60802">
        <ele>1013.7</ele>
        <time>2026-02-02T06:35:57Z</time>
      </trkpt>
      <trkpt lat="45.95921" lon="6.60801">
        <ele>1013.8</ele>
        <time>2026-02-02T06:35:58Z</time>
      </trkpt>
      <trkpt lat="45.95921" lon="6.60798">
        <ele>1014.1</ele>
        <time>2026-02-02T06:35:59Z</time>
      </trkpt>
      <trkpt lat="45.95921" lon="6.60797">
        <ele>1014.2</ele>
        <time>2026-02-02T06:36:00Z</time>
      </trkpt>
      <trkpt lat="45.95921" lon="6.60796">
        <ele>1014.4</ele>
        <time>2026-02-02T06:36:01Z</time>
      </trkpt>
      <trkpt lat="45.9592" lon="6.60795">
        <ele>1014.5</ele>
        <time>2026-02-02T06:36:02Z</time>
      </trkpt>
      <trkpt lat="45.9592" lon="6.60794">
        <ele>1014.7</ele>
        <time>2026-02-02T06:36:03Z</time>
      </trkpt>
      <trkpt lat="45.95921" lon="6.60793">
        <ele>1014.8</ele>
        <time>2026-02-02T06:36:04Z</time>
      </trkpt>
      <trkpt lat="45.95921" lon="6.60792">
        <ele>1014.9</ele>
        <time>2026-02-02T06:36:05Z</time>
      </trkpt>
      <trkpt lat="45.95921" lon="6.60791">
        <ele>1015.1</ele>
        <time>2026-02-02T06:36:06Z</time>
      </trkpt>
      <trkpt lat="45.95921" lon="6.6079">
        <ele>1015.2</ele>
        <time>2026-02-02T06:36:07Z</time>
      </trkpt>
      <trkpt lat="45.95921" lon="6.60789">
        <ele>1015.4</ele>
        <time>2026-02-02T06:36:08Z</time>
      </trkpt>
      <trkpt lat="45.95922" lon="6.60787">
        <ele>1015.6</ele>
        <time>2026-02-02T06:36:09Z</time>
      </trkpt>
      <trkpt lat="45.95922" lon="6.60786">
        <ele>1015.8</ele>
        <time>2026-02-02T06:36:10Z</time>
      </trkpt>
      <trkpt lat="45.95923" lon="6.60785">
        <ele>1016</ele>
        <time>2026-02-02T06:36:11Z</time>
      </trkpt>
      <trkpt lat="45.95923" lon="6.60783">
        <ele>1016.2</ele>
        <time>2026-02-02T06:36:12Z</time>
      </trkpt>
      <trkpt lat="45.95923" lon="6.60782">
        <ele>1016.4</ele>
        <time>2026-02-02T06:36:13Z</time>
      </trkpt>
      <trkpt lat="45.95923" lon="6.6078">
        <ele>1016.6</ele>
        <time>2026-02-02T06:36:14Z</time>
      </trkpt>
      <trkpt lat="45.95923" lon="6.60779">
        <ele>1016.8</ele>
        <time>2026-02-02T06:36:15Z</time>
      </trkpt>
      <trkpt lat="45.95923" lon="6.60777">
        <ele>1017</ele>
        <time>2026-02-02T06:36:16Z</time>
      </trkpt>
      <trkpt lat="45.95923" lon="6.60776">
        <ele>1017.2</ele>
        <time>2026-02-02T06:36:17Z</time>
      </trkpt>
      <trkpt lat="45.95923" lon="6.60774">
        <ele>1017.4</ele>
        <time>2026-02-02T06:36:18Z</time>
      </trkpt>
      <trkpt lat="45.95923" lon="6.60773">
        <ele>1017.6</ele>
        <time>2026-02-02T06:36:19Z</time>
      </trkpt>
      <trkpt lat="45.95923" lon="6.60772">
        <ele>1017.8</ele>
        <time>2026-02-02T06:36:20Z</time>
      </trkpt>
      <trkpt lat="45.95924" lon="6.60771">
        <ele>1017.9</ele>
        <time>2026-02-02T06:36:21Z</time>
      </trkpt>
      <trkpt lat="45.95924" lon="6.6077">
        <ele>1018</ele>
        <time>2026-02-02T06:36:22Z</time>
      </trkpt>
      <trkpt lat="45.95924" lon="6.6077">
        <ele>1018.1</ele>
        <time>2026-02-02T06:36:23Z</time>
      </trkpt>
      <trkpt lat="45.95924" lon="6.60768">
        <ele>1018.3</ele>
        <time>2026-02-02T06:36:24Z</time>
      </trkpt>
      <trkpt lat="45.95924" lon="6.60767">
        <ele>1018.5</ele>
        <time>2026-02-02T06:36:25Z</time>
      </trkpt>
      <trkpt lat="45.95924" lon="6.60766">
        <ele>1018.6</ele>
        <time>2026-02-02T06:36:26Z</time>
      </trkpt>
      <trkpt lat="45.95924" lon="6.60765">
        <ele>1018.8</ele>
        <time>2026-02-02T06:36:27Z</time>
      </trkpt>
      <trkpt lat="45.95925" lon="6.60764">
        <ele>1018.9</ele>
        <time>2026-02-02T06:36:28Z</time>
      </trkpt>
      <trkpt lat="45.95925" lon="6.60763">
        <ele>1019</ele>
        <time>2026-02-02T06:36:29Z</time>
      </trkpt>
      <trkpt lat="45.95925" lon="6.60762">
        <ele>1019.1</ele>
        <time>2026-02-02T06:36:30Z</time>
      </trkpt>
      <trkpt lat="45.95926" lon="6.60762">
        <ele>1019.2</ele>
        <time>2026-02-02T06:36:31Z</time>
      </trkpt>
      <trkpt lat="45.95926" lon="6.60761">
        <ele>1019.3</ele>
        <time>2026-02-02T06:36:32Z</time>
      </trkpt>
      <trkpt lat="45.95926" lon="6.60762">
        <ele>1019.4</ele>
        <time>2026-02-02T06:36:33Z</time>
      </trkpt>
      <trkpt lat="45.95927" lon="6.60762">
        <ele>1019.6</ele>
        <time>2026-02-02T06:36:34Z</time>
      </trkpt>
      <trkpt lat="45.95928" lon="6.60763">
        <ele>1019.8</ele>
        <time>2026-02-02T06:36:35Z</time>
      </trkpt>
      <trkpt lat="45.95929" lon="6.60763">
        <ele>1019.9</ele>
        <time>2026-02-02T06:36:36Z</time>
      </trkpt>
      <trkpt lat="45.95929" lon="6.60763">
        <ele>1020.1</ele>
        <time>2026-02-02T06:36:37Z</time>
      </trkpt>
      <trkpt lat="45.9593" lon="6.60763">
        <ele>1020.1</ele>
        <time>2026-02-02T06:36:38Z</time>
      </trkpt>
      <trkpt lat="45.9593" lon="6.60763">
        <ele>1020.1</ele>
        <time>2026-02-02T06:36:39Z</time>
      </trkpt>
      <trkpt lat="45.9593" lon="6.60763">
        <ele>1020.2</ele>
        <time>2026-02-02T06:36:40Z</time>
      </trkpt>
      <trkpt lat="45.9593" lon="6.60763">
        <ele>1020.2</ele>
        <time>2026-02-02T06:36:41Z</time>
      </trkpt>
      <trkpt lat="45.9593" lon="6.60763">
        <ele>1020.2</ele>
        <time>2026-02-02T06:36:42Z</time>
      </trkpt>
      <trkpt lat="45.9593" lon="6.60763">
        <ele>1020.2</ele>
        <time>2026-02-02T06:36:43Z</time>
      </trkpt>
      <trkpt lat="45.9593" lon="6.60763">
        <ele>1020.2</ele>
        <time>2026-02-02T06:36:44Z</time>
      </trkpt>
      <trkpt lat="45.9593" lon="6.60763">
        <ele>1020.3</ele>
        <time>2026-02-02T06:36:45Z</time>
      </trkpt>
      <trkpt lat="45.9593" lon="6.60763">
        <ele>1020.3</ele>
        <time>2026-02-02T06:36:46Z</time>
      </trkpt>
      <trkpt lat="45.9593" lon="6.60764">
        <ele>1020.3</ele>
        <time>2026-02-02T06:36:48Z</time>
      </trkpt>
      <trkpt lat="45.95931" lon="6.60764">
        <ele>1020.3</ele>
        <time>2026-02-02T06:36:49Z</time>
      </trkpt>
      <trkpt lat="45.95931" lon="6.60764">
        <ele>1020.3</ele>
        <time>2026-02-02T06:36:50Z</time>
      </trkpt>
      <trkpt lat="45.95931" lon="6.60764">
        <ele>1020.4</ele>
        <time>2026-02-02T06:36:51Z</time>
      </trkpt>
      <trkpt lat="45.95931" lon="6.60764">
        <ele>1020.4</ele>
        <time>2026-02-02T06:36:52Z</time>
      </trkpt>
      <trkpt lat="45.95931" lon="6.60764">
        <ele>1020.4</ele>
        <time>2026-02-02T06:36:53Z</time>
      </trkpt>
      <trkpt lat="45.95931" lon="6.60764">
        <ele>1020.4</ele>
        <time>2026-02-02T06:36:54Z</time>
      </trkpt>
      <trkpt lat="45.95931" lon="6.60764">
        <ele>1020.4</ele>
        <time>2026-02-02T06:36:55Z</time>
      </trkpt>
      <trkpt lat="45.95931" lon="6.60764">
        <ele>1020.5</ele>
        <time>2026-02-02T06:36:56Z</time>
      </trkpt>
      <trkpt lat="45.95931" lon="6.60764">
        <ele>1020.5</ele>
        <time>2026-02-02T06:36:57Z</time>
      </trkpt>
      <trkpt lat="45.95931" lon="6.60764">
        <ele>1020.5</ele>
        <time>2026-02-02T06:36:58Z</time>
      </trkpt>
      <trkpt lat="45.95932" lon="6.60764">
        <ele>1020.5</ele>
        <time>2026-02-02T06:36:59Z</time>
      </trkpt>
      <trkpt lat="45.95932" lon="6.60764">
        <ele>1020.6</ele>
        <time>2026-02-02T06:37:00Z</time>
      </trkpt>
      <trkpt lat="45.95932" lon="6.60764">
        <ele>1020.6</ele>
        <time>2026-02-02T06:37:01Z</time>
      </trkpt>
      <trkpt lat="45.95932" lon="6.60764">
        <ele>1020.6</ele>
        <time>2026-02-02T06:37:02Z</time>
      </trkpt>
      <trkpt lat="45.95932" lon="6.60764">
        <ele>1020.6</ele>
        <time>2026-02-02T06:37:03Z</time>
      </trkpt>
      <trkpt lat="45.95932" lon="6.60764">
        <ele>1020.6</ele>
        <time>2026-02-02T06:37:04Z</time>
      </trkpt>
      <trkpt lat="45.95932" lon="6.60764">
        <ele>1020.7</ele>
        <time>2026-02-02T06:37:05Z</time>
      </trkpt>
      <trkpt lat="45.95932" lon="6.60764">
        <ele>1020.7</ele>
        <time>2026-02-02T06:37:06Z</time>
      </trkpt>
      <trkpt lat="45.95932" lon="6.60764">
        <ele>1020.7</ele>
        <time>2026-02-02T06:37:07Z</time>
      </trkpt>
      <trkpt lat="45.95932" lon="6.60764">
        <ele>1020.7</ele>
        <time>2026-02-02T06:37:08Z</time>
      </trkpt>
      <trkpt lat="45.95933" lon="6.60764">
        <ele>1020.7</ele>
        <time>2026-02-02T06:37:09Z</time>
      </trkpt>
      <trkpt lat="45.95934" lon="6.60764">
        <ele>1021.1</ele>
        <time>2026-02-02T06:37:11Z</time>
      </trkpt>
      <trkpt lat="45.95936" lon="6.60763">
        <ele>1021.4</ele>
        <time>2026-02-02T06:37:12Z</time>
      </trkpt>
      <trkpt lat="45.95936" lon="6.60763">
        <ele>1021.5</ele>
        <time>2026-02-02T06:37:13Z</time>
      </trkpt>
      <trkpt lat="45.95937" lon="6.60763">
        <ele>1021.7</ele>
        <time>2026-02-02T06:37:14Z</time>
      </trkpt>
      <trkpt lat="45.95939" lon="6.60762">
        <ele>1022</ele>
        <time>2026-02-02T06:37:15Z</time>
      </trkpt>
      <trkpt lat="45.95941" lon="6.60762">
        <ele>1022.6</ele>
        <time>2026-02-02T06:37:16Z</time>
      </trkpt>
      <trkpt lat="45.95942" lon="6.60761">
        <ele>1022.8</ele>
        <time>2026-02-02T06:37:17Z</time>
      </trkpt>
      <trkpt lat="45.95942" lon="6.60761">
        <ele>1023</ele>
        <time>2026-02-02T06:37:18Z</time>
      </trkpt>
      <trkpt lat="45.95944" lon="6.60759">
        <ele>1023.4</ele>
        <time>2026-02-02T06:37:19Z</time>
      </trkpt>
      <trkpt lat="45.95944" lon="6.60759">
        <ele>1023.5</ele>
        <time>2026-02-02T06:37:20Z</time>
      </trkpt>
      <trkpt lat="45.95945" lon="6.60758">
        <ele>1023.7</ele>
        <time>2026-02-02T06:37:21Z</time>
      </trkpt>
      <trkpt lat="45.95945" lon="6.60757">
        <ele>1023.9</ele>
        <time>2026-02-02T06:37:22Z</time>
      </trkpt>
      <trkpt lat="45.95946" lon="6.60755">
        <ele>1024.4</ele>
        <time>2026-02-02T06:37:23Z</time>
      </trkpt>
      <trkpt lat="45.95946" lon="6.60753">
        <ele>1024.6</ele>
        <time>2026-02-02T06:37:24Z</time>
      </trkpt>
      <trkpt lat="45.95947" lon="6.60752">
        <ele>1024.8</ele>
        <time>2026-02-02T06:37:25Z</time>
      </trkpt>
      <trkpt lat="45.95947" lon="6.6075">
        <ele>1025.1</ele>
        <time>2026-02-02T06:37:26Z</time>
      </trkpt>
      <trkpt lat="45.95947" lon="6.60749">
        <ele>1025.3</ele>
        <time>2026-02-02T06:37:27Z</time>
      </trkpt>
      <trkpt lat="45.95947" lon="6.60748">
        <ele>1025.5</ele>
        <time>2026-02-02T06:37:28Z</time>
      </trkpt>
      <trkpt lat="45.95948" lon="6.60747">
        <ele>1025.7</ele>
        <time>2026-02-02T06:37:29Z</time>
      </trkpt>
      <trkpt lat="45.95948" lon="6.60746">
        <ele>1025.9</ele>
        <time>2026-02-02T06:37:30Z</time>
      </trkpt>
      <trkpt lat="45.95948" lon="6.60745">
        <ele>1026</ele>
        <time>2026-02-02T06:37:31Z</time>
      </trkpt>
      <trkpt lat="45.95948" lon="6.60744">
        <ele>1026.2</ele>
        <time>2026-02-02T06:37:32Z</time>
      </trkpt>
      <trkpt lat="45.95948" lon="6.60744">
        <ele>1026.2</ele>
        <time>2026-02-02T06:37:33Z</time>
      </trkpt>
      <trkpt lat="45.95948" lon="6.60743">
        <ele>1026.3</ele>
        <time>2026-02-02T06:37:34Z</time>
      </trkpt>
      <trkpt lat="45.95948" lon="6.60743">
        <ele>1026.4</ele>
        <time>2026-02-02T06:37:35Z</time>
      </trkpt>
      <trkpt lat="45.95949" lon="6.60742">
        <ele>1026.7</ele>
        <time>2026-02-02T06:37:36Z</time>
      </trkpt>
      <trkpt lat="45.95949" lon="6.6074">
        <ele>1027</ele>
        <time>2026-02-02T06:37:37Z</time>
      </trkpt>
      <trkpt lat="45.95949" lon="6.60738">
        <ele>1027.3</ele>
        <time>2026-02-02T06:37:38Z</time>
      </trkpt>
      <trkpt lat="45.9595" lon="6.60737">
        <ele>1027.5</ele>
        <time>2026-02-02T06:37:39Z</time>
      </trkpt>
      <trkpt lat="45.9595" lon="6.60736">
        <ele>1027.8</ele>
        <time>2026-02-02T06:37:40Z</time>
      </trkpt>
      <trkpt lat="45.95952" lon="6.60733">
        <ele>1028.5</ele>
        <time>2026-02-02T06:37:41Z</time>
      </trkpt>
      <trkpt lat="45.95953" lon="6.60732">
        <ele>1028.7</ele>
        <time>2026-02-02T06:37:43Z</time>
      </trkpt>
      <trkpt lat="45.95954" lon="6.60731">
        <ele>1029</ele>
        <time>2026-02-02T06:37:44Z</time>
      </trkpt>
      <trkpt lat="45.95955" lon="6.6073">
        <ele>1029.2</ele>
        <time>2026-02-02T06:37:45Z</time>
      </trkpt>
      <trkpt lat="45.95956" lon="6.60729">
        <ele>1029.5</ele>
        <time>2026-02-02T06:37:46Z</time>
      </trkpt>
      <trkpt lat="45.95956" lon="6.60728">
        <ele>1029.7</ele>
        <time>2026-02-02T06:37:47Z</time>
      </trkpt>
      <trkpt lat="45.95956" lon="6.60727">
        <ele>1029.9</ele>
        <time>2026-02-02T06:37:48Z</time>
      </trkpt>
      <trkpt lat="45.95957" lon="6.60725">
        <ele>1030.1</ele>
        <time>2026-02-02T06:37:49Z</time>
      </trkpt>
      <trkpt lat="45.95957" lon="6.60724">
        <ele>1030.3</ele>
        <time>2026-02-02T06:37:50Z</time>
      </trkpt>
      <trkpt lat="45.95957" lon="6.60723">
        <ele>1030.5</ele>
        <time>2026-02-02T06:37:51Z</time>
      </trkpt>
      <trkpt lat="45.95958" lon="6.60722">
        <ele>1030.8</ele>
        <time>2026-02-02T06:37:52Z</time>
      </trkpt>
      <trkpt lat="45.95958" lon="6.6072">
        <ele>1031</ele>
        <time>2026-02-02T06:37:53Z</time>
      </trkpt>
      <trkpt lat="45.95958" lon="6.60719">
        <ele>1031.2</ele>
        <time>2026-02-02T06:37:54Z</time>
      </trkpt>
      <trkpt lat="45.95958" lon="6.60718">
        <ele>1031.4</ele>
        <time>2026-02-02T06:37:55Z</time>
      </trkpt>
      <trkpt lat="45.95958" lon="6.60716">
        <ele>1031.6</ele>
        <time>2026-02-02T06:37:56Z</time>
      </trkpt>
      <trkpt lat="45.95958" lon="6.60715">
        <ele>1031.8</ele>
        <time>2026-02-02T06:37:57Z</time>
      </trkpt>
      <trkpt lat="45.95958" lon="6.60714">
        <ele>1032</ele>
        <time>2026-02-02T06:37:58Z</time>
      </trkpt>
      <trkpt lat="45.95957" lon="6.60711">
        <ele>1032.3</ele>
        <time>2026-02-02T06:37:59Z</time>
      </trkpt>
      <trkpt lat="45.95957" lon="6.6071">
        <ele>1032.4</ele>
        <time>2026-02-02T06:38:00Z</time>
      </trkpt>
      <trkpt lat="45.95957" lon="6.60709">
        <ele>1032.6</ele>
        <time>2026-02-02T06:38:01Z</time>
      </trkpt>
      <trkpt lat="45.95957" lon="6.60708">
        <ele>1032.7</ele>
        <time>2026-02-02T06:38:02Z</time>
      </trkpt>
      <trkpt lat="45.95957" lon="6.60707">
        <ele>1032.9</ele>
        <time>2026-02-02T06:38:03Z</time>
      </trkpt>
      <trkpt lat="45.95957" lon="6.60705">
        <ele>1033.1</ele>
        <time>2026-02-02T06:38:04Z</time>
      </trkpt>
      <trkpt lat="45.95958" lon="6.60704">
        <ele>1033.4</ele>
        <time>2026-02-02T06:38:05Z</time>
      </trkpt>
      <trkpt lat="45.95958" lon="6.60702">
        <ele>1033.6</ele>
        <time>2026-02-02T06:38:06Z</time>
      </trkpt>
      <trkpt lat="45.95958" lon="6.607">
        <ele>1033.8</ele>
        <time>2026-02-02T06:38:07Z</time>
      </trkpt>
      <trkpt lat="45.95959" lon="6.60699">
        <ele>1034</ele>
        <time>2026-02-02T06:38:08Z</time>
      </trkpt>
      <trkpt lat="45.95959" lon="6.60697">
        <ele>1034.2</ele>
        <time>2026-02-02T06:38:09Z</time>
      </trkpt>
      <trkpt lat="45.9596" lon="6.60696">
        <ele>1034.4</ele>
        <time>2026-02-02T06:38:10Z</time>
      </trkpt>
      <trkpt lat="45.95961" lon="6.60694">
        <ele>1034.6</ele>
        <time>2026-02-02T06:38:11Z</time>
      </trkpt>
      <trkpt lat="45.95961" lon="6.60693">
        <ele>1034.8</ele>
        <time>2026-02-02T06:38:12Z</time>
      </trkpt>
      <trkpt lat="45.95961" lon="6.60691">
        <ele>1034.9</ele>
        <time>2026-02-02T06:38:13Z</time>
      </trkpt>
      <trkpt lat="45.95962" lon="6.6069">
        <ele>1035.1</ele>
        <time>2026-02-02T06:38:14Z</time>
      </trkpt>
      <trkpt lat="45.95962" lon="6.60689">
        <ele>1035.3</ele>
        <time>2026-02-02T06:38:15Z</time>
      </trkpt>
      <trkpt lat="45.95962" lon="6.60687">
        <ele>1035.4</ele>
        <time>2026-02-02T06:38:16Z</time>
      </trkpt>
      <trkpt lat="45.95963" lon="6.60686">
        <ele>1035.6</ele>
        <time>2026-02-02T06:38:17Z</time>
      </trkpt>
      <trkpt lat="45.95963" lon="6.60684">
        <ele>1035.8</ele>
        <time>2026-02-02T06:38:18Z</time>
      </trkpt>
      <trkpt lat="45.95962" lon="6.60683">
        <ele>1035.9</ele>
        <time>2026-02-02T06:38:19Z</time>
      </trkpt>
      <trkpt lat="45.95962" lon="6.60682">
        <ele>1036.1</ele>
        <time>2026-02-02T06:38:20Z</time>
      </trkpt>
      <trkpt lat="45.95961" lon="6.60682">
        <ele>1036.2</ele>
        <time>2026-02-02T06:38:21Z</time>
      </trkpt>
      <trkpt lat="45.9596" lon="6.60683">
        <ele>1036.5</ele>
        <time>2026-02-02T06:38:22Z</time>
      </trkpt>
      <trkpt lat="45.95958" lon="6.60683">
        <ele>1036.7</ele>
        <time>2026-02-02T06:38:23Z</time>
      </trkpt>
      <trkpt lat="45.95958" lon="6.60683">
        <ele>1036.8</ele>
        <time>2026-02-02T06:38:24Z</time>
      </trkpt>
      <trkpt lat="45.95957" lon="6.60683">
        <ele>1036.8</ele>
        <time>2026-02-02T06:38:25Z</time>
      </trkpt>
      <trkpt lat="45.95957" lon="6.60682">
        <ele>1036.9</ele>
        <time>2026-02-02T06:38:26Z</time>
      </trkpt>
      <trkpt lat="45.95957" lon="6.60682">
        <ele>1037</ele>
        <time>2026-02-02T06:38:27Z</time>
      </trkpt>
      <trkpt lat="45.95957" lon="6.6068">
        <ele>1037.2</ele>
        <time>2026-02-02T06:38:28Z</time>
      </trkpt>
      <trkpt lat="45.95957" lon="6.60678">
        <ele>1037.3</ele>
        <time>2026-02-02T06:38:29Z</time>
      </trkpt>
      <trkpt lat="45.95957" lon="6.60677">
        <ele>1037.5</ele>
        <time>2026-02-02T06:38:30Z</time>
      </trkpt>
      <trkpt lat="45.95957" lon="6.60677">
        <ele>1037.5</ele>
        <time>2026-02-02T06:38:31Z</time>
      </trkpt>
      <trkpt lat="45.95957" lon="6.60676">
        <ele>1037.6</ele>
        <time>2026-02-02T06:38:32Z</time>
      </trkpt>
      <trkpt lat="45.95957" lon="6.60676">
        <ele>1037.6</ele>
        <time>2026-02-02T06:38:33Z</time>
      </trkpt>
      <trkpt lat="45.95957" lon="6.60676">
        <ele>1037.7</ele>
        <time>2026-02-02T06:38:34Z</time>
      </trkpt>
      <trkpt lat="45.95958" lon="6.60675">
        <ele>1037.9</ele>
        <time>2026-02-02T06:38:36Z</time>
      </trkpt>
      <trkpt lat="45.95958" lon="6.60674">
        <ele>1038</ele>
        <time>2026-02-02T06:38:37Z</time>
      </trkpt>
      <trkpt lat="45.95958" lon="6.60673">
        <ele>1038.1</ele>
        <time>2026-02-02T06:38:38Z</time>
      </trkpt>
      <trkpt lat="45.95958" lon="6.60672">
        <ele>1038.2</ele>
        <time>2026-02-02T06:38:39Z</time>
      </trkpt>
      <trkpt lat="45.95959" lon="6.60671">
        <ele>1038.3</ele>
        <time>2026-02-02T06:38:40Z</time>
      </trkpt>
      <trkpt lat="45.95959" lon="6.6067">
        <ele>1038.5</ele>
        <time>2026-02-02T06:38:41Z</time>
      </trkpt>
      <trkpt lat="45.95959" lon="6.60669">
        <ele>1038.7</ele>
        <time>2026-02-02T06:38:42Z</time>
      </trkpt>
      <trkpt lat="45.95959" lon="6.60669">
        <ele>1038.7</ele>
        <time>2026-02-02T06:38:43Z</time>
      </trkpt>
      <trkpt lat="45.95959" lon="6.60668">
        <ele>1038.8</ele>
        <time>2026-02-02T06:38:44Z</time>
      </trkpt>
      <trkpt lat="45.95959" lon="6.60667">
        <ele>1038.9</ele>
        <time>2026-02-02T06:38:45Z</time>
      </trkpt>
      <trkpt lat="45.95959" lon="6.60667">
        <ele>1039</ele>
        <time>2026-02-02T06:38:47Z</time>
      </trkpt>
      <trkpt lat="45.9596" lon="6.60666">
        <ele>1039.1</ele>
        <time>2026-02-02T06:38:48Z</time>
      </trkpt>
      <trkpt lat="45.9596" lon="6.60665">
        <ele>1039.3</ele>
        <time>2026-02-02T06:38:49Z</time>
      </trkpt>
      <trkpt lat="45.95961" lon="6.60664">
        <ele>1039.5</ele>
        <time>2026-02-02T06:38:50Z</time>
      </trkpt>
      <trkpt lat="45.95962" lon="6.60663">
        <ele>1039.7</ele>
        <time>2026-02-02T06:38:51Z</time>
      </trkpt>
      <trkpt lat="45.95963" lon="6.60662">
        <ele>1040</ele>
        <time>2026-02-02T06:38:52Z</time>
      </trkpt>
      <trkpt lat="45.95964" lon="6.60661">
        <ele>1040.2</ele>
        <time>2026-02-02T06:38:53Z</time>
      </trkpt>
      <trkpt lat="45.95965" lon="6.60661">
        <ele>1040.3</ele>
        <time>2026-02-02T06:38:54Z</time>
      </trkpt>
      <trkpt lat="45.95965" lon="6.6066">
        <ele>1040.5</ele>
        <time>2026-02-02T06:38:55Z</time>
      </trkpt>
      <trkpt lat="45.95966" lon="6.6066">
        <ele>1040.8</ele>
        <time>2026-02-02T06:38:56Z</time>
      </trkpt>
      <trkpt lat="45.95967" lon="6.60659">
        <ele>1040.9</ele>
        <time>2026-02-02T06:38:57Z</time>
      </trkpt>
      <trkpt lat="45.95967" lon="6.60659">
        <ele>1041</ele>
        <time>2026-02-02T06:38:58Z</time>
      </trkpt>
      <trkpt lat="45.95968" lon="6.60658">
        <ele>1041.2</ele>
        <time>2026-02-02T06:38:59Z</time>
      </trkpt>
      <trkpt lat="45.95969" lon="6.60657">
        <ele>1041.4</ele>
        <time>2026-02-02T06:39:00Z</time>
      </trkpt>
      <trkpt lat="45.95969" lon="6.60656">
        <ele>1041.6</ele>
        <time>2026-02-02T06:39:01Z</time>
      </trkpt>
      <trkpt lat="45.95969" lon="6.60655">
        <ele>1041.8</ele>
        <time>2026-02-02T06:39:02Z</time>
      </trkpt>
      <trkpt lat="45.9597" lon="6.60653">
        <ele>1042</ele>
        <time>2026-02-02T06:39:03Z</time>
      </trkpt>
      <trkpt lat="45.9597" lon="6.60652">
        <ele>1042.2</ele>
        <time>2026-02-02T06:39:04Z</time>
      </trkpt>
      <trkpt lat="45.95971" lon="6.60651">
        <ele>1042.5</ele>
        <time>2026-02-02T06:39:05Z</time>
      </trkpt>
      <trkpt lat="45.95972" lon="6.6065">
        <ele>1042.7</ele>
        <time>2026-02-02T06:39:06Z</time>
      </trkpt>
      <trkpt lat="45.95973" lon="6.60649">
        <ele>1043</ele>
        <time>2026-02-02T06:39:07Z</time>
      </trkpt>
      <trkpt lat="45.95974" lon="6.60648">
        <ele>1043.2</ele>
        <time>2026-02-02T06:39:08Z</time>
      </trkpt>
      <trkpt lat="45.95975" lon="6.60647">
        <ele>1043.5</ele>
        <time>2026-02-02T06:39:09Z</time>
      </trkpt>
      <trkpt lat="45.95976" lon="6.60647">
        <ele>1043.8</ele>
        <time>2026-02-02T06:39:10Z</time>
      </trkpt>
      <trkpt lat="45.95977" lon="6.60647">
        <ele>1044</ele>
        <time>2026-02-02T06:39:11Z</time>
      </trkpt>
      <trkpt lat="45.95978" lon="6.60646">
        <ele>1044.3</ele>
        <time>2026-02-02T06:39:12Z</time>
      </trkpt>
      <trkpt lat="45.95979" lon="6.60646">
        <ele>1044.5</ele>
        <time>2026-02-02T06:39:13Z</time>
      </trkpt>
      <trkpt lat="45.9598" lon="6.60645">
        <ele>1044.8</ele>
        <time>2026-02-02T06:39:14Z</time>
      </trkpt>
      <trkpt lat="45.95981" lon="6.60645">
        <ele>1044.9</ele>
        <time>2026-02-02T06:39:15Z</time>
      </trkpt>
      <trkpt lat="45.95982" lon="6.60644">
        <ele>1045.1</ele>
        <time>2026-02-02T06:39:16Z</time>
      </trkpt>
      <trkpt lat="45.95982" lon="6.60643">
        <ele>1045.3</ele>
        <time>2026-02-02T06:39:17Z</time>
      </trkpt>
      <trkpt lat="45.95982" lon="6.60642">
        <ele>1045.5</ele>
        <time>2026-02-02T06:39:18Z</time>
      </trkpt>
      <trkpt lat="45.95983" lon="6.60641">
        <ele>1045.7</ele>
        <time>2026-02-02T06:39:19Z</time>
      </trkpt>
      <trkpt lat="45.95983" lon="6.60639">
        <ele>1046</ele>
        <time>2026-02-02T06:39:20Z</time>
      </trkpt>
      <trkpt lat="45.95983" lon="6.60637">
        <ele>1046.4</ele>
        <time>2026-02-02T06:39:21Z</time>
      </trkpt>
      <trkpt lat="45.95984" lon="6.60635">
        <ele>1046.7</ele>
        <time>2026-02-02T06:39:22Z</time>
      </trkpt>
      <trkpt lat="45.95984" lon="6.60633">
        <ele>1047</ele>
        <time>2026-02-02T06:39:23Z</time>
      </trkpt>
      <trkpt lat="45.95984" lon="6.60632">
        <ele>1047.3</ele>
        <time>2026-02-02T06:39:24Z</time>
      </trkpt>
      <trkpt lat="45.95985" lon="6.60631">
        <ele>1047.6</ele>
        <time>2026-02-02T06:39:25Z</time>
      </trkpt>
      <trkpt lat="45.95986" lon="6.6063">
        <ele>1047.8</ele>
        <time>2026-02-02T06:39:26Z</time>
      </trkpt>
      <trkpt lat="45.95987" lon="6.6063">
        <ele>1048</ele>
        <time>2026-02-02T06:39:27Z</time>
      </trkpt>
      <trkpt lat="45.95988" lon="6.60629">
        <ele>1048.4</ele>
        <time>2026-02-02T06:39:28Z</time>
      </trkpt>
      <trkpt lat="45.95989" lon="6.60629">
        <ele>1048.6</ele>
        <time>2026-02-02T06:39:29Z</time>
      </trkpt>
      <trkpt lat="45.9599" lon="6.60629">
        <ele>1048.8</ele>
        <time>2026-02-02T06:39:30Z</time>
      </trkpt>
      <trkpt lat="45.9599" lon="6.60628">
        <ele>1048.9</ele>
        <time>2026-02-02T06:39:31Z</time>
      </trkpt>
      <trkpt lat="45.95991" lon="6.60628">
        <ele>1049.2</ele>
        <time>2026-02-02T06:39:32Z</time>
      </trkpt>
      <trkpt lat="45.95992" lon="6.60627">
        <ele>1049.5</ele>
        <time>2026-02-02T06:39:33Z</time>
      </trkpt>
      <trkpt lat="45.95993" lon="6.60627">
        <ele>1049.7</ele>
        <time>2026-02-02T06:39:34Z</time>
      </trkpt>
      <trkpt lat="45.95994" lon="6.60627">
        <ele>1049.9</ele>
        <time>2026-02-02T06:39:35Z</time>
      </trkpt>
      <trkpt lat="45.95995" lon="6.60626">
        <ele>1050.1</ele>
        <time>2026-02-02T06:39:36Z</time>
      </trkpt>
      <trkpt lat="45.95995" lon="6.60626">
        <ele>1050.2</ele>
        <time>2026-02-02T06:39:37Z</time>
      </trkpt>
      <trkpt lat="45.95996" lon="6.60626">
        <ele>1050.4</ele>
        <time>2026-02-02T06:39:38Z</time>
      </trkpt>
      <trkpt lat="45.95997" lon="6.60625">
        <ele>1050.6</ele>
        <time>2026-02-02T06:39:39Z</time>
      </trkpt>
      <trkpt lat="45.95998" lon="6.60625">
        <ele>1050.9</ele>
        <time>2026-02-02T06:39:41Z</time>
      </trkpt>
      <trkpt lat="45.95999" lon="6.60625">
        <ele>1051.1</ele>
        <time>2026-02-02T06:39:42Z</time>
      </trkpt>
      <trkpt lat="45.95999" lon="6.60625">
        <ele>1051.2</ele>
        <time>2026-02-02T06:39:43Z</time>
      </trkpt>
      <trkpt lat="45.96" lon="6.60625">
        <ele>1051.4</ele>
        <time>2026-02-02T06:39:44Z</time>
      </trkpt>
      <trkpt lat="45.96001" lon="6.60625">
        <ele>1051.5</ele>
        <time>2026-02-02T06:39:45Z</time>
      </trkpt>
      <trkpt lat="45.96002" lon="6.60624">
        <ele>1051.7</ele>
        <time>2026-02-02T06:39:46Z</time>
      </trkpt>
      <trkpt lat="45.96002" lon="6.60624">
        <ele>1051.9</ele>
        <time>2026-02-02T06:39:47Z</time>
      </trkpt>
      <trkpt lat="45.96003" lon="6.60622">
        <ele>1052.2</ele>
        <time>2026-02-02T06:39:48Z</time>
      </trkpt>
      <trkpt lat="45.96003" lon="6.60621">
        <ele>1052.4</ele>
        <time>2026-02-02T06:39:49Z</time>
      </trkpt>
      <trkpt lat="45.96004" lon="6.6062">
        <ele>1052.5</ele>
        <time>2026-02-02T06:39:50Z</time>
      </trkpt>
      <trkpt lat="45.96004" lon="6.6062">
        <ele>1052.6</ele>
        <time>2026-02-02T06:39:51Z</time>
      </trkpt>
      <trkpt lat="45.96004" lon="6.60619">
        <ele>1052.7</ele>
        <time>2026-02-02T06:39:52Z</time>
      </trkpt>
      <trkpt lat="45.96005" lon="6.60619">
        <ele>1052.9</ele>
        <time>2026-02-02T06:39:53Z</time>
      </trkpt>
      <trkpt lat="45.96006" lon="6.60619">
        <ele>1053.1</ele>
        <time>2026-02-02T06:39:54Z</time>
      </trkpt>
      <trkpt lat="45.96007" lon="6.60618">
        <ele>1053.3</ele>
        <time>2026-02-02T06:39:55Z</time>
      </trkpt>
      <trkpt lat="45.96007" lon="6.60617">
        <ele>1053.4</ele>
        <time>2026-02-02T06:39:56Z</time>
      </trkpt>
      <trkpt lat="45.96008" lon="6.60617">
        <ele>1053.5</ele>
        <time>2026-02-02T06:39:57Z</time>
      </trkpt>
      <trkpt lat="45.96008" lon="6.60617">
        <ele>1053.6</ele>
        <time>2026-02-02T06:39:58Z</time>
      </trkpt>
      <trkpt lat="45.96009" lon="6.60617">
        <ele>1053.7</ele>
        <time>2026-02-02T06:39:59Z</time>
      </trkpt>
      <trkpt lat="45.9601" lon="6.60617">
        <ele>1053.8</ele>
        <time>2026-02-02T06:40:00Z</time>
      </trkpt>
      <trkpt lat="45.96011" lon="6.60616">
        <ele>1054</ele>
        <time>2026-02-02T06:40:01Z</time>
      </trkpt>
      <trkpt lat="45.96012" lon="6.60615">
        <ele>1054.2</ele>
        <time>2026-02-02T06:40:02Z</time>
      </trkpt>
      <trkpt lat="45.96013" lon="6.60615">
        <ele>1054.3</ele>
        <time>2026-02-02T06:40:03Z</time>
      </trkpt>
      <trkpt lat="45.96014" lon="6.60614">
        <ele>1054.5</ele>
        <time>2026-02-02T06:40:04Z</time>
      </trkpt>
      <trkpt lat="45.96014" lon="6.60613">
        <ele>1054.7</ele>
        <time>2026-02-02T06:40:05Z</time>
      </trkpt>
      <trkpt lat="45.96015" lon="6.60612">
        <ele>1054.8</ele>
        <time>2026-02-02T06:40:06Z</time>
      </trkpt>
      <trkpt lat="45.96016" lon="6.60611">
        <ele>1055</ele>
        <time>2026-02-02T06:40:07Z</time>
      </trkpt>
      <trkpt lat="45.96017" lon="6.60611">
        <ele>1055.1</ele>
        <time>2026-02-02T06:40:08Z</time>
      </trkpt>
      <trkpt lat="45.96018" lon="6.6061">
        <ele>1055.3</ele>
        <time>2026-02-02T06:40:09Z</time>
      </trkpt>
      <trkpt lat="45.96018" lon="6.60609">
        <ele>1055.4</ele>
        <time>2026-02-02T06:40:10Z</time>
      </trkpt>
      <trkpt lat="45.96019" lon="6.60609">
        <ele>1055.5</ele>
        <time>2026-02-02T06:40:11Z</time>
      </trkpt>
      <trkpt lat="45.9602" lon="6.60608">
        <ele>1055.7</ele>
        <time>2026-02-02T06:40:12Z</time>
      </trkpt>
      <trkpt lat="45.96021" lon="6.60607">
        <ele>1055.8</ele>
        <time>2026-02-02T06:40:13Z</time>
      </trkpt>
      <trkpt lat="45.96021" lon="6.60607">
        <ele>1055.9</ele>
        <time>2026-02-02T06:40:14Z</time>
      </trkpt>
      <trkpt lat="45.96022" lon="6.60606">
        <ele>1056</ele>
        <time>2026-02-02T06:40:15Z</time>
      </trkpt>
      <trkpt lat="45.96023" lon="6.60606">
        <ele>1056.1</ele>
        <time>2026-02-02T06:40:16Z</time>
      </trkpt>
      <trkpt lat="45.96023" lon="6.60606">
        <ele>1056.1</ele>
        <time>2026-02-02T06:40:17Z</time>
      </trkpt>
      <trkpt lat="45.96024" lon="6.60605">
        <ele>1056.2</ele>
        <time>2026-02-02T06:40:18Z</time>
      </trkpt>
      <trkpt lat="45.96023" lon="6.60605">
        <ele>1056.3</ele>
        <time>2026-02-02T06:40:19Z</time>
      </trkpt>
      <trkpt lat="45.96024" lon="6.60605">
        <ele>1056.4</ele>
        <time>2026-02-02T06:40:20Z</time>
      </trkpt>
      <trkpt lat="45.96024" lon="6.60604">
        <ele>1056.5</ele>
        <time>2026-02-02T06:40:21Z</time>
      </trkpt>
      <trkpt lat="45.96025" lon="6.60603">
        <ele>1056.6</ele>
        <time>2026-02-02T06:40:22Z</time>
      </trkpt>
      <trkpt lat="45.96025" lon="6.60602">
        <ele>1056.7</ele>
        <time>2026-02-02T06:40:23Z</time>
      </trkpt>
      <trkpt lat="45.96026" lon="6.60601">
        <ele>1056.8</ele>
        <time>2026-02-02T06:40:24Z</time>
      </trkpt>
      <trkpt lat="45.96027" lon="6.606">
        <ele>1057</ele>
        <time>2026-02-02T06:40:25Z</time>
      </trkpt>
      <trkpt lat="45.96028" lon="6.60599">
        <ele>1057.1</ele>
        <time>2026-02-02T06:40:26Z</time>
      </trkpt>
      <trkpt lat="45.96028" lon="6.60598">
        <ele>1057.2</ele>
        <time>2026-02-02T06:40:27Z</time>
      </trkpt>
      <trkpt lat="45.96029" lon="6.60596">
        <ele>1057.4</ele>
        <time>2026-02-02T06:40:28Z</time>
      </trkpt>
      <trkpt lat="45.9603" lon="6.60594">
        <ele>1057.6</ele>
        <time>2026-02-02T06:40:29Z</time>
      </trkpt>
      <trkpt lat="45.9603" lon="6.60594">
        <ele>1057.7</ele>
        <time>2026-02-02T06:40:30Z</time>
      </trkpt>
      <trkpt lat="45.96031" lon="6.60591">
        <ele>1057.9</ele>
        <time>2026-02-02T06:40:31Z</time>
      </trkpt>
      <trkpt lat="45.96031" lon="6.6059">
        <ele>1058</ele>
        <time>2026-02-02T06:40:32Z</time>
      </trkpt>
      <trkpt lat="45.96032" lon="6.60588">
        <ele>1058.1</ele>
        <time>2026-02-02T06:40:33Z</time>
      </trkpt>
      <trkpt lat="45.96032" lon="6.60585">
        <ele>1058.4</ele>
        <time>2026-02-02T06:40:35Z</time>
      </trkpt>
      <trkpt lat="45.96033" lon="6.60584">
        <ele>1058.6</ele>
        <time>2026-02-02T06:40:36Z</time>
      </trkpt>
      <trkpt lat="45.96033" lon="6.60582">
        <ele>1058.7</ele>
        <time>2026-02-02T06:40:37Z</time>
      </trkpt>
      <trkpt lat="45.96034" lon="6.6058">
        <ele>1058.9</ele>
        <time>2026-02-02T06:40:38Z</time>
      </trkpt>
      <trkpt lat="45.96035" lon="6.60578">
        <ele>1059.1</ele>
        <time>2026-02-02T06:40:39Z</time>
      </trkpt>
      <trkpt lat="45.96036" lon="6.60576">
        <ele>1059.3</ele>
        <time>2026-02-02T06:40:40Z</time>
      </trkpt>
      <trkpt lat="45.96036" lon="6.60575">
        <ele>1059.5</ele>
        <time>2026-02-02T06:40:41Z</time>
      </trkpt>
      <trkpt lat="45.96038" lon="6.60572">
        <ele>1059.8</ele>
        <time>2026-02-02T06:40:42Z</time>
      </trkpt>
      <trkpt lat="45.96038" lon="6.60569">
        <ele>1060.2</ele>
        <time>2026-02-02T06:40:43Z</time>
      </trkpt>
      <trkpt lat="45.96039" lon="6.60568">
        <ele>1060.3</ele>
        <time>2026-02-02T06:40:45Z</time>
      </trkpt>
      <trkpt lat="45.96039" lon="6.60567">
        <ele>1060.4</ele>
        <time>2026-02-02T06:40:46Z</time>
      </trkpt>
      <trkpt lat="45.96039" lon="6.60566">
        <ele>1060.6</ele>
        <time>2026-02-02T06:40:47Z</time>
      </trkpt>
      <trkpt lat="45.96039" lon="6.60564">
        <ele>1060.8</ele>
        <time>2026-02-02T06:40:48Z</time>
      </trkpt>
      <trkpt lat="45.96039" lon="6.60562">
        <ele>1061</ele>
        <time>2026-02-02T06:40:49Z</time>
      </trkpt>
      <trkpt lat="45.96039" lon="6.60561">
        <ele>1061.2</ele>
        <time>2026-02-02T06:40:50Z</time>
      </trkpt>
      <trkpt lat="45.9604" lon="6.60559">
        <ele>1061.4</ele>
        <time>2026-02-02T06:40:51Z</time>
      </trkpt>
      <trkpt lat="45.9604" lon="6.60558">
        <ele>1061.6</ele>
        <time>2026-02-02T06:40:52Z</time>
      </trkpt>
      <trkpt lat="45.9604" lon="6.60557">
        <ele>1061.8</ele>
        <time>2026-02-02T06:40:53Z</time>
      </trkpt>
      <trkpt lat="45.96041" lon="6.60556">
        <ele>1062</ele>
        <time>2026-02-02T06:40:54Z</time>
      </trkpt>
      <trkpt lat="45.96041" lon="6.60554">
        <ele>1062.2</ele>
        <time>2026-02-02T06:40:55Z</time>
      </trkpt>
      <trkpt lat="45.96041" lon="6.60552">
        <ele>1062.4</ele>
        <time>2026-02-02T06:40:56Z</time>
      </trkpt>
      <trkpt lat="45.96041" lon="6.60551">
        <ele>1062.7</ele>
        <time>2026-02-02T06:40:57Z</time>
      </trkpt>
      <trkpt lat="45.96042" lon="6.60549">
        <ele>1062.9</ele>
        <time>2026-02-02T06:40:58Z</time>
      </trkpt>
      <trkpt lat="45.96042" lon="6.60548">
        <ele>1063.2</ele>
        <time>2026-02-02T06:40:59Z</time>
      </trkpt>
      <trkpt lat="45.96042" lon="6.60546">
        <ele>1063.4</ele>
        <time>2026-02-02T06:41:00Z</time>
      </trkpt>
      <trkpt lat="45.96043" lon="6.60545">
        <ele>1063.6</ele>
        <time>2026-02-02T06:41:01Z</time>
      </trkpt>
      <trkpt lat="45.96043" lon="6.60544">
        <ele>1063.8</ele>
        <time>2026-02-02T06:41:02Z</time>
      </trkpt>
      <trkpt lat="45.96043" lon="6.60542">
        <ele>1064</ele>
        <time>2026-02-02T06:41:03Z</time>
      </trkpt>
      <trkpt lat="45.96044" lon="6.60541">
        <ele>1064.2</ele>
        <time>2026-02-02T06:41:04Z</time>
      </trkpt>
      <trkpt lat="45.96044" lon="6.6054">
        <ele>1064.4</ele>
        <time>2026-02-02T06:41:05Z</time>
      </trkpt>
      <trkpt lat="45.96044" lon="6.60539">
        <ele>1064.5</ele>
        <time>2026-02-02T06:41:06Z</time>
      </trkpt>
      <trkpt lat="45.96045" lon="6.60539">
        <ele>1064.7</ele>
        <time>2026-02-02T06:41:07Z</time>
      </trkpt>
      <trkpt lat="45.96045" lon="6.60538">
        <ele>1064.8</ele>
        <time>2026-02-02T06:41:08Z</time>
      </trkpt>
      <trkpt lat="45.96046" lon="6.60537">
        <ele>1065</ele>
        <time>2026-02-02T06:41:09Z</time>
      </trkpt>
      <trkpt lat="45.96047" lon="6.60536">
        <ele>1065.3</ele>
        <time>2026-02-02T06:41:10Z</time>
      </trkpt>
      <trkpt lat="45.96048" lon="6.60535">
        <ele>1065.5</ele>
        <time>2026-02-02T06:41:11Z</time>
      </trkpt>
      <trkpt lat="45.96049" lon="6.60534">
        <ele>1065.7</ele>
        <time>2026-02-02T06:41:12Z</time>
      </trkpt>
      <trkpt lat="45.96049" lon="6.60533">
        <ele>1065.9</ele>
        <time>2026-02-02T06:41:13Z</time>
      </trkpt>
      <trkpt lat="45.9605" lon="6.60532">
        <ele>1066.1</ele>
        <time>2026-02-02T06:41:14Z</time>
      </trkpt>
      <trkpt lat="45.9605" lon="6.60531">
        <ele>1066.3</ele>
        <time>2026-02-02T06:41:15Z</time>
      </trkpt>
      <trkpt lat="45.96051" lon="6.6053">
        <ele>1066.5</ele>
        <time>2026-02-02T06:41:16Z</time>
      </trkpt>
      <trkpt lat="45.96051" lon="6.60529">
        <ele>1066.7</ele>
        <time>2026-02-02T06:41:17Z</time>
      </trkpt>
      <trkpt lat="45.96052" lon="6.60528">
        <ele>1066.8</ele>
        <time>2026-02-02T06:41:18Z</time>
      </trkpt>
      <trkpt lat="45.96052" lon="6.60527">
        <ele>1067</ele>
        <time>2026-02-02T06:41:19Z</time>
      </trkpt>
      <trkpt lat="45.96053" lon="6.60526">
        <ele>1067.3</ele>
        <time>2026-02-02T06:41:20Z</time>
      </trkpt>
      <trkpt lat="45.96054" lon="6.60525">
        <ele>1067.5</ele>
        <time>2026-02-02T06:41:21Z</time>
      </trkpt>
      <trkpt lat="45.96055" lon="6.60523">
        <ele>1067.9</ele>
        <time>2026-02-02T06:41:22Z</time>
      </trkpt>
      <trkpt lat="45.96055" lon="6.60522">
        <ele>1068</ele>
        <time>2026-02-02T06:41:23Z</time>
      </trkpt>
      <trkpt lat="45.96055" lon="6.60521">
        <ele>1068.2</ele>
        <time>2026-02-02T06:41:24Z</time>
      </trkpt>
      <trkpt lat="45.96056" lon="6.6052">
        <ele>1068.4</ele>
        <time>2026-02-02T06:41:25Z</time>
      </trkpt>
      <trkpt lat="45.96056" lon="6.60517">
        <ele>1068.8</ele>
        <time>2026-02-02T06:41:27Z</time>
      </trkpt>
      <trkpt lat="45.96056" lon="6.60516">
        <ele>1069</ele>
        <time>2026-02-02T06:41:28Z</time>
      </trkpt>
      <trkpt lat="45.96057" lon="6.60514">
        <ele>1069.4</ele>
        <time>2026-02-02T06:41:29Z</time>
      </trkpt>
      <trkpt lat="45.96057" lon="6.60512">
        <ele>1069.6</ele>
        <time>2026-02-02T06:41:30Z</time>
      </trkpt>
      <trkpt lat="45.96057" lon="6.60511">
        <ele>1069.8</ele>
        <time>2026-02-02T06:41:31Z</time>
      </trkpt>
      <trkpt lat="45.96058" lon="6.6051">
        <ele>1070</ele>
        <time>2026-02-02T06:41:32Z</time>
      </trkpt>
      <trkpt lat="45.96058" lon="6.60508">
        <ele>1070.3</ele>
        <time>2026-02-02T06:41:33Z</time>
      </trkpt>
      <trkpt lat="45.96058" lon="6.60506">
        <ele>1070.5</ele>
        <time>2026-02-02T06:41:34Z</time>
      </trkpt>
      <trkpt lat="45.96059" lon="6.60505">
        <ele>1070.7</ele>
        <time>2026-02-02T06:41:35Z</time>
      </trkpt>
      <trkpt lat="45.9606" lon="6.60503">
        <ele>1071.1</ele>
        <time>2026-02-02T06:41:36Z</time>
      </trkpt>
      <trkpt lat="45.96061" lon="6.60502">
        <ele>1071.3</ele>
        <time>2026-02-02T06:41:37Z</time>
      </trkpt>
      <trkpt lat="45.96061" lon="6.60501">
        <ele>1071.5</ele>
        <time>2026-02-02T06:41:38Z</time>
      </trkpt>
      <trkpt lat="45.96062" lon="6.605">
        <ele>1071.8</ele>
        <time>2026-02-02T06:41:39Z</time>
      </trkpt>
      <trkpt lat="45.96063" lon="6.60499">
        <ele>1071.9</ele>
        <time>2026-02-02T06:41:40Z</time>
      </trkpt>
      <trkpt lat="45.96063" lon="6.60498">
        <ele>1072.1</ele>
        <time>2026-02-02T06:41:41Z</time>
      </trkpt>
      <trkpt lat="45.96063" lon="6.60497">
        <ele>1072.3</ele>
        <time>2026-02-02T06:41:42Z</time>
      </trkpt>
      <trkpt lat="45.96065" lon="6.60494">
        <ele>1072.7</ele>
        <time>2026-02-02T06:41:43Z</time>
      </trkpt>
      <trkpt lat="45.96065" lon="6.60493">
        <ele>1072.9</ele>
        <time>2026-02-02T06:41:44Z</time>
      </trkpt>
      <trkpt lat="45.96066" lon="6.60492">
        <ele>1073</ele>
        <time>2026-02-02T06:41:45Z</time>
      </trkpt>
      <trkpt lat="45.96067" lon="6.60491">
        <ele>1073.3</ele>
        <time>2026-02-02T06:41:46Z</time>
      </trkpt>
      <trkpt lat="45.96067" lon="6.6049">
        <ele>1073.5</ele>
        <time>2026-02-02T06:41:47Z</time>
      </trkpt>
      <trkpt lat="45.96068" lon="6.60489">
        <ele>1073.7</ele>
        <time>2026-02-02T06:41:48Z</time>
      </trkpt>
      <trkpt lat="45.96069" lon="6.60488">
        <ele>1073.8</ele>
        <time>2026-02-02T06:41:49Z</time>
      </trkpt>
      <trkpt lat="45.96069" lon="6.60487">
        <ele>1074</ele>
        <time>2026-02-02T06:41:50Z</time>
      </trkpt>
      <trkpt lat="45.9607" lon="6.60487">
        <ele>1074.2</ele>
        <time>2026-02-02T06:41:51Z</time>
      </trkpt>
      <trkpt lat="45.96071" lon="6.60486">
        <ele>1074.4</ele>
        <time>2026-02-02T06:41:52Z</time>
      </trkpt>
      <trkpt lat="45.96072" lon="6.60484">
        <ele>1074.6</ele>
        <time>2026-02-02T06:41:53Z</time>
      </trkpt>
      <trkpt lat="45.96073" lon="6.60483">
        <ele>1074.8</ele>
        <time>2026-02-02T06:41:54Z</time>
      </trkpt>
      <trkpt lat="45.96074" lon="6.6048">
        <ele>1075.2</ele>
        <time>2026-02-02T06:41:55Z</time>
      </trkpt>
      <trkpt lat="45.96075" lon="6.60479">
        <ele>1075.3</ele>
        <time>2026-02-02T06:41:56Z</time>
      </trkpt>
      <trkpt lat="45.96075" lon="6.60478">
        <ele>1075.5</ele>
        <time>2026-02-02T06:41:57Z</time>
      </trkpt>
      <trkpt lat="45.96076" lon="6.60478">
        <ele>1075.6</ele>
        <time>2026-02-02T06:41:58Z</time>
      </trkpt>
      <trkpt lat="45.96077" lon="6.60478">
        <ele>1075.7</ele>
        <time>2026-02-02T06:41:59Z</time>
      </trkpt>
      <trkpt lat="45.96078" lon="6.60477">
        <ele>1075.9</ele>
        <time>2026-02-02T06:42:00Z</time>
      </trkpt>
      <trkpt lat="45.96078" lon="6.60475">
        <ele>1076.1</ele>
        <time>2026-02-02T06:42:01Z</time>
      </trkpt>
      <trkpt lat="45.96079" lon="6.60474">
        <ele>1076.2</ele>
        <time>2026-02-02T06:42:02Z</time>
      </trkpt>
      <trkpt lat="45.96079" lon="6.60473">
        <ele>1076.3</ele>
        <time>2026-02-02T06:42:03Z</time>
      </trkpt>
      <trkpt lat="45.9608" lon="6.60472">
        <ele>1076.5</ele>
        <time>2026-02-02T06:42:04Z</time>
      </trkpt>
      <trkpt lat="45.96081" lon="6.60471">
        <ele>1076.6</ele>
        <time>2026-02-02T06:42:05Z</time>
      </trkpt>
      <trkpt lat="45.96081" lon="6.6047">
        <ele>1076.8</ele>
        <time>2026-02-02T06:42:06Z</time>
      </trkpt>
      <trkpt lat="45.96083" lon="6.60469">
        <ele>1077</ele>
        <time>2026-02-02T06:42:07Z</time>
      </trkpt>
      <trkpt lat="45.96083" lon="6.60468">
        <ele>1077.1</ele>
        <time>2026-02-02T06:42:08Z</time>
      </trkpt>
      <trkpt lat="45.96084" lon="6.60467">
        <ele>1077.2</ele>
        <time>2026-02-02T06:42:09Z</time>
      </trkpt>
      <trkpt lat="45.96085" lon="6.60466">
        <ele>1077.3</ele>
        <time>2026-02-02T06:42:10Z</time>
      </trkpt>
      <trkpt lat="45.96086" lon="6.60466">
        <ele>1077.4</ele>
        <time>2026-02-02T06:42:11Z</time>
      </trkpt>
      <trkpt lat="45.96086" lon="6.60465">
        <ele>1077.5</ele>
        <time>2026-02-02T06:42:12Z</time>
      </trkpt>
      <trkpt lat="45.96088" lon="6.60464">
        <ele>1077.7</ele>
        <time>2026-02-02T06:42:13Z</time>
      </trkpt>
      <trkpt lat="45.96089" lon="6.60462">
        <ele>1077.9</ele>
        <time>2026-02-02T06:42:14Z</time>
      </trkpt>
      <trkpt lat="45.9609" lon="6.60462">
        <ele>1078</ele>
        <time>2026-02-02T06:42:15Z</time>
      </trkpt>
      <trkpt lat="45.96091" lon="6.60461">
        <ele>1078.1</ele>
        <time>2026-02-02T06:42:16Z</time>
      </trkpt>
      <trkpt lat="45.96092" lon="6.6046">
        <ele>1078.3</ele>
        <time>2026-02-02T06:42:17Z</time>
      </trkpt>
      <trkpt lat="45.96093" lon="6.60459">
        <ele>1078.5</ele>
        <time>2026-02-02T06:42:18Z</time>
      </trkpt>
      <trkpt lat="45.96094" lon="6.60458">
        <ele>1078.6</ele>
        <time>2026-02-02T06:42:20Z</time>
      </trkpt>
      <trkpt lat="45.96095" lon="6.60456">
        <ele>1078.8</ele>
        <time>2026-02-02T06:42:21Z</time>
      </trkpt>
      <trkpt lat="45.96096" lon="6.60455">
        <ele>1078.9</ele>
        <time>2026-02-02T06:42:22Z</time>
      </trkpt>
      <trkpt lat="45.96096" lon="6.60453">
        <ele>1079</ele>
        <time>2026-02-02T06:42:23Z</time>
      </trkpt>
      <trkpt lat="45.96097" lon="6.60452">
        <ele>1079.2</ele>
        <time>2026-02-02T06:42:24Z</time>
      </trkpt>
      <trkpt lat="45.96099" lon="6.60449">
        <ele>1079.5</ele>
        <time>2026-02-02T06:42:25Z</time>
      </trkpt>
      <trkpt lat="45.96099" lon="6.60448">
        <ele>1079.6</ele>
        <time>2026-02-02T06:42:26Z</time>
      </trkpt>
      <trkpt lat="45.96101" lon="6.60444">
        <ele>1079.9</ele>
        <time>2026-02-02T06:42:27Z</time>
      </trkpt>
      <trkpt lat="45.96102" lon="6.60443">
        <ele>1080</ele>
        <time>2026-02-02T06:42:28Z</time>
      </trkpt>
      <trkpt lat="45.96103" lon="6.60441">
        <ele>1080.2</ele>
        <time>2026-02-02T06:42:30Z</time>
      </trkpt>
      <trkpt lat="45.96104" lon="6.6044">
        <ele>1080.4</ele>
        <time>2026-02-02T06:42:31Z</time>
      </trkpt>
      <trkpt lat="45.96106" lon="6.60438">
        <ele>1080.7</ele>
        <time>2026-02-02T06:42:32Z</time>
      </trkpt>
      <trkpt lat="45.96107" lon="6.60437">
        <ele>1080.8</ele>
        <time>2026-02-02T06:42:33Z</time>
      </trkpt>
      <trkpt lat="45.96107" lon="6.60436">
        <ele>1080.9</ele>
        <time>2026-02-02T06:42:34Z</time>
      </trkpt>
      <trkpt lat="45.96109" lon="6.60435">
        <ele>1081.1</ele>
        <time>2026-02-02T06:42:35Z</time>
      </trkpt>
      <trkpt lat="45.9611" lon="6.60434">
        <ele>1081.3</ele>
        <time>2026-02-02T06:42:36Z</time>
      </trkpt>
      <trkpt lat="45.96111" lon="6.60432">
        <ele>1081.5</ele>
        <time>2026-02-02T06:42:37Z</time>
      </trkpt>
      <trkpt lat="45.96112" lon="6.60431">
        <ele>1081.6</ele>
        <time>2026-02-02T06:42:38Z</time>
      </trkpt>
      <trkpt lat="45.96112" lon="6.6043">
        <ele>1081.8</ele>
        <time>2026-02-02T06:42:39Z</time>
      </trkpt>
      <trkpt lat="45.96113" lon="6.60429">
        <ele>1082</ele>
        <time>2026-02-02T06:42:40Z</time>
      </trkpt>
      <trkpt lat="45.96115" lon="6.60428">
        <ele>1082.3</ele>
        <time>2026-02-02T06:42:41Z</time>
      </trkpt>
      <trkpt lat="45.96117" lon="6.60425">
        <ele>1082.7</ele>
        <time>2026-02-02T06:42:43Z</time>
      </trkpt>
      <trkpt lat="45.96118" lon="6.60424">
        <ele>1082.9</ele>
        <time>2026-02-02T06:42:44Z</time>
      </trkpt>
      <trkpt lat="45.96119" lon="6.60422">
        <ele>1083.2</ele>
        <time>2026-02-02T06:42:45Z</time>
      </trkpt>
      <trkpt lat="45.9612" lon="6.6042">
        <ele>1083.4</ele>
        <time>2026-02-02T06:42:46Z</time>
      </trkpt>
      <trkpt lat="45.96121" lon="6.60419">
        <ele>1083.7</ele>
        <time>2026-02-02T06:42:47Z</time>
      </trkpt>
      <trkpt lat="45.96122" lon="6.60417">
        <ele>1083.9</ele>
        <time>2026-02-02T06:42:48Z</time>
      </trkpt>
      <trkpt lat="45.96123" lon="6.60415">
        <ele>1084.1</ele>
        <time>2026-02-02T06:42:49Z</time>
      </trkpt>
      <trkpt lat="45.96124" lon="6.60413">
        <ele>1084.4</ele>
        <time>2026-02-02T06:42:50Z</time>
      </trkpt>
      <trkpt lat="45.96124" lon="6.60412">
        <ele>1084.6</ele>
        <time>2026-02-02T06:42:51Z</time>
      </trkpt>
      <trkpt lat="45.96125" lon="6.6041">
        <ele>1084.9</ele>
        <time>2026-02-02T06:42:53Z</time>
      </trkpt>
      <trkpt lat="45.96126" lon="6.60408">
        <ele>1085.1</ele>
        <time>2026-02-02T06:42:54Z</time>
      </trkpt>
      <trkpt lat="45.96127" lon="6.60406">
        <ele>1085.3</ele>
        <time>2026-02-02T06:42:55Z</time>
      </trkpt>
      <trkpt lat="45.96127" lon="6.60405">
        <ele>1085.5</ele>
        <time>2026-02-02T06:42:56Z</time>
      </trkpt>
      <trkpt lat="45.96127" lon="6.60404">
        <ele>1085.6</ele>
        <time>2026-02-02T06:42:57Z</time>
      </trkpt>
      <trkpt lat="45.96128" lon="6.60403">
        <ele>1085.8</ele>
        <time>2026-02-02T06:42:58Z</time>
      </trkpt>
      <trkpt lat="45.96129" lon="6.60401">
        <ele>1086.1</ele>
        <time>2026-02-02T06:42:59Z</time>
      </trkpt>
      <trkpt lat="45.9613" lon="6.60399">
        <ele>1086.4</ele>
        <time>2026-02-02T06:43:00Z</time>
      </trkpt>
      <trkpt lat="45.96131" lon="6.60397">
        <ele>1086.6</ele>
        <time>2026-02-02T06:43:01Z</time>
      </trkpt>
      <trkpt lat="45.96132" lon="6.60395">
        <ele>1086.9</ele>
        <time>2026-02-02T06:43:03Z</time>
      </trkpt>
      <trkpt lat="45.96133" lon="6.60393">
        <ele>1087.1</ele>
        <time>2026-02-02T06:43:04Z</time>
      </trkpt>
      <trkpt lat="45.96133" lon="6.60392">
        <ele>1087.3</ele>
        <time>2026-02-02T06:43:05Z</time>
      </trkpt>
      <trkpt lat="45.96134" lon="6.6039">
        <ele>1087.5</ele>
        <time>2026-02-02T06:43:06Z</time>
      </trkpt>
      <trkpt lat="45.96134" lon="6.60389">
        <ele>1087.6</ele>
        <time>2026-02-02T06:43:07Z</time>
      </trkpt>
      <trkpt lat="45.96135" lon="6.60387">
        <ele>1087.8</ele>
        <time>2026-02-02T06:43:08Z</time>
      </trkpt>
      <trkpt lat="45.96136" lon="6.60385">
        <ele>1088.2</ele>
        <time>2026-02-02T06:43:09Z</time>
      </trkpt>
      <trkpt lat="45.96136" lon="6.60384">
        <ele>1088.3</ele>
        <time>2026-02-02T06:43:10Z</time>
      </trkpt>
      <trkpt lat="45.96137" lon="6.60383">
        <ele>1088.4</ele>
        <time>2026-02-02T06:43:11Z</time>
      </trkpt>
      <trkpt lat="45.96137" lon="6.60381">
        <ele>1088.6</ele>
        <time>2026-02-02T06:43:12Z</time>
      </trkpt>
      <trkpt lat="45.96138" lon="6.60379">
        <ele>1088.9</ele>
        <time>2026-02-02T06:43:13Z</time>
      </trkpt>
      <trkpt lat="45.96139" lon="6.60376">
        <ele>1089.2</ele>
        <time>2026-02-02T06:43:14Z</time>
      </trkpt>
      <trkpt lat="45.9614" lon="6.60375">
        <ele>1089.3</ele>
        <time>2026-02-02T06:43:15Z</time>
      </trkpt>
      <trkpt lat="45.9614" lon="6.60374">
        <ele>1089.5</ele>
        <time>2026-02-02T06:43:16Z</time>
      </trkpt>
      <trkpt lat="45.9614" lon="6.60373">
        <ele>1089.6</ele>
        <time>2026-02-02T06:43:17Z</time>
      </trkpt>
      <trkpt lat="45.9614" lon="6.60372">
        <ele>1089.7</ele>
        <time>2026-02-02T06:43:18Z</time>
      </trkpt>
      <trkpt lat="45.96141" lon="6.6037">
        <ele>1089.9</ele>
        <time>2026-02-02T06:43:19Z</time>
      </trkpt>
      <trkpt lat="45.96141" lon="6.60368">
        <ele>1090.2</ele>
        <time>2026-02-02T06:43:20Z</time>
      </trkpt>
      <trkpt lat="45.96141" lon="6.60366">
        <ele>1090.4</ele>
        <time>2026-02-02T06:43:21Z</time>
      </trkpt>
      <trkpt lat="45.96141" lon="6.60365">
        <ele>1090.5</ele>
        <time>2026-02-02T06:43:22Z</time>
      </trkpt>
      <trkpt lat="45.96141" lon="6.60362">
        <ele>1090.9</ele>
        <time>2026-02-02T06:43:23Z</time>
      </trkpt>
      <trkpt lat="45.96141" lon="6.60361">
        <ele>1091</ele>
        <time>2026-02-02T06:43:24Z</time>
      </trkpt>
      <trkpt lat="45.96141" lon="6.6036">
        <ele>1091.1</ele>
        <time>2026-02-02T06:43:25Z</time>
      </trkpt>
      <trkpt lat="45.96141" lon="6.60357">
        <ele>1091.5</ele>
        <time>2026-02-02T06:43:26Z</time>
      </trkpt>
      <trkpt lat="45.96141" lon="6.60355">
        <ele>1091.6</ele>
        <time>2026-02-02T06:43:27Z</time>
      </trkpt>
      <trkpt lat="45.96141" lon="6.60354">
        <ele>1091.8</ele>
        <time>2026-02-02T06:43:28Z</time>
      </trkpt>
      <trkpt lat="45.96142" lon="6.60351">
        <ele>1092.1</ele>
        <time>2026-02-02T06:43:29Z</time>
      </trkpt>
      <trkpt lat="45.96142" lon="6.6035">
        <ele>1092.3</ele>
        <time>2026-02-02T06:43:30Z</time>
      </trkpt>
      <trkpt lat="45.96143" lon="6.60349">
        <ele>1092.4</ele>
        <time>2026-02-02T06:43:31Z</time>
      </trkpt>
      <trkpt lat="45.96143" lon="6.60346">
        <ele>1092.8</ele>
        <time>2026-02-02T06:43:32Z</time>
      </trkpt>
      <trkpt lat="45.96143" lon="6.60345">
        <ele>1092.9</ele>
        <time>2026-02-02T06:43:33Z</time>
      </trkpt>
      <trkpt lat="45.96143" lon="6.60344">
        <ele>1093</ele>
        <time>2026-02-02T06:43:34Z</time>
      </trkpt>
      <trkpt lat="45.96143" lon="6.60342">
        <ele>1093.2</ele>
        <time>2026-02-02T06:43:35Z</time>
      </trkpt>
      <trkpt lat="45.96144" lon="6.6034">
        <ele>1093.4</ele>
        <time>2026-02-02T06:43:36Z</time>
      </trkpt>
      <trkpt lat="45.96144" lon="6.60339">
        <ele>1093.6</ele>
        <time>2026-02-02T06:43:37Z</time>
      </trkpt>
      <trkpt lat="45.96145" lon="6.60336">
        <ele>1094</ele>
        <time>2026-02-02T06:43:38Z</time>
      </trkpt>
      <trkpt lat="45.96145" lon="6.60335">
        <ele>1094.1</ele>
        <time>2026-02-02T06:43:39Z</time>
      </trkpt>
      <trkpt lat="45.96145" lon="6.60333">
        <ele>1094.3</ele>
        <time>2026-02-02T06:43:40Z</time>
      </trkpt>
      <trkpt lat="45.96145" lon="6.60332">
        <ele>1094.4</ele>
        <time>2026-02-02T06:43:41Z</time>
      </trkpt>
      <trkpt lat="45.96146" lon="6.60331">
        <ele>1094.6</ele>
        <time>2026-02-02T06:43:42Z</time>
      </trkpt>
      <trkpt lat="45.96146" lon="6.60329">
        <ele>1094.8</ele>
        <time>2026-02-02T06:43:43Z</time>
      </trkpt>
      <trkpt lat="45.96146" lon="6.60328">
        <ele>1095</ele>
        <time>2026-02-02T06:43:44Z</time>
      </trkpt>
      <trkpt lat="45.96147" lon="6.60326">
        <ele>1095.2</ele>
        <time>2026-02-02T06:43:45Z</time>
      </trkpt>
      <trkpt lat="45.96147" lon="6.60325">
        <ele>1095.3</ele>
        <time>2026-02-02T06:43:46Z</time>
      </trkpt>
      <trkpt lat="45.96147" lon="6.60323">
        <ele>1095.6</ele>
        <time>2026-02-02T06:43:47Z</time>
      </trkpt>
      <trkpt lat="45.96147" lon="6.60322">
        <ele>1095.8</ele>
        <time>2026-02-02T06:43:48Z</time>
      </trkpt>
      <trkpt lat="45.96148" lon="6.6032">
        <ele>1096</ele>
        <time>2026-02-02T06:43:49Z</time>
      </trkpt>
      <trkpt lat="45.96148" lon="6.60319">
        <ele>1096.2</ele>
        <time>2026-02-02T06:43:50Z</time>
      </trkpt>
      <trkpt lat="45.96148" lon="6.60317">
        <ele>1096.4</ele>
        <time>2026-02-02T06:43:51Z</time>
      </trkpt>
      <trkpt lat="45.96148" lon="6.60315">
        <ele>1096.7</ele>
        <time>2026-02-02T06:43:52Z</time>
      </trkpt>
      <trkpt lat="45.96148" lon="6.60313">
        <ele>1096.9</ele>
        <time>2026-02-02T06:43:53Z</time>
      </trkpt>
      <trkpt lat="45.96148" lon="6.60311">
        <ele>1097.2</ele>
        <time>2026-02-02T06:43:54Z</time>
      </trkpt>
      <trkpt lat="45.96149" lon="6.6031">
        <ele>1097.4</ele>
        <time>2026-02-02T06:43:55Z</time>
      </trkpt>
      <trkpt lat="45.96149" lon="6.60308">
        <ele>1097.6</ele>
        <time>2026-02-02T06:43:56Z</time>
      </trkpt>
      <trkpt lat="45.96149" lon="6.60307">
        <ele>1097.7</ele>
        <time>2026-02-02T06:43:57Z</time>
      </trkpt>
      <trkpt lat="45.96149" lon="6.60306">
        <ele>1097.9</ele>
        <time>2026-02-02T06:43:58Z</time>
      </trkpt>
      <trkpt lat="45.96149" lon="6.60305">
        <ele>1098.1</ele>
        <time>2026-02-02T06:43:59Z</time>
      </trkpt>
      <trkpt lat="45.96148" lon="6.60304">
        <ele>1098.3</ele>
        <time>2026-02-02T06:44:00Z</time>
      </trkpt>
      <trkpt lat="45.96148" lon="6.60302">
        <ele>1098.4</ele>
        <time>2026-02-02T06:44:01Z</time>
      </trkpt>
      <trkpt lat="45.96148" lon="6.603">
        <ele>1098.7</ele>
        <time>2026-02-02T06:44:02Z</time>
      </trkpt>
      <trkpt lat="45.96148" lon="6.60299">
        <ele>1099</ele>
        <time>2026-02-02T06:44:03Z</time>
      </trkpt>
      <trkpt lat="45.96147" lon="6.60297">
        <ele>1099.2</ele>
        <time>2026-02-02T06:44:04Z</time>
      </trkpt>
      <trkpt lat="45.96147" lon="6.60295">
        <ele>1099.4</ele>
        <time>2026-02-02T06:44:05Z</time>
      </trkpt>
      <trkpt lat="45.96147" lon="6.60294">
        <ele>1099.7</ele>
        <time>2026-02-02T06:44:06Z</time>
      </trkpt>
      <trkpt lat="45.96147" lon="6.60293">
        <ele>1099.8</ele>
        <time>2026-02-02T06:44:07Z</time>
      </trkpt>
      <trkpt lat="45.96147" lon="6.60291">
        <ele>1100</ele>
        <time>2026-02-02T06:44:08Z</time>
      </trkpt>
      <trkpt lat="45.96147" lon="6.6029">
        <ele>1100.3</ele>
        <time>2026-02-02T06:44:09Z</time>
      </trkpt>
      <trkpt lat="45.96147" lon="6.60288">
        <ele>1100.5</ele>
        <time>2026-02-02T06:44:10Z</time>
      </trkpt>
      <trkpt lat="45.96147" lon="6.60287">
        <ele>1100.7</ele>
        <time>2026-02-02T06:44:11Z</time>
      </trkpt>
      <trkpt lat="45.96147" lon="6.60285">
        <ele>1101</ele>
        <time>2026-02-02T06:44:12Z</time>
      </trkpt>
      <trkpt lat="45.96147" lon="6.60283">
        <ele>1101.2</ele>
        <time>2026-02-02T06:44:13Z</time>
      </trkpt>
      <trkpt lat="45.96147" lon="6.60282">
        <ele>1101.4</ele>
        <time>2026-02-02T06:44:14Z</time>
      </trkpt>
      <trkpt lat="45.96147" lon="6.6028">
        <ele>1101.7</ele>
        <time>2026-02-02T06:44:15Z</time>
      </trkpt>
      <trkpt lat="45.96147" lon="6.60279">
        <ele>1101.9</ele>
        <time>2026-02-02T06:44:16Z</time>
      </trkpt>
      <trkpt lat="45.96147" lon="6.60278">
        <ele>1102.1</ele>
        <time>2026-02-02T06:44:17Z</time>
      </trkpt>
      <trkpt lat="45.96146" lon="6.60276">
        <ele>1102.3</ele>
        <time>2026-02-02T06:44:18Z</time>
      </trkpt>
      <trkpt lat="45.96146" lon="6.60275">
        <ele>1102.4</ele>
        <time>2026-02-02T06:44:19Z</time>
      </trkpt>
      <trkpt lat="45.96146" lon="6.60273">
        <ele>1102.7</ele>
        <time>2026-02-02T06:44:20Z</time>
      </trkpt>
      <trkpt lat="45.96146" lon="6.60272">
        <ele>1102.8</ele>
        <time>2026-02-02T06:44:21Z</time>
      </trkpt>
      <trkpt lat="45.96146" lon="6.60271">
        <ele>1103</ele>
        <time>2026-02-02T06:44:22Z</time>
      </trkpt>
      <trkpt lat="45.96146" lon="6.60269">
        <ele>1103.2</ele>
        <time>2026-02-02T06:44:23Z</time>
      </trkpt>
      <trkpt lat="45.96146" lon="6.60268">
        <ele>1103.4</ele>
        <time>2026-02-02T06:44:24Z</time>
      </trkpt>
      <trkpt lat="45.96146" lon="6.60266">
        <ele>1103.6</ele>
        <time>2026-02-02T06:44:25Z</time>
      </trkpt>
      <trkpt lat="45.96146" lon="6.60265">
        <ele>1103.9</ele>
        <time>2026-02-02T06:44:26Z</time>
      </trkpt>
      <trkpt lat="45.96146" lon="6.60263">
        <ele>1104.1</ele>
        <time>2026-02-02T06:44:27Z</time>
      </trkpt>
      <trkpt lat="45.96146" lon="6.60262">
        <ele>1104.3</ele>
        <time>2026-02-02T06:44:28Z</time>
      </trkpt>
      <trkpt lat="45.96146" lon="6.60261">
        <ele>1104.4</ele>
        <time>2026-02-02T06:44:29Z</time>
      </trkpt>
      <trkpt lat="45.96146" lon="6.60259">
        <ele>1104.5</ele>
        <time>2026-02-02T06:44:30Z</time>
      </trkpt>
      <trkpt lat="45.96146" lon="6.60258">
        <ele>1104.7</ele>
        <time>2026-02-02T06:44:31Z</time>
      </trkpt>
      <trkpt lat="45.96146" lon="6.60257">
        <ele>1104.9</ele>
        <time>2026-02-02T06:44:32Z</time>
      </trkpt>
      <trkpt lat="45.96146" lon="6.60256">
        <ele>1105.1</ele>
        <time>2026-02-02T06:44:33Z</time>
      </trkpt>
      <trkpt lat="45.96147" lon="6.60255">
        <ele>1105.2</ele>
        <time>2026-02-02T06:44:34Z</time>
      </trkpt>
      <trkpt lat="45.96148" lon="6.60254">
        <ele>1105.4</ele>
        <time>2026-02-02T06:44:35Z</time>
      </trkpt>
      <trkpt lat="45.96148" lon="6.60253">
        <ele>1105.5</ele>
        <time>2026-02-02T06:44:36Z</time>
      </trkpt>
      <trkpt lat="45.96148" lon="6.60252">
        <ele>1105.7</ele>
        <time>2026-02-02T06:44:37Z</time>
      </trkpt>
      <trkpt lat="45.96149" lon="6.6025">
        <ele>1105.9</ele>
        <time>2026-02-02T06:44:38Z</time>
      </trkpt>
      <trkpt lat="45.96149" lon="6.6025">
        <ele>1106</ele>
        <time>2026-02-02T06:44:39Z</time>
      </trkpt>
      <trkpt lat="45.96149" lon="6.60249">
        <ele>1106.1</ele>
        <time>2026-02-02T06:44:40Z</time>
      </trkpt>
      <trkpt lat="45.9615" lon="6.60248">
        <ele>1106.3</ele>
        <time>2026-02-02T06:44:41Z</time>
      </trkpt>
      <trkpt lat="45.96151" lon="6.60247">
        <ele>1106.5</ele>
        <time>2026-02-02T06:44:42Z</time>
      </trkpt>
      <trkpt lat="45.96151" lon="6.60245">
        <ele>1106.8</ele>
        <time>2026-02-02T06:44:43Z</time>
      </trkpt>
      <trkpt lat="45.96151" lon="6.60244">
        <ele>1106.9</ele>
        <time>2026-02-02T06:44:44Z</time>
      </trkpt>
      <trkpt lat="45.96151" lon="6.60242">
        <ele>1107.1</ele>
        <time>2026-02-02T06:44:45Z</time>
      </trkpt>
      <trkpt lat="45.96152" lon="6.60242">
        <ele>1107.2</ele>
        <time>2026-02-02T06:44:46Z</time>
      </trkpt>
      <trkpt lat="45.96152" lon="6.60241">
        <ele>1107.3</ele>
        <time>2026-02-02T06:44:47Z</time>
      </trkpt>
      <trkpt lat="45.96153" lon="6.6024">
        <ele>1107.5</ele>
        <time>2026-02-02T06:44:48Z</time>
      </trkpt>
      <trkpt lat="45.96154" lon="6.60239">
        <ele>1107.7</ele>
        <time>2026-02-02T06:44:49Z</time>
      </trkpt>
      <trkpt lat="45.96154" lon="6.60238">
        <ele>1107.9</ele>
        <time>2026-02-02T06:44:50Z</time>
      </trkpt>
      <trkpt lat="45.96155" lon="6.60237">
        <ele>1108.1</ele>
        <time>2026-02-02T06:44:51Z</time>
      </trkpt>
      <trkpt lat="45.96156" lon="6.60236">
        <ele>1108.3</ele>
        <time>2026-02-02T06:44:52Z</time>
      </trkpt>
      <trkpt lat="45.96158" lon="6.60235">
        <ele>1108.6</ele>
        <time>2026-02-02T06:44:53Z</time>
      </trkpt>
      <trkpt lat="45.9616" lon="6.60234">
        <ele>1109</ele>
        <time>2026-02-02T06:44:54Z</time>
      </trkpt>
      <trkpt lat="45.9616" lon="6.60234">
        <ele>1109.2</ele>
        <time>2026-02-02T06:44:55Z</time>
      </trkpt>
      <trkpt lat="45.96161" lon="6.60233">
        <ele>1109.3</ele>
        <time>2026-02-02T06:44:56Z</time>
      </trkpt>
      <trkpt lat="45.96162" lon="6.60233">
        <ele>1109.5</ele>
        <time>2026-02-02T06:44:57Z</time>
      </trkpt>
      <trkpt lat="45.96163" lon="6.60233">
        <ele>1109.7</ele>
        <time>2026-02-02T06:44:58Z</time>
      </trkpt>
      <trkpt lat="45.96164" lon="6.60233">
        <ele>1109.8</ele>
        <time>2026-02-02T06:44:59Z</time>
      </trkpt>
      <trkpt lat="45.96165" lon="6.60233">
        <ele>1110</ele>
        <time>2026-02-02T06:45:00Z</time>
      </trkpt>
      <trkpt lat="45.96166" lon="6.60233">
        <ele>1110.2</ele>
        <time>2026-02-02T06:45:01Z</time>
      </trkpt>
      <trkpt lat="45.96167" lon="6.60233">
        <ele>1110.4</ele>
        <time>2026-02-02T06:45:02Z</time>
      </trkpt>
      <trkpt lat="45.96168" lon="6.60234">
        <ele>1110.6</ele>
        <time>2026-02-02T06:45:03Z</time>
      </trkpt>
      <trkpt lat="45.96169" lon="6.60234">
        <ele>1110.7</ele>
        <time>2026-02-02T06:45:04Z</time>
      </trkpt>
      <trkpt lat="45.9617" lon="6.60234">
        <ele>1110.9</ele>
        <time>2026-02-02T06:45:05Z</time>
      </trkpt>
      <trkpt lat="45.9617" lon="6.60234">
        <ele>1110.9</ele>
        <time>2026-02-02T06:45:06Z</time>
      </trkpt>
      <trkpt lat="45.96171" lon="6.60234">
        <ele>1111</ele>
        <time>2026-02-02T06:45:07Z</time>
      </trkpt>
      <trkpt lat="45.96172" lon="6.60234">
        <ele>1111.2</ele>
        <time>2026-02-02T06:45:08Z</time>
      </trkpt>
      <trkpt lat="45.96172" lon="6.60234">
        <ele>1111.2</ele>
        <time>2026-02-02T06:45:09Z</time>
      </trkpt>
      <trkpt lat="45.96173" lon="6.60234">
        <ele>1111.4</ele>
        <time>2026-02-02T06:45:10Z</time>
      </trkpt>
      <trkpt lat="45.96174" lon="6.60234">
        <ele>1111.6</ele>
        <time>2026-02-02T06:45:11Z</time>
      </trkpt>
      <trkpt lat="45.96175" lon="6.60234">
        <ele>1111.8</ele>
        <time>2026-02-02T06:45:12Z</time>
      </trkpt>
      <trkpt lat="45.96176" lon="6.60234">
        <ele>1112</ele>
        <time>2026-02-02T06:45:13Z</time>
      </trkpt>
      <trkpt lat="45.96178" lon="6.60233">
        <ele>1112.3</ele>
        <time>2026-02-02T06:45:14Z</time>
      </trkpt>
      <trkpt lat="45.96179" lon="6.60232">
        <ele>1112.5</ele>
        <time>2026-02-02T06:45:15Z</time>
      </trkpt>
      <trkpt lat="45.9618" lon="6.60232">
        <ele>1112.6</ele>
        <time>2026-02-02T06:45:16Z</time>
      </trkpt>
      <trkpt lat="45.96182" lon="6.60232">
        <ele>1112.9</ele>
        <time>2026-02-02T06:45:17Z</time>
      </trkpt>
      <trkpt lat="45.96183" lon="6.60231">
        <ele>1113.1</ele>
        <time>2026-02-02T06:45:18Z</time>
      </trkpt>
      <trkpt lat="45.96184" lon="6.60231">
        <ele>1113.2</ele>
        <time>2026-02-02T06:45:19Z</time>
      </trkpt>
      <trkpt lat="45.96186" lon="6.60229">
        <ele>1113.5</ele>
        <time>2026-02-02T06:45:20Z</time>
      </trkpt>
      <trkpt lat="45.96187" lon="6.60229">
        <ele>1113.7</ele>
        <time>2026-02-02T06:45:21Z</time>
      </trkpt>
      <trkpt lat="45.96188" lon="6.60228">
        <ele>1113.8</ele>
        <time>2026-02-02T06:45:22Z</time>
      </trkpt>
      <trkpt lat="45.96189" lon="6.60227">
        <ele>1114.1</ele>
        <time>2026-02-02T06:45:23Z</time>
      </trkpt>
      <trkpt lat="45.9619" lon="6.60226">
        <ele>1114.2</ele>
        <time>2026-02-02T06:45:24Z</time>
      </trkpt>
      <trkpt lat="45.96191" lon="6.60226">
        <ele>1114.3</ele>
        <time>2026-02-02T06:45:25Z</time>
      </trkpt>
      <trkpt lat="45.96192" lon="6.60225">
        <ele>1114.5</ele>
        <time>2026-02-02T06:45:26Z</time>
      </trkpt>
      <trkpt lat="45.96192" lon="6.60225">
        <ele>1114.5</ele>
        <time>2026-02-02T06:45:27Z</time>
      </trkpt>
      <trkpt lat="45.96192" lon="6.60224">
        <ele>1114.6</ele>
        <time>2026-02-02T06:45:28Z</time>
      </trkpt>
      <trkpt lat="45.96192" lon="6.60222">
        <ele>1114.8</ele>
        <time>2026-02-02T06:45:29Z</time>
      </trkpt>
      <trkpt lat="45.96193" lon="6.60221">
        <ele>1115</ele>
        <time>2026-02-02T06:45:30Z</time>
      </trkpt>
      <trkpt lat="45.96194" lon="6.60219">
        <ele>1115.1</ele>
        <time>2026-02-02T06:45:31Z</time>
      </trkpt>
      <trkpt lat="45.96194" lon="6.60218">
        <ele>1115.3</ele>
        <time>2026-02-02T06:45:32Z</time>
      </trkpt>
      <trkpt lat="45.96194" lon="6.60216">
        <ele>1115.4</ele>
        <time>2026-02-02T06:45:33Z</time>
      </trkpt>
      <trkpt lat="45.96194" lon="6.60215">
        <ele>1115.6</ele>
        <time>2026-02-02T06:45:34Z</time>
      </trkpt>
      <trkpt lat="45.96195" lon="6.60213">
        <ele>1115.8</ele>
        <time>2026-02-02T06:45:35Z</time>
      </trkpt>
      <trkpt lat="45.96195" lon="6.60211">
        <ele>1116</ele>
        <time>2026-02-02T06:45:36Z</time>
      </trkpt>
      <trkpt lat="45.96196" lon="6.6021">
        <ele>1116.2</ele>
        <time>2026-02-02T06:45:37Z</time>
      </trkpt>
      <trkpt lat="45.96196" lon="6.60208">
        <ele>1116.3</ele>
        <time>2026-02-02T06:45:39Z</time>
      </trkpt>
      <trkpt lat="45.96197" lon="6.60207">
        <ele>1116.5</ele>
        <time>2026-02-02T06:45:40Z</time>
      </trkpt>
      <trkpt lat="45.96198" lon="6.60206">
        <ele>1116.6</ele>
        <time>2026-02-02T06:45:41Z</time>
      </trkpt>
      <trkpt lat="45.96198" lon="6.60205">
        <ele>1116.7</ele>
        <time>2026-02-02T06:45:42Z</time>
      </trkpt>
      <trkpt lat="45.96198" lon="6.60204">
        <ele>1116.9</ele>
        <time>2026-02-02T06:45:43Z</time>
      </trkpt>
      <trkpt lat="45.96199" lon="6.60202">
        <ele>1117.2</ele>
        <time>2026-02-02T06:45:44Z</time>
      </trkpt>
      <trkpt lat="45.962" lon="6.60201">
        <ele>1117.3</ele>
        <time>2026-02-02T06:45:45Z</time>
      </trkpt>
      <trkpt lat="45.962" lon="6.60199">
        <ele>1117.6</ele>
        <time>2026-02-02T06:45:46Z</time>
      </trkpt>
      <trkpt lat="45.96201" lon="6.60198">
        <ele>1117.8</ele>
        <time>2026-02-02T06:45:48Z</time>
      </trkpt>
      <trkpt lat="45.96201" lon="6.60197">
        <ele>1118</ele>
        <time>2026-02-02T06:45:49Z</time>
      </trkpt>
      <trkpt lat="45.96201" lon="6.60196">
        <ele>1118.1</ele>
        <time>2026-02-02T06:45:50Z</time>
      </trkpt>
      <trkpt lat="45.96202" lon="6.60195">
        <ele>1118.3</ele>
        <time>2026-02-02T06:45:51Z</time>
      </trkpt>
      <trkpt lat="45.96202" lon="6.60194">
        <ele>1118.4</ele>
        <time>2026-02-02T06:45:52Z</time>
      </trkpt>
      <trkpt lat="45.96203" lon="6.60193">
        <ele>1118.5</ele>
        <time>2026-02-02T06:45:53Z</time>
      </trkpt>
      <trkpt lat="45.96203" lon="6.60192">
        <ele>1118.6</ele>
        <time>2026-02-02T06:45:54Z</time>
      </trkpt>
      <trkpt lat="45.96202" lon="6.60191">
        <ele>1118.8</ele>
        <time>2026-02-02T06:45:55Z</time>
      </trkpt>
      <trkpt lat="45.96202" lon="6.6019">
        <ele>1118.9</ele>
        <time>2026-02-02T06:45:56Z</time>
      </trkpt>
      <trkpt lat="45.96201" lon="6.6019">
        <ele>1119.1</ele>
        <time>2026-02-02T06:45:57Z</time>
      </trkpt>
      <trkpt lat="45.962" lon="6.6019">
        <ele>1119.3</ele>
        <time>2026-02-02T06:45:58Z</time>
      </trkpt>
      <trkpt lat="45.96199" lon="6.60191">
        <ele>1119.5</ele>
        <time>2026-02-02T06:45:59Z</time>
      </trkpt>
      <trkpt lat="45.96198" lon="6.60191">
        <ele>1119.6</ele>
        <time>2026-02-02T06:46:00Z</time>
      </trkpt>
      <trkpt lat="45.96198" lon="6.60191">
        <ele>1119.7</ele>
        <time>2026-02-02T06:46:01Z</time>
      </trkpt>
      <trkpt lat="45.96197" lon="6.60191">
        <ele>1119.9</ele>
        <time>2026-02-02T06:46:02Z</time>
      </trkpt>
      <trkpt lat="45.96196" lon="6.60192">
        <ele>1120.1</ele>
        <time>2026-02-02T06:46:03Z</time>
      </trkpt>
      <trkpt lat="45.96195" lon="6.60192">
        <ele>1120.3</ele>
        <time>2026-02-02T06:46:04Z</time>
      </trkpt>
      <trkpt lat="45.96194" lon="6.60193">
        <ele>1120.5</ele>
        <time>2026-02-02T06:46:05Z</time>
      </trkpt>
      <trkpt lat="45.96194" lon="6.60194">
        <ele>1120.6</ele>
        <time>2026-02-02T06:46:06Z</time>
      </trkpt>
      <trkpt lat="45.96193" lon="6.60194">
        <ele>1120.8</ele>
        <time>2026-02-02T06:46:07Z</time>
      </trkpt>
      <trkpt lat="45.96192" lon="6.60195">
        <ele>1120.9</ele>
        <time>2026-02-02T06:46:08Z</time>
      </trkpt>
      <trkpt lat="45.96192" lon="6.60196">
        <ele>1121.1</ele>
        <time>2026-02-02T06:46:09Z</time>
      </trkpt>
      <trkpt lat="45.96191" lon="6.60196">
        <ele>1121.3</ele>
        <time>2026-02-02T06:46:10Z</time>
      </trkpt>
      <trkpt lat="45.9619" lon="6.60197">
        <ele>1121.4</ele>
        <time>2026-02-02T06:46:11Z</time>
      </trkpt>
      <trkpt lat="45.9619" lon="6.60197">
        <ele>1121.5</ele>
        <time>2026-02-02T06:46:12Z</time>
      </trkpt>
      <trkpt lat="45.96189" lon="6.60197">
        <ele>1121.6</ele>
        <time>2026-02-02T06:46:13Z</time>
      </trkpt>
      <trkpt lat="45.96189" lon="6.60197">
        <ele>1121.6</ele>
        <time>2026-02-02T06:46:14Z</time>
      </trkpt>
      <trkpt lat="45.96189" lon="6.60197">
        <ele>1121.7</ele>
        <time>2026-02-02T06:46:15Z</time>
      </trkpt>
      <trkpt lat="45.96188" lon="6.60197">
        <ele>1121.9</ele>
        <time>2026-02-02T06:46:16Z</time>
      </trkpt>
      <trkpt lat="45.96187" lon="6.60196">
        <ele>1122</ele>
        <time>2026-02-02T06:46:17Z</time>
      </trkpt>
      <trkpt lat="45.96187" lon="6.60195">
        <ele>1122.2</ele>
        <time>2026-02-02T06:46:18Z</time>
      </trkpt>
      <trkpt lat="45.96186" lon="6.60195">
        <ele>1122.3</ele>
        <time>2026-02-02T06:46:19Z</time>
      </trkpt>
      <trkpt lat="45.96186" lon="6.60194">
        <ele>1122.4</ele>
        <time>2026-02-02T06:46:20Z</time>
      </trkpt>
      <trkpt lat="45.96186" lon="6.60193">
        <ele>1122.6</ele>
        <time>2026-02-02T06:46:21Z</time>
      </trkpt>
      <trkpt lat="45.96185" lon="6.60192">
        <ele>1122.7</ele>
        <time>2026-02-02T06:46:22Z</time>
      </trkpt>
      <trkpt lat="45.96185" lon="6.6019">
        <ele>1122.9</ele>
        <time>2026-02-02T06:46:23Z</time>
      </trkpt>
      <trkpt lat="45.96185" lon="6.60189">
        <ele>1123</ele>
        <time>2026-02-02T06:46:24Z</time>
      </trkpt>
      <trkpt lat="45.96185" lon="6.60188">
        <ele>1123.2</ele>
        <time>2026-02-02T06:46:25Z</time>
      </trkpt>
      <trkpt lat="45.96186" lon="6.60187">
        <ele>1123.3</ele>
        <time>2026-02-02T06:46:26Z</time>
      </trkpt>
      <trkpt lat="45.96186" lon="6.60186">
        <ele>1123.5</ele>
        <time>2026-02-02T06:46:27Z</time>
      </trkpt>
      <trkpt lat="45.96186" lon="6.60185">
        <ele>1123.6</ele>
        <time>2026-02-02T06:46:28Z</time>
      </trkpt>
      <trkpt lat="45.96187" lon="6.60184">
        <ele>1123.7</ele>
        <time>2026-02-02T06:46:29Z</time>
      </trkpt>
      <trkpt lat="45.96187" lon="6.60183">
        <ele>1123.9</ele>
        <time>2026-02-02T06:46:30Z</time>
      </trkpt>
      <trkpt lat="45.96187" lon="6.60182">
        <ele>1123.9</ele>
        <time>2026-02-02T06:46:31Z</time>
      </trkpt>
      <trkpt lat="45.96186" lon="6.60181">
        <ele>1124.1</ele>
        <time>2026-02-02T06:46:32Z</time>
      </trkpt>
      <trkpt lat="45.96186" lon="6.6018">
        <ele>1124.3</ele>
        <time>2026-02-02T06:46:33Z</time>
      </trkpt>
      <trkpt lat="45.96185" lon="6.60179">
        <ele>1124.4</ele>
        <time>2026-02-02T06:46:34Z</time>
      </trkpt>
      <trkpt lat="45.96185" lon="6.60178">
        <ele>1124.6</ele>
        <time>2026-02-02T06:46:35Z</time>
      </trkpt>
      <trkpt lat="45.96184" lon="6.60177">
        <ele>1124.7</ele>
        <time>2026-02-02T06:46:36Z</time>
      </trkpt>
      <trkpt lat="45.96184" lon="6.60176">
        <ele>1124.9</ele>
        <time>2026-02-02T06:46:37Z</time>
      </trkpt>
      <trkpt lat="45.96183" lon="6.60176">
        <ele>1125</ele>
        <time>2026-02-02T06:46:38Z</time>
      </trkpt>
      <trkpt lat="45.96182" lon="6.60175">
        <ele>1125.2</ele>
        <time>2026-02-02T06:46:39Z</time>
      </trkpt>
      <trkpt lat="45.96181" lon="6.60175">
        <ele>1125.3</ele>
        <time>2026-02-02T06:46:40Z</time>
      </trkpt>
      <trkpt lat="45.9618" lon="6.60174">
        <ele>1125.5</ele>
        <time>2026-02-02T06:46:41Z</time>
      </trkpt>
      <trkpt lat="45.9618" lon="6.60173">
        <ele>1125.6</ele>
        <time>2026-02-02T06:46:42Z</time>
      </trkpt>
      <trkpt lat="45.96179" lon="6.60172">
        <ele>1125.8</ele>
        <time>2026-02-02T06:46:43Z</time>
      </trkpt>
      <trkpt lat="45.96179" lon="6.60171">
        <ele>1125.9</ele>
        <time>2026-02-02T06:46:44Z</time>
      </trkpt>
      <trkpt lat="45.96178" lon="6.60171">
        <ele>1126</ele>
        <time>2026-02-02T06:46:45Z</time>
      </trkpt>
      <trkpt lat="45.96178" lon="6.60169">
        <ele>1126.2</ele>
        <time>2026-02-02T06:46:46Z</time>
      </trkpt>
      <trkpt lat="45.96177" lon="6.60168">
        <ele>1126.3</ele>
        <time>2026-02-02T06:46:47Z</time>
      </trkpt>
      <trkpt lat="45.96177" lon="6.60167">
        <ele>1126.4</ele>
        <time>2026-02-02T06:46:48Z</time>
      </trkpt>
      <trkpt lat="45.96177" lon="6.60166">
        <ele>1126.6</ele>
        <time>2026-02-02T06:46:49Z</time>
      </trkpt>
      <trkpt lat="45.96176" lon="6.60165">
        <ele>1126.7</ele>
        <time>2026-02-02T06:46:50Z</time>
      </trkpt>
      <trkpt lat="45.96177" lon="6.60164">
        <ele>1126.8</ele>
        <time>2026-02-02T06:46:51Z</time>
      </trkpt>
      <trkpt lat="45.96177" lon="6.60163">
        <ele>1127</ele>
        <time>2026-02-02T06:46:52Z</time>
      </trkpt>
      <trkpt lat="45.96178" lon="6.60162">
        <ele>1127.1</ele>
        <time>2026-02-02T06:46:53Z</time>
      </trkpt>
      <trkpt lat="45.96179" lon="6.60162">
        <ele>1127.2</ele>
        <time>2026-02-02T06:46:54Z</time>
      </trkpt>
      <trkpt lat="45.96179" lon="6.6016">
        <ele>1127.4</ele>
        <time>2026-02-02T06:46:55Z</time>
      </trkpt>
      <trkpt lat="45.9618" lon="6.60159">
        <ele>1127.5</ele>
        <time>2026-02-02T06:46:56Z</time>
      </trkpt>
      <trkpt lat="45.9618" lon="6.60158">
        <ele>1127.6</ele>
        <time>2026-02-02T06:46:57Z</time>
      </trkpt>
      <trkpt lat="45.9618" lon="6.60158">
        <ele>1127.7</ele>
        <time>2026-02-02T06:46:58Z</time>
      </trkpt>
      <trkpt lat="45.96179" lon="6.60157">
        <ele>1127.8</ele>
        <time>2026-02-02T06:46:59Z</time>
      </trkpt>
      <trkpt lat="45.96178" lon="6.60156">
        <ele>1128</ele>
        <time>2026-02-02T06:47:00Z</time>
      </trkpt>
      <trkpt lat="45.96176" lon="6.60156">
        <ele>1128.1</ele>
        <time>2026-02-02T06:47:01Z</time>
      </trkpt>
      <trkpt lat="45.96175" lon="6.60156">
        <ele>1128.3</ele>
        <time>2026-02-02T06:47:03Z</time>
      </trkpt>
      <trkpt lat="45.96174" lon="6.60156">
        <ele>1128.4</ele>
        <time>2026-02-02T06:47:04Z</time>
      </trkpt>
      <trkpt lat="45.96173" lon="6.60156">
        <ele>1128.5</ele>
        <time>2026-02-02T06:47:05Z</time>
      </trkpt>
      <trkpt lat="45.96172" lon="6.60155">
        <ele>1128.6</ele>
        <time>2026-02-02T06:47:06Z</time>
      </trkpt>
      <trkpt lat="45.96172" lon="6.60155">
        <ele>1128.8</ele>
        <time>2026-02-02T06:47:07Z</time>
      </trkpt>
      <trkpt lat="45.96171" lon="6.60154">
        <ele>1128.9</ele>
        <time>2026-02-02T06:47:08Z</time>
      </trkpt>
      <trkpt lat="45.9617" lon="6.60154">
        <ele>1129</ele>
        <time>2026-02-02T06:47:10Z</time>
      </trkpt>
      <trkpt lat="45.96169" lon="6.60153">
        <ele>1129.1</ele>
        <time>2026-02-02T06:47:11Z</time>
      </trkpt>
      <trkpt lat="45.96169" lon="6.60153">
        <ele>1129.1</ele>
        <time>2026-02-02T06:47:12Z</time>
      </trkpt>
      <trkpt lat="45.96168" lon="6.60153">
        <ele>1129.2</ele>
        <time>2026-02-02T06:47:13Z</time>
      </trkpt>
      <trkpt lat="45.96168" lon="6.60152">
        <ele>1129.3</ele>
        <time>2026-02-02T06:47:14Z</time>
      </trkpt>
      <trkpt lat="45.96169" lon="6.60151">
        <ele>1129.4</ele>
        <time>2026-02-02T06:47:15Z</time>
      </trkpt>
      <trkpt lat="45.96168" lon="6.6015">
        <ele>1129.5</ele>
        <time>2026-02-02T06:47:16Z</time>
      </trkpt>
      <trkpt lat="45.96167" lon="6.6015">
        <ele>1129.6</ele>
        <time>2026-02-02T06:47:17Z</time>
      </trkpt>
      <trkpt lat="45.96166" lon="6.60149">
        <ele>1129.8</ele>
        <time>2026-02-02T06:47:18Z</time>
      </trkpt>
      <trkpt lat="45.96164" lon="6.60148">
        <ele>1130</ele>
        <time>2026-02-02T06:47:19Z</time>
      </trkpt>
      <trkpt lat="45.96163" lon="6.60147">
        <ele>1130.2</ele>
        <time>2026-02-02T06:47:20Z</time>
      </trkpt>
      <trkpt lat="45.96163" lon="6.60145">
        <ele>1130.4</ele>
        <time>2026-02-02T06:47:21Z</time>
      </trkpt>
      <trkpt lat="45.96162" lon="6.60143">
        <ele>1130.6</ele>
        <time>2026-02-02T06:47:22Z</time>
      </trkpt>
      <trkpt lat="45.96162" lon="6.60141">
        <ele>1130.8</ele>
        <time>2026-02-02T06:47:23Z</time>
      </trkpt>
      <trkpt lat="45.96162" lon="6.60139">
        <ele>1131</ele>
        <time>2026-02-02T06:47:24Z</time>
      </trkpt>
      <trkpt lat="45.96162" lon="6.60137">
        <ele>1131.2</ele>
        <time>2026-02-02T06:47:25Z</time>
      </trkpt>
      <trkpt lat="45.96162" lon="6.60135">
        <ele>1131.4</ele>
        <time>2026-02-02T06:47:26Z</time>
      </trkpt>
      <trkpt lat="45.96161" lon="6.60133">
        <ele>1131.6</ele>
        <time>2026-02-02T06:47:27Z</time>
      </trkpt>
      <trkpt lat="45.9616" lon="6.60133">
        <ele>1131.7</ele>
        <time>2026-02-02T06:47:28Z</time>
      </trkpt>
      <trkpt lat="45.96159" lon="6.60133">
        <ele>1131.9</ele>
        <time>2026-02-02T06:47:29Z</time>
      </trkpt>
      <trkpt lat="45.96158" lon="6.60133">
        <ele>1132.1</ele>
        <time>2026-02-02T06:47:30Z</time>
      </trkpt>
      <trkpt lat="45.96157" lon="6.60132">
        <ele>1132.2</ele>
        <time>2026-02-02T06:47:31Z</time>
      </trkpt>
      <trkpt lat="45.96156" lon="6.60132">
        <ele>1132.4</ele>
        <time>2026-02-02T06:47:32Z</time>
      </trkpt>
      <trkpt lat="45.96155" lon="6.60132">
        <ele>1132.6</ele>
        <time>2026-02-02T06:47:33Z</time>
      </trkpt>
      <trkpt lat="45.96154" lon="6.60132">
        <ele>1132.7</ele>
        <time>2026-02-02T06:47:34Z</time>
      </trkpt>
      <trkpt lat="45.96153" lon="6.60132">
        <ele>1132.9</ele>
        <time>2026-02-02T06:47:35Z</time>
      </trkpt>
      <trkpt lat="45.96152" lon="6.60132">
        <ele>1133</ele>
        <time>2026-02-02T06:47:36Z</time>
      </trkpt>
      <trkpt lat="45.96152" lon="6.60132">
        <ele>1133.1</ele>
        <time>2026-02-02T06:47:37Z</time>
      </trkpt>
      <trkpt lat="45.96151" lon="6.60132">
        <ele>1133.2</ele>
        <time>2026-02-02T06:47:38Z</time>
      </trkpt>
      <trkpt lat="45.9615" lon="6.60131">
        <ele>1133.4</ele>
        <time>2026-02-02T06:47:39Z</time>
      </trkpt>
      <trkpt lat="45.9615" lon="6.60131">
        <ele>1133.4</ele>
        <time>2026-02-02T06:47:40Z</time>
      </trkpt>
      <trkpt lat="45.96151" lon="6.60131">
        <ele>1133.5</ele>
        <time>2026-02-02T06:47:41Z</time>
      </trkpt>
      <trkpt lat="45.96151" lon="6.60131">
        <ele>1133.5</ele>
        <time>2026-02-02T06:47:42Z</time>
      </trkpt>
      <trkpt lat="45.96151" lon="6.60131">
        <ele>1133.6</ele>
        <time>2026-02-02T06:47:43Z</time>
      </trkpt>
      <trkpt lat="45.96152" lon="6.60131">
        <ele>1133.7</ele>
        <time>2026-02-02T06:47:44Z</time>
      </trkpt>
      <trkpt lat="45.96152" lon="6.60131">
        <ele>1133.7</ele>
        <time>2026-02-02T06:47:45Z</time>
      </trkpt>
      <trkpt lat="45.96152" lon="6.60131">
        <ele>1133.8</ele>
        <time>2026-02-02T06:47:46Z</time>
      </trkpt>
      <trkpt lat="45.96153" lon="6.60131">
        <ele>1133.8</ele>
        <time>2026-02-02T06:47:47Z</time>
      </trkpt>
      <trkpt lat="45.96153" lon="6.60131">
        <ele>1133.9</ele>
        <time>2026-02-02T06:47:48Z</time>
      </trkpt>
      <trkpt lat="45.96153" lon="6.60132">
        <ele>1133.9</ele>
        <time>2026-02-02T06:47:49Z</time>
      </trkpt>
      <trkpt lat="45.96154" lon="6.60132">
        <ele>1134</ele>
        <time>2026-02-02T06:47:50Z</time>
      </trkpt>
      <trkpt lat="45.96154" lon="6.60132">
        <ele>1134.1</ele>
        <time>2026-02-02T06:47:51Z</time>
      </trkpt>
      <trkpt lat="45.96155" lon="6.60132">
        <ele>1134.3</ele>
        <time>2026-02-02T06:47:52Z</time>
      </trkpt>
      <trkpt lat="45.96157" lon="6.60132">
        <ele>1134.5</ele>
        <time>2026-02-02T06:47:53Z</time>
      </trkpt>
      <trkpt lat="45.9616" lon="6.60132">
        <ele>1135</ele>
        <time>2026-02-02T06:47:54Z</time>
      </trkpt>
      <trkpt lat="45.96161" lon="6.60133">
        <ele>1135.1</ele>
        <time>2026-02-02T06:47:55Z</time>
      </trkpt>
      <trkpt lat="45.96162" lon="6.60132">
        <ele>1135.4</ele>
        <time>2026-02-02T06:47:56Z</time>
      </trkpt>
      <trkpt lat="45.96163" lon="6.60132">
        <ele>1135.6</ele>
        <time>2026-02-02T06:47:57Z</time>
      </trkpt>
      <trkpt lat="45.96164" lon="6.60131">
        <ele>1135.8</ele>
        <time>2026-02-02T06:47:58Z</time>
      </trkpt>
      <trkpt lat="45.96165" lon="6.60131">
        <ele>1135.9</ele>
        <time>2026-02-02T06:47:59Z</time>
      </trkpt>
      <trkpt lat="45.96166" lon="6.6013">
        <ele>1136.1</ele>
        <time>2026-02-02T06:48:00Z</time>
      </trkpt>
      <trkpt lat="45.96167" lon="6.60129">
        <ele>1136.3</ele>
        <time>2026-02-02T06:48:01Z</time>
      </trkpt>
      <trkpt lat="45.96168" lon="6.60129">
        <ele>1136.5</ele>
        <time>2026-02-02T06:48:02Z</time>
      </trkpt>
      <trkpt lat="45.96169" lon="6.60128">
        <ele>1136.6</ele>
        <time>2026-02-02T06:48:03Z</time>
      </trkpt>
      <trkpt lat="45.9617" lon="6.60127">
        <ele>1136.8</ele>
        <time>2026-02-02T06:48:04Z</time>
      </trkpt>
      <trkpt lat="45.96171" lon="6.60127">
        <ele>1137</ele>
        <time>2026-02-02T06:48:05Z</time>
      </trkpt>
      <trkpt lat="45.96172" lon="6.60126">
        <ele>1137.2</ele>
        <time>2026-02-02T06:48:06Z</time>
      </trkpt>
      <trkpt lat="45.96173" lon="6.60126">
        <ele>1137.2</ele>
        <time>2026-02-02T06:48:07Z</time>
      </trkpt>
      <trkpt lat="45.96173" lon="6.60125">
        <ele>1137.4</ele>
        <time>2026-02-02T06:48:08Z</time>
      </trkpt>
      <trkpt lat="45.96173" lon="6.60124">
        <ele>1137.5</ele>
        <time>2026-02-02T06:48:09Z</time>
      </trkpt>
      <trkpt lat="45.96174" lon="6.60123">
        <ele>1137.7</ele>
        <time>2026-02-02T06:48:10Z</time>
      </trkpt>
      <trkpt lat="45.96176" lon="6.60122">
        <ele>1137.9</ele>
        <time>2026-02-02T06:48:11Z</time>
      </trkpt>
      <trkpt lat="45.96177" lon="6.60122">
        <ele>1138.2</ele>
        <time>2026-02-02T06:48:12Z</time>
      </trkpt>
      <trkpt lat="45.96179" lon="6.60121">
        <ele>1138.4</ele>
        <time>2026-02-02T06:48:13Z</time>
      </trkpt>
      <trkpt lat="45.96179" lon="6.6012">
        <ele>1138.6</ele>
        <time>2026-02-02T06:48:14Z</time>
      </trkpt>
      <trkpt lat="45.9618" lon="6.60119">
        <ele>1138.8</ele>
        <time>2026-02-02T06:48:15Z</time>
      </trkpt>
      <trkpt lat="45.96181" lon="6.60118">
        <ele>1138.9</ele>
        <time>2026-02-02T06:48:16Z</time>
      </trkpt>
      <trkpt lat="45.96182" lon="6.60118">
        <ele>1139.1</ele>
        <time>2026-02-02T06:48:18Z</time>
      </trkpt>
      <trkpt lat="45.96183" lon="6.60117">
        <ele>1139.2</ele>
        <time>2026-02-02T06:48:19Z</time>
      </trkpt>
      <trkpt lat="45.96183" lon="6.60117">
        <ele>1139.4</ele>
        <time>2026-02-02T06:48:20Z</time>
      </trkpt>
      <trkpt lat="45.96184" lon="6.60116">
        <ele>1139.5</ele>
        <time>2026-02-02T06:48:21Z</time>
      </trkpt>
      <trkpt lat="45.96186" lon="6.60116">
        <ele>1139.7</ele>
        <time>2026-02-02T06:48:22Z</time>
      </trkpt>
      <trkpt lat="45.96187" lon="6.60115">
        <ele>1139.9</ele>
        <time>2026-02-02T06:48:23Z</time>
      </trkpt>
      <trkpt lat="45.96188" lon="6.60115">
        <ele>1140.1</ele>
        <time>2026-02-02T06:48:24Z</time>
      </trkpt>
      <trkpt lat="45.96188" lon="6.60115">
        <ele>1140.2</ele>
        <time>2026-02-02T06:48:25Z</time>
      </trkpt>
      <trkpt lat="45.96189" lon="6.60114">
        <ele>1140.4</ele>
        <time>2026-02-02T06:48:26Z</time>
      </trkpt>
      <trkpt lat="45.9619" lon="6.60114">
        <ele>1140.5</ele>
        <time>2026-02-02T06:48:27Z</time>
      </trkpt>
      <trkpt lat="45.96191" lon="6.60114">
        <ele>1140.6</ele>
        <time>2026-02-02T06:48:28Z</time>
      </trkpt>
      <trkpt lat="45.96191" lon="6.60114">
        <ele>1140.7</ele>
        <time>2026-02-02T06:48:29Z</time>
      </trkpt>
      <trkpt lat="45.96193" lon="6.60113">
        <ele>1141</ele>
        <time>2026-02-02T06:48:30Z</time>
      </trkpt>
      <trkpt lat="45.96193" lon="6.60113">
        <ele>1141.1</ele>
        <time>2026-02-02T06:48:31Z</time>
      </trkpt>
      <trkpt lat="45.96194" lon="6.60112">
        <ele>1141.2</ele>
        <time>2026-02-02T06:48:32Z</time>
      </trkpt>
      <trkpt lat="45.96195" lon="6.60112">
        <ele>1141.4</ele>
        <time>2026-02-02T06:48:33Z</time>
      </trkpt>
      <trkpt lat="45.96197" lon="6.6011">
        <ele>1141.7</ele>
        <time>2026-02-02T06:48:34Z</time>
      </trkpt>
      <trkpt lat="45.96197" lon="6.6011">
        <ele>1141.9</ele>
        <time>2026-02-02T06:48:35Z</time>
      </trkpt>
      <trkpt lat="45.96198" lon="6.60109">
        <ele>1142</ele>
        <time>2026-02-02T06:48:36Z</time>
      </trkpt>
      <trkpt lat="45.96199" lon="6.60108">
        <ele>1142.2</ele>
        <time>2026-02-02T06:48:37Z</time>
      </trkpt>
      <trkpt lat="45.96201" lon="6.60107">
        <ele>1142.5</ele>
        <time>2026-02-02T06:48:38Z</time>
      </trkpt>
      <trkpt lat="45.96202" lon="6.60106">
        <ele>1142.8</ele>
        <time>2026-02-02T06:48:39Z</time>
      </trkpt>
      <trkpt lat="45.96203" lon="6.60104">
        <ele>1143</ele>
        <time>2026-02-02T06:48:40Z</time>
      </trkpt>
      <trkpt lat="45.96204" lon="6.60103">
        <ele>1143.1</ele>
        <time>2026-02-02T06:48:41Z</time>
      </trkpt>
      <trkpt lat="45.96204" lon="6.60102">
        <ele>1143.3</ele>
        <time>2026-02-02T06:48:42Z</time>
      </trkpt>
      <trkpt lat="45.96205" lon="6.60101">
        <ele>1143.5</ele>
        <time>2026-02-02T06:48:43Z</time>
      </trkpt>
      <trkpt lat="45.96206" lon="6.601">
        <ele>1143.6</ele>
        <time>2026-02-02T06:48:44Z</time>
      </trkpt>
      <trkpt lat="45.96206" lon="6.60098">
        <ele>1143.8</ele>
        <time>2026-02-02T06:48:45Z</time>
      </trkpt>
      <trkpt lat="45.96207" lon="6.60097">
        <ele>1144</ele>
        <time>2026-02-02T06:48:46Z</time>
      </trkpt>
      <trkpt lat="45.96208" lon="6.60095">
        <ele>1144.1</ele>
        <time>2026-02-02T06:48:47Z</time>
      </trkpt>
      <trkpt lat="45.96209" lon="6.60094">
        <ele>1144.3</ele>
        <time>2026-02-02T06:48:48Z</time>
      </trkpt>
      <trkpt lat="45.96209" lon="6.60093">
        <ele>1144.5</ele>
        <time>2026-02-02T06:48:49Z</time>
      </trkpt>
      <trkpt lat="45.9621" lon="6.60093">
        <ele>1144.6</ele>
        <time>2026-02-02T06:48:50Z</time>
      </trkpt>
      <trkpt lat="45.9621" lon="6.60092">
        <ele>1144.7</ele>
        <time>2026-02-02T06:48:51Z</time>
      </trkpt>
      <trkpt lat="45.96211" lon="6.60091">
        <ele>1144.8</ele>
        <time>2026-02-02T06:48:52Z</time>
      </trkpt>
      <trkpt lat="45.96211" lon="6.6009">
        <ele>1144.9</ele>
        <time>2026-02-02T06:48:53Z</time>
      </trkpt>
      <trkpt lat="45.96212" lon="6.60088">
        <ele>1145.1</ele>
        <time>2026-02-02T06:48:54Z</time>
      </trkpt>
      <trkpt lat="45.96213" lon="6.60086">
        <ele>1145.4</ele>
        <time>2026-02-02T06:48:55Z</time>
      </trkpt>
      <trkpt lat="45.96214" lon="6.60085">
        <ele>1145.5</ele>
        <time>2026-02-02T06:48:56Z</time>
      </trkpt>
      <trkpt lat="45.96215" lon="6.60084">
        <ele>1145.7</ele>
        <time>2026-02-02T06:48:57Z</time>
      </trkpt>
      <trkpt lat="45.96216" lon="6.60083">
        <ele>1145.8</ele>
        <time>2026-02-02T06:48:58Z</time>
      </trkpt>
      <trkpt lat="45.96217" lon="6.60082">
        <ele>1146</ele>
        <time>2026-02-02T06:48:59Z</time>
      </trkpt>
      <trkpt lat="45.96217" lon="6.60081">
        <ele>1146.2</ele>
        <time>2026-02-02T06:49:00Z</time>
      </trkpt>
      <trkpt lat="45.96218" lon="6.6008">
        <ele>1146.3</ele>
        <time>2026-02-02T06:49:01Z</time>
      </trkpt>
      <trkpt lat="45.96219" lon="6.6008">
        <ele>1146.4</ele>
        <time>2026-02-02T06:49:02Z</time>
      </trkpt>
      <trkpt lat="45.96219" lon="6.60079">
        <ele>1146.5</ele>
        <time>2026-02-02T06:49:03Z</time>
      </trkpt>
      <trkpt lat="45.9622" lon="6.60079">
        <ele>1146.6</ele>
        <time>2026-02-02T06:49:04Z</time>
      </trkpt>
      <trkpt lat="45.9622" lon="6.60079">
        <ele>1146.6</ele>
        <time>2026-02-02T06:49:05Z</time>
      </trkpt>
      <trkpt lat="45.96221" lon="6.60078">
        <ele>1146.7</ele>
        <time>2026-02-02T06:49:06Z</time>
      </trkpt>
      <trkpt lat="45.96221" lon="6.60078">
        <ele>1146.8</ele>
        <time>2026-02-02T06:49:07Z</time>
      </trkpt>
      <trkpt lat="45.96221" lon="6.60077">
        <ele>1146.9</ele>
        <time>2026-02-02T06:49:08Z</time>
      </trkpt>
      <trkpt lat="45.96222" lon="6.60077">
        <ele>1146.9</ele>
        <time>2026-02-02T06:49:09Z</time>
      </trkpt>
      <trkpt lat="45.96222" lon="6.60076">
        <ele>1147.1</ele>
        <time>2026-02-02T06:49:10Z</time>
      </trkpt>
      <trkpt lat="45.96223" lon="6.60075">
        <ele>1147.2</ele>
        <time>2026-02-02T06:49:11Z</time>
      </trkpt>
      <trkpt lat="45.96223" lon="6.60074">
        <ele>1147.3</ele>
        <time>2026-02-02T06:49:12Z</time>
      </trkpt>
      <trkpt lat="45.96223" lon="6.60073">
        <ele>1147.4</ele>
        <time>2026-02-02T06:49:13Z</time>
      </trkpt>
      <trkpt lat="45.96223" lon="6.60072">
        <ele>1147.5</ele>
        <time>2026-02-02T06:49:14Z</time>
      </trkpt>
      <trkpt lat="45.96224" lon="6.6007">
        <ele>1147.7</ele>
        <time>2026-02-02T06:49:15Z</time>
      </trkpt>
      <trkpt lat="45.96225" lon="6.60069">
        <ele>1147.9</ele>
        <time>2026-02-02T06:49:16Z</time>
      </trkpt>
      <trkpt lat="45.96225" lon="6.60068">
        <ele>1148</ele>
        <time>2026-02-02T06:49:17Z</time>
      </trkpt>
      <trkpt lat="45.96226" lon="6.60067">
        <ele>1148.2</ele>
        <time>2026-02-02T06:49:18Z</time>
      </trkpt>
      <trkpt lat="45.96227" lon="6.60066">
        <ele>1148.3</ele>
        <time>2026-02-02T06:49:19Z</time>
      </trkpt>
      <trkpt lat="45.96227" lon="6.60065">
        <ele>1148.4</ele>
        <time>2026-02-02T06:49:20Z</time>
      </trkpt>
      <trkpt lat="45.96228" lon="6.60064">
        <ele>1148.6</ele>
        <time>2026-02-02T06:49:21Z</time>
      </trkpt>
      <trkpt lat="45.96229" lon="6.60063">
        <ele>1148.7</ele>
        <time>2026-02-02T06:49:22Z</time>
      </trkpt>
      <trkpt lat="45.9623" lon="6.60061">
        <ele>1148.9</ele>
        <time>2026-02-02T06:49:23Z</time>
      </trkpt>
      <trkpt lat="45.96231" lon="6.6006">
        <ele>1149.1</ele>
        <time>2026-02-02T06:49:24Z</time>
      </trkpt>
      <trkpt lat="45.96231" lon="6.60059">
        <ele>1149.2</ele>
        <time>2026-02-02T06:49:25Z</time>
      </trkpt>
      <trkpt lat="45.96232" lon="6.60058">
        <ele>1149.3</ele>
        <time>2026-02-02T06:49:26Z</time>
      </trkpt>
      <trkpt lat="45.96232" lon="6.60057">
        <ele>1149.4</ele>
        <time>2026-02-02T06:49:27Z</time>
      </trkpt>
      <trkpt lat="45.96233" lon="6.60055">
        <ele>1149.6</ele>
        <time>2026-02-02T06:49:28Z</time>
      </trkpt>
      <trkpt lat="45.96233" lon="6.60054">
        <ele>1149.7</ele>
        <time>2026-02-02T06:49:29Z</time>
      </trkpt>
      <trkpt lat="45.96234" lon="6.60053">
        <ele>1149.8</ele>
        <time>2026-02-02T06:49:30Z</time>
      </trkpt>
      <trkpt lat="45.96235" lon="6.60051">
        <ele>1149.9</ele>
        <time>2026-02-02T06:49:31Z</time>
      </trkpt>
      <trkpt lat="45.96235" lon="6.6005">
        <ele>1150</ele>
        <time>2026-02-02T06:49:32Z</time>
      </trkpt>
      <trkpt lat="45.96235" lon="6.60049">
        <ele>1150.1</ele>
        <time>2026-02-02T06:49:33Z</time>
      </trkpt>
      <trkpt lat="45.96236" lon="6.60049">
        <ele>1150.2</ele>
        <time>2026-02-02T06:49:34Z</time>
      </trkpt>
      <trkpt lat="45.96236" lon="6.60048">
        <ele>1150.2</ele>
        <time>2026-02-02T06:49:35Z</time>
      </trkpt>
      <trkpt lat="45.96237" lon="6.60047">
        <ele>1150.3</ele>
        <time>2026-02-02T06:49:36Z</time>
      </trkpt>
      <trkpt lat="45.96237" lon="6.60045">
        <ele>1150.4</ele>
        <time>2026-02-02T06:49:37Z</time>
      </trkpt>
      <trkpt lat="45.96239" lon="6.60043">
        <ele>1150.6</ele>
        <time>2026-02-02T06:49:38Z</time>
      </trkpt>
      <trkpt lat="45.9624" lon="6.60043">
        <ele>1150.6</ele>
        <time>2026-02-02T06:49:39Z</time>
      </trkpt>
      <trkpt lat="45.96241" lon="6.60042">
        <ele>1150.7</ele>
        <time>2026-02-02T06:49:40Z</time>
      </trkpt>
      <trkpt lat="45.96242" lon="6.60041">
        <ele>1150.8</ele>
        <time>2026-02-02T06:49:41Z</time>
      </trkpt>
      <trkpt lat="45.96243" lon="6.6004">
        <ele>1150.9</ele>
        <time>2026-02-02T06:49:42Z</time>
      </trkpt>
      <trkpt lat="45.96245" lon="6.60037">
        <ele>1151</ele>
        <time>2026-02-02T06:49:43Z</time>
      </trkpt>
      <trkpt lat="45.96245" lon="6.60036">
        <ele>1151.1</ele>
        <time>2026-02-02T06:49:44Z</time>
      </trkpt>
      <trkpt lat="45.96246" lon="6.60034">
        <ele>1151.1</ele>
        <time>2026-02-02T06:49:45Z</time>
      </trkpt>
      <trkpt lat="45.96248" lon="6.60032">
        <ele>1151.2</ele>
        <time>2026-02-02T06:49:46Z</time>
      </trkpt>
      <trkpt lat="45.9625" lon="6.6003">
        <ele>1151.3</ele>
        <time>2026-02-02T06:49:47Z</time>
      </trkpt>
      <trkpt lat="45.96252" lon="6.6003">
        <ele>1151.3</ele>
        <time>2026-02-02T06:49:48Z</time>
      </trkpt>
      <trkpt lat="45.96254" lon="6.60028">
        <ele>1151.3</ele>
        <time>2026-02-02T06:49:49Z</time>
      </trkpt>
      <trkpt lat="45.96255" lon="6.60028">
        <ele>1151.3</ele>
        <time>2026-02-02T06:49:50Z</time>
      </trkpt>
      <trkpt lat="45.96258" lon="6.60026">
        <ele>1151.4</ele>
        <time>2026-02-02T06:49:51Z</time>
      </trkpt>
      <trkpt lat="45.9626" lon="6.60025">
        <ele>1151.4</ele>
        <time>2026-02-02T06:49:52Z</time>
      </trkpt>
      <trkpt lat="45.96262" lon="6.60023">
        <ele>1151.5</ele>
        <time>2026-02-02T06:49:53Z</time>
      </trkpt>
      <trkpt lat="45.96263" lon="6.60022">
        <ele>1151.5</ele>
        <time>2026-02-02T06:49:54Z</time>
      </trkpt>
      <trkpt lat="45.96264" lon="6.6002">
        <ele>1151.6</ele>
        <time>2026-02-02T06:49:55Z</time>
      </trkpt>
      <trkpt lat="45.96266" lon="6.60019">
        <ele>1151.7</ele>
        <time>2026-02-02T06:49:56Z</time>
      </trkpt>
      <trkpt lat="45.96268" lon="6.60017">
        <ele>1151.8</ele>
        <time>2026-02-02T06:49:57Z</time>
      </trkpt>
      <trkpt lat="45.96269" lon="6.60016">
        <ele>1151.9</ele>
        <time>2026-02-02T06:49:58Z</time>
      </trkpt>
      <trkpt lat="45.96272" lon="6.60013">
        <ele>1152.1</ele>
        <time>2026-02-02T06:49:59Z</time>
      </trkpt>
      <trkpt lat="45.96272" lon="6.60013">
        <ele>1152.1</ele>
        <time>2026-02-02T06:50:00Z</time>
      </trkpt>
      <trkpt lat="45.96273" lon="6.60011">
        <ele>1152.2</ele>
        <time>2026-02-02T06:50:01Z</time>
      </trkpt>
      <trkpt lat="45.96274" lon="6.60009">
        <ele>1152.3</ele>
        <time>2026-02-02T06:50:02Z</time>
      </trkpt>
      <trkpt lat="45.96275" lon="6.60008">
        <ele>1152.4</ele>
        <time>2026-02-02T06:50:03Z</time>
      </trkpt>
      <trkpt lat="45.96277" lon="6.60008">
        <ele>1152.6</ele>
        <time>2026-02-02T06:50:04Z</time>
      </trkpt>
      <trkpt lat="45.96278" lon="6.60008">
        <ele>1152.7</ele>
        <time>2026-02-02T06:50:05Z</time>
      </trkpt>
      <trkpt lat="45.96279" lon="6.60007">
        <ele>1152.8</ele>
        <time>2026-02-02T06:50:06Z</time>
      </trkpt>
      <trkpt lat="45.9628" lon="6.60007">
        <ele>1152.9</ele>
        <time>2026-02-02T06:50:07Z</time>
      </trkpt>
      <trkpt lat="45.96281" lon="6.60005">
        <ele>1153.2</ele>
        <time>2026-02-02T06:50:08Z</time>
      </trkpt>
      <trkpt lat="45.96282" lon="6.60004">
        <ele>1153.3</ele>
        <time>2026-02-02T06:50:09Z</time>
      </trkpt>
      <trkpt lat="45.96283" lon="6.60003">
        <ele>1153.4</ele>
        <time>2026-02-02T06:50:10Z</time>
      </trkpt>
      <trkpt lat="45.96284" lon="6.60002">
        <ele>1153.6</ele>
        <time>2026-02-02T06:50:11Z</time>
      </trkpt>
      <trkpt lat="45.96285" lon="6.60002">
        <ele>1153.7</ele>
        <time>2026-02-02T06:50:13Z</time>
      </trkpt>
      <trkpt lat="45.96286" lon="6.60001">
        <ele>1153.9</ele>
        <time>2026-02-02T06:50:14Z</time>
      </trkpt>
      <trkpt lat="45.96287" lon="6.60001">
        <ele>1154</ele>
        <time>2026-02-02T06:50:15Z</time>
      </trkpt>
      <trkpt lat="45.96288" lon="6.60001">
        <ele>1154.2</ele>
        <time>2026-02-02T06:50:16Z</time>
      </trkpt>
      <trkpt lat="45.96289" lon="6.60001">
        <ele>1154.4</ele>
        <time>2026-02-02T06:50:17Z</time>
      </trkpt>
      <trkpt lat="45.9629" lon="6.60001">
        <ele>1154.6</ele>
        <time>2026-02-02T06:50:18Z</time>
      </trkpt>
      <trkpt lat="45.96291" lon="6.60001">
        <ele>1154.7</ele>
        <time>2026-02-02T06:50:19Z</time>
      </trkpt>
      <trkpt lat="45.96293" lon="6.6">
        <ele>1154.9</ele>
        <time>2026-02-02T06:50:20Z</time>
      </trkpt>
      <trkpt lat="45.96294" lon="6.59999">
        <ele>1155.2</ele>
        <time>2026-02-02T06:50:21Z</time>
      </trkpt>
      <trkpt lat="45.96296" lon="6.59998">
        <ele>1155.5</ele>
        <time>2026-02-02T06:50:22Z</time>
      </trkpt>
      <trkpt lat="45.96297" lon="6.59997">
        <ele>1155.8</ele>
        <time>2026-02-02T06:50:24Z</time>
      </trkpt>
      <trkpt lat="45.96298" lon="6.59996">
        <ele>1156</ele>
        <time>2026-02-02T06:50:25Z</time>
      </trkpt>
      <trkpt lat="45.96299" lon="6.59996">
        <ele>1156.2</ele>
        <time>2026-02-02T06:50:26Z</time>
      </trkpt>
      <trkpt lat="45.963" lon="6.59995">
        <ele>1156.4</ele>
        <time>2026-02-02T06:50:27Z</time>
      </trkpt>
      <trkpt lat="45.96301" lon="6.59994">
        <ele>1156.6</ele>
        <time>2026-02-02T06:50:28Z</time>
      </trkpt>
      <trkpt lat="45.96302" lon="6.59994">
        <ele>1156.8</ele>
        <time>2026-02-02T06:50:29Z</time>
      </trkpt>
      <trkpt lat="45.96303" lon="6.59994">
        <ele>1157</ele>
        <time>2026-02-02T06:50:30Z</time>
      </trkpt>
      <trkpt lat="45.96304" lon="6.59993">
        <ele>1157.3</ele>
        <time>2026-02-02T06:50:31Z</time>
      </trkpt>
      <trkpt lat="45.96305" lon="6.59993">
        <ele>1157.5</ele>
        <time>2026-02-02T06:50:32Z</time>
      </trkpt>
      <trkpt lat="45.96306" lon="6.59992">
        <ele>1157.8</ele>
        <time>2026-02-02T06:50:33Z</time>
      </trkpt>
      <trkpt lat="45.96307" lon="6.59991">
        <ele>1158</ele>
        <time>2026-02-02T06:50:34Z</time>
      </trkpt>
      <trkpt lat="45.96308" lon="6.59991">
        <ele>1158.2</ele>
        <time>2026-02-02T06:50:35Z</time>
      </trkpt>
      <trkpt lat="45.96309" lon="6.59991">
        <ele>1158.3</ele>
        <time>2026-02-02T06:50:36Z</time>
      </trkpt>
      <trkpt lat="45.9631" lon="6.5999">
        <ele>1158.5</ele>
        <time>2026-02-02T06:50:37Z</time>
      </trkpt>
      <trkpt lat="45.96311" lon="6.5999">
        <ele>1158.7</ele>
        <time>2026-02-02T06:50:38Z</time>
      </trkpt>
      <trkpt lat="45.96312" lon="6.59989">
        <ele>1159</ele>
        <time>2026-02-02T06:50:39Z</time>
      </trkpt>
      <trkpt lat="45.96312" lon="6.59989">
        <ele>1159.1</ele>
        <time>2026-02-02T06:50:40Z</time>
      </trkpt>
      <trkpt lat="45.96313" lon="6.59989">
        <ele>1159.3</ele>
        <time>2026-02-02T06:50:41Z</time>
      </trkpt>
      <trkpt lat="45.96314" lon="6.59988">
        <ele>1159.5</ele>
        <time>2026-02-02T06:50:42Z</time>
      </trkpt>
      <trkpt lat="45.96315" lon="6.59988">
        <ele>1159.7</ele>
        <time>2026-02-02T06:50:43Z</time>
      </trkpt>
      <trkpt lat="45.96316" lon="6.59988">
        <ele>1159.9</ele>
        <time>2026-02-02T06:50:44Z</time>
      </trkpt>
      <trkpt lat="45.96317" lon="6.59988">
        <ele>1160</ele>
        <time>2026-02-02T06:50:45Z</time>
      </trkpt>
      <trkpt lat="45.96318" lon="6.59987">
        <ele>1160.3</ele>
        <time>2026-02-02T06:50:46Z</time>
      </trkpt>
      <trkpt lat="45.96319" lon="6.59986">
        <ele>1160.5</ele>
        <time>2026-02-02T06:50:47Z</time>
      </trkpt>
      <trkpt lat="45.9632" lon="6.59985">
        <ele>1160.7</ele>
        <time>2026-02-02T06:50:48Z</time>
      </trkpt>
      <trkpt lat="45.96321" lon="6.59984">
        <ele>1160.9</ele>
        <time>2026-02-02T06:50:49Z</time>
      </trkpt>
      <trkpt lat="45.96322" lon="6.59983">
        <ele>1161.2</ele>
        <time>2026-02-02T06:50:50Z</time>
      </trkpt>
      <trkpt lat="45.96323" lon="6.59981">
        <ele>1161.4</ele>
        <time>2026-02-02T06:50:52Z</time>
      </trkpt>
      <trkpt lat="45.96324" lon="6.5998">
        <ele>1161.6</ele>
        <time>2026-02-02T06:50:53Z</time>
      </trkpt>
      <trkpt lat="45.96324" lon="6.5998">
        <ele>1161.7</ele>
        <time>2026-02-02T06:50:54Z</time>
      </trkpt>
      <trkpt lat="45.96324" lon="6.59979">
        <ele>1161.9</ele>
        <time>2026-02-02T06:50:55Z</time>
      </trkpt>
      <trkpt lat="45.96325" lon="6.59978">
        <ele>1162</ele>
        <time>2026-02-02T06:50:56Z</time>
      </trkpt>
      <trkpt lat="45.96326" lon="6.59977">
        <ele>1162.2</ele>
        <time>2026-02-02T06:50:57Z</time>
      </trkpt>
      <trkpt lat="45.96327" lon="6.59976">
        <ele>1162.4</ele>
        <time>2026-02-02T06:50:58Z</time>
      </trkpt>
      <trkpt lat="45.96328" lon="6.59976">
        <ele>1162.5</ele>
        <time>2026-02-02T06:50:59Z</time>
      </trkpt>
      <trkpt lat="45.9633" lon="6.59975">
        <ele>1162.7</ele>
        <time>2026-02-02T06:51:00Z</time>
      </trkpt>
      <trkpt lat="45.96331" lon="6.59975">
        <ele>1162.9</ele>
        <time>2026-02-02T06:51:01Z</time>
      </trkpt>
      <trkpt lat="45.96332" lon="6.59975">
        <ele>1163</ele>
        <time>2026-02-02T06:51:02Z</time>
      </trkpt>
      <trkpt lat="45.96333" lon="6.59974">
        <ele>1163.1</ele>
        <time>2026-02-02T06:51:03Z</time>
      </trkpt>
      <trkpt lat="45.96334" lon="6.59974">
        <ele>1163.3</ele>
        <time>2026-02-02T06:51:04Z</time>
      </trkpt>
      <trkpt lat="45.96336" lon="6.59973">
        <ele>1163.5</ele>
        <time>2026-02-02T06:51:05Z</time>
      </trkpt>
      <trkpt lat="45.96337" lon="6.59972">
        <ele>1163.6</ele>
        <time>2026-02-02T06:51:06Z</time>
      </trkpt>
      <trkpt lat="45.96338" lon="6.59971">
        <ele>1163.7</ele>
        <time>2026-02-02T06:51:07Z</time>
      </trkpt>
      <trkpt lat="45.96339" lon="6.5997">
        <ele>1163.8</ele>
        <time>2026-02-02T06:51:08Z</time>
      </trkpt>
      <trkpt lat="45.9634" lon="6.59969">
        <ele>1163.9</ele>
        <time>2026-02-02T06:51:09Z</time>
      </trkpt>
      <trkpt lat="45.96342" lon="6.59968">
        <ele>1164.1</ele>
        <time>2026-02-02T06:51:10Z</time>
      </trkpt>
      <trkpt lat="45.96343" lon="6.59968">
        <ele>1164.1</ele>
        <time>2026-02-02T06:51:11Z</time>
      </trkpt>
      <trkpt lat="45.96343" lon="6.59967">
        <ele>1164.2</ele>
        <time>2026-02-02T06:51:12Z</time>
      </trkpt>
      <trkpt lat="45.96345" lon="6.59966">
        <ele>1164.4</ele>
        <time>2026-02-02T06:51:13Z</time>
      </trkpt>
      <trkpt lat="45.96346" lon="6.59965">
        <ele>1164.5</ele>
        <time>2026-02-02T06:51:14Z</time>
      </trkpt>
      <trkpt lat="45.96346" lon="6.59964">
        <ele>1164.6</ele>
        <time>2026-02-02T06:51:15Z</time>
      </trkpt>
      <trkpt lat="45.96348" lon="6.59963">
        <ele>1164.7</ele>
        <time>2026-02-02T06:51:16Z</time>
      </trkpt>
      <trkpt lat="45.96349" lon="6.59961">
        <ele>1164.8</ele>
        <time>2026-02-02T06:51:17Z</time>
      </trkpt>
      <trkpt lat="45.9635" lon="6.5996">
        <ele>1164.9</ele>
        <time>2026-02-02T06:51:18Z</time>
      </trkpt>
      <trkpt lat="45.96351" lon="6.59958">
        <ele>1165.1</ele>
        <time>2026-02-02T06:51:19Z</time>
      </trkpt>
      <trkpt lat="45.96352" lon="6.59957">
        <ele>1165.2</ele>
        <time>2026-02-02T06:51:20Z</time>
      </trkpt>
      <trkpt lat="45.96353" lon="6.59956">
        <ele>1165.3</ele>
        <time>2026-02-02T06:51:21Z</time>
      </trkpt>
      <trkpt lat="45.96355" lon="6.59954">
        <ele>1165.5</ele>
        <time>2026-02-02T06:51:22Z</time>
      </trkpt>
      <trkpt lat="45.96356" lon="6.59953">
        <ele>1165.6</ele>
        <time>2026-02-02T06:51:23Z</time>
      </trkpt>
      <trkpt lat="45.96356" lon="6.59951">
        <ele>1165.7</ele>
        <time>2026-02-02T06:51:24Z</time>
      </trkpt>
      <trkpt lat="45.96357" lon="6.5995">
        <ele>1165.8</ele>
        <time>2026-02-02T06:51:25Z</time>
      </trkpt>
      <trkpt lat="45.96358" lon="6.5995">
        <ele>1165.9</ele>
        <time>2026-02-02T06:51:26Z</time>
      </trkpt>
      <trkpt lat="45.96359" lon="6.59949">
        <ele>1166.1</ele>
        <time>2026-02-02T06:51:27Z</time>
      </trkpt>
      <trkpt lat="45.9636" lon="6.59948">
        <ele>1166.2</ele>
        <time>2026-02-02T06:51:28Z</time>
      </trkpt>
      <trkpt lat="45.96361" lon="6.59948">
        <ele>1166.3</ele>
        <time>2026-02-02T06:51:29Z</time>
      </trkpt>
      <trkpt lat="45.96362" lon="6.59947">
        <ele>1166.4</ele>
        <time>2026-02-02T06:51:30Z</time>
      </trkpt>
      <trkpt lat="45.96363" lon="6.59945">
        <ele>1166.6</ele>
        <time>2026-02-02T06:51:31Z</time>
      </trkpt>
      <trkpt lat="45.96365" lon="6.59944">
        <ele>1166.8</ele>
        <time>2026-02-02T06:51:32Z</time>
      </trkpt>
      <trkpt lat="45.96366" lon="6.59943">
        <ele>1166.9</ele>
        <time>2026-02-02T06:51:33Z</time>
      </trkpt>
      <trkpt lat="45.96366" lon="6.59942">
        <ele>1167</ele>
        <time>2026-02-02T06:51:34Z</time>
      </trkpt>
      <trkpt lat="45.96368" lon="6.59941">
        <ele>1167.2</ele>
        <time>2026-02-02T06:51:35Z</time>
      </trkpt>
      <trkpt lat="45.96369" lon="6.5994">
        <ele>1167.4</ele>
        <time>2026-02-02T06:51:36Z</time>
      </trkpt>
      <trkpt lat="45.9637" lon="6.5994">
        <ele>1167.5</ele>
        <time>2026-02-02T06:51:38Z</time>
      </trkpt>
      <trkpt lat="45.96371" lon="6.5994">
        <ele>1167.7</ele>
        <time>2026-02-02T06:51:39Z</time>
      </trkpt>
      <trkpt lat="45.96372" lon="6.59939">
        <ele>1167.8</ele>
        <time>2026-02-02T06:51:40Z</time>
      </trkpt>
      <trkpt lat="45.96373" lon="6.59939">
        <ele>1167.9</ele>
        <time>2026-02-02T06:51:41Z</time>
      </trkpt>
      <trkpt lat="45.96374" lon="6.59938">
        <ele>1168</ele>
        <time>2026-02-02T06:51:42Z</time>
      </trkpt>
      <trkpt lat="45.96375" lon="6.59938">
        <ele>1168.1</ele>
        <time>2026-02-02T06:51:43Z</time>
      </trkpt>
      <trkpt lat="45.96376" lon="6.59937">
        <ele>1168.3</ele>
        <time>2026-02-02T06:51:44Z</time>
      </trkpt>
      <trkpt lat="45.96377" lon="6.59935">
        <ele>1168.5</ele>
        <time>2026-02-02T06:51:45Z</time>
      </trkpt>
      <trkpt lat="45.96378" lon="6.59934">
        <ele>1168.8</ele>
        <time>2026-02-02T06:51:46Z</time>
      </trkpt>
      <trkpt lat="45.96379" lon="6.59933">
        <ele>1169</ele>
        <time>2026-02-02T06:51:48Z</time>
      </trkpt>
      <trkpt lat="45.9638" lon="6.59932">
        <ele>1169.2</ele>
        <time>2026-02-02T06:51:49Z</time>
      </trkpt>
      <trkpt lat="45.96381" lon="6.59931">
        <ele>1169.3</ele>
        <time>2026-02-02T06:51:50Z</time>
      </trkpt>
      <trkpt lat="45.96382" lon="6.5993">
        <ele>1169.5</ele>
        <time>2026-02-02T06:51:51Z</time>
      </trkpt>
      <trkpt lat="45.96383" lon="6.59929">
        <ele>1169.6</ele>
        <time>2026-02-02T06:51:52Z</time>
      </trkpt>
      <trkpt lat="45.96383" lon="6.59928">
        <ele>1169.8</ele>
        <time>2026-02-02T06:51:53Z</time>
      </trkpt>
      <trkpt lat="45.96384" lon="6.59927">
        <ele>1169.9</ele>
        <time>2026-02-02T06:51:54Z</time>
      </trkpt>
      <trkpt lat="45.96385" lon="6.59927">
        <ele>1170.1</ele>
        <time>2026-02-02T06:51:55Z</time>
      </trkpt>
      <trkpt lat="45.96386" lon="6.59926">
        <ele>1170.2</ele>
        <time>2026-02-02T06:51:56Z</time>
      </trkpt>
      <trkpt lat="45.96387" lon="6.59925">
        <ele>1170.4</ele>
        <time>2026-02-02T06:51:57Z</time>
      </trkpt>
      <trkpt lat="45.96389" lon="6.59924">
        <ele>1170.8</ele>
        <time>2026-02-02T06:51:58Z</time>
      </trkpt>
      <trkpt lat="45.96389" lon="6.59923">
        <ele>1170.9</ele>
        <time>2026-02-02T06:51:59Z</time>
      </trkpt>
      <trkpt lat="45.9639" lon="6.59923">
        <ele>1171.1</ele>
        <time>2026-02-02T06:52:00Z</time>
      </trkpt>
      <trkpt lat="45.96391" lon="6.59922">
        <ele>1171.2</ele>
        <time>2026-02-02T06:52:01Z</time>
      </trkpt>
      <trkpt lat="45.96392" lon="6.59921">
        <ele>1171.4</ele>
        <time>2026-02-02T06:52:02Z</time>
      </trkpt>
      <trkpt lat="45.96393" lon="6.59921">
        <ele>1171.6</ele>
        <time>2026-02-02T06:52:03Z</time>
      </trkpt>
      <trkpt lat="45.96395" lon="6.59919">
        <ele>1171.9</ele>
        <time>2026-02-02T06:52:04Z</time>
      </trkpt>
      <trkpt lat="45.96396" lon="6.59919">
        <ele>1172.1</ele>
        <time>2026-02-02T06:52:05Z</time>
      </trkpt>
      <trkpt lat="45.96398" lon="6.59918">
        <ele>1172.3</ele>
        <time>2026-02-02T06:52:06Z</time>
      </trkpt>
      <trkpt lat="45.96399" lon="6.59917">
        <ele>1172.6</ele>
        <time>2026-02-02T06:52:07Z</time>
      </trkpt>
      <trkpt lat="45.964" lon="6.59915">
        <ele>1172.8</ele>
        <time>2026-02-02T06:52:08Z</time>
      </trkpt>
      <trkpt lat="45.96401" lon="6.59914">
        <ele>1173.1</ele>
        <time>2026-02-02T06:52:09Z</time>
      </trkpt>
      <trkpt lat="45.96403" lon="6.59912">
        <ele>1173.3</ele>
        <time>2026-02-02T06:52:10Z</time>
      </trkpt>
      <trkpt lat="45.96404" lon="6.59911">
        <ele>1173.5</ele>
        <time>2026-02-02T06:52:11Z</time>
      </trkpt>
      <trkpt lat="45.96404" lon="6.5991">
        <ele>1173.7</ele>
        <time>2026-02-02T06:52:12Z</time>
      </trkpt>
      <trkpt lat="45.96406" lon="6.59909">
        <ele>1173.9</ele>
        <time>2026-02-02T06:52:13Z</time>
      </trkpt>
      <trkpt lat="45.96407" lon="6.59909">
        <ele>1174</ele>
        <time>2026-02-02T06:52:14Z</time>
      </trkpt>
      <trkpt lat="45.96409" lon="6.59908">
        <ele>1174.4</ele>
        <time>2026-02-02T06:52:15Z</time>
      </trkpt>
      <trkpt lat="45.9641" lon="6.59908">
        <ele>1174.6</ele>
        <time>2026-02-02T06:52:17Z</time>
      </trkpt>
      <trkpt lat="45.96411" lon="6.59907">
        <ele>1174.7</ele>
        <time>2026-02-02T06:52:18Z</time>
      </trkpt>
      <trkpt lat="45.96412" lon="6.59907">
        <ele>1174.9</ele>
        <time>2026-02-02T06:52:19Z</time>
      </trkpt>
      <trkpt lat="45.96413" lon="6.59907">
        <ele>1175</ele>
        <time>2026-02-02T06:52:20Z</time>
      </trkpt>
      <trkpt lat="45.96414" lon="6.59907">
        <ele>1175.2</ele>
        <time>2026-02-02T06:52:21Z</time>
      </trkpt>
      <trkpt lat="45.96415" lon="6.59906">
        <ele>1175.3</ele>
        <time>2026-02-02T06:52:22Z</time>
      </trkpt>
      <trkpt lat="45.96416" lon="6.59906">
        <ele>1175.4</ele>
        <time>2026-02-02T06:52:23Z</time>
      </trkpt>
      <trkpt lat="45.96417" lon="6.59906">
        <ele>1175.6</ele>
        <time>2026-02-02T06:52:24Z</time>
      </trkpt>
      <trkpt lat="45.96418" lon="6.59906">
        <ele>1175.8</ele>
        <time>2026-02-02T06:52:25Z</time>
      </trkpt>
      <trkpt lat="45.96419" lon="6.59906">
        <ele>1175.9</ele>
        <time>2026-02-02T06:52:26Z</time>
      </trkpt>
      <trkpt lat="45.9642" lon="6.59906">
        <ele>1176.1</ele>
        <time>2026-02-02T06:52:27Z</time>
      </trkpt>
      <trkpt lat="45.96421" lon="6.59905">
        <ele>1176.2</ele>
        <time>2026-02-02T06:52:28Z</time>
      </trkpt>
      <trkpt lat="45.96422" lon="6.59904">
        <ele>1176.3</ele>
        <time>2026-02-02T06:52:29Z</time>
      </trkpt>
      <trkpt lat="45.96422" lon="6.59903">
        <ele>1176.5</ele>
        <time>2026-02-02T06:52:30Z</time>
      </trkpt>
      <trkpt lat="45.96423" lon="6.59903">
        <ele>1176.6</ele>
        <time>2026-02-02T06:52:31Z</time>
      </trkpt>
      <trkpt lat="45.96422" lon="6.59901">
        <ele>1176.8</ele>
        <time>2026-02-02T06:52:32Z</time>
      </trkpt>
      <trkpt lat="45.96423" lon="6.599">
        <ele>1177</ele>
        <time>2026-02-02T06:52:33Z</time>
      </trkpt>
      <trkpt lat="45.96424" lon="6.59899">
        <ele>1177.2</ele>
        <time>2026-02-02T06:52:34Z</time>
      </trkpt>
      <trkpt lat="45.96425" lon="6.59899">
        <ele>1177.3</ele>
        <time>2026-02-02T06:52:35Z</time>
      </trkpt>
      <trkpt lat="45.96426" lon="6.59899">
        <ele>1177.5</ele>
        <time>2026-02-02T06:52:36Z</time>
      </trkpt>
      <trkpt lat="45.96427" lon="6.59898">
        <ele>1177.6</ele>
        <time>2026-02-02T06:52:37Z</time>
      </trkpt>
      <trkpt lat="45.96428" lon="6.59897">
        <ele>1177.8</ele>
        <time>2026-02-02T06:52:38Z</time>
      </trkpt>
      <trkpt lat="45.96428" lon="6.59896">
        <ele>1178</ele>
        <time>2026-02-02T06:52:39Z</time>
      </trkpt>
      <trkpt lat="45.96429" lon="6.59895">
        <ele>1178.1</ele>
        <time>2026-02-02T06:52:40Z</time>
      </trkpt>
      <trkpt lat="45.9643" lon="6.59895">
        <ele>1178.2</ele>
        <time>2026-02-02T06:52:41Z</time>
      </trkpt>
      <trkpt lat="45.9643" lon="6.59894">
        <ele>1178.3</ele>
        <time>2026-02-02T06:52:42Z</time>
      </trkpt>
      <trkpt lat="45.96431" lon="6.59893">
        <ele>1178.4</ele>
        <time>2026-02-02T06:52:43Z</time>
      </trkpt>
      <trkpt lat="45.96431" lon="6.59892">
        <ele>1178.5</ele>
        <time>2026-02-02T06:52:44Z</time>
      </trkpt>
      <trkpt lat="45.96432" lon="6.59891">
        <ele>1178.7</ele>
        <time>2026-02-02T06:52:45Z</time>
      </trkpt>
      <trkpt lat="45.96434" lon="6.59891">
        <ele>1178.9</ele>
        <time>2026-02-02T06:52:46Z</time>
      </trkpt>
      <trkpt lat="45.96435" lon="6.5989">
        <ele>1179.1</ele>
        <time>2026-02-02T06:52:47Z</time>
      </trkpt>
      <trkpt lat="45.96436" lon="6.5989">
        <ele>1179.3</ele>
        <time>2026-02-02T06:52:48Z</time>
      </trkpt>
      <trkpt lat="45.96437" lon="6.59889">
        <ele>1179.4</ele>
        <time>2026-02-02T06:52:49Z</time>
      </trkpt>
      <trkpt lat="45.96438" lon="6.59889">
        <ele>1179.6</ele>
        <time>2026-02-02T06:52:50Z</time>
      </trkpt>
      <trkpt lat="45.96439" lon="6.59888">
        <ele>1179.7</ele>
        <time>2026-02-02T06:52:51Z</time>
      </trkpt>
      <trkpt lat="45.9644" lon="6.59888">
        <ele>1179.9</ele>
        <time>2026-02-02T06:52:52Z</time>
      </trkpt>
      <trkpt lat="45.96441" lon="6.59888">
        <ele>1180</ele>
        <time>2026-02-02T06:52:53Z</time>
      </trkpt>
      <trkpt lat="45.96442" lon="6.59887">
        <ele>1180.2</ele>
        <time>2026-02-02T06:52:54Z</time>
      </trkpt>
      <trkpt lat="45.96443" lon="6.59886">
        <ele>1180.3</ele>
        <time>2026-02-02T06:52:55Z</time>
      </trkpt>
      <trkpt lat="45.96444" lon="6.59884">
        <ele>1180.5</ele>
        <time>2026-02-02T06:52:56Z</time>
      </trkpt>
      <trkpt lat="45.96445" lon="6.59884">
        <ele>1180.7</ele>
        <time>2026-02-02T06:52:57Z</time>
      </trkpt>
      <trkpt lat="45.96446" lon="6.59883">
        <ele>1180.9</ele>
        <time>2026-02-02T06:52:58Z</time>
      </trkpt>
      <trkpt lat="45.96447" lon="6.59881">
        <ele>1181.1</ele>
        <time>2026-02-02T06:52:59Z</time>
      </trkpt>
      <trkpt lat="45.96449" lon="6.5988">
        <ele>1181.4</ele>
        <time>2026-02-02T06:53:00Z</time>
      </trkpt>
      <trkpt lat="45.9645" lon="6.5988">
        <ele>1181.5</ele>
        <time>2026-02-02T06:53:01Z</time>
      </trkpt>
      <trkpt lat="45.96451" lon="6.59879">
        <ele>1181.7</ele>
        <time>2026-02-02T06:53:02Z</time>
      </trkpt>
      <trkpt lat="45.96452" lon="6.59878">
        <ele>1181.9</ele>
        <time>2026-02-02T06:53:03Z</time>
      </trkpt>
      <trkpt lat="45.96453" lon="6.59878">
        <ele>1182</ele>
        <time>2026-02-02T06:53:04Z</time>
      </trkpt>
      <trkpt lat="45.96454" lon="6.59877">
        <ele>1182.2</ele>
        <time>2026-02-02T06:53:05Z</time>
      </trkpt>
      <trkpt lat="45.96456" lon="6.59876">
        <ele>1182.5</ele>
        <time>2026-02-02T06:53:06Z</time>
      </trkpt>
      <trkpt lat="45.96457" lon="6.59875">
        <ele>1182.7</ele>
        <time>2026-02-02T06:53:07Z</time>
      </trkpt>
      <trkpt lat="45.96458" lon="6.59875">
        <ele>1182.8</ele>
        <time>2026-02-02T06:53:08Z</time>
      </trkpt>
      <trkpt lat="45.96458" lon="6.59875">
        <ele>1182.9</ele>
        <time>2026-02-02T06:53:09Z</time>
      </trkpt>
      <trkpt lat="45.9646" lon="6.59875">
        <ele>1183</ele>
        <time>2026-02-02T06:53:10Z</time>
      </trkpt>
      <trkpt lat="45.96461" lon="6.59874">
        <ele>1183.2</ele>
        <time>2026-02-02T06:53:11Z</time>
      </trkpt>
      <trkpt lat="45.96462" lon="6.59874">
        <ele>1183.4</ele>
        <time>2026-02-02T06:53:12Z</time>
      </trkpt>
      <trkpt lat="45.96462" lon="6.59874">
        <ele>1183.4</ele>
        <time>2026-02-02T06:53:13Z</time>
      </trkpt>
      <trkpt lat="45.96463" lon="6.59874">
        <ele>1183.6</ele>
        <time>2026-02-02T06:53:14Z</time>
      </trkpt>
      <trkpt lat="45.96464" lon="6.59874">
        <ele>1183.7</ele>
        <time>2026-02-02T06:53:15Z</time>
      </trkpt>
      <trkpt lat="45.96465" lon="6.59873">
        <ele>1183.9</ele>
        <time>2026-02-02T06:53:16Z</time>
      </trkpt>
      <trkpt lat="45.96466" lon="6.59872">
        <ele>1184.1</ele>
        <time>2026-02-02T06:53:17Z</time>
      </trkpt>
      <trkpt lat="45.96467" lon="6.59871">
        <ele>1184.3</ele>
        <time>2026-02-02T06:53:18Z</time>
      </trkpt>
      <trkpt lat="45.96469" lon="6.59871">
        <ele>1184.6</ele>
        <time>2026-02-02T06:53:19Z</time>
      </trkpt>
      <trkpt lat="45.9647" lon="6.5987">
        <ele>1184.7</ele>
        <time>2026-02-02T06:53:20Z</time>
      </trkpt>
      <trkpt lat="45.96472" lon="6.5987">
        <ele>1185.1</ele>
        <time>2026-02-02T06:53:21Z</time>
      </trkpt>
      <trkpt lat="45.96473" lon="6.5987">
        <ele>1185.3</ele>
        <time>2026-02-02T06:53:22Z</time>
      </trkpt>
      <trkpt lat="45.96474" lon="6.5987">
        <ele>1185.4</ele>
        <time>2026-02-02T06:53:23Z</time>
      </trkpt>
      <trkpt lat="45.96475" lon="6.59869">
        <ele>1185.7</ele>
        <time>2026-02-02T06:53:24Z</time>
      </trkpt>
      <trkpt lat="45.96476" lon="6.59868">
        <ele>1185.9</ele>
        <time>2026-02-02T06:53:25Z</time>
      </trkpt>
      <trkpt lat="45.96476" lon="6.59868">
        <ele>1186</ele>
        <time>2026-02-02T06:53:26Z</time>
      </trkpt>
      <trkpt lat="45.96476" lon="6.59867">
        <ele>1186.1</ele>
        <time>2026-02-02T06:53:27Z</time>
      </trkpt>
      <trkpt lat="45.96476" lon="6.59866">
        <ele>1186.2</ele>
        <time>2026-02-02T06:53:28Z</time>
      </trkpt>
      <trkpt lat="45.96476" lon="6.59865">
        <ele>1186.4</ele>
        <time>2026-02-02T06:53:29Z</time>
      </trkpt>
      <trkpt lat="45.96477" lon="6.59864">
        <ele>1186.6</ele>
        <time>2026-02-02T06:53:30Z</time>
      </trkpt>
      <trkpt lat="45.96478" lon="6.59863">
        <ele>1186.8</ele>
        <time>2026-02-02T06:53:31Z</time>
      </trkpt>
      <trkpt lat="45.96479" lon="6.59863">
        <ele>1187</ele>
        <time>2026-02-02T06:53:32Z</time>
      </trkpt>
      <trkpt lat="45.96479" lon="6.59863">
        <ele>1187.1</ele>
        <time>2026-02-02T06:53:33Z</time>
      </trkpt>
      <trkpt lat="45.9648" lon="6.59863">
        <ele>1187.3</ele>
        <time>2026-02-02T06:53:34Z</time>
      </trkpt>
      <trkpt lat="45.96481" lon="6.59862">
        <ele>1187.5</ele>
        <time>2026-02-02T06:53:35Z</time>
      </trkpt>
      <trkpt lat="45.96482" lon="6.59861">
        <ele>1187.9</ele>
        <time>2026-02-02T06:53:36Z</time>
      </trkpt>
      <trkpt lat="45.96483" lon="6.5986">
        <ele>1188.3</ele>
        <time>2026-02-02T06:53:38Z</time>
      </trkpt>
      <trkpt lat="45.96484" lon="6.59859">
        <ele>1188.6</ele>
        <time>2026-02-02T06:53:39Z</time>
      </trkpt>
      <trkpt lat="45.96485" lon="6.59858">
        <ele>1188.7</ele>
        <time>2026-02-02T06:53:40Z</time>
      </trkpt>
      <trkpt lat="45.96486" lon="6.59858">
        <ele>1189</ele>
        <time>2026-02-02T06:53:41Z</time>
      </trkpt>
      <trkpt lat="45.96488" lon="6.59857">
        <ele>1189.4</ele>
        <time>2026-02-02T06:53:42Z</time>
      </trkpt>
      <trkpt lat="45.96488" lon="6.59856">
        <ele>1189.7</ele>
        <time>2026-02-02T06:53:43Z</time>
      </trkpt>
      <trkpt lat="45.96489" lon="6.59855">
        <ele>1189.9</ele>
        <time>2026-02-02T06:53:44Z</time>
      </trkpt>
      <trkpt lat="45.9649" lon="6.59854">
        <ele>1190.3</ele>
        <time>2026-02-02T06:53:45Z</time>
      </trkpt>
      <trkpt lat="45.96491" lon="6.59853">
        <ele>1190.7</ele>
        <time>2026-02-02T06:53:46Z</time>
      </trkpt>
      <trkpt lat="45.96492" lon="6.59852">
        <ele>1191</ele>
        <time>2026-02-02T06:53:48Z</time>
      </trkpt>
      <trkpt lat="45.96493" lon="6.59851">
        <ele>1191.3</ele>
        <time>2026-02-02T06:53:49Z</time>
      </trkpt>
      <trkpt lat="45.96494" lon="6.59851">
        <ele>1191.4</ele>
        <time>2026-02-02T06:53:50Z</time>
      </trkpt>
      <trkpt lat="45.96495" lon="6.59851">
        <ele>1191.7</ele>
        <time>2026-02-02T06:53:51Z</time>
      </trkpt>
      <trkpt lat="45.96495" lon="6.5985">
        <ele>1191.8</ele>
        <time>2026-02-02T06:53:52Z</time>
      </trkpt>
      <trkpt lat="45.96496" lon="6.5985">
        <ele>1192.1</ele>
        <time>2026-02-02T06:53:53Z</time>
      </trkpt>
      <trkpt lat="45.96497" lon="6.5985">
        <ele>1192.2</ele>
        <time>2026-02-02T06:53:54Z</time>
      </trkpt>
      <trkpt lat="45.96498" lon="6.5985">
        <ele>1192.6</ele>
        <time>2026-02-02T06:53:55Z</time>
      </trkpt>
      <trkpt lat="45.96499" lon="6.5985">
        <ele>1192.8</ele>
        <time>2026-02-02T06:53:56Z</time>
      </trkpt>
      <trkpt lat="45.965" lon="6.5985">
        <ele>1193</ele>
        <time>2026-02-02T06:53:57Z</time>
      </trkpt>
      <trkpt lat="45.965" lon="6.59849">
        <ele>1193.2</ele>
        <time>2026-02-02T06:53:58Z</time>
      </trkpt>
      <trkpt lat="45.96501" lon="6.59849">
        <ele>1193.6</ele>
        <time>2026-02-02T06:53:59Z</time>
      </trkpt>
      <trkpt lat="45.96503" lon="6.5985">
        <ele>1193.9</ele>
        <time>2026-02-02T06:54:00Z</time>
      </trkpt>
      <trkpt lat="45.96504" lon="6.5985">
        <ele>1194.2</ele>
        <time>2026-02-02T06:54:01Z</time>
      </trkpt>
      <trkpt lat="45.96504" lon="6.59851">
        <ele>1194.4</ele>
        <time>2026-02-02T06:54:02Z</time>
      </trkpt>
      <trkpt lat="45.96505" lon="6.59851">
        <ele>1194.6</ele>
        <time>2026-02-02T06:54:03Z</time>
      </trkpt>
      <trkpt lat="45.96506" lon="6.59852">
        <ele>1194.9</ele>
        <time>2026-02-02T06:54:04Z</time>
      </trkpt>
      <trkpt lat="45.96507" lon="6.59852">
        <ele>1195.1</ele>
        <time>2026-02-02T06:54:05Z</time>
      </trkpt>
      <trkpt lat="45.96508" lon="6.59852">
        <ele>1195.4</ele>
        <time>2026-02-02T06:54:06Z</time>
      </trkpt>
      <trkpt lat="45.96509" lon="6.59852">
        <ele>1195.6</ele>
        <time>2026-02-02T06:54:07Z</time>
      </trkpt>
      <trkpt lat="45.9651" lon="6.59852">
        <ele>1196</ele>
        <time>2026-02-02T06:54:08Z</time>
      </trkpt>
      <trkpt lat="45.96511" lon="6.59852">
        <ele>1196.1</ele>
        <time>2026-02-02T06:54:09Z</time>
      </trkpt>
      <trkpt lat="45.96511" lon="6.59852">
        <ele>1196.2</ele>
        <time>2026-02-02T06:54:10Z</time>
      </trkpt>
      <trkpt lat="45.96512" lon="6.59852">
        <ele>1196.4</ele>
        <time>2026-02-02T06:54:11Z</time>
      </trkpt>
      <trkpt lat="45.96513" lon="6.59852">
        <ele>1196.6</ele>
        <time>2026-02-02T06:54:12Z</time>
      </trkpt>
      <trkpt lat="45.96514" lon="6.59852">
        <ele>1196.9</ele>
        <time>2026-02-02T06:54:13Z</time>
      </trkpt>
      <trkpt lat="45.96514" lon="6.59852">
        <ele>1197.1</ele>
        <time>2026-02-02T06:54:14Z</time>
      </trkpt>
      <trkpt lat="45.96515" lon="6.59852">
        <ele>1197.4</ele>
        <time>2026-02-02T06:54:15Z</time>
      </trkpt>
      <trkpt lat="45.96517" lon="6.59852">
        <ele>1197.6</ele>
        <time>2026-02-02T06:54:16Z</time>
      </trkpt>
      <trkpt lat="45.96517" lon="6.59852">
        <ele>1197.8</ele>
        <time>2026-02-02T06:54:17Z</time>
      </trkpt>
      <trkpt lat="45.96518" lon="6.59852">
        <ele>1198</ele>
        <time>2026-02-02T06:54:18Z</time>
      </trkpt>
      <trkpt lat="45.96519" lon="6.59852">
        <ele>1198.3</ele>
        <time>2026-02-02T06:54:19Z</time>
      </trkpt>
      <trkpt lat="45.9652" lon="6.59852">
        <ele>1198.6</ele>
        <time>2026-02-02T06:54:20Z</time>
      </trkpt>
      <trkpt lat="45.96521" lon="6.59852">
        <ele>1198.9</ele>
        <time>2026-02-02T06:54:21Z</time>
      </trkpt>
      <trkpt lat="45.96522" lon="6.59852">
        <ele>1199.1</ele>
        <time>2026-02-02T06:54:22Z</time>
      </trkpt>
      <trkpt lat="45.96523" lon="6.59852">
        <ele>1199.2</ele>
        <time>2026-02-02T06:54:23Z</time>
      </trkpt>
      <trkpt lat="45.96523" lon="6.59852">
        <ele>1199.4</ele>
        <time>2026-02-02T06:54:24Z</time>
      </trkpt>
      <trkpt lat="45.96524" lon="6.59852">
        <ele>1199.6</ele>
        <time>2026-02-02T06:54:25Z</time>
      </trkpt>
      <trkpt lat="45.96525" lon="6.59852">
        <ele>1199.9</ele>
        <time>2026-02-02T06:54:26Z</time>
      </trkpt>
      <trkpt lat="45.96526" lon="6.59852">
        <ele>1200.1</ele>
        <time>2026-02-02T06:54:27Z</time>
      </trkpt>
      <trkpt lat="45.96527" lon="6.59852">
        <ele>1200.2</ele>
        <time>2026-02-02T06:54:28Z</time>
      </trkpt>
      <trkpt lat="45.96528" lon="6.59852">
        <ele>1200.5</ele>
        <time>2026-02-02T06:54:29Z</time>
      </trkpt>
      <trkpt lat="45.96529" lon="6.59853">
        <ele>1200.7</ele>
        <time>2026-02-02T06:54:30Z</time>
      </trkpt>
      <trkpt lat="45.9653" lon="6.59853">
        <ele>1200.9</ele>
        <time>2026-02-02T06:54:31Z</time>
      </trkpt>
      <trkpt lat="45.96531" lon="6.59854">
        <ele>1201.2</ele>
        <time>2026-02-02T06:54:32Z</time>
      </trkpt>
      <trkpt lat="45.96532" lon="6.59854">
        <ele>1201.4</ele>
        <time>2026-02-02T06:54:33Z</time>
      </trkpt>
      <trkpt lat="45.96533" lon="6.59855">
        <ele>1201.6</ele>
        <time>2026-02-02T06:54:34Z</time>
      </trkpt>
      <trkpt lat="45.96534" lon="6.59855">
        <ele>1201.8</ele>
        <time>2026-02-02T06:54:35Z</time>
      </trkpt>
      <trkpt lat="45.96534" lon="6.59854">
        <ele>1202</ele>
        <time>2026-02-02T06:54:36Z</time>
      </trkpt>
      <trkpt lat="45.96535" lon="6.59854">
        <ele>1202.2</ele>
        <time>2026-02-02T06:54:37Z</time>
      </trkpt>
      <trkpt lat="45.96536" lon="6.59853">
        <ele>1202.3</ele>
        <time>2026-02-02T06:54:38Z</time>
      </trkpt>
      <trkpt lat="45.96536" lon="6.59853">
        <ele>1202.5</ele>
        <time>2026-02-02T06:54:39Z</time>
      </trkpt>
      <trkpt lat="45.96536" lon="6.59852">
        <ele>1202.5</ele>
        <time>2026-02-02T06:54:40Z</time>
      </trkpt>
      <trkpt lat="45.96537" lon="6.59852">
        <ele>1202.7</ele>
        <time>2026-02-02T06:54:41Z</time>
      </trkpt>
      <trkpt lat="45.96538" lon="6.59851">
        <ele>1202.8</ele>
        <time>2026-02-02T06:54:42Z</time>
      </trkpt>
      <trkpt lat="45.96538" lon="6.59851">
        <ele>1202.9</ele>
        <time>2026-02-02T06:54:43Z</time>
      </trkpt>
      <trkpt lat="45.96538" lon="6.5985">
        <ele>1203</ele>
        <time>2026-02-02T06:54:44Z</time>
      </trkpt>
      <trkpt lat="45.96539" lon="6.5985">
        <ele>1203.2</ele>
        <time>2026-02-02T06:54:45Z</time>
      </trkpt>
      <trkpt lat="45.9654" lon="6.5985">
        <ele>1203.4</ele>
        <time>2026-02-02T06:54:46Z</time>
      </trkpt>
      <trkpt lat="45.96541" lon="6.5985">
        <ele>1203.5</ele>
        <time>2026-02-02T06:54:47Z</time>
      </trkpt>
      <trkpt lat="45.96542" lon="6.59849">
        <ele>1203.7</ele>
        <time>2026-02-02T06:54:48Z</time>
      </trkpt>
      <trkpt lat="45.96543" lon="6.59849">
        <ele>1203.9</ele>
        <time>2026-02-02T06:54:50Z</time>
      </trkpt>
      <trkpt lat="45.96544" lon="6.59849">
        <ele>1204</ele>
        <time>2026-02-02T06:54:51Z</time>
      </trkpt>
      <trkpt lat="45.96544" lon="6.59848">
        <ele>1204.1</ele>
        <time>2026-02-02T06:54:52Z</time>
      </trkpt>
      <trkpt lat="45.96545" lon="6.59848">
        <ele>1204.3</ele>
        <time>2026-02-02T06:54:53Z</time>
      </trkpt>
      <trkpt lat="45.96546" lon="6.59848">
        <ele>1204.4</ele>
        <time>2026-02-02T06:54:54Z</time>
      </trkpt>
      <trkpt lat="45.96546" lon="6.59848">
        <ele>1204.4</ele>
        <time>2026-02-02T06:54:55Z</time>
      </trkpt>
      <trkpt lat="45.96546" lon="6.59848">
        <ele>1204.5</ele>
        <time>2026-02-02T06:54:56Z</time>
      </trkpt>
      <trkpt lat="45.96546" lon="6.59848">
        <ele>1204.5</ele>
        <time>2026-02-02T06:54:57Z</time>
      </trkpt>
      <trkpt lat="45.96546" lon="6.59848">
        <ele>1204.6</ele>
        <time>2026-02-02T06:54:58Z</time>
      </trkpt>
      <trkpt lat="45.96545" lon="6.59847">
        <ele>1204.6</ele>
        <time>2026-02-02T06:54:59Z</time>
      </trkpt>
      <trkpt lat="45.96545" lon="6.59847">
        <ele>1204.6</ele>
        <time>2026-02-02T06:55:00Z</time>
      </trkpt>
      <trkpt lat="45.96545" lon="6.59847">
        <ele>1204.6</ele>
        <time>2026-02-02T06:55:01Z</time>
      </trkpt>
      <trkpt lat="45.96545" lon="6.59847">
        <ele>1204.6</ele>
        <time>2026-02-02T06:55:02Z</time>
      </trkpt>
      <trkpt lat="45.96545" lon="6.59847">
        <ele>1204.6</ele>
        <time>2026-02-02T06:55:03Z</time>
      </trkpt>
      <trkpt lat="45.96545" lon="6.59847">
        <ele>1204.6</ele>
        <time>2026-02-02T06:55:04Z</time>
      </trkpt>
      <trkpt lat="45.96546" lon="6.59847">
        <ele>1204.6</ele>
        <time>2026-02-02T06:55:05Z</time>
      </trkpt>
      <trkpt lat="45.96546" lon="6.59847">
        <ele>1204.6</ele>
        <time>2026-02-02T06:55:06Z</time>
      </trkpt>
      <trkpt lat="45.96546" lon="6.59847">
        <ele>1204.7</ele>
        <time>2026-02-02T06:55:07Z</time>
      </trkpt>
      <trkpt lat="45.96546" lon="6.59847">
        <ele>1204.7</ele>
        <time>2026-02-02T06:55:08Z</time>
      </trkpt>
      <trkpt lat="45.96546" lon="6.59847">
        <ele>1204.7</ele>
        <time>2026-02-02T06:55:09Z</time>
      </trkpt>
      <trkpt lat="45.96546" lon="6.59848">
        <ele>1204.7</ele>
        <time>2026-02-02T06:55:10Z</time>
      </trkpt>
      <trkpt lat="45.96546" lon="6.59848">
        <ele>1204.7</ele>
        <time>2026-02-02T06:55:11Z</time>
      </trkpt>
      <trkpt lat="45.96546" lon="6.59848">
        <ele>1204.7</ele>
        <time>2026-02-02T06:55:12Z</time>
      </trkpt>
      <trkpt lat="45.96546" lon="6.59848">
        <ele>1204.7</ele>
        <time>2026-02-02T06:55:13Z</time>
      </trkpt>
      <trkpt lat="45.96546" lon="6.59848">
        <ele>1204.7</ele>
        <time>2026-02-02T06:55:14Z</time>
      </trkpt>
      <trkpt lat="45.96546" lon="6.59848">
        <ele>1204.8</ele>
        <time>2026-02-02T06:55:15Z</time>
      </trkpt>
      <trkpt lat="45.96546" lon="6.59848">
        <ele>1204.8</ele>
        <time>2026-02-02T06:55:16Z</time>
      </trkpt>
      <trkpt lat="45.96546" lon="6.59848">
        <ele>1204.8</ele>
        <time>2026-02-02T06:55:17Z</time>
      </trkpt>
      <trkpt lat="45.96546" lon="6.59848">
        <ele>1204.8</ele>
        <time>2026-02-02T06:55:18Z</time>
      </trkpt>
      <trkpt lat="45.96546" lon="6.59848">
        <ele>1204.8</ele>
        <time>2026-02-02T06:55:19Z</time>
      </trkpt>
      <trkpt lat="45.96546" lon="6.59848">
        <ele>1204.8</ele>
        <time>2026-02-02T06:55:20Z</time>
      </trkpt>
      <trkpt lat="45.96546" lon="6.59848">
        <ele>1204.8</ele>
        <time>2026-02-02T06:55:21Z</time>
      </trkpt>
      <trkpt lat="45.96546" lon="6.59848">
        <ele>1204.8</ele>
        <time>2026-02-02T06:55:22Z</time>
      </trkpt>
      <trkpt lat="45.96546" lon="6.59848">
        <ele>1204.8</ele>
        <time>2026-02-02T06:55:23Z</time>
      </trkpt>
      <trkpt lat="45.96546" lon="6.59848">
        <ele>1204.8</ele>
        <time>2026-02-02T06:55:24Z</time>
      </trkpt>
      <trkpt lat="45.96546" lon="6.59848">
        <ele>1204.8</ele>
        <time>2026-02-02T06:55:25Z</time>
      </trkpt>
      <trkpt lat="45.96546" lon="6.59848">
        <ele>1204.8</ele>
        <time>2026-02-02T06:55:26Z</time>
      </trkpt>
      <trkpt lat="45.96546" lon="6.59848">
        <ele>1204.8</ele>
        <time>2026-02-02T06:55:27Z</time>
      </trkpt>
      <trkpt lat="45.96546" lon="6.59848">
        <ele>1204.8</ele>
        <time>2026-02-02T06:55:28Z</time>
      </trkpt>
      <trkpt lat="45.96546" lon="6.59848">
        <ele>1204.8</ele>
        <time>2026-02-02T06:55:29Z</time>
      </trkpt>
      <trkpt lat="45.96546" lon="6.59848">
        <ele>1204.8</ele>
        <time>2026-02-02T06:55:30Z</time>
      </trkpt>
      <trkpt lat="45.96546" lon="6.59848">
        <ele>1204.8</ele>
        <time>2026-02-02T06:55:31Z</time>
      </trkpt>
      <trkpt lat="45.96546" lon="6.59848">
        <ele>1204.8</ele>
        <time>2026-02-02T06:55:32Z</time>
      </trkpt>
      <trkpt lat="45.96546" lon="6.59848">
        <ele>1204.8</ele>
        <time>2026-02-02T06:55:33Z</time>
      </trkpt>
      <trkpt lat="45.96547" lon="6.59848">
        <ele>1205</ele>
        <time>2026-02-02T06:55:34Z</time>
      </trkpt>
      <trkpt lat="45.96549" lon="6.59847">
        <ele>1205.3</ele>
        <time>2026-02-02T06:55:35Z</time>
      </trkpt>
      <trkpt lat="45.96552" lon="6.59846">
        <ele>1205.7</ele>
        <time>2026-02-02T06:55:36Z</time>
      </trkpt>
      <trkpt lat="45.96553" lon="6.59846">
        <ele>1205.9</ele>
        <time>2026-02-02T06:55:37Z</time>
      </trkpt>
      <trkpt lat="45.96556" lon="6.59846">
        <ele>1206.3</ele>
        <time>2026-02-02T06:55:38Z</time>
      </trkpt>
      <trkpt lat="45.96557" lon="6.59846">
        <ele>1206.4</ele>
        <time>2026-02-02T06:55:39Z</time>
      </trkpt>
      <trkpt lat="45.96559" lon="6.59847">
        <ele>1206.7</ele>
        <time>2026-02-02T06:55:40Z</time>
      </trkpt>
      <trkpt lat="45.96559" lon="6.59847">
        <ele>1206.8</ele>
        <time>2026-02-02T06:55:41Z</time>
      </trkpt>
      <trkpt lat="45.9656" lon="6.59847">
        <ele>1206.9</ele>
        <time>2026-02-02T06:55:42Z</time>
      </trkpt>
      <trkpt lat="45.96561" lon="6.59847">
        <ele>1207</ele>
        <time>2026-02-02T06:55:43Z</time>
      </trkpt>
      <trkpt lat="45.96562" lon="6.59847">
        <ele>1207.3</ele>
        <time>2026-02-02T06:55:44Z</time>
      </trkpt>
      <trkpt lat="45.96564" lon="6.59848">
        <ele>1207.6</ele>
        <time>2026-02-02T06:55:45Z</time>
      </trkpt>
      <trkpt lat="45.96564" lon="6.59848">
        <ele>1207.6</ele>
        <time>2026-02-02T06:55:46Z</time>
      </trkpt>
      <trkpt lat="45.96565" lon="6.59848">
        <ele>1207.7</ele>
        <time>2026-02-02T06:55:47Z</time>
      </trkpt>
      <trkpt lat="45.96566" lon="6.59848">
        <ele>1208</ele>
        <time>2026-02-02T06:55:48Z</time>
      </trkpt>
      <trkpt lat="45.96567" lon="6.59848">
        <ele>1208.2</ele>
        <time>2026-02-02T06:55:49Z</time>
      </trkpt>
      <trkpt lat="45.96569" lon="6.59847">
        <ele>1208.5</ele>
        <time>2026-02-02T06:55:50Z</time>
      </trkpt>
      <trkpt lat="45.9657" lon="6.59847">
        <ele>1208.8</ele>
        <time>2026-02-02T06:55:51Z</time>
      </trkpt>
      <trkpt lat="45.96572" lon="6.59846">
        <ele>1209.2</ele>
        <time>2026-02-02T06:55:52Z</time>
      </trkpt>
      <trkpt lat="45.96573" lon="6.59846">
        <ele>1209.4</ele>
        <time>2026-02-02T06:55:53Z</time>
      </trkpt>
      <trkpt lat="45.96574" lon="6.59846">
        <ele>1209.6</ele>
        <time>2026-02-02T06:55:55Z</time>
      </trkpt>
      <trkpt lat="45.96575" lon="6.59846">
        <ele>1209.8</ele>
        <time>2026-02-02T06:55:56Z</time>
      </trkpt>
      <trkpt lat="45.96575" lon="6.59846">
        <ele>1210</ele>
        <time>2026-02-02T06:55:57Z</time>
      </trkpt>
      <trkpt lat="45.96576" lon="6.59845">
        <ele>1210.2</ele>
        <time>2026-02-02T06:55:58Z</time>
      </trkpt>
      <trkpt lat="45.96577" lon="6.59845">
        <ele>1210.4</ele>
        <time>2026-02-02T06:55:59Z</time>
      </trkpt>
      <trkpt lat="45.96578" lon="6.59845">
        <ele>1210.7</ele>
        <time>2026-02-02T06:56:00Z</time>
      </trkpt>
      <trkpt lat="45.9658" lon="6.59844">
        <ele>1211</ele>
        <time>2026-02-02T06:56:01Z</time>
      </trkpt>
      <trkpt lat="45.9658" lon="6.59846">
        <ele>1211.2</ele>
        <time>2026-02-02T06:56:02Z</time>
      </trkpt>
      <trkpt lat="45.96581" lon="6.59845">
        <ele>1211.5</ele>
        <time>2026-02-02T06:56:03Z</time>
      </trkpt>
      <trkpt lat="45.96583" lon="6.59845">
        <ele>1211.8</ele>
        <time>2026-02-02T06:56:04Z</time>
      </trkpt>
      <trkpt lat="45.96583" lon="6.59845">
        <ele>1212</ele>
        <time>2026-02-02T06:56:05Z</time>
      </trkpt>
      <trkpt lat="45.96584" lon="6.59844">
        <ele>1212.2</ele>
        <time>2026-02-02T06:56:06Z</time>
      </trkpt>
      <trkpt lat="45.96585" lon="6.59845">
        <ele>1212.4</ele>
        <time>2026-02-02T06:56:07Z</time>
      </trkpt>
      <trkpt lat="45.96586" lon="6.59844">
        <ele>1212.6</ele>
        <time>2026-02-02T06:56:08Z</time>
      </trkpt>
      <trkpt lat="45.96586" lon="6.59843">
        <ele>1212.8</ele>
        <time>2026-02-02T06:56:09Z</time>
      </trkpt>
      <trkpt lat="45.96587" lon="6.59843">
        <ele>1212.9</ele>
        <time>2026-02-02T06:56:10Z</time>
      </trkpt>
      <trkpt lat="45.96587" lon="6.59843">
        <ele>1213.1</ele>
        <time>2026-02-02T06:56:11Z</time>
      </trkpt>
      <trkpt lat="45.96588" lon="6.59843">
        <ele>1213.1</ele>
        <time>2026-02-02T06:56:12Z</time>
      </trkpt>
      <trkpt lat="45.96589" lon="6.59843">
        <ele>1213.4</ele>
        <time>2026-02-02T06:56:13Z</time>
      </trkpt>
      <trkpt lat="45.9659" lon="6.59842">
        <ele>1213.7</ele>
        <time>2026-02-02T06:56:14Z</time>
      </trkpt>
      <trkpt lat="45.96591" lon="6.59842">
        <ele>1213.9</ele>
        <time>2026-02-02T06:56:15Z</time>
      </trkpt>
      <trkpt lat="45.96592" lon="6.59843">
        <ele>1214.2</ele>
        <time>2026-02-02T06:56:16Z</time>
      </trkpt>
      <trkpt lat="45.96593" lon="6.59843">
        <ele>1214.4</ele>
        <time>2026-02-02T06:56:17Z</time>
      </trkpt>
      <trkpt lat="45.96594" lon="6.59843">
        <ele>1214.6</ele>
        <time>2026-02-02T06:56:18Z</time>
      </trkpt>
      <trkpt lat="45.96595" lon="6.59843">
        <ele>1215</ele>
        <time>2026-02-02T06:56:19Z</time>
      </trkpt>
      <trkpt lat="45.96596" lon="6.59844">
        <ele>1215.2</ele>
        <time>2026-02-02T06:56:20Z</time>
      </trkpt>
      <trkpt lat="45.96597" lon="6.59845">
        <ele>1215.4</ele>
        <time>2026-02-02T06:56:21Z</time>
      </trkpt>
      <trkpt lat="45.96598" lon="6.59844">
        <ele>1215.7</ele>
        <time>2026-02-02T06:56:22Z</time>
      </trkpt>
      <trkpt lat="45.96599" lon="6.59844">
        <ele>1215.9</ele>
        <time>2026-02-02T06:56:23Z</time>
      </trkpt>
      <trkpt lat="45.96599" lon="6.59844">
        <ele>1216</ele>
        <time>2026-02-02T06:56:24Z</time>
      </trkpt>
      <trkpt lat="45.966" lon="6.59844">
        <ele>1216.2</ele>
        <time>2026-02-02T06:56:25Z</time>
      </trkpt>
      <trkpt lat="45.96601" lon="6.59844">
        <ele>1216.5</ele>
        <time>2026-02-02T06:56:26Z</time>
      </trkpt>
      <trkpt lat="45.96602" lon="6.59844">
        <ele>1216.7</ele>
        <time>2026-02-02T06:56:27Z</time>
      </trkpt>
      <trkpt lat="45.96603" lon="6.59845">
        <ele>1216.9</ele>
        <time>2026-02-02T06:56:28Z</time>
      </trkpt>
      <trkpt lat="45.96604" lon="6.59844">
        <ele>1217.2</ele>
        <time>2026-02-02T06:56:29Z</time>
      </trkpt>
      <trkpt lat="45.96605" lon="6.59844">
        <ele>1217.4</ele>
        <time>2026-02-02T06:56:30Z</time>
      </trkpt>
      <trkpt lat="45.96606" lon="6.59845">
        <ele>1217.6</ele>
        <time>2026-02-02T06:56:31Z</time>
      </trkpt>
      <trkpt lat="45.96606" lon="6.59844">
        <ele>1217.7</ele>
        <time>2026-02-02T06:56:32Z</time>
      </trkpt>
      <trkpt lat="45.96607" lon="6.59845">
        <ele>1217.9</ele>
        <time>2026-02-02T06:56:33Z</time>
      </trkpt>
      <trkpt lat="45.96609" lon="6.59843">
        <ele>1218.3</ele>
        <time>2026-02-02T06:56:34Z</time>
      </trkpt>
      <trkpt lat="45.96609" lon="6.59842">
        <ele>1218.6</ele>
        <time>2026-02-02T06:56:35Z</time>
      </trkpt>
      <trkpt lat="45.9661" lon="6.59841">
        <ele>1218.8</ele>
        <time>2026-02-02T06:56:36Z</time>
      </trkpt>
      <trkpt lat="45.96612" lon="6.5984">
        <ele>1219.3</ele>
        <time>2026-02-02T06:56:37Z</time>
      </trkpt>
      <trkpt lat="45.96613" lon="6.5984">
        <ele>1219.4</ele>
        <time>2026-02-02T06:56:38Z</time>
      </trkpt>
      <trkpt lat="45.96614" lon="6.59839">
        <ele>1219.6</ele>
        <time>2026-02-02T06:56:39Z</time>
      </trkpt>
      <trkpt lat="45.96615" lon="6.59839">
        <ele>1219.9</ele>
        <time>2026-02-02T06:56:40Z</time>
      </trkpt>
      <trkpt lat="45.96615" lon="6.5984">
        <ele>1220</ele>
        <time>2026-02-02T06:56:41Z</time>
      </trkpt>
      <trkpt lat="45.96616" lon="6.59839">
        <ele>1220.2</ele>
        <time>2026-02-02T06:56:42Z</time>
      </trkpt>
      <trkpt lat="45.96616" lon="6.5984">
        <ele>1220.3</ele>
        <time>2026-02-02T06:56:43Z</time>
      </trkpt>
      <trkpt lat="45.96617" lon="6.5984">
        <ele>1220.6</ele>
        <time>2026-02-02T06:56:44Z</time>
      </trkpt>
      <trkpt lat="45.96618" lon="6.5984">
        <ele>1220.7</ele>
        <time>2026-02-02T06:56:45Z</time>
      </trkpt>
      <trkpt lat="45.96619" lon="6.5984">
        <ele>1220.8</ele>
        <time>2026-02-02T06:56:46Z</time>
      </trkpt>
      <trkpt lat="45.96619" lon="6.5984">
        <ele>1221</ele>
        <time>2026-02-02T06:56:47Z</time>
      </trkpt>
      <trkpt lat="45.9662" lon="6.59839">
        <ele>1221.1</ele>
        <time>2026-02-02T06:56:48Z</time>
      </trkpt>
      <trkpt lat="45.9662" lon="6.59839">
        <ele>1221.2</ele>
        <time>2026-02-02T06:56:49Z</time>
      </trkpt>
      <trkpt lat="45.96621" lon="6.59838">
        <ele>1221.6</ele>
        <time>2026-02-02T06:56:50Z</time>
      </trkpt>
      <trkpt lat="45.96622" lon="6.59837">
        <ele>1221.7</ele>
        <time>2026-02-02T06:56:51Z</time>
      </trkpt>
      <trkpt lat="45.96622" lon="6.59838">
        <ele>1221.8</ele>
        <time>2026-02-02T06:56:52Z</time>
      </trkpt>
      <trkpt lat="45.96623" lon="6.59838">
        <ele>1222</ele>
        <time>2026-02-02T06:56:53Z</time>
      </trkpt>
      <trkpt lat="45.96625" lon="6.59837">
        <ele>1222.4</ele>
        <time>2026-02-02T06:56:54Z</time>
      </trkpt>
      <trkpt lat="45.96626" lon="6.59837">
        <ele>1222.6</ele>
        <time>2026-02-02T06:56:55Z</time>
      </trkpt>
      <trkpt lat="45.96626" lon="6.59837">
        <ele>1222.8</ele>
        <time>2026-02-02T06:56:56Z</time>
      </trkpt>
      <trkpt lat="45.96628" lon="6.59837">
        <ele>1223.1</ele>
        <time>2026-02-02T06:56:57Z</time>
      </trkpt>
      <trkpt lat="45.96628" lon="6.59836">
        <ele>1223.3</ele>
        <time>2026-02-02T06:56:58Z</time>
      </trkpt>
      <trkpt lat="45.96629" lon="6.59836">
        <ele>1223.5</ele>
        <time>2026-02-02T06:56:59Z</time>
      </trkpt>
      <trkpt lat="45.9663" lon="6.59836">
        <ele>1223.6</ele>
        <time>2026-02-02T06:57:00Z</time>
      </trkpt>
      <trkpt lat="45.9663" lon="6.59836">
        <ele>1223.7</ele>
        <time>2026-02-02T06:57:01Z</time>
      </trkpt>
      <trkpt lat="45.96631" lon="6.59835">
        <ele>1224</ele>
        <time>2026-02-02T06:57:02Z</time>
      </trkpt>
      <trkpt lat="45.96632" lon="6.59835">
        <ele>1224.2</ele>
        <time>2026-02-02T06:57:03Z</time>
      </trkpt>
      <trkpt lat="45.96633" lon="6.59833">
        <ele>1224.6</ele>
        <time>2026-02-02T06:57:04Z</time>
      </trkpt>
      <trkpt lat="45.96634" lon="6.59833">
        <ele>1224.7</ele>
        <time>2026-02-02T06:57:05Z</time>
      </trkpt>
      <trkpt lat="45.96635" lon="6.59833">
        <ele>1225</ele>
        <time>2026-02-02T06:57:06Z</time>
      </trkpt>
      <trkpt lat="45.96635" lon="6.59834">
        <ele>1225.1</ele>
        <time>2026-02-02T06:57:07Z</time>
      </trkpt>
      <trkpt lat="45.96636" lon="6.59834">
        <ele>1225.3</ele>
        <time>2026-02-02T06:57:08Z</time>
      </trkpt>
      <trkpt lat="45.96637" lon="6.59834">
        <ele>1225.5</ele>
        <time>2026-02-02T06:57:09Z</time>
      </trkpt>
      <trkpt lat="45.96638" lon="6.59833">
        <ele>1225.7</ele>
        <time>2026-02-02T06:57:10Z</time>
      </trkpt>
      <trkpt lat="45.96639" lon="6.59832">
        <ele>1226</ele>
        <time>2026-02-02T06:57:11Z</time>
      </trkpt>
      <trkpt lat="45.9664" lon="6.59831">
        <ele>1226.3</ele>
        <time>2026-02-02T06:57:12Z</time>
      </trkpt>
      <trkpt lat="45.96641" lon="6.59831">
        <ele>1226.5</ele>
        <time>2026-02-02T06:57:13Z</time>
      </trkpt>
      <trkpt lat="45.96642" lon="6.5983">
        <ele>1226.7</ele>
        <time>2026-02-02T06:57:14Z</time>
      </trkpt>
      <trkpt lat="45.96642" lon="6.5983">
        <ele>1226.9</ele>
        <time>2026-02-02T06:57:15Z</time>
      </trkpt>
      <trkpt lat="45.96644" lon="6.59829">
        <ele>1227.2</ele>
        <time>2026-02-02T06:57:16Z</time>
      </trkpt>
      <trkpt lat="45.96644" lon="6.59829">
        <ele>1227.4</ele>
        <time>2026-02-02T06:57:17Z</time>
      </trkpt>
      <trkpt lat="45.96645" lon="6.59829">
        <ele>1227.6</ele>
        <time>2026-02-02T06:57:18Z</time>
      </trkpt>
      <trkpt lat="45.96646" lon="6.59828">
        <ele>1227.8</ele>
        <time>2026-02-02T06:57:19Z</time>
      </trkpt>
      <trkpt lat="45.96647" lon="6.59828">
        <ele>1228</ele>
        <time>2026-02-02T06:57:20Z</time>
      </trkpt>
      <trkpt lat="45.96648" lon="6.59827">
        <ele>1228.2</ele>
        <time>2026-02-02T06:57:21Z</time>
      </trkpt>
      <trkpt lat="45.96648" lon="6.59825">
        <ele>1228.5</ele>
        <time>2026-02-02T06:57:22Z</time>
      </trkpt>
      <trkpt lat="45.9665" lon="6.59825">
        <ele>1228.8</ele>
        <time>2026-02-02T06:57:23Z</time>
      </trkpt>
      <trkpt lat="45.96651" lon="6.59825">
        <ele>1229.1</ele>
        <time>2026-02-02T06:57:24Z</time>
      </trkpt>
      <trkpt lat="45.96652" lon="6.59825">
        <ele>1229.3</ele>
        <time>2026-02-02T06:57:25Z</time>
      </trkpt>
      <trkpt lat="45.96653" lon="6.59825">
        <ele>1229.4</ele>
        <time>2026-02-02T06:57:26Z</time>
      </trkpt>
      <trkpt lat="45.96654" lon="6.59825">
        <ele>1229.6</ele>
        <time>2026-02-02T06:57:27Z</time>
      </trkpt>
      <trkpt lat="45.96655" lon="6.59824">
        <ele>1229.8</ele>
        <time>2026-02-02T06:57:28Z</time>
      </trkpt>
      <trkpt lat="45.96655" lon="6.59824">
        <ele>1230</ele>
        <time>2026-02-02T06:57:29Z</time>
      </trkpt>
      <trkpt lat="45.96656" lon="6.59823">
        <ele>1230.3</ele>
        <time>2026-02-02T06:57:30Z</time>
      </trkpt>
      <trkpt lat="45.96658" lon="6.59821">
        <ele>1230.6</ele>
        <time>2026-02-02T06:57:31Z</time>
      </trkpt>
      <trkpt lat="45.96658" lon="6.59821">
        <ele>1230.8</ele>
        <time>2026-02-02T06:57:32Z</time>
      </trkpt>
      <trkpt lat="45.96659" lon="6.5982">
        <ele>1230.9</ele>
        <time>2026-02-02T06:57:33Z</time>
      </trkpt>
      <trkpt lat="45.96659" lon="6.5982">
        <ele>1231</ele>
        <time>2026-02-02T06:57:34Z</time>
      </trkpt>
      <trkpt lat="45.9666" lon="6.59819">
        <ele>1231.2</ele>
        <time>2026-02-02T06:57:35Z</time>
      </trkpt>
      <trkpt lat="45.96661" lon="6.59818">
        <ele>1231.4</ele>
        <time>2026-02-02T06:57:36Z</time>
      </trkpt>
      <trkpt lat="45.96662" lon="6.59817">
        <ele>1231.6</ele>
        <time>2026-02-02T06:57:37Z</time>
      </trkpt>
      <trkpt lat="45.96663" lon="6.59817">
        <ele>1231.9</ele>
        <time>2026-02-02T06:57:38Z</time>
      </trkpt>
      <trkpt lat="45.96663" lon="6.59817">
        <ele>1231.9</ele>
        <time>2026-02-02T06:57:39Z</time>
      </trkpt>
      <trkpt lat="45.96663" lon="6.59816">
        <ele>1232.1</ele>
        <time>2026-02-02T06:57:40Z</time>
      </trkpt>
      <trkpt lat="45.96664" lon="6.59816">
        <ele>1232.3</ele>
        <time>2026-02-02T06:57:41Z</time>
      </trkpt>
      <trkpt lat="45.96665" lon="6.59816">
        <ele>1232.4</ele>
        <time>2026-02-02T06:57:42Z</time>
      </trkpt>
      <trkpt lat="45.96666" lon="6.59815">
        <ele>1232.6</ele>
        <time>2026-02-02T06:57:43Z</time>
      </trkpt>
      <trkpt lat="45.96667" lon="6.59814">
        <ele>1232.8</ele>
        <time>2026-02-02T06:57:44Z</time>
      </trkpt>
      <trkpt lat="45.96667" lon="6.59813">
        <ele>1233</ele>
        <time>2026-02-02T06:57:45Z</time>
      </trkpt>
      <trkpt lat="45.96668" lon="6.59814">
        <ele>1233.2</ele>
        <time>2026-02-02T06:57:46Z</time>
      </trkpt>
      <trkpt lat="45.96669" lon="6.59814">
        <ele>1233.3</ele>
        <time>2026-02-02T06:57:47Z</time>
      </trkpt>
      <trkpt lat="45.96669" lon="6.59813">
        <ele>1233.5</ele>
        <time>2026-02-02T06:57:48Z</time>
      </trkpt>
      <trkpt lat="45.96671" lon="6.59813">
        <ele>1233.8</ele>
        <time>2026-02-02T06:57:49Z</time>
      </trkpt>
      <trkpt lat="45.96672" lon="6.59813">
        <ele>1234</ele>
        <time>2026-02-02T06:57:50Z</time>
      </trkpt>
      <trkpt lat="45.96672" lon="6.59814">
        <ele>1234.2</ele>
        <time>2026-02-02T06:57:51Z</time>
      </trkpt>
      <trkpt lat="45.96674" lon="6.59813">
        <ele>1234.5</ele>
        <time>2026-02-02T06:57:52Z</time>
      </trkpt>
      <trkpt lat="45.96674" lon="6.59812">
        <ele>1234.7</ele>
        <time>2026-02-02T06:57:53Z</time>
      </trkpt>
      <trkpt lat="45.96676" lon="6.5981">
        <ele>1235.2</ele>
        <time>2026-02-02T06:57:54Z</time>
      </trkpt>
      <trkpt lat="45.96676" lon="6.59809">
        <ele>1235.4</ele>
        <time>2026-02-02T06:57:55Z</time>
      </trkpt>
      <trkpt lat="45.96677" lon="6.59808">
        <ele>1235.6</ele>
        <time>2026-02-02T06:57:56Z</time>
      </trkpt>
      <trkpt lat="45.96678" lon="6.59807">
        <ele>1235.8</ele>
        <time>2026-02-02T06:57:57Z</time>
      </trkpt>
      <trkpt lat="45.96679" lon="6.59806">
        <ele>1236.2</ele>
        <time>2026-02-02T06:57:58Z</time>
      </trkpt>
      <trkpt lat="45.96679" lon="6.59805">
        <ele>1236.4</ele>
        <time>2026-02-02T06:57:59Z</time>
      </trkpt>
      <trkpt lat="45.9668" lon="6.59804">
        <ele>1236.6</ele>
        <time>2026-02-02T06:58:00Z</time>
      </trkpt>
      <trkpt lat="45.96681" lon="6.59804">
        <ele>1236.8</ele>
        <time>2026-02-02T06:58:01Z</time>
      </trkpt>
      <trkpt lat="45.96682" lon="6.59804">
        <ele>1237</ele>
        <time>2026-02-02T06:58:02Z</time>
      </trkpt>
      <trkpt lat="45.96682" lon="6.59803">
        <ele>1237.1</ele>
        <time>2026-02-02T06:58:03Z</time>
      </trkpt>
      <trkpt lat="45.96683" lon="6.59803">
        <ele>1237.4</ele>
        <time>2026-02-02T06:58:04Z</time>
      </trkpt>
      <trkpt lat="45.96684" lon="6.59803">
        <ele>1237.6</ele>
        <time>2026-02-02T06:58:05Z</time>
      </trkpt>
      <trkpt lat="45.96685" lon="6.59802">
        <ele>1237.7</ele>
        <time>2026-02-02T06:58:06Z</time>
      </trkpt>
      <trkpt lat="45.96685" lon="6.59802">
        <ele>1237.8</ele>
        <time>2026-02-02T06:58:07Z</time>
      </trkpt>
      <trkpt lat="45.96686" lon="6.59802">
        <ele>1238.1</ele>
        <time>2026-02-02T06:58:08Z</time>
      </trkpt>
      <trkpt lat="45.96687" lon="6.59802">
        <ele>1238.4</ele>
        <time>2026-02-02T06:58:09Z</time>
      </trkpt>
      <trkpt lat="45.96688" lon="6.59803">
        <ele>1238.5</ele>
        <time>2026-02-02T06:58:10Z</time>
      </trkpt>
      <trkpt lat="45.9669" lon="6.59803">
        <ele>1238.9</ele>
        <time>2026-02-02T06:58:11Z</time>
      </trkpt>
      <trkpt lat="45.9669" lon="6.59802">
        <ele>1239.1</ele>
        <time>2026-02-02T06:58:12Z</time>
      </trkpt>
      <trkpt lat="45.96691" lon="6.59802">
        <ele>1239.3</ele>
        <time>2026-02-02T06:58:13Z</time>
      </trkpt>
      <trkpt lat="45.96692" lon="6.59801">
        <ele>1239.5</ele>
        <time>2026-02-02T06:58:14Z</time>
      </trkpt>
      <trkpt lat="45.96693" lon="6.598">
        <ele>1239.8</ele>
        <time>2026-02-02T06:58:15Z</time>
      </trkpt>
      <trkpt lat="45.96694" lon="6.598">
        <ele>1240.1</ele>
        <time>2026-02-02T06:58:16Z</time>
      </trkpt>
      <trkpt lat="45.96695" lon="6.59799">
        <ele>1240.3</ele>
        <time>2026-02-02T06:58:17Z</time>
      </trkpt>
      <trkpt lat="45.96695" lon="6.59798">
        <ele>1240.5</ele>
        <time>2026-02-02T06:58:18Z</time>
      </trkpt>
      <trkpt lat="45.96695" lon="6.59798">
        <ele>1240.7</ele>
        <time>2026-02-02T06:58:19Z</time>
      </trkpt>
      <trkpt lat="45.96696" lon="6.59797">
        <ele>1240.9</ele>
        <time>2026-02-02T06:58:20Z</time>
      </trkpt>
      <trkpt lat="45.96697" lon="6.59795">
        <ele>1241.2</ele>
        <time>2026-02-02T06:58:21Z</time>
      </trkpt>
      <trkpt lat="45.96697" lon="6.59794">
        <ele>1241.5</ele>
        <time>2026-02-02T06:58:22Z</time>
      </trkpt>
      <trkpt lat="45.96697" lon="6.59792">
        <ele>1241.8</ele>
        <time>2026-02-02T06:58:23Z</time>
      </trkpt>
      <trkpt lat="45.96697" lon="6.5979">
        <ele>1242.1</ele>
        <time>2026-02-02T06:58:24Z</time>
      </trkpt>
      <trkpt lat="45.96698" lon="6.5979">
        <ele>1242.2</ele>
        <time>2026-02-02T06:58:25Z</time>
      </trkpt>
      <trkpt lat="45.96697" lon="6.59788">
        <ele>1242.5</ele>
        <time>2026-02-02T06:58:26Z</time>
      </trkpt>
      <trkpt lat="45.96697" lon="6.59787">
        <ele>1242.8</ele>
        <time>2026-02-02T06:58:27Z</time>
      </trkpt>
      <trkpt lat="45.96696" lon="6.59785">
        <ele>1243</ele>
        <time>2026-02-02T06:58:28Z</time>
      </trkpt>
      <trkpt lat="45.96695" lon="6.59785">
        <ele>1243.3</ele>
        <time>2026-02-02T06:58:29Z</time>
      </trkpt>
      <trkpt lat="45.96695" lon="6.59784">
        <ele>1243.4</ele>
        <time>2026-02-02T06:58:30Z</time>
      </trkpt>
      <trkpt lat="45.96694" lon="6.59783">
        <ele>1243.7</ele>
        <time>2026-02-02T06:58:31Z</time>
      </trkpt>
      <trkpt lat="45.96693" lon="6.59783">
        <ele>1243.9</ele>
        <time>2026-02-02T06:58:32Z</time>
      </trkpt>
      <trkpt lat="45.96692" lon="6.59783">
        <ele>1244.1</ele>
        <time>2026-02-02T06:58:33Z</time>
      </trkpt>
      <trkpt lat="45.96691" lon="6.59783">
        <ele>1244.5</ele>
        <time>2026-02-02T06:58:34Z</time>
      </trkpt>
      <trkpt lat="45.96689" lon="6.59783">
        <ele>1244.8</ele>
        <time>2026-02-02T06:58:35Z</time>
      </trkpt>
      <trkpt lat="45.96687" lon="6.59784">
        <ele>1245.3</ele>
        <time>2026-02-02T06:58:36Z</time>
      </trkpt>
      <trkpt lat="45.96687" lon="6.59784">
        <ele>1245.4</ele>
        <time>2026-02-02T06:58:37Z</time>
      </trkpt>
      <trkpt lat="45.96686" lon="6.59784">
        <ele>1245.7</ele>
        <time>2026-02-02T06:58:38Z</time>
      </trkpt>
      <trkpt lat="45.96685" lon="6.59783">
        <ele>1245.8</ele>
        <time>2026-02-02T06:58:39Z</time>
      </trkpt>
      <trkpt lat="45.96685" lon="6.59782">
        <ele>1246</ele>
        <time>2026-02-02T06:58:40Z</time>
      </trkpt>
      <trkpt lat="45.96684" lon="6.59782">
        <ele>1246.2</ele>
        <time>2026-02-02T06:58:41Z</time>
      </trkpt>
      <trkpt lat="45.96683" lon="6.59782">
        <ele>1246.4</ele>
        <time>2026-02-02T06:58:42Z</time>
      </trkpt>
      <trkpt lat="45.96682" lon="6.59781">
        <ele>1246.6</ele>
        <time>2026-02-02T06:58:43Z</time>
      </trkpt>
      <trkpt lat="45.96681" lon="6.59781">
        <ele>1246.8</ele>
        <time>2026-02-02T06:58:44Z</time>
      </trkpt>
      <trkpt lat="45.9668" lon="6.59781">
        <ele>1247</ele>
        <time>2026-02-02T06:58:45Z</time>
      </trkpt>
      <trkpt lat="45.9668" lon="6.59781">
        <ele>1247.2</ele>
        <time>2026-02-02T06:58:46Z</time>
      </trkpt>
      <trkpt lat="45.96679" lon="6.5978">
        <ele>1247.4</ele>
        <time>2026-02-02T06:58:47Z</time>
      </trkpt>
      <trkpt lat="45.96678" lon="6.5978">
        <ele>1247.6</ele>
        <time>2026-02-02T06:58:48Z</time>
      </trkpt>
      <trkpt lat="45.96677" lon="6.59779">
        <ele>1247.8</ele>
        <time>2026-02-02T06:58:49Z</time>
      </trkpt>
      <trkpt lat="45.96676" lon="6.5978">
        <ele>1248</ele>
        <time>2026-02-02T06:58:50Z</time>
      </trkpt>
      <trkpt lat="45.96675" lon="6.59779">
        <ele>1248.3</ele>
        <time>2026-02-02T06:58:51Z</time>
      </trkpt>
      <trkpt lat="45.96674" lon="6.59779">
        <ele>1248.6</ele>
        <time>2026-02-02T06:58:52Z</time>
      </trkpt>
      <trkpt lat="45.96673" lon="6.59777">
        <ele>1248.9</ele>
        <time>2026-02-02T06:58:53Z</time>
      </trkpt>
      <trkpt lat="45.96672" lon="6.59777">
        <ele>1249</ele>
        <time>2026-02-02T06:58:54Z</time>
      </trkpt>
      <trkpt lat="45.96671" lon="6.59777">
        <ele>1249.2</ele>
        <time>2026-02-02T06:58:55Z</time>
      </trkpt>
      <trkpt lat="45.96671" lon="6.59776">
        <ele>1249.4</ele>
        <time>2026-02-02T06:58:56Z</time>
      </trkpt>
      <trkpt lat="45.9667" lon="6.59777">
        <ele>1249.6</ele>
        <time>2026-02-02T06:58:57Z</time>
      </trkpt>
      <trkpt lat="45.9667" lon="6.59776">
        <ele>1249.7</ele>
        <time>2026-02-02T06:58:58Z</time>
      </trkpt>
      <trkpt lat="45.96669" lon="6.59776">
        <ele>1249.9</ele>
        <time>2026-02-02T06:58:59Z</time>
      </trkpt>
      <trkpt lat="45.96668" lon="6.59776">
        <ele>1250.1</ele>
        <time>2026-02-02T06:59:00Z</time>
      </trkpt>
      <trkpt lat="45.96667" lon="6.59775">
        <ele>1250.4</ele>
        <time>2026-02-02T06:59:01Z</time>
      </trkpt>
      <trkpt lat="45.96666" lon="6.59774">
        <ele>1250.7</ele>
        <time>2026-02-02T06:59:02Z</time>
      </trkpt>
      <trkpt lat="45.96665" lon="6.59774">
        <ele>1250.9</ele>
        <time>2026-02-02T06:59:03Z</time>
      </trkpt>
      <trkpt lat="45.96664" lon="6.59773">
        <ele>1251.1</ele>
        <time>2026-02-02T06:59:04Z</time>
      </trkpt>
      <trkpt lat="45.96664" lon="6.59772">
        <ele>1251.2</ele>
        <time>2026-02-02T06:59:05Z</time>
      </trkpt>
      <trkpt lat="45.96664" lon="6.59772">
        <ele>1251.4</ele>
        <time>2026-02-02T06:59:06Z</time>
      </trkpt>
      <trkpt lat="45.96663" lon="6.59772">
        <ele>1251.5</ele>
        <time>2026-02-02T06:59:07Z</time>
      </trkpt>
      <trkpt lat="45.96662" lon="6.59772">
        <ele>1251.7</ele>
        <time>2026-02-02T06:59:08Z</time>
      </trkpt>
      <trkpt lat="45.96661" lon="6.59771">
        <ele>1251.9</ele>
        <time>2026-02-02T06:59:09Z</time>
      </trkpt>
      <trkpt lat="45.96661" lon="6.59771">
        <ele>1252</ele>
        <time>2026-02-02T06:59:10Z</time>
      </trkpt>
      <trkpt lat="45.9666" lon="6.5977">
        <ele>1252.2</ele>
        <time>2026-02-02T06:59:11Z</time>
      </trkpt>
      <trkpt lat="45.96659" lon="6.5977">
        <ele>1252.4</ele>
        <time>2026-02-02T06:59:12Z</time>
      </trkpt>
      <trkpt lat="45.96659" lon="6.59769">
        <ele>1252.5</ele>
        <time>2026-02-02T06:59:13Z</time>
      </trkpt>
      <trkpt lat="45.96657" lon="6.59768">
        <ele>1253</ele>
        <time>2026-02-02T06:59:14Z</time>
      </trkpt>
      <trkpt lat="45.96656" lon="6.59767">
        <ele>1253.2</ele>
        <time>2026-02-02T06:59:15Z</time>
      </trkpt>
      <trkpt lat="45.96655" lon="6.59767">
        <ele>1253.3</ele>
        <time>2026-02-02T06:59:16Z</time>
      </trkpt>
      <trkpt lat="45.96654" lon="6.59766">
        <ele>1253.6</ele>
        <time>2026-02-02T06:59:17Z</time>
      </trkpt>
      <trkpt lat="45.96653" lon="6.59766">
        <ele>1253.8</ele>
        <time>2026-02-02T06:59:18Z</time>
      </trkpt>
      <trkpt lat="45.96652" lon="6.59765">
        <ele>1254.1</ele>
        <time>2026-02-02T06:59:19Z</time>
      </trkpt>
      <trkpt lat="45.96652" lon="6.59764">
        <ele>1254.2</ele>
        <time>2026-02-02T06:59:20Z</time>
      </trkpt>
      <trkpt lat="45.96651" lon="6.59764">
        <ele>1254.4</ele>
        <time>2026-02-02T06:59:21Z</time>
      </trkpt>
      <trkpt lat="45.9665" lon="6.59763">
        <ele>1254.6</ele>
        <time>2026-02-02T06:59:22Z</time>
      </trkpt>
      <trkpt lat="45.96649" lon="6.59763">
        <ele>1254.8</ele>
        <time>2026-02-02T06:59:23Z</time>
      </trkpt>
      <trkpt lat="45.96649" lon="6.59762">
        <ele>1254.9</ele>
        <time>2026-02-02T06:59:24Z</time>
      </trkpt>
      <trkpt lat="45.96649" lon="6.59762">
        <ele>1255</ele>
        <time>2026-02-02T06:59:25Z</time>
      </trkpt>
      <trkpt lat="45.96648" lon="6.59762">
        <ele>1255.1</ele>
        <time>2026-02-02T06:59:26Z</time>
      </trkpt>
      <trkpt lat="45.96647" lon="6.59762">
        <ele>1255.4</ele>
        <time>2026-02-02T06:59:27Z</time>
      </trkpt>
      <trkpt lat="45.96646" lon="6.59761">
        <ele>1255.5</ele>
        <time>2026-02-02T06:59:28Z</time>
      </trkpt>
      <trkpt lat="45.96645" lon="6.59761">
        <ele>1255.8</ele>
        <time>2026-02-02T06:59:29Z</time>
      </trkpt>
      <trkpt lat="45.96644" lon="6.59761">
        <ele>1255.9</ele>
        <time>2026-02-02T06:59:30Z</time>
      </trkpt>
      <trkpt lat="45.96644" lon="6.59761">
        <ele>1256.1</ele>
        <time>2026-02-02T06:59:31Z</time>
      </trkpt>
      <trkpt lat="45.96643" lon="6.5976">
        <ele>1256.2</ele>
        <time>2026-02-02T06:59:32Z</time>
      </trkpt>
      <trkpt lat="45.96642" lon="6.5976">
        <ele>1256.4</ele>
        <time>2026-02-02T06:59:33Z</time>
      </trkpt>
      <trkpt lat="45.96642" lon="6.5976">
        <ele>1256.5</ele>
        <time>2026-02-02T06:59:34Z</time>
      </trkpt>
      <trkpt lat="45.96641" lon="6.59759">
        <ele>1256.6</ele>
        <time>2026-02-02T06:59:35Z</time>
      </trkpt>
      <trkpt lat="45.9664" lon="6.59759">
        <ele>1256.8</ele>
        <time>2026-02-02T06:59:36Z</time>
      </trkpt>
      <trkpt lat="45.9664" lon="6.59758">
        <ele>1257</ele>
        <time>2026-02-02T06:59:37Z</time>
      </trkpt>
      <trkpt lat="45.96638" lon="6.59758">
        <ele>1257.3</ele>
        <time>2026-02-02T06:59:38Z</time>
      </trkpt>
      <trkpt lat="45.96638" lon="6.59757">
        <ele>1257.5</ele>
        <time>2026-02-02T06:59:39Z</time>
      </trkpt>
      <trkpt lat="45.96637" lon="6.59756">
        <ele>1257.6</ele>
        <time>2026-02-02T06:59:40Z</time>
      </trkpt>
      <trkpt lat="45.96636" lon="6.59757">
        <ele>1257.8</ele>
        <time>2026-02-02T06:59:41Z</time>
      </trkpt>
      <trkpt lat="45.96635" lon="6.59757">
        <ele>1258</ele>
        <time>2026-02-02T06:59:42Z</time>
      </trkpt>
      <trkpt lat="45.96634" lon="6.59756">
        <ele>1258.1</ele>
        <time>2026-02-02T06:59:43Z</time>
      </trkpt>
      <trkpt lat="45.96634" lon="6.59756">
        <ele>1258.2</ele>
        <time>2026-02-02T06:59:44Z</time>
      </trkpt>
      <trkpt lat="45.96633" lon="6.59756">
        <ele>1258.4</ele>
        <time>2026-02-02T06:59:45Z</time>
      </trkpt>
      <trkpt lat="45.96632" lon="6.59756">
        <ele>1258.6</ele>
        <time>2026-02-02T06:59:46Z</time>
      </trkpt>
      <trkpt lat="45.96632" lon="6.59755">
        <ele>1258.8</ele>
        <time>2026-02-02T06:59:47Z</time>
      </trkpt>
      <trkpt lat="45.96631" lon="6.59753">
        <ele>1258.9</ele>
        <time>2026-02-02T06:59:48Z</time>
      </trkpt>
      <trkpt lat="45.9663" lon="6.59753">
        <ele>1259.1</ele>
        <time>2026-02-02T06:59:49Z</time>
      </trkpt>
      <trkpt lat="45.96629" lon="6.59753">
        <ele>1259.3</ele>
        <time>2026-02-02T06:59:50Z</time>
      </trkpt>
      <trkpt lat="45.96628" lon="6.59753">
        <ele>1259.5</ele>
        <time>2026-02-02T06:59:51Z</time>
      </trkpt>
      <trkpt lat="45.96628" lon="6.59752">
        <ele>1259.6</ele>
        <time>2026-02-02T06:59:52Z</time>
      </trkpt>
      <trkpt lat="45.96627" lon="6.59751">
        <ele>1259.9</ele>
        <time>2026-02-02T06:59:53Z</time>
      </trkpt>
      <trkpt lat="45.96625" lon="6.59751">
        <ele>1260.2</ele>
        <time>2026-02-02T06:59:54Z</time>
      </trkpt>
      <trkpt lat="45.96625" lon="6.5975">
        <ele>1260.3</ele>
        <time>2026-02-02T06:59:55Z</time>
      </trkpt>
      <trkpt lat="45.96624" lon="6.5975">
        <ele>1260.4</ele>
        <time>2026-02-02T06:59:56Z</time>
      </trkpt>
      <trkpt lat="45.96623" lon="6.59749">
        <ele>1260.5</ele>
        <time>2026-02-02T06:59:57Z</time>
      </trkpt>
      <trkpt lat="45.96622" lon="6.59747">
        <ele>1260.9</ele>
        <time>2026-02-02T06:59:58Z</time>
      </trkpt>
      <trkpt lat="45.96621" lon="6.59747">
        <ele>1261.1</ele>
        <time>2026-02-02T06:59:59Z</time>
      </trkpt>
      <trkpt lat="45.96621" lon="6.59746">
        <ele>1261.2</ele>
        <time>2026-02-02T07:00:00Z</time>
      </trkpt>
      <trkpt lat="45.9662" lon="6.59744">
        <ele>1261.4</ele>
        <time>2026-02-02T07:00:01Z</time>
      </trkpt>
      <trkpt lat="45.96618" lon="6.59743">
        <ele>1261.8</ele>
        <time>2026-02-02T07:00:02Z</time>
      </trkpt>
      <trkpt lat="45.96618" lon="6.59741">
        <ele>1262.1</ele>
        <time>2026-02-02T07:00:03Z</time>
      </trkpt>
      <trkpt lat="45.96617" lon="6.5974">
        <ele>1262.3</ele>
        <time>2026-02-02T07:00:04Z</time>
      </trkpt>
      <trkpt lat="45.96617" lon="6.59738">
        <ele>1262.4</ele>
        <time>2026-02-02T07:00:05Z</time>
      </trkpt>
      <trkpt lat="45.96616" lon="6.59737">
        <ele>1262.7</ele>
        <time>2026-02-02T07:00:06Z</time>
      </trkpt>
      <trkpt lat="45.96615" lon="6.59736">
        <ele>1262.8</ele>
        <time>2026-02-02T07:00:07Z</time>
      </trkpt>
      <trkpt lat="45.96615" lon="6.59735">
        <ele>1263</ele>
        <time>2026-02-02T07:00:08Z</time>
      </trkpt>
      <trkpt lat="45.96615" lon="6.59734">
        <ele>1263.2</ele>
        <time>2026-02-02T07:00:09Z</time>
      </trkpt>
      <trkpt lat="45.96614" lon="6.59732">
        <ele>1263.3</ele>
        <time>2026-02-02T07:00:10Z</time>
      </trkpt>
      <trkpt lat="45.96614" lon="6.59731">
        <ele>1263.5</ele>
        <time>2026-02-02T07:00:11Z</time>
      </trkpt>
      <trkpt lat="45.96613" lon="6.59729">
        <ele>1263.8</ele>
        <time>2026-02-02T07:00:12Z</time>
      </trkpt>
      <trkpt lat="45.96613" lon="6.59728">
        <ele>1264</ele>
        <time>2026-02-02T07:00:13Z</time>
      </trkpt>
      <trkpt lat="45.96613" lon="6.59727">
        <ele>1264.1</ele>
        <time>2026-02-02T07:00:14Z</time>
      </trkpt>
      <trkpt lat="45.96613" lon="6.59727">
        <ele>1264.2</ele>
        <time>2026-02-02T07:00:15Z</time>
      </trkpt>
      <trkpt lat="45.96613" lon="6.59727">
        <ele>1264.3</ele>
        <time>2026-02-02T07:00:16Z</time>
      </trkpt>
      <trkpt lat="45.96613" lon="6.59725">
        <ele>1264.5</ele>
        <time>2026-02-02T07:00:17Z</time>
      </trkpt>
      <trkpt lat="45.96613" lon="6.59723">
        <ele>1264.7</ele>
        <time>2026-02-02T07:00:18Z</time>
      </trkpt>
      <trkpt lat="45.96613" lon="6.59722">
        <ele>1264.9</ele>
        <time>2026-02-02T07:00:19Z</time>
      </trkpt>
      <trkpt lat="45.96614" lon="6.59721">
        <ele>1265</ele>
        <time>2026-02-02T07:00:20Z</time>
      </trkpt>
      <trkpt lat="45.96614" lon="6.59721">
        <ele>1265.2</ele>
        <time>2026-02-02T07:00:21Z</time>
      </trkpt>
      <trkpt lat="45.96615" lon="6.59722">
        <ele>1265.3</ele>
        <time>2026-02-02T07:00:22Z</time>
      </trkpt>
      <trkpt lat="45.96615" lon="6.59723">
        <ele>1265.5</ele>
        <time>2026-02-02T07:00:23Z</time>
      </trkpt>
      <trkpt lat="45.96616" lon="6.59724">
        <ele>1265.7</ele>
        <time>2026-02-02T07:00:24Z</time>
      </trkpt>
      <trkpt lat="45.96617" lon="6.59724">
        <ele>1265.9</ele>
        <time>2026-02-02T07:00:25Z</time>
      </trkpt>
      <trkpt lat="45.96618" lon="6.59724">
        <ele>1266</ele>
        <time>2026-02-02T07:00:26Z</time>
      </trkpt>
      <trkpt lat="45.96618" lon="6.59725">
        <ele>1266.2</ele>
        <time>2026-02-02T07:00:27Z</time>
      </trkpt>
      <trkpt lat="45.96619" lon="6.59725">
        <ele>1266.3</ele>
        <time>2026-02-02T07:00:28Z</time>
      </trkpt>
      <trkpt lat="45.96619" lon="6.59725">
        <ele>1266.4</ele>
        <time>2026-02-02T07:00:29Z</time>
      </trkpt>
      <trkpt lat="45.9662" lon="6.59726">
        <ele>1266.5</ele>
        <time>2026-02-02T07:00:30Z</time>
      </trkpt>
      <trkpt lat="45.96621" lon="6.59726">
        <ele>1266.7</ele>
        <time>2026-02-02T07:00:31Z</time>
      </trkpt>
      <trkpt lat="45.96622" lon="6.59726">
        <ele>1266.9</ele>
        <time>2026-02-02T07:00:32Z</time>
      </trkpt>
      <trkpt lat="45.96623" lon="6.59727">
        <ele>1267.1</ele>
        <time>2026-02-02T07:00:33Z</time>
      </trkpt>
      <trkpt lat="45.96623" lon="6.59727">
        <ele>1267.2</ele>
        <time>2026-02-02T07:00:34Z</time>
      </trkpt>
      <trkpt lat="45.96624" lon="6.59727">
        <ele>1267.3</ele>
        <time>2026-02-02T07:00:35Z</time>
      </trkpt>
      <trkpt lat="45.96625" lon="6.59728">
        <ele>1267.6</ele>
        <time>2026-02-02T07:00:36Z</time>
      </trkpt>
      <trkpt lat="45.96626" lon="6.59728">
        <ele>1267.8</ele>
        <time>2026-02-02T07:00:37Z</time>
      </trkpt>
      <trkpt lat="45.96627" lon="6.59728">
        <ele>1268</ele>
        <time>2026-02-02T07:00:38Z</time>
      </trkpt>
      <trkpt lat="45.96628" lon="6.59727">
        <ele>1268.2</ele>
        <time>2026-02-02T07:00:39Z</time>
      </trkpt>
      <trkpt lat="45.96628" lon="6.59728">
        <ele>1268.3</ele>
        <time>2026-02-02T07:00:40Z</time>
      </trkpt>
      <trkpt lat="45.96629" lon="6.59728">
        <ele>1268.4</ele>
        <time>2026-02-02T07:00:41Z</time>
      </trkpt>
      <trkpt lat="45.96629" lon="6.59727">
        <ele>1268.5</ele>
        <time>2026-02-02T07:00:42Z</time>
      </trkpt>
      <trkpt lat="45.9663" lon="6.59726">
        <ele>1268.8</ele>
        <time>2026-02-02T07:00:43Z</time>
      </trkpt>
      <trkpt lat="45.96631" lon="6.59726">
        <ele>1269</ele>
        <time>2026-02-02T07:00:44Z</time>
      </trkpt>
      <trkpt lat="45.96632" lon="6.59727">
        <ele>1269.2</ele>
        <time>2026-02-02T07:00:45Z</time>
      </trkpt>
      <trkpt lat="45.96632" lon="6.59727">
        <ele>1269.3</ele>
        <time>2026-02-02T07:00:46Z</time>
      </trkpt>
      <trkpt lat="45.96633" lon="6.59727">
        <ele>1269.5</ele>
        <time>2026-02-02T07:00:47Z</time>
      </trkpt>
      <trkpt lat="45.96634" lon="6.59726">
        <ele>1269.7</ele>
        <time>2026-02-02T07:00:48Z</time>
      </trkpt>
      <trkpt lat="45.96635" lon="6.59725">
        <ele>1270</ele>
        <time>2026-02-02T07:00:49Z</time>
      </trkpt>
      <trkpt lat="45.96637" lon="6.59724">
        <ele>1270.5</ele>
        <time>2026-02-02T07:00:50Z</time>
      </trkpt>
      <trkpt lat="45.96638" lon="6.59724">
        <ele>1270.7</ele>
        <time>2026-02-02T07:00:51Z</time>
      </trkpt>
      <trkpt lat="45.96639" lon="6.59724">
        <ele>1270.9</ele>
        <time>2026-02-02T07:00:52Z</time>
      </trkpt>
      <trkpt lat="45.9664" lon="6.59724">
        <ele>1271.2</ele>
        <time>2026-02-02T07:00:53Z</time>
      </trkpt>
      <trkpt lat="45.96641" lon="6.59724">
        <ele>1271.4</ele>
        <time>2026-02-02T07:00:54Z</time>
      </trkpt>
      <trkpt lat="45.96642" lon="6.59724">
        <ele>1271.6</ele>
        <time>2026-02-02T07:00:55Z</time>
      </trkpt>
      <trkpt lat="45.96642" lon="6.59723">
        <ele>1271.7</ele>
        <time>2026-02-02T07:00:56Z</time>
      </trkpt>
      <trkpt lat="45.96642" lon="6.59723">
        <ele>1271.8</ele>
        <time>2026-02-02T07:00:57Z</time>
      </trkpt>
      <trkpt lat="45.96643" lon="6.59723">
        <ele>1272</ele>
        <time>2026-02-02T07:00:58Z</time>
      </trkpt>
      <trkpt lat="45.96644" lon="6.59724">
        <ele>1272.2</ele>
        <time>2026-02-02T07:00:59Z</time>
      </trkpt>
      <trkpt lat="45.96645" lon="6.59724">
        <ele>1272.3</ele>
        <time>2026-02-02T07:01:00Z</time>
      </trkpt>
      <trkpt lat="45.96645" lon="6.59724">
        <ele>1272.5</ele>
        <time>2026-02-02T07:01:01Z</time>
      </trkpt>
      <trkpt lat="45.96646" lon="6.59724">
        <ele>1272.7</ele>
        <time>2026-02-02T07:01:02Z</time>
      </trkpt>
      <trkpt lat="45.96647" lon="6.59724">
        <ele>1272.9</ele>
        <time>2026-02-02T07:01:03Z</time>
      </trkpt>
      <trkpt lat="45.96648" lon="6.59724">
        <ele>1273.1</ele>
        <time>2026-02-02T07:01:04Z</time>
      </trkpt>
      <trkpt lat="45.96648" lon="6.59724">
        <ele>1273.3</ele>
        <time>2026-02-02T07:01:05Z</time>
      </trkpt>
      <trkpt lat="45.96649" lon="6.59724">
        <ele>1273.5</ele>
        <time>2026-02-02T07:01:06Z</time>
      </trkpt>
      <trkpt lat="45.9665" lon="6.59724">
        <ele>1273.7</ele>
        <time>2026-02-02T07:01:07Z</time>
      </trkpt>
      <trkpt lat="45.96651" lon="6.59723">
        <ele>1273.9</ele>
        <time>2026-02-02T07:01:08Z</time>
      </trkpt>
      <trkpt lat="45.96651" lon="6.59723">
        <ele>1274.1</ele>
        <time>2026-02-02T07:01:09Z</time>
      </trkpt>
      <trkpt lat="45.96653" lon="6.59722">
        <ele>1274.5</ele>
        <time>2026-02-02T07:01:10Z</time>
      </trkpt>
      <trkpt lat="45.96654" lon="6.59722">
        <ele>1274.7</ele>
        <time>2026-02-02T07:01:11Z</time>
      </trkpt>
      <trkpt lat="45.96654" lon="6.59722">
        <ele>1274.9</ele>
        <time>2026-02-02T07:01:12Z</time>
      </trkpt>
      <trkpt lat="45.96656" lon="6.59722">
        <ele>1275.4</ele>
        <time>2026-02-02T07:01:13Z</time>
      </trkpt>
      <trkpt lat="45.96657" lon="6.59721">
        <ele>1275.7</ele>
        <time>2026-02-02T07:01:14Z</time>
      </trkpt>
      <trkpt lat="45.96658" lon="6.59721">
        <ele>1275.9</ele>
        <time>2026-02-02T07:01:15Z</time>
      </trkpt>
      <trkpt lat="45.96659" lon="6.59721">
        <ele>1276.1</ele>
        <time>2026-02-02T07:01:16Z</time>
      </trkpt>
      <trkpt lat="45.9666" lon="6.59721">
        <ele>1276.3</ele>
        <time>2026-02-02T07:01:17Z</time>
      </trkpt>
      <trkpt lat="45.96661" lon="6.59722">
        <ele>1276.6</ele>
        <time>2026-02-02T07:01:18Z</time>
      </trkpt>
      <trkpt lat="45.96661" lon="6.59721">
        <ele>1276.8</ele>
        <time>2026-02-02T07:01:19Z</time>
      </trkpt>
      <trkpt lat="45.96662" lon="6.59722">
        <ele>1277</ele>
        <time>2026-02-02T07:01:20Z</time>
      </trkpt>
      <trkpt lat="45.96663" lon="6.59721">
        <ele>1277.3</ele>
        <time>2026-02-02T07:01:21Z</time>
      </trkpt>
      <trkpt lat="45.96664" lon="6.59721">
        <ele>1277.4</ele>
        <time>2026-02-02T07:01:22Z</time>
      </trkpt>
      <trkpt lat="45.96663" lon="6.59722">
        <ele>1277.6</ele>
        <time>2026-02-02T07:01:23Z</time>
      </trkpt>
      <trkpt lat="45.96663" lon="6.59724">
        <ele>1277.9</ele>
        <time>2026-02-02T07:01:24Z</time>
      </trkpt>
      <trkpt lat="45.96664" lon="6.59724">
        <ele>1278.1</ele>
        <time>2026-02-02T07:01:25Z</time>
      </trkpt>
      <trkpt lat="45.96665" lon="6.59724">
        <ele>1278.3</ele>
        <time>2026-02-02T07:01:26Z</time>
      </trkpt>
      <trkpt lat="45.96666" lon="6.59724">
        <ele>1278.6</ele>
        <time>2026-02-02T07:01:27Z</time>
      </trkpt>
      <trkpt lat="45.96667" lon="6.59724">
        <ele>1278.8</ele>
        <time>2026-02-02T07:01:28Z</time>
      </trkpt>
      <trkpt lat="45.96668" lon="6.59724">
        <ele>1279.1</ele>
        <time>2026-02-02T07:01:29Z</time>
      </trkpt>
      <trkpt lat="45.96669" lon="6.59723">
        <ele>1279.4</ele>
        <time>2026-02-02T07:01:30Z</time>
      </trkpt>
      <trkpt lat="45.9667" lon="6.59723">
        <ele>1279.7</ele>
        <time>2026-02-02T07:01:31Z</time>
      </trkpt>
      <trkpt lat="45.96671" lon="6.59723">
        <ele>1279.9</ele>
        <time>2026-02-02T07:01:32Z</time>
      </trkpt>
      <trkpt lat="45.96671" lon="6.59722">
        <ele>1280.1</ele>
        <time>2026-02-02T07:01:33Z</time>
      </trkpt>
      <trkpt lat="45.96672" lon="6.59722">
        <ele>1280.2</ele>
        <time>2026-02-02T07:01:34Z</time>
      </trkpt>
      <trkpt lat="45.96673" lon="6.59721">
        <ele>1280.6</ele>
        <time>2026-02-02T07:01:35Z</time>
      </trkpt>
      <trkpt lat="45.96674" lon="6.5972">
        <ele>1280.9</ele>
        <time>2026-02-02T07:01:36Z</time>
      </trkpt>
      <trkpt lat="45.96675" lon="6.5972">
        <ele>1281.2</ele>
        <time>2026-02-02T07:01:37Z</time>
      </trkpt>
      <trkpt lat="45.96676" lon="6.59719">
        <ele>1281.4</ele>
        <time>2026-02-02T07:01:38Z</time>
      </trkpt>
      <trkpt lat="45.96676" lon="6.59718">
        <ele>1281.6</ele>
        <time>2026-02-02T07:01:39Z</time>
      </trkpt>
      <trkpt lat="45.96677" lon="6.59718">
        <ele>1281.8</ele>
        <time>2026-02-02T07:01:40Z</time>
      </trkpt>
      <trkpt lat="45.96678" lon="6.59718">
        <ele>1282.1</ele>
        <time>2026-02-02T07:01:41Z</time>
      </trkpt>
      <trkpt lat="45.96679" lon="6.59718">
        <ele>1282.3</ele>
        <time>2026-02-02T07:01:42Z</time>
      </trkpt>
      <trkpt lat="45.9668" lon="6.59719">
        <ele>1282.5</ele>
        <time>2026-02-02T07:01:43Z</time>
      </trkpt>
      <trkpt lat="45.9668" lon="6.59719">
        <ele>1282.6</ele>
        <time>2026-02-02T07:01:44Z</time>
      </trkpt>
      <trkpt lat="45.9668" lon="6.59719">
        <ele>1282.7</ele>
        <time>2026-02-02T07:01:45Z</time>
      </trkpt>
      <trkpt lat="45.96681" lon="6.59718">
        <ele>1282.9</ele>
        <time>2026-02-02T07:01:46Z</time>
      </trkpt>
      <trkpt lat="45.96682" lon="6.59717">
        <ele>1283.3</ele>
        <time>2026-02-02T07:01:47Z</time>
      </trkpt>
      <trkpt lat="45.96683" lon="6.59716">
        <ele>1283.6</ele>
        <time>2026-02-02T07:01:48Z</time>
      </trkpt>
      <trkpt lat="45.96684" lon="6.59716">
        <ele>1283.9</ele>
        <time>2026-02-02T07:01:49Z</time>
      </trkpt>
      <trkpt lat="45.96685" lon="6.59715">
        <ele>1284.1</ele>
        <time>2026-02-02T07:01:50Z</time>
      </trkpt>
      <trkpt lat="45.96685" lon="6.59714">
        <ele>1284.3</ele>
        <time>2026-02-02T07:01:51Z</time>
      </trkpt>
      <trkpt lat="45.96686" lon="6.59714">
        <ele>1284.5</ele>
        <time>2026-02-02T07:01:52Z</time>
      </trkpt>
      <trkpt lat="45.96687" lon="6.59713">
        <ele>1284.8</ele>
        <time>2026-02-02T07:01:53Z</time>
      </trkpt>
      <trkpt lat="45.96687" lon="6.59711">
        <ele>1285</ele>
        <time>2026-02-02T07:01:54Z</time>
      </trkpt>
      <trkpt lat="45.96687" lon="6.5971">
        <ele>1285.3</ele>
        <time>2026-02-02T07:01:55Z</time>
      </trkpt>
      <trkpt lat="45.96687" lon="6.59709">
        <ele>1285.4</ele>
        <time>2026-02-02T07:01:56Z</time>
      </trkpt>
      <trkpt lat="45.96686" lon="6.59708">
        <ele>1285.6</ele>
        <time>2026-02-02T07:01:57Z</time>
      </trkpt>
      <trkpt lat="45.96686" lon="6.59707">
        <ele>1285.7</ele>
        <time>2026-02-02T07:01:58Z</time>
      </trkpt>
      <trkpt lat="45.96686" lon="6.59707">
        <ele>1285.8</ele>
        <time>2026-02-02T07:01:59Z</time>
      </trkpt>
      <trkpt lat="45.96686" lon="6.59705">
        <ele>1286.1</ele>
        <time>2026-02-02T07:02:00Z</time>
      </trkpt>
      <trkpt lat="45.96685" lon="6.59704">
        <ele>1286.4</ele>
        <time>2026-02-02T07:02:01Z</time>
      </trkpt>
      <trkpt lat="45.96684" lon="6.59702">
        <ele>1286.8</ele>
        <time>2026-02-02T07:02:02Z</time>
      </trkpt>
      <trkpt lat="45.96683" lon="6.59702">
        <ele>1287</ele>
        <time>2026-02-02T07:02:03Z</time>
      </trkpt>
      <trkpt lat="45.96682" lon="6.59702">
        <ele>1287.2</ele>
        <time>2026-02-02T07:02:04Z</time>
      </trkpt>
      <trkpt lat="45.96682" lon="6.59702">
        <ele>1287.4</ele>
        <time>2026-02-02T07:02:05Z</time>
      </trkpt>
      <trkpt lat="45.96681" lon="6.59701">
        <ele>1287.5</ele>
        <time>2026-02-02T07:02:06Z</time>
      </trkpt>
      <trkpt lat="45.9668" lon="6.59701">
        <ele>1287.8</ele>
        <time>2026-02-02T07:02:07Z</time>
      </trkpt>
      <trkpt lat="45.96679" lon="6.597">
        <ele>1288.2</ele>
        <time>2026-02-02T07:02:08Z</time>
      </trkpt>
      <trkpt lat="45.96678" lon="6.59699">
        <ele>1288.4</ele>
        <time>2026-02-02T07:02:09Z</time>
      </trkpt>
      <trkpt lat="45.96677" lon="6.59699">
        <ele>1288.6</ele>
        <time>2026-02-02T07:02:10Z</time>
      </trkpt>
      <trkpt lat="45.96677" lon="6.59698">
        <ele>1288.8</ele>
        <time>2026-02-02T07:02:11Z</time>
      </trkpt>
      <trkpt lat="45.96676" lon="6.59697">
        <ele>1289</ele>
        <time>2026-02-02T07:02:12Z</time>
      </trkpt>
      <trkpt lat="45.96676" lon="6.59697">
        <ele>1289.1</ele>
        <time>2026-02-02T07:02:13Z</time>
      </trkpt>
      <trkpt lat="45.96676" lon="6.59696">
        <ele>1289.2</ele>
        <time>2026-02-02T07:02:14Z</time>
      </trkpt>
      <trkpt lat="45.96676" lon="6.59695">
        <ele>1289.4</ele>
        <time>2026-02-02T07:02:15Z</time>
      </trkpt>
      <trkpt lat="45.96675" lon="6.59695">
        <ele>1289.6</ele>
        <time>2026-02-02T07:02:16Z</time>
      </trkpt>
      <trkpt lat="45.96674" lon="6.59695">
        <ele>1289.9</ele>
        <time>2026-02-02T07:02:17Z</time>
      </trkpt>
      <trkpt lat="45.96673" lon="6.59695">
        <ele>1290.1</ele>
        <time>2026-02-02T07:02:18Z</time>
      </trkpt>
      <trkpt lat="45.96672" lon="6.59695">
        <ele>1290.3</ele>
        <time>2026-02-02T07:02:19Z</time>
      </trkpt>
      <trkpt lat="45.96671" lon="6.59695">
        <ele>1290.4</ele>
        <time>2026-02-02T07:02:20Z</time>
      </trkpt>
      <trkpt lat="45.9667" lon="6.59694">
        <ele>1290.7</ele>
        <time>2026-02-02T07:02:21Z</time>
      </trkpt>
      <trkpt lat="45.9667" lon="6.59694">
        <ele>1290.9</ele>
        <time>2026-02-02T07:02:22Z</time>
      </trkpt>
      <trkpt lat="45.96669" lon="6.59695">
        <ele>1291.1</ele>
        <time>2026-02-02T07:02:23Z</time>
      </trkpt>
      <trkpt lat="45.96668" lon="6.59695">
        <ele>1291.3</ele>
        <time>2026-02-02T07:02:24Z</time>
      </trkpt>
      <trkpt lat="45.96667" lon="6.59694">
        <ele>1291.6</ele>
        <time>2026-02-02T07:02:25Z</time>
      </trkpt>
      <trkpt lat="45.96667" lon="6.59694">
        <ele>1291.7</ele>
        <time>2026-02-02T07:02:26Z</time>
      </trkpt>
      <trkpt lat="45.96666" lon="6.59693">
        <ele>1291.9</ele>
        <time>2026-02-02T07:02:27Z</time>
      </trkpt>
      <trkpt lat="45.96665" lon="6.59693">
        <ele>1292.2</ele>
        <time>2026-02-02T07:02:28Z</time>
      </trkpt>
      <trkpt lat="45.96663" lon="6.59692">
        <ele>1292.5</ele>
        <time>2026-02-02T07:02:29Z</time>
      </trkpt>
      <trkpt lat="45.96662" lon="6.59691">
        <ele>1292.9</ele>
        <time>2026-02-02T07:02:30Z</time>
      </trkpt>
      <trkpt lat="45.96662" lon="6.5969">
        <ele>1293</ele>
        <time>2026-02-02T07:02:31Z</time>
      </trkpt>
      <trkpt lat="45.96661" lon="6.59689">
        <ele>1293.2</ele>
        <time>2026-02-02T07:02:32Z</time>
      </trkpt>
      <trkpt lat="45.96661" lon="6.59689">
        <ele>1293.3</ele>
        <time>2026-02-02T07:02:33Z</time>
      </trkpt>
      <trkpt lat="45.9666" lon="6.59688">
        <ele>1293.6</ele>
        <time>2026-02-02T07:02:34Z</time>
      </trkpt>
      <trkpt lat="45.96659" lon="6.59687">
        <ele>1293.8</ele>
        <time>2026-02-02T07:02:35Z</time>
      </trkpt>
      <trkpt lat="45.96658" lon="6.59686">
        <ele>1294.1</ele>
        <time>2026-02-02T07:02:36Z</time>
      </trkpt>
      <trkpt lat="45.96657" lon="6.59685">
        <ele>1294.4</ele>
        <time>2026-02-02T07:02:37Z</time>
      </trkpt>
      <trkpt lat="45.96656" lon="6.59684">
        <ele>1294.6</ele>
        <time>2026-02-02T07:02:38Z</time>
      </trkpt>
      <trkpt lat="45.96655" lon="6.59684">
        <ele>1294.9</ele>
        <time>2026-02-02T07:02:39Z</time>
      </trkpt>
      <trkpt lat="45.96655" lon="6.59683">
        <ele>1295.1</ele>
        <time>2026-02-02T07:02:40Z</time>
      </trkpt>
      <trkpt lat="45.96654" lon="6.59682">
        <ele>1295.2</ele>
        <time>2026-02-02T07:02:41Z</time>
      </trkpt>
      <trkpt lat="45.96654" lon="6.59681">
        <ele>1295.4</ele>
        <time>2026-02-02T07:02:42Z</time>
      </trkpt>
      <trkpt lat="45.96653" lon="6.59681">
        <ele>1295.6</ele>
        <time>2026-02-02T07:02:43Z</time>
      </trkpt>
      <trkpt lat="45.96652" lon="6.5968">
        <ele>1295.9</ele>
        <time>2026-02-02T07:02:44Z</time>
      </trkpt>
      <trkpt lat="45.96651" lon="6.5968">
        <ele>1296.1</ele>
        <time>2026-02-02T07:02:45Z</time>
      </trkpt>
      <trkpt lat="45.9665" lon="6.5968">
        <ele>1296.2</ele>
        <time>2026-02-02T07:02:46Z</time>
      </trkpt>
      <trkpt lat="45.9665" lon="6.5968">
        <ele>1296.4</ele>
        <time>2026-02-02T07:02:47Z</time>
      </trkpt>
      <trkpt lat="45.96649" lon="6.5968">
        <ele>1296.5</ele>
        <time>2026-02-02T07:02:48Z</time>
      </trkpt>
      <trkpt lat="45.96648" lon="6.5968">
        <ele>1296.8</ele>
        <time>2026-02-02T07:02:49Z</time>
      </trkpt>
      <trkpt lat="45.96648" lon="6.59679">
        <ele>1296.9</ele>
        <time>2026-02-02T07:02:50Z</time>
      </trkpt>
      <trkpt lat="45.96646" lon="6.59678">
        <ele>1297.2</ele>
        <time>2026-02-02T07:02:51Z</time>
      </trkpt>
      <trkpt lat="45.96645" lon="6.59677">
        <ele>1297.6</ele>
        <time>2026-02-02T07:02:52Z</time>
      </trkpt>
      <trkpt lat="45.96644" lon="6.59676">
        <ele>1297.8</ele>
        <time>2026-02-02T07:02:53Z</time>
      </trkpt>
      <trkpt lat="45.96644" lon="6.59675">
        <ele>1298</ele>
        <time>2026-02-02T07:02:54Z</time>
      </trkpt>
      <trkpt lat="45.96643" lon="6.59674">
        <ele>1298.3</ele>
        <time>2026-02-02T07:02:55Z</time>
      </trkpt>
      <trkpt lat="45.96643" lon="6.59673">
        <ele>1298.4</ele>
        <time>2026-02-02T07:02:56Z</time>
      </trkpt>
      <trkpt lat="45.96643" lon="6.59673">
        <ele>1298.5</ele>
        <time>2026-02-02T07:02:57Z</time>
      </trkpt>
      <trkpt lat="45.96642" lon="6.59672">
        <ele>1298.7</ele>
        <time>2026-02-02T07:02:58Z</time>
      </trkpt>
      <trkpt lat="45.96642" lon="6.59671">
        <ele>1298.9</ele>
        <time>2026-02-02T07:02:59Z</time>
      </trkpt>
      <trkpt lat="45.96641" lon="6.59671">
        <ele>1299</ele>
        <time>2026-02-02T07:03:00Z</time>
      </trkpt>
      <trkpt lat="45.96641" lon="6.59669">
        <ele>1299.3</ele>
        <time>2026-02-02T07:03:01Z</time>
      </trkpt>
      <trkpt lat="45.96641" lon="6.59668">
        <ele>1299.5</ele>
        <time>2026-02-02T07:03:02Z</time>
      </trkpt>
      <trkpt lat="45.9664" lon="6.59667">
        <ele>1299.8</ele>
        <time>2026-02-02T07:03:03Z</time>
      </trkpt>
      <trkpt lat="45.9664" lon="6.59666">
        <ele>1300</ele>
        <time>2026-02-02T07:03:04Z</time>
      </trkpt>
      <trkpt lat="45.96639" lon="6.59665">
        <ele>1300.2</ele>
        <time>2026-02-02T07:03:05Z</time>
      </trkpt>
      <trkpt lat="45.96639" lon="6.59664">
        <ele>1300.4</ele>
        <time>2026-02-02T07:03:06Z</time>
      </trkpt>
      <trkpt lat="45.96637" lon="6.59663">
        <ele>1300.8</ele>
        <time>2026-02-02T07:03:07Z</time>
      </trkpt>
      <trkpt lat="45.96637" lon="6.59663">
        <ele>1300.9</ele>
        <time>2026-02-02T07:03:08Z</time>
      </trkpt>
      <trkpt lat="45.96637" lon="6.59661">
        <ele>1301.1</ele>
        <time>2026-02-02T07:03:09Z</time>
      </trkpt>
      <trkpt lat="45.96637" lon="6.5966">
        <ele>1301.4</ele>
        <time>2026-02-02T07:03:10Z</time>
      </trkpt>
      <trkpt lat="45.96637" lon="6.59659">
        <ele>1301.6</ele>
        <time>2026-02-02T07:03:11Z</time>
      </trkpt>
      <trkpt lat="45.96637" lon="6.59658">
        <ele>1301.8</ele>
        <time>2026-02-02T07:03:12Z</time>
      </trkpt>
      <trkpt lat="45.96637" lon="6.59657">
        <ele>1302</ele>
        <time>2026-02-02T07:03:13Z</time>
      </trkpt>
      <trkpt lat="45.96636" lon="6.59655">
        <ele>1302.2</ele>
        <time>2026-02-02T07:03:14Z</time>
      </trkpt>
      <trkpt lat="45.96637" lon="6.59654">
        <ele>1302.4</ele>
        <time>2026-02-02T07:03:15Z</time>
      </trkpt>
      <trkpt lat="45.96637" lon="6.59654">
        <ele>1302.5</ele>
        <time>2026-02-02T07:03:16Z</time>
      </trkpt>
      <trkpt lat="45.96637" lon="6.59654">
        <ele>1302.6</ele>
        <time>2026-02-02T07:03:17Z</time>
      </trkpt>
      <trkpt lat="45.96637" lon="6.59653">
        <ele>1302.7</ele>
        <time>2026-02-02T07:03:18Z</time>
      </trkpt>
      <trkpt lat="45.96638" lon="6.59653">
        <ele>1302.9</ele>
        <time>2026-02-02T07:03:19Z</time>
      </trkpt>
      <trkpt lat="45.96638" lon="6.59652">
        <ele>1303.1</ele>
        <time>2026-02-02T07:03:20Z</time>
      </trkpt>
      <trkpt lat="45.96639" lon="6.59652">
        <ele>1303.2</ele>
        <time>2026-02-02T07:03:21Z</time>
      </trkpt>
      <trkpt lat="45.96639" lon="6.59651">
        <ele>1303.3</ele>
        <time>2026-02-02T07:03:22Z</time>
      </trkpt>
      <trkpt lat="45.9664" lon="6.59651">
        <ele>1303.5</ele>
        <time>2026-02-02T07:03:23Z</time>
      </trkpt>
      <trkpt lat="45.9664" lon="6.59651">
        <ele>1303.6</ele>
        <time>2026-02-02T07:03:24Z</time>
      </trkpt>
      <trkpt lat="45.96641" lon="6.59651">
        <ele>1303.8</ele>
        <time>2026-02-02T07:03:25Z</time>
      </trkpt>
      <trkpt lat="45.96642" lon="6.5965">
        <ele>1304.1</ele>
        <time>2026-02-02T07:03:26Z</time>
      </trkpt>
      <trkpt lat="45.96643" lon="6.59651">
        <ele>1304.4</ele>
        <time>2026-02-02T07:03:27Z</time>
      </trkpt>
      <trkpt lat="45.96643" lon="6.59652">
        <ele>1304.6</ele>
        <time>2026-02-02T07:03:28Z</time>
      </trkpt>
      <trkpt lat="45.96644" lon="6.59653">
        <ele>1304.8</ele>
        <time>2026-02-02T07:03:29Z</time>
      </trkpt>
      <trkpt lat="45.96645" lon="6.59653">
        <ele>1305</ele>
        <time>2026-02-02T07:03:30Z</time>
      </trkpt>
      <trkpt lat="45.96645" lon="6.59654">
        <ele>1305.2</ele>
        <time>2026-02-02T07:03:31Z</time>
      </trkpt>
      <trkpt lat="45.96645" lon="6.59655">
        <ele>1305.3</ele>
        <time>2026-02-02T07:03:32Z</time>
      </trkpt>
      <trkpt lat="45.96646" lon="6.59655">
        <ele>1305.6</ele>
        <time>2026-02-02T07:03:33Z</time>
      </trkpt>
      <trkpt lat="45.96647" lon="6.59657">
        <ele>1305.8</ele>
        <time>2026-02-02T07:03:34Z</time>
      </trkpt>
      <trkpt lat="45.96647" lon="6.59658">
        <ele>1306</ele>
        <time>2026-02-02T07:03:35Z</time>
      </trkpt>
      <trkpt lat="45.96647" lon="6.59659">
        <ele>1306.3</ele>
        <time>2026-02-02T07:03:36Z</time>
      </trkpt>
      <trkpt lat="45.96648" lon="6.5966">
        <ele>1306.5</ele>
        <time>2026-02-02T07:03:37Z</time>
      </trkpt>
      <trkpt lat="45.96648" lon="6.59661">
        <ele>1306.7</ele>
        <time>2026-02-02T07:03:38Z</time>
      </trkpt>
      <trkpt lat="45.96649" lon="6.59662">
        <ele>1306.9</ele>
        <time>2026-02-02T07:03:39Z</time>
      </trkpt>
      <trkpt lat="45.96649" lon="6.59662">
        <ele>1307</ele>
        <time>2026-02-02T07:03:40Z</time>
      </trkpt>
      <trkpt lat="45.9665" lon="6.59663">
        <ele>1307.2</ele>
        <time>2026-02-02T07:03:41Z</time>
      </trkpt>
      <trkpt lat="45.96652" lon="6.59663">
        <ele>1307.7</ele>
        <time>2026-02-02T07:03:42Z</time>
      </trkpt>
      <trkpt lat="45.96652" lon="6.59663">
        <ele>1307.8</ele>
        <time>2026-02-02T07:03:43Z</time>
      </trkpt>
      <trkpt lat="45.96653" lon="6.59663">
        <ele>1308</ele>
        <time>2026-02-02T07:03:44Z</time>
      </trkpt>
      <trkpt lat="45.96653" lon="6.59663">
        <ele>1308.2</ele>
        <time>2026-02-02T07:03:45Z</time>
      </trkpt>
      <trkpt lat="45.96654" lon="6.59663">
        <ele>1308.3</ele>
        <time>2026-02-02T07:03:46Z</time>
      </trkpt>
      <trkpt lat="45.96655" lon="6.59663">
        <ele>1308.5</ele>
        <time>2026-02-02T07:03:47Z</time>
      </trkpt>
      <trkpt lat="45.96655" lon="6.59664">
        <ele>1308.7</ele>
        <time>2026-02-02T07:03:48Z</time>
      </trkpt>
      <trkpt lat="45.96656" lon="6.59664">
        <ele>1309</ele>
        <time>2026-02-02T07:03:49Z</time>
      </trkpt>
      <trkpt lat="45.96657" lon="6.59664">
        <ele>1309.2</ele>
        <time>2026-02-02T07:03:50Z</time>
      </trkpt>
      <trkpt lat="45.96658" lon="6.59665">
        <ele>1309.4</ele>
        <time>2026-02-02T07:03:51Z</time>
      </trkpt>
      <trkpt lat="45.96659" lon="6.59665">
        <ele>1309.7</ele>
        <time>2026-02-02T07:03:52Z</time>
      </trkpt>
      <trkpt lat="45.9666" lon="6.59666">
        <ele>1310</ele>
        <time>2026-02-02T07:03:53Z</time>
      </trkpt>
      <trkpt lat="45.9666" lon="6.59666">
        <ele>1310.1</ele>
        <time>2026-02-02T07:03:54Z</time>
      </trkpt>
      <trkpt lat="45.96661" lon="6.59666">
        <ele>1310.4</ele>
        <time>2026-02-02T07:03:55Z</time>
      </trkpt>
      <trkpt lat="45.96662" lon="6.59665">
        <ele>1310.7</ele>
        <time>2026-02-02T07:03:56Z</time>
      </trkpt>
      <trkpt lat="45.96663" lon="6.59665">
        <ele>1310.9</ele>
        <time>2026-02-02T07:03:57Z</time>
      </trkpt>
      <trkpt lat="45.96663" lon="6.59665">
        <ele>1311</ele>
        <time>2026-02-02T07:03:58Z</time>
      </trkpt>
      <trkpt lat="45.96663" lon="6.59664">
        <ele>1311.2</ele>
        <time>2026-02-02T07:03:59Z</time>
      </trkpt>
      <trkpt lat="45.96664" lon="6.59664">
        <ele>1311.4</ele>
        <time>2026-02-02T07:04:00Z</time>
      </trkpt>
      <trkpt lat="45.96665" lon="6.59664">
        <ele>1311.7</ele>
        <time>2026-02-02T07:04:01Z</time>
      </trkpt>
      <trkpt lat="45.96665" lon="6.59663">
        <ele>1311.9</ele>
        <time>2026-02-02T07:04:02Z</time>
      </trkpt>
      <trkpt lat="45.96666" lon="6.59663">
        <ele>1312.2</ele>
        <time>2026-02-02T07:04:03Z</time>
      </trkpt>
      <trkpt lat="45.96668" lon="6.59663">
        <ele>1312.5</ele>
        <time>2026-02-02T07:04:04Z</time>
      </trkpt>
      <trkpt lat="45.96669" lon="6.59663">
        <ele>1312.8</ele>
        <time>2026-02-02T07:04:05Z</time>
      </trkpt>
      <trkpt lat="45.9667" lon="6.59664">
        <ele>1313</ele>
        <time>2026-02-02T07:04:06Z</time>
      </trkpt>
      <trkpt lat="45.9667" lon="6.59663">
        <ele>1313.2</ele>
        <time>2026-02-02T07:04:07Z</time>
      </trkpt>
      <trkpt lat="45.96671" lon="6.59663">
        <ele>1313.4</ele>
        <time>2026-02-02T07:04:08Z</time>
      </trkpt>
      <trkpt lat="45.96671" lon="6.59662">
        <ele>1313.6</ele>
        <time>2026-02-02T07:04:09Z</time>
      </trkpt>
      <trkpt lat="45.96672" lon="6.59662">
        <ele>1313.8</ele>
        <time>2026-02-02T07:04:10Z</time>
      </trkpt>
      <trkpt lat="45.96672" lon="6.59662">
        <ele>1313.9</ele>
        <time>2026-02-02T07:04:11Z</time>
      </trkpt>
      <trkpt lat="45.96673" lon="6.59663">
        <ele>1314.1</ele>
        <time>2026-02-02T07:04:12Z</time>
      </trkpt>
      <trkpt lat="45.96673" lon="6.59664">
        <ele>1314.3</ele>
        <time>2026-02-02T07:04:13Z</time>
      </trkpt>
      <trkpt lat="45.96674" lon="6.59663">
        <ele>1314.5</ele>
        <time>2026-02-02T07:04:14Z</time>
      </trkpt>
      <trkpt lat="45.96675" lon="6.59663">
        <ele>1314.8</ele>
        <time>2026-02-02T07:04:15Z</time>
      </trkpt>
      <trkpt lat="45.96676" lon="6.59662">
        <ele>1315</ele>
        <time>2026-02-02T07:04:16Z</time>
      </trkpt>
      <trkpt lat="45.96676" lon="6.59661">
        <ele>1315.2</ele>
        <time>2026-02-02T07:04:17Z</time>
      </trkpt>
      <trkpt lat="45.96677" lon="6.59661">
        <ele>1315.5</ele>
        <time>2026-02-02T07:04:18Z</time>
      </trkpt>
      <trkpt lat="45.96678" lon="6.59661">
        <ele>1315.7</ele>
        <time>2026-02-02T07:04:19Z</time>
      </trkpt>
      <trkpt lat="45.96679" lon="6.5966">
        <ele>1316</ele>
        <time>2026-02-02T07:04:20Z</time>
      </trkpt>
      <trkpt lat="45.9668" lon="6.5966">
        <ele>1316.3</ele>
        <time>2026-02-02T07:04:21Z</time>
      </trkpt>
      <trkpt lat="45.96682" lon="6.59659">
        <ele>1316.7</ele>
        <time>2026-02-02T07:04:22Z</time>
      </trkpt>
      <trkpt lat="45.96682" lon="6.59658">
        <ele>1316.9</ele>
        <time>2026-02-02T07:04:23Z</time>
      </trkpt>
      <trkpt lat="45.96683" lon="6.59658">
        <ele>1317.1</ele>
        <time>2026-02-02T07:04:24Z</time>
      </trkpt>
      <trkpt lat="45.96684" lon="6.59657">
        <ele>1317.5</ele>
        <time>2026-02-02T07:04:25Z</time>
      </trkpt>
      <trkpt lat="45.96684" lon="6.59656">
        <ele>1317.6</ele>
        <time>2026-02-02T07:04:26Z</time>
      </trkpt>
      <trkpt lat="45.96684" lon="6.59656">
        <ele>1317.6</ele>
        <time>2026-02-02T07:04:27Z</time>
      </trkpt>
      <trkpt lat="45.96684" lon="6.59655">
        <ele>1317.9</ele>
        <time>2026-02-02T07:04:28Z</time>
      </trkpt>
      <trkpt lat="45.96685" lon="6.59654">
        <ele>1318.1</ele>
        <time>2026-02-02T07:04:29Z</time>
      </trkpt>
      <trkpt lat="45.96685" lon="6.59654">
        <ele>1318.2</ele>
        <time>2026-02-02T07:04:30Z</time>
      </trkpt>
      <trkpt lat="45.96685" lon="6.59653">
        <ele>1318.3</ele>
        <time>2026-02-02T07:04:31Z</time>
      </trkpt>
      <trkpt lat="45.96685" lon="6.59652">
        <ele>1318.5</ele>
        <time>2026-02-02T07:04:32Z</time>
      </trkpt>
      <trkpt lat="45.96685" lon="6.59651">
        <ele>1318.7</ele>
        <time>2026-02-02T07:04:33Z</time>
      </trkpt>
      <trkpt lat="45.96686" lon="6.5965">
        <ele>1318.9</ele>
        <time>2026-02-02T07:04:34Z</time>
      </trkpt>
      <trkpt lat="45.96686" lon="6.5965">
        <ele>1319</ele>
        <time>2026-02-02T07:04:35Z</time>
      </trkpt>
      <trkpt lat="45.96686" lon="6.59649">
        <ele>1319.2</ele>
        <time>2026-02-02T07:04:36Z</time>
      </trkpt>
      <trkpt lat="45.96686" lon="6.59647">
        <ele>1319.4</ele>
        <time>2026-02-02T07:04:37Z</time>
      </trkpt>
      <trkpt lat="45.96686" lon="6.59646">
        <ele>1319.7</ele>
        <time>2026-02-02T07:04:38Z</time>
      </trkpt>
      <trkpt lat="45.96686" lon="6.59645">
        <ele>1319.9</ele>
        <time>2026-02-02T07:04:39Z</time>
      </trkpt>
      <trkpt lat="45.96686" lon="6.59644">
        <ele>1320.1</ele>
        <time>2026-02-02T07:04:40Z</time>
      </trkpt>
      <trkpt lat="45.96687" lon="6.59643">
        <ele>1320.2</ele>
        <time>2026-02-02T07:04:41Z</time>
      </trkpt>
      <trkpt lat="45.96687" lon="6.59642">
        <ele>1320.4</ele>
        <time>2026-02-02T07:04:42Z</time>
      </trkpt>
      <trkpt lat="45.96687" lon="6.59642">
        <ele>1320.5</ele>
        <time>2026-02-02T07:04:43Z</time>
      </trkpt>
      <trkpt lat="45.96687" lon="6.59641">
        <ele>1320.6</ele>
        <time>2026-02-02T07:04:44Z</time>
      </trkpt>
      <trkpt lat="45.96688" lon="6.59641">
        <ele>1320.7</ele>
        <time>2026-02-02T07:04:45Z</time>
      </trkpt>
      <trkpt lat="45.96688" lon="6.5964">
        <ele>1321</ele>
        <time>2026-02-02T07:04:46Z</time>
      </trkpt>
      <trkpt lat="45.96689" lon="6.59639">
        <ele>1321.2</ele>
        <time>2026-02-02T07:04:47Z</time>
      </trkpt>
      <trkpt lat="45.96689" lon="6.59638">
        <ele>1321.4</ele>
        <time>2026-02-02T07:04:48Z</time>
      </trkpt>
      <trkpt lat="45.9669" lon="6.59636">
        <ele>1321.8</ele>
        <time>2026-02-02T07:04:49Z</time>
      </trkpt>
      <trkpt lat="45.96691" lon="6.59635">
        <ele>1322.1</ele>
        <time>2026-02-02T07:04:50Z</time>
      </trkpt>
      <trkpt lat="45.96691" lon="6.59635">
        <ele>1322.3</ele>
        <time>2026-02-02T07:04:51Z</time>
      </trkpt>
      <trkpt lat="45.96692" lon="6.59634">
        <ele>1322.4</ele>
        <time>2026-02-02T07:04:52Z</time>
      </trkpt>
      <trkpt lat="45.96693" lon="6.59633">
        <ele>1322.7</ele>
        <time>2026-02-02T07:04:53Z</time>
      </trkpt>
      <trkpt lat="45.96693" lon="6.59633">
        <ele>1322.9</ele>
        <time>2026-02-02T07:04:54Z</time>
      </trkpt>
      <trkpt lat="45.96694" lon="6.59632">
        <ele>1323.1</ele>
        <time>2026-02-02T07:04:55Z</time>
      </trkpt>
      <trkpt lat="45.96695" lon="6.59633">
        <ele>1323.3</ele>
        <time>2026-02-02T07:04:56Z</time>
      </trkpt>
      <trkpt lat="45.96696" lon="6.59632">
        <ele>1323.6</ele>
        <time>2026-02-02T07:04:57Z</time>
      </trkpt>
      <trkpt lat="45.96696" lon="6.59632">
        <ele>1323.7</ele>
        <time>2026-02-02T07:04:58Z</time>
      </trkpt>
      <trkpt lat="45.96697" lon="6.59632">
        <ele>1323.9</ele>
        <time>2026-02-02T07:04:59Z</time>
      </trkpt>
      <trkpt lat="45.96698" lon="6.59632">
        <ele>1324.2</ele>
        <time>2026-02-02T07:05:00Z</time>
      </trkpt>
      <trkpt lat="45.967" lon="6.59632">
        <ele>1324.5</ele>
        <time>2026-02-02T07:05:01Z</time>
      </trkpt>
      <trkpt lat="45.967" lon="6.59632">
        <ele>1324.7</ele>
        <time>2026-02-02T07:05:02Z</time>
      </trkpt>
      <trkpt lat="45.96701" lon="6.59632">
        <ele>1324.9</ele>
        <time>2026-02-02T07:05:03Z</time>
      </trkpt>
      <trkpt lat="45.96702" lon="6.59631">
        <ele>1325.2</ele>
        <time>2026-02-02T07:05:04Z</time>
      </trkpt>
      <trkpt lat="45.96704" lon="6.59632">
        <ele>1325.7</ele>
        <time>2026-02-02T07:05:05Z</time>
      </trkpt>
      <trkpt lat="45.96705" lon="6.59632">
        <ele>1326</ele>
        <time>2026-02-02T07:05:06Z</time>
      </trkpt>
      <trkpt lat="45.96706" lon="6.59632">
        <ele>1326.2</ele>
        <time>2026-02-02T07:05:07Z</time>
      </trkpt>
      <trkpt lat="45.96707" lon="6.59632">
        <ele>1326.4</ele>
        <time>2026-02-02T07:05:08Z</time>
      </trkpt>
      <trkpt lat="45.96708" lon="6.59632">
        <ele>1326.7</ele>
        <time>2026-02-02T07:05:09Z</time>
      </trkpt>
      <trkpt lat="45.96709" lon="6.59632">
        <ele>1327</ele>
        <time>2026-02-02T07:05:10Z</time>
      </trkpt>
      <trkpt lat="45.9671" lon="6.59633">
        <ele>1327.2</ele>
        <time>2026-02-02T07:05:11Z</time>
      </trkpt>
      <trkpt lat="45.96711" lon="6.59633">
        <ele>1327.5</ele>
        <time>2026-02-02T07:05:12Z</time>
      </trkpt>
      <trkpt lat="45.96712" lon="6.59634">
        <ele>1327.7</ele>
        <time>2026-02-02T07:05:13Z</time>
      </trkpt>
      <trkpt lat="45.96713" lon="6.59634">
        <ele>1328</ele>
        <time>2026-02-02T07:05:14Z</time>
      </trkpt>
      <trkpt lat="45.96713" lon="6.59633">
        <ele>1328.1</ele>
        <time>2026-02-02T07:05:15Z</time>
      </trkpt>
      <trkpt lat="45.96714" lon="6.59633">
        <ele>1328.2</ele>
        <time>2026-02-02T07:05:16Z</time>
      </trkpt>
      <trkpt lat="45.96715" lon="6.59633">
        <ele>1328.5</ele>
        <time>2026-02-02T07:05:17Z</time>
      </trkpt>
      <trkpt lat="45.96716" lon="6.59633">
        <ele>1328.7</ele>
        <time>2026-02-02T07:05:18Z</time>
      </trkpt>
      <trkpt lat="45.96716" lon="6.59633">
        <ele>1329</ele>
        <time>2026-02-02T07:05:19Z</time>
      </trkpt>
      <trkpt lat="45.96717" lon="6.59633">
        <ele>1329.2</ele>
        <time>2026-02-02T07:05:20Z</time>
      </trkpt>
      <trkpt lat="45.96718" lon="6.59633">
        <ele>1329.4</ele>
        <time>2026-02-02T07:05:21Z</time>
      </trkpt>
      <trkpt lat="45.96719" lon="6.59633">
        <ele>1329.6</ele>
        <time>2026-02-02T07:05:22Z</time>
      </trkpt>
      <trkpt lat="45.96719" lon="6.59633">
        <ele>1329.8</ele>
        <time>2026-02-02T07:05:23Z</time>
      </trkpt>
      <trkpt lat="45.96719" lon="6.59634">
        <ele>1330</ele>
        <time>2026-02-02T07:05:24Z</time>
      </trkpt>
      <trkpt lat="45.9672" lon="6.59635">
        <ele>1330.2</ele>
        <time>2026-02-02T07:05:25Z</time>
      </trkpt>
      <trkpt lat="45.96721" lon="6.59634">
        <ele>1330.4</ele>
        <time>2026-02-02T07:05:26Z</time>
      </trkpt>
      <trkpt lat="45.96722" lon="6.59635">
        <ele>1330.6</ele>
        <time>2026-02-02T07:05:27Z</time>
      </trkpt>
      <trkpt lat="45.96722" lon="6.59635">
        <ele>1330.8</ele>
        <time>2026-02-02T07:05:28Z</time>
      </trkpt>
      <trkpt lat="45.96722" lon="6.59637">
        <ele>1331.1</ele>
        <time>2026-02-02T07:05:29Z</time>
      </trkpt>
      <trkpt lat="45.96723" lon="6.59637">
        <ele>1331.4</ele>
        <time>2026-02-02T07:05:30Z</time>
      </trkpt>
      <trkpt lat="45.96724" lon="6.59638">
        <ele>1331.7</ele>
        <time>2026-02-02T07:05:31Z</time>
      </trkpt>
      <trkpt lat="45.96725" lon="6.59639">
        <ele>1331.8</ele>
        <time>2026-02-02T07:05:32Z</time>
      </trkpt>
      <trkpt lat="45.96725" lon="6.59639">
        <ele>1332</ele>
        <time>2026-02-02T07:05:33Z</time>
      </trkpt>
      <trkpt lat="45.96726" lon="6.59639">
        <ele>1332.2</ele>
        <time>2026-02-02T07:05:34Z</time>
      </trkpt>
      <trkpt lat="45.96727" lon="6.5964">
        <ele>1332.4</ele>
        <time>2026-02-02T07:05:35Z</time>
      </trkpt>
      <trkpt lat="45.96728" lon="6.59639">
        <ele>1332.7</ele>
        <time>2026-02-02T07:05:36Z</time>
      </trkpt>
      <trkpt lat="45.96728" lon="6.5964">
        <ele>1332.9</ele>
        <time>2026-02-02T07:05:37Z</time>
      </trkpt>
      <trkpt lat="45.9673" lon="6.59641">
        <ele>1333.2</ele>
        <time>2026-02-02T07:05:38Z</time>
      </trkpt>
      <trkpt lat="45.9673" lon="6.59642">
        <ele>1333.5</ele>
        <time>2026-02-02T07:05:39Z</time>
      </trkpt>
      <trkpt lat="45.96731" lon="6.59644">
        <ele>1333.8</ele>
        <time>2026-02-02T07:05:40Z</time>
      </trkpt>
      <trkpt lat="45.96732" lon="6.59645">
        <ele>1334</ele>
        <time>2026-02-02T07:05:41Z</time>
      </trkpt>
      <trkpt lat="45.96732" lon="6.59645">
        <ele>1334.1</ele>
        <time>2026-02-02T07:05:42Z</time>
      </trkpt>
      <trkpt lat="45.96732" lon="6.59645">
        <ele>1334.2</ele>
        <time>2026-02-02T07:05:43Z</time>
      </trkpt>
      <trkpt lat="45.96733" lon="6.59646">
        <ele>1334.5</ele>
        <time>2026-02-02T07:05:44Z</time>
      </trkpt>
      <trkpt lat="45.96734" lon="6.59647">
        <ele>1334.6</ele>
        <time>2026-02-02T07:05:45Z</time>
      </trkpt>
      <trkpt lat="45.96734" lon="6.59648">
        <ele>1334.8</ele>
        <time>2026-02-02T07:05:46Z</time>
      </trkpt>
      <trkpt lat="45.96735" lon="6.59648">
        <ele>1334.9</ele>
        <time>2026-02-02T07:05:47Z</time>
      </trkpt>
      <trkpt lat="45.96736" lon="6.59649">
        <ele>1335.1</ele>
        <time>2026-02-02T07:05:48Z</time>
      </trkpt>
      <trkpt lat="45.96737" lon="6.5965">
        <ele>1335.4</ele>
        <time>2026-02-02T07:05:49Z</time>
      </trkpt>
      <trkpt lat="45.96737" lon="6.59651">
        <ele>1335.6</ele>
        <time>2026-02-02T07:05:50Z</time>
      </trkpt>
      <trkpt lat="45.96738" lon="6.59651">
        <ele>1335.8</ele>
        <time>2026-02-02T07:05:51Z</time>
      </trkpt>
      <trkpt lat="45.96739" lon="6.59652">
        <ele>1335.9</ele>
        <time>2026-02-02T07:05:52Z</time>
      </trkpt>
      <trkpt lat="45.9674" lon="6.59654">
        <ele>1336.2</ele>
        <time>2026-02-02T07:05:53Z</time>
      </trkpt>
      <trkpt lat="45.96742" lon="6.59653">
        <ele>1336.4</ele>
        <time>2026-02-02T07:05:54Z</time>
      </trkpt>
      <trkpt lat="45.96742" lon="6.59654">
        <ele>1336.5</ele>
        <time>2026-02-02T07:05:55Z</time>
      </trkpt>
      <trkpt lat="45.96742" lon="6.59654">
        <ele>1336.6</ele>
        <time>2026-02-02T07:05:56Z</time>
      </trkpt>
      <trkpt lat="45.96744" lon="6.59656">
        <ele>1336.9</ele>
        <time>2026-02-02T07:05:57Z</time>
      </trkpt>
      <trkpt lat="45.96744" lon="6.59656">
        <ele>1337</ele>
        <time>2026-02-02T07:05:58Z</time>
      </trkpt>
      <trkpt lat="45.96745" lon="6.59657">
        <ele>1337.2</ele>
        <time>2026-02-02T07:05:59Z</time>
      </trkpt>
      <trkpt lat="45.96746" lon="6.59657">
        <ele>1337.3</ele>
        <time>2026-02-02T07:06:00Z</time>
      </trkpt>
      <trkpt lat="45.96747" lon="6.59658">
        <ele>1337.5</ele>
        <time>2026-02-02T07:06:01Z</time>
      </trkpt>
      <trkpt lat="45.96748" lon="6.59659">
        <ele>1337.7</ele>
        <time>2026-02-02T07:06:02Z</time>
      </trkpt>
      <trkpt lat="45.96749" lon="6.59659">
        <ele>1337.8</ele>
        <time>2026-02-02T07:06:03Z</time>
      </trkpt>
      <trkpt lat="45.9675" lon="6.5966">
        <ele>1338</ele>
        <time>2026-02-02T07:06:04Z</time>
      </trkpt>
      <trkpt lat="45.96751" lon="6.59661">
        <ele>1338.2</ele>
        <time>2026-02-02T07:06:05Z</time>
      </trkpt>
      <trkpt lat="45.96753" lon="6.59662">
        <ele>1338.5</ele>
        <time>2026-02-02T07:06:06Z</time>
      </trkpt>
      <trkpt lat="45.96754" lon="6.59662">
        <ele>1338.6</ele>
        <time>2026-02-02T07:06:07Z</time>
      </trkpt>
      <trkpt lat="45.96755" lon="6.59662">
        <ele>1338.8</ele>
        <time>2026-02-02T07:06:08Z</time>
      </trkpt>
      <trkpt lat="45.96756" lon="6.59662">
        <ele>1338.9</ele>
        <time>2026-02-02T07:06:09Z</time>
      </trkpt>
      <trkpt lat="45.96757" lon="6.59661">
        <ele>1339.1</ele>
        <time>2026-02-02T07:06:10Z</time>
      </trkpt>
      <trkpt lat="45.96758" lon="6.59661">
        <ele>1339.2</ele>
        <time>2026-02-02T07:06:11Z</time>
      </trkpt>
      <trkpt lat="45.96759" lon="6.59662">
        <ele>1339.5</ele>
        <time>2026-02-02T07:06:12Z</time>
      </trkpt>
      <trkpt lat="45.9676" lon="6.59663">
        <ele>1339.6</ele>
        <time>2026-02-02T07:06:13Z</time>
      </trkpt>
      <trkpt lat="45.96761" lon="6.59664">
        <ele>1339.8</ele>
        <time>2026-02-02T07:06:14Z</time>
      </trkpt>
      <trkpt lat="45.96761" lon="6.59664">
        <ele>1339.9</ele>
        <time>2026-02-02T07:06:15Z</time>
      </trkpt>
      <trkpt lat="45.96762" lon="6.59665">
        <ele>1340.1</ele>
        <time>2026-02-02T07:06:16Z</time>
      </trkpt>
      <trkpt lat="45.96763" lon="6.59665">
        <ele>1340.2</ele>
        <time>2026-02-02T07:06:17Z</time>
      </trkpt>
      <trkpt lat="45.96763" lon="6.59665">
        <ele>1340.3</ele>
        <time>2026-02-02T07:06:18Z</time>
      </trkpt>
      <trkpt lat="45.96764" lon="6.59666">
        <ele>1340.4</ele>
        <time>2026-02-02T07:06:19Z</time>
      </trkpt>
      <trkpt lat="45.96764" lon="6.59666">
        <ele>1340.5</ele>
        <time>2026-02-02T07:06:20Z</time>
      </trkpt>
      <trkpt lat="45.96765" lon="6.59667">
        <ele>1340.7</ele>
        <time>2026-02-02T07:06:21Z</time>
      </trkpt>
      <trkpt lat="45.96766" lon="6.59667">
        <ele>1340.8</ele>
        <time>2026-02-02T07:06:22Z</time>
      </trkpt>
      <trkpt lat="45.96767" lon="6.59666">
        <ele>1341</ele>
        <time>2026-02-02T07:06:23Z</time>
      </trkpt>
      <trkpt lat="45.96768" lon="6.59667">
        <ele>1341.2</ele>
        <time>2026-02-02T07:06:24Z</time>
      </trkpt>
      <trkpt lat="45.96769" lon="6.59666">
        <ele>1341.4</ele>
        <time>2026-02-02T07:06:25Z</time>
      </trkpt>
      <trkpt lat="45.9677" lon="6.59666">
        <ele>1341.6</ele>
        <time>2026-02-02T07:06:26Z</time>
      </trkpt>
      <trkpt lat="45.9677" lon="6.59667">
        <ele>1341.7</ele>
        <time>2026-02-02T07:06:27Z</time>
      </trkpt>
      <trkpt lat="45.96771" lon="6.59667">
        <ele>1341.9</ele>
        <time>2026-02-02T07:06:28Z</time>
      </trkpt>
      <trkpt lat="45.96772" lon="6.59667">
        <ele>1342.1</ele>
        <time>2026-02-02T07:06:29Z</time>
      </trkpt>
      <trkpt lat="45.96772" lon="6.59667">
        <ele>1342.2</ele>
        <time>2026-02-02T07:06:30Z</time>
      </trkpt>
      <trkpt lat="45.96773" lon="6.59667">
        <ele>1342.3</ele>
        <time>2026-02-02T07:06:31Z</time>
      </trkpt>
      <trkpt lat="45.96774" lon="6.59667">
        <ele>1342.4</ele>
        <time>2026-02-02T07:06:32Z</time>
      </trkpt>
      <trkpt lat="45.96775" lon="6.59667">
        <ele>1342.7</ele>
        <time>2026-02-02T07:06:33Z</time>
      </trkpt>
      <trkpt lat="45.96776" lon="6.59667">
        <ele>1343</ele>
        <time>2026-02-02T07:06:34Z</time>
      </trkpt>
      <trkpt lat="45.96777" lon="6.59667">
        <ele>1343.2</ele>
        <time>2026-02-02T07:06:35Z</time>
      </trkpt>
      <trkpt lat="45.96779" lon="6.59668">
        <ele>1343.6</ele>
        <time>2026-02-02T07:06:36Z</time>
      </trkpt>
      <trkpt lat="45.9678" lon="6.59668">
        <ele>1343.8</ele>
        <time>2026-02-02T07:06:37Z</time>
      </trkpt>
      <trkpt lat="45.96781" lon="6.59668">
        <ele>1344.1</ele>
        <time>2026-02-02T07:06:38Z</time>
      </trkpt>
      <trkpt lat="45.96782" lon="6.59668">
        <ele>1344.4</ele>
        <time>2026-02-02T07:06:39Z</time>
      </trkpt>
      <trkpt lat="45.96783" lon="6.59668">
        <ele>1344.5</ele>
        <time>2026-02-02T07:06:40Z</time>
      </trkpt>
      <trkpt lat="45.96784" lon="6.59668">
        <ele>1344.9</ele>
        <time>2026-02-02T07:06:41Z</time>
      </trkpt>
      <trkpt lat="45.96785" lon="6.59668">
        <ele>1345.2</ele>
        <time>2026-02-02T07:06:42Z</time>
      </trkpt>
      <trkpt lat="45.96786" lon="6.59668">
        <ele>1345.4</ele>
        <time>2026-02-02T07:06:43Z</time>
      </trkpt>
      <trkpt lat="45.96788" lon="6.59669">
        <ele>1345.9</ele>
        <time>2026-02-02T07:06:44Z</time>
      </trkpt>
      <trkpt lat="45.96788" lon="6.59669">
        <ele>1346.1</ele>
        <time>2026-02-02T07:06:45Z</time>
      </trkpt>
      <trkpt lat="45.96789" lon="6.59669">
        <ele>1346.3</ele>
        <time>2026-02-02T07:06:46Z</time>
      </trkpt>
      <trkpt lat="45.9679" lon="6.59669">
        <ele>1346.5</ele>
        <time>2026-02-02T07:06:47Z</time>
      </trkpt>
      <trkpt lat="45.96791" lon="6.59668">
        <ele>1346.7</ele>
        <time>2026-02-02T07:06:48Z</time>
      </trkpt>
      <trkpt lat="45.96791" lon="6.59669">
        <ele>1346.9</ele>
        <time>2026-02-02T07:06:49Z</time>
      </trkpt>
      <trkpt lat="45.96792" lon="6.59668">
        <ele>1347</ele>
        <time>2026-02-02T07:06:50Z</time>
      </trkpt>
      <trkpt lat="45.96793" lon="6.59669">
        <ele>1347.3</ele>
        <time>2026-02-02T07:06:51Z</time>
      </trkpt>
      <trkpt lat="45.96793" lon="6.59669">
        <ele>1347.5</ele>
        <time>2026-02-02T07:06:52Z</time>
      </trkpt>
      <trkpt lat="45.96794" lon="6.5967">
        <ele>1347.8</ele>
        <time>2026-02-02T07:06:53Z</time>
      </trkpt>
      <trkpt lat="45.96795" lon="6.59671">
        <ele>1348</ele>
        <time>2026-02-02T07:06:54Z</time>
      </trkpt>
      <trkpt lat="45.96795" lon="6.59671">
        <ele>1348.2</ele>
        <time>2026-02-02T07:06:55Z</time>
      </trkpt>
      <trkpt lat="45.96796" lon="6.59672">
        <ele>1348.4</ele>
        <time>2026-02-02T07:06:56Z</time>
      </trkpt>
      <trkpt lat="45.96796" lon="6.59673">
        <ele>1348.7</ele>
        <time>2026-02-02T07:06:57Z</time>
      </trkpt>
      <trkpt lat="45.96798" lon="6.59673">
        <ele>1349</ele>
        <time>2026-02-02T07:06:58Z</time>
      </trkpt>
      <trkpt lat="45.96799" lon="6.59673">
        <ele>1349.3</ele>
        <time>2026-02-02T07:06:59Z</time>
      </trkpt>
      <trkpt lat="45.96799" lon="6.59672">
        <ele>1349.6</ele>
        <time>2026-02-02T07:07:00Z</time>
      </trkpt>
      <trkpt lat="45.968" lon="6.59672">
        <ele>1349.7</ele>
        <time>2026-02-02T07:07:01Z</time>
      </trkpt>
      <trkpt lat="45.96801" lon="6.59672">
        <ele>1350</ele>
        <time>2026-02-02T07:07:02Z</time>
      </trkpt>
      <trkpt lat="45.96801" lon="6.59672">
        <ele>1350.2</ele>
        <time>2026-02-02T07:07:03Z</time>
      </trkpt>
      <trkpt lat="45.96802" lon="6.59672">
        <ele>1350.3</ele>
        <time>2026-02-02T07:07:04Z</time>
      </trkpt>
      <trkpt lat="45.96802" lon="6.59673">
        <ele>1350.5</ele>
        <time>2026-02-02T07:07:05Z</time>
      </trkpt>
      <trkpt lat="45.96803" lon="6.59673">
        <ele>1350.7</ele>
        <time>2026-02-02T07:07:06Z</time>
      </trkpt>
      <trkpt lat="45.96803" lon="6.59674">
        <ele>1350.9</ele>
        <time>2026-02-02T07:07:07Z</time>
      </trkpt>
      <trkpt lat="45.96803" lon="6.59674">
        <ele>1351.1</ele>
        <time>2026-02-02T07:07:08Z</time>
      </trkpt>
      <trkpt lat="45.96804" lon="6.59675">
        <ele>1351.3</ele>
        <time>2026-02-02T07:07:09Z</time>
      </trkpt>
      <trkpt lat="45.96805" lon="6.59675">
        <ele>1351.5</ele>
        <time>2026-02-02T07:07:10Z</time>
      </trkpt>
      <trkpt lat="45.96805" lon="6.59675">
        <ele>1351.8</ele>
        <time>2026-02-02T07:07:11Z</time>
      </trkpt>
      <trkpt lat="45.96806" lon="6.59676">
        <ele>1352</ele>
        <time>2026-02-02T07:07:12Z</time>
      </trkpt>
      <trkpt lat="45.96806" lon="6.59677">
        <ele>1352.3</ele>
        <time>2026-02-02T07:07:13Z</time>
      </trkpt>
      <trkpt lat="45.96807" lon="6.59677">
        <ele>1352.4</ele>
        <time>2026-02-02T07:07:14Z</time>
      </trkpt>
      <trkpt lat="45.96808" lon="6.59677">
        <ele>1352.8</ele>
        <time>2026-02-02T07:07:15Z</time>
      </trkpt>
      <trkpt lat="45.96809" lon="6.59677">
        <ele>1353</ele>
        <time>2026-02-02T07:07:16Z</time>
      </trkpt>
      <trkpt lat="45.96809" lon="6.59678">
        <ele>1353.1</ele>
        <time>2026-02-02T07:07:17Z</time>
      </trkpt>
      <trkpt lat="45.9681" lon="6.59678">
        <ele>1353.4</ele>
        <time>2026-02-02T07:07:18Z</time>
      </trkpt>
      <trkpt lat="45.9681" lon="6.59678">
        <ele>1353.6</ele>
        <time>2026-02-02T07:07:19Z</time>
      </trkpt>
      <trkpt lat="45.96811" lon="6.59678">
        <ele>1353.8</ele>
        <time>2026-02-02T07:07:20Z</time>
      </trkpt>
      <trkpt lat="45.96812" lon="6.59678">
        <ele>1354</ele>
        <time>2026-02-02T07:07:21Z</time>
      </trkpt>
      <trkpt lat="45.96813" lon="6.59677">
        <ele>1354.3</ele>
        <time>2026-02-02T07:07:22Z</time>
      </trkpt>
      <trkpt lat="45.96814" lon="6.59678">
        <ele>1354.7</ele>
        <time>2026-02-02T07:07:23Z</time>
      </trkpt>
      <trkpt lat="45.96815" lon="6.59678">
        <ele>1355</ele>
        <time>2026-02-02T07:07:24Z</time>
      </trkpt>
      <trkpt lat="45.96816" lon="6.59677">
        <ele>1355.4</ele>
        <time>2026-02-02T07:07:25Z</time>
      </trkpt>
      <trkpt lat="45.96817" lon="6.59678">
        <ele>1355.7</ele>
        <time>2026-02-02T07:07:26Z</time>
      </trkpt>
      <trkpt lat="45.96817" lon="6.59679">
        <ele>1355.8</ele>
        <time>2026-02-02T07:07:27Z</time>
      </trkpt>
      <trkpt lat="45.96818" lon="6.59679">
        <ele>1356.1</ele>
        <time>2026-02-02T07:07:28Z</time>
      </trkpt>
      <trkpt lat="45.96818" lon="6.5968">
        <ele>1356.3</ele>
        <time>2026-02-02T07:07:29Z</time>
      </trkpt>
      <trkpt lat="45.96819" lon="6.59679">
        <ele>1356.6</ele>
        <time>2026-02-02T07:07:30Z</time>
      </trkpt>
      <trkpt lat="45.9682" lon="6.59679">
        <ele>1356.8</ele>
        <time>2026-02-02T07:07:31Z</time>
      </trkpt>
      <trkpt lat="45.9682" lon="6.59678">
        <ele>1356.9</ele>
        <time>2026-02-02T07:07:32Z</time>
      </trkpt>
      <trkpt lat="45.96821" lon="6.59679">
        <ele>1357.1</ele>
        <time>2026-02-02T07:07:33Z</time>
      </trkpt>
      <trkpt lat="45.96821" lon="6.59679">
        <ele>1357.3</ele>
        <time>2026-02-02T07:07:34Z</time>
      </trkpt>
      <trkpt lat="45.96822" lon="6.59679">
        <ele>1357.5</ele>
        <time>2026-02-02T07:07:35Z</time>
      </trkpt>
      <trkpt lat="45.96822" lon="6.5968">
        <ele>1357.6</ele>
        <time>2026-02-02T07:07:36Z</time>
      </trkpt>
      <trkpt lat="45.96823" lon="6.59679">
        <ele>1358</ele>
        <time>2026-02-02T07:07:37Z</time>
      </trkpt>
      <trkpt lat="45.96824" lon="6.59679">
        <ele>1358.2</ele>
        <time>2026-02-02T07:07:38Z</time>
      </trkpt>
      <trkpt lat="45.96825" lon="6.5968">
        <ele>1358.5</ele>
        <time>2026-02-02T07:07:39Z</time>
      </trkpt>
      <trkpt lat="45.96826" lon="6.5968">
        <ele>1358.7</ele>
        <time>2026-02-02T07:07:40Z</time>
      </trkpt>
      <trkpt lat="45.96826" lon="6.5968">
        <ele>1358.9</ele>
        <time>2026-02-02T07:07:41Z</time>
      </trkpt>
      <trkpt lat="45.96827" lon="6.5968">
        <ele>1359.1</ele>
        <time>2026-02-02T07:07:42Z</time>
      </trkpt>
      <trkpt lat="45.96828" lon="6.59681">
        <ele>1359.3</ele>
        <time>2026-02-02T07:07:43Z</time>
      </trkpt>
      <trkpt lat="45.96829" lon="6.59681">
        <ele>1359.6</ele>
        <time>2026-02-02T07:07:44Z</time>
      </trkpt>
      <trkpt lat="45.9683" lon="6.59682">
        <ele>1359.9</ele>
        <time>2026-02-02T07:07:45Z</time>
      </trkpt>
      <trkpt lat="45.96831" lon="6.59681">
        <ele>1360.2</ele>
        <time>2026-02-02T07:07:46Z</time>
      </trkpt>
      <trkpt lat="45.96831" lon="6.5968">
        <ele>1360.4</ele>
        <time>2026-02-02T07:07:47Z</time>
      </trkpt>
      <trkpt lat="45.96832" lon="6.59679">
        <ele>1360.7</ele>
        <time>2026-02-02T07:07:48Z</time>
      </trkpt>
      <trkpt lat="45.96832" lon="6.59679">
        <ele>1360.9</ele>
        <time>2026-02-02T07:07:49Z</time>
      </trkpt>
      <trkpt lat="45.96833" lon="6.59678">
        <ele>1361.1</ele>
        <time>2026-02-02T07:07:50Z</time>
      </trkpt>
      <trkpt lat="45.96834" lon="6.59678">
        <ele>1361.4</ele>
        <time>2026-02-02T07:07:51Z</time>
      </trkpt>
      <trkpt lat="45.96835" lon="6.59678">
        <ele>1361.6</ele>
        <time>2026-02-02T07:07:52Z</time>
      </trkpt>
      <trkpt lat="45.96836" lon="6.59677">
        <ele>1361.9</ele>
        <time>2026-02-02T07:07:53Z</time>
      </trkpt>
      <trkpt lat="45.96836" lon="6.59677">
        <ele>1362.1</ele>
        <time>2026-02-02T07:07:54Z</time>
      </trkpt>
      <trkpt lat="45.96837" lon="6.59677">
        <ele>1362.3</ele>
        <time>2026-02-02T07:07:55Z</time>
      </trkpt>
      <trkpt lat="45.96838" lon="6.59676">
        <ele>1362.5</ele>
        <time>2026-02-02T07:07:56Z</time>
      </trkpt>
      <trkpt lat="45.96839" lon="6.59676">
        <ele>1362.8</ele>
        <time>2026-02-02T07:07:57Z</time>
      </trkpt>
      <trkpt lat="45.9684" lon="6.59676">
        <ele>1363</ele>
        <time>2026-02-02T07:07:58Z</time>
      </trkpt>
      <trkpt lat="45.96841" lon="6.59676">
        <ele>1363.3</ele>
        <time>2026-02-02T07:07:59Z</time>
      </trkpt>
      <trkpt lat="45.96842" lon="6.59676">
        <ele>1363.5</ele>
        <time>2026-02-02T07:08:00Z</time>
      </trkpt>
      <trkpt lat="45.96842" lon="6.59675">
        <ele>1363.8</ele>
        <time>2026-02-02T07:08:01Z</time>
      </trkpt>
      <trkpt lat="45.96843" lon="6.59675">
        <ele>1364</ele>
        <time>2026-02-02T07:08:02Z</time>
      </trkpt>
      <trkpt lat="45.96843" lon="6.59674">
        <ele>1364.1</ele>
        <time>2026-02-02T07:08:03Z</time>
      </trkpt>
      <trkpt lat="45.96844" lon="6.59674">
        <ele>1364.3</ele>
        <time>2026-02-02T07:08:04Z</time>
      </trkpt>
      <trkpt lat="45.96845" lon="6.59674">
        <ele>1364.4</ele>
        <time>2026-02-02T07:08:05Z</time>
      </trkpt>
      <trkpt lat="45.96845" lon="6.59675">
        <ele>1364.6</ele>
        <time>2026-02-02T07:08:06Z</time>
      </trkpt>
      <trkpt lat="45.96846" lon="6.59675">
        <ele>1364.8</ele>
        <time>2026-02-02T07:08:07Z</time>
      </trkpt>
      <trkpt lat="45.96847" lon="6.59675">
        <ele>1365</ele>
        <time>2026-02-02T07:08:08Z</time>
      </trkpt>
      <trkpt lat="45.96847" lon="6.59676">
        <ele>1365.2</ele>
        <time>2026-02-02T07:08:09Z</time>
      </trkpt>
      <trkpt lat="45.96848" lon="6.59677">
        <ele>1365.4</ele>
        <time>2026-02-02T07:08:10Z</time>
      </trkpt>
      <trkpt lat="45.96848" lon="6.59677">
        <ele>1365.5</ele>
        <time>2026-02-02T07:08:11Z</time>
      </trkpt>
      <trkpt lat="45.96849" lon="6.59677">
        <ele>1365.7</ele>
        <time>2026-02-02T07:08:12Z</time>
      </trkpt>
      <trkpt lat="45.9685" lon="6.59676">
        <ele>1365.9</ele>
        <time>2026-02-02T07:08:13Z</time>
      </trkpt>
      <trkpt lat="45.96851" lon="6.59676">
        <ele>1366.1</ele>
        <time>2026-02-02T07:08:14Z</time>
      </trkpt>
      <trkpt lat="45.96851" lon="6.59676">
        <ele>1366.2</ele>
        <time>2026-02-02T07:08:15Z</time>
      </trkpt>
      <trkpt lat="45.96852" lon="6.59675">
        <ele>1366.4</ele>
        <time>2026-02-02T07:08:16Z</time>
      </trkpt>
      <trkpt lat="45.96852" lon="6.59674">
        <ele>1366.5</ele>
        <time>2026-02-02T07:08:17Z</time>
      </trkpt>
      <trkpt lat="45.96852" lon="6.59674">
        <ele>1366.7</ele>
        <time>2026-02-02T07:08:18Z</time>
      </trkpt>
      <trkpt lat="45.96852" lon="6.59672">
        <ele>1366.9</ele>
        <time>2026-02-02T07:08:19Z</time>
      </trkpt>
      <trkpt lat="45.96853" lon="6.59671">
        <ele>1367.2</ele>
        <time>2026-02-02T07:08:20Z</time>
      </trkpt>
      <trkpt lat="45.96853" lon="6.59669">
        <ele>1367.5</ele>
        <time>2026-02-02T07:08:21Z</time>
      </trkpt>
      <trkpt lat="45.96853" lon="6.59668">
        <ele>1367.7</ele>
        <time>2026-02-02T07:08:22Z</time>
      </trkpt>
      <trkpt lat="45.96853" lon="6.59666">
        <ele>1367.9</ele>
        <time>2026-02-02T07:08:23Z</time>
      </trkpt>
      <trkpt lat="45.96852" lon="6.59665">
        <ele>1368.2</ele>
        <time>2026-02-02T07:08:24Z</time>
      </trkpt>
      <trkpt lat="45.96852" lon="6.59663">
        <ele>1368.5</ele>
        <time>2026-02-02T07:08:25Z</time>
      </trkpt>
      <trkpt lat="45.96851" lon="6.59661">
        <ele>1368.8</ele>
        <time>2026-02-02T07:08:27Z</time>
      </trkpt>
      <trkpt lat="45.96851" lon="6.59661">
        <ele>1368.9</ele>
        <time>2026-02-02T07:08:28Z</time>
      </trkpt>
      <trkpt lat="45.96851" lon="6.59661">
        <ele>1369</ele>
        <time>2026-02-02T07:08:29Z</time>
      </trkpt>
      <trkpt lat="45.96851" lon="6.5966">
        <ele>1369.2</ele>
        <time>2026-02-02T07:08:30Z</time>
      </trkpt>
      <trkpt lat="45.9685" lon="6.5966">
        <ele>1369.3</ele>
        <time>2026-02-02T07:08:31Z</time>
      </trkpt>
      <trkpt lat="45.9685" lon="6.59659">
        <ele>1369.5</ele>
        <time>2026-02-02T07:08:32Z</time>
      </trkpt>
      <trkpt lat="45.96849" lon="6.59658">
        <ele>1369.8</ele>
        <time>2026-02-02T07:08:33Z</time>
      </trkpt>
      <trkpt lat="45.96848" lon="6.59658">
        <ele>1370.1</ele>
        <time>2026-02-02T07:08:34Z</time>
      </trkpt>
      <trkpt lat="45.96847" lon="6.59657">
        <ele>1370.3</ele>
        <time>2026-02-02T07:08:35Z</time>
      </trkpt>
      <trkpt lat="45.96846" lon="6.59657">
        <ele>1370.5</ele>
        <time>2026-02-02T07:08:36Z</time>
      </trkpt>
      <trkpt lat="45.96845" lon="6.59657">
        <ele>1370.7</ele>
        <time>2026-02-02T07:08:37Z</time>
      </trkpt>
      <trkpt lat="45.96845" lon="6.59656">
        <ele>1370.9</ele>
        <time>2026-02-02T07:08:38Z</time>
      </trkpt>
      <trkpt lat="45.96844" lon="6.59656">
        <ele>1371</ele>
        <time>2026-02-02T07:08:39Z</time>
      </trkpt>
      <trkpt lat="45.96843" lon="6.59655">
        <ele>1371.2</ele>
        <time>2026-02-02T07:08:40Z</time>
      </trkpt>
      <trkpt lat="45.96842" lon="6.59655">
        <ele>1371.6</ele>
        <time>2026-02-02T07:08:41Z</time>
      </trkpt>
      <trkpt lat="45.96841" lon="6.59655">
        <ele>1372</ele>
        <time>2026-02-02T07:08:42Z</time>
      </trkpt>
      <trkpt lat="45.9684" lon="6.59654">
        <ele>1372.3</ele>
        <time>2026-02-02T07:08:44Z</time>
      </trkpt>
      <trkpt lat="45.96839" lon="6.59653">
        <ele>1372.5</ele>
        <time>2026-02-02T07:08:45Z</time>
      </trkpt>
      <trkpt lat="45.96838" lon="6.59652">
        <ele>1372.8</ele>
        <time>2026-02-02T07:08:46Z</time>
      </trkpt>
      <trkpt lat="45.96838" lon="6.59651">
        <ele>1373</ele>
        <time>2026-02-02T07:08:47Z</time>
      </trkpt>
      <trkpt lat="45.96837" lon="6.5965">
        <ele>1373.3</ele>
        <time>2026-02-02T07:08:48Z</time>
      </trkpt>
      <trkpt lat="45.96837" lon="6.59649">
        <ele>1373.5</ele>
        <time>2026-02-02T07:08:49Z</time>
      </trkpt>
      <trkpt lat="45.96837" lon="6.59648">
        <ele>1373.6</ele>
        <time>2026-02-02T07:08:50Z</time>
      </trkpt>
      <trkpt lat="45.96836" lon="6.59647">
        <ele>1373.9</ele>
        <time>2026-02-02T07:08:51Z</time>
      </trkpt>
      <trkpt lat="45.96836" lon="6.59646">
        <ele>1374.2</ele>
        <time>2026-02-02T07:08:52Z</time>
      </trkpt>
      <trkpt lat="45.96835" lon="6.59644">
        <ele>1374.4</ele>
        <time>2026-02-02T07:08:53Z</time>
      </trkpt>
      <trkpt lat="45.96835" lon="6.59643">
        <ele>1374.6</ele>
        <time>2026-02-02T07:08:54Z</time>
      </trkpt>
      <trkpt lat="45.96834" lon="6.59643">
        <ele>1374.8</ele>
        <time>2026-02-02T07:08:55Z</time>
      </trkpt>
      <trkpt lat="45.96834" lon="6.59642">
        <ele>1375</ele>
        <time>2026-02-02T07:08:56Z</time>
      </trkpt>
      <trkpt lat="45.96833" lon="6.59641">
        <ele>1375.2</ele>
        <time>2026-02-02T07:08:57Z</time>
      </trkpt>
      <trkpt lat="45.96833" lon="6.5964">
        <ele>1375.4</ele>
        <time>2026-02-02T07:08:58Z</time>
      </trkpt>
      <trkpt lat="45.96833" lon="6.59639">
        <ele>1375.6</ele>
        <time>2026-02-02T07:08:59Z</time>
      </trkpt>
      <trkpt lat="45.96832" lon="6.59639">
        <ele>1375.8</ele>
        <time>2026-02-02T07:09:00Z</time>
      </trkpt>
      <trkpt lat="45.96831" lon="6.59639">
        <ele>1375.9</ele>
        <time>2026-02-02T07:09:01Z</time>
      </trkpt>
      <trkpt lat="45.96831" lon="6.59639">
        <ele>1376.1</ele>
        <time>2026-02-02T07:09:02Z</time>
      </trkpt>
      <trkpt lat="45.96831" lon="6.59638">
        <ele>1376.2</ele>
        <time>2026-02-02T07:09:03Z</time>
      </trkpt>
      <trkpt lat="45.9683" lon="6.59637">
        <ele>1376.5</ele>
        <time>2026-02-02T07:09:04Z</time>
      </trkpt>
      <trkpt lat="45.96829" lon="6.59636">
        <ele>1376.7</ele>
        <time>2026-02-02T07:09:05Z</time>
      </trkpt>
      <trkpt lat="45.96829" lon="6.59635">
        <ele>1376.9</ele>
        <time>2026-02-02T07:09:06Z</time>
      </trkpt>
      <trkpt lat="45.96829" lon="6.59635">
        <ele>1377</ele>
        <time>2026-02-02T07:09:07Z</time>
      </trkpt>
      <trkpt lat="45.96829" lon="6.59634">
        <ele>1377.2</ele>
        <time>2026-02-02T07:09:08Z</time>
      </trkpt>
      <trkpt lat="45.96828" lon="6.59633">
        <ele>1377.4</ele>
        <time>2026-02-02T07:09:09Z</time>
      </trkpt>
      <trkpt lat="45.96828" lon="6.59632">
        <ele>1377.7</ele>
        <time>2026-02-02T07:09:10Z</time>
      </trkpt>
      <trkpt lat="45.96828" lon="6.59631">
        <ele>1377.8</ele>
        <time>2026-02-02T07:09:11Z</time>
      </trkpt>
      <trkpt lat="45.96827" lon="6.5963">
        <ele>1378</ele>
        <time>2026-02-02T07:09:12Z</time>
      </trkpt>
      <trkpt lat="45.96827" lon="6.5963">
        <ele>1378.1</ele>
        <time>2026-02-02T07:09:13Z</time>
      </trkpt>
      <trkpt lat="45.96827" lon="6.59629">
        <ele>1378.3</ele>
        <time>2026-02-02T07:09:14Z</time>
      </trkpt>
      <trkpt lat="45.96827" lon="6.59627">
        <ele>1378.6</ele>
        <time>2026-02-02T07:09:15Z</time>
      </trkpt>
      <trkpt lat="45.96827" lon="6.59627">
        <ele>1378.8</ele>
        <time>2026-02-02T07:09:16Z</time>
      </trkpt>
      <trkpt lat="45.96827" lon="6.59625">
        <ele>1379</ele>
        <time>2026-02-02T07:09:17Z</time>
      </trkpt>
      <trkpt lat="45.96827" lon="6.59624">
        <ele>1379.2</ele>
        <time>2026-02-02T07:09:18Z</time>
      </trkpt>
      <trkpt lat="45.96826" lon="6.59624">
        <ele>1379.7</ele>
        <time>2026-02-02T07:09:19Z</time>
      </trkpt>
      <trkpt lat="45.96825" lon="6.59622">
        <ele>1380</ele>
        <time>2026-02-02T07:09:20Z</time>
      </trkpt>
      <trkpt lat="45.96825" lon="6.5962">
        <ele>1380.3</ele>
        <time>2026-02-02T07:09:21Z</time>
      </trkpt>
      <trkpt lat="45.96825" lon="6.59619">
        <ele>1380.7</ele>
        <time>2026-02-02T07:09:22Z</time>
      </trkpt>
      <trkpt lat="45.96824" lon="6.59618">
        <ele>1380.9</ele>
        <time>2026-02-02T07:09:23Z</time>
      </trkpt>
      <trkpt lat="45.96824" lon="6.59617">
        <ele>1381.2</ele>
        <time>2026-02-02T07:09:24Z</time>
      </trkpt>
      <trkpt lat="45.96823" lon="6.59617">
        <ele>1381.4</ele>
        <time>2026-02-02T07:09:25Z</time>
      </trkpt>
      <trkpt lat="45.96823" lon="6.59616">
        <ele>1381.6</ele>
        <time>2026-02-02T07:09:26Z</time>
      </trkpt>
      <trkpt lat="45.96822" lon="6.59614">
        <ele>1382.1</ele>
        <time>2026-02-02T07:09:27Z</time>
      </trkpt>
      <trkpt lat="45.96821" lon="6.59613">
        <ele>1382.3</ele>
        <time>2026-02-02T07:09:28Z</time>
      </trkpt>
      <trkpt lat="45.96821" lon="6.59612">
        <ele>1382.5</ele>
        <time>2026-02-02T07:09:29Z</time>
      </trkpt>
      <trkpt lat="45.9682" lon="6.59612">
        <ele>1382.7</ele>
        <time>2026-02-02T07:09:30Z</time>
      </trkpt>
      <trkpt lat="45.9682" lon="6.5961">
        <ele>1383</ele>
        <time>2026-02-02T07:09:31Z</time>
      </trkpt>
      <trkpt lat="45.96819" lon="6.59608">
        <ele>1383.4</ele>
        <time>2026-02-02T07:09:32Z</time>
      </trkpt>
      <trkpt lat="45.96819" lon="6.59606">
        <ele>1383.7</ele>
        <time>2026-02-02T07:09:33Z</time>
      </trkpt>
      <trkpt lat="45.96818" lon="6.59605">
        <ele>1384</ele>
        <time>2026-02-02T07:09:34Z</time>
      </trkpt>
      <trkpt lat="45.96818" lon="6.59605">
        <ele>1384.2</ele>
        <time>2026-02-02T07:09:35Z</time>
      </trkpt>
      <trkpt lat="45.96817" lon="6.59604">
        <ele>1384.4</ele>
        <time>2026-02-02T07:09:36Z</time>
      </trkpt>
      <trkpt lat="45.96817" lon="6.59603">
        <ele>1384.6</ele>
        <time>2026-02-02T07:09:37Z</time>
      </trkpt>
      <trkpt lat="45.96817" lon="6.59602">
        <ele>1384.8</ele>
        <time>2026-02-02T07:09:38Z</time>
      </trkpt>
      <trkpt lat="45.96817" lon="6.59603">
        <ele>1385</ele>
        <time>2026-02-02T07:09:39Z</time>
      </trkpt>
      <trkpt lat="45.96817" lon="6.59603">
        <ele>1385</ele>
        <time>2026-02-02T07:09:40Z</time>
      </trkpt>
      <trkpt lat="45.96817" lon="6.59603">
        <ele>1385</ele>
        <time>2026-02-02T07:09:41Z</time>
      </trkpt>
      <trkpt lat="45.96818" lon="6.59602">
        <ele>1385.2</ele>
        <time>2026-02-02T07:09:42Z</time>
      </trkpt>
      <trkpt lat="45.96818" lon="6.59602">
        <ele>1385.4</ele>
        <time>2026-02-02T07:09:43Z</time>
      </trkpt>
      <trkpt lat="45.96818" lon="6.59602">
        <ele>1385.5</ele>
        <time>2026-02-02T07:09:44Z</time>
      </trkpt>
      <trkpt lat="45.96819" lon="6.59601">
        <ele>1385.7</ele>
        <time>2026-02-02T07:09:45Z</time>
      </trkpt>
      <trkpt lat="45.9682" lon="6.596">
        <ele>1386</ele>
        <time>2026-02-02T07:09:46Z</time>
      </trkpt>
      <trkpt lat="45.96821" lon="6.59599">
        <ele>1386.2</ele>
        <time>2026-02-02T07:09:47Z</time>
      </trkpt>
      <trkpt lat="45.96822" lon="6.59599">
        <ele>1386.5</ele>
        <time>2026-02-02T07:09:48Z</time>
      </trkpt>
      <trkpt lat="45.96822" lon="6.59599">
        <ele>1386.6</ele>
        <time>2026-02-02T07:09:49Z</time>
      </trkpt>
      <trkpt lat="45.96823" lon="6.596">
        <ele>1386.8</ele>
        <time>2026-02-02T07:09:50Z</time>
      </trkpt>
      <trkpt lat="45.96824" lon="6.59601">
        <ele>1387.1</ele>
        <time>2026-02-02T07:09:51Z</time>
      </trkpt>
      <trkpt lat="45.96824" lon="6.59602">
        <ele>1387.3</ele>
        <time>2026-02-02T07:09:52Z</time>
      </trkpt>
      <trkpt lat="45.96825" lon="6.59602">
        <ele>1387.4</ele>
        <time>2026-02-02T07:09:53Z</time>
      </trkpt>
      <trkpt lat="45.96825" lon="6.59603">
        <ele>1387.7</ele>
        <time>2026-02-02T07:09:54Z</time>
      </trkpt>
      <trkpt lat="45.96826" lon="6.59604">
        <ele>1387.9</ele>
        <time>2026-02-02T07:09:55Z</time>
      </trkpt>
      <trkpt lat="45.96827" lon="6.59604">
        <ele>1388.2</ele>
        <time>2026-02-02T07:09:56Z</time>
      </trkpt>
      <trkpt lat="45.96828" lon="6.59605">
        <ele>1388.4</ele>
        <time>2026-02-02T07:09:57Z</time>
      </trkpt>
      <trkpt lat="45.9683" lon="6.59606">
        <ele>1388.8</ele>
        <time>2026-02-02T07:09:58Z</time>
      </trkpt>
      <trkpt lat="45.96831" lon="6.59607">
        <ele>1389</ele>
        <time>2026-02-02T07:09:59Z</time>
      </trkpt>
      <trkpt lat="45.96831" lon="6.59607">
        <ele>1389.1</ele>
        <time>2026-02-02T07:10:00Z</time>
      </trkpt>
      <trkpt lat="45.96831" lon="6.59607">
        <ele>1389.2</ele>
        <time>2026-02-02T07:10:01Z</time>
      </trkpt>
      <trkpt lat="45.96832" lon="6.59607">
        <ele>1389.3</ele>
        <time>2026-02-02T07:10:02Z</time>
      </trkpt>
      <trkpt lat="45.96833" lon="6.59608">
        <ele>1389.6</ele>
        <time>2026-02-02T07:10:03Z</time>
      </trkpt>
      <trkpt lat="45.96833" lon="6.59608">
        <ele>1389.7</ele>
        <time>2026-02-02T07:10:04Z</time>
      </trkpt>
      <trkpt lat="45.96834" lon="6.59608">
        <ele>1389.8</ele>
        <time>2026-02-02T07:10:05Z</time>
      </trkpt>
      <trkpt lat="45.96834" lon="6.59609">
        <ele>1390</ele>
        <time>2026-02-02T07:10:06Z</time>
      </trkpt>
      <trkpt lat="45.96835" lon="6.59609">
        <ele>1390.1</ele>
        <time>2026-02-02T07:10:07Z</time>
      </trkpt>
      <trkpt lat="45.96836" lon="6.59608">
        <ele>1390.4</ele>
        <time>2026-02-02T07:10:08Z</time>
      </trkpt>
      <trkpt lat="45.96837" lon="6.59608">
        <ele>1390.6</ele>
        <time>2026-02-02T07:10:09Z</time>
      </trkpt>
      <trkpt lat="45.96837" lon="6.59606">
        <ele>1390.8</ele>
        <time>2026-02-02T07:10:10Z</time>
      </trkpt>
      <trkpt lat="45.96838" lon="6.59605">
        <ele>1391.1</ele>
        <time>2026-02-02T07:10:11Z</time>
      </trkpt>
      <trkpt lat="45.96838" lon="6.59603">
        <ele>1391.4</ele>
        <time>2026-02-02T07:10:12Z</time>
      </trkpt>
      <trkpt lat="45.96839" lon="6.59602">
        <ele>1391.6</ele>
        <time>2026-02-02T07:10:13Z</time>
      </trkpt>
      <trkpt lat="45.96839" lon="6.59601">
        <ele>1391.8</ele>
        <time>2026-02-02T07:10:14Z</time>
      </trkpt>
      <trkpt lat="45.96839" lon="6.59599">
        <ele>1392</ele>
        <time>2026-02-02T07:10:15Z</time>
      </trkpt>
      <trkpt lat="45.96839" lon="6.59598">
        <ele>1392.2</ele>
        <time>2026-02-02T07:10:16Z</time>
      </trkpt>
      <trkpt lat="45.96838" lon="6.59598">
        <ele>1392.4</ele>
        <time>2026-02-02T07:10:17Z</time>
      </trkpt>
      <trkpt lat="45.96837" lon="6.59598">
        <ele>1392.6</ele>
        <time>2026-02-02T07:10:18Z</time>
      </trkpt>
      <trkpt lat="45.96836" lon="6.59597">
        <ele>1392.8</ele>
        <time>2026-02-02T07:10:19Z</time>
      </trkpt>
      <trkpt lat="45.96835" lon="6.59597">
        <ele>1393</ele>
        <time>2026-02-02T07:10:20Z</time>
      </trkpt>
      <trkpt lat="45.96834" lon="6.59596">
        <ele>1393.2</ele>
        <time>2026-02-02T07:10:21Z</time>
      </trkpt>
      <trkpt lat="45.96833" lon="6.59596">
        <ele>1393.5</ele>
        <time>2026-02-02T07:10:22Z</time>
      </trkpt>
      <trkpt lat="45.96832" lon="6.59595">
        <ele>1393.8</ele>
        <time>2026-02-02T07:10:23Z</time>
      </trkpt>
      <trkpt lat="45.96831" lon="6.59594">
        <ele>1394</ele>
        <time>2026-02-02T07:10:24Z</time>
      </trkpt>
      <trkpt lat="45.96831" lon="6.59593">
        <ele>1394.1</ele>
        <time>2026-02-02T07:10:25Z</time>
      </trkpt>
      <trkpt lat="45.9683" lon="6.59592">
        <ele>1394.4</ele>
        <time>2026-02-02T07:10:26Z</time>
      </trkpt>
      <trkpt lat="45.9683" lon="6.59591">
        <ele>1394.6</ele>
        <time>2026-02-02T07:10:27Z</time>
      </trkpt>
      <trkpt lat="45.96829" lon="6.5959">
        <ele>1394.8</ele>
        <time>2026-02-02T07:10:28Z</time>
      </trkpt>
      <trkpt lat="45.96828" lon="6.5959">
        <ele>1394.9</ele>
        <time>2026-02-02T07:10:29Z</time>
      </trkpt>
      <trkpt lat="45.96828" lon="6.5959">
        <ele>1395.1</ele>
        <time>2026-02-02T07:10:30Z</time>
      </trkpt>
      <trkpt lat="45.96827" lon="6.59589">
        <ele>1395.1</ele>
        <time>2026-02-02T07:10:31Z</time>
      </trkpt>
      <trkpt lat="45.96827" lon="6.59589">
        <ele>1395.3</ele>
        <time>2026-02-02T07:10:32Z</time>
      </trkpt>
      <trkpt lat="45.96826" lon="6.59588">
        <ele>1395.5</ele>
        <time>2026-02-02T07:10:33Z</time>
      </trkpt>
      <trkpt lat="45.96825" lon="6.59587">
        <ele>1395.7</ele>
        <time>2026-02-02T07:10:34Z</time>
      </trkpt>
      <trkpt lat="45.96825" lon="6.59586">
        <ele>1395.8</ele>
        <time>2026-02-02T07:10:35Z</time>
      </trkpt>
      <trkpt lat="45.96825" lon="6.59586">
        <ele>1395.9</ele>
        <time>2026-02-02T07:10:36Z</time>
      </trkpt>
      <trkpt lat="45.96824" lon="6.59585">
        <ele>1396.1</ele>
        <time>2026-02-02T07:10:37Z</time>
      </trkpt>
      <trkpt lat="45.96824" lon="6.59583">
        <ele>1396.4</ele>
        <time>2026-02-02T07:10:38Z</time>
      </trkpt>
      <trkpt lat="45.96824" lon="6.59582">
        <ele>1396.5</ele>
        <time>2026-02-02T07:10:39Z</time>
      </trkpt>
      <trkpt lat="45.96824" lon="6.59581">
        <ele>1396.6</ele>
        <time>2026-02-02T07:10:40Z</time>
      </trkpt>
      <trkpt lat="45.96824" lon="6.5958">
        <ele>1396.8</ele>
        <time>2026-02-02T07:10:41Z</time>
      </trkpt>
      <trkpt lat="45.96824" lon="6.59579">
        <ele>1396.9</ele>
        <time>2026-02-02T07:10:42Z</time>
      </trkpt>
      <trkpt lat="45.96824" lon="6.59578">
        <ele>1397.1</ele>
        <time>2026-02-02T07:10:43Z</time>
      </trkpt>
      <trkpt lat="45.96823" lon="6.59577">
        <ele>1397.2</ele>
        <time>2026-02-02T07:10:44Z</time>
      </trkpt>
      <trkpt lat="45.96823" lon="6.59576">
        <ele>1397.4</ele>
        <time>2026-02-02T07:10:45Z</time>
      </trkpt>
      <trkpt lat="45.96823" lon="6.59575">
        <ele>1397.5</ele>
        <time>2026-02-02T07:10:46Z</time>
      </trkpt>
      <trkpt lat="45.96822" lon="6.59574">
        <ele>1397.7</ele>
        <time>2026-02-02T07:10:47Z</time>
      </trkpt>
      <trkpt lat="45.96821" lon="6.59573">
        <ele>1397.9</ele>
        <time>2026-02-02T07:10:48Z</time>
      </trkpt>
      <trkpt lat="45.9682" lon="6.59572">
        <ele>1398.2</ele>
        <time>2026-02-02T07:10:49Z</time>
      </trkpt>
      <trkpt lat="45.9682" lon="6.59571">
        <ele>1398.3</ele>
        <time>2026-02-02T07:10:50Z</time>
      </trkpt>
      <trkpt lat="45.96819" lon="6.5957">
        <ele>1398.5</ele>
        <time>2026-02-02T07:10:51Z</time>
      </trkpt>
      <trkpt lat="45.96818" lon="6.59569">
        <ele>1398.8</ele>
        <time>2026-02-02T07:10:52Z</time>
      </trkpt>
      <trkpt lat="45.96817" lon="6.59568">
        <ele>1399</ele>
        <time>2026-02-02T07:10:53Z</time>
      </trkpt>
      <trkpt lat="45.96816" lon="6.59567">
        <ele>1399.2</ele>
        <time>2026-02-02T07:10:54Z</time>
      </trkpt>
      <trkpt lat="45.96815" lon="6.59566">
        <ele>1399.5</ele>
        <time>2026-02-02T07:10:55Z</time>
      </trkpt>
      <trkpt lat="45.96815" lon="6.59565">
        <ele>1399.6</ele>
        <time>2026-02-02T07:10:56Z</time>
      </trkpt>
      <trkpt lat="45.96814" lon="6.59566">
        <ele>1399.8</ele>
        <time>2026-02-02T07:10:57Z</time>
      </trkpt>
      <trkpt lat="45.96813" lon="6.59565">
        <ele>1400</ele>
        <time>2026-02-02T07:10:58Z</time>
      </trkpt>
      <trkpt lat="45.96812" lon="6.59565">
        <ele>1400.2</ele>
        <time>2026-02-02T07:10:59Z</time>
      </trkpt>
      <trkpt lat="45.96812" lon="6.59565">
        <ele>1400.3</ele>
        <time>2026-02-02T07:11:00Z</time>
      </trkpt>
      <trkpt lat="45.96811" lon="6.59564">
        <ele>1400.5</ele>
        <time>2026-02-02T07:11:01Z</time>
      </trkpt>
      <trkpt lat="45.96809" lon="6.59565">
        <ele>1400.7</ele>
        <time>2026-02-02T07:11:02Z</time>
      </trkpt>
      <trkpt lat="45.96809" lon="6.59564">
        <ele>1400.9</ele>
        <time>2026-02-02T07:11:03Z</time>
      </trkpt>
      <trkpt lat="45.96809" lon="6.59563">
        <ele>1401</ele>
        <time>2026-02-02T07:11:04Z</time>
      </trkpt>
      <trkpt lat="45.96807" lon="6.59563">
        <ele>1401.3</ele>
        <time>2026-02-02T07:11:05Z</time>
      </trkpt>
      <trkpt lat="45.96806" lon="6.59563">
        <ele>1401.6</ele>
        <time>2026-02-02T07:11:06Z</time>
      </trkpt>
      <trkpt lat="45.96805" lon="6.59562">
        <ele>1401.8</ele>
        <time>2026-02-02T07:11:07Z</time>
      </trkpt>
      <trkpt lat="45.96804" lon="6.59562">
        <ele>1402</ele>
        <time>2026-02-02T07:11:08Z</time>
      </trkpt>
      <trkpt lat="45.96803" lon="6.59563">
        <ele>1402.3</ele>
        <time>2026-02-02T07:11:09Z</time>
      </trkpt>
      <trkpt lat="45.96801" lon="6.59562">
        <ele>1402.6</ele>
        <time>2026-02-02T07:11:10Z</time>
      </trkpt>
      <trkpt lat="45.96801" lon="6.59562">
        <ele>1402.7</ele>
        <time>2026-02-02T07:11:11Z</time>
      </trkpt>
      <trkpt lat="45.968" lon="6.59561">
        <ele>1402.9</ele>
        <time>2026-02-02T07:11:12Z</time>
      </trkpt>
      <trkpt lat="45.96799" lon="6.59561">
        <ele>1403.2</ele>
        <time>2026-02-02T07:11:13Z</time>
      </trkpt>
      <trkpt lat="45.96798" lon="6.59561">
        <ele>1403.4</ele>
        <time>2026-02-02T07:11:14Z</time>
      </trkpt>
      <trkpt lat="45.96797" lon="6.5956">
        <ele>1403.6</ele>
        <time>2026-02-02T07:11:15Z</time>
      </trkpt>
      <trkpt lat="45.96796" lon="6.5956">
        <ele>1403.9</ele>
        <time>2026-02-02T07:11:16Z</time>
      </trkpt>
      <trkpt lat="45.96795" lon="6.5956">
        <ele>1404.1</ele>
        <time>2026-02-02T07:11:17Z</time>
      </trkpt>
      <trkpt lat="45.96795" lon="6.5956">
        <ele>1404.1</ele>
        <time>2026-02-02T07:11:18Z</time>
      </trkpt>
      <trkpt lat="45.96794" lon="6.5956">
        <ele>1404.3</ele>
        <time>2026-02-02T07:11:19Z</time>
      </trkpt>
      <trkpt lat="45.96793" lon="6.59559">
        <ele>1404.6</ele>
        <time>2026-02-02T07:11:20Z</time>
      </trkpt>
      <trkpt lat="45.96793" lon="6.59559">
        <ele>1404.8</ele>
        <time>2026-02-02T07:11:21Z</time>
      </trkpt>
      <trkpt lat="45.96792" lon="6.59558">
        <ele>1405</ele>
        <time>2026-02-02T07:11:22Z</time>
      </trkpt>
      <trkpt lat="45.96792" lon="6.59557">
        <ele>1405.1</ele>
        <time>2026-02-02T07:11:23Z</time>
      </trkpt>
      <trkpt lat="45.96791" lon="6.59556">
        <ele>1405.4</ele>
        <time>2026-02-02T07:11:24Z</time>
      </trkpt>
      <trkpt lat="45.96791" lon="6.59556">
        <ele>1405.4</ele>
        <time>2026-02-02T07:11:25Z</time>
      </trkpt>
      <trkpt lat="45.9679" lon="6.59556">
        <ele>1405.7</ele>
        <time>2026-02-02T07:11:26Z</time>
      </trkpt>
      <trkpt lat="45.96789" lon="6.59555">
        <ele>1405.9</ele>
        <time>2026-02-02T07:11:27Z</time>
      </trkpt>
      <trkpt lat="45.96788" lon="6.59554">
        <ele>1406.1</ele>
        <time>2026-02-02T07:11:28Z</time>
      </trkpt>
      <trkpt lat="45.96788" lon="6.59554">
        <ele>1406.1</ele>
        <time>2026-02-02T07:11:29Z</time>
      </trkpt>
      <trkpt lat="45.96788" lon="6.59552">
        <ele>1406.4</ele>
        <time>2026-02-02T07:11:30Z</time>
      </trkpt>
      <trkpt lat="45.96788" lon="6.59552">
        <ele>1406.4</ele>
        <time>2026-02-02T07:11:31Z</time>
      </trkpt>
      <trkpt lat="45.96787" lon="6.5955">
        <ele>1406.7</ele>
        <time>2026-02-02T07:11:32Z</time>
      </trkpt>
      <trkpt lat="45.96787" lon="6.5955">
        <ele>1406.8</ele>
        <time>2026-02-02T07:11:33Z</time>
      </trkpt>
      <trkpt lat="45.96787" lon="6.59549">
        <ele>1407</ele>
        <time>2026-02-02T07:11:34Z</time>
      </trkpt>
      <trkpt lat="45.96787" lon="6.59548">
        <ele>1407.1</ele>
        <time>2026-02-02T07:11:35Z</time>
      </trkpt>
      <trkpt lat="45.96787" lon="6.59547">
        <ele>1407.3</ele>
        <time>2026-02-02T07:11:36Z</time>
      </trkpt>
      <trkpt lat="45.96788" lon="6.59546">
        <ele>1407.5</ele>
        <time>2026-02-02T07:11:37Z</time>
      </trkpt>
      <trkpt lat="45.96788" lon="6.59545">
        <ele>1407.7</ele>
        <time>2026-02-02T07:11:38Z</time>
      </trkpt>
      <trkpt lat="45.96788" lon="6.59544">
        <ele>1407.8</ele>
        <time>2026-02-02T07:11:39Z</time>
      </trkpt>
      <trkpt lat="45.96788" lon="6.59543">
        <ele>1407.9</ele>
        <time>2026-02-02T07:11:40Z</time>
      </trkpt>
      <trkpt lat="45.96788" lon="6.59543">
        <ele>1408</ele>
        <time>2026-02-02T07:11:41Z</time>
      </trkpt>
      <trkpt lat="45.96789" lon="6.59542">
        <ele>1408.2</ele>
        <time>2026-02-02T07:11:42Z</time>
      </trkpt>
      <trkpt lat="45.96789" lon="6.59541">
        <ele>1408.4</ele>
        <time>2026-02-02T07:11:43Z</time>
      </trkpt>
      <trkpt lat="45.96789" lon="6.5954">
        <ele>1408.5</ele>
        <time>2026-02-02T07:11:44Z</time>
      </trkpt>
      <trkpt lat="45.9679" lon="6.59541">
        <ele>1408.7</ele>
        <time>2026-02-02T07:11:45Z</time>
      </trkpt>
      <trkpt lat="45.9679" lon="6.5954">
        <ele>1408.8</ele>
        <time>2026-02-02T07:11:46Z</time>
      </trkpt>
      <trkpt lat="45.96791" lon="6.59539">
        <ele>1409</ele>
        <time>2026-02-02T07:11:47Z</time>
      </trkpt>
      <trkpt lat="45.96792" lon="6.59538">
        <ele>1409.3</ele>
        <time>2026-02-02T07:11:48Z</time>
      </trkpt>
      <trkpt lat="45.96792" lon="6.59537">
        <ele>1409.5</ele>
        <time>2026-02-02T07:11:49Z</time>
      </trkpt>
      <trkpt lat="45.96793" lon="6.59536">
        <ele>1409.7</ele>
        <time>2026-02-02T07:11:50Z</time>
      </trkpt>
      <trkpt lat="45.96793" lon="6.59535">
        <ele>1410</ele>
        <time>2026-02-02T07:11:51Z</time>
      </trkpt>
      <trkpt lat="45.96794" lon="6.59534">
        <ele>1410.2</ele>
        <time>2026-02-02T07:11:52Z</time>
      </trkpt>
      <trkpt lat="45.96794" lon="6.59534">
        <ele>1410.3</ele>
        <time>2026-02-02T07:11:53Z</time>
      </trkpt>
      <trkpt lat="45.96795" lon="6.59534">
        <ele>1410.4</ele>
        <time>2026-02-02T07:11:54Z</time>
      </trkpt>
      <trkpt lat="45.96795" lon="6.59534">
        <ele>1410.5</ele>
        <time>2026-02-02T07:11:55Z</time>
      </trkpt>
      <trkpt lat="45.96796" lon="6.59534">
        <ele>1410.7</ele>
        <time>2026-02-02T07:11:56Z</time>
      </trkpt>
      <trkpt lat="45.96798" lon="6.59535">
        <ele>1411.2</ele>
        <time>2026-02-02T07:11:57Z</time>
      </trkpt>
      <trkpt lat="45.96798" lon="6.59535">
        <ele>1411.4</ele>
        <time>2026-02-02T07:11:58Z</time>
      </trkpt>
      <trkpt lat="45.96799" lon="6.59535">
        <ele>1411.5</ele>
        <time>2026-02-02T07:11:59Z</time>
      </trkpt>
      <trkpt lat="45.968" lon="6.59535">
        <ele>1411.7</ele>
        <time>2026-02-02T07:12:00Z</time>
      </trkpt>
      <trkpt lat="45.96801" lon="6.59534">
        <ele>1412</ele>
        <time>2026-02-02T07:12:01Z</time>
      </trkpt>
      <trkpt lat="45.96802" lon="6.59533">
        <ele>1412.3</ele>
        <time>2026-02-02T07:12:02Z</time>
      </trkpt>
      <trkpt lat="45.96803" lon="6.59533">
        <ele>1412.6</ele>
        <time>2026-02-02T07:12:03Z</time>
      </trkpt>
      <trkpt lat="45.96803" lon="6.59533">
        <ele>1412.8</ele>
        <time>2026-02-02T07:12:04Z</time>
      </trkpt>
      <trkpt lat="45.96804" lon="6.59532">
        <ele>1413</ele>
        <time>2026-02-02T07:12:05Z</time>
      </trkpt>
      <trkpt lat="45.96805" lon="6.59532">
        <ele>1413.3</ele>
        <time>2026-02-02T07:12:06Z</time>
      </trkpt>
      <trkpt lat="45.96805" lon="6.59532">
        <ele>1413.4</ele>
        <time>2026-02-02T07:12:07Z</time>
      </trkpt>
      <trkpt lat="45.96806" lon="6.59532">
        <ele>1413.5</ele>
        <time>2026-02-02T07:12:08Z</time>
      </trkpt>
      <trkpt lat="45.96807" lon="6.59533">
        <ele>1413.9</ele>
        <time>2026-02-02T07:12:09Z</time>
      </trkpt>
      <trkpt lat="45.96808" lon="6.59533">
        <ele>1414.1</ele>
        <time>2026-02-02T07:12:10Z</time>
      </trkpt>
      <trkpt lat="45.96808" lon="6.59532">
        <ele>1414.3</ele>
        <time>2026-02-02T07:12:11Z</time>
      </trkpt>
      <trkpt lat="45.96809" lon="6.59533">
        <ele>1414.6</ele>
        <time>2026-02-02T07:12:12Z</time>
      </trkpt>
      <trkpt lat="45.9681" lon="6.59534">
        <ele>1414.7</ele>
        <time>2026-02-02T07:12:13Z</time>
      </trkpt>
      <trkpt lat="45.9681" lon="6.59533">
        <ele>1414.8</ele>
        <time>2026-02-02T07:12:14Z</time>
      </trkpt>
      <trkpt lat="45.9681" lon="6.59533">
        <ele>1415</ele>
        <time>2026-02-02T07:12:15Z</time>
      </trkpt>
      <trkpt lat="45.96811" lon="6.59531">
        <ele>1415.3</ele>
        <time>2026-02-02T07:12:16Z</time>
      </trkpt>
      <trkpt lat="45.96812" lon="6.59531">
        <ele>1415.5</ele>
        <time>2026-02-02T07:12:17Z</time>
      </trkpt>
      <trkpt lat="45.96812" lon="6.5953">
        <ele>1415.7</ele>
        <time>2026-02-02T07:12:18Z</time>
      </trkpt>
      <trkpt lat="45.96812" lon="6.59528">
        <ele>1416</ele>
        <time>2026-02-02T07:12:19Z</time>
      </trkpt>
      <trkpt lat="45.96812" lon="6.59527">
        <ele>1416.3</ele>
        <time>2026-02-02T07:12:20Z</time>
      </trkpt>
      <trkpt lat="45.96812" lon="6.59526">
        <ele>1416.5</ele>
        <time>2026-02-02T07:12:21Z</time>
      </trkpt>
      <trkpt lat="45.96812" lon="6.59525">
        <ele>1416.7</ele>
        <time>2026-02-02T07:12:22Z</time>
      </trkpt>
      <trkpt lat="45.96812" lon="6.59524">
        <ele>1416.8</ele>
        <time>2026-02-02T07:12:23Z</time>
      </trkpt>
      <trkpt lat="45.96812" lon="6.59523">
        <ele>1416.9</ele>
        <time>2026-02-02T07:12:24Z</time>
      </trkpt>
      <trkpt lat="45.96811" lon="6.59523">
        <ele>1417.1</ele>
        <time>2026-02-02T07:12:25Z</time>
      </trkpt>
      <trkpt lat="45.96811" lon="6.59522">
        <ele>1417.4</ele>
        <time>2026-02-02T07:12:26Z</time>
      </trkpt>
      <trkpt lat="45.9681" lon="6.59522">
        <ele>1417.6</ele>
        <time>2026-02-02T07:12:27Z</time>
      </trkpt>
      <trkpt lat="45.9681" lon="6.59521">
        <ele>1417.7</ele>
        <time>2026-02-02T07:12:28Z</time>
      </trkpt>
      <trkpt lat="45.96809" lon="6.5952">
        <ele>1417.9</ele>
        <time>2026-02-02T07:12:29Z</time>
      </trkpt>
      <trkpt lat="45.96808" lon="6.5952">
        <ele>1418.2</ele>
        <time>2026-02-02T07:12:30Z</time>
      </trkpt>
      <trkpt lat="45.96808" lon="6.59519">
        <ele>1418.4</ele>
        <time>2026-02-02T07:12:31Z</time>
      </trkpt>
      <trkpt lat="45.96807" lon="6.59518">
        <ele>1418.6</ele>
        <time>2026-02-02T07:12:32Z</time>
      </trkpt>
      <trkpt lat="45.96807" lon="6.59518">
        <ele>1418.8</ele>
        <time>2026-02-02T07:12:33Z</time>
      </trkpt>
      <trkpt lat="45.96806" lon="6.59517">
        <ele>1419</ele>
        <time>2026-02-02T07:12:34Z</time>
      </trkpt>
      <trkpt lat="45.96805" lon="6.59517">
        <ele>1419.3</ele>
        <time>2026-02-02T07:12:35Z</time>
      </trkpt>
      <trkpt lat="45.96804" lon="6.59516">
        <ele>1419.5</ele>
        <time>2026-02-02T07:12:36Z</time>
      </trkpt>
      <trkpt lat="45.96804" lon="6.59515">
        <ele>1419.7</ele>
        <time>2026-02-02T07:12:37Z</time>
      </trkpt>
      <trkpt lat="45.96803" lon="6.59514">
        <ele>1419.9</ele>
        <time>2026-02-02T07:12:38Z</time>
      </trkpt>
      <trkpt lat="45.96803" lon="6.59512">
        <ele>1420.3</ele>
        <time>2026-02-02T07:12:39Z</time>
      </trkpt>
      <trkpt lat="45.96803" lon="6.59511">
        <ele>1420.5</ele>
        <time>2026-02-02T07:12:40Z</time>
      </trkpt>
      <trkpt lat="45.96802" lon="6.5951">
        <ele>1420.8</ele>
        <time>2026-02-02T07:12:41Z</time>
      </trkpt>
      <trkpt lat="45.96801" lon="6.59509">
        <ele>1421</ele>
        <time>2026-02-02T07:12:42Z</time>
      </trkpt>
      <trkpt lat="45.96801" lon="6.59507">
        <ele>1421.3</ele>
        <time>2026-02-02T07:12:43Z</time>
      </trkpt>
      <trkpt lat="45.968" lon="6.59507">
        <ele>1421.5</ele>
        <time>2026-02-02T07:12:44Z</time>
      </trkpt>
      <trkpt lat="45.96799" lon="6.59507">
        <ele>1421.7</ele>
        <time>2026-02-02T07:12:45Z</time>
      </trkpt>
      <trkpt lat="45.96798" lon="6.59507">
        <ele>1421.9</ele>
        <time>2026-02-02T07:12:46Z</time>
      </trkpt>
      <trkpt lat="45.96798" lon="6.59506">
        <ele>1422</ele>
        <time>2026-02-02T07:12:47Z</time>
      </trkpt>
      <trkpt lat="45.96797" lon="6.59505">
        <ele>1422.2</ele>
        <time>2026-02-02T07:12:48Z</time>
      </trkpt>
      <trkpt lat="45.96797" lon="6.59504">
        <ele>1422.5</ele>
        <time>2026-02-02T07:12:49Z</time>
      </trkpt>
      <trkpt lat="45.96797" lon="6.59503">
        <ele>1422.6</ele>
        <time>2026-02-02T07:12:50Z</time>
      </trkpt>
      <trkpt lat="45.96796" lon="6.59503">
        <ele>1422.8</ele>
        <time>2026-02-02T07:12:51Z</time>
      </trkpt>
      <trkpt lat="45.96796" lon="6.59502">
        <ele>1422.9</ele>
        <time>2026-02-02T07:12:52Z</time>
      </trkpt>
      <trkpt lat="45.96795" lon="6.59501">
        <ele>1423.1</ele>
        <time>2026-02-02T07:12:53Z</time>
      </trkpt>
      <trkpt lat="45.96794" lon="6.595">
        <ele>1423.3</ele>
        <time>2026-02-02T07:12:54Z</time>
      </trkpt>
      <trkpt lat="45.96794" lon="6.59498">
        <ele>1423.6</ele>
        <time>2026-02-02T07:12:55Z</time>
      </trkpt>
      <trkpt lat="45.96793" lon="6.59498">
        <ele>1423.8</ele>
        <time>2026-02-02T07:12:56Z</time>
      </trkpt>
      <trkpt lat="45.96792" lon="6.59496">
        <ele>1424.2</ele>
        <time>2026-02-02T07:12:57Z</time>
      </trkpt>
      <trkpt lat="45.96792" lon="6.59495">
        <ele>1424.3</ele>
        <time>2026-02-02T07:12:58Z</time>
      </trkpt>
      <trkpt lat="45.96791" lon="6.59494">
        <ele>1424.5</ele>
        <time>2026-02-02T07:12:59Z</time>
      </trkpt>
      <trkpt lat="45.96791" lon="6.59493">
        <ele>1424.7</ele>
        <time>2026-02-02T07:13:00Z</time>
      </trkpt>
      <trkpt lat="45.9679" lon="6.59493">
        <ele>1424.9</ele>
        <time>2026-02-02T07:13:01Z</time>
      </trkpt>
      <trkpt lat="45.96789" lon="6.59493">
        <ele>1425.1</ele>
        <time>2026-02-02T07:13:02Z</time>
      </trkpt>
      <trkpt lat="45.96788" lon="6.59493">
        <ele>1425.3</ele>
        <time>2026-02-02T07:13:03Z</time>
      </trkpt>
      <trkpt lat="45.96787" lon="6.59493">
        <ele>1425.5</ele>
        <time>2026-02-02T07:13:04Z</time>
      </trkpt>
      <trkpt lat="45.96786" lon="6.59492">
        <ele>1425.8</ele>
        <time>2026-02-02T07:13:05Z</time>
      </trkpt>
      <trkpt lat="45.96785" lon="6.5949">
        <ele>1426.1</ele>
        <time>2026-02-02T07:13:06Z</time>
      </trkpt>
      <trkpt lat="45.96785" lon="6.5949">
        <ele>1426.2</ele>
        <time>2026-02-02T07:13:07Z</time>
      </trkpt>
      <trkpt lat="45.96783" lon="6.59489">
        <ele>1426.6</ele>
        <time>2026-02-02T07:13:08Z</time>
      </trkpt>
      <trkpt lat="45.96782" lon="6.59488">
        <ele>1426.8</ele>
        <time>2026-02-02T07:13:09Z</time>
      </trkpt>
      <trkpt lat="45.96782" lon="6.59487">
        <ele>1427</ele>
        <time>2026-02-02T07:13:10Z</time>
      </trkpt>
      <trkpt lat="45.96782" lon="6.59486">
        <ele>1427.2</ele>
        <time>2026-02-02T07:13:11Z</time>
      </trkpt>
      <trkpt lat="45.96781" lon="6.59485">
        <ele>1427.4</ele>
        <time>2026-02-02T07:13:12Z</time>
      </trkpt>
      <trkpt lat="45.9678" lon="6.59485">
        <ele>1427.6</ele>
        <time>2026-02-02T07:13:13Z</time>
      </trkpt>
      <trkpt lat="45.96779" lon="6.59484">
        <ele>1427.9</ele>
        <time>2026-02-02T07:13:14Z</time>
      </trkpt>
      <trkpt lat="45.96778" lon="6.59484">
        <ele>1428.1</ele>
        <time>2026-02-02T07:13:15Z</time>
      </trkpt>
      <trkpt lat="45.96777" lon="6.59484">
        <ele>1428.3</ele>
        <time>2026-02-02T07:13:16Z</time>
      </trkpt>
      <trkpt lat="45.96776" lon="6.59484">
        <ele>1428.5</ele>
        <time>2026-02-02T07:13:17Z</time>
      </trkpt>
      <trkpt lat="45.96776" lon="6.59484">
        <ele>1428.5</ele>
        <time>2026-02-02T07:13:18Z</time>
      </trkpt>
      <trkpt lat="45.96775" lon="6.59485">
        <ele>1428.8</ele>
        <time>2026-02-02T07:13:19Z</time>
      </trkpt>
      <trkpt lat="45.96774" lon="6.59485">
        <ele>1429.2</ele>
        <time>2026-02-02T07:13:20Z</time>
      </trkpt>
      <trkpt lat="45.96773" lon="6.59485">
        <ele>1429.4</ele>
        <time>2026-02-02T07:13:21Z</time>
      </trkpt>
      <trkpt lat="45.96772" lon="6.59484">
        <ele>1429.6</ele>
        <time>2026-02-02T07:13:22Z</time>
      </trkpt>
      <trkpt lat="45.96771" lon="6.59485">
        <ele>1429.8</ele>
        <time>2026-02-02T07:13:23Z</time>
      </trkpt>
      <trkpt lat="45.9677" lon="6.59485">
        <ele>1430</ele>
        <time>2026-02-02T07:13:24Z</time>
      </trkpt>
      <trkpt lat="45.96769" lon="6.59485">
        <ele>1430.3</ele>
        <time>2026-02-02T07:13:25Z</time>
      </trkpt>
      <trkpt lat="45.96769" lon="6.59485">
        <ele>1430.4</ele>
        <time>2026-02-02T07:13:26Z</time>
      </trkpt>
      <trkpt lat="45.96768" lon="6.59484">
        <ele>1430.6</ele>
        <time>2026-02-02T07:13:27Z</time>
      </trkpt>
      <trkpt lat="45.96767" lon="6.59483">
        <ele>1430.9</ele>
        <time>2026-02-02T07:13:28Z</time>
      </trkpt>
      <trkpt lat="45.96767" lon="6.59481">
        <ele>1431.3</ele>
        <time>2026-02-02T07:13:29Z</time>
      </trkpt>
      <trkpt lat="45.96767" lon="6.5948">
        <ele>1431.5</ele>
        <time>2026-02-02T07:13:30Z</time>
      </trkpt>
      <trkpt lat="45.96766" lon="6.59479">
        <ele>1431.8</ele>
        <time>2026-02-02T07:13:31Z</time>
      </trkpt>
      <trkpt lat="45.96765" lon="6.59478">
        <ele>1432.1</ele>
        <time>2026-02-02T07:13:32Z</time>
      </trkpt>
      <trkpt lat="45.96764" lon="6.59477">
        <ele>1432.3</ele>
        <time>2026-02-02T07:13:33Z</time>
      </trkpt>
      <trkpt lat="45.96764" lon="6.59477">
        <ele>1432.4</ele>
        <time>2026-02-02T07:13:34Z</time>
      </trkpt>
      <trkpt lat="45.96764" lon="6.59476">
        <ele>1432.5</ele>
        <time>2026-02-02T07:13:35Z</time>
      </trkpt>
      <trkpt lat="45.96763" lon="6.59476">
        <ele>1432.7</ele>
        <time>2026-02-02T07:13:36Z</time>
      </trkpt>
      <trkpt lat="45.96762" lon="6.59477">
        <ele>1432.9</ele>
        <time>2026-02-02T07:13:37Z</time>
      </trkpt>
      <trkpt lat="45.96761" lon="6.59476">
        <ele>1433.2</ele>
        <time>2026-02-02T07:13:38Z</time>
      </trkpt>
      <trkpt lat="45.96761" lon="6.59475">
        <ele>1433.4</ele>
        <time>2026-02-02T07:13:39Z</time>
      </trkpt>
      <trkpt lat="45.9676" lon="6.59474">
        <ele>1433.6</ele>
        <time>2026-02-02T07:13:40Z</time>
      </trkpt>
      <trkpt lat="45.9676" lon="6.59474">
        <ele>1433.8</ele>
        <time>2026-02-02T07:13:41Z</time>
      </trkpt>
      <trkpt lat="45.96759" lon="6.59473">
        <ele>1434</ele>
        <time>2026-02-02T07:13:42Z</time>
      </trkpt>
      <trkpt lat="45.96759" lon="6.59472">
        <ele>1434.2</ele>
        <time>2026-02-02T07:13:43Z</time>
      </trkpt>
      <trkpt lat="45.96759" lon="6.59471">
        <ele>1434.4</ele>
        <time>2026-02-02T07:13:44Z</time>
      </trkpt>
      <trkpt lat="45.96759" lon="6.5947">
        <ele>1434.6</ele>
        <time>2026-02-02T07:13:45Z</time>
      </trkpt>
      <trkpt lat="45.96758" lon="6.59469">
        <ele>1434.8</ele>
        <time>2026-02-02T07:13:46Z</time>
      </trkpt>
      <trkpt lat="45.96758" lon="6.59468">
        <ele>1435.2</ele>
        <time>2026-02-02T07:13:47Z</time>
      </trkpt>
      <trkpt lat="45.96757" lon="6.59467">
        <ele>1435.2</ele>
        <time>2026-02-02T07:13:48Z</time>
      </trkpt>
      <trkpt lat="45.96758" lon="6.59467">
        <ele>1435.3</ele>
        <time>2026-02-02T07:13:49Z</time>
      </trkpt>
      <trkpt lat="45.96757" lon="6.59467">
        <ele>1435.5</ele>
        <time>2026-02-02T07:13:50Z</time>
      </trkpt>
      <trkpt lat="45.96757" lon="6.59466">
        <ele>1435.6</ele>
        <time>2026-02-02T07:13:51Z</time>
      </trkpt>
      <trkpt lat="45.96757" lon="6.59466">
        <ele>1435.7</ele>
        <time>2026-02-02T07:13:52Z</time>
      </trkpt>
      <trkpt lat="45.96757" lon="6.59465">
        <ele>1435.9</ele>
        <time>2026-02-02T07:13:53Z</time>
      </trkpt>
      <trkpt lat="45.96758" lon="6.59465">
        <ele>1436</ele>
        <time>2026-02-02T07:13:54Z</time>
      </trkpt>
      <trkpt lat="45.96758" lon="6.59464">
        <ele>1436.2</ele>
        <time>2026-02-02T07:13:55Z</time>
      </trkpt>
      <trkpt lat="45.96759" lon="6.59464">
        <ele>1436.3</ele>
        <time>2026-02-02T07:13:56Z</time>
      </trkpt>
      <trkpt lat="45.96759" lon="6.59463">
        <ele>1436.5</ele>
        <time>2026-02-02T07:13:57Z</time>
      </trkpt>
      <trkpt lat="45.9676" lon="6.59463">
        <ele>1436.8</ele>
        <time>2026-02-02T07:13:58Z</time>
      </trkpt>
      <trkpt lat="45.96761" lon="6.59462">
        <ele>1437</ele>
        <time>2026-02-02T07:13:59Z</time>
      </trkpt>
      <trkpt lat="45.96762" lon="6.59462">
        <ele>1437.3</ele>
        <time>2026-02-02T07:14:00Z</time>
      </trkpt>
      <trkpt lat="45.96763" lon="6.59462">
        <ele>1437.5</ele>
        <time>2026-02-02T07:14:01Z</time>
      </trkpt>
      <trkpt lat="45.96764" lon="6.59462">
        <ele>1437.7</ele>
        <time>2026-02-02T07:14:02Z</time>
      </trkpt>
      <trkpt lat="45.96764" lon="6.59462">
        <ele>1437.9</ele>
        <time>2026-02-02T07:14:03Z</time>
      </trkpt>
      <trkpt lat="45.96765" lon="6.59461">
        <ele>1438.1</ele>
        <time>2026-02-02T07:14:04Z</time>
      </trkpt>
      <trkpt lat="45.96766" lon="6.59461">
        <ele>1438.3</ele>
        <time>2026-02-02T07:14:05Z</time>
      </trkpt>
      <trkpt lat="45.96767" lon="6.59461">
        <ele>1438.5</ele>
        <time>2026-02-02T07:14:06Z</time>
      </trkpt>
      <trkpt lat="45.96767" lon="6.5946">
        <ele>1438.7</ele>
        <time>2026-02-02T07:14:07Z</time>
      </trkpt>
      <trkpt lat="45.96768" lon="6.5946">
        <ele>1438.8</ele>
        <time>2026-02-02T07:14:08Z</time>
      </trkpt>
      <trkpt lat="45.96769" lon="6.5946">
        <ele>1439.1</ele>
        <time>2026-02-02T07:14:09Z</time>
      </trkpt>
      <trkpt lat="45.96769" lon="6.5946">
        <ele>1439.2</ele>
        <time>2026-02-02T07:14:10Z</time>
      </trkpt>
      <trkpt lat="45.9677" lon="6.5946">
        <ele>1439.4</ele>
        <time>2026-02-02T07:14:11Z</time>
      </trkpt>
      <trkpt lat="45.96771" lon="6.5946">
        <ele>1439.5</ele>
        <time>2026-02-02T07:14:12Z</time>
      </trkpt>
      <trkpt lat="45.96771" lon="6.5946">
        <ele>1439.7</ele>
        <time>2026-02-02T07:14:13Z</time>
      </trkpt>
      <trkpt lat="45.96772" lon="6.59459">
        <ele>1439.8</ele>
        <time>2026-02-02T07:14:14Z</time>
      </trkpt>
      <trkpt lat="45.96772" lon="6.59459">
        <ele>1439.9</ele>
        <time>2026-02-02T07:14:15Z</time>
      </trkpt>
      <trkpt lat="45.96772" lon="6.59458">
        <ele>1440.1</ele>
        <time>2026-02-02T07:14:16Z</time>
      </trkpt>
      <trkpt lat="45.96773" lon="6.59459">
        <ele>1440.3</ele>
        <time>2026-02-02T07:14:17Z</time>
      </trkpt>
      <trkpt lat="45.96774" lon="6.59458">
        <ele>1440.5</ele>
        <time>2026-02-02T07:14:18Z</time>
      </trkpt>
      <trkpt lat="45.96775" lon="6.59458">
        <ele>1440.7</ele>
        <time>2026-02-02T07:14:19Z</time>
      </trkpt>
      <trkpt lat="45.96776" lon="6.59458">
        <ele>1440.9</ele>
        <time>2026-02-02T07:14:20Z</time>
      </trkpt>
      <trkpt lat="45.96776" lon="6.59458">
        <ele>1441.1</ele>
        <time>2026-02-02T07:14:21Z</time>
      </trkpt>
      <trkpt lat="45.96777" lon="6.59458">
        <ele>1441.3</ele>
        <time>2026-02-02T07:14:22Z</time>
      </trkpt>
      <trkpt lat="45.96778" lon="6.59458">
        <ele>1441.4</ele>
        <time>2026-02-02T07:14:23Z</time>
      </trkpt>
      <trkpt lat="45.96779" lon="6.59458">
        <ele>1441.6</ele>
        <time>2026-02-02T07:14:24Z</time>
      </trkpt>
      <trkpt lat="45.9678" lon="6.59459">
        <ele>1441.9</ele>
        <time>2026-02-02T07:14:25Z</time>
      </trkpt>
      <trkpt lat="45.9678" lon="6.59459">
        <ele>1442</ele>
        <time>2026-02-02T07:14:26Z</time>
      </trkpt>
      <trkpt lat="45.96781" lon="6.59459">
        <ele>1442.2</ele>
        <time>2026-02-02T07:14:27Z</time>
      </trkpt>
      <trkpt lat="45.96782" lon="6.59459">
        <ele>1442.4</ele>
        <time>2026-02-02T07:14:28Z</time>
      </trkpt>
      <trkpt lat="45.96783" lon="6.59459">
        <ele>1442.6</ele>
        <time>2026-02-02T07:14:29Z</time>
      </trkpt>
      <trkpt lat="45.96784" lon="6.59459">
        <ele>1442.9</ele>
        <time>2026-02-02T07:14:30Z</time>
      </trkpt>
      <trkpt lat="45.96785" lon="6.59459">
        <ele>1443.1</ele>
        <time>2026-02-02T07:14:31Z</time>
      </trkpt>
      <trkpt lat="45.96786" lon="6.59458">
        <ele>1443.4</ele>
        <time>2026-02-02T07:14:32Z</time>
      </trkpt>
      <trkpt lat="45.96786" lon="6.59458">
        <ele>1443.5</ele>
        <time>2026-02-02T07:14:33Z</time>
      </trkpt>
      <trkpt lat="45.96786" lon="6.59458">
        <ele>1443.5</ele>
        <time>2026-02-02T07:14:34Z</time>
      </trkpt>
      <trkpt lat="45.96787" lon="6.59458">
        <ele>1443.7</ele>
        <time>2026-02-02T07:14:35Z</time>
      </trkpt>
      <trkpt lat="45.96788" lon="6.59457">
        <ele>1443.8</ele>
        <time>2026-02-02T07:14:36Z</time>
      </trkpt>
      <trkpt lat="45.96788" lon="6.59457">
        <ele>1444</ele>
        <time>2026-02-02T07:14:37Z</time>
      </trkpt>
      <trkpt lat="45.96789" lon="6.59457">
        <ele>1444.1</ele>
        <time>2026-02-02T07:14:38Z</time>
      </trkpt>
      <trkpt lat="45.96791" lon="6.59457">
        <ele>1444.6</ele>
        <time>2026-02-02T07:14:39Z</time>
      </trkpt>
      <trkpt lat="45.96792" lon="6.59456">
        <ele>1444.8</ele>
        <time>2026-02-02T07:14:40Z</time>
      </trkpt>
      <trkpt lat="45.96793" lon="6.59456">
        <ele>1445</ele>
        <time>2026-02-02T07:14:41Z</time>
      </trkpt>
      <trkpt lat="45.96794" lon="6.59457">
        <ele>1445.2</ele>
        <time>2026-02-02T07:14:42Z</time>
      </trkpt>
      <trkpt lat="45.96794" lon="6.59457">
        <ele>1445.4</ele>
        <time>2026-02-02T07:14:43Z</time>
      </trkpt>
      <trkpt lat="45.96795" lon="6.59457">
        <ele>1445.5</ele>
        <time>2026-02-02T07:14:44Z</time>
      </trkpt>
      <trkpt lat="45.96795" lon="6.59457">
        <ele>1445.7</ele>
        <time>2026-02-02T07:14:45Z</time>
      </trkpt>
      <trkpt lat="45.96795" lon="6.59457">
        <ele>1445.7</ele>
        <time>2026-02-02T07:14:46Z</time>
      </trkpt>
      <trkpt lat="45.96795" lon="6.59458">
        <ele>1445.8</ele>
        <time>2026-02-02T07:14:47Z</time>
      </trkpt>
      <trkpt lat="45.96796" lon="6.59457">
        <ele>1446</ele>
        <time>2026-02-02T07:14:48Z</time>
      </trkpt>
      <trkpt lat="45.96797" lon="6.59456">
        <ele>1446.2</ele>
        <time>2026-02-02T07:14:49Z</time>
      </trkpt>
      <trkpt lat="45.96798" lon="6.59456">
        <ele>1446.4</ele>
        <time>2026-02-02T07:14:50Z</time>
      </trkpt>
      <trkpt lat="45.96799" lon="6.59456">
        <ele>1446.6</ele>
        <time>2026-02-02T07:14:51Z</time>
      </trkpt>
      <trkpt lat="45.968" lon="6.59455">
        <ele>1447</ele>
        <time>2026-02-02T07:14:52Z</time>
      </trkpt>
      <trkpt lat="45.96801" lon="6.59454">
        <ele>1447.2</ele>
        <time>2026-02-02T07:14:53Z</time>
      </trkpt>
      <trkpt lat="45.96801" lon="6.59454">
        <ele>1447.4</ele>
        <time>2026-02-02T07:14:54Z</time>
      </trkpt>
      <trkpt lat="45.96802" lon="6.59455">
        <ele>1447.6</ele>
        <time>2026-02-02T07:14:55Z</time>
      </trkpt>
      <trkpt lat="45.96804" lon="6.59455">
        <ele>1447.9</ele>
        <time>2026-02-02T07:14:56Z</time>
      </trkpt>
      <trkpt lat="45.96805" lon="6.59455">
        <ele>1448.1</ele>
        <time>2026-02-02T07:14:57Z</time>
      </trkpt>
      <trkpt lat="45.96806" lon="6.59455">
        <ele>1448.4</ele>
        <time>2026-02-02T07:14:58Z</time>
      </trkpt>
      <trkpt lat="45.96807" lon="6.59455">
        <ele>1448.6</ele>
        <time>2026-02-02T07:14:59Z</time>
      </trkpt>
      <trkpt lat="45.96807" lon="6.59454">
        <ele>1448.8</ele>
        <time>2026-02-02T07:15:00Z</time>
      </trkpt>
      <trkpt lat="45.96808" lon="6.59454">
        <ele>1449</ele>
        <time>2026-02-02T07:15:01Z</time>
      </trkpt>
      <trkpt lat="45.96809" lon="6.59454">
        <ele>1449.2</ele>
        <time>2026-02-02T07:15:02Z</time>
      </trkpt>
      <trkpt lat="45.9681" lon="6.59454">
        <ele>1449.5</ele>
        <time>2026-02-02T07:15:03Z</time>
      </trkpt>
      <trkpt lat="45.96811" lon="6.59453">
        <ele>1449.8</ele>
        <time>2026-02-02T07:15:04Z</time>
      </trkpt>
      <trkpt lat="45.96813" lon="6.59453">
        <ele>1450.1</ele>
        <time>2026-02-02T07:15:05Z</time>
      </trkpt>
      <trkpt lat="45.96813" lon="6.59452">
        <ele>1450.3</ele>
        <time>2026-02-02T07:15:06Z</time>
      </trkpt>
      <trkpt lat="45.96815" lon="6.59453">
        <ele>1450.7</ele>
        <time>2026-02-02T07:15:07Z</time>
      </trkpt>
      <trkpt lat="45.96816" lon="6.59453">
        <ele>1450.9</ele>
        <time>2026-02-02T07:15:08Z</time>
      </trkpt>
      <trkpt lat="45.96816" lon="6.59453">
        <ele>1451.1</ele>
        <time>2026-02-02T07:15:09Z</time>
      </trkpt>
      <trkpt lat="45.96817" lon="6.59454">
        <ele>1451.3</ele>
        <time>2026-02-02T07:15:10Z</time>
      </trkpt>
      <trkpt lat="45.96817" lon="6.59456">
        <ele>1451.7</ele>
        <time>2026-02-02T07:15:11Z</time>
      </trkpt>
      <trkpt lat="45.96818" lon="6.59458">
        <ele>1452</ele>
        <time>2026-02-02T07:15:12Z</time>
      </trkpt>
      <trkpt lat="45.96818" lon="6.59458">
        <ele>1452.2</ele>
        <time>2026-02-02T07:15:13Z</time>
      </trkpt>
      <trkpt lat="45.96819" lon="6.59458">
        <ele>1452.3</ele>
        <time>2026-02-02T07:15:14Z</time>
      </trkpt>
      <trkpt lat="45.96819" lon="6.59459">
        <ele>1452.5</ele>
        <time>2026-02-02T07:15:15Z</time>
      </trkpt>
      <trkpt lat="45.9682" lon="6.59459">
        <ele>1452.7</ele>
        <time>2026-02-02T07:15:16Z</time>
      </trkpt>
      <trkpt lat="45.96821" lon="6.59459">
        <ele>1452.9</ele>
        <time>2026-02-02T07:15:17Z</time>
      </trkpt>
      <trkpt lat="45.96821" lon="6.59459">
        <ele>1453</ele>
        <time>2026-02-02T07:15:18Z</time>
      </trkpt>
      <trkpt lat="45.96822" lon="6.5946">
        <ele>1453.2</ele>
        <time>2026-02-02T07:15:19Z</time>
      </trkpt>
      <trkpt lat="45.96823" lon="6.5946">
        <ele>1453.4</ele>
        <time>2026-02-02T07:15:20Z</time>
      </trkpt>
      <trkpt lat="45.96824" lon="6.59459">
        <ele>1453.7</ele>
        <time>2026-02-02T07:15:21Z</time>
      </trkpt>
      <trkpt lat="45.96824" lon="6.59459">
        <ele>1453.9</ele>
        <time>2026-02-02T07:15:22Z</time>
      </trkpt>
      <trkpt lat="45.96825" lon="6.59459">
        <ele>1454</ele>
        <time>2026-02-02T07:15:23Z</time>
      </trkpt>
      <trkpt lat="45.96825" lon="6.59459">
        <ele>1454.1</ele>
        <time>2026-02-02T07:15:24Z</time>
      </trkpt>
      <trkpt lat="45.96826" lon="6.59459">
        <ele>1454.5</ele>
        <time>2026-02-02T07:15:25Z</time>
      </trkpt>
      <trkpt lat="45.96827" lon="6.59459">
        <ele>1454.5</ele>
        <time>2026-02-02T07:15:26Z</time>
      </trkpt>
      <trkpt lat="45.96827" lon="6.59459">
        <ele>1454.6</ele>
        <time>2026-02-02T07:15:27Z</time>
      </trkpt>
      <trkpt lat="45.96828" lon="6.59458">
        <ele>1454.9</ele>
        <time>2026-02-02T07:15:28Z</time>
      </trkpt>
      <trkpt lat="45.96829" lon="6.59458">
        <ele>1455.2</ele>
        <time>2026-02-02T07:15:29Z</time>
      </trkpt>
      <trkpt lat="45.9683" lon="6.59458">
        <ele>1455.4</ele>
        <time>2026-02-02T07:15:30Z</time>
      </trkpt>
      <trkpt lat="45.9683" lon="6.59458">
        <ele>1455.5</ele>
        <time>2026-02-02T07:15:31Z</time>
      </trkpt>
      <trkpt lat="45.96831" lon="6.59457">
        <ele>1455.7</ele>
        <time>2026-02-02T07:15:32Z</time>
      </trkpt>
      <trkpt lat="45.96832" lon="6.59457">
        <ele>1456</ele>
        <time>2026-02-02T07:15:33Z</time>
      </trkpt>
      <trkpt lat="45.96833" lon="6.59458">
        <ele>1456.3</ele>
        <time>2026-02-02T07:15:34Z</time>
      </trkpt>
      <trkpt lat="45.96834" lon="6.59459">
        <ele>1456.6</ele>
        <time>2026-02-02T07:15:35Z</time>
      </trkpt>
      <trkpt lat="45.96835" lon="6.59459">
        <ele>1456.8</ele>
        <time>2026-02-02T07:15:36Z</time>
      </trkpt>
      <trkpt lat="45.96835" lon="6.59459">
        <ele>1457</ele>
        <time>2026-02-02T07:15:37Z</time>
      </trkpt>
      <trkpt lat="45.96836" lon="6.59458">
        <ele>1457.2</ele>
        <time>2026-02-02T07:15:38Z</time>
      </trkpt>
      <trkpt lat="45.96836" lon="6.59457">
        <ele>1457.4</ele>
        <time>2026-02-02T07:15:39Z</time>
      </trkpt>
      <trkpt lat="45.96837" lon="6.59454">
        <ele>1458</ele>
        <time>2026-02-02T07:15:40Z</time>
      </trkpt>
      <trkpt lat="45.96838" lon="6.59453">
        <ele>1458.2</ele>
        <time>2026-02-02T07:15:41Z</time>
      </trkpt>
      <trkpt lat="45.96838" lon="6.59452">
        <ele>1458.4</ele>
        <time>2026-02-02T07:15:42Z</time>
      </trkpt>
      <trkpt lat="45.96839" lon="6.59451">
        <ele>1458.7</ele>
        <time>2026-02-02T07:15:43Z</time>
      </trkpt>
      <trkpt lat="45.96839" lon="6.5945">
        <ele>1459</ele>
        <time>2026-02-02T07:15:44Z</time>
      </trkpt>
      <trkpt lat="45.9684" lon="6.59449">
        <ele>1459.2</ele>
        <time>2026-02-02T07:15:45Z</time>
      </trkpt>
      <trkpt lat="45.96842" lon="6.59448">
        <ele>1459.7</ele>
        <time>2026-02-02T07:15:46Z</time>
      </trkpt>
      <trkpt lat="45.96843" lon="6.59447">
        <ele>1459.9</ele>
        <time>2026-02-02T07:15:47Z</time>
      </trkpt>
      <trkpt lat="45.96843" lon="6.59446">
        <ele>1460.1</ele>
        <time>2026-02-02T07:15:48Z</time>
      </trkpt>
      <trkpt lat="45.96845" lon="6.59446">
        <ele>1460.4</ele>
        <time>2026-02-02T07:15:49Z</time>
      </trkpt>
      <trkpt lat="45.96845" lon="6.59445">
        <ele>1460.7</ele>
        <time>2026-02-02T07:15:50Z</time>
      </trkpt>
      <trkpt lat="45.96846" lon="6.59444">
        <ele>1460.9</ele>
        <time>2026-02-02T07:15:51Z</time>
      </trkpt>
      <trkpt lat="45.96847" lon="6.59443">
        <ele>1461.2</ele>
        <time>2026-02-02T07:15:52Z</time>
      </trkpt>
      <trkpt lat="45.96847" lon="6.59442">
        <ele>1461.4</ele>
        <time>2026-02-02T07:15:53Z</time>
      </trkpt>
      <trkpt lat="45.96849" lon="6.59441">
        <ele>1461.7</ele>
        <time>2026-02-02T07:15:54Z</time>
      </trkpt>
      <trkpt lat="45.96849" lon="6.5944">
        <ele>1461.9</ele>
        <time>2026-02-02T07:15:55Z</time>
      </trkpt>
      <trkpt lat="45.9685" lon="6.5944">
        <ele>1462.1</ele>
        <time>2026-02-02T07:15:56Z</time>
      </trkpt>
      <trkpt lat="45.96851" lon="6.59439">
        <ele>1462.4</ele>
        <time>2026-02-02T07:15:57Z</time>
      </trkpt>
      <trkpt lat="45.96851" lon="6.59438">
        <ele>1462.5</ele>
        <time>2026-02-02T07:15:58Z</time>
      </trkpt>
      <trkpt lat="45.96852" lon="6.59437">
        <ele>1462.7</ele>
        <time>2026-02-02T07:15:59Z</time>
      </trkpt>
      <trkpt lat="45.96853" lon="6.59436">
        <ele>1462.9</ele>
        <time>2026-02-02T07:16:00Z</time>
      </trkpt>
      <trkpt lat="45.96853" lon="6.59436">
        <ele>1463</ele>
        <time>2026-02-02T07:16:01Z</time>
      </trkpt>
      <trkpt lat="45.96854" lon="6.59435">
        <ele>1463.1</ele>
        <time>2026-02-02T07:16:02Z</time>
      </trkpt>
      <trkpt lat="45.96854" lon="6.59435">
        <ele>1463.1</ele>
        <time>2026-02-02T07:16:03Z</time>
      </trkpt>
      <trkpt lat="45.96853" lon="6.59435">
        <ele>1463.2</ele>
        <time>2026-02-02T07:16:04Z</time>
      </trkpt>
      <trkpt lat="45.96854" lon="6.59434">
        <ele>1463.3</ele>
        <time>2026-02-02T07:16:05Z</time>
      </trkpt>
      <trkpt lat="45.96854" lon="6.59433">
        <ele>1463.5</ele>
        <time>2026-02-02T07:16:06Z</time>
      </trkpt>
      <trkpt lat="45.96855" lon="6.59432">
        <ele>1463.7</ele>
        <time>2026-02-02T07:16:07Z</time>
      </trkpt>
      <trkpt lat="45.96855" lon="6.5943">
        <ele>1463.9</ele>
        <time>2026-02-02T07:16:08Z</time>
      </trkpt>
      <trkpt lat="45.96855" lon="6.59429">
        <ele>1464.1</ele>
        <time>2026-02-02T07:16:09Z</time>
      </trkpt>
      <trkpt lat="45.96855" lon="6.59428">
        <ele>1464.2</ele>
        <time>2026-02-02T07:16:10Z</time>
      </trkpt>
      <trkpt lat="45.96856" lon="6.59427">
        <ele>1464.4</ele>
        <time>2026-02-02T07:16:11Z</time>
      </trkpt>
      <trkpt lat="45.96856" lon="6.59424">
        <ele>1464.8</ele>
        <time>2026-02-02T07:16:12Z</time>
      </trkpt>
      <trkpt lat="45.96856" lon="6.59422">
        <ele>1464.9</ele>
        <time>2026-02-02T07:16:13Z</time>
      </trkpt>
      <trkpt lat="45.96856" lon="6.59421">
        <ele>1465.1</ele>
        <time>2026-02-02T07:16:14Z</time>
      </trkpt>
      <trkpt lat="45.96857" lon="6.59419">
        <ele>1465.3</ele>
        <time>2026-02-02T07:16:15Z</time>
      </trkpt>
      <trkpt lat="45.96857" lon="6.59417">
        <ele>1465.6</ele>
        <time>2026-02-02T07:16:16Z</time>
      </trkpt>
      <trkpt lat="45.96857" lon="6.59416">
        <ele>1465.8</ele>
        <time>2026-02-02T07:16:17Z</time>
      </trkpt>
      <trkpt lat="45.96858" lon="6.59414">
        <ele>1466</ele>
        <time>2026-02-02T07:16:18Z</time>
      </trkpt>
      <trkpt lat="45.96858" lon="6.59412">
        <ele>1466.2</ele>
        <time>2026-02-02T07:16:19Z</time>
      </trkpt>
      <trkpt lat="45.96859" lon="6.59411">
        <ele>1466.4</ele>
        <time>2026-02-02T07:16:20Z</time>
      </trkpt>
      <trkpt lat="45.9686" lon="6.59409">
        <ele>1466.7</ele>
        <time>2026-02-02T07:16:21Z</time>
      </trkpt>
      <trkpt lat="45.9686" lon="6.59407">
        <ele>1466.9</ele>
        <time>2026-02-02T07:16:22Z</time>
      </trkpt>
      <trkpt lat="45.9686" lon="6.59405">
        <ele>1467</ele>
        <time>2026-02-02T07:16:23Z</time>
      </trkpt>
      <trkpt lat="45.96861" lon="6.59404">
        <ele>1467.2</ele>
        <time>2026-02-02T07:16:24Z</time>
      </trkpt>
      <trkpt lat="45.96861" lon="6.59403">
        <ele>1467.4</ele>
        <time>2026-02-02T07:16:25Z</time>
      </trkpt>
      <trkpt lat="45.96862" lon="6.59401">
        <ele>1467.5</ele>
        <time>2026-02-02T07:16:26Z</time>
      </trkpt>
      <trkpt lat="45.96862" lon="6.59399">
        <ele>1467.7</ele>
        <time>2026-02-02T07:16:27Z</time>
      </trkpt>
      <trkpt lat="45.96863" lon="6.59397">
        <ele>1468</ele>
        <time>2026-02-02T07:16:28Z</time>
      </trkpt>
      <trkpt lat="45.96863" lon="6.59396">
        <ele>1468.1</ele>
        <time>2026-02-02T07:16:29Z</time>
      </trkpt>
      <trkpt lat="45.96864" lon="6.59395">
        <ele>1468.2</ele>
        <time>2026-02-02T07:16:30Z</time>
      </trkpt>
      <trkpt lat="45.96864" lon="6.59393">
        <ele>1468.4</ele>
        <time>2026-02-02T07:16:31Z</time>
      </trkpt>
      <trkpt lat="45.96865" lon="6.59391">
        <ele>1468.6</ele>
        <time>2026-02-02T07:16:32Z</time>
      </trkpt>
      <trkpt lat="45.96865" lon="6.59389">
        <ele>1468.7</ele>
        <time>2026-02-02T07:16:33Z</time>
      </trkpt>
      <trkpt lat="45.96866" lon="6.59387">
        <ele>1468.9</ele>
        <time>2026-02-02T07:16:34Z</time>
      </trkpt>
      <trkpt lat="45.96866" lon="6.59384">
        <ele>1469.1</ele>
        <time>2026-02-02T07:16:35Z</time>
      </trkpt>
      <trkpt lat="45.96866" lon="6.59383">
        <ele>1469.2</ele>
        <time>2026-02-02T07:16:36Z</time>
      </trkpt>
      <trkpt lat="45.96866" lon="6.59382">
        <ele>1469.2</ele>
        <time>2026-02-02T07:16:37Z</time>
      </trkpt>
      <trkpt lat="45.96866" lon="6.5938">
        <ele>1469.3</ele>
        <time>2026-02-02T07:16:38Z</time>
      </trkpt>
      <trkpt lat="45.96866" lon="6.59379">
        <ele>1469.4</ele>
        <time>2026-02-02T07:16:39Z</time>
      </trkpt>
      <trkpt lat="45.96866" lon="6.59377">
        <ele>1469.5</ele>
        <time>2026-02-02T07:16:40Z</time>
      </trkpt>
      <trkpt lat="45.96866" lon="6.59376">
        <ele>1469.6</ele>
        <time>2026-02-02T07:16:41Z</time>
      </trkpt>
      <trkpt lat="45.96867" lon="6.59374">
        <ele>1469.8</ele>
        <time>2026-02-02T07:16:42Z</time>
      </trkpt>
      <trkpt lat="45.96867" lon="6.59373">
        <ele>1469.9</ele>
        <time>2026-02-02T07:16:43Z</time>
      </trkpt>
      <trkpt lat="45.96867" lon="6.59371">
        <ele>1470</ele>
        <time>2026-02-02T07:16:44Z</time>
      </trkpt>
      <trkpt lat="45.96867" lon="6.59369">
        <ele>1470.1</ele>
        <time>2026-02-02T07:16:45Z</time>
      </trkpt>
      <trkpt lat="45.96867" lon="6.59368">
        <ele>1470.2</ele>
        <time>2026-02-02T07:16:46Z</time>
      </trkpt>
      <trkpt lat="45.96866" lon="6.59366">
        <ele>1470.3</ele>
        <time>2026-02-02T07:16:47Z</time>
      </trkpt>
      <trkpt lat="45.96866" lon="6.59364">
        <ele>1470.4</ele>
        <time>2026-02-02T07:16:48Z</time>
      </trkpt>
      <trkpt lat="45.96866" lon="6.59363">
        <ele>1470.5</ele>
        <time>2026-02-02T07:16:49Z</time>
      </trkpt>
      <trkpt lat="45.96866" lon="6.5936">
        <ele>1470.7</ele>
        <time>2026-02-02T07:16:50Z</time>
      </trkpt>
      <trkpt lat="45.96865" lon="6.59359">
        <ele>1470.8</ele>
        <time>2026-02-02T07:16:51Z</time>
      </trkpt>
      <trkpt lat="45.96865" lon="6.59358">
        <ele>1470.9</ele>
        <time>2026-02-02T07:16:52Z</time>
      </trkpt>
      <trkpt lat="45.96865" lon="6.59356">
        <ele>1471</ele>
        <time>2026-02-02T07:16:53Z</time>
      </trkpt>
      <trkpt lat="45.96865" lon="6.59355">
        <ele>1471.1</ele>
        <time>2026-02-02T07:16:54Z</time>
      </trkpt>
      <trkpt lat="45.96865" lon="6.59353">
        <ele>1471.3</ele>
        <time>2026-02-02T07:16:55Z</time>
      </trkpt>
      <trkpt lat="45.96865" lon="6.59351">
        <ele>1471.4</ele>
        <time>2026-02-02T07:16:56Z</time>
      </trkpt>
      <trkpt lat="45.96865" lon="6.59349">
        <ele>1471.6</ele>
        <time>2026-02-02T07:16:57Z</time>
      </trkpt>
      <trkpt lat="45.96865" lon="6.59346">
        <ele>1471.8</ele>
        <time>2026-02-02T07:16:58Z</time>
      </trkpt>
      <trkpt lat="45.96864" lon="6.59345">
        <ele>1471.9</ele>
        <time>2026-02-02T07:16:59Z</time>
      </trkpt>
      <trkpt lat="45.96864" lon="6.59344">
        <ele>1472</ele>
        <time>2026-02-02T07:17:00Z</time>
      </trkpt>
      <trkpt lat="45.96864" lon="6.59342">
        <ele>1472.2</ele>
        <time>2026-02-02T07:17:01Z</time>
      </trkpt>
      <trkpt lat="45.96863" lon="6.5934">
        <ele>1472.3</ele>
        <time>2026-02-02T07:17:02Z</time>
      </trkpt>
      <trkpt lat="45.96863" lon="6.59338">
        <ele>1472.5</ele>
        <time>2026-02-02T07:17:03Z</time>
      </trkpt>
      <trkpt lat="45.96862" lon="6.59336">
        <ele>1472.7</ele>
        <time>2026-02-02T07:17:04Z</time>
      </trkpt>
      <trkpt lat="45.96862" lon="6.59334">
        <ele>1472.8</ele>
        <time>2026-02-02T07:17:05Z</time>
      </trkpt>
      <trkpt lat="45.96862" lon="6.59332">
        <ele>1473</ele>
        <time>2026-02-02T07:17:06Z</time>
      </trkpt>
      <trkpt lat="45.96862" lon="6.59329">
        <ele>1473.2</ele>
        <time>2026-02-02T07:17:07Z</time>
      </trkpt>
      <trkpt lat="45.96862" lon="6.59328">
        <ele>1473.3</ele>
        <time>2026-02-02T07:17:08Z</time>
      </trkpt>
      <trkpt lat="45.96862" lon="6.59327">
        <ele>1473.4</ele>
        <time>2026-02-02T07:17:09Z</time>
      </trkpt>
      <trkpt lat="45.96862" lon="6.59325">
        <ele>1473.5</ele>
        <time>2026-02-02T07:17:10Z</time>
      </trkpt>
      <trkpt lat="45.96863" lon="6.59324">
        <ele>1473.7</ele>
        <time>2026-02-02T07:17:11Z</time>
      </trkpt>
      <trkpt lat="45.96863" lon="6.59323">
        <ele>1473.8</ele>
        <time>2026-02-02T07:17:12Z</time>
      </trkpt>
      <trkpt lat="45.96862" lon="6.59319">
        <ele>1474.1</ele>
        <time>2026-02-02T07:17:13Z</time>
      </trkpt>
      <trkpt lat="45.96861" lon="6.59318">
        <ele>1474.2</ele>
        <time>2026-02-02T07:17:14Z</time>
      </trkpt>
      <trkpt lat="45.96861" lon="6.59316">
        <ele>1474.3</ele>
        <time>2026-02-02T07:17:15Z</time>
      </trkpt>
      <trkpt lat="45.9686" lon="6.59314">
        <ele>1474.5</ele>
        <time>2026-02-02T07:17:16Z</time>
      </trkpt>
      <trkpt lat="45.9686" lon="6.59312">
        <ele>1474.6</ele>
        <time>2026-02-02T07:17:17Z</time>
      </trkpt>
      <trkpt lat="45.96859" lon="6.59309">
        <ele>1474.8</ele>
        <time>2026-02-02T07:17:18Z</time>
      </trkpt>
      <trkpt lat="45.96859" lon="6.59307">
        <ele>1474.9</ele>
        <time>2026-02-02T07:17:19Z</time>
      </trkpt>
      <trkpt lat="45.96859" lon="6.59305">
        <ele>1475</ele>
        <time>2026-02-02T07:17:20Z</time>
      </trkpt>
      <trkpt lat="45.96859" lon="6.59303">
        <ele>1475.2</ele>
        <time>2026-02-02T07:17:21Z</time>
      </trkpt>
      <trkpt lat="45.96859" lon="6.59301">
        <ele>1475.3</ele>
        <time>2026-02-02T07:17:22Z</time>
      </trkpt>
      <trkpt lat="45.96859" lon="6.59298">
        <ele>1475.5</ele>
        <time>2026-02-02T07:17:23Z</time>
      </trkpt>
      <trkpt lat="45.96859" lon="6.59296">
        <ele>1475.6</ele>
        <time>2026-02-02T07:17:24Z</time>
      </trkpt>
      <trkpt lat="45.96859" lon="6.59295">
        <ele>1475.7</ele>
        <time>2026-02-02T07:17:25Z</time>
      </trkpt>
      <trkpt lat="45.96859" lon="6.59292">
        <ele>1475.9</ele>
        <time>2026-02-02T07:17:26Z</time>
      </trkpt>
      <trkpt lat="45.96859" lon="6.5929">
        <ele>1475.9</ele>
        <time>2026-02-02T07:17:27Z</time>
      </trkpt>
      <trkpt lat="45.96859" lon="6.59289">
        <ele>1476</ele>
        <time>2026-02-02T07:17:28Z</time>
      </trkpt>
      <trkpt lat="45.96859" lon="6.59288">
        <ele>1476.1</ele>
        <time>2026-02-02T07:17:29Z</time>
      </trkpt>
      <trkpt lat="45.96859" lon="6.59286">
        <ele>1476.2</ele>
        <time>2026-02-02T07:17:30Z</time>
      </trkpt>
      <trkpt lat="45.96859" lon="6.59285">
        <ele>1476.3</ele>
        <time>2026-02-02T07:17:31Z</time>
      </trkpt>
      <trkpt lat="45.96858" lon="6.59283">
        <ele>1476.4</ele>
        <time>2026-02-02T07:17:32Z</time>
      </trkpt>
      <trkpt lat="45.96857" lon="6.59283">
        <ele>1476.5</ele>
        <time>2026-02-02T07:17:33Z</time>
      </trkpt>
      <trkpt lat="45.96856" lon="6.59282">
        <ele>1476.7</ele>
        <time>2026-02-02T07:17:34Z</time>
      </trkpt>
      <trkpt lat="45.96856" lon="6.5928">
        <ele>1476.8</ele>
        <time>2026-02-02T07:17:35Z</time>
      </trkpt>
      <trkpt lat="45.96856" lon="6.59277">
        <ele>1477</ele>
        <time>2026-02-02T07:17:36Z</time>
      </trkpt>
      <trkpt lat="45.96857" lon="6.59275">
        <ele>1477.2</ele>
        <time>2026-02-02T07:17:37Z</time>
      </trkpt>
      <trkpt lat="45.96857" lon="6.59273">
        <ele>1477.3</ele>
        <time>2026-02-02T07:17:38Z</time>
      </trkpt>
      <trkpt lat="45.96857" lon="6.5927">
        <ele>1477.5</ele>
        <time>2026-02-02T07:17:39Z</time>
      </trkpt>
      <trkpt lat="45.96856" lon="6.59269">
        <ele>1477.6</ele>
        <time>2026-02-02T07:17:40Z</time>
      </trkpt>
      <trkpt lat="45.96856" lon="6.59267">
        <ele>1477.7</ele>
        <time>2026-02-02T07:17:41Z</time>
      </trkpt>
      <trkpt lat="45.96856" lon="6.59266">
        <ele>1477.8</ele>
        <time>2026-02-02T07:17:42Z</time>
      </trkpt>
      <trkpt lat="45.96856" lon="6.59264">
        <ele>1477.9</ele>
        <time>2026-02-02T07:17:43Z</time>
      </trkpt>
      <trkpt lat="45.96855" lon="6.59261">
        <ele>1478.1</ele>
        <time>2026-02-02T07:17:44Z</time>
      </trkpt>
      <trkpt lat="45.96855" lon="6.5926">
        <ele>1478.2</ele>
        <time>2026-02-02T07:17:45Z</time>
      </trkpt>
      <trkpt lat="45.96854" lon="6.59258">
        <ele>1478.2</ele>
        <time>2026-02-02T07:17:46Z</time>
      </trkpt>
      <trkpt lat="45.96853" lon="6.59256">
        <ele>1478.4</ele>
        <time>2026-02-02T07:17:47Z</time>
      </trkpt>
      <trkpt lat="45.96853" lon="6.59254">
        <ele>1478.5</ele>
        <time>2026-02-02T07:17:48Z</time>
      </trkpt>
      <trkpt lat="45.96853" lon="6.59253">
        <ele>1478.5</ele>
        <time>2026-02-02T07:17:49Z</time>
      </trkpt>
      <trkpt lat="45.96851" lon="6.59251">
        <ele>1478.6</ele>
        <time>2026-02-02T07:17:50Z</time>
      </trkpt>
      <trkpt lat="45.96851" lon="6.5925">
        <ele>1478.7</ele>
        <time>2026-02-02T07:17:51Z</time>
      </trkpt>
      <trkpt lat="45.9685" lon="6.59248">
        <ele>1478.8</ele>
        <time>2026-02-02T07:17:52Z</time>
      </trkpt>
      <trkpt lat="45.96849" lon="6.59247">
        <ele>1478.8</ele>
        <time>2026-02-02T07:17:53Z</time>
      </trkpt>
      <trkpt lat="45.96848" lon="6.59245">
        <ele>1478.9</ele>
        <time>2026-02-02T07:17:54Z</time>
      </trkpt>
      <trkpt lat="45.96847" lon="6.59243">
        <ele>1479</ele>
        <time>2026-02-02T07:17:55Z</time>
      </trkpt>
      <trkpt lat="45.96846" lon="6.59241">
        <ele>1479.1</ele>
        <time>2026-02-02T07:17:56Z</time>
      </trkpt>
      <trkpt lat="45.96845" lon="6.59239">
        <ele>1479.1</ele>
        <time>2026-02-02T07:17:57Z</time>
      </trkpt>
      <trkpt lat="45.96844" lon="6.59237">
        <ele>1479.2</ele>
        <time>2026-02-02T07:17:58Z</time>
      </trkpt>
      <trkpt lat="45.96843" lon="6.59236">
        <ele>1479.3</ele>
        <time>2026-02-02T07:17:59Z</time>
      </trkpt>
      <trkpt lat="45.96843" lon="6.59234">
        <ele>1479.3</ele>
        <time>2026-02-02T07:18:00Z</time>
      </trkpt>
      <trkpt lat="45.96842" lon="6.59231">
        <ele>1479.4</ele>
        <time>2026-02-02T07:18:01Z</time>
      </trkpt>
      <trkpt lat="45.96842" lon="6.5923">
        <ele>1479.4</ele>
        <time>2026-02-02T07:18:02Z</time>
      </trkpt>
      <trkpt lat="45.96842" lon="6.59229">
        <ele>1479.5</ele>
        <time>2026-02-02T07:18:03Z</time>
      </trkpt>
      <trkpt lat="45.96841" lon="6.59227">
        <ele>1479.5</ele>
        <time>2026-02-02T07:18:04Z</time>
      </trkpt>
      <trkpt lat="45.96841" lon="6.59225">
        <ele>1479.6</ele>
        <time>2026-02-02T07:18:05Z</time>
      </trkpt>
      <trkpt lat="45.96842" lon="6.59224">
        <ele>1479.6</ele>
        <time>2026-02-02T07:18:06Z</time>
      </trkpt>
      <trkpt lat="45.96842" lon="6.59222">
        <ele>1479.6</ele>
        <time>2026-02-02T07:18:07Z</time>
      </trkpt>
      <trkpt lat="45.9684" lon="6.5922">
        <ele>1479.8</ele>
        <time>2026-02-02T07:18:08Z</time>
      </trkpt>
      <trkpt lat="45.96837" lon="6.59218">
        <ele>1479.9</ele>
        <time>2026-02-02T07:18:09Z</time>
      </trkpt>
      <trkpt lat="45.96836" lon="6.59217">
        <ele>1480</ele>
        <time>2026-02-02T07:18:10Z</time>
      </trkpt>
      <trkpt lat="45.96835" lon="6.59216">
        <ele>1480</ele>
        <time>2026-02-02T07:18:11Z</time>
      </trkpt>
      <trkpt lat="45.96835" lon="6.59216">
        <ele>1480</ele>
        <time>2026-02-02T07:18:13Z</time>
      </trkpt>
      <trkpt lat="45.96834" lon="6.59215">
        <ele>1480.1</ele>
        <time>2026-02-02T07:18:14Z</time>
      </trkpt>
      <trkpt lat="45.96833" lon="6.59214">
        <ele>1480.1</ele>
        <time>2026-02-02T07:18:15Z</time>
      </trkpt>
      <trkpt lat="45.96832" lon="6.59214">
        <ele>1480.2</ele>
        <time>2026-02-02T07:18:16Z</time>
      </trkpt>
      <trkpt lat="45.96831" lon="6.59214">
        <ele>1480.2</ele>
        <time>2026-02-02T07:18:17Z</time>
      </trkpt>
      <trkpt lat="45.96836" lon="6.59202">
        <ele>1480.8</ele>
        <time>2026-02-02T07:18:18Z</time>
      </trkpt>
      <trkpt lat="45.96838" lon="6.59198">
        <ele>1481</ele>
        <time>2026-02-02T07:18:19Z</time>
      </trkpt>
      <trkpt lat="45.96837" lon="6.59196">
        <ele>1481.1</ele>
        <time>2026-02-02T07:18:20Z</time>
      </trkpt>
      <trkpt lat="45.96837" lon="6.59193">
        <ele>1481.2</ele>
        <time>2026-02-02T07:18:21Z</time>
      </trkpt>
      <trkpt lat="45.96837" lon="6.59191">
        <ele>1481.3</ele>
        <time>2026-02-02T07:18:22Z</time>
      </trkpt>
      <trkpt lat="45.96836" lon="6.5919">
        <ele>1481.4</ele>
        <time>2026-02-02T07:18:23Z</time>
      </trkpt>
      <trkpt lat="45.96835" lon="6.59188">
        <ele>1481.6</ele>
        <time>2026-02-02T07:18:25Z</time>
      </trkpt>
      <trkpt lat="45.96834" lon="6.59186">
        <ele>1481.7</ele>
        <time>2026-02-02T07:18:26Z</time>
      </trkpt>
      <trkpt lat="45.96832" lon="6.59182">
        <ele>1482</ele>
        <time>2026-02-02T07:18:29Z</time>
      </trkpt>
      <trkpt lat="45.96833" lon="6.59178">
        <ele>1482.3</ele>
        <time>2026-02-02T07:18:30Z</time>
      </trkpt>
      <trkpt lat="45.96833" lon="6.59177">
        <ele>1482.4</ele>
        <time>2026-02-02T07:18:31Z</time>
      </trkpt>
      <trkpt lat="45.96833" lon="6.59174">
        <ele>1482.5</ele>
        <time>2026-02-02T07:18:32Z</time>
      </trkpt>
      <trkpt lat="45.96833" lon="6.59172">
        <ele>1482.7</ele>
        <time>2026-02-02T07:18:34Z</time>
      </trkpt>
      <trkpt lat="45.96833" lon="6.5917">
        <ele>1482.8</ele>
        <time>2026-02-02T07:18:35Z</time>
      </trkpt>
      <trkpt lat="45.96833" lon="6.59169">
        <ele>1482.9</ele>
        <time>2026-02-02T07:18:36Z</time>
      </trkpt>
      <trkpt lat="45.96833" lon="6.59167">
        <ele>1483.1</ele>
        <time>2026-02-02T07:18:37Z</time>
      </trkpt>
      <trkpt lat="45.96834" lon="6.59166">
        <ele>1483.2</ele>
        <time>2026-02-02T07:18:38Z</time>
      </trkpt>
      <trkpt lat="45.96834" lon="6.59164">
        <ele>1483.3</ele>
        <time>2026-02-02T07:18:39Z</time>
      </trkpt>
      <trkpt lat="45.96834" lon="6.59163">
        <ele>1483.4</ele>
        <time>2026-02-02T07:18:40Z</time>
      </trkpt>
      <trkpt lat="45.96835" lon="6.59161">
        <ele>1483.6</ele>
        <time>2026-02-02T07:18:41Z</time>
      </trkpt>
      <trkpt lat="45.96835" lon="6.5916">
        <ele>1483.7</ele>
        <time>2026-02-02T07:18:42Z</time>
      </trkpt>
      <trkpt lat="45.96836" lon="6.59158">
        <ele>1483.9</ele>
        <time>2026-02-02T07:18:43Z</time>
      </trkpt>
      <trkpt lat="45.96838" lon="6.59156">
        <ele>1484.2</ele>
        <time>2026-02-02T07:18:44Z</time>
      </trkpt>
      <trkpt lat="45.96838" lon="6.59155">
        <ele>1484.3</ele>
        <time>2026-02-02T07:18:45Z</time>
      </trkpt>
      <trkpt lat="45.96838" lon="6.59154">
        <ele>1484.4</ele>
        <time>2026-02-02T07:18:46Z</time>
      </trkpt>
      <trkpt lat="45.96839" lon="6.59151">
        <ele>1484.7</ele>
        <time>2026-02-02T07:18:47Z</time>
      </trkpt>
      <trkpt lat="45.9684" lon="6.5915">
        <ele>1484.8</ele>
        <time>2026-02-02T07:18:48Z</time>
      </trkpt>
      <trkpt lat="45.9684" lon="6.59149">
        <ele>1484.9</ele>
        <time>2026-02-02T07:18:49Z</time>
      </trkpt>
      <trkpt lat="45.9684" lon="6.59147">
        <ele>1485.1</ele>
        <time>2026-02-02T07:18:50Z</time>
      </trkpt>
      <trkpt lat="45.9684" lon="6.59146">
        <ele>1485.3</ele>
        <time>2026-02-02T07:18:51Z</time>
      </trkpt>
      <trkpt lat="45.96841" lon="6.59144">
        <ele>1485.4</ele>
        <time>2026-02-02T07:18:52Z</time>
      </trkpt>
      <trkpt lat="45.96841" lon="6.59143">
        <ele>1485.6</ele>
        <time>2026-02-02T07:18:53Z</time>
      </trkpt>
      <trkpt lat="45.96841" lon="6.59141">
        <ele>1485.7</ele>
        <time>2026-02-02T07:18:54Z</time>
      </trkpt>
      <trkpt lat="45.96842" lon="6.5914">
        <ele>1485.9</ele>
        <time>2026-02-02T07:18:55Z</time>
      </trkpt>
      <trkpt lat="45.96842" lon="6.59137">
        <ele>1486.2</ele>
        <time>2026-02-02T07:18:56Z</time>
      </trkpt>
      <trkpt lat="45.96842" lon="6.59136">
        <ele>1486.3</ele>
        <time>2026-02-02T07:18:57Z</time>
      </trkpt>
      <trkpt lat="45.96842" lon="6.59134">
        <ele>1486.4</ele>
        <time>2026-02-02T07:18:58Z</time>
      </trkpt>
      <trkpt lat="45.96842" lon="6.59133">
        <ele>1486.6</ele>
        <time>2026-02-02T07:18:59Z</time>
      </trkpt>
      <trkpt lat="45.96842" lon="6.59131">
        <ele>1486.7</ele>
        <time>2026-02-02T07:19:00Z</time>
      </trkpt>
      <trkpt lat="45.96842" lon="6.5913">
        <ele>1486.9</ele>
        <time>2026-02-02T07:19:01Z</time>
      </trkpt>
      <trkpt lat="45.96842" lon="6.59128">
        <ele>1487</ele>
        <time>2026-02-02T07:19:02Z</time>
      </trkpt>
      <trkpt lat="45.96842" lon="6.59127">
        <ele>1487.2</ele>
        <time>2026-02-02T07:19:03Z</time>
      </trkpt>
      <trkpt lat="45.96842" lon="6.59126">
        <ele>1487.3</ele>
        <time>2026-02-02T07:19:04Z</time>
      </trkpt>
      <trkpt lat="45.96842" lon="6.59124">
        <ele>1487.5</ele>
        <time>2026-02-02T07:19:05Z</time>
      </trkpt>
      <trkpt lat="45.96843" lon="6.59123">
        <ele>1487.6</ele>
        <time>2026-02-02T07:19:06Z</time>
      </trkpt>
      <trkpt lat="45.96843" lon="6.59121">
        <ele>1487.8</ele>
        <time>2026-02-02T07:19:07Z</time>
      </trkpt>
      <trkpt lat="45.96843" lon="6.5912">
        <ele>1487.9</ele>
        <time>2026-02-02T07:19:08Z</time>
      </trkpt>
      <trkpt lat="45.96843" lon="6.59118">
        <ele>1488.1</ele>
        <time>2026-02-02T07:19:09Z</time>
      </trkpt>
      <trkpt lat="45.96843" lon="6.59116">
        <ele>1488.3</ele>
        <time>2026-02-02T07:19:10Z</time>
      </trkpt>
      <trkpt lat="45.96844" lon="6.59115">
        <ele>1488.5</ele>
        <time>2026-02-02T07:19:11Z</time>
      </trkpt>
      <trkpt lat="45.96846" lon="6.59114">
        <ele>1488.7</ele>
        <time>2026-02-02T07:19:12Z</time>
      </trkpt>
      <trkpt lat="45.96846" lon="6.59113">
        <ele>1488.9</ele>
        <time>2026-02-02T07:19:13Z</time>
      </trkpt>
      <trkpt lat="45.96847" lon="6.59112">
        <ele>1489</ele>
        <time>2026-02-02T07:19:14Z</time>
      </trkpt>
      <trkpt lat="45.96848" lon="6.59111">
        <ele>1489.1</ele>
        <time>2026-02-02T07:19:15Z</time>
      </trkpt>
      <trkpt lat="45.96848" lon="6.5911">
        <ele>1489.3</ele>
        <time>2026-02-02T07:19:16Z</time>
      </trkpt>
      <trkpt lat="45.96848" lon="6.59108">
        <ele>1489.4</ele>
        <time>2026-02-02T07:19:17Z</time>
      </trkpt>
      <trkpt lat="45.96848" lon="6.59106">
        <ele>1489.7</ele>
        <time>2026-02-02T07:19:18Z</time>
      </trkpt>
      <trkpt lat="45.96847" lon="6.59104">
        <ele>1489.9</ele>
        <time>2026-02-02T07:19:19Z</time>
      </trkpt>
      <trkpt lat="45.96847" lon="6.59102">
        <ele>1490.1</ele>
        <time>2026-02-02T07:19:20Z</time>
      </trkpt>
      <trkpt lat="45.96847" lon="6.59099">
        <ele>1490.4</ele>
        <time>2026-02-02T07:19:21Z</time>
      </trkpt>
      <trkpt lat="45.96847" lon="6.59097">
        <ele>1490.6</ele>
        <time>2026-02-02T07:19:22Z</time>
      </trkpt>
      <trkpt lat="45.96847" lon="6.59096">
        <ele>1490.7</ele>
        <time>2026-02-02T07:19:23Z</time>
      </trkpt>
      <trkpt lat="45.96847" lon="6.59094">
        <ele>1490.9</ele>
        <time>2026-02-02T07:19:24Z</time>
      </trkpt>
      <trkpt lat="45.96847" lon="6.59092">
        <ele>1491.1</ele>
        <time>2026-02-02T07:19:25Z</time>
      </trkpt>
      <trkpt lat="45.96847" lon="6.5909">
        <ele>1491.2</ele>
        <time>2026-02-02T07:19:26Z</time>
      </trkpt>
      <trkpt lat="45.96847" lon="6.59088">
        <ele>1491.4</ele>
        <time>2026-02-02T07:19:28Z</time>
      </trkpt>
      <trkpt lat="45.96847" lon="6.59086">
        <ele>1491.6</ele>
        <time>2026-02-02T07:19:29Z</time>
      </trkpt>
      <trkpt lat="45.96847" lon="6.59085">
        <ele>1491.7</ele>
        <time>2026-02-02T07:19:30Z</time>
      </trkpt>
      <trkpt lat="45.96847" lon="6.59083">
        <ele>1491.8</ele>
        <time>2026-02-02T07:19:31Z</time>
      </trkpt>
      <trkpt lat="45.96847" lon="6.59081">
        <ele>1491.9</ele>
        <time>2026-02-02T07:19:32Z</time>
      </trkpt>
      <trkpt lat="45.96847" lon="6.59078">
        <ele>1492.2</ele>
        <time>2026-02-02T07:19:33Z</time>
      </trkpt>
      <trkpt lat="45.96846" lon="6.59076">
        <ele>1492.3</ele>
        <time>2026-02-02T07:19:35Z</time>
      </trkpt>
      <trkpt lat="45.96846" lon="6.59074">
        <ele>1492.4</ele>
        <time>2026-02-02T07:19:36Z</time>
      </trkpt>
      <trkpt lat="45.96845" lon="6.59071">
        <ele>1492.6</ele>
        <time>2026-02-02T07:19:37Z</time>
      </trkpt>
      <trkpt lat="45.96845" lon="6.59069">
        <ele>1492.7</ele>
        <time>2026-02-02T07:19:38Z</time>
      </trkpt>
      <trkpt lat="45.96844" lon="6.59067">
        <ele>1492.8</ele>
        <time>2026-02-02T07:19:39Z</time>
      </trkpt>
      <trkpt lat="45.96843" lon="6.59065">
        <ele>1492.9</ele>
        <time>2026-02-02T07:19:40Z</time>
      </trkpt>
      <trkpt lat="45.96843" lon="6.59063">
        <ele>1493</ele>
        <time>2026-02-02T07:19:41Z</time>
      </trkpt>
      <trkpt lat="45.96842" lon="6.59062">
        <ele>1493.1</ele>
        <time>2026-02-02T07:19:42Z</time>
      </trkpt>
      <trkpt lat="45.96841" lon="6.59059">
        <ele>1493.2</ele>
        <time>2026-02-02T07:19:43Z</time>
      </trkpt>
      <trkpt lat="45.96841" lon="6.59058">
        <ele>1493.2</ele>
        <time>2026-02-02T07:19:44Z</time>
      </trkpt>
      <trkpt lat="45.9684" lon="6.59056">
        <ele>1493.2</ele>
        <time>2026-02-02T07:19:45Z</time>
      </trkpt>
      <trkpt lat="45.9684" lon="6.59054">
        <ele>1493.3</ele>
        <time>2026-02-02T07:19:46Z</time>
      </trkpt>
      <trkpt lat="45.96839" lon="6.59051">
        <ele>1493.4</ele>
        <time>2026-02-02T07:19:47Z</time>
      </trkpt>
      <trkpt lat="45.96837" lon="6.59047">
        <ele>1493.6</ele>
        <time>2026-02-02T07:19:49Z</time>
      </trkpt>
      <trkpt lat="45.96836" lon="6.59043">
        <ele>1493.7</ele>
        <time>2026-02-02T07:19:51Z</time>
      </trkpt>
      <trkpt lat="45.96835" lon="6.59042">
        <ele>1493.7</ele>
        <time>2026-02-02T07:19:52Z</time>
      </trkpt>
      <trkpt lat="45.96835" lon="6.5904">
        <ele>1493.7</ele>
        <time>2026-02-02T07:19:53Z</time>
      </trkpt>
      <trkpt lat="45.96834" lon="6.59038">
        <ele>1493.8</ele>
        <time>2026-02-02T07:19:54Z</time>
      </trkpt>
      <trkpt lat="45.96833" lon="6.59036">
        <ele>1493.8</ele>
        <time>2026-02-02T07:19:55Z</time>
      </trkpt>
      <trkpt lat="45.96832" lon="6.59035">
        <ele>1493.9</ele>
        <time>2026-02-02T07:19:56Z</time>
      </trkpt>
      <trkpt lat="45.96831" lon="6.59032">
        <ele>1494</ele>
        <time>2026-02-02T07:19:57Z</time>
      </trkpt>
      <trkpt lat="45.96831" lon="6.59031">
        <ele>1494</ele>
        <time>2026-02-02T07:19:58Z</time>
      </trkpt>
      <trkpt lat="45.96831" lon="6.59029">
        <ele>1494</ele>
        <time>2026-02-02T07:19:59Z</time>
      </trkpt>
      <trkpt lat="45.9683" lon="6.59028">
        <ele>1494.1</ele>
        <time>2026-02-02T07:20:00Z</time>
      </trkpt>
      <trkpt lat="45.9683" lon="6.59025">
        <ele>1494.1</ele>
        <time>2026-02-02T07:20:01Z</time>
      </trkpt>
      <trkpt lat="45.9683" lon="6.59023">
        <ele>1494.2</ele>
        <time>2026-02-02T07:20:02Z</time>
      </trkpt>
      <trkpt lat="45.96829" lon="6.59021">
        <ele>1494.3</ele>
        <time>2026-02-02T07:20:03Z</time>
      </trkpt>
      <trkpt lat="45.96829" lon="6.59019">
        <ele>1494.4</ele>
        <time>2026-02-02T07:20:04Z</time>
      </trkpt>
      <trkpt lat="45.96829" lon="6.59017">
        <ele>1494.4</ele>
        <time>2026-02-02T07:20:05Z</time>
      </trkpt>
      <trkpt lat="45.96829" lon="6.59013">
        <ele>1494.6</ele>
        <time>2026-02-02T07:20:06Z</time>
      </trkpt>
      <trkpt lat="45.96829" lon="6.59012">
        <ele>1494.6</ele>
        <time>2026-02-02T07:20:07Z</time>
      </trkpt>
      <trkpt lat="45.96829" lon="6.59011">
        <ele>1494.7</ele>
        <time>2026-02-02T07:20:08Z</time>
      </trkpt>
      <trkpt lat="45.96829" lon="6.5901">
        <ele>1494.8</ele>
        <time>2026-02-02T07:20:09Z</time>
      </trkpt>
      <trkpt lat="45.9683" lon="6.59009">
        <ele>1494.8</ele>
        <time>2026-02-02T07:20:10Z</time>
      </trkpt>
      <trkpt lat="45.9683" lon="6.59007">
        <ele>1494.9</ele>
        <time>2026-02-02T07:20:11Z</time>
      </trkpt>
      <trkpt lat="45.96827" lon="6.59004">
        <ele>1495.2</ele>
        <time>2026-02-02T07:20:12Z</time>
      </trkpt>
      <trkpt lat="45.96826" lon="6.59003">
        <ele>1495.3</ele>
        <time>2026-02-02T07:20:13Z</time>
      </trkpt>
      <trkpt lat="45.96824" lon="6.59002">
        <ele>1495.4</ele>
        <time>2026-02-02T07:20:14Z</time>
      </trkpt>
      <trkpt lat="45.96823" lon="6.59002">
        <ele>1495.5</ele>
        <time>2026-02-02T07:20:15Z</time>
      </trkpt>
      <trkpt lat="45.96822" lon="6.59004">
        <ele>1495.6</ele>
        <time>2026-02-02T07:20:16Z</time>
      </trkpt>
      <trkpt lat="45.96821" lon="6.59003">
        <ele>1495.7</ele>
        <time>2026-02-02T07:20:17Z</time>
      </trkpt>
      <trkpt lat="45.9682" lon="6.59003">
        <ele>1495.8</ele>
        <time>2026-02-02T07:20:18Z</time>
      </trkpt>
      <trkpt lat="45.96819" lon="6.59001">
        <ele>1495.9</ele>
        <time>2026-02-02T07:20:19Z</time>
      </trkpt>
      <trkpt lat="45.96819" lon="6.58999">
        <ele>1496.1</ele>
        <time>2026-02-02T07:20:21Z</time>
      </trkpt>
      <trkpt lat="45.96818" lon="6.58997">
        <ele>1496.2</ele>
        <time>2026-02-02T07:20:22Z</time>
      </trkpt>
      <trkpt lat="45.96818" lon="6.58995">
        <ele>1496.4</ele>
        <time>2026-02-02T07:20:23Z</time>
      </trkpt>
      <trkpt lat="45.96818" lon="6.58993">
        <ele>1496.5</ele>
        <time>2026-02-02T07:20:24Z</time>
      </trkpt>
      <trkpt lat="45.96817" lon="6.58991">
        <ele>1496.6</ele>
        <time>2026-02-02T07:20:25Z</time>
      </trkpt>
      <trkpt lat="45.9682" lon="6.58986">
        <ele>1496.9</ele>
        <time>2026-02-02T07:20:26Z</time>
      </trkpt>
      <trkpt lat="45.96823" lon="6.58983">
        <ele>1497.1</ele>
        <time>2026-02-02T07:20:27Z</time>
      </trkpt>
      <trkpt lat="45.96826" lon="6.5898">
        <ele>1497.2</ele>
        <time>2026-02-02T07:20:28Z</time>
      </trkpt>
      <trkpt lat="45.96829" lon="6.58977">
        <ele>1497.4</ele>
        <time>2026-02-02T07:20:29Z</time>
      </trkpt>
      <trkpt lat="45.9683" lon="6.58975">
        <ele>1497.4</ele>
        <time>2026-02-02T07:20:30Z</time>
      </trkpt>
      <trkpt lat="45.96831" lon="6.58973">
        <ele>1497.5</ele>
        <time>2026-02-02T07:20:31Z</time>
      </trkpt>
      <trkpt lat="45.96832" lon="6.58971">
        <ele>1497.5</ele>
        <time>2026-02-02T07:20:32Z</time>
      </trkpt>
      <trkpt lat="45.96832" lon="6.5897">
        <ele>1497.6</ele>
        <time>2026-02-02T07:20:33Z</time>
      </trkpt>
      <trkpt lat="45.96833" lon="6.58968">
        <ele>1497.6</ele>
        <time>2026-02-02T07:20:34Z</time>
      </trkpt>
      <trkpt lat="45.96835" lon="6.58965">
        <ele>1497.7</ele>
        <time>2026-02-02T07:20:36Z</time>
      </trkpt>
      <trkpt lat="45.96836" lon="6.58963">
        <ele>1497.7</ele>
        <time>2026-02-02T07:20:37Z</time>
      </trkpt>
      <trkpt lat="45.96836" lon="6.58961">
        <ele>1497.8</ele>
        <time>2026-02-02T07:20:38Z</time>
      </trkpt>
      <trkpt lat="45.96837" lon="6.58959">
        <ele>1497.8</ele>
        <time>2026-02-02T07:20:39Z</time>
      </trkpt>
      <trkpt lat="45.96837" lon="6.58957">
        <ele>1497.9</ele>
        <time>2026-02-02T07:20:40Z</time>
      </trkpt>
      <trkpt lat="45.96837" lon="6.58955">
        <ele>1497.9</ele>
        <time>2026-02-02T07:20:41Z</time>
      </trkpt>
      <trkpt lat="45.96837" lon="6.58953">
        <ele>1498</ele>
        <time>2026-02-02T07:20:42Z</time>
      </trkpt>
      <trkpt lat="45.96837" lon="6.58951">
        <ele>1498</ele>
        <time>2026-02-02T07:20:43Z</time>
      </trkpt>
      <trkpt lat="45.96837" lon="6.58948">
        <ele>1498.1</ele>
        <time>2026-02-02T07:20:44Z</time>
      </trkpt>
      <trkpt lat="45.96837" lon="6.58946">
        <ele>1498.1</ele>
        <time>2026-02-02T07:20:45Z</time>
      </trkpt>
      <trkpt lat="45.96838" lon="6.58945">
        <ele>1498.2</ele>
        <time>2026-02-02T07:20:46Z</time>
      </trkpt>
      <trkpt lat="45.96839" lon="6.58944">
        <ele>1498.2</ele>
        <time>2026-02-02T07:20:47Z</time>
      </trkpt>
      <trkpt lat="45.9684" lon="6.58942">
        <ele>1498.3</ele>
        <time>2026-02-02T07:20:48Z</time>
      </trkpt>
      <trkpt lat="45.96841" lon="6.58941">
        <ele>1498.3</ele>
        <time>2026-02-02T07:20:49Z</time>
      </trkpt>
      <trkpt lat="45.96841" lon="6.58938">
        <ele>1498.3</ele>
        <time>2026-02-02T07:20:50Z</time>
      </trkpt>
      <trkpt lat="45.96841" lon="6.58935">
        <ele>1498.4</ele>
        <time>2026-02-02T07:20:52Z</time>
      </trkpt>
      <trkpt lat="45.96841" lon="6.58934">
        <ele>1498.4</ele>
        <time>2026-02-02T07:20:53Z</time>
      </trkpt>
      <trkpt lat="45.96841" lon="6.58933">
        <ele>1498.4</ele>
        <time>2026-02-02T07:20:54Z</time>
      </trkpt>
      <trkpt lat="45.96842" lon="6.58931">
        <ele>1498.5</ele>
        <time>2026-02-02T07:20:55Z</time>
      </trkpt>
      <trkpt lat="45.96842" lon="6.58929">
        <ele>1498.5</ele>
        <time>2026-02-02T07:20:56Z</time>
      </trkpt>
      <trkpt lat="45.96842" lon="6.58926">
        <ele>1498.5</ele>
        <time>2026-02-02T07:20:57Z</time>
      </trkpt>
      <trkpt lat="45.96843" lon="6.58925">
        <ele>1498.6</ele>
        <time>2026-02-02T07:20:58Z</time>
      </trkpt>
      <trkpt lat="45.96843" lon="6.58923">
        <ele>1498.6</ele>
        <time>2026-02-02T07:20:59Z</time>
      </trkpt>
      <trkpt lat="45.96843" lon="6.58921">
        <ele>1498.6</ele>
        <time>2026-02-02T07:21:00Z</time>
      </trkpt>
      <trkpt lat="45.96844" lon="6.5892">
        <ele>1498.6</ele>
        <time>2026-02-02T07:21:01Z</time>
      </trkpt>
      <trkpt lat="45.96845" lon="6.58918">
        <ele>1498.6</ele>
        <time>2026-02-02T07:21:02Z</time>
      </trkpt>
      <trkpt lat="45.96846" lon="6.58916">
        <ele>1498.6</ele>
        <time>2026-02-02T07:21:03Z</time>
      </trkpt>
      <trkpt lat="45.96846" lon="6.58914">
        <ele>1498.7</ele>
        <time>2026-02-02T07:21:04Z</time>
      </trkpt>
      <trkpt lat="45.96847" lon="6.58912">
        <ele>1498.7</ele>
        <time>2026-02-02T07:21:05Z</time>
      </trkpt>
      <trkpt lat="45.96849" lon="6.58906">
        <ele>1498.7</ele>
        <time>2026-02-02T07:21:08Z</time>
      </trkpt>
      <trkpt lat="45.96849" lon="6.58905">
        <ele>1498.7</ele>
        <time>2026-02-02T07:21:09Z</time>
      </trkpt>
      <trkpt lat="45.9685" lon="6.58905">
        <ele>1498.7</ele>
        <time>2026-02-02T07:21:10Z</time>
      </trkpt>
      <trkpt lat="45.96851" lon="6.58904">
        <ele>1498.7</ele>
        <time>2026-02-02T07:21:11Z</time>
      </trkpt>
      <trkpt lat="45.96852" lon="6.58903">
        <ele>1498.7</ele>
        <time>2026-02-02T07:21:12Z</time>
      </trkpt>
      <trkpt lat="45.96852" lon="6.58898">
        <ele>1498.7</ele>
        <time>2026-02-02T07:21:13Z</time>
      </trkpt>
      <trkpt lat="45.96851" lon="6.58895">
        <ele>1498.7</ele>
        <time>2026-02-02T07:21:14Z</time>
      </trkpt>
      <trkpt lat="45.96851" lon="6.58891">
        <ele>1498.7</ele>
        <time>2026-02-02T07:21:16Z</time>
      </trkpt>
      <trkpt lat="45.96851" lon="6.5889">
        <ele>1498.7</ele>
        <time>2026-02-02T07:21:17Z</time>
      </trkpt>
      <trkpt lat="45.96851" lon="6.58888">
        <ele>1498.7</ele>
        <time>2026-02-02T07:21:18Z</time>
      </trkpt>
      <trkpt lat="45.96851" lon="6.58887">
        <ele>1498.7</ele>
        <time>2026-02-02T07:21:19Z</time>
      </trkpt>
      <trkpt lat="45.9685" lon="6.58885">
        <ele>1498.7</ele>
        <time>2026-02-02T07:21:20Z</time>
      </trkpt>
      <trkpt lat="45.96849" lon="6.58882">
        <ele>1499</ele>
        <time>2026-02-02T07:21:21Z</time>
      </trkpt>
      <trkpt lat="45.96849" lon="6.58881">
        <ele>1499</ele>
        <time>2026-02-02T07:21:22Z</time>
      </trkpt>
      <trkpt lat="45.96848" lon="6.5888">
        <ele>1499.4</ele>
        <time>2026-02-02T07:21:23Z</time>
      </trkpt>
      <trkpt lat="45.96847" lon="6.58878">
        <ele>1499.6</ele>
        <time>2026-02-02T07:21:24Z</time>
      </trkpt>
      <trkpt lat="45.96846" lon="6.58877">
        <ele>1499.6</ele>
        <time>2026-02-02T07:21:25Z</time>
      </trkpt>
      <trkpt lat="45.96846" lon="6.58876">
        <ele>1499.6</ele>
        <time>2026-02-02T07:21:26Z</time>
      </trkpt>
      <trkpt lat="45.96845" lon="6.58874">
        <ele>1500</ele>
        <time>2026-02-02T07:21:27Z</time>
      </trkpt>
      <trkpt lat="45.96844" lon="6.58873">
        <ele>1500</ele>
        <time>2026-02-02T07:21:28Z</time>
      </trkpt>
      <trkpt lat="45.96844" lon="6.58872">
        <ele>1500</ele>
        <time>2026-02-02T07:21:29Z</time>
      </trkpt>
      <trkpt lat="45.96843" lon="6.58871">
        <ele>1500</ele>
        <time>2026-02-02T07:21:30Z</time>
      </trkpt>
      <trkpt lat="45.96842" lon="6.5887">
        <ele>1500.1</ele>
        <time>2026-02-02T07:21:31Z</time>
      </trkpt>
      <trkpt lat="45.96842" lon="6.5887">
        <ele>1500.3</ele>
        <time>2026-02-02T07:21:32Z</time>
      </trkpt>
      <trkpt lat="45.96841" lon="6.58869">
        <ele>1500.3</ele>
        <time>2026-02-02T07:21:33Z</time>
      </trkpt>
      <trkpt lat="45.9684" lon="6.58868">
        <ele>1500.3</ele>
        <time>2026-02-02T07:21:34Z</time>
      </trkpt>
      <trkpt lat="45.96839" lon="6.58868">
        <ele>1500.6</ele>
        <time>2026-02-02T07:21:35Z</time>
      </trkpt>
      <trkpt lat="45.96838" lon="6.58867">
        <ele>1500.6</ele>
        <time>2026-02-02T07:21:36Z</time>
      </trkpt>
      <trkpt lat="45.96837" lon="6.58866">
        <ele>1500.6</ele>
        <time>2026-02-02T07:21:37Z</time>
      </trkpt>
      <trkpt lat="45.96836" lon="6.58865">
        <ele>1500.9</ele>
        <time>2026-02-02T07:21:38Z</time>
      </trkpt>
      <trkpt lat="45.96835" lon="6.58865">
        <ele>1500.9</ele>
        <time>2026-02-02T07:21:39Z</time>
      </trkpt>
      <trkpt lat="45.96834" lon="6.58863">
        <ele>1500.9</ele>
        <time>2026-02-02T07:21:40Z</time>
      </trkpt>
      <trkpt lat="45.96833" lon="6.58863">
        <ele>1501.1</ele>
        <time>2026-02-02T07:21:41Z</time>
      </trkpt>
      <trkpt lat="45.96833" lon="6.58862">
        <ele>1501.2</ele>
        <time>2026-02-02T07:21:42Z</time>
      </trkpt>
      <trkpt lat="45.96832" lon="6.58861">
        <ele>1501.2</ele>
        <time>2026-02-02T07:21:43Z</time>
      </trkpt>
      <trkpt lat="45.96832" lon="6.5886">
        <ele>1501.2</ele>
        <time>2026-02-02T07:21:44Z</time>
      </trkpt>
      <trkpt lat="45.96831" lon="6.58859">
        <ele>1501.2</ele>
        <time>2026-02-02T07:21:45Z</time>
      </trkpt>
      <trkpt lat="45.96831" lon="6.58857">
        <ele>1501.2</ele>
        <time>2026-02-02T07:21:46Z</time>
      </trkpt>
      <trkpt lat="45.9683" lon="6.58856">
        <ele>1501.4</ele>
        <time>2026-02-02T07:21:47Z</time>
      </trkpt>
      <trkpt lat="45.96829" lon="6.58855">
        <ele>1501.4</ele>
        <time>2026-02-02T07:21:48Z</time>
      </trkpt>
      <trkpt lat="45.96829" lon="6.58853">
        <ele>1501.5</ele>
        <time>2026-02-02T07:21:49Z</time>
      </trkpt>
      <trkpt lat="45.96829" lon="6.58851">
        <ele>1501.5</ele>
        <time>2026-02-02T07:21:50Z</time>
      </trkpt>
      <trkpt lat="45.96829" lon="6.5885">
        <ele>1501.5</ele>
        <time>2026-02-02T07:21:51Z</time>
      </trkpt>
      <trkpt lat="45.96829" lon="6.58849">
        <ele>1501.5</ele>
        <time>2026-02-02T07:21:52Z</time>
      </trkpt>
      <trkpt lat="45.96828" lon="6.58847">
        <ele>1501.5</ele>
        <time>2026-02-02T07:21:53Z</time>
      </trkpt>
      <trkpt lat="45.96827" lon="6.58846">
        <ele>1501.6</ele>
        <time>2026-02-02T07:21:54Z</time>
      </trkpt>
      <trkpt lat="45.96826" lon="6.58846">
        <ele>1501.6</ele>
        <time>2026-02-02T07:21:55Z</time>
      </trkpt>
      <trkpt lat="45.96826" lon="6.58845">
        <ele>1501.6</ele>
        <time>2026-02-02T07:21:56Z</time>
      </trkpt>
      <trkpt lat="45.96826" lon="6.58844">
        <ele>1501.6</ele>
        <time>2026-02-02T07:21:57Z</time>
      </trkpt>
      <trkpt lat="45.96825" lon="6.58842">
        <ele>1501.7</ele>
        <time>2026-02-02T07:21:58Z</time>
      </trkpt>
      <trkpt lat="45.96825" lon="6.58841">
        <ele>1501.7</ele>
        <time>2026-02-02T07:21:59Z</time>
      </trkpt>
      <trkpt lat="45.96824" lon="6.5884">
        <ele>1501.7</ele>
        <time>2026-02-02T07:22:00Z</time>
      </trkpt>
      <trkpt lat="45.96823" lon="6.58839">
        <ele>1501.7</ele>
        <time>2026-02-02T07:22:01Z</time>
      </trkpt>
      <trkpt lat="45.96823" lon="6.58837">
        <ele>1501.7</ele>
        <time>2026-02-02T07:22:02Z</time>
      </trkpt>
      <trkpt lat="45.96822" lon="6.58836">
        <ele>1501.7</ele>
        <time>2026-02-02T07:22:03Z</time>
      </trkpt>
      <trkpt lat="45.96821" lon="6.58834">
        <ele>1501.8</ele>
        <time>2026-02-02T07:22:04Z</time>
      </trkpt>
      <trkpt lat="45.96821" lon="6.58832">
        <ele>1501.8</ele>
        <time>2026-02-02T07:22:05Z</time>
      </trkpt>
      <trkpt lat="45.96821" lon="6.58831">
        <ele>1501.8</ele>
        <time>2026-02-02T07:22:06Z</time>
      </trkpt>
      <trkpt lat="45.96822" lon="6.58829">
        <ele>1501.7</ele>
        <time>2026-02-02T07:22:07Z</time>
      </trkpt>
      <trkpt lat="45.96822" lon="6.58827">
        <ele>1501.7</ele>
        <time>2026-02-02T07:22:08Z</time>
      </trkpt>
      <trkpt lat="45.96821" lon="6.58826">
        <ele>1501.8</ele>
        <time>2026-02-02T07:22:09Z</time>
      </trkpt>
      <trkpt lat="45.96821" lon="6.58824">
        <ele>1501.8</ele>
        <time>2026-02-02T07:22:10Z</time>
      </trkpt>
      <trkpt lat="45.96821" lon="6.58823">
        <ele>1501.8</ele>
        <time>2026-02-02T07:22:11Z</time>
      </trkpt>
      <trkpt lat="45.96821" lon="6.58822">
        <ele>1501.8</ele>
        <time>2026-02-02T07:22:12Z</time>
      </trkpt>
      <trkpt lat="45.96821" lon="6.5882">
        <ele>1501.8</ele>
        <time>2026-02-02T07:22:13Z</time>
      </trkpt>
      <trkpt lat="45.96821" lon="6.58819">
        <ele>1501.8</ele>
        <time>2026-02-02T07:22:14Z</time>
      </trkpt>
      <trkpt lat="45.96821" lon="6.58818">
        <ele>1501.8</ele>
        <time>2026-02-02T07:22:15Z</time>
      </trkpt>
      <trkpt lat="45.9682" lon="6.58816">
        <ele>1501.8</ele>
        <time>2026-02-02T07:22:16Z</time>
      </trkpt>
      <trkpt lat="45.9682" lon="6.58815">
        <ele>1501.8</ele>
        <time>2026-02-02T07:22:17Z</time>
      </trkpt>
      <trkpt lat="45.9682" lon="6.58814">
        <ele>1501.8</ele>
        <time>2026-02-02T07:22:18Z</time>
      </trkpt>
      <trkpt lat="45.96819" lon="6.58812">
        <ele>1501.8</ele>
        <time>2026-02-02T07:22:19Z</time>
      </trkpt>
      <trkpt lat="45.96819" lon="6.5881">
        <ele>1501.8</ele>
        <time>2026-02-02T07:22:20Z</time>
      </trkpt>
      <trkpt lat="45.96819" lon="6.58808">
        <ele>1501.8</ele>
        <time>2026-02-02T07:22:21Z</time>
      </trkpt>
      <trkpt lat="45.96818" lon="6.58806">
        <ele>1501.9</ele>
        <time>2026-02-02T07:22:22Z</time>
      </trkpt>
      <trkpt lat="45.96819" lon="6.58805">
        <ele>1501.8</ele>
        <time>2026-02-02T07:22:23Z</time>
      </trkpt>
      <trkpt lat="45.96819" lon="6.58804">
        <ele>1501.8</ele>
        <time>2026-02-02T07:22:24Z</time>
      </trkpt>
      <trkpt lat="45.96818" lon="6.58802">
        <ele>1501.9</ele>
        <time>2026-02-02T07:22:25Z</time>
      </trkpt>
      <trkpt lat="45.96816" lon="6.58802">
        <ele>1501.9</ele>
        <time>2026-02-02T07:22:26Z</time>
      </trkpt>
      <trkpt lat="45.96816" lon="6.58803">
        <ele>1501.9</ele>
        <time>2026-02-02T07:22:27Z</time>
      </trkpt>
      <trkpt lat="45.96815" lon="6.58803">
        <ele>1502.1</ele>
        <time>2026-02-02T07:22:28Z</time>
      </trkpt>
      <trkpt lat="45.96815" lon="6.58802">
        <ele>1502.1</ele>
        <time>2026-02-02T07:22:29Z</time>
      </trkpt>
      <trkpt lat="45.96814" lon="6.58802">
        <ele>1502.1</ele>
        <time>2026-02-02T07:22:31Z</time>
      </trkpt>
      <trkpt lat="45.96814" lon="6.58802">
        <ele>1502.1</ele>
        <time>2026-02-02T07:22:32Z</time>
      </trkpt>
      <trkpt lat="45.96814" lon="6.58801">
        <ele>1502.1</ele>
        <time>2026-02-02T07:22:33Z</time>
      </trkpt>
      <trkpt lat="45.96814" lon="6.58801">
        <ele>1502.1</ele>
        <time>2026-02-02T07:22:34Z</time>
      </trkpt>
      <trkpt lat="45.96814" lon="6.588">
        <ele>1502.1</ele>
        <time>2026-02-02T07:22:35Z</time>
      </trkpt>
      <trkpt lat="45.96814" lon="6.588">
        <ele>1502.1</ele>
        <time>2026-02-02T07:22:36Z</time>
      </trkpt>
      <trkpt lat="45.96815" lon="6.58799">
        <ele>1502.1</ele>
        <time>2026-02-02T07:22:37Z</time>
      </trkpt>
      <trkpt lat="45.96816" lon="6.58798">
        <ele>1501.9</ele>
        <time>2026-02-02T07:22:38Z</time>
      </trkpt>
      <trkpt lat="45.96816" lon="6.58796">
        <ele>1501.9</ele>
        <time>2026-02-02T07:22:39Z</time>
      </trkpt>
      <trkpt lat="45.96816" lon="6.58795">
        <ele>1501.9</ele>
        <time>2026-02-02T07:22:40Z</time>
      </trkpt>
      <trkpt lat="45.96815" lon="6.58793">
        <ele>1502.1</ele>
        <time>2026-02-02T07:22:41Z</time>
      </trkpt>
      <trkpt lat="45.96815" lon="6.58791">
        <ele>1502.1</ele>
        <time>2026-02-02T07:22:42Z</time>
      </trkpt>
      <trkpt lat="45.96816" lon="6.58788">
        <ele>1501.9</ele>
        <time>2026-02-02T07:22:43Z</time>
      </trkpt>
      <trkpt lat="45.96816" lon="6.58787">
        <ele>1501.9</ele>
        <time>2026-02-02T07:22:44Z</time>
      </trkpt>
      <trkpt lat="45.96816" lon="6.58785">
        <ele>1502</ele>
        <time>2026-02-02T07:22:45Z</time>
      </trkpt>
      <trkpt lat="45.96816" lon="6.58783">
        <ele>1502</ele>
        <time>2026-02-02T07:22:46Z</time>
      </trkpt>
      <trkpt lat="45.96816" lon="6.5878">
        <ele>1502</ele>
        <time>2026-02-02T07:22:47Z</time>
      </trkpt>
      <trkpt lat="45.96815" lon="6.58776">
        <ele>1502.1</ele>
        <time>2026-02-02T07:22:48Z</time>
      </trkpt>
      <trkpt lat="45.96815" lon="6.58775">
        <ele>1502.1</ele>
        <time>2026-02-02T07:22:49Z</time>
      </trkpt>
      <trkpt lat="45.96814" lon="6.58771">
        <ele>1502.2</ele>
        <time>2026-02-02T07:22:50Z</time>
      </trkpt>
      <trkpt lat="45.96813" lon="6.58769">
        <ele>1502.2</ele>
        <time>2026-02-02T07:22:51Z</time>
      </trkpt>
      <trkpt lat="45.96812" lon="6.58765">
        <ele>1502.4</ele>
        <time>2026-02-02T07:22:52Z</time>
      </trkpt>
      <trkpt lat="45.96812" lon="6.58764">
        <ele>1502.4</ele>
        <time>2026-02-02T07:22:53Z</time>
      </trkpt>
      <trkpt lat="45.9681" lon="6.58762">
        <ele>1502.4</ele>
        <time>2026-02-02T07:22:54Z</time>
      </trkpt>
      <trkpt lat="45.96809" lon="6.5876">
        <ele>1502.7</ele>
        <time>2026-02-02T07:22:55Z</time>
      </trkpt>
      <trkpt lat="45.96808" lon="6.58759">
        <ele>1502.8</ele>
        <time>2026-02-02T07:22:56Z</time>
      </trkpt>
      <trkpt lat="45.96807" lon="6.58757">
        <ele>1502.8</ele>
        <time>2026-02-02T07:22:57Z</time>
      </trkpt>
      <trkpt lat="45.96805" lon="6.58756">
        <ele>1503.1</ele>
        <time>2026-02-02T07:22:58Z</time>
      </trkpt>
      <trkpt lat="45.96804" lon="6.58754">
        <ele>1503.2</ele>
        <time>2026-02-02T07:22:59Z</time>
      </trkpt>
      <trkpt lat="45.96803" lon="6.58753">
        <ele>1503.6</ele>
        <time>2026-02-02T07:23:00Z</time>
      </trkpt>
      <trkpt lat="45.96802" lon="6.58751">
        <ele>1503.6</ele>
        <time>2026-02-02T07:23:01Z</time>
      </trkpt>
      <trkpt lat="45.96801" lon="6.5875">
        <ele>1503.6</ele>
        <time>2026-02-02T07:23:02Z</time>
      </trkpt>
      <trkpt lat="45.968" lon="6.58748">
        <ele>1504</ele>
        <time>2026-02-02T07:23:03Z</time>
      </trkpt>
      <trkpt lat="45.96799" lon="6.58745">
        <ele>1504</ele>
        <time>2026-02-02T07:23:04Z</time>
      </trkpt>
      <trkpt lat="45.96798" lon="6.58744">
        <ele>1504</ele>
        <time>2026-02-02T07:23:05Z</time>
      </trkpt>
      <trkpt lat="45.96798" lon="6.58743">
        <ele>1504</ele>
        <time>2026-02-02T07:23:06Z</time>
      </trkpt>
      <trkpt lat="45.96796" lon="6.58741">
        <ele>1504.4</ele>
        <time>2026-02-02T07:23:07Z</time>
      </trkpt>
      <trkpt lat="45.96796" lon="6.5874">
        <ele>1504.4</ele>
        <time>2026-02-02T07:23:08Z</time>
      </trkpt>
      <trkpt lat="45.96795" lon="6.58739">
        <ele>1504.4</ele>
        <time>2026-02-02T07:23:09Z</time>
      </trkpt>
      <trkpt lat="45.96796" lon="6.58734">
        <ele>1504.4</ele>
        <time>2026-02-02T07:23:10Z</time>
      </trkpt>
      <trkpt lat="45.96796" lon="6.58733">
        <ele>1504.4</ele>
        <time>2026-02-02T07:23:11Z</time>
      </trkpt>
      <trkpt lat="45.96796" lon="6.58731">
        <ele>1504.4</ele>
        <time>2026-02-02T07:23:12Z</time>
      </trkpt>
      <trkpt lat="45.96795" lon="6.58729">
        <ele>1504.3</ele>
        <time>2026-02-02T07:23:13Z</time>
      </trkpt>
      <trkpt lat="45.96794" lon="6.58727">
        <ele>1504.6</ele>
        <time>2026-02-02T07:23:14Z</time>
      </trkpt>
      <trkpt lat="45.96794" lon="6.58724">
        <ele>1504.5</ele>
        <time>2026-02-02T07:23:15Z</time>
      </trkpt>
      <trkpt lat="45.96794" lon="6.58723">
        <ele>1504.5</ele>
        <time>2026-02-02T07:23:16Z</time>
      </trkpt>
      <trkpt lat="45.96793" lon="6.58721">
        <ele>1504.5</ele>
        <time>2026-02-02T07:23:17Z</time>
      </trkpt>
      <trkpt lat="45.96792" lon="6.58719">
        <ele>1504.4</ele>
        <time>2026-02-02T07:23:18Z</time>
      </trkpt>
      <trkpt lat="45.96792" lon="6.58717">
        <ele>1504.4</ele>
        <time>2026-02-02T07:23:19Z</time>
      </trkpt>
      <trkpt lat="45.96791" lon="6.58715">
        <ele>1504.7</ele>
        <time>2026-02-02T07:23:20Z</time>
      </trkpt>
      <trkpt lat="45.96791" lon="6.58713">
        <ele>1504.7</ele>
        <time>2026-02-02T07:23:21Z</time>
      </trkpt>
      <trkpt lat="45.9679" lon="6.58712">
        <ele>1504.6</ele>
        <time>2026-02-02T07:23:22Z</time>
      </trkpt>
      <trkpt lat="45.9679" lon="6.58711">
        <ele>1504.6</ele>
        <time>2026-02-02T07:23:23Z</time>
      </trkpt>
      <trkpt lat="45.9679" lon="6.58709">
        <ele>1504.6</ele>
        <time>2026-02-02T07:23:24Z</time>
      </trkpt>
      <trkpt lat="45.9679" lon="6.58707">
        <ele>1504.5</ele>
        <time>2026-02-02T07:23:25Z</time>
      </trkpt>
      <trkpt lat="45.9679" lon="6.58705">
        <ele>1504.5</ele>
        <time>2026-02-02T07:23:26Z</time>
      </trkpt>
      <trkpt lat="45.9679" lon="6.58703">
        <ele>1504.5</ele>
        <time>2026-02-02T07:23:27Z</time>
      </trkpt>
      <trkpt lat="45.9679" lon="6.58702">
        <ele>1504.5</ele>
        <time>2026-02-02T07:23:28Z</time>
      </trkpt>
      <trkpt lat="45.96789" lon="6.58701">
        <ele>1504.5</ele>
        <time>2026-02-02T07:23:29Z</time>
      </trkpt>
      <trkpt lat="45.96788" lon="6.58699">
        <ele>1504.8</ele>
        <time>2026-02-02T07:23:30Z</time>
      </trkpt>
      <trkpt lat="45.96788" lon="6.58698">
        <ele>1504.8</ele>
        <time>2026-02-02T07:23:31Z</time>
      </trkpt>
      <trkpt lat="45.96787" lon="6.58697">
        <ele>1504.8</ele>
        <time>2026-02-02T07:23:32Z</time>
      </trkpt>
      <trkpt lat="45.96786" lon="6.58693">
        <ele>1504.8</ele>
        <time>2026-02-02T07:23:33Z</time>
      </trkpt>
      <trkpt lat="45.96785" lon="6.58691">
        <ele>1505.2</ele>
        <time>2026-02-02T07:23:34Z</time>
      </trkpt>
      <trkpt lat="45.96785" lon="6.58689">
        <ele>1505.2</ele>
        <time>2026-02-02T07:23:35Z</time>
      </trkpt>
      <trkpt lat="45.96785" lon="6.58689">
        <ele>1505.2</ele>
        <time>2026-02-02T07:23:36Z</time>
      </trkpt>
      <trkpt lat="45.96785" lon="6.58688">
        <ele>1505.2</ele>
        <time>2026-02-02T07:23:37Z</time>
      </trkpt>
      <trkpt lat="45.96785" lon="6.58689">
        <ele>1505.2</ele>
        <time>2026-02-02T07:23:38Z</time>
      </trkpt>
      <trkpt lat="45.96785" lon="6.5869">
        <ele>1505.2</ele>
        <time>2026-02-02T07:23:39Z</time>
      </trkpt>
      <trkpt lat="45.96785" lon="6.5869">
        <ele>1505.2</ele>
        <time>2026-02-02T07:23:40Z</time>
      </trkpt>
      <trkpt lat="45.96785" lon="6.58689">
        <ele>1505.2</ele>
        <time>2026-02-02T07:23:41Z</time>
      </trkpt>
      <trkpt lat="45.96785" lon="6.58687">
        <ele>1505.2</ele>
        <time>2026-02-02T07:23:42Z</time>
      </trkpt>
      <trkpt lat="45.96786" lon="6.58685">
        <ele>1505.3</ele>
        <time>2026-02-02T07:23:43Z</time>
      </trkpt>
      <trkpt lat="45.96786" lon="6.58684">
        <ele>1504.9</ele>
        <time>2026-02-02T07:23:44Z</time>
      </trkpt>
      <trkpt lat="45.96788" lon="6.58683">
        <ele>1504.9</ele>
        <time>2026-02-02T07:23:45Z</time>
      </trkpt>
      <trkpt lat="45.96792" lon="6.58679">
        <ele>1504.3</ele>
        <time>2026-02-02T07:23:46Z</time>
      </trkpt>
      <trkpt lat="45.96794" lon="6.58677">
        <ele>1504.3</ele>
        <time>2026-02-02T07:23:47Z</time>
      </trkpt>
      <trkpt lat="45.96795" lon="6.58676">
        <ele>1504</ele>
        <time>2026-02-02T07:23:48Z</time>
      </trkpt>
      <trkpt lat="45.96796" lon="6.58674">
        <ele>1504</ele>
        <time>2026-02-02T07:23:49Z</time>
      </trkpt>
      <trkpt lat="45.96796" lon="6.58673">
        <ele>1504</ele>
        <time>2026-02-02T07:23:50Z</time>
      </trkpt>
      <trkpt lat="45.96797" lon="6.58671">
        <ele>1504</ele>
        <time>2026-02-02T07:23:51Z</time>
      </trkpt>
      <trkpt lat="45.96797" lon="6.58668">
        <ele>1504.1</ele>
        <time>2026-02-02T07:23:52Z</time>
      </trkpt>
      <trkpt lat="45.96796" lon="6.58667">
        <ele>1504.1</ele>
        <time>2026-02-02T07:23:53Z</time>
      </trkpt>
      <trkpt lat="45.96796" lon="6.58666">
        <ele>1504.1</ele>
        <time>2026-02-02T07:23:54Z</time>
      </trkpt>
      <trkpt lat="45.96795" lon="6.58664">
        <ele>1504.1</ele>
        <time>2026-02-02T07:23:55Z</time>
      </trkpt>
      <trkpt lat="45.96796" lon="6.58663">
        <ele>1504.1</ele>
        <time>2026-02-02T07:23:56Z</time>
      </trkpt>
      <trkpt lat="45.96795" lon="6.58661">
        <ele>1504.1</ele>
        <time>2026-02-02T07:23:57Z</time>
      </trkpt>
      <trkpt lat="45.96795" lon="6.58659">
        <ele>1504.1</ele>
        <time>2026-02-02T07:23:58Z</time>
      </trkpt>
      <trkpt lat="45.96794" lon="6.58657">
        <ele>1504.4</ele>
        <time>2026-02-02T07:23:59Z</time>
      </trkpt>
      <trkpt lat="45.96794" lon="6.58654">
        <ele>1504.4</ele>
        <time>2026-02-02T07:24:00Z</time>
      </trkpt>
      <trkpt lat="45.96794" lon="6.58652">
        <ele>1504.4</ele>
        <time>2026-02-02T07:24:01Z</time>
      </trkpt>
      <trkpt lat="45.96794" lon="6.5865">
        <ele>1504.4</ele>
        <time>2026-02-02T07:24:02Z</time>
      </trkpt>
      <trkpt lat="45.96795" lon="6.58648">
        <ele>1504.1</ele>
        <time>2026-02-02T07:24:03Z</time>
      </trkpt>
      <trkpt lat="45.96795" lon="6.58646">
        <ele>1504.1</ele>
        <time>2026-02-02T07:24:04Z</time>
      </trkpt>
      <trkpt lat="45.96794" lon="6.58643">
        <ele>1504.3</ele>
        <time>2026-02-02T07:24:05Z</time>
      </trkpt>
      <trkpt lat="45.96794" lon="6.58641">
        <ele>1504.3</ele>
        <time>2026-02-02T07:24:06Z</time>
      </trkpt>
      <trkpt lat="45.96793" lon="6.58639">
        <ele>1504.3</ele>
        <time>2026-02-02T07:24:07Z</time>
      </trkpt>
      <trkpt lat="45.96793" lon="6.58637">
        <ele>1504.3</ele>
        <time>2026-02-02T07:24:08Z</time>
      </trkpt>
      <trkpt lat="45.96792" lon="6.58634">
        <ele>1504.2</ele>
        <time>2026-02-02T07:24:09Z</time>
      </trkpt>
      <trkpt lat="45.96792" lon="6.58632">
        <ele>1504.4</ele>
        <time>2026-02-02T07:24:10Z</time>
      </trkpt>
      <trkpt lat="45.96791" lon="6.5863">
        <ele>1504.4</ele>
        <time>2026-02-02T07:24:11Z</time>
      </trkpt>
      <trkpt lat="45.96791" lon="6.58628">
        <ele>1504.4</ele>
        <time>2026-02-02T07:24:12Z</time>
      </trkpt>
      <trkpt lat="45.96791" lon="6.58626">
        <ele>1504.3</ele>
        <time>2026-02-02T07:24:13Z</time>
      </trkpt>
      <trkpt lat="45.9679" lon="6.58623">
        <ele>1504.3</ele>
        <time>2026-02-02T07:24:14Z</time>
      </trkpt>
      <trkpt lat="45.9679" lon="6.58622">
        <ele>1504.2</ele>
        <time>2026-02-02T07:24:15Z</time>
      </trkpt>
      <trkpt lat="45.9679" lon="6.5862">
        <ele>1504.2</ele>
        <time>2026-02-02T07:24:16Z</time>
      </trkpt>
      <trkpt lat="45.9679" lon="6.58618">
        <ele>1504.2</ele>
        <time>2026-02-02T07:24:17Z</time>
      </trkpt>
      <trkpt lat="45.96789" lon="6.58616">
        <ele>1504.1</ele>
        <time>2026-02-02T07:24:18Z</time>
      </trkpt>
      <trkpt lat="45.96789" lon="6.58613">
        <ele>1504.1</ele>
        <time>2026-02-02T07:24:20Z</time>
      </trkpt>
      <trkpt lat="45.96789" lon="6.58612">
        <ele>1504.1</ele>
        <time>2026-02-02T07:24:21Z</time>
      </trkpt>
      <trkpt lat="45.96789" lon="6.5861">
        <ele>1504.3</ele>
        <time>2026-02-02T07:24:22Z</time>
      </trkpt>
      <trkpt lat="45.96788" lon="6.58608">
        <ele>1504.2</ele>
        <time>2026-02-02T07:24:23Z</time>
      </trkpt>
      <trkpt lat="45.96788" lon="6.58607">
        <ele>1504.2</ele>
        <time>2026-02-02T07:24:24Z</time>
      </trkpt>
      <trkpt lat="45.96787" lon="6.58605">
        <ele>1504.2</ele>
        <time>2026-02-02T07:24:25Z</time>
      </trkpt>
      <trkpt lat="45.96787" lon="6.58603">
        <ele>1504.2</ele>
        <time>2026-02-02T07:24:26Z</time>
      </trkpt>
      <trkpt lat="45.96786" lon="6.58601">
        <ele>1504.2</ele>
        <time>2026-02-02T07:24:27Z</time>
      </trkpt>
      <trkpt lat="45.96786" lon="6.58599">
        <ele>1504.2</ele>
        <time>2026-02-02T07:24:28Z</time>
      </trkpt>
      <trkpt lat="45.96786" lon="6.58595">
        <ele>1504.5</ele>
        <time>2026-02-02T07:24:29Z</time>
      </trkpt>
      <trkpt lat="45.96785" lon="6.58593">
        <ele>1504.5</ele>
        <time>2026-02-02T07:24:31Z</time>
      </trkpt>
      <trkpt lat="45.96785" lon="6.58592">
        <ele>1504.5</ele>
        <time>2026-02-02T07:24:32Z</time>
      </trkpt>
      <trkpt lat="45.96785" lon="6.5859">
        <ele>1504.5</ele>
        <time>2026-02-02T07:24:33Z</time>
      </trkpt>
      <trkpt lat="45.96785" lon="6.58588">
        <ele>1504.6</ele>
        <time>2026-02-02T07:24:34Z</time>
      </trkpt>
      <trkpt lat="45.96784" lon="6.58586">
        <ele>1504.6</ele>
        <time>2026-02-02T07:24:35Z</time>
      </trkpt>
      <trkpt lat="45.96784" lon="6.58585">
        <ele>1504.6</ele>
        <time>2026-02-02T07:24:36Z</time>
      </trkpt>
      <trkpt lat="45.96784" lon="6.58583">
        <ele>1504.6</ele>
        <time>2026-02-02T07:24:37Z</time>
      </trkpt>
      <trkpt lat="45.96784" lon="6.58582">
        <ele>1504.8</ele>
        <time>2026-02-02T07:24:38Z</time>
      </trkpt>
      <trkpt lat="45.96785" lon="6.58581">
        <ele>1504.8</ele>
        <time>2026-02-02T07:24:39Z</time>
      </trkpt>
      <trkpt lat="45.96784" lon="6.58578">
        <ele>1504.9</ele>
        <time>2026-02-02T07:24:40Z</time>
      </trkpt>
      <trkpt lat="45.96781" lon="6.58576">
        <ele>1505.2</ele>
        <time>2026-02-02T07:24:41Z</time>
      </trkpt>
      <trkpt lat="45.9678" lon="6.58576">
        <ele>1505.2</ele>
        <time>2026-02-02T07:24:42Z</time>
      </trkpt>
      <trkpt lat="45.96779" lon="6.58574">
        <ele>1505.4</ele>
        <time>2026-02-02T07:24:43Z</time>
      </trkpt>
      <trkpt lat="45.96779" lon="6.58573">
        <ele>1505.5</ele>
        <time>2026-02-02T07:24:44Z</time>
      </trkpt>
      <trkpt lat="45.96778" lon="6.58571">
        <ele>1505.6</ele>
        <time>2026-02-02T07:24:45Z</time>
      </trkpt>
      <trkpt lat="45.96778" lon="6.58569">
        <ele>1505.7</ele>
        <time>2026-02-02T07:24:46Z</time>
      </trkpt>
      <trkpt lat="45.96778" lon="6.58565">
        <ele>1505.9</ele>
        <time>2026-02-02T07:24:48Z</time>
      </trkpt>
      <trkpt lat="45.96778" lon="6.58564">
        <ele>1506</ele>
        <time>2026-02-02T07:24:49Z</time>
      </trkpt>
      <trkpt lat="45.96778" lon="6.58561">
        <ele>1506.1</ele>
        <time>2026-02-02T07:24:50Z</time>
      </trkpt>
      <trkpt lat="45.96778" lon="6.5856">
        <ele>1506.2</ele>
        <time>2026-02-02T07:24:51Z</time>
      </trkpt>
      <trkpt lat="45.96778" lon="6.58559">
        <ele>1506.3</ele>
        <time>2026-02-02T07:24:52Z</time>
      </trkpt>
      <trkpt lat="45.96778" lon="6.58557">
        <ele>1506.4</ele>
        <time>2026-02-02T07:24:53Z</time>
      </trkpt>
      <trkpt lat="45.96779" lon="6.58555">
        <ele>1506.5</ele>
        <time>2026-02-02T07:24:54Z</time>
      </trkpt>
      <trkpt lat="45.96779" lon="6.58554">
        <ele>1506.6</ele>
        <time>2026-02-02T07:24:55Z</time>
      </trkpt>
      <trkpt lat="45.96779" lon="6.58552">
        <ele>1506.7</ele>
        <time>2026-02-02T07:24:56Z</time>
      </trkpt>
      <trkpt lat="45.9678" lon="6.5855">
        <ele>1506.9</ele>
        <time>2026-02-02T07:24:57Z</time>
      </trkpt>
      <trkpt lat="45.96781" lon="6.58548">
        <ele>1507.1</ele>
        <time>2026-02-02T07:24:58Z</time>
      </trkpt>
      <trkpt lat="45.96782" lon="6.58547">
        <ele>1507.2</ele>
        <time>2026-02-02T07:24:59Z</time>
      </trkpt>
      <trkpt lat="45.96782" lon="6.58546">
        <ele>1507.3</ele>
        <time>2026-02-02T07:25:00Z</time>
      </trkpt>
      <trkpt lat="45.96782" lon="6.58543">
        <ele>1507.5</ele>
        <time>2026-02-02T07:25:01Z</time>
      </trkpt>
      <trkpt lat="45.96782" lon="6.58541">
        <ele>1507.6</ele>
        <time>2026-02-02T07:25:02Z</time>
      </trkpt>
      <trkpt lat="45.96782" lon="6.5854">
        <ele>1507.7</ele>
        <time>2026-02-02T07:25:03Z</time>
      </trkpt>
      <trkpt lat="45.96782" lon="6.58537">
        <ele>1508</ele>
        <time>2026-02-02T07:25:04Z</time>
      </trkpt>
      <trkpt lat="45.96781" lon="6.58536">
        <ele>1508.1</ele>
        <time>2026-02-02T07:25:05Z</time>
      </trkpt>
      <trkpt lat="45.9678" lon="6.58535">
        <ele>1508.2</ele>
        <time>2026-02-02T07:25:06Z</time>
      </trkpt>
      <trkpt lat="45.96779" lon="6.58532">
        <ele>1508.4</ele>
        <time>2026-02-02T07:25:07Z</time>
      </trkpt>
      <trkpt lat="45.96779" lon="6.58531">
        <ele>1508.5</ele>
        <time>2026-02-02T07:25:08Z</time>
      </trkpt>
      <trkpt lat="45.96778" lon="6.5853">
        <ele>1508.6</ele>
        <time>2026-02-02T07:25:09Z</time>
      </trkpt>
      <trkpt lat="45.96777" lon="6.58528">
        <ele>1508.8</ele>
        <time>2026-02-02T07:25:10Z</time>
      </trkpt>
      <trkpt lat="45.96776" lon="6.58526">
        <ele>1508.9</ele>
        <time>2026-02-02T07:25:11Z</time>
      </trkpt>
      <trkpt lat="45.96775" lon="6.58524">
        <ele>1509.2</ele>
        <time>2026-02-02T07:25:12Z</time>
      </trkpt>
      <trkpt lat="45.96775" lon="6.58523">
        <ele>1509.3</ele>
        <time>2026-02-02T07:25:13Z</time>
      </trkpt>
      <trkpt lat="45.96774" lon="6.58522">
        <ele>1509.4</ele>
        <time>2026-02-02T07:25:14Z</time>
      </trkpt>
      <trkpt lat="45.96773" lon="6.58519">
        <ele>1509.6</ele>
        <time>2026-02-02T07:25:15Z</time>
      </trkpt>
      <trkpt lat="45.96773" lon="6.58517">
        <ele>1509.7</ele>
        <time>2026-02-02T07:25:16Z</time>
      </trkpt>
      <trkpt lat="45.96773" lon="6.58516">
        <ele>1509.8</ele>
        <time>2026-02-02T07:25:17Z</time>
      </trkpt>
      <trkpt lat="45.96773" lon="6.58514">
        <ele>1510</ele>
        <time>2026-02-02T07:25:18Z</time>
      </trkpt>
      <trkpt lat="45.96773" lon="6.58511">
        <ele>1510.2</ele>
        <time>2026-02-02T07:25:19Z</time>
      </trkpt>
      <trkpt lat="45.96772" lon="6.58509">
        <ele>1510.3</ele>
        <time>2026-02-02T07:25:20Z</time>
      </trkpt>
      <trkpt lat="45.96772" lon="6.58507">
        <ele>1510.5</ele>
        <time>2026-02-02T07:25:21Z</time>
      </trkpt>
      <trkpt lat="45.96772" lon="6.58505">
        <ele>1510.6</ele>
        <time>2026-02-02T07:25:22Z</time>
      </trkpt>
      <trkpt lat="45.96771" lon="6.58504">
        <ele>1510.8</ele>
        <time>2026-02-02T07:25:23Z</time>
      </trkpt>
      <trkpt lat="45.9677" lon="6.58502">
        <ele>1510.9</ele>
        <time>2026-02-02T07:25:24Z</time>
      </trkpt>
      <trkpt lat="45.96769" lon="6.585">
        <ele>1511.1</ele>
        <time>2026-02-02T07:25:25Z</time>
      </trkpt>
      <trkpt lat="45.96768" lon="6.58498">
        <ele>1511.3</ele>
        <time>2026-02-02T07:25:26Z</time>
      </trkpt>
      <trkpt lat="45.96767" lon="6.58497">
        <ele>1511.4</ele>
        <time>2026-02-02T07:25:27Z</time>
      </trkpt>
      <trkpt lat="45.96767" lon="6.58496">
        <ele>1511.5</ele>
        <time>2026-02-02T07:25:28Z</time>
      </trkpt>
      <trkpt lat="45.96766" lon="6.58495">
        <ele>1511.6</ele>
        <time>2026-02-02T07:25:29Z</time>
      </trkpt>
      <trkpt lat="45.96766" lon="6.58493">
        <ele>1511.8</ele>
        <time>2026-02-02T07:25:30Z</time>
      </trkpt>
      <trkpt lat="45.96765" lon="6.58492">
        <ele>1511.9</ele>
        <time>2026-02-02T07:25:31Z</time>
      </trkpt>
      <trkpt lat="45.96765" lon="6.58491">
        <ele>1512</ele>
        <time>2026-02-02T07:25:32Z</time>
      </trkpt>
      <trkpt lat="45.96764" lon="6.58489">
        <ele>1512.1</ele>
        <time>2026-02-02T07:25:33Z</time>
      </trkpt>
      <trkpt lat="45.96764" lon="6.58488">
        <ele>1512.2</ele>
        <time>2026-02-02T07:25:34Z</time>
      </trkpt>
      <trkpt lat="45.96763" lon="6.58487">
        <ele>1512.3</ele>
        <time>2026-02-02T07:25:35Z</time>
      </trkpt>
      <trkpt lat="45.96763" lon="6.58485">
        <ele>1512.4</ele>
        <time>2026-02-02T07:25:36Z</time>
      </trkpt>
      <trkpt lat="45.96762" lon="6.58484">
        <ele>1512.5</ele>
        <time>2026-02-02T07:25:37Z</time>
      </trkpt>
      <trkpt lat="45.96761" lon="6.58482">
        <ele>1512.7</ele>
        <time>2026-02-02T07:25:38Z</time>
      </trkpt>
      <trkpt lat="45.9676" lon="6.58481">
        <ele>1512.8</ele>
        <time>2026-02-02T07:25:39Z</time>
      </trkpt>
      <trkpt lat="45.9676" lon="6.5848">
        <ele>1512.9</ele>
        <time>2026-02-02T07:25:40Z</time>
      </trkpt>
      <trkpt lat="45.96759" lon="6.58478">
        <ele>1513</ele>
        <time>2026-02-02T07:25:41Z</time>
      </trkpt>
      <trkpt lat="45.96759" lon="6.58477">
        <ele>1513.1</ele>
        <time>2026-02-02T07:25:42Z</time>
      </trkpt>
      <trkpt lat="45.96759" lon="6.58476">
        <ele>1513.2</ele>
        <time>2026-02-02T07:25:43Z</time>
      </trkpt>
      <trkpt lat="45.96757" lon="6.58473">
        <ele>1513.4</ele>
        <time>2026-02-02T07:25:44Z</time>
      </trkpt>
      <trkpt lat="45.96757" lon="6.58472">
        <ele>1513.4</ele>
        <time>2026-02-02T07:25:45Z</time>
      </trkpt>
      <trkpt lat="45.96756" lon="6.58471">
        <ele>1513.5</ele>
        <time>2026-02-02T07:25:46Z</time>
      </trkpt>
      <trkpt lat="45.96756" lon="6.5847">
        <ele>1513.6</ele>
        <time>2026-02-02T07:25:47Z</time>
      </trkpt>
      <trkpt lat="45.96755" lon="6.58467">
        <ele>1513.7</ele>
        <time>2026-02-02T07:25:48Z</time>
      </trkpt>
      <trkpt lat="45.96754" lon="6.58462">
        <ele>1514</ele>
        <time>2026-02-02T07:25:49Z</time>
      </trkpt>
      <trkpt lat="45.96753" lon="6.58461">
        <ele>1514</ele>
        <time>2026-02-02T07:25:50Z</time>
      </trkpt>
      <trkpt lat="45.96752" lon="6.58457">
        <ele>1514.2</ele>
        <time>2026-02-02T07:25:51Z</time>
      </trkpt>
      <trkpt lat="45.96751" lon="6.58455">
        <ele>1514.3</ele>
        <time>2026-02-02T07:25:52Z</time>
      </trkpt>
      <trkpt lat="45.9675" lon="6.58453">
        <ele>1514.4</ele>
        <time>2026-02-02T07:25:53Z</time>
      </trkpt>
      <trkpt lat="45.96749" lon="6.58451">
        <ele>1514.5</ele>
        <time>2026-02-02T07:25:54Z</time>
      </trkpt>
      <trkpt lat="45.96749" lon="6.58449">
        <ele>1514.5</ele>
        <time>2026-02-02T07:25:55Z</time>
      </trkpt>
      <trkpt lat="45.96748" lon="6.58447">
        <ele>1514.6</ele>
        <time>2026-02-02T07:25:56Z</time>
      </trkpt>
      <trkpt lat="45.96747" lon="6.58445">
        <ele>1514.8</ele>
        <time>2026-02-02T07:25:57Z</time>
      </trkpt>
      <trkpt lat="45.96746" lon="6.58443">
        <ele>1514.8</ele>
        <time>2026-02-02T07:25:58Z</time>
      </trkpt>
      <trkpt lat="45.96746" lon="6.58442">
        <ele>1514.9</ele>
        <time>2026-02-02T07:25:59Z</time>
      </trkpt>
      <trkpt lat="45.96745" lon="6.58441">
        <ele>1514.9</ele>
        <time>2026-02-02T07:26:00Z</time>
      </trkpt>
      <trkpt lat="45.96744" lon="6.5844">
        <ele>1515</ele>
        <time>2026-02-02T07:26:01Z</time>
      </trkpt>
      <trkpt lat="45.96744" lon="6.58438">
        <ele>1515.1</ele>
        <time>2026-02-02T07:26:02Z</time>
      </trkpt>
      <trkpt lat="45.96743" lon="6.58437">
        <ele>1515.1</ele>
        <time>2026-02-02T07:26:03Z</time>
      </trkpt>
      <trkpt lat="45.96743" lon="6.58436">
        <ele>1515.2</ele>
        <time>2026-02-02T07:26:04Z</time>
      </trkpt>
      <trkpt lat="45.96742" lon="6.58434">
        <ele>1515.3</ele>
        <time>2026-02-02T07:26:05Z</time>
      </trkpt>
      <trkpt lat="45.96742" lon="6.58433">
        <ele>1515.3</ele>
        <time>2026-02-02T07:26:06Z</time>
      </trkpt>
      <trkpt lat="45.96741" lon="6.58432">
        <ele>1515.4</ele>
        <time>2026-02-02T07:26:07Z</time>
      </trkpt>
      <trkpt lat="45.96741" lon="6.58432">
        <ele>1515.4</ele>
        <time>2026-02-02T07:26:08Z</time>
      </trkpt>
      <trkpt lat="45.96741" lon="6.5843">
        <ele>1515.5</ele>
        <time>2026-02-02T07:26:09Z</time>
      </trkpt>
      <trkpt lat="45.9674" lon="6.58429">
        <ele>1515.6</ele>
        <time>2026-02-02T07:26:10Z</time>
      </trkpt>
      <trkpt lat="45.9674" lon="6.58428">
        <ele>1515.7</ele>
        <time>2026-02-02T07:26:11Z</time>
      </trkpt>
      <trkpt lat="45.96739" lon="6.58427">
        <ele>1515.8</ele>
        <time>2026-02-02T07:26:12Z</time>
      </trkpt>
      <trkpt lat="45.96738" lon="6.58425">
        <ele>1515.9</ele>
        <time>2026-02-02T07:26:13Z</time>
      </trkpt>
      <trkpt lat="45.96738" lon="6.58425">
        <ele>1516</ele>
        <time>2026-02-02T07:26:14Z</time>
      </trkpt>
      <trkpt lat="45.96737" lon="6.58423">
        <ele>1516.1</ele>
        <time>2026-02-02T07:26:15Z</time>
      </trkpt>
      <trkpt lat="45.96737" lon="6.58422">
        <ele>1516.2</ele>
        <time>2026-02-02T07:26:16Z</time>
      </trkpt>
      <trkpt lat="45.96737" lon="6.58421">
        <ele>1516.3</ele>
        <time>2026-02-02T07:26:17Z</time>
      </trkpt>
      <trkpt lat="45.96736" lon="6.5842">
        <ele>1516.4</ele>
        <time>2026-02-02T07:26:18Z</time>
      </trkpt>
      <trkpt lat="45.96736" lon="6.58418">
        <ele>1516.5</ele>
        <time>2026-02-02T07:26:19Z</time>
      </trkpt>
      <trkpt lat="45.96736" lon="6.58417">
        <ele>1516.6</ele>
        <time>2026-02-02T07:26:20Z</time>
      </trkpt>
      <trkpt lat="45.96735" lon="6.58416">
        <ele>1516.8</ele>
        <time>2026-02-02T07:26:21Z</time>
      </trkpt>
      <trkpt lat="45.96735" lon="6.58414">
        <ele>1516.9</ele>
        <time>2026-02-02T07:26:22Z</time>
      </trkpt>
      <trkpt lat="45.96734" lon="6.58413">
        <ele>1517</ele>
        <time>2026-02-02T07:26:23Z</time>
      </trkpt>
      <trkpt lat="45.96734" lon="6.58412">
        <ele>1517.1</ele>
        <time>2026-02-02T07:26:24Z</time>
      </trkpt>
      <trkpt lat="45.96734" lon="6.58411">
        <ele>1517.2</ele>
        <time>2026-02-02T07:26:25Z</time>
      </trkpt>
      <trkpt lat="45.96734" lon="6.58409">
        <ele>1517.4</ele>
        <time>2026-02-02T07:26:26Z</time>
      </trkpt>
      <trkpt lat="45.96734" lon="6.58407">
        <ele>1517.5</ele>
        <time>2026-02-02T07:26:27Z</time>
      </trkpt>
      <trkpt lat="45.96734" lon="6.58406">
        <ele>1517.7</ele>
        <time>2026-02-02T07:26:28Z</time>
      </trkpt>
      <trkpt lat="45.96734" lon="6.58404">
        <ele>1517.8</ele>
        <time>2026-02-02T07:26:29Z</time>
      </trkpt>
      <trkpt lat="45.96733" lon="6.58402">
        <ele>1518</ele>
        <time>2026-02-02T07:26:30Z</time>
      </trkpt>
      <trkpt lat="45.96733" lon="6.58401">
        <ele>1518.1</ele>
        <time>2026-02-02T07:26:31Z</time>
      </trkpt>
      <trkpt lat="45.96733" lon="6.58399">
        <ele>1518.2</ele>
        <time>2026-02-02T07:26:32Z</time>
      </trkpt>
      <trkpt lat="45.96733" lon="6.58397">
        <ele>1518.4</ele>
        <time>2026-02-02T07:26:33Z</time>
      </trkpt>
      <trkpt lat="45.96732" lon="6.58395">
        <ele>1518.6</ele>
        <time>2026-02-02T07:26:34Z</time>
      </trkpt>
      <trkpt lat="45.96732" lon="6.58394">
        <ele>1518.7</ele>
        <time>2026-02-02T07:26:35Z</time>
      </trkpt>
      <trkpt lat="45.96731" lon="6.58393">
        <ele>1518.8</ele>
        <time>2026-02-02T07:26:36Z</time>
      </trkpt>
      <trkpt lat="45.96731" lon="6.58391">
        <ele>1518.9</ele>
        <time>2026-02-02T07:26:37Z</time>
      </trkpt>
      <trkpt lat="45.9673" lon="6.5839">
        <ele>1519</ele>
        <time>2026-02-02T07:26:38Z</time>
      </trkpt>
      <trkpt lat="45.9673" lon="6.58389">
        <ele>1519.1</ele>
        <time>2026-02-02T07:26:39Z</time>
      </trkpt>
      <trkpt lat="45.9673" lon="6.58388">
        <ele>1519.2</ele>
        <time>2026-02-02T07:26:40Z</time>
      </trkpt>
      <trkpt lat="45.96729" lon="6.58386">
        <ele>1519.4</ele>
        <time>2026-02-02T07:26:41Z</time>
      </trkpt>
      <trkpt lat="45.96729" lon="6.58384">
        <ele>1519.5</ele>
        <time>2026-02-02T07:26:42Z</time>
      </trkpt>
      <trkpt lat="45.96729" lon="6.58381">
        <ele>1519.7</ele>
        <time>2026-02-02T07:26:43Z</time>
      </trkpt>
      <trkpt lat="45.96729" lon="6.5838">
        <ele>1519.8</ele>
        <time>2026-02-02T07:26:44Z</time>
      </trkpt>
      <trkpt lat="45.96728" lon="6.58379">
        <ele>1519.9</ele>
        <time>2026-02-02T07:26:45Z</time>
      </trkpt>
      <trkpt lat="45.96728" lon="6.58377">
        <ele>1520</ele>
        <time>2026-02-02T07:26:46Z</time>
      </trkpt>
      <trkpt lat="45.96728" lon="6.58375">
        <ele>1520.1</ele>
        <time>2026-02-02T07:26:47Z</time>
      </trkpt>
      <trkpt lat="45.96727" lon="6.58373">
        <ele>1520.3</ele>
        <time>2026-02-02T07:26:48Z</time>
      </trkpt>
      <trkpt lat="45.96727" lon="6.58371">
        <ele>1520.4</ele>
        <time>2026-02-02T07:26:49Z</time>
      </trkpt>
      <trkpt lat="45.96726" lon="6.58368">
        <ele>1520.6</ele>
        <time>2026-02-02T07:26:50Z</time>
      </trkpt>
      <trkpt lat="45.96725" lon="6.58367">
        <ele>1520.7</ele>
        <time>2026-02-02T07:26:51Z</time>
      </trkpt>
      <trkpt lat="45.96725" lon="6.58366">
        <ele>1520.8</ele>
        <time>2026-02-02T07:26:52Z</time>
      </trkpt>
      <trkpt lat="45.96724" lon="6.58363">
        <ele>1521</ele>
        <time>2026-02-02T07:26:53Z</time>
      </trkpt>
      <trkpt lat="45.96724" lon="6.58362">
        <ele>1521.1</ele>
        <time>2026-02-02T07:26:54Z</time>
      </trkpt>
      <trkpt lat="45.96724" lon="6.58361">
        <ele>1521.2</ele>
        <time>2026-02-02T07:26:55Z</time>
      </trkpt>
      <trkpt lat="45.96723" lon="6.58357">
        <ele>1521.4</ele>
        <time>2026-02-02T07:26:56Z</time>
      </trkpt>
      <trkpt lat="45.96723" lon="6.58356">
        <ele>1521.5</ele>
        <time>2026-02-02T07:26:57Z</time>
      </trkpt>
      <trkpt lat="45.96723" lon="6.58355">
        <ele>1521.6</ele>
        <time>2026-02-02T07:26:58Z</time>
      </trkpt>
      <trkpt lat="45.96722" lon="6.58352">
        <ele>1521.8</ele>
        <time>2026-02-02T07:26:59Z</time>
      </trkpt>
      <trkpt lat="45.96722" lon="6.58351">
        <ele>1521.8</ele>
        <time>2026-02-02T07:27:00Z</time>
      </trkpt>
      <trkpt lat="45.96722" lon="6.5835">
        <ele>1521.9</ele>
        <time>2026-02-02T07:27:01Z</time>
      </trkpt>
      <trkpt lat="45.96721" lon="6.58348">
        <ele>1522.1</ele>
        <time>2026-02-02T07:27:02Z</time>
      </trkpt>
      <trkpt lat="45.9672" lon="6.58347">
        <ele>1522.2</ele>
        <time>2026-02-02T07:27:03Z</time>
      </trkpt>
      <trkpt lat="45.96719" lon="6.58345">
        <ele>1522.4</ele>
        <time>2026-02-02T07:27:04Z</time>
      </trkpt>
      <trkpt lat="45.96719" lon="6.58344">
        <ele>1522.5</ele>
        <time>2026-02-02T07:27:05Z</time>
      </trkpt>
      <trkpt lat="45.96718" lon="6.58342">
        <ele>1522.7</ele>
        <time>2026-02-02T07:27:06Z</time>
      </trkpt>
      <trkpt lat="45.96717" lon="6.5834">
        <ele>1522.9</ele>
        <time>2026-02-02T07:27:07Z</time>
      </trkpt>
      <trkpt lat="45.96716" lon="6.58339">
        <ele>1523.1</ele>
        <time>2026-02-02T07:27:08Z</time>
      </trkpt>
      <trkpt lat="45.96715" lon="6.58337">
        <ele>1523.2</ele>
        <time>2026-02-02T07:27:09Z</time>
      </trkpt>
      <trkpt lat="45.96715" lon="6.58335">
        <ele>1523.4</ele>
        <time>2026-02-02T07:27:11Z</time>
      </trkpt>
      <trkpt lat="45.96714" lon="6.58334">
        <ele>1523.6</ele>
        <time>2026-02-02T07:27:12Z</time>
      </trkpt>
      <trkpt lat="45.96713" lon="6.58333">
        <ele>1523.8</ele>
        <time>2026-02-02T07:27:13Z</time>
      </trkpt>
      <trkpt lat="45.96713" lon="6.58331">
        <ele>1523.9</ele>
        <time>2026-02-02T07:27:14Z</time>
      </trkpt>
      <trkpt lat="45.96712" lon="6.5833">
        <ele>1524.1</ele>
        <time>2026-02-02T07:27:15Z</time>
      </trkpt>
      <trkpt lat="45.96712" lon="6.58328">
        <ele>1524.2</ele>
        <time>2026-02-02T07:27:16Z</time>
      </trkpt>
      <trkpt lat="45.96711" lon="6.58327">
        <ele>1524.4</ele>
        <time>2026-02-02T07:27:17Z</time>
      </trkpt>
      <trkpt lat="45.96711" lon="6.58326">
        <ele>1524.5</ele>
        <time>2026-02-02T07:27:18Z</time>
      </trkpt>
      <trkpt lat="45.96711" lon="6.58324">
        <ele>1524.7</ele>
        <time>2026-02-02T07:27:19Z</time>
      </trkpt>
      <trkpt lat="45.9671" lon="6.58323">
        <ele>1524.9</ele>
        <time>2026-02-02T07:27:20Z</time>
      </trkpt>
      <trkpt lat="45.9671" lon="6.58321">
        <ele>1525</ele>
        <time>2026-02-02T07:27:21Z</time>
      </trkpt>
      <trkpt lat="45.96709" lon="6.58319">
        <ele>1525.3</ele>
        <time>2026-02-02T07:27:22Z</time>
      </trkpt>
      <trkpt lat="45.96708" lon="6.58318">
        <ele>1525.4</ele>
        <time>2026-02-02T07:27:23Z</time>
      </trkpt>
      <trkpt lat="45.96708" lon="6.58317">
        <ele>1525.6</ele>
        <time>2026-02-02T07:27:24Z</time>
      </trkpt>
      <trkpt lat="45.96708" lon="6.58316">
        <ele>1525.7</ele>
        <time>2026-02-02T07:27:25Z</time>
      </trkpt>
      <trkpt lat="45.96707" lon="6.58315">
        <ele>1525.9</ele>
        <time>2026-02-02T07:27:26Z</time>
      </trkpt>
      <trkpt lat="45.96707" lon="6.58313">
        <ele>1526.1</ele>
        <time>2026-02-02T07:27:27Z</time>
      </trkpt>
      <trkpt lat="45.96706" lon="6.58311">
        <ele>1526.2</ele>
        <time>2026-02-02T07:27:28Z</time>
      </trkpt>
      <trkpt lat="45.96706" lon="6.58309">
        <ele>1526.5</ele>
        <time>2026-02-02T07:27:30Z</time>
      </trkpt>
      <trkpt lat="45.96705" lon="6.58307">
        <ele>1526.7</ele>
        <time>2026-02-02T07:27:31Z</time>
      </trkpt>
      <trkpt lat="45.96705" lon="6.58305">
        <ele>1526.9</ele>
        <time>2026-02-02T07:27:32Z</time>
      </trkpt>
      <trkpt lat="45.96705" lon="6.58304">
        <ele>1527.1</ele>
        <time>2026-02-02T07:27:33Z</time>
      </trkpt>
      <trkpt lat="45.96704" lon="6.58301">
        <ele>1527.4</ele>
        <time>2026-02-02T07:27:34Z</time>
      </trkpt>
      <trkpt lat="45.96704" lon="6.58299">
        <ele>1527.5</ele>
        <time>2026-02-02T07:27:35Z</time>
      </trkpt>
      <trkpt lat="45.96704" lon="6.58298">
        <ele>1527.6</ele>
        <time>2026-02-02T07:27:36Z</time>
      </trkpt>
      <trkpt lat="45.96703" lon="6.58296">
        <ele>1527.8</ele>
        <time>2026-02-02T07:27:37Z</time>
      </trkpt>
      <trkpt lat="45.96702" lon="6.58294">
        <ele>1528.1</ele>
        <time>2026-02-02T07:27:38Z</time>
      </trkpt>
      <trkpt lat="45.96702" lon="6.58292">
        <ele>1528.3</ele>
        <time>2026-02-02T07:27:39Z</time>
      </trkpt>
      <trkpt lat="45.96701" lon="6.5829">
        <ele>1528.5</ele>
        <time>2026-02-02T07:27:41Z</time>
      </trkpt>
      <trkpt lat="45.967" lon="6.58289">
        <ele>1528.7</ele>
        <time>2026-02-02T07:27:42Z</time>
      </trkpt>
      <trkpt lat="45.967" lon="6.58288">
        <ele>1528.8</ele>
        <time>2026-02-02T07:27:43Z</time>
      </trkpt>
      <trkpt lat="45.967" lon="6.58286">
        <ele>1528.9</ele>
        <time>2026-02-02T07:27:44Z</time>
      </trkpt>
      <trkpt lat="45.96699" lon="6.58285">
        <ele>1529.1</ele>
        <time>2026-02-02T07:27:45Z</time>
      </trkpt>
      <trkpt lat="45.96699" lon="6.58284">
        <ele>1529.2</ele>
        <time>2026-02-02T07:27:46Z</time>
      </trkpt>
      <trkpt lat="45.96698" lon="6.58283">
        <ele>1529.4</ele>
        <time>2026-02-02T07:27:47Z</time>
      </trkpt>
      <trkpt lat="45.96697" lon="6.58282">
        <ele>1529.5</ele>
        <time>2026-02-02T07:27:48Z</time>
      </trkpt>
      <trkpt lat="45.96697" lon="6.5828">
        <ele>1529.6</ele>
        <time>2026-02-02T07:27:49Z</time>
      </trkpt>
      <trkpt lat="45.96696" lon="6.58279">
        <ele>1529.8</ele>
        <time>2026-02-02T07:27:50Z</time>
      </trkpt>
      <trkpt lat="45.96695" lon="6.58278">
        <ele>1530</ele>
        <time>2026-02-02T07:27:51Z</time>
      </trkpt>
      <trkpt lat="45.96695" lon="6.58276">
        <ele>1530.1</ele>
        <time>2026-02-02T07:27:52Z</time>
      </trkpt>
      <trkpt lat="45.96694" lon="6.58275">
        <ele>1530.3</ele>
        <time>2026-02-02T07:27:53Z</time>
      </trkpt>
      <trkpt lat="45.96694" lon="6.58272">
        <ele>1530.6</ele>
        <time>2026-02-02T07:27:54Z</time>
      </trkpt>
      <trkpt lat="45.96693" lon="6.58271">
        <ele>1530.7</ele>
        <time>2026-02-02T07:27:55Z</time>
      </trkpt>
      <trkpt lat="45.96693" lon="6.5827">
        <ele>1530.8</ele>
        <time>2026-02-02T07:27:56Z</time>
      </trkpt>
      <trkpt lat="45.96693" lon="6.58268">
        <ele>1530.9</ele>
        <time>2026-02-02T07:27:57Z</time>
      </trkpt>
      <trkpt lat="45.96692" lon="6.58267">
        <ele>1531.1</ele>
        <time>2026-02-02T07:27:58Z</time>
      </trkpt>
      <trkpt lat="45.96692" lon="6.58265">
        <ele>1531.3</ele>
        <time>2026-02-02T07:27:59Z</time>
      </trkpt>
      <trkpt lat="45.96691" lon="6.58263">
        <ele>1531.5</ele>
        <time>2026-02-02T07:28:00Z</time>
      </trkpt>
      <trkpt lat="45.96691" lon="6.58262">
        <ele>1531.7</ele>
        <time>2026-02-02T07:28:01Z</time>
      </trkpt>
      <trkpt lat="45.9669" lon="6.5826">
        <ele>1531.8</ele>
        <time>2026-02-02T07:28:02Z</time>
      </trkpt>
      <trkpt lat="45.9669" lon="6.58257">
        <ele>1532.1</ele>
        <time>2026-02-02T07:28:03Z</time>
      </trkpt>
      <trkpt lat="45.96689" lon="6.58256">
        <ele>1532.2</ele>
        <time>2026-02-02T07:28:04Z</time>
      </trkpt>
      <trkpt lat="45.96689" lon="6.58255">
        <ele>1532.3</ele>
        <time>2026-02-02T07:28:05Z</time>
      </trkpt>
      <trkpt lat="45.96689" lon="6.58253">
        <ele>1532.5</ele>
        <time>2026-02-02T07:28:06Z</time>
      </trkpt>
      <trkpt lat="45.96689" lon="6.58251">
        <ele>1532.7</ele>
        <time>2026-02-02T07:28:07Z</time>
      </trkpt>
      <trkpt lat="45.96689" lon="6.5825">
        <ele>1532.8</ele>
        <time>2026-02-02T07:28:08Z</time>
      </trkpt>
      <trkpt lat="45.96688" lon="6.58248">
        <ele>1533</ele>
        <time>2026-02-02T07:28:09Z</time>
      </trkpt>
      <trkpt lat="45.96688" lon="6.58247">
        <ele>1533.2</ele>
        <time>2026-02-02T07:28:10Z</time>
      </trkpt>
      <trkpt lat="45.96687" lon="6.58246">
        <ele>1533.3</ele>
        <time>2026-02-02T07:28:11Z</time>
      </trkpt>
      <trkpt lat="45.96687" lon="6.58244">
        <ele>1533.5</ele>
        <time>2026-02-02T07:28:12Z</time>
      </trkpt>
      <trkpt lat="45.96686" lon="6.58243">
        <ele>1533.6</ele>
        <time>2026-02-02T07:28:13Z</time>
      </trkpt>
      <trkpt lat="45.96685" lon="6.58242">
        <ele>1533.8</ele>
        <time>2026-02-02T07:28:14Z</time>
      </trkpt>
      <trkpt lat="45.96685" lon="6.5824">
        <ele>1533.9</ele>
        <time>2026-02-02T07:28:15Z</time>
      </trkpt>
      <trkpt lat="45.96685" lon="6.58238">
        <ele>1534.1</ele>
        <time>2026-02-02T07:28:16Z</time>
      </trkpt>
      <trkpt lat="45.96685" lon="6.58237">
        <ele>1534.3</ele>
        <time>2026-02-02T07:28:17Z</time>
      </trkpt>
      <trkpt lat="45.96685" lon="6.58235">
        <ele>1534.5</ele>
        <time>2026-02-02T07:28:18Z</time>
      </trkpt>
      <trkpt lat="45.96684" lon="6.58234">
        <ele>1534.7</ele>
        <time>2026-02-02T07:28:19Z</time>
      </trkpt>
      <trkpt lat="45.96683" lon="6.58233">
        <ele>1534.9</ele>
        <time>2026-02-02T07:28:20Z</time>
      </trkpt>
      <trkpt lat="45.96681" lon="6.58231">
        <ele>1535.1</ele>
        <time>2026-02-02T07:28:21Z</time>
      </trkpt>
      <trkpt lat="45.96681" lon="6.5823">
        <ele>1535.2</ele>
        <time>2026-02-02T07:28:22Z</time>
      </trkpt>
      <trkpt lat="45.96681" lon="6.58229">
        <ele>1535.3</ele>
        <time>2026-02-02T07:28:23Z</time>
      </trkpt>
      <trkpt lat="45.96681" lon="6.58229">
        <ele>1535.4</ele>
        <time>2026-02-02T07:28:24Z</time>
      </trkpt>
      <trkpt lat="45.96681" lon="6.58228">
        <ele>1535.5</ele>
        <time>2026-02-02T07:28:25Z</time>
      </trkpt>
      <trkpt lat="45.96681" lon="6.58224">
        <ele>1535.8</ele>
        <time>2026-02-02T07:28:26Z</time>
      </trkpt>
      <trkpt lat="45.9668" lon="6.58223">
        <ele>1536</ele>
        <time>2026-02-02T07:28:27Z</time>
      </trkpt>
      <trkpt lat="45.96664" lon="6.58194">
        <ele>1539.8</ele>
        <time>2026-02-02T07:28:49Z</time>
      </trkpt>
      <trkpt lat="45.96664" lon="6.58193">
        <ele>1539.9</ele>
        <time>2026-02-02T07:28:50Z</time>
      </trkpt>
      <trkpt lat="45.96664" lon="6.58192">
        <ele>1540</ele>
        <time>2026-02-02T07:28:51Z</time>
      </trkpt>
      <trkpt lat="45.96665" lon="6.58191">
        <ele>1540.1</ele>
        <time>2026-02-02T07:28:52Z</time>
      </trkpt>
      <trkpt lat="45.96665" lon="6.5819">
        <ele>1540.2</ele>
        <time>2026-02-02T07:28:53Z</time>
      </trkpt>
      <trkpt lat="45.96665" lon="6.58189">
        <ele>1540.3</ele>
        <time>2026-02-02T07:28:54Z</time>
      </trkpt>
      <trkpt lat="45.96665" lon="6.58189">
        <ele>1540.3</ele>
        <time>2026-02-02T07:28:55Z</time>
      </trkpt>
      <trkpt lat="45.96665" lon="6.5819">
        <ele>1540.4</ele>
        <time>2026-02-02T07:28:56Z</time>
      </trkpt>
      <trkpt lat="45.96664" lon="6.58188">
        <ele>1540.6</ele>
        <time>2026-02-02T07:28:57Z</time>
      </trkpt>
      <trkpt lat="45.96663" lon="6.58186">
        <ele>1540.9</ele>
        <time>2026-02-02T07:28:58Z</time>
      </trkpt>
      <trkpt lat="45.96663" lon="6.58184">
        <ele>1541.1</ele>
        <time>2026-02-02T07:28:59Z</time>
      </trkpt>
      <trkpt lat="45.96663" lon="6.58182">
        <ele>1541.3</ele>
        <time>2026-02-02T07:29:00Z</time>
      </trkpt>
      <trkpt lat="45.96662" lon="6.58181">
        <ele>1541.5</ele>
        <time>2026-02-02T07:29:01Z</time>
      </trkpt>
      <trkpt lat="45.96661" lon="6.58179">
        <ele>1541.6</ele>
        <time>2026-02-02T07:29:02Z</time>
      </trkpt>
      <trkpt lat="45.96661" lon="6.58178">
        <ele>1541.8</ele>
        <time>2026-02-02T07:29:03Z</time>
      </trkpt>
      <trkpt lat="45.96661" lon="6.58177">
        <ele>1541.9</ele>
        <time>2026-02-02T07:29:04Z</time>
      </trkpt>
      <trkpt lat="45.9666" lon="6.58175">
        <ele>1542.1</ele>
        <time>2026-02-02T07:29:05Z</time>
      </trkpt>
      <trkpt lat="45.9666" lon="6.58173">
        <ele>1542.3</ele>
        <time>2026-02-02T07:29:06Z</time>
      </trkpt>
      <trkpt lat="45.96659" lon="6.58171">
        <ele>1542.7</ele>
        <time>2026-02-02T07:29:07Z</time>
      </trkpt>
      <trkpt lat="45.96659" lon="6.58169">
        <ele>1542.8</ele>
        <time>2026-02-02T07:29:08Z</time>
      </trkpt>
      <trkpt lat="45.96659" lon="6.58168">
        <ele>1543</ele>
        <time>2026-02-02T07:29:09Z</time>
      </trkpt>
      <trkpt lat="45.96658" lon="6.58167">
        <ele>1543.2</ele>
        <time>2026-02-02T07:29:10Z</time>
      </trkpt>
      <trkpt lat="45.96657" lon="6.58166">
        <ele>1543.4</ele>
        <time>2026-02-02T07:29:11Z</time>
      </trkpt>
      <trkpt lat="45.96656" lon="6.58164">
        <ele>1543.6</ele>
        <time>2026-02-02T07:29:12Z</time>
      </trkpt>
      <trkpt lat="45.96655" lon="6.58164">
        <ele>1543.8</ele>
        <time>2026-02-02T07:29:13Z</time>
      </trkpt>
      <trkpt lat="45.96654" lon="6.58163">
        <ele>1543.9</ele>
        <time>2026-02-02T07:29:14Z</time>
      </trkpt>
      <trkpt lat="45.96654" lon="6.58161">
        <ele>1544.2</ele>
        <time>2026-02-02T07:29:15Z</time>
      </trkpt>
      <trkpt lat="45.96653" lon="6.5816">
        <ele>1544.3</ele>
        <time>2026-02-02T07:29:16Z</time>
      </trkpt>
      <trkpt lat="45.96652" lon="6.58159">
        <ele>1544.5</ele>
        <time>2026-02-02T07:29:17Z</time>
      </trkpt>
      <trkpt lat="45.96651" lon="6.58158">
        <ele>1544.7</ele>
        <time>2026-02-02T07:29:18Z</time>
      </trkpt>
      <trkpt lat="45.96651" lon="6.58157">
        <ele>1544.9</ele>
        <time>2026-02-02T07:29:19Z</time>
      </trkpt>
      <trkpt lat="45.9665" lon="6.58156">
        <ele>1545</ele>
        <time>2026-02-02T07:29:20Z</time>
      </trkpt>
      <trkpt lat="45.96649" lon="6.58155">
        <ele>1545.2</ele>
        <time>2026-02-02T07:29:21Z</time>
      </trkpt>
      <trkpt lat="45.96648" lon="6.58154">
        <ele>1545.4</ele>
        <time>2026-02-02T07:29:22Z</time>
      </trkpt>
      <trkpt lat="45.96648" lon="6.58153">
        <ele>1545.6</ele>
        <time>2026-02-02T07:29:23Z</time>
      </trkpt>
      <trkpt lat="45.96647" lon="6.58151">
        <ele>1545.8</ele>
        <time>2026-02-02T07:29:24Z</time>
      </trkpt>
      <trkpt lat="45.96647" lon="6.5815">
        <ele>1546</ele>
        <time>2026-02-02T07:29:25Z</time>
      </trkpt>
      <trkpt lat="45.96646" lon="6.58149">
        <ele>1546.2</ele>
        <time>2026-02-02T07:29:26Z</time>
      </trkpt>
      <trkpt lat="45.96646" lon="6.58147">
        <ele>1546.4</ele>
        <time>2026-02-02T07:29:27Z</time>
      </trkpt>
      <trkpt lat="45.96646" lon="6.58146">
        <ele>1546.6</ele>
        <time>2026-02-02T07:29:28Z</time>
      </trkpt>
      <trkpt lat="45.96646" lon="6.58145">
        <ele>1546.7</ele>
        <time>2026-02-02T07:29:29Z</time>
      </trkpt>
      <trkpt lat="45.96645" lon="6.58144">
        <ele>1546.9</ele>
        <time>2026-02-02T07:29:30Z</time>
      </trkpt>
      <trkpt lat="45.96645" lon="6.58143">
        <ele>1547</ele>
        <time>2026-02-02T07:29:31Z</time>
      </trkpt>
      <trkpt lat="45.96645" lon="6.58141">
        <ele>1547.3</ele>
        <time>2026-02-02T07:29:32Z</time>
      </trkpt>
      <trkpt lat="45.96644" lon="6.5814">
        <ele>1547.4</ele>
        <time>2026-02-02T07:29:33Z</time>
      </trkpt>
      <trkpt lat="45.96644" lon="6.5814">
        <ele>1547.6</ele>
        <time>2026-02-02T07:29:34Z</time>
      </trkpt>
      <trkpt lat="45.96643" lon="6.58139">
        <ele>1547.7</ele>
        <time>2026-02-02T07:29:35Z</time>
      </trkpt>
      <trkpt lat="45.96643" lon="6.58138">
        <ele>1547.9</ele>
        <time>2026-02-02T07:29:36Z</time>
      </trkpt>
      <trkpt lat="45.96644" lon="6.58136">
        <ele>1548.3</ele>
        <time>2026-02-02T07:29:37Z</time>
      </trkpt>
      <trkpt lat="45.96645" lon="6.58133">
        <ele>1548.7</ele>
        <time>2026-02-02T07:29:38Z</time>
      </trkpt>
      <trkpt lat="45.96645" lon="6.58132">
        <ele>1548.9</ele>
        <time>2026-02-02T07:29:39Z</time>
      </trkpt>
      <trkpt lat="45.96645" lon="6.58131">
        <ele>1549</ele>
        <time>2026-02-02T07:29:40Z</time>
      </trkpt>
      <trkpt lat="45.96646" lon="6.5813">
        <ele>1549.2</ele>
        <time>2026-02-02T07:29:41Z</time>
      </trkpt>
      <trkpt lat="45.96646" lon="6.58128">
        <ele>1549.4</ele>
        <time>2026-02-02T07:29:42Z</time>
      </trkpt>
      <trkpt lat="45.96646" lon="6.58127">
        <ele>1549.6</ele>
        <time>2026-02-02T07:29:43Z</time>
      </trkpt>
      <trkpt lat="45.96647" lon="6.58126">
        <ele>1549.8</ele>
        <time>2026-02-02T07:29:44Z</time>
      </trkpt>
      <trkpt lat="45.96647" lon="6.58125">
        <ele>1549.9</ele>
        <time>2026-02-02T07:29:45Z</time>
      </trkpt>
      <trkpt lat="45.96646" lon="6.58124">
        <ele>1550.1</ele>
        <time>2026-02-02T07:29:46Z</time>
      </trkpt>
      <trkpt lat="45.96647" lon="6.58122">
        <ele>1550.3</ele>
        <time>2026-02-02T07:29:47Z</time>
      </trkpt>
      <trkpt lat="45.96646" lon="6.58121">
        <ele>1550.5</ele>
        <time>2026-02-02T07:29:48Z</time>
      </trkpt>
      <trkpt lat="45.96645" lon="6.58119">
        <ele>1550.8</ele>
        <time>2026-02-02T07:29:49Z</time>
      </trkpt>
      <trkpt lat="45.96645" lon="6.58118">
        <ele>1551</ele>
        <time>2026-02-02T07:29:50Z</time>
      </trkpt>
      <trkpt lat="45.96644" lon="6.58117">
        <ele>1551.3</ele>
        <time>2026-02-02T07:29:51Z</time>
      </trkpt>
      <trkpt lat="45.96643" lon="6.58115">
        <ele>1551.5</ele>
        <time>2026-02-02T07:29:52Z</time>
      </trkpt>
      <trkpt lat="45.96642" lon="6.58114">
        <ele>1551.7</ele>
        <time>2026-02-02T07:29:53Z</time>
      </trkpt>
      <trkpt lat="45.96641" lon="6.58113">
        <ele>1551.9</ele>
        <time>2026-02-02T07:29:54Z</time>
      </trkpt>
      <trkpt lat="45.96641" lon="6.58113">
        <ele>1552.1</ele>
        <time>2026-02-02T07:29:55Z</time>
      </trkpt>
      <trkpt lat="45.9664" lon="6.58111">
        <ele>1552.3</ele>
        <time>2026-02-02T07:29:56Z</time>
      </trkpt>
      <trkpt lat="45.96639" lon="6.5811">
        <ele>1552.5</ele>
        <time>2026-02-02T07:29:57Z</time>
      </trkpt>
      <trkpt lat="45.96638" lon="6.58109">
        <ele>1552.7</ele>
        <time>2026-02-02T07:29:58Z</time>
      </trkpt>
      <trkpt lat="45.96638" lon="6.58108">
        <ele>1552.9</ele>
        <time>2026-02-02T07:29:59Z</time>
      </trkpt>
      <trkpt lat="45.96637" lon="6.58107">
        <ele>1553.1</ele>
        <time>2026-02-02T07:30:00Z</time>
      </trkpt>
      <trkpt lat="45.96636" lon="6.58105">
        <ele>1553.4</ele>
        <time>2026-02-02T07:30:01Z</time>
      </trkpt>
      <trkpt lat="45.96635" lon="6.58104">
        <ele>1553.6</ele>
        <time>2026-02-02T07:30:02Z</time>
      </trkpt>
      <trkpt lat="45.96635" lon="6.58103">
        <ele>1553.8</ele>
        <time>2026-02-02T07:30:03Z</time>
      </trkpt>
      <trkpt lat="45.96634" lon="6.58102">
        <ele>1553.9</ele>
        <time>2026-02-02T07:30:04Z</time>
      </trkpt>
      <trkpt lat="45.96634" lon="6.58101">
        <ele>1554.1</ele>
        <time>2026-02-02T07:30:05Z</time>
      </trkpt>
      <trkpt lat="45.96633" lon="6.581">
        <ele>1554.3</ele>
        <time>2026-02-02T07:30:06Z</time>
      </trkpt>
      <trkpt lat="45.96632" lon="6.58099">
        <ele>1554.5</ele>
        <time>2026-02-02T07:30:07Z</time>
      </trkpt>
      <trkpt lat="45.96631" lon="6.58098">
        <ele>1554.6</ele>
        <time>2026-02-02T07:30:08Z</time>
      </trkpt>
      <trkpt lat="45.96631" lon="6.58097">
        <ele>1554.9</ele>
        <time>2026-02-02T07:30:09Z</time>
      </trkpt>
      <trkpt lat="45.9663" lon="6.58096">
        <ele>1555.1</ele>
        <time>2026-02-02T07:30:10Z</time>
      </trkpt>
      <trkpt lat="45.96629" lon="6.58095">
        <ele>1555.3</ele>
        <time>2026-02-02T07:30:11Z</time>
      </trkpt>
      <trkpt lat="45.96628" lon="6.58094">
        <ele>1555.6</ele>
        <time>2026-02-02T07:30:12Z</time>
      </trkpt>
      <trkpt lat="45.96627" lon="6.58093">
        <ele>1555.7</ele>
        <time>2026-02-02T07:30:13Z</time>
      </trkpt>
      <trkpt lat="45.96626" lon="6.58093">
        <ele>1555.8</ele>
        <time>2026-02-02T07:30:14Z</time>
      </trkpt>
      <trkpt lat="45.96625" lon="6.58092">
        <ele>1556</ele>
        <time>2026-02-02T07:30:15Z</time>
      </trkpt>
      <trkpt lat="45.96624" lon="6.58091">
        <ele>1556.1</ele>
        <time>2026-02-02T07:30:16Z</time>
      </trkpt>
      <trkpt lat="45.96624" lon="6.58091">
        <ele>1556.3</ele>
        <time>2026-02-02T07:30:17Z</time>
      </trkpt>
      <trkpt lat="45.96623" lon="6.5809">
        <ele>1556.4</ele>
        <time>2026-02-02T07:30:18Z</time>
      </trkpt>
      <trkpt lat="45.96622" lon="6.58089">
        <ele>1556.5</ele>
        <time>2026-02-02T07:30:19Z</time>
      </trkpt>
      <trkpt lat="45.96622" lon="6.58088">
        <ele>1556.6</ele>
        <time>2026-02-02T07:30:20Z</time>
      </trkpt>
      <trkpt lat="45.96621" lon="6.58087">
        <ele>1556.8</ele>
        <time>2026-02-02T07:30:21Z</time>
      </trkpt>
      <trkpt lat="45.96621" lon="6.58085">
        <ele>1556.9</ele>
        <time>2026-02-02T07:30:22Z</time>
      </trkpt>
      <trkpt lat="45.9662" lon="6.58084">
        <ele>1557.1</ele>
        <time>2026-02-02T07:30:23Z</time>
      </trkpt>
      <trkpt lat="45.9662" lon="6.58082">
        <ele>1557.2</ele>
        <time>2026-02-02T07:30:24Z</time>
      </trkpt>
      <trkpt lat="45.96619" lon="6.58081">
        <ele>1557.4</ele>
        <time>2026-02-02T07:30:25Z</time>
      </trkpt>
      <trkpt lat="45.96619" lon="6.58079">
        <ele>1557.6</ele>
        <time>2026-02-02T07:30:26Z</time>
      </trkpt>
      <trkpt lat="45.96619" lon="6.58078">
        <ele>1557.7</ele>
        <time>2026-02-02T07:30:27Z</time>
      </trkpt>
      <trkpt lat="45.96619" lon="6.58077">
        <ele>1557.8</ele>
        <time>2026-02-02T07:30:28Z</time>
      </trkpt>
      <trkpt lat="45.96618" lon="6.58076">
        <ele>1558</ele>
        <time>2026-02-02T07:30:29Z</time>
      </trkpt>
      <trkpt lat="45.96618" lon="6.58074">
        <ele>1558.2</ele>
        <time>2026-02-02T07:30:30Z</time>
      </trkpt>
      <trkpt lat="45.96617" lon="6.58073">
        <ele>1558.4</ele>
        <time>2026-02-02T07:30:31Z</time>
      </trkpt>
      <trkpt lat="45.96617" lon="6.58071">
        <ele>1558.6</ele>
        <time>2026-02-02T07:30:32Z</time>
      </trkpt>
      <trkpt lat="45.96616" lon="6.58069">
        <ele>1558.9</ele>
        <time>2026-02-02T07:30:34Z</time>
      </trkpt>
      <trkpt lat="45.96615" lon="6.58067">
        <ele>1559.1</ele>
        <time>2026-02-02T07:30:35Z</time>
      </trkpt>
      <trkpt lat="45.96615" lon="6.58066">
        <ele>1559.3</ele>
        <time>2026-02-02T07:30:36Z</time>
      </trkpt>
      <trkpt lat="45.96615" lon="6.58065">
        <ele>1559.5</ele>
        <time>2026-02-02T07:30:37Z</time>
      </trkpt>
      <trkpt lat="45.96615" lon="6.58063">
        <ele>1559.7</ele>
        <time>2026-02-02T07:30:38Z</time>
      </trkpt>
      <trkpt lat="45.96614" lon="6.58062">
        <ele>1559.9</ele>
        <time>2026-02-02T07:30:39Z</time>
      </trkpt>
      <trkpt lat="45.96614" lon="6.5806">
        <ele>1560.1</ele>
        <time>2026-02-02T07:30:40Z</time>
      </trkpt>
      <trkpt lat="45.96613" lon="6.58059">
        <ele>1560.3</ele>
        <time>2026-02-02T07:30:41Z</time>
      </trkpt>
      <trkpt lat="45.96612" lon="6.58057">
        <ele>1560.7</ele>
        <time>2026-02-02T07:30:42Z</time>
      </trkpt>
      <trkpt lat="45.96611" lon="6.58056">
        <ele>1560.9</ele>
        <time>2026-02-02T07:30:44Z</time>
      </trkpt>
      <trkpt lat="45.96611" lon="6.58055">
        <ele>1561.1</ele>
        <time>2026-02-02T07:30:45Z</time>
      </trkpt>
      <trkpt lat="45.9661" lon="6.58054">
        <ele>1561.3</ele>
        <time>2026-02-02T07:30:46Z</time>
      </trkpt>
      <trkpt lat="45.96609" lon="6.58053">
        <ele>1561.5</ele>
        <time>2026-02-02T07:30:47Z</time>
      </trkpt>
      <trkpt lat="45.96608" lon="6.58052">
        <ele>1561.7</ele>
        <time>2026-02-02T07:30:48Z</time>
      </trkpt>
      <trkpt lat="45.96608" lon="6.5805">
        <ele>1562</ele>
        <time>2026-02-02T07:30:49Z</time>
      </trkpt>
      <trkpt lat="45.96607" lon="6.58049">
        <ele>1562.2</ele>
        <time>2026-02-02T07:30:50Z</time>
      </trkpt>
      <trkpt lat="45.96607" lon="6.58048">
        <ele>1562.3</ele>
        <time>2026-02-02T07:30:51Z</time>
      </trkpt>
      <trkpt lat="45.96606" lon="6.58047">
        <ele>1562.6</ele>
        <time>2026-02-02T07:30:52Z</time>
      </trkpt>
      <trkpt lat="45.96606" lon="6.58045">
        <ele>1562.8</ele>
        <time>2026-02-02T07:30:53Z</time>
      </trkpt>
      <trkpt lat="45.96606" lon="6.58044">
        <ele>1562.9</ele>
        <time>2026-02-02T07:30:54Z</time>
      </trkpt>
      <trkpt lat="45.96605" lon="6.58043">
        <ele>1563.1</ele>
        <time>2026-02-02T07:30:55Z</time>
      </trkpt>
      <trkpt lat="45.96605" lon="6.58041">
        <ele>1563.4</ele>
        <time>2026-02-02T07:30:56Z</time>
      </trkpt>
      <trkpt lat="45.96604" lon="6.5804">
        <ele>1563.6</ele>
        <time>2026-02-02T07:30:57Z</time>
      </trkpt>
      <trkpt lat="45.96604" lon="6.58039">
        <ele>1563.7</ele>
        <time>2026-02-02T07:30:58Z</time>
      </trkpt>
      <trkpt lat="45.96604" lon="6.58038">
        <ele>1563.9</ele>
        <time>2026-02-02T07:30:59Z</time>
      </trkpt>
      <trkpt lat="45.96603" lon="6.58036">
        <ele>1564.1</ele>
        <time>2026-02-02T07:31:00Z</time>
      </trkpt>
      <trkpt lat="45.96602" lon="6.58035">
        <ele>1564.4</ele>
        <time>2026-02-02T07:31:01Z</time>
      </trkpt>
      <trkpt lat="45.96601" lon="6.58033">
        <ele>1564.7</ele>
        <time>2026-02-02T07:31:02Z</time>
      </trkpt>
      <trkpt lat="45.966" lon="6.58032">
        <ele>1564.9</ele>
        <time>2026-02-02T07:31:03Z</time>
      </trkpt>
      <trkpt lat="45.96599" lon="6.58031">
        <ele>1565.1</ele>
        <time>2026-02-02T07:31:04Z</time>
      </trkpt>
      <trkpt lat="45.96599" lon="6.5803">
        <ele>1565.3</ele>
        <time>2026-02-02T07:31:05Z</time>
      </trkpt>
      <trkpt lat="45.96598" lon="6.58029">
        <ele>1565.5</ele>
        <time>2026-02-02T07:31:06Z</time>
      </trkpt>
      <trkpt lat="45.96597" lon="6.58028">
        <ele>1565.6</ele>
        <time>2026-02-02T07:31:07Z</time>
      </trkpt>
      <trkpt lat="45.96597" lon="6.58027">
        <ele>1565.8</ele>
        <time>2026-02-02T07:31:08Z</time>
      </trkpt>
      <trkpt lat="45.96597" lon="6.58025">
        <ele>1566</ele>
        <time>2026-02-02T07:31:09Z</time>
      </trkpt>
      <trkpt lat="45.96596" lon="6.58024">
        <ele>1566.2</ele>
        <time>2026-02-02T07:31:10Z</time>
      </trkpt>
      <trkpt lat="45.96596" lon="6.58022">
        <ele>1566.5</ele>
        <time>2026-02-02T07:31:11Z</time>
      </trkpt>
      <trkpt lat="45.96595" lon="6.58021">
        <ele>1566.6</ele>
        <time>2026-02-02T07:31:12Z</time>
      </trkpt>
      <trkpt lat="45.96595" lon="6.5802">
        <ele>1566.8</ele>
        <time>2026-02-02T07:31:13Z</time>
      </trkpt>
      <trkpt lat="45.96595" lon="6.58019">
        <ele>1566.9</ele>
        <time>2026-02-02T07:31:14Z</time>
      </trkpt>
      <trkpt lat="45.96594" lon="6.58018">
        <ele>1567.1</ele>
        <time>2026-02-02T07:31:15Z</time>
      </trkpt>
      <trkpt lat="45.96594" lon="6.58017">
        <ele>1567.3</ele>
        <time>2026-02-02T07:31:16Z</time>
      </trkpt>
      <trkpt lat="45.96593" lon="6.58017">
        <ele>1567.4</ele>
        <time>2026-02-02T07:31:17Z</time>
      </trkpt>
      <trkpt lat="45.96592" lon="6.58016">
        <ele>1567.6</ele>
        <time>2026-02-02T07:31:18Z</time>
      </trkpt>
      <trkpt lat="45.96591" lon="6.58015">
        <ele>1567.7</ele>
        <time>2026-02-02T07:31:19Z</time>
      </trkpt>
      <trkpt lat="45.96591" lon="6.58014">
        <ele>1567.9</ele>
        <time>2026-02-02T07:31:20Z</time>
      </trkpt>
      <trkpt lat="45.9659" lon="6.58013">
        <ele>1568.1</ele>
        <time>2026-02-02T07:31:21Z</time>
      </trkpt>
      <trkpt lat="45.96589" lon="6.58012">
        <ele>1568.3</ele>
        <time>2026-02-02T07:31:22Z</time>
      </trkpt>
      <trkpt lat="45.96589" lon="6.58011">
        <ele>1568.5</ele>
        <time>2026-02-02T07:31:23Z</time>
      </trkpt>
      <trkpt lat="45.96588" lon="6.58009">
        <ele>1568.8</ele>
        <time>2026-02-02T07:31:24Z</time>
      </trkpt>
      <trkpt lat="45.96587" lon="6.58008">
        <ele>1569</ele>
        <time>2026-02-02T07:31:25Z</time>
      </trkpt>
      <trkpt lat="45.96587" lon="6.58006">
        <ele>1569.3</ele>
        <time>2026-02-02T07:31:27Z</time>
      </trkpt>
      <trkpt lat="45.96586" lon="6.58004">
        <ele>1569.6</ele>
        <time>2026-02-02T07:31:28Z</time>
      </trkpt>
      <trkpt lat="45.96586" lon="6.58003">
        <ele>1569.7</ele>
        <time>2026-02-02T07:31:29Z</time>
      </trkpt>
      <trkpt lat="45.96585" lon="6.58002">
        <ele>1570</ele>
        <time>2026-02-02T07:31:30Z</time>
      </trkpt>
      <trkpt lat="45.96584" lon="6.58001">
        <ele>1570.2</ele>
        <time>2026-02-02T07:31:31Z</time>
      </trkpt>
      <trkpt lat="45.96583" lon="6.58">
        <ele>1570.4</ele>
        <time>2026-02-02T07:31:32Z</time>
      </trkpt>
      <trkpt lat="45.96583" lon="6.57999">
        <ele>1570.5</ele>
        <time>2026-02-02T07:31:33Z</time>
      </trkpt>
      <trkpt lat="45.96582" lon="6.57998">
        <ele>1570.7</ele>
        <time>2026-02-02T07:31:34Z</time>
      </trkpt>
      <trkpt lat="45.96582" lon="6.57997">
        <ele>1570.8</ele>
        <time>2026-02-02T07:31:35Z</time>
      </trkpt>
      <trkpt lat="45.96582" lon="6.57996">
        <ele>1571</ele>
        <time>2026-02-02T07:31:36Z</time>
      </trkpt>
      <trkpt lat="45.96581" lon="6.57995">
        <ele>1571.2</ele>
        <time>2026-02-02T07:31:37Z</time>
      </trkpt>
      <trkpt lat="45.96581" lon="6.57994">
        <ele>1571.3</ele>
        <time>2026-02-02T07:31:38Z</time>
      </trkpt>
      <trkpt lat="45.96581" lon="6.57993">
        <ele>1571.5</ele>
        <time>2026-02-02T07:31:39Z</time>
      </trkpt>
      <trkpt lat="45.9658" lon="6.57992">
        <ele>1571.6</ele>
        <time>2026-02-02T07:31:40Z</time>
      </trkpt>
      <trkpt lat="45.9658" lon="6.57991">
        <ele>1571.8</ele>
        <time>2026-02-02T07:31:41Z</time>
      </trkpt>
      <trkpt lat="45.96579" lon="6.57989">
        <ele>1572.1</ele>
        <time>2026-02-02T07:31:42Z</time>
      </trkpt>
      <trkpt lat="45.96579" lon="6.57988">
        <ele>1572.2</ele>
        <time>2026-02-02T07:31:43Z</time>
      </trkpt>
      <trkpt lat="45.96578" lon="6.57988">
        <ele>1572.4</ele>
        <time>2026-02-02T07:31:44Z</time>
      </trkpt>
      <trkpt lat="45.96578" lon="6.57987">
        <ele>1572.5</ele>
        <time>2026-02-02T07:31:45Z</time>
      </trkpt>
      <trkpt lat="45.96577" lon="6.57985">
        <ele>1572.8</ele>
        <time>2026-02-02T07:31:46Z</time>
      </trkpt>
      <trkpt lat="45.96577" lon="6.57984">
        <ele>1573</ele>
        <time>2026-02-02T07:31:47Z</time>
      </trkpt>
      <trkpt lat="45.96576" lon="6.57982">
        <ele>1573.2</ele>
        <time>2026-02-02T07:31:48Z</time>
      </trkpt>
      <trkpt lat="45.96576" lon="6.57981">
        <ele>1573.5</ele>
        <time>2026-02-02T07:31:49Z</time>
      </trkpt>
      <trkpt lat="45.96576" lon="6.5798">
        <ele>1573.6</ele>
        <time>2026-02-02T07:31:50Z</time>
      </trkpt>
      <trkpt lat="45.96576" lon="6.57978">
        <ele>1573.8</ele>
        <time>2026-02-02T07:31:51Z</time>
      </trkpt>
      <trkpt lat="45.96575" lon="6.57977">
        <ele>1574</ele>
        <time>2026-02-02T07:31:52Z</time>
      </trkpt>
      <trkpt lat="45.96575" lon="6.57976">
        <ele>1574.2</ele>
        <time>2026-02-02T07:31:53Z</time>
      </trkpt>
      <trkpt lat="45.96575" lon="6.57975">
        <ele>1574.4</ele>
        <time>2026-02-02T07:31:54Z</time>
      </trkpt>
      <trkpt lat="45.96574" lon="6.57974">
        <ele>1574.6</ele>
        <time>2026-02-02T07:31:55Z</time>
      </trkpt>
      <trkpt lat="45.96574" lon="6.57973">
        <ele>1574.7</ele>
        <time>2026-02-02T07:31:56Z</time>
      </trkpt>
      <trkpt lat="45.96574" lon="6.57971">
        <ele>1574.9</ele>
        <time>2026-02-02T07:31:57Z</time>
      </trkpt>
      <trkpt lat="45.96574" lon="6.5797">
        <ele>1575.1</ele>
        <time>2026-02-02T07:31:58Z</time>
      </trkpt>
      <trkpt lat="45.96573" lon="6.57969">
        <ele>1575.3</ele>
        <time>2026-02-02T07:31:59Z</time>
      </trkpt>
      <trkpt lat="45.96573" lon="6.57968">
        <ele>1575.5</ele>
        <time>2026-02-02T07:32:00Z</time>
      </trkpt>
      <trkpt lat="45.96573" lon="6.57966">
        <ele>1575.7</ele>
        <time>2026-02-02T07:32:01Z</time>
      </trkpt>
      <trkpt lat="45.96573" lon="6.57964">
        <ele>1575.9</ele>
        <time>2026-02-02T07:32:02Z</time>
      </trkpt>
      <trkpt lat="45.96572" lon="6.57963">
        <ele>1576.1</ele>
        <time>2026-02-02T07:32:03Z</time>
      </trkpt>
      <trkpt lat="45.96572" lon="6.57961">
        <ele>1576.4</ele>
        <time>2026-02-02T07:32:04Z</time>
      </trkpt>
      <trkpt lat="45.96572" lon="6.5796">
        <ele>1576.6</ele>
        <time>2026-02-02T07:32:05Z</time>
      </trkpt>
      <trkpt lat="45.96572" lon="6.57959">
        <ele>1576.7</ele>
        <time>2026-02-02T07:32:06Z</time>
      </trkpt>
      <trkpt lat="45.96571" lon="6.57959">
        <ele>1576.8</ele>
        <time>2026-02-02T07:32:07Z</time>
      </trkpt>
      <trkpt lat="45.96571" lon="6.57958">
        <ele>1577</ele>
        <time>2026-02-02T07:32:08Z</time>
      </trkpt>
      <trkpt lat="45.9657" lon="6.57957">
        <ele>1577.2</ele>
        <time>2026-02-02T07:32:09Z</time>
      </trkpt>
      <trkpt lat="45.9657" lon="6.57956">
        <ele>1577.3</ele>
        <time>2026-02-02T07:32:10Z</time>
      </trkpt>
      <trkpt lat="45.96569" lon="6.57955">
        <ele>1577.5</ele>
        <time>2026-02-02T07:32:11Z</time>
      </trkpt>
      <trkpt lat="45.96569" lon="6.57954">
        <ele>1577.7</ele>
        <time>2026-02-02T07:32:12Z</time>
      </trkpt>
      <trkpt lat="45.96568" lon="6.57953">
        <ele>1577.9</ele>
        <time>2026-02-02T07:32:13Z</time>
      </trkpt>
      <trkpt lat="45.96568" lon="6.57951">
        <ele>1578.1</ele>
        <time>2026-02-02T07:32:14Z</time>
      </trkpt>
      <trkpt lat="45.96568" lon="6.5795">
        <ele>1578.3</ele>
        <time>2026-02-02T07:32:15Z</time>
      </trkpt>
      <trkpt lat="45.96567" lon="6.57948">
        <ele>1578.6</ele>
        <time>2026-02-02T07:32:16Z</time>
      </trkpt>
      <trkpt lat="45.96567" lon="6.57947">
        <ele>1578.8</ele>
        <time>2026-02-02T07:32:17Z</time>
      </trkpt>
      <trkpt lat="45.96567" lon="6.57945">
        <ele>1579</ele>
        <time>2026-02-02T07:32:18Z</time>
      </trkpt>
      <trkpt lat="45.96566" lon="6.57944">
        <ele>1579.2</ele>
        <time>2026-02-02T07:32:19Z</time>
      </trkpt>
      <trkpt lat="45.96566" lon="6.57943">
        <ele>1579.4</ele>
        <time>2026-02-02T07:32:20Z</time>
      </trkpt>
      <trkpt lat="45.96565" lon="6.57942">
        <ele>1579.6</ele>
        <time>2026-02-02T07:32:21Z</time>
      </trkpt>
      <trkpt lat="45.96564" lon="6.57941">
        <ele>1579.8</ele>
        <time>2026-02-02T07:32:22Z</time>
      </trkpt>
      <trkpt lat="45.96564" lon="6.5794">
        <ele>1579.9</ele>
        <time>2026-02-02T07:32:23Z</time>
      </trkpt>
      <trkpt lat="45.96564" lon="6.57938">
        <ele>1580.1</ele>
        <time>2026-02-02T07:32:24Z</time>
      </trkpt>
      <trkpt lat="45.96563" lon="6.57937">
        <ele>1580.3</ele>
        <time>2026-02-02T07:32:25Z</time>
      </trkpt>
      <trkpt lat="45.96563" lon="6.57936">
        <ele>1580.5</ele>
        <time>2026-02-02T07:32:26Z</time>
      </trkpt>
      <trkpt lat="45.96563" lon="6.57934">
        <ele>1580.7</ele>
        <time>2026-02-02T07:32:27Z</time>
      </trkpt>
      <trkpt lat="45.96563" lon="6.57933">
        <ele>1580.9</ele>
        <time>2026-02-02T07:32:28Z</time>
      </trkpt>
      <trkpt lat="45.96563" lon="6.57931">
        <ele>1581.1</ele>
        <time>2026-02-02T07:32:29Z</time>
      </trkpt>
      <trkpt lat="45.96562" lon="6.5793">
        <ele>1581.2</ele>
        <time>2026-02-02T07:32:30Z</time>
      </trkpt>
      <trkpt lat="45.96562" lon="6.57929">
        <ele>1581.4</ele>
        <time>2026-02-02T07:32:31Z</time>
      </trkpt>
      <trkpt lat="45.96562" lon="6.57928">
        <ele>1581.5</ele>
        <time>2026-02-02T07:32:32Z</time>
      </trkpt>
      <trkpt lat="45.96561" lon="6.57926">
        <ele>1581.7</ele>
        <time>2026-02-02T07:32:33Z</time>
      </trkpt>
      <trkpt lat="45.96561" lon="6.57925">
        <ele>1581.9</ele>
        <time>2026-02-02T07:32:34Z</time>
      </trkpt>
      <trkpt lat="45.96561" lon="6.57924">
        <ele>1582</ele>
        <time>2026-02-02T07:32:35Z</time>
      </trkpt>
      <trkpt lat="45.9656" lon="6.57922">
        <ele>1582.2</ele>
        <time>2026-02-02T07:32:37Z</time>
      </trkpt>
      <trkpt lat="45.9656" lon="6.57921">
        <ele>1582.3</ele>
        <time>2026-02-02T07:32:38Z</time>
      </trkpt>
      <trkpt lat="45.9656" lon="6.57919">
        <ele>1582.5</ele>
        <time>2026-02-02T07:32:39Z</time>
      </trkpt>
      <trkpt lat="45.96559" lon="6.57918">
        <ele>1582.6</ele>
        <time>2026-02-02T07:32:40Z</time>
      </trkpt>
      <trkpt lat="45.96559" lon="6.57917">
        <ele>1582.8</ele>
        <time>2026-02-02T07:32:41Z</time>
      </trkpt>
      <trkpt lat="45.96558" lon="6.57916">
        <ele>1582.9</ele>
        <time>2026-02-02T07:32:42Z</time>
      </trkpt>
      <trkpt lat="45.96557" lon="6.57915">
        <ele>1583</ele>
        <time>2026-02-02T07:32:43Z</time>
      </trkpt>
      <trkpt lat="45.96556" lon="6.57914">
        <ele>1583.2</ele>
        <time>2026-02-02T07:32:44Z</time>
      </trkpt>
      <trkpt lat="45.96556" lon="6.57913">
        <ele>1583.2</ele>
        <time>2026-02-02T07:32:45Z</time>
      </trkpt>
      <trkpt lat="45.96555" lon="6.57912">
        <ele>1583.3</ele>
        <time>2026-02-02T07:32:46Z</time>
      </trkpt>
      <trkpt lat="45.96554" lon="6.57912">
        <ele>1583.4</ele>
        <time>2026-02-02T07:32:47Z</time>
      </trkpt>
      <trkpt lat="45.96553" lon="6.57911">
        <ele>1583.5</ele>
        <time>2026-02-02T07:32:48Z</time>
      </trkpt>
      <trkpt lat="45.96553" lon="6.5791">
        <ele>1583.6</ele>
        <time>2026-02-02T07:32:49Z</time>
      </trkpt>
      <trkpt lat="45.96552" lon="6.57909">
        <ele>1583.7</ele>
        <time>2026-02-02T07:32:50Z</time>
      </trkpt>
      <trkpt lat="45.96551" lon="6.57908">
        <ele>1583.8</ele>
        <time>2026-02-02T07:32:51Z</time>
      </trkpt>
      <trkpt lat="45.96551" lon="6.57908">
        <ele>1583.8</ele>
        <time>2026-02-02T07:32:52Z</time>
      </trkpt>
      <trkpt lat="45.9655" lon="6.57907">
        <ele>1583.8</ele>
        <time>2026-02-02T07:32:53Z</time>
      </trkpt>
      <trkpt lat="45.9655" lon="6.57905">
        <ele>1584</ele>
        <time>2026-02-02T07:32:55Z</time>
      </trkpt>
      <trkpt lat="45.96549" lon="6.57904">
        <ele>1584</ele>
        <time>2026-02-02T07:32:56Z</time>
      </trkpt>
      <trkpt lat="45.96549" lon="6.57904">
        <ele>1584</ele>
        <time>2026-02-02T07:32:57Z</time>
      </trkpt>
      <trkpt lat="45.96549" lon="6.57903">
        <ele>1584.1</ele>
        <time>2026-02-02T07:32:58Z</time>
      </trkpt>
      <trkpt lat="45.96548" lon="6.57901">
        <ele>1584.2</ele>
        <time>2026-02-02T07:32:59Z</time>
      </trkpt>
      <trkpt lat="45.96548" lon="6.579">
        <ele>1584.2</ele>
        <time>2026-02-02T07:33:00Z</time>
      </trkpt>
      <trkpt lat="45.96547" lon="6.57899">
        <ele>1584.3</ele>
        <time>2026-02-02T07:33:01Z</time>
      </trkpt>
      <trkpt lat="45.96547" lon="6.57898">
        <ele>1584.4</ele>
        <time>2026-02-02T07:33:02Z</time>
      </trkpt>
      <trkpt lat="45.96546" lon="6.57896">
        <ele>1584.4</ele>
        <time>2026-02-02T07:33:03Z</time>
      </trkpt>
      <trkpt lat="45.96546" lon="6.57895">
        <ele>1584.5</ele>
        <time>2026-02-02T07:33:04Z</time>
      </trkpt>
      <trkpt lat="45.96546" lon="6.57894">
        <ele>1584.5</ele>
        <time>2026-02-02T07:33:05Z</time>
      </trkpt>
      <trkpt lat="45.96546" lon="6.57893">
        <ele>1584.6</ele>
        <time>2026-02-02T07:33:06Z</time>
      </trkpt>
      <trkpt lat="45.96546" lon="6.57891">
        <ele>1584.7</ele>
        <time>2026-02-02T07:33:07Z</time>
      </trkpt>
      <trkpt lat="45.96546" lon="6.5789">
        <ele>1584.8</ele>
        <time>2026-02-02T07:33:08Z</time>
      </trkpt>
      <trkpt lat="45.96546" lon="6.57889">
        <ele>1584.8</ele>
        <time>2026-02-02T07:33:09Z</time>
      </trkpt>
      <trkpt lat="45.96545" lon="6.57887">
        <ele>1584.9</ele>
        <time>2026-02-02T07:33:10Z</time>
      </trkpt>
      <trkpt lat="45.96545" lon="6.57885">
        <ele>1585.1</ele>
        <time>2026-02-02T07:33:11Z</time>
      </trkpt>
      <trkpt lat="45.96545" lon="6.57883">
        <ele>1585.2</ele>
        <time>2026-02-02T07:33:12Z</time>
      </trkpt>
      <trkpt lat="45.96545" lon="6.57883">
        <ele>1585.2</ele>
        <time>2026-02-02T07:33:13Z</time>
      </trkpt>
      <trkpt lat="45.96545" lon="6.57881">
        <ele>1585.3</ele>
        <time>2026-02-02T07:33:14Z</time>
      </trkpt>
      <trkpt lat="45.96545" lon="6.5788">
        <ele>1585.5</ele>
        <time>2026-02-02T07:33:15Z</time>
      </trkpt>
      <trkpt lat="45.96544" lon="6.57879">
        <ele>1585.6</ele>
        <time>2026-02-02T07:33:16Z</time>
      </trkpt>
      <trkpt lat="45.96544" lon="6.57876">
        <ele>1585.8</ele>
        <time>2026-02-02T07:33:17Z</time>
      </trkpt>
      <trkpt lat="45.96544" lon="6.57875">
        <ele>1585.9</ele>
        <time>2026-02-02T07:33:18Z</time>
      </trkpt>
      <trkpt lat="45.96543" lon="6.57874">
        <ele>1586</ele>
        <time>2026-02-02T07:33:19Z</time>
      </trkpt>
      <trkpt lat="45.96543" lon="6.57873">
        <ele>1586.1</ele>
        <time>2026-02-02T07:33:20Z</time>
      </trkpt>
      <trkpt lat="45.96543" lon="6.57872">
        <ele>1586.2</ele>
        <time>2026-02-02T07:33:21Z</time>
      </trkpt>
      <trkpt lat="45.96543" lon="6.5787">
        <ele>1586.4</ele>
        <time>2026-02-02T07:33:22Z</time>
      </trkpt>
      <trkpt lat="45.96542" lon="6.57869">
        <ele>1586.5</ele>
        <time>2026-02-02T07:33:23Z</time>
      </trkpt>
      <trkpt lat="45.96542" lon="6.57868">
        <ele>1586.7</ele>
        <time>2026-02-02T07:33:24Z</time>
      </trkpt>
      <trkpt lat="45.96542" lon="6.57866">
        <ele>1586.9</ele>
        <time>2026-02-02T07:33:25Z</time>
      </trkpt>
      <trkpt lat="45.96542" lon="6.57864">
        <ele>1587.1</ele>
        <time>2026-02-02T07:33:26Z</time>
      </trkpt>
      <trkpt lat="45.96542" lon="6.57863">
        <ele>1587.3</ele>
        <time>2026-02-02T07:33:27Z</time>
      </trkpt>
      <trkpt lat="45.96541" lon="6.57861">
        <ele>1587.5</ele>
        <time>2026-02-02T07:33:28Z</time>
      </trkpt>
      <trkpt lat="45.96541" lon="6.57859">
        <ele>1587.8</ele>
        <time>2026-02-02T07:33:29Z</time>
      </trkpt>
      <trkpt lat="45.9654" lon="6.57858">
        <ele>1588</ele>
        <time>2026-02-02T07:33:30Z</time>
      </trkpt>
      <trkpt lat="45.9654" lon="6.57856">
        <ele>1588.2</ele>
        <time>2026-02-02T07:33:31Z</time>
      </trkpt>
      <trkpt lat="45.96539" lon="6.57855">
        <ele>1588.4</ele>
        <time>2026-02-02T07:33:32Z</time>
      </trkpt>
      <trkpt lat="45.96539" lon="6.57854">
        <ele>1588.6</ele>
        <time>2026-02-02T07:33:33Z</time>
      </trkpt>
      <trkpt lat="45.96539" lon="6.57853">
        <ele>1588.8</ele>
        <time>2026-02-02T07:33:34Z</time>
      </trkpt>
      <trkpt lat="45.96538" lon="6.57851">
        <ele>1589</ele>
        <time>2026-02-02T07:33:35Z</time>
      </trkpt>
      <trkpt lat="45.96538" lon="6.57848">
        <ele>1589.4</ele>
        <time>2026-02-02T07:33:36Z</time>
      </trkpt>
      <trkpt lat="45.96537" lon="6.57846">
        <ele>1589.7</ele>
        <time>2026-02-02T07:33:37Z</time>
      </trkpt>
      <trkpt lat="45.96537" lon="6.57844">
        <ele>1590</ele>
        <time>2026-02-02T07:33:38Z</time>
      </trkpt>
      <trkpt lat="45.96537" lon="6.57842">
        <ele>1590.3</ele>
        <time>2026-02-02T07:33:39Z</time>
      </trkpt>
      <trkpt lat="45.96536" lon="6.5784">
        <ele>1590.6</ele>
        <time>2026-02-02T07:33:40Z</time>
      </trkpt>
      <trkpt lat="45.96536" lon="6.57838">
        <ele>1590.8</ele>
        <time>2026-02-02T07:33:41Z</time>
      </trkpt>
      <trkpt lat="45.96536" lon="6.57837">
        <ele>1591</ele>
        <time>2026-02-02T07:33:42Z</time>
      </trkpt>
      <trkpt lat="45.96536" lon="6.57835">
        <ele>1591.2</ele>
        <time>2026-02-02T07:33:43Z</time>
      </trkpt>
      <trkpt lat="45.96536" lon="6.57833">
        <ele>1591.5</ele>
        <time>2026-02-02T07:33:44Z</time>
      </trkpt>
      <trkpt lat="45.96536" lon="6.57831">
        <ele>1591.7</ele>
        <time>2026-02-02T07:33:45Z</time>
      </trkpt>
      <trkpt lat="45.96536" lon="6.5783">
        <ele>1591.9</ele>
        <time>2026-02-02T07:33:46Z</time>
      </trkpt>
      <trkpt lat="45.96536" lon="6.57828">
        <ele>1592.1</ele>
        <time>2026-02-02T07:33:47Z</time>
      </trkpt>
      <trkpt lat="45.96536" lon="6.57827">
        <ele>1592.3</ele>
        <time>2026-02-02T07:33:48Z</time>
      </trkpt>
      <trkpt lat="45.96535" lon="6.57825">
        <ele>1592.5</ele>
        <time>2026-02-02T07:33:49Z</time>
      </trkpt>
      <trkpt lat="45.96535" lon="6.57824">
        <ele>1592.7</ele>
        <time>2026-02-02T07:33:50Z</time>
      </trkpt>
      <trkpt lat="45.96535" lon="6.57822">
        <ele>1593</ele>
        <time>2026-02-02T07:33:51Z</time>
      </trkpt>
      <trkpt lat="45.96535" lon="6.5782">
        <ele>1593.4</ele>
        <time>2026-02-02T07:33:52Z</time>
      </trkpt>
      <trkpt lat="45.96534" lon="6.57819">
        <ele>1593.5</ele>
        <time>2026-02-02T07:33:53Z</time>
      </trkpt>
      <trkpt lat="45.96534" lon="6.57818">
        <ele>1593.7</ele>
        <time>2026-02-02T07:33:54Z</time>
      </trkpt>
      <trkpt lat="45.96533" lon="6.57816">
        <ele>1593.9</ele>
        <time>2026-02-02T07:33:56Z</time>
      </trkpt>
      <trkpt lat="45.96533" lon="6.57815">
        <ele>1594</ele>
        <time>2026-02-02T07:33:57Z</time>
      </trkpt>
      <trkpt lat="45.96533" lon="6.57815">
        <ele>1594.2</ele>
        <time>2026-02-02T07:33:58Z</time>
      </trkpt>
      <trkpt lat="45.96532" lon="6.57813">
        <ele>1594.3</ele>
        <time>2026-02-02T07:33:59Z</time>
      </trkpt>
      <trkpt lat="45.96532" lon="6.57812">
        <ele>1594.6</ele>
        <time>2026-02-02T07:34:00Z</time>
      </trkpt>
      <trkpt lat="45.96531" lon="6.57811">
        <ele>1594.8</ele>
        <time>2026-02-02T07:34:01Z</time>
      </trkpt>
      <trkpt lat="45.9653" lon="6.5781">
        <ele>1595</ele>
        <time>2026-02-02T07:34:02Z</time>
      </trkpt>
      <trkpt lat="45.9653" lon="6.57809">
        <ele>1595.1</ele>
        <time>2026-02-02T07:34:03Z</time>
      </trkpt>
      <trkpt lat="45.96529" lon="6.57808">
        <ele>1595.3</ele>
        <time>2026-02-02T07:34:04Z</time>
      </trkpt>
      <trkpt lat="45.96529" lon="6.57807">
        <ele>1595.4</ele>
        <time>2026-02-02T07:34:05Z</time>
      </trkpt>
      <trkpt lat="45.96529" lon="6.57807">
        <ele>1595.5</ele>
        <time>2026-02-02T07:34:06Z</time>
      </trkpt>
      <trkpt lat="45.96528" lon="6.57805">
        <ele>1595.7</ele>
        <time>2026-02-02T07:34:07Z</time>
      </trkpt>
      <trkpt lat="45.96528" lon="6.57804">
        <ele>1595.9</ele>
        <time>2026-02-02T07:34:08Z</time>
      </trkpt>
      <trkpt lat="45.96527" lon="6.57803">
        <ele>1596.1</ele>
        <time>2026-02-02T07:34:09Z</time>
      </trkpt>
      <trkpt lat="45.96527" lon="6.57802">
        <ele>1596.2</ele>
        <time>2026-02-02T07:34:10Z</time>
      </trkpt>
      <trkpt lat="45.96527" lon="6.57801">
        <ele>1596.3</ele>
        <time>2026-02-02T07:34:11Z</time>
      </trkpt>
      <trkpt lat="45.96526" lon="6.578">
        <ele>1596.5</ele>
        <time>2026-02-02T07:34:12Z</time>
      </trkpt>
      <trkpt lat="45.96526" lon="6.57799">
        <ele>1596.6</ele>
        <time>2026-02-02T07:34:13Z</time>
      </trkpt>
      <trkpt lat="45.96526" lon="6.57798">
        <ele>1596.8</ele>
        <time>2026-02-02T07:34:15Z</time>
      </trkpt>
      <trkpt lat="45.96526" lon="6.57797">
        <ele>1596.9</ele>
        <time>2026-02-02T07:34:16Z</time>
      </trkpt>
      <trkpt lat="45.96525" lon="6.57796">
        <ele>1597</ele>
        <time>2026-02-02T07:34:17Z</time>
      </trkpt>
      <trkpt lat="45.96525" lon="6.57795">
        <ele>1597.1</ele>
        <time>2026-02-02T07:34:18Z</time>
      </trkpt>
      <trkpt lat="45.96525" lon="6.57793">
        <ele>1597.4</ele>
        <time>2026-02-02T07:34:19Z</time>
      </trkpt>
      <trkpt lat="45.96524" lon="6.57792">
        <ele>1597.6</ele>
        <time>2026-02-02T07:34:20Z</time>
      </trkpt>
      <trkpt lat="45.96524" lon="6.57791">
        <ele>1597.7</ele>
        <time>2026-02-02T07:34:21Z</time>
      </trkpt>
      <trkpt lat="45.96524" lon="6.5779">
        <ele>1597.8</ele>
        <time>2026-02-02T07:34:22Z</time>
      </trkpt>
      <trkpt lat="45.96524" lon="6.57789">
        <ele>1598</ele>
        <time>2026-02-02T07:34:23Z</time>
      </trkpt>
      <trkpt lat="45.96524" lon="6.57787">
        <ele>1598.2</ele>
        <time>2026-02-02T07:34:24Z</time>
      </trkpt>
      <trkpt lat="45.96524" lon="6.57786">
        <ele>1598.3</ele>
        <time>2026-02-02T07:34:25Z</time>
      </trkpt>
      <trkpt lat="45.96524" lon="6.57785">
        <ele>1598.5</ele>
        <time>2026-02-02T07:34:26Z</time>
      </trkpt>
      <trkpt lat="45.96524" lon="6.57784">
        <ele>1598.6</ele>
        <time>2026-02-02T07:34:27Z</time>
      </trkpt>
      <trkpt lat="45.96524" lon="6.57782">
        <ele>1598.8</ele>
        <time>2026-02-02T07:34:28Z</time>
      </trkpt>
      <trkpt lat="45.96525" lon="6.57779">
        <ele>1599.2</ele>
        <time>2026-02-02T07:34:29Z</time>
      </trkpt>
      <trkpt lat="45.96525" lon="6.57778">
        <ele>1599.3</ele>
        <time>2026-02-02T07:34:30Z</time>
      </trkpt>
      <trkpt lat="45.96526" lon="6.57777">
        <ele>1599.5</ele>
        <time>2026-02-02T07:34:31Z</time>
      </trkpt>
      <trkpt lat="45.96526" lon="6.57776">
        <ele>1599.7</ele>
        <time>2026-02-02T07:34:32Z</time>
      </trkpt>
      <trkpt lat="45.96526" lon="6.57774">
        <ele>1599.9</ele>
        <time>2026-02-02T07:34:33Z</time>
      </trkpt>
      <trkpt lat="45.96527" lon="6.57773">
        <ele>1600</ele>
        <time>2026-02-02T07:34:34Z</time>
      </trkpt>
      <trkpt lat="45.96527" lon="6.57772">
        <ele>1600.2</ele>
        <time>2026-02-02T07:34:35Z</time>
      </trkpt>
      <trkpt lat="45.96527" lon="6.5777">
        <ele>1600.4</ele>
        <time>2026-02-02T07:34:36Z</time>
      </trkpt>
      <trkpt lat="45.96528" lon="6.57769">
        <ele>1600.6</ele>
        <time>2026-02-02T07:34:37Z</time>
      </trkpt>
      <trkpt lat="45.96528" lon="6.57767">
        <ele>1600.8</ele>
        <time>2026-02-02T07:34:38Z</time>
      </trkpt>
      <trkpt lat="45.96528" lon="6.57766">
        <ele>1600.9</ele>
        <time>2026-02-02T07:34:39Z</time>
      </trkpt>
      <trkpt lat="45.96528" lon="6.57765">
        <ele>1601.1</ele>
        <time>2026-02-02T07:34:40Z</time>
      </trkpt>
      <trkpt lat="45.96528" lon="6.57763">
        <ele>1601.3</ele>
        <time>2026-02-02T07:34:41Z</time>
      </trkpt>
      <trkpt lat="45.96528" lon="6.57761">
        <ele>1601.6</ele>
        <time>2026-02-02T07:34:42Z</time>
      </trkpt>
      <trkpt lat="45.96527" lon="6.5776">
        <ele>1601.7</ele>
        <time>2026-02-02T07:34:43Z</time>
      </trkpt>
      <trkpt lat="45.96527" lon="6.57759">
        <ele>1601.9</ele>
        <time>2026-02-02T07:34:44Z</time>
      </trkpt>
      <trkpt lat="45.96526" lon="6.57758">
        <ele>1602.1</ele>
        <time>2026-02-02T07:34:45Z</time>
      </trkpt>
      <trkpt lat="45.96526" lon="6.57757">
        <ele>1602.3</ele>
        <time>2026-02-02T07:34:46Z</time>
      </trkpt>
      <trkpt lat="45.96525" lon="6.57756">
        <ele>1602.5</ele>
        <time>2026-02-02T07:34:47Z</time>
      </trkpt>
      <trkpt lat="45.96525" lon="6.57754">
        <ele>1602.7</ele>
        <time>2026-02-02T07:34:48Z</time>
      </trkpt>
      <trkpt lat="45.96525" lon="6.57753">
        <ele>1602.8</ele>
        <time>2026-02-02T07:34:49Z</time>
      </trkpt>
      <trkpt lat="45.96525" lon="6.57752">
        <ele>1602.9</ele>
        <time>2026-02-02T07:34:50Z</time>
      </trkpt>
      <trkpt lat="45.96525" lon="6.57751">
        <ele>1603.1</ele>
        <time>2026-02-02T07:34:51Z</time>
      </trkpt>
      <trkpt lat="45.96526" lon="6.5775">
        <ele>1603.3</ele>
        <time>2026-02-02T07:34:52Z</time>
      </trkpt>
      <trkpt lat="45.96526" lon="6.57749">
        <ele>1603.5</ele>
        <time>2026-02-02T07:34:53Z</time>
      </trkpt>
      <trkpt lat="45.96527" lon="6.57748">
        <ele>1603.8</ele>
        <time>2026-02-02T07:34:54Z</time>
      </trkpt>
      <trkpt lat="45.96527" lon="6.57746">
        <ele>1604</ele>
        <time>2026-02-02T07:34:55Z</time>
      </trkpt>
      <trkpt lat="45.96527" lon="6.57745">
        <ele>1604.3</ele>
        <time>2026-02-02T07:34:56Z</time>
      </trkpt>
      <trkpt lat="45.96527" lon="6.57743">
        <ele>1604.5</ele>
        <time>2026-02-02T07:34:57Z</time>
      </trkpt>
      <trkpt lat="45.96526" lon="6.57742">
        <ele>1604.7</ele>
        <time>2026-02-02T07:34:58Z</time>
      </trkpt>
      <trkpt lat="45.96526" lon="6.57741">
        <ele>1604.9</ele>
        <time>2026-02-02T07:34:59Z</time>
      </trkpt>
      <trkpt lat="45.96525" lon="6.5774">
        <ele>1605.1</ele>
        <time>2026-02-02T07:35:00Z</time>
      </trkpt>
      <trkpt lat="45.96525" lon="6.57738">
        <ele>1605.4</ele>
        <time>2026-02-02T07:35:01Z</time>
      </trkpt>
      <trkpt lat="45.96524" lon="6.57737">
        <ele>1605.6</ele>
        <time>2026-02-02T07:35:02Z</time>
      </trkpt>
      <trkpt lat="45.96523" lon="6.57736">
        <ele>1605.8</ele>
        <time>2026-02-02T07:35:03Z</time>
      </trkpt>
      <trkpt lat="45.96523" lon="6.57735">
        <ele>1606.1</ele>
        <time>2026-02-02T07:35:04Z</time>
      </trkpt>
      <trkpt lat="45.96522" lon="6.57734">
        <ele>1606.3</ele>
        <time>2026-02-02T07:35:05Z</time>
      </trkpt>
      <trkpt lat="45.96522" lon="6.57732">
        <ele>1606.5</ele>
        <time>2026-02-02T07:35:06Z</time>
      </trkpt>
      <trkpt lat="45.96522" lon="6.57731">
        <ele>1606.8</ele>
        <time>2026-02-02T07:35:07Z</time>
      </trkpt>
      <trkpt lat="45.96522" lon="6.57729">
        <ele>1607</ele>
        <time>2026-02-02T07:35:08Z</time>
      </trkpt>
      <trkpt lat="45.96522" lon="6.57728">
        <ele>1607.2</ele>
        <time>2026-02-02T07:35:09Z</time>
      </trkpt>
      <trkpt lat="45.96521" lon="6.57727">
        <ele>1607.4</ele>
        <time>2026-02-02T07:35:10Z</time>
      </trkpt>
      <trkpt lat="45.96521" lon="6.57726">
        <ele>1607.6</ele>
        <time>2026-02-02T07:35:11Z</time>
      </trkpt>
      <trkpt lat="45.96521" lon="6.57724">
        <ele>1607.9</ele>
        <time>2026-02-02T07:35:12Z</time>
      </trkpt>
      <trkpt lat="45.96521" lon="6.57723">
        <ele>1608.1</ele>
        <time>2026-02-02T07:35:13Z</time>
      </trkpt>
      <trkpt lat="45.96521" lon="6.57722">
        <ele>1608.3</ele>
        <time>2026-02-02T07:35:14Z</time>
      </trkpt>
      <trkpt lat="45.9652" lon="6.5772">
        <ele>1608.5</ele>
        <time>2026-02-02T07:35:15Z</time>
      </trkpt>
      <trkpt lat="45.9652" lon="6.57719">
        <ele>1608.8</ele>
        <time>2026-02-02T07:35:16Z</time>
      </trkpt>
      <trkpt lat="45.9652" lon="6.57718">
        <ele>1608.9</ele>
        <time>2026-02-02T07:35:17Z</time>
      </trkpt>
      <trkpt lat="45.9652" lon="6.57717">
        <ele>1609.1</ele>
        <time>2026-02-02T07:35:18Z</time>
      </trkpt>
      <trkpt lat="45.9652" lon="6.57716">
        <ele>1609.4</ele>
        <time>2026-02-02T07:35:19Z</time>
      </trkpt>
      <trkpt lat="45.9652" lon="6.57714">
        <ele>1609.6</ele>
        <time>2026-02-02T07:35:20Z</time>
      </trkpt>
      <trkpt lat="45.96521" lon="6.57713">
        <ele>1609.8</ele>
        <time>2026-02-02T07:35:21Z</time>
      </trkpt>
      <trkpt lat="45.96521" lon="6.57712">
        <ele>1610.1</ele>
        <time>2026-02-02T07:35:22Z</time>
      </trkpt>
      <trkpt lat="45.96521" lon="6.5771">
        <ele>1610.3</ele>
        <time>2026-02-02T07:35:23Z</time>
      </trkpt>
      <trkpt lat="45.96521" lon="6.57709">
        <ele>1610.5</ele>
        <time>2026-02-02T07:35:24Z</time>
      </trkpt>
      <trkpt lat="45.96521" lon="6.57708">
        <ele>1610.7</ele>
        <time>2026-02-02T07:35:25Z</time>
      </trkpt>
      <trkpt lat="45.9652" lon="6.57707">
        <ele>1610.8</ele>
        <time>2026-02-02T07:35:26Z</time>
      </trkpt>
      <trkpt lat="45.9652" lon="6.57706">
        <ele>1611.1</ele>
        <time>2026-02-02T07:35:27Z</time>
      </trkpt>
      <trkpt lat="45.9652" lon="6.57704">
        <ele>1611.3</ele>
        <time>2026-02-02T07:35:28Z</time>
      </trkpt>
      <trkpt lat="45.9652" lon="6.57703">
        <ele>1611.6</ele>
        <time>2026-02-02T07:35:29Z</time>
      </trkpt>
      <trkpt lat="45.9652" lon="6.57702">
        <ele>1611.8</ele>
        <time>2026-02-02T07:35:30Z</time>
      </trkpt>
      <trkpt lat="45.96519" lon="6.577">
        <ele>1612.1</ele>
        <time>2026-02-02T07:35:31Z</time>
      </trkpt>
      <trkpt lat="45.96519" lon="6.57698">
        <ele>1612.4</ele>
        <time>2026-02-02T07:35:32Z</time>
      </trkpt>
      <trkpt lat="45.96519" lon="6.57697">
        <ele>1612.6</ele>
        <time>2026-02-02T07:35:33Z</time>
      </trkpt>
      <trkpt lat="45.96518" lon="6.57696">
        <ele>1612.8</ele>
        <time>2026-02-02T07:35:34Z</time>
      </trkpt>
      <trkpt lat="45.96517" lon="6.57694">
        <ele>1613.1</ele>
        <time>2026-02-02T07:35:35Z</time>
      </trkpt>
      <trkpt lat="45.96517" lon="6.57693">
        <ele>1613.3</ele>
        <time>2026-02-02T07:35:36Z</time>
      </trkpt>
      <trkpt lat="45.96517" lon="6.57691">
        <ele>1613.6</ele>
        <time>2026-02-02T07:35:37Z</time>
      </trkpt>
      <trkpt lat="45.96516" lon="6.5769">
        <ele>1613.7</ele>
        <time>2026-02-02T07:35:38Z</time>
      </trkpt>
      <trkpt lat="45.96516" lon="6.57689">
        <ele>1613.9</ele>
        <time>2026-02-02T07:35:39Z</time>
      </trkpt>
      <trkpt lat="45.96516" lon="6.57687">
        <ele>1614.2</ele>
        <time>2026-02-02T07:35:40Z</time>
      </trkpt>
      <trkpt lat="45.96516" lon="6.57686">
        <ele>1614.4</ele>
        <time>2026-02-02T07:35:41Z</time>
      </trkpt>
      <trkpt lat="45.96516" lon="6.57684">
        <ele>1614.6</ele>
        <time>2026-02-02T07:35:42Z</time>
      </trkpt>
      <trkpt lat="45.96516" lon="6.57683">
        <ele>1614.8</ele>
        <time>2026-02-02T07:35:43Z</time>
      </trkpt>
      <trkpt lat="45.96516" lon="6.57681">
        <ele>1615</ele>
        <time>2026-02-02T07:35:44Z</time>
      </trkpt>
      <trkpt lat="45.96516" lon="6.57679">
        <ele>1615.2</ele>
        <time>2026-02-02T07:35:45Z</time>
      </trkpt>
      <trkpt lat="45.96516" lon="6.57678">
        <ele>1615.4</ele>
        <time>2026-02-02T07:35:46Z</time>
      </trkpt>
      <trkpt lat="45.96516" lon="6.57676">
        <ele>1615.6</ele>
        <time>2026-02-02T07:35:47Z</time>
      </trkpt>
      <trkpt lat="45.96516" lon="6.57675">
        <ele>1615.7</ele>
        <time>2026-02-02T07:35:48Z</time>
      </trkpt>
      <trkpt lat="45.96516" lon="6.57673">
        <ele>1615.9</ele>
        <time>2026-02-02T07:35:49Z</time>
      </trkpt>
      <trkpt lat="45.96516" lon="6.57672">
        <ele>1616.1</ele>
        <time>2026-02-02T07:35:50Z</time>
      </trkpt>
      <trkpt lat="45.96515" lon="6.57671">
        <ele>1616.3</ele>
        <time>2026-02-02T07:35:51Z</time>
      </trkpt>
      <trkpt lat="45.96515" lon="6.5767">
        <ele>1616.4</ele>
        <time>2026-02-02T07:35:52Z</time>
      </trkpt>
      <trkpt lat="45.96515" lon="6.57668">
        <ele>1616.6</ele>
        <time>2026-02-02T07:35:53Z</time>
      </trkpt>
      <trkpt lat="45.96514" lon="6.57667">
        <ele>1616.8</ele>
        <time>2026-02-02T07:35:54Z</time>
      </trkpt>
      <trkpt lat="45.96514" lon="6.57666">
        <ele>1616.9</ele>
        <time>2026-02-02T07:35:55Z</time>
      </trkpt>
      <trkpt lat="45.96514" lon="6.57665">
        <ele>1617</ele>
        <time>2026-02-02T07:35:56Z</time>
      </trkpt>
      <trkpt lat="45.96514" lon="6.57664">
        <ele>1617.1</ele>
        <time>2026-02-02T07:35:57Z</time>
      </trkpt>
      <trkpt lat="45.96514" lon="6.57662">
        <ele>1617.3</ele>
        <time>2026-02-02T07:35:58Z</time>
      </trkpt>
      <trkpt lat="45.96514" lon="6.57661">
        <ele>1617.4</ele>
        <time>2026-02-02T07:35:59Z</time>
      </trkpt>
      <trkpt lat="45.96514" lon="6.5766">
        <ele>1617.6</ele>
        <time>2026-02-02T07:36:00Z</time>
      </trkpt>
      <trkpt lat="45.96514" lon="6.57659">
        <ele>1617.7</ele>
        <time>2026-02-02T07:36:01Z</time>
      </trkpt>
      <trkpt lat="45.96514" lon="6.57657">
        <ele>1617.9</ele>
        <time>2026-02-02T07:36:02Z</time>
      </trkpt>
      <trkpt lat="45.96514" lon="6.57656">
        <ele>1618</ele>
        <time>2026-02-02T07:36:03Z</time>
      </trkpt>
      <trkpt lat="45.96513" lon="6.57655">
        <ele>1618.2</ele>
        <time>2026-02-02T07:36:04Z</time>
      </trkpt>
      <trkpt lat="45.96512" lon="6.57654">
        <ele>1618.4</ele>
        <time>2026-02-02T07:36:05Z</time>
      </trkpt>
      <trkpt lat="45.96512" lon="6.57652">
        <ele>1618.6</ele>
        <time>2026-02-02T07:36:06Z</time>
      </trkpt>
      <trkpt lat="45.96511" lon="6.57651">
        <ele>1618.9</ele>
        <time>2026-02-02T07:36:07Z</time>
      </trkpt>
      <trkpt lat="45.9651" lon="6.57649">
        <ele>1619.1</ele>
        <time>2026-02-02T07:36:08Z</time>
      </trkpt>
      <trkpt lat="45.9651" lon="6.57648">
        <ele>1619.3</ele>
        <time>2026-02-02T07:36:09Z</time>
      </trkpt>
      <trkpt lat="45.96509" lon="6.57647">
        <ele>1619.5</ele>
        <time>2026-02-02T07:36:10Z</time>
      </trkpt>
      <trkpt lat="45.96509" lon="6.57646">
        <ele>1619.6</ele>
        <time>2026-02-02T07:36:11Z</time>
      </trkpt>
      <trkpt lat="45.96508" lon="6.57645">
        <ele>1619.7</ele>
        <time>2026-02-02T07:36:12Z</time>
      </trkpt>
      <trkpt lat="45.96508" lon="6.57644">
        <ele>1619.9</ele>
        <time>2026-02-02T07:36:13Z</time>
      </trkpt>
      <trkpt lat="45.96507" lon="6.57643">
        <ele>1620.1</ele>
        <time>2026-02-02T07:36:14Z</time>
      </trkpt>
      <trkpt lat="45.96507" lon="6.57641">
        <ele>1620.3</ele>
        <time>2026-02-02T07:36:15Z</time>
      </trkpt>
      <trkpt lat="45.96506" lon="6.5764">
        <ele>1620.5</ele>
        <time>2026-02-02T07:36:16Z</time>
      </trkpt>
      <trkpt lat="45.96506" lon="6.57639">
        <ele>1620.7</ele>
        <time>2026-02-02T07:36:17Z</time>
      </trkpt>
      <trkpt lat="45.96505" lon="6.57638">
        <ele>1620.9</ele>
        <time>2026-02-02T07:36:18Z</time>
      </trkpt>
      <trkpt lat="45.96505" lon="6.57637">
        <ele>1621.1</ele>
        <time>2026-02-02T07:36:19Z</time>
      </trkpt>
      <trkpt lat="45.96504" lon="6.57635">
        <ele>1621.3</ele>
        <time>2026-02-02T07:36:20Z</time>
      </trkpt>
      <trkpt lat="45.96503" lon="6.57634">
        <ele>1621.5</ele>
        <time>2026-02-02T07:36:21Z</time>
      </trkpt>
      <trkpt lat="45.96503" lon="6.57632">
        <ele>1621.8</ele>
        <time>2026-02-02T07:36:22Z</time>
      </trkpt>
      <trkpt lat="45.96502" lon="6.57631">
        <ele>1622</ele>
        <time>2026-02-02T07:36:23Z</time>
      </trkpt>
      <trkpt lat="45.96501" lon="6.5763">
        <ele>1622.2</ele>
        <time>2026-02-02T07:36:24Z</time>
      </trkpt>
      <trkpt lat="45.96501" lon="6.57629">
        <ele>1622.5</ele>
        <time>2026-02-02T07:36:25Z</time>
      </trkpt>
      <trkpt lat="45.965" lon="6.57627">
        <ele>1622.7</ele>
        <time>2026-02-02T07:36:26Z</time>
      </trkpt>
      <trkpt lat="45.96499" lon="6.57626">
        <ele>1622.9</ele>
        <time>2026-02-02T07:36:27Z</time>
      </trkpt>
      <trkpt lat="45.96499" lon="6.57627">
        <ele>1622.9</ele>
        <time>2026-02-02T07:36:28Z</time>
      </trkpt>
      <trkpt lat="45.96499" lon="6.57626">
        <ele>1623</ele>
        <time>2026-02-02T07:36:29Z</time>
      </trkpt>
      <trkpt lat="45.96499" lon="6.57627">
        <ele>1623</ele>
        <time>2026-02-02T07:36:30Z</time>
      </trkpt>
      <trkpt lat="45.96499" lon="6.57627">
        <ele>1623</ele>
        <time>2026-02-02T07:36:31Z</time>
      </trkpt>
      <trkpt lat="45.96499" lon="6.57627">
        <ele>1623.1</ele>
        <time>2026-02-02T07:36:32Z</time>
      </trkpt>
      <trkpt lat="45.965" lon="6.57627">
        <ele>1623.1</ele>
        <time>2026-02-02T07:36:33Z</time>
      </trkpt>
      <trkpt lat="45.965" lon="6.57627">
        <ele>1623.1</ele>
        <time>2026-02-02T07:36:34Z</time>
      </trkpt>
      <trkpt lat="45.965" lon="6.57627">
        <ele>1623.2</ele>
        <time>2026-02-02T07:36:35Z</time>
      </trkpt>
      <trkpt lat="45.965" lon="6.57627">
        <ele>1623.2</ele>
        <time>2026-02-02T07:36:36Z</time>
      </trkpt>
      <trkpt lat="45.965" lon="6.57627">
        <ele>1623.2</ele>
        <time>2026-02-02T07:36:37Z</time>
      </trkpt>
      <trkpt lat="45.965" lon="6.57627">
        <ele>1623.2</ele>
        <time>2026-02-02T07:36:38Z</time>
      </trkpt>
      <trkpt lat="45.965" lon="6.57627">
        <ele>1623.3</ele>
        <time>2026-02-02T07:36:39Z</time>
      </trkpt>
      <trkpt lat="45.965" lon="6.57627">
        <ele>1623.3</ele>
        <time>2026-02-02T07:36:40Z</time>
      </trkpt>
      <trkpt lat="45.965" lon="6.57627">
        <ele>1623.3</ele>
        <time>2026-02-02T07:36:41Z</time>
      </trkpt>
      <trkpt lat="45.965" lon="6.57627">
        <ele>1623.3</ele>
        <time>2026-02-02T07:36:42Z</time>
      </trkpt>
      <trkpt lat="45.965" lon="6.57627">
        <ele>1623.3</ele>
        <time>2026-02-02T07:36:43Z</time>
      </trkpt>
      <trkpt lat="45.965" lon="6.57627">
        <ele>1623.3</ele>
        <time>2026-02-02T07:36:44Z</time>
      </trkpt>
      <trkpt lat="45.965" lon="6.57627">
        <ele>1623.3</ele>
        <time>2026-02-02T07:36:45Z</time>
      </trkpt>
      <trkpt lat="45.965" lon="6.57627">
        <ele>1623.3</ele>
        <time>2026-02-02T07:36:46Z</time>
      </trkpt>
      <trkpt lat="45.965" lon="6.57627">
        <ele>1623.4</ele>
        <time>2026-02-02T07:36:47Z</time>
      </trkpt>
      <trkpt lat="45.965" lon="6.57627">
        <ele>1623.4</ele>
        <time>2026-02-02T07:36:48Z</time>
      </trkpt>
      <trkpt lat="45.965" lon="6.57627">
        <ele>1623.4</ele>
        <time>2026-02-02T07:36:49Z</time>
      </trkpt>
      <trkpt lat="45.965" lon="6.57627">
        <ele>1623.4</ele>
        <time>2026-02-02T07:36:50Z</time>
      </trkpt>
      <trkpt lat="45.965" lon="6.57627">
        <ele>1623.4</ele>
        <time>2026-02-02T07:36:51Z</time>
      </trkpt>
      <trkpt lat="45.965" lon="6.57627">
        <ele>1623.4</ele>
        <time>2026-02-02T07:36:52Z</time>
      </trkpt>
      <trkpt lat="45.965" lon="6.57627">
        <ele>1623.4</ele>
        <time>2026-02-02T07:36:53Z</time>
      </trkpt>
      <trkpt lat="45.965" lon="6.57627">
        <ele>1623.4</ele>
        <time>2026-02-02T07:36:54Z</time>
      </trkpt>
      <trkpt lat="45.965" lon="6.57627">
        <ele>1623.4</ele>
        <time>2026-02-02T07:36:55Z</time>
      </trkpt>
      <trkpt lat="45.965" lon="6.57627">
        <ele>1623.4</ele>
        <time>2026-02-02T07:36:56Z</time>
      </trkpt>
      <trkpt lat="45.965" lon="6.57627">
        <ele>1623.4</ele>
        <time>2026-02-02T07:36:57Z</time>
      </trkpt>
      <trkpt lat="45.965" lon="6.57627">
        <ele>1623.4</ele>
        <time>2026-02-02T07:36:58Z</time>
      </trkpt>
      <trkpt lat="45.965" lon="6.57627">
        <ele>1623.4</ele>
        <time>2026-02-02T07:36:59Z</time>
      </trkpt>
      <trkpt lat="45.965" lon="6.57627">
        <ele>1623.4</ele>
        <time>2026-02-02T07:37:00Z</time>
      </trkpt>
      <trkpt lat="45.965" lon="6.57627">
        <ele>1623.4</ele>
        <time>2026-02-02T07:37:01Z</time>
      </trkpt>
      <trkpt lat="45.965" lon="6.57627">
        <ele>1623.4</ele>
        <time>2026-02-02T07:37:02Z</time>
      </trkpt>
      <trkpt lat="45.965" lon="6.57627">
        <ele>1623.4</ele>
        <time>2026-02-02T07:37:03Z</time>
      </trkpt>
      <trkpt lat="45.965" lon="6.57627">
        <ele>1623.4</ele>
        <time>2026-02-02T07:37:04Z</time>
      </trkpt>
      <trkpt lat="45.965" lon="6.57627">
        <ele>1623.4</ele>
        <time>2026-02-02T07:37:05Z</time>
      </trkpt>
      <trkpt lat="45.965" lon="6.57627">
        <ele>1623.4</ele>
        <time>2026-02-02T07:37:06Z</time>
      </trkpt>
      <trkpt lat="45.965" lon="6.57627">
        <ele>1623.4</ele>
        <time>2026-02-02T07:37:07Z</time>
      </trkpt>
      <trkpt lat="45.965" lon="6.57627">
        <ele>1623.4</ele>
        <time>2026-02-02T07:37:08Z</time>
      </trkpt>
      <trkpt lat="45.965" lon="6.57627">
        <ele>1623.4</ele>
        <time>2026-02-02T07:37:09Z</time>
      </trkpt>
      <trkpt lat="45.965" lon="6.57627">
        <ele>1623.4</ele>
        <time>2026-02-02T07:37:10Z</time>
      </trkpt>
      <trkpt lat="45.965" lon="6.57627">
        <ele>1623.4</ele>
        <time>2026-02-02T07:37:11Z</time>
      </trkpt>
      <trkpt lat="45.965" lon="6.57627">
        <ele>1623.4</ele>
        <time>2026-02-02T07:37:12Z</time>
      </trkpt>
      <trkpt lat="45.965" lon="6.57627">
        <ele>1623.4</ele>
        <time>2026-02-02T07:37:13Z</time>
      </trkpt>
      <trkpt lat="45.965" lon="6.57627">
        <ele>1623.4</ele>
        <time>2026-02-02T07:37:14Z</time>
      </trkpt>
      <trkpt lat="45.965" lon="6.57627">
        <ele>1623.4</ele>
        <time>2026-02-02T07:37:15Z</time>
      </trkpt>
      <trkpt lat="45.965" lon="6.57627">
        <ele>1623.4</ele>
        <time>2026-02-02T07:37:16Z</time>
      </trkpt>
      <trkpt lat="45.965" lon="6.57627">
        <ele>1623.4</ele>
        <time>2026-02-02T07:37:17Z</time>
      </trkpt>
      <trkpt lat="45.965" lon="6.57627">
        <ele>1623.4</ele>
        <time>2026-02-02T07:37:18Z</time>
      </trkpt>
      <trkpt lat="45.965" lon="6.57626">
        <ele>1623.5</ele>
        <time>2026-02-02T07:37:19Z</time>
      </trkpt>
      <trkpt lat="45.965" lon="6.57626">
        <ele>1623.6</ele>
        <time>2026-02-02T07:37:20Z</time>
      </trkpt>
      <trkpt lat="45.965" lon="6.57626">
        <ele>1623.6</ele>
        <time>2026-02-02T07:37:21Z</time>
      </trkpt>
      <trkpt lat="45.965" lon="6.57626">
        <ele>1623.6</ele>
        <time>2026-02-02T07:37:22Z</time>
      </trkpt>
      <trkpt lat="45.965" lon="6.57626">
        <ele>1623.6</ele>
        <time>2026-02-02T07:37:23Z</time>
      </trkpt>
      <trkpt lat="45.965" lon="6.57626">
        <ele>1623.6</ele>
        <time>2026-02-02T07:37:24Z</time>
      </trkpt>
      <trkpt lat="45.965" lon="6.57626">
        <ele>1623.6</ele>
        <time>2026-02-02T07:37:25Z</time>
      </trkpt>
      <trkpt lat="45.965" lon="6.57626">
        <ele>1623.6</ele>
        <time>2026-02-02T07:37:26Z</time>
      </trkpt>
      <trkpt lat="45.965" lon="6.57626">
        <ele>1623.6</ele>
        <time>2026-02-02T07:37:27Z</time>
      </trkpt>
      <trkpt lat="45.965" lon="6.57626">
        <ele>1623.6</ele>
        <time>2026-02-02T07:37:28Z</time>
      </trkpt>
      <trkpt lat="45.965" lon="6.57626">
        <ele>1623.6</ele>
        <time>2026-02-02T07:37:29Z</time>
      </trkpt>
      <trkpt lat="45.965" lon="6.57626">
        <ele>1623.6</ele>
        <time>2026-02-02T07:37:30Z</time>
      </trkpt>
      <trkpt lat="45.965" lon="6.57626">
        <ele>1623.6</ele>
        <time>2026-02-02T07:37:31Z</time>
      </trkpt>
      <trkpt lat="45.965" lon="6.57626">
        <ele>1623.6</ele>
        <time>2026-02-02T07:37:32Z</time>
      </trkpt>
      <trkpt lat="45.965" lon="6.57626">
        <ele>1623.6</ele>
        <time>2026-02-02T07:37:33Z</time>
      </trkpt>
      <trkpt lat="45.96501" lon="6.57626">
        <ele>1623.7</ele>
        <time>2026-02-02T07:37:34Z</time>
      </trkpt>
      <trkpt lat="45.96501" lon="6.57626">
        <ele>1623.7</ele>
        <time>2026-02-02T07:37:35Z</time>
      </trkpt>
      <trkpt lat="45.96501" lon="6.57626">
        <ele>1623.8</ele>
        <time>2026-02-02T07:37:36Z</time>
      </trkpt>
      <trkpt lat="45.96501" lon="6.57626">
        <ele>1623.8</ele>
        <time>2026-02-02T07:37:37Z</time>
      </trkpt>
      <trkpt lat="45.96501" lon="6.57626">
        <ele>1623.8</ele>
        <time>2026-02-02T07:37:38Z</time>
      </trkpt>
      <trkpt lat="45.96501" lon="6.57626">
        <ele>1623.8</ele>
        <time>2026-02-02T07:37:39Z</time>
      </trkpt>
      <trkpt lat="45.96501" lon="6.57626">
        <ele>1623.9</ele>
        <time>2026-02-02T07:37:40Z</time>
      </trkpt>
      <trkpt lat="45.96501" lon="6.57626">
        <ele>1623.9</ele>
        <time>2026-02-02T07:37:41Z</time>
      </trkpt>
      <trkpt lat="45.96501" lon="6.57626">
        <ele>1623.9</ele>
        <time>2026-02-02T07:37:42Z</time>
      </trkpt>
      <trkpt lat="45.96501" lon="6.57626">
        <ele>1623.9</ele>
        <time>2026-02-02T07:37:43Z</time>
      </trkpt>
      <trkpt lat="45.96501" lon="6.57626">
        <ele>1623.9</ele>
        <time>2026-02-02T07:37:44Z</time>
      </trkpt>
      <trkpt lat="45.96501" lon="6.57626">
        <ele>1623.9</ele>
        <time>2026-02-02T07:37:45Z</time>
      </trkpt>
      <trkpt lat="45.96501" lon="6.57626">
        <ele>1623.9</ele>
        <time>2026-02-02T07:37:46Z</time>
      </trkpt>
      <trkpt lat="45.96501" lon="6.57626">
        <ele>1623.9</ele>
        <time>2026-02-02T07:37:47Z</time>
      </trkpt>
      <trkpt lat="45.96501" lon="6.57626">
        <ele>1623.9</ele>
        <time>2026-02-02T07:37:48Z</time>
      </trkpt>
      <trkpt lat="45.96501" lon="6.57626">
        <ele>1623.9</ele>
        <time>2026-02-02T07:37:49Z</time>
      </trkpt>
      <trkpt lat="45.96501" lon="6.57626">
        <ele>1624</ele>
        <time>2026-02-02T07:37:50Z</time>
      </trkpt>
      <trkpt lat="45.96501" lon="6.57627">
        <ele>1624</ele>
        <time>2026-02-02T07:37:51Z</time>
      </trkpt>
      <trkpt lat="45.96501" lon="6.57626">
        <ele>1624.1</ele>
        <time>2026-02-02T07:37:52Z</time>
      </trkpt>
      <trkpt lat="45.96501" lon="6.57626">
        <ele>1624.1</ele>
        <time>2026-02-02T07:37:53Z</time>
      </trkpt>
      <trkpt lat="45.96501" lon="6.57627">
        <ele>1624.2</ele>
        <time>2026-02-02T07:37:54Z</time>
      </trkpt>
      <trkpt lat="45.96501" lon="6.57626">
        <ele>1624.3</ele>
        <time>2026-02-02T07:37:55Z</time>
      </trkpt>
      <trkpt lat="45.965" lon="6.57624">
        <ele>1624.6</ele>
        <time>2026-02-02T07:37:56Z</time>
      </trkpt>
      <trkpt lat="45.96499" lon="6.57622">
        <ele>1624.9</ele>
        <time>2026-02-02T07:37:57Z</time>
      </trkpt>
      <trkpt lat="45.96498" lon="6.57621">
        <ele>1625.2</ele>
        <time>2026-02-02T07:37:58Z</time>
      </trkpt>
      <trkpt lat="45.96497" lon="6.57619">
        <ele>1625.5</ele>
        <time>2026-02-02T07:37:59Z</time>
      </trkpt>
      <trkpt lat="45.96496" lon="6.57617">
        <ele>1625.7</ele>
        <time>2026-02-02T07:38:00Z</time>
      </trkpt>
      <trkpt lat="45.96496" lon="6.57615">
        <ele>1626</ele>
        <time>2026-02-02T07:38:01Z</time>
      </trkpt>
      <trkpt lat="45.96496" lon="6.57614">
        <ele>1626.2</ele>
        <time>2026-02-02T07:38:02Z</time>
      </trkpt>
      <trkpt lat="45.96495" lon="6.57612">
        <ele>1626.4</ele>
        <time>2026-02-02T07:38:03Z</time>
      </trkpt>
      <trkpt lat="45.96495" lon="6.57611">
        <ele>1626.5</ele>
        <time>2026-02-02T07:38:04Z</time>
      </trkpt>
      <trkpt lat="45.96495" lon="6.5761">
        <ele>1626.7</ele>
        <time>2026-02-02T07:38:05Z</time>
      </trkpt>
      <trkpt lat="45.96495" lon="6.57609">
        <ele>1626.9</ele>
        <time>2026-02-02T07:38:06Z</time>
      </trkpt>
      <trkpt lat="45.96494" lon="6.57607">
        <ele>1627.1</ele>
        <time>2026-02-02T07:38:07Z</time>
      </trkpt>
      <trkpt lat="45.96494" lon="6.57606">
        <ele>1627.4</ele>
        <time>2026-02-02T07:38:08Z</time>
      </trkpt>
      <trkpt lat="45.96493" lon="6.57604">
        <ele>1627.6</ele>
        <time>2026-02-02T07:38:09Z</time>
      </trkpt>
      <trkpt lat="45.96493" lon="6.57603">
        <ele>1627.8</ele>
        <time>2026-02-02T07:38:10Z</time>
      </trkpt>
      <trkpt lat="45.96493" lon="6.57601">
        <ele>1628.1</ele>
        <time>2026-02-02T07:38:11Z</time>
      </trkpt>
      <trkpt lat="45.96492" lon="6.576">
        <ele>1628.3</ele>
        <time>2026-02-02T07:38:12Z</time>
      </trkpt>
      <trkpt lat="45.96492" lon="6.57598">
        <ele>1628.5</ele>
        <time>2026-02-02T07:38:13Z</time>
      </trkpt>
      <trkpt lat="45.96492" lon="6.57597">
        <ele>1628.7</ele>
        <time>2026-02-02T07:38:14Z</time>
      </trkpt>
      <trkpt lat="45.96491" lon="6.57596">
        <ele>1628.9</ele>
        <time>2026-02-02T07:38:15Z</time>
      </trkpt>
      <trkpt lat="45.96491" lon="6.57595">
        <ele>1629.1</ele>
        <time>2026-02-02T07:38:16Z</time>
      </trkpt>
      <trkpt lat="45.9649" lon="6.57594">
        <ele>1629.3</ele>
        <time>2026-02-02T07:38:17Z</time>
      </trkpt>
      <trkpt lat="45.9649" lon="6.57593">
        <ele>1629.5</ele>
        <time>2026-02-02T07:38:18Z</time>
      </trkpt>
      <trkpt lat="45.96489" lon="6.57592">
        <ele>1629.6</ele>
        <time>2026-02-02T07:38:19Z</time>
      </trkpt>
      <trkpt lat="45.96489" lon="6.57591">
        <ele>1629.8</ele>
        <time>2026-02-02T07:38:20Z</time>
      </trkpt>
      <trkpt lat="45.96489" lon="6.5759">
        <ele>1630</ele>
        <time>2026-02-02T07:38:21Z</time>
      </trkpt>
      <trkpt lat="45.96489" lon="6.57588">
        <ele>1630.3</ele>
        <time>2026-02-02T07:38:22Z</time>
      </trkpt>
      <trkpt lat="45.96489" lon="6.57587">
        <ele>1630.5</ele>
        <time>2026-02-02T07:38:23Z</time>
      </trkpt>
      <trkpt lat="45.96489" lon="6.57585">
        <ele>1630.8</ele>
        <time>2026-02-02T07:38:24Z</time>
      </trkpt>
      <trkpt lat="45.96489" lon="6.57583">
        <ele>1631.1</ele>
        <time>2026-02-02T07:38:25Z</time>
      </trkpt>
      <trkpt lat="45.96488" lon="6.57582">
        <ele>1631.2</ele>
        <time>2026-02-02T07:38:26Z</time>
      </trkpt>
      <trkpt lat="45.96488" lon="6.57581">
        <ele>1631.4</ele>
        <time>2026-02-02T07:38:27Z</time>
      </trkpt>
      <trkpt lat="45.96488" lon="6.57581">
        <ele>1631.5</ele>
        <time>2026-02-02T07:38:28Z</time>
      </trkpt>
      <trkpt lat="45.96487" lon="6.5758">
        <ele>1631.6</ele>
        <time>2026-02-02T07:38:29Z</time>
      </trkpt>
      <trkpt lat="45.96487" lon="6.57578">
        <ele>1631.9</ele>
        <time>2026-02-02T07:38:30Z</time>
      </trkpt>
      <trkpt lat="45.96487" lon="6.57577">
        <ele>1632.1</ele>
        <time>2026-02-02T07:38:31Z</time>
      </trkpt>
      <trkpt lat="45.96487" lon="6.57576">
        <ele>1632.3</ele>
        <time>2026-02-02T07:38:32Z</time>
      </trkpt>
      <trkpt lat="45.96486" lon="6.57574">
        <ele>1632.6</ele>
        <time>2026-02-02T07:38:33Z</time>
      </trkpt>
      <trkpt lat="45.96486" lon="6.57573">
        <ele>1632.6</ele>
        <time>2026-02-02T07:38:34Z</time>
      </trkpt>
      <trkpt lat="45.96486" lon="6.57573">
        <ele>1632.8</ele>
        <time>2026-02-02T07:38:35Z</time>
      </trkpt>
      <trkpt lat="45.96485" lon="6.57572">
        <ele>1633</ele>
        <time>2026-02-02T07:38:36Z</time>
      </trkpt>
      <trkpt lat="45.96485" lon="6.5757">
        <ele>1633.3</ele>
        <time>2026-02-02T07:38:37Z</time>
      </trkpt>
      <trkpt lat="45.96484" lon="6.57569">
        <ele>1633.5</ele>
        <time>2026-02-02T07:38:38Z</time>
      </trkpt>
      <trkpt lat="45.96484" lon="6.57568">
        <ele>1633.6</ele>
        <time>2026-02-02T07:38:39Z</time>
      </trkpt>
      <trkpt lat="45.96484" lon="6.57567">
        <ele>1633.8</ele>
        <time>2026-02-02T07:38:40Z</time>
      </trkpt>
      <trkpt lat="45.96484" lon="6.57565">
        <ele>1634.1</ele>
        <time>2026-02-02T07:38:41Z</time>
      </trkpt>
      <trkpt lat="45.96483" lon="6.57564">
        <ele>1634.2</ele>
        <time>2026-02-02T07:38:42Z</time>
      </trkpt>
      <trkpt lat="45.96483" lon="6.57564">
        <ele>1634.3</ele>
        <time>2026-02-02T07:38:43Z</time>
      </trkpt>
      <trkpt lat="45.96483" lon="6.57562">
        <ele>1634.5</ele>
        <time>2026-02-02T07:38:44Z</time>
      </trkpt>
      <trkpt lat="45.96483" lon="6.57561">
        <ele>1634.8</ele>
        <time>2026-02-02T07:38:45Z</time>
      </trkpt>
      <trkpt lat="45.96483" lon="6.57559">
        <ele>1635</ele>
        <time>2026-02-02T07:38:46Z</time>
      </trkpt>
      <trkpt lat="45.96482" lon="6.57558">
        <ele>1635.2</ele>
        <time>2026-02-02T07:38:47Z</time>
      </trkpt>
      <trkpt lat="45.96482" lon="6.57557">
        <ele>1635.4</ele>
        <time>2026-02-02T07:38:48Z</time>
      </trkpt>
      <trkpt lat="45.96482" lon="6.57555">
        <ele>1635.6</ele>
        <time>2026-02-02T07:38:49Z</time>
      </trkpt>
      <trkpt lat="45.96482" lon="6.57554">
        <ele>1635.8</ele>
        <time>2026-02-02T07:38:50Z</time>
      </trkpt>
      <trkpt lat="45.96481" lon="6.57552">
        <ele>1636.2</ele>
        <time>2026-02-02T07:38:51Z</time>
      </trkpt>
      <trkpt lat="45.96481" lon="6.57551">
        <ele>1636.4</ele>
        <time>2026-02-02T07:38:52Z</time>
      </trkpt>
      <trkpt lat="45.96481" lon="6.57549">
        <ele>1636.5</ele>
        <time>2026-02-02T07:38:53Z</time>
      </trkpt>
      <trkpt lat="45.96481" lon="6.57548">
        <ele>1636.7</ele>
        <time>2026-02-02T07:38:54Z</time>
      </trkpt>
      <trkpt lat="45.9648" lon="6.57547">
        <ele>1637</ele>
        <time>2026-02-02T07:38:55Z</time>
      </trkpt>
      <trkpt lat="45.9648" lon="6.57545">
        <ele>1637.2</ele>
        <time>2026-02-02T07:38:56Z</time>
      </trkpt>
      <trkpt lat="45.96479" lon="6.57544">
        <ele>1637.5</ele>
        <time>2026-02-02T07:38:57Z</time>
      </trkpt>
      <trkpt lat="45.96478" lon="6.57542">
        <ele>1637.8</ele>
        <time>2026-02-02T07:38:58Z</time>
      </trkpt>
      <trkpt lat="45.96478" lon="6.57541">
        <ele>1638</ele>
        <time>2026-02-02T07:38:59Z</time>
      </trkpt>
      <trkpt lat="45.96477" lon="6.5754">
        <ele>1638.2</ele>
        <time>2026-02-02T07:39:00Z</time>
      </trkpt>
      <trkpt lat="45.96477" lon="6.57539">
        <ele>1638.3</ele>
        <time>2026-02-02T07:39:01Z</time>
      </trkpt>
      <trkpt lat="45.96477" lon="6.57538">
        <ele>1638.5</ele>
        <time>2026-02-02T07:39:02Z</time>
      </trkpt>
      <trkpt lat="45.96477" lon="6.57536">
        <ele>1638.7</ele>
        <time>2026-02-02T07:39:03Z</time>
      </trkpt>
      <trkpt lat="45.96477" lon="6.57535">
        <ele>1638.9</ele>
        <time>2026-02-02T07:39:04Z</time>
      </trkpt>
      <trkpt lat="45.96477" lon="6.57534">
        <ele>1639.1</ele>
        <time>2026-02-02T07:39:05Z</time>
      </trkpt>
      <trkpt lat="45.96476" lon="6.57532">
        <ele>1639.4</ele>
        <time>2026-02-02T07:39:06Z</time>
      </trkpt>
      <trkpt lat="45.96476" lon="6.57532">
        <ele>1639.5</ele>
        <time>2026-02-02T07:39:07Z</time>
      </trkpt>
      <trkpt lat="45.96476" lon="6.57531">
        <ele>1639.7</ele>
        <time>2026-02-02T07:39:08Z</time>
      </trkpt>
      <trkpt lat="45.96476" lon="6.5753">
        <ele>1639.8</ele>
        <time>2026-02-02T07:39:09Z</time>
      </trkpt>
      <trkpt lat="45.96475" lon="6.57528">
        <ele>1640.1</ele>
        <time>2026-02-02T07:39:10Z</time>
      </trkpt>
      <trkpt lat="45.96474" lon="6.57527">
        <ele>1640.4</ele>
        <time>2026-02-02T07:39:11Z</time>
      </trkpt>
      <trkpt lat="45.96473" lon="6.57525">
        <ele>1640.6</ele>
        <time>2026-02-02T07:39:12Z</time>
      </trkpt>
      <trkpt lat="45.96473" lon="6.57524">
        <ele>1640.8</ele>
        <time>2026-02-02T07:39:13Z</time>
      </trkpt>
      <trkpt lat="45.96473" lon="6.57523">
        <ele>1641</ele>
        <time>2026-02-02T07:39:14Z</time>
      </trkpt>
      <trkpt lat="45.96473" lon="6.57522">
        <ele>1641.2</ele>
        <time>2026-02-02T07:39:15Z</time>
      </trkpt>
      <trkpt lat="45.96472" lon="6.57521">
        <ele>1641.3</ele>
        <time>2026-02-02T07:39:16Z</time>
      </trkpt>
      <trkpt lat="45.96472" lon="6.5752">
        <ele>1641.6</ele>
        <time>2026-02-02T07:39:17Z</time>
      </trkpt>
      <trkpt lat="45.96471" lon="6.57518">
        <ele>1641.9</ele>
        <time>2026-02-02T07:39:18Z</time>
      </trkpt>
      <trkpt lat="45.9647" lon="6.57517">
        <ele>1642.1</ele>
        <time>2026-02-02T07:39:19Z</time>
      </trkpt>
      <trkpt lat="45.96469" lon="6.57517">
        <ele>1642.3</ele>
        <time>2026-02-02T07:39:20Z</time>
      </trkpt>
      <trkpt lat="45.96468" lon="6.57516">
        <ele>1642.5</ele>
        <time>2026-02-02T07:39:21Z</time>
      </trkpt>
      <trkpt lat="45.96467" lon="6.57514">
        <ele>1642.8</ele>
        <time>2026-02-02T07:39:22Z</time>
      </trkpt>
      <trkpt lat="45.96467" lon="6.57513">
        <ele>1643</ele>
        <time>2026-02-02T07:39:23Z</time>
      </trkpt>
      <trkpt lat="45.96466" lon="6.57512">
        <ele>1643.2</ele>
        <time>2026-02-02T07:39:24Z</time>
      </trkpt>
      <trkpt lat="45.96466" lon="6.5751">
        <ele>1643.5</ele>
        <time>2026-02-02T07:39:25Z</time>
      </trkpt>
      <trkpt lat="45.96466" lon="6.57508">
        <ele>1643.8</ele>
        <time>2026-02-02T07:39:26Z</time>
      </trkpt>
      <trkpt lat="45.96465" lon="6.57507">
        <ele>1644</ele>
        <time>2026-02-02T07:39:27Z</time>
      </trkpt>
      <trkpt lat="45.96465" lon="6.57506">
        <ele>1644.1</ele>
        <time>2026-02-02T07:39:28Z</time>
      </trkpt>
      <trkpt lat="45.96465" lon="6.57505">
        <ele>1644.3</ele>
        <time>2026-02-02T07:39:29Z</time>
      </trkpt>
      <trkpt lat="45.96464" lon="6.57504">
        <ele>1644.5</ele>
        <time>2026-02-02T07:39:30Z</time>
      </trkpt>
      <trkpt lat="45.96464" lon="6.57502">
        <ele>1644.7</ele>
        <time>2026-02-02T07:39:31Z</time>
      </trkpt>
      <trkpt lat="45.96463" lon="6.57502">
        <ele>1644.9</ele>
        <time>2026-02-02T07:39:32Z</time>
      </trkpt>
      <trkpt lat="45.96463" lon="6.57501">
        <ele>1645</ele>
        <time>2026-02-02T07:39:33Z</time>
      </trkpt>
      <trkpt lat="45.96464" lon="6.575">
        <ele>1645.2</ele>
        <time>2026-02-02T07:39:34Z</time>
      </trkpt>
      <trkpt lat="45.96463" lon="6.57499">
        <ele>1645.5</ele>
        <time>2026-02-02T07:39:35Z</time>
      </trkpt>
      <trkpt lat="45.96462" lon="6.57497">
        <ele>1645.7</ele>
        <time>2026-02-02T07:39:36Z</time>
      </trkpt>
      <trkpt lat="45.96462" lon="6.57497">
        <ele>1645.9</ele>
        <time>2026-02-02T07:39:37Z</time>
      </trkpt>
      <trkpt lat="45.96461" lon="6.57495">
        <ele>1646.2</ele>
        <time>2026-02-02T07:39:38Z</time>
      </trkpt>
      <trkpt lat="45.9646" lon="6.57493">
        <ele>1646.5</ele>
        <time>2026-02-02T07:39:39Z</time>
      </trkpt>
      <trkpt lat="45.96459" lon="6.5749">
        <ele>1647</ele>
        <time>2026-02-02T07:39:40Z</time>
      </trkpt>
      <trkpt lat="45.96458" lon="6.57489">
        <ele>1647.1</ele>
        <time>2026-02-02T07:39:41Z</time>
      </trkpt>
      <trkpt lat="45.96458" lon="6.57488">
        <ele>1647.3</ele>
        <time>2026-02-02T07:39:42Z</time>
      </trkpt>
      <trkpt lat="45.96457" lon="6.57487">
        <ele>1647.5</ele>
        <time>2026-02-02T07:39:43Z</time>
      </trkpt>
      <trkpt lat="45.96457" lon="6.57485">
        <ele>1647.7</ele>
        <time>2026-02-02T07:39:44Z</time>
      </trkpt>
      <trkpt lat="45.96456" lon="6.57484">
        <ele>1648</ele>
        <time>2026-02-02T07:39:45Z</time>
      </trkpt>
      <trkpt lat="45.96456" lon="6.57484">
        <ele>1648.1</ele>
        <time>2026-02-02T07:39:46Z</time>
      </trkpt>
      <trkpt lat="45.96455" lon="6.57483">
        <ele>1648.2</ele>
        <time>2026-02-02T07:39:47Z</time>
      </trkpt>
      <trkpt lat="45.96455" lon="6.57481">
        <ele>1648.5</ele>
        <time>2026-02-02T07:39:48Z</time>
      </trkpt>
      <trkpt lat="45.96454" lon="6.5748">
        <ele>1648.7</ele>
        <time>2026-02-02T07:39:49Z</time>
      </trkpt>
      <trkpt lat="45.96453" lon="6.57479">
        <ele>1648.9</ele>
        <time>2026-02-02T07:39:50Z</time>
      </trkpt>
      <trkpt lat="45.96453" lon="6.57478">
        <ele>1649.1</ele>
        <time>2026-02-02T07:39:51Z</time>
      </trkpt>
      <trkpt lat="45.96453" lon="6.57477">
        <ele>1649.2</ele>
        <time>2026-02-02T07:39:52Z</time>
      </trkpt>
      <trkpt lat="45.96452" lon="6.57475">
        <ele>1649.4</ele>
        <time>2026-02-02T07:39:53Z</time>
      </trkpt>
      <trkpt lat="45.96451" lon="6.57474">
        <ele>1649.7</ele>
        <time>2026-02-02T07:39:54Z</time>
      </trkpt>
      <trkpt lat="45.96451" lon="6.57474">
        <ele>1649.7</ele>
        <time>2026-02-02T07:39:55Z</time>
      </trkpt>
      <trkpt lat="45.9645" lon="6.57473">
        <ele>1649.9</ele>
        <time>2026-02-02T07:39:56Z</time>
      </trkpt>
      <trkpt lat="45.96449" lon="6.57472">
        <ele>1650.2</ele>
        <time>2026-02-02T07:39:57Z</time>
      </trkpt>
      <trkpt lat="45.96448" lon="6.57471">
        <ele>1650.3</ele>
        <time>2026-02-02T07:39:58Z</time>
      </trkpt>
      <trkpt lat="45.96448" lon="6.5747">
        <ele>1650.5</ele>
        <time>2026-02-02T07:39:59Z</time>
      </trkpt>
      <trkpt lat="45.96447" lon="6.57468">
        <ele>1650.8</ele>
        <time>2026-02-02T07:40:00Z</time>
      </trkpt>
      <trkpt lat="45.96447" lon="6.57467">
        <ele>1650.9</ele>
        <time>2026-02-02T07:40:01Z</time>
      </trkpt>
      <trkpt lat="45.96445" lon="6.57467">
        <ele>1651.1</ele>
        <time>2026-02-02T07:40:02Z</time>
      </trkpt>
      <trkpt lat="45.96445" lon="6.57465">
        <ele>1651.3</ele>
        <time>2026-02-02T07:40:03Z</time>
      </trkpt>
      <trkpt lat="45.96445" lon="6.57465">
        <ele>1651.4</ele>
        <time>2026-02-02T07:40:04Z</time>
      </trkpt>
      <trkpt lat="45.96444" lon="6.57464">
        <ele>1651.5</ele>
        <time>2026-02-02T07:40:05Z</time>
      </trkpt>
      <trkpt lat="45.96443" lon="6.57463">
        <ele>1651.7</ele>
        <time>2026-02-02T07:40:06Z</time>
      </trkpt>
      <trkpt lat="45.96443" lon="6.57462">
        <ele>1651.9</ele>
        <time>2026-02-02T07:40:07Z</time>
      </trkpt>
      <trkpt lat="45.96443" lon="6.5746">
        <ele>1652.1</ele>
        <time>2026-02-02T07:40:08Z</time>
      </trkpt>
      <trkpt lat="45.96442" lon="6.57459">
        <ele>1652.3</ele>
        <time>2026-02-02T07:40:09Z</time>
      </trkpt>
      <trkpt lat="45.96442" lon="6.57458">
        <ele>1652.4</ele>
        <time>2026-02-02T07:40:10Z</time>
      </trkpt>
      <trkpt lat="45.96441" lon="6.57457">
        <ele>1652.6</ele>
        <time>2026-02-02T07:40:11Z</time>
      </trkpt>
      <trkpt lat="45.9644" lon="6.57456">
        <ele>1652.8</ele>
        <time>2026-02-02T07:40:12Z</time>
      </trkpt>
      <trkpt lat="45.9644" lon="6.57455">
        <ele>1652.9</ele>
        <time>2026-02-02T07:40:13Z</time>
      </trkpt>
      <trkpt lat="45.9644" lon="6.57454">
        <ele>1653.1</ele>
        <time>2026-02-02T07:40:14Z</time>
      </trkpt>
      <trkpt lat="45.96439" lon="6.57452">
        <ele>1653.4</ele>
        <time>2026-02-02T07:40:15Z</time>
      </trkpt>
      <trkpt lat="45.96438" lon="6.57451">
        <ele>1653.6</ele>
        <time>2026-02-02T07:40:16Z</time>
      </trkpt>
      <trkpt lat="45.96438" lon="6.57449">
        <ele>1653.8</ele>
        <time>2026-02-02T07:40:17Z</time>
      </trkpt>
      <trkpt lat="45.96438" lon="6.57447">
        <ele>1654.1</ele>
        <time>2026-02-02T07:40:18Z</time>
      </trkpt>
      <trkpt lat="45.96438" lon="6.57445">
        <ele>1654.3</ele>
        <time>2026-02-02T07:40:19Z</time>
      </trkpt>
      <trkpt lat="45.96436" lon="6.57444">
        <ele>1654.7</ele>
        <time>2026-02-02T07:40:20Z</time>
      </trkpt>
      <trkpt lat="45.96436" lon="6.57443">
        <ele>1654.9</ele>
        <time>2026-02-02T07:40:21Z</time>
      </trkpt>
      <trkpt lat="45.96435" lon="6.57442">
        <ele>1655</ele>
        <time>2026-02-02T07:40:22Z</time>
      </trkpt>
      <trkpt lat="45.96435" lon="6.57442">
        <ele>1655.2</ele>
        <time>2026-02-02T07:40:23Z</time>
      </trkpt>
      <trkpt lat="45.96434" lon="6.57441">
        <ele>1655.3</ele>
        <time>2026-02-02T07:40:24Z</time>
      </trkpt>
      <trkpt lat="45.96434" lon="6.5744">
        <ele>1655.4</ele>
        <time>2026-02-02T07:40:25Z</time>
      </trkpt>
      <trkpt lat="45.96432" lon="6.57438">
        <ele>1655.8</ele>
        <time>2026-02-02T07:40:26Z</time>
      </trkpt>
      <trkpt lat="45.96432" lon="6.57437">
        <ele>1656</ele>
        <time>2026-02-02T07:40:27Z</time>
      </trkpt>
      <trkpt lat="45.96431" lon="6.57436">
        <ele>1656.1</ele>
        <time>2026-02-02T07:40:28Z</time>
      </trkpt>
      <trkpt lat="45.9643" lon="6.57435">
        <ele>1656.4</ele>
        <time>2026-02-02T07:40:29Z</time>
      </trkpt>
      <trkpt lat="45.96429" lon="6.57434">
        <ele>1656.7</ele>
        <time>2026-02-02T07:40:30Z</time>
      </trkpt>
      <trkpt lat="45.96428" lon="6.57433">
        <ele>1656.9</ele>
        <time>2026-02-02T07:40:31Z</time>
      </trkpt>
      <trkpt lat="45.96428" lon="6.57432">
        <ele>1657</ele>
        <time>2026-02-02T07:40:32Z</time>
      </trkpt>
      <trkpt lat="45.96427" lon="6.57431">
        <ele>1657.3</ele>
        <time>2026-02-02T07:40:33Z</time>
      </trkpt>
      <trkpt lat="45.96426" lon="6.5743">
        <ele>1657.5</ele>
        <time>2026-02-02T07:40:34Z</time>
      </trkpt>
      <trkpt lat="45.96426" lon="6.57429">
        <ele>1657.6</ele>
        <time>2026-02-02T07:40:35Z</time>
      </trkpt>
      <trkpt lat="45.96426" lon="6.57428">
        <ele>1657.7</ele>
        <time>2026-02-02T07:40:36Z</time>
      </trkpt>
      <trkpt lat="45.96425" lon="6.57427">
        <ele>1658</ele>
        <time>2026-02-02T07:40:37Z</time>
      </trkpt>
      <trkpt lat="45.96424" lon="6.57425">
        <ele>1658.2</ele>
        <time>2026-02-02T07:40:38Z</time>
      </trkpt>
      <trkpt lat="45.96423" lon="6.57424">
        <ele>1658.5</ele>
        <time>2026-02-02T07:40:39Z</time>
      </trkpt>
      <trkpt lat="45.96423" lon="6.57423">
        <ele>1658.7</ele>
        <time>2026-02-02T07:40:40Z</time>
      </trkpt>
      <trkpt lat="45.96422" lon="6.57422">
        <ele>1658.9</ele>
        <time>2026-02-02T07:40:41Z</time>
      </trkpt>
      <trkpt lat="45.96422" lon="6.57421">
        <ele>1659.1</ele>
        <time>2026-02-02T07:40:42Z</time>
      </trkpt>
      <trkpt lat="45.96421" lon="6.5742">
        <ele>1659.3</ele>
        <time>2026-02-02T07:40:43Z</time>
      </trkpt>
      <trkpt lat="45.9642" lon="6.57418">
        <ele>1659.6</ele>
        <time>2026-02-02T07:40:44Z</time>
      </trkpt>
      <trkpt lat="45.9642" lon="6.57417">
        <ele>1659.7</ele>
        <time>2026-02-02T07:40:45Z</time>
      </trkpt>
      <trkpt lat="45.9642" lon="6.57416">
        <ele>1659.9</ele>
        <time>2026-02-02T07:40:46Z</time>
      </trkpt>
      <trkpt lat="45.96419" lon="6.57415">
        <ele>1660.1</ele>
        <time>2026-02-02T07:40:47Z</time>
      </trkpt>
      <trkpt lat="45.96418" lon="6.57414">
        <ele>1660.3</ele>
        <time>2026-02-02T07:40:48Z</time>
      </trkpt>
      <trkpt lat="45.96418" lon="6.57412">
        <ele>1660.6</ele>
        <time>2026-02-02T07:40:49Z</time>
      </trkpt>
      <trkpt lat="45.96417" lon="6.57411">
        <ele>1660.8</ele>
        <time>2026-02-02T07:40:50Z</time>
      </trkpt>
      <trkpt lat="45.96416" lon="6.5741">
        <ele>1661</ele>
        <time>2026-02-02T07:40:51Z</time>
      </trkpt>
      <trkpt lat="45.96416" lon="6.5741">
        <ele>1661.2</ele>
        <time>2026-02-02T07:40:52Z</time>
      </trkpt>
      <trkpt lat="45.96416" lon="6.57409">
        <ele>1661.3</ele>
        <time>2026-02-02T07:40:53Z</time>
      </trkpt>
      <trkpt lat="45.96415" lon="6.57408">
        <ele>1661.5</ele>
        <time>2026-02-02T07:40:54Z</time>
      </trkpt>
      <trkpt lat="45.96415" lon="6.57406">
        <ele>1661.7</ele>
        <time>2026-02-02T07:40:55Z</time>
      </trkpt>
      <trkpt lat="45.96415" lon="6.57405">
        <ele>1661.8</ele>
        <time>2026-02-02T07:40:56Z</time>
      </trkpt>
      <trkpt lat="45.96414" lon="6.57404">
        <ele>1662.1</ele>
        <time>2026-02-02T07:40:57Z</time>
      </trkpt>
      <trkpt lat="45.96413" lon="6.57403">
        <ele>1662.2</ele>
        <time>2026-02-02T07:40:58Z</time>
      </trkpt>
      <trkpt lat="45.96413" lon="6.57402">
        <ele>1662.4</ele>
        <time>2026-02-02T07:40:59Z</time>
      </trkpt>
      <trkpt lat="45.96413" lon="6.57402">
        <ele>1662.5</ele>
        <time>2026-02-02T07:41:00Z</time>
      </trkpt>
      <trkpt lat="45.96413" lon="6.57401">
        <ele>1662.7</ele>
        <time>2026-02-02T07:41:01Z</time>
      </trkpt>
      <trkpt lat="45.96412" lon="6.574">
        <ele>1662.9</ele>
        <time>2026-02-02T07:41:02Z</time>
      </trkpt>
      <trkpt lat="45.96412" lon="6.57399">
        <ele>1663.1</ele>
        <time>2026-02-02T07:41:03Z</time>
      </trkpt>
      <trkpt lat="45.9641" lon="6.57397">
        <ele>1663.4</ele>
        <time>2026-02-02T07:41:04Z</time>
      </trkpt>
      <trkpt lat="45.9641" lon="6.57396">
        <ele>1663.6</ele>
        <time>2026-02-02T07:41:05Z</time>
      </trkpt>
      <trkpt lat="45.96409" lon="6.57394">
        <ele>1664</ele>
        <time>2026-02-02T07:41:06Z</time>
      </trkpt>
      <trkpt lat="45.96408" lon="6.57393">
        <ele>1664.3</ele>
        <time>2026-02-02T07:41:07Z</time>
      </trkpt>
      <trkpt lat="45.96408" lon="6.57392">
        <ele>1664.4</ele>
        <time>2026-02-02T07:41:08Z</time>
      </trkpt>
      <trkpt lat="45.96407" lon="6.57391">
        <ele>1664.6</ele>
        <time>2026-02-02T07:41:09Z</time>
      </trkpt>
      <trkpt lat="45.96407" lon="6.5739">
        <ele>1664.9</ele>
        <time>2026-02-02T07:41:10Z</time>
      </trkpt>
      <trkpt lat="45.96406" lon="6.57389">
        <ele>1665.2</ele>
        <time>2026-02-02T07:41:11Z</time>
      </trkpt>
      <trkpt lat="45.96405" lon="6.57387">
        <ele>1665.5</ele>
        <time>2026-02-02T07:41:12Z</time>
      </trkpt>
      <trkpt lat="45.96404" lon="6.57386">
        <ele>1665.8</ele>
        <time>2026-02-02T07:41:13Z</time>
      </trkpt>
      <trkpt lat="45.96403" lon="6.57384">
        <ele>1666.3</ele>
        <time>2026-02-02T07:41:14Z</time>
      </trkpt>
      <trkpt lat="45.96403" lon="6.57383">
        <ele>1666.5</ele>
        <time>2026-02-02T07:41:15Z</time>
      </trkpt>
      <trkpt lat="45.96402" lon="6.57382">
        <ele>1666.7</ele>
        <time>2026-02-02T07:41:16Z</time>
      </trkpt>
      <trkpt lat="45.96402" lon="6.5738">
        <ele>1666.9</ele>
        <time>2026-02-02T07:41:17Z</time>
      </trkpt>
      <trkpt lat="45.96401" lon="6.57379">
        <ele>1667.1</ele>
        <time>2026-02-02T07:41:18Z</time>
      </trkpt>
      <trkpt lat="45.96401" lon="6.57379">
        <ele>1667.3</ele>
        <time>2026-02-02T07:41:19Z</time>
      </trkpt>
      <trkpt lat="45.964" lon="6.57377">
        <ele>1667.5</ele>
        <time>2026-02-02T07:41:20Z</time>
      </trkpt>
      <trkpt lat="45.964" lon="6.57376">
        <ele>1667.8</ele>
        <time>2026-02-02T07:41:21Z</time>
      </trkpt>
      <trkpt lat="45.964" lon="6.57375">
        <ele>1668</ele>
        <time>2026-02-02T07:41:22Z</time>
      </trkpt>
      <trkpt lat="45.964" lon="6.57374">
        <ele>1668.1</ele>
        <time>2026-02-02T07:41:23Z</time>
      </trkpt>
      <trkpt lat="45.964" lon="6.57373">
        <ele>1668.3</ele>
        <time>2026-02-02T07:41:24Z</time>
      </trkpt>
      <trkpt lat="45.96399" lon="6.57372">
        <ele>1668.6</ele>
        <time>2026-02-02T07:41:25Z</time>
      </trkpt>
      <trkpt lat="45.96399" lon="6.57371">
        <ele>1668.7</ele>
        <time>2026-02-02T07:41:26Z</time>
      </trkpt>
      <trkpt lat="45.96398" lon="6.5737">
        <ele>1669</ele>
        <time>2026-02-02T07:41:27Z</time>
      </trkpt>
      <trkpt lat="45.96398" lon="6.57369">
        <ele>1669.2</ele>
        <time>2026-02-02T07:41:28Z</time>
      </trkpt>
      <trkpt lat="45.96397" lon="6.57368">
        <ele>1669.5</ele>
        <time>2026-02-02T07:41:29Z</time>
      </trkpt>
      <trkpt lat="45.96396" lon="6.57367">
        <ele>1669.8</ele>
        <time>2026-02-02T07:41:30Z</time>
      </trkpt>
      <trkpt lat="45.96396" lon="6.57366">
        <ele>1670</ele>
        <time>2026-02-02T07:41:31Z</time>
      </trkpt>
      <trkpt lat="45.96395" lon="6.57364">
        <ele>1670.4</ele>
        <time>2026-02-02T07:41:32Z</time>
      </trkpt>
      <trkpt lat="45.96395" lon="6.57363">
        <ele>1670.6</ele>
        <time>2026-02-02T07:41:33Z</time>
      </trkpt>
      <trkpt lat="45.96394" lon="6.57362">
        <ele>1670.8</ele>
        <time>2026-02-02T07:41:34Z</time>
      </trkpt>
      <trkpt lat="45.96394" lon="6.57361">
        <ele>1671</ele>
        <time>2026-02-02T07:41:35Z</time>
      </trkpt>
      <trkpt lat="45.96393" lon="6.57361">
        <ele>1671.3</ele>
        <time>2026-02-02T07:41:36Z</time>
      </trkpt>
      <trkpt lat="45.96393" lon="6.5736">
        <ele>1671.4</ele>
        <time>2026-02-02T07:41:37Z</time>
      </trkpt>
      <trkpt lat="45.96392" lon="6.57359">
        <ele>1671.7</ele>
        <time>2026-02-02T07:41:38Z</time>
      </trkpt>
      <trkpt lat="45.96392" lon="6.57358">
        <ele>1671.9</ele>
        <time>2026-02-02T07:41:39Z</time>
      </trkpt>
      <trkpt lat="45.96392" lon="6.57356">
        <ele>1672.2</ele>
        <time>2026-02-02T07:41:40Z</time>
      </trkpt>
      <trkpt lat="45.96391" lon="6.57355">
        <ele>1672.4</ele>
        <time>2026-02-02T07:41:41Z</time>
      </trkpt>
      <trkpt lat="45.9639" lon="6.57354">
        <ele>1672.7</ele>
        <time>2026-02-02T07:41:42Z</time>
      </trkpt>
      <trkpt lat="45.96389" lon="6.57352">
        <ele>1673.2</ele>
        <time>2026-02-02T07:41:43Z</time>
      </trkpt>
      <trkpt lat="45.96389" lon="6.57351">
        <ele>1673.4</ele>
        <time>2026-02-02T07:41:44Z</time>
      </trkpt>
      <trkpt lat="45.96388" lon="6.5735">
        <ele>1673.6</ele>
        <time>2026-02-02T07:41:45Z</time>
      </trkpt>
      <trkpt lat="45.96387" lon="6.57349">
        <ele>1673.9</ele>
        <time>2026-02-02T07:41:46Z</time>
      </trkpt>
      <trkpt lat="45.96386" lon="6.57348">
        <ele>1674.2</ele>
        <time>2026-02-02T07:41:47Z</time>
      </trkpt>
      <trkpt lat="45.96386" lon="6.57347">
        <ele>1674.5</ele>
        <time>2026-02-02T07:41:48Z</time>
      </trkpt>
      <trkpt lat="45.96385" lon="6.57347">
        <ele>1674.6</ele>
        <time>2026-02-02T07:41:49Z</time>
      </trkpt>
      <trkpt lat="45.96384" lon="6.57345">
        <ele>1674.9</ele>
        <time>2026-02-02T07:41:50Z</time>
      </trkpt>
      <trkpt lat="45.96384" lon="6.57345">
        <ele>1675.1</ele>
        <time>2026-02-02T07:41:51Z</time>
      </trkpt>
      <trkpt lat="45.96384" lon="6.57344">
        <ele>1675.2</ele>
        <time>2026-02-02T07:41:52Z</time>
      </trkpt>
      <trkpt lat="45.96384" lon="6.57344">
        <ele>1675.3</ele>
        <time>2026-02-02T07:41:53Z</time>
      </trkpt>
      <trkpt lat="45.96384" lon="6.57343">
        <ele>1675.5</ele>
        <time>2026-02-02T07:41:54Z</time>
      </trkpt>
      <trkpt lat="45.96383" lon="6.57341">
        <ele>1675.8</ele>
        <time>2026-02-02T07:41:55Z</time>
      </trkpt>
      <trkpt lat="45.96382" lon="6.5734">
        <ele>1676.1</ele>
        <time>2026-02-02T07:41:56Z</time>
      </trkpt>
      <trkpt lat="45.96382" lon="6.5734">
        <ele>1676.2</ele>
        <time>2026-02-02T07:41:57Z</time>
      </trkpt>
      <trkpt lat="45.96382" lon="6.57339">
        <ele>1676.3</ele>
        <time>2026-02-02T07:41:58Z</time>
      </trkpt>
      <trkpt lat="45.96381" lon="6.57337">
        <ele>1676.7</ele>
        <time>2026-02-02T07:41:59Z</time>
      </trkpt>
      <trkpt lat="45.96381" lon="6.57336">
        <ele>1676.9</ele>
        <time>2026-02-02T07:42:00Z</time>
      </trkpt>
      <trkpt lat="45.96381" lon="6.57335">
        <ele>1677.1</ele>
        <time>2026-02-02T07:42:01Z</time>
      </trkpt>
      <trkpt lat="45.9638" lon="6.57334">
        <ele>1677.3</ele>
        <time>2026-02-02T07:42:02Z</time>
      </trkpt>
      <trkpt lat="45.96379" lon="6.57333">
        <ele>1677.7</ele>
        <time>2026-02-02T07:42:03Z</time>
      </trkpt>
      <trkpt lat="45.96379" lon="6.57331">
        <ele>1678</ele>
        <time>2026-02-02T07:42:04Z</time>
      </trkpt>
      <trkpt lat="45.96378" lon="6.5733">
        <ele>1678.3</ele>
        <time>2026-02-02T07:42:05Z</time>
      </trkpt>
      <trkpt lat="45.96378" lon="6.57329">
        <ele>1678.5</ele>
        <time>2026-02-02T07:42:06Z</time>
      </trkpt>
      <trkpt lat="45.96378" lon="6.57327">
        <ele>1678.9</ele>
        <time>2026-02-02T07:42:07Z</time>
      </trkpt>
      <trkpt lat="45.96377" lon="6.57326">
        <ele>1679</ele>
        <time>2026-02-02T07:42:08Z</time>
      </trkpt>
      <trkpt lat="45.96377" lon="6.57325">
        <ele>1679.2</ele>
        <time>2026-02-02T07:42:09Z</time>
      </trkpt>
      <trkpt lat="45.96377" lon="6.57325">
        <ele>1679.3</ele>
        <time>2026-02-02T07:42:10Z</time>
      </trkpt>
      <trkpt lat="45.96376" lon="6.57324">
        <ele>1679.5</ele>
        <time>2026-02-02T07:42:11Z</time>
      </trkpt>
      <trkpt lat="45.96377" lon="6.57323">
        <ele>1679.6</ele>
        <time>2026-02-02T07:42:12Z</time>
      </trkpt>
      <trkpt lat="45.96376" lon="6.57322">
        <ele>1679.8</ele>
        <time>2026-02-02T07:42:13Z</time>
      </trkpt>
      <trkpt lat="45.96376" lon="6.57321">
        <ele>1680</ele>
        <time>2026-02-02T07:42:14Z</time>
      </trkpt>
      <trkpt lat="45.96375" lon="6.5732">
        <ele>1680.3</ele>
        <time>2026-02-02T07:42:15Z</time>
      </trkpt>
      <trkpt lat="45.96374" lon="6.57319">
        <ele>1680.7</ele>
        <time>2026-02-02T07:42:16Z</time>
      </trkpt>
      <trkpt lat="45.96373" lon="6.57318">
        <ele>1680.8</ele>
        <time>2026-02-02T07:42:17Z</time>
      </trkpt>
      <trkpt lat="45.96372" lon="6.57317">
        <ele>1681.1</ele>
        <time>2026-02-02T07:42:18Z</time>
      </trkpt>
      <trkpt lat="45.96373" lon="6.57316">
        <ele>1681.2</ele>
        <time>2026-02-02T07:42:19Z</time>
      </trkpt>
      <trkpt lat="45.96373" lon="6.57315">
        <ele>1681.4</ele>
        <time>2026-02-02T07:42:20Z</time>
      </trkpt>
      <trkpt lat="45.96372" lon="6.57314">
        <ele>1681.6</ele>
        <time>2026-02-02T07:42:21Z</time>
      </trkpt>
      <trkpt lat="45.96371" lon="6.57313">
        <ele>1681.8</ele>
        <time>2026-02-02T07:42:22Z</time>
      </trkpt>
      <trkpt lat="45.96371" lon="6.57312">
        <ele>1682</ele>
        <time>2026-02-02T07:42:23Z</time>
      </trkpt>
      <trkpt lat="45.96371" lon="6.57311">
        <ele>1682.2</ele>
        <time>2026-02-02T07:42:24Z</time>
      </trkpt>
      <trkpt lat="45.9637" lon="6.5731">
        <ele>1682.5</ele>
        <time>2026-02-02T07:42:25Z</time>
      </trkpt>
      <trkpt lat="45.96369" lon="6.57309">
        <ele>1682.7</ele>
        <time>2026-02-02T07:42:26Z</time>
      </trkpt>
      <trkpt lat="45.96369" lon="6.57308">
        <ele>1682.9</ele>
        <time>2026-02-02T07:42:27Z</time>
      </trkpt>
      <trkpt lat="45.96368" lon="6.57306">
        <ele>1683.3</ele>
        <time>2026-02-02T07:42:28Z</time>
      </trkpt>
      <trkpt lat="45.96368" lon="6.57304">
        <ele>1683.6</ele>
        <time>2026-02-02T07:42:29Z</time>
      </trkpt>
      <trkpt lat="45.96367" lon="6.57303">
        <ele>1683.9</ele>
        <time>2026-02-02T07:42:30Z</time>
      </trkpt>
      <trkpt lat="45.96367" lon="6.57301">
        <ele>1684.1</ele>
        <time>2026-02-02T07:42:31Z</time>
      </trkpt>
      <trkpt lat="45.96367" lon="6.573">
        <ele>1684.3</ele>
        <time>2026-02-02T07:42:32Z</time>
      </trkpt>
      <trkpt lat="45.96367" lon="6.57299">
        <ele>1684.5</ele>
        <time>2026-02-02T07:42:33Z</time>
      </trkpt>
      <trkpt lat="45.96366" lon="6.57298">
        <ele>1684.8</ele>
        <time>2026-02-02T07:42:34Z</time>
      </trkpt>
      <trkpt lat="45.96366" lon="6.57297">
        <ele>1684.9</ele>
        <time>2026-02-02T07:42:35Z</time>
      </trkpt>
      <trkpt lat="45.96365" lon="6.57297">
        <ele>1685.1</ele>
        <time>2026-02-02T07:42:36Z</time>
      </trkpt>
      <trkpt lat="45.96364" lon="6.57295">
        <ele>1685.4</ele>
        <time>2026-02-02T07:42:37Z</time>
      </trkpt>
      <trkpt lat="45.96364" lon="6.57294">
        <ele>1685.7</ele>
        <time>2026-02-02T07:42:38Z</time>
      </trkpt>
      <trkpt lat="45.96364" lon="6.57293">
        <ele>1685.9</ele>
        <time>2026-02-02T07:42:39Z</time>
      </trkpt>
      <trkpt lat="45.96363" lon="6.57292">
        <ele>1686.1</ele>
        <time>2026-02-02T07:42:40Z</time>
      </trkpt>
      <trkpt lat="45.96363" lon="6.57291">
        <ele>1686.3</ele>
        <time>2026-02-02T07:42:41Z</time>
      </trkpt>
      <trkpt lat="45.96363" lon="6.57289">
        <ele>1686.6</ele>
        <time>2026-02-02T07:42:42Z</time>
      </trkpt>
      <trkpt lat="45.96362" lon="6.57288">
        <ele>1686.8</ele>
        <time>2026-02-02T07:42:43Z</time>
      </trkpt>
      <trkpt lat="45.96362" lon="6.57287">
        <ele>1687</ele>
        <time>2026-02-02T07:42:44Z</time>
      </trkpt>
      <trkpt lat="45.96362" lon="6.57286">
        <ele>1687.2</ele>
        <time>2026-02-02T07:42:45Z</time>
      </trkpt>
      <trkpt lat="45.96362" lon="6.57284">
        <ele>1687.5</ele>
        <time>2026-02-02T07:42:46Z</time>
      </trkpt>
      <trkpt lat="45.96361" lon="6.57283">
        <ele>1687.8</ele>
        <time>2026-02-02T07:42:47Z</time>
      </trkpt>
      <trkpt lat="45.9636" lon="6.57282">
        <ele>1688.1</ele>
        <time>2026-02-02T07:42:48Z</time>
      </trkpt>
      <trkpt lat="45.9636" lon="6.57281">
        <ele>1688.2</ele>
        <time>2026-02-02T07:42:49Z</time>
      </trkpt>
      <trkpt lat="45.96359" lon="6.57279">
        <ele>1688.6</ele>
        <time>2026-02-02T07:42:50Z</time>
      </trkpt>
      <trkpt lat="45.96359" lon="6.57278">
        <ele>1688.9</ele>
        <time>2026-02-02T07:42:51Z</time>
      </trkpt>
      <trkpt lat="45.96358" lon="6.57277">
        <ele>1689.1</ele>
        <time>2026-02-02T07:42:52Z</time>
      </trkpt>
      <trkpt lat="45.96358" lon="6.57276">
        <ele>1689.3</ele>
        <time>2026-02-02T07:42:53Z</time>
      </trkpt>
      <trkpt lat="45.96358" lon="6.57275">
        <ele>1689.5</ele>
        <time>2026-02-02T07:42:54Z</time>
      </trkpt>
      <trkpt lat="45.96357" lon="6.57273">
        <ele>1689.8</ele>
        <time>2026-02-02T07:42:55Z</time>
      </trkpt>
      <trkpt lat="45.96357" lon="6.57272">
        <ele>1690</ele>
        <time>2026-02-02T07:42:56Z</time>
      </trkpt>
      <trkpt lat="45.96356" lon="6.57271">
        <ele>1690.2</ele>
        <time>2026-02-02T07:42:57Z</time>
      </trkpt>
      <trkpt lat="45.96355" lon="6.5727">
        <ele>1690.5</ele>
        <time>2026-02-02T07:42:58Z</time>
      </trkpt>
      <trkpt lat="45.96353" lon="6.57269">
        <ele>1690.9</ele>
        <time>2026-02-02T07:42:59Z</time>
      </trkpt>
      <trkpt lat="45.96352" lon="6.57268">
        <ele>1691.2</ele>
        <time>2026-02-02T07:43:00Z</time>
      </trkpt>
      <trkpt lat="45.96352" lon="6.57267">
        <ele>1691.4</ele>
        <time>2026-02-02T07:43:01Z</time>
      </trkpt>
      <trkpt lat="45.96351" lon="6.57266">
        <ele>1691.6</ele>
        <time>2026-02-02T07:43:02Z</time>
      </trkpt>
      <trkpt lat="45.96351" lon="6.57265">
        <ele>1691.8</ele>
        <time>2026-02-02T07:43:03Z</time>
      </trkpt>
      <trkpt lat="45.9635" lon="6.57264">
        <ele>1692</ele>
        <time>2026-02-02T07:43:04Z</time>
      </trkpt>
      <trkpt lat="45.9635" lon="6.57263">
        <ele>1692.2</ele>
        <time>2026-02-02T07:43:05Z</time>
      </trkpt>
      <trkpt lat="45.96349" lon="6.57262">
        <ele>1692.4</ele>
        <time>2026-02-02T07:43:06Z</time>
      </trkpt>
      <trkpt lat="45.96349" lon="6.57261">
        <ele>1692.5</ele>
        <time>2026-02-02T07:43:07Z</time>
      </trkpt>
      <trkpt lat="45.96349" lon="6.57259">
        <ele>1692.8</ele>
        <time>2026-02-02T07:43:08Z</time>
      </trkpt>
      <trkpt lat="45.96348" lon="6.57258">
        <ele>1693</ele>
        <time>2026-02-02T07:43:09Z</time>
      </trkpt>
      <trkpt lat="45.96348" lon="6.57257">
        <ele>1693.3</ele>
        <time>2026-02-02T07:43:10Z</time>
      </trkpt>
      <trkpt lat="45.96347" lon="6.57256">
        <ele>1693.4</ele>
        <time>2026-02-02T07:43:11Z</time>
      </trkpt>
      <trkpt lat="45.96347" lon="6.57255">
        <ele>1693.5</ele>
        <time>2026-02-02T07:43:12Z</time>
      </trkpt>
      <trkpt lat="45.96346" lon="6.57254">
        <ele>1693.7</ele>
        <time>2026-02-02T07:43:13Z</time>
      </trkpt>
      <trkpt lat="45.96346" lon="6.57254">
        <ele>1693.9</ele>
        <time>2026-02-02T07:43:14Z</time>
      </trkpt>
      <trkpt lat="45.96345" lon="6.57252">
        <ele>1694.2</ele>
        <time>2026-02-02T07:43:15Z</time>
      </trkpt>
      <trkpt lat="45.96345" lon="6.57251">
        <ele>1694.3</ele>
        <time>2026-02-02T07:43:16Z</time>
      </trkpt>
      <trkpt lat="45.96345" lon="6.5725">
        <ele>1694.4</ele>
        <time>2026-02-02T07:43:17Z</time>
      </trkpt>
      <trkpt lat="45.96344" lon="6.5725">
        <ele>1694.7</ele>
        <time>2026-02-02T07:43:18Z</time>
      </trkpt>
      <trkpt lat="45.96343" lon="6.57248">
        <ele>1694.9</ele>
        <time>2026-02-02T07:43:19Z</time>
      </trkpt>
      <trkpt lat="45.96344" lon="6.57248">
        <ele>1695</ele>
        <time>2026-02-02T07:43:20Z</time>
      </trkpt>
      <trkpt lat="45.96343" lon="6.57247">
        <ele>1695.2</ele>
        <time>2026-02-02T07:43:21Z</time>
      </trkpt>
      <trkpt lat="45.96343" lon="6.57245">
        <ele>1695.4</ele>
        <time>2026-02-02T07:43:22Z</time>
      </trkpt>
      <trkpt lat="45.96343" lon="6.57244">
        <ele>1695.6</ele>
        <time>2026-02-02T07:43:23Z</time>
      </trkpt>
      <trkpt lat="45.96343" lon="6.57243">
        <ele>1695.8</ele>
        <time>2026-02-02T07:43:24Z</time>
      </trkpt>
      <trkpt lat="45.96343" lon="6.57242">
        <ele>1696</ele>
        <time>2026-02-02T07:43:25Z</time>
      </trkpt>
      <trkpt lat="45.96342" lon="6.5724">
        <ele>1696.4</ele>
        <time>2026-02-02T07:43:26Z</time>
      </trkpt>
      <trkpt lat="45.96341" lon="6.57238">
        <ele>1696.7</ele>
        <time>2026-02-02T07:43:27Z</time>
      </trkpt>
      <trkpt lat="45.96341" lon="6.57237">
        <ele>1696.9</ele>
        <time>2026-02-02T07:43:28Z</time>
      </trkpt>
      <trkpt lat="45.96341" lon="6.57236">
        <ele>1697.2</ele>
        <time>2026-02-02T07:43:29Z</time>
      </trkpt>
      <trkpt lat="45.96341" lon="6.57235">
        <ele>1697.3</ele>
        <time>2026-02-02T07:43:30Z</time>
      </trkpt>
      <trkpt lat="45.9634" lon="6.57234">
        <ele>1697.6</ele>
        <time>2026-02-02T07:43:31Z</time>
      </trkpt>
      <trkpt lat="45.9634" lon="6.57232">
        <ele>1697.9</ele>
        <time>2026-02-02T07:43:32Z</time>
      </trkpt>
      <trkpt lat="45.96339" lon="6.57231">
        <ele>1698.1</ele>
        <time>2026-02-02T07:43:33Z</time>
      </trkpt>
      <trkpt lat="45.96339" lon="6.5723">
        <ele>1698.4</ele>
        <time>2026-02-02T07:43:34Z</time>
      </trkpt>
      <trkpt lat="45.96338" lon="6.57228">
        <ele>1698.7</ele>
        <time>2026-02-02T07:43:35Z</time>
      </trkpt>
      <trkpt lat="45.96338" lon="6.57227">
        <ele>1698.9</ele>
        <time>2026-02-02T07:43:36Z</time>
      </trkpt>
      <trkpt lat="45.96337" lon="6.57226">
        <ele>1699.1</ele>
        <time>2026-02-02T07:43:37Z</time>
      </trkpt>
      <trkpt lat="45.96337" lon="6.57225">
        <ele>1699.3</ele>
        <time>2026-02-02T07:43:38Z</time>
      </trkpt>
      <trkpt lat="45.96337" lon="6.57224">
        <ele>1699.5</ele>
        <time>2026-02-02T07:43:39Z</time>
      </trkpt>
      <trkpt lat="45.96337" lon="6.57222">
        <ele>1699.8</ele>
        <time>2026-02-02T07:43:40Z</time>
      </trkpt>
      <trkpt lat="45.96336" lon="6.5722">
        <ele>1700.1</ele>
        <time>2026-02-02T07:43:41Z</time>
      </trkpt>
      <trkpt lat="45.96336" lon="6.57219">
        <ele>1700.3</ele>
        <time>2026-02-02T07:43:42Z</time>
      </trkpt>
      <trkpt lat="45.96335" lon="6.57218">
        <ele>1700.6</ele>
        <time>2026-02-02T07:43:43Z</time>
      </trkpt>
      <trkpt lat="45.96334" lon="6.57217">
        <ele>1701</ele>
        <time>2026-02-02T07:43:44Z</time>
      </trkpt>
      <trkpt lat="45.96333" lon="6.57216">
        <ele>1701.2</ele>
        <time>2026-02-02T07:43:45Z</time>
      </trkpt>
      <trkpt lat="45.96332" lon="6.57215">
        <ele>1701.4</ele>
        <time>2026-02-02T07:43:46Z</time>
      </trkpt>
      <trkpt lat="45.96332" lon="6.57214">
        <ele>1701.6</ele>
        <time>2026-02-02T07:43:47Z</time>
      </trkpt>
      <trkpt lat="45.96332" lon="6.57212">
        <ele>1701.8</ele>
        <time>2026-02-02T07:43:48Z</time>
      </trkpt>
      <trkpt lat="45.96332" lon="6.57212">
        <ele>1702</ele>
        <time>2026-02-02T07:43:49Z</time>
      </trkpt>
      <trkpt lat="45.96332" lon="6.5721">
        <ele>1702.2</ele>
        <time>2026-02-02T07:43:50Z</time>
      </trkpt>
      <trkpt lat="45.96331" lon="6.57209">
        <ele>1702.5</ele>
        <time>2026-02-02T07:43:51Z</time>
      </trkpt>
      <trkpt lat="45.96331" lon="6.57208">
        <ele>1702.7</ele>
        <time>2026-02-02T07:43:52Z</time>
      </trkpt>
      <trkpt lat="45.9633" lon="6.57206">
        <ele>1703</ele>
        <time>2026-02-02T07:43:53Z</time>
      </trkpt>
      <trkpt lat="45.9633" lon="6.57205">
        <ele>1703.2</ele>
        <time>2026-02-02T07:43:54Z</time>
      </trkpt>
      <trkpt lat="45.96329" lon="6.57204">
        <ele>1703.4</ele>
        <time>2026-02-02T07:43:55Z</time>
      </trkpt>
      <trkpt lat="45.96327" lon="6.57204">
        <ele>1703.8</ele>
        <time>2026-02-02T07:43:56Z</time>
      </trkpt>
      <trkpt lat="45.96326" lon="6.57203">
        <ele>1704.1</ele>
        <time>2026-02-02T07:43:57Z</time>
      </trkpt>
      <trkpt lat="45.96325" lon="6.57203">
        <ele>1704.3</ele>
        <time>2026-02-02T07:43:58Z</time>
      </trkpt>
      <trkpt lat="45.96325" lon="6.57203">
        <ele>1704.4</ele>
        <time>2026-02-02T07:43:59Z</time>
      </trkpt>
      <trkpt lat="45.96324" lon="6.57203">
        <ele>1704.6</ele>
        <time>2026-02-02T07:44:00Z</time>
      </trkpt>
      <trkpt lat="45.96324" lon="6.57202">
        <ele>1704.8</ele>
        <time>2026-02-02T07:44:01Z</time>
      </trkpt>
      <trkpt lat="45.96323" lon="6.57202">
        <ele>1705</ele>
        <time>2026-02-02T07:44:02Z</time>
      </trkpt>
      <trkpt lat="45.96322" lon="6.57201">
        <ele>1705.2</ele>
        <time>2026-02-02T07:44:03Z</time>
      </trkpt>
      <trkpt lat="45.96321" lon="6.57201">
        <ele>1705.5</ele>
        <time>2026-02-02T07:44:04Z</time>
      </trkpt>
      <trkpt lat="45.9632" lon="6.572">
        <ele>1705.7</ele>
        <time>2026-02-02T07:44:05Z</time>
      </trkpt>
      <trkpt lat="45.96319" lon="6.572">
        <ele>1705.9</ele>
        <time>2026-02-02T07:44:06Z</time>
      </trkpt>
      <trkpt lat="45.96319" lon="6.57199">
        <ele>1706.1</ele>
        <time>2026-02-02T07:44:07Z</time>
      </trkpt>
      <trkpt lat="45.96318" lon="6.57199">
        <ele>1706.3</ele>
        <time>2026-02-02T07:44:08Z</time>
      </trkpt>
      <trkpt lat="45.96318" lon="6.57199">
        <ele>1706.4</ele>
        <time>2026-02-02T07:44:09Z</time>
      </trkpt>
      <trkpt lat="45.96317" lon="6.57198">
        <ele>1706.7</ele>
        <time>2026-02-02T07:44:10Z</time>
      </trkpt>
      <trkpt lat="45.96316" lon="6.57198">
        <ele>1706.7</ele>
        <time>2026-02-02T07:44:11Z</time>
      </trkpt>
      <trkpt lat="45.96316" lon="6.57197">
        <ele>1706.9</ele>
        <time>2026-02-02T07:44:12Z</time>
      </trkpt>
      <trkpt lat="45.96315" lon="6.57197">
        <ele>1707.1</ele>
        <time>2026-02-02T07:44:13Z</time>
      </trkpt>
      <trkpt lat="45.96314" lon="6.57196">
        <ele>1707.6</ele>
        <time>2026-02-02T07:44:14Z</time>
      </trkpt>
      <trkpt lat="45.96313" lon="6.57196">
        <ele>1707.7</ele>
        <time>2026-02-02T07:44:15Z</time>
      </trkpt>
      <trkpt lat="45.96312" lon="6.57195">
        <ele>1707.9</ele>
        <time>2026-02-02T07:44:16Z</time>
      </trkpt>
      <trkpt lat="45.96312" lon="6.57195">
        <ele>1708.1</ele>
        <time>2026-02-02T07:44:17Z</time>
      </trkpt>
      <trkpt lat="45.96311" lon="6.57194">
        <ele>1708.2</ele>
        <time>2026-02-02T07:44:18Z</time>
      </trkpt>
      <trkpt lat="45.96311" lon="6.57193">
        <ele>1708.5</ele>
        <time>2026-02-02T07:44:19Z</time>
      </trkpt>
      <trkpt lat="45.9631" lon="6.57192">
        <ele>1708.7</ele>
        <time>2026-02-02T07:44:20Z</time>
      </trkpt>
      <trkpt lat="45.9631" lon="6.57191">
        <ele>1708.9</ele>
        <time>2026-02-02T07:44:21Z</time>
      </trkpt>
      <trkpt lat="45.96309" lon="6.5719">
        <ele>1709.1</ele>
        <time>2026-02-02T07:44:22Z</time>
      </trkpt>
      <trkpt lat="45.96309" lon="6.5719">
        <ele>1709.3</ele>
        <time>2026-02-02T07:44:23Z</time>
      </trkpt>
      <trkpt lat="45.96308" lon="6.57189">
        <ele>1709.5</ele>
        <time>2026-02-02T07:44:24Z</time>
      </trkpt>
      <trkpt lat="45.96308" lon="6.57188">
        <ele>1709.6</ele>
        <time>2026-02-02T07:44:25Z</time>
      </trkpt>
      <trkpt lat="45.96308" lon="6.57188">
        <ele>1709.7</ele>
        <time>2026-02-02T07:44:26Z</time>
      </trkpt>
      <trkpt lat="45.96307" lon="6.57188">
        <ele>1709.8</ele>
        <time>2026-02-02T07:44:27Z</time>
      </trkpt>
      <trkpt lat="45.96307" lon="6.57186">
        <ele>1710.1</ele>
        <time>2026-02-02T07:44:28Z</time>
      </trkpt>
      <trkpt lat="45.96306" lon="6.57184">
        <ele>1710.4</ele>
        <time>2026-02-02T07:44:29Z</time>
      </trkpt>
      <trkpt lat="45.96306" lon="6.57184">
        <ele>1710.6</ele>
        <time>2026-02-02T07:44:30Z</time>
      </trkpt>
      <trkpt lat="45.96305" lon="6.57183">
        <ele>1710.9</ele>
        <time>2026-02-02T07:44:31Z</time>
      </trkpt>
      <trkpt lat="45.96304" lon="6.57182">
        <ele>1711.1</ele>
        <time>2026-02-02T07:44:32Z</time>
      </trkpt>
      <trkpt lat="45.96303" lon="6.57182">
        <ele>1711.3</ele>
        <time>2026-02-02T07:44:33Z</time>
      </trkpt>
      <trkpt lat="45.96303" lon="6.57181">
        <ele>1711.6</ele>
        <time>2026-02-02T07:44:34Z</time>
      </trkpt>
      <trkpt lat="45.96302" lon="6.5718">
        <ele>1711.8</ele>
        <time>2026-02-02T07:44:35Z</time>
      </trkpt>
      <trkpt lat="45.96302" lon="6.57179">
        <ele>1712</ele>
        <time>2026-02-02T07:44:36Z</time>
      </trkpt>
      <trkpt lat="45.96302" lon="6.57178">
        <ele>1712.2</ele>
        <time>2026-02-02T07:44:37Z</time>
      </trkpt>
      <trkpt lat="45.96301" lon="6.57177">
        <ele>1712.5</ele>
        <time>2026-02-02T07:44:38Z</time>
      </trkpt>
      <trkpt lat="45.963" lon="6.57177">
        <ele>1712.7</ele>
        <time>2026-02-02T07:44:39Z</time>
      </trkpt>
      <trkpt lat="45.96299" lon="6.57176">
        <ele>1712.9</ele>
        <time>2026-02-02T07:44:40Z</time>
      </trkpt>
      <trkpt lat="45.96298" lon="6.57175">
        <ele>1713.2</ele>
        <time>2026-02-02T07:44:41Z</time>
      </trkpt>
      <trkpt lat="45.96298" lon="6.57174">
        <ele>1713.5</ele>
        <time>2026-02-02T07:44:42Z</time>
      </trkpt>
      <trkpt lat="45.96297" lon="6.57173">
        <ele>1713.7</ele>
        <time>2026-02-02T07:44:43Z</time>
      </trkpt>
      <trkpt lat="45.96297" lon="6.57173">
        <ele>1713.9</ele>
        <time>2026-02-02T07:44:44Z</time>
      </trkpt>
      <trkpt lat="45.96296" lon="6.57172">
        <ele>1714</ele>
        <time>2026-02-02T07:44:45Z</time>
      </trkpt>
      <trkpt lat="45.96296" lon="6.57172">
        <ele>1714.1</ele>
        <time>2026-02-02T07:44:46Z</time>
      </trkpt>
      <trkpt lat="45.96296" lon="6.57171">
        <ele>1714.3</ele>
        <time>2026-02-02T07:44:47Z</time>
      </trkpt>
      <trkpt lat="45.96296" lon="6.5717">
        <ele>1714.4</ele>
        <time>2026-02-02T07:44:48Z</time>
      </trkpt>
      <trkpt lat="45.96295" lon="6.57169">
        <ele>1714.7</ele>
        <time>2026-02-02T07:44:49Z</time>
      </trkpt>
      <trkpt lat="45.96294" lon="6.57169">
        <ele>1714.9</ele>
        <time>2026-02-02T07:44:50Z</time>
      </trkpt>
      <trkpt lat="45.96294" lon="6.57168">
        <ele>1715.2</ele>
        <time>2026-02-02T07:44:51Z</time>
      </trkpt>
      <trkpt lat="45.96293" lon="6.57166">
        <ele>1715.5</ele>
        <time>2026-02-02T07:44:52Z</time>
      </trkpt>
      <trkpt lat="45.96293" lon="6.57165">
        <ele>1715.8</ele>
        <time>2026-02-02T07:44:53Z</time>
      </trkpt>
      <trkpt lat="45.96293" lon="6.57165">
        <ele>1715.9</ele>
        <time>2026-02-02T07:44:54Z</time>
      </trkpt>
      <trkpt lat="45.96292" lon="6.57164">
        <ele>1716.1</ele>
        <time>2026-02-02T07:44:55Z</time>
      </trkpt>
      <trkpt lat="45.96292" lon="6.57163">
        <ele>1716.4</ele>
        <time>2026-02-02T07:44:56Z</time>
      </trkpt>
      <trkpt lat="45.96291" lon="6.57161">
        <ele>1716.8</ele>
        <time>2026-02-02T07:44:57Z</time>
      </trkpt>
      <trkpt lat="45.96291" lon="6.5716">
        <ele>1717.1</ele>
        <time>2026-02-02T07:44:58Z</time>
      </trkpt>
      <trkpt lat="45.9629" lon="6.57158">
        <ele>1717.5</ele>
        <time>2026-02-02T07:44:59Z</time>
      </trkpt>
      <trkpt lat="45.9629" lon="6.57157">
        <ele>1717.7</ele>
        <time>2026-02-02T07:45:00Z</time>
      </trkpt>
      <trkpt lat="45.9629" lon="6.57156">
        <ele>1718</ele>
        <time>2026-02-02T07:45:01Z</time>
      </trkpt>
      <trkpt lat="45.96289" lon="6.57156">
        <ele>1718.2</ele>
        <time>2026-02-02T07:45:02Z</time>
      </trkpt>
      <trkpt lat="45.96289" lon="6.57155">
        <ele>1718.4</ele>
        <time>2026-02-02T07:45:03Z</time>
      </trkpt>
      <trkpt lat="45.96289" lon="6.57154">
        <ele>1718.6</ele>
        <time>2026-02-02T07:45:04Z</time>
      </trkpt>
      <trkpt lat="45.96288" lon="6.57154">
        <ele>1718.6</ele>
        <time>2026-02-02T07:45:05Z</time>
      </trkpt>
      <trkpt lat="45.96288" lon="6.57153">
        <ele>1718.9</ele>
        <time>2026-02-02T07:45:06Z</time>
      </trkpt>
      <trkpt lat="45.96288" lon="6.57151">
        <ele>1719.2</ele>
        <time>2026-02-02T07:45:07Z</time>
      </trkpt>
      <trkpt lat="45.96288" lon="6.5715">
        <ele>1719.5</ele>
        <time>2026-02-02T07:45:08Z</time>
      </trkpt>
      <trkpt lat="45.96288" lon="6.57149">
        <ele>1719.7</ele>
        <time>2026-02-02T07:45:09Z</time>
      </trkpt>
      <trkpt lat="45.96287" lon="6.57148">
        <ele>1720</ele>
        <time>2026-02-02T07:45:10Z</time>
      </trkpt>
      <trkpt lat="45.96286" lon="6.57147">
        <ele>1720.4</ele>
        <time>2026-02-02T07:45:11Z</time>
      </trkpt>
      <trkpt lat="45.96286" lon="6.57146">
        <ele>1720.7</ele>
        <time>2026-02-02T07:45:12Z</time>
      </trkpt>
      <trkpt lat="45.96286" lon="6.57145">
        <ele>1720.8</ele>
        <time>2026-02-02T07:45:13Z</time>
      </trkpt>
      <trkpt lat="45.96285" lon="6.57144">
        <ele>1721.1</ele>
        <time>2026-02-02T07:45:14Z</time>
      </trkpt>
      <trkpt lat="45.96284" lon="6.57143">
        <ele>1721.4</ele>
        <time>2026-02-02T07:45:15Z</time>
      </trkpt>
      <trkpt lat="45.96284" lon="6.57142">
        <ele>1721.5</ele>
        <time>2026-02-02T07:45:16Z</time>
      </trkpt>
      <trkpt lat="45.96283" lon="6.57141">
        <ele>1721.8</ele>
        <time>2026-02-02T07:45:17Z</time>
      </trkpt>
      <trkpt lat="45.96283" lon="6.5714">
        <ele>1721.9</ele>
        <time>2026-02-02T07:45:18Z</time>
      </trkpt>
      <trkpt lat="45.96283" lon="6.57139">
        <ele>1722.2</ele>
        <time>2026-02-02T07:45:19Z</time>
      </trkpt>
      <trkpt lat="45.96282" lon="6.57138">
        <ele>1722.4</ele>
        <time>2026-02-02T07:45:20Z</time>
      </trkpt>
      <trkpt lat="45.96282" lon="6.57137">
        <ele>1722.7</ele>
        <time>2026-02-02T07:45:21Z</time>
      </trkpt>
      <trkpt lat="45.96282" lon="6.57136">
        <ele>1722.9</ele>
        <time>2026-02-02T07:45:22Z</time>
      </trkpt>
      <trkpt lat="45.96281" lon="6.57135">
        <ele>1723.1</ele>
        <time>2026-02-02T07:45:23Z</time>
      </trkpt>
      <trkpt lat="45.96281" lon="6.57134">
        <ele>1723.2</ele>
        <time>2026-02-02T07:45:24Z</time>
      </trkpt>
      <trkpt lat="45.96281" lon="6.57133">
        <ele>1723.3</ele>
        <time>2026-02-02T07:45:25Z</time>
      </trkpt>
      <trkpt lat="45.96281" lon="6.57132">
        <ele>1723.5</ele>
        <time>2026-02-02T07:45:26Z</time>
      </trkpt>
      <trkpt lat="45.96281" lon="6.57131">
        <ele>1723.8</ele>
        <time>2026-02-02T07:45:27Z</time>
      </trkpt>
      <trkpt lat="45.96281" lon="6.5713">
        <ele>1724</ele>
        <time>2026-02-02T07:45:28Z</time>
      </trkpt>
      <trkpt lat="45.9628" lon="6.57129">
        <ele>1724.2</ele>
        <time>2026-02-02T07:45:29Z</time>
      </trkpt>
      <trkpt lat="45.9628" lon="6.57129">
        <ele>1724.3</ele>
        <time>2026-02-02T07:45:30Z</time>
      </trkpt>
      <trkpt lat="45.96279" lon="6.57128">
        <ele>1724.5</ele>
        <time>2026-02-02T07:45:31Z</time>
      </trkpt>
      <trkpt lat="45.96279" lon="6.57127">
        <ele>1724.7</ele>
        <time>2026-02-02T07:45:32Z</time>
      </trkpt>
      <trkpt lat="45.96279" lon="6.57126">
        <ele>1724.9</ele>
        <time>2026-02-02T07:45:33Z</time>
      </trkpt>
      <trkpt lat="45.96278" lon="6.57125">
        <ele>1725</ele>
        <time>2026-02-02T07:45:34Z</time>
      </trkpt>
      <trkpt lat="45.96278" lon="6.57125">
        <ele>1725.2</ele>
        <time>2026-02-02T07:45:35Z</time>
      </trkpt>
      <trkpt lat="45.96277" lon="6.57124">
        <ele>1725.4</ele>
        <time>2026-02-02T07:45:36Z</time>
      </trkpt>
      <trkpt lat="45.96276" lon="6.57123">
        <ele>1725.6</ele>
        <time>2026-02-02T07:45:37Z</time>
      </trkpt>
      <trkpt lat="45.96276" lon="6.57122">
        <ele>1725.9</ele>
        <time>2026-02-02T07:45:38Z</time>
      </trkpt>
      <trkpt lat="45.96275" lon="6.57122">
        <ele>1726.1</ele>
        <time>2026-02-02T07:45:39Z</time>
      </trkpt>
      <trkpt lat="45.96274" lon="6.57121">
        <ele>1726.5</ele>
        <time>2026-02-02T07:45:40Z</time>
      </trkpt>
      <trkpt lat="45.96272" lon="6.57119">
        <ele>1727</ele>
        <time>2026-02-02T07:45:41Z</time>
      </trkpt>
      <trkpt lat="45.96271" lon="6.57118">
        <ele>1727.2</ele>
        <time>2026-02-02T07:45:42Z</time>
      </trkpt>
      <trkpt lat="45.96271" lon="6.57117">
        <ele>1727.4</ele>
        <time>2026-02-02T07:45:43Z</time>
      </trkpt>
      <trkpt lat="45.9627" lon="6.57116">
        <ele>1727.6</ele>
        <time>2026-02-02T07:45:44Z</time>
      </trkpt>
      <trkpt lat="45.9627" lon="6.57116">
        <ele>1727.7</ele>
        <time>2026-02-02T07:45:45Z</time>
      </trkpt>
      <trkpt lat="45.9627" lon="6.57115">
        <ele>1727.8</ele>
        <time>2026-02-02T07:45:46Z</time>
      </trkpt>
      <trkpt lat="45.96269" lon="6.57114">
        <ele>1728.1</ele>
        <time>2026-02-02T07:45:47Z</time>
      </trkpt>
      <trkpt lat="45.96268" lon="6.57113">
        <ele>1728.3</ele>
        <time>2026-02-02T07:45:48Z</time>
      </trkpt>
      <trkpt lat="45.96268" lon="6.57113">
        <ele>1728.5</ele>
        <time>2026-02-02T07:45:49Z</time>
      </trkpt>
      <trkpt lat="45.96268" lon="6.57112">
        <ele>1728.6</ele>
        <time>2026-02-02T07:45:50Z</time>
      </trkpt>
      <trkpt lat="45.96267" lon="6.57111">
        <ele>1728.9</ele>
        <time>2026-02-02T07:45:51Z</time>
      </trkpt>
      <trkpt lat="45.96267" lon="6.5711">
        <ele>1729.1</ele>
        <time>2026-02-02T07:45:52Z</time>
      </trkpt>
      <trkpt lat="45.96266" lon="6.57108">
        <ele>1729.3</ele>
        <time>2026-02-02T07:45:53Z</time>
      </trkpt>
      <trkpt lat="45.96266" lon="6.57107">
        <ele>1729.6</ele>
        <time>2026-02-02T07:45:54Z</time>
      </trkpt>
      <trkpt lat="45.96265" lon="6.57107">
        <ele>1729.7</ele>
        <time>2026-02-02T07:45:55Z</time>
      </trkpt>
      <trkpt lat="45.96265" lon="6.57106">
        <ele>1729.9</ele>
        <time>2026-02-02T07:45:56Z</time>
      </trkpt>
      <trkpt lat="45.96264" lon="6.57104">
        <ele>1730.2</ele>
        <time>2026-02-02T07:45:57Z</time>
      </trkpt>
      <trkpt lat="45.96264" lon="6.57103">
        <ele>1730.4</ele>
        <time>2026-02-02T07:45:58Z</time>
      </trkpt>
      <trkpt lat="45.96264" lon="6.57102">
        <ele>1730.6</ele>
        <time>2026-02-02T07:45:59Z</time>
      </trkpt>
      <trkpt lat="45.96264" lon="6.57101">
        <ele>1730.8</ele>
        <time>2026-02-02T07:46:00Z</time>
      </trkpt>
      <trkpt lat="45.96263" lon="6.571">
        <ele>1731</ele>
        <time>2026-02-02T07:46:01Z</time>
      </trkpt>
      <trkpt lat="45.96263" lon="6.57099">
        <ele>1731.1</ele>
        <time>2026-02-02T07:46:02Z</time>
      </trkpt>
      <trkpt lat="45.96263" lon="6.57099">
        <ele>1731.2</ele>
        <time>2026-02-02T07:46:03Z</time>
      </trkpt>
      <trkpt lat="45.96263" lon="6.57098">
        <ele>1731.4</ele>
        <time>2026-02-02T07:46:04Z</time>
      </trkpt>
      <trkpt lat="45.96262" lon="6.57097">
        <ele>1731.6</ele>
        <time>2026-02-02T07:46:05Z</time>
      </trkpt>
      <trkpt lat="45.96262" lon="6.57095">
        <ele>1731.9</ele>
        <time>2026-02-02T07:46:06Z</time>
      </trkpt>
      <trkpt lat="45.96262" lon="6.57094">
        <ele>1732.1</ele>
        <time>2026-02-02T07:46:07Z</time>
      </trkpt>
      <trkpt lat="45.96261" lon="6.57093">
        <ele>1732.3</ele>
        <time>2026-02-02T07:46:08Z</time>
      </trkpt>
      <trkpt lat="45.9626" lon="6.57093">
        <ele>1732.5</ele>
        <time>2026-02-02T07:46:09Z</time>
      </trkpt>
      <trkpt lat="45.9626" lon="6.57092">
        <ele>1732.7</ele>
        <time>2026-02-02T07:46:10Z</time>
      </trkpt>
      <trkpt lat="45.96259" lon="6.57091">
        <ele>1733</ele>
        <time>2026-02-02T07:46:11Z</time>
      </trkpt>
      <trkpt lat="45.96258" lon="6.57089">
        <ele>1733.3</ele>
        <time>2026-02-02T07:46:12Z</time>
      </trkpt>
      <trkpt lat="45.96257" lon="6.57088">
        <ele>1733.5</ele>
        <time>2026-02-02T07:46:13Z</time>
      </trkpt>
      <trkpt lat="45.96257" lon="6.57087">
        <ele>1733.6</ele>
        <time>2026-02-02T07:46:14Z</time>
      </trkpt>
      <trkpt lat="45.96257" lon="6.57086">
        <ele>1733.8</ele>
        <time>2026-02-02T07:46:15Z</time>
      </trkpt>
      <trkpt lat="45.96256" lon="6.57085">
        <ele>1734</ele>
        <time>2026-02-02T07:46:16Z</time>
      </trkpt>
      <trkpt lat="45.96255" lon="6.57083">
        <ele>1734.3</ele>
        <time>2026-02-02T07:46:17Z</time>
      </trkpt>
      <trkpt lat="45.96255" lon="6.57083">
        <ele>1734.5</ele>
        <time>2026-02-02T07:46:18Z</time>
      </trkpt>
      <trkpt lat="45.96254" lon="6.57082">
        <ele>1734.8</ele>
        <time>2026-02-02T07:46:19Z</time>
      </trkpt>
      <trkpt lat="45.96253" lon="6.57081">
        <ele>1735.1</ele>
        <time>2026-02-02T07:46:20Z</time>
      </trkpt>
      <trkpt lat="45.96252" lon="6.5708">
        <ele>1735.3</ele>
        <time>2026-02-02T07:46:21Z</time>
      </trkpt>
      <trkpt lat="45.96252" lon="6.57078">
        <ele>1735.5</ele>
        <time>2026-02-02T07:46:22Z</time>
      </trkpt>
      <trkpt lat="45.96251" lon="6.57078">
        <ele>1735.6</ele>
        <time>2026-02-02T07:46:23Z</time>
      </trkpt>
      <trkpt lat="45.96251" lon="6.57076">
        <ele>1735.9</ele>
        <time>2026-02-02T07:46:24Z</time>
      </trkpt>
      <trkpt lat="45.96251" lon="6.57075">
        <ele>1736</ele>
        <time>2026-02-02T07:46:25Z</time>
      </trkpt>
      <trkpt lat="45.96251" lon="6.57075">
        <ele>1736.1</ele>
        <time>2026-02-02T07:46:26Z</time>
      </trkpt>
      <trkpt lat="45.9625" lon="6.57074">
        <ele>1736.2</ele>
        <time>2026-02-02T07:46:27Z</time>
      </trkpt>
      <trkpt lat="45.9625" lon="6.57074">
        <ele>1736.3</ele>
        <time>2026-02-02T07:46:28Z</time>
      </trkpt>
      <trkpt lat="45.9625" lon="6.57074">
        <ele>1736.4</ele>
        <time>2026-02-02T07:46:29Z</time>
      </trkpt>
      <trkpt lat="45.96249" lon="6.57074">
        <ele>1736.6</ele>
        <time>2026-02-02T07:46:30Z</time>
      </trkpt>
      <trkpt lat="45.96248" lon="6.57073">
        <ele>1736.9</ele>
        <time>2026-02-02T07:46:31Z</time>
      </trkpt>
      <trkpt lat="45.96248" lon="6.57072">
        <ele>1737.1</ele>
        <time>2026-02-02T07:46:32Z</time>
      </trkpt>
      <trkpt lat="45.96247" lon="6.57071">
        <ele>1737.3</ele>
        <time>2026-02-02T07:46:33Z</time>
      </trkpt>
      <trkpt lat="45.96247" lon="6.5707">
        <ele>1737.5</ele>
        <time>2026-02-02T07:46:34Z</time>
      </trkpt>
      <trkpt lat="45.96247" lon="6.57069">
        <ele>1737.7</ele>
        <time>2026-02-02T07:46:35Z</time>
      </trkpt>
      <trkpt lat="45.96246" lon="6.57069">
        <ele>1737.9</ele>
        <time>2026-02-02T07:46:36Z</time>
      </trkpt>
      <trkpt lat="45.96246" lon="6.57068">
        <ele>1738</ele>
        <time>2026-02-02T07:46:37Z</time>
      </trkpt>
      <trkpt lat="45.96246" lon="6.57068">
        <ele>1738</ele>
        <time>2026-02-02T07:46:38Z</time>
      </trkpt>
      <trkpt lat="45.96246" lon="6.57068">
        <ele>1738</ele>
        <time>2026-02-02T07:46:39Z</time>
      </trkpt>
      <trkpt lat="45.96246" lon="6.57068">
        <ele>1738</ele>
        <time>2026-02-02T07:46:40Z</time>
      </trkpt>
      <trkpt lat="45.96246" lon="6.57068">
        <ele>1738</ele>
        <time>2026-02-02T07:46:41Z</time>
      </trkpt>
      <trkpt lat="45.96246" lon="6.57068">
        <ele>1738</ele>
        <time>2026-02-02T07:46:42Z</time>
      </trkpt>
      <trkpt lat="45.96246" lon="6.57068">
        <ele>1738</ele>
        <time>2026-02-02T07:46:43Z</time>
      </trkpt>
      <trkpt lat="45.96246" lon="6.57068">
        <ele>1738</ele>
        <time>2026-02-02T07:46:44Z</time>
      </trkpt>
      <trkpt lat="45.96246" lon="6.57068">
        <ele>1738</ele>
        <time>2026-02-02T07:46:45Z</time>
      </trkpt>
      <trkpt lat="45.96246" lon="6.57068">
        <ele>1738</ele>
        <time>2026-02-02T07:46:46Z</time>
      </trkpt>
      <trkpt lat="45.96246" lon="6.57069">
        <ele>1738.2</ele>
        <time>2026-02-02T07:46:47Z</time>
      </trkpt>
      <trkpt lat="45.96246" lon="6.57069">
        <ele>1738.2</ele>
        <time>2026-02-02T07:46:48Z</time>
      </trkpt>
      <trkpt lat="45.96246" lon="6.57069">
        <ele>1738.2</ele>
        <time>2026-02-02T07:46:49Z</time>
      </trkpt>
      <trkpt lat="45.96246" lon="6.57069">
        <ele>1738.4</ele>
        <time>2026-02-02T07:46:50Z</time>
      </trkpt>
      <trkpt lat="45.96245" lon="6.57068">
        <ele>1738.6</ele>
        <time>2026-02-02T07:46:51Z</time>
      </trkpt>
      <trkpt lat="45.96245" lon="6.57067">
        <ele>1738.8</ele>
        <time>2026-02-02T07:46:52Z</time>
      </trkpt>
      <trkpt lat="45.96245" lon="6.57066">
        <ele>1739</ele>
        <time>2026-02-02T07:46:53Z</time>
      </trkpt>
      <trkpt lat="45.96245" lon="6.57064">
        <ele>1739.3</ele>
        <time>2026-02-02T07:46:54Z</time>
      </trkpt>
      <trkpt lat="45.96244" lon="6.57062">
        <ele>1739.7</ele>
        <time>2026-02-02T07:46:55Z</time>
      </trkpt>
      <trkpt lat="45.96243" lon="6.57061">
        <ele>1740</ele>
        <time>2026-02-02T07:46:56Z</time>
      </trkpt>
      <trkpt lat="45.96243" lon="6.5706">
        <ele>1740.2</ele>
        <time>2026-02-02T07:46:57Z</time>
      </trkpt>
      <trkpt lat="45.96242" lon="6.57057">
        <ele>1740.8</ele>
        <time>2026-02-02T07:46:58Z</time>
      </trkpt>
      <trkpt lat="45.96242" lon="6.57056">
        <ele>1741</ele>
        <time>2026-02-02T07:46:59Z</time>
      </trkpt>
      <trkpt lat="45.96242" lon="6.57055">
        <ele>1741.2</ele>
        <time>2026-02-02T07:47:00Z</time>
      </trkpt>
      <trkpt lat="45.96241" lon="6.57054">
        <ele>1741.5</ele>
        <time>2026-02-02T07:47:01Z</time>
      </trkpt>
      <trkpt lat="45.9624" lon="6.57052">
        <ele>1741.8</ele>
        <time>2026-02-02T07:47:02Z</time>
      </trkpt>
      <trkpt lat="45.96239" lon="6.57051">
        <ele>1742.2</ele>
        <time>2026-02-02T07:47:03Z</time>
      </trkpt>
      <trkpt lat="45.96239" lon="6.5705">
        <ele>1742.4</ele>
        <time>2026-02-02T07:47:04Z</time>
      </trkpt>
      <trkpt lat="45.96239" lon="6.5705">
        <ele>1742.5</ele>
        <time>2026-02-02T07:47:05Z</time>
      </trkpt>
      <trkpt lat="45.96238" lon="6.57049">
        <ele>1742.7</ele>
        <time>2026-02-02T07:47:06Z</time>
      </trkpt>
      <trkpt lat="45.96237" lon="6.57048">
        <ele>1743</ele>
        <time>2026-02-02T07:47:07Z</time>
      </trkpt>
      <trkpt lat="45.96236" lon="6.57046">
        <ele>1743.4</ele>
        <time>2026-02-02T07:47:08Z</time>
      </trkpt>
      <trkpt lat="45.96236" lon="6.57046">
        <ele>1743.6</ele>
        <time>2026-02-02T07:47:09Z</time>
      </trkpt>
      <trkpt lat="45.96235" lon="6.57045">
        <ele>1743.8</ele>
        <time>2026-02-02T07:47:10Z</time>
      </trkpt>
      <trkpt lat="45.96235" lon="6.57043">
        <ele>1744.1</ele>
        <time>2026-02-02T07:47:11Z</time>
      </trkpt>
      <trkpt lat="45.96235" lon="6.57042">
        <ele>1744.3</ele>
        <time>2026-02-02T07:47:12Z</time>
      </trkpt>
      <trkpt lat="45.96234" lon="6.5704">
        <ele>1744.7</ele>
        <time>2026-02-02T07:47:13Z</time>
      </trkpt>
      <trkpt lat="45.96234" lon="6.5704">
        <ele>1744.8</ele>
        <time>2026-02-02T07:47:14Z</time>
      </trkpt>
      <trkpt lat="45.96233" lon="6.57039">
        <ele>1745</ele>
        <time>2026-02-02T07:47:15Z</time>
      </trkpt>
      <trkpt lat="45.96232" lon="6.57038">
        <ele>1745.3</ele>
        <time>2026-02-02T07:47:16Z</time>
      </trkpt>
      <trkpt lat="45.96232" lon="6.57038">
        <ele>1745.3</ele>
        <time>2026-02-02T07:47:17Z</time>
      </trkpt>
      <trkpt lat="45.96231" lon="6.57037">
        <ele>1745.6</ele>
        <time>2026-02-02T07:47:18Z</time>
      </trkpt>
      <trkpt lat="45.9623" lon="6.57037">
        <ele>1745.9</ele>
        <time>2026-02-02T07:47:19Z</time>
      </trkpt>
      <trkpt lat="45.96229" lon="6.57036">
        <ele>1746.2</ele>
        <time>2026-02-02T07:47:20Z</time>
      </trkpt>
      <trkpt lat="45.96229" lon="6.57036">
        <ele>1746.3</ele>
        <time>2026-02-02T07:47:21Z</time>
      </trkpt>
      <trkpt lat="45.96229" lon="6.57035">
        <ele>1746.4</ele>
        <time>2026-02-02T07:47:22Z</time>
      </trkpt>
      <trkpt lat="45.96228" lon="6.57034">
        <ele>1746.7</ele>
        <time>2026-02-02T07:47:23Z</time>
      </trkpt>
      <trkpt lat="45.96227" lon="6.57034">
        <ele>1747</ele>
        <time>2026-02-02T07:47:24Z</time>
      </trkpt>
      <trkpt lat="45.96227" lon="6.57034">
        <ele>1747.2</ele>
        <time>2026-02-02T07:47:25Z</time>
      </trkpt>
      <trkpt lat="45.96226" lon="6.57032">
        <ele>1747.6</ele>
        <time>2026-02-02T07:47:26Z</time>
      </trkpt>
      <trkpt lat="45.96225" lon="6.57031">
        <ele>1747.9</ele>
        <time>2026-02-02T07:47:27Z</time>
      </trkpt>
      <trkpt lat="45.96224" lon="6.5703">
        <ele>1748.2</ele>
        <time>2026-02-02T07:47:28Z</time>
      </trkpt>
      <trkpt lat="45.96223" lon="6.5703">
        <ele>1748.4</ele>
        <time>2026-02-02T07:47:29Z</time>
      </trkpt>
      <trkpt lat="45.96222" lon="6.5703">
        <ele>1748.7</ele>
        <time>2026-02-02T07:47:30Z</time>
      </trkpt>
      <trkpt lat="45.96222" lon="6.57028">
        <ele>1748.9</ele>
        <time>2026-02-02T07:47:31Z</time>
      </trkpt>
      <trkpt lat="45.96222" lon="6.57029">
        <ele>1749</ele>
        <time>2026-02-02T07:47:32Z</time>
      </trkpt>
      <trkpt lat="45.96221" lon="6.57027">
        <ele>1749.3</ele>
        <time>2026-02-02T07:47:33Z</time>
      </trkpt>
      <trkpt lat="45.96221" lon="6.57026">
        <ele>1749.6</ele>
        <time>2026-02-02T07:47:34Z</time>
      </trkpt>
      <trkpt lat="45.9622" lon="6.57025">
        <ele>1749.8</ele>
        <time>2026-02-02T07:47:35Z</time>
      </trkpt>
      <trkpt lat="45.9622" lon="6.57025">
        <ele>1749.9</ele>
        <time>2026-02-02T07:47:36Z</time>
      </trkpt>
      <trkpt lat="45.96219" lon="6.57025">
        <ele>1750.1</ele>
        <time>2026-02-02T07:47:37Z</time>
      </trkpt>
      <trkpt lat="45.96218" lon="6.57024">
        <ele>1750.4</ele>
        <time>2026-02-02T07:47:38Z</time>
      </trkpt>
      <trkpt lat="45.96217" lon="6.57023">
        <ele>1750.6</ele>
        <time>2026-02-02T07:47:39Z</time>
      </trkpt>
      <trkpt lat="45.96216" lon="6.57023">
        <ele>1750.9</ele>
        <time>2026-02-02T07:47:40Z</time>
      </trkpt>
      <trkpt lat="45.96216" lon="6.57022">
        <ele>1751.1</ele>
        <time>2026-02-02T07:47:41Z</time>
      </trkpt>
      <trkpt lat="45.96215" lon="6.57022">
        <ele>1751.3</ele>
        <time>2026-02-02T07:47:42Z</time>
      </trkpt>
      <trkpt lat="45.96214" lon="6.57021">
        <ele>1751.5</ele>
        <time>2026-02-02T07:47:43Z</time>
      </trkpt>
      <trkpt lat="45.96214" lon="6.57021">
        <ele>1751.5</ele>
        <time>2026-02-02T07:47:44Z</time>
      </trkpt>
      <trkpt lat="45.96214" lon="6.57021">
        <ele>1751.5</ele>
        <time>2026-02-02T07:47:45Z</time>
      </trkpt>
      <trkpt lat="45.96214" lon="6.57021">
        <ele>1751.5</ele>
        <time>2026-02-02T07:47:46Z</time>
      </trkpt>
      <trkpt lat="45.96214" lon="6.57021">
        <ele>1751.5</ele>
        <time>2026-02-02T07:47:47Z</time>
      </trkpt>
      <trkpt lat="45.96214" lon="6.57021">
        <ele>1751.5</ele>
        <time>2026-02-02T07:47:48Z</time>
      </trkpt>
      <trkpt lat="45.96214" lon="6.57021">
        <ele>1751.5</ele>
        <time>2026-02-02T07:47:49Z</time>
      </trkpt>
      <trkpt lat="45.96214" lon="6.57021">
        <ele>1751.5</ele>
        <time>2026-02-02T07:47:50Z</time>
      </trkpt>
      <trkpt lat="45.96214" lon="6.57021">
        <ele>1751.5</ele>
        <time>2026-02-02T07:47:51Z</time>
      </trkpt>
      <trkpt lat="45.96214" lon="6.57021">
        <ele>1751.5</ele>
        <time>2026-02-02T07:47:52Z</time>
      </trkpt>
      <trkpt lat="45.96214" lon="6.57021">
        <ele>1751.5</ele>
        <time>2026-02-02T07:47:53Z</time>
      </trkpt>
      <trkpt lat="45.96214" lon="6.57021">
        <ele>1751.5</ele>
        <time>2026-02-02T07:47:54Z</time>
      </trkpt>
      <trkpt lat="45.96214" lon="6.57021">
        <ele>1751.5</ele>
        <time>2026-02-02T07:47:55Z</time>
      </trkpt>
      <trkpt lat="45.96214" lon="6.57021">
        <ele>1751.5</ele>
        <time>2026-02-02T07:47:56Z</time>
      </trkpt>
      <trkpt lat="45.96214" lon="6.57021">
        <ele>1751.8</ele>
        <time>2026-02-02T07:47:57Z</time>
      </trkpt>
      <trkpt lat="45.96213" lon="6.5702">
        <ele>1752</ele>
        <time>2026-02-02T07:47:58Z</time>
      </trkpt>
      <trkpt lat="45.96212" lon="6.57019">
        <ele>1752.3</ele>
        <time>2026-02-02T07:47:59Z</time>
      </trkpt>
      <trkpt lat="45.96212" lon="6.57017">
        <ele>1752.6</ele>
        <time>2026-02-02T07:48:00Z</time>
      </trkpt>
      <trkpt lat="45.96212" lon="6.57016">
        <ele>1752.8</ele>
        <time>2026-02-02T07:48:01Z</time>
      </trkpt>
      <trkpt lat="45.96211" lon="6.57015">
        <ele>1753.1</ele>
        <time>2026-02-02T07:48:02Z</time>
      </trkpt>
      <trkpt lat="45.96211" lon="6.57014">
        <ele>1753.5</ele>
        <time>2026-02-02T07:48:03Z</time>
      </trkpt>
      <trkpt lat="45.9621" lon="6.57013">
        <ele>1753.7</ele>
        <time>2026-02-02T07:48:04Z</time>
      </trkpt>
      <trkpt lat="45.96208" lon="6.57012">
        <ele>1754.2</ele>
        <time>2026-02-02T07:48:05Z</time>
      </trkpt>
      <trkpt lat="45.96208" lon="6.57011">
        <ele>1754.4</ele>
        <time>2026-02-02T07:48:06Z</time>
      </trkpt>
      <trkpt lat="45.96207" lon="6.5701">
        <ele>1754.6</ele>
        <time>2026-02-02T07:48:07Z</time>
      </trkpt>
      <trkpt lat="45.96206" lon="6.57009">
        <ele>1755</ele>
        <time>2026-02-02T07:48:08Z</time>
      </trkpt>
      <trkpt lat="45.96206" lon="6.57008">
        <ele>1755.2</ele>
        <time>2026-02-02T07:48:09Z</time>
      </trkpt>
      <trkpt lat="45.96205" lon="6.57008">
        <ele>1755.5</ele>
        <time>2026-02-02T07:48:10Z</time>
      </trkpt>
      <trkpt lat="45.96204" lon="6.57007">
        <ele>1755.8</ele>
        <time>2026-02-02T07:48:11Z</time>
      </trkpt>
      <trkpt lat="45.96203" lon="6.57007">
        <ele>1756</ele>
        <time>2026-02-02T07:48:12Z</time>
      </trkpt>
      <trkpt lat="45.96203" lon="6.57007">
        <ele>1756.2</ele>
        <time>2026-02-02T07:48:13Z</time>
      </trkpt>
      <trkpt lat="45.96202" lon="6.57007">
        <ele>1756.5</ele>
        <time>2026-02-02T07:48:14Z</time>
      </trkpt>
      <trkpt lat="45.96201" lon="6.57006">
        <ele>1756.7</ele>
        <time>2026-02-02T07:48:15Z</time>
      </trkpt>
      <trkpt lat="45.96201" lon="6.57005">
        <ele>1756.9</ele>
        <time>2026-02-02T07:48:16Z</time>
      </trkpt>
      <trkpt lat="45.962" lon="6.57004">
        <ele>1757.2</ele>
        <time>2026-02-02T07:48:17Z</time>
      </trkpt>
      <trkpt lat="45.962" lon="6.57004">
        <ele>1757.4</ele>
        <time>2026-02-02T07:48:18Z</time>
      </trkpt>
      <trkpt lat="45.96199" lon="6.57003">
        <ele>1757.7</ele>
        <time>2026-02-02T07:48:19Z</time>
      </trkpt>
      <trkpt lat="45.96198" lon="6.57002">
        <ele>1758</ele>
        <time>2026-02-02T07:48:20Z</time>
      </trkpt>
      <trkpt lat="45.96198" lon="6.57001">
        <ele>1758.2</ele>
        <time>2026-02-02T07:48:21Z</time>
      </trkpt>
      <trkpt lat="45.96197" lon="6.57">
        <ele>1758.5</ele>
        <time>2026-02-02T07:48:22Z</time>
      </trkpt>
      <trkpt lat="45.96196" lon="6.56999">
        <ele>1758.7</ele>
        <time>2026-02-02T07:48:23Z</time>
      </trkpt>
      <trkpt lat="45.96196" lon="6.56999">
        <ele>1758.9</ele>
        <time>2026-02-02T07:48:24Z</time>
      </trkpt>
      <trkpt lat="45.96195" lon="6.56998">
        <ele>1759.1</ele>
        <time>2026-02-02T07:48:25Z</time>
      </trkpt>
      <trkpt lat="45.96194" lon="6.56996">
        <ele>1759.6</ele>
        <time>2026-02-02T07:48:26Z</time>
      </trkpt>
      <trkpt lat="45.96193" lon="6.56996">
        <ele>1759.8</ele>
        <time>2026-02-02T07:48:27Z</time>
      </trkpt>
      <trkpt lat="45.96192" lon="6.56995">
        <ele>1760.1</ele>
        <time>2026-02-02T07:48:28Z</time>
      </trkpt>
      <trkpt lat="45.96192" lon="6.56995">
        <ele>1760.1</ele>
        <time>2026-02-02T07:48:29Z</time>
      </trkpt>
      <trkpt lat="45.96191" lon="6.56994">
        <ele>1760.3</ele>
        <time>2026-02-02T07:48:30Z</time>
      </trkpt>
      <trkpt lat="45.96191" lon="6.56994">
        <ele>1760.5</ele>
        <time>2026-02-02T07:48:31Z</time>
      </trkpt>
      <trkpt lat="45.9619" lon="6.56993">
        <ele>1760.7</ele>
        <time>2026-02-02T07:48:32Z</time>
      </trkpt>
      <trkpt lat="45.96189" lon="6.56992">
        <ele>1760.8</ele>
        <time>2026-02-02T07:48:33Z</time>
      </trkpt>
      <trkpt lat="45.96189" lon="6.56991">
        <ele>1761</ele>
        <time>2026-02-02T07:48:34Z</time>
      </trkpt>
      <trkpt lat="45.96188" lon="6.5699">
        <ele>1761.3</ele>
        <time>2026-02-02T07:48:35Z</time>
      </trkpt>
      <trkpt lat="45.96187" lon="6.5699">
        <ele>1761.5</ele>
        <time>2026-02-02T07:48:36Z</time>
      </trkpt>
      <trkpt lat="45.96186" lon="6.56989">
        <ele>1761.8</ele>
        <time>2026-02-02T07:48:37Z</time>
      </trkpt>
      <trkpt lat="45.96185" lon="6.56988">
        <ele>1762</ele>
        <time>2026-02-02T07:48:38Z</time>
      </trkpt>
      <trkpt lat="45.96185" lon="6.56988">
        <ele>1762.1</ele>
        <time>2026-02-02T07:48:39Z</time>
      </trkpt>
      <trkpt lat="45.96184" lon="6.56987">
        <ele>1762.3</ele>
        <time>2026-02-02T07:48:40Z</time>
      </trkpt>
      <trkpt lat="45.96183" lon="6.56986">
        <ele>1762.6</ele>
        <time>2026-02-02T07:48:41Z</time>
      </trkpt>
      <trkpt lat="45.96182" lon="6.56986">
        <ele>1762.6</ele>
        <time>2026-02-02T07:48:42Z</time>
      </trkpt>
      <trkpt lat="45.96182" lon="6.56987">
        <ele>1762.8</ele>
        <time>2026-02-02T07:48:43Z</time>
      </trkpt>
      <trkpt lat="45.96181" lon="6.56987">
        <ele>1762.9</ele>
        <time>2026-02-02T07:48:44Z</time>
      </trkpt>
      <trkpt lat="45.96181" lon="6.56987">
        <ele>1763.1</ele>
        <time>2026-02-02T07:48:45Z</time>
      </trkpt>
      <trkpt lat="45.9618" lon="6.56986">
        <ele>1763.3</ele>
        <time>2026-02-02T07:48:46Z</time>
      </trkpt>
      <trkpt lat="45.96178" lon="6.56986">
        <ele>1763.6</ele>
        <time>2026-02-02T07:48:47Z</time>
      </trkpt>
      <trkpt lat="45.96177" lon="6.56986">
        <ele>1763.8</ele>
        <time>2026-02-02T07:48:48Z</time>
      </trkpt>
      <trkpt lat="45.96177" lon="6.56986">
        <ele>1763.9</ele>
        <time>2026-02-02T07:48:49Z</time>
      </trkpt>
      <trkpt lat="45.96176" lon="6.56986">
        <ele>1764.2</ele>
        <time>2026-02-02T07:48:50Z</time>
      </trkpt>
      <trkpt lat="45.96175" lon="6.56987">
        <ele>1764.3</ele>
        <time>2026-02-02T07:48:51Z</time>
      </trkpt>
      <trkpt lat="45.96175" lon="6.56987">
        <ele>1764.4</ele>
        <time>2026-02-02T07:48:52Z</time>
      </trkpt>
      <trkpt lat="45.96174" lon="6.56987">
        <ele>1764.5</ele>
        <time>2026-02-02T07:48:53Z</time>
      </trkpt>
      <trkpt lat="45.96174" lon="6.56987">
        <ele>1764.6</ele>
        <time>2026-02-02T07:48:54Z</time>
      </trkpt>
      <trkpt lat="45.96174" lon="6.56986">
        <ele>1764.8</ele>
        <time>2026-02-02T07:48:55Z</time>
      </trkpt>
      <trkpt lat="45.96173" lon="6.56986">
        <ele>1765</ele>
        <time>2026-02-02T07:48:56Z</time>
      </trkpt>
      <trkpt lat="45.96172" lon="6.56986">
        <ele>1765.2</ele>
        <time>2026-02-02T07:48:57Z</time>
      </trkpt>
      <trkpt lat="45.96171" lon="6.56985">
        <ele>1765.4</ele>
        <time>2026-02-02T07:48:58Z</time>
      </trkpt>
      <trkpt lat="45.9617" lon="6.56985">
        <ele>1765.6</ele>
        <time>2026-02-02T07:48:59Z</time>
      </trkpt>
      <trkpt lat="45.96169" lon="6.56985">
        <ele>1765.9</ele>
        <time>2026-02-02T07:49:00Z</time>
      </trkpt>
      <trkpt lat="45.96168" lon="6.56985">
        <ele>1766.2</ele>
        <time>2026-02-02T07:49:01Z</time>
      </trkpt>
      <trkpt lat="45.96167" lon="6.56984">
        <ele>1766.5</ele>
        <time>2026-02-02T07:49:02Z</time>
      </trkpt>
      <trkpt lat="45.96165" lon="6.56984">
        <ele>1766.8</ele>
        <time>2026-02-02T07:49:03Z</time>
      </trkpt>
      <trkpt lat="45.96165" lon="6.56984">
        <ele>1767</ele>
        <time>2026-02-02T07:49:04Z</time>
      </trkpt>
      <trkpt lat="45.96164" lon="6.56984">
        <ele>1767.1</ele>
        <time>2026-02-02T07:49:05Z</time>
      </trkpt>
      <trkpt lat="45.96164" lon="6.56984">
        <ele>1767.3</ele>
        <time>2026-02-02T07:49:06Z</time>
      </trkpt>
      <trkpt lat="45.96163" lon="6.56984">
        <ele>1767.4</ele>
        <time>2026-02-02T07:49:07Z</time>
      </trkpt>
      <trkpt lat="45.96162" lon="6.56984">
        <ele>1767.8</ele>
        <time>2026-02-02T07:49:08Z</time>
      </trkpt>
      <trkpt lat="45.96161" lon="6.56984">
        <ele>1768</ele>
        <time>2026-02-02T07:49:09Z</time>
      </trkpt>
      <trkpt lat="45.9616" lon="6.56984">
        <ele>1768.2</ele>
        <time>2026-02-02T07:49:10Z</time>
      </trkpt>
      <trkpt lat="45.96159" lon="6.56984">
        <ele>1768.4</ele>
        <time>2026-02-02T07:49:11Z</time>
      </trkpt>
      <trkpt lat="45.96159" lon="6.56985">
        <ele>1768.5</ele>
        <time>2026-02-02T07:49:12Z</time>
      </trkpt>
      <trkpt lat="45.96158" lon="6.56985">
        <ele>1768.8</ele>
        <time>2026-02-02T07:49:13Z</time>
      </trkpt>
      <trkpt lat="45.96157" lon="6.56984">
        <ele>1769</ele>
        <time>2026-02-02T07:49:14Z</time>
      </trkpt>
      <trkpt lat="45.96156" lon="6.56985">
        <ele>1769.2</ele>
        <time>2026-02-02T07:49:15Z</time>
      </trkpt>
      <trkpt lat="45.96156" lon="6.56985">
        <ele>1769.3</ele>
        <time>2026-02-02T07:49:16Z</time>
      </trkpt>
      <trkpt lat="45.96156" lon="6.56984">
        <ele>1769.5</ele>
        <time>2026-02-02T07:49:17Z</time>
      </trkpt>
      <trkpt lat="45.96155" lon="6.56983">
        <ele>1769.6</ele>
        <time>2026-02-02T07:49:18Z</time>
      </trkpt>
      <trkpt lat="45.96154" lon="6.56983">
        <ele>1769.9</ele>
        <time>2026-02-02T07:49:19Z</time>
      </trkpt>
      <trkpt lat="45.96153" lon="6.56983">
        <ele>1770.2</ele>
        <time>2026-02-02T07:49:20Z</time>
      </trkpt>
      <trkpt lat="45.96152" lon="6.56983">
        <ele>1770.3</ele>
        <time>2026-02-02T07:49:21Z</time>
      </trkpt>
      <trkpt lat="45.96151" lon="6.56983">
        <ele>1770.6</ele>
        <time>2026-02-02T07:49:22Z</time>
      </trkpt>
      <trkpt lat="45.96151" lon="6.56983">
        <ele>1770.7</ele>
        <time>2026-02-02T07:49:23Z</time>
      </trkpt>
      <trkpt lat="45.9615" lon="6.56982">
        <ele>1770.8</ele>
        <time>2026-02-02T07:49:24Z</time>
      </trkpt>
      <trkpt lat="45.9615" lon="6.56982">
        <ele>1771.1</ele>
        <time>2026-02-02T07:49:25Z</time>
      </trkpt>
      <trkpt lat="45.96149" lon="6.56981">
        <ele>1771.3</ele>
        <time>2026-02-02T07:49:26Z</time>
      </trkpt>
      <trkpt lat="45.96149" lon="6.5698">
        <ele>1771.4</ele>
        <time>2026-02-02T07:49:27Z</time>
      </trkpt>
      <trkpt lat="45.96148" lon="6.56979">
        <ele>1771.6</ele>
        <time>2026-02-02T07:49:28Z</time>
      </trkpt>
      <trkpt lat="45.96147" lon="6.56979">
        <ele>1771.8</ele>
        <time>2026-02-02T07:49:29Z</time>
      </trkpt>
      <trkpt lat="45.96147" lon="6.56978">
        <ele>1772</ele>
        <time>2026-02-02T07:49:30Z</time>
      </trkpt>
      <trkpt lat="45.96146" lon="6.56978">
        <ele>1772.2</ele>
        <time>2026-02-02T07:49:31Z</time>
      </trkpt>
      <trkpt lat="45.96146" lon="6.56978">
        <ele>1772.4</ele>
        <time>2026-02-02T07:49:32Z</time>
      </trkpt>
      <trkpt lat="45.96145" lon="6.56976">
        <ele>1772.6</ele>
        <time>2026-02-02T07:49:33Z</time>
      </trkpt>
      <trkpt lat="45.96145" lon="6.56975">
        <ele>1772.7</ele>
        <time>2026-02-02T07:49:34Z</time>
      </trkpt>
      <trkpt lat="45.96145" lon="6.56975">
        <ele>1772.9</ele>
        <time>2026-02-02T07:49:35Z</time>
      </trkpt>
      <trkpt lat="45.96145" lon="6.56974">
        <ele>1773.1</ele>
        <time>2026-02-02T07:49:36Z</time>
      </trkpt>
      <trkpt lat="45.96145" lon="6.56973">
        <ele>1773.2</ele>
        <time>2026-02-02T07:49:37Z</time>
      </trkpt>
      <trkpt lat="45.96145" lon="6.56973">
        <ele>1773.3</ele>
        <time>2026-02-02T07:49:38Z</time>
      </trkpt>
      <trkpt lat="45.96145" lon="6.56973">
        <ele>1773.5</ele>
        <time>2026-02-02T07:49:39Z</time>
      </trkpt>
      <trkpt lat="45.96144" lon="6.56972">
        <ele>1773.6</ele>
        <time>2026-02-02T07:49:40Z</time>
      </trkpt>
      <trkpt lat="45.96144" lon="6.56971">
        <ele>1773.8</ele>
        <time>2026-02-02T07:49:41Z</time>
      </trkpt>
      <trkpt lat="45.96145" lon="6.5697">
        <ele>1774.2</ele>
        <time>2026-02-02T07:49:42Z</time>
      </trkpt>
      <trkpt lat="45.96144" lon="6.56969">
        <ele>1774.3</ele>
        <time>2026-02-02T07:49:43Z</time>
      </trkpt>
      <trkpt lat="45.96144" lon="6.56968">
        <ele>1774.6</ele>
        <time>2026-02-02T07:49:44Z</time>
      </trkpt>
      <trkpt lat="45.96142" lon="6.56965">
        <ele>1775.2</ele>
        <time>2026-02-02T07:49:45Z</time>
      </trkpt>
      <trkpt lat="45.96142" lon="6.56964">
        <ele>1775.5</ele>
        <time>2026-02-02T07:49:46Z</time>
      </trkpt>
      <trkpt lat="45.96142" lon="6.56963">
        <ele>1775.8</ele>
        <time>2026-02-02T07:49:47Z</time>
      </trkpt>
      <trkpt lat="45.96142" lon="6.56964">
        <ele>1776</ele>
        <time>2026-02-02T07:49:48Z</time>
      </trkpt>
      <trkpt lat="45.96142" lon="6.56964">
        <ele>1776.2</ele>
        <time>2026-02-02T07:49:49Z</time>
      </trkpt>
      <trkpt lat="45.96142" lon="6.56964">
        <ele>1776.2</ele>
        <time>2026-02-02T07:49:50Z</time>
      </trkpt>
      <trkpt lat="45.96142" lon="6.56964">
        <ele>1776.2</ele>
        <time>2026-02-02T07:49:51Z</time>
      </trkpt>
      <trkpt lat="45.96142" lon="6.56964">
        <ele>1776.2</ele>
        <time>2026-02-02T07:49:52Z</time>
      </trkpt>
      <trkpt lat="45.96142" lon="6.56964">
        <ele>1776.2</ele>
        <time>2026-02-02T07:49:53Z</time>
      </trkpt>
      <trkpt lat="45.96142" lon="6.56964">
        <ele>1776.2</ele>
        <time>2026-02-02T07:49:54Z</time>
      </trkpt>
      <trkpt lat="45.96142" lon="6.56964">
        <ele>1776.2</ele>
        <time>2026-02-02T07:49:55Z</time>
      </trkpt>
      <trkpt lat="45.96142" lon="6.56964">
        <ele>1776.2</ele>
        <time>2026-02-02T07:49:56Z</time>
      </trkpt>
      <trkpt lat="45.96142" lon="6.56965">
        <ele>1776.5</ele>
        <time>2026-02-02T07:49:57Z</time>
      </trkpt>
      <trkpt lat="45.96142" lon="6.56965">
        <ele>1776.5</ele>
        <time>2026-02-02T07:49:58Z</time>
      </trkpt>
      <trkpt lat="45.96142" lon="6.56965">
        <ele>1776.5</ele>
        <time>2026-02-02T07:49:59Z</time>
      </trkpt>
      <trkpt lat="45.96142" lon="6.56965">
        <ele>1776.5</ele>
        <time>2026-02-02T07:50:00Z</time>
      </trkpt>
      <trkpt lat="45.96142" lon="6.56965">
        <ele>1776.5</ele>
        <time>2026-02-02T07:50:01Z</time>
      </trkpt>
      <trkpt lat="45.96142" lon="6.56965">
        <ele>1776.5</ele>
        <time>2026-02-02T07:50:02Z</time>
      </trkpt>
      <trkpt lat="45.96142" lon="6.56965">
        <ele>1776.5</ele>
        <time>2026-02-02T07:50:03Z</time>
      </trkpt>
      <trkpt lat="45.96141" lon="6.56965">
        <ele>1776.6</ele>
        <time>2026-02-02T07:50:04Z</time>
      </trkpt>
      <trkpt lat="45.9614" lon="6.56965">
        <ele>1777</ele>
        <time>2026-02-02T07:50:05Z</time>
      </trkpt>
      <trkpt lat="45.9614" lon="6.56964">
        <ele>1777.2</ele>
        <time>2026-02-02T07:50:06Z</time>
      </trkpt>
      <trkpt lat="45.96139" lon="6.56962">
        <ele>1777.5</ele>
        <time>2026-02-02T07:50:07Z</time>
      </trkpt>
      <trkpt lat="45.96139" lon="6.56961">
        <ele>1777.8</ele>
        <time>2026-02-02T07:50:08Z</time>
      </trkpt>
      <trkpt lat="45.96139" lon="6.5696">
        <ele>1778</ele>
        <time>2026-02-02T07:50:09Z</time>
      </trkpt>
      <trkpt lat="45.96138" lon="6.56958">
        <ele>1778.3</ele>
        <time>2026-02-02T07:50:10Z</time>
      </trkpt>
      <trkpt lat="45.96138" lon="6.56957">
        <ele>1778.7</ele>
        <time>2026-02-02T07:50:11Z</time>
      </trkpt>
      <trkpt lat="45.96137" lon="6.56954">
        <ele>1779.3</ele>
        <time>2026-02-02T07:50:12Z</time>
      </trkpt>
      <trkpt lat="45.96137" lon="6.56953">
        <ele>1779.5</ele>
        <time>2026-02-02T07:50:13Z</time>
      </trkpt>
      <trkpt lat="45.96137" lon="6.56952">
        <ele>1779.7</ele>
        <time>2026-02-02T07:50:14Z</time>
      </trkpt>
      <trkpt lat="45.96137" lon="6.5695">
        <ele>1780</ele>
        <time>2026-02-02T07:50:15Z</time>
      </trkpt>
      <trkpt lat="45.96136" lon="6.56949">
        <ele>1780.4</ele>
        <time>2026-02-02T07:50:16Z</time>
      </trkpt>
      <trkpt lat="45.96136" lon="6.56947">
        <ele>1780.7</ele>
        <time>2026-02-02T07:50:17Z</time>
      </trkpt>
      <trkpt lat="45.96136" lon="6.56946">
        <ele>1781.1</ele>
        <time>2026-02-02T07:50:18Z</time>
      </trkpt>
      <trkpt lat="45.96135" lon="6.56945">
        <ele>1781.3</ele>
        <time>2026-02-02T07:50:19Z</time>
      </trkpt>
      <trkpt lat="45.96134" lon="6.56943">
        <ele>1781.7</ele>
        <time>2026-02-02T07:50:20Z</time>
      </trkpt>
      <trkpt lat="45.96133" lon="6.56943">
        <ele>1781.9</ele>
        <time>2026-02-02T07:50:21Z</time>
      </trkpt>
      <trkpt lat="45.96133" lon="6.56942">
        <ele>1782</ele>
        <time>2026-02-02T07:50:22Z</time>
      </trkpt>
      <trkpt lat="45.96132" lon="6.56941">
        <ele>1782.3</ele>
        <time>2026-02-02T07:50:23Z</time>
      </trkpt>
      <trkpt lat="45.96132" lon="6.5694">
        <ele>1782.6</ele>
        <time>2026-02-02T07:50:24Z</time>
      </trkpt>
      <trkpt lat="45.96132" lon="6.56939">
        <ele>1782.8</ele>
        <time>2026-02-02T07:50:25Z</time>
      </trkpt>
      <trkpt lat="45.96131" lon="6.56938">
        <ele>1783</ele>
        <time>2026-02-02T07:50:26Z</time>
      </trkpt>
      <trkpt lat="45.96131" lon="6.56937">
        <ele>1783.2</ele>
        <time>2026-02-02T07:50:27Z</time>
      </trkpt>
      <trkpt lat="45.96131" lon="6.56936">
        <ele>1783.5</ele>
        <time>2026-02-02T07:50:28Z</time>
      </trkpt>
      <trkpt lat="45.9613" lon="6.56935">
        <ele>1783.7</ele>
        <time>2026-02-02T07:50:29Z</time>
      </trkpt>
      <trkpt lat="45.9613" lon="6.56934">
        <ele>1783.9</ele>
        <time>2026-02-02T07:50:30Z</time>
      </trkpt>
      <trkpt lat="45.96129" lon="6.56932">
        <ele>1784.2</ele>
        <time>2026-02-02T07:50:31Z</time>
      </trkpt>
      <trkpt lat="45.96129" lon="6.56932">
        <ele>1784.3</ele>
        <time>2026-02-02T07:50:32Z</time>
      </trkpt>
      <trkpt lat="45.96129" lon="6.56931">
        <ele>1784.5</ele>
        <time>2026-02-02T07:50:33Z</time>
      </trkpt>
      <trkpt lat="45.96128" lon="6.5693">
        <ele>1784.7</ele>
        <time>2026-02-02T07:50:34Z</time>
      </trkpt>
      <trkpt lat="45.96127" lon="6.56929">
        <ele>1785</ele>
        <time>2026-02-02T07:50:35Z</time>
      </trkpt>
      <trkpt lat="45.96127" lon="6.56928">
        <ele>1785.3</ele>
        <time>2026-02-02T07:50:36Z</time>
      </trkpt>
      <trkpt lat="45.96127" lon="6.56926">
        <ele>1785.8</ele>
        <time>2026-02-02T07:50:37Z</time>
      </trkpt>
      <trkpt lat="45.96126" lon="6.56925">
        <ele>1785.8</ele>
        <time>2026-02-02T07:50:38Z</time>
      </trkpt>
      <trkpt lat="45.96126" lon="6.56924">
        <ele>1786.6</ele>
        <time>2026-02-02T07:50:39Z</time>
      </trkpt>
      <trkpt lat="45.96126" lon="6.56923">
        <ele>1786.6</ele>
        <time>2026-02-02T07:50:40Z</time>
      </trkpt>
      <trkpt lat="45.96126" lon="6.56922">
        <ele>1787.1</ele>
        <time>2026-02-02T07:50:41Z</time>
      </trkpt>
      <trkpt lat="45.96125" lon="6.5692">
        <ele>1787.1</ele>
        <time>2026-02-02T07:50:42Z</time>
      </trkpt>
      <trkpt lat="45.96125" lon="6.56919">
        <ele>1787.1</ele>
        <time>2026-02-02T07:50:43Z</time>
      </trkpt>
      <trkpt lat="45.96125" lon="6.56918">
        <ele>1787.6</ele>
        <time>2026-02-02T07:50:44Z</time>
      </trkpt>
      <trkpt lat="45.96125" lon="6.56916">
        <ele>1787.6</ele>
        <time>2026-02-02T07:50:45Z</time>
      </trkpt>
      <trkpt lat="45.96124" lon="6.56915">
        <ele>1787.6</ele>
        <time>2026-02-02T07:50:46Z</time>
      </trkpt>
      <trkpt lat="45.96124" lon="6.56913">
        <ele>1788.2</ele>
        <time>2026-02-02T07:50:47Z</time>
      </trkpt>
      <trkpt lat="45.96123" lon="6.56912">
        <ele>1788.2</ele>
        <time>2026-02-02T07:50:48Z</time>
      </trkpt>
      <trkpt lat="45.96122" lon="6.5691">
        <ele>1789</ele>
        <time>2026-02-02T07:50:49Z</time>
      </trkpt>
      <trkpt lat="45.96122" lon="6.56909">
        <ele>1789.6</ele>
        <time>2026-02-02T07:50:50Z</time>
      </trkpt>
      <trkpt lat="45.96122" lon="6.56908">
        <ele>1789.6</ele>
        <time>2026-02-02T07:50:51Z</time>
      </trkpt>
      <trkpt lat="45.96121" lon="6.56907">
        <ele>1789.6</ele>
        <time>2026-02-02T07:50:52Z</time>
      </trkpt>
      <trkpt lat="45.9612" lon="6.56906">
        <ele>1790.5</ele>
        <time>2026-02-02T07:50:53Z</time>
      </trkpt>
      <trkpt lat="45.9612" lon="6.56905">
        <ele>1791.1</ele>
        <time>2026-02-02T07:50:54Z</time>
      </trkpt>
      <trkpt lat="45.96119" lon="6.56903">
        <ele>1791.1</ele>
        <time>2026-02-02T07:50:55Z</time>
      </trkpt>
      <trkpt lat="45.96119" lon="6.56901">
        <ele>1791.1</ele>
        <time>2026-02-02T07:50:56Z</time>
      </trkpt>
      <trkpt lat="45.96119" lon="6.569">
        <ele>1791.7</ele>
        <time>2026-02-02T07:50:57Z</time>
      </trkpt>
      <trkpt lat="45.96119" lon="6.56899">
        <ele>1791.7</ele>
        <time>2026-02-02T07:50:58Z</time>
      </trkpt>
      <trkpt lat="45.96118" lon="6.56898">
        <ele>1791.7</ele>
        <time>2026-02-02T07:50:59Z</time>
      </trkpt>
      <trkpt lat="45.96118" lon="6.56897">
        <ele>1791.7</ele>
        <time>2026-02-02T07:51:00Z</time>
      </trkpt>
      <trkpt lat="45.96118" lon="6.56896">
        <ele>1792.3</ele>
        <time>2026-02-02T07:51:01Z</time>
      </trkpt>
      <trkpt lat="45.96117" lon="6.56895">
        <ele>1793.2</ele>
        <time>2026-02-02T07:51:02Z</time>
      </trkpt>
      <trkpt lat="45.96117" lon="6.56894">
        <ele>1793.2</ele>
        <time>2026-02-02T07:51:03Z</time>
      </trkpt>
      <trkpt lat="45.96116" lon="6.56893">
        <ele>1793.2</ele>
        <time>2026-02-02T07:51:04Z</time>
      </trkpt>
      <trkpt lat="45.96116" lon="6.56891">
        <ele>1793.8</ele>
        <time>2026-02-02T07:51:05Z</time>
      </trkpt>
      <trkpt lat="45.96116" lon="6.5689">
        <ele>1793.8</ele>
        <time>2026-02-02T07:51:06Z</time>
      </trkpt>
      <trkpt lat="45.96116" lon="6.56889">
        <ele>1793.8</ele>
        <time>2026-02-02T07:51:07Z</time>
      </trkpt>
      <trkpt lat="45.96116" lon="6.56889">
        <ele>1793.8</ele>
        <time>2026-02-02T07:51:08Z</time>
      </trkpt>
      <trkpt lat="45.96116" lon="6.56887">
        <ele>1794.5</ele>
        <time>2026-02-02T07:51:09Z</time>
      </trkpt>
      <trkpt lat="45.96116" lon="6.56886">
        <ele>1794.5</ele>
        <time>2026-02-02T07:51:10Z</time>
      </trkpt>
      <trkpt lat="45.96116" lon="6.56885">
        <ele>1794.5</ele>
        <time>2026-02-02T07:51:11Z</time>
      </trkpt>
      <trkpt lat="45.96116" lon="6.56881">
        <ele>1795.2</ele>
        <time>2026-02-02T07:51:12Z</time>
      </trkpt>
      <trkpt lat="45.96116" lon="6.5688">
        <ele>1795.2</ele>
        <time>2026-02-02T07:51:13Z</time>
      </trkpt>
      <trkpt lat="45.96116" lon="6.56879">
        <ele>1795.9</ele>
        <time>2026-02-02T07:51:14Z</time>
      </trkpt>
      <trkpt lat="45.96115" lon="6.56877">
        <ele>1795.9</ele>
        <time>2026-02-02T07:51:15Z</time>
      </trkpt>
      <trkpt lat="45.96114" lon="6.56876">
        <ele>1796.8</ele>
        <time>2026-02-02T07:51:16Z</time>
      </trkpt>
      <trkpt lat="45.96114" lon="6.56875">
        <ele>1797.5</ele>
        <time>2026-02-02T07:51:17Z</time>
      </trkpt>
      <trkpt lat="45.96113" lon="6.56874">
        <ele>1797.5</ele>
        <time>2026-02-02T07:51:18Z</time>
      </trkpt>
      <trkpt lat="45.96113" lon="6.56872">
        <ele>1797.6</ele>
        <time>2026-02-02T07:51:19Z</time>
      </trkpt>
      <trkpt lat="45.96112" lon="6.56871">
        <ele>1798.3</ele>
        <time>2026-02-02T07:51:20Z</time>
      </trkpt>
      <trkpt lat="45.96112" lon="6.5687">
        <ele>1798.3</ele>
        <time>2026-02-02T07:51:21Z</time>
      </trkpt>
      <trkpt lat="45.96112" lon="6.56868">
        <ele>1798.3</ele>
        <time>2026-02-02T07:51:22Z</time>
      </trkpt>
      <trkpt lat="45.96112" lon="6.56867">
        <ele>1799.1</ele>
        <time>2026-02-02T07:51:23Z</time>
      </trkpt>
      <trkpt lat="45.96111" lon="6.56865">
        <ele>1800.1</ele>
        <time>2026-02-02T07:51:24Z</time>
      </trkpt>
      <trkpt lat="45.96111" lon="6.56865">
        <ele>1800.1</ele>
        <time>2026-02-02T07:51:25Z</time>
      </trkpt>
      <trkpt lat="45.9611" lon="6.56864">
        <ele>1800.1</ele>
        <time>2026-02-02T07:51:26Z</time>
      </trkpt>
      <trkpt lat="45.96109" lon="6.56863">
        <ele>1800.1</ele>
        <time>2026-02-02T07:51:27Z</time>
      </trkpt>
      <trkpt lat="45.96109" lon="6.56862">
        <ele>1800.9</ele>
        <time>2026-02-02T07:51:28Z</time>
      </trkpt>
      <trkpt lat="45.96109" lon="6.56861">
        <ele>1800.9</ele>
        <time>2026-02-02T07:51:29Z</time>
      </trkpt>
      <trkpt lat="45.96108" lon="6.56861">
        <ele>1801.8</ele>
        <time>2026-02-02T07:51:30Z</time>
      </trkpt>
      <trkpt lat="45.96108" lon="6.5686">
        <ele>1801.8</ele>
        <time>2026-02-02T07:51:31Z</time>
      </trkpt>
      <trkpt lat="45.96108" lon="6.56859">
        <ele>1801.8</ele>
        <time>2026-02-02T07:51:32Z</time>
      </trkpt>
      <trkpt lat="45.96107" lon="6.56859">
        <ele>1801.8</ele>
        <time>2026-02-02T07:51:33Z</time>
      </trkpt>
      <trkpt lat="45.96107" lon="6.56858">
        <ele>1802.6</ele>
        <time>2026-02-02T07:51:34Z</time>
      </trkpt>
      <trkpt lat="45.96107" lon="6.56857">
        <ele>1802.6</ele>
        <time>2026-02-02T07:51:35Z</time>
      </trkpt>
      <trkpt lat="45.96107" lon="6.56856">
        <ele>1802.6</ele>
        <time>2026-02-02T07:51:36Z</time>
      </trkpt>
      <trkpt lat="45.96106" lon="6.56855">
        <ele>1802.6</ele>
        <time>2026-02-02T07:51:37Z</time>
      </trkpt>
      <trkpt lat="45.96106" lon="6.56854">
        <ele>1802.6</ele>
        <time>2026-02-02T07:51:38Z</time>
      </trkpt>
      <trkpt lat="45.96105" lon="6.56852">
        <ele>1804.2</ele>
        <time>2026-02-02T07:51:39Z</time>
      </trkpt>
      <trkpt lat="45.96104" lon="6.56851">
        <ele>1804.3</ele>
        <time>2026-02-02T07:51:40Z</time>
      </trkpt>
      <trkpt lat="45.96104" lon="6.5685">
        <ele>1804.3</ele>
        <time>2026-02-02T07:51:41Z</time>
      </trkpt>
      <trkpt lat="45.96104" lon="6.5685">
        <ele>1804.3</ele>
        <time>2026-02-02T07:51:42Z</time>
      </trkpt>
      <trkpt lat="45.96104" lon="6.5685">
        <ele>1804.3</ele>
        <time>2026-02-02T07:51:43Z</time>
      </trkpt>
      <trkpt lat="45.96103" lon="6.56849">
        <ele>1805</ele>
        <time>2026-02-02T07:51:44Z</time>
      </trkpt>
      <trkpt lat="45.96102" lon="6.56848">
        <ele>1805.8</ele>
        <time>2026-02-02T07:51:45Z</time>
      </trkpt>
      <trkpt lat="45.96102" lon="6.56848">
        <ele>1805.8</ele>
        <time>2026-02-02T07:51:46Z</time>
      </trkpt>
      <trkpt lat="45.96101" lon="6.56846">
        <ele>1805.8</ele>
        <time>2026-02-02T07:51:47Z</time>
      </trkpt>
      <trkpt lat="45.961" lon="6.56845">
        <ele>1806.6</ele>
        <time>2026-02-02T07:51:48Z</time>
      </trkpt>
      <trkpt lat="45.961" lon="6.56845">
        <ele>1806.6</ele>
        <time>2026-02-02T07:51:49Z</time>
      </trkpt>
      <trkpt lat="45.961" lon="6.56844">
        <ele>1806.6</ele>
        <time>2026-02-02T07:51:50Z</time>
      </trkpt>
      <trkpt lat="45.96099" lon="6.56843">
        <ele>1807.3</ele>
        <time>2026-02-02T07:51:51Z</time>
      </trkpt>
      <trkpt lat="45.96099" lon="6.56842">
        <ele>1807.3</ele>
        <time>2026-02-02T07:51:52Z</time>
      </trkpt>
      <trkpt lat="45.96098" lon="6.56842">
        <ele>1807.4</ele>
        <time>2026-02-02T07:51:53Z</time>
      </trkpt>
      <trkpt lat="45.96097" lon="6.56841">
        <ele>1808.1</ele>
        <time>2026-02-02T07:51:54Z</time>
      </trkpt>
      <trkpt lat="45.96097" lon="6.5684">
        <ele>1808.1</ele>
        <time>2026-02-02T07:51:55Z</time>
      </trkpt>
      <trkpt lat="45.96097" lon="6.56839">
        <ele>1808.1</ele>
        <time>2026-02-02T07:51:56Z</time>
      </trkpt>
      <trkpt lat="45.96097" lon="6.56838">
        <ele>1808.8</ele>
        <time>2026-02-02T07:51:57Z</time>
      </trkpt>
      <trkpt lat="45.96096" lon="6.56837">
        <ele>1808.8</ele>
        <time>2026-02-02T07:51:58Z</time>
      </trkpt>
      <trkpt lat="45.96096" lon="6.56836">
        <ele>1809.6</ele>
        <time>2026-02-02T07:51:59Z</time>
      </trkpt>
      <trkpt lat="45.96096" lon="6.56835">
        <ele>1809.6</ele>
        <time>2026-02-02T07:52:00Z</time>
      </trkpt>
      <trkpt lat="45.96096" lon="6.56834">
        <ele>1809.6</ele>
        <time>2026-02-02T07:52:01Z</time>
      </trkpt>
      <trkpt lat="45.96095" lon="6.56833">
        <ele>1809.6</ele>
        <time>2026-02-02T07:52:02Z</time>
      </trkpt>
      <trkpt lat="45.96095" lon="6.56832">
        <ele>1810.4</ele>
        <time>2026-02-02T07:52:03Z</time>
      </trkpt>
      <trkpt lat="45.96094" lon="6.56831">
        <ele>1810.4</ele>
        <time>2026-02-02T07:52:04Z</time>
      </trkpt>
      <trkpt lat="45.96094" lon="6.5683">
        <ele>1810.4</ele>
        <time>2026-02-02T07:52:05Z</time>
      </trkpt>
      <trkpt lat="45.96094" lon="6.56829">
        <ele>1810.4</ele>
        <time>2026-02-02T07:52:06Z</time>
      </trkpt>
      <trkpt lat="45.96094" lon="6.56828">
        <ele>1810.4</ele>
        <time>2026-02-02T07:52:07Z</time>
      </trkpt>
      <trkpt lat="45.96094" lon="6.56828">
        <ele>1811.2</ele>
        <time>2026-02-02T07:52:08Z</time>
      </trkpt>
      <trkpt lat="45.96094" lon="6.56827">
        <ele>1811.2</ele>
        <time>2026-02-02T07:52:09Z</time>
      </trkpt>
      <trkpt lat="45.96094" lon="6.56827">
        <ele>1811.2</ele>
        <time>2026-02-02T07:52:10Z</time>
      </trkpt>
      <trkpt lat="45.96094" lon="6.56827">
        <ele>1811.2</ele>
        <time>2026-02-02T07:52:11Z</time>
      </trkpt>
      <trkpt lat="45.96094" lon="6.56827">
        <ele>1811.2</ele>
        <time>2026-02-02T07:52:12Z</time>
      </trkpt>
      <trkpt lat="45.96094" lon="6.56827">
        <ele>1811.2</ele>
        <time>2026-02-02T07:52:13Z</time>
      </trkpt>
      <trkpt lat="45.96094" lon="6.56827">
        <ele>1811.2</ele>
        <time>2026-02-02T07:52:14Z</time>
      </trkpt>
      <trkpt lat="45.96094" lon="6.56827">
        <ele>1811.2</ele>
        <time>2026-02-02T07:52:15Z</time>
      </trkpt>
      <trkpt lat="45.96094" lon="6.56827">
        <ele>1811.2</ele>
        <time>2026-02-02T07:52:16Z</time>
      </trkpt>
      <trkpt lat="45.96094" lon="6.56827">
        <ele>1811.2</ele>
        <time>2026-02-02T07:52:17Z</time>
      </trkpt>
      <trkpt lat="45.96094" lon="6.56827">
        <ele>1811.2</ele>
        <time>2026-02-02T07:52:18Z</time>
      </trkpt>
      <trkpt lat="45.96094" lon="6.56827">
        <ele>1811.2</ele>
        <time>2026-02-02T07:52:19Z</time>
      </trkpt>
      <trkpt lat="45.96094" lon="6.56828">
        <ele>1811.2</ele>
        <time>2026-02-02T07:52:20Z</time>
      </trkpt>
      <trkpt lat="45.96094" lon="6.56828">
        <ele>1811.2</ele>
        <time>2026-02-02T07:52:21Z</time>
      </trkpt>
      <trkpt lat="45.96094" lon="6.56828">
        <ele>1811.3</ele>
        <time>2026-02-02T07:52:22Z</time>
      </trkpt>
      <trkpt lat="45.96094" lon="6.56828">
        <ele>1811.3</ele>
        <time>2026-02-02T07:52:23Z</time>
      </trkpt>
      <trkpt lat="45.96094" lon="6.56828">
        <ele>1811.3</ele>
        <time>2026-02-02T07:52:24Z</time>
      </trkpt>
      <trkpt lat="45.96094" lon="6.56828">
        <ele>1811.3</ele>
        <time>2026-02-02T07:52:25Z</time>
      </trkpt>
      <trkpt lat="45.96094" lon="6.56828">
        <ele>1811.3</ele>
        <time>2026-02-02T07:52:26Z</time>
      </trkpt>
      <trkpt lat="45.96094" lon="6.56827">
        <ele>1811.3</ele>
        <time>2026-02-02T07:52:27Z</time>
      </trkpt>
      <trkpt lat="45.96094" lon="6.56827">
        <ele>1811.3</ele>
        <time>2026-02-02T07:52:28Z</time>
      </trkpt>
      <trkpt lat="45.96094" lon="6.56826">
        <ele>1811.3</ele>
        <time>2026-02-02T07:52:29Z</time>
      </trkpt>
      <trkpt lat="45.96095" lon="6.56825">
        <ele>1811.3</ele>
        <time>2026-02-02T07:52:30Z</time>
      </trkpt>
      <trkpt lat="45.96095" lon="6.56825">
        <ele>1811.3</ele>
        <time>2026-02-02T07:52:31Z</time>
      </trkpt>
      <trkpt lat="45.96095" lon="6.56823">
        <ele>1812.1</ele>
        <time>2026-02-02T07:52:32Z</time>
      </trkpt>
      <trkpt lat="45.96095" lon="6.56821">
        <ele>1812.1</ele>
        <time>2026-02-02T07:52:33Z</time>
      </trkpt>
      <trkpt lat="45.96095" lon="6.5682">
        <ele>1812.1</ele>
        <time>2026-02-02T07:52:34Z</time>
      </trkpt>
      <trkpt lat="45.96095" lon="6.56819">
        <ele>1813</ele>
        <time>2026-02-02T07:52:35Z</time>
      </trkpt>
      <trkpt lat="45.96095" lon="6.56819">
        <ele>1813</ele>
        <time>2026-02-02T07:52:36Z</time>
      </trkpt>
      <trkpt lat="45.96094" lon="6.56818">
        <ele>1813</ele>
        <time>2026-02-02T07:52:37Z</time>
      </trkpt>
      <trkpt lat="45.96094" lon="6.56817">
        <ele>1813</ele>
        <time>2026-02-02T07:52:38Z</time>
      </trkpt>
      <trkpt lat="45.96094" lon="6.56816">
        <ele>1813</ele>
        <time>2026-02-02T07:52:39Z</time>
      </trkpt>
      <trkpt lat="45.96094" lon="6.56815">
        <ele>1813.8</ele>
        <time>2026-02-02T07:52:40Z</time>
      </trkpt>
      <trkpt lat="45.96094" lon="6.56814">
        <ele>1813.8</ele>
        <time>2026-02-02T07:52:41Z</time>
      </trkpt>
      <trkpt lat="45.96093" lon="6.56813">
        <ele>1814.5</ele>
        <time>2026-02-02T07:52:42Z</time>
      </trkpt>
      <trkpt lat="45.96093" lon="6.56811">
        <ele>1814.5</ele>
        <time>2026-02-02T07:52:43Z</time>
      </trkpt>
      <trkpt lat="45.96092" lon="6.5681">
        <ele>1815.3</ele>
        <time>2026-02-02T07:52:44Z</time>
      </trkpt>
      <trkpt lat="45.96092" lon="6.56808">
        <ele>1815.3</ele>
        <time>2026-02-02T07:52:45Z</time>
      </trkpt>
      <trkpt lat="45.96091" lon="6.56807">
        <ele>1815.3</ele>
        <time>2026-02-02T07:52:46Z</time>
      </trkpt>
      <trkpt lat="45.96091" lon="6.56806">
        <ele>1816.1</ele>
        <time>2026-02-02T07:52:47Z</time>
      </trkpt>
      <trkpt lat="45.96091" lon="6.56805">
        <ele>1816.1</ele>
        <time>2026-02-02T07:52:48Z</time>
      </trkpt>
      <trkpt lat="45.96091" lon="6.56805">
        <ele>1816.1</ele>
        <time>2026-02-02T07:52:49Z</time>
      </trkpt>
      <trkpt lat="45.96091" lon="6.56804">
        <ele>1816.1</ele>
        <time>2026-02-02T07:52:50Z</time>
      </trkpt>
      <trkpt lat="45.96091" lon="6.56803">
        <ele>1816.1</ele>
        <time>2026-02-02T07:52:51Z</time>
      </trkpt>
      <trkpt lat="45.9609" lon="6.56802">
        <ele>1817.6</ele>
        <time>2026-02-02T07:52:52Z</time>
      </trkpt>
      <trkpt lat="45.9609" lon="6.56801">
        <ele>1817.6</ele>
        <time>2026-02-02T07:52:53Z</time>
      </trkpt>
      <trkpt lat="45.96089" lon="6.56801">
        <ele>1817.6</ele>
        <time>2026-02-02T07:52:54Z</time>
      </trkpt>
      <trkpt lat="45.96089" lon="6.568">
        <ele>1817.6</ele>
        <time>2026-02-02T07:52:55Z</time>
      </trkpt>
      <trkpt lat="45.96088" lon="6.56799">
        <ele>1817.6</ele>
        <time>2026-02-02T07:52:56Z</time>
      </trkpt>
      <trkpt lat="45.96088" lon="6.56798">
        <ele>1817.6</ele>
        <time>2026-02-02T07:52:57Z</time>
      </trkpt>
      <trkpt lat="45.96088" lon="6.56797">
        <ele>1818.4</ele>
        <time>2026-02-02T07:52:58Z</time>
      </trkpt>
      <trkpt lat="45.96087" lon="6.56796">
        <ele>1819.1</ele>
        <time>2026-02-02T07:52:59Z</time>
      </trkpt>
      <trkpt lat="45.96087" lon="6.56795">
        <ele>1819.1</ele>
        <time>2026-02-02T07:53:00Z</time>
      </trkpt>
      <trkpt lat="45.96087" lon="6.56794">
        <ele>1819.1</ele>
        <time>2026-02-02T07:53:01Z</time>
      </trkpt>
      <trkpt lat="45.96086" lon="6.56794">
        <ele>1819.1</ele>
        <time>2026-02-02T07:53:02Z</time>
      </trkpt>
      <trkpt lat="45.96085" lon="6.56793">
        <ele>1819.9</ele>
        <time>2026-02-02T07:53:03Z</time>
      </trkpt>
      <trkpt lat="45.96085" lon="6.56792">
        <ele>1819.9</ele>
        <time>2026-02-02T07:53:04Z</time>
      </trkpt>
      <trkpt lat="45.96084" lon="6.56792">
        <ele>1820.8</ele>
        <time>2026-02-02T07:53:05Z</time>
      </trkpt>
      <trkpt lat="45.96084" lon="6.56791">
        <ele>1820.8</ele>
        <time>2026-02-02T07:53:06Z</time>
      </trkpt>
      <trkpt lat="45.96084" lon="6.56791">
        <ele>1820.8</ele>
        <time>2026-02-02T07:53:07Z</time>
      </trkpt>
      <trkpt lat="45.96083" lon="6.5679">
        <ele>1820.8</ele>
        <time>2026-02-02T07:53:08Z</time>
      </trkpt>
      <trkpt lat="45.96082" lon="6.56789">
        <ele>1820.8</ele>
        <time>2026-02-02T07:53:09Z</time>
      </trkpt>
      <trkpt lat="45.96081" lon="6.56788">
        <ele>1822.4</ele>
        <time>2026-02-02T07:53:10Z</time>
      </trkpt>
      <trkpt lat="45.9608" lon="6.56787">
        <ele>1822.4</ele>
        <time>2026-02-02T07:53:11Z</time>
      </trkpt>
      <trkpt lat="45.96079" lon="6.56787">
        <ele>1822.4</ele>
        <time>2026-02-02T07:53:12Z</time>
      </trkpt>
      <trkpt lat="45.96078" lon="6.56787">
        <ele>1823.3</ele>
        <time>2026-02-02T07:53:13Z</time>
      </trkpt>
      <trkpt lat="45.96078" lon="6.56787">
        <ele>1823.3</ele>
        <time>2026-02-02T07:53:14Z</time>
      </trkpt>
      <trkpt lat="45.96078" lon="6.56787">
        <ele>1823.3</ele>
        <time>2026-02-02T07:53:15Z</time>
      </trkpt>
      <trkpt lat="45.96078" lon="6.56787">
        <ele>1823.3</ele>
        <time>2026-02-02T07:53:16Z</time>
      </trkpt>
      <trkpt lat="45.96078" lon="6.56787">
        <ele>1823.3</ele>
        <time>2026-02-02T07:53:17Z</time>
      </trkpt>
      <trkpt lat="45.96078" lon="6.56787">
        <ele>1823.3</ele>
        <time>2026-02-02T07:53:18Z</time>
      </trkpt>
      <trkpt lat="45.96078" lon="6.56787">
        <ele>1823.3</ele>
        <time>2026-02-02T07:53:19Z</time>
      </trkpt>
      <trkpt lat="45.96078" lon="6.56786">
        <ele>1823.3</ele>
        <time>2026-02-02T07:53:20Z</time>
      </trkpt>
      <trkpt lat="45.96078" lon="6.56786">
        <ele>1823.3</ele>
        <time>2026-02-02T07:53:21Z</time>
      </trkpt>
      <trkpt lat="45.96078" lon="6.56786">
        <ele>1823.3</ele>
        <time>2026-02-02T07:53:22Z</time>
      </trkpt>
      <trkpt lat="45.96078" lon="6.56787">
        <ele>1823.3</ele>
        <time>2026-02-02T07:53:23Z</time>
      </trkpt>
      <trkpt lat="45.96078" lon="6.56787">
        <ele>1823.3</ele>
        <time>2026-02-02T07:53:24Z</time>
      </trkpt>
      <trkpt lat="45.96078" lon="6.56787">
        <ele>1823.3</ele>
        <time>2026-02-02T07:53:25Z</time>
      </trkpt>
      <trkpt lat="45.96078" lon="6.56787">
        <ele>1823.3</ele>
        <time>2026-02-02T07:53:26Z</time>
      </trkpt>
      <trkpt lat="45.96077" lon="6.56787">
        <ele>1823.3</ele>
        <time>2026-02-02T07:53:27Z</time>
      </trkpt>
      <trkpt lat="45.96077" lon="6.56787">
        <ele>1823.3</ele>
        <time>2026-02-02T07:53:28Z</time>
      </trkpt>
      <trkpt lat="45.96075" lon="6.56787">
        <ele>1824.1</ele>
        <time>2026-02-02T07:53:29Z</time>
      </trkpt>
      <trkpt lat="45.96074" lon="6.56787">
        <ele>1824.1</ele>
        <time>2026-02-02T07:53:30Z</time>
      </trkpt>
      <trkpt lat="45.96073" lon="6.56787">
        <ele>1824.1</ele>
        <time>2026-02-02T07:53:31Z</time>
      </trkpt>
      <trkpt lat="45.96072" lon="6.56786">
        <ele>1824.8</ele>
        <time>2026-02-02T07:53:32Z</time>
      </trkpt>
      <trkpt lat="45.96072" lon="6.56786">
        <ele>1824.8</ele>
        <time>2026-02-02T07:53:33Z</time>
      </trkpt>
      <trkpt lat="45.96072" lon="6.56786">
        <ele>1824.8</ele>
        <time>2026-02-02T07:53:34Z</time>
      </trkpt>
      <trkpt lat="45.96071" lon="6.56786">
        <ele>1824.8</ele>
        <time>2026-02-02T07:53:35Z</time>
      </trkpt>
      <trkpt lat="45.9607" lon="6.56786">
        <ele>1824.8</ele>
        <time>2026-02-02T07:53:36Z</time>
      </trkpt>
      <trkpt lat="45.96069" lon="6.56786">
        <ele>1825.5</ele>
        <time>2026-02-02T07:53:37Z</time>
      </trkpt>
      <trkpt lat="45.96068" lon="6.56786">
        <ele>1825.5</ele>
        <time>2026-02-02T07:53:38Z</time>
      </trkpt>
      <trkpt lat="45.96067" lon="6.56786">
        <ele>1825.5</ele>
        <time>2026-02-02T07:53:39Z</time>
      </trkpt>
      <trkpt lat="45.96066" lon="6.56786">
        <ele>1826.1</ele>
        <time>2026-02-02T07:53:40Z</time>
      </trkpt>
      <trkpt lat="45.96065" lon="6.56786">
        <ele>1826.1</ele>
        <time>2026-02-02T07:53:41Z</time>
      </trkpt>
      <trkpt lat="45.96064" lon="6.56786">
        <ele>1826.1</ele>
        <time>2026-02-02T07:53:42Z</time>
      </trkpt>
      <trkpt lat="45.96064" lon="6.56786">
        <ele>1826.9</ele>
        <time>2026-02-02T07:53:43Z</time>
      </trkpt>
      <trkpt lat="45.96063" lon="6.56787">
        <ele>1826.9</ele>
        <time>2026-02-02T07:53:44Z</time>
      </trkpt>
      <trkpt lat="45.96062" lon="6.56787">
        <ele>1826.9</ele>
        <time>2026-02-02T07:53:45Z</time>
      </trkpt>
      <trkpt lat="45.96061" lon="6.56787">
        <ele>1826.9</ele>
        <time>2026-02-02T07:53:46Z</time>
      </trkpt>
      <trkpt lat="45.96061" lon="6.56787">
        <ele>1827.7</ele>
        <time>2026-02-02T07:53:47Z</time>
      </trkpt>
      <trkpt lat="45.9606" lon="6.56787">
        <ele>1827.7</ele>
        <time>2026-02-02T07:53:48Z</time>
      </trkpt>
      <trkpt lat="45.96059" lon="6.56788">
        <ele>1827.7</ele>
        <time>2026-02-02T07:53:49Z</time>
      </trkpt>
      <trkpt lat="45.96058" lon="6.56788">
        <ele>1827.8</ele>
        <time>2026-02-02T07:53:50Z</time>
      </trkpt>
      <trkpt lat="45.96057" lon="6.56788">
        <ele>1828.6</ele>
        <time>2026-02-02T07:53:51Z</time>
      </trkpt>
      <trkpt lat="45.96057" lon="6.56787">
        <ele>1828.6</ele>
        <time>2026-02-02T07:53:52Z</time>
      </trkpt>
      <trkpt lat="45.96056" lon="6.56786">
        <ele>1828.6</ele>
        <time>2026-02-02T07:53:53Z</time>
      </trkpt>
      <trkpt lat="45.96056" lon="6.56785">
        <ele>1829.5</ele>
        <time>2026-02-02T07:53:54Z</time>
      </trkpt>
      <trkpt lat="45.96056" lon="6.56784">
        <ele>1829.5</ele>
        <time>2026-02-02T07:53:55Z</time>
      </trkpt>
      <trkpt lat="45.96056" lon="6.56783">
        <ele>1829.5</ele>
        <time>2026-02-02T07:53:56Z</time>
      </trkpt>
      <trkpt lat="45.96056" lon="6.56783">
        <ele>1829.5</ele>
        <time>2026-02-02T07:53:57Z</time>
      </trkpt>
      <trkpt lat="45.96056" lon="6.56782">
        <ele>1829.5</ele>
        <time>2026-02-02T07:53:58Z</time>
      </trkpt>
      <trkpt lat="45.96056" lon="6.56781">
        <ele>1829.5</ele>
        <time>2026-02-02T07:53:59Z</time>
      </trkpt>
      <trkpt lat="45.96056" lon="6.56781">
        <ele>1830.4</ele>
        <time>2026-02-02T07:54:00Z</time>
      </trkpt>
      <trkpt lat="45.96056" lon="6.5678">
        <ele>1830.4</ele>
        <time>2026-02-02T07:54:01Z</time>
      </trkpt>
      <trkpt lat="45.96056" lon="6.5678">
        <ele>1830.4</ele>
        <time>2026-02-02T07:54:02Z</time>
      </trkpt>
      <trkpt lat="45.96056" lon="6.5678">
        <ele>1830.4</ele>
        <time>2026-02-02T07:54:03Z</time>
      </trkpt>
      <trkpt lat="45.96056" lon="6.56781">
        <ele>1830.4</ele>
        <time>2026-02-02T07:54:04Z</time>
      </trkpt>
      <trkpt lat="45.96056" lon="6.56781">
        <ele>1830.4</ele>
        <time>2026-02-02T07:54:05Z</time>
      </trkpt>
      <trkpt lat="45.96056" lon="6.5678">
        <ele>1830.4</ele>
        <time>2026-02-02T07:54:06Z</time>
      </trkpt>
      <trkpt lat="45.96056" lon="6.5678">
        <ele>1830.4</ele>
        <time>2026-02-02T07:54:07Z</time>
      </trkpt>
      <trkpt lat="45.96056" lon="6.5678">
        <ele>1830.5</ele>
        <time>2026-02-02T07:54:08Z</time>
      </trkpt>
      <trkpt lat="45.96056" lon="6.5678">
        <ele>1830.5</ele>
        <time>2026-02-02T07:54:09Z</time>
      </trkpt>
      <trkpt lat="45.96056" lon="6.5678">
        <ele>1830.5</ele>
        <time>2026-02-02T07:54:10Z</time>
      </trkpt>
      <trkpt lat="45.96056" lon="6.5678">
        <ele>1830.5</ele>
        <time>2026-02-02T07:54:11Z</time>
      </trkpt>
      <trkpt lat="45.96056" lon="6.5678">
        <ele>1830.5</ele>
        <time>2026-02-02T07:54:12Z</time>
      </trkpt>
      <trkpt lat="45.96056" lon="6.5678">
        <ele>1830.5</ele>
        <time>2026-02-02T07:54:13Z</time>
      </trkpt>
      <trkpt lat="45.96056" lon="6.5678">
        <ele>1830.5</ele>
        <time>2026-02-02T07:54:14Z</time>
      </trkpt>
      <trkpt lat="45.96056" lon="6.5678">
        <ele>1830.5</ele>
        <time>2026-02-02T07:54:15Z</time>
      </trkpt>
      <trkpt lat="45.96056" lon="6.5678">
        <ele>1830.5</ele>
        <time>2026-02-02T07:54:16Z</time>
      </trkpt>
      <trkpt lat="45.96056" lon="6.5678">
        <ele>1830.5</ele>
        <time>2026-02-02T07:54:17Z</time>
      </trkpt>
      <trkpt lat="45.96056" lon="6.5678">
        <ele>1830.5</ele>
        <time>2026-02-02T07:54:18Z</time>
      </trkpt>
      <trkpt lat="45.96056" lon="6.5678">
        <ele>1830.5</ele>
        <time>2026-02-02T07:54:19Z</time>
      </trkpt>
      <trkpt lat="45.96056" lon="6.5678">
        <ele>1830.5</ele>
        <time>2026-02-02T07:54:20Z</time>
      </trkpt>
      <trkpt lat="45.96056" lon="6.56779">
        <ele>1830.5</ele>
        <time>2026-02-02T07:54:21Z</time>
      </trkpt>
      <trkpt lat="45.96057" lon="6.56779">
        <ele>1830.5</ele>
        <time>2026-02-02T07:54:22Z</time>
      </trkpt>
      <trkpt lat="45.96056" lon="6.56778">
        <ele>1830.5</ele>
        <time>2026-02-02T07:54:23Z</time>
      </trkpt>
      <trkpt lat="45.96057" lon="6.56778">
        <ele>1830.5</ele>
        <time>2026-02-02T07:54:24Z</time>
      </trkpt>
      <trkpt lat="45.96057" lon="6.56776">
        <ele>1831.4</ele>
        <time>2026-02-02T07:54:25Z</time>
      </trkpt>
      <trkpt lat="45.96057" lon="6.56775">
        <ele>1831.5</ele>
        <time>2026-02-02T07:54:26Z</time>
      </trkpt>
      <trkpt lat="45.96057" lon="6.56774">
        <ele>1831.5</ele>
        <time>2026-02-02T07:54:27Z</time>
      </trkpt>
      <trkpt lat="45.96056" lon="6.56773">
        <ele>1831.5</ele>
        <time>2026-02-02T07:54:28Z</time>
      </trkpt>
      <trkpt lat="45.96056" lon="6.56771">
        <ele>1832.4</ele>
        <time>2026-02-02T07:54:29Z</time>
      </trkpt>
      <trkpt lat="45.96056" lon="6.5677">
        <ele>1832.4</ele>
        <time>2026-02-02T07:54:30Z</time>
      </trkpt>
      <trkpt lat="45.96056" lon="6.56768">
        <ele>1833.2</ele>
        <time>2026-02-02T07:54:31Z</time>
      </trkpt>
      <trkpt lat="45.96056" lon="6.56767">
        <ele>1833.2</ele>
        <time>2026-02-02T07:54:32Z</time>
      </trkpt>
      <trkpt lat="45.96056" lon="6.56765">
        <ele>1833.2</ele>
        <time>2026-02-02T07:54:33Z</time>
      </trkpt>
      <trkpt lat="45.96057" lon="6.56763">
        <ele>1834</ele>
        <time>2026-02-02T07:54:34Z</time>
      </trkpt>
      <trkpt lat="45.96057" lon="6.56763">
        <ele>1834</ele>
        <time>2026-02-02T07:54:35Z</time>
      </trkpt>
      <trkpt lat="45.96058" lon="6.56761">
        <ele>1834</ele>
        <time>2026-02-02T07:54:36Z</time>
      </trkpt>
      <trkpt lat="45.96058" lon="6.5676">
        <ele>1834</ele>
        <time>2026-02-02T07:54:37Z</time>
      </trkpt>
      <trkpt lat="45.96058" lon="6.5676">
        <ele>1833.2</ele>
        <time>2026-02-02T07:54:38Z</time>
      </trkpt>
      <trkpt lat="45.96058" lon="6.56758">
        <ele>1834</ele>
        <time>2026-02-02T07:54:39Z</time>
      </trkpt>
      <trkpt lat="45.96058" lon="6.56757">
        <ele>1834</ele>
        <time>2026-02-02T07:54:40Z</time>
      </trkpt>
      <trkpt lat="45.96058" lon="6.56756">
        <ele>1834</ele>
        <time>2026-02-02T07:54:41Z</time>
      </trkpt>
      <trkpt lat="45.96058" lon="6.56755">
        <ele>1834</ele>
        <time>2026-02-02T07:54:42Z</time>
      </trkpt>
      <trkpt lat="45.96058" lon="6.56754">
        <ele>1834.8</ele>
        <time>2026-02-02T07:54:43Z</time>
      </trkpt>
      <trkpt lat="45.96058" lon="6.56754">
        <ele>1834.8</ele>
        <time>2026-02-02T07:54:44Z</time>
      </trkpt>
      <trkpt lat="45.96058" lon="6.56752">
        <ele>1834.8</ele>
        <time>2026-02-02T07:54:45Z</time>
      </trkpt>
      <trkpt lat="45.96058" lon="6.5675">
        <ele>1835.5</ele>
        <time>2026-02-02T07:54:46Z</time>
      </trkpt>
      <trkpt lat="45.96058" lon="6.5675">
        <ele>1835.5</ele>
        <time>2026-02-02T07:54:47Z</time>
      </trkpt>
      <trkpt lat="45.96058" lon="6.56749">
        <ele>1835.5</ele>
        <time>2026-02-02T07:54:48Z</time>
      </trkpt>
      <trkpt lat="45.96058" lon="6.56747">
        <ele>1835.5</ele>
        <time>2026-02-02T07:54:49Z</time>
      </trkpt>
      <trkpt lat="45.96058" lon="6.56746">
        <ele>1836.4</ele>
        <time>2026-02-02T07:54:50Z</time>
      </trkpt>
      <trkpt lat="45.96058" lon="6.56744">
        <ele>1837.1</ele>
        <time>2026-02-02T07:54:51Z</time>
      </trkpt>
      <trkpt lat="45.96058" lon="6.56743">
        <ele>1837.1</ele>
        <time>2026-02-02T07:54:52Z</time>
      </trkpt>
      <trkpt lat="45.96058" lon="6.56742">
        <ele>1837.9</ele>
        <time>2026-02-02T07:54:53Z</time>
      </trkpt>
      <trkpt lat="45.96058" lon="6.56741">
        <ele>1837.9</ele>
        <time>2026-02-02T07:54:54Z</time>
      </trkpt>
      <trkpt lat="45.96058" lon="6.56739">
        <ele>1837.1</ele>
        <time>2026-02-02T07:54:55Z</time>
      </trkpt>
      <trkpt lat="45.96058" lon="6.56737">
        <ele>1837.9</ele>
        <time>2026-02-02T07:54:56Z</time>
      </trkpt>
      <trkpt lat="45.96058" lon="6.56735">
        <ele>1838.7</ele>
        <time>2026-02-02T07:54:57Z</time>
      </trkpt>
      <trkpt lat="45.96058" lon="6.56734">
        <ele>1837.9</ele>
        <time>2026-02-02T07:54:58Z</time>
      </trkpt>
      <trkpt lat="45.96058" lon="6.56733">
        <ele>1838.8</ele>
        <time>2026-02-02T07:54:59Z</time>
      </trkpt>
      <trkpt lat="45.96058" lon="6.5673">
        <ele>1838.8</ele>
        <time>2026-02-02T07:55:00Z</time>
      </trkpt>
      <trkpt lat="45.96059" lon="6.56729">
        <ele>1839.7</ele>
        <time>2026-02-02T07:55:01Z</time>
      </trkpt>
      <trkpt lat="45.96059" lon="6.56728">
        <ele>1839.7</ele>
        <time>2026-02-02T07:55:02Z</time>
      </trkpt>
      <trkpt lat="45.96059" lon="6.56726">
        <ele>1839.7</ele>
        <time>2026-02-02T07:55:03Z</time>
      </trkpt>
      <trkpt lat="45.96059" lon="6.56726">
        <ele>1839.7</ele>
        <time>2026-02-02T07:55:04Z</time>
      </trkpt>
      <trkpt lat="45.96059" lon="6.56726">
        <ele>1839.7</ele>
        <time>2026-02-02T07:55:05Z</time>
      </trkpt>
      <trkpt lat="45.96059" lon="6.56726">
        <ele>1839.7</ele>
        <time>2026-02-02T07:55:06Z</time>
      </trkpt>
      <trkpt lat="45.96059" lon="6.56726">
        <ele>1839.7</ele>
        <time>2026-02-02T07:55:07Z</time>
      </trkpt>
      <trkpt lat="45.96059" lon="6.56726">
        <ele>1839.7</ele>
        <time>2026-02-02T07:55:08Z</time>
      </trkpt>
      <trkpt lat="45.96059" lon="6.56726">
        <ele>1839.7</ele>
        <time>2026-02-02T07:55:09Z</time>
      </trkpt>
      <trkpt lat="45.96059" lon="6.56726">
        <ele>1839.8</ele>
        <time>2026-02-02T07:55:10Z</time>
      </trkpt>
      <trkpt lat="45.96059" lon="6.56726">
        <ele>1839.8</ele>
        <time>2026-02-02T07:55:11Z</time>
      </trkpt>
      <trkpt lat="45.96059" lon="6.56726">
        <ele>1839.8</ele>
        <time>2026-02-02T07:55:12Z</time>
      </trkpt>
      <trkpt lat="45.96059" lon="6.56726">
        <ele>1839.8</ele>
        <time>2026-02-02T07:55:13Z</time>
      </trkpt>
      <trkpt lat="45.96059" lon="6.56726">
        <ele>1839.8</ele>
        <time>2026-02-02T07:55:14Z</time>
      </trkpt>
      <trkpt lat="45.96059" lon="6.56726">
        <ele>1839.8</ele>
        <time>2026-02-02T07:55:15Z</time>
      </trkpt>
      <trkpt lat="45.96059" lon="6.56726">
        <ele>1839.8</ele>
        <time>2026-02-02T07:55:16Z</time>
      </trkpt>
      <trkpt lat="45.96059" lon="6.56726">
        <ele>1839.8</ele>
        <time>2026-02-02T07:55:17Z</time>
      </trkpt>
      <trkpt lat="45.96059" lon="6.56726">
        <ele>1839.8</ele>
        <time>2026-02-02T07:55:18Z</time>
      </trkpt>
      <trkpt lat="45.96059" lon="6.56726">
        <ele>1839.8</ele>
        <time>2026-02-02T07:55:19Z</time>
      </trkpt>
      <trkpt lat="45.96059" lon="6.56726">
        <ele>1839.8</ele>
        <time>2026-02-02T07:55:20Z</time>
      </trkpt>
      <trkpt lat="45.96059" lon="6.56726">
        <ele>1839.8</ele>
        <time>2026-02-02T07:55:21Z</time>
      </trkpt>
      <trkpt lat="45.96059" lon="6.56726">
        <ele>1839.8</ele>
        <time>2026-02-02T07:55:22Z</time>
      </trkpt>
      <trkpt lat="45.96059" lon="6.56726">
        <ele>1839.8</ele>
        <time>2026-02-02T07:55:23Z</time>
      </trkpt>
      <trkpt lat="45.96059" lon="6.56726">
        <ele>1839.8</ele>
        <time>2026-02-02T07:55:24Z</time>
      </trkpt>
      <trkpt lat="45.96059" lon="6.56726">
        <ele>1839.8</ele>
        <time>2026-02-02T07:55:25Z</time>
      </trkpt>
      <trkpt lat="45.96059" lon="6.56726">
        <ele>1839.8</ele>
        <time>2026-02-02T07:55:26Z</time>
      </trkpt>
      <trkpt lat="45.96059" lon="6.56726">
        <ele>1839.8</ele>
        <time>2026-02-02T07:55:27Z</time>
      </trkpt>
      <trkpt lat="45.96059" lon="6.56726">
        <ele>1839.9</ele>
        <time>2026-02-02T07:55:28Z</time>
      </trkpt>
      <trkpt lat="45.96059" lon="6.56726">
        <ele>1839.9</ele>
        <time>2026-02-02T07:55:29Z</time>
      </trkpt>
      <trkpt lat="45.96059" lon="6.56726">
        <ele>1839.9</ele>
        <time>2026-02-02T07:55:30Z</time>
      </trkpt>
      <trkpt lat="45.96059" lon="6.56726">
        <ele>1839.9</ele>
        <time>2026-02-02T07:55:31Z</time>
      </trkpt>
      <trkpt lat="45.96059" lon="6.56726">
        <ele>1839.9</ele>
        <time>2026-02-02T07:55:32Z</time>
      </trkpt>
      <trkpt lat="45.96059" lon="6.56726">
        <ele>1839.9</ele>
        <time>2026-02-02T07:55:33Z</time>
      </trkpt>
      <trkpt lat="45.96059" lon="6.56726">
        <ele>1839.9</ele>
        <time>2026-02-02T07:55:34Z</time>
      </trkpt>
      <trkpt lat="45.96059" lon="6.56726">
        <ele>1839.9</ele>
        <time>2026-02-02T07:55:35Z</time>
      </trkpt>
      <trkpt lat="45.96059" lon="6.56726">
        <ele>1839.9</ele>
        <time>2026-02-02T07:55:36Z</time>
      </trkpt>
      <trkpt lat="45.96059" lon="6.56726">
        <ele>1839.9</ele>
        <time>2026-02-02T07:55:37Z</time>
      </trkpt>
      <trkpt lat="45.96059" lon="6.56726">
        <ele>1839.9</ele>
        <time>2026-02-02T07:55:38Z</time>
      </trkpt>
      <trkpt lat="45.96059" lon="6.56726">
        <ele>1839.9</ele>
        <time>2026-02-02T07:55:39Z</time>
      </trkpt>
      <trkpt lat="45.96059" lon="6.56726">
        <ele>1839.9</ele>
        <time>2026-02-02T07:55:40Z</time>
      </trkpt>
      <trkpt lat="45.96059" lon="6.56726">
        <ele>1839.9</ele>
        <time>2026-02-02T07:55:41Z</time>
      </trkpt>
      <trkpt lat="45.96059" lon="6.56726">
        <ele>1839.9</ele>
        <time>2026-02-02T07:55:42Z</time>
      </trkpt>
      <trkpt lat="45.96059" lon="6.56726">
        <ele>1839.9</ele>
        <time>2026-02-02T07:55:43Z</time>
      </trkpt>
      <trkpt lat="45.96059" lon="6.56726">
        <ele>1839.9</ele>
        <time>2026-02-02T07:55:44Z</time>
      </trkpt>
      <trkpt lat="45.96059" lon="6.56726">
        <ele>1839.9</ele>
        <time>2026-02-02T07:55:45Z</time>
      </trkpt>
      <trkpt lat="45.96059" lon="6.56726">
        <ele>1840</ele>
        <time>2026-02-02T07:55:46Z</time>
      </trkpt>
      <trkpt lat="45.96059" lon="6.56726">
        <ele>1840</ele>
        <time>2026-02-02T07:55:47Z</time>
      </trkpt>
      <trkpt lat="45.96059" lon="6.56726">
        <ele>1840</ele>
        <time>2026-02-02T07:55:48Z</time>
      </trkpt>
      <trkpt lat="45.96059" lon="6.56726">
        <ele>1840</ele>
        <time>2026-02-02T07:55:49Z</time>
      </trkpt>
      <trkpt lat="45.96059" lon="6.56726">
        <ele>1840</ele>
        <time>2026-02-02T07:55:50Z</time>
      </trkpt>
      <trkpt lat="45.96059" lon="6.56726">
        <ele>1840</ele>
        <time>2026-02-02T07:55:51Z</time>
      </trkpt>
      <trkpt lat="45.96059" lon="6.56726">
        <ele>1840</ele>
        <time>2026-02-02T07:55:52Z</time>
      </trkpt>
      <trkpt lat="45.96059" lon="6.56726">
        <ele>1840</ele>
        <time>2026-02-02T07:55:53Z</time>
      </trkpt>
      <trkpt lat="45.96059" lon="6.56726">
        <ele>1840</ele>
        <time>2026-02-02T07:55:54Z</time>
      </trkpt>
      <trkpt lat="45.96059" lon="6.56726">
        <ele>1840</ele>
        <time>2026-02-02T07:55:55Z</time>
      </trkpt>
      <trkpt lat="45.96059" lon="6.56726">
        <ele>1840</ele>
        <time>2026-02-02T07:55:56Z</time>
      </trkpt>
      <trkpt lat="45.96059" lon="6.56726">
        <ele>1840</ele>
        <time>2026-02-02T07:55:57Z</time>
      </trkpt>
      <trkpt lat="45.96059" lon="6.56726">
        <ele>1840</ele>
        <time>2026-02-02T07:55:58Z</time>
      </trkpt>
      <trkpt lat="45.96059" lon="6.56726">
        <ele>1840</ele>
        <time>2026-02-02T07:55:59Z</time>
      </trkpt>
      <trkpt lat="45.96059" lon="6.56726">
        <ele>1840</ele>
        <time>2026-02-02T07:56:00Z</time>
      </trkpt>
      <trkpt lat="45.96059" lon="6.56726">
        <ele>1840</ele>
        <time>2026-02-02T07:56:01Z</time>
      </trkpt>
      <trkpt lat="45.96059" lon="6.56726">
        <ele>1840</ele>
        <time>2026-02-02T07:56:02Z</time>
      </trkpt>
      <trkpt lat="45.96059" lon="6.56726">
        <ele>1840</ele>
        <time>2026-02-02T07:56:03Z</time>
      </trkpt>
      <trkpt lat="45.96059" lon="6.56726">
        <ele>1840.1</ele>
        <time>2026-02-02T07:56:04Z</time>
      </trkpt>
      <trkpt lat="45.96059" lon="6.56726">
        <ele>1840.1</ele>
        <time>2026-02-02T07:56:05Z</time>
      </trkpt>
      <trkpt lat="45.96059" lon="6.56726">
        <ele>1840.1</ele>
        <time>2026-02-02T07:56:06Z</time>
      </trkpt>
      <trkpt lat="45.96059" lon="6.56726">
        <ele>1840.1</ele>
        <time>2026-02-02T07:56:07Z</time>
      </trkpt>
      <trkpt lat="45.96059" lon="6.56726">
        <ele>1840.1</ele>
        <time>2026-02-02T07:56:08Z</time>
      </trkpt>
      <trkpt lat="45.96059" lon="6.56726">
        <ele>1840.1</ele>
        <time>2026-02-02T07:56:09Z</time>
      </trkpt>
      <trkpt lat="45.96059" lon="6.56726">
        <ele>1840.1</ele>
        <time>2026-02-02T07:56:10Z</time>
      </trkpt>
      <trkpt lat="45.96059" lon="6.56726">
        <ele>1840.1</ele>
        <time>2026-02-02T07:56:11Z</time>
      </trkpt>
      <trkpt lat="45.96059" lon="6.56726">
        <ele>1840.1</ele>
        <time>2026-02-02T07:56:12Z</time>
      </trkpt>
      <trkpt lat="45.96059" lon="6.56726">
        <ele>1840.1</ele>
        <time>2026-02-02T07:56:13Z</time>
      </trkpt>
      <trkpt lat="45.96059" lon="6.56726">
        <ele>1840.1</ele>
        <time>2026-02-02T07:56:14Z</time>
      </trkpt>
      <trkpt lat="45.96059" lon="6.56726">
        <ele>1840.1</ele>
        <time>2026-02-02T07:56:15Z</time>
      </trkpt>
      <trkpt lat="45.96059" lon="6.56726">
        <ele>1840.1</ele>
        <time>2026-02-02T07:56:16Z</time>
      </trkpt>
      <trkpt lat="45.96059" lon="6.56726">
        <ele>1840.1</ele>
        <time>2026-02-02T07:56:17Z</time>
      </trkpt>
      <trkpt lat="45.96059" lon="6.56725">
        <ele>1840.1</ele>
        <time>2026-02-02T07:56:18Z</time>
      </trkpt>
      <trkpt lat="45.96059" lon="6.56725">
        <ele>1840.1</ele>
        <time>2026-02-02T07:56:19Z</time>
      </trkpt>
      <trkpt lat="45.96059" lon="6.56725">
        <ele>1840.1</ele>
        <time>2026-02-02T07:56:20Z</time>
      </trkpt>
      <trkpt lat="45.96059" lon="6.56725">
        <ele>1840.1</ele>
        <time>2026-02-02T07:56:21Z</time>
      </trkpt>
      <trkpt lat="45.96059" lon="6.56725">
        <ele>1840.2</ele>
        <time>2026-02-02T07:56:22Z</time>
      </trkpt>
      <trkpt lat="45.96059" lon="6.56725">
        <ele>1840.2</ele>
        <time>2026-02-02T07:56:23Z</time>
      </trkpt>
      <trkpt lat="45.96059" lon="6.56725">
        <ele>1840.2</ele>
        <time>2026-02-02T07:56:24Z</time>
      </trkpt>
      <trkpt lat="45.96059" lon="6.56725">
        <ele>1840.2</ele>
        <time>2026-02-02T07:56:25Z</time>
      </trkpt>
      <trkpt lat="45.96059" lon="6.56725">
        <ele>1840.2</ele>
        <time>2026-02-02T07:56:26Z</time>
      </trkpt>
      <trkpt lat="45.96059" lon="6.56724">
        <ele>1841.1</ele>
        <time>2026-02-02T07:56:27Z</time>
      </trkpt>
      <trkpt lat="45.96059" lon="6.56724">
        <ele>1841.1</ele>
        <time>2026-02-02T07:56:28Z</time>
      </trkpt>
      <trkpt lat="45.96059" lon="6.56724">
        <ele>1841.1</ele>
        <time>2026-02-02T07:56:29Z</time>
      </trkpt>
      <trkpt lat="45.96059" lon="6.56724">
        <ele>1841.1</ele>
        <time>2026-02-02T07:56:30Z</time>
      </trkpt>
      <trkpt lat="45.96059" lon="6.56724">
        <ele>1841.1</ele>
        <time>2026-02-02T07:56:31Z</time>
      </trkpt>
      <trkpt lat="45.96059" lon="6.56723">
        <ele>1841.1</ele>
        <time>2026-02-02T07:56:32Z</time>
      </trkpt>
      <trkpt lat="45.96059" lon="6.56723">
        <ele>1841.1</ele>
        <time>2026-02-02T07:56:33Z</time>
      </trkpt>
      <trkpt lat="45.9606" lon="6.56721">
        <ele>1841.1</ele>
        <time>2026-02-02T07:56:34Z</time>
      </trkpt>
      <trkpt lat="45.9606" lon="6.5672">
        <ele>1842.1</ele>
        <time>2026-02-02T07:56:35Z</time>
      </trkpt>
      <trkpt lat="45.9606" lon="6.56719">
        <ele>1842.1</ele>
        <time>2026-02-02T07:56:36Z</time>
      </trkpt>
      <trkpt lat="45.9606" lon="6.56718">
        <ele>1842.1</ele>
        <time>2026-02-02T07:56:37Z</time>
      </trkpt>
      <trkpt lat="45.9606" lon="6.56716">
        <ele>1842.1</ele>
        <time>2026-02-02T07:56:38Z</time>
      </trkpt>
      <trkpt lat="45.96059" lon="6.56716">
        <ele>1842.9</ele>
        <time>2026-02-02T07:56:39Z</time>
      </trkpt>
      <trkpt lat="45.96059" lon="6.56714">
        <ele>1842.9</ele>
        <time>2026-02-02T07:56:40Z</time>
      </trkpt>
      <trkpt lat="45.96058" lon="6.56713">
        <ele>1842.9</ele>
        <time>2026-02-02T07:56:41Z</time>
      </trkpt>
      <trkpt lat="45.96057" lon="6.56713">
        <ele>1843.8</ele>
        <time>2026-02-02T07:56:42Z</time>
      </trkpt>
      <trkpt lat="45.96058" lon="6.56712">
        <ele>1843.8</ele>
        <time>2026-02-02T07:56:43Z</time>
      </trkpt>
      <trkpt lat="45.96057" lon="6.56711">
        <ele>1844.6</ele>
        <time>2026-02-02T07:56:44Z</time>
      </trkpt>
      <trkpt lat="45.96057" lon="6.5671">
        <ele>1844.6</ele>
        <time>2026-02-02T07:56:45Z</time>
      </trkpt>
      <trkpt lat="45.96058" lon="6.56708">
        <ele>1844.6</ele>
        <time>2026-02-02T07:56:46Z</time>
      </trkpt>
      <trkpt lat="45.96057" lon="6.56707">
        <ele>1845.4</ele>
        <time>2026-02-02T07:56:47Z</time>
      </trkpt>
      <trkpt lat="45.96058" lon="6.56706">
        <ele>1844.6</ele>
        <time>2026-02-02T07:56:48Z</time>
      </trkpt>
      <trkpt lat="45.96057" lon="6.56705">
        <ele>1845.4</ele>
        <time>2026-02-02T07:56:49Z</time>
      </trkpt>
      <trkpt lat="45.96057" lon="6.56703">
        <ele>1846.2</ele>
        <time>2026-02-02T07:56:50Z</time>
      </trkpt>
      <trkpt lat="45.96057" lon="6.56702">
        <ele>1846.2</ele>
        <time>2026-02-02T07:56:51Z</time>
      </trkpt>
      <trkpt lat="45.96057" lon="6.567">
        <ele>1846.2</ele>
        <time>2026-02-02T07:56:52Z</time>
      </trkpt>
      <trkpt lat="45.96057" lon="6.567">
        <ele>1846.2</ele>
        <time>2026-02-02T07:56:53Z</time>
      </trkpt>
      <trkpt lat="45.96058" lon="6.56698">
        <ele>1847.1</ele>
        <time>2026-02-02T07:56:54Z</time>
      </trkpt>
      <trkpt lat="45.96058" lon="6.56696">
        <ele>1846.3</ele>
        <time>2026-02-02T07:56:55Z</time>
      </trkpt>
      <trkpt lat="45.96058" lon="6.56695">
        <ele>1846.3</ele>
        <time>2026-02-02T07:56:56Z</time>
      </trkpt>
      <trkpt lat="45.96058" lon="6.56694">
        <ele>1848</ele>
        <time>2026-02-02T07:56:57Z</time>
      </trkpt>
      <trkpt lat="45.96058" lon="6.56693">
        <ele>1848</ele>
        <time>2026-02-02T07:56:58Z</time>
      </trkpt>
      <trkpt lat="45.96057" lon="6.56692">
        <ele>1848</ele>
        <time>2026-02-02T07:56:59Z</time>
      </trkpt>
      <trkpt lat="45.96056" lon="6.56692">
        <ele>1848</ele>
        <time>2026-02-02T07:57:00Z</time>
      </trkpt>
      <trkpt lat="45.96054" lon="6.56692">
        <ele>1848.9</ele>
        <time>2026-02-02T07:57:01Z</time>
      </trkpt>
      <trkpt lat="45.96054" lon="6.56691">
        <ele>1848.9</ele>
        <time>2026-02-02T07:57:02Z</time>
      </trkpt>
      <trkpt lat="45.96053" lon="6.56692">
        <ele>1848.9</ele>
        <time>2026-02-02T07:57:03Z</time>
      </trkpt>
      <trkpt lat="45.96052" lon="6.56692">
        <ele>1848.9</ele>
        <time>2026-02-02T07:57:04Z</time>
      </trkpt>
      <trkpt lat="45.96051" lon="6.56692">
        <ele>1849.7</ele>
        <time>2026-02-02T07:57:05Z</time>
      </trkpt>
      <trkpt lat="45.9605" lon="6.56691">
        <ele>1849.7</ele>
        <time>2026-02-02T07:57:06Z</time>
      </trkpt>
      <trkpt lat="45.96049" lon="6.56691">
        <ele>1849.7</ele>
        <time>2026-02-02T07:57:07Z</time>
      </trkpt>
      <trkpt lat="45.96048" lon="6.56691">
        <ele>1850.5</ele>
        <time>2026-02-02T07:57:08Z</time>
      </trkpt>
      <trkpt lat="45.96048" lon="6.56691">
        <ele>1850.5</ele>
        <time>2026-02-02T07:57:09Z</time>
      </trkpt>
      <trkpt lat="45.96047" lon="6.56692">
        <ele>1850.5</ele>
        <time>2026-02-02T07:57:10Z</time>
      </trkpt>
      <trkpt lat="45.96046" lon="6.56691">
        <ele>1850.5</ele>
        <time>2026-02-02T07:57:11Z</time>
      </trkpt>
      <trkpt lat="45.96045" lon="6.56691">
        <ele>1851.2</ele>
        <time>2026-02-02T07:57:12Z</time>
      </trkpt>
      <trkpt lat="45.96045" lon="6.56691">
        <ele>1851.2</ele>
        <time>2026-02-02T07:57:13Z</time>
      </trkpt>
      <trkpt lat="45.96044" lon="6.56691">
        <ele>1851.2</ele>
        <time>2026-02-02T07:57:14Z</time>
      </trkpt>
      <trkpt lat="45.96044" lon="6.56691">
        <ele>1851.2</ele>
        <time>2026-02-02T07:57:15Z</time>
      </trkpt>
      <trkpt lat="45.96043" lon="6.56692">
        <ele>1851.2</ele>
        <time>2026-02-02T07:57:16Z</time>
      </trkpt>
      <trkpt lat="45.96042" lon="6.56692">
        <ele>1852</ele>
        <time>2026-02-02T07:57:17Z</time>
      </trkpt>
      <trkpt lat="45.96041" lon="6.56692">
        <ele>1852</ele>
        <time>2026-02-02T07:57:18Z</time>
      </trkpt>
      <trkpt lat="45.9604" lon="6.56692">
        <ele>1852</ele>
        <time>2026-02-02T07:57:19Z</time>
      </trkpt>
      <trkpt lat="45.9604" lon="6.56693">
        <ele>1852</ele>
        <time>2026-02-02T07:57:20Z</time>
      </trkpt>
      <trkpt lat="45.9604" lon="6.56693">
        <ele>1852</ele>
        <time>2026-02-02T07:57:21Z</time>
      </trkpt>
      <trkpt lat="45.9604" lon="6.56693">
        <ele>1852</ele>
        <time>2026-02-02T07:57:22Z</time>
      </trkpt>
      <trkpt lat="45.9604" lon="6.56693">
        <ele>1852</ele>
        <time>2026-02-02T07:57:23Z</time>
      </trkpt>
      <trkpt lat="45.9604" lon="6.56693">
        <ele>1852</ele>
        <time>2026-02-02T07:57:24Z</time>
      </trkpt>
      <trkpt lat="45.9604" lon="6.56693">
        <ele>1852</ele>
        <time>2026-02-02T07:57:25Z</time>
      </trkpt>
      <trkpt lat="45.9604" lon="6.56693">
        <ele>1852</ele>
        <time>2026-02-02T07:57:26Z</time>
      </trkpt>
      <trkpt lat="45.9604" lon="6.56693">
        <ele>1852</ele>
        <time>2026-02-02T07:57:27Z</time>
      </trkpt>
      <trkpt lat="45.9604" lon="6.56693">
        <ele>1852</ele>
        <time>2026-02-02T07:57:28Z</time>
      </trkpt>
      <trkpt lat="45.9604" lon="6.56693">
        <ele>1852</ele>
        <time>2026-02-02T07:57:29Z</time>
      </trkpt>
      <trkpt lat="45.9604" lon="6.56693">
        <ele>1852</ele>
        <time>2026-02-02T07:57:30Z</time>
      </trkpt>
      <trkpt lat="45.9604" lon="6.56693">
        <ele>1852</ele>
        <time>2026-02-02T07:57:31Z</time>
      </trkpt>
      <trkpt lat="45.9604" lon="6.56693">
        <ele>1852</ele>
        <time>2026-02-02T07:57:32Z</time>
      </trkpt>
      <trkpt lat="45.9604" lon="6.56693">
        <ele>1852.1</ele>
        <time>2026-02-02T07:57:33Z</time>
      </trkpt>
      <trkpt lat="45.9604" lon="6.56693">
        <ele>1852.1</ele>
        <time>2026-02-02T07:57:34Z</time>
      </trkpt>
      <trkpt lat="45.9604" lon="6.56693">
        <ele>1852.1</ele>
        <time>2026-02-02T07:57:35Z</time>
      </trkpt>
      <trkpt lat="45.9604" lon="6.56693">
        <ele>1852.1</ele>
        <time>2026-02-02T07:57:36Z</time>
      </trkpt>
      <trkpt lat="45.9604" lon="6.56693">
        <ele>1852.1</ele>
        <time>2026-02-02T07:57:37Z</time>
      </trkpt>
      <trkpt lat="45.9604" lon="6.56693">
        <ele>1852.1</ele>
        <time>2026-02-02T07:57:38Z</time>
      </trkpt>
      <trkpt lat="45.9604" lon="6.56693">
        <ele>1852.1</ele>
        <time>2026-02-02T07:57:39Z</time>
      </trkpt>
      <trkpt lat="45.9604" lon="6.56693">
        <ele>1852.1</ele>
        <time>2026-02-02T07:57:40Z</time>
      </trkpt>
      <trkpt lat="45.9604" lon="6.56693">
        <ele>1852.1</ele>
        <time>2026-02-02T07:57:41Z</time>
      </trkpt>
      <trkpt lat="45.9604" lon="6.56693">
        <ele>1852.1</ele>
        <time>2026-02-02T07:57:42Z</time>
      </trkpt>
      <trkpt lat="45.9604" lon="6.56693">
        <ele>1852.1</ele>
        <time>2026-02-02T07:57:43Z</time>
      </trkpt>
      <trkpt lat="45.9604" lon="6.56693">
        <ele>1852.1</ele>
        <time>2026-02-02T07:57:44Z</time>
      </trkpt>
      <trkpt lat="45.9604" lon="6.56693">
        <ele>1852.1</ele>
        <time>2026-02-02T07:57:45Z</time>
      </trkpt>
      <trkpt lat="45.9604" lon="6.56693">
        <ele>1852.1</ele>
        <time>2026-02-02T07:57:46Z</time>
      </trkpt>
      <trkpt lat="45.96039" lon="6.56693">
        <ele>1852.9</ele>
        <time>2026-02-02T07:57:47Z</time>
      </trkpt>
      <trkpt lat="45.96037" lon="6.56694">
        <ele>1852.9</ele>
        <time>2026-02-02T07:57:48Z</time>
      </trkpt>
      <trkpt lat="45.96036" lon="6.56694">
        <ele>1853.7</ele>
        <time>2026-02-02T07:57:49Z</time>
      </trkpt>
      <trkpt lat="45.96035" lon="6.56693">
        <ele>1853.7</ele>
        <time>2026-02-02T07:57:50Z</time>
      </trkpt>
      <trkpt lat="45.96035" lon="6.56693">
        <ele>1853.7</ele>
        <time>2026-02-02T07:57:51Z</time>
      </trkpt>
      <trkpt lat="45.96034" lon="6.56694">
        <ele>1854.6</ele>
        <time>2026-02-02T07:57:52Z</time>
      </trkpt>
      <trkpt lat="45.96033" lon="6.56693">
        <ele>1854.6</ele>
        <time>2026-02-02T07:57:53Z</time>
      </trkpt>
      <trkpt lat="45.96032" lon="6.56693">
        <ele>1854.6</ele>
        <time>2026-02-02T07:57:54Z</time>
      </trkpt>
      <trkpt lat="45.96032" lon="6.56693">
        <ele>1854.6</ele>
        <time>2026-02-02T07:57:55Z</time>
      </trkpt>
      <trkpt lat="45.96031" lon="6.56694">
        <ele>1854.6</ele>
        <time>2026-02-02T07:57:56Z</time>
      </trkpt>
      <trkpt lat="45.9603" lon="6.56694">
        <ele>1855.5</ele>
        <time>2026-02-02T07:57:57Z</time>
      </trkpt>
      <trkpt lat="45.96029" lon="6.56694">
        <ele>1855.5</ele>
        <time>2026-02-02T07:57:58Z</time>
      </trkpt>
      <trkpt lat="45.96029" lon="6.56694">
        <ele>1855.5</ele>
        <time>2026-02-02T07:57:59Z</time>
      </trkpt>
      <trkpt lat="45.96028" lon="6.56694">
        <ele>1856.4</ele>
        <time>2026-02-02T07:58:00Z</time>
      </trkpt>
      <trkpt lat="45.96027" lon="6.56694">
        <ele>1856.4</ele>
        <time>2026-02-02T07:58:01Z</time>
      </trkpt>
      <trkpt lat="45.96026" lon="6.56694">
        <ele>1856.4</ele>
        <time>2026-02-02T07:58:02Z</time>
      </trkpt>
      <trkpt lat="45.96025" lon="6.56695">
        <ele>1857.4</ele>
        <time>2026-02-02T07:58:03Z</time>
      </trkpt>
      <trkpt lat="45.96024" lon="6.56695">
        <ele>1856.4</ele>
        <time>2026-02-02T07:58:04Z</time>
      </trkpt>
      <trkpt lat="45.96023" lon="6.56695">
        <ele>1856.4</ele>
        <time>2026-02-02T07:58:05Z</time>
      </trkpt>
      <trkpt lat="45.96022" lon="6.56696">
        <ele>1857.4</ele>
        <time>2026-02-02T07:58:06Z</time>
      </trkpt>
      <trkpt lat="45.96021" lon="6.56696">
        <ele>1857.4</ele>
        <time>2026-02-02T07:58:07Z</time>
      </trkpt>
      <trkpt lat="45.9602" lon="6.56696">
        <ele>1857.4</ele>
        <time>2026-02-02T07:58:08Z</time>
      </trkpt>
      <trkpt lat="45.9602" lon="6.56696">
        <ele>1857.4</ele>
        <time>2026-02-02T07:58:09Z</time>
      </trkpt>
      <trkpt lat="45.96019" lon="6.56696">
        <ele>1858.3</ele>
        <time>2026-02-02T07:58:10Z</time>
      </trkpt>
      <trkpt lat="45.96018" lon="6.56697">
        <ele>1858.3</ele>
        <time>2026-02-02T07:58:11Z</time>
      </trkpt>
      <trkpt lat="45.96018" lon="6.56697">
        <ele>1858.3</ele>
        <time>2026-02-02T07:58:12Z</time>
      </trkpt>
      <trkpt lat="45.96017" lon="6.56697">
        <ele>1858.3</ele>
        <time>2026-02-02T07:58:13Z</time>
      </trkpt>
      <trkpt lat="45.96016" lon="6.56698">
        <ele>1859.2</ele>
        <time>2026-02-02T07:58:14Z</time>
      </trkpt>
      <trkpt lat="45.96015" lon="6.56698">
        <ele>1859.3</ele>
        <time>2026-02-02T07:58:15Z</time>
      </trkpt>
      <trkpt lat="45.96015" lon="6.56698">
        <ele>1859.3</ele>
        <time>2026-02-02T07:58:16Z</time>
      </trkpt>
      <trkpt lat="45.96014" lon="6.56698">
        <ele>1859.3</ele>
        <time>2026-02-02T07:58:17Z</time>
      </trkpt>
      <trkpt lat="45.96012" lon="6.567">
        <ele>1859.2</ele>
        <time>2026-02-02T07:58:18Z</time>
      </trkpt>
      <trkpt lat="45.96011" lon="6.567">
        <ele>1859.2</ele>
        <time>2026-02-02T07:58:19Z</time>
      </trkpt>
      <trkpt lat="45.9601" lon="6.56701">
        <ele>1859.2</ele>
        <time>2026-02-02T07:58:20Z</time>
      </trkpt>
      <trkpt lat="45.96009" lon="6.56702">
        <ele>1860.1</ele>
        <time>2026-02-02T07:58:21Z</time>
      </trkpt>
      <trkpt lat="45.96008" lon="6.56702">
        <ele>1860.1</ele>
        <time>2026-02-02T07:58:22Z</time>
      </trkpt>
      <trkpt lat="45.96007" lon="6.56702">
        <ele>1860.1</ele>
        <time>2026-02-02T07:58:23Z</time>
      </trkpt>
      <trkpt lat="45.96007" lon="6.56703">
        <ele>1860.1</ele>
        <time>2026-02-02T07:58:24Z</time>
      </trkpt>
      <trkpt lat="45.96007" lon="6.56704">
        <ele>1860.2</ele>
        <time>2026-02-02T07:58:25Z</time>
      </trkpt>
      <trkpt lat="45.96006" lon="6.56704">
        <ele>1860.2</ele>
        <time>2026-02-02T07:58:26Z</time>
      </trkpt>
      <trkpt lat="45.96005" lon="6.56704">
        <ele>1860.2</ele>
        <time>2026-02-02T07:58:27Z</time>
      </trkpt>
      <trkpt lat="45.96004" lon="6.56705">
        <ele>1860.2</ele>
        <time>2026-02-02T07:58:28Z</time>
      </trkpt>
      <trkpt lat="45.96003" lon="6.56705">
        <ele>1861.2</ele>
        <time>2026-02-02T07:58:29Z</time>
      </trkpt>
      <trkpt lat="45.96002" lon="6.56705">
        <ele>1861.2</ele>
        <time>2026-02-02T07:58:30Z</time>
      </trkpt>
      <trkpt lat="45.96002" lon="6.56705">
        <ele>1861.2</ele>
        <time>2026-02-02T07:58:31Z</time>
      </trkpt>
      <trkpt lat="45.96001" lon="6.56706">
        <ele>1861.2</ele>
        <time>2026-02-02T07:58:32Z</time>
      </trkpt>
      <trkpt lat="45.96001" lon="6.56706">
        <ele>1862.3</ele>
        <time>2026-02-02T07:58:33Z</time>
      </trkpt>
      <trkpt lat="45.96" lon="6.56706">
        <ele>1862.3</ele>
        <time>2026-02-02T07:58:34Z</time>
      </trkpt>
      <trkpt lat="45.95999" lon="6.56706">
        <ele>1862.3</ele>
        <time>2026-02-02T07:58:35Z</time>
      </trkpt>
      <trkpt lat="45.95998" lon="6.56706">
        <ele>1862.3</ele>
        <time>2026-02-02T07:58:36Z</time>
      </trkpt>
      <trkpt lat="45.95998" lon="6.56706">
        <ele>1863.5</ele>
        <time>2026-02-02T07:58:37Z</time>
      </trkpt>
      <trkpt lat="45.95997" lon="6.56706">
        <ele>1863.5</ele>
        <time>2026-02-02T07:58:38Z</time>
      </trkpt>
      <trkpt lat="45.95997" lon="6.56706">
        <ele>1863.5</ele>
        <time>2026-02-02T07:58:39Z</time>
      </trkpt>
      <trkpt lat="45.95997" lon="6.56706">
        <ele>1863.5</ele>
        <time>2026-02-02T07:58:40Z</time>
      </trkpt>
      <trkpt lat="45.95997" lon="6.56706">
        <ele>1863.5</ele>
        <time>2026-02-02T07:58:41Z</time>
      </trkpt>
      <trkpt lat="45.95997" lon="6.56706">
        <ele>1863.5</ele>
        <time>2026-02-02T07:58:42Z</time>
      </trkpt>
      <trkpt lat="45.95997" lon="6.56706">
        <ele>1863.5</ele>
        <time>2026-02-02T07:58:43Z</time>
      </trkpt>
      <trkpt lat="45.95997" lon="6.56706">
        <ele>1863.5</ele>
        <time>2026-02-02T07:58:44Z</time>
      </trkpt>
      <trkpt lat="45.95997" lon="6.56706">
        <ele>1863.5</ele>
        <time>2026-02-02T07:58:45Z</time>
      </trkpt>
      <trkpt lat="45.95997" lon="6.56706">
        <ele>1863.5</ele>
        <time>2026-02-02T07:58:46Z</time>
      </trkpt>
      <trkpt lat="45.95997" lon="6.56707">
        <ele>1863.5</ele>
        <time>2026-02-02T07:58:47Z</time>
      </trkpt>
      <trkpt lat="45.95996" lon="6.56707">
        <ele>1863.5</ele>
        <time>2026-02-02T07:58:48Z</time>
      </trkpt>
      <trkpt lat="45.95995" lon="6.56707">
        <ele>1864.6</ele>
        <time>2026-02-02T07:58:49Z</time>
      </trkpt>
      <trkpt lat="45.95994" lon="6.56707">
        <ele>1864.6</ele>
        <time>2026-02-02T07:58:50Z</time>
      </trkpt>
      <trkpt lat="45.95993" lon="6.56707">
        <ele>1864.7</ele>
        <time>2026-02-02T07:58:51Z</time>
      </trkpt>
      <trkpt lat="45.95993" lon="6.56708">
        <ele>1863.7</ele>
        <time>2026-02-02T07:58:52Z</time>
      </trkpt>
      <trkpt lat="45.95992" lon="6.56709">
        <ele>1864.8</ele>
        <time>2026-02-02T07:58:53Z</time>
      </trkpt>
      <trkpt lat="45.95991" lon="6.56709">
        <ele>1864.8</ele>
        <time>2026-02-02T07:58:54Z</time>
      </trkpt>
      <trkpt lat="45.95991" lon="6.56709">
        <ele>1864.8</ele>
        <time>2026-02-02T07:58:55Z</time>
      </trkpt>
      <trkpt lat="45.9599" lon="6.56709">
        <ele>1864.8</ele>
        <time>2026-02-02T07:58:56Z</time>
      </trkpt>
      <trkpt lat="45.95989" lon="6.5671">
        <ele>1865.8</ele>
        <time>2026-02-02T07:58:57Z</time>
      </trkpt>
      <trkpt lat="45.95988" lon="6.5671">
        <ele>1865.8</ele>
        <time>2026-02-02T07:58:58Z</time>
      </trkpt>
      <trkpt lat="45.95987" lon="6.56711">
        <ele>1865.8</ele>
        <time>2026-02-02T07:58:59Z</time>
      </trkpt>
      <trkpt lat="45.95987" lon="6.56712">
        <ele>1865.8</ele>
        <time>2026-02-02T07:59:00Z</time>
      </trkpt>
      <trkpt lat="45.95986" lon="6.56711">
        <ele>1865.8</ele>
        <time>2026-02-02T07:59:01Z</time>
      </trkpt>
      <trkpt lat="45.95985" lon="6.56711">
        <ele>1866.8</ele>
        <time>2026-02-02T07:59:02Z</time>
      </trkpt>
      <trkpt lat="45.95985" lon="6.56712">
        <ele>1866.8</ele>
        <time>2026-02-02T07:59:03Z</time>
      </trkpt>
      <trkpt lat="45.95984" lon="6.56712">
        <ele>1866.8</ele>
        <time>2026-02-02T07:59:04Z</time>
      </trkpt>
      <trkpt lat="45.95983" lon="6.56712">
        <ele>1867.8</ele>
        <time>2026-02-02T07:59:05Z</time>
      </trkpt>
      <trkpt lat="45.95982" lon="6.56712">
        <ele>1867.8</ele>
        <time>2026-02-02T07:59:06Z</time>
      </trkpt>
      <trkpt lat="45.95982" lon="6.56712">
        <ele>1867.8</ele>
        <time>2026-02-02T07:59:07Z</time>
      </trkpt>
      <trkpt lat="45.95981" lon="6.56712">
        <ele>1867.8</ele>
        <time>2026-02-02T07:59:08Z</time>
      </trkpt>
      <trkpt lat="45.95981" lon="6.56712">
        <ele>1867.8</ele>
        <time>2026-02-02T07:59:09Z</time>
      </trkpt>
      <trkpt lat="45.9598" lon="6.56712">
        <ele>1867.8</ele>
        <time>2026-02-02T07:59:10Z</time>
      </trkpt>
      <trkpt lat="45.9598" lon="6.56713">
        <ele>1868</ele>
        <time>2026-02-02T07:59:11Z</time>
      </trkpt>
      <trkpt lat="45.95979" lon="6.56713">
        <ele>1868</ele>
        <time>2026-02-02T07:59:12Z</time>
      </trkpt>
      <trkpt lat="45.95978" lon="6.56714">
        <ele>1868</ele>
        <time>2026-02-02T07:59:13Z</time>
      </trkpt>
      <trkpt lat="45.95978" lon="6.56716">
        <ele>1868</ele>
        <time>2026-02-02T07:59:14Z</time>
      </trkpt>
      <trkpt lat="45.95977" lon="6.56716">
        <ele>1867.1</ele>
        <time>2026-02-02T07:59:15Z</time>
      </trkpt>
      <trkpt lat="45.95977" lon="6.56717">
        <ele>1867.1</ele>
        <time>2026-02-02T07:59:16Z</time>
      </trkpt>
      <trkpt lat="45.95977" lon="6.56717">
        <ele>1868.4</ele>
        <time>2026-02-02T07:59:17Z</time>
      </trkpt>
      <trkpt lat="45.95977" lon="6.56717">
        <ele>1868.4</ele>
        <time>2026-02-02T07:59:18Z</time>
      </trkpt>
      <trkpt lat="45.95977" lon="6.56717">
        <ele>1868.4</ele>
        <time>2026-02-02T07:59:19Z</time>
      </trkpt>
      <trkpt lat="45.95977" lon="6.56717">
        <ele>1868.4</ele>
        <time>2026-02-02T07:59:20Z</time>
      </trkpt>
      <trkpt lat="45.95977" lon="6.56717">
        <ele>1868.4</ele>
        <time>2026-02-02T07:59:21Z</time>
      </trkpt>
      <trkpt lat="45.95977" lon="6.56717">
        <ele>1868.4</ele>
        <time>2026-02-02T07:59:22Z</time>
      </trkpt>
      <trkpt lat="45.95977" lon="6.56717">
        <ele>1868.4</ele>
        <time>2026-02-02T07:59:23Z</time>
      </trkpt>
      <trkpt lat="45.95977" lon="6.56717">
        <ele>1868.4</ele>
        <time>2026-02-02T07:59:24Z</time>
      </trkpt>
      <trkpt lat="45.95977" lon="6.56718">
        <ele>1868.4</ele>
        <time>2026-02-02T07:59:25Z</time>
      </trkpt>
      <trkpt lat="45.95977" lon="6.56718">
        <ele>1868.4</ele>
        <time>2026-02-02T07:59:26Z</time>
      </trkpt>
      <trkpt lat="45.95976" lon="6.56719">
        <ele>1868.5</ele>
        <time>2026-02-02T07:59:27Z</time>
      </trkpt>
      <trkpt lat="45.95975" lon="6.56719">
        <ele>1868.5</ele>
        <time>2026-02-02T07:59:28Z</time>
      </trkpt>
      <trkpt lat="45.95975" lon="6.56719">
        <ele>1868.5</ele>
        <time>2026-02-02T07:59:29Z</time>
      </trkpt>
      <trkpt lat="45.95974" lon="6.56719">
        <ele>1869.8</ele>
        <time>2026-02-02T07:59:30Z</time>
      </trkpt>
      <trkpt lat="45.95974" lon="6.5672">
        <ele>1869.8</ele>
        <time>2026-02-02T07:59:31Z</time>
      </trkpt>
      <trkpt lat="45.95973" lon="6.56719">
        <ele>1869.8</ele>
        <time>2026-02-02T07:59:32Z</time>
      </trkpt>
      <trkpt lat="45.95972" lon="6.56719">
        <ele>1869.8</ele>
        <time>2026-02-02T07:59:33Z</time>
      </trkpt>
      <trkpt lat="45.95971" lon="6.56719">
        <ele>1871.2</ele>
        <time>2026-02-02T07:59:34Z</time>
      </trkpt>
      <trkpt lat="45.9597" lon="6.5672">
        <ele>1871.2</ele>
        <time>2026-02-02T07:59:35Z</time>
      </trkpt>
      <trkpt lat="45.95969" lon="6.5672">
        <ele>1871.2</ele>
        <time>2026-02-02T07:59:36Z</time>
      </trkpt>
      <trkpt lat="45.95968" lon="6.5672">
        <ele>1871.2</ele>
        <time>2026-02-02T07:59:37Z</time>
      </trkpt>
      <trkpt lat="45.95968" lon="6.56721">
        <ele>1872.5</ele>
        <time>2026-02-02T07:59:38Z</time>
      </trkpt>
      <trkpt lat="45.95966" lon="6.56721">
        <ele>1872.5</ele>
        <time>2026-02-02T07:59:39Z</time>
      </trkpt>
      <trkpt lat="45.95965" lon="6.56721">
        <ele>1872.5</ele>
        <time>2026-02-02T07:59:40Z</time>
      </trkpt>
      <trkpt lat="45.95964" lon="6.56721">
        <ele>1873.7</ele>
        <time>2026-02-02T07:59:41Z</time>
      </trkpt>
      <trkpt lat="45.95963" lon="6.56721">
        <ele>1873.7</ele>
        <time>2026-02-02T07:59:42Z</time>
      </trkpt>
      <trkpt lat="45.95963" lon="6.56721">
        <ele>1873.7</ele>
        <time>2026-02-02T07:59:43Z</time>
      </trkpt>
      <trkpt lat="45.95962" lon="6.5672">
        <ele>1874.9</ele>
        <time>2026-02-02T07:59:44Z</time>
      </trkpt>
      <trkpt lat="45.95961" lon="6.5672">
        <ele>1874.9</ele>
        <time>2026-02-02T07:59:45Z</time>
      </trkpt>
      <trkpt lat="45.9596" lon="6.56721">
        <ele>1874.2</ele>
        <time>2026-02-02T07:59:46Z</time>
      </trkpt>
      <trkpt lat="45.9596" lon="6.56721">
        <ele>1874.9</ele>
        <time>2026-02-02T07:59:47Z</time>
      </trkpt>
      <trkpt lat="45.9596" lon="6.5672">
        <ele>1874.9</ele>
        <time>2026-02-02T07:59:48Z</time>
      </trkpt>
      <trkpt lat="45.95959" lon="6.5672">
        <ele>1876</ele>
        <time>2026-02-02T07:59:49Z</time>
      </trkpt>
      <trkpt lat="45.95959" lon="6.5672">
        <ele>1876</ele>
        <time>2026-02-02T07:59:50Z</time>
      </trkpt>
      <trkpt lat="45.95959" lon="6.5672">
        <ele>1876</ele>
        <time>2026-02-02T07:59:51Z</time>
      </trkpt>
      <trkpt lat="45.95959" lon="6.5672">
        <ele>1876</ele>
        <time>2026-02-02T07:59:52Z</time>
      </trkpt>
      <trkpt lat="45.95959" lon="6.56721">
        <ele>1875.3</ele>
        <time>2026-02-02T07:59:53Z</time>
      </trkpt>
      <trkpt lat="45.95959" lon="6.56721">
        <ele>1875.4</ele>
        <time>2026-02-02T07:59:54Z</time>
      </trkpt>
      <trkpt lat="45.95958" lon="6.56722">
        <ele>1875.4</ele>
        <time>2026-02-02T07:59:55Z</time>
      </trkpt>
      <trkpt lat="45.95958" lon="6.56723">
        <ele>1875.4</ele>
        <time>2026-02-02T07:59:56Z</time>
      </trkpt>
      <trkpt lat="45.95957" lon="6.56723">
        <ele>1875.4</ele>
        <time>2026-02-02T07:59:57Z</time>
      </trkpt>
      <trkpt lat="45.95956" lon="6.56724">
        <ele>1876.5</ele>
        <time>2026-02-02T07:59:58Z</time>
      </trkpt>
      <trkpt lat="45.95955" lon="6.56724">
        <ele>1876.6</ele>
        <time>2026-02-02T07:59:59Z</time>
      </trkpt>
      <trkpt lat="45.95954" lon="6.56725">
        <ele>1876.6</ele>
        <time>2026-02-02T08:00:00Z</time>
      </trkpt>
      <trkpt lat="45.95954" lon="6.56725">
        <ele>1876.6</ele>
        <time>2026-02-02T08:00:01Z</time>
      </trkpt>
      <trkpt lat="45.95954" lon="6.56725">
        <ele>1875.9</ele>
        <time>2026-02-02T08:00:02Z</time>
      </trkpt>
      <trkpt lat="45.95954" lon="6.56726">
        <ele>1875.9</ele>
        <time>2026-02-02T08:00:03Z</time>
      </trkpt>
      <trkpt lat="45.95954" lon="6.56726">
        <ele>1875.9</ele>
        <time>2026-02-02T08:00:04Z</time>
      </trkpt>
      <trkpt lat="45.95954" lon="6.56727">
        <ele>1875.9</ele>
        <time>2026-02-02T08:00:05Z</time>
      </trkpt>
      <trkpt lat="45.95954" lon="6.56727">
        <ele>1875.9</ele>
        <time>2026-02-02T08:00:06Z</time>
      </trkpt>
      <trkpt lat="45.95954" lon="6.56727">
        <ele>1875.9</ele>
        <time>2026-02-02T08:00:07Z</time>
      </trkpt>
      <trkpt lat="45.95954" lon="6.56727">
        <ele>1875.9</ele>
        <time>2026-02-02T08:00:08Z</time>
      </trkpt>
      <trkpt lat="45.95954" lon="6.56727">
        <ele>1875.9</ele>
        <time>2026-02-02T08:00:09Z</time>
      </trkpt>
      <trkpt lat="45.95954" lon="6.56727">
        <ele>1876</ele>
        <time>2026-02-02T08:00:10Z</time>
      </trkpt>
      <trkpt lat="45.95954" lon="6.56727">
        <ele>1876</ele>
        <time>2026-02-02T08:00:11Z</time>
      </trkpt>
      <trkpt lat="45.95954" lon="6.56727">
        <ele>1876</ele>
        <time>2026-02-02T08:00:12Z</time>
      </trkpt>
      <trkpt lat="45.95954" lon="6.56727">
        <ele>1876</ele>
        <time>2026-02-02T08:00:13Z</time>
      </trkpt>
      <trkpt lat="45.95953" lon="6.56727">
        <ele>1877.2</ele>
        <time>2026-02-02T08:00:14Z</time>
      </trkpt>
      <trkpt lat="45.95952" lon="6.56728">
        <ele>1877.2</ele>
        <time>2026-02-02T08:00:15Z</time>
      </trkpt>
      <trkpt lat="45.95951" lon="6.56728">
        <ele>1877.2</ele>
        <time>2026-02-02T08:00:16Z</time>
      </trkpt>
      <trkpt lat="45.9595" lon="6.56729">
        <ele>1877.8</ele>
        <time>2026-02-02T08:00:17Z</time>
      </trkpt>
      <trkpt lat="45.95949" lon="6.5673">
        <ele>1877.8</ele>
        <time>2026-02-02T08:00:18Z</time>
      </trkpt>
      <trkpt lat="45.95948" lon="6.5673">
        <ele>1877.8</ele>
        <time>2026-02-02T08:00:19Z</time>
      </trkpt>
      <trkpt lat="45.95947" lon="6.5673">
        <ele>1879.1</ele>
        <time>2026-02-02T08:00:20Z</time>
      </trkpt>
      <trkpt lat="45.95946" lon="6.5673">
        <ele>1879.1</ele>
        <time>2026-02-02T08:00:21Z</time>
      </trkpt>
      <trkpt lat="45.95945" lon="6.5673">
        <ele>1879.1</ele>
        <time>2026-02-02T08:00:22Z</time>
      </trkpt>
      <trkpt lat="45.95944" lon="6.56731">
        <ele>1880.3</ele>
        <time>2026-02-02T08:00:23Z</time>
      </trkpt>
      <trkpt lat="45.95944" lon="6.56731">
        <ele>1880.3</ele>
        <time>2026-02-02T08:00:24Z</time>
      </trkpt>
      <trkpt lat="45.95943" lon="6.56731">
        <ele>1880.3</ele>
        <time>2026-02-02T08:00:25Z</time>
      </trkpt>
      <trkpt lat="45.95943" lon="6.56732">
        <ele>1880.4</ele>
        <time>2026-02-02T08:00:26Z</time>
      </trkpt>
      <trkpt lat="45.95942" lon="6.56733">
        <ele>1880.4</ele>
        <time>2026-02-02T08:00:27Z</time>
      </trkpt>
      <trkpt lat="45.95941" lon="6.56734">
        <ele>1881.6</ele>
        <time>2026-02-02T08:00:28Z</time>
      </trkpt>
      <trkpt lat="45.95941" lon="6.56734">
        <ele>1881</ele>
        <time>2026-02-02T08:00:29Z</time>
      </trkpt>
      <trkpt lat="45.9594" lon="6.56734">
        <ele>1881</ele>
        <time>2026-02-02T08:00:30Z</time>
      </trkpt>
      <trkpt lat="45.9594" lon="6.56733">
        <ele>1881.6</ele>
        <time>2026-02-02T08:00:31Z</time>
      </trkpt>
      <trkpt lat="45.9594" lon="6.56733">
        <ele>1881.6</ele>
        <time>2026-02-02T08:00:32Z</time>
      </trkpt>
      <trkpt lat="45.9594" lon="6.56734">
        <ele>1881</ele>
        <time>2026-02-02T08:00:33Z</time>
      </trkpt>
      <trkpt lat="45.95939" lon="6.56736">
        <ele>1881</ele>
        <time>2026-02-02T08:00:34Z</time>
      </trkpt>
      <trkpt lat="45.95937" lon="6.56736">
        <ele>1882.2</ele>
        <time>2026-02-02T08:00:35Z</time>
      </trkpt>
      <trkpt lat="45.95937" lon="6.56736">
        <ele>1882.2</ele>
        <time>2026-02-02T08:00:36Z</time>
      </trkpt>
      <trkpt lat="45.95936" lon="6.56736">
        <ele>1882.2</ele>
        <time>2026-02-02T08:00:37Z</time>
      </trkpt>
      <trkpt lat="45.95936" lon="6.56736">
        <ele>1882.2</ele>
        <time>2026-02-02T08:00:38Z</time>
      </trkpt>
      <trkpt lat="45.95936" lon="6.56737">
        <ele>1882.2</ele>
        <time>2026-02-02T08:00:39Z</time>
      </trkpt>
      <trkpt lat="45.95935" lon="6.56737">
        <ele>1883.4</ele>
        <time>2026-02-02T08:00:40Z</time>
      </trkpt>
      <trkpt lat="45.95933" lon="6.56738">
        <ele>1882.8</ele>
        <time>2026-02-02T08:00:41Z</time>
      </trkpt>
      <trkpt lat="45.95932" lon="6.56738">
        <ele>1883.9</ele>
        <time>2026-02-02T08:00:42Z</time>
      </trkpt>
      <trkpt lat="45.95932" lon="6.56739">
        <ele>1883.9</ele>
        <time>2026-02-02T08:00:43Z</time>
      </trkpt>
      <trkpt lat="45.95931" lon="6.56739">
        <ele>1884</ele>
        <time>2026-02-02T08:00:44Z</time>
      </trkpt>
      <trkpt lat="45.9593" lon="6.5674">
        <ele>1884</ele>
        <time>2026-02-02T08:00:45Z</time>
      </trkpt>
      <trkpt lat="45.9593" lon="6.5674">
        <ele>1884</ele>
        <time>2026-02-02T08:00:46Z</time>
      </trkpt>
      <trkpt lat="45.95929" lon="6.5674">
        <ele>1885</ele>
        <time>2026-02-02T08:00:47Z</time>
      </trkpt>
      <trkpt lat="45.95929" lon="6.5674">
        <ele>1885</ele>
        <time>2026-02-02T08:00:48Z</time>
      </trkpt>
      <trkpt lat="45.95929" lon="6.5674">
        <ele>1885</ele>
        <time>2026-02-02T08:00:49Z</time>
      </trkpt>
      <trkpt lat="45.95929" lon="6.5674">
        <ele>1885</ele>
        <time>2026-02-02T08:00:50Z</time>
      </trkpt>
      <trkpt lat="45.95929" lon="6.5674">
        <ele>1885</ele>
        <time>2026-02-02T08:00:51Z</time>
      </trkpt>
      <trkpt lat="45.95929" lon="6.5674">
        <ele>1885.1</ele>
        <time>2026-02-02T08:00:52Z</time>
      </trkpt>
      <trkpt lat="45.95929" lon="6.5674">
        <ele>1885.1</ele>
        <time>2026-02-02T08:00:53Z</time>
      </trkpt>
      <trkpt lat="45.95929" lon="6.5674">
        <ele>1885.1</ele>
        <time>2026-02-02T08:00:54Z</time>
      </trkpt>
      <trkpt lat="45.95929" lon="6.5674">
        <ele>1885.1</ele>
        <time>2026-02-02T08:00:55Z</time>
      </trkpt>
      <trkpt lat="45.95928" lon="6.5674">
        <ele>1885.1</ele>
        <time>2026-02-02T08:00:56Z</time>
      </trkpt>
      <trkpt lat="45.95928" lon="6.56741">
        <ele>1885.1</ele>
        <time>2026-02-02T08:00:57Z</time>
      </trkpt>
      <trkpt lat="45.95927" lon="6.56742">
        <ele>1885.1</ele>
        <time>2026-02-02T08:00:58Z</time>
      </trkpt>
      <trkpt lat="45.95926" lon="6.56742">
        <ele>1885.6</ele>
        <time>2026-02-02T08:00:59Z</time>
      </trkpt>
      <trkpt lat="45.95925" lon="6.56742">
        <ele>1885.6</ele>
        <time>2026-02-02T08:01:00Z</time>
      </trkpt>
      <trkpt lat="45.95924" lon="6.56742">
        <ele>1885.6</ele>
        <time>2026-02-02T08:01:01Z</time>
      </trkpt>
      <trkpt lat="45.95923" lon="6.56743">
        <ele>1886.8</ele>
        <time>2026-02-02T08:01:02Z</time>
      </trkpt>
      <trkpt lat="45.95922" lon="6.56743">
        <ele>1886.8</ele>
        <time>2026-02-02T08:01:03Z</time>
      </trkpt>
      <trkpt lat="45.95922" lon="6.56742">
        <ele>1886.8</ele>
        <time>2026-02-02T08:01:04Z</time>
      </trkpt>
      <trkpt lat="45.95921" lon="6.56742">
        <ele>1886.8</ele>
        <time>2026-02-02T08:01:05Z</time>
      </trkpt>
      <trkpt lat="45.95921" lon="6.56742">
        <ele>1887.3</ele>
        <time>2026-02-02T08:01:06Z</time>
      </trkpt>
      <trkpt lat="45.95922" lon="6.56742">
        <ele>1887.3</ele>
        <time>2026-02-02T08:01:07Z</time>
      </trkpt>
      <trkpt lat="45.95921" lon="6.5674">
        <ele>1887.3</ele>
        <time>2026-02-02T08:01:08Z</time>
      </trkpt>
      <trkpt lat="45.95922" lon="6.56739">
        <ele>1887.3</ele>
        <time>2026-02-02T08:01:09Z</time>
      </trkpt>
      <trkpt lat="45.95922" lon="6.56738">
        <ele>1887.9</ele>
        <time>2026-02-02T08:01:10Z</time>
      </trkpt>
      <trkpt lat="45.95923" lon="6.56737">
        <ele>1887.9</ele>
        <time>2026-02-02T08:01:11Z</time>
      </trkpt>
      <trkpt lat="45.95923" lon="6.56736">
        <ele>1887.9</ele>
        <time>2026-02-02T08:01:12Z</time>
      </trkpt>
      <trkpt lat="45.95924" lon="6.56734">
        <ele>1886.8</ele>
        <time>2026-02-02T08:01:13Z</time>
      </trkpt>
      <trkpt lat="45.95924" lon="6.56733">
        <ele>1887.4</ele>
        <time>2026-02-02T08:01:14Z</time>
      </trkpt>
      <trkpt lat="45.95924" lon="6.56732">
        <ele>1887.4</ele>
        <time>2026-02-02T08:01:15Z</time>
      </trkpt>
      <trkpt lat="45.95924" lon="6.56731">
        <ele>1887.4</ele>
        <time>2026-02-02T08:01:16Z</time>
      </trkpt>
      <trkpt lat="45.95924" lon="6.56729">
        <ele>1889.1</ele>
        <time>2026-02-02T08:01:17Z</time>
      </trkpt>
      <trkpt lat="45.95924" lon="6.56728">
        <ele>1888</ele>
        <time>2026-02-02T08:01:18Z</time>
      </trkpt>
      <trkpt lat="45.95924" lon="6.56727">
        <ele>1888</ele>
        <time>2026-02-02T08:01:19Z</time>
      </trkpt>
      <trkpt lat="45.95924" lon="6.56727">
        <ele>1888</ele>
        <time>2026-02-02T08:01:20Z</time>
      </trkpt>
      <trkpt lat="45.95925" lon="6.56725">
        <ele>1888</ele>
        <time>2026-02-02T08:01:21Z</time>
      </trkpt>
      <trkpt lat="45.95926" lon="6.56724">
        <ele>1888.6</ele>
        <time>2026-02-02T08:01:22Z</time>
      </trkpt>
      <trkpt lat="45.95926" lon="6.56723">
        <ele>1888.6</ele>
        <time>2026-02-02T08:01:23Z</time>
      </trkpt>
      <trkpt lat="45.95926" lon="6.56723">
        <ele>1888.6</ele>
        <time>2026-02-02T08:01:24Z</time>
      </trkpt>
      <trkpt lat="45.95926" lon="6.56723">
        <ele>1888.6</ele>
        <time>2026-02-02T08:01:25Z</time>
      </trkpt>
      <trkpt lat="45.95926" lon="6.56722">
        <ele>1888.6</ele>
        <time>2026-02-02T08:01:26Z</time>
      </trkpt>
      <trkpt lat="45.95926" lon="6.56722">
        <ele>1888.6</ele>
        <time>2026-02-02T08:01:27Z</time>
      </trkpt>
      <trkpt lat="45.95926" lon="6.56722">
        <ele>1888.6</ele>
        <time>2026-02-02T08:01:28Z</time>
      </trkpt>
      <trkpt lat="45.95926" lon="6.56721">
        <ele>1888.6</ele>
        <time>2026-02-02T08:01:29Z</time>
      </trkpt>
      <trkpt lat="45.95926" lon="6.56721">
        <ele>1888.6</ele>
        <time>2026-02-02T08:01:30Z</time>
      </trkpt>
      <trkpt lat="45.95926" lon="6.56721">
        <ele>1888.6</ele>
        <time>2026-02-02T08:01:31Z</time>
      </trkpt>
      <trkpt lat="45.95926" lon="6.56721">
        <ele>1889.2</ele>
        <time>2026-02-02T08:01:32Z</time>
      </trkpt>
      <trkpt lat="45.95926" lon="6.5672">
        <ele>1889.2</ele>
        <time>2026-02-02T08:01:33Z</time>
      </trkpt>
      <trkpt lat="45.95926" lon="6.5672">
        <ele>1889.2</ele>
        <time>2026-02-02T08:01:34Z</time>
      </trkpt>
      <trkpt lat="45.95926" lon="6.5672">
        <ele>1889.2</ele>
        <time>2026-02-02T08:01:35Z</time>
      </trkpt>
      <trkpt lat="45.95926" lon="6.5672">
        <ele>1889.2</ele>
        <time>2026-02-02T08:01:36Z</time>
      </trkpt>
      <trkpt lat="45.95926" lon="6.56719">
        <ele>1889.2</ele>
        <time>2026-02-02T08:01:37Z</time>
      </trkpt>
      <trkpt lat="45.95926" lon="6.56719">
        <ele>1889.2</ele>
        <time>2026-02-02T08:01:38Z</time>
      </trkpt>
      <trkpt lat="45.95926" lon="6.56719">
        <ele>1889.2</ele>
        <time>2026-02-02T08:01:39Z</time>
      </trkpt>
      <trkpt lat="45.95926" lon="6.56719">
        <ele>1889.3</ele>
        <time>2026-02-02T08:01:40Z</time>
      </trkpt>
      <trkpt lat="45.95926" lon="6.56717">
        <ele>1889.3</ele>
        <time>2026-02-02T08:01:41Z</time>
      </trkpt>
      <trkpt lat="45.95926" lon="6.56716">
        <ele>1889.8</ele>
        <time>2026-02-02T08:01:42Z</time>
      </trkpt>
      <trkpt lat="45.95926" lon="6.56715">
        <ele>1889.8</ele>
        <time>2026-02-02T08:01:43Z</time>
      </trkpt>
      <trkpt lat="45.95927" lon="6.56714">
        <ele>1888.8</ele>
        <time>2026-02-02T08:01:44Z</time>
      </trkpt>
      <trkpt lat="45.95927" lon="6.56712">
        <ele>1888.8</ele>
        <time>2026-02-02T08:01:45Z</time>
      </trkpt>
      <trkpt lat="45.95928" lon="6.56711">
        <ele>1889.3</ele>
        <time>2026-02-02T08:01:46Z</time>
      </trkpt>
      <trkpt lat="45.95927" lon="6.5671">
        <ele>1889.3</ele>
        <time>2026-02-02T08:01:47Z</time>
      </trkpt>
      <trkpt lat="45.95928" lon="6.56708">
        <ele>1889.3</ele>
        <time>2026-02-02T08:01:48Z</time>
      </trkpt>
      <trkpt lat="45.95928" lon="6.56707">
        <ele>1889.8</ele>
        <time>2026-02-02T08:01:49Z</time>
      </trkpt>
      <trkpt lat="45.95928" lon="6.56706">
        <ele>1889.8</ele>
        <time>2026-02-02T08:01:50Z</time>
      </trkpt>
      <trkpt lat="45.95928" lon="6.56705">
        <ele>1889.8</ele>
        <time>2026-02-02T08:01:51Z</time>
      </trkpt>
      <trkpt lat="45.95928" lon="6.56704">
        <ele>1889.8</ele>
        <time>2026-02-02T08:01:52Z</time>
      </trkpt>
      <trkpt lat="45.95928" lon="6.56703">
        <ele>1890.4</ele>
        <time>2026-02-02T08:01:53Z</time>
      </trkpt>
      <trkpt lat="45.95928" lon="6.56702">
        <ele>1890.4</ele>
        <time>2026-02-02T08:01:54Z</time>
      </trkpt>
      <trkpt lat="45.95929" lon="6.56701">
        <ele>1890.4</ele>
        <time>2026-02-02T08:01:55Z</time>
      </trkpt>
      <trkpt lat="45.95929" lon="6.567">
        <ele>1890.4</ele>
        <time>2026-02-02T08:01:56Z</time>
      </trkpt>
      <trkpt lat="45.95929" lon="6.56699">
        <ele>1890.9</ele>
        <time>2026-02-02T08:01:57Z</time>
      </trkpt>
      <trkpt lat="45.95928" lon="6.56698">
        <ele>1890.9</ele>
        <time>2026-02-02T08:01:58Z</time>
      </trkpt>
      <trkpt lat="45.95928" lon="6.56697">
        <ele>1891</ele>
        <time>2026-02-02T08:01:59Z</time>
      </trkpt>
      <trkpt lat="45.95928" lon="6.56696">
        <ele>1891</ele>
        <time>2026-02-02T08:02:00Z</time>
      </trkpt>
      <trkpt lat="45.95928" lon="6.56695">
        <ele>1891.5</ele>
        <time>2026-02-02T08:02:01Z</time>
      </trkpt>
      <trkpt lat="45.95928" lon="6.56693">
        <ele>1891.6</ele>
        <time>2026-02-02T08:02:02Z</time>
      </trkpt>
      <trkpt lat="45.95928" lon="6.56692">
        <ele>1891.6</ele>
        <time>2026-02-02T08:02:03Z</time>
      </trkpt>
      <trkpt lat="45.95927" lon="6.56692">
        <ele>1891.6</ele>
        <time>2026-02-02T08:02:04Z</time>
      </trkpt>
      <trkpt lat="45.95927" lon="6.56692">
        <ele>1891.6</ele>
        <time>2026-02-02T08:02:05Z</time>
      </trkpt>
      <trkpt lat="45.95927" lon="6.56692">
        <ele>1891.6</ele>
        <time>2026-02-02T08:02:06Z</time>
      </trkpt>
      <trkpt lat="45.95927" lon="6.56692">
        <ele>1891.6</ele>
        <time>2026-02-02T08:02:07Z</time>
      </trkpt>
      <trkpt lat="45.95927" lon="6.56692">
        <ele>1891.6</ele>
        <time>2026-02-02T08:02:08Z</time>
      </trkpt>
      <trkpt lat="45.95927" lon="6.56692">
        <ele>1891.6</ele>
        <time>2026-02-02T08:02:09Z</time>
      </trkpt>
      <trkpt lat="45.95927" lon="6.56692">
        <ele>1891.6</ele>
        <time>2026-02-02T08:02:10Z</time>
      </trkpt>
      <trkpt lat="45.95927" lon="6.56692">
        <ele>1891.6</ele>
        <time>2026-02-02T08:02:11Z</time>
      </trkpt>
      <trkpt lat="45.95927" lon="6.56692">
        <ele>1891.6</ele>
        <time>2026-02-02T08:02:12Z</time>
      </trkpt>
      <trkpt lat="45.95927" lon="6.56692">
        <ele>1891.6</ele>
        <time>2026-02-02T08:02:13Z</time>
      </trkpt>
      <trkpt lat="45.95927" lon="6.56692">
        <ele>1891.6</ele>
        <time>2026-02-02T08:02:14Z</time>
      </trkpt>
      <trkpt lat="45.95926" lon="6.56692">
        <ele>1892.6</ele>
        <time>2026-02-02T08:02:15Z</time>
      </trkpt>
      <trkpt lat="45.95926" lon="6.56691">
        <ele>1892.6</ele>
        <time>2026-02-02T08:02:16Z</time>
      </trkpt>
      <trkpt lat="45.95926" lon="6.56691">
        <ele>1892.6</ele>
        <time>2026-02-02T08:02:17Z</time>
      </trkpt>
      <trkpt lat="45.95926" lon="6.5669">
        <ele>1893.3</ele>
        <time>2026-02-02T08:02:18Z</time>
      </trkpt>
      <trkpt lat="45.95926" lon="6.5669">
        <ele>1893.3</ele>
        <time>2026-02-02T08:02:19Z</time>
      </trkpt>
      <trkpt lat="45.95926" lon="6.56689">
        <ele>1893.3</ele>
        <time>2026-02-02T08:02:20Z</time>
      </trkpt>
      <trkpt lat="45.95926" lon="6.56688">
        <ele>1893.3</ele>
        <time>2026-02-02T08:02:21Z</time>
      </trkpt>
      <trkpt lat="45.95926" lon="6.56687">
        <ele>1893.3</ele>
        <time>2026-02-02T08:02:22Z</time>
      </trkpt>
      <trkpt lat="45.95927" lon="6.56687">
        <ele>1892.3</ele>
        <time>2026-02-02T08:02:23Z</time>
      </trkpt>
      <trkpt lat="45.95927" lon="6.56686">
        <ele>1892.9</ele>
        <time>2026-02-02T08:02:24Z</time>
      </trkpt>
      <trkpt lat="45.95927" lon="6.56685">
        <ele>1892.9</ele>
        <time>2026-02-02T08:02:25Z</time>
      </trkpt>
      <trkpt lat="45.95928" lon="6.56684">
        <ele>1892.9</ele>
        <time>2026-02-02T08:02:26Z</time>
      </trkpt>
      <trkpt lat="45.95927" lon="6.56684">
        <ele>1893</ele>
        <time>2026-02-02T08:02:27Z</time>
      </trkpt>
      <trkpt lat="45.95927" lon="6.56682">
        <ele>1893</ele>
        <time>2026-02-02T08:02:28Z</time>
      </trkpt>
      <trkpt lat="45.95927" lon="6.5668">
        <ele>1893.6</ele>
        <time>2026-02-02T08:02:29Z</time>
      </trkpt>
      <trkpt lat="45.95927" lon="6.56679">
        <ele>1893.6</ele>
        <time>2026-02-02T08:02:30Z</time>
      </trkpt>
      <trkpt lat="45.95928" lon="6.56677">
        <ele>1894.3</ele>
        <time>2026-02-02T08:02:31Z</time>
      </trkpt>
      <trkpt lat="45.95928" lon="6.56676">
        <ele>1894.3</ele>
        <time>2026-02-02T08:02:32Z</time>
      </trkpt>
      <trkpt lat="45.95928" lon="6.56675">
        <ele>1894.3</ele>
        <time>2026-02-02T08:02:33Z</time>
      </trkpt>
      <trkpt lat="45.95927" lon="6.56675">
        <ele>1894.3</ele>
        <time>2026-02-02T08:02:34Z</time>
      </trkpt>
      <trkpt lat="45.95927" lon="6.56674">
        <ele>1894.3</ele>
        <time>2026-02-02T08:02:35Z</time>
      </trkpt>
      <trkpt lat="45.95927" lon="6.56673">
        <ele>1895</ele>
        <time>2026-02-02T08:02:36Z</time>
      </trkpt>
      <trkpt lat="45.95927" lon="6.56671">
        <ele>1895</ele>
        <time>2026-02-02T08:02:37Z</time>
      </trkpt>
      <trkpt lat="45.95927" lon="6.5667">
        <ele>1895</ele>
        <time>2026-02-02T08:02:38Z</time>
      </trkpt>
      <trkpt lat="45.95926" lon="6.5667">
        <ele>1896</ele>
        <time>2026-02-02T08:02:39Z</time>
      </trkpt>
      <trkpt lat="45.95926" lon="6.56671">
        <ele>1896</ele>
        <time>2026-02-02T08:02:40Z</time>
      </trkpt>
      <trkpt lat="45.95925" lon="6.56671">
        <ele>1896</ele>
        <time>2026-02-02T08:02:41Z</time>
      </trkpt>
      <trkpt lat="45.95924" lon="6.56672">
        <ele>1896</ele>
        <time>2026-02-02T08:02:42Z</time>
      </trkpt>
      <trkpt lat="45.95922" lon="6.56672">
        <ele>1897</ele>
        <time>2026-02-02T08:02:43Z</time>
      </trkpt>
      <trkpt lat="45.95921" lon="6.56672">
        <ele>1897</ele>
        <time>2026-02-02T08:02:44Z</time>
      </trkpt>
      <trkpt lat="45.95921" lon="6.56672">
        <ele>1898.2</ele>
        <time>2026-02-02T08:02:45Z</time>
      </trkpt>
      <trkpt lat="45.9592" lon="6.56672">
        <ele>1898.2</ele>
        <time>2026-02-02T08:02:46Z</time>
      </trkpt>
      <trkpt lat="45.9592" lon="6.56672">
        <ele>1898.2</ele>
        <time>2026-02-02T08:02:47Z</time>
      </trkpt>
      <trkpt lat="45.95919" lon="6.56672">
        <ele>1898.2</ele>
        <time>2026-02-02T08:02:48Z</time>
      </trkpt>
      <trkpt lat="45.95918" lon="6.56673">
        <ele>1898.2</ele>
        <time>2026-02-02T08:02:49Z</time>
      </trkpt>
      <trkpt lat="45.95917" lon="6.56673">
        <ele>1899.5</ele>
        <time>2026-02-02T08:02:50Z</time>
      </trkpt>
      <trkpt lat="45.95916" lon="6.56674">
        <ele>1898.8</ele>
        <time>2026-02-02T08:02:51Z</time>
      </trkpt>
      <trkpt lat="45.95916" lon="6.56673">
        <ele>1899.5</ele>
        <time>2026-02-02T08:02:52Z</time>
      </trkpt>
      <trkpt lat="45.95915" lon="6.56674">
        <ele>1898.9</ele>
        <time>2026-02-02T08:02:53Z</time>
      </trkpt>
      <trkpt lat="45.95915" lon="6.56674">
        <ele>1898.9</ele>
        <time>2026-02-02T08:02:54Z</time>
      </trkpt>
      <trkpt lat="45.95915" lon="6.56675">
        <ele>1898.9</ele>
        <time>2026-02-02T08:02:55Z</time>
      </trkpt>
      <trkpt lat="45.95916" lon="6.56676">
        <ele>1898.9</ele>
        <time>2026-02-02T08:02:56Z</time>
      </trkpt>
      <trkpt lat="45.95916" lon="6.56676">
        <ele>1898.9</ele>
        <time>2026-02-02T08:02:57Z</time>
      </trkpt>
      <trkpt lat="45.95916" lon="6.56676">
        <ele>1898.9</ele>
        <time>2026-02-02T08:02:58Z</time>
      </trkpt>
      <trkpt lat="45.95916" lon="6.56676">
        <ele>1898.9</ele>
        <time>2026-02-02T08:02:59Z</time>
      </trkpt>
      <trkpt lat="45.95916" lon="6.56676">
        <ele>1898.9</ele>
        <time>2026-02-02T08:03:00Z</time>
      </trkpt>
      <trkpt lat="45.95916" lon="6.56676">
        <ele>1898.9</ele>
        <time>2026-02-02T08:03:01Z</time>
      </trkpt>
      <trkpt lat="45.95916" lon="6.56676">
        <ele>1898.9</ele>
        <time>2026-02-02T08:03:02Z</time>
      </trkpt>
      <trkpt lat="45.95916" lon="6.56676">
        <ele>1898.9</ele>
        <time>2026-02-02T08:03:03Z</time>
      </trkpt>
      <trkpt lat="45.95915" lon="6.56676">
        <ele>1898.9</ele>
        <time>2026-02-02T08:03:04Z</time>
      </trkpt>
      <trkpt lat="45.95914" lon="6.56676">
        <ele>1900.3</ele>
        <time>2026-02-02T08:03:05Z</time>
      </trkpt>
      <trkpt lat="45.95914" lon="6.56675">
        <ele>1900.3</ele>
        <time>2026-02-02T08:03:06Z</time>
      </trkpt>
      <trkpt lat="45.95913" lon="6.56676">
        <ele>1900.3</ele>
        <time>2026-02-02T08:03:07Z</time>
      </trkpt>
      <trkpt lat="45.95912" lon="6.56677">
        <ele>1900.3</ele>
        <time>2026-02-02T08:03:08Z</time>
      </trkpt>
      <trkpt lat="45.95911" lon="6.56677">
        <ele>1901.7</ele>
        <time>2026-02-02T08:03:09Z</time>
      </trkpt>
      <trkpt lat="45.9591" lon="6.56678">
        <ele>1901.7</ele>
        <time>2026-02-02T08:03:10Z</time>
      </trkpt>
      <trkpt lat="45.95909" lon="6.56678">
        <ele>1901</ele>
        <time>2026-02-02T08:03:11Z</time>
      </trkpt>
      <trkpt lat="45.95909" lon="6.56678">
        <ele>1902.3</ele>
        <time>2026-02-02T08:03:12Z</time>
      </trkpt>
      <trkpt lat="45.95908" lon="6.56679">
        <ele>1902.3</ele>
        <time>2026-02-02T08:03:13Z</time>
      </trkpt>
      <trkpt lat="45.95907" lon="6.5668">
        <ele>1902.3</ele>
        <time>2026-02-02T08:03:14Z</time>
      </trkpt>
      <trkpt lat="45.95906" lon="6.5668">
        <ele>1902.3</ele>
        <time>2026-02-02T08:03:15Z</time>
      </trkpt>
      <trkpt lat="45.95906" lon="6.5668">
        <ele>1902.3</ele>
        <time>2026-02-02T08:03:16Z</time>
      </trkpt>
      <trkpt lat="45.95905" lon="6.56681">
        <ele>1903.5</ele>
        <time>2026-02-02T08:03:17Z</time>
      </trkpt>
      <trkpt lat="45.95904" lon="6.56681">
        <ele>1903.5</ele>
        <time>2026-02-02T08:03:18Z</time>
      </trkpt>
      <trkpt lat="45.95904" lon="6.56682">
        <ele>1902.9</ele>
        <time>2026-02-02T08:03:19Z</time>
      </trkpt>
      <trkpt lat="45.95904" lon="6.56683">
        <ele>1902.9</ele>
        <time>2026-02-02T08:03:20Z</time>
      </trkpt>
      <trkpt lat="45.95903" lon="6.56684">
        <ele>1902.9</ele>
        <time>2026-02-02T08:03:21Z</time>
      </trkpt>
      <trkpt lat="45.95903" lon="6.56685">
        <ele>1902.9</ele>
        <time>2026-02-02T08:03:22Z</time>
      </trkpt>
      <trkpt lat="45.95902" lon="6.56685">
        <ele>1904</ele>
        <time>2026-02-02T08:03:23Z</time>
      </trkpt>
      <trkpt lat="45.95901" lon="6.56686">
        <ele>1904</ele>
        <time>2026-02-02T08:03:24Z</time>
      </trkpt>
      <trkpt lat="45.959" lon="6.56687">
        <ele>1903.4</ele>
        <time>2026-02-02T08:03:25Z</time>
      </trkpt>
      <trkpt lat="45.95899" lon="6.56687">
        <ele>1904.5</ele>
        <time>2026-02-02T08:03:26Z</time>
      </trkpt>
      <trkpt lat="45.95899" lon="6.56688">
        <ele>1904.5</ele>
        <time>2026-02-02T08:03:27Z</time>
      </trkpt>
      <trkpt lat="45.95898" lon="6.56688">
        <ele>1904.5</ele>
        <time>2026-02-02T08:03:28Z</time>
      </trkpt>
      <trkpt lat="45.95897" lon="6.56689">
        <ele>1904.5</ele>
        <time>2026-02-02T08:03:29Z</time>
      </trkpt>
      <trkpt lat="45.95897" lon="6.56689">
        <ele>1904.5</ele>
        <time>2026-02-02T08:03:30Z</time>
      </trkpt>
      <trkpt lat="45.95897" lon="6.56689">
        <ele>1904.5</ele>
        <time>2026-02-02T08:03:31Z</time>
      </trkpt>
      <trkpt lat="45.95897" lon="6.56689">
        <ele>1904.5</ele>
        <time>2026-02-02T08:03:32Z</time>
      </trkpt>
      <trkpt lat="45.95897" lon="6.56689">
        <ele>1904.6</ele>
        <time>2026-02-02T08:03:33Z</time>
      </trkpt>
      <trkpt lat="45.95897" lon="6.56689">
        <ele>1904.6</ele>
        <time>2026-02-02T08:03:34Z</time>
      </trkpt>
      <trkpt lat="45.95897" lon="6.56689">
        <ele>1904.6</ele>
        <time>2026-02-02T08:03:35Z</time>
      </trkpt>
      <trkpt lat="45.95897" lon="6.56689">
        <ele>1904.6</ele>
        <time>2026-02-02T08:03:36Z</time>
      </trkpt>
      <trkpt lat="45.95897" lon="6.5669">
        <ele>1904.6</ele>
        <time>2026-02-02T08:03:37Z</time>
      </trkpt>
      <trkpt lat="45.95897" lon="6.56689">
        <ele>1904.6</ele>
        <time>2026-02-02T08:03:38Z</time>
      </trkpt>
      <trkpt lat="45.95897" lon="6.5669">
        <ele>1905.8</ele>
        <time>2026-02-02T08:03:39Z</time>
      </trkpt>
      <trkpt lat="45.95896" lon="6.5669">
        <ele>1905.8</ele>
        <time>2026-02-02T08:03:40Z</time>
      </trkpt>
      <trkpt lat="45.95896" lon="6.5669">
        <ele>1905.8</ele>
        <time>2026-02-02T08:03:41Z</time>
      </trkpt>
      <trkpt lat="45.95896" lon="6.5669">
        <ele>1905.8</ele>
        <time>2026-02-02T08:03:42Z</time>
      </trkpt>
      <trkpt lat="45.95896" lon="6.5669">
        <ele>1905.8</ele>
        <time>2026-02-02T08:03:43Z</time>
      </trkpt>
      <trkpt lat="45.95896" lon="6.5669">
        <ele>1905.9</ele>
        <time>2026-02-02T08:03:44Z</time>
      </trkpt>
      <trkpt lat="45.95895" lon="6.5669">
        <ele>1905.9</ele>
        <time>2026-02-02T08:03:45Z</time>
      </trkpt>
      <trkpt lat="45.95895" lon="6.56691">
        <ele>1905.2</ele>
        <time>2026-02-02T08:03:46Z</time>
      </trkpt>
      <trkpt lat="45.95894" lon="6.56691">
        <ele>1905.2</ele>
        <time>2026-02-02T08:03:47Z</time>
      </trkpt>
      <trkpt lat="45.95893" lon="6.56692">
        <ele>1906.6</ele>
        <time>2026-02-02T08:03:48Z</time>
      </trkpt>
      <trkpt lat="45.95893" lon="6.56692">
        <ele>1906.6</ele>
        <time>2026-02-02T08:03:49Z</time>
      </trkpt>
      <trkpt lat="45.95892" lon="6.56693">
        <ele>1906.6</ele>
        <time>2026-02-02T08:03:50Z</time>
      </trkpt>
      <trkpt lat="45.95891" lon="6.56693">
        <ele>1906.6</ele>
        <time>2026-02-02T08:03:51Z</time>
      </trkpt>
      <trkpt lat="45.9589" lon="6.56694">
        <ele>1908.1</ele>
        <time>2026-02-02T08:03:52Z</time>
      </trkpt>
      <trkpt lat="45.9589" lon="6.56693">
        <ele>1908.1</ele>
        <time>2026-02-02T08:03:53Z</time>
      </trkpt>
      <trkpt lat="45.95889" lon="6.56694">
        <ele>1908.1</ele>
        <time>2026-02-02T08:03:54Z</time>
      </trkpt>
      <trkpt lat="45.95889" lon="6.56694">
        <ele>1908.1</ele>
        <time>2026-02-02T08:03:55Z</time>
      </trkpt>
      <trkpt lat="45.95888" lon="6.56694">
        <ele>1909.6</ele>
        <time>2026-02-02T08:03:56Z</time>
      </trkpt>
      <trkpt lat="45.95886" lon="6.56694">
        <ele>1909.6</ele>
        <time>2026-02-02T08:03:57Z</time>
      </trkpt>
      <trkpt lat="45.95885" lon="6.56694">
        <ele>1911</ele>
        <time>2026-02-02T08:03:58Z</time>
      </trkpt>
      <trkpt lat="45.95883" lon="6.56695">
        <ele>1911</ele>
        <time>2026-02-02T08:03:59Z</time>
      </trkpt>
      <trkpt lat="45.95883" lon="6.56695">
        <ele>1910.4</ele>
        <time>2026-02-02T08:04:00Z</time>
      </trkpt>
      <trkpt lat="45.95882" lon="6.56695">
        <ele>1910.4</ele>
        <time>2026-02-02T08:04:01Z</time>
      </trkpt>
      <trkpt lat="45.95881" lon="6.56696">
        <ele>1911.7</ele>
        <time>2026-02-02T08:04:02Z</time>
      </trkpt>
      <trkpt lat="45.95881" lon="6.56696">
        <ele>1911.7</ele>
        <time>2026-02-02T08:04:03Z</time>
      </trkpt>
      <trkpt lat="45.9588" lon="6.56697">
        <ele>1911.7</ele>
        <time>2026-02-02T08:04:04Z</time>
      </trkpt>
      <trkpt lat="45.95879" lon="6.56697">
        <ele>1911.7</ele>
        <time>2026-02-02T08:04:05Z</time>
      </trkpt>
      <trkpt lat="45.95878" lon="6.56697">
        <ele>1913.7</ele>
        <time>2026-02-02T08:04:06Z</time>
      </trkpt>
      <trkpt lat="45.95878" lon="6.56697">
        <ele>1913.7</ele>
        <time>2026-02-02T08:04:07Z</time>
      </trkpt>
      <trkpt lat="45.95877" lon="6.56698">
        <ele>1913.7</ele>
        <time>2026-02-02T08:04:08Z</time>
      </trkpt>
      <trkpt lat="45.95876" lon="6.56699">
        <ele>1913.7</ele>
        <time>2026-02-02T08:04:09Z</time>
      </trkpt>
      <trkpt lat="45.95875" lon="6.56699">
        <ele>1914.3</ele>
        <time>2026-02-02T08:04:10Z</time>
      </trkpt>
      <trkpt lat="45.95875" lon="6.56699">
        <ele>1915</ele>
        <time>2026-02-02T08:04:11Z</time>
      </trkpt>
      <trkpt lat="45.95874" lon="6.56699">
        <ele>1914.3</ele>
        <time>2026-02-02T08:04:12Z</time>
      </trkpt>
      <trkpt lat="45.95873" lon="6.567">
        <ele>1914.3</ele>
        <time>2026-02-02T08:04:13Z</time>
      </trkpt>
      <trkpt lat="45.95872" lon="6.567">
        <ele>1915.7</ele>
        <time>2026-02-02T08:04:14Z</time>
      </trkpt>
      <trkpt lat="45.95871" lon="6.567">
        <ele>1915.7</ele>
        <time>2026-02-02T08:04:15Z</time>
      </trkpt>
      <trkpt lat="45.9587" lon="6.567">
        <ele>1915.7</ele>
        <time>2026-02-02T08:04:16Z</time>
      </trkpt>
      <trkpt lat="45.9587" lon="6.56701">
        <ele>1917.1</ele>
        <time>2026-02-02T08:04:17Z</time>
      </trkpt>
      <trkpt lat="45.9587" lon="6.56701">
        <ele>1917.1</ele>
        <time>2026-02-02T08:04:18Z</time>
      </trkpt>
      <trkpt lat="45.9587" lon="6.56701">
        <ele>1915.7</ele>
        <time>2026-02-02T08:04:19Z</time>
      </trkpt>
      <trkpt lat="45.9587" lon="6.56701">
        <ele>1915.7</ele>
        <time>2026-02-02T08:04:20Z</time>
      </trkpt>
      <trkpt lat="45.9587" lon="6.56701">
        <ele>1915.7</ele>
        <time>2026-02-02T08:04:21Z</time>
      </trkpt>
      <trkpt lat="45.9587" lon="6.56701">
        <ele>1915.7</ele>
        <time>2026-02-02T08:04:22Z</time>
      </trkpt>
      <trkpt lat="45.9587" lon="6.56701">
        <ele>1915.7</ele>
        <time>2026-02-02T08:04:23Z</time>
      </trkpt>
      <trkpt lat="45.9587" lon="6.56701">
        <ele>1915.7</ele>
        <time>2026-02-02T08:04:24Z</time>
      </trkpt>
      <trkpt lat="45.9587" lon="6.56701">
        <ele>1915.7</ele>
        <time>2026-02-02T08:04:25Z</time>
      </trkpt>
      <trkpt lat="45.9587" lon="6.56701">
        <ele>1915.7</ele>
        <time>2026-02-02T08:04:26Z</time>
      </trkpt>
      <trkpt lat="45.9587" lon="6.56701">
        <ele>1915.7</ele>
        <time>2026-02-02T08:04:27Z</time>
      </trkpt>
      <trkpt lat="45.9587" lon="6.56701">
        <ele>1915.7</ele>
        <time>2026-02-02T08:04:28Z</time>
      </trkpt>
      <trkpt lat="45.9587" lon="6.56701">
        <ele>1915.7</ele>
        <time>2026-02-02T08:04:29Z</time>
      </trkpt>
      <trkpt lat="45.95871" lon="6.567">
        <ele>1915.7</ele>
        <time>2026-02-02T08:04:30Z</time>
      </trkpt>
      <trkpt lat="45.95869" lon="6.56701">
        <ele>1917.1</ele>
        <time>2026-02-02T08:04:31Z</time>
      </trkpt>
      <trkpt lat="45.95869" lon="6.56701">
        <ele>1917.1</ele>
        <time>2026-02-02T08:04:32Z</time>
      </trkpt>
      <trkpt lat="45.95868" lon="6.56701">
        <ele>1917.1</ele>
        <time>2026-02-02T08:04:33Z</time>
      </trkpt>
      <trkpt lat="45.95867" lon="6.56702">
        <ele>1917.2</ele>
        <time>2026-02-02T08:04:34Z</time>
      </trkpt>
      <trkpt lat="45.95867" lon="6.56702">
        <ele>1918.6</ele>
        <time>2026-02-02T08:04:35Z</time>
      </trkpt>
      <trkpt lat="45.95866" lon="6.56702">
        <ele>1918.6</ele>
        <time>2026-02-02T08:04:36Z</time>
      </trkpt>
      <trkpt lat="45.95866" lon="6.56703">
        <ele>1918.6</ele>
        <time>2026-02-02T08:04:37Z</time>
      </trkpt>
      <trkpt lat="45.95865" lon="6.56704">
        <ele>1917.9</ele>
        <time>2026-02-02T08:04:38Z</time>
      </trkpt>
      <trkpt lat="45.95865" lon="6.56704">
        <ele>1917.9</ele>
        <time>2026-02-02T08:04:39Z</time>
      </trkpt>
      <trkpt lat="45.95864" lon="6.56704">
        <ele>1918</ele>
        <time>2026-02-02T08:04:40Z</time>
      </trkpt>
      <trkpt lat="45.95864" lon="6.56704">
        <ele>1918</ele>
        <time>2026-02-02T08:04:41Z</time>
      </trkpt>
      <trkpt lat="45.95864" lon="6.56704">
        <ele>1918</ele>
        <time>2026-02-02T08:04:42Z</time>
      </trkpt>
      <trkpt lat="45.95865" lon="6.56704">
        <ele>1918</ele>
        <time>2026-02-02T08:04:43Z</time>
      </trkpt>
      <trkpt lat="45.95865" lon="6.56704">
        <ele>1918</ele>
        <time>2026-02-02T08:04:44Z</time>
      </trkpt>
      <trkpt lat="45.95865" lon="6.56703">
        <ele>1918.6</ele>
        <time>2026-02-02T08:04:45Z</time>
      </trkpt>
      <trkpt lat="45.95864" lon="6.56703">
        <ele>1918.6</ele>
        <time>2026-02-02T08:04:46Z</time>
      </trkpt>
      <trkpt lat="45.95865" lon="6.56702">
        <ele>1918.7</ele>
        <time>2026-02-02T08:04:47Z</time>
      </trkpt>
      <trkpt lat="45.95865" lon="6.56702">
        <ele>1918.7</ele>
        <time>2026-02-02T08:04:48Z</time>
      </trkpt>
      <trkpt lat="45.95865" lon="6.56701">
        <ele>1918.7</ele>
        <time>2026-02-02T08:04:49Z</time>
      </trkpt>
      <trkpt lat="45.95866" lon="6.567">
        <ele>1918.7</ele>
        <time>2026-02-02T08:04:50Z</time>
      </trkpt>
      <trkpt lat="45.95866" lon="6.56699">
        <ele>1919.4</ele>
        <time>2026-02-02T08:04:51Z</time>
      </trkpt>
      <trkpt lat="45.95867" lon="6.56698">
        <ele>1919.4</ele>
        <time>2026-02-02T08:04:52Z</time>
      </trkpt>
      <trkpt lat="45.95867" lon="6.56696">
        <ele>1918</ele>
        <time>2026-02-02T08:04:53Z</time>
      </trkpt>
      <trkpt lat="45.95867" lon="6.56695">
        <ele>1918.7</ele>
        <time>2026-02-02T08:04:54Z</time>
      </trkpt>
      <trkpt lat="45.95868" lon="6.56693">
        <ele>1918.7</ele>
        <time>2026-02-02T08:04:55Z</time>
      </trkpt>
      <trkpt lat="45.95868" lon="6.56692">
        <ele>1918.7</ele>
        <time>2026-02-02T08:04:56Z</time>
      </trkpt>
      <trkpt lat="45.95868" lon="6.56691">
        <ele>1918.8</ele>
        <time>2026-02-02T08:04:57Z</time>
      </trkpt>
      <trkpt lat="45.95868" lon="6.56691">
        <ele>1918.8</ele>
        <time>2026-02-02T08:04:58Z</time>
      </trkpt>
      <trkpt lat="45.95868" lon="6.5669">
        <ele>1919.6</ele>
        <time>2026-02-02T08:04:59Z</time>
      </trkpt>
      <trkpt lat="45.95869" lon="6.56689">
        <ele>1919.6</ele>
        <time>2026-02-02T08:05:00Z</time>
      </trkpt>
      <trkpt lat="45.95869" lon="6.56689">
        <ele>1919.6</ele>
        <time>2026-02-02T08:05:01Z</time>
      </trkpt>
      <trkpt lat="45.95868" lon="6.56688">
        <ele>1919.6</ele>
        <time>2026-02-02T08:05:02Z</time>
      </trkpt>
      <trkpt lat="45.95868" lon="6.56688">
        <ele>1919.6</ele>
        <time>2026-02-02T08:05:03Z</time>
      </trkpt>
      <trkpt lat="45.95868" lon="6.56688">
        <ele>1919.6</ele>
        <time>2026-02-02T08:05:04Z</time>
      </trkpt>
      <trkpt lat="45.95868" lon="6.56688">
        <ele>1919.6</ele>
        <time>2026-02-02T08:05:05Z</time>
      </trkpt>
      <trkpt lat="45.95868" lon="6.56688">
        <ele>1919.6</ele>
        <time>2026-02-02T08:05:06Z</time>
      </trkpt>
      <trkpt lat="45.95868" lon="6.56688">
        <ele>1919.6</ele>
        <time>2026-02-02T08:05:07Z</time>
      </trkpt>
      <trkpt lat="45.95868" lon="6.56688">
        <ele>1919.7</ele>
        <time>2026-02-02T08:05:08Z</time>
      </trkpt>
      <trkpt lat="45.95868" lon="6.56688">
        <ele>1919.7</ele>
        <time>2026-02-02T08:05:09Z</time>
      </trkpt>
      <trkpt lat="45.95868" lon="6.56688">
        <ele>1919.7</ele>
        <time>2026-02-02T08:05:10Z</time>
      </trkpt>
      <trkpt lat="45.95868" lon="6.56688">
        <ele>1919.7</ele>
        <time>2026-02-02T08:05:11Z</time>
      </trkpt>
      <trkpt lat="45.95868" lon="6.56688">
        <ele>1919.7</ele>
        <time>2026-02-02T08:05:12Z</time>
      </trkpt>
      <trkpt lat="45.95868" lon="6.56688">
        <ele>1919.7</ele>
        <time>2026-02-02T08:05:13Z</time>
      </trkpt>
      <trkpt lat="45.95868" lon="6.56688">
        <ele>1919.7</ele>
        <time>2026-02-02T08:05:14Z</time>
      </trkpt>
      <trkpt lat="45.95868" lon="6.56687">
        <ele>1919.7</ele>
        <time>2026-02-02T08:05:15Z</time>
      </trkpt>
      <trkpt lat="45.95869" lon="6.56686">
        <ele>1920.6</ele>
        <time>2026-02-02T08:05:16Z</time>
      </trkpt>
      <trkpt lat="45.9587" lon="6.56684">
        <ele>1919.1</ele>
        <time>2026-02-02T08:05:17Z</time>
      </trkpt>
      <trkpt lat="45.95871" lon="6.56683">
        <ele>1919.1</ele>
        <time>2026-02-02T08:05:18Z</time>
      </trkpt>
      <trkpt lat="45.95871" lon="6.56682">
        <ele>1920</ele>
        <time>2026-02-02T08:05:19Z</time>
      </trkpt>
      <trkpt lat="45.95872" lon="6.56681">
        <ele>1920</ele>
        <time>2026-02-02T08:05:20Z</time>
      </trkpt>
      <trkpt lat="45.95872" lon="6.5668">
        <ele>1920</ele>
        <time>2026-02-02T08:05:21Z</time>
      </trkpt>
      <trkpt lat="45.95872" lon="6.56679">
        <ele>1920</ele>
        <time>2026-02-02T08:05:22Z</time>
      </trkpt>
      <trkpt lat="45.95872" lon="6.56678">
        <ele>1920.1</ele>
        <time>2026-02-02T08:05:23Z</time>
      </trkpt>
      <trkpt lat="45.95872" lon="6.56677">
        <ele>1921</ele>
        <time>2026-02-02T08:05:24Z</time>
      </trkpt>
      <trkpt lat="45.95872" lon="6.56677">
        <ele>1921</ele>
        <time>2026-02-02T08:05:25Z</time>
      </trkpt>
      <trkpt lat="45.95872" lon="6.56675">
        <ele>1921</ele>
        <time>2026-02-02T08:05:26Z</time>
      </trkpt>
      <trkpt lat="45.95872" lon="6.56674">
        <ele>1921</ele>
        <time>2026-02-02T08:05:27Z</time>
      </trkpt>
      <trkpt lat="45.95872" lon="6.56673">
        <ele>1922.1</ele>
        <time>2026-02-02T08:05:28Z</time>
      </trkpt>
      <trkpt lat="45.95872" lon="6.56672">
        <ele>1922.1</ele>
        <time>2026-02-02T08:05:29Z</time>
      </trkpt>
      <trkpt lat="45.95873" lon="6.56671">
        <ele>1922.1</ele>
        <time>2026-02-02T08:05:30Z</time>
      </trkpt>
      <trkpt lat="45.95873" lon="6.5667">
        <ele>1920.5</ele>
        <time>2026-02-02T08:05:31Z</time>
      </trkpt>
      <trkpt lat="45.95873" lon="6.56669">
        <ele>1921.6</ele>
        <time>2026-02-02T08:05:32Z</time>
      </trkpt>
      <trkpt lat="45.95873" lon="6.56668">
        <ele>1921.6</ele>
        <time>2026-02-02T08:05:33Z</time>
      </trkpt>
      <trkpt lat="45.95873" lon="6.56667">
        <ele>1921.6</ele>
        <time>2026-02-02T08:05:34Z</time>
      </trkpt>
      <trkpt lat="45.95873" lon="6.56666">
        <ele>1921.6</ele>
        <time>2026-02-02T08:05:35Z</time>
      </trkpt>
      <trkpt lat="45.95873" lon="6.56665">
        <ele>1921.6</ele>
        <time>2026-02-02T08:05:36Z</time>
      </trkpt>
      <trkpt lat="45.95872" lon="6.56664">
        <ele>1924.2</ele>
        <time>2026-02-02T08:05:37Z</time>
      </trkpt>
      <trkpt lat="45.95872" lon="6.56663">
        <ele>1924.2</ele>
        <time>2026-02-02T08:05:38Z</time>
      </trkpt>
      <trkpt lat="45.95872" lon="6.56662">
        <ele>1924.2</ele>
        <time>2026-02-02T08:05:39Z</time>
      </trkpt>
      <trkpt lat="45.95872" lon="6.56662">
        <ele>1924.2</ele>
        <time>2026-02-02T08:05:40Z</time>
      </trkpt>
      <trkpt lat="45.95872" lon="6.56661">
        <ele>1924.2</ele>
        <time>2026-02-02T08:05:41Z</time>
      </trkpt>
      <trkpt lat="45.95872" lon="6.56662">
        <ele>1924.3</ele>
        <time>2026-02-02T08:05:42Z</time>
      </trkpt>
      <trkpt lat="45.95872" lon="6.5666">
        <ele>1925.3</ele>
        <time>2026-02-02T08:05:43Z</time>
      </trkpt>
      <trkpt lat="45.95872" lon="6.5666">
        <ele>1925.3</ele>
        <time>2026-02-02T08:05:44Z</time>
      </trkpt>
      <trkpt lat="45.95872" lon="6.5666">
        <ele>1925.3</ele>
        <time>2026-02-02T08:05:45Z</time>
      </trkpt>
      <trkpt lat="45.95872" lon="6.5666">
        <ele>1925.3</ele>
        <time>2026-02-02T08:05:46Z</time>
      </trkpt>
      <trkpt lat="45.95872" lon="6.5666">
        <ele>1925.4</ele>
        <time>2026-02-02T08:05:47Z</time>
      </trkpt>
      <trkpt lat="45.95872" lon="6.5666">
        <ele>1925.4</ele>
        <time>2026-02-02T08:05:48Z</time>
      </trkpt>
      <trkpt lat="45.95872" lon="6.56661">
        <ele>1924.3</ele>
        <time>2026-02-02T08:05:49Z</time>
      </trkpt>
      <trkpt lat="45.95872" lon="6.56661">
        <ele>1924.3</ele>
        <time>2026-02-02T08:05:50Z</time>
      </trkpt>
      <trkpt lat="45.95872" lon="6.56661">
        <ele>1924.3</ele>
        <time>2026-02-02T08:05:51Z</time>
      </trkpt>
      <trkpt lat="45.95872" lon="6.56661">
        <ele>1924.3</ele>
        <time>2026-02-02T08:05:52Z</time>
      </trkpt>
      <trkpt lat="45.95872" lon="6.56661">
        <ele>1924.3</ele>
        <time>2026-02-02T08:05:53Z</time>
      </trkpt>
      <trkpt lat="45.95872" lon="6.56661">
        <ele>1924.3</ele>
        <time>2026-02-02T08:05:54Z</time>
      </trkpt>
      <trkpt lat="45.95872" lon="6.56661">
        <ele>1924.3</ele>
        <time>2026-02-02T08:05:55Z</time>
      </trkpt>
      <trkpt lat="45.95872" lon="6.56661">
        <ele>1924.3</ele>
        <time>2026-02-02T08:05:56Z</time>
      </trkpt>
      <trkpt lat="45.95872" lon="6.56661">
        <ele>1924.3</ele>
        <time>2026-02-02T08:05:57Z</time>
      </trkpt>
      <trkpt lat="45.95872" lon="6.56661">
        <ele>1924.3</ele>
        <time>2026-02-02T08:05:58Z</time>
      </trkpt>
      <trkpt lat="45.95872" lon="6.56661">
        <ele>1924.3</ele>
        <time>2026-02-02T08:05:59Z</time>
      </trkpt>
      <trkpt lat="45.95872" lon="6.56662">
        <ele>1924.4</ele>
        <time>2026-02-02T08:06:00Z</time>
      </trkpt>
      <trkpt lat="45.95871" lon="6.56662">
        <ele>1924.4</ele>
        <time>2026-02-02T08:06:01Z</time>
      </trkpt>
      <trkpt lat="45.9587" lon="6.56662">
        <ele>1924.4</ele>
        <time>2026-02-02T08:06:02Z</time>
      </trkpt>
      <trkpt lat="45.95869" lon="6.56663">
        <ele>1926.1</ele>
        <time>2026-02-02T08:06:03Z</time>
      </trkpt>
      <trkpt lat="45.95869" lon="6.56663">
        <ele>1926.1</ele>
        <time>2026-02-02T08:06:04Z</time>
      </trkpt>
      <trkpt lat="45.95868" lon="6.56663">
        <ele>1926.1</ele>
        <time>2026-02-02T08:06:05Z</time>
      </trkpt>
      <trkpt lat="45.95868" lon="6.56663">
        <ele>1926.1</ele>
        <time>2026-02-02T08:06:06Z</time>
      </trkpt>
      <trkpt lat="45.95867" lon="6.56664">
        <ele>1926.1</ele>
        <time>2026-02-02T08:06:07Z</time>
      </trkpt>
      <trkpt lat="45.95866" lon="6.56664">
        <ele>1927.8</ele>
        <time>2026-02-02T08:06:08Z</time>
      </trkpt>
      <trkpt lat="45.95865" lon="6.56664">
        <ele>1927.8</ele>
        <time>2026-02-02T08:06:09Z</time>
      </trkpt>
      <trkpt lat="45.95865" lon="6.56665">
        <ele>1926.7</ele>
        <time>2026-02-02T08:06:10Z</time>
      </trkpt>
      <trkpt lat="45.95864" lon="6.56666">
        <ele>1928.5</ele>
        <time>2026-02-02T08:06:11Z</time>
      </trkpt>
      <trkpt lat="45.95863" lon="6.56666">
        <ele>1928.5</ele>
        <time>2026-02-02T08:06:12Z</time>
      </trkpt>
      <trkpt lat="45.95862" lon="6.56666">
        <ele>1928.5</ele>
        <time>2026-02-02T08:06:13Z</time>
      </trkpt>
      <trkpt lat="45.95861" lon="6.56666">
        <ele>1930.3</ele>
        <time>2026-02-02T08:06:14Z</time>
      </trkpt>
      <trkpt lat="45.95859" lon="6.56667">
        <ele>1930.3</ele>
        <time>2026-02-02T08:06:15Z</time>
      </trkpt>
      <trkpt lat="45.95858" lon="6.56667">
        <ele>1930.3</ele>
        <time>2026-02-02T08:06:16Z</time>
      </trkpt>
      <trkpt lat="45.95858" lon="6.56667">
        <ele>1932.1</ele>
        <time>2026-02-02T08:06:17Z</time>
      </trkpt>
      <trkpt lat="45.95857" lon="6.56667">
        <ele>1932.1</ele>
        <time>2026-02-02T08:06:18Z</time>
      </trkpt>
      <trkpt lat="45.95856" lon="6.56668">
        <ele>1932.1</ele>
        <time>2026-02-02T08:06:19Z</time>
      </trkpt>
      <trkpt lat="45.95855" lon="6.56668">
        <ele>1932.1</ele>
        <time>2026-02-02T08:06:20Z</time>
      </trkpt>
      <trkpt lat="45.95855" lon="6.56669">
        <ele>1933.8</ele>
        <time>2026-02-02T08:06:21Z</time>
      </trkpt>
      <trkpt lat="45.95854" lon="6.5667">
        <ele>1932.6</ele>
        <time>2026-02-02T08:06:22Z</time>
      </trkpt>
      <trkpt lat="45.95853" lon="6.5667">
        <ele>1932.6</ele>
        <time>2026-02-02T08:06:23Z</time>
      </trkpt>
      <trkpt lat="45.95853" lon="6.5667">
        <ele>1932.6</ele>
        <time>2026-02-02T08:06:24Z</time>
      </trkpt>
      <trkpt lat="45.95852" lon="6.56671">
        <ele>1932.6</ele>
        <time>2026-02-02T08:06:25Z</time>
      </trkpt>
      <trkpt lat="45.95851" lon="6.56671">
        <ele>1934.3</ele>
        <time>2026-02-02T08:06:26Z</time>
      </trkpt>
      <trkpt lat="45.9585" lon="6.56672">
        <ele>1934.3</ele>
        <time>2026-02-02T08:06:27Z</time>
      </trkpt>
      <trkpt lat="45.95849" lon="6.56672">
        <ele>1934.3</ele>
        <time>2026-02-02T08:06:28Z</time>
      </trkpt>
      <trkpt lat="45.95849" lon="6.56672">
        <ele>1936</ele>
        <time>2026-02-02T08:06:29Z</time>
      </trkpt>
      <trkpt lat="45.95848" lon="6.56673">
        <ele>1936</ele>
        <time>2026-02-02T08:06:30Z</time>
      </trkpt>
      <trkpt lat="45.95848" lon="6.56673">
        <ele>1936</ele>
        <time>2026-02-02T08:06:31Z</time>
      </trkpt>
      <trkpt lat="45.95848" lon="6.56673">
        <ele>1936</ele>
        <time>2026-02-02T08:06:32Z</time>
      </trkpt>
      <trkpt lat="45.95849" lon="6.56673">
        <ele>1936</ele>
        <time>2026-02-02T08:06:33Z</time>
      </trkpt>
      <trkpt lat="45.95849" lon="6.56673">
        <ele>1936</ele>
        <time>2026-02-02T08:06:34Z</time>
      </trkpt>
      <trkpt lat="45.95849" lon="6.56673">
        <ele>1936</ele>
        <time>2026-02-02T08:06:35Z</time>
      </trkpt>
      <trkpt lat="45.95849" lon="6.56673">
        <ele>1936</ele>
        <time>2026-02-02T08:06:36Z</time>
      </trkpt>
      <trkpt lat="45.95849" lon="6.56673">
        <ele>1936</ele>
        <time>2026-02-02T08:06:37Z</time>
      </trkpt>
      <trkpt lat="45.95849" lon="6.56673">
        <ele>1936</ele>
        <time>2026-02-02T08:06:38Z</time>
      </trkpt>
      <trkpt lat="45.95849" lon="6.56673">
        <ele>1936</ele>
        <time>2026-02-02T08:06:39Z</time>
      </trkpt>
      <trkpt lat="45.95849" lon="6.56673">
        <ele>1936</ele>
        <time>2026-02-02T08:06:40Z</time>
      </trkpt>
      <trkpt lat="45.95849" lon="6.56673">
        <ele>1936</ele>
        <time>2026-02-02T08:06:41Z</time>
      </trkpt>
      <trkpt lat="45.95849" lon="6.56673">
        <ele>1936.1</ele>
        <time>2026-02-02T08:06:42Z</time>
      </trkpt>
      <trkpt lat="45.95849" lon="6.56673">
        <ele>1936.1</ele>
        <time>2026-02-02T08:06:43Z</time>
      </trkpt>
      <trkpt lat="45.95848" lon="6.56673">
        <ele>1936.1</ele>
        <time>2026-02-02T08:06:44Z</time>
      </trkpt>
      <trkpt lat="45.95848" lon="6.56673">
        <ele>1936.1</ele>
        <time>2026-02-02T08:06:45Z</time>
      </trkpt>
      <trkpt lat="45.95849" lon="6.56673">
        <ele>1936.1</ele>
        <time>2026-02-02T08:06:46Z</time>
      </trkpt>
      <trkpt lat="45.95848" lon="6.56674">
        <ele>1934.8</ele>
        <time>2026-02-02T08:06:47Z</time>
      </trkpt>
      <trkpt lat="45.95847" lon="6.56674">
        <ele>1934.8</ele>
        <time>2026-02-02T08:06:48Z</time>
      </trkpt>
      <trkpt lat="45.95846" lon="6.56675">
        <ele>1934.8</ele>
        <time>2026-02-02T08:06:49Z</time>
      </trkpt>
      <trkpt lat="45.95845" lon="6.56674">
        <ele>1936.4</ele>
        <time>2026-02-02T08:06:50Z</time>
      </trkpt>
      <trkpt lat="45.95843" lon="6.56674">
        <ele>1938</ele>
        <time>2026-02-02T08:06:51Z</time>
      </trkpt>
      <trkpt lat="45.95842" lon="6.56674">
        <ele>1938</ele>
        <time>2026-02-02T08:06:52Z</time>
      </trkpt>
      <trkpt lat="45.95841" lon="6.56674">
        <ele>1938</ele>
        <time>2026-02-02T08:06:53Z</time>
      </trkpt>
      <trkpt lat="45.9584" lon="6.56674">
        <ele>1939.7</ele>
        <time>2026-02-02T08:06:54Z</time>
      </trkpt>
      <trkpt lat="45.95839" lon="6.56674">
        <ele>1939.7</ele>
        <time>2026-02-02T08:06:55Z</time>
      </trkpt>
      <trkpt lat="45.95838" lon="6.56675">
        <ele>1939.7</ele>
        <time>2026-02-02T08:06:56Z</time>
      </trkpt>
      <trkpt lat="45.95838" lon="6.56675">
        <ele>1939.7</ele>
        <time>2026-02-02T08:06:57Z</time>
      </trkpt>
      <trkpt lat="45.95837" lon="6.56675">
        <ele>1939.7</ele>
        <time>2026-02-02T08:06:58Z</time>
      </trkpt>
      <trkpt lat="45.95836" lon="6.56675">
        <ele>1941.5</ele>
        <time>2026-02-02T08:06:59Z</time>
      </trkpt>
      <trkpt lat="45.95835" lon="6.56675">
        <ele>1941.5</ele>
        <time>2026-02-02T08:07:00Z</time>
      </trkpt>
      <trkpt lat="45.95835" lon="6.56675">
        <ele>1941.5</ele>
        <time>2026-02-02T08:07:01Z</time>
      </trkpt>
      <trkpt lat="45.95834" lon="6.56676">
        <ele>1941.5</ele>
        <time>2026-02-02T08:07:02Z</time>
      </trkpt>
      <trkpt lat="45.95833" lon="6.56676">
        <ele>1943.3</ele>
        <time>2026-02-02T08:07:03Z</time>
      </trkpt>
      <trkpt lat="45.95832" lon="6.56676">
        <ele>1943.3</ele>
        <time>2026-02-02T08:07:04Z</time>
      </trkpt>
      <trkpt lat="45.95832" lon="6.56677">
        <ele>1943.3</ele>
        <time>2026-02-02T08:07:05Z</time>
      </trkpt>
      <trkpt lat="45.95831" lon="6.56677">
        <ele>1945</ele>
        <time>2026-02-02T08:07:06Z</time>
      </trkpt>
      <trkpt lat="45.9583" lon="6.56677">
        <ele>1945</ele>
        <time>2026-02-02T08:07:07Z</time>
      </trkpt>
      <trkpt lat="45.95829" lon="6.56677">
        <ele>1945</ele>
        <time>2026-02-02T08:07:08Z</time>
      </trkpt>
      <trkpt lat="45.95828" lon="6.56678">
        <ele>1946.7</ele>
        <time>2026-02-02T08:07:09Z</time>
      </trkpt>
      <trkpt lat="45.95827" lon="6.56678">
        <ele>1945.3</ele>
        <time>2026-02-02T08:07:10Z</time>
      </trkpt>
      <trkpt lat="45.95826" lon="6.56678">
        <ele>1945.3</ele>
        <time>2026-02-02T08:07:11Z</time>
      </trkpt>
      <trkpt lat="45.95825" lon="6.56678">
        <ele>1946.8</ele>
        <time>2026-02-02T08:07:12Z</time>
      </trkpt>
      <trkpt lat="45.95824" lon="6.56679">
        <ele>1946.8</ele>
        <time>2026-02-02T08:07:13Z</time>
      </trkpt>
      <trkpt lat="45.95823" lon="6.56679">
        <ele>1946.8</ele>
        <time>2026-02-02T08:07:14Z</time>
      </trkpt>
      <trkpt lat="45.95823" lon="6.56679">
        <ele>1946.8</ele>
        <time>2026-02-02T08:07:15Z</time>
      </trkpt>
      <trkpt lat="45.95823" lon="6.56679">
        <ele>1946.8</ele>
        <time>2026-02-02T08:07:16Z</time>
      </trkpt>
      <trkpt lat="45.95823" lon="6.56679">
        <ele>1946.8</ele>
        <time>2026-02-02T08:07:17Z</time>
      </trkpt>
      <trkpt lat="45.95823" lon="6.56677">
        <ele>1948.2</ele>
        <time>2026-02-02T08:07:18Z</time>
      </trkpt>
      <trkpt lat="45.95823" lon="6.56676">
        <ele>1948.2</ele>
        <time>2026-02-02T08:07:19Z</time>
      </trkpt>
      <trkpt lat="45.95824" lon="6.56675">
        <ele>1948.2</ele>
        <time>2026-02-02T08:07:20Z</time>
      </trkpt>
      <trkpt lat="45.95824" lon="6.56674">
        <ele>1948.2</ele>
        <time>2026-02-02T08:07:21Z</time>
      </trkpt>
      <trkpt lat="45.95824" lon="6.56673">
        <ele>1949.5</ele>
        <time>2026-02-02T08:07:22Z</time>
      </trkpt>
      <trkpt lat="45.95824" lon="6.56672">
        <ele>1949.5</ele>
        <time>2026-02-02T08:07:23Z</time>
      </trkpt>
      <trkpt lat="45.95825" lon="6.56672">
        <ele>1949.5</ele>
        <time>2026-02-02T08:07:24Z</time>
      </trkpt>
      <trkpt lat="45.95825" lon="6.56671">
        <ele>1949.5</ele>
        <time>2026-02-02T08:07:25Z</time>
      </trkpt>
      <trkpt lat="45.95826" lon="6.56669">
        <ele>1948.1</ele>
        <time>2026-02-02T08:07:26Z</time>
      </trkpt>
      <trkpt lat="45.95827" lon="6.56669">
        <ele>1949.4</ele>
        <time>2026-02-02T08:07:27Z</time>
      </trkpt>
      <trkpt lat="45.95827" lon="6.56669">
        <ele>1949.4</ele>
        <time>2026-02-02T08:07:28Z</time>
      </trkpt>
      <trkpt lat="45.95828" lon="6.56668">
        <ele>1949.4</ele>
        <time>2026-02-02T08:07:29Z</time>
      </trkpt>
      <trkpt lat="45.95828" lon="6.56667">
        <ele>1949.4</ele>
        <time>2026-02-02T08:07:30Z</time>
      </trkpt>
      <trkpt lat="45.95828" lon="6.56667">
        <ele>1949.4</ele>
        <time>2026-02-02T08:07:31Z</time>
      </trkpt>
      <trkpt lat="45.95828" lon="6.56667">
        <ele>1949.4</ele>
        <time>2026-02-02T08:07:32Z</time>
      </trkpt>
      <trkpt lat="45.95828" lon="6.56667">
        <ele>1949.4</ele>
        <time>2026-02-02T08:07:33Z</time>
      </trkpt>
      <trkpt lat="45.95828" lon="6.56667">
        <ele>1949.5</ele>
        <time>2026-02-02T08:07:34Z</time>
      </trkpt>
      <trkpt lat="45.95828" lon="6.56667">
        <ele>1949.5</ele>
        <time>2026-02-02T08:07:35Z</time>
      </trkpt>
      <trkpt lat="45.95828" lon="6.56667">
        <ele>1949.5</ele>
        <time>2026-02-02T08:07:36Z</time>
      </trkpt>
      <trkpt lat="45.95828" lon="6.56667">
        <ele>1949.5</ele>
        <time>2026-02-02T08:07:37Z</time>
      </trkpt>
      <trkpt lat="45.95828" lon="6.56667">
        <ele>1949.5</ele>
        <time>2026-02-02T08:07:38Z</time>
      </trkpt>
      <trkpt lat="45.95828" lon="6.56667">
        <ele>1949.5</ele>
        <time>2026-02-02T08:07:39Z</time>
      </trkpt>
      <trkpt lat="45.95828" lon="6.56667">
        <ele>1949.5</ele>
        <time>2026-02-02T08:07:40Z</time>
      </trkpt>
      <trkpt lat="45.95828" lon="6.56667">
        <ele>1949.5</ele>
        <time>2026-02-02T08:07:41Z</time>
      </trkpt>
      <trkpt lat="45.95828" lon="6.56667">
        <ele>1949.5</ele>
        <time>2026-02-02T08:07:42Z</time>
      </trkpt>
      <trkpt lat="45.95828" lon="6.56667">
        <ele>1949.5</ele>
        <time>2026-02-02T08:07:43Z</time>
      </trkpt>
      <trkpt lat="45.95828" lon="6.56667">
        <ele>1949.5</ele>
        <time>2026-02-02T08:07:44Z</time>
      </trkpt>
      <trkpt lat="45.95828" lon="6.56667">
        <ele>1949.5</ele>
        <time>2026-02-02T08:07:45Z</time>
      </trkpt>
      <trkpt lat="45.95828" lon="6.56667">
        <ele>1949.5</ele>
        <time>2026-02-02T08:07:46Z</time>
      </trkpt>
      <trkpt lat="45.95828" lon="6.56667">
        <ele>1949.5</ele>
        <time>2026-02-02T08:07:47Z</time>
      </trkpt>
      <trkpt lat="45.95828" lon="6.56667">
        <ele>1949.5</ele>
        <time>2026-02-02T08:07:48Z</time>
      </trkpt>
      <trkpt lat="45.95828" lon="6.56668">
        <ele>1949.5</ele>
        <time>2026-02-02T08:07:49Z</time>
      </trkpt>
      <trkpt lat="45.95828" lon="6.56667">
        <ele>1949.5</ele>
        <time>2026-02-02T08:07:50Z</time>
      </trkpt>
      <trkpt lat="45.95828" lon="6.56666">
        <ele>1949.5</ele>
        <time>2026-02-02T08:07:51Z</time>
      </trkpt>
      <trkpt lat="45.95829" lon="6.56666">
        <ele>1947.9</ele>
        <time>2026-02-02T08:07:52Z</time>
      </trkpt>
      <trkpt lat="45.95829" lon="6.56665">
        <ele>1949.2</ele>
        <time>2026-02-02T08:07:53Z</time>
      </trkpt>
      <trkpt lat="45.95829" lon="6.56665">
        <ele>1949.3</ele>
        <time>2026-02-02T08:07:54Z</time>
      </trkpt>
      <trkpt lat="45.95829" lon="6.56664">
        <ele>1949.3</ele>
        <time>2026-02-02T08:07:55Z</time>
      </trkpt>
      <trkpt lat="45.95829" lon="6.56662">
        <ele>1949.3</ele>
        <time>2026-02-02T08:07:56Z</time>
      </trkpt>
      <trkpt lat="45.9583" lon="6.56662">
        <ele>1949.3</ele>
        <time>2026-02-02T08:07:57Z</time>
      </trkpt>
      <trkpt lat="45.9583" lon="6.56661">
        <ele>1949.3</ele>
        <time>2026-02-02T08:07:58Z</time>
      </trkpt>
      <trkpt lat="45.95831" lon="6.56659">
        <ele>1950.6</ele>
        <time>2026-02-02T08:07:59Z</time>
      </trkpt>
      <trkpt lat="45.95832" lon="6.56658">
        <ele>1948.8</ele>
        <time>2026-02-02T08:08:00Z</time>
      </trkpt>
      <trkpt lat="45.95832" lon="6.56657">
        <ele>1948.8</ele>
        <time>2026-02-02T08:08:01Z</time>
      </trkpt>
      <trkpt lat="45.95833" lon="6.56655">
        <ele>1950.2</ele>
        <time>2026-02-02T08:08:02Z</time>
      </trkpt>
      <trkpt lat="45.95833" lon="6.56654">
        <ele>1950.2</ele>
        <time>2026-02-02T08:08:03Z</time>
      </trkpt>
      <trkpt lat="45.95833" lon="6.56653">
        <ele>1950.2</ele>
        <time>2026-02-02T08:08:04Z</time>
      </trkpt>
      <trkpt lat="45.95834" lon="6.56652">
        <ele>1950.2</ele>
        <time>2026-02-02T08:08:05Z</time>
      </trkpt>
      <trkpt lat="45.95833" lon="6.56651">
        <ele>1951.5</ele>
        <time>2026-02-02T08:08:06Z</time>
      </trkpt>
      <trkpt lat="45.95833" lon="6.56648">
        <ele>1951.5</ele>
        <time>2026-02-02T08:08:07Z</time>
      </trkpt>
      <trkpt lat="45.95834" lon="6.56647">
        <ele>1952.9</ele>
        <time>2026-02-02T08:08:08Z</time>
      </trkpt>
      <trkpt lat="45.95834" lon="6.56646">
        <ele>1952.9</ele>
        <time>2026-02-02T08:08:09Z</time>
      </trkpt>
      <trkpt lat="45.95834" lon="6.56645">
        <ele>1952.9</ele>
        <time>2026-02-02T08:08:10Z</time>
      </trkpt>
      <trkpt lat="45.95834" lon="6.56644">
        <ele>1951.1</ele>
        <time>2026-02-02T08:08:11Z</time>
      </trkpt>
      <trkpt lat="45.95834" lon="6.56644">
        <ele>1951.1</ele>
        <time>2026-02-02T08:08:12Z</time>
      </trkpt>
      <trkpt lat="45.95834" lon="6.56643">
        <ele>1952.5</ele>
        <time>2026-02-02T08:08:13Z</time>
      </trkpt>
      <trkpt lat="45.95834" lon="6.56643">
        <ele>1954.4</ele>
        <time>2026-02-02T08:08:14Z</time>
      </trkpt>
      <trkpt lat="45.95833" lon="6.56642">
        <ele>1954.4</ele>
        <time>2026-02-02T08:08:15Z</time>
      </trkpt>
      <trkpt lat="45.95832" lon="6.56643">
        <ele>1954.4</ele>
        <time>2026-02-02T08:08:16Z</time>
      </trkpt>
      <trkpt lat="45.95832" lon="6.56642">
        <ele>1954.4</ele>
        <time>2026-02-02T08:08:17Z</time>
      </trkpt>
      <trkpt lat="45.95831" lon="6.56642">
        <ele>1954.4</ele>
        <time>2026-02-02T08:08:18Z</time>
      </trkpt>
      <trkpt lat="45.9583" lon="6.56642">
        <ele>1956.2</ele>
        <time>2026-02-02T08:08:19Z</time>
      </trkpt>
      <trkpt lat="45.9583" lon="6.56642">
        <ele>1956.2</ele>
        <time>2026-02-02T08:08:20Z</time>
      </trkpt>
      <trkpt lat="45.95829" lon="6.56643">
        <ele>1956.2</ele>
        <time>2026-02-02T08:08:21Z</time>
      </trkpt>
      <trkpt lat="45.95828" lon="6.56643">
        <ele>1957.8</ele>
        <time>2026-02-02T08:08:22Z</time>
      </trkpt>
      <trkpt lat="45.95827" lon="6.56643">
        <ele>1957.8</ele>
        <time>2026-02-02T08:08:23Z</time>
      </trkpt>
      <trkpt lat="45.95827" lon="6.56643">
        <ele>1957.8</ele>
        <time>2026-02-02T08:08:24Z</time>
      </trkpt>
      <trkpt lat="45.95826" lon="6.56643">
        <ele>1957.8</ele>
        <time>2026-02-02T08:08:25Z</time>
      </trkpt>
      <trkpt lat="45.95826" lon="6.56642">
        <ele>1957.8</ele>
        <time>2026-02-02T08:08:26Z</time>
      </trkpt>
      <trkpt lat="45.95826" lon="6.56642">
        <ele>1957.8</ele>
        <time>2026-02-02T08:08:27Z</time>
      </trkpt>
      <trkpt lat="45.95826" lon="6.56642">
        <ele>1957.8</ele>
        <time>2026-02-02T08:08:28Z</time>
      </trkpt>
      <trkpt lat="45.95826" lon="6.56642">
        <ele>1957.8</ele>
        <time>2026-02-02T08:08:29Z</time>
      </trkpt>
      <trkpt lat="45.95826" lon="6.56642">
        <ele>1957.8</ele>
        <time>2026-02-02T08:08:30Z</time>
      </trkpt>
      <trkpt lat="45.95826" lon="6.56642">
        <ele>1957.9</ele>
        <time>2026-02-02T08:08:31Z</time>
      </trkpt>
      <trkpt lat="45.95826" lon="6.56642">
        <ele>1957.9</ele>
        <time>2026-02-02T08:08:32Z</time>
      </trkpt>
      <trkpt lat="45.95826" lon="6.56642">
        <ele>1957.9</ele>
        <time>2026-02-02T08:08:33Z</time>
      </trkpt>
      <trkpt lat="45.95826" lon="6.56642">
        <ele>1957.9</ele>
        <time>2026-02-02T08:08:34Z</time>
      </trkpt>
      <trkpt lat="45.95826" lon="6.56642">
        <ele>1957.9</ele>
        <time>2026-02-02T08:08:35Z</time>
      </trkpt>
      <trkpt lat="45.95826" lon="6.56642">
        <ele>1957.9</ele>
        <time>2026-02-02T08:08:36Z</time>
      </trkpt>
      <trkpt lat="45.95826" lon="6.56642">
        <ele>1957.9</ele>
        <time>2026-02-02T08:08:37Z</time>
      </trkpt>
      <trkpt lat="45.95826" lon="6.56642">
        <ele>1957.9</ele>
        <time>2026-02-02T08:08:38Z</time>
      </trkpt>
      <trkpt lat="45.95826" lon="6.56642">
        <ele>1957.9</ele>
        <time>2026-02-02T08:08:39Z</time>
      </trkpt>
      <trkpt lat="45.95826" lon="6.56642">
        <ele>1957.9</ele>
        <time>2026-02-02T08:08:40Z</time>
      </trkpt>
      <trkpt lat="45.95826" lon="6.56642">
        <ele>1957.9</ele>
        <time>2026-02-02T08:08:41Z</time>
      </trkpt>
      <trkpt lat="45.95826" lon="6.56642">
        <ele>1957.9</ele>
        <time>2026-02-02T08:08:42Z</time>
      </trkpt>
      <trkpt lat="45.95825" lon="6.56642">
        <ele>1959.3</ele>
        <time>2026-02-02T08:08:43Z</time>
      </trkpt>
      <trkpt lat="45.95824" lon="6.56643">
        <ele>1959.3</ele>
        <time>2026-02-02T08:08:44Z</time>
      </trkpt>
      <trkpt lat="45.95823" lon="6.56643">
        <ele>1959.4</ele>
        <time>2026-02-02T08:08:45Z</time>
      </trkpt>
      <trkpt lat="45.95822" lon="6.56643">
        <ele>1960.6</ele>
        <time>2026-02-02T08:08:46Z</time>
      </trkpt>
      <trkpt lat="45.95821" lon="6.56643">
        <ele>1960.6</ele>
        <time>2026-02-02T08:08:47Z</time>
      </trkpt>
      <trkpt lat="45.9582" lon="6.56643">
        <ele>1960.6</ele>
        <time>2026-02-02T08:08:48Z</time>
      </trkpt>
      <trkpt lat="45.95819" lon="6.56642">
        <ele>1960.6</ele>
        <time>2026-02-02T08:08:49Z</time>
      </trkpt>
      <trkpt lat="45.95818" lon="6.56642">
        <ele>1961.8</ele>
        <time>2026-02-02T08:08:50Z</time>
      </trkpt>
      <trkpt lat="45.95817" lon="6.56642">
        <ele>1961.8</ele>
        <time>2026-02-02T08:08:51Z</time>
      </trkpt>
      <trkpt lat="45.95816" lon="6.56641">
        <ele>1961.8</ele>
        <time>2026-02-02T08:08:52Z</time>
      </trkpt>
      <trkpt lat="45.95815" lon="6.56641">
        <ele>1962.9</ele>
        <time>2026-02-02T08:08:53Z</time>
      </trkpt>
      <trkpt lat="45.95815" lon="6.56641">
        <ele>1962.9</ele>
        <time>2026-02-02T08:08:54Z</time>
      </trkpt>
      <trkpt lat="45.95814" lon="6.56641">
        <ele>1962.9</ele>
        <time>2026-02-02T08:08:55Z</time>
      </trkpt>
      <trkpt lat="45.95814" lon="6.56641">
        <ele>1963</ele>
        <time>2026-02-02T08:08:56Z</time>
      </trkpt>
      <trkpt lat="45.95813" lon="6.56641">
        <ele>1964.2</ele>
        <time>2026-02-02T08:08:57Z</time>
      </trkpt>
      <trkpt lat="45.95812" lon="6.56642">
        <ele>1964.2</ele>
        <time>2026-02-02T08:08:58Z</time>
      </trkpt>
      <trkpt lat="45.95812" lon="6.56642">
        <ele>1964.2</ele>
        <time>2026-02-02T08:08:59Z</time>
      </trkpt>
      <trkpt lat="45.95812" lon="6.56642">
        <ele>1964.2</ele>
        <time>2026-02-02T08:09:00Z</time>
      </trkpt>
      <trkpt lat="45.95811" lon="6.56642">
        <ele>1964.2</ele>
        <time>2026-02-02T08:09:01Z</time>
      </trkpt>
      <trkpt lat="45.9581" lon="6.56642">
        <ele>1965.5</ele>
        <time>2026-02-02T08:09:02Z</time>
      </trkpt>
      <trkpt lat="45.95809" lon="6.56643">
        <ele>1965.5</ele>
        <time>2026-02-02T08:09:03Z</time>
      </trkpt>
      <trkpt lat="45.95809" lon="6.56642">
        <ele>1965.5</ele>
        <time>2026-02-02T08:09:04Z</time>
      </trkpt>
      <trkpt lat="45.95808" lon="6.56643">
        <ele>1965.5</ele>
        <time>2026-02-02T08:09:05Z</time>
      </trkpt>
      <trkpt lat="45.95808" lon="6.56643">
        <ele>1965.5</ele>
        <time>2026-02-02T08:09:06Z</time>
      </trkpt>
      <trkpt lat="45.95807" lon="6.56643">
        <ele>1965.5</ele>
        <time>2026-02-02T08:09:07Z</time>
      </trkpt>
      <trkpt lat="45.95807" lon="6.56643">
        <ele>1965.5</ele>
        <time>2026-02-02T08:09:08Z</time>
      </trkpt>
      <trkpt lat="45.95807" lon="6.56643">
        <ele>1965.5</ele>
        <time>2026-02-02T08:09:09Z</time>
      </trkpt>
      <trkpt lat="45.95807" lon="6.56643">
        <ele>1965.5</ele>
        <time>2026-02-02T08:09:10Z</time>
      </trkpt>
      <trkpt lat="45.95807" lon="6.56643">
        <ele>1965.5</ele>
        <time>2026-02-02T08:09:11Z</time>
      </trkpt>
      <trkpt lat="45.95807" lon="6.56643">
        <ele>1965.5</ele>
        <time>2026-02-02T08:09:12Z</time>
      </trkpt>
      <trkpt lat="45.95807" lon="6.56643">
        <ele>1965.5</ele>
        <time>2026-02-02T08:09:13Z</time>
      </trkpt>
      <trkpt lat="45.95807" lon="6.56643">
        <ele>1965.5</ele>
        <time>2026-02-02T08:09:14Z</time>
      </trkpt>
      <trkpt lat="45.95807" lon="6.56643">
        <ele>1965.5</ele>
        <time>2026-02-02T08:09:15Z</time>
      </trkpt>
      <trkpt lat="45.95807" lon="6.56643">
        <ele>1965.5</ele>
        <time>2026-02-02T08:09:16Z</time>
      </trkpt>
      <trkpt lat="45.95807" lon="6.56643">
        <ele>1965.5</ele>
        <time>2026-02-02T08:09:17Z</time>
      </trkpt>
      <trkpt lat="45.95807" lon="6.56643">
        <ele>1965.5</ele>
        <time>2026-02-02T08:09:18Z</time>
      </trkpt>
      <trkpt lat="45.95806" lon="6.56643">
        <ele>1966.8</ele>
        <time>2026-02-02T08:09:19Z</time>
      </trkpt>
      <trkpt lat="45.95806" lon="6.56643">
        <ele>1965.3</ele>
        <time>2026-02-02T08:09:20Z</time>
      </trkpt>
      <trkpt lat="45.95806" lon="6.56644">
        <ele>1965.3</ele>
        <time>2026-02-02T08:09:21Z</time>
      </trkpt>
      <trkpt lat="45.95805" lon="6.56644">
        <ele>1965.4</ele>
        <time>2026-02-02T08:09:22Z</time>
      </trkpt>
      <trkpt lat="45.95804" lon="6.56644">
        <ele>1966.5</ele>
        <time>2026-02-02T08:09:23Z</time>
      </trkpt>
      <trkpt lat="45.95803" lon="6.56644">
        <ele>1966.5</ele>
        <time>2026-02-02T08:09:24Z</time>
      </trkpt>
      <trkpt lat="45.95802" lon="6.56644">
        <ele>1966.5</ele>
        <time>2026-02-02T08:09:25Z</time>
      </trkpt>
      <trkpt lat="45.95801" lon="6.56644">
        <ele>1966.5</ele>
        <time>2026-02-02T08:09:26Z</time>
      </trkpt>
      <trkpt lat="45.95801" lon="6.56644">
        <ele>1967.6</ele>
        <time>2026-02-02T08:09:27Z</time>
      </trkpt>
      <trkpt lat="45.958" lon="6.56644">
        <ele>1967.6</ele>
        <time>2026-02-02T08:09:28Z</time>
      </trkpt>
      <trkpt lat="45.95799" lon="6.56644">
        <ele>1967.6</ele>
        <time>2026-02-02T08:09:29Z</time>
      </trkpt>
      <trkpt lat="45.95798" lon="6.56644">
        <ele>1968.5</ele>
        <time>2026-02-02T08:09:30Z</time>
      </trkpt>
      <trkpt lat="45.95796" lon="6.56645">
        <ele>1968.5</ele>
        <time>2026-02-02T08:09:31Z</time>
      </trkpt>
      <trkpt lat="45.95795" lon="6.56645">
        <ele>1969.3</ele>
        <time>2026-02-02T08:09:32Z</time>
      </trkpt>
      <trkpt lat="45.95794" lon="6.56645">
        <ele>1969.3</ele>
        <time>2026-02-02T08:09:33Z</time>
      </trkpt>
      <trkpt lat="45.95794" lon="6.56645">
        <ele>1969.4</ele>
        <time>2026-02-02T08:09:34Z</time>
      </trkpt>
      <trkpt lat="45.95793" lon="6.56643">
        <ele>1970.8</ele>
        <time>2026-02-02T08:09:35Z</time>
      </trkpt>
      <trkpt lat="45.95794" lon="6.56643">
        <ele>1970.8</ele>
        <time>2026-02-02T08:09:36Z</time>
      </trkpt>
      <trkpt lat="45.95795" lon="6.56642">
        <ele>1970.8</ele>
        <time>2026-02-02T08:09:37Z</time>
      </trkpt>
      <trkpt lat="45.95795" lon="6.56641">
        <ele>1970</ele>
        <time>2026-02-02T08:09:38Z</time>
      </trkpt>
      <trkpt lat="45.95796" lon="6.5664">
        <ele>1970</ele>
        <time>2026-02-02T08:09:39Z</time>
      </trkpt>
      <trkpt lat="45.95796" lon="6.56639">
        <ele>1971.5</ele>
        <time>2026-02-02T08:09:40Z</time>
      </trkpt>
      <trkpt lat="45.95796" lon="6.56639">
        <ele>1970</ele>
        <time>2026-02-02T08:09:41Z</time>
      </trkpt>
      <trkpt lat="45.95796" lon="6.56639">
        <ele>1971.5</ele>
        <time>2026-02-02T08:09:42Z</time>
      </trkpt>
      <trkpt lat="45.95796" lon="6.56638">
        <ele>1971.5</ele>
        <time>2026-02-02T08:09:43Z</time>
      </trkpt>
      <trkpt lat="45.95797" lon="6.56636">
        <ele>1971.5</ele>
        <time>2026-02-02T08:09:44Z</time>
      </trkpt>
      <trkpt lat="45.95797" lon="6.56635">
        <ele>1971.5</ele>
        <time>2026-02-02T08:09:45Z</time>
      </trkpt>
      <trkpt lat="45.95797" lon="6.56634">
        <ele>1973</ele>
        <time>2026-02-02T08:09:46Z</time>
      </trkpt>
      <trkpt lat="45.95798" lon="6.56633">
        <ele>1973</ele>
        <time>2026-02-02T08:09:47Z</time>
      </trkpt>
      <trkpt lat="45.95798" lon="6.56633">
        <ele>1973</ele>
        <time>2026-02-02T08:09:48Z</time>
      </trkpt>
      <trkpt lat="45.95798" lon="6.56631">
        <ele>1972.1</ele>
        <time>2026-02-02T08:09:49Z</time>
      </trkpt>
      <trkpt lat="45.95799" lon="6.56631">
        <ele>1973.6</ele>
        <time>2026-02-02T08:09:50Z</time>
      </trkpt>
      <trkpt lat="45.95799" lon="6.5663">
        <ele>1973.6</ele>
        <time>2026-02-02T08:09:51Z</time>
      </trkpt>
      <trkpt lat="45.95799" lon="6.56629">
        <ele>1973.6</ele>
        <time>2026-02-02T08:09:52Z</time>
      </trkpt>
      <trkpt lat="45.95799" lon="6.56629">
        <ele>1973.6</ele>
        <time>2026-02-02T08:09:53Z</time>
      </trkpt>
      <trkpt lat="45.95799" lon="6.56629">
        <ele>1973.6</ele>
        <time>2026-02-02T08:09:54Z</time>
      </trkpt>
      <trkpt lat="45.95799" lon="6.56629">
        <ele>1973.6</ele>
        <time>2026-02-02T08:09:55Z</time>
      </trkpt>
      <trkpt lat="45.95799" lon="6.56629">
        <ele>1973.6</ele>
        <time>2026-02-02T08:09:56Z</time>
      </trkpt>
      <trkpt lat="45.95799" lon="6.56629">
        <ele>1973.6</ele>
        <time>2026-02-02T08:09:57Z</time>
      </trkpt>
      <trkpt lat="45.95799" lon="6.56629">
        <ele>1973.6</ele>
        <time>2026-02-02T08:09:58Z</time>
      </trkpt>
      <trkpt lat="45.95799" lon="6.56629">
        <ele>1973.6</ele>
        <time>2026-02-02T08:09:59Z</time>
      </trkpt>
      <trkpt lat="45.95799" lon="6.56629">
        <ele>1973.6</ele>
        <time>2026-02-02T08:10:00Z</time>
      </trkpt>
      <trkpt lat="45.95799" lon="6.56629">
        <ele>1973.7</ele>
        <time>2026-02-02T08:10:01Z</time>
      </trkpt>
      <trkpt lat="45.95799" lon="6.56629">
        <ele>1973.7</ele>
        <time>2026-02-02T08:10:02Z</time>
      </trkpt>
      <trkpt lat="45.95799" lon="6.56629">
        <ele>1973.7</ele>
        <time>2026-02-02T08:10:03Z</time>
      </trkpt>
      <trkpt lat="45.95799" lon="6.56629">
        <ele>1973.7</ele>
        <time>2026-02-02T08:10:04Z</time>
      </trkpt>
      <trkpt lat="45.95799" lon="6.56629">
        <ele>1973.7</ele>
        <time>2026-02-02T08:10:05Z</time>
      </trkpt>
      <trkpt lat="45.95799" lon="6.56629">
        <ele>1973.7</ele>
        <time>2026-02-02T08:10:06Z</time>
      </trkpt>
      <trkpt lat="45.95799" lon="6.56629">
        <ele>1973.7</ele>
        <time>2026-02-02T08:10:07Z</time>
      </trkpt>
      <trkpt lat="45.95799" lon="6.56629">
        <ele>1973.7</ele>
        <time>2026-02-02T08:10:08Z</time>
      </trkpt>
      <trkpt lat="45.95799" lon="6.56629">
        <ele>1973.7</ele>
        <time>2026-02-02T08:10:09Z</time>
      </trkpt>
      <trkpt lat="45.95799" lon="6.56629">
        <ele>1973.7</ele>
        <time>2026-02-02T08:10:10Z</time>
      </trkpt>
      <trkpt lat="45.95799" lon="6.56629">
        <ele>1973.7</ele>
        <time>2026-02-02T08:10:11Z</time>
      </trkpt>
      <trkpt lat="45.95799" lon="6.56628">
        <ele>1973.7</ele>
        <time>2026-02-02T08:10:12Z</time>
      </trkpt>
      <trkpt lat="45.95799" lon="6.56627">
        <ele>1973.7</ele>
        <time>2026-02-02T08:10:13Z</time>
      </trkpt>
      <trkpt lat="45.958" lon="6.56626">
        <ele>1975.2</ele>
        <time>2026-02-02T08:10:14Z</time>
      </trkpt>
      <trkpt lat="45.958" lon="6.56624">
        <ele>1975.2</ele>
        <time>2026-02-02T08:10:15Z</time>
      </trkpt>
      <trkpt lat="45.958" lon="6.56624">
        <ele>1975.2</ele>
        <time>2026-02-02T08:10:16Z</time>
      </trkpt>
      <trkpt lat="45.958" lon="6.56623">
        <ele>1975.2</ele>
        <time>2026-02-02T08:10:17Z</time>
      </trkpt>
      <trkpt lat="45.95801" lon="6.56623">
        <ele>1975.2</ele>
        <time>2026-02-02T08:10:18Z</time>
      </trkpt>
      <trkpt lat="45.95801" lon="6.56622">
        <ele>1976.6</ele>
        <time>2026-02-02T08:10:19Z</time>
      </trkpt>
      <trkpt lat="45.95801" lon="6.56621">
        <ele>1975.5</ele>
        <time>2026-02-02T08:10:20Z</time>
      </trkpt>
      <trkpt lat="45.95802" lon="6.56621">
        <ele>1975.5</ele>
        <time>2026-02-02T08:10:21Z</time>
      </trkpt>
      <trkpt lat="45.95802" lon="6.5662">
        <ele>1975.5</ele>
        <time>2026-02-02T08:10:22Z</time>
      </trkpt>
      <trkpt lat="45.95802" lon="6.56619">
        <ele>1975.5</ele>
        <time>2026-02-02T08:10:23Z</time>
      </trkpt>
      <trkpt lat="45.95802" lon="6.56618">
        <ele>1976.9</ele>
        <time>2026-02-02T08:10:24Z</time>
      </trkpt>
      <trkpt lat="45.95803" lon="6.56617">
        <ele>1976.9</ele>
        <time>2026-02-02T08:10:25Z</time>
      </trkpt>
      <trkpt lat="45.95803" lon="6.56616">
        <ele>1976.9</ele>
        <time>2026-02-02T08:10:26Z</time>
      </trkpt>
      <trkpt lat="45.95802" lon="6.56615">
        <ele>1976.9</ele>
        <time>2026-02-02T08:10:27Z</time>
      </trkpt>
      <trkpt lat="45.95801" lon="6.56614">
        <ele>1978.1</ele>
        <time>2026-02-02T08:10:28Z</time>
      </trkpt>
      <trkpt lat="45.958" lon="6.56615">
        <ele>1978.1</ele>
        <time>2026-02-02T08:10:29Z</time>
      </trkpt>
      <trkpt lat="45.95799" lon="6.56614">
        <ele>1978.1</ele>
        <time>2026-02-02T08:10:30Z</time>
      </trkpt>
      <trkpt lat="45.95799" lon="6.56615">
        <ele>1978.1</ele>
        <time>2026-02-02T08:10:31Z</time>
      </trkpt>
      <trkpt lat="45.95798" lon="6.56615">
        <ele>1979.2</ele>
        <time>2026-02-02T08:10:32Z</time>
      </trkpt>
      <trkpt lat="45.95798" lon="6.56616">
        <ele>1979.2</ele>
        <time>2026-02-02T08:10:33Z</time>
      </trkpt>
      <trkpt lat="45.95797" lon="6.56616">
        <ele>1979.2</ele>
        <time>2026-02-02T08:10:34Z</time>
      </trkpt>
      <trkpt lat="45.95797" lon="6.56616">
        <ele>1979.2</ele>
        <time>2026-02-02T08:10:35Z</time>
      </trkpt>
      <trkpt lat="45.95796" lon="6.56615">
        <ele>1979.2</ele>
        <time>2026-02-02T08:10:36Z</time>
      </trkpt>
      <trkpt lat="45.95794" lon="6.56616">
        <ele>1980.1</ele>
        <time>2026-02-02T08:10:37Z</time>
      </trkpt>
      <trkpt lat="45.95793" lon="6.56616">
        <ele>1980.2</ele>
        <time>2026-02-02T08:10:38Z</time>
      </trkpt>
      <trkpt lat="45.95793" lon="6.56615">
        <ele>1980.2</ele>
        <time>2026-02-02T08:10:39Z</time>
      </trkpt>
      <trkpt lat="45.95792" lon="6.56615">
        <ele>1981.1</ele>
        <time>2026-02-02T08:10:40Z</time>
      </trkpt>
      <trkpt lat="45.95791" lon="6.56615">
        <ele>1981.1</ele>
        <time>2026-02-02T08:10:41Z</time>
      </trkpt>
      <trkpt lat="45.95791" lon="6.56615">
        <ele>1981.1</ele>
        <time>2026-02-02T08:10:42Z</time>
      </trkpt>
      <trkpt lat="45.95791" lon="6.56615">
        <ele>1981.1</ele>
        <time>2026-02-02T08:10:43Z</time>
      </trkpt>
      <trkpt lat="45.95791" lon="6.56615">
        <ele>1981.1</ele>
        <time>2026-02-02T08:10:44Z</time>
      </trkpt>
      <trkpt lat="45.95791" lon="6.56615">
        <ele>1981.1</ele>
        <time>2026-02-02T08:10:45Z</time>
      </trkpt>
      <trkpt lat="45.95791" lon="6.56615">
        <ele>1981.1</ele>
        <time>2026-02-02T08:10:46Z</time>
      </trkpt>
      <trkpt lat="45.95791" lon="6.56615">
        <ele>1981.1</ele>
        <time>2026-02-02T08:10:47Z</time>
      </trkpt>
      <trkpt lat="45.95791" lon="6.56615">
        <ele>1981.2</ele>
        <time>2026-02-02T08:10:48Z</time>
      </trkpt>
      <trkpt lat="45.95791" lon="6.56615">
        <ele>1981.2</ele>
        <time>2026-02-02T08:10:49Z</time>
      </trkpt>
      <trkpt lat="45.95791" lon="6.56615">
        <ele>1981.2</ele>
        <time>2026-02-02T08:10:50Z</time>
      </trkpt>
      <trkpt lat="45.95791" lon="6.56615">
        <ele>1981.2</ele>
        <time>2026-02-02T08:10:51Z</time>
      </trkpt>
      <trkpt lat="45.95792" lon="6.56616">
        <ele>1981.2</ele>
        <time>2026-02-02T08:10:52Z</time>
      </trkpt>
      <trkpt lat="45.95791" lon="6.56615">
        <ele>1981.2</ele>
        <time>2026-02-02T08:10:53Z</time>
      </trkpt>
      <trkpt lat="45.9579" lon="6.56615">
        <ele>1981.2</ele>
        <time>2026-02-02T08:10:54Z</time>
      </trkpt>
      <trkpt lat="45.9579" lon="6.56615">
        <ele>1981.2</ele>
        <time>2026-02-02T08:10:55Z</time>
      </trkpt>
      <trkpt lat="45.95789" lon="6.56614">
        <ele>1982.2</ele>
        <time>2026-02-02T08:10:56Z</time>
      </trkpt>
      <trkpt lat="45.95788" lon="6.56614">
        <ele>1982.2</ele>
        <time>2026-02-02T08:10:57Z</time>
      </trkpt>
      <trkpt lat="45.95787" lon="6.56614">
        <ele>1982.2</ele>
        <time>2026-02-02T08:10:58Z</time>
      </trkpt>
      <trkpt lat="45.95786" lon="6.56614">
        <ele>1982.2</ele>
        <time>2026-02-02T08:10:59Z</time>
      </trkpt>
      <trkpt lat="45.95785" lon="6.56613">
        <ele>1984.8</ele>
        <time>2026-02-02T08:11:00Z</time>
      </trkpt>
      <trkpt lat="45.95784" lon="6.56613">
        <ele>1984.8</ele>
        <time>2026-02-02T08:11:01Z</time>
      </trkpt>
      <trkpt lat="45.95784" lon="6.56613">
        <ele>1984.8</ele>
        <time>2026-02-02T08:11:02Z</time>
      </trkpt>
      <trkpt lat="45.95783" lon="6.56613">
        <ele>1985.9</ele>
        <time>2026-02-02T08:11:03Z</time>
      </trkpt>
      <trkpt lat="45.95782" lon="6.56614">
        <ele>1984.3</ele>
        <time>2026-02-02T08:11:04Z</time>
      </trkpt>
      <trkpt lat="45.95781" lon="6.56614">
        <ele>1984.3</ele>
        <time>2026-02-02T08:11:05Z</time>
      </trkpt>
      <trkpt lat="45.9578" lon="6.56614">
        <ele>1985.4</ele>
        <time>2026-02-02T08:11:06Z</time>
      </trkpt>
      <trkpt lat="45.95779" lon="6.56614">
        <ele>1985.4</ele>
        <time>2026-02-02T08:11:07Z</time>
      </trkpt>
      <trkpt lat="45.95777" lon="6.56615">
        <ele>1986.4</ele>
        <time>2026-02-02T08:11:08Z</time>
      </trkpt>
      <trkpt lat="45.95777" lon="6.56615">
        <ele>1986.4</ele>
        <time>2026-02-02T08:11:09Z</time>
      </trkpt>
      <trkpt lat="45.95776" lon="6.56615">
        <ele>1986.4</ele>
        <time>2026-02-02T08:11:10Z</time>
      </trkpt>
      <trkpt lat="45.95775" lon="6.56615">
        <ele>1986.4</ele>
        <time>2026-02-02T08:11:11Z</time>
      </trkpt>
      <trkpt lat="45.95774" lon="6.56615">
        <ele>1987.4</ele>
        <time>2026-02-02T08:11:12Z</time>
      </trkpt>
      <trkpt lat="45.95773" lon="6.56616">
        <ele>1987.4</ele>
        <time>2026-02-02T08:11:13Z</time>
      </trkpt>
      <trkpt lat="45.95772" lon="6.56616">
        <ele>1987.5</ele>
        <time>2026-02-02T08:11:14Z</time>
      </trkpt>
      <trkpt lat="45.95771" lon="6.56616">
        <ele>1988.4</ele>
        <time>2026-02-02T08:11:15Z</time>
      </trkpt>
      <trkpt lat="45.9577" lon="6.56616">
        <ele>1988.4</ele>
        <time>2026-02-02T08:11:16Z</time>
      </trkpt>
      <trkpt lat="45.9577" lon="6.56616">
        <ele>1988.4</ele>
        <time>2026-02-02T08:11:17Z</time>
      </trkpt>
      <trkpt lat="45.95769" lon="6.56617">
        <ele>1988.4</ele>
        <time>2026-02-02T08:11:18Z</time>
      </trkpt>
      <trkpt lat="45.95768" lon="6.56617">
        <ele>1989.3</ele>
        <time>2026-02-02T08:11:19Z</time>
      </trkpt>
      <trkpt lat="45.95767" lon="6.56617">
        <ele>1989.4</ele>
        <time>2026-02-02T08:11:20Z</time>
      </trkpt>
      <trkpt lat="45.95766" lon="6.56618">
        <ele>1987.9</ele>
        <time>2026-02-02T08:11:21Z</time>
      </trkpt>
      <trkpt lat="45.95766" lon="6.56618">
        <ele>1987.9</ele>
        <time>2026-02-02T08:11:22Z</time>
      </trkpt>
      <trkpt lat="45.95766" lon="6.56618">
        <ele>1987.9</ele>
        <time>2026-02-02T08:11:23Z</time>
      </trkpt>
      <trkpt lat="45.95766" lon="6.56618">
        <ele>1987.9</ele>
        <time>2026-02-02T08:11:24Z</time>
      </trkpt>
      <trkpt lat="45.95766" lon="6.56618">
        <ele>1987.9</ele>
        <time>2026-02-02T08:11:25Z</time>
      </trkpt>
      <trkpt lat="45.95766" lon="6.56618">
        <ele>1987.9</ele>
        <time>2026-02-02T08:11:26Z</time>
      </trkpt>
      <trkpt lat="45.95766" lon="6.56618">
        <ele>1987.9</ele>
        <time>2026-02-02T08:11:27Z</time>
      </trkpt>
      <trkpt lat="45.95766" lon="6.56618">
        <ele>1987.9</ele>
        <time>2026-02-02T08:11:28Z</time>
      </trkpt>
      <trkpt lat="45.95766" lon="6.56618">
        <ele>1987.9</ele>
        <time>2026-02-02T08:11:29Z</time>
      </trkpt>
      <trkpt lat="45.95766" lon="6.56618">
        <ele>1987.9</ele>
        <time>2026-02-02T08:11:30Z</time>
      </trkpt>
      <trkpt lat="45.95766" lon="6.56618">
        <ele>1987.9</ele>
        <time>2026-02-02T08:11:31Z</time>
      </trkpt>
      <trkpt lat="45.95766" lon="6.56618">
        <ele>1988</ele>
        <time>2026-02-02T08:11:32Z</time>
      </trkpt>
      <trkpt lat="45.95766" lon="6.56618">
        <ele>1988</ele>
        <time>2026-02-02T08:11:33Z</time>
      </trkpt>
      <trkpt lat="45.95766" lon="6.56618">
        <ele>1988</ele>
        <time>2026-02-02T08:11:34Z</time>
      </trkpt>
      <trkpt lat="45.95766" lon="6.56618">
        <ele>1988</ele>
        <time>2026-02-02T08:11:35Z</time>
      </trkpt>
      <trkpt lat="45.95766" lon="6.56618">
        <ele>1988</ele>
        <time>2026-02-02T08:11:36Z</time>
      </trkpt>
      <trkpt lat="45.95766" lon="6.56618">
        <ele>1988</ele>
        <time>2026-02-02T08:11:37Z</time>
      </trkpt>
      <trkpt lat="45.95767" lon="6.56618">
        <ele>1988</ele>
        <time>2026-02-02T08:11:38Z</time>
      </trkpt>
      <trkpt lat="45.95766" lon="6.56618">
        <ele>1988</ele>
        <time>2026-02-02T08:11:39Z</time>
      </trkpt>
      <trkpt lat="45.95765" lon="6.56618">
        <ele>1988.9</ele>
        <time>2026-02-02T08:11:40Z</time>
      </trkpt>
      <trkpt lat="45.95764" lon="6.56618">
        <ele>1988.9</ele>
        <time>2026-02-02T08:11:41Z</time>
      </trkpt>
      <trkpt lat="45.95763" lon="6.56619">
        <ele>1988.9</ele>
        <time>2026-02-02T08:11:42Z</time>
      </trkpt>
      <trkpt lat="45.95763" lon="6.5662">
        <ele>1988.9</ele>
        <time>2026-02-02T08:11:43Z</time>
      </trkpt>
      <trkpt lat="45.95762" lon="6.5662">
        <ele>1989.8</ele>
        <time>2026-02-02T08:11:44Z</time>
      </trkpt>
      <trkpt lat="45.95761" lon="6.5662">
        <ele>1989.8</ele>
        <time>2026-02-02T08:11:45Z</time>
      </trkpt>
      <trkpt lat="45.95761" lon="6.5662">
        <ele>1989.8</ele>
        <time>2026-02-02T08:11:46Z</time>
      </trkpt>
      <trkpt lat="45.9576" lon="6.5662">
        <ele>1989.8</ele>
        <time>2026-02-02T08:11:47Z</time>
      </trkpt>
      <trkpt lat="45.95759" lon="6.56621">
        <ele>1990.7</ele>
        <time>2026-02-02T08:11:48Z</time>
      </trkpt>
      <trkpt lat="45.95758" lon="6.56621">
        <ele>1990.7</ele>
        <time>2026-02-02T08:11:49Z</time>
      </trkpt>
      <trkpt lat="45.95757" lon="6.56621">
        <ele>1990.7</ele>
        <time>2026-02-02T08:11:50Z</time>
      </trkpt>
      <trkpt lat="45.95757" lon="6.56622">
        <ele>1990.7</ele>
        <time>2026-02-02T08:11:51Z</time>
      </trkpt>
      <trkpt lat="45.95756" lon="6.56622">
        <ele>1990.4</ele>
        <time>2026-02-02T08:11:52Z</time>
      </trkpt>
      <trkpt lat="45.95756" lon="6.56623">
        <ele>1990.4</ele>
        <time>2026-02-02T08:11:53Z</time>
      </trkpt>
      <trkpt lat="45.95755" lon="6.56623">
        <ele>1990.4</ele>
        <time>2026-02-02T08:11:54Z</time>
      </trkpt>
      <trkpt lat="45.95754" lon="6.56623">
        <ele>1990.4</ele>
        <time>2026-02-02T08:11:55Z</time>
      </trkpt>
      <trkpt lat="45.95753" lon="6.56624">
        <ele>1991.5</ele>
        <time>2026-02-02T08:11:56Z</time>
      </trkpt>
      <trkpt lat="45.95753" lon="6.56624">
        <ele>1991.5</ele>
        <time>2026-02-02T08:11:57Z</time>
      </trkpt>
      <trkpt lat="45.95752" lon="6.56624">
        <ele>1991.5</ele>
        <time>2026-02-02T08:11:58Z</time>
      </trkpt>
      <trkpt lat="45.95751" lon="6.56623">
        <ele>1991.5</ele>
        <time>2026-02-02T08:11:59Z</time>
      </trkpt>
      <trkpt lat="45.95751" lon="6.56623">
        <ele>1991.5</ele>
        <time>2026-02-02T08:12:00Z</time>
      </trkpt>
      <trkpt lat="45.95751" lon="6.56623">
        <ele>1991.5</ele>
        <time>2026-02-02T08:12:01Z</time>
      </trkpt>
      <trkpt lat="45.9575" lon="6.56622">
        <ele>1992.7</ele>
        <time>2026-02-02T08:12:02Z</time>
      </trkpt>
      <trkpt lat="45.95749" lon="6.56623">
        <ele>1992.7</ele>
        <time>2026-02-02T08:12:03Z</time>
      </trkpt>
      <trkpt lat="45.9575" lon="6.56621">
        <ele>1994</ele>
        <time>2026-02-02T08:12:04Z</time>
      </trkpt>
      <trkpt lat="45.9575" lon="6.56621">
        <ele>1994</ele>
        <time>2026-02-02T08:12:05Z</time>
      </trkpt>
      <trkpt lat="45.95751" lon="6.5662">
        <ele>1992.9</ele>
        <time>2026-02-02T08:12:06Z</time>
      </trkpt>
      <trkpt lat="45.95751" lon="6.56619">
        <ele>1992.9</ele>
        <time>2026-02-02T08:12:07Z</time>
      </trkpt>
      <trkpt lat="45.95751" lon="6.56619">
        <ele>1992.9</ele>
        <time>2026-02-02T08:12:08Z</time>
      </trkpt>
      <trkpt lat="45.95752" lon="6.56618">
        <ele>1994.2</ele>
        <time>2026-02-02T08:12:09Z</time>
      </trkpt>
      <trkpt lat="45.95752" lon="6.56617">
        <ele>1994.2</ele>
        <time>2026-02-02T08:12:10Z</time>
      </trkpt>
      <trkpt lat="45.95752" lon="6.56617">
        <ele>1994.2</ele>
        <time>2026-02-02T08:12:11Z</time>
      </trkpt>
      <trkpt lat="45.95752" lon="6.56617">
        <ele>1994.2</ele>
        <time>2026-02-02T08:12:12Z</time>
      </trkpt>
      <trkpt lat="45.95752" lon="6.56617">
        <ele>1994.2</ele>
        <time>2026-02-02T08:12:13Z</time>
      </trkpt>
      <trkpt lat="45.95752" lon="6.56617">
        <ele>1994.3</ele>
        <time>2026-02-02T08:12:14Z</time>
      </trkpt>
      <trkpt lat="45.95752" lon="6.56618">
        <ele>1992.9</ele>
        <time>2026-02-02T08:12:15Z</time>
      </trkpt>
      <trkpt lat="45.95752" lon="6.56618">
        <ele>1992.9</ele>
        <time>2026-02-02T08:12:16Z</time>
      </trkpt>
      <trkpt lat="45.95752" lon="6.56618">
        <ele>1992.9</ele>
        <time>2026-02-02T08:12:17Z</time>
      </trkpt>
      <trkpt lat="45.95752" lon="6.56618">
        <ele>1992.9</ele>
        <time>2026-02-02T08:12:18Z</time>
      </trkpt>
      <trkpt lat="45.95752" lon="6.56618">
        <ele>1992.9</ele>
        <time>2026-02-02T08:12:19Z</time>
      </trkpt>
      <trkpt lat="45.95752" lon="6.56618">
        <ele>1992.9</ele>
        <time>2026-02-02T08:12:20Z</time>
      </trkpt>
      <trkpt lat="45.95752" lon="6.56618">
        <ele>1992.9</ele>
        <time>2026-02-02T08:12:21Z</time>
      </trkpt>
      <trkpt lat="45.95752" lon="6.56618">
        <ele>1992.9</ele>
        <time>2026-02-02T08:12:22Z</time>
      </trkpt>
      <trkpt lat="45.95752" lon="6.56618">
        <ele>1993</ele>
        <time>2026-02-02T08:12:23Z</time>
      </trkpt>
      <trkpt lat="45.95752" lon="6.56618">
        <ele>1993</ele>
        <time>2026-02-02T08:12:24Z</time>
      </trkpt>
      <trkpt lat="45.95752" lon="6.56618">
        <ele>1993</ele>
        <time>2026-02-02T08:12:25Z</time>
      </trkpt>
      <trkpt lat="45.95752" lon="6.56618">
        <ele>1993</ele>
        <time>2026-02-02T08:12:26Z</time>
      </trkpt>
      <trkpt lat="45.95752" lon="6.56618">
        <ele>1993</ele>
        <time>2026-02-02T08:12:27Z</time>
      </trkpt>
      <trkpt lat="45.95752" lon="6.56618">
        <ele>1993</ele>
        <time>2026-02-02T08:12:28Z</time>
      </trkpt>
      <trkpt lat="45.95752" lon="6.56618">
        <ele>1993</ele>
        <time>2026-02-02T08:12:29Z</time>
      </trkpt>
      <trkpt lat="45.95752" lon="6.56618">
        <ele>1994.3</ele>
        <time>2026-02-02T08:12:30Z</time>
      </trkpt>
      <trkpt lat="45.95753" lon="6.56617">
        <ele>1994.3</ele>
        <time>2026-02-02T08:12:31Z</time>
      </trkpt>
      <trkpt lat="45.95753" lon="6.56616">
        <ele>1994.4</ele>
        <time>2026-02-02T08:12:32Z</time>
      </trkpt>
      <trkpt lat="45.95754" lon="6.56615">
        <ele>1993.3</ele>
        <time>2026-02-02T08:12:33Z</time>
      </trkpt>
      <trkpt lat="45.95754" lon="6.56615">
        <ele>1993.3</ele>
        <time>2026-02-02T08:12:34Z</time>
      </trkpt>
      <trkpt lat="45.95755" lon="6.56614">
        <ele>1993.3</ele>
        <time>2026-02-02T08:12:35Z</time>
      </trkpt>
      <trkpt lat="45.95755" lon="6.56613">
        <ele>1994.8</ele>
        <time>2026-02-02T08:12:36Z</time>
      </trkpt>
      <trkpt lat="45.95755" lon="6.56612">
        <ele>1994.8</ele>
        <time>2026-02-02T08:12:37Z</time>
      </trkpt>
      <trkpt lat="45.95754" lon="6.56612">
        <ele>1994.8</ele>
        <time>2026-02-02T08:12:38Z</time>
      </trkpt>
      <trkpt lat="45.95754" lon="6.56612">
        <ele>1994.8</ele>
        <time>2026-02-02T08:12:39Z</time>
      </trkpt>
      <trkpt lat="45.95753" lon="6.56612">
        <ele>1995.8</ele>
        <time>2026-02-02T08:12:40Z</time>
      </trkpt>
      <trkpt lat="45.95752" lon="6.56611">
        <ele>1995.8</ele>
        <time>2026-02-02T08:12:41Z</time>
      </trkpt>
      <trkpt lat="45.95751" lon="6.56611">
        <ele>1995.8</ele>
        <time>2026-02-02T08:12:42Z</time>
      </trkpt>
      <trkpt lat="45.9575" lon="6.56611">
        <ele>1996.9</ele>
        <time>2026-02-02T08:12:43Z</time>
      </trkpt>
      <trkpt lat="45.9575" lon="6.56611">
        <ele>1996.9</ele>
        <time>2026-02-02T08:12:44Z</time>
      </trkpt>
      <trkpt lat="45.95749" lon="6.56612">
        <ele>1996.9</ele>
        <time>2026-02-02T08:12:45Z</time>
      </trkpt>
      <trkpt lat="45.95749" lon="6.56612">
        <ele>1996.9</ele>
        <time>2026-02-02T08:12:46Z</time>
      </trkpt>
      <trkpt lat="45.95749" lon="6.56613">
        <ele>1997</ele>
        <time>2026-02-02T08:12:47Z</time>
      </trkpt>
      <trkpt lat="45.95748" lon="6.56612">
        <ele>1997</ele>
        <time>2026-02-02T08:12:48Z</time>
      </trkpt>
      <trkpt lat="45.95748" lon="6.56612">
        <ele>1997</ele>
        <time>2026-02-02T08:12:49Z</time>
      </trkpt>
      <trkpt lat="45.95746" lon="6.56613">
        <ele>1998.1</ele>
        <time>2026-02-02T08:12:50Z</time>
      </trkpt>
      <trkpt lat="45.95746" lon="6.56612">
        <ele>1998.1</ele>
        <time>2026-02-02T08:12:51Z</time>
      </trkpt>
      <trkpt lat="45.95745" lon="6.56613">
        <ele>1998.1</ele>
        <time>2026-02-02T08:12:52Z</time>
      </trkpt>
      <trkpt lat="45.95744" lon="6.56612">
        <ele>1999.1</ele>
        <time>2026-02-02T08:12:53Z</time>
      </trkpt>
      <trkpt lat="45.95743" lon="6.56612">
        <ele>1999.2</ele>
        <time>2026-02-02T08:12:54Z</time>
      </trkpt>
      <trkpt lat="45.95743" lon="6.56612">
        <ele>1999.2</ele>
        <time>2026-02-02T08:12:55Z</time>
      </trkpt>
      <trkpt lat="45.95742" lon="6.56611">
        <ele>1999.2</ele>
        <time>2026-02-02T08:12:56Z</time>
      </trkpt>
      <trkpt lat="45.95741" lon="6.56611">
        <ele>2000.1</ele>
        <time>2026-02-02T08:12:57Z</time>
      </trkpt>
      <trkpt lat="45.95741" lon="6.56611">
        <ele>2000.1</ele>
        <time>2026-02-02T08:12:58Z</time>
      </trkpt>
      <trkpt lat="45.95741" lon="6.56611">
        <ele>2000.1</ele>
        <time>2026-02-02T08:12:59Z</time>
      </trkpt>
      <trkpt lat="45.95741" lon="6.56611">
        <ele>2000.1</ele>
        <time>2026-02-02T08:13:00Z</time>
      </trkpt>
      <trkpt lat="45.9574" lon="6.56611">
        <ele>2000.1</ele>
        <time>2026-02-02T08:13:01Z</time>
      </trkpt>
      <trkpt lat="45.9574" lon="6.56611">
        <ele>2000.1</ele>
        <time>2026-02-02T08:13:02Z</time>
      </trkpt>
      <trkpt lat="45.9574" lon="6.56611">
        <ele>2000.1</ele>
        <time>2026-02-02T08:13:03Z</time>
      </trkpt>
      <trkpt lat="45.9574" lon="6.56611">
        <ele>2000.1</ele>
        <time>2026-02-02T08:13:04Z</time>
      </trkpt>
      <trkpt lat="45.9574" lon="6.56611">
        <ele>2000.2</ele>
        <time>2026-02-02T08:13:05Z</time>
      </trkpt>
      <trkpt lat="45.9574" lon="6.56611">
        <ele>2000.2</ele>
        <time>2026-02-02T08:13:06Z</time>
      </trkpt>
      <trkpt lat="45.95739" lon="6.56611">
        <ele>2000.2</ele>
        <time>2026-02-02T08:13:07Z</time>
      </trkpt>
      <trkpt lat="45.95739" lon="6.56611">
        <ele>2000.2</ele>
        <time>2026-02-02T08:13:08Z</time>
      </trkpt>
      <trkpt lat="45.95739" lon="6.5661">
        <ele>2000.2</ele>
        <time>2026-02-02T08:13:09Z</time>
      </trkpt>
      <trkpt lat="45.95739" lon="6.5661">
        <ele>2000.2</ele>
        <time>2026-02-02T08:13:10Z</time>
      </trkpt>
      <trkpt lat="45.95739" lon="6.5661">
        <ele>2000.2</ele>
        <time>2026-02-02T08:13:11Z</time>
      </trkpt>
      <trkpt lat="45.95738" lon="6.5661">
        <ele>2001</ele>
        <time>2026-02-02T08:13:12Z</time>
      </trkpt>
      <trkpt lat="45.95738" lon="6.5661">
        <ele>2001.1</ele>
        <time>2026-02-02T08:13:13Z</time>
      </trkpt>
      <trkpt lat="45.95737" lon="6.56609">
        <ele>2001.1</ele>
        <time>2026-02-02T08:13:14Z</time>
      </trkpt>
      <trkpt lat="45.95736" lon="6.56609">
        <ele>2002.4</ele>
        <time>2026-02-02T08:13:15Z</time>
      </trkpt>
      <trkpt lat="45.95735" lon="6.56608">
        <ele>2003.2</ele>
        <time>2026-02-02T08:13:16Z</time>
      </trkpt>
      <trkpt lat="45.95734" lon="6.56608">
        <ele>2003.2</ele>
        <time>2026-02-02T08:13:17Z</time>
      </trkpt>
      <trkpt lat="45.95733" lon="6.56608">
        <ele>2003.2</ele>
        <time>2026-02-02T08:13:18Z</time>
      </trkpt>
      <trkpt lat="45.95732" lon="6.56608">
        <ele>2004.1</ele>
        <time>2026-02-02T08:13:19Z</time>
      </trkpt>
      <trkpt lat="45.95732" lon="6.56609">
        <ele>2004.1</ele>
        <time>2026-02-02T08:13:20Z</time>
      </trkpt>
      <trkpt lat="45.95731" lon="6.5661">
        <ele>2002.8</ele>
        <time>2026-02-02T08:13:21Z</time>
      </trkpt>
      <trkpt lat="45.95731" lon="6.5661">
        <ele>2002.8</ele>
        <time>2026-02-02T08:13:22Z</time>
      </trkpt>
      <trkpt lat="45.9573" lon="6.5661">
        <ele>2002.8</ele>
        <time>2026-02-02T08:13:23Z</time>
      </trkpt>
      <trkpt lat="45.95729" lon="6.56609">
        <ele>2003.9</ele>
        <time>2026-02-02T08:13:24Z</time>
      </trkpt>
      <trkpt lat="45.9573" lon="6.5661">
        <ele>2003.9</ele>
        <time>2026-02-02T08:13:25Z</time>
      </trkpt>
      <trkpt lat="45.95729" lon="6.5661">
        <ele>2003.9</ele>
        <time>2026-02-02T08:13:26Z</time>
      </trkpt>
      <trkpt lat="45.95729" lon="6.5661">
        <ele>2003.9</ele>
        <time>2026-02-02T08:13:27Z</time>
      </trkpt>
      <trkpt lat="45.95729" lon="6.5661">
        <ele>2003.9</ele>
        <time>2026-02-02T08:13:28Z</time>
      </trkpt>
      <trkpt lat="45.95728" lon="6.5661">
        <ele>2003.9</ele>
        <time>2026-02-02T08:13:29Z</time>
      </trkpt>
      <trkpt lat="45.95727" lon="6.5661">
        <ele>2003.9</ele>
        <time>2026-02-02T08:13:30Z</time>
      </trkpt>
      <trkpt lat="45.95726" lon="6.5661">
        <ele>2005</ele>
        <time>2026-02-02T08:13:31Z</time>
      </trkpt>
      <trkpt lat="45.95726" lon="6.5661">
        <ele>2005.1</ele>
        <time>2026-02-02T08:13:32Z</time>
      </trkpt>
      <trkpt lat="45.95725" lon="6.5661">
        <ele>2005.1</ele>
        <time>2026-02-02T08:13:33Z</time>
      </trkpt>
      <trkpt lat="45.95724" lon="6.5661">
        <ele>2005.1</ele>
        <time>2026-02-02T08:13:34Z</time>
      </trkpt>
      <trkpt lat="45.95723" lon="6.5661">
        <ele>2006.3</ele>
        <time>2026-02-02T08:13:35Z</time>
      </trkpt>
      <trkpt lat="45.95723" lon="6.5661">
        <ele>2006.3</ele>
        <time>2026-02-02T08:13:36Z</time>
      </trkpt>
      <trkpt lat="45.95723" lon="6.56611">
        <ele>2006.3</ele>
        <time>2026-02-02T08:13:37Z</time>
      </trkpt>
      <trkpt lat="45.95723" lon="6.5661">
        <ele>2006.3</ele>
        <time>2026-02-02T08:13:38Z</time>
      </trkpt>
      <trkpt lat="45.95724" lon="6.5661">
        <ele>2006.3</ele>
        <time>2026-02-02T08:13:39Z</time>
      </trkpt>
      <trkpt lat="45.95724" lon="6.56609">
        <ele>2006.3</ele>
        <time>2026-02-02T08:13:40Z</time>
      </trkpt>
      <trkpt lat="45.95725" lon="6.56609">
        <ele>2006.3</ele>
        <time>2026-02-02T08:13:41Z</time>
      </trkpt>
      <trkpt lat="45.95725" lon="6.56608">
        <ele>2006.3</ele>
        <time>2026-02-02T08:13:42Z</time>
      </trkpt>
      <trkpt lat="45.95725" lon="6.56608">
        <ele>2006.3</ele>
        <time>2026-02-02T08:13:43Z</time>
      </trkpt>
      <trkpt lat="45.95726" lon="6.56608">
        <ele>2006.3</ele>
        <time>2026-02-02T08:13:44Z</time>
      </trkpt>
      <trkpt lat="45.95726" lon="6.56607">
        <ele>2006.3</ele>
        <time>2026-02-02T08:13:45Z</time>
      </trkpt>
      <trkpt lat="45.95726" lon="6.56606">
        <ele>2006.3</ele>
        <time>2026-02-02T08:13:46Z</time>
      </trkpt>
      <trkpt lat="45.95727" lon="6.56606">
        <ele>2005.2</ele>
        <time>2026-02-02T08:13:47Z</time>
      </trkpt>
      <trkpt lat="45.95727" lon="6.56606">
        <ele>2005.2</ele>
        <time>2026-02-02T08:13:48Z</time>
      </trkpt>
      <trkpt lat="45.95726" lon="6.56606">
        <ele>2006.3</ele>
        <time>2026-02-02T08:13:49Z</time>
      </trkpt>
      <trkpt lat="45.95726" lon="6.56606">
        <ele>2006.3</ele>
        <time>2026-02-02T08:13:50Z</time>
      </trkpt>
      <trkpt lat="45.95726" lon="6.56606">
        <ele>2006.3</ele>
        <time>2026-02-02T08:13:51Z</time>
      </trkpt>
      <trkpt lat="45.95726" lon="6.56606">
        <ele>2006.3</ele>
        <time>2026-02-02T08:13:52Z</time>
      </trkpt>
      <trkpt lat="45.95726" lon="6.56606">
        <ele>2006.3</ele>
        <time>2026-02-02T08:13:53Z</time>
      </trkpt>
      <trkpt lat="45.95727" lon="6.56606">
        <ele>2006.3</ele>
        <time>2026-02-02T08:13:54Z</time>
      </trkpt>
      <trkpt lat="45.95727" lon="6.56606">
        <ele>2006.3</ele>
        <time>2026-02-02T08:13:55Z</time>
      </trkpt>
      <trkpt lat="45.95727" lon="6.56606">
        <ele>2006.3</ele>
        <time>2026-02-02T08:13:56Z</time>
      </trkpt>
      <trkpt lat="45.95727" lon="6.56606">
        <ele>2005.3</ele>
        <time>2026-02-02T08:13:57Z</time>
      </trkpt>
      <trkpt lat="45.95727" lon="6.56606">
        <ele>2005.3</ele>
        <time>2026-02-02T08:13:58Z</time>
      </trkpt>
      <trkpt lat="45.95727" lon="6.56606">
        <ele>2005.3</ele>
        <time>2026-02-02T08:13:59Z</time>
      </trkpt>
      <trkpt lat="45.95727" lon="6.56606">
        <ele>2005.3</ele>
        <time>2026-02-02T08:14:00Z</time>
      </trkpt>
      <trkpt lat="45.95727" lon="6.56606">
        <ele>2005.3</ele>
        <time>2026-02-02T08:14:01Z</time>
      </trkpt>
      <trkpt lat="45.95727" lon="6.56606">
        <ele>2005.3</ele>
        <time>2026-02-02T08:14:02Z</time>
      </trkpt>
      <trkpt lat="45.95727" lon="6.56606">
        <ele>2006.4</ele>
        <time>2026-02-02T08:14:03Z</time>
      </trkpt>
      <trkpt lat="45.95727" lon="6.56606">
        <ele>2006.4</ele>
        <time>2026-02-02T08:14:04Z</time>
      </trkpt>
      <trkpt lat="45.95727" lon="6.56606">
        <ele>2005.3</ele>
        <time>2026-02-02T08:14:05Z</time>
      </trkpt>
      <trkpt lat="45.95727" lon="6.56605">
        <ele>2005.3</ele>
        <time>2026-02-02T08:14:06Z</time>
      </trkpt>
      <trkpt lat="45.95727" lon="6.56605">
        <ele>2006.6</ele>
        <time>2026-02-02T08:14:07Z</time>
      </trkpt>
      <trkpt lat="45.95727" lon="6.56604">
        <ele>2006.6</ele>
        <time>2026-02-02T08:14:08Z</time>
      </trkpt>
      <trkpt lat="45.95728" lon="6.56603">
        <ele>2006.6</ele>
        <time>2026-02-02T08:14:09Z</time>
      </trkpt>
      <trkpt lat="45.95728" lon="6.56602">
        <ele>2006.6</ele>
        <time>2026-02-02T08:14:10Z</time>
      </trkpt>
      <trkpt lat="45.95727" lon="6.56602">
        <ele>2006.6</ele>
        <time>2026-02-02T08:14:11Z</time>
      </trkpt>
      <trkpt lat="45.95727" lon="6.56601">
        <ele>2006.6</ele>
        <time>2026-02-02T08:14:12Z</time>
      </trkpt>
      <trkpt lat="45.95727" lon="6.56601">
        <ele>2006.6</ele>
        <time>2026-02-02T08:14:13Z</time>
      </trkpt>
      <trkpt lat="45.95727" lon="6.566">
        <ele>2008</ele>
        <time>2026-02-02T08:14:14Z</time>
      </trkpt>
      <trkpt lat="45.95726" lon="6.566">
        <ele>2009</ele>
        <time>2026-02-02T08:14:15Z</time>
      </trkpt>
      <trkpt lat="45.95726" lon="6.566">
        <ele>2009</ele>
        <time>2026-02-02T08:14:16Z</time>
      </trkpt>
      <trkpt lat="45.95725" lon="6.56599">
        <ele>2009</ele>
        <time>2026-02-02T08:14:17Z</time>
      </trkpt>
      <trkpt lat="45.95723" lon="6.56599">
        <ele>2010.1</ele>
        <time>2026-02-02T08:14:18Z</time>
      </trkpt>
      <trkpt lat="45.95722" lon="6.56599">
        <ele>2010.1</ele>
        <time>2026-02-02T08:14:19Z</time>
      </trkpt>
      <trkpt lat="45.95721" lon="6.56599">
        <ele>2011.1</ele>
        <time>2026-02-02T08:14:20Z</time>
      </trkpt>
      <trkpt lat="45.9572" lon="6.56599">
        <ele>2011.1</ele>
        <time>2026-02-02T08:14:21Z</time>
      </trkpt>
      <trkpt lat="45.9572" lon="6.56599">
        <ele>2011.2</ele>
        <time>2026-02-02T08:14:22Z</time>
      </trkpt>
      <trkpt lat="45.9572" lon="6.56599">
        <ele>2011.2</ele>
        <time>2026-02-02T08:14:23Z</time>
      </trkpt>
      <trkpt lat="45.95719" lon="6.56599">
        <ele>2011.2</ele>
        <time>2026-02-02T08:14:24Z</time>
      </trkpt>
      <trkpt lat="45.95718" lon="6.56599">
        <ele>2011.2</ele>
        <time>2026-02-02T08:14:25Z</time>
      </trkpt>
      <trkpt lat="45.95717" lon="6.56599">
        <ele>2012.2</ele>
        <time>2026-02-02T08:14:27Z</time>
      </trkpt>
      <trkpt lat="45.95716" lon="6.56599">
        <ele>2012.2</ele>
        <time>2026-02-02T08:14:28Z</time>
      </trkpt>
      <trkpt lat="45.95715" lon="6.56599">
        <ele>2013.2</ele>
        <time>2026-02-02T08:14:29Z</time>
      </trkpt>
      <trkpt lat="45.95714" lon="6.56599">
        <ele>2013.2</ele>
        <time>2026-02-02T08:14:30Z</time>
      </trkpt>
      <trkpt lat="45.95713" lon="6.56599">
        <ele>2013.2</ele>
        <time>2026-02-02T08:14:31Z</time>
      </trkpt>
      <trkpt lat="45.95713" lon="6.56599">
        <ele>2013.2</ele>
        <time>2026-02-02T08:14:32Z</time>
      </trkpt>
      <trkpt lat="45.95712" lon="6.56599">
        <ele>2013.2</ele>
        <time>2026-02-02T08:14:33Z</time>
      </trkpt>
      <trkpt lat="45.95712" lon="6.56599">
        <ele>2014.3</ele>
        <time>2026-02-02T08:14:34Z</time>
      </trkpt>
      <trkpt lat="45.9571" lon="6.56598">
        <ele>2014.3</ele>
        <time>2026-02-02T08:14:36Z</time>
      </trkpt>
      <trkpt lat="45.95709" lon="6.56598">
        <ele>2015.3</ele>
        <time>2026-02-02T08:14:37Z</time>
      </trkpt>
      <trkpt lat="45.95708" lon="6.56598">
        <ele>2015.3</ele>
        <time>2026-02-02T08:14:38Z</time>
      </trkpt>
      <trkpt lat="45.95707" lon="6.56598">
        <ele>2015.4</ele>
        <time>2026-02-02T08:14:39Z</time>
      </trkpt>
      <trkpt lat="45.95707" lon="6.56598">
        <ele>2015.4</ele>
        <time>2026-02-02T08:14:40Z</time>
      </trkpt>
      <trkpt lat="45.95708" lon="6.56598">
        <ele>2015.4</ele>
        <time>2026-02-02T08:14:41Z</time>
      </trkpt>
      <trkpt lat="45.95708" lon="6.56598">
        <ele>2015.4</ele>
        <time>2026-02-02T08:14:42Z</time>
      </trkpt>
      <trkpt lat="45.95708" lon="6.56598">
        <ele>2015.4</ele>
        <time>2026-02-02T08:14:43Z</time>
      </trkpt>
      <trkpt lat="45.95708" lon="6.56598">
        <ele>2015.4</ele>
        <time>2026-02-02T08:14:44Z</time>
      </trkpt>
      <trkpt lat="45.95708" lon="6.56598">
        <ele>2015.4</ele>
        <time>2026-02-02T08:14:45Z</time>
      </trkpt>
      <trkpt lat="45.95708" lon="6.56598">
        <ele>2015.4</ele>
        <time>2026-02-02T08:14:46Z</time>
      </trkpt>
      <trkpt lat="45.95708" lon="6.56598">
        <ele>2015.4</ele>
        <time>2026-02-02T08:14:47Z</time>
      </trkpt>
      <trkpt lat="45.95708" lon="6.56598">
        <ele>2015.4</ele>
        <time>2026-02-02T08:14:48Z</time>
      </trkpt>
      <trkpt lat="45.95708" lon="6.56598">
        <ele>2015.4</ele>
        <time>2026-02-02T08:14:49Z</time>
      </trkpt>
      <trkpt lat="45.95708" lon="6.56598">
        <ele>2015.4</ele>
        <time>2026-02-02T08:14:50Z</time>
      </trkpt>
      <trkpt lat="45.95708" lon="6.56598">
        <ele>2015.4</ele>
        <time>2026-02-02T08:14:51Z</time>
      </trkpt>
      <trkpt lat="45.95708" lon="6.56598">
        <ele>2015.4</ele>
        <time>2026-02-02T08:14:52Z</time>
      </trkpt>
      <trkpt lat="45.95708" lon="6.56598">
        <ele>2015.4</ele>
        <time>2026-02-02T08:14:53Z</time>
      </trkpt>
      <trkpt lat="45.95708" lon="6.56598">
        <ele>2015.4</ele>
        <time>2026-02-02T08:14:54Z</time>
      </trkpt>
      <trkpt lat="45.95708" lon="6.56598">
        <ele>2015.4</ele>
        <time>2026-02-02T08:14:55Z</time>
      </trkpt>
      <trkpt lat="45.95708" lon="6.56598">
        <ele>2015.4</ele>
        <time>2026-02-02T08:14:56Z</time>
      </trkpt>
      <trkpt lat="45.95708" lon="6.56597">
        <ele>2015.5</ele>
        <time>2026-02-02T08:14:57Z</time>
      </trkpt>
      <trkpt lat="45.95707" lon="6.56597">
        <ele>2015.5</ele>
        <time>2026-02-02T08:14:58Z</time>
      </trkpt>
      <trkpt lat="45.95707" lon="6.56597">
        <ele>2015.5</ele>
        <time>2026-02-02T08:14:59Z</time>
      </trkpt>
      <trkpt lat="45.95706" lon="6.56597">
        <ele>2016.7</ele>
        <time>2026-02-02T08:15:00Z</time>
      </trkpt>
      <trkpt lat="45.95705" lon="6.56597">
        <ele>2016.7</ele>
        <time>2026-02-02T08:15:01Z</time>
      </trkpt>
      <trkpt lat="45.95704" lon="6.56598">
        <ele>2016.7</ele>
        <time>2026-02-02T08:15:02Z</time>
      </trkpt>
      <trkpt lat="45.95703" lon="6.56598">
        <ele>2016.7</ele>
        <time>2026-02-02T08:15:03Z</time>
      </trkpt>
      <trkpt lat="45.95703" lon="6.56599">
        <ele>2018</ele>
        <time>2026-02-02T08:15:04Z</time>
      </trkpt>
      <trkpt lat="45.95702" lon="6.56599">
        <ele>2018</ele>
        <time>2026-02-02T08:15:05Z</time>
      </trkpt>
      <trkpt lat="45.95701" lon="6.566">
        <ele>2018</ele>
        <time>2026-02-02T08:15:06Z</time>
      </trkpt>
      <trkpt lat="45.95701" lon="6.56601">
        <ele>2017</ele>
        <time>2026-02-02T08:15:07Z</time>
      </trkpt>
      <trkpt lat="45.95701" lon="6.56603">
        <ele>2017</ele>
        <time>2026-02-02T08:15:08Z</time>
      </trkpt>
      <trkpt lat="45.957" lon="6.56603">
        <ele>2017</ele>
        <time>2026-02-02T08:15:09Z</time>
      </trkpt>
      <trkpt lat="45.95699" lon="6.56604">
        <ele>2018.4</ele>
        <time>2026-02-02T08:15:10Z</time>
      </trkpt>
      <trkpt lat="45.95699" lon="6.56604">
        <ele>2018.4</ele>
        <time>2026-02-02T08:15:11Z</time>
      </trkpt>
      <trkpt lat="45.95697" lon="6.56605">
        <ele>2017.6</ele>
        <time>2026-02-02T08:15:12Z</time>
      </trkpt>
      <trkpt lat="45.95697" lon="6.56605">
        <ele>2017.6</ele>
        <time>2026-02-02T08:15:13Z</time>
      </trkpt>
      <trkpt lat="45.95696" lon="6.56605">
        <ele>2019.1</ele>
        <time>2026-02-02T08:15:14Z</time>
      </trkpt>
      <trkpt lat="45.95696" lon="6.56605">
        <ele>2019.1</ele>
        <time>2026-02-02T08:15:15Z</time>
      </trkpt>
      <trkpt lat="45.95696" lon="6.56605">
        <ele>2019.1</ele>
        <time>2026-02-02T08:15:16Z</time>
      </trkpt>
      <trkpt lat="45.95696" lon="6.56605">
        <ele>2019.1</ele>
        <time>2026-02-02T08:15:17Z</time>
      </trkpt>
      <trkpt lat="45.95695" lon="6.56605">
        <ele>2019.1</ele>
        <time>2026-02-02T08:15:18Z</time>
      </trkpt>
      <trkpt lat="45.95694" lon="6.56606">
        <ele>2019.1</ele>
        <time>2026-02-02T08:15:19Z</time>
      </trkpt>
      <trkpt lat="45.95694" lon="6.56606">
        <ele>2020.6</ele>
        <time>2026-02-02T08:15:20Z</time>
      </trkpt>
      <trkpt lat="45.95693" lon="6.56607">
        <ele>2020.6</ele>
        <time>2026-02-02T08:15:21Z</time>
      </trkpt>
      <trkpt lat="45.95692" lon="6.56607">
        <ele>2020.6</ele>
        <time>2026-02-02T08:15:22Z</time>
      </trkpt>
      <trkpt lat="45.95691" lon="6.56607">
        <ele>2020.6</ele>
        <time>2026-02-02T08:15:23Z</time>
      </trkpt>
      <trkpt lat="45.9569" lon="6.56608">
        <ele>2022.1</ele>
        <time>2026-02-02T08:15:24Z</time>
      </trkpt>
      <trkpt lat="45.95689" lon="6.56608">
        <ele>2022.1</ele>
        <time>2026-02-02T08:15:25Z</time>
      </trkpt>
      <trkpt lat="45.95688" lon="6.56608">
        <ele>2022.1</ele>
        <time>2026-02-02T08:15:26Z</time>
      </trkpt>
      <trkpt lat="45.95688" lon="6.56608">
        <ele>2023.5</ele>
        <time>2026-02-02T08:15:27Z</time>
      </trkpt>
      <trkpt lat="45.95688" lon="6.56608">
        <ele>2023.5</ele>
        <time>2026-02-02T08:15:28Z</time>
      </trkpt>
      <trkpt lat="45.95687" lon="6.56608">
        <ele>2023.5</ele>
        <time>2026-02-02T08:15:29Z</time>
      </trkpt>
      <trkpt lat="45.95687" lon="6.56608">
        <ele>2023.6</ele>
        <time>2026-02-02T08:15:30Z</time>
      </trkpt>
      <trkpt lat="45.95687" lon="6.56608">
        <ele>2023.6</ele>
        <time>2026-02-02T08:15:31Z</time>
      </trkpt>
      <trkpt lat="45.95687" lon="6.56608">
        <ele>2023.6</ele>
        <time>2026-02-02T08:15:32Z</time>
      </trkpt>
      <trkpt lat="45.95686" lon="6.56608">
        <ele>2023.6</ele>
        <time>2026-02-02T08:15:33Z</time>
      </trkpt>
      <trkpt lat="45.95686" lon="6.56608">
        <ele>2023.6</ele>
        <time>2026-02-02T08:15:34Z</time>
      </trkpt>
      <trkpt lat="45.95686" lon="6.56608">
        <ele>2023.6</ele>
        <time>2026-02-02T08:15:35Z</time>
      </trkpt>
      <trkpt lat="45.95686" lon="6.56608">
        <ele>2023.6</ele>
        <time>2026-02-02T08:15:36Z</time>
      </trkpt>
      <trkpt lat="45.95685" lon="6.56608">
        <ele>2023.6</ele>
        <time>2026-02-02T08:15:37Z</time>
      </trkpt>
      <trkpt lat="45.95685" lon="6.56608">
        <ele>2023.6</ele>
        <time>2026-02-02T08:15:38Z</time>
      </trkpt>
      <trkpt lat="45.95685" lon="6.56608">
        <ele>2023.6</ele>
        <time>2026-02-02T08:15:39Z</time>
      </trkpt>
      <trkpt lat="45.95685" lon="6.56608">
        <ele>2025</ele>
        <time>2026-02-02T08:15:40Z</time>
      </trkpt>
      <trkpt lat="45.95685" lon="6.56608">
        <ele>2025</ele>
        <time>2026-02-02T08:15:41Z</time>
      </trkpt>
      <trkpt lat="45.95684" lon="6.56608">
        <ele>2025</ele>
        <time>2026-02-02T08:15:42Z</time>
      </trkpt>
      <trkpt lat="45.95684" lon="6.56609">
        <ele>2025</ele>
        <time>2026-02-02T08:15:44Z</time>
      </trkpt>
      <trkpt lat="45.95684" lon="6.56609">
        <ele>2025</ele>
        <time>2026-02-02T08:15:45Z</time>
      </trkpt>
      <trkpt lat="45.95682" lon="6.56609">
        <ele>2024.4</ele>
        <time>2026-02-02T08:15:46Z</time>
      </trkpt>
      <trkpt lat="45.95681" lon="6.5661">
        <ele>2025.7</ele>
        <time>2026-02-02T08:15:47Z</time>
      </trkpt>
      <trkpt lat="45.9568" lon="6.5661">
        <ele>2025.7</ele>
        <time>2026-02-02T08:15:48Z</time>
      </trkpt>
      <trkpt lat="45.9568" lon="6.56611">
        <ele>2025.7</ele>
        <time>2026-02-02T08:15:49Z</time>
      </trkpt>
      <trkpt lat="45.95679" lon="6.56612">
        <ele>2025.7</ele>
        <time>2026-02-02T08:15:50Z</time>
      </trkpt>
      <trkpt lat="45.95679" lon="6.56612">
        <ele>2027</ele>
        <time>2026-02-02T08:15:51Z</time>
      </trkpt>
      <trkpt lat="45.95678" lon="6.56613">
        <ele>2027</ele>
        <time>2026-02-02T08:15:52Z</time>
      </trkpt>
      <trkpt lat="45.95677" lon="6.56614">
        <ele>2026.5</ele>
        <time>2026-02-02T08:15:53Z</time>
      </trkpt>
      <trkpt lat="45.95676" lon="6.56616">
        <ele>2026.5</ele>
        <time>2026-02-02T08:15:54Z</time>
      </trkpt>
      <trkpt lat="45.95676" lon="6.56617">
        <ele>2027.8</ele>
        <time>2026-02-02T08:15:56Z</time>
      </trkpt>
      <trkpt lat="45.95675" lon="6.56618">
        <ele>2027.8</ele>
        <time>2026-02-02T08:15:57Z</time>
      </trkpt>
      <trkpt lat="45.95675" lon="6.56619">
        <ele>2027.4</ele>
        <time>2026-02-02T08:15:58Z</time>
      </trkpt>
      <trkpt lat="45.95675" lon="6.5662">
        <ele>2027.4</ele>
        <time>2026-02-02T08:15:59Z</time>
      </trkpt>
      <trkpt lat="45.95675" lon="6.56621">
        <ele>2027.4</ele>
        <time>2026-02-02T08:16:00Z</time>
      </trkpt>
      <trkpt lat="45.95675" lon="6.56622">
        <ele>2027.4</ele>
        <time>2026-02-02T08:16:01Z</time>
      </trkpt>
      <trkpt lat="45.95674" lon="6.56623">
        <ele>2027.1</ele>
        <time>2026-02-02T08:16:02Z</time>
      </trkpt>
      <trkpt lat="45.95674" lon="6.56623">
        <ele>2027.1</ele>
        <time>2026-02-02T08:16:03Z</time>
      </trkpt>
      <trkpt lat="45.95674" lon="6.56623">
        <ele>2027.1</ele>
        <time>2026-02-02T08:16:04Z</time>
      </trkpt>
      <trkpt lat="45.95673" lon="6.56622">
        <ele>2027.1</ele>
        <time>2026-02-02T08:16:05Z</time>
      </trkpt>
      <trkpt lat="45.95673" lon="6.56622">
        <ele>2027.1</ele>
        <time>2026-02-02T08:16:06Z</time>
      </trkpt>
      <trkpt lat="45.95674" lon="6.56622">
        <ele>2027.1</ele>
        <time>2026-02-02T08:16:07Z</time>
      </trkpt>
      <trkpt lat="45.95674" lon="6.56622">
        <ele>2027.1</ele>
        <time>2026-02-02T08:16:08Z</time>
      </trkpt>
      <trkpt lat="45.95674" lon="6.56622">
        <ele>2027.1</ele>
        <time>2026-02-02T08:16:09Z</time>
      </trkpt>
      <trkpt lat="45.95675" lon="6.56623">
        <ele>2027.1</ele>
        <time>2026-02-02T08:16:10Z</time>
      </trkpt>
      <trkpt lat="45.95675" lon="6.56623">
        <ele>2027.1</ele>
        <time>2026-02-02T08:16:11Z</time>
      </trkpt>
      <trkpt lat="45.95675" lon="6.56623">
        <ele>2027.1</ele>
        <time>2026-02-02T08:16:12Z</time>
      </trkpt>
      <trkpt lat="45.95675" lon="6.56623">
        <ele>2027.1</ele>
        <time>2026-02-02T08:16:13Z</time>
      </trkpt>
      <trkpt lat="45.95675" lon="6.56623">
        <ele>2027.1</ele>
        <time>2026-02-02T08:16:14Z</time>
      </trkpt>
      <trkpt lat="45.95675" lon="6.56623">
        <ele>2027.1</ele>
        <time>2026-02-02T08:16:15Z</time>
      </trkpt>
      <trkpt lat="45.95675" lon="6.56623">
        <ele>2027.1</ele>
        <time>2026-02-02T08:16:16Z</time>
      </trkpt>
      <trkpt lat="45.95675" lon="6.56623">
        <ele>2027.1</ele>
        <time>2026-02-02T08:16:17Z</time>
      </trkpt>
      <trkpt lat="45.95675" lon="6.56623">
        <ele>2027.2</ele>
        <time>2026-02-02T08:16:18Z</time>
      </trkpt>
      <trkpt lat="45.95675" lon="6.56623">
        <ele>2027.2</ele>
        <time>2026-02-02T08:16:19Z</time>
      </trkpt>
      <trkpt lat="45.95675" lon="6.56623">
        <ele>2027.2</ele>
        <time>2026-02-02T08:16:20Z</time>
      </trkpt>
      <trkpt lat="45.95675" lon="6.56623">
        <ele>2027.2</ele>
        <time>2026-02-02T08:16:21Z</time>
      </trkpt>
      <trkpt lat="45.95675" lon="6.56623">
        <ele>2027.2</ele>
        <time>2026-02-02T08:16:22Z</time>
      </trkpt>
      <trkpt lat="45.95675" lon="6.56623">
        <ele>2027.2</ele>
        <time>2026-02-02T08:16:23Z</time>
      </trkpt>
      <trkpt lat="45.95675" lon="6.56623">
        <ele>2027.2</ele>
        <time>2026-02-02T08:16:24Z</time>
      </trkpt>
      <trkpt lat="45.95675" lon="6.56622">
        <ele>2027.2</ele>
        <time>2026-02-02T08:16:25Z</time>
      </trkpt>
      <trkpt lat="45.95675" lon="6.56622">
        <ele>2027.6</ele>
        <time>2026-02-02T08:16:26Z</time>
      </trkpt>
      <trkpt lat="45.95675" lon="6.5662">
        <ele>2027.6</ele>
        <time>2026-02-02T08:16:27Z</time>
      </trkpt>
      <trkpt lat="45.95675" lon="6.56617">
        <ele>2028</ele>
        <time>2026-02-02T08:16:28Z</time>
      </trkpt>
      <trkpt lat="45.95675" lon="6.56615">
        <ele>2028</ele>
        <time>2026-02-02T08:16:29Z</time>
      </trkpt>
      <trkpt lat="45.95675" lon="6.56613">
        <ele>2028.5</ele>
        <time>2026-02-02T08:16:30Z</time>
      </trkpt>
      <trkpt lat="45.95676" lon="6.56612">
        <ele>2028.5</ele>
        <time>2026-02-02T08:16:31Z</time>
      </trkpt>
      <trkpt lat="45.95676" lon="6.56611">
        <ele>2027.2</ele>
        <time>2026-02-02T08:16:32Z</time>
      </trkpt>
      <trkpt lat="45.95676" lon="6.5661">
        <ele>2028.5</ele>
        <time>2026-02-02T08:16:33Z</time>
      </trkpt>
      <trkpt lat="45.95675" lon="6.5661">
        <ele>2028.5</ele>
        <time>2026-02-02T08:16:34Z</time>
      </trkpt>
      <trkpt lat="45.95674" lon="6.56611">
        <ele>2028.5</ele>
        <time>2026-02-02T08:16:35Z</time>
      </trkpt>
      <trkpt lat="45.95674" lon="6.56612">
        <ele>2028.5</ele>
        <time>2026-02-02T08:16:36Z</time>
      </trkpt>
      <trkpt lat="45.95673" lon="6.56612">
        <ele>2028.5</ele>
        <time>2026-02-02T08:16:37Z</time>
      </trkpt>
      <trkpt lat="45.95672" lon="6.56613">
        <ele>2029.9</ele>
        <time>2026-02-02T08:16:38Z</time>
      </trkpt>
      <trkpt lat="45.95671" lon="6.56614">
        <ele>2029.4</ele>
        <time>2026-02-02T08:16:39Z</time>
      </trkpt>
      <trkpt lat="45.9567" lon="6.56614">
        <ele>2030.8</ele>
        <time>2026-02-02T08:16:40Z</time>
      </trkpt>
      <trkpt lat="45.95668" lon="6.56616">
        <ele>2030.8</ele>
        <time>2026-02-02T08:16:41Z</time>
      </trkpt>
      <trkpt lat="45.95667" lon="6.56616">
        <ele>2030.8</ele>
        <time>2026-02-02T08:16:43Z</time>
      </trkpt>
      <trkpt lat="45.95666" lon="6.56617">
        <ele>2032.3</ele>
        <time>2026-02-02T08:16:44Z</time>
      </trkpt>
      <trkpt lat="45.95665" lon="6.56617">
        <ele>2032.3</ele>
        <time>2026-02-02T08:16:45Z</time>
      </trkpt>
      <trkpt lat="45.95664" lon="6.56617">
        <ele>2032.3</ele>
        <time>2026-02-02T08:16:46Z</time>
      </trkpt>
      <trkpt lat="45.95664" lon="6.56618">
        <ele>2033.4</ele>
        <time>2026-02-02T08:16:47Z</time>
      </trkpt>
      <trkpt lat="45.95664" lon="6.56618">
        <ele>2033.4</ele>
        <time>2026-02-02T08:16:48Z</time>
      </trkpt>
      <trkpt lat="45.95664" lon="6.56619">
        <ele>2033.4</ele>
        <time>2026-02-02T08:16:49Z</time>
      </trkpt>
      <trkpt lat="45.95664" lon="6.56618">
        <ele>2033.5</ele>
        <time>2026-02-02T08:16:50Z</time>
      </trkpt>
      <trkpt lat="45.95664" lon="6.56618">
        <ele>2032</ele>
        <time>2026-02-02T08:16:52Z</time>
      </trkpt>
      <trkpt lat="45.95665" lon="6.56618">
        <ele>2032</ele>
        <time>2026-02-02T08:16:53Z</time>
      </trkpt>
      <trkpt lat="45.95665" lon="6.56618">
        <ele>2032</ele>
        <time>2026-02-02T08:16:54Z</time>
      </trkpt>
      <trkpt lat="45.95665" lon="6.56618">
        <ele>2032</ele>
        <time>2026-02-02T08:16:55Z</time>
      </trkpt>
      <trkpt lat="45.95665" lon="6.56618">
        <ele>2032</ele>
        <time>2026-02-02T08:16:56Z</time>
      </trkpt>
      <trkpt lat="45.95665" lon="6.56618">
        <ele>2032</ele>
        <time>2026-02-02T08:16:57Z</time>
      </trkpt>
      <trkpt lat="45.95665" lon="6.56618">
        <ele>2032</ele>
        <time>2026-02-02T08:16:58Z</time>
      </trkpt>
      <trkpt lat="45.95665" lon="6.56619">
        <ele>2032</ele>
        <time>2026-02-02T08:16:59Z</time>
      </trkpt>
      <trkpt lat="45.95665" lon="6.56619">
        <ele>2032</ele>
        <time>2026-02-02T08:17:00Z</time>
      </trkpt>
      <trkpt lat="45.95665" lon="6.56619">
        <ele>2032</ele>
        <time>2026-02-02T08:17:01Z</time>
      </trkpt>
      <trkpt lat="45.95664" lon="6.5662">
        <ele>2032.1</ele>
        <time>2026-02-02T08:17:02Z</time>
      </trkpt>
      <trkpt lat="45.95663" lon="6.56621">
        <ele>2033.5</ele>
        <time>2026-02-02T08:17:03Z</time>
      </trkpt>
      <trkpt lat="45.95663" lon="6.56622">
        <ele>2033.3</ele>
        <time>2026-02-02T08:17:04Z</time>
      </trkpt>
      <trkpt lat="45.95662" lon="6.56625">
        <ele>2033.3</ele>
        <time>2026-02-02T08:17:05Z</time>
      </trkpt>
      <trkpt lat="45.95661" lon="6.56626">
        <ele>2034.7</ele>
        <time>2026-02-02T08:17:06Z</time>
      </trkpt>
      <trkpt lat="45.9566" lon="6.56627">
        <ele>2034.5</ele>
        <time>2026-02-02T08:17:07Z</time>
      </trkpt>
      <trkpt lat="45.9566" lon="6.56628">
        <ele>2034.5</ele>
        <time>2026-02-02T08:17:08Z</time>
      </trkpt>
      <trkpt lat="45.9566" lon="6.56628">
        <ele>2034.5</ele>
        <time>2026-02-02T08:17:09Z</time>
      </trkpt>
      <trkpt lat="45.9566" lon="6.56628">
        <ele>2034.6</ele>
        <time>2026-02-02T08:17:10Z</time>
      </trkpt>
      <trkpt lat="45.9566" lon="6.56629">
        <ele>2034.6</ele>
        <time>2026-02-02T08:17:11Z</time>
      </trkpt>
      <trkpt lat="45.9566" lon="6.5663">
        <ele>2034.6</ele>
        <time>2026-02-02T08:17:12Z</time>
      </trkpt>
      <trkpt lat="45.9566" lon="6.56631">
        <ele>2034.4</ele>
        <time>2026-02-02T08:17:13Z</time>
      </trkpt>
      <trkpt lat="45.9566" lon="6.56632">
        <ele>2034.4</ele>
        <time>2026-02-02T08:17:14Z</time>
      </trkpt>
      <trkpt lat="45.95661" lon="6.56632">
        <ele>2034.5</ele>
        <time>2026-02-02T08:17:15Z</time>
      </trkpt>
      <trkpt lat="45.95661" lon="6.56633">
        <ele>2034.5</ele>
        <time>2026-02-02T08:17:16Z</time>
      </trkpt>
      <trkpt lat="45.95661" lon="6.56633">
        <ele>2034.5</ele>
        <time>2026-02-02T08:17:17Z</time>
      </trkpt>
      <trkpt lat="45.95661" lon="6.56633">
        <ele>2034.5</ele>
        <time>2026-02-02T08:17:18Z</time>
      </trkpt>
      <trkpt lat="45.95661" lon="6.56633">
        <ele>2034.5</ele>
        <time>2026-02-02T08:17:19Z</time>
      </trkpt>
      <trkpt lat="45.95661" lon="6.56633">
        <ele>2034.5</ele>
        <time>2026-02-02T08:17:20Z</time>
      </trkpt>
      <trkpt lat="45.95661" lon="6.56633">
        <ele>2034.5</ele>
        <time>2026-02-02T08:17:21Z</time>
      </trkpt>
      <trkpt lat="45.95661" lon="6.56633">
        <ele>2034.5</ele>
        <time>2026-02-02T08:17:22Z</time>
      </trkpt>
      <trkpt lat="45.95661" lon="6.56633">
        <ele>2034.5</ele>
        <time>2026-02-02T08:17:23Z</time>
      </trkpt>
      <trkpt lat="45.95661" lon="6.56633">
        <ele>2034.5</ele>
        <time>2026-02-02T08:17:24Z</time>
      </trkpt>
      <trkpt lat="45.95661" lon="6.56633">
        <ele>2034.5</ele>
        <time>2026-02-02T08:17:25Z</time>
      </trkpt>
      <trkpt lat="45.95661" lon="6.56633">
        <ele>2034.5</ele>
        <time>2026-02-02T08:17:26Z</time>
      </trkpt>
      <trkpt lat="45.95661" lon="6.56633">
        <ele>2034.5</ele>
        <time>2026-02-02T08:17:27Z</time>
      </trkpt>
      <trkpt lat="45.95661" lon="6.56634">
        <ele>2034.5</ele>
        <time>2026-02-02T08:17:28Z</time>
      </trkpt>
      <trkpt lat="45.95661" lon="6.56634">
        <ele>2034.5</ele>
        <time>2026-02-02T08:17:29Z</time>
      </trkpt>
      <trkpt lat="45.95661" lon="6.56633">
        <ele>2034.5</ele>
        <time>2026-02-02T08:17:30Z</time>
      </trkpt>
      <trkpt lat="45.95661" lon="6.56634">
        <ele>2034.5</ele>
        <time>2026-02-02T08:17:31Z</time>
      </trkpt>
      <trkpt lat="45.95661" lon="6.56635">
        <ele>2034.5</ele>
        <time>2026-02-02T08:17:32Z</time>
      </trkpt>
      <trkpt lat="45.95661" lon="6.56636">
        <ele>2033</ele>
        <time>2026-02-02T08:17:33Z</time>
      </trkpt>
      <trkpt lat="45.95661" lon="6.56637">
        <ele>2033</ele>
        <time>2026-02-02T08:17:34Z</time>
      </trkpt>
      <trkpt lat="45.95662" lon="6.56639">
        <ele>2033</ele>
        <time>2026-02-02T08:17:35Z</time>
      </trkpt>
      <trkpt lat="45.95662" lon="6.5664">
        <ele>2032.9</ele>
        <time>2026-02-02T08:17:36Z</time>
      </trkpt>
      <trkpt lat="45.95662" lon="6.56641">
        <ele>2032.9</ele>
        <time>2026-02-02T08:17:37Z</time>
      </trkpt>
      <trkpt lat="45.95662" lon="6.56641">
        <ele>2032.9</ele>
        <time>2026-02-02T08:17:38Z</time>
      </trkpt>
      <trkpt lat="45.95662" lon="6.56642">
        <ele>2032.9</ele>
        <time>2026-02-02T08:17:39Z</time>
      </trkpt>
      <trkpt lat="45.95662" lon="6.56642">
        <ele>2032.9</ele>
        <time>2026-02-02T08:17:41Z</time>
      </trkpt>
      <trkpt lat="45.95662" lon="6.56642">
        <ele>2032.9</ele>
        <time>2026-02-02T08:17:42Z</time>
      </trkpt>
      <trkpt lat="45.95662" lon="6.56642">
        <ele>2032.9</ele>
        <time>2026-02-02T08:17:43Z</time>
      </trkpt>
      <trkpt lat="45.95662" lon="6.56642">
        <ele>2033</ele>
        <time>2026-02-02T08:17:44Z</time>
      </trkpt>
      <trkpt lat="45.95662" lon="6.56641">
        <ele>2033</ele>
        <time>2026-02-02T08:17:45Z</time>
      </trkpt>
      <trkpt lat="45.95662" lon="6.56641">
        <ele>2033</ele>
        <time>2026-02-02T08:17:46Z</time>
      </trkpt>
      <trkpt lat="45.95662" lon="6.56641">
        <ele>2033</ele>
        <time>2026-02-02T08:17:47Z</time>
      </trkpt>
      <trkpt lat="45.95662" lon="6.56641">
        <ele>2033</ele>
        <time>2026-02-02T08:17:48Z</time>
      </trkpt>
      <trkpt lat="45.95662" lon="6.56641">
        <ele>2033</ele>
        <time>2026-02-02T08:17:49Z</time>
      </trkpt>
      <trkpt lat="45.95662" lon="6.56641">
        <ele>2033</ele>
        <time>2026-02-02T08:17:51Z</time>
      </trkpt>
      <trkpt lat="45.95662" lon="6.56641">
        <ele>2033</ele>
        <time>2026-02-02T08:17:52Z</time>
      </trkpt>
      <trkpt lat="45.95662" lon="6.56641">
        <ele>2033</ele>
        <time>2026-02-02T08:17:53Z</time>
      </trkpt>
      <trkpt lat="45.95662" lon="6.56641">
        <ele>2033</ele>
        <time>2026-02-02T08:17:54Z</time>
      </trkpt>
      <trkpt lat="45.95662" lon="6.56642">
        <ele>2033</ele>
        <time>2026-02-02T08:17:55Z</time>
      </trkpt>
      <trkpt lat="45.95662" lon="6.56642">
        <ele>2033</ele>
        <time>2026-02-02T08:17:56Z</time>
      </trkpt>
      <trkpt lat="45.95662" lon="6.56641">
        <ele>2033</ele>
        <time>2026-02-02T08:17:57Z</time>
      </trkpt>
      <trkpt lat="45.95662" lon="6.56641">
        <ele>2033</ele>
        <time>2026-02-02T08:17:58Z</time>
      </trkpt>
      <trkpt lat="45.95663" lon="6.56642">
        <ele>2033</ele>
        <time>2026-02-02T08:17:59Z</time>
      </trkpt>
      <trkpt lat="45.95663" lon="6.56642">
        <ele>2033</ele>
        <time>2026-02-02T08:18:00Z</time>
      </trkpt>
      <trkpt lat="45.95663" lon="6.56643">
        <ele>2033</ele>
        <time>2026-02-02T08:18:01Z</time>
      </trkpt>
      <trkpt lat="45.95663" lon="6.56645">
        <ele>2033</ele>
        <time>2026-02-02T08:18:02Z</time>
      </trkpt>
      <trkpt lat="45.95664" lon="6.56646">
        <ele>2033</ele>
        <time>2026-02-02T08:18:03Z</time>
      </trkpt>
      <trkpt lat="45.95664" lon="6.56646">
        <ele>2033</ele>
        <time>2026-02-02T08:18:04Z</time>
      </trkpt>
      <trkpt lat="45.95664" lon="6.56648">
        <ele>2031.4</ele>
        <time>2026-02-02T08:18:05Z</time>
      </trkpt>
      <trkpt lat="45.95665" lon="6.5665">
        <ele>2031.4</ele>
        <time>2026-02-02T08:18:06Z</time>
      </trkpt>
      <trkpt lat="45.95665" lon="6.56651">
        <ele>2031.4</ele>
        <time>2026-02-02T08:18:07Z</time>
      </trkpt>
      <trkpt lat="45.95666" lon="6.56653">
        <ele>2031.5</ele>
        <time>2026-02-02T08:18:08Z</time>
      </trkpt>
      <trkpt lat="45.95666" lon="6.56654">
        <ele>2031.5</ele>
        <time>2026-02-02T08:18:09Z</time>
      </trkpt>
      <trkpt lat="45.95667" lon="6.56655">
        <ele>2031.5</ele>
        <time>2026-02-02T08:18:10Z</time>
      </trkpt>
      <trkpt lat="45.95667" lon="6.56656">
        <ele>2031.5</ele>
        <time>2026-02-02T08:18:11Z</time>
      </trkpt>
      <trkpt lat="45.95667" lon="6.56658">
        <ele>2031.7</ele>
        <time>2026-02-02T08:18:12Z</time>
      </trkpt>
      <trkpt lat="45.95666" lon="6.56658">
        <ele>2031.7</ele>
        <time>2026-02-02T08:18:13Z</time>
      </trkpt>
      <trkpt lat="45.95666" lon="6.56658">
        <ele>2031.7</ele>
        <time>2026-02-02T08:18:14Z</time>
      </trkpt>
      <trkpt lat="45.95665" lon="6.56658">
        <ele>2031.7</ele>
        <time>2026-02-02T08:18:15Z</time>
      </trkpt>
      <trkpt lat="45.95665" lon="6.56658">
        <ele>2031.7</ele>
        <time>2026-02-02T08:18:16Z</time>
      </trkpt>
      <trkpt lat="45.95665" lon="6.56658">
        <ele>2031.7</ele>
        <time>2026-02-02T08:18:17Z</time>
      </trkpt>
      <trkpt lat="45.95664" lon="6.56657">
        <ele>2031.7</ele>
        <time>2026-02-02T08:18:18Z</time>
      </trkpt>
      <trkpt lat="45.95664" lon="6.56657">
        <ele>2033.5</ele>
        <time>2026-02-02T08:18:19Z</time>
      </trkpt>
      <trkpt lat="45.95663" lon="6.56656">
        <ele>2033.5</ele>
        <time>2026-02-02T08:18:20Z</time>
      </trkpt>
      <trkpt lat="45.95662" lon="6.56655">
        <ele>2033.3</ele>
        <time>2026-02-02T08:18:21Z</time>
      </trkpt>
      <trkpt lat="45.95662" lon="6.56654">
        <ele>2033.3</ele>
        <time>2026-02-02T08:18:22Z</time>
      </trkpt>
      <trkpt lat="45.95661" lon="6.56653">
        <ele>2034.9</ele>
        <time>2026-02-02T08:18:23Z</time>
      </trkpt>
      <trkpt lat="45.95659" lon="6.56652">
        <ele>2034.8</ele>
        <time>2026-02-02T08:18:24Z</time>
      </trkpt>
      <trkpt lat="45.95659" lon="6.56651">
        <ele>2034.8</ele>
        <time>2026-02-02T08:18:25Z</time>
      </trkpt>
      <trkpt lat="45.95659" lon="6.56651">
        <ele>2034.8</ele>
        <time>2026-02-02T08:18:26Z</time>
      </trkpt>
      <trkpt lat="45.95658" lon="6.5665">
        <ele>2034.8</ele>
        <time>2026-02-02T08:18:27Z</time>
      </trkpt>
      <trkpt lat="45.95658" lon="6.5665">
        <ele>2034.8</ele>
        <time>2026-02-02T08:18:28Z</time>
      </trkpt>
      <trkpt lat="45.95658" lon="6.56649">
        <ele>2034.8</ele>
        <time>2026-02-02T08:18:29Z</time>
      </trkpt>
      <trkpt lat="45.95658" lon="6.56649">
        <ele>2036.3</ele>
        <time>2026-02-02T08:18:30Z</time>
      </trkpt>
      <trkpt lat="45.95658" lon="6.56648">
        <ele>2036.3</ele>
        <time>2026-02-02T08:18:31Z</time>
      </trkpt>
      <trkpt lat="45.95657" lon="6.56648">
        <ele>2036.3</ele>
        <time>2026-02-02T08:18:32Z</time>
      </trkpt>
      <trkpt lat="45.95657" lon="6.56648">
        <ele>2036.3</ele>
        <time>2026-02-02T08:18:33Z</time>
      </trkpt>
      <trkpt lat="45.95657" lon="6.56648">
        <ele>2036.3</ele>
        <time>2026-02-02T08:18:34Z</time>
      </trkpt>
      <trkpt lat="45.95657" lon="6.56648">
        <ele>2036.3</ele>
        <time>2026-02-02T08:18:35Z</time>
      </trkpt>
      <trkpt lat="45.95658" lon="6.56648">
        <ele>2036.3</ele>
        <time>2026-02-02T08:18:36Z</time>
      </trkpt>
      <trkpt lat="45.95658" lon="6.56648">
        <ele>2036.3</ele>
        <time>2026-02-02T08:18:37Z</time>
      </trkpt>
      <trkpt lat="45.95658" lon="6.56648">
        <ele>2036.3</ele>
        <time>2026-02-02T08:18:38Z</time>
      </trkpt>
      <trkpt lat="45.95658" lon="6.56648">
        <ele>2036.3</ele>
        <time>2026-02-02T08:18:39Z</time>
      </trkpt>
      <trkpt lat="45.95658" lon="6.56648">
        <ele>2036.3</ele>
        <time>2026-02-02T08:18:40Z</time>
      </trkpt>
      <trkpt lat="45.95658" lon="6.56648">
        <ele>2036.3</ele>
        <time>2026-02-02T08:18:41Z</time>
      </trkpt>
      <trkpt lat="45.95657" lon="6.56648">
        <ele>2036.3</ele>
        <time>2026-02-02T08:18:42Z</time>
      </trkpt>
      <trkpt lat="45.95657" lon="6.56648">
        <ele>2036.3</ele>
        <time>2026-02-02T08:18:43Z</time>
      </trkpt>
      <trkpt lat="45.95657" lon="6.56648">
        <ele>2036.3</ele>
        <time>2026-02-02T08:18:44Z</time>
      </trkpt>
      <trkpt lat="45.95656" lon="6.56648">
        <ele>2036.2</ele>
        <time>2026-02-02T08:18:45Z</time>
      </trkpt>
      <trkpt lat="45.95656" lon="6.56647">
        <ele>2036.2</ele>
        <time>2026-02-02T08:18:46Z</time>
      </trkpt>
      <trkpt lat="45.95655" lon="6.56646">
        <ele>2037.5</ele>
        <time>2026-02-02T08:18:47Z</time>
      </trkpt>
      <trkpt lat="45.95654" lon="6.56645">
        <ele>2037.5</ele>
        <time>2026-02-02T08:18:48Z</time>
      </trkpt>
      <trkpt lat="45.95653" lon="6.56644">
        <ele>2037.5</ele>
        <time>2026-02-02T08:18:49Z</time>
      </trkpt>
      <trkpt lat="45.95652" lon="6.56644">
        <ele>2038.7</ele>
        <time>2026-02-02T08:18:50Z</time>
      </trkpt>
      <trkpt lat="45.9565" lon="6.56643">
        <ele>2038.6</ele>
        <time>2026-02-02T08:18:51Z</time>
      </trkpt>
      <trkpt lat="45.9565" lon="6.56643">
        <ele>2038.6</ele>
        <time>2026-02-02T08:18:52Z</time>
      </trkpt>
      <trkpt lat="45.95649" lon="6.56643">
        <ele>2039.9</ele>
        <time>2026-02-02T08:18:53Z</time>
      </trkpt>
      <trkpt lat="45.95649" lon="6.56642">
        <ele>2039.9</ele>
        <time>2026-02-02T08:18:54Z</time>
      </trkpt>
      <trkpt lat="45.95648" lon="6.56641">
        <ele>2039.9</ele>
        <time>2026-02-02T08:18:55Z</time>
      </trkpt>
      <trkpt lat="45.95648" lon="6.56641">
        <ele>2039.9</ele>
        <time>2026-02-02T08:18:56Z</time>
      </trkpt>
      <trkpt lat="45.95647" lon="6.5664">
        <ele>2039.9</ele>
        <time>2026-02-02T08:18:57Z</time>
      </trkpt>
      <trkpt lat="45.95646" lon="6.56639">
        <ele>2039.9</ele>
        <time>2026-02-02T08:18:58Z</time>
      </trkpt>
      <trkpt lat="45.95645" lon="6.56638">
        <ele>2041.2</ele>
        <time>2026-02-02T08:18:59Z</time>
      </trkpt>
      <trkpt lat="45.95645" lon="6.56638">
        <ele>2041.2</ele>
        <time>2026-02-02T08:19:00Z</time>
      </trkpt>
      <trkpt lat="45.95644" lon="6.56638">
        <ele>2041.2</ele>
        <time>2026-02-02T08:19:01Z</time>
      </trkpt>
      <trkpt lat="45.95644" lon="6.56637">
        <ele>2041.2</ele>
        <time>2026-02-02T08:19:02Z</time>
      </trkpt>
      <trkpt lat="45.95644" lon="6.56637">
        <ele>2041.2</ele>
        <time>2026-02-02T08:19:03Z</time>
      </trkpt>
      <trkpt lat="45.95644" lon="6.56638">
        <ele>2041.2</ele>
        <time>2026-02-02T08:19:04Z</time>
      </trkpt>
      <trkpt lat="45.95644" lon="6.56638">
        <ele>2041.2</ele>
        <time>2026-02-02T08:19:05Z</time>
      </trkpt>
      <trkpt lat="45.95644" lon="6.56638">
        <ele>2041.2</ele>
        <time>2026-02-02T08:19:06Z</time>
      </trkpt>
      <trkpt lat="45.95644" lon="6.56638">
        <ele>2041.2</ele>
        <time>2026-02-02T08:19:07Z</time>
      </trkpt>
      <trkpt lat="45.95644" lon="6.56638">
        <ele>2041.2</ele>
        <time>2026-02-02T08:19:08Z</time>
      </trkpt>
      <trkpt lat="45.95644" lon="6.56638">
        <ele>2041.3</ele>
        <time>2026-02-02T08:19:09Z</time>
      </trkpt>
      <trkpt lat="45.95644" lon="6.56638">
        <ele>2041.3</ele>
        <time>2026-02-02T08:19:10Z</time>
      </trkpt>
      <trkpt lat="45.95644" lon="6.56638">
        <ele>2041.3</ele>
        <time>2026-02-02T08:19:11Z</time>
      </trkpt>
      <trkpt lat="45.95644" lon="6.56638">
        <ele>2041.3</ele>
        <time>2026-02-02T08:19:12Z</time>
      </trkpt>
      <trkpt lat="45.95644" lon="6.56638">
        <ele>2041.3</ele>
        <time>2026-02-02T08:19:13Z</time>
      </trkpt>
      <trkpt lat="45.95644" lon="6.56638">
        <ele>2041.3</ele>
        <time>2026-02-02T08:19:14Z</time>
      </trkpt>
      <trkpt lat="45.95644" lon="6.56638">
        <ele>2041.3</ele>
        <time>2026-02-02T08:19:15Z</time>
      </trkpt>
      <trkpt lat="45.95644" lon="6.56638">
        <ele>2041.3</ele>
        <time>2026-02-02T08:19:16Z</time>
      </trkpt>
      <trkpt lat="45.95644" lon="6.56639">
        <ele>2041.3</ele>
        <time>2026-02-02T08:19:17Z</time>
      </trkpt>
      <trkpt lat="45.95644" lon="6.5664">
        <ele>2041.4</ele>
        <time>2026-02-02T08:19:18Z</time>
      </trkpt>
      <trkpt lat="45.95644" lon="6.5664">
        <ele>2041.4</ele>
        <time>2026-02-02T08:19:19Z</time>
      </trkpt>
      <trkpt lat="45.95643" lon="6.56641">
        <ele>2043</ele>
        <time>2026-02-02T08:19:20Z</time>
      </trkpt>
      <trkpt lat="45.95643" lon="6.56641">
        <ele>2043</ele>
        <time>2026-02-02T08:19:21Z</time>
      </trkpt>
      <trkpt lat="45.95643" lon="6.56642">
        <ele>2043</ele>
        <time>2026-02-02T08:19:22Z</time>
      </trkpt>
      <trkpt lat="45.95643" lon="6.56643">
        <ele>2043</ele>
        <time>2026-02-02T08:19:23Z</time>
      </trkpt>
      <trkpt lat="45.95642" lon="6.56644">
        <ele>2043.2</ele>
        <time>2026-02-02T08:19:24Z</time>
      </trkpt>
      <trkpt lat="45.95642" lon="6.56645">
        <ele>2043.2</ele>
        <time>2026-02-02T08:19:25Z</time>
      </trkpt>
      <trkpt lat="45.95642" lon="6.56647">
        <ele>2043.2</ele>
        <time>2026-02-02T08:19:26Z</time>
      </trkpt>
      <trkpt lat="45.95642" lon="6.56649">
        <ele>2043.4</ele>
        <time>2026-02-02T08:19:27Z</time>
      </trkpt>
      <trkpt lat="45.95642" lon="6.5665">
        <ele>2043.4</ele>
        <time>2026-02-02T08:19:28Z</time>
      </trkpt>
      <trkpt lat="45.95642" lon="6.56651">
        <ele>2043.4</ele>
        <time>2026-02-02T08:19:29Z</time>
      </trkpt>
      <trkpt lat="45.95641" lon="6.56652">
        <ele>2043.7</ele>
        <time>2026-02-02T08:19:30Z</time>
      </trkpt>
      <trkpt lat="45.95642" lon="6.56653">
        <ele>2043.7</ele>
        <time>2026-02-02T08:19:31Z</time>
      </trkpt>
      <trkpt lat="45.95642" lon="6.56655">
        <ele>2043.7</ele>
        <time>2026-02-02T08:19:32Z</time>
      </trkpt>
      <trkpt lat="45.95642" lon="6.56657">
        <ele>2044</ele>
        <time>2026-02-02T08:19:33Z</time>
      </trkpt>
      <trkpt lat="45.95642" lon="6.56658">
        <ele>2044</ele>
        <time>2026-02-02T08:19:34Z</time>
      </trkpt>
      <trkpt lat="45.95642" lon="6.5666">
        <ele>2044.1</ele>
        <time>2026-02-02T08:19:35Z</time>
      </trkpt>
      <trkpt lat="45.95642" lon="6.56661">
        <ele>2044.4</ele>
        <time>2026-02-02T08:19:36Z</time>
      </trkpt>
      <trkpt lat="45.95642" lon="6.56663">
        <ele>2044.4</ele>
        <time>2026-02-02T08:19:37Z</time>
      </trkpt>
      <trkpt lat="45.95642" lon="6.56663">
        <ele>2044.4</ele>
        <time>2026-02-02T08:19:38Z</time>
      </trkpt>
      <trkpt lat="45.95643" lon="6.56664">
        <ele>2044.4</ele>
        <time>2026-02-02T08:19:39Z</time>
      </trkpt>
      <trkpt lat="45.95643" lon="6.56665">
        <ele>2044.8</ele>
        <time>2026-02-02T08:19:40Z</time>
      </trkpt>
      <trkpt lat="45.95642" lon="6.56665">
        <ele>2044.4</ele>
        <time>2026-02-02T08:19:41Z</time>
      </trkpt>
      <trkpt lat="45.95642" lon="6.56665">
        <ele>2044.4</ele>
        <time>2026-02-02T08:19:42Z</time>
      </trkpt>
      <trkpt lat="45.95642" lon="6.56665">
        <ele>2044.5</ele>
        <time>2026-02-02T08:19:43Z</time>
      </trkpt>
      <trkpt lat="45.95642" lon="6.56665">
        <ele>2044.5</ele>
        <time>2026-02-02T08:19:44Z</time>
      </trkpt>
      <trkpt lat="45.95642" lon="6.56665">
        <ele>2044.5</ele>
        <time>2026-02-02T08:19:45Z</time>
      </trkpt>
      <trkpt lat="45.95642" lon="6.56665">
        <ele>2044.5</ele>
        <time>2026-02-02T08:19:46Z</time>
      </trkpt>
      <trkpt lat="45.95642" lon="6.56664">
        <ele>2044.5</ele>
        <time>2026-02-02T08:19:47Z</time>
      </trkpt>
      <trkpt lat="45.95643" lon="6.56666">
        <ele>2044.9</ele>
        <time>2026-02-02T08:19:48Z</time>
      </trkpt>
      <trkpt lat="45.95642" lon="6.56667">
        <ele>2044.9</ele>
        <time>2026-02-02T08:19:49Z</time>
      </trkpt>
      <trkpt lat="45.95642" lon="6.56668">
        <ele>2044.9</ele>
        <time>2026-02-02T08:19:50Z</time>
      </trkpt>
      <trkpt lat="45.95642" lon="6.56669">
        <ele>2044.9</ele>
        <time>2026-02-02T08:19:51Z</time>
      </trkpt>
      <trkpt lat="45.95642" lon="6.56669">
        <ele>2044.9</ele>
        <time>2026-02-02T08:19:52Z</time>
      </trkpt>
      <trkpt lat="45.95642" lon="6.56669">
        <ele>2044.9</ele>
        <time>2026-02-02T08:19:53Z</time>
      </trkpt>
      <trkpt lat="45.95642" lon="6.5667">
        <ele>2045.3</ele>
        <time>2026-02-02T08:19:54Z</time>
      </trkpt>
      <trkpt lat="45.95643" lon="6.5667">
        <ele>2045.3</ele>
        <time>2026-02-02T08:19:55Z</time>
      </trkpt>
      <trkpt lat="45.95643" lon="6.56672">
        <ele>2045.3</ele>
        <time>2026-02-02T08:19:56Z</time>
      </trkpt>
      <trkpt lat="45.95643" lon="6.56673">
        <ele>2045.3</ele>
        <time>2026-02-02T08:19:57Z</time>
      </trkpt>
      <trkpt lat="45.95643" lon="6.56673">
        <ele>2045.3</ele>
        <time>2026-02-02T08:19:58Z</time>
      </trkpt>
      <trkpt lat="45.95642" lon="6.56674">
        <ele>2045.7</ele>
        <time>2026-02-02T08:19:59Z</time>
      </trkpt>
      <trkpt lat="45.95641" lon="6.56673">
        <ele>2045.3</ele>
        <time>2026-02-02T08:20:00Z</time>
      </trkpt>
      <trkpt lat="45.95641" lon="6.56673">
        <ele>2045.3</ele>
        <time>2026-02-02T08:20:01Z</time>
      </trkpt>
      <trkpt lat="45.95641" lon="6.56671">
        <ele>2045.3</ele>
        <time>2026-02-02T08:20:02Z</time>
      </trkpt>
      <trkpt lat="45.9564" lon="6.5667">
        <ele>2045.3</ele>
        <time>2026-02-02T08:20:03Z</time>
      </trkpt>
      <trkpt lat="45.9564" lon="6.56669">
        <ele>2047</ele>
        <time>2026-02-02T08:20:04Z</time>
      </trkpt>
      <trkpt lat="45.95639" lon="6.5667">
        <ele>2047.1</ele>
        <time>2026-02-02T08:20:05Z</time>
      </trkpt>
      <trkpt lat="45.95638" lon="6.56669">
        <ele>2047.1</ele>
        <time>2026-02-02T08:20:06Z</time>
      </trkpt>
      <trkpt lat="45.95637" lon="6.56668">
        <ele>2048.4</ele>
        <time>2026-02-02T08:20:07Z</time>
      </trkpt>
      <trkpt lat="45.95637" lon="6.56667">
        <ele>2048.4</ele>
        <time>2026-02-02T08:20:08Z</time>
      </trkpt>
      <trkpt lat="45.95636" lon="6.56666">
        <ele>2048.4</ele>
        <time>2026-02-02T08:20:09Z</time>
      </trkpt>
      <trkpt lat="45.95636" lon="6.56666">
        <ele>2048.4</ele>
        <time>2026-02-02T08:20:10Z</time>
      </trkpt>
      <trkpt lat="45.95635" lon="6.56668">
        <ele>2048.4</ele>
        <time>2026-02-02T08:20:11Z</time>
      </trkpt>
      <trkpt lat="45.95635" lon="6.56669">
        <ele>2048.4</ele>
        <time>2026-02-02T08:20:12Z</time>
      </trkpt>
      <trkpt lat="45.95635" lon="6.56669">
        <ele>2048.4</ele>
        <time>2026-02-02T08:20:13Z</time>
      </trkpt>
      <trkpt lat="45.95635" lon="6.56669">
        <ele>2048.4</ele>
        <time>2026-02-02T08:20:14Z</time>
      </trkpt>
      <trkpt lat="45.95635" lon="6.56669">
        <ele>2048.4</ele>
        <time>2026-02-02T08:20:15Z</time>
      </trkpt>
      <trkpt lat="45.95635" lon="6.56669">
        <ele>2048.4</ele>
        <time>2026-02-02T08:20:16Z</time>
      </trkpt>
      <trkpt lat="45.95635" lon="6.56669">
        <ele>2048.4</ele>
        <time>2026-02-02T08:20:17Z</time>
      </trkpt>
      <trkpt lat="45.95635" lon="6.56669">
        <ele>2048.4</ele>
        <time>2026-02-02T08:20:18Z</time>
      </trkpt>
      <trkpt lat="45.95634" lon="6.56669">
        <ele>2048.4</ele>
        <time>2026-02-02T08:20:19Z</time>
      </trkpt>
      <trkpt lat="45.95634" lon="6.56669">
        <ele>2048.4</ele>
        <time>2026-02-02T08:20:20Z</time>
      </trkpt>
      <trkpt lat="45.95634" lon="6.56669">
        <ele>2048.4</ele>
        <time>2026-02-02T08:20:21Z</time>
      </trkpt>
      <trkpt lat="45.95634" lon="6.56669">
        <ele>2048.4</ele>
        <time>2026-02-02T08:20:22Z</time>
      </trkpt>
      <trkpt lat="45.95634" lon="6.56669">
        <ele>2048.4</ele>
        <time>2026-02-02T08:20:23Z</time>
      </trkpt>
      <trkpt lat="45.95634" lon="6.56669">
        <ele>2048.5</ele>
        <time>2026-02-02T08:20:24Z</time>
      </trkpt>
      <trkpt lat="45.95634" lon="6.56669">
        <ele>2048.5</ele>
        <time>2026-02-02T08:20:25Z</time>
      </trkpt>
      <trkpt lat="45.95634" lon="6.56669">
        <ele>2048.5</ele>
        <time>2026-02-02T08:20:26Z</time>
      </trkpt>
      <trkpt lat="45.95634" lon="6.56669">
        <ele>2048.5</ele>
        <time>2026-02-02T08:20:27Z</time>
      </trkpt>
      <trkpt lat="45.95634" lon="6.56669">
        <ele>2048.5</ele>
        <time>2026-02-02T08:20:28Z</time>
      </trkpt>
      <trkpt lat="45.95634" lon="6.56669">
        <ele>2048.5</ele>
        <time>2026-02-02T08:20:29Z</time>
      </trkpt>
      <trkpt lat="45.95634" lon="6.56669">
        <ele>2048.5</ele>
        <time>2026-02-02T08:20:30Z</time>
      </trkpt>
      <trkpt lat="45.95634" lon="6.56669">
        <ele>2048.5</ele>
        <time>2026-02-02T08:20:31Z</time>
      </trkpt>
      <trkpt lat="45.95634" lon="6.56668">
        <ele>2048.5</ele>
        <time>2026-02-02T08:20:32Z</time>
      </trkpt>
      <trkpt lat="45.95633" lon="6.56668">
        <ele>2050.1</ele>
        <time>2026-02-02T08:20:33Z</time>
      </trkpt>
      <trkpt lat="45.95633" lon="6.56668">
        <ele>2050.1</ele>
        <time>2026-02-02T08:20:34Z</time>
      </trkpt>
      <trkpt lat="45.95632" lon="6.56666">
        <ele>2050.1</ele>
        <time>2026-02-02T08:20:35Z</time>
      </trkpt>
      <trkpt lat="45.95631" lon="6.56666">
        <ele>2051.5</ele>
        <time>2026-02-02T08:20:36Z</time>
      </trkpt>
      <trkpt lat="45.9563" lon="6.56665">
        <ele>2051.5</ele>
        <time>2026-02-02T08:20:37Z</time>
      </trkpt>
      <trkpt lat="45.9563" lon="6.56664">
        <ele>2051.2</ele>
        <time>2026-02-02T08:20:38Z</time>
      </trkpt>
      <trkpt lat="45.9563" lon="6.56662">
        <ele>2051.2</ele>
        <time>2026-02-02T08:20:39Z</time>
      </trkpt>
      <trkpt lat="45.95629" lon="6.56662">
        <ele>2051.2</ele>
        <time>2026-02-02T08:20:40Z</time>
      </trkpt>
      <trkpt lat="45.95629" lon="6.56661">
        <ele>2051.2</ele>
        <time>2026-02-02T08:20:41Z</time>
      </trkpt>
      <trkpt lat="45.95629" lon="6.5666">
        <ele>2050.8</ele>
        <time>2026-02-02T08:20:42Z</time>
      </trkpt>
      <trkpt lat="45.95629" lon="6.5666">
        <ele>2050.8</ele>
        <time>2026-02-02T08:20:43Z</time>
      </trkpt>
      <trkpt lat="45.95628" lon="6.5666">
        <ele>2050.8</ele>
        <time>2026-02-02T08:20:44Z</time>
      </trkpt>
      <trkpt lat="45.95628" lon="6.56659">
        <ele>2050.8</ele>
        <time>2026-02-02T08:20:45Z</time>
      </trkpt>
      <trkpt lat="45.95629" lon="6.56657">
        <ele>2050.8</ele>
        <time>2026-02-02T08:20:46Z</time>
      </trkpt>
      <trkpt lat="45.95628" lon="6.56657">
        <ele>2052.3</ele>
        <time>2026-02-02T08:20:47Z</time>
      </trkpt>
      <trkpt lat="45.95628" lon="6.56655">
        <ele>2052</ele>
        <time>2026-02-02T08:20:48Z</time>
      </trkpt>
      <trkpt lat="45.95627" lon="6.56654">
        <ele>2052</ele>
        <time>2026-02-02T08:20:49Z</time>
      </trkpt>
      <trkpt lat="45.95627" lon="6.56654">
        <ele>2052</ele>
        <time>2026-02-02T08:20:50Z</time>
      </trkpt>
      <trkpt lat="45.95627" lon="6.56652">
        <ele>2052</ele>
        <time>2026-02-02T08:20:51Z</time>
      </trkpt>
      <trkpt lat="45.95626" lon="6.56651">
        <ele>2051.7</ele>
        <time>2026-02-02T08:20:52Z</time>
      </trkpt>
      <trkpt lat="45.95626" lon="6.56651">
        <ele>2051.7</ele>
        <time>2026-02-02T08:20:53Z</time>
      </trkpt>
      <trkpt lat="45.95626" lon="6.5665">
        <ele>2051.7</ele>
        <time>2026-02-02T08:20:54Z</time>
      </trkpt>
      <trkpt lat="45.95625" lon="6.5665">
        <ele>2051.7</ele>
        <time>2026-02-02T08:20:55Z</time>
      </trkpt>
      <trkpt lat="45.95625" lon="6.56649">
        <ele>2051.7</ele>
        <time>2026-02-02T08:20:56Z</time>
      </trkpt>
      <trkpt lat="45.95625" lon="6.56651">
        <ele>2051.7</ele>
        <time>2026-02-02T08:20:57Z</time>
      </trkpt>
      <trkpt lat="45.95625" lon="6.56652">
        <ele>2051.7</ele>
        <time>2026-02-02T08:20:58Z</time>
      </trkpt>
      <trkpt lat="45.95626" lon="6.56654">
        <ele>2052</ele>
        <time>2026-02-02T08:20:59Z</time>
      </trkpt>
      <trkpt lat="45.95626" lon="6.56655">
        <ele>2052</ele>
        <time>2026-02-02T08:21:00Z</time>
      </trkpt>
      <trkpt lat="45.95625" lon="6.56658">
        <ele>2053.9</ele>
        <time>2026-02-02T08:21:01Z</time>
      </trkpt>
      <trkpt lat="45.95625" lon="6.56658">
        <ele>2053.9</ele>
        <time>2026-02-02T08:21:02Z</time>
      </trkpt>
      <trkpt lat="45.95624" lon="6.56659">
        <ele>2053.9</ele>
        <time>2026-02-02T08:21:03Z</time>
      </trkpt>
      <trkpt lat="45.95624" lon="6.5666">
        <ele>2053.9</ele>
        <time>2026-02-02T08:21:04Z</time>
      </trkpt>
      <trkpt lat="45.95624" lon="6.56661">
        <ele>2054.3</ele>
        <time>2026-02-02T08:21:05Z</time>
      </trkpt>
      <trkpt lat="45.95624" lon="6.56662">
        <ele>2054.3</ele>
        <time>2026-02-02T08:21:06Z</time>
      </trkpt>
      <trkpt lat="45.95624" lon="6.56664">
        <ele>2054.3</ele>
        <time>2026-02-02T08:21:07Z</time>
      </trkpt>
      <trkpt lat="45.95624" lon="6.56665">
        <ele>2054.6</ele>
        <time>2026-02-02T08:21:08Z</time>
      </trkpt>
      <trkpt lat="45.95624" lon="6.56667">
        <ele>2054.6</ele>
        <time>2026-02-02T08:21:09Z</time>
      </trkpt>
      <trkpt lat="45.95624" lon="6.56668">
        <ele>2054.6</ele>
        <time>2026-02-02T08:21:10Z</time>
      </trkpt>
      <trkpt lat="45.95624" lon="6.56669">
        <ele>2054.6</ele>
        <time>2026-02-02T08:21:11Z</time>
      </trkpt>
      <trkpt lat="45.95624" lon="6.5667">
        <ele>2055</ele>
        <time>2026-02-02T08:21:12Z</time>
      </trkpt>
      <trkpt lat="45.95624" lon="6.56671">
        <ele>2055</ele>
        <time>2026-02-02T08:21:13Z</time>
      </trkpt>
      <trkpt lat="45.95624" lon="6.56671">
        <ele>2055</ele>
        <time>2026-02-02T08:21:14Z</time>
      </trkpt>
      <trkpt lat="45.95624" lon="6.56672">
        <ele>2055</ele>
        <time>2026-02-02T08:21:15Z</time>
      </trkpt>
      <trkpt lat="45.95625" lon="6.56674">
        <ele>2055.4</ele>
        <time>2026-02-02T08:21:16Z</time>
      </trkpt>
      <trkpt lat="45.95625" lon="6.56675">
        <ele>2055.4</ele>
        <time>2026-02-02T08:21:17Z</time>
      </trkpt>
      <trkpt lat="45.95625" lon="6.56675">
        <ele>2055.4</ele>
        <time>2026-02-02T08:21:18Z</time>
      </trkpt>
      <trkpt lat="45.95625" lon="6.56677">
        <ele>2055.4</ele>
        <time>2026-02-02T08:21:19Z</time>
      </trkpt>
      <trkpt lat="45.95626" lon="6.56678">
        <ele>2054.4</ele>
        <time>2026-02-02T08:21:20Z</time>
      </trkpt>
      <trkpt lat="45.95626" lon="6.56679">
        <ele>2054.4</ele>
        <time>2026-02-02T08:21:21Z</time>
      </trkpt>
      <trkpt lat="45.95626" lon="6.5668">
        <ele>2054.4</ele>
        <time>2026-02-02T08:21:22Z</time>
      </trkpt>
      <trkpt lat="45.95626" lon="6.56681">
        <ele>2054.4</ele>
        <time>2026-02-02T08:21:23Z</time>
      </trkpt>
      <trkpt lat="45.95626" lon="6.56681">
        <ele>2054.4</ele>
        <time>2026-02-02T08:21:24Z</time>
      </trkpt>
      <trkpt lat="45.95626" lon="6.56682">
        <ele>2054.8</ele>
        <time>2026-02-02T08:21:25Z</time>
      </trkpt>
      <trkpt lat="45.95626" lon="6.56682">
        <ele>2054.8</ele>
        <time>2026-02-02T08:21:26Z</time>
      </trkpt>
      <trkpt lat="45.95626" lon="6.56682">
        <ele>2054.8</ele>
        <time>2026-02-02T08:21:27Z</time>
      </trkpt>
      <trkpt lat="45.95626" lon="6.56682">
        <ele>2054.8</ele>
        <time>2026-02-02T08:21:28Z</time>
      </trkpt>
      <trkpt lat="45.95626" lon="6.56682">
        <ele>2054.8</ele>
        <time>2026-02-02T08:21:29Z</time>
      </trkpt>
      <trkpt lat="45.95626" lon="6.56682">
        <ele>2054.8</ele>
        <time>2026-02-02T08:21:30Z</time>
      </trkpt>
      <trkpt lat="45.95626" lon="6.56682">
        <ele>2054.8</ele>
        <time>2026-02-02T08:21:31Z</time>
      </trkpt>
      <trkpt lat="45.95626" lon="6.56682">
        <ele>2054.8</ele>
        <time>2026-02-02T08:21:32Z</time>
      </trkpt>
      <trkpt lat="45.95626" lon="6.56682">
        <ele>2054.8</ele>
        <time>2026-02-02T08:21:33Z</time>
      </trkpt>
      <trkpt lat="45.95626" lon="6.56682">
        <ele>2054.8</ele>
        <time>2026-02-02T08:21:34Z</time>
      </trkpt>
      <trkpt lat="45.95626" lon="6.56682">
        <ele>2054.8</ele>
        <time>2026-02-02T08:21:35Z</time>
      </trkpt>
      <trkpt lat="45.95626" lon="6.56682">
        <ele>2054.8</ele>
        <time>2026-02-02T08:21:36Z</time>
      </trkpt>
      <trkpt lat="45.95626" lon="6.56682">
        <ele>2054.9</ele>
        <time>2026-02-02T08:21:37Z</time>
      </trkpt>
      <trkpt lat="45.95626" lon="6.56682">
        <ele>2054.9</ele>
        <time>2026-02-02T08:21:38Z</time>
      </trkpt>
      <trkpt lat="45.95626" lon="6.56683">
        <ele>2054.9</ele>
        <time>2026-02-02T08:21:39Z</time>
      </trkpt>
      <trkpt lat="45.95626" lon="6.56685">
        <ele>2054.9</ele>
        <time>2026-02-02T08:21:40Z</time>
      </trkpt>
      <trkpt lat="45.95627" lon="6.56686">
        <ele>2054.9</ele>
        <time>2026-02-02T08:21:41Z</time>
      </trkpt>
      <trkpt lat="45.95627" lon="6.56687">
        <ele>2055.3</ele>
        <time>2026-02-02T08:21:42Z</time>
      </trkpt>
      <trkpt lat="45.95627" lon="6.56688">
        <ele>2055.3</ele>
        <time>2026-02-02T08:21:43Z</time>
      </trkpt>
      <trkpt lat="45.95627" lon="6.56689">
        <ele>2055.3</ele>
        <time>2026-02-02T08:21:44Z</time>
      </trkpt>
      <trkpt lat="45.95627" lon="6.5669">
        <ele>2055.3</ele>
        <time>2026-02-02T08:21:45Z</time>
      </trkpt>
      <trkpt lat="45.95627" lon="6.56691">
        <ele>2055.7</ele>
        <time>2026-02-02T08:21:46Z</time>
      </trkpt>
      <trkpt lat="45.95627" lon="6.56692">
        <ele>2055.7</ele>
        <time>2026-02-02T08:21:47Z</time>
      </trkpt>
      <trkpt lat="45.95628" lon="6.56693">
        <ele>2055.7</ele>
        <time>2026-02-02T08:21:48Z</time>
      </trkpt>
      <trkpt lat="45.95628" lon="6.56694">
        <ele>2055.7</ele>
        <time>2026-02-02T08:21:49Z</time>
      </trkpt>
      <trkpt lat="45.95628" lon="6.56695">
        <ele>2054.4</ele>
        <time>2026-02-02T08:21:50Z</time>
      </trkpt>
      <trkpt lat="45.95629" lon="6.56696">
        <ele>2054.8</ele>
        <time>2026-02-02T08:21:51Z</time>
      </trkpt>
      <trkpt lat="45.95629" lon="6.56698">
        <ele>2054.8</ele>
        <time>2026-02-02T08:21:52Z</time>
      </trkpt>
      <trkpt lat="45.95629" lon="6.56699">
        <ele>2054.8</ele>
        <time>2026-02-02T08:21:53Z</time>
      </trkpt>
      <trkpt lat="45.95629" lon="6.56701">
        <ele>2055.2</ele>
        <time>2026-02-02T08:21:54Z</time>
      </trkpt>
      <trkpt lat="45.95629" lon="6.56702">
        <ele>2055.2</ele>
        <time>2026-02-02T08:21:55Z</time>
      </trkpt>
      <trkpt lat="45.95629" lon="6.56703">
        <ele>2055.2</ele>
        <time>2026-02-02T08:21:56Z</time>
      </trkpt>
      <trkpt lat="45.95629" lon="6.56704">
        <ele>2055.6</ele>
        <time>2026-02-02T08:21:57Z</time>
      </trkpt>
      <trkpt lat="45.95629" lon="6.56705">
        <ele>2055.6</ele>
        <time>2026-02-02T08:21:58Z</time>
      </trkpt>
      <trkpt lat="45.95629" lon="6.56706">
        <ele>2055.6</ele>
        <time>2026-02-02T08:21:59Z</time>
      </trkpt>
      <trkpt lat="45.9563" lon="6.56707">
        <ele>2055.6</ele>
        <time>2026-02-02T08:22:00Z</time>
      </trkpt>
      <trkpt lat="45.9563" lon="6.56708">
        <ele>2056.1</ele>
        <time>2026-02-02T08:22:01Z</time>
      </trkpt>
      <trkpt lat="45.95629" lon="6.56709">
        <ele>2056.1</ele>
        <time>2026-02-02T08:22:02Z</time>
      </trkpt>
      <trkpt lat="45.95629" lon="6.56709">
        <ele>2056.1</ele>
        <time>2026-02-02T08:22:03Z</time>
      </trkpt>
      <trkpt lat="45.95629" lon="6.5671">
        <ele>2056.1</ele>
        <time>2026-02-02T08:22:04Z</time>
      </trkpt>
      <trkpt lat="45.95628" lon="6.56711">
        <ele>2057.5</ele>
        <time>2026-02-02T08:22:05Z</time>
      </trkpt>
      <trkpt lat="45.95628" lon="6.56712">
        <ele>2057.5</ele>
        <time>2026-02-02T08:22:06Z</time>
      </trkpt>
      <trkpt lat="45.95627" lon="6.56712">
        <ele>2057.9</ele>
        <time>2026-02-02T08:22:07Z</time>
      </trkpt>
      <trkpt lat="45.95627" lon="6.56713">
        <ele>2057.9</ele>
        <time>2026-02-02T08:22:08Z</time>
      </trkpt>
      <trkpt lat="45.95626" lon="6.56713">
        <ele>2057.9</ele>
        <time>2026-02-02T08:22:09Z</time>
      </trkpt>
      <trkpt lat="45.95626" lon="6.56713">
        <ele>2058</ele>
        <time>2026-02-02T08:22:10Z</time>
      </trkpt>
      <trkpt lat="45.95626" lon="6.56713">
        <ele>2058</ele>
        <time>2026-02-02T08:22:11Z</time>
      </trkpt>
      <trkpt lat="45.95626" lon="6.56713">
        <ele>2058</ele>
        <time>2026-02-02T08:22:12Z</time>
      </trkpt>
      <trkpt lat="45.95626" lon="6.56713">
        <ele>2058</ele>
        <time>2026-02-02T08:22:13Z</time>
      </trkpt>
      <trkpt lat="45.95626" lon="6.56713">
        <ele>2058</ele>
        <time>2026-02-02T08:22:14Z</time>
      </trkpt>
      <trkpt lat="45.95626" lon="6.56713">
        <ele>2058</ele>
        <time>2026-02-02T08:22:15Z</time>
      </trkpt>
      <trkpt lat="45.95626" lon="6.56713">
        <ele>2058</ele>
        <time>2026-02-02T08:22:16Z</time>
      </trkpt>
      <trkpt lat="45.95626" lon="6.56713">
        <ele>2058</ele>
        <time>2026-02-02T08:22:17Z</time>
      </trkpt>
      <trkpt lat="45.95626" lon="6.56713">
        <ele>2058</ele>
        <time>2026-02-02T08:22:18Z</time>
      </trkpt>
      <trkpt lat="45.95626" lon="6.56713">
        <ele>2058</ele>
        <time>2026-02-02T08:22:19Z</time>
      </trkpt>
      <trkpt lat="45.95626" lon="6.56713">
        <ele>2058</ele>
        <time>2026-02-02T08:22:20Z</time>
      </trkpt>
      <trkpt lat="45.95626" lon="6.56713">
        <ele>2058</ele>
        <time>2026-02-02T08:22:21Z</time>
      </trkpt>
      <trkpt lat="45.95626" lon="6.56712">
        <ele>2058</ele>
        <time>2026-02-02T08:22:22Z</time>
      </trkpt>
      <trkpt lat="45.95626" lon="6.56712">
        <ele>2058</ele>
        <time>2026-02-02T08:22:23Z</time>
      </trkpt>
      <trkpt lat="45.95626" lon="6.56713">
        <ele>2058</ele>
        <time>2026-02-02T08:22:24Z</time>
      </trkpt>
      <trkpt lat="45.95626" lon="6.56713">
        <ele>2058</ele>
        <time>2026-02-02T08:22:25Z</time>
      </trkpt>
      <trkpt lat="45.95626" lon="6.56713">
        <ele>2058</ele>
        <time>2026-02-02T08:22:26Z</time>
      </trkpt>
      <trkpt lat="45.95626" lon="6.56713">
        <ele>2058</ele>
        <time>2026-02-02T08:22:27Z</time>
      </trkpt>
      <trkpt lat="45.95626" lon="6.56713">
        <ele>2058.1</ele>
        <time>2026-02-02T08:22:28Z</time>
      </trkpt>
      <trkpt lat="45.95626" lon="6.56713">
        <ele>2058.1</ele>
        <time>2026-02-02T08:22:29Z</time>
      </trkpt>
      <trkpt lat="45.95626" lon="6.56713">
        <ele>2058.1</ele>
        <time>2026-02-02T08:22:30Z</time>
      </trkpt>
      <trkpt lat="45.95626" lon="6.56713">
        <ele>2058.1</ele>
        <time>2026-02-02T08:22:31Z</time>
      </trkpt>
      <trkpt lat="45.95626" lon="6.56713">
        <ele>2058.1</ele>
        <time>2026-02-02T08:22:32Z</time>
      </trkpt>
      <trkpt lat="45.95626" lon="6.56713">
        <ele>2058.1</ele>
        <time>2026-02-02T08:22:33Z</time>
      </trkpt>
      <trkpt lat="45.95626" lon="6.56713">
        <ele>2058.1</ele>
        <time>2026-02-02T08:22:34Z</time>
      </trkpt>
      <trkpt lat="45.95626" lon="6.56713">
        <ele>2058.1</ele>
        <time>2026-02-02T08:22:35Z</time>
      </trkpt>
      <trkpt lat="45.95627" lon="6.56713">
        <ele>2058.1</ele>
        <time>2026-02-02T08:22:36Z</time>
      </trkpt>
      <trkpt lat="45.95627" lon="6.56713">
        <ele>2058.1</ele>
        <time>2026-02-02T08:22:37Z</time>
      </trkpt>
      <trkpt lat="45.95626" lon="6.56714">
        <ele>2058.1</ele>
        <time>2026-02-02T08:22:38Z</time>
      </trkpt>
      <trkpt lat="45.95626" lon="6.56716">
        <ele>2058.1</ele>
        <time>2026-02-02T08:22:39Z</time>
      </trkpt>
      <trkpt lat="45.95625" lon="6.56716">
        <ele>2058.6</ele>
        <time>2026-02-02T08:22:40Z</time>
      </trkpt>
      <trkpt lat="45.95625" lon="6.56718">
        <ele>2060.1</ele>
        <time>2026-02-02T08:22:41Z</time>
      </trkpt>
      <trkpt lat="45.95624" lon="6.56718">
        <ele>2060.1</ele>
        <time>2026-02-02T08:22:42Z</time>
      </trkpt>
      <trkpt lat="45.95624" lon="6.56719">
        <ele>2060.1</ele>
        <time>2026-02-02T08:22:43Z</time>
      </trkpt>
      <trkpt lat="45.95623" lon="6.5672">
        <ele>2060.1</ele>
        <time>2026-02-02T08:22:44Z</time>
      </trkpt>
      <trkpt lat="45.95623" lon="6.56721">
        <ele>2060.7</ele>
        <time>2026-02-02T08:22:45Z</time>
      </trkpt>
      <trkpt lat="45.95621" lon="6.56722">
        <ele>2062.3</ele>
        <time>2026-02-02T08:22:46Z</time>
      </trkpt>
      <trkpt lat="45.9562" lon="6.56722">
        <ele>2062.4</ele>
        <time>2026-02-02T08:22:47Z</time>
      </trkpt>
      <trkpt lat="45.95619" lon="6.56723">
        <ele>2062.4</ele>
        <time>2026-02-02T08:22:48Z</time>
      </trkpt>
      <trkpt lat="45.95619" lon="6.56724">
        <ele>2062.4</ele>
        <time>2026-02-02T08:22:49Z</time>
      </trkpt>
      <trkpt lat="45.9562" lon="6.56726">
        <ele>2063</ele>
        <time>2026-02-02T08:22:50Z</time>
      </trkpt>
      <trkpt lat="45.9562" lon="6.56727">
        <ele>2063.1</ele>
        <time>2026-02-02T08:22:51Z</time>
      </trkpt>
      <trkpt lat="45.9562" lon="6.56729">
        <ele>2063.1</ele>
        <time>2026-02-02T08:22:52Z</time>
      </trkpt>
      <trkpt lat="45.9562" lon="6.5673">
        <ele>2063.8</ele>
        <time>2026-02-02T08:22:53Z</time>
      </trkpt>
      <trkpt lat="45.9562" lon="6.56731">
        <ele>2063.8</ele>
        <time>2026-02-02T08:22:54Z</time>
      </trkpt>
      <trkpt lat="45.9562" lon="6.56731">
        <ele>2063.8</ele>
        <time>2026-02-02T08:22:55Z</time>
      </trkpt>
      <trkpt lat="45.9562" lon="6.56733">
        <ele>2063.8</ele>
        <time>2026-02-02T08:22:56Z</time>
      </trkpt>
      <trkpt lat="45.9562" lon="6.56733">
        <ele>2063.8</ele>
        <time>2026-02-02T08:22:57Z</time>
      </trkpt>
      <trkpt lat="45.95621" lon="6.56735">
        <ele>2064.5</ele>
        <time>2026-02-02T08:22:58Z</time>
      </trkpt>
      <trkpt lat="45.95621" lon="6.56736">
        <ele>2064.5</ele>
        <time>2026-02-02T08:22:59Z</time>
      </trkpt>
      <trkpt lat="45.95621" lon="6.56736">
        <ele>2064.5</ele>
        <time>2026-02-02T08:23:00Z</time>
      </trkpt>
      <trkpt lat="45.95621" lon="6.56736">
        <ele>2064.5</ele>
        <time>2026-02-02T08:23:01Z</time>
      </trkpt>
      <trkpt lat="45.95621" lon="6.56736">
        <ele>2064.6</ele>
        <time>2026-02-02T08:23:02Z</time>
      </trkpt>
      <trkpt lat="45.95621" lon="6.56736">
        <ele>2064.6</ele>
        <time>2026-02-02T08:23:03Z</time>
      </trkpt>
      <trkpt lat="45.95621" lon="6.56735">
        <ele>2064.6</ele>
        <time>2026-02-02T08:23:04Z</time>
      </trkpt>
      <trkpt lat="45.95621" lon="6.56735">
        <ele>2064.6</ele>
        <time>2026-02-02T08:23:05Z</time>
      </trkpt>
      <trkpt lat="45.95621" lon="6.56735">
        <ele>2064.6</ele>
        <time>2026-02-02T08:23:06Z</time>
      </trkpt>
      <trkpt lat="45.95622" lon="6.56735">
        <ele>2064.6</ele>
        <time>2026-02-02T08:23:07Z</time>
      </trkpt>
      <trkpt lat="45.95622" lon="6.56736">
        <ele>2064.6</ele>
        <time>2026-02-02T08:23:08Z</time>
      </trkpt>
      <trkpt lat="45.95622" lon="6.56735">
        <ele>2064.6</ele>
        <time>2026-02-02T08:23:09Z</time>
      </trkpt>
      <trkpt lat="45.95621" lon="6.56735">
        <ele>2064.6</ele>
        <time>2026-02-02T08:23:10Z</time>
      </trkpt>
      <trkpt lat="45.95621" lon="6.56735">
        <ele>2064.6</ele>
        <time>2026-02-02T08:23:11Z</time>
      </trkpt>
      <trkpt lat="45.9562" lon="6.56733">
        <ele>2063.9</ele>
        <time>2026-02-02T08:23:12Z</time>
      </trkpt>
      <trkpt lat="45.9562" lon="6.56732">
        <ele>2063.9</ele>
        <time>2026-02-02T08:23:13Z</time>
      </trkpt>
      <trkpt lat="45.95619" lon="6.56731">
        <ele>2065.7</ele>
        <time>2026-02-02T08:23:14Z</time>
      </trkpt>
      <trkpt lat="45.95618" lon="6.56729">
        <ele>2065.7</ele>
        <time>2026-02-02T08:23:15Z</time>
      </trkpt>
      <trkpt lat="45.95617" lon="6.56729">
        <ele>2064.9</ele>
        <time>2026-02-02T08:23:16Z</time>
      </trkpt>
      <trkpt lat="45.95617" lon="6.56728">
        <ele>2065</ele>
        <time>2026-02-02T08:23:17Z</time>
      </trkpt>
      <trkpt lat="45.95617" lon="6.56727">
        <ele>2065</ele>
        <time>2026-02-02T08:23:18Z</time>
      </trkpt>
      <trkpt lat="45.95617" lon="6.56726">
        <ele>2065</ele>
        <time>2026-02-02T08:23:19Z</time>
      </trkpt>
      <trkpt lat="45.95617" lon="6.56725">
        <ele>2065</ele>
        <time>2026-02-02T08:23:20Z</time>
      </trkpt>
      <trkpt lat="45.95616" lon="6.56724">
        <ele>2066.1</ele>
        <time>2026-02-02T08:23:21Z</time>
      </trkpt>
      <trkpt lat="45.95615" lon="6.56723">
        <ele>2066.1</ele>
        <time>2026-02-02T08:23:22Z</time>
      </trkpt>
      <trkpt lat="45.95614" lon="6.56722">
        <ele>2066.1</ele>
        <time>2026-02-02T08:23:23Z</time>
      </trkpt>
      <trkpt lat="45.95613" lon="6.56722">
        <ele>2066.1</ele>
        <time>2026-02-02T08:23:24Z</time>
      </trkpt>
      <trkpt lat="45.95613" lon="6.5672">
        <ele>2067.3</ele>
        <time>2026-02-02T08:23:25Z</time>
      </trkpt>
      <trkpt lat="45.95612" lon="6.56719">
        <ele>2067.3</ele>
        <time>2026-02-02T08:23:26Z</time>
      </trkpt>
      <trkpt lat="45.95611" lon="6.56719">
        <ele>2067.3</ele>
        <time>2026-02-02T08:23:27Z</time>
      </trkpt>
      <trkpt lat="45.95611" lon="6.56718">
        <ele>2067.3</ele>
        <time>2026-02-02T08:23:28Z</time>
      </trkpt>
      <trkpt lat="45.9561" lon="6.56717">
        <ele>2069.2</ele>
        <time>2026-02-02T08:23:29Z</time>
      </trkpt>
      <trkpt lat="45.95608" lon="6.56715">
        <ele>2068.6</ele>
        <time>2026-02-02T08:23:30Z</time>
      </trkpt>
      <trkpt lat="45.95608" lon="6.56714">
        <ele>2068.6</ele>
        <time>2026-02-02T08:23:31Z</time>
      </trkpt>
      <trkpt lat="45.95608" lon="6.56714">
        <ele>2068.6</ele>
        <time>2026-02-02T08:23:32Z</time>
      </trkpt>
      <trkpt lat="45.95608" lon="6.56715">
        <ele>2068.6</ele>
        <time>2026-02-02T08:23:33Z</time>
      </trkpt>
      <trkpt lat="45.95608" lon="6.56715">
        <ele>2068.6</ele>
        <time>2026-02-02T08:23:34Z</time>
      </trkpt>
      <trkpt lat="45.95608" lon="6.56715">
        <ele>2068.6</ele>
        <time>2026-02-02T08:23:35Z</time>
      </trkpt>
      <trkpt lat="45.95608" lon="6.56715">
        <ele>2068.6</ele>
        <time>2026-02-02T08:23:36Z</time>
      </trkpt>
      <trkpt lat="45.95608" lon="6.56715">
        <ele>2068.6</ele>
        <time>2026-02-02T08:23:37Z</time>
      </trkpt>
      <trkpt lat="45.95608" lon="6.56715">
        <ele>2068.6</ele>
        <time>2026-02-02T08:23:38Z</time>
      </trkpt>
      <trkpt lat="45.95608" lon="6.56715">
        <ele>2068.6</ele>
        <time>2026-02-02T08:23:39Z</time>
      </trkpt>
      <trkpt lat="45.95608" lon="6.56715">
        <ele>2068.6</ele>
        <time>2026-02-02T08:23:40Z</time>
      </trkpt>
      <trkpt lat="45.95608" lon="6.56715">
        <ele>2068.6</ele>
        <time>2026-02-02T08:23:41Z</time>
      </trkpt>
      <trkpt lat="45.95608" lon="6.56715">
        <ele>2068.6</ele>
        <time>2026-02-02T08:23:42Z</time>
      </trkpt>
      <trkpt lat="45.95608" lon="6.56715">
        <ele>2068.6</ele>
        <time>2026-02-02T08:23:43Z</time>
      </trkpt>
      <trkpt lat="45.95608" lon="6.56715">
        <ele>2068.6</ele>
        <time>2026-02-02T08:23:44Z</time>
      </trkpt>
      <trkpt lat="45.95608" lon="6.56715">
        <ele>2068.7</ele>
        <time>2026-02-02T08:23:45Z</time>
      </trkpt>
      <trkpt lat="45.95608" lon="6.56715">
        <ele>2068.7</ele>
        <time>2026-02-02T08:23:46Z</time>
      </trkpt>
      <trkpt lat="45.95608" lon="6.56716">
        <ele>2068.7</ele>
        <time>2026-02-02T08:23:47Z</time>
      </trkpt>
      <trkpt lat="45.95608" lon="6.56716">
        <ele>2068.7</ele>
        <time>2026-02-02T08:23:48Z</time>
      </trkpt>
      <trkpt lat="45.95608" lon="6.56715">
        <ele>2068.7</ele>
        <time>2026-02-02T08:23:49Z</time>
      </trkpt>
      <trkpt lat="45.95607" lon="6.56714">
        <ele>2070.5</ele>
        <time>2026-02-02T08:23:50Z</time>
      </trkpt>
      <trkpt lat="45.95606" lon="6.56713">
        <ele>2070.5</ele>
        <time>2026-02-02T08:23:51Z</time>
      </trkpt>
      <trkpt lat="45.95605" lon="6.56712">
        <ele>2070</ele>
        <time>2026-02-02T08:23:52Z</time>
      </trkpt>
      <trkpt lat="45.95605" lon="6.56711">
        <ele>2070</ele>
        <time>2026-02-02T08:23:53Z</time>
      </trkpt>
      <trkpt lat="45.95604" lon="6.5671">
        <ele>2071.8</ele>
        <time>2026-02-02T08:23:54Z</time>
      </trkpt>
      <trkpt lat="45.95603" lon="6.56709">
        <ele>2071.8</ele>
        <time>2026-02-02T08:23:55Z</time>
      </trkpt>
      <trkpt lat="45.95603" lon="6.56707">
        <ele>2071.3</ele>
        <time>2026-02-02T08:23:56Z</time>
      </trkpt>
      <trkpt lat="45.95602" lon="6.56706">
        <ele>2071.3</ele>
        <time>2026-02-02T08:23:57Z</time>
      </trkpt>
      <trkpt lat="45.95602" lon="6.56706">
        <ele>2071.3</ele>
        <time>2026-02-02T08:23:58Z</time>
      </trkpt>
      <trkpt lat="45.95601" lon="6.56705">
        <ele>2073</ele>
        <time>2026-02-02T08:23:59Z</time>
      </trkpt>
      <trkpt lat="45.956" lon="6.56705">
        <ele>2073.1</ele>
        <time>2026-02-02T08:24:00Z</time>
      </trkpt>
      <trkpt lat="45.956" lon="6.56706">
        <ele>2073.1</ele>
        <time>2026-02-02T08:24:01Z</time>
      </trkpt>
      <trkpt lat="45.956" lon="6.56707">
        <ele>2073.1</ele>
        <time>2026-02-02T08:24:02Z</time>
      </trkpt>
      <trkpt lat="45.95601" lon="6.56708">
        <ele>2073.1</ele>
        <time>2026-02-02T08:24:03Z</time>
      </trkpt>
      <trkpt lat="45.95601" lon="6.56709">
        <ele>2073.6</ele>
        <time>2026-02-02T08:24:04Z</time>
      </trkpt>
      <trkpt lat="45.95601" lon="6.5671">
        <ele>2073.6</ele>
        <time>2026-02-02T08:24:05Z</time>
      </trkpt>
      <trkpt lat="45.95602" lon="6.56712">
        <ele>2071.8</ele>
        <time>2026-02-02T08:24:06Z</time>
      </trkpt>
      <trkpt lat="45.95602" lon="6.56713">
        <ele>2072.4</ele>
        <time>2026-02-02T08:24:07Z</time>
      </trkpt>
      <trkpt lat="45.95602" lon="6.56714">
        <ele>2072.4</ele>
        <time>2026-02-02T08:24:08Z</time>
      </trkpt>
      <trkpt lat="45.95602" lon="6.56715">
        <ele>2072.4</ele>
        <time>2026-02-02T08:24:09Z</time>
      </trkpt>
      <trkpt lat="45.95602" lon="6.56716">
        <ele>2072.5</ele>
        <time>2026-02-02T08:24:10Z</time>
      </trkpt>
      <trkpt lat="45.95602" lon="6.56718">
        <ele>2073.1</ele>
        <time>2026-02-02T08:24:11Z</time>
      </trkpt>
      <trkpt lat="45.95602" lon="6.56719">
        <ele>2073.1</ele>
        <time>2026-02-02T08:24:12Z</time>
      </trkpt>
      <trkpt lat="45.95602" lon="6.5672">
        <ele>2073.1</ele>
        <time>2026-02-02T08:24:13Z</time>
      </trkpt>
      <trkpt lat="45.95602" lon="6.56721">
        <ele>2073.9</ele>
        <time>2026-02-02T08:24:14Z</time>
      </trkpt>
      <trkpt lat="45.95601" lon="6.56723">
        <ele>2073.9</ele>
        <time>2026-02-02T08:24:15Z</time>
      </trkpt>
      <trkpt lat="45.95601" lon="6.56724">
        <ele>2075.7</ele>
        <time>2026-02-02T08:24:16Z</time>
      </trkpt>
      <trkpt lat="45.95601" lon="6.56724">
        <ele>2075.7</ele>
        <time>2026-02-02T08:24:17Z</time>
      </trkpt>
      <trkpt lat="45.956" lon="6.56725">
        <ele>2075.7</ele>
        <time>2026-02-02T08:24:18Z</time>
      </trkpt>
      <trkpt lat="45.956" lon="6.56725">
        <ele>2076.5</ele>
        <time>2026-02-02T08:24:19Z</time>
      </trkpt>
      <trkpt lat="45.956" lon="6.56725">
        <ele>2076.5</ele>
        <time>2026-02-02T08:24:20Z</time>
      </trkpt>
      <trkpt lat="45.956" lon="6.56725">
        <ele>2076.5</ele>
        <time>2026-02-02T08:24:21Z</time>
      </trkpt>
      <trkpt lat="45.956" lon="6.56725">
        <ele>2076.6</ele>
        <time>2026-02-02T08:24:22Z</time>
      </trkpt>
      <trkpt lat="45.956" lon="6.56725">
        <ele>2076.6</ele>
        <time>2026-02-02T08:24:23Z</time>
      </trkpt>
      <trkpt lat="45.956" lon="6.56725">
        <ele>2076.6</ele>
        <time>2026-02-02T08:24:24Z</time>
      </trkpt>
      <trkpt lat="45.956" lon="6.56725">
        <ele>2076.6</ele>
        <time>2026-02-02T08:24:25Z</time>
      </trkpt>
      <trkpt lat="45.956" lon="6.56725">
        <ele>2076.6</ele>
        <time>2026-02-02T08:24:26Z</time>
      </trkpt>
      <trkpt lat="45.956" lon="6.56725">
        <ele>2076.6</ele>
        <time>2026-02-02T08:24:27Z</time>
      </trkpt>
      <trkpt lat="45.956" lon="6.56725">
        <ele>2076.6</ele>
        <time>2026-02-02T08:24:28Z</time>
      </trkpt>
      <trkpt lat="45.956" lon="6.56725">
        <ele>2076.6</ele>
        <time>2026-02-02T08:24:29Z</time>
      </trkpt>
      <trkpt lat="45.956" lon="6.56725">
        <ele>2076.6</ele>
        <time>2026-02-02T08:24:30Z</time>
      </trkpt>
      <trkpt lat="45.956" lon="6.56725">
        <ele>2076.6</ele>
        <time>2026-02-02T08:24:31Z</time>
      </trkpt>
      <trkpt lat="45.956" lon="6.56725">
        <ele>2076.6</ele>
        <time>2026-02-02T08:24:32Z</time>
      </trkpt>
      <trkpt lat="45.956" lon="6.56725">
        <ele>2076.6</ele>
        <time>2026-02-02T08:24:33Z</time>
      </trkpt>
      <trkpt lat="45.956" lon="6.56725">
        <ele>2076.6</ele>
        <time>2026-02-02T08:24:34Z</time>
      </trkpt>
      <trkpt lat="45.956" lon="6.56725">
        <ele>2076.6</ele>
        <time>2026-02-02T08:24:35Z</time>
      </trkpt>
      <trkpt lat="45.956" lon="6.56725">
        <ele>2076.6</ele>
        <time>2026-02-02T08:24:36Z</time>
      </trkpt>
      <trkpt lat="45.956" lon="6.56726">
        <ele>2076.6</ele>
        <time>2026-02-02T08:24:37Z</time>
      </trkpt>
      <trkpt lat="45.956" lon="6.56727">
        <ele>2076.6</ele>
        <time>2026-02-02T08:24:38Z</time>
      </trkpt>
      <trkpt lat="45.95599" lon="6.56727">
        <ele>2076.6</ele>
        <time>2026-02-02T08:24:39Z</time>
      </trkpt>
      <trkpt lat="45.95599" lon="6.56729">
        <ele>2076.7</ele>
        <time>2026-02-02T08:24:40Z</time>
      </trkpt>
      <trkpt lat="45.95598" lon="6.5673">
        <ele>2079.3</ele>
        <time>2026-02-02T08:24:41Z</time>
      </trkpt>
      <trkpt lat="45.95598" lon="6.56731">
        <ele>2079.3</ele>
        <time>2026-02-02T08:24:42Z</time>
      </trkpt>
      <trkpt lat="45.95598" lon="6.56731">
        <ele>2079.3</ele>
        <time>2026-02-02T08:24:43Z</time>
      </trkpt>
      <trkpt lat="45.95598" lon="6.56733">
        <ele>2079.3</ele>
        <time>2026-02-02T08:24:44Z</time>
      </trkpt>
      <trkpt lat="45.95599" lon="6.56733">
        <ele>2077.5</ele>
        <time>2026-02-02T08:24:45Z</time>
      </trkpt>
      <trkpt lat="45.956" lon="6.56735">
        <ele>2078.4</ele>
        <time>2026-02-02T08:24:46Z</time>
      </trkpt>
      <trkpt lat="45.956" lon="6.56736">
        <ele>2078.4</ele>
        <time>2026-02-02T08:24:47Z</time>
      </trkpt>
      <trkpt lat="45.95599" lon="6.56738">
        <ele>2079.2</ele>
        <time>2026-02-02T08:24:48Z</time>
      </trkpt>
      <trkpt lat="45.95599" lon="6.56739">
        <ele>2079.2</ele>
        <time>2026-02-02T08:24:49Z</time>
      </trkpt>
      <trkpt lat="45.956" lon="6.5674">
        <ele>2079.2</ele>
        <time>2026-02-02T08:24:50Z</time>
      </trkpt>
      <trkpt lat="45.956" lon="6.56742">
        <ele>2079.2</ele>
        <time>2026-02-02T08:24:51Z</time>
      </trkpt>
      <trkpt lat="45.956" lon="6.56742">
        <ele>2080</ele>
        <time>2026-02-02T08:24:52Z</time>
      </trkpt>
      <trkpt lat="45.956" lon="6.56744">
        <ele>2080</ele>
        <time>2026-02-02T08:24:53Z</time>
      </trkpt>
      <trkpt lat="45.956" lon="6.56744">
        <ele>2080</ele>
        <time>2026-02-02T08:24:54Z</time>
      </trkpt>
      <trkpt lat="45.956" lon="6.56744">
        <ele>2080.1</ele>
        <time>2026-02-02T08:24:55Z</time>
      </trkpt>
      <trkpt lat="45.956" lon="6.56744">
        <ele>2080.1</ele>
        <time>2026-02-02T08:24:56Z</time>
      </trkpt>
      <trkpt lat="45.956" lon="6.56744">
        <ele>2080.1</ele>
        <time>2026-02-02T08:24:57Z</time>
      </trkpt>
      <trkpt lat="45.956" lon="6.56744">
        <ele>2080.1</ele>
        <time>2026-02-02T08:24:58Z</time>
      </trkpt>
      <trkpt lat="45.956" lon="6.56744">
        <ele>2080.1</ele>
        <time>2026-02-02T08:24:59Z</time>
      </trkpt>
      <trkpt lat="45.956" lon="6.56744">
        <ele>2080.1</ele>
        <time>2026-02-02T08:25:00Z</time>
      </trkpt>
      <trkpt lat="45.956" lon="6.56745">
        <ele>2080.1</ele>
        <time>2026-02-02T08:25:01Z</time>
      </trkpt>
      <trkpt lat="45.956" lon="6.56746">
        <ele>2080.1</ele>
        <time>2026-02-02T08:25:02Z</time>
      </trkpt>
      <trkpt lat="45.956" lon="6.56746">
        <ele>2080.1</ele>
        <time>2026-02-02T08:25:03Z</time>
      </trkpt>
      <trkpt lat="45.956" lon="6.56748">
        <ele>2080.9</ele>
        <time>2026-02-02T08:25:04Z</time>
      </trkpt>
      <trkpt lat="45.956" lon="6.56749">
        <ele>2080.9</ele>
        <time>2026-02-02T08:25:05Z</time>
      </trkpt>
      <trkpt lat="45.956" lon="6.56751">
        <ele>2081.7</ele>
        <time>2026-02-02T08:25:06Z</time>
      </trkpt>
      <trkpt lat="45.956" lon="6.56753">
        <ele>2081.7</ele>
        <time>2026-02-02T08:25:07Z</time>
      </trkpt>
      <trkpt lat="45.956" lon="6.56755">
        <ele>2082.5</ele>
        <time>2026-02-02T08:25:08Z</time>
      </trkpt>
      <trkpt lat="45.956" lon="6.56756">
        <ele>2082.5</ele>
        <time>2026-02-02T08:25:09Z</time>
      </trkpt>
      <trkpt lat="45.956" lon="6.56757">
        <ele>2082.5</ele>
        <time>2026-02-02T08:25:10Z</time>
      </trkpt>
      <trkpt lat="45.95599" lon="6.56759">
        <ele>2082.5</ele>
        <time>2026-02-02T08:25:11Z</time>
      </trkpt>
      <trkpt lat="45.95599" lon="6.5676">
        <ele>2083.3</ele>
        <time>2026-02-02T08:25:12Z</time>
      </trkpt>
      <trkpt lat="45.95599" lon="6.56761">
        <ele>2083.3</ele>
        <time>2026-02-02T08:25:13Z</time>
      </trkpt>
      <trkpt lat="45.95598" lon="6.56762">
        <ele>2085.2</ele>
        <time>2026-02-02T08:25:14Z</time>
      </trkpt>
      <trkpt lat="45.95598" lon="6.56764">
        <ele>2086.1</ele>
        <time>2026-02-02T08:25:15Z</time>
      </trkpt>
      <trkpt lat="45.95598" lon="6.56767">
        <ele>2086.1</ele>
        <time>2026-02-02T08:25:16Z</time>
      </trkpt>
      <trkpt lat="45.95599" lon="6.56767">
        <ele>2084.1</ele>
        <time>2026-02-02T08:25:17Z</time>
      </trkpt>
      <trkpt lat="45.95599" lon="6.56767">
        <ele>2084.1</ele>
        <time>2026-02-02T08:25:18Z</time>
      </trkpt>
      <trkpt lat="45.95599" lon="6.56768">
        <ele>2084.1</ele>
        <time>2026-02-02T08:25:19Z</time>
      </trkpt>
      <trkpt lat="45.95599" lon="6.56767">
        <ele>2084.1</ele>
        <time>2026-02-02T08:25:20Z</time>
      </trkpt>
      <trkpt lat="45.95598" lon="6.56766">
        <ele>2086.1</ele>
        <time>2026-02-02T08:25:21Z</time>
      </trkpt>
      <trkpt lat="45.95598" lon="6.56767">
        <ele>2086.1</ele>
        <time>2026-02-02T08:25:22Z</time>
      </trkpt>
      <trkpt lat="45.95598" lon="6.56767">
        <ele>2086.1</ele>
        <time>2026-02-02T08:25:23Z</time>
      </trkpt>
      <trkpt lat="45.95598" lon="6.56766">
        <ele>2086.1</ele>
        <time>2026-02-02T08:25:24Z</time>
      </trkpt>
      <trkpt lat="45.95598" lon="6.56766">
        <ele>2086.1</ele>
        <time>2026-02-02T08:25:25Z</time>
      </trkpt>
      <trkpt lat="45.95598" lon="6.56766">
        <ele>2086.1</ele>
        <time>2026-02-02T08:25:26Z</time>
      </trkpt>
      <trkpt lat="45.95598" lon="6.56766">
        <ele>2086.1</ele>
        <time>2026-02-02T08:25:27Z</time>
      </trkpt>
      <trkpt lat="45.95598" lon="6.56766">
        <ele>2086.1</ele>
        <time>2026-02-02T08:25:28Z</time>
      </trkpt>
      <trkpt lat="45.95598" lon="6.56766">
        <ele>2086.1</ele>
        <time>2026-02-02T08:25:29Z</time>
      </trkpt>
      <trkpt lat="45.95598" lon="6.56766">
        <ele>2086.1</ele>
        <time>2026-02-02T08:25:30Z</time>
      </trkpt>
      <trkpt lat="45.95598" lon="6.56766">
        <ele>2086.1</ele>
        <time>2026-02-02T08:25:31Z</time>
      </trkpt>
      <trkpt lat="45.95598" lon="6.56766">
        <ele>2086.2</ele>
        <time>2026-02-02T08:25:32Z</time>
      </trkpt>
      <trkpt lat="45.95598" lon="6.56766">
        <ele>2086.2</ele>
        <time>2026-02-02T08:25:33Z</time>
      </trkpt>
      <trkpt lat="45.95598" lon="6.56766">
        <ele>2086.2</ele>
        <time>2026-02-02T08:25:34Z</time>
      </trkpt>
      <trkpt lat="45.95598" lon="6.56766">
        <ele>2086.2</ele>
        <time>2026-02-02T08:25:35Z</time>
      </trkpt>
      <trkpt lat="45.95598" lon="6.56766">
        <ele>2086.2</ele>
        <time>2026-02-02T08:25:36Z</time>
      </trkpt>
      <trkpt lat="45.95598" lon="6.56766">
        <ele>2086.2</ele>
        <time>2026-02-02T08:25:37Z</time>
      </trkpt>
      <trkpt lat="45.95598" lon="6.56766">
        <ele>2086.2</ele>
        <time>2026-02-02T08:25:38Z</time>
      </trkpt>
      <trkpt lat="45.95599" lon="6.56766">
        <ele>2084.2</ele>
        <time>2026-02-02T08:25:39Z</time>
      </trkpt>
      <trkpt lat="45.95599" lon="6.56766">
        <ele>2084.2</ele>
        <time>2026-02-02T08:25:40Z</time>
      </trkpt>
      <trkpt lat="45.95597" lon="6.56766">
        <ele>2086.2</ele>
        <time>2026-02-02T08:25:41Z</time>
      </trkpt>
      <trkpt lat="45.95596" lon="6.56765">
        <ele>2086.2</ele>
        <time>2026-02-02T08:25:42Z</time>
      </trkpt>
      <trkpt lat="45.95596" lon="6.56765">
        <ele>2086.2</ele>
        <time>2026-02-02T08:25:43Z</time>
      </trkpt>
      <trkpt lat="45.95595" lon="6.56764">
        <ele>2088.2</ele>
        <time>2026-02-02T08:25:44Z</time>
      </trkpt>
      <trkpt lat="45.95594" lon="6.56763">
        <ele>2087.3</ele>
        <time>2026-02-02T08:25:45Z</time>
      </trkpt>
      <trkpt lat="45.95594" lon="6.56763">
        <ele>2087.3</ele>
        <time>2026-02-02T08:25:46Z</time>
      </trkpt>
      <trkpt lat="45.95594" lon="6.56762">
        <ele>2087.3</ele>
        <time>2026-02-02T08:25:47Z</time>
      </trkpt>
      <trkpt lat="45.95593" lon="6.56761">
        <ele>2087.4</ele>
        <time>2026-02-02T08:25:48Z</time>
      </trkpt>
      <trkpt lat="45.95592" lon="6.5676">
        <ele>2087.4</ele>
        <time>2026-02-02T08:25:49Z</time>
      </trkpt>
      <trkpt lat="45.95592" lon="6.56759">
        <ele>2089.3</ele>
        <time>2026-02-02T08:25:50Z</time>
      </trkpt>
      <trkpt lat="45.95591" lon="6.56759">
        <ele>2088.5</ele>
        <time>2026-02-02T08:25:51Z</time>
      </trkpt>
      <trkpt lat="45.9559" lon="6.56759">
        <ele>2088.5</ele>
        <time>2026-02-02T08:25:52Z</time>
      </trkpt>
      <trkpt lat="45.9559" lon="6.56758">
        <ele>2088.5</ele>
        <time>2026-02-02T08:25:53Z</time>
      </trkpt>
      <trkpt lat="45.95589" lon="6.56757">
        <ele>2088.5</ele>
        <time>2026-02-02T08:25:54Z</time>
      </trkpt>
      <trkpt lat="45.95589" lon="6.56756">
        <ele>2090.5</ele>
        <time>2026-02-02T08:25:55Z</time>
      </trkpt>
      <trkpt lat="45.95588" lon="6.56755">
        <ele>2090.5</ele>
        <time>2026-02-02T08:25:56Z</time>
      </trkpt>
      <trkpt lat="45.95588" lon="6.56755">
        <ele>2090.5</ele>
        <time>2026-02-02T08:25:57Z</time>
      </trkpt>
      <trkpt lat="45.95587" lon="6.56754">
        <ele>2089.7</ele>
        <time>2026-02-02T08:25:58Z</time>
      </trkpt>
      <trkpt lat="45.95587" lon="6.56754">
        <ele>2089.7</ele>
        <time>2026-02-02T08:25:59Z</time>
      </trkpt>
      <trkpt lat="45.95587" lon="6.56755">
        <ele>2089.7</ele>
        <time>2026-02-02T08:26:00Z</time>
      </trkpt>
      <trkpt lat="45.95586" lon="6.56755">
        <ele>2090.6</ele>
        <time>2026-02-02T08:26:01Z</time>
      </trkpt>
      <trkpt lat="45.95587" lon="6.56756">
        <ele>2090.6</ele>
        <time>2026-02-02T08:26:02Z</time>
      </trkpt>
      <trkpt lat="45.95587" lon="6.56757">
        <ele>2090.6</ele>
        <time>2026-02-02T08:26:03Z</time>
      </trkpt>
      <trkpt lat="45.95587" lon="6.56759">
        <ele>2090.6</ele>
        <time>2026-02-02T08:26:04Z</time>
      </trkpt>
      <trkpt lat="45.95587" lon="6.5676">
        <ele>2091.5</ele>
        <time>2026-02-02T08:26:05Z</time>
      </trkpt>
      <trkpt lat="45.95588" lon="6.56762">
        <ele>2091.5</ele>
        <time>2026-02-02T08:26:06Z</time>
      </trkpt>
      <trkpt lat="45.95588" lon="6.56763">
        <ele>2091.5</ele>
        <time>2026-02-02T08:26:07Z</time>
      </trkpt>
      <trkpt lat="45.95589" lon="6.56764">
        <ele>2092.4</ele>
        <time>2026-02-02T08:26:08Z</time>
      </trkpt>
      <trkpt lat="45.95589" lon="6.56766">
        <ele>2092.4</ele>
        <time>2026-02-02T08:26:09Z</time>
      </trkpt>
      <trkpt lat="45.95589" lon="6.56767">
        <ele>2092.4</ele>
        <time>2026-02-02T08:26:10Z</time>
      </trkpt>
      <trkpt lat="45.95589" lon="6.56768">
        <ele>2093.4</ele>
        <time>2026-02-02T08:26:11Z</time>
      </trkpt>
      <trkpt lat="45.95589" lon="6.56769">
        <ele>2093.4</ele>
        <time>2026-02-02T08:26:12Z</time>
      </trkpt>
      <trkpt lat="45.95589" lon="6.56769">
        <ele>2093.4</ele>
        <time>2026-02-02T08:26:13Z</time>
      </trkpt>
      <trkpt lat="45.95589" lon="6.56771">
        <ele>2093.4</ele>
        <time>2026-02-02T08:26:14Z</time>
      </trkpt>
      <trkpt lat="45.95589" lon="6.56771">
        <ele>2093.4</ele>
        <time>2026-02-02T08:26:15Z</time>
      </trkpt>
      <trkpt lat="45.9559" lon="6.56772">
        <ele>2091.3</ele>
        <time>2026-02-02T08:26:16Z</time>
      </trkpt>
      <trkpt lat="45.9559" lon="6.56772">
        <ele>2092.2</ele>
        <time>2026-02-02T08:26:17Z</time>
      </trkpt>
      <trkpt lat="45.95591" lon="6.56774">
        <ele>2092.2</ele>
        <time>2026-02-02T08:26:18Z</time>
      </trkpt>
      <trkpt lat="45.95591" lon="6.56775">
        <ele>2092.2</ele>
        <time>2026-02-02T08:26:19Z</time>
      </trkpt>
      <trkpt lat="45.95591" lon="6.56776">
        <ele>2092.2</ele>
        <time>2026-02-02T08:26:20Z</time>
      </trkpt>
      <trkpt lat="45.95591" lon="6.56777">
        <ele>2093.2</ele>
        <time>2026-02-02T08:26:21Z</time>
      </trkpt>
      <trkpt lat="45.95591" lon="6.56777">
        <ele>2093.2</ele>
        <time>2026-02-02T08:26:22Z</time>
      </trkpt>
      <trkpt lat="45.95591" lon="6.56777">
        <ele>2093.2</ele>
        <time>2026-02-02T08:26:23Z</time>
      </trkpt>
      <trkpt lat="45.95591" lon="6.56777">
        <ele>2093.2</ele>
        <time>2026-02-02T08:26:24Z</time>
      </trkpt>
      <trkpt lat="45.95591" lon="6.56777">
        <ele>2093.2</ele>
        <time>2026-02-02T08:26:25Z</time>
      </trkpt>
      <trkpt lat="45.95591" lon="6.56777">
        <ele>2093.2</ele>
        <time>2026-02-02T08:26:26Z</time>
      </trkpt>
      <trkpt lat="45.95591" lon="6.56777">
        <ele>2093.2</ele>
        <time>2026-02-02T08:26:27Z</time>
      </trkpt>
      <trkpt lat="45.95591" lon="6.56777">
        <ele>2093.2</ele>
        <time>2026-02-02T08:26:28Z</time>
      </trkpt>
      <trkpt lat="45.95591" lon="6.56777">
        <ele>2093.2</ele>
        <time>2026-02-02T08:26:29Z</time>
      </trkpt>
      <trkpt lat="45.95591" lon="6.56777">
        <ele>2093.3</ele>
        <time>2026-02-02T08:26:30Z</time>
      </trkpt>
      <trkpt lat="45.95591" lon="6.56777">
        <ele>2093.3</ele>
        <time>2026-02-02T08:26:31Z</time>
      </trkpt>
      <trkpt lat="45.95591" lon="6.56777">
        <ele>2093.3</ele>
        <time>2026-02-02T08:26:32Z</time>
      </trkpt>
      <trkpt lat="45.95591" lon="6.56777">
        <ele>2093.3</ele>
        <time>2026-02-02T08:26:33Z</time>
      </trkpt>
      <trkpt lat="45.95591" lon="6.56777">
        <ele>2093.3</ele>
        <time>2026-02-02T08:26:34Z</time>
      </trkpt>
      <trkpt lat="45.95591" lon="6.56778">
        <ele>2093.3</ele>
        <time>2026-02-02T08:26:35Z</time>
      </trkpt>
      <trkpt lat="45.95591" lon="6.56779">
        <ele>2093.3</ele>
        <time>2026-02-02T08:26:36Z</time>
      </trkpt>
      <trkpt lat="45.95591" lon="6.5678">
        <ele>2093.3</ele>
        <time>2026-02-02T08:26:37Z</time>
      </trkpt>
      <trkpt lat="45.95591" lon="6.56781">
        <ele>2093.3</ele>
        <time>2026-02-02T08:26:38Z</time>
      </trkpt>
      <trkpt lat="45.95591" lon="6.56782">
        <ele>2094.2</ele>
        <time>2026-02-02T08:26:39Z</time>
      </trkpt>
      <trkpt lat="45.95591" lon="6.56783">
        <ele>2094.3</ele>
        <time>2026-02-02T08:26:40Z</time>
      </trkpt>
      <trkpt lat="45.95591" lon="6.56784">
        <ele>2094.3</ele>
        <time>2026-02-02T08:26:41Z</time>
      </trkpt>
      <trkpt lat="45.95591" lon="6.56785">
        <ele>2095.2</ele>
        <time>2026-02-02T08:26:42Z</time>
      </trkpt>
      <trkpt lat="45.95592" lon="6.56786">
        <ele>2095.2</ele>
        <time>2026-02-02T08:26:43Z</time>
      </trkpt>
      <trkpt lat="45.95592" lon="6.56788">
        <ele>2095.2</ele>
        <time>2026-02-02T08:26:44Z</time>
      </trkpt>
      <trkpt lat="45.95592" lon="6.5679">
        <ele>2096.1</ele>
        <time>2026-02-02T08:26:45Z</time>
      </trkpt>
      <trkpt lat="45.95592" lon="6.56791">
        <ele>2096.1</ele>
        <time>2026-02-02T08:26:46Z</time>
      </trkpt>
      <trkpt lat="45.95592" lon="6.56792">
        <ele>2096.1</ele>
        <time>2026-02-02T08:26:47Z</time>
      </trkpt>
      <trkpt lat="45.95593" lon="6.56793">
        <ele>2093.9</ele>
        <time>2026-02-02T08:26:48Z</time>
      </trkpt>
      <trkpt lat="45.95593" lon="6.56794">
        <ele>2094.7</ele>
        <time>2026-02-02T08:26:49Z</time>
      </trkpt>
      <trkpt lat="45.95593" lon="6.56795">
        <ele>2094.7</ele>
        <time>2026-02-02T08:26:50Z</time>
      </trkpt>
      <trkpt lat="45.95593" lon="6.56796">
        <ele>2094.7</ele>
        <time>2026-02-02T08:26:51Z</time>
      </trkpt>
      <trkpt lat="45.95592" lon="6.56798">
        <ele>2095.5</ele>
        <time>2026-02-02T08:26:52Z</time>
      </trkpt>
      <trkpt lat="45.95593" lon="6.56799">
        <ele>2095.5</ele>
        <time>2026-02-02T08:26:53Z</time>
      </trkpt>
      <trkpt lat="45.95593" lon="6.56799">
        <ele>2095.5</ele>
        <time>2026-02-02T08:26:54Z</time>
      </trkpt>
      <trkpt lat="45.95593" lon="6.568">
        <ele>2095.5</ele>
        <time>2026-02-02T08:26:55Z</time>
      </trkpt>
      <trkpt lat="45.95593" lon="6.568">
        <ele>2095.5</ele>
        <time>2026-02-02T08:26:56Z</time>
      </trkpt>
      <trkpt lat="45.95593" lon="6.56801">
        <ele>2095.5</ele>
        <time>2026-02-02T08:26:57Z</time>
      </trkpt>
      <trkpt lat="45.95594" lon="6.56801">
        <ele>2095.6</ele>
        <time>2026-02-02T08:26:58Z</time>
      </trkpt>
      <trkpt lat="45.95594" lon="6.56802">
        <ele>2095.6</ele>
        <time>2026-02-02T08:26:59Z</time>
      </trkpt>
      <trkpt lat="45.95594" lon="6.56803">
        <ele>2096.4</ele>
        <time>2026-02-02T08:27:00Z</time>
      </trkpt>
      <trkpt lat="45.95594" lon="6.56803">
        <ele>2096.4</ele>
        <time>2026-02-02T08:27:01Z</time>
      </trkpt>
      <trkpt lat="45.95594" lon="6.56803">
        <ele>2096.4</ele>
        <time>2026-02-02T08:27:02Z</time>
      </trkpt>
      <trkpt lat="45.95594" lon="6.56803">
        <ele>2096.4</ele>
        <time>2026-02-02T08:27:03Z</time>
      </trkpt>
      <trkpt lat="45.95594" lon="6.56803">
        <ele>2096.4</ele>
        <time>2026-02-02T08:27:04Z</time>
      </trkpt>
      <trkpt lat="45.95594" lon="6.56803">
        <ele>2096.4</ele>
        <time>2026-02-02T08:27:05Z</time>
      </trkpt>
      <trkpt lat="45.95594" lon="6.56803">
        <ele>2096.4</ele>
        <time>2026-02-02T08:27:06Z</time>
      </trkpt>
      <trkpt lat="45.95594" lon="6.56803">
        <ele>2096.4</ele>
        <time>2026-02-02T08:27:07Z</time>
      </trkpt>
      <trkpt lat="45.95594" lon="6.56803">
        <ele>2096.4</ele>
        <time>2026-02-02T08:27:08Z</time>
      </trkpt>
      <trkpt lat="45.95594" lon="6.56803">
        <ele>2096.4</ele>
        <time>2026-02-02T08:27:09Z</time>
      </trkpt>
      <trkpt lat="45.95594" lon="6.56803">
        <ele>2096.4</ele>
        <time>2026-02-02T08:27:10Z</time>
      </trkpt>
      <trkpt lat="45.95594" lon="6.56803">
        <ele>2096.4</ele>
        <time>2026-02-02T08:27:11Z</time>
      </trkpt>
      <trkpt lat="45.95594" lon="6.56802">
        <ele>2095.6</ele>
        <time>2026-02-02T08:27:12Z</time>
      </trkpt>
      <trkpt lat="45.95593" lon="6.56801">
        <ele>2095.6</ele>
        <time>2026-02-02T08:27:13Z</time>
      </trkpt>
      <trkpt lat="45.95593" lon="6.56801">
        <ele>2095.6</ele>
        <time>2026-02-02T08:27:14Z</time>
      </trkpt>
      <trkpt lat="45.95593" lon="6.56801">
        <ele>2095.7</ele>
        <time>2026-02-02T08:27:15Z</time>
      </trkpt>
      <trkpt lat="45.95593" lon="6.56801">
        <ele>2095.7</ele>
        <time>2026-02-02T08:27:16Z</time>
      </trkpt>
      <trkpt lat="45.95593" lon="6.568">
        <ele>2095.7</ele>
        <time>2026-02-02T08:27:17Z</time>
      </trkpt>
      <trkpt lat="45.95594" lon="6.56798">
        <ele>2095.7</ele>
        <time>2026-02-02T08:27:18Z</time>
      </trkpt>
      <trkpt lat="45.95593" lon="6.56798">
        <ele>2094.9</ele>
        <time>2026-02-02T08:27:19Z</time>
      </trkpt>
      <trkpt lat="45.95592" lon="6.56797">
        <ele>2094.9</ele>
        <time>2026-02-02T08:27:20Z</time>
      </trkpt>
      <trkpt lat="45.95592" lon="6.56797">
        <ele>2097.1</ele>
        <time>2026-02-02T08:27:21Z</time>
      </trkpt>
      <trkpt lat="45.95591" lon="6.56796">
        <ele>2097.1</ele>
        <time>2026-02-02T08:27:22Z</time>
      </trkpt>
      <trkpt lat="45.9559" lon="6.56796">
        <ele>2097.1</ele>
        <time>2026-02-02T08:27:23Z</time>
      </trkpt>
      <trkpt lat="45.9559" lon="6.56795">
        <ele>2097.1</ele>
        <time>2026-02-02T08:27:24Z</time>
      </trkpt>
      <trkpt lat="45.95589" lon="6.56795">
        <ele>2099.4</ele>
        <time>2026-02-02T08:27:25Z</time>
      </trkpt>
      <trkpt lat="45.95589" lon="6.56794">
        <ele>2099.4</ele>
        <time>2026-02-02T08:27:26Z</time>
      </trkpt>
      <trkpt lat="45.95588" lon="6.56793">
        <ele>2098.6</ele>
        <time>2026-02-02T08:27:27Z</time>
      </trkpt>
      <trkpt lat="45.95588" lon="6.56792">
        <ele>2098.6</ele>
        <time>2026-02-02T08:27:28Z</time>
      </trkpt>
      <trkpt lat="45.95587" lon="6.56791">
        <ele>2098.6</ele>
        <time>2026-02-02T08:27:29Z</time>
      </trkpt>
      <trkpt lat="45.95586" lon="6.56791">
        <ele>2101.1</ele>
        <time>2026-02-02T08:27:30Z</time>
      </trkpt>
      <trkpt lat="45.95585" lon="6.56791">
        <ele>2101.1</ele>
        <time>2026-02-02T08:27:31Z</time>
      </trkpt>
      <trkpt lat="45.95584" lon="6.5679">
        <ele>2101.1</ele>
        <time>2026-02-02T08:27:32Z</time>
      </trkpt>
      <trkpt lat="45.95584" lon="6.5679">
        <ele>2101.1</ele>
        <time>2026-02-02T08:27:33Z</time>
      </trkpt>
      <trkpt lat="45.95583" lon="6.5679">
        <ele>2103.7</ele>
        <time>2026-02-02T08:27:34Z</time>
      </trkpt>
      <trkpt lat="45.95583" lon="6.56789">
        <ele>2103.7</ele>
        <time>2026-02-02T08:27:35Z</time>
      </trkpt>
      <trkpt lat="45.95583" lon="6.56789">
        <ele>2102.7</ele>
        <time>2026-02-02T08:27:36Z</time>
      </trkpt>
      <trkpt lat="45.95582" lon="6.56789">
        <ele>2102.7</ele>
        <time>2026-02-02T08:27:37Z</time>
      </trkpt>
      <trkpt lat="45.95581" lon="6.56788">
        <ele>2102.7</ele>
        <time>2026-02-02T08:27:38Z</time>
      </trkpt>
      <trkpt lat="45.95581" lon="6.56787">
        <ele>2102.7</ele>
        <time>2026-02-02T08:27:39Z</time>
      </trkpt>
      <trkpt lat="45.95581" lon="6.56787">
        <ele>2102.8</ele>
        <time>2026-02-02T08:27:40Z</time>
      </trkpt>
      <trkpt lat="45.95581" lon="6.56786">
        <ele>2102.8</ele>
        <time>2026-02-02T08:27:41Z</time>
      </trkpt>
      <trkpt lat="45.9558" lon="6.56785">
        <ele>2104.3</ele>
        <time>2026-02-02T08:27:42Z</time>
      </trkpt>
      <trkpt lat="45.9558" lon="6.56784">
        <ele>2104.3</ele>
        <time>2026-02-02T08:27:43Z</time>
      </trkpt>
      <trkpt lat="45.95578" lon="6.56783">
        <ele>2104.3</ele>
        <time>2026-02-02T08:27:44Z</time>
      </trkpt>
      <trkpt lat="45.95578" lon="6.56782">
        <ele>2104.3</ele>
        <time>2026-02-02T08:27:45Z</time>
      </trkpt>
      <trkpt lat="45.95576" lon="6.56781">
        <ele>2105.6</ele>
        <time>2026-02-02T08:27:46Z</time>
      </trkpt>
      <trkpt lat="45.95576" lon="6.5678">
        <ele>2105.6</ele>
        <time>2026-02-02T08:27:47Z</time>
      </trkpt>
      <trkpt lat="45.95575" lon="6.56779">
        <ele>2105.6</ele>
        <time>2026-02-02T08:27:48Z</time>
      </trkpt>
      <trkpt lat="45.95574" lon="6.56778">
        <ele>2107.8</ele>
        <time>2026-02-02T08:27:49Z</time>
      </trkpt>
      <trkpt lat="45.95574" lon="6.56777">
        <ele>2107.8</ele>
        <time>2026-02-02T08:27:50Z</time>
      </trkpt>
      <trkpt lat="45.95574" lon="6.56778">
        <ele>2107.8</ele>
        <time>2026-02-02T08:27:51Z</time>
      </trkpt>
      <trkpt lat="45.95574" lon="6.56777">
        <ele>2107.8</ele>
        <time>2026-02-02T08:27:52Z</time>
      </trkpt>
      <trkpt lat="45.95573" lon="6.56776">
        <ele>2106.6</ele>
        <time>2026-02-02T08:27:53Z</time>
      </trkpt>
      <trkpt lat="45.95572" lon="6.56776">
        <ele>2106.6</ele>
        <time>2026-02-02T08:27:54Z</time>
      </trkpt>
      <trkpt lat="45.95571" lon="6.56775">
        <ele>2108.5</ele>
        <time>2026-02-02T08:27:55Z</time>
      </trkpt>
      <trkpt lat="45.95571" lon="6.56774">
        <ele>2108.5</ele>
        <time>2026-02-02T08:27:56Z</time>
      </trkpt>
      <trkpt lat="45.95571" lon="6.56773">
        <ele>2108.6</ele>
        <time>2026-02-02T08:27:57Z</time>
      </trkpt>
      <trkpt lat="45.95571" lon="6.56773">
        <ele>2108.6</ele>
        <time>2026-02-02T08:27:58Z</time>
      </trkpt>
      <trkpt lat="45.95571" lon="6.56773">
        <ele>2108.6</ele>
        <time>2026-02-02T08:27:59Z</time>
      </trkpt>
      <trkpt lat="45.95571" lon="6.56773">
        <ele>2108.6</ele>
        <time>2026-02-02T08:28:00Z</time>
      </trkpt>
      <trkpt lat="45.95571" lon="6.56773">
        <ele>2108.6</ele>
        <time>2026-02-02T08:28:01Z</time>
      </trkpt>
      <trkpt lat="45.95571" lon="6.56773">
        <ele>2108.6</ele>
        <time>2026-02-02T08:28:02Z</time>
      </trkpt>
      <trkpt lat="45.95571" lon="6.56773">
        <ele>2108.6</ele>
        <time>2026-02-02T08:28:03Z</time>
      </trkpt>
      <trkpt lat="45.95571" lon="6.56773">
        <ele>2108.6</ele>
        <time>2026-02-02T08:28:04Z</time>
      </trkpt>
      <trkpt lat="45.95571" lon="6.56773">
        <ele>2108.6</ele>
        <time>2026-02-02T08:28:05Z</time>
      </trkpt>
      <trkpt lat="45.95571" lon="6.56773">
        <ele>2108.6</ele>
        <time>2026-02-02T08:28:06Z</time>
      </trkpt>
      <trkpt lat="45.95571" lon="6.56773">
        <ele>2108.6</ele>
        <time>2026-02-02T08:28:07Z</time>
      </trkpt>
      <trkpt lat="45.95571" lon="6.56773">
        <ele>2108.6</ele>
        <time>2026-02-02T08:28:08Z</time>
      </trkpt>
      <trkpt lat="45.95571" lon="6.56773">
        <ele>2108.6</ele>
        <time>2026-02-02T08:28:09Z</time>
      </trkpt>
      <trkpt lat="45.95571" lon="6.56773">
        <ele>2108.6</ele>
        <time>2026-02-02T08:28:10Z</time>
      </trkpt>
      <trkpt lat="45.95571" lon="6.56774">
        <ele>2108.6</ele>
        <time>2026-02-02T08:28:11Z</time>
      </trkpt>
      <trkpt lat="45.95571" lon="6.56773">
        <ele>2108.6</ele>
        <time>2026-02-02T08:28:12Z</time>
      </trkpt>
      <trkpt lat="45.95571" lon="6.56773">
        <ele>2108.6</ele>
        <time>2026-02-02T08:28:13Z</time>
      </trkpt>
      <trkpt lat="45.95571" lon="6.56773">
        <ele>2108.6</ele>
        <time>2026-02-02T08:28:14Z</time>
      </trkpt>
      <trkpt lat="45.95571" lon="6.56774">
        <ele>2108.7</ele>
        <time>2026-02-02T08:28:15Z</time>
      </trkpt>
      <trkpt lat="45.9557" lon="6.56774">
        <ele>2108.7</ele>
        <time>2026-02-02T08:28:16Z</time>
      </trkpt>
      <trkpt lat="45.95569" lon="6.56773">
        <ele>2108.7</ele>
        <time>2026-02-02T08:28:17Z</time>
      </trkpt>
      <trkpt lat="45.95569" lon="6.56774">
        <ele>2108.7</ele>
        <time>2026-02-02T08:28:18Z</time>
      </trkpt>
      <trkpt lat="45.95568" lon="6.56773">
        <ele>2110.6</ele>
        <time>2026-02-02T08:28:19Z</time>
      </trkpt>
      <trkpt lat="45.95568" lon="6.56774">
        <ele>2110.6</ele>
        <time>2026-02-02T08:28:20Z</time>
      </trkpt>
      <trkpt lat="45.95567" lon="6.56773">
        <ele>2110.6</ele>
        <time>2026-02-02T08:28:21Z</time>
      </trkpt>
      <trkpt lat="45.95566" lon="6.56772">
        <ele>2110.6</ele>
        <time>2026-02-02T08:28:22Z</time>
      </trkpt>
      <trkpt lat="45.95565" lon="6.56771">
        <ele>2111.2</ele>
        <time>2026-02-02T08:28:23Z</time>
      </trkpt>
      <trkpt lat="45.95564" lon="6.56771">
        <ele>2111.2</ele>
        <time>2026-02-02T08:28:24Z</time>
      </trkpt>
      <trkpt lat="45.95564" lon="6.56771">
        <ele>2111.2</ele>
        <time>2026-02-02T08:28:25Z</time>
      </trkpt>
      <trkpt lat="45.95564" lon="6.5677">
        <ele>2111.2</ele>
        <time>2026-02-02T08:28:26Z</time>
      </trkpt>
      <trkpt lat="45.95563" lon="6.56769">
        <ele>2111.2</ele>
        <time>2026-02-02T08:28:27Z</time>
      </trkpt>
      <trkpt lat="45.95562" lon="6.56768">
        <ele>2113.3</ele>
        <time>2026-02-02T08:28:28Z</time>
      </trkpt>
      <trkpt lat="45.95561" lon="6.56768">
        <ele>2112</ele>
        <time>2026-02-02T08:28:29Z</time>
      </trkpt>
      <trkpt lat="45.9556" lon="6.56768">
        <ele>2112</ele>
        <time>2026-02-02T08:28:30Z</time>
      </trkpt>
      <trkpt lat="45.9556" lon="6.56767">
        <ele>2112</ele>
        <time>2026-02-02T08:28:31Z</time>
      </trkpt>
      <trkpt lat="45.95559" lon="6.56766">
        <ele>2114.1</ele>
        <time>2026-02-02T08:28:32Z</time>
      </trkpt>
      <trkpt lat="45.95558" lon="6.56765">
        <ele>2114.1</ele>
        <time>2026-02-02T08:28:33Z</time>
      </trkpt>
      <trkpt lat="45.95558" lon="6.56765">
        <ele>2114.1</ele>
        <time>2026-02-02T08:28:34Z</time>
      </trkpt>
      <trkpt lat="45.95558" lon="6.56766">
        <ele>2114.1</ele>
        <time>2026-02-02T08:28:35Z</time>
      </trkpt>
      <trkpt lat="45.95558" lon="6.56765">
        <ele>2114.1</ele>
        <time>2026-02-02T08:28:36Z</time>
      </trkpt>
      <trkpt lat="45.95558" lon="6.56766">
        <ele>2114.1</ele>
        <time>2026-02-02T08:28:37Z</time>
      </trkpt>
      <trkpt lat="45.95557" lon="6.56768">
        <ele>2114.1</ele>
        <time>2026-02-02T08:28:38Z</time>
      </trkpt>
      <trkpt lat="45.95557" lon="6.56768">
        <ele>2114.1</ele>
        <time>2026-02-02T08:28:39Z</time>
      </trkpt>
      <trkpt lat="45.95557" lon="6.56768">
        <ele>2114.2</ele>
        <time>2026-02-02T08:28:40Z</time>
      </trkpt>
      <trkpt lat="45.95557" lon="6.56768">
        <ele>2114.2</ele>
        <time>2026-02-02T08:28:41Z</time>
      </trkpt>
      <trkpt lat="45.95557" lon="6.56768">
        <ele>2114.2</ele>
        <time>2026-02-02T08:28:42Z</time>
      </trkpt>
      <trkpt lat="45.95557" lon="6.56768">
        <ele>2114.2</ele>
        <time>2026-02-02T08:28:43Z</time>
      </trkpt>
      <trkpt lat="45.95557" lon="6.56768">
        <ele>2114.2</ele>
        <time>2026-02-02T08:28:44Z</time>
      </trkpt>
      <trkpt lat="45.95557" lon="6.56768">
        <ele>2114.2</ele>
        <time>2026-02-02T08:28:45Z</time>
      </trkpt>
      <trkpt lat="45.95557" lon="6.56768">
        <ele>2114.2</ele>
        <time>2026-02-02T08:28:46Z</time>
      </trkpt>
      <trkpt lat="45.95557" lon="6.56768">
        <ele>2114.2</ele>
        <time>2026-02-02T08:28:47Z</time>
      </trkpt>
      <trkpt lat="45.95557" lon="6.56768">
        <ele>2114.2</ele>
        <time>2026-02-02T08:28:48Z</time>
      </trkpt>
      <trkpt lat="45.95557" lon="6.56768">
        <ele>2114.2</ele>
        <time>2026-02-02T08:28:49Z</time>
      </trkpt>
      <trkpt lat="45.95557" lon="6.56768">
        <ele>2114.2</ele>
        <time>2026-02-02T08:28:50Z</time>
      </trkpt>
      <trkpt lat="45.95557" lon="6.56768">
        <ele>2114.2</ele>
        <time>2026-02-02T08:28:51Z</time>
      </trkpt>
      <trkpt lat="45.95557" lon="6.56768">
        <ele>2114.2</ele>
        <time>2026-02-02T08:28:52Z</time>
      </trkpt>
      <trkpt lat="45.95557" lon="6.56768">
        <ele>2114.2</ele>
        <time>2026-02-02T08:28:53Z</time>
      </trkpt>
      <trkpt lat="45.95557" lon="6.56767">
        <ele>2114.2</ele>
        <time>2026-02-02T08:28:54Z</time>
      </trkpt>
      <trkpt lat="45.95557" lon="6.56769">
        <ele>2115.6</ele>
        <time>2026-02-02T08:28:55Z</time>
      </trkpt>
      <trkpt lat="45.95556" lon="6.5677">
        <ele>2117.8</ele>
        <time>2026-02-02T08:28:56Z</time>
      </trkpt>
      <trkpt lat="45.95557" lon="6.56771">
        <ele>2115.6</ele>
        <time>2026-02-02T08:28:57Z</time>
      </trkpt>
      <trkpt lat="45.95557" lon="6.56773">
        <ele>2117</ele>
        <time>2026-02-02T08:28:58Z</time>
      </trkpt>
      <trkpt lat="45.95557" lon="6.56774">
        <ele>2117</ele>
        <time>2026-02-02T08:28:59Z</time>
      </trkpt>
      <trkpt lat="45.95557" lon="6.56776">
        <ele>2117</ele>
        <time>2026-02-02T08:29:00Z</time>
      </trkpt>
      <trkpt lat="45.95557" lon="6.56777">
        <ele>2118.4</ele>
        <time>2026-02-02T08:29:01Z</time>
      </trkpt>
      <trkpt lat="45.95557" lon="6.56777">
        <ele>2118.4</ele>
        <time>2026-02-02T08:29:02Z</time>
      </trkpt>
      <trkpt lat="45.95557" lon="6.56779">
        <ele>2118.4</ele>
        <time>2026-02-02T08:29:03Z</time>
      </trkpt>
      <trkpt lat="45.95557" lon="6.5678">
        <ele>2118.4</ele>
        <time>2026-02-02T08:29:04Z</time>
      </trkpt>
      <trkpt lat="45.95558" lon="6.5678">
        <ele>2118.4</ele>
        <time>2026-02-02T08:29:05Z</time>
      </trkpt>
      <trkpt lat="45.95558" lon="6.56781">
        <ele>2119.7</ele>
        <time>2026-02-02T08:29:06Z</time>
      </trkpt>
      <trkpt lat="45.95558" lon="6.56783">
        <ele>2119.7</ele>
        <time>2026-02-02T08:29:07Z</time>
      </trkpt>
      <trkpt lat="45.95558" lon="6.56784">
        <ele>2119.7</ele>
        <time>2026-02-02T08:29:08Z</time>
      </trkpt>
      <trkpt lat="45.95558" lon="6.56785">
        <ele>2119.7</ele>
        <time>2026-02-02T08:29:09Z</time>
      </trkpt>
      <trkpt lat="45.95558" lon="6.56787">
        <ele>2120.9</ele>
        <time>2026-02-02T08:29:10Z</time>
      </trkpt>
      <trkpt lat="45.95558" lon="6.56789">
        <ele>2120.9</ele>
        <time>2026-02-02T08:29:11Z</time>
      </trkpt>
      <trkpt lat="45.95558" lon="6.5679">
        <ele>2122</ele>
        <time>2026-02-02T08:29:12Z</time>
      </trkpt>
      <trkpt lat="45.95557" lon="6.56791">
        <ele>2122</ele>
        <time>2026-02-02T08:29:13Z</time>
      </trkpt>
      <trkpt lat="45.95557" lon="6.56792">
        <ele>2122</ele>
        <time>2026-02-02T08:29:14Z</time>
      </trkpt>
      <trkpt lat="45.95558" lon="6.56793">
        <ele>2122</ele>
        <time>2026-02-02T08:29:15Z</time>
      </trkpt>
      <trkpt lat="45.95558" lon="6.56794">
        <ele>2123</ele>
        <time>2026-02-02T08:29:16Z</time>
      </trkpt>
      <trkpt lat="45.95559" lon="6.56795">
        <ele>2123</ele>
        <time>2026-02-02T08:29:17Z</time>
      </trkpt>
      <trkpt lat="45.95559" lon="6.56798">
        <ele>2123</ele>
        <time>2026-02-02T08:29:18Z</time>
      </trkpt>
      <trkpt lat="45.95559" lon="6.56799">
        <ele>2123.9</ele>
        <time>2026-02-02T08:29:19Z</time>
      </trkpt>
      <trkpt lat="45.95559" lon="6.568">
        <ele>2123.9</ele>
        <time>2026-02-02T08:29:20Z</time>
      </trkpt>
      <trkpt lat="45.95559" lon="6.56801">
        <ele>2123.9</ele>
        <time>2026-02-02T08:29:21Z</time>
      </trkpt>
      <trkpt lat="45.95559" lon="6.568">
        <ele>2123.9</ele>
        <time>2026-02-02T08:29:22Z</time>
      </trkpt>
      <trkpt lat="45.95559" lon="6.56801">
        <ele>2123.9</ele>
        <time>2026-02-02T08:29:23Z</time>
      </trkpt>
      <trkpt lat="45.95559" lon="6.56803">
        <ele>2124.7</ele>
        <time>2026-02-02T08:29:24Z</time>
      </trkpt>
      <trkpt lat="45.95559" lon="6.56804">
        <ele>2124.7</ele>
        <time>2026-02-02T08:29:25Z</time>
      </trkpt>
      <trkpt lat="45.95559" lon="6.56804">
        <ele>2124.7</ele>
        <time>2026-02-02T08:29:26Z</time>
      </trkpt>
      <trkpt lat="45.95559" lon="6.56804">
        <ele>2124.7</ele>
        <time>2026-02-02T08:29:27Z</time>
      </trkpt>
      <trkpt lat="45.95559" lon="6.56804">
        <ele>2124.7</ele>
        <time>2026-02-02T08:29:28Z</time>
      </trkpt>
      <trkpt lat="45.95559" lon="6.56804">
        <ele>2124.7</ele>
        <time>2026-02-02T08:29:29Z</time>
      </trkpt>
      <trkpt lat="45.95559" lon="6.56804">
        <ele>2124.7</ele>
        <time>2026-02-02T08:29:30Z</time>
      </trkpt>
      <trkpt lat="45.95559" lon="6.56804">
        <ele>2124.7</ele>
        <time>2026-02-02T08:29:31Z</time>
      </trkpt>
      <trkpt lat="45.95559" lon="6.56804">
        <ele>2124.7</ele>
        <time>2026-02-02T08:29:32Z</time>
      </trkpt>
      <trkpt lat="45.95559" lon="6.56804">
        <ele>2124.7</ele>
        <time>2026-02-02T08:29:33Z</time>
      </trkpt>
      <trkpt lat="45.95559" lon="6.56804">
        <ele>2124.7</ele>
        <time>2026-02-02T08:29:34Z</time>
      </trkpt>
      <trkpt lat="45.95559" lon="6.56804">
        <ele>2124.7</ele>
        <time>2026-02-02T08:29:35Z</time>
      </trkpt>
      <trkpt lat="45.95559" lon="6.56804">
        <ele>2124.7</ele>
        <time>2026-02-02T08:29:36Z</time>
      </trkpt>
      <trkpt lat="45.95559" lon="6.56804">
        <ele>2124.7</ele>
        <time>2026-02-02T08:29:37Z</time>
      </trkpt>
      <trkpt lat="45.95559" lon="6.56804">
        <ele>2124.7</ele>
        <time>2026-02-02T08:29:38Z</time>
      </trkpt>
      <trkpt lat="45.95559" lon="6.56804">
        <ele>2124.7</ele>
        <time>2026-02-02T08:29:39Z</time>
      </trkpt>
      <trkpt lat="45.95559" lon="6.56804">
        <ele>2124.7</ele>
        <time>2026-02-02T08:29:40Z</time>
      </trkpt>
      <trkpt lat="45.95559" lon="6.56804">
        <ele>2124.8</ele>
        <time>2026-02-02T08:29:41Z</time>
      </trkpt>
      <trkpt lat="45.95559" lon="6.56804">
        <ele>2124.8</ele>
        <time>2026-02-02T08:29:42Z</time>
      </trkpt>
      <trkpt lat="45.95559" lon="6.56804">
        <ele>2124.8</ele>
        <time>2026-02-02T08:29:43Z</time>
      </trkpt>
      <trkpt lat="45.95559" lon="6.56804">
        <ele>2124.8</ele>
        <time>2026-02-02T08:29:44Z</time>
      </trkpt>
      <trkpt lat="45.95559" lon="6.56804">
        <ele>2124.8</ele>
        <time>2026-02-02T08:29:45Z</time>
      </trkpt>
      <trkpt lat="45.95559" lon="6.56802">
        <ele>2124</ele>
        <time>2026-02-02T08:29:46Z</time>
      </trkpt>
      <trkpt lat="45.95558" lon="6.56803">
        <ele>2124.8</ele>
        <time>2026-02-02T08:29:47Z</time>
      </trkpt>
      <trkpt lat="45.95559" lon="6.56805">
        <ele>2124.8</ele>
        <time>2026-02-02T08:29:48Z</time>
      </trkpt>
      <trkpt lat="45.95559" lon="6.56807">
        <ele>2125.5</ele>
        <time>2026-02-02T08:29:49Z</time>
      </trkpt>
      <trkpt lat="45.9556" lon="6.56807">
        <ele>2123.2</ele>
        <time>2026-02-02T08:29:50Z</time>
      </trkpt>
      <trkpt lat="45.9556" lon="6.56807">
        <ele>2123.2</ele>
        <time>2026-02-02T08:29:51Z</time>
      </trkpt>
      <trkpt lat="45.9556" lon="6.56808">
        <ele>2123.2</ele>
        <time>2026-02-02T08:29:52Z</time>
      </trkpt>
      <trkpt lat="45.95561" lon="6.56809">
        <ele>2123.2</ele>
        <time>2026-02-02T08:29:53Z</time>
      </trkpt>
      <trkpt lat="45.95561" lon="6.5681">
        <ele>2123.2</ele>
        <time>2026-02-02T08:29:54Z</time>
      </trkpt>
      <trkpt lat="45.95562" lon="6.56811">
        <ele>2123.8</ele>
        <time>2026-02-02T08:29:55Z</time>
      </trkpt>
      <trkpt lat="45.95562" lon="6.56812">
        <ele>2123.8</ele>
        <time>2026-02-02T08:29:56Z</time>
      </trkpt>
      <trkpt lat="45.95563" lon="6.56813">
        <ele>2121.7</ele>
        <time>2026-02-02T08:29:57Z</time>
      </trkpt>
      <trkpt lat="45.95563" lon="6.56813">
        <ele>2121.7</ele>
        <time>2026-02-02T08:29:59Z</time>
      </trkpt>
      <trkpt lat="45.95563" lon="6.56815">
        <ele>2121.7</ele>
        <time>2026-02-02T08:30:00Z</time>
      </trkpt>
      <trkpt lat="45.95564" lon="6.56815">
        <ele>2121.7</ele>
        <time>2026-02-02T08:30:01Z</time>
      </trkpt>
      <trkpt lat="45.95564" lon="6.56816">
        <ele>2122.3</ele>
        <time>2026-02-02T08:30:02Z</time>
      </trkpt>
      <trkpt lat="45.95564" lon="6.56817">
        <ele>2122.3</ele>
        <time>2026-02-02T08:30:03Z</time>
      </trkpt>
      <trkpt lat="45.95564" lon="6.56819">
        <ele>2122.3</ele>
        <time>2026-02-02T08:30:04Z</time>
      </trkpt>
      <trkpt lat="45.95564" lon="6.5682">
        <ele>2122.8</ele>
        <time>2026-02-02T08:30:05Z</time>
      </trkpt>
      <trkpt lat="45.95564" lon="6.5682">
        <ele>2122.8</ele>
        <time>2026-02-02T08:30:06Z</time>
      </trkpt>
      <trkpt lat="45.95564" lon="6.56821">
        <ele>2122.8</ele>
        <time>2026-02-02T08:30:07Z</time>
      </trkpt>
      <trkpt lat="45.95564" lon="6.56821">
        <ele>2122.8</ele>
        <time>2026-02-02T08:30:09Z</time>
      </trkpt>
      <trkpt lat="45.95564" lon="6.56821">
        <ele>2122.8</ele>
        <time>2026-02-02T08:30:10Z</time>
      </trkpt>
      <trkpt lat="45.95564" lon="6.56821">
        <ele>2122.8</ele>
        <time>2026-02-02T08:30:11Z</time>
      </trkpt>
      <trkpt lat="45.95564" lon="6.56821">
        <ele>2122.9</ele>
        <time>2026-02-02T08:30:12Z</time>
      </trkpt>
      <trkpt lat="45.95563" lon="6.56821">
        <ele>2122.9</ele>
        <time>2026-02-02T08:30:13Z</time>
      </trkpt>
      <trkpt lat="45.95563" lon="6.56821">
        <ele>2122.9</ele>
        <time>2026-02-02T08:30:14Z</time>
      </trkpt>
      <trkpt lat="45.95563" lon="6.56821">
        <ele>2122.9</ele>
        <time>2026-02-02T08:30:15Z</time>
      </trkpt>
      <trkpt lat="45.95563" lon="6.56821">
        <ele>2122.9</ele>
        <time>2026-02-02T08:30:16Z</time>
      </trkpt>
      <trkpt lat="45.95563" lon="6.56821">
        <ele>2122.9</ele>
        <time>2026-02-02T08:30:17Z</time>
      </trkpt>
      <trkpt lat="45.95563" lon="6.56821">
        <ele>2122.9</ele>
        <time>2026-02-02T08:30:18Z</time>
      </trkpt>
      <trkpt lat="45.95563" lon="6.56821">
        <ele>2122.9</ele>
        <time>2026-02-02T08:30:19Z</time>
      </trkpt>
      <trkpt lat="45.95563" lon="6.56822">
        <ele>2122.9</ele>
        <time>2026-02-02T08:30:20Z</time>
      </trkpt>
      <trkpt lat="45.95563" lon="6.56823">
        <ele>2122.9</ele>
        <time>2026-02-02T08:30:21Z</time>
      </trkpt>
      <trkpt lat="45.95564" lon="6.56824">
        <ele>2123.4</ele>
        <time>2026-02-02T08:30:22Z</time>
      </trkpt>
      <trkpt lat="45.95564" lon="6.56825">
        <ele>2123.4</ele>
        <time>2026-02-02T08:30:23Z</time>
      </trkpt>
      <trkpt lat="45.95564" lon="6.56827">
        <ele>2123.4</ele>
        <time>2026-02-02T08:30:24Z</time>
      </trkpt>
      <trkpt lat="45.95564" lon="6.56829">
        <ele>2123.8</ele>
        <time>2026-02-02T08:30:25Z</time>
      </trkpt>
      <trkpt lat="45.95564" lon="6.5683">
        <ele>2123.8</ele>
        <time>2026-02-02T08:30:26Z</time>
      </trkpt>
      <trkpt lat="45.95564" lon="6.5683">
        <ele>2123.8</ele>
        <time>2026-02-02T08:30:27Z</time>
      </trkpt>
      <trkpt lat="45.95564" lon="6.56831">
        <ele>2123.8</ele>
        <time>2026-02-02T08:30:28Z</time>
      </trkpt>
      <trkpt lat="45.95564" lon="6.56832">
        <ele>2123.8</ele>
        <time>2026-02-02T08:30:29Z</time>
      </trkpt>
      <trkpt lat="45.95564" lon="6.56833">
        <ele>2124.2</ele>
        <time>2026-02-02T08:30:30Z</time>
      </trkpt>
      <trkpt lat="45.95564" lon="6.56834">
        <ele>2124.2</ele>
        <time>2026-02-02T08:30:31Z</time>
      </trkpt>
      <trkpt lat="45.95564" lon="6.56834">
        <ele>2124.3</ele>
        <time>2026-02-02T08:30:32Z</time>
      </trkpt>
      <trkpt lat="45.95564" lon="6.56834">
        <ele>2124.3</ele>
        <time>2026-02-02T08:30:33Z</time>
      </trkpt>
      <trkpt lat="45.95564" lon="6.56834">
        <ele>2124.3</ele>
        <time>2026-02-02T08:30:34Z</time>
      </trkpt>
      <trkpt lat="45.95564" lon="6.56834">
        <ele>2124.3</ele>
        <time>2026-02-02T08:30:35Z</time>
      </trkpt>
      <trkpt lat="45.95564" lon="6.56834">
        <ele>2124.3</ele>
        <time>2026-02-02T08:30:36Z</time>
      </trkpt>
      <trkpt lat="45.95564" lon="6.56834">
        <ele>2124.3</ele>
        <time>2026-02-02T08:30:37Z</time>
      </trkpt>
      <trkpt lat="45.95564" lon="6.56834">
        <ele>2124.3</ele>
        <time>2026-02-02T08:30:38Z</time>
      </trkpt>
      <trkpt lat="45.95564" lon="6.56834">
        <ele>2124.3</ele>
        <time>2026-02-02T08:30:39Z</time>
      </trkpt>
      <trkpt lat="45.95564" lon="6.56834">
        <ele>2124.3</ele>
        <time>2026-02-02T08:30:40Z</time>
      </trkpt>
      <trkpt lat="45.95563" lon="6.56834">
        <ele>2124.3</ele>
        <time>2026-02-02T08:30:41Z</time>
      </trkpt>
      <trkpt lat="45.95562" lon="6.56834">
        <ele>2126.4</ele>
        <time>2026-02-02T08:30:42Z</time>
      </trkpt>
      <trkpt lat="45.95561" lon="6.56834">
        <ele>2126.4</ele>
        <time>2026-02-02T08:30:43Z</time>
      </trkpt>
      <trkpt lat="45.9556" lon="6.56832">
        <ele>2126</ele>
        <time>2026-02-02T08:30:44Z</time>
      </trkpt>
      <trkpt lat="45.95559" lon="6.5683">
        <ele>2128.3</ele>
        <time>2026-02-02T08:30:45Z</time>
      </trkpt>
      <trkpt lat="45.95558" lon="6.56828">
        <ele>2128.3</ele>
        <time>2026-02-02T08:30:46Z</time>
      </trkpt>
      <trkpt lat="45.95557" lon="6.56827">
        <ele>2127.9</ele>
        <time>2026-02-02T08:30:47Z</time>
      </trkpt>
      <trkpt lat="45.95555" lon="6.56827">
        <ele>2130.3</ele>
        <time>2026-02-02T08:30:49Z</time>
      </trkpt>
      <trkpt lat="45.95554" lon="6.56826">
        <ele>2130.3</ele>
        <time>2026-02-02T08:30:50Z</time>
      </trkpt>
      <trkpt lat="45.95553" lon="6.56826">
        <ele>2132.6</ele>
        <time>2026-02-02T08:30:51Z</time>
      </trkpt>
      <trkpt lat="45.95552" lon="6.56826">
        <ele>2132.6</ele>
        <time>2026-02-02T08:30:52Z</time>
      </trkpt>
      <trkpt lat="45.95552" lon="6.56826">
        <ele>2132.6</ele>
        <time>2026-02-02T08:30:53Z</time>
      </trkpt>
      <trkpt lat="45.95551" lon="6.56826">
        <ele>2132.6</ele>
        <time>2026-02-02T08:30:54Z</time>
      </trkpt>
      <trkpt lat="45.95551" lon="6.56826">
        <ele>2134.7</ele>
        <time>2026-02-02T08:30:55Z</time>
      </trkpt>
      <trkpt lat="45.9555" lon="6.56827">
        <ele>2134.7</ele>
        <time>2026-02-02T08:30:56Z</time>
      </trkpt>
      <trkpt lat="45.95549" lon="6.56827">
        <ele>2134.7</ele>
        <time>2026-02-02T08:30:57Z</time>
      </trkpt>
      <trkpt lat="45.95548" lon="6.56826">
        <ele>2134.7</ele>
        <time>2026-02-02T08:30:58Z</time>
      </trkpt>
      <trkpt lat="45.95547" lon="6.56826">
        <ele>2136.7</ele>
        <time>2026-02-02T08:30:59Z</time>
      </trkpt>
      <trkpt lat="45.95546" lon="6.56826">
        <ele>2136.7</ele>
        <time>2026-02-02T08:31:00Z</time>
      </trkpt>
      <trkpt lat="45.95545" lon="6.56826">
        <ele>2136.7</ele>
        <time>2026-02-02T08:31:01Z</time>
      </trkpt>
      <trkpt lat="45.95544" lon="6.56826">
        <ele>2138.6</ele>
        <time>2026-02-02T08:31:02Z</time>
      </trkpt>
      <trkpt lat="45.95544" lon="6.56826">
        <ele>2138.6</ele>
        <time>2026-02-02T08:31:03Z</time>
      </trkpt>
      <trkpt lat="45.95543" lon="6.56825">
        <ele>2138.6</ele>
        <time>2026-02-02T08:31:04Z</time>
      </trkpt>
      <trkpt lat="45.95544" lon="6.56825">
        <ele>2138.6</ele>
        <time>2026-02-02T08:31:05Z</time>
      </trkpt>
      <trkpt lat="45.95544" lon="6.56825">
        <ele>2138.6</ele>
        <time>2026-02-02T08:31:06Z</time>
      </trkpt>
      <trkpt lat="45.95544" lon="6.56825">
        <ele>2138.6</ele>
        <time>2026-02-02T08:31:07Z</time>
      </trkpt>
      <trkpt lat="45.95544" lon="6.56825">
        <ele>2138.6</ele>
        <time>2026-02-02T08:31:08Z</time>
      </trkpt>
      <trkpt lat="45.95544" lon="6.56825">
        <ele>2138.6</ele>
        <time>2026-02-02T08:31:09Z</time>
      </trkpt>
      <trkpt lat="45.95544" lon="6.56825">
        <ele>2138.6</ele>
        <time>2026-02-02T08:31:10Z</time>
      </trkpt>
      <trkpt lat="45.95544" lon="6.56825">
        <ele>2138.6</ele>
        <time>2026-02-02T08:31:11Z</time>
      </trkpt>
      <trkpt lat="45.95544" lon="6.56825">
        <ele>2138.6</ele>
        <time>2026-02-02T08:31:12Z</time>
      </trkpt>
      <trkpt lat="45.95544" lon="6.56825">
        <ele>2138.6</ele>
        <time>2026-02-02T08:31:13Z</time>
      </trkpt>
      <trkpt lat="45.95544" lon="6.56825">
        <ele>2138.6</ele>
        <time>2026-02-02T08:31:14Z</time>
      </trkpt>
      <trkpt lat="45.95544" lon="6.56825">
        <ele>2138.6</ele>
        <time>2026-02-02T08:31:15Z</time>
      </trkpt>
      <trkpt lat="45.95544" lon="6.56825">
        <ele>2138.6</ele>
        <time>2026-02-02T08:31:17Z</time>
      </trkpt>
      <trkpt lat="45.95544" lon="6.56825">
        <ele>2138.6</ele>
        <time>2026-02-02T08:31:18Z</time>
      </trkpt>
      <trkpt lat="45.95544" lon="6.56825">
        <ele>2138.6</ele>
        <time>2026-02-02T08:31:19Z</time>
      </trkpt>
      <trkpt lat="45.95544" lon="6.56825">
        <ele>2138.6</ele>
        <time>2026-02-02T08:31:20Z</time>
      </trkpt>
      <trkpt lat="45.95544" lon="6.56825">
        <ele>2138.7</ele>
        <time>2026-02-02T08:31:21Z</time>
      </trkpt>
      <trkpt lat="45.95544" lon="6.56824">
        <ele>2138.7</ele>
        <time>2026-02-02T08:31:22Z</time>
      </trkpt>
      <trkpt lat="45.95544" lon="6.56826">
        <ele>2138.7</ele>
        <time>2026-02-02T08:31:23Z</time>
      </trkpt>
      <trkpt lat="45.95544" lon="6.56827">
        <ele>2138.7</ele>
        <time>2026-02-02T08:31:24Z</time>
      </trkpt>
      <trkpt lat="45.95543" lon="6.56826">
        <ele>2138.7</ele>
        <time>2026-02-02T08:31:25Z</time>
      </trkpt>
      <trkpt lat="45.95542" lon="6.56826">
        <ele>2138.7</ele>
        <time>2026-02-02T08:31:26Z</time>
      </trkpt>
      <trkpt lat="45.95542" lon="6.56825">
        <ele>2138.7</ele>
        <time>2026-02-02T08:31:27Z</time>
      </trkpt>
      <trkpt lat="45.95541" lon="6.56825">
        <ele>2140.6</ele>
        <time>2026-02-02T08:31:28Z</time>
      </trkpt>
      <trkpt lat="45.95541" lon="6.56825">
        <ele>2140.6</ele>
        <time>2026-02-02T08:31:29Z</time>
      </trkpt>
      <trkpt lat="45.9554" lon="6.56824">
        <ele>2140.6</ele>
        <time>2026-02-02T08:31:30Z</time>
      </trkpt>
      <trkpt lat="45.95539" lon="6.56824">
        <ele>2140.6</ele>
        <time>2026-02-02T08:31:31Z</time>
      </trkpt>
      <trkpt lat="45.95538" lon="6.56824">
        <ele>2142.1</ele>
        <time>2026-02-02T08:31:32Z</time>
      </trkpt>
      <trkpt lat="45.95538" lon="6.56823">
        <ele>2142.1</ele>
        <time>2026-02-02T08:31:33Z</time>
      </trkpt>
      <trkpt lat="45.95537" lon="6.56823">
        <ele>2142.1</ele>
        <time>2026-02-02T08:31:34Z</time>
      </trkpt>
      <trkpt lat="45.95536" lon="6.56823">
        <ele>2142.1</ele>
        <time>2026-02-02T08:31:35Z</time>
      </trkpt>
      <trkpt lat="45.95535" lon="6.56823">
        <ele>2144.2</ele>
        <time>2026-02-02T08:31:36Z</time>
      </trkpt>
      <trkpt lat="45.95535" lon="6.56822">
        <ele>2144.2</ele>
        <time>2026-02-02T08:31:37Z</time>
      </trkpt>
      <trkpt lat="45.95534" lon="6.56823">
        <ele>2144.2</ele>
        <time>2026-02-02T08:31:38Z</time>
      </trkpt>
      <trkpt lat="45.95533" lon="6.56823">
        <ele>2144.3</ele>
        <time>2026-02-02T08:31:39Z</time>
      </trkpt>
      <trkpt lat="45.95532" lon="6.56823">
        <ele>2146.5</ele>
        <time>2026-02-02T08:31:40Z</time>
      </trkpt>
      <trkpt lat="45.95532" lon="6.56823">
        <ele>2146.5</ele>
        <time>2026-02-02T08:31:41Z</time>
      </trkpt>
      <trkpt lat="45.95532" lon="6.56823">
        <ele>2146.5</ele>
        <time>2026-02-02T08:31:42Z</time>
      </trkpt>
      <trkpt lat="45.95531" lon="6.56823">
        <ele>2146.5</ele>
        <time>2026-02-02T08:31:43Z</time>
      </trkpt>
      <trkpt lat="45.95531" lon="6.56822">
        <ele>2146.5</ele>
        <time>2026-02-02T08:31:44Z</time>
      </trkpt>
      <trkpt lat="45.95531" lon="6.56823">
        <ele>2146.5</ele>
        <time>2026-02-02T08:31:45Z</time>
      </trkpt>
      <trkpt lat="45.9553" lon="6.56823">
        <ele>2146.5</ele>
        <time>2026-02-02T08:31:46Z</time>
      </trkpt>
      <trkpt lat="45.9553" lon="6.56823">
        <ele>2146.5</ele>
        <time>2026-02-02T08:31:47Z</time>
      </trkpt>
      <trkpt lat="45.95529" lon="6.56823">
        <ele>2148.8</ele>
        <time>2026-02-02T08:31:48Z</time>
      </trkpt>
      <trkpt lat="45.95529" lon="6.56822">
        <ele>2148.8</ele>
        <time>2026-02-02T08:31:49Z</time>
      </trkpt>
      <trkpt lat="45.95528" lon="6.56822">
        <ele>2148.8</ele>
        <time>2026-02-02T08:31:50Z</time>
      </trkpt>
      <trkpt lat="45.95527" lon="6.56822">
        <ele>2148.8</ele>
        <time>2026-02-02T08:31:51Z</time>
      </trkpt>
      <trkpt lat="45.95526" lon="6.56821">
        <ele>2151</ele>
        <time>2026-02-02T08:31:52Z</time>
      </trkpt>
      <trkpt lat="45.95525" lon="6.56821">
        <ele>2151</ele>
        <time>2026-02-02T08:31:53Z</time>
      </trkpt>
      <trkpt lat="45.95524" lon="6.5682">
        <ele>2151</ele>
        <time>2026-02-02T08:31:54Z</time>
      </trkpt>
      <trkpt lat="45.95523" lon="6.5682">
        <ele>2153.2</ele>
        <time>2026-02-02T08:31:55Z</time>
      </trkpt>
      <trkpt lat="45.95522" lon="6.56819">
        <ele>2152.4</ele>
        <time>2026-02-02T08:31:56Z</time>
      </trkpt>
      <trkpt lat="45.95521" lon="6.56818">
        <ele>2152.4</ele>
        <time>2026-02-02T08:31:57Z</time>
      </trkpt>
      <trkpt lat="45.95521" lon="6.56818">
        <ele>2154.5</ele>
        <time>2026-02-02T08:31:58Z</time>
      </trkpt>
      <trkpt lat="45.95521" lon="6.56819">
        <ele>2154.5</ele>
        <time>2026-02-02T08:31:59Z</time>
      </trkpt>
      <trkpt lat="45.9552" lon="6.5682">
        <ele>2155.4</ele>
        <time>2026-02-02T08:32:00Z</time>
      </trkpt>
      <trkpt lat="45.95521" lon="6.56821">
        <ele>2153.3</ele>
        <time>2026-02-02T08:32:01Z</time>
      </trkpt>
      <trkpt lat="45.95521" lon="6.56821">
        <ele>2153.3</ele>
        <time>2026-02-02T08:32:02Z</time>
      </trkpt>
      <trkpt lat="45.95521" lon="6.56821">
        <ele>2153.3</ele>
        <time>2026-02-02T08:32:03Z</time>
      </trkpt>
      <trkpt lat="45.95521" lon="6.56821">
        <ele>2153.3</ele>
        <time>2026-02-02T08:32:04Z</time>
      </trkpt>
      <trkpt lat="45.95521" lon="6.56821">
        <ele>2153.3</ele>
        <time>2026-02-02T08:32:05Z</time>
      </trkpt>
      <trkpt lat="45.95521" lon="6.56821">
        <ele>2153.3</ele>
        <time>2026-02-02T08:32:06Z</time>
      </trkpt>
      <trkpt lat="45.95521" lon="6.56821">
        <ele>2153.3</ele>
        <time>2026-02-02T08:32:07Z</time>
      </trkpt>
      <trkpt lat="45.95521" lon="6.56821">
        <ele>2153.3</ele>
        <time>2026-02-02T08:32:08Z</time>
      </trkpt>
      <trkpt lat="45.95521" lon="6.56821">
        <ele>2153.3</ele>
        <time>2026-02-02T08:32:09Z</time>
      </trkpt>
      <trkpt lat="45.95521" lon="6.56821">
        <ele>2153.3</ele>
        <time>2026-02-02T08:32:10Z</time>
      </trkpt>
      <trkpt lat="45.95521" lon="6.56821">
        <ele>2153.3</ele>
        <time>2026-02-02T08:32:11Z</time>
      </trkpt>
      <trkpt lat="45.95521" lon="6.56821">
        <ele>2153.3</ele>
        <time>2026-02-02T08:32:12Z</time>
      </trkpt>
      <trkpt lat="45.95522" lon="6.56821">
        <ele>2153.3</ele>
        <time>2026-02-02T08:32:13Z</time>
      </trkpt>
      <trkpt lat="45.95522" lon="6.56822">
        <ele>2153.4</ele>
        <time>2026-02-02T08:32:14Z</time>
      </trkpt>
      <trkpt lat="45.95522" lon="6.56822">
        <ele>2153.4</ele>
        <time>2026-02-02T08:32:15Z</time>
      </trkpt>
      <trkpt lat="45.95522" lon="6.56823">
        <ele>2153.4</ele>
        <time>2026-02-02T08:32:16Z</time>
      </trkpt>
      <trkpt lat="45.95523" lon="6.56824">
        <ele>2154.2</ele>
        <time>2026-02-02T08:32:17Z</time>
      </trkpt>
      <trkpt lat="45.95524" lon="6.56828">
        <ele>2151.9</ele>
        <time>2026-02-02T08:32:18Z</time>
      </trkpt>
      <trkpt lat="45.95525" lon="6.56828">
        <ele>2152.6</ele>
        <time>2026-02-02T08:32:19Z</time>
      </trkpt>
      <trkpt lat="45.95526" lon="6.56829">
        <ele>2152.6</ele>
        <time>2026-02-02T08:32:21Z</time>
      </trkpt>
      <trkpt lat="45.95526" lon="6.5683">
        <ele>2152.6</ele>
        <time>2026-02-02T08:32:22Z</time>
      </trkpt>
      <trkpt lat="45.95527" lon="6.56831">
        <ele>2150.3</ele>
        <time>2026-02-02T08:32:23Z</time>
      </trkpt>
      <trkpt lat="45.95527" lon="6.56831">
        <ele>2150.3</ele>
        <time>2026-02-02T08:32:24Z</time>
      </trkpt>
      <trkpt lat="45.95528" lon="6.56832">
        <ele>2150.3</ele>
        <time>2026-02-02T08:32:25Z</time>
      </trkpt>
      <trkpt lat="45.95528" lon="6.56833">
        <ele>2150.9</ele>
        <time>2026-02-02T08:32:26Z</time>
      </trkpt>
      <trkpt lat="45.95529" lon="6.56834">
        <ele>2150.9</ele>
        <time>2026-02-02T08:32:27Z</time>
      </trkpt>
      <trkpt lat="45.9553" lon="6.56836">
        <ele>2148.5</ele>
        <time>2026-02-02T08:32:28Z</time>
      </trkpt>
      <trkpt lat="45.9553" lon="6.56837">
        <ele>2149</ele>
        <time>2026-02-02T08:32:29Z</time>
      </trkpt>
      <trkpt lat="45.95531" lon="6.56838">
        <ele>2149.1</ele>
        <time>2026-02-02T08:32:30Z</time>
      </trkpt>
      <trkpt lat="45.95532" lon="6.56839">
        <ele>2149.1</ele>
        <time>2026-02-02T08:32:31Z</time>
      </trkpt>
      <trkpt lat="45.95532" lon="6.56839">
        <ele>2149.1</ele>
        <time>2026-02-02T08:32:32Z</time>
      </trkpt>
      <trkpt lat="45.95532" lon="6.5684">
        <ele>2149.1</ele>
        <time>2026-02-02T08:32:33Z</time>
      </trkpt>
      <trkpt lat="45.95532" lon="6.5684">
        <ele>2149.1</ele>
        <time>2026-02-02T08:32:34Z</time>
      </trkpt>
      <trkpt lat="45.95533" lon="6.56841">
        <ele>2149.1</ele>
        <time>2026-02-02T08:32:35Z</time>
      </trkpt>
      <trkpt lat="45.95533" lon="6.56841">
        <ele>2147.1</ele>
        <time>2026-02-02T08:32:36Z</time>
      </trkpt>
      <trkpt lat="45.95533" lon="6.56841">
        <ele>2147.2</ele>
        <time>2026-02-02T08:32:37Z</time>
      </trkpt>
      <trkpt lat="45.95533" lon="6.56842">
        <ele>2147.2</ele>
        <time>2026-02-02T08:32:38Z</time>
      </trkpt>
      <trkpt lat="45.95533" lon="6.56842">
        <ele>2147.2</ele>
        <time>2026-02-02T08:32:39Z</time>
      </trkpt>
      <trkpt lat="45.95533" lon="6.56842">
        <ele>2147.2</ele>
        <time>2026-02-02T08:32:40Z</time>
      </trkpt>
      <trkpt lat="45.95534" lon="6.56843">
        <ele>2147.2</ele>
        <time>2026-02-02T08:32:41Z</time>
      </trkpt>
      <trkpt lat="45.95534" lon="6.56843">
        <ele>2147.2</ele>
        <time>2026-02-02T08:32:42Z</time>
      </trkpt>
      <trkpt lat="45.95534" lon="6.56844">
        <ele>2147.2</ele>
        <time>2026-02-02T08:32:43Z</time>
      </trkpt>
      <trkpt lat="45.95534" lon="6.56844">
        <ele>2147.2</ele>
        <time>2026-02-02T08:32:44Z</time>
      </trkpt>
      <trkpt lat="45.95534" lon="6.56844">
        <ele>2147.2</ele>
        <time>2026-02-02T08:32:45Z</time>
      </trkpt>
      <trkpt lat="45.95534" lon="6.56845">
        <ele>2147.2</ele>
        <time>2026-02-02T08:32:46Z</time>
      </trkpt>
      <trkpt lat="45.95535" lon="6.56846">
        <ele>2147.7</ele>
        <time>2026-02-02T08:32:47Z</time>
      </trkpt>
      <trkpt lat="45.95535" lon="6.56847">
        <ele>2147.7</ele>
        <time>2026-02-02T08:32:48Z</time>
      </trkpt>
      <trkpt lat="45.95535" lon="6.56849">
        <ele>2147.7</ele>
        <time>2026-02-02T08:32:49Z</time>
      </trkpt>
      <trkpt lat="45.95535" lon="6.5685">
        <ele>2148.2</ele>
        <time>2026-02-02T08:32:50Z</time>
      </trkpt>
      <trkpt lat="45.95535" lon="6.56851">
        <ele>2148.2</ele>
        <time>2026-02-02T08:32:51Z</time>
      </trkpt>
      <trkpt lat="45.95534" lon="6.5685">
        <ele>2148.2</ele>
        <time>2026-02-02T08:32:52Z</time>
      </trkpt>
      <trkpt lat="45.95534" lon="6.5685">
        <ele>2148.2</ele>
        <time>2026-02-02T08:32:53Z</time>
      </trkpt>
      <trkpt lat="45.95534" lon="6.5685">
        <ele>2148.3</ele>
        <time>2026-02-02T08:32:54Z</time>
      </trkpt>
      <trkpt lat="45.95534" lon="6.5685">
        <ele>2148.3</ele>
        <time>2026-02-02T08:32:55Z</time>
      </trkpt>
      <trkpt lat="45.95534" lon="6.56849">
        <ele>2148.3</ele>
        <time>2026-02-02T08:32:56Z</time>
      </trkpt>
      <trkpt lat="45.95534" lon="6.56849">
        <ele>2147.7</ele>
        <time>2026-02-02T08:32:57Z</time>
      </trkpt>
      <trkpt lat="45.95534" lon="6.56849">
        <ele>2147.7</ele>
        <time>2026-02-02T08:32:58Z</time>
      </trkpt>
      <trkpt lat="45.95534" lon="6.56849">
        <ele>2147.7</ele>
        <time>2026-02-02T08:32:59Z</time>
      </trkpt>
      <trkpt lat="45.95534" lon="6.5685">
        <ele>2148.3</ele>
        <time>2026-02-02T08:33:00Z</time>
      </trkpt>
      <trkpt lat="45.95535" lon="6.56851">
        <ele>2148.3</ele>
        <time>2026-02-02T08:33:01Z</time>
      </trkpt>
      <trkpt lat="45.95535" lon="6.56852">
        <ele>2148.3</ele>
        <time>2026-02-02T08:33:02Z</time>
      </trkpt>
      <trkpt lat="45.95536" lon="6.56854">
        <ele>2145.9</ele>
        <time>2026-02-02T08:33:03Z</time>
      </trkpt>
      <trkpt lat="45.95537" lon="6.56855">
        <ele>2146.5</ele>
        <time>2026-02-02T08:33:05Z</time>
      </trkpt>
      <trkpt lat="45.95537" lon="6.56857">
        <ele>2146.5</ele>
        <time>2026-02-02T08:33:06Z</time>
      </trkpt>
      <trkpt lat="45.95538" lon="6.56858">
        <ele>2146.5</ele>
        <time>2026-02-02T08:33:07Z</time>
      </trkpt>
      <trkpt lat="45.95538" lon="6.56859">
        <ele>2147.3</ele>
        <time>2026-02-02T08:33:08Z</time>
      </trkpt>
      <trkpt lat="45.95538" lon="6.5686">
        <ele>2147.3</ele>
        <time>2026-02-02T08:33:09Z</time>
      </trkpt>
      <trkpt lat="45.95538" lon="6.5686">
        <ele>2147.3</ele>
        <time>2026-02-02T08:33:10Z</time>
      </trkpt>
      <trkpt lat="45.95539" lon="6.5686">
        <ele>2147.3</ele>
        <time>2026-02-02T08:33:11Z</time>
      </trkpt>
      <trkpt lat="45.95539" lon="6.56861">
        <ele>2147.3</ele>
        <time>2026-02-02T08:33:12Z</time>
      </trkpt>
      <trkpt lat="45.95539" lon="6.56861">
        <ele>2147.3</ele>
        <time>2026-02-02T08:33:13Z</time>
      </trkpt>
      <trkpt lat="45.95538" lon="6.56862">
        <ele>2147.3</ele>
        <time>2026-02-02T08:33:14Z</time>
      </trkpt>
      <trkpt lat="45.95538" lon="6.56862">
        <ele>2147.3</ele>
        <time>2026-02-02T08:33:15Z</time>
      </trkpt>
      <trkpt lat="45.95538" lon="6.56863">
        <ele>2148.1</ele>
        <time>2026-02-02T08:33:16Z</time>
      </trkpt>
      <trkpt lat="45.95538" lon="6.56863">
        <ele>2148.1</ele>
        <time>2026-02-02T08:33:17Z</time>
      </trkpt>
      <trkpt lat="45.95538" lon="6.56863">
        <ele>2148.1</ele>
        <time>2026-02-02T08:33:18Z</time>
      </trkpt>
      <trkpt lat="45.95538" lon="6.56863">
        <ele>2148.1</ele>
        <time>2026-02-02T08:33:19Z</time>
      </trkpt>
      <trkpt lat="45.95538" lon="6.56864">
        <ele>2148.2</ele>
        <time>2026-02-02T08:33:20Z</time>
      </trkpt>
      <trkpt lat="45.95538" lon="6.56864">
        <ele>2148.2</ele>
        <time>2026-02-02T08:33:21Z</time>
      </trkpt>
      <trkpt lat="45.95538" lon="6.56864">
        <ele>2148.2</ele>
        <time>2026-02-02T08:33:22Z</time>
      </trkpt>
      <trkpt lat="45.95538" lon="6.56864">
        <ele>2148.2</ele>
        <time>2026-02-02T08:33:23Z</time>
      </trkpt>
      <trkpt lat="45.95538" lon="6.56864">
        <ele>2148.2</ele>
        <time>2026-02-02T08:33:24Z</time>
      </trkpt>
      <trkpt lat="45.95538" lon="6.56864">
        <ele>2148.2</ele>
        <time>2026-02-02T08:33:25Z</time>
      </trkpt>
      <trkpt lat="45.95538" lon="6.56864">
        <ele>2148.2</ele>
        <time>2026-02-02T08:33:26Z</time>
      </trkpt>
      <trkpt lat="45.95538" lon="6.56864">
        <ele>2148.2</ele>
        <time>2026-02-02T08:33:27Z</time>
      </trkpt>
      <trkpt lat="45.95538" lon="6.56864">
        <ele>2148.2</ele>
        <time>2026-02-02T08:33:28Z</time>
      </trkpt>
      <trkpt lat="45.95538" lon="6.56864">
        <ele>2148.2</ele>
        <time>2026-02-02T08:33:29Z</time>
      </trkpt>
      <trkpt lat="45.95538" lon="6.56864">
        <ele>2148.2</ele>
        <time>2026-02-02T08:33:30Z</time>
      </trkpt>
      <trkpt lat="45.95538" lon="6.56864">
        <ele>2148.2</ele>
        <time>2026-02-02T08:33:31Z</time>
      </trkpt>
      <trkpt lat="45.95538" lon="6.56864">
        <ele>2148.2</ele>
        <time>2026-02-02T08:33:32Z</time>
      </trkpt>
      <trkpt lat="45.95538" lon="6.56864">
        <ele>2148.2</ele>
        <time>2026-02-02T08:33:33Z</time>
      </trkpt>
      <trkpt lat="45.95538" lon="6.56864">
        <ele>2148.2</ele>
        <time>2026-02-02T08:33:34Z</time>
      </trkpt>
      <trkpt lat="45.95539" lon="6.56864">
        <ele>2148.2</ele>
        <time>2026-02-02T08:33:35Z</time>
      </trkpt>
      <trkpt lat="45.95539" lon="6.56864">
        <ele>2148.2</ele>
        <time>2026-02-02T08:33:36Z</time>
      </trkpt>
      <trkpt lat="45.95539" lon="6.56864">
        <ele>2148.2</ele>
        <time>2026-02-02T08:33:37Z</time>
      </trkpt>
      <trkpt lat="45.95539" lon="6.56864">
        <ele>2148.3</ele>
        <time>2026-02-02T08:33:38Z</time>
      </trkpt>
      <trkpt lat="45.95539" lon="6.56864">
        <ele>2148.3</ele>
        <time>2026-02-02T08:33:39Z</time>
      </trkpt>
      <trkpt lat="45.95539" lon="6.56864">
        <ele>2148.3</ele>
        <time>2026-02-02T08:33:40Z</time>
      </trkpt>
      <trkpt lat="45.95539" lon="6.56864">
        <ele>2148.3</ele>
        <time>2026-02-02T08:33:41Z</time>
      </trkpt>
      <trkpt lat="45.95539" lon="6.56864">
        <ele>2148.3</ele>
        <time>2026-02-02T08:33:42Z</time>
      </trkpt>
      <trkpt lat="45.95539" lon="6.56864">
        <ele>2148.3</ele>
        <time>2026-02-02T08:33:43Z</time>
      </trkpt>
      <trkpt lat="45.95539" lon="6.56864">
        <ele>2148.3</ele>
        <time>2026-02-02T08:33:44Z</time>
      </trkpt>
      <trkpt lat="45.95539" lon="6.56864">
        <ele>2148.3</ele>
        <time>2026-02-02T08:33:45Z</time>
      </trkpt>
      <trkpt lat="45.95539" lon="6.56864">
        <ele>2148.3</ele>
        <time>2026-02-02T08:33:46Z</time>
      </trkpt>
      <trkpt lat="45.95539" lon="6.56864">
        <ele>2148.3</ele>
        <time>2026-02-02T08:33:47Z</time>
      </trkpt>
      <trkpt lat="45.95539" lon="6.56864">
        <ele>2148.3</ele>
        <time>2026-02-02T08:33:48Z</time>
      </trkpt>
      <trkpt lat="45.95539" lon="6.56864">
        <ele>2148.3</ele>
        <time>2026-02-02T08:33:49Z</time>
      </trkpt>
      <trkpt lat="45.95539" lon="6.56864">
        <ele>2148.3</ele>
        <time>2026-02-02T08:33:50Z</time>
      </trkpt>
      <trkpt lat="45.95539" lon="6.56864">
        <ele>2148.3</ele>
        <time>2026-02-02T08:33:51Z</time>
      </trkpt>
      <trkpt lat="45.95539" lon="6.56864">
        <ele>2148.3</ele>
        <time>2026-02-02T08:33:52Z</time>
      </trkpt>
      <trkpt lat="45.95539" lon="6.56864">
        <ele>2148.3</ele>
        <time>2026-02-02T08:33:53Z</time>
      </trkpt>
      <trkpt lat="45.95539" lon="6.56864">
        <ele>2148.3</ele>
        <time>2026-02-02T08:33:54Z</time>
      </trkpt>
      <trkpt lat="45.95539" lon="6.56864">
        <ele>2148.3</ele>
        <time>2026-02-02T08:33:55Z</time>
      </trkpt>
      <trkpt lat="45.95539" lon="6.56864">
        <ele>2148.4</ele>
        <time>2026-02-02T08:33:56Z</time>
      </trkpt>
      <trkpt lat="45.95539" lon="6.56864">
        <ele>2148.4</ele>
        <time>2026-02-02T08:33:57Z</time>
      </trkpt>
      <trkpt lat="45.95539" lon="6.56864">
        <ele>2148.4</ele>
        <time>2026-02-02T08:33:58Z</time>
      </trkpt>
      <trkpt lat="45.95539" lon="6.56864">
        <ele>2148.4</ele>
        <time>2026-02-02T08:33:59Z</time>
      </trkpt>
      <trkpt lat="45.95539" lon="6.56864">
        <ele>2148.4</ele>
        <time>2026-02-02T08:34:00Z</time>
      </trkpt>
      <trkpt lat="45.95539" lon="6.56864">
        <ele>2148.4</ele>
        <time>2026-02-02T08:34:01Z</time>
      </trkpt>
      <trkpt lat="45.95539" lon="6.56864">
        <ele>2148.4</ele>
        <time>2026-02-02T08:34:02Z</time>
      </trkpt>
      <trkpt lat="45.95539" lon="6.56864">
        <ele>2148.4</ele>
        <time>2026-02-02T08:34:03Z</time>
      </trkpt>
      <trkpt lat="45.95539" lon="6.56864">
        <ele>2148.4</ele>
        <time>2026-02-02T08:34:04Z</time>
      </trkpt>
      <trkpt lat="45.95539" lon="6.56864">
        <ele>2148.4</ele>
        <time>2026-02-02T08:34:05Z</time>
      </trkpt>
      <trkpt lat="45.95539" lon="6.56864">
        <ele>2148.4</ele>
        <time>2026-02-02T08:34:06Z</time>
      </trkpt>
      <trkpt lat="45.95539" lon="6.56864">
        <ele>2148.4</ele>
        <time>2026-02-02T08:34:07Z</time>
      </trkpt>
      <trkpt lat="45.95539" lon="6.56864">
        <ele>2148.4</ele>
        <time>2026-02-02T08:34:08Z</time>
      </trkpt>
      <trkpt lat="45.95539" lon="6.56864">
        <ele>2148.4</ele>
        <time>2026-02-02T08:34:09Z</time>
      </trkpt>
      <trkpt lat="45.95539" lon="6.56864">
        <ele>2148.4</ele>
        <time>2026-02-02T08:34:10Z</time>
      </trkpt>
      <trkpt lat="45.95539" lon="6.56864">
        <ele>2146.2</ele>
        <time>2026-02-02T08:34:11Z</time>
      </trkpt>
      <trkpt lat="45.95539" lon="6.56864">
        <ele>2146.2</ele>
        <time>2026-02-02T08:34:12Z</time>
      </trkpt>
      <trkpt lat="45.95539" lon="6.56864">
        <ele>2146.2</ele>
        <time>2026-02-02T08:34:13Z</time>
      </trkpt>
      <trkpt lat="45.95539" lon="6.56864">
        <ele>2146.2</ele>
        <time>2026-02-02T08:34:14Z</time>
      </trkpt>
      <trkpt lat="45.95539" lon="6.56864">
        <ele>2146.2</ele>
        <time>2026-02-02T08:34:15Z</time>
      </trkpt>
      <trkpt lat="45.95539" lon="6.56864">
        <ele>2146.2</ele>
        <time>2026-02-02T08:34:16Z</time>
      </trkpt>
      <trkpt lat="45.95539" lon="6.56864">
        <ele>2146.2</ele>
        <time>2026-02-02T08:34:17Z</time>
      </trkpt>
      <trkpt lat="45.95539" lon="6.56864">
        <ele>2146.2</ele>
        <time>2026-02-02T08:34:18Z</time>
      </trkpt>
      <trkpt lat="45.95539" lon="6.56864">
        <ele>2146.2</ele>
        <time>2026-02-02T08:34:19Z</time>
      </trkpt>
      <trkpt lat="45.95539" lon="6.56864">
        <ele>2146.2</ele>
        <time>2026-02-02T08:34:20Z</time>
      </trkpt>
      <trkpt lat="45.95539" lon="6.56864">
        <ele>2146.2</ele>
        <time>2026-02-02T08:34:21Z</time>
      </trkpt>
      <trkpt lat="45.95539" lon="6.56864">
        <ele>2146.2</ele>
        <time>2026-02-02T08:34:22Z</time>
      </trkpt>
      <trkpt lat="45.95539" lon="6.56864">
        <ele>2146.2</ele>
        <time>2026-02-02T08:34:23Z</time>
      </trkpt>
      <trkpt lat="45.95539" lon="6.56864">
        <ele>2146.2</ele>
        <time>2026-02-02T08:34:24Z</time>
      </trkpt>
      <trkpt lat="45.95539" lon="6.56864">
        <ele>2146.2</ele>
        <time>2026-02-02T08:34:25Z</time>
      </trkpt>
      <trkpt lat="45.95539" lon="6.56864">
        <ele>2146.2</ele>
        <time>2026-02-02T08:34:26Z</time>
      </trkpt>
      <trkpt lat="45.95539" lon="6.56863">
        <ele>2146.2</ele>
        <time>2026-02-02T08:34:27Z</time>
      </trkpt>
      <trkpt lat="45.95539" lon="6.56863">
        <ele>2146.2</ele>
        <time>2026-02-02T08:34:28Z</time>
      </trkpt>
      <trkpt lat="45.95539" lon="6.56863">
        <ele>2146.3</ele>
        <time>2026-02-02T08:34:29Z</time>
      </trkpt>
      <trkpt lat="45.95539" lon="6.56863">
        <ele>2146.3</ele>
        <time>2026-02-02T08:34:30Z</time>
      </trkpt>
      <trkpt lat="45.95539" lon="6.56863">
        <ele>2146.3</ele>
        <time>2026-02-02T08:34:31Z</time>
      </trkpt>
      <trkpt lat="45.95539" lon="6.56863">
        <ele>2146.3</ele>
        <time>2026-02-02T08:34:32Z</time>
      </trkpt>
      <trkpt lat="45.95539" lon="6.56863">
        <ele>2146.3</ele>
        <time>2026-02-02T08:34:33Z</time>
      </trkpt>
      <trkpt lat="45.95539" lon="6.56863">
        <ele>2146.3</ele>
        <time>2026-02-02T08:34:34Z</time>
      </trkpt>
      <trkpt lat="45.95539" lon="6.56863">
        <ele>2146.3</ele>
        <time>2026-02-02T08:34:35Z</time>
      </trkpt>
      <trkpt lat="45.95539" lon="6.56863">
        <ele>2146.3</ele>
        <time>2026-02-02T08:34:36Z</time>
      </trkpt>
      <trkpt lat="45.95539" lon="6.56863">
        <ele>2146.3</ele>
        <time>2026-02-02T08:34:37Z</time>
      </trkpt>
      <trkpt lat="45.95539" lon="6.56863">
        <ele>2146.3</ele>
        <time>2026-02-02T08:34:38Z</time>
      </trkpt>
      <trkpt lat="45.95539" lon="6.56863">
        <ele>2146.3</ele>
        <time>2026-02-02T08:34:39Z</time>
      </trkpt>
      <trkpt lat="45.95539" lon="6.56863">
        <ele>2146.3</ele>
        <time>2026-02-02T08:34:40Z</time>
      </trkpt>
      <trkpt lat="45.95539" lon="6.56863">
        <ele>2146.3</ele>
        <time>2026-02-02T08:34:41Z</time>
      </trkpt>
      <trkpt lat="45.95539" lon="6.56863">
        <ele>2146.3</ele>
        <time>2026-02-02T08:34:42Z</time>
      </trkpt>
      <trkpt lat="45.95539" lon="6.56863">
        <ele>2146.3</ele>
        <time>2026-02-02T08:34:43Z</time>
      </trkpt>
      <trkpt lat="45.95539" lon="6.56863">
        <ele>2146.3</ele>
        <time>2026-02-02T08:34:44Z</time>
      </trkpt>
      <trkpt lat="45.95539" lon="6.56863">
        <ele>2146.3</ele>
        <time>2026-02-02T08:34:45Z</time>
      </trkpt>
      <trkpt lat="45.95539" lon="6.56863">
        <ele>2146.3</ele>
        <time>2026-02-02T08:34:46Z</time>
      </trkpt>
      <trkpt lat="45.95539" lon="6.56863">
        <ele>2146.4</ele>
        <time>2026-02-02T08:34:47Z</time>
      </trkpt>
      <trkpt lat="45.95539" lon="6.56863">
        <ele>2146.4</ele>
        <time>2026-02-02T08:34:48Z</time>
      </trkpt>
      <trkpt lat="45.95539" lon="6.56863">
        <ele>2146.4</ele>
        <time>2026-02-02T08:34:49Z</time>
      </trkpt>
      <trkpt lat="45.95539" lon="6.56863">
        <ele>2146.4</ele>
        <time>2026-02-02T08:34:50Z</time>
      </trkpt>
      <trkpt lat="45.95539" lon="6.56863">
        <ele>2146.4</ele>
        <time>2026-02-02T08:34:51Z</time>
      </trkpt>
      <trkpt lat="45.95539" lon="6.56863">
        <ele>2146.4</ele>
        <time>2026-02-02T08:34:52Z</time>
      </trkpt>
      <trkpt lat="45.95539" lon="6.56863">
        <ele>2146.4</ele>
        <time>2026-02-02T08:34:53Z</time>
      </trkpt>
      <trkpt lat="45.95539" lon="6.56861">
        <ele>2145.6</ele>
        <time>2026-02-02T08:34:54Z</time>
      </trkpt>
      <trkpt lat="45.95539" lon="6.56861">
        <ele>2145.6</ele>
        <time>2026-02-02T08:34:55Z</time>
      </trkpt>
      <trkpt lat="45.95539" lon="6.56861">
        <ele>2145.6</ele>
        <time>2026-02-02T08:34:56Z</time>
      </trkpt>
      <trkpt lat="45.95539" lon="6.56861">
        <ele>2145.6</ele>
        <time>2026-02-02T08:34:57Z</time>
      </trkpt>
      <trkpt lat="45.95539" lon="6.56861">
        <ele>2145.6</ele>
        <time>2026-02-02T08:34:58Z</time>
      </trkpt>
      <trkpt lat="45.95539" lon="6.56861">
        <ele>2145.6</ele>
        <time>2026-02-02T08:34:59Z</time>
      </trkpt>
      <trkpt lat="45.95539" lon="6.5686">
        <ele>2145.6</ele>
        <time>2026-02-02T08:35:00Z</time>
      </trkpt>
      <trkpt lat="45.95539" lon="6.56859">
        <ele>2147.9</ele>
        <time>2026-02-02T08:35:01Z</time>
      </trkpt>
      <trkpt lat="45.95538" lon="6.5686">
        <ele>2147.9</ele>
        <time>2026-02-02T08:35:02Z</time>
      </trkpt>
      <trkpt lat="45.95539" lon="6.5686">
        <ele>2145.7</ele>
        <time>2026-02-02T08:35:03Z</time>
      </trkpt>
      <trkpt lat="45.95539" lon="6.5686">
        <ele>2145.7</ele>
        <time>2026-02-02T08:35:04Z</time>
      </trkpt>
      <trkpt lat="45.95539" lon="6.5686">
        <ele>2145.7</ele>
        <time>2026-02-02T08:35:05Z</time>
      </trkpt>
      <trkpt lat="45.95539" lon="6.5686">
        <ele>2145.7</ele>
        <time>2026-02-02T08:35:06Z</time>
      </trkpt>
      <trkpt lat="45.95539" lon="6.5686">
        <ele>2145.7</ele>
        <time>2026-02-02T08:35:07Z</time>
      </trkpt>
      <trkpt lat="45.95539" lon="6.5686">
        <ele>2145.7</ele>
        <time>2026-02-02T08:35:08Z</time>
      </trkpt>
      <trkpt lat="45.95538" lon="6.56858">
        <ele>2148</ele>
        <time>2026-02-02T08:35:09Z</time>
      </trkpt>
      <trkpt lat="45.95538" lon="6.56859">
        <ele>2148</ele>
        <time>2026-02-02T08:35:10Z</time>
      </trkpt>
      <trkpt lat="45.95538" lon="6.56859">
        <ele>2148</ele>
        <time>2026-02-02T08:35:11Z</time>
      </trkpt>
      <trkpt lat="45.95539" lon="6.5686">
        <ele>2145.7</ele>
        <time>2026-02-02T08:35:12Z</time>
      </trkpt>
      <trkpt lat="45.95539" lon="6.5686">
        <ele>2145.7</ele>
        <time>2026-02-02T08:35:13Z</time>
      </trkpt>
      <trkpt lat="45.95538" lon="6.56859">
        <ele>2148</ele>
        <time>2026-02-02T08:35:14Z</time>
      </trkpt>
      <trkpt lat="45.95538" lon="6.56859">
        <ele>2148</ele>
        <time>2026-02-02T08:35:15Z</time>
      </trkpt>
      <trkpt lat="45.95538" lon="6.56859">
        <ele>2148</ele>
        <time>2026-02-02T08:35:16Z</time>
      </trkpt>
      <trkpt lat="45.95538" lon="6.5686">
        <ele>2148</ele>
        <time>2026-02-02T08:35:17Z</time>
      </trkpt>
      <trkpt lat="45.95538" lon="6.5686">
        <ele>2148</ele>
        <time>2026-02-02T08:35:18Z</time>
      </trkpt>
      <trkpt lat="45.95539" lon="6.56859">
        <ele>2148</ele>
        <time>2026-02-02T08:35:19Z</time>
      </trkpt>
      <trkpt lat="45.95539" lon="6.56859">
        <ele>2145.8</ele>
        <time>2026-02-02T08:35:20Z</time>
      </trkpt>
      <trkpt lat="45.95539" lon="6.5686">
        <ele>2145.8</ele>
        <time>2026-02-02T08:35:21Z</time>
      </trkpt>
      <trkpt lat="45.95539" lon="6.5686">
        <ele>2145.8</ele>
        <time>2026-02-02T08:35:22Z</time>
      </trkpt>
      <trkpt lat="45.95539" lon="6.5686">
        <ele>2145.8</ele>
        <time>2026-02-02T08:35:23Z</time>
      </trkpt>
      <trkpt lat="45.95539" lon="6.5686">
        <ele>2145.8</ele>
        <time>2026-02-02T08:35:24Z</time>
      </trkpt>
      <trkpt lat="45.95539" lon="6.5686">
        <ele>2145.8</ele>
        <time>2026-02-02T08:35:25Z</time>
      </trkpt>
      <trkpt lat="45.95539" lon="6.5686">
        <ele>2145.8</ele>
        <time>2026-02-02T08:35:26Z</time>
      </trkpt>
      <trkpt lat="45.95539" lon="6.5686">
        <ele>2145.8</ele>
        <time>2026-02-02T08:35:27Z</time>
      </trkpt>
      <trkpt lat="45.95539" lon="6.5686">
        <ele>2145.8</ele>
        <time>2026-02-02T08:35:28Z</time>
      </trkpt>
      <trkpt lat="45.95539" lon="6.5686">
        <ele>2145.8</ele>
        <time>2026-02-02T08:35:29Z</time>
      </trkpt>
      <trkpt lat="45.95539" lon="6.5686">
        <ele>2145.8</ele>
        <time>2026-02-02T08:35:30Z</time>
      </trkpt>
      <trkpt lat="45.95539" lon="6.5686">
        <ele>2145.8</ele>
        <time>2026-02-02T08:35:31Z</time>
      </trkpt>
      <trkpt lat="45.95539" lon="6.5686">
        <ele>2145.8</ele>
        <time>2026-02-02T08:35:32Z</time>
      </trkpt>
      <trkpt lat="45.95539" lon="6.5686">
        <ele>2145.8</ele>
        <time>2026-02-02T08:35:33Z</time>
      </trkpt>
      <trkpt lat="45.95539" lon="6.5686">
        <ele>2145.8</ele>
        <time>2026-02-02T08:35:34Z</time>
      </trkpt>
      <trkpt lat="45.95539" lon="6.5686">
        <ele>2145.8</ele>
        <time>2026-02-02T08:35:35Z</time>
      </trkpt>
      <trkpt lat="45.95539" lon="6.5686">
        <ele>2145.8</ele>
        <time>2026-02-02T08:35:36Z</time>
      </trkpt>
      <trkpt lat="45.95539" lon="6.5686">
        <ele>2145.8</ele>
        <time>2026-02-02T08:35:37Z</time>
      </trkpt>
      <trkpt lat="45.95539" lon="6.5686">
        <ele>2145.9</ele>
        <time>2026-02-02T08:35:38Z</time>
      </trkpt>
      <trkpt lat="45.95539" lon="6.5686">
        <ele>2145.9</ele>
        <time>2026-02-02T08:35:39Z</time>
      </trkpt>
      <trkpt lat="45.95539" lon="6.5686">
        <ele>2145.9</ele>
        <time>2026-02-02T08:35:40Z</time>
      </trkpt>
      <trkpt lat="45.95539" lon="6.5686">
        <ele>2145.9</ele>
        <time>2026-02-02T08:35:41Z</time>
      </trkpt>
      <trkpt lat="45.95539" lon="6.5686">
        <ele>2145.9</ele>
        <time>2026-02-02T08:35:42Z</time>
      </trkpt>
      <trkpt lat="45.95539" lon="6.5686">
        <ele>2145.9</ele>
        <time>2026-02-02T08:35:43Z</time>
      </trkpt>
      <trkpt lat="45.95539" lon="6.5686">
        <ele>2145.9</ele>
        <time>2026-02-02T08:35:44Z</time>
      </trkpt>
      <trkpt lat="45.95539" lon="6.5686">
        <ele>2145.9</ele>
        <time>2026-02-02T08:35:45Z</time>
      </trkpt>
      <trkpt lat="45.95539" lon="6.5686">
        <ele>2145.9</ele>
        <time>2026-02-02T08:35:46Z</time>
      </trkpt>
      <trkpt lat="45.95539" lon="6.5686">
        <ele>2145.9</ele>
        <time>2026-02-02T08:35:47Z</time>
      </trkpt>
      <trkpt lat="45.95539" lon="6.5686">
        <ele>2145.9</ele>
        <time>2026-02-02T08:35:48Z</time>
      </trkpt>
      <trkpt lat="45.95539" lon="6.5686">
        <ele>2145.9</ele>
        <time>2026-02-02T08:35:49Z</time>
      </trkpt>
      <trkpt lat="45.95539" lon="6.5686">
        <ele>2145.9</ele>
        <time>2026-02-02T08:35:50Z</time>
      </trkpt>
      <trkpt lat="45.95539" lon="6.5686">
        <ele>2145.9</ele>
        <time>2026-02-02T08:35:51Z</time>
      </trkpt>
      <trkpt lat="45.95539" lon="6.5686">
        <ele>2145.9</ele>
        <time>2026-02-02T08:35:52Z</time>
      </trkpt>
      <trkpt lat="45.95539" lon="6.5686">
        <ele>2145.9</ele>
        <time>2026-02-02T08:35:53Z</time>
      </trkpt>
      <trkpt lat="45.95539" lon="6.5686">
        <ele>2145.9</ele>
        <time>2026-02-02T08:35:54Z</time>
      </trkpt>
      <trkpt lat="45.95539" lon="6.5686">
        <ele>2145.9</ele>
        <time>2026-02-02T08:35:55Z</time>
      </trkpt>
      <trkpt lat="45.95539" lon="6.5686">
        <ele>2146</ele>
        <time>2026-02-02T08:35:56Z</time>
      </trkpt>
      <trkpt lat="45.95539" lon="6.5686">
        <ele>2146</ele>
        <time>2026-02-02T08:35:57Z</time>
      </trkpt>
      <trkpt lat="45.95539" lon="6.5686">
        <ele>2146</ele>
        <time>2026-02-02T08:35:58Z</time>
      </trkpt>
      <trkpt lat="45.95539" lon="6.5686">
        <ele>2146</ele>
        <time>2026-02-02T08:35:59Z</time>
      </trkpt>
      <trkpt lat="45.95539" lon="6.5686">
        <ele>2146</ele>
        <time>2026-02-02T08:36:00Z</time>
      </trkpt>
      <trkpt lat="45.95539" lon="6.5686">
        <ele>2146</ele>
        <time>2026-02-02T08:36:01Z</time>
      </trkpt>
      <trkpt lat="45.95539" lon="6.56861">
        <ele>2146</ele>
        <time>2026-02-02T08:36:02Z</time>
      </trkpt>
      <trkpt lat="45.95538" lon="6.5686">
        <ele>2148.3</ele>
        <time>2026-02-02T08:36:03Z</time>
      </trkpt>
      <trkpt lat="45.95537" lon="6.56859">
        <ele>2148.3</ele>
        <time>2026-02-02T08:36:04Z</time>
      </trkpt>
      <trkpt lat="45.95537" lon="6.56858">
        <ele>2148.3</ele>
        <time>2026-02-02T08:36:05Z</time>
      </trkpt>
      <trkpt lat="45.95536" lon="6.56858">
        <ele>2147.6</ele>
        <time>2026-02-02T08:36:06Z</time>
      </trkpt>
      <trkpt lat="45.95535" lon="6.56857">
        <ele>2150</ele>
        <time>2026-02-02T08:36:07Z</time>
      </trkpt>
      <trkpt lat="45.95534" lon="6.56856">
        <ele>2150</ele>
        <time>2026-02-02T08:36:08Z</time>
      </trkpt>
      <trkpt lat="45.95534" lon="6.56856">
        <ele>2150</ele>
        <time>2026-02-02T08:36:09Z</time>
      </trkpt>
      <trkpt lat="45.95534" lon="6.56857">
        <ele>2150</ele>
        <time>2026-02-02T08:36:10Z</time>
      </trkpt>
      <trkpt lat="45.95532" lon="6.56858">
        <ele>2152.5</ele>
        <time>2026-02-02T08:36:11Z</time>
      </trkpt>
      <trkpt lat="45.9553" lon="6.56857">
        <ele>2152.5</ele>
        <time>2026-02-02T08:36:12Z</time>
      </trkpt>
      <trkpt lat="45.95529" lon="6.56857">
        <ele>2155.1</ele>
        <time>2026-02-02T08:36:13Z</time>
      </trkpt>
      <trkpt lat="45.95527" lon="6.56857">
        <ele>2155.1</ele>
        <time>2026-02-02T08:36:15Z</time>
      </trkpt>
      <trkpt lat="45.95526" lon="6.56857">
        <ele>2157.6</ele>
        <time>2026-02-02T08:36:16Z</time>
      </trkpt>
      <trkpt lat="45.95525" lon="6.56857">
        <ele>2157.6</ele>
        <time>2026-02-02T08:36:17Z</time>
      </trkpt>
      <trkpt lat="45.95524" lon="6.56857">
        <ele>2157.6</ele>
        <time>2026-02-02T08:36:18Z</time>
      </trkpt>
      <trkpt lat="45.95523" lon="6.56856">
        <ele>2160.1</ele>
        <time>2026-02-02T08:36:19Z</time>
      </trkpt>
      <trkpt lat="45.95523" lon="6.56856">
        <ele>2160.2</ele>
        <time>2026-02-02T08:36:20Z</time>
      </trkpt>
      <trkpt lat="45.95522" lon="6.56856">
        <ele>2160.2</ele>
        <time>2026-02-02T08:36:21Z</time>
      </trkpt>
      <trkpt lat="45.95522" lon="6.56856">
        <ele>2160.2</ele>
        <time>2026-02-02T08:36:22Z</time>
      </trkpt>
      <trkpt lat="45.95521" lon="6.56855">
        <ele>2160.2</ele>
        <time>2026-02-02T08:36:23Z</time>
      </trkpt>
      <trkpt lat="45.95521" lon="6.56855">
        <ele>2160.2</ele>
        <time>2026-02-02T08:36:24Z</time>
      </trkpt>
      <trkpt lat="45.95521" lon="6.56856">
        <ele>2160.2</ele>
        <time>2026-02-02T08:36:25Z</time>
      </trkpt>
      <trkpt lat="45.95521" lon="6.56856">
        <ele>2160.2</ele>
        <time>2026-02-02T08:36:26Z</time>
      </trkpt>
      <trkpt lat="45.95521" lon="6.56855">
        <ele>2160.2</ele>
        <time>2026-02-02T08:36:27Z</time>
      </trkpt>
      <trkpt lat="45.9552" lon="6.56855">
        <ele>2162.7</ele>
        <time>2026-02-02T08:36:28Z</time>
      </trkpt>
      <trkpt lat="45.9552" lon="6.56855">
        <ele>2162.7</ele>
        <time>2026-02-02T08:36:29Z</time>
      </trkpt>
      <trkpt lat="45.95519" lon="6.56855">
        <ele>2162.7</ele>
        <time>2026-02-02T08:36:30Z</time>
      </trkpt>
      <trkpt lat="45.95518" lon="6.56855">
        <ele>2165.1</ele>
        <time>2026-02-02T08:36:31Z</time>
      </trkpt>
      <trkpt lat="45.95517" lon="6.56855">
        <ele>2165.1</ele>
        <time>2026-02-02T08:36:32Z</time>
      </trkpt>
      <trkpt lat="45.95516" lon="6.56854">
        <ele>2165.1</ele>
        <time>2026-02-02T08:36:33Z</time>
      </trkpt>
      <trkpt lat="45.95515" lon="6.56854">
        <ele>2164.3</ele>
        <time>2026-02-02T08:36:34Z</time>
      </trkpt>
      <trkpt lat="45.95515" lon="6.56853">
        <ele>2166.6</ele>
        <time>2026-02-02T08:36:35Z</time>
      </trkpt>
      <trkpt lat="45.95513" lon="6.56852">
        <ele>2166.6</ele>
        <time>2026-02-02T08:36:36Z</time>
      </trkpt>
      <trkpt lat="45.95513" lon="6.56852">
        <ele>2166.6</ele>
        <time>2026-02-02T08:36:37Z</time>
      </trkpt>
      <trkpt lat="45.95512" lon="6.56851">
        <ele>2166.7</ele>
        <time>2026-02-02T08:36:38Z</time>
      </trkpt>
      <trkpt lat="45.95511" lon="6.56851">
        <ele>2169</ele>
        <time>2026-02-02T08:36:39Z</time>
      </trkpt>
      <trkpt lat="45.95511" lon="6.5685">
        <ele>2169</ele>
        <time>2026-02-02T08:36:40Z</time>
      </trkpt>
      <trkpt lat="45.9551" lon="6.56849">
        <ele>2169</ele>
        <time>2026-02-02T08:36:41Z</time>
      </trkpt>
      <trkpt lat="45.95509" lon="6.56849">
        <ele>2168.2</ele>
        <time>2026-02-02T08:36:42Z</time>
      </trkpt>
      <trkpt lat="45.95509" lon="6.56848">
        <ele>2170.5</ele>
        <time>2026-02-02T08:36:43Z</time>
      </trkpt>
      <trkpt lat="45.95508" lon="6.56847">
        <ele>2170.5</ele>
        <time>2026-02-02T08:36:44Z</time>
      </trkpt>
      <trkpt lat="45.95507" lon="6.56846">
        <ele>2170.5</ele>
        <time>2026-02-02T08:36:45Z</time>
      </trkpt>
      <trkpt lat="45.95507" lon="6.56846">
        <ele>2170.5</ele>
        <time>2026-02-02T08:36:46Z</time>
      </trkpt>
      <trkpt lat="45.95508" lon="6.56847">
        <ele>2170.5</ele>
        <time>2026-02-02T08:36:47Z</time>
      </trkpt>
      <trkpt lat="45.95508" lon="6.56847">
        <ele>2170.5</ele>
        <time>2026-02-02T08:36:48Z</time>
      </trkpt>
      <trkpt lat="45.95508" lon="6.56847">
        <ele>2170.5</ele>
        <time>2026-02-02T08:36:49Z</time>
      </trkpt>
      <trkpt lat="45.95508" lon="6.56847">
        <ele>2170.5</ele>
        <time>2026-02-02T08:36:50Z</time>
      </trkpt>
      <trkpt lat="45.95508" lon="6.56847">
        <ele>2170.5</ele>
        <time>2026-02-02T08:36:51Z</time>
      </trkpt>
      <trkpt lat="45.95508" lon="6.56847">
        <ele>2170.5</ele>
        <time>2026-02-02T08:36:52Z</time>
      </trkpt>
      <trkpt lat="45.95508" lon="6.56847">
        <ele>2170.5</ele>
        <time>2026-02-02T08:36:53Z</time>
      </trkpt>
      <trkpt lat="45.95508" lon="6.56847">
        <ele>2170.5</ele>
        <time>2026-02-02T08:36:54Z</time>
      </trkpt>
      <trkpt lat="45.95508" lon="6.56847">
        <ele>2170.5</ele>
        <time>2026-02-02T08:36:55Z</time>
      </trkpt>
      <trkpt lat="45.95508" lon="6.56847">
        <ele>2170.5</ele>
        <time>2026-02-02T08:36:56Z</time>
      </trkpt>
      <trkpt lat="45.95507" lon="6.56847">
        <ele>2170.5</ele>
        <time>2026-02-02T08:36:57Z</time>
      </trkpt>
      <trkpt lat="45.95507" lon="6.56847">
        <ele>2170.5</ele>
        <time>2026-02-02T08:36:58Z</time>
      </trkpt>
      <trkpt lat="45.95506" lon="6.56846">
        <ele>2170.5</ele>
        <time>2026-02-02T08:36:59Z</time>
      </trkpt>
      <trkpt lat="45.95505" lon="6.56846">
        <ele>2172.9</ele>
        <time>2026-02-02T08:37:00Z</time>
      </trkpt>
      <trkpt lat="45.95504" lon="6.56845">
        <ele>2172.1</ele>
        <time>2026-02-02T08:37:01Z</time>
      </trkpt>
      <trkpt lat="45.95503" lon="6.56844">
        <ele>2172.1</ele>
        <time>2026-02-02T08:37:02Z</time>
      </trkpt>
      <trkpt lat="45.95502" lon="6.56843">
        <ele>2174.4</ele>
        <time>2026-02-02T08:37:03Z</time>
      </trkpt>
      <trkpt lat="45.95502" lon="6.56842">
        <ele>2174.5</ele>
        <time>2026-02-02T08:37:04Z</time>
      </trkpt>
      <trkpt lat="45.95501" lon="6.56841">
        <ele>2174.5</ele>
        <time>2026-02-02T08:37:05Z</time>
      </trkpt>
      <trkpt lat="45.955" lon="6.5684">
        <ele>2173.6</ele>
        <time>2026-02-02T08:37:06Z</time>
      </trkpt>
      <trkpt lat="45.955" lon="6.56839">
        <ele>2173.6</ele>
        <time>2026-02-02T08:37:07Z</time>
      </trkpt>
      <trkpt lat="45.95499" lon="6.56838">
        <ele>2176</ele>
        <time>2026-02-02T08:37:08Z</time>
      </trkpt>
      <trkpt lat="45.95499" lon="6.56838">
        <ele>2176</ele>
        <time>2026-02-02T08:37:09Z</time>
      </trkpt>
      <trkpt lat="45.95499" lon="6.56837">
        <ele>2176</ele>
        <time>2026-02-02T08:37:10Z</time>
      </trkpt>
      <trkpt lat="45.95498" lon="6.56836">
        <ele>2175.1</ele>
        <time>2026-02-02T08:37:11Z</time>
      </trkpt>
      <trkpt lat="45.95497" lon="6.56834">
        <ele>2175.1</ele>
        <time>2026-02-02T08:37:12Z</time>
      </trkpt>
      <trkpt lat="45.95497" lon="6.56833">
        <ele>2175.1</ele>
        <time>2026-02-02T08:37:13Z</time>
      </trkpt>
      <trkpt lat="45.95497" lon="6.56832">
        <ele>2176.5</ele>
        <time>2026-02-02T08:37:14Z</time>
      </trkpt>
      <trkpt lat="45.95497" lon="6.56832">
        <ele>2176.5</ele>
        <time>2026-02-02T08:37:15Z</time>
      </trkpt>
      <trkpt lat="45.95496" lon="6.5683">
        <ele>2176.5</ele>
        <time>2026-02-02T08:37:16Z</time>
      </trkpt>
      <trkpt lat="45.95496" lon="6.56829">
        <ele>2176.5</ele>
        <time>2026-02-02T08:37:17Z</time>
      </trkpt>
      <trkpt lat="45.95496" lon="6.56829">
        <ele>2176.5</ele>
        <time>2026-02-02T08:37:19Z</time>
      </trkpt>
      <trkpt lat="45.95495" lon="6.56828">
        <ele>2175.5</ele>
        <time>2026-02-02T08:37:20Z</time>
      </trkpt>
      <trkpt lat="45.95494" lon="6.56827">
        <ele>2175.5</ele>
        <time>2026-02-02T08:37:21Z</time>
      </trkpt>
      <trkpt lat="45.95494" lon="6.56827">
        <ele>2175.5</ele>
        <time>2026-02-02T08:37:22Z</time>
      </trkpt>
      <trkpt lat="45.95493" lon="6.56826">
        <ele>2177.7</ele>
        <time>2026-02-02T08:37:23Z</time>
      </trkpt>
      <trkpt lat="45.95493" lon="6.56825">
        <ele>2177.7</ele>
        <time>2026-02-02T08:37:24Z</time>
      </trkpt>
      <trkpt lat="45.95492" lon="6.56824">
        <ele>2177.7</ele>
        <time>2026-02-02T08:37:25Z</time>
      </trkpt>
      <trkpt lat="45.95491" lon="6.56823">
        <ele>2176.7</ele>
        <time>2026-02-02T08:37:26Z</time>
      </trkpt>
      <trkpt lat="45.95491" lon="6.56822">
        <ele>2178.7</ele>
        <time>2026-02-02T08:37:27Z</time>
      </trkpt>
      <trkpt lat="45.95491" lon="6.56822">
        <ele>2178.7</ele>
        <time>2026-02-02T08:37:28Z</time>
      </trkpt>
      <trkpt lat="45.9549" lon="6.56821">
        <ele>2178.7</ele>
        <time>2026-02-02T08:37:29Z</time>
      </trkpt>
      <trkpt lat="45.9549" lon="6.56821">
        <ele>2178.7</ele>
        <time>2026-02-02T08:37:30Z</time>
      </trkpt>
      <trkpt lat="45.9549" lon="6.56821">
        <ele>2178.7</ele>
        <time>2026-02-02T08:37:31Z</time>
      </trkpt>
      <trkpt lat="45.9549" lon="6.56821">
        <ele>2178.7</ele>
        <time>2026-02-02T08:37:32Z</time>
      </trkpt>
      <trkpt lat="45.9549" lon="6.5682">
        <ele>2178.7</ele>
        <time>2026-02-02T08:37:33Z</time>
      </trkpt>
      <trkpt lat="45.95489" lon="6.56819">
        <ele>2178.7</ele>
        <time>2026-02-02T08:37:34Z</time>
      </trkpt>
      <trkpt lat="45.95489" lon="6.56819">
        <ele>2177.6</ele>
        <time>2026-02-02T08:37:35Z</time>
      </trkpt>
      <trkpt lat="45.95488" lon="6.56818">
        <ele>2177.6</ele>
        <time>2026-02-02T08:37:36Z</time>
      </trkpt>
      <trkpt lat="45.95488" lon="6.56817">
        <ele>2177.6</ele>
        <time>2026-02-02T08:37:37Z</time>
      </trkpt>
      <trkpt lat="45.95488" lon="6.56817">
        <ele>2177.6</ele>
        <time>2026-02-02T08:37:38Z</time>
      </trkpt>
      <trkpt lat="45.95488" lon="6.56817">
        <ele>2177.6</ele>
        <time>2026-02-02T08:37:39Z</time>
      </trkpt>
      <trkpt lat="45.95488" lon="6.56816">
        <ele>2177.6</ele>
        <time>2026-02-02T08:37:40Z</time>
      </trkpt>
      <trkpt lat="45.95488" lon="6.56816">
        <ele>2177.7</ele>
        <time>2026-02-02T08:37:41Z</time>
      </trkpt>
      <trkpt lat="45.95488" lon="6.56816">
        <ele>2177.7</ele>
        <time>2026-02-02T08:37:42Z</time>
      </trkpt>
      <trkpt lat="45.95488" lon="6.56816">
        <ele>2177.7</ele>
        <time>2026-02-02T08:37:43Z</time>
      </trkpt>
      <trkpt lat="45.95488" lon="6.56816">
        <ele>2177.7</ele>
        <time>2026-02-02T08:37:44Z</time>
      </trkpt>
      <trkpt lat="45.95488" lon="6.56815">
        <ele>2176.5</ele>
        <time>2026-02-02T08:37:45Z</time>
      </trkpt>
      <trkpt lat="45.95488" lon="6.56814">
        <ele>2178.4</ele>
        <time>2026-02-02T08:37:46Z</time>
      </trkpt>
      <trkpt lat="45.95488" lon="6.56814">
        <ele>2178.4</ele>
        <time>2026-02-02T08:37:47Z</time>
      </trkpt>
      <trkpt lat="45.95487" lon="6.56813">
        <ele>2178.4</ele>
        <time>2026-02-02T08:37:48Z</time>
      </trkpt>
      <trkpt lat="45.95487" lon="6.56811">
        <ele>2178.4</ele>
        <time>2026-02-02T08:37:49Z</time>
      </trkpt>
      <trkpt lat="45.95486" lon="6.56811">
        <ele>2177.3</ele>
        <time>2026-02-02T08:37:50Z</time>
      </trkpt>
      <trkpt lat="45.95486" lon="6.56809">
        <ele>2177.3</ele>
        <time>2026-02-02T08:37:51Z</time>
      </trkpt>
      <trkpt lat="45.95485" lon="6.56808">
        <ele>2177.3</ele>
        <time>2026-02-02T08:37:52Z</time>
      </trkpt>
      <trkpt lat="45.95485" lon="6.56808">
        <ele>2179.2</ele>
        <time>2026-02-02T08:37:53Z</time>
      </trkpt>
      <trkpt lat="45.95484" lon="6.56807">
        <ele>2179.2</ele>
        <time>2026-02-02T08:37:54Z</time>
      </trkpt>
      <trkpt lat="45.95484" lon="6.56806">
        <ele>2178.1</ele>
        <time>2026-02-02T08:37:55Z</time>
      </trkpt>
      <trkpt lat="45.95483" lon="6.56806">
        <ele>2178.1</ele>
        <time>2026-02-02T08:37:56Z</time>
      </trkpt>
      <trkpt lat="45.95482" lon="6.56804">
        <ele>2178.1</ele>
        <time>2026-02-02T08:37:57Z</time>
      </trkpt>
      <trkpt lat="45.95482" lon="6.56803">
        <ele>2178.1</ele>
        <time>2026-02-02T08:37:58Z</time>
      </trkpt>
      <trkpt lat="45.95482" lon="6.56802">
        <ele>2180</ele>
        <time>2026-02-02T08:37:59Z</time>
      </trkpt>
      <trkpt lat="45.95481" lon="6.56801">
        <ele>2178.9</ele>
        <time>2026-02-02T08:38:00Z</time>
      </trkpt>
      <trkpt lat="45.95481" lon="6.56799">
        <ele>2178.9</ele>
        <time>2026-02-02T08:38:01Z</time>
      </trkpt>
      <trkpt lat="45.95481" lon="6.56798">
        <ele>2178.9</ele>
        <time>2026-02-02T08:38:03Z</time>
      </trkpt>
      <trkpt lat="45.95481" lon="6.56797">
        <ele>2177.8</ele>
        <time>2026-02-02T08:38:04Z</time>
      </trkpt>
      <trkpt lat="45.95481" lon="6.56796">
        <ele>2177.8</ele>
        <time>2026-02-02T08:38:05Z</time>
      </trkpt>
      <trkpt lat="45.9548" lon="6.56796">
        <ele>2177.8</ele>
        <time>2026-02-02T08:38:06Z</time>
      </trkpt>
      <trkpt lat="45.9548" lon="6.56795">
        <ele>2177.8</ele>
        <time>2026-02-02T08:38:07Z</time>
      </trkpt>
      <trkpt lat="45.9548" lon="6.56796">
        <ele>2177.8</ele>
        <time>2026-02-02T08:38:08Z</time>
      </trkpt>
      <trkpt lat="45.9548" lon="6.56795">
        <ele>2177.8</ele>
        <time>2026-02-02T08:38:09Z</time>
      </trkpt>
      <trkpt lat="45.9548" lon="6.56795">
        <ele>2177.8</ele>
        <time>2026-02-02T08:38:10Z</time>
      </trkpt>
      <trkpt lat="45.9548" lon="6.56794">
        <ele>2177.8</ele>
        <time>2026-02-02T08:38:11Z</time>
      </trkpt>
      <trkpt lat="45.9548" lon="6.56793">
        <ele>2176.7</ele>
        <time>2026-02-02T08:38:12Z</time>
      </trkpt>
      <trkpt lat="45.9548" lon="6.56793">
        <ele>2176.7</ele>
        <time>2026-02-02T08:38:13Z</time>
      </trkpt>
      <trkpt lat="45.95479" lon="6.56792">
        <ele>2176.7</ele>
        <time>2026-02-02T08:38:14Z</time>
      </trkpt>
      <trkpt lat="45.95479" lon="6.56791">
        <ele>2178.8</ele>
        <time>2026-02-02T08:38:15Z</time>
      </trkpt>
      <trkpt lat="45.95478" lon="6.56788">
        <ele>2177.6</ele>
        <time>2026-02-02T08:38:17Z</time>
      </trkpt>
      <trkpt lat="45.95477" lon="6.56787">
        <ele>2177.6</ele>
        <time>2026-02-02T08:38:18Z</time>
      </trkpt>
      <trkpt lat="45.95477" lon="6.56786">
        <ele>2177.6</ele>
        <time>2026-02-02T08:38:19Z</time>
      </trkpt>
      <trkpt lat="45.95477" lon="6.56786">
        <ele>2177.6</ele>
        <time>2026-02-02T08:38:20Z</time>
      </trkpt>
      <trkpt lat="45.95477" lon="6.56785">
        <ele>2176.2</ele>
        <time>2026-02-02T08:38:21Z</time>
      </trkpt>
      <trkpt lat="45.95477" lon="6.56785">
        <ele>2176.2</ele>
        <time>2026-02-02T08:38:22Z</time>
      </trkpt>
      <trkpt lat="45.95477" lon="6.56784">
        <ele>2176.3</ele>
        <time>2026-02-02T08:38:23Z</time>
      </trkpt>
      <trkpt lat="45.95476" lon="6.56783">
        <ele>2176.3</ele>
        <time>2026-02-02T08:38:24Z</time>
      </trkpt>
      <trkpt lat="45.95476" lon="6.56783">
        <ele>2178.6</ele>
        <time>2026-02-02T08:38:25Z</time>
      </trkpt>
      <trkpt lat="45.95475" lon="6.56782">
        <ele>2178.6</ele>
        <time>2026-02-02T08:38:26Z</time>
      </trkpt>
      <trkpt lat="45.95475" lon="6.56781">
        <ele>2178.6</ele>
        <time>2026-02-02T08:38:27Z</time>
      </trkpt>
      <trkpt lat="45.95474" lon="6.5678">
        <ele>2177.2</ele>
        <time>2026-02-02T08:38:28Z</time>
      </trkpt>
      <trkpt lat="45.95472" lon="6.56778">
        <ele>2179.6</ele>
        <time>2026-02-02T08:38:29Z</time>
      </trkpt>
      <trkpt lat="45.95472" lon="6.56778">
        <ele>2179.6</ele>
        <time>2026-02-02T08:38:30Z</time>
      </trkpt>
      <trkpt lat="45.95471" lon="6.56777">
        <ele>2179.6</ele>
        <time>2026-02-02T08:38:31Z</time>
      </trkpt>
      <trkpt lat="45.95471" lon="6.56776">
        <ele>2178.2</ele>
        <time>2026-02-02T08:38:32Z</time>
      </trkpt>
      <trkpt lat="45.9547" lon="6.56776">
        <ele>2178.2</ele>
        <time>2026-02-02T08:38:33Z</time>
      </trkpt>
      <trkpt lat="45.9547" lon="6.56775">
        <ele>2180.6</ele>
        <time>2026-02-02T08:38:34Z</time>
      </trkpt>
      <trkpt lat="45.95469" lon="6.56774">
        <ele>2180.6</ele>
        <time>2026-02-02T08:38:35Z</time>
      </trkpt>
      <trkpt lat="45.95469" lon="6.56773">
        <ele>2180.6</ele>
        <time>2026-02-02T08:38:36Z</time>
      </trkpt>
      <trkpt lat="45.95469" lon="6.56773">
        <ele>2180.6</ele>
        <time>2026-02-02T08:38:37Z</time>
      </trkpt>
      <trkpt lat="45.95468" lon="6.56772">
        <ele>2179.2</ele>
        <time>2026-02-02T08:38:38Z</time>
      </trkpt>
      <trkpt lat="45.95469" lon="6.56771">
        <ele>2179.2</ele>
        <time>2026-02-02T08:38:39Z</time>
      </trkpt>
      <trkpt lat="45.95469" lon="6.56772">
        <ele>2179.2</ele>
        <time>2026-02-02T08:38:40Z</time>
      </trkpt>
      <trkpt lat="45.95469" lon="6.56772">
        <ele>2179.2</ele>
        <time>2026-02-02T08:38:41Z</time>
      </trkpt>
      <trkpt lat="45.95469" lon="6.56772">
        <ele>2179.2</ele>
        <time>2026-02-02T08:38:42Z</time>
      </trkpt>
      <trkpt lat="45.95469" lon="6.56772">
        <ele>2179.2</ele>
        <time>2026-02-02T08:38:43Z</time>
      </trkpt>
      <trkpt lat="45.95469" lon="6.56772">
        <ele>2179.2</ele>
        <time>2026-02-02T08:38:44Z</time>
      </trkpt>
      <trkpt lat="45.95469" lon="6.56772">
        <ele>2179.2</ele>
        <time>2026-02-02T08:38:46Z</time>
      </trkpt>
      <trkpt lat="45.95469" lon="6.56772">
        <ele>2179.2</ele>
        <time>2026-02-02T08:38:47Z</time>
      </trkpt>
      <trkpt lat="45.95469" lon="6.56771">
        <ele>2179.2</ele>
        <time>2026-02-02T08:38:48Z</time>
      </trkpt>
      <trkpt lat="45.95469" lon="6.56771">
        <ele>2179.2</ele>
        <time>2026-02-02T08:38:49Z</time>
      </trkpt>
      <trkpt lat="45.95469" lon="6.5677">
        <ele>2179.2</ele>
        <time>2026-02-02T08:38:50Z</time>
      </trkpt>
      <trkpt lat="45.95469" lon="6.5677">
        <ele>2179.2</ele>
        <time>2026-02-02T08:38:51Z</time>
      </trkpt>
      <trkpt lat="45.95468" lon="6.56768">
        <ele>2177.8</ele>
        <time>2026-02-02T08:38:52Z</time>
      </trkpt>
      <trkpt lat="45.95468" lon="6.56765">
        <ele>2177.8</ele>
        <time>2026-02-02T08:38:53Z</time>
      </trkpt>
      <trkpt lat="45.95467" lon="6.56764">
        <ele>2180.1</ele>
        <time>2026-02-02T08:38:54Z</time>
      </trkpt>
      <trkpt lat="45.95466" lon="6.56763">
        <ele>2178.7</ele>
        <time>2026-02-02T08:38:55Z</time>
      </trkpt>
      <trkpt lat="45.95465" lon="6.56762">
        <ele>2178.7</ele>
        <time>2026-02-02T08:38:56Z</time>
      </trkpt>
      <trkpt lat="45.95465" lon="6.56761">
        <ele>2178.7</ele>
        <time>2026-02-02T08:38:57Z</time>
      </trkpt>
      <trkpt lat="45.95464" lon="6.5676">
        <ele>2180.7</ele>
        <time>2026-02-02T08:38:58Z</time>
      </trkpt>
      <trkpt lat="45.95463" lon="6.56759">
        <ele>2179.4</ele>
        <time>2026-02-02T08:38:59Z</time>
      </trkpt>
      <trkpt lat="45.95463" lon="6.56758">
        <ele>2179.4</ele>
        <time>2026-02-02T08:39:00Z</time>
      </trkpt>
      <trkpt lat="45.95463" lon="6.56756">
        <ele>2179.4</ele>
        <time>2026-02-02T08:39:01Z</time>
      </trkpt>
      <trkpt lat="45.95463" lon="6.56755">
        <ele>2178</ele>
        <time>2026-02-02T08:39:02Z</time>
      </trkpt>
      <trkpt lat="45.95462" lon="6.56753">
        <ele>2178</ele>
        <time>2026-02-02T08:39:03Z</time>
      </trkpt>
      <trkpt lat="45.95462" lon="6.56752">
        <ele>2178</ele>
        <time>2026-02-02T08:39:04Z</time>
      </trkpt>
      <trkpt lat="45.95462" lon="6.5675">
        <ele>2176.6</ele>
        <time>2026-02-02T08:39:05Z</time>
      </trkpt>
      <trkpt lat="45.95462" lon="6.5675">
        <ele>2176.6</ele>
        <time>2026-02-02T08:39:06Z</time>
      </trkpt>
      <trkpt lat="45.95461" lon="6.56749">
        <ele>2176.6</ele>
        <time>2026-02-02T08:39:07Z</time>
      </trkpt>
      <trkpt lat="45.9546" lon="6.56747">
        <ele>2178.5</ele>
        <time>2026-02-02T08:39:08Z</time>
      </trkpt>
      <trkpt lat="45.9546" lon="6.56746">
        <ele>2177.1</ele>
        <time>2026-02-02T08:39:09Z</time>
      </trkpt>
      <trkpt lat="45.9546" lon="6.56746">
        <ele>2177.1</ele>
        <time>2026-02-02T08:39:10Z</time>
      </trkpt>
      <trkpt lat="45.9546" lon="6.56745">
        <ele>2177.1</ele>
        <time>2026-02-02T08:39:11Z</time>
      </trkpt>
      <trkpt lat="45.95459" lon="6.56745">
        <ele>2177.1</ele>
        <time>2026-02-02T08:39:12Z</time>
      </trkpt>
      <trkpt lat="45.95459" lon="6.56744">
        <ele>2177.1</ele>
        <time>2026-02-02T08:39:13Z</time>
      </trkpt>
      <trkpt lat="45.95458" lon="6.56743">
        <ele>2177.1</ele>
        <time>2026-02-02T08:39:14Z</time>
      </trkpt>
      <trkpt lat="45.95457" lon="6.56741">
        <ele>2177.5</ele>
        <time>2026-02-02T08:39:15Z</time>
      </trkpt>
      <trkpt lat="45.95457" lon="6.5674">
        <ele>2177.5</ele>
        <time>2026-02-02T08:39:16Z</time>
      </trkpt>
      <trkpt lat="45.95457" lon="6.56739">
        <ele>2177.5</ele>
        <time>2026-02-02T08:39:17Z</time>
      </trkpt>
      <trkpt lat="45.95456" lon="6.56739">
        <ele>2177.5</ele>
        <time>2026-02-02T08:39:18Z</time>
      </trkpt>
      <trkpt lat="45.95455" lon="6.56738">
        <ele>2176</ele>
        <time>2026-02-02T08:39:19Z</time>
      </trkpt>
      <trkpt lat="45.95455" lon="6.56737">
        <ele>2177.9</ele>
        <time>2026-02-02T08:39:20Z</time>
      </trkpt>
      <trkpt lat="45.95454" lon="6.56737">
        <ele>2177.9</ele>
        <time>2026-02-02T08:39:21Z</time>
      </trkpt>
      <trkpt lat="45.95453" lon="6.56736">
        <ele>2177.9</ele>
        <time>2026-02-02T08:39:22Z</time>
      </trkpt>
      <trkpt lat="45.95452" lon="6.56735">
        <ele>2177.9</ele>
        <time>2026-02-02T08:39:23Z</time>
      </trkpt>
      <trkpt lat="45.95452" lon="6.56735">
        <ele>2179.8</ele>
        <time>2026-02-02T08:39:24Z</time>
      </trkpt>
      <trkpt lat="45.95451" lon="6.56734">
        <ele>2179.8</ele>
        <time>2026-02-02T08:39:25Z</time>
      </trkpt>
      <trkpt lat="45.95451" lon="6.56734">
        <ele>2178.3</ele>
        <time>2026-02-02T08:39:26Z</time>
      </trkpt>
      <trkpt lat="45.95451" lon="6.56733">
        <ele>2178.3</ele>
        <time>2026-02-02T08:39:27Z</time>
      </trkpt>
      <trkpt lat="45.9545" lon="6.56732">
        <ele>2178.4</ele>
        <time>2026-02-02T08:39:28Z</time>
      </trkpt>
      <trkpt lat="45.9545" lon="6.56731">
        <ele>2178.4</ele>
        <time>2026-02-02T08:39:29Z</time>
      </trkpt>
      <trkpt lat="45.95449" lon="6.5673">
        <ele>2178.4</ele>
        <time>2026-02-02T08:39:30Z</time>
      </trkpt>
      <trkpt lat="45.95449" lon="6.5673">
        <ele>2178.4</ele>
        <time>2026-02-02T08:39:31Z</time>
      </trkpt>
      <trkpt lat="45.95449" lon="6.5673">
        <ele>2178.4</ele>
        <time>2026-02-02T08:39:32Z</time>
      </trkpt>
      <trkpt lat="45.95449" lon="6.56731">
        <ele>2178.4</ele>
        <time>2026-02-02T08:39:33Z</time>
      </trkpt>
      <trkpt lat="45.9545" lon="6.56731">
        <ele>2178.4</ele>
        <time>2026-02-02T08:39:34Z</time>
      </trkpt>
      <trkpt lat="45.9545" lon="6.5673">
        <ele>2178.4</ele>
        <time>2026-02-02T08:39:35Z</time>
      </trkpt>
      <trkpt lat="45.9545" lon="6.5673">
        <ele>2178.4</ele>
        <time>2026-02-02T08:39:36Z</time>
      </trkpt>
      <trkpt lat="45.9545" lon="6.5673">
        <ele>2178.4</ele>
        <time>2026-02-02T08:39:37Z</time>
      </trkpt>
      <trkpt lat="45.9545" lon="6.5673">
        <ele>2178.4</ele>
        <time>2026-02-02T08:39:38Z</time>
      </trkpt>
      <trkpt lat="45.9545" lon="6.5673">
        <ele>2178.4</ele>
        <time>2026-02-02T08:39:39Z</time>
      </trkpt>
      <trkpt lat="45.9545" lon="6.5673">
        <ele>2178.4</ele>
        <time>2026-02-02T08:39:40Z</time>
      </trkpt>
      <trkpt lat="45.95449" lon="6.56729">
        <ele>2177</ele>
        <time>2026-02-02T08:39:41Z</time>
      </trkpt>
      <trkpt lat="45.95449" lon="6.56728">
        <ele>2178.9</ele>
        <time>2026-02-02T08:39:42Z</time>
      </trkpt>
      <trkpt lat="45.95449" lon="6.56727">
        <ele>2178.9</ele>
        <time>2026-02-02T08:39:43Z</time>
      </trkpt>
      <trkpt lat="45.95448" lon="6.56725">
        <ele>2178.9</ele>
        <time>2026-02-02T08:39:44Z</time>
      </trkpt>
      <trkpt lat="45.95448" lon="6.56724">
        <ele>2177.5</ele>
        <time>2026-02-02T08:39:45Z</time>
      </trkpt>
      <trkpt lat="45.95447" lon="6.56722">
        <ele>2177.5</ele>
        <time>2026-02-02T08:39:46Z</time>
      </trkpt>
      <trkpt lat="45.95447" lon="6.56721">
        <ele>2177.5</ele>
        <time>2026-02-02T08:39:47Z</time>
      </trkpt>
      <trkpt lat="45.95446" lon="6.5672">
        <ele>2178.1</ele>
        <time>2026-02-02T08:39:48Z</time>
      </trkpt>
      <trkpt lat="45.95446" lon="6.5672">
        <ele>2178.1</ele>
        <time>2026-02-02T08:39:49Z</time>
      </trkpt>
      <trkpt lat="45.95445" lon="6.56718">
        <ele>2178.1</ele>
        <time>2026-02-02T08:39:50Z</time>
      </trkpt>
      <trkpt lat="45.95444" lon="6.56717">
        <ele>2178.1</ele>
        <time>2026-02-02T08:39:51Z</time>
      </trkpt>
      <trkpt lat="45.95443" lon="6.56716">
        <ele>2178.7</ele>
        <time>2026-02-02T08:39:52Z</time>
      </trkpt>
      <trkpt lat="45.95442" lon="6.56716">
        <ele>2178.7</ele>
        <time>2026-02-02T08:39:53Z</time>
      </trkpt>
      <trkpt lat="45.95441" lon="6.56716">
        <ele>2178.7</ele>
        <time>2026-02-02T08:39:54Z</time>
      </trkpt>
      <trkpt lat="45.95441" lon="6.56716">
        <ele>2178.7</ele>
        <time>2026-02-02T08:39:55Z</time>
      </trkpt>
      <trkpt lat="45.9544" lon="6.56716">
        <ele>2180.4</ele>
        <time>2026-02-02T08:39:56Z</time>
      </trkpt>
      <trkpt lat="45.95439" lon="6.56716">
        <ele>2180.4</ele>
        <time>2026-02-02T08:39:57Z</time>
      </trkpt>
      <trkpt lat="45.95439" lon="6.56716">
        <ele>2180.4</ele>
        <time>2026-02-02T08:39:58Z</time>
      </trkpt>
      <trkpt lat="45.95439" lon="6.56715">
        <ele>2180.4</ele>
        <time>2026-02-02T08:39:59Z</time>
      </trkpt>
      <trkpt lat="45.95438" lon="6.56715">
        <ele>2180.4</ele>
        <time>2026-02-02T08:40:00Z</time>
      </trkpt>
      <trkpt lat="45.95438" lon="6.56715">
        <ele>2180.4</ele>
        <time>2026-02-02T08:40:01Z</time>
      </trkpt>
      <trkpt lat="45.95437" lon="6.56714">
        <ele>2180.4</ele>
        <time>2026-02-02T08:40:02Z</time>
      </trkpt>
      <trkpt lat="45.95437" lon="6.56713">
        <ele>2182</ele>
        <time>2026-02-02T08:40:03Z</time>
      </trkpt>
      <trkpt lat="45.95436" lon="6.56713">
        <ele>2182</ele>
        <time>2026-02-02T08:40:04Z</time>
      </trkpt>
      <trkpt lat="45.95435" lon="6.56712">
        <ele>2180.9</ele>
        <time>2026-02-02T08:40:05Z</time>
      </trkpt>
      <trkpt lat="45.95434" lon="6.56711">
        <ele>2182.4</ele>
        <time>2026-02-02T08:40:06Z</time>
      </trkpt>
      <trkpt lat="45.95434" lon="6.5671">
        <ele>2182.4</ele>
        <time>2026-02-02T08:40:07Z</time>
      </trkpt>
      <trkpt lat="45.95433" lon="6.56708">
        <ele>2182.4</ele>
        <time>2026-02-02T08:40:08Z</time>
      </trkpt>
      <trkpt lat="45.95432" lon="6.56707">
        <ele>2181.4</ele>
        <time>2026-02-02T08:40:09Z</time>
      </trkpt>
      <trkpt lat="45.95431" lon="6.56707">
        <ele>2182.8</ele>
        <time>2026-02-02T08:40:10Z</time>
      </trkpt>
      <trkpt lat="45.9543" lon="6.56707">
        <ele>2182.8</ele>
        <time>2026-02-02T08:40:11Z</time>
      </trkpt>
      <trkpt lat="45.95429" lon="6.56707">
        <ele>2182.8</ele>
        <time>2026-02-02T08:40:12Z</time>
      </trkpt>
      <trkpt lat="45.95428" lon="6.56706">
        <ele>2184.2</ele>
        <time>2026-02-02T08:40:13Z</time>
      </trkpt>
      <trkpt lat="45.95427" lon="6.56705">
        <ele>2184.2</ele>
        <time>2026-02-02T08:40:14Z</time>
      </trkpt>
      <trkpt lat="45.95426" lon="6.56704">
        <ele>2184.2</ele>
        <time>2026-02-02T08:40:15Z</time>
      </trkpt>
      <trkpt lat="45.95426" lon="6.56703">
        <ele>2183.3</ele>
        <time>2026-02-02T08:40:16Z</time>
      </trkpt>
      <trkpt lat="45.95426" lon="6.56702">
        <ele>2183.3</ele>
        <time>2026-02-02T08:40:17Z</time>
      </trkpt>
      <trkpt lat="45.95425" lon="6.56701">
        <ele>2183.3</ele>
        <time>2026-02-02T08:40:18Z</time>
      </trkpt>
      <trkpt lat="45.95425" lon="6.56699">
        <ele>2183.6</ele>
        <time>2026-02-02T08:40:19Z</time>
      </trkpt>
      <trkpt lat="45.95425" lon="6.56699">
        <ele>2182.4</ele>
        <time>2026-02-02T08:40:20Z</time>
      </trkpt>
      <trkpt lat="45.95425" lon="6.56698">
        <ele>2182.4</ele>
        <time>2026-02-02T08:40:21Z</time>
      </trkpt>
      <trkpt lat="45.95425" lon="6.56698">
        <ele>2182.4</ele>
        <time>2026-02-02T08:40:22Z</time>
      </trkpt>
      <trkpt lat="45.95425" lon="6.56698">
        <ele>2183.7</ele>
        <time>2026-02-02T08:40:23Z</time>
      </trkpt>
      <trkpt lat="45.95425" lon="6.56696">
        <ele>2183.7</ele>
        <time>2026-02-02T08:40:24Z</time>
      </trkpt>
      <trkpt lat="45.95425" lon="6.56695">
        <ele>2183.7</ele>
        <time>2026-02-02T08:40:25Z</time>
      </trkpt>
      <trkpt lat="45.95424" lon="6.56694">
        <ele>2182.8</ele>
        <time>2026-02-02T08:40:26Z</time>
      </trkpt>
      <trkpt lat="45.95424" lon="6.56693">
        <ele>2182.8</ele>
        <time>2026-02-02T08:40:27Z</time>
      </trkpt>
      <trkpt lat="45.95423" lon="6.56692">
        <ele>2182.8</ele>
        <time>2026-02-02T08:40:28Z</time>
      </trkpt>
      <trkpt lat="45.95423" lon="6.5669">
        <ele>2181.8</ele>
        <time>2026-02-02T08:40:29Z</time>
      </trkpt>
      <trkpt lat="45.95422" lon="6.5669">
        <ele>2181.9</ele>
        <time>2026-02-02T08:40:30Z</time>
      </trkpt>
      <trkpt lat="45.95422" lon="6.56689">
        <ele>2183.1</ele>
        <time>2026-02-02T08:40:31Z</time>
      </trkpt>
      <trkpt lat="45.95422" lon="6.56688">
        <ele>2183.1</ele>
        <time>2026-02-02T08:40:32Z</time>
      </trkpt>
      <trkpt lat="45.95422" lon="6.56687">
        <ele>2183.1</ele>
        <time>2026-02-02T08:40:33Z</time>
      </trkpt>
      <trkpt lat="45.95421" lon="6.56686">
        <ele>2182.2</ele>
        <time>2026-02-02T08:40:34Z</time>
      </trkpt>
      <trkpt lat="45.95421" lon="6.56685">
        <ele>2182.2</ele>
        <time>2026-02-02T08:40:35Z</time>
      </trkpt>
      <trkpt lat="45.9542" lon="6.56684">
        <ele>2182.2</ele>
        <time>2026-02-02T08:40:36Z</time>
      </trkpt>
      <trkpt lat="45.9542" lon="6.56683">
        <ele>2182.3</ele>
        <time>2026-02-02T08:40:37Z</time>
      </trkpt>
      <trkpt lat="45.9542" lon="6.56682">
        <ele>2181.4</ele>
        <time>2026-02-02T08:40:38Z</time>
      </trkpt>
      <trkpt lat="45.9542" lon="6.56681">
        <ele>2181.4</ele>
        <time>2026-02-02T08:40:39Z</time>
      </trkpt>
      <trkpt lat="45.95419" lon="6.5668">
        <ele>2182.6</ele>
        <time>2026-02-02T08:40:40Z</time>
      </trkpt>
      <trkpt lat="45.95419" lon="6.56678">
        <ele>2182.6</ele>
        <time>2026-02-02T08:40:41Z</time>
      </trkpt>
      <trkpt lat="45.95419" lon="6.56678">
        <ele>2182.6</ele>
        <time>2026-02-02T08:40:42Z</time>
      </trkpt>
      <trkpt lat="45.95419" lon="6.56677">
        <ele>2181.8</ele>
        <time>2026-02-02T08:40:43Z</time>
      </trkpt>
      <trkpt lat="45.95419" lon="6.56676">
        <ele>2181.8</ele>
        <time>2026-02-02T08:40:44Z</time>
      </trkpt>
      <trkpt lat="45.95418" lon="6.56674">
        <ele>2181.8</ele>
        <time>2026-02-02T08:40:45Z</time>
      </trkpt>
      <trkpt lat="45.95418" lon="6.56674">
        <ele>2181.9</ele>
        <time>2026-02-02T08:40:46Z</time>
      </trkpt>
      <trkpt lat="45.95418" lon="6.56672">
        <ele>2181.1</ele>
        <time>2026-02-02T08:40:47Z</time>
      </trkpt>
      <trkpt lat="45.95418" lon="6.56671">
        <ele>2181.1</ele>
        <time>2026-02-02T08:40:48Z</time>
      </trkpt>
      <trkpt lat="45.95417" lon="6.5667">
        <ele>2181.1</ele>
        <time>2026-02-02T08:40:49Z</time>
      </trkpt>
      <trkpt lat="45.95417" lon="6.56668">
        <ele>2180.4</ele>
        <time>2026-02-02T08:40:50Z</time>
      </trkpt>
      <trkpt lat="45.95416" lon="6.56665">
        <ele>2180.9</ele>
        <time>2026-02-02T08:40:52Z</time>
      </trkpt>
      <trkpt lat="45.95416" lon="6.56664">
        <ele>2180.9</ele>
        <time>2026-02-02T08:40:53Z</time>
      </trkpt>
      <trkpt lat="45.95416" lon="6.56663">
        <ele>2180.8</ele>
        <time>2026-02-02T08:40:54Z</time>
      </trkpt>
      <trkpt lat="45.95416" lon="6.56662">
        <ele>2180.7</ele>
        <time>2026-02-02T08:40:55Z</time>
      </trkpt>
      <trkpt lat="45.95416" lon="6.56661">
        <ele>2180.5</ele>
        <time>2026-02-02T08:40:56Z</time>
      </trkpt>
      <trkpt lat="45.95416" lon="6.5666">
        <ele>2180.5</ele>
        <time>2026-02-02T08:40:57Z</time>
      </trkpt>
      <trkpt lat="45.95416" lon="6.56658">
        <ele>2180.3</ele>
        <time>2026-02-02T08:40:58Z</time>
      </trkpt>
      <trkpt lat="45.95416" lon="6.56656">
        <ele>2180.1</ele>
        <time>2026-02-02T08:40:59Z</time>
      </trkpt>
      <trkpt lat="45.95416" lon="6.56655">
        <ele>2180</ele>
        <time>2026-02-02T08:41:00Z</time>
      </trkpt>
      <trkpt lat="45.95416" lon="6.56654">
        <ele>2179.9</ele>
        <time>2026-02-02T08:41:01Z</time>
      </trkpt>
      <trkpt lat="45.95416" lon="6.56654">
        <ele>2179.8</ele>
        <time>2026-02-02T08:41:02Z</time>
      </trkpt>
      <trkpt lat="45.95416" lon="6.56653">
        <ele>2179.7</ele>
        <time>2026-02-02T08:41:03Z</time>
      </trkpt>
      <trkpt lat="45.95416" lon="6.56652">
        <ele>2179.6</ele>
        <time>2026-02-02T08:41:04Z</time>
      </trkpt>
      <trkpt lat="45.95416" lon="6.56649">
        <ele>2179.4</ele>
        <time>2026-02-02T08:41:05Z</time>
      </trkpt>
      <trkpt lat="45.95416" lon="6.56649">
        <ele>2179.3</ele>
        <time>2026-02-02T08:41:06Z</time>
      </trkpt>
      <trkpt lat="45.95417" lon="6.5665">
        <ele>2179.2</ele>
        <time>2026-02-02T08:41:07Z</time>
      </trkpt>
      <trkpt lat="45.95416" lon="6.5665">
        <ele>2179.2</ele>
        <time>2026-02-02T08:41:08Z</time>
      </trkpt>
      <trkpt lat="45.95416" lon="6.5665">
        <ele>2179.1</ele>
        <time>2026-02-02T08:41:09Z</time>
      </trkpt>
      <trkpt lat="45.95416" lon="6.5665">
        <ele>2179</ele>
        <time>2026-02-02T08:41:10Z</time>
      </trkpt>
      <trkpt lat="45.95415" lon="6.56649">
        <ele>2178.9</ele>
        <time>2026-02-02T08:41:11Z</time>
      </trkpt>
      <trkpt lat="45.95414" lon="6.56648">
        <ele>2178.7</ele>
        <time>2026-02-02T08:41:12Z</time>
      </trkpt>
      <trkpt lat="45.95414" lon="6.56647">
        <ele>2178.6</ele>
        <time>2026-02-02T08:41:13Z</time>
      </trkpt>
      <trkpt lat="45.95413" lon="6.56646">
        <ele>2178.4</ele>
        <time>2026-02-02T08:41:14Z</time>
      </trkpt>
      <trkpt lat="45.95412" lon="6.56645">
        <ele>2178.2</ele>
        <time>2026-02-02T08:41:15Z</time>
      </trkpt>
      <trkpt lat="45.95412" lon="6.56644">
        <ele>2178.1</ele>
        <time>2026-02-02T08:41:16Z</time>
      </trkpt>
      <trkpt lat="45.95412" lon="6.56643">
        <ele>2178</ele>
        <time>2026-02-02T08:41:17Z</time>
      </trkpt>
      <trkpt lat="45.95411" lon="6.56642">
        <ele>2177.9</ele>
        <time>2026-02-02T08:41:18Z</time>
      </trkpt>
      <trkpt lat="45.95411" lon="6.5664">
        <ele>2177.6</ele>
        <time>2026-02-02T08:41:19Z</time>
      </trkpt>
      <trkpt lat="45.95411" lon="6.56639">
        <ele>2177.5</ele>
        <time>2026-02-02T08:41:20Z</time>
      </trkpt>
      <trkpt lat="45.95411" lon="6.56637">
        <ele>2177.2</ele>
        <time>2026-02-02T08:41:21Z</time>
      </trkpt>
      <trkpt lat="45.9541" lon="6.56637">
        <ele>2177.1</ele>
        <time>2026-02-02T08:41:22Z</time>
      </trkpt>
      <trkpt lat="45.9541" lon="6.56635">
        <ele>2176.9</ele>
        <time>2026-02-02T08:41:23Z</time>
      </trkpt>
      <trkpt lat="45.9541" lon="6.56634">
        <ele>2176.8</ele>
        <time>2026-02-02T08:41:24Z</time>
      </trkpt>
      <trkpt lat="45.9541" lon="6.56634">
        <ele>2176.8</ele>
        <time>2026-02-02T08:41:25Z</time>
      </trkpt>
      <trkpt lat="45.9541" lon="6.56633">
        <ele>2176.7</ele>
        <time>2026-02-02T08:41:26Z</time>
      </trkpt>
      <trkpt lat="45.9541" lon="6.56632">
        <ele>2176.5</ele>
        <time>2026-02-02T08:41:27Z</time>
      </trkpt>
      <trkpt lat="45.9541" lon="6.56632">
        <ele>2176.4</ele>
        <time>2026-02-02T08:41:28Z</time>
      </trkpt>
      <trkpt lat="45.95409" lon="6.5663">
        <ele>2176.2</ele>
        <time>2026-02-02T08:41:29Z</time>
      </trkpt>
      <trkpt lat="45.95409" lon="6.56629">
        <ele>2176</ele>
        <time>2026-02-02T08:41:30Z</time>
      </trkpt>
      <trkpt lat="45.95409" lon="6.56627">
        <ele>2175.9</ele>
        <time>2026-02-02T08:41:31Z</time>
      </trkpt>
      <trkpt lat="45.95409" lon="6.56627">
        <ele>2175.8</ele>
        <time>2026-02-02T08:41:32Z</time>
      </trkpt>
      <trkpt lat="45.95409" lon="6.56627">
        <ele>2175.8</ele>
        <time>2026-02-02T08:41:33Z</time>
      </trkpt>
      <trkpt lat="45.95409" lon="6.56628">
        <ele>2175.7</ele>
        <time>2026-02-02T08:41:34Z</time>
      </trkpt>
      <trkpt lat="45.95409" lon="6.56628">
        <ele>2175.7</ele>
        <time>2026-02-02T08:41:35Z</time>
      </trkpt>
      <trkpt lat="45.95409" lon="6.56628">
        <ele>2175.7</ele>
        <time>2026-02-02T08:41:36Z</time>
      </trkpt>
      <trkpt lat="45.95409" lon="6.56628">
        <ele>2175.7</ele>
        <time>2026-02-02T08:41:37Z</time>
      </trkpt>
      <trkpt lat="45.95409" lon="6.56628">
        <ele>2175.7</ele>
        <time>2026-02-02T08:41:38Z</time>
      </trkpt>
      <trkpt lat="45.95409" lon="6.56628">
        <ele>2175.7</ele>
        <time>2026-02-02T08:41:39Z</time>
      </trkpt>
      <trkpt lat="45.95409" lon="6.56628">
        <ele>2175.6</ele>
        <time>2026-02-02T08:41:40Z</time>
      </trkpt>
      <trkpt lat="45.95409" lon="6.56628">
        <ele>2175.6</ele>
        <time>2026-02-02T08:41:41Z</time>
      </trkpt>
      <trkpt lat="45.95409" lon="6.56628">
        <ele>2175.6</ele>
        <time>2026-02-02T08:41:42Z</time>
      </trkpt>
      <trkpt lat="45.95409" lon="6.56629">
        <ele>2175.6</ele>
        <time>2026-02-02T08:41:43Z</time>
      </trkpt>
      <trkpt lat="45.95409" lon="6.56629">
        <ele>2175.6</ele>
        <time>2026-02-02T08:41:44Z</time>
      </trkpt>
      <trkpt lat="45.95409" lon="6.56629">
        <ele>2175.5</ele>
        <time>2026-02-02T08:41:45Z</time>
      </trkpt>
      <trkpt lat="45.95409" lon="6.56629">
        <ele>2175.5</ele>
        <time>2026-02-02T08:41:46Z</time>
      </trkpt>
      <trkpt lat="45.95409" lon="6.56629">
        <ele>2175.5</ele>
        <time>2026-02-02T08:41:47Z</time>
      </trkpt>
      <trkpt lat="45.95409" lon="6.56629">
        <ele>2175.5</ele>
        <time>2026-02-02T08:41:48Z</time>
      </trkpt>
      <trkpt lat="45.95409" lon="6.56629">
        <ele>2175.5</ele>
        <time>2026-02-02T08:41:49Z</time>
      </trkpt>
      <trkpt lat="45.95409" lon="6.56629">
        <ele>2175.5</ele>
        <time>2026-02-02T08:41:50Z</time>
      </trkpt>
      <trkpt lat="45.95409" lon="6.56629">
        <ele>2175.4</ele>
        <time>2026-02-02T08:41:51Z</time>
      </trkpt>
      <trkpt lat="45.95409" lon="6.56627">
        <ele>2175.2</ele>
        <time>2026-02-02T08:41:52Z</time>
      </trkpt>
      <trkpt lat="45.95409" lon="6.56626">
        <ele>2175</ele>
        <time>2026-02-02T08:41:53Z</time>
      </trkpt>
      <trkpt lat="45.95409" lon="6.56625">
        <ele>2174.9</ele>
        <time>2026-02-02T08:41:54Z</time>
      </trkpt>
      <trkpt lat="45.95409" lon="6.56624">
        <ele>2174.6</ele>
        <time>2026-02-02T08:41:55Z</time>
      </trkpt>
      <trkpt lat="45.95409" lon="6.56622">
        <ele>2174.5</ele>
        <time>2026-02-02T08:41:56Z</time>
      </trkpt>
      <trkpt lat="45.95409" lon="6.56622">
        <ele>2174.4</ele>
        <time>2026-02-02T08:41:57Z</time>
      </trkpt>
      <trkpt lat="45.95409" lon="6.56621">
        <ele>2174.3</ele>
        <time>2026-02-02T08:41:58Z</time>
      </trkpt>
      <trkpt lat="45.95409" lon="6.56621">
        <ele>2174.3</ele>
        <time>2026-02-02T08:41:59Z</time>
      </trkpt>
      <trkpt lat="45.95409" lon="6.56621">
        <ele>2174.2</ele>
        <time>2026-02-02T08:42:00Z</time>
      </trkpt>
      <trkpt lat="45.95409" lon="6.5662">
        <ele>2174</ele>
        <time>2026-02-02T08:42:01Z</time>
      </trkpt>
      <trkpt lat="45.95409" lon="6.56619">
        <ele>2173.9</ele>
        <time>2026-02-02T08:42:02Z</time>
      </trkpt>
      <trkpt lat="45.95409" lon="6.56619">
        <ele>2173.9</ele>
        <time>2026-02-02T08:42:03Z</time>
      </trkpt>
      <trkpt lat="45.95409" lon="6.56619">
        <ele>2173.8</ele>
        <time>2026-02-02T08:42:04Z</time>
      </trkpt>
      <trkpt lat="45.95409" lon="6.56619">
        <ele>2173.8</ele>
        <time>2026-02-02T08:42:05Z</time>
      </trkpt>
      <trkpt lat="45.95409" lon="6.56619">
        <ele>2173.8</ele>
        <time>2026-02-02T08:42:06Z</time>
      </trkpt>
      <trkpt lat="45.95408" lon="6.56619">
        <ele>2173.6</ele>
        <time>2026-02-02T08:42:07Z</time>
      </trkpt>
      <trkpt lat="45.95408" lon="6.56618">
        <ele>2173.5</ele>
        <time>2026-02-02T08:42:08Z</time>
      </trkpt>
      <trkpt lat="45.95408" lon="6.56617">
        <ele>2173.3</ele>
        <time>2026-02-02T08:42:09Z</time>
      </trkpt>
      <trkpt lat="45.95408" lon="6.56616">
        <ele>2173.2</ele>
        <time>2026-02-02T08:42:11Z</time>
      </trkpt>
      <trkpt lat="45.95408" lon="6.56616">
        <ele>2173.2</ele>
        <time>2026-02-02T08:42:12Z</time>
      </trkpt>
      <trkpt lat="45.95408" lon="6.56616">
        <ele>2173.1</ele>
        <time>2026-02-02T08:42:13Z</time>
      </trkpt>
      <trkpt lat="45.95408" lon="6.56615">
        <ele>2173.1</ele>
        <time>2026-02-02T08:42:14Z</time>
      </trkpt>
      <trkpt lat="45.95408" lon="6.56614">
        <ele>2172.9</ele>
        <time>2026-02-02T08:42:15Z</time>
      </trkpt>
      <trkpt lat="45.95408" lon="6.56614">
        <ele>2172.8</ele>
        <time>2026-02-02T08:42:16Z</time>
      </trkpt>
      <trkpt lat="45.95407" lon="6.56614">
        <ele>2172.7</ele>
        <time>2026-02-02T08:42:17Z</time>
      </trkpt>
      <trkpt lat="45.95407" lon="6.56614">
        <ele>2172.7</ele>
        <time>2026-02-02T08:42:18Z</time>
      </trkpt>
      <trkpt lat="45.95407" lon="6.56614">
        <ele>2172.7</ele>
        <time>2026-02-02T08:42:20Z</time>
      </trkpt>
      <trkpt lat="45.95407" lon="6.56614">
        <ele>2172.6</ele>
        <time>2026-02-02T08:42:21Z</time>
      </trkpt>
      <trkpt lat="45.95407" lon="6.56614">
        <ele>2172.6</ele>
        <time>2026-02-02T08:42:22Z</time>
      </trkpt>
      <trkpt lat="45.95407" lon="6.56614">
        <ele>2172.6</ele>
        <time>2026-02-02T08:42:23Z</time>
      </trkpt>
      <trkpt lat="45.95407" lon="6.56613">
        <ele>2172.6</ele>
        <time>2026-02-02T08:42:24Z</time>
      </trkpt>
      <trkpt lat="45.95407" lon="6.56613">
        <ele>2172.5</ele>
        <time>2026-02-02T08:42:25Z</time>
      </trkpt>
      <trkpt lat="45.95407" lon="6.56612">
        <ele>2172.4</ele>
        <time>2026-02-02T08:42:26Z</time>
      </trkpt>
      <trkpt lat="45.95406" lon="6.56611">
        <ele>2172.3</ele>
        <time>2026-02-02T08:42:27Z</time>
      </trkpt>
      <trkpt lat="45.95406" lon="6.56611">
        <ele>2172.2</ele>
        <time>2026-02-02T08:42:28Z</time>
      </trkpt>
      <trkpt lat="45.95406" lon="6.5661">
        <ele>2172.1</ele>
        <time>2026-02-02T08:42:29Z</time>
      </trkpt>
      <trkpt lat="45.95405" lon="6.56609">
        <ele>2171.8</ele>
        <time>2026-02-02T08:42:30Z</time>
      </trkpt>
      <trkpt lat="45.95405" lon="6.56608">
        <ele>2171.7</ele>
        <time>2026-02-02T08:42:31Z</time>
      </trkpt>
      <trkpt lat="45.95404" lon="6.56607">
        <ele>2171.6</ele>
        <time>2026-02-02T08:42:32Z</time>
      </trkpt>
      <trkpt lat="45.95404" lon="6.56607">
        <ele>2171.5</ele>
        <time>2026-02-02T08:42:33Z</time>
      </trkpt>
      <trkpt lat="45.95404" lon="6.56606">
        <ele>2171.4</ele>
        <time>2026-02-02T08:42:34Z</time>
      </trkpt>
      <trkpt lat="45.95404" lon="6.56605">
        <ele>2171.3</ele>
        <time>2026-02-02T08:42:35Z</time>
      </trkpt>
      <trkpt lat="45.95404" lon="6.56602">
        <ele>2170.8</ele>
        <time>2026-02-02T08:42:36Z</time>
      </trkpt>
      <trkpt lat="45.95404" lon="6.566">
        <ele>2170.5</ele>
        <time>2026-02-02T08:42:37Z</time>
      </trkpt>
      <trkpt lat="45.95403" lon="6.56595">
        <ele>2169.9</ele>
        <time>2026-02-02T08:42:38Z</time>
      </trkpt>
      <trkpt lat="45.95402" lon="6.56593">
        <ele>2169.6</ele>
        <time>2026-02-02T08:42:39Z</time>
      </trkpt>
      <trkpt lat="45.95401" lon="6.56589">
        <ele>2170</ele>
        <time>2026-02-02T08:42:40Z</time>
      </trkpt>
      <trkpt lat="45.95401" lon="6.56588">
        <ele>2170.1</ele>
        <time>2026-02-02T08:42:41Z</time>
      </trkpt>
      <trkpt lat="45.95401" lon="6.56587">
        <ele>2170.2</ele>
        <time>2026-02-02T08:42:42Z</time>
      </trkpt>
      <trkpt lat="45.95401" lon="6.56586">
        <ele>2170.3</ele>
        <time>2026-02-02T08:42:43Z</time>
      </trkpt>
      <trkpt lat="45.95401" lon="6.56586">
        <ele>2170.4</ele>
        <time>2026-02-02T08:42:44Z</time>
      </trkpt>
      <trkpt lat="45.954" lon="6.56585">
        <ele>2170.5</ele>
        <time>2026-02-02T08:42:45Z</time>
      </trkpt>
      <trkpt lat="45.954" lon="6.56584">
        <ele>2170.6</ele>
        <time>2026-02-02T08:42:46Z</time>
      </trkpt>
      <trkpt lat="45.95401" lon="6.56583">
        <ele>2170.8</ele>
        <time>2026-02-02T08:42:47Z</time>
      </trkpt>
      <trkpt lat="45.954" lon="6.56582">
        <ele>2170.9</ele>
        <time>2026-02-02T08:42:48Z</time>
      </trkpt>
      <trkpt lat="45.95401" lon="6.56583">
        <ele>2171</ele>
        <time>2026-02-02T08:42:49Z</time>
      </trkpt>
      <trkpt lat="45.95401" lon="6.56583">
        <ele>2171.1</ele>
        <time>2026-02-02T08:42:50Z</time>
      </trkpt>
      <trkpt lat="45.95401" lon="6.56582">
        <ele>2171.2</ele>
        <time>2026-02-02T08:42:51Z</time>
      </trkpt>
      <trkpt lat="45.95401" lon="6.56581">
        <ele>2171.3</ele>
        <time>2026-02-02T08:42:52Z</time>
      </trkpt>
      <trkpt lat="45.95401" lon="6.5658">
        <ele>2171.5</ele>
        <time>2026-02-02T08:42:53Z</time>
      </trkpt>
      <trkpt lat="45.954" lon="6.56579">
        <ele>2171.7</ele>
        <time>2026-02-02T08:42:54Z</time>
      </trkpt>
      <trkpt lat="45.954" lon="6.56578">
        <ele>2171.9</ele>
        <time>2026-02-02T08:42:55Z</time>
      </trkpt>
      <trkpt lat="45.954" lon="6.56577">
        <ele>2172.1</ele>
        <time>2026-02-02T08:42:56Z</time>
      </trkpt>
      <trkpt lat="45.95399" lon="6.56575">
        <ele>2172.4</ele>
        <time>2026-02-02T08:42:57Z</time>
      </trkpt>
      <trkpt lat="45.95399" lon="6.56575">
        <ele>2172.5</ele>
        <time>2026-02-02T08:42:58Z</time>
      </trkpt>
      <trkpt lat="45.95399" lon="6.56574">
        <ele>2172.6</ele>
        <time>2026-02-02T08:42:59Z</time>
      </trkpt>
      <trkpt lat="45.95399" lon="6.56574">
        <ele>2172.6</ele>
        <time>2026-02-02T08:43:00Z</time>
      </trkpt>
      <trkpt lat="45.95399" lon="6.56574">
        <ele>2172.6</ele>
        <time>2026-02-02T08:43:01Z</time>
      </trkpt>
      <trkpt lat="45.95399" lon="6.56574">
        <ele>2172.7</ele>
        <time>2026-02-02T08:43:02Z</time>
      </trkpt>
      <trkpt lat="45.95399" lon="6.56574">
        <ele>2172.7</ele>
        <time>2026-02-02T08:43:03Z</time>
      </trkpt>
      <trkpt lat="45.95399" lon="6.56574">
        <ele>2172.7</ele>
        <time>2026-02-02T08:43:04Z</time>
      </trkpt>
      <trkpt lat="45.95399" lon="6.56574">
        <ele>2172.8</ele>
        <time>2026-02-02T08:43:05Z</time>
      </trkpt>
      <trkpt lat="45.954" lon="6.56574">
        <ele>2172.8</ele>
        <time>2026-02-02T08:43:06Z</time>
      </trkpt>
      <trkpt lat="45.954" lon="6.56574">
        <ele>2172.8</ele>
        <time>2026-02-02T08:43:07Z</time>
      </trkpt>
      <trkpt lat="45.954" lon="6.56574">
        <ele>2172.8</ele>
        <time>2026-02-02T08:43:08Z</time>
      </trkpt>
      <trkpt lat="45.954" lon="6.56574">
        <ele>2172.8</ele>
        <time>2026-02-02T08:43:09Z</time>
      </trkpt>
      <trkpt lat="45.954" lon="6.56574">
        <ele>2172.8</ele>
        <time>2026-02-02T08:43:10Z</time>
      </trkpt>
      <trkpt lat="45.954" lon="6.56574">
        <ele>2172.8</ele>
        <time>2026-02-02T08:43:11Z</time>
      </trkpt>
      <trkpt lat="45.954" lon="6.56574">
        <ele>2172.8</ele>
        <time>2026-02-02T08:43:12Z</time>
      </trkpt>
      <trkpt lat="45.954" lon="6.56574">
        <ele>2172.8</ele>
        <time>2026-02-02T08:43:13Z</time>
      </trkpt>
      <trkpt lat="45.954" lon="6.56574">
        <ele>2172.9</ele>
        <time>2026-02-02T08:43:14Z</time>
      </trkpt>
      <trkpt lat="45.95399" lon="6.56573">
        <ele>2173.2</ele>
        <time>2026-02-02T08:43:15Z</time>
      </trkpt>
      <trkpt lat="45.95399" lon="6.56573">
        <ele>2173.4</ele>
        <time>2026-02-02T08:43:16Z</time>
      </trkpt>
      <trkpt lat="45.95399" lon="6.56572">
        <ele>2173.6</ele>
        <time>2026-02-02T08:43:17Z</time>
      </trkpt>
      <trkpt lat="45.95398" lon="6.56571">
        <ele>2173.8</ele>
        <time>2026-02-02T08:43:18Z</time>
      </trkpt>
      <trkpt lat="45.95398" lon="6.5657">
        <ele>2174</ele>
        <time>2026-02-02T08:43:19Z</time>
      </trkpt>
      <trkpt lat="45.95398" lon="6.56569">
        <ele>2174.2</ele>
        <time>2026-02-02T08:43:20Z</time>
      </trkpt>
      <trkpt lat="45.95397" lon="6.56568">
        <ele>2174.5</ele>
        <time>2026-02-02T08:43:21Z</time>
      </trkpt>
      <trkpt lat="45.95397" lon="6.56566">
        <ele>2174.9</ele>
        <time>2026-02-02T08:43:22Z</time>
      </trkpt>
      <trkpt lat="45.95396" lon="6.56565">
        <ele>2175.3</ele>
        <time>2026-02-02T08:43:23Z</time>
      </trkpt>
      <trkpt lat="45.95395" lon="6.56563">
        <ele>2175.6</ele>
        <time>2026-02-02T08:43:24Z</time>
      </trkpt>
      <trkpt lat="45.95395" lon="6.56563">
        <ele>2175.9</ele>
        <time>2026-02-02T08:43:25Z</time>
      </trkpt>
      <trkpt lat="45.95394" lon="6.56562">
        <ele>2176.1</ele>
        <time>2026-02-02T08:43:26Z</time>
      </trkpt>
      <trkpt lat="45.95394" lon="6.5656">
        <ele>2176.4</ele>
        <time>2026-02-02T08:43:27Z</time>
      </trkpt>
      <trkpt lat="45.95393" lon="6.56559">
        <ele>2176.9</ele>
        <time>2026-02-02T08:43:28Z</time>
      </trkpt>
      <trkpt lat="45.95393" lon="6.56558">
        <ele>2177.1</ele>
        <time>2026-02-02T08:43:29Z</time>
      </trkpt>
      <trkpt lat="45.95392" lon="6.56558">
        <ele>2177.2</ele>
        <time>2026-02-02T08:43:30Z</time>
      </trkpt>
      <trkpt lat="45.95392" lon="6.56557">
        <ele>2177.3</ele>
        <time>2026-02-02T08:43:31Z</time>
      </trkpt>
      <trkpt lat="45.95392" lon="6.56557">
        <ele>2177.4</ele>
        <time>2026-02-02T08:43:32Z</time>
      </trkpt>
      <trkpt lat="45.95392" lon="6.56556">
        <ele>2177.6</ele>
        <time>2026-02-02T08:43:33Z</time>
      </trkpt>
      <trkpt lat="45.95391" lon="6.56555">
        <ele>2177.8</ele>
        <time>2026-02-02T08:43:34Z</time>
      </trkpt>
      <trkpt lat="45.9539" lon="6.56554">
        <ele>2178.2</ele>
        <time>2026-02-02T08:43:35Z</time>
      </trkpt>
      <trkpt lat="45.9539" lon="6.56553">
        <ele>2178.4</ele>
        <time>2026-02-02T08:43:36Z</time>
      </trkpt>
      <trkpt lat="45.95389" lon="6.56552">
        <ele>2178.7</ele>
        <time>2026-02-02T08:43:37Z</time>
      </trkpt>
      <trkpt lat="45.95389" lon="6.56551">
        <ele>2178.9</ele>
        <time>2026-02-02T08:43:39Z</time>
      </trkpt>
      <trkpt lat="45.95389" lon="6.56551">
        <ele>2179</ele>
        <time>2026-02-02T08:43:40Z</time>
      </trkpt>
      <trkpt lat="45.95389" lon="6.56551">
        <ele>2179.1</ele>
        <time>2026-02-02T08:43:41Z</time>
      </trkpt>
      <trkpt lat="45.95389" lon="6.5655">
        <ele>2179.2</ele>
        <time>2026-02-02T08:43:42Z</time>
      </trkpt>
      <trkpt lat="45.95389" lon="6.5655">
        <ele>2179.3</ele>
        <time>2026-02-02T08:43:43Z</time>
      </trkpt>
      <trkpt lat="45.95389" lon="6.5655">
        <ele>2179.3</ele>
        <time>2026-02-02T08:43:44Z</time>
      </trkpt>
      <trkpt lat="45.95389" lon="6.5655">
        <ele>2179.3</ele>
        <time>2026-02-02T08:43:45Z</time>
      </trkpt>
      <trkpt lat="45.95389" lon="6.5655">
        <ele>2179.3</ele>
        <time>2026-02-02T08:43:46Z</time>
      </trkpt>
      <trkpt lat="45.95389" lon="6.5655">
        <ele>2179.3</ele>
        <time>2026-02-02T08:43:47Z</time>
      </trkpt>
      <trkpt lat="45.95389" lon="6.5655">
        <ele>2179.3</ele>
        <time>2026-02-02T08:43:48Z</time>
      </trkpt>
      <trkpt lat="45.95389" lon="6.5655">
        <ele>2179.4</ele>
        <time>2026-02-02T08:43:49Z</time>
      </trkpt>
      <trkpt lat="45.95389" lon="6.5655">
        <ele>2179.4</ele>
        <time>2026-02-02T08:43:50Z</time>
      </trkpt>
      <trkpt lat="45.95389" lon="6.5655">
        <ele>2179.4</ele>
        <time>2026-02-02T08:43:51Z</time>
      </trkpt>
      <trkpt lat="45.95389" lon="6.5655">
        <ele>2179.4</ele>
        <time>2026-02-02T08:43:52Z</time>
      </trkpt>
      <trkpt lat="45.95389" lon="6.5655">
        <ele>2179.4</ele>
        <time>2026-02-02T08:43:53Z</time>
      </trkpt>
      <trkpt lat="45.95389" lon="6.56549">
        <ele>2179.5</ele>
        <time>2026-02-02T08:43:54Z</time>
      </trkpt>
      <trkpt lat="45.95389" lon="6.56549">
        <ele>2179.6</ele>
        <time>2026-02-02T08:43:55Z</time>
      </trkpt>
      <trkpt lat="45.95388" lon="6.56548">
        <ele>2179.8</ele>
        <time>2026-02-02T08:43:56Z</time>
      </trkpt>
      <trkpt lat="45.95388" lon="6.56547">
        <ele>2179.9</ele>
        <time>2026-02-02T08:43:57Z</time>
      </trkpt>
      <trkpt lat="45.95387" lon="6.56545">
        <ele>2180.4</ele>
        <time>2026-02-02T08:43:58Z</time>
      </trkpt>
      <trkpt lat="45.95387" lon="6.56544">
        <ele>2180.6</ele>
        <time>2026-02-02T08:43:59Z</time>
      </trkpt>
      <trkpt lat="45.95387" lon="6.56543">
        <ele>2180.8</ele>
        <time>2026-02-02T08:44:00Z</time>
      </trkpt>
      <trkpt lat="45.95386" lon="6.56543">
        <ele>2181</ele>
        <time>2026-02-02T08:44:01Z</time>
      </trkpt>
      <trkpt lat="45.95386" lon="6.56542">
        <ele>2181.1</ele>
        <time>2026-02-02T08:44:02Z</time>
      </trkpt>
      <trkpt lat="45.95385" lon="6.56541">
        <ele>2181.3</ele>
        <time>2026-02-02T08:44:03Z</time>
      </trkpt>
      <trkpt lat="45.95385" lon="6.56541">
        <ele>2181.4</ele>
        <time>2026-02-02T08:44:04Z</time>
      </trkpt>
      <trkpt lat="45.95385" lon="6.5654">
        <ele>2181.5</ele>
        <time>2026-02-02T08:44:05Z</time>
      </trkpt>
      <trkpt lat="45.95384" lon="6.56539">
        <ele>2181.8</ele>
        <time>2026-02-02T08:44:07Z</time>
      </trkpt>
      <trkpt lat="45.95384" lon="6.56539">
        <ele>2181.8</ele>
        <time>2026-02-02T08:44:08Z</time>
      </trkpt>
      <trkpt lat="45.95383" lon="6.56538">
        <ele>2182</ele>
        <time>2026-02-02T08:44:09Z</time>
      </trkpt>
      <trkpt lat="45.95383" lon="6.56538">
        <ele>2182</ele>
        <time>2026-02-02T08:44:10Z</time>
      </trkpt>
      <trkpt lat="45.95383" lon="6.56537">
        <ele>2182.2</ele>
        <time>2026-02-02T08:44:11Z</time>
      </trkpt>
      <trkpt lat="45.95382" lon="6.56536">
        <ele>2182.3</ele>
        <time>2026-02-02T08:44:12Z</time>
      </trkpt>
      <trkpt lat="45.95383" lon="6.56536">
        <ele>2182.4</ele>
        <time>2026-02-02T08:44:13Z</time>
      </trkpt>
      <trkpt lat="45.95383" lon="6.56535">
        <ele>2182.5</ele>
        <time>2026-02-02T08:44:14Z</time>
      </trkpt>
      <trkpt lat="45.95383" lon="6.56536">
        <ele>2182.5</ele>
        <time>2026-02-02T08:44:15Z</time>
      </trkpt>
      <trkpt lat="45.95383" lon="6.56536">
        <ele>2182.5</ele>
        <time>2026-02-02T08:44:16Z</time>
      </trkpt>
      <trkpt lat="45.95383" lon="6.56536">
        <ele>2182.6</ele>
        <time>2026-02-02T08:44:18Z</time>
      </trkpt>
      <trkpt lat="45.95383" lon="6.56536">
        <ele>2182.6</ele>
        <time>2026-02-02T08:44:19Z</time>
      </trkpt>
      <trkpt lat="45.95383" lon="6.56536">
        <ele>2182.6</ele>
        <time>2026-02-02T08:44:20Z</time>
      </trkpt>
      <trkpt lat="45.95383" lon="6.56537">
        <ele>2182.6</ele>
        <time>2026-02-02T08:44:21Z</time>
      </trkpt>
      <trkpt lat="45.95383" lon="6.56537">
        <ele>2182.7</ele>
        <time>2026-02-02T08:44:22Z</time>
      </trkpt>
      <trkpt lat="45.95382" lon="6.56537">
        <ele>2182.7</ele>
        <time>2026-02-02T08:44:23Z</time>
      </trkpt>
      <trkpt lat="45.95382" lon="6.56537">
        <ele>2182.7</ele>
        <time>2026-02-02T08:44:24Z</time>
      </trkpt>
      <trkpt lat="45.95382" lon="6.56537">
        <ele>2182.7</ele>
        <time>2026-02-02T08:44:25Z</time>
      </trkpt>
      <trkpt lat="45.95382" lon="6.56537">
        <ele>2182.7</ele>
        <time>2026-02-02T08:44:27Z</time>
      </trkpt>
      <trkpt lat="45.95382" lon="6.56536">
        <ele>2182.8</ele>
        <time>2026-02-02T08:44:28Z</time>
      </trkpt>
      <trkpt lat="45.95382" lon="6.56536">
        <ele>2182.8</ele>
        <time>2026-02-02T08:44:29Z</time>
      </trkpt>
      <trkpt lat="45.95382" lon="6.56536">
        <ele>2182.8</ele>
        <time>2026-02-02T08:44:30Z</time>
      </trkpt>
      <trkpt lat="45.95382" lon="6.56536">
        <ele>2182.8</ele>
        <time>2026-02-02T08:44:31Z</time>
      </trkpt>
      <trkpt lat="45.95383" lon="6.56537">
        <ele>2182.9</ele>
        <time>2026-02-02T08:44:32Z</time>
      </trkpt>
      <trkpt lat="45.95383" lon="6.56537">
        <ele>2182.9</ele>
        <time>2026-02-02T08:44:33Z</time>
      </trkpt>
      <trkpt lat="45.95383" lon="6.56538">
        <ele>2183.1</ele>
        <time>2026-02-02T08:44:34Z</time>
      </trkpt>
      <trkpt lat="45.95384" lon="6.56539">
        <ele>2183.3</ele>
        <time>2026-02-02T08:44:35Z</time>
      </trkpt>
      <trkpt lat="45.95384" lon="6.5654">
        <ele>2183.4</ele>
        <time>2026-02-02T08:44:37Z</time>
      </trkpt>
      <trkpt lat="45.95384" lon="6.56539">
        <ele>2183.5</ele>
        <time>2026-02-02T08:44:38Z</time>
      </trkpt>
      <trkpt lat="45.95384" lon="6.56539">
        <ele>2183.5</ele>
        <time>2026-02-02T08:44:39Z</time>
      </trkpt>
      <trkpt lat="45.95384" lon="6.56539">
        <ele>2183.5</ele>
        <time>2026-02-02T08:44:40Z</time>
      </trkpt>
      <trkpt lat="45.95384" lon="6.56539">
        <ele>2183.6</ele>
        <time>2026-02-02T08:44:41Z</time>
      </trkpt>
      <trkpt lat="45.95383" lon="6.56538">
        <ele>2183.7</ele>
        <time>2026-02-02T08:44:42Z</time>
      </trkpt>
      <trkpt lat="45.95383" lon="6.56537">
        <ele>2183.8</ele>
        <time>2026-02-02T08:44:43Z</time>
      </trkpt>
      <trkpt lat="45.95383" lon="6.56536">
        <ele>2184</ele>
        <time>2026-02-02T08:44:44Z</time>
      </trkpt>
      <trkpt lat="45.95382" lon="6.56534">
        <ele>2184.2</ele>
        <time>2026-02-02T08:44:45Z</time>
      </trkpt>
      <trkpt lat="45.95381" lon="6.56533">
        <ele>2184.4</ele>
        <time>2026-02-02T08:44:47Z</time>
      </trkpt>
      <trkpt lat="45.9538" lon="6.56533">
        <ele>2184.6</ele>
        <time>2026-02-02T08:44:48Z</time>
      </trkpt>
      <trkpt lat="45.9538" lon="6.56532">
        <ele>2184.7</ele>
        <time>2026-02-02T08:44:49Z</time>
      </trkpt>
      <trkpt lat="45.95379" lon="6.56531">
        <ele>2184.8</ele>
        <time>2026-02-02T08:44:50Z</time>
      </trkpt>
      <trkpt lat="45.95379" lon="6.56531">
        <ele>2184.9</ele>
        <time>2026-02-02T08:44:51Z</time>
      </trkpt>
      <trkpt lat="45.95379" lon="6.5653">
        <ele>2185</ele>
        <time>2026-02-02T08:44:52Z</time>
      </trkpt>
      <trkpt lat="45.95379" lon="6.5653">
        <ele>2185</ele>
        <time>2026-02-02T08:44:53Z</time>
      </trkpt>
      <trkpt lat="45.95379" lon="6.56529">
        <ele>2185.1</ele>
        <time>2026-02-02T08:44:55Z</time>
      </trkpt>
      <trkpt lat="45.95379" lon="6.56529">
        <ele>2185.1</ele>
        <time>2026-02-02T08:44:56Z</time>
      </trkpt>
      <trkpt lat="45.95379" lon="6.56529">
        <ele>2185.1</ele>
        <time>2026-02-02T08:44:57Z</time>
      </trkpt>
      <trkpt lat="45.95379" lon="6.56529">
        <ele>2185.1</ele>
        <time>2026-02-02T08:44:58Z</time>
      </trkpt>
      <trkpt lat="45.95379" lon="6.56529">
        <ele>2185.1</ele>
        <time>2026-02-02T08:44:59Z</time>
      </trkpt>
      <trkpt lat="45.95379" lon="6.56529">
        <ele>2185.1</ele>
        <time>2026-02-02T08:45:00Z</time>
      </trkpt>
      <trkpt lat="45.95379" lon="6.56529">
        <ele>2185.2</ele>
        <time>2026-02-02T08:45:01Z</time>
      </trkpt>
      <trkpt lat="45.95379" lon="6.56529">
        <ele>2185.2</ele>
        <time>2026-02-02T08:45:02Z</time>
      </trkpt>
      <trkpt lat="45.95379" lon="6.56529">
        <ele>2185.2</ele>
        <time>2026-02-02T08:45:03Z</time>
      </trkpt>
      <trkpt lat="45.95379" lon="6.56529">
        <ele>2185.2</ele>
        <time>2026-02-02T08:45:05Z</time>
      </trkpt>
      <trkpt lat="45.95379" lon="6.56529">
        <ele>2185.2</ele>
        <time>2026-02-02T08:45:06Z</time>
      </trkpt>
      <trkpt lat="45.95379" lon="6.56529">
        <ele>2185.2</ele>
        <time>2026-02-02T08:45:07Z</time>
      </trkpt>
      <trkpt lat="45.95379" lon="6.56529">
        <ele>2185.2</ele>
        <time>2026-02-02T08:45:08Z</time>
      </trkpt>
      <trkpt lat="45.95379" lon="6.56529">
        <ele>2185.2</ele>
        <time>2026-02-02T08:45:09Z</time>
      </trkpt>
      <trkpt lat="45.9538" lon="6.5653">
        <ele>2185.3</ele>
        <time>2026-02-02T08:45:10Z</time>
      </trkpt>
      <trkpt lat="45.9538" lon="6.5653">
        <ele>2185.3</ele>
        <time>2026-02-02T08:45:11Z</time>
      </trkpt>
      <trkpt lat="45.9538" lon="6.5653">
        <ele>2185.3</ele>
        <time>2026-02-02T08:45:12Z</time>
      </trkpt>
      <trkpt lat="45.9538" lon="6.5653">
        <ele>2185.3</ele>
        <time>2026-02-02T08:45:13Z</time>
      </trkpt>
      <trkpt lat="45.9538" lon="6.5653">
        <ele>2185.3</ele>
        <time>2026-02-02T08:45:14Z</time>
      </trkpt>
      <trkpt lat="45.9538" lon="6.5653">
        <ele>2185.3</ele>
        <time>2026-02-02T08:45:15Z</time>
      </trkpt>
      <trkpt lat="45.9538" lon="6.56529">
        <ele>2185.3</ele>
        <time>2026-02-02T08:45:16Z</time>
      </trkpt>
      <trkpt lat="45.95379" lon="6.56529">
        <ele>2185.4</ele>
        <time>2026-02-02T08:45:17Z</time>
      </trkpt>
      <trkpt lat="45.95379" lon="6.56528">
        <ele>2185.5</ele>
        <time>2026-02-02T08:45:18Z</time>
      </trkpt>
      <trkpt lat="45.95378" lon="6.56527">
        <ele>2185.7</ele>
        <time>2026-02-02T08:45:19Z</time>
      </trkpt>
      <trkpt lat="45.95378" lon="6.56527">
        <ele>2185.8</ele>
        <time>2026-02-02T08:45:20Z</time>
      </trkpt>
      <trkpt lat="45.95377" lon="6.56526">
        <ele>2186</ele>
        <time>2026-02-02T08:45:21Z</time>
      </trkpt>
      <trkpt lat="45.95377" lon="6.56525">
        <ele>2186.2</ele>
        <time>2026-02-02T08:45:22Z</time>
      </trkpt>
      <trkpt lat="45.95377" lon="6.56525">
        <ele>2186.3</ele>
        <time>2026-02-02T08:45:23Z</time>
      </trkpt>
      <trkpt lat="45.95376" lon="6.56524">
        <ele>2186.4</ele>
        <time>2026-02-02T08:45:24Z</time>
      </trkpt>
      <trkpt lat="45.95376" lon="6.56523">
        <ele>2186.5</ele>
        <time>2026-02-02T08:45:25Z</time>
      </trkpt>
      <trkpt lat="45.95375" lon="6.56522">
        <ele>2186.8</ele>
        <time>2026-02-02T08:45:26Z</time>
      </trkpt>
      <trkpt lat="45.95374" lon="6.56522">
        <ele>2187.1</ele>
        <time>2026-02-02T08:45:27Z</time>
      </trkpt>
      <trkpt lat="45.95373" lon="6.56521">
        <ele>2187.4</ele>
        <time>2026-02-02T08:45:28Z</time>
      </trkpt>
      <trkpt lat="45.95372" lon="6.5652">
        <ele>2187.5</ele>
        <time>2026-02-02T08:45:29Z</time>
      </trkpt>
      <trkpt lat="45.95372" lon="6.56519">
        <ele>2187.7</ele>
        <time>2026-02-02T08:45:30Z</time>
      </trkpt>
      <trkpt lat="45.95372" lon="6.56518">
        <ele>2188</ele>
        <time>2026-02-02T08:45:31Z</time>
      </trkpt>
      <trkpt lat="45.95372" lon="6.56517">
        <ele>2188.2</ele>
        <time>2026-02-02T08:45:32Z</time>
      </trkpt>
      <trkpt lat="45.95371" lon="6.56516">
        <ele>2188.5</ele>
        <time>2026-02-02T08:45:33Z</time>
      </trkpt>
      <trkpt lat="45.9537" lon="6.56514">
        <ele>2188.8</ele>
        <time>2026-02-02T08:45:34Z</time>
      </trkpt>
      <trkpt lat="45.9537" lon="6.56513">
        <ele>2189</ele>
        <time>2026-02-02T08:45:35Z</time>
      </trkpt>
      <trkpt lat="45.95369" lon="6.56512">
        <ele>2189.2</ele>
        <time>2026-02-02T08:45:36Z</time>
      </trkpt>
      <trkpt lat="45.95369" lon="6.56511">
        <ele>2189.5</ele>
        <time>2026-02-02T08:45:37Z</time>
      </trkpt>
      <trkpt lat="45.95368" lon="6.5651">
        <ele>2189.7</ele>
        <time>2026-02-02T08:45:38Z</time>
      </trkpt>
      <trkpt lat="45.95368" lon="6.56509">
        <ele>2190</ele>
        <time>2026-02-02T08:45:39Z</time>
      </trkpt>
      <trkpt lat="45.95367" lon="6.56509">
        <ele>2190.2</ele>
        <time>2026-02-02T08:45:40Z</time>
      </trkpt>
      <trkpt lat="45.95366" lon="6.56508">
        <ele>2190.5</ele>
        <time>2026-02-02T08:45:41Z</time>
      </trkpt>
      <trkpt lat="45.95366" lon="6.56507">
        <ele>2190.6</ele>
        <time>2026-02-02T08:45:42Z</time>
      </trkpt>
      <trkpt lat="45.95365" lon="6.56507">
        <ele>2190.8</ele>
        <time>2026-02-02T08:45:43Z</time>
      </trkpt>
      <trkpt lat="45.95365" lon="6.56506">
        <ele>2191</ele>
        <time>2026-02-02T08:45:44Z</time>
      </trkpt>
      <trkpt lat="45.95364" lon="6.56506">
        <ele>2191.2</ele>
        <time>2026-02-02T08:45:45Z</time>
      </trkpt>
      <trkpt lat="45.95363" lon="6.56506">
        <ele>2191.5</ele>
        <time>2026-02-02T08:45:46Z</time>
      </trkpt>
      <trkpt lat="45.95363" lon="6.56505">
        <ele>2191.7</ele>
        <time>2026-02-02T08:45:47Z</time>
      </trkpt>
      <trkpt lat="45.95362" lon="6.56505">
        <ele>2191.9</ele>
        <time>2026-02-02T08:45:48Z</time>
      </trkpt>
      <trkpt lat="45.95362" lon="6.56505">
        <ele>2192.1</ele>
        <time>2026-02-02T08:45:49Z</time>
      </trkpt>
      <trkpt lat="45.95361" lon="6.56505">
        <ele>2192.2</ele>
        <time>2026-02-02T08:45:50Z</time>
      </trkpt>
      <trkpt lat="45.95361" lon="6.56504">
        <ele>2192.4</ele>
        <time>2026-02-02T08:45:51Z</time>
      </trkpt>
      <trkpt lat="45.9536" lon="6.56504">
        <ele>2192.6</ele>
        <time>2026-02-02T08:45:52Z</time>
      </trkpt>
      <trkpt lat="45.9536" lon="6.56504">
        <ele>2192.7</ele>
        <time>2026-02-02T08:45:53Z</time>
      </trkpt>
      <trkpt lat="45.9536" lon="6.56504">
        <ele>2192.7</ele>
        <time>2026-02-02T08:45:54Z</time>
      </trkpt>
      <trkpt lat="45.9536" lon="6.56504">
        <ele>2192.7</ele>
        <time>2026-02-02T08:45:55Z</time>
      </trkpt>
      <trkpt lat="45.9536" lon="6.56504">
        <ele>2192.7</ele>
        <time>2026-02-02T08:45:56Z</time>
      </trkpt>
      <trkpt lat="45.9536" lon="6.56504">
        <ele>2192.7</ele>
        <time>2026-02-02T08:45:57Z</time>
      </trkpt>
      <trkpt lat="45.9536" lon="6.56504">
        <ele>2192.7</ele>
        <time>2026-02-02T08:45:58Z</time>
      </trkpt>
      <trkpt lat="45.9536" lon="6.56504">
        <ele>2192.7</ele>
        <time>2026-02-02T08:45:59Z</time>
      </trkpt>
      <trkpt lat="45.9536" lon="6.56504">
        <ele>2192.7</ele>
        <time>2026-02-02T08:46:00Z</time>
      </trkpt>
      <trkpt lat="45.9536" lon="6.56504">
        <ele>2192.8</ele>
        <time>2026-02-02T08:46:01Z</time>
      </trkpt>
      <trkpt lat="45.9536" lon="6.56504">
        <ele>2192.8</ele>
        <time>2026-02-02T08:46:02Z</time>
      </trkpt>
      <trkpt lat="45.9536" lon="6.56504">
        <ele>2192.8</ele>
        <time>2026-02-02T08:46:03Z</time>
      </trkpt>
      <trkpt lat="45.9536" lon="6.56504">
        <ele>2192.8</ele>
        <time>2026-02-02T08:46:04Z</time>
      </trkpt>
      <trkpt lat="45.9536" lon="6.56504">
        <ele>2192.8</ele>
        <time>2026-02-02T08:46:05Z</time>
      </trkpt>
      <trkpt lat="45.9536" lon="6.56504">
        <ele>2192.9</ele>
        <time>2026-02-02T08:46:06Z</time>
      </trkpt>
      <trkpt lat="45.9536" lon="6.56504">
        <ele>2192.9</ele>
        <time>2026-02-02T08:46:07Z</time>
      </trkpt>
      <trkpt lat="45.9536" lon="6.56504">
        <ele>2192.9</ele>
        <time>2026-02-02T08:46:08Z</time>
      </trkpt>
      <trkpt lat="45.9536" lon="6.56504">
        <ele>2192.9</ele>
        <time>2026-02-02T08:46:09Z</time>
      </trkpt>
      <trkpt lat="45.9536" lon="6.56504">
        <ele>2192.9</ele>
        <time>2026-02-02T08:46:10Z</time>
      </trkpt>
      <trkpt lat="45.9536" lon="6.56504">
        <ele>2192.9</ele>
        <time>2026-02-02T08:46:11Z</time>
      </trkpt>
      <trkpt lat="45.9536" lon="6.56504">
        <ele>2192.9</ele>
        <time>2026-02-02T08:46:12Z</time>
      </trkpt>
      <trkpt lat="45.9536" lon="6.56504">
        <ele>2192.9</ele>
        <time>2026-02-02T08:46:13Z</time>
      </trkpt>
      <trkpt lat="45.9536" lon="6.56504">
        <ele>2192.9</ele>
        <time>2026-02-02T08:46:14Z</time>
      </trkpt>
      <trkpt lat="45.9536" lon="6.56504">
        <ele>2192.9</ele>
        <time>2026-02-02T08:46:15Z</time>
      </trkpt>
      <trkpt lat="45.9536" lon="6.56504">
        <ele>2192.9</ele>
        <time>2026-02-02T08:46:16Z</time>
      </trkpt>
      <trkpt lat="45.9536" lon="6.56504">
        <ele>2192.9</ele>
        <time>2026-02-02T08:46:17Z</time>
      </trkpt>
      <trkpt lat="45.9536" lon="6.56504">
        <ele>2192.9</ele>
        <time>2026-02-02T08:46:18Z</time>
      </trkpt>
      <trkpt lat="45.9536" lon="6.56504">
        <ele>2192.9</ele>
        <time>2026-02-02T08:46:19Z</time>
      </trkpt>
      <trkpt lat="45.9536" lon="6.56504">
        <ele>2192.9</ele>
        <time>2026-02-02T08:46:20Z</time>
      </trkpt>
      <trkpt lat="45.9536" lon="6.56504">
        <ele>2192.9</ele>
        <time>2026-02-02T08:46:21Z</time>
      </trkpt>
      <trkpt lat="45.9536" lon="6.56504">
        <ele>2192.9</ele>
        <time>2026-02-02T08:46:22Z</time>
      </trkpt>
      <trkpt lat="45.9536" lon="6.56504">
        <ele>2193</ele>
        <time>2026-02-02T08:46:23Z</time>
      </trkpt>
      <trkpt lat="45.9536" lon="6.56504">
        <ele>2193</ele>
        <time>2026-02-02T08:46:24Z</time>
      </trkpt>
      <trkpt lat="45.95359" lon="6.56504">
        <ele>2193.2</ele>
        <time>2026-02-02T08:46:25Z</time>
      </trkpt>
      <trkpt lat="45.95359" lon="6.56504">
        <ele>2193.4</ele>
        <time>2026-02-02T08:46:26Z</time>
      </trkpt>
      <trkpt lat="45.95358" lon="6.56503">
        <ele>2193.6</ele>
        <time>2026-02-02T08:46:27Z</time>
      </trkpt>
      <trkpt lat="45.95358" lon="6.56503">
        <ele>2193.9</ele>
        <time>2026-02-02T08:46:28Z</time>
      </trkpt>
      <trkpt lat="45.95357" lon="6.56502">
        <ele>2194</ele>
        <time>2026-02-02T08:46:29Z</time>
      </trkpt>
      <trkpt lat="45.95357" lon="6.56502">
        <ele>2194.2</ele>
        <time>2026-02-02T08:46:30Z</time>
      </trkpt>
      <trkpt lat="45.95358" lon="6.56499">
        <ele>2194.8</ele>
        <time>2026-02-02T08:46:31Z</time>
      </trkpt>
      <trkpt lat="45.95358" lon="6.56499">
        <ele>2195.1</ele>
        <time>2026-02-02T08:46:32Z</time>
      </trkpt>
      <trkpt lat="45.95358" lon="6.56498">
        <ele>2195.4</ele>
        <time>2026-02-02T08:46:33Z</time>
      </trkpt>
      <trkpt lat="45.95358" lon="6.56498">
        <ele>2195.5</ele>
        <time>2026-02-02T08:46:34Z</time>
      </trkpt>
      <trkpt lat="45.95358" lon="6.56496">
        <ele>2196</ele>
        <time>2026-02-02T08:46:35Z</time>
      </trkpt>
      <trkpt lat="45.95357" lon="6.56496">
        <ele>2196.2</ele>
        <time>2026-02-02T08:46:36Z</time>
      </trkpt>
      <trkpt lat="45.95357" lon="6.56495">
        <ele>2196.5</ele>
        <time>2026-02-02T08:46:37Z</time>
      </trkpt>
      <trkpt lat="45.95357" lon="6.56494">
        <ele>2196.6</ele>
        <time>2026-02-02T08:46:38Z</time>
      </trkpt>
      <trkpt lat="45.95357" lon="6.56492">
        <ele>2197.3</ele>
        <time>2026-02-02T08:46:39Z</time>
      </trkpt>
      <trkpt lat="45.95357" lon="6.5649">
        <ele>2197.9</ele>
        <time>2026-02-02T08:46:40Z</time>
      </trkpt>
      <trkpt lat="45.95357" lon="6.5649">
        <ele>2198.1</ele>
        <time>2026-02-02T08:46:41Z</time>
      </trkpt>
      <trkpt lat="45.95357" lon="6.56489">
        <ele>2198.4</ele>
        <time>2026-02-02T08:46:42Z</time>
      </trkpt>
      <trkpt lat="45.95357" lon="6.56489">
        <ele>2198.5</ele>
        <time>2026-02-02T08:46:43Z</time>
      </trkpt>
      <trkpt lat="45.95356" lon="6.56488">
        <ele>2198.6</ele>
        <time>2026-02-02T08:46:44Z</time>
      </trkpt>
      <trkpt lat="45.95356" lon="6.56488">
        <ele>2198.9</ele>
        <time>2026-02-02T08:46:45Z</time>
      </trkpt>
      <trkpt lat="45.95356" lon="6.56487">
        <ele>2199</ele>
        <time>2026-02-02T08:46:46Z</time>
      </trkpt>
      <trkpt lat="45.95355" lon="6.56486">
        <ele>2199.5</ele>
        <time>2026-02-02T08:46:47Z</time>
      </trkpt>
      <trkpt lat="45.95355" lon="6.56484">
        <ele>2200.1</ele>
        <time>2026-02-02T08:46:48Z</time>
      </trkpt>
      <trkpt lat="45.95355" lon="6.56483">
        <ele>2200.5</ele>
        <time>2026-02-02T08:46:49Z</time>
      </trkpt>
      <trkpt lat="45.95355" lon="6.56481">
        <ele>2201.1</ele>
        <time>2026-02-02T08:46:50Z</time>
      </trkpt>
      <trkpt lat="45.95355" lon="6.5648">
        <ele>2201.5</ele>
        <time>2026-02-02T08:46:51Z</time>
      </trkpt>
      <trkpt lat="45.95356" lon="6.56479">
        <ele>2201.8</ele>
        <time>2026-02-02T08:46:52Z</time>
      </trkpt>
      <trkpt lat="45.95356" lon="6.5648">
        <ele>2202.1</ele>
        <time>2026-02-02T08:46:53Z</time>
      </trkpt>
      <trkpt lat="45.95356" lon="6.5648">
        <ele>2202.3</ele>
        <time>2026-02-02T08:46:54Z</time>
      </trkpt>
      <trkpt lat="45.95358" lon="6.56481">
        <ele>2203</ele>
        <time>2026-02-02T08:46:55Z</time>
      </trkpt>
      <trkpt lat="45.95358" lon="6.56482">
        <ele>2203.3</ele>
        <time>2026-02-02T08:46:56Z</time>
      </trkpt>
      <trkpt lat="45.95359" lon="6.56483">
        <ele>2203.7</ele>
        <time>2026-02-02T08:46:57Z</time>
      </trkpt>
      <trkpt lat="45.95359" lon="6.56483">
        <ele>2203.9</ele>
        <time>2026-02-02T08:46:58Z</time>
      </trkpt>
      <trkpt lat="45.95359" lon="6.56483">
        <ele>2204</ele>
        <time>2026-02-02T08:46:59Z</time>
      </trkpt>
      <trkpt lat="45.95359" lon="6.56483">
        <ele>2204</ele>
        <time>2026-02-02T08:47:00Z</time>
      </trkpt>
      <trkpt lat="45.95359" lon="6.56483">
        <ele>2204.2</ele>
        <time>2026-02-02T08:47:01Z</time>
      </trkpt>
      <trkpt lat="45.95359" lon="6.56483">
        <ele>2204.3</ele>
        <time>2026-02-02T08:47:02Z</time>
      </trkpt>
      <trkpt lat="45.95358" lon="6.56483">
        <ele>2204.4</ele>
        <time>2026-02-02T08:47:03Z</time>
      </trkpt>
      <trkpt lat="45.95358" lon="6.56483">
        <ele>2204.4</ele>
        <time>2026-02-02T08:47:04Z</time>
      </trkpt>
      <trkpt lat="45.95358" lon="6.56483">
        <ele>2204.5</ele>
        <time>2026-02-02T08:47:05Z</time>
      </trkpt>
      <trkpt lat="45.95358" lon="6.56483">
        <ele>2204.5</ele>
        <time>2026-02-02T08:47:06Z</time>
      </trkpt>
      <trkpt lat="45.95358" lon="6.56483">
        <ele>2204.6</ele>
        <time>2026-02-02T08:47:07Z</time>
      </trkpt>
      <trkpt lat="45.95358" lon="6.56483">
        <ele>2204.6</ele>
        <time>2026-02-02T08:47:08Z</time>
      </trkpt>
      <trkpt lat="45.95358" lon="6.56483">
        <ele>2204.6</ele>
        <time>2026-02-02T08:47:09Z</time>
      </trkpt>
      <trkpt lat="45.95358" lon="6.56483">
        <ele>2204.7</ele>
        <time>2026-02-02T08:47:10Z</time>
      </trkpt>
      <trkpt lat="45.95358" lon="6.56483">
        <ele>2204.7</ele>
        <time>2026-02-02T08:47:11Z</time>
      </trkpt>
      <trkpt lat="45.95358" lon="6.56483">
        <ele>2204.8</ele>
        <time>2026-02-02T08:47:12Z</time>
      </trkpt>
      <trkpt lat="45.95359" lon="6.56483">
        <ele>2205</ele>
        <time>2026-02-02T08:47:13Z</time>
      </trkpt>
      <trkpt lat="45.95359" lon="6.56483">
        <ele>2205.4</ele>
        <time>2026-02-02T08:47:14Z</time>
      </trkpt>
      <trkpt lat="45.95359" lon="6.56482">
        <ele>2205.7</ele>
        <time>2026-02-02T08:47:15Z</time>
      </trkpt>
      <trkpt lat="45.95359" lon="6.5648">
        <ele>2206.1</ele>
        <time>2026-02-02T08:47:16Z</time>
      </trkpt>
      <trkpt lat="45.95359" lon="6.56479">
        <ele>2206.6</ele>
        <time>2026-02-02T08:47:17Z</time>
      </trkpt>
      <trkpt lat="45.95358" lon="6.56477">
        <ele>2207.2</ele>
        <time>2026-02-02T08:47:18Z</time>
      </trkpt>
      <trkpt lat="45.95358" lon="6.56476">
        <ele>2207.8</ele>
        <time>2026-02-02T08:47:19Z</time>
      </trkpt>
      <trkpt lat="45.95357" lon="6.56474">
        <ele>2208.4</ele>
        <time>2026-02-02T08:47:20Z</time>
      </trkpt>
      <trkpt lat="45.95357" lon="6.56474">
        <ele>2208.7</ele>
        <time>2026-02-02T08:47:21Z</time>
      </trkpt>
      <trkpt lat="45.95356" lon="6.56473">
        <ele>2209</ele>
        <time>2026-02-02T08:47:22Z</time>
      </trkpt>
      <trkpt lat="45.95356" lon="6.56472">
        <ele>2209.4</ele>
        <time>2026-02-02T08:47:23Z</time>
      </trkpt>
      <trkpt lat="45.95355" lon="6.56471">
        <ele>2209.8</ele>
        <time>2026-02-02T08:47:24Z</time>
      </trkpt>
      <trkpt lat="45.95355" lon="6.5647">
        <ele>2210.3</ele>
        <time>2026-02-02T08:47:25Z</time>
      </trkpt>
      <trkpt lat="45.95355" lon="6.56469">
        <ele>2210.3</ele>
        <time>2026-02-02T08:47:26Z</time>
      </trkpt>
      <trkpt lat="45.95355" lon="6.5647">
        <ele>2210.6</ele>
        <time>2026-02-02T08:47:27Z</time>
      </trkpt>
      <trkpt lat="45.95356" lon="6.5647">
        <ele>2210.8</ele>
        <time>2026-02-02T08:47:28Z</time>
      </trkpt>
      <trkpt lat="45.95356" lon="6.5647">
        <ele>2211</ele>
        <time>2026-02-02T08:47:29Z</time>
      </trkpt>
      <trkpt lat="45.95356" lon="6.5647">
        <ele>2211.1</ele>
        <time>2026-02-02T08:47:30Z</time>
      </trkpt>
      <trkpt lat="45.95356" lon="6.56469">
        <ele>2211.3</ele>
        <time>2026-02-02T08:47:31Z</time>
      </trkpt>
      <trkpt lat="45.95355" lon="6.56469">
        <ele>2211.5</ele>
        <time>2026-02-02T08:47:32Z</time>
      </trkpt>
      <trkpt lat="45.95355" lon="6.56468">
        <ele>2211.6</ele>
        <time>2026-02-02T08:47:33Z</time>
      </trkpt>
      <trkpt lat="45.95355" lon="6.56467">
        <ele>2211.4</ele>
        <time>2026-02-02T08:47:34Z</time>
      </trkpt>
      <trkpt lat="45.95354" lon="6.56466">
        <ele>2211.1</ele>
        <time>2026-02-02T08:47:35Z</time>
      </trkpt>
      <trkpt lat="45.95354" lon="6.56465">
        <ele>2210.8</ele>
        <time>2026-02-02T08:47:36Z</time>
      </trkpt>
      <trkpt lat="45.95353" lon="6.56463">
        <ele>2210.5</ele>
        <time>2026-02-02T08:47:37Z</time>
      </trkpt>
      <trkpt lat="45.95352" lon="6.56463">
        <ele>2210.3</ele>
        <time>2026-02-02T08:47:38Z</time>
      </trkpt>
      <trkpt lat="45.95352" lon="6.56462">
        <ele>2210.2</ele>
        <time>2026-02-02T08:47:39Z</time>
      </trkpt>
      <trkpt lat="45.95352" lon="6.56462">
        <ele>2210.2</ele>
        <time>2026-02-02T08:47:40Z</time>
      </trkpt>
      <trkpt lat="45.95352" lon="6.56463">
        <ele>2210.1</ele>
        <time>2026-02-02T08:47:41Z</time>
      </trkpt>
      <trkpt lat="45.95351" lon="6.56463">
        <ele>2210</ele>
        <time>2026-02-02T08:47:42Z</time>
      </trkpt>
      <trkpt lat="45.95351" lon="6.56462">
        <ele>2209.8</ele>
        <time>2026-02-02T08:47:43Z</time>
      </trkpt>
      <trkpt lat="45.9535" lon="6.56462">
        <ele>2209.6</ele>
        <time>2026-02-02T08:47:44Z</time>
      </trkpt>
      <trkpt lat="45.95349" lon="6.56462">
        <ele>2209.3</ele>
        <time>2026-02-02T08:47:45Z</time>
      </trkpt>
      <trkpt lat="45.95348" lon="6.56462">
        <ele>2209</ele>
        <time>2026-02-02T08:47:46Z</time>
      </trkpt>
      <trkpt lat="45.95347" lon="6.56462">
        <ele>2208.8</ele>
        <time>2026-02-02T08:47:47Z</time>
      </trkpt>
      <trkpt lat="45.95346" lon="6.56462">
        <ele>2208.5</ele>
        <time>2026-02-02T08:47:48Z</time>
      </trkpt>
      <trkpt lat="45.95345" lon="6.56462">
        <ele>2208.3</ele>
        <time>2026-02-02T08:47:49Z</time>
      </trkpt>
      <trkpt lat="45.95345" lon="6.56461">
        <ele>2208.2</ele>
        <time>2026-02-02T08:47:50Z</time>
      </trkpt>
      <trkpt lat="45.95344" lon="6.56461">
        <ele>2208.2</ele>
        <time>2026-02-02T08:47:51Z</time>
      </trkpt>
      <trkpt lat="45.95344" lon="6.56461">
        <ele>2208</ele>
        <time>2026-02-02T08:47:52Z</time>
      </trkpt>
      <trkpt lat="45.95344" lon="6.56461">
        <ele>2207.9</ele>
        <time>2026-02-02T08:47:53Z</time>
      </trkpt>
      <trkpt lat="45.95343" lon="6.56461">
        <ele>2207.8</ele>
        <time>2026-02-02T08:47:54Z</time>
      </trkpt>
      <trkpt lat="45.95343" lon="6.56462">
        <ele>2207.8</ele>
        <time>2026-02-02T08:47:55Z</time>
      </trkpt>
      <trkpt lat="45.95342" lon="6.56462">
        <ele>2207.6</ele>
        <time>2026-02-02T08:47:56Z</time>
      </trkpt>
      <trkpt lat="45.95342" lon="6.56462">
        <ele>2207.4</ele>
        <time>2026-02-02T08:47:57Z</time>
      </trkpt>
      <trkpt lat="45.95341" lon="6.56462">
        <ele>2207.3</ele>
        <time>2026-02-02T08:47:58Z</time>
      </trkpt>
      <trkpt lat="45.95341" lon="6.56462">
        <ele>2207.2</ele>
        <time>2026-02-02T08:47:59Z</time>
      </trkpt>
      <trkpt lat="45.95341" lon="6.56462">
        <ele>2207.2</ele>
        <time>2026-02-02T08:48:00Z</time>
      </trkpt>
      <trkpt lat="45.95341" lon="6.56462">
        <ele>2207.1</ele>
        <time>2026-02-02T08:48:01Z</time>
      </trkpt>
      <trkpt lat="45.9534" lon="6.56462">
        <ele>2207</ele>
        <time>2026-02-02T08:48:02Z</time>
      </trkpt>
      <trkpt lat="45.9534" lon="6.56462">
        <ele>2207</ele>
        <time>2026-02-02T08:48:03Z</time>
      </trkpt>
      <trkpt lat="45.9534" lon="6.56462">
        <ele>2206.9</ele>
        <time>2026-02-02T08:48:04Z</time>
      </trkpt>
      <trkpt lat="45.95339" lon="6.56463">
        <ele>2206.7</ele>
        <time>2026-02-02T08:48:05Z</time>
      </trkpt>
      <trkpt lat="45.95339" lon="6.56463">
        <ele>2206.6</ele>
        <time>2026-02-02T08:48:06Z</time>
      </trkpt>
      <trkpt lat="45.95339" lon="6.56463">
        <ele>2206.5</ele>
        <time>2026-02-02T08:48:07Z</time>
      </trkpt>
      <trkpt lat="45.95338" lon="6.56463">
        <ele>2206.4</ele>
        <time>2026-02-02T08:48:08Z</time>
      </trkpt>
      <trkpt lat="45.95338" lon="6.56463">
        <ele>2206.3</ele>
        <time>2026-02-02T08:48:09Z</time>
      </trkpt>
      <trkpt lat="45.95338" lon="6.56463">
        <ele>2206.3</ele>
        <time>2026-02-02T08:48:10Z</time>
      </trkpt>
      <trkpt lat="45.95338" lon="6.56463">
        <ele>2206.3</ele>
        <time>2026-02-02T08:48:11Z</time>
      </trkpt>
      <trkpt lat="45.95338" lon="6.56463">
        <ele>2206.3</ele>
        <time>2026-02-02T08:48:12Z</time>
      </trkpt>
      <trkpt lat="45.95338" lon="6.56463">
        <ele>2206.3</ele>
        <time>2026-02-02T08:48:13Z</time>
      </trkpt>
      <trkpt lat="45.95338" lon="6.56463">
        <ele>2206.3</ele>
        <time>2026-02-02T08:48:14Z</time>
      </trkpt>
      <trkpt lat="45.95338" lon="6.56463">
        <ele>2206.3</ele>
        <time>2026-02-02T08:48:15Z</time>
      </trkpt>
      <trkpt lat="45.95338" lon="6.56463">
        <ele>2206.2</ele>
        <time>2026-02-02T08:48:16Z</time>
      </trkpt>
      <trkpt lat="45.95338" lon="6.56463">
        <ele>2206.1</ele>
        <time>2026-02-02T08:48:17Z</time>
      </trkpt>
      <trkpt lat="45.95338" lon="6.56463">
        <ele>2206.1</ele>
        <time>2026-02-02T08:48:18Z</time>
      </trkpt>
      <trkpt lat="45.95337" lon="6.56463">
        <ele>2206</ele>
        <time>2026-02-02T08:48:19Z</time>
      </trkpt>
      <trkpt lat="45.95337" lon="6.56463">
        <ele>2206</ele>
        <time>2026-02-02T08:48:20Z</time>
      </trkpt>
      <trkpt lat="45.95337" lon="6.56463">
        <ele>2206</ele>
        <time>2026-02-02T08:48:21Z</time>
      </trkpt>
      <trkpt lat="45.95337" lon="6.56463">
        <ele>2206</ele>
        <time>2026-02-02T08:48:22Z</time>
      </trkpt>
      <trkpt lat="45.95337" lon="6.56463">
        <ele>2206</ele>
        <time>2026-02-02T08:48:23Z</time>
      </trkpt>
      <trkpt lat="45.95337" lon="6.56463">
        <ele>2205.9</ele>
        <time>2026-02-02T08:48:25Z</time>
      </trkpt>
      <trkpt lat="45.95338" lon="6.56463">
        <ele>2205.9</ele>
        <time>2026-02-02T08:48:26Z</time>
      </trkpt>
      <trkpt lat="45.95338" lon="6.56463">
        <ele>2205.8</ele>
        <time>2026-02-02T08:48:27Z</time>
      </trkpt>
      <trkpt lat="45.95337" lon="6.56463">
        <ele>2205.8</ele>
        <time>2026-02-02T08:48:28Z</time>
      </trkpt>
      <trkpt lat="45.95337" lon="6.56464">
        <ele>2205.7</ele>
        <time>2026-02-02T08:48:29Z</time>
      </trkpt>
      <trkpt lat="45.95337" lon="6.56464">
        <ele>2205.6</ele>
        <time>2026-02-02T08:48:30Z</time>
      </trkpt>
      <trkpt lat="45.95337" lon="6.56464">
        <ele>2205.5</ele>
        <time>2026-02-02T08:48:31Z</time>
      </trkpt>
      <trkpt lat="45.95337" lon="6.56465">
        <ele>2205.4</ele>
        <time>2026-02-02T08:48:32Z</time>
      </trkpt>
      <trkpt lat="45.95336" lon="6.56465">
        <ele>2205.4</ele>
        <time>2026-02-02T08:48:33Z</time>
      </trkpt>
      <trkpt lat="45.95336" lon="6.56465">
        <ele>2205.3</ele>
        <time>2026-02-02T08:48:34Z</time>
      </trkpt>
      <trkpt lat="45.95336" lon="6.56465">
        <ele>2205.3</ele>
        <time>2026-02-02T08:48:36Z</time>
      </trkpt>
      <trkpt lat="45.95337" lon="6.56465">
        <ele>2205.3</ele>
        <time>2026-02-02T08:48:37Z</time>
      </trkpt>
      <trkpt lat="45.95337" lon="6.56464">
        <ele>2205.2</ele>
        <time>2026-02-02T08:48:38Z</time>
      </trkpt>
      <trkpt lat="45.95337" lon="6.56464">
        <ele>2205.2</ele>
        <time>2026-02-02T08:48:39Z</time>
      </trkpt>
      <trkpt lat="45.95337" lon="6.56464">
        <ele>2205.2</ele>
        <time>2026-02-02T08:48:40Z</time>
      </trkpt>
      <trkpt lat="45.95337" lon="6.56465">
        <ele>2205.2</ele>
        <time>2026-02-02T08:48:41Z</time>
      </trkpt>
      <trkpt lat="45.95337" lon="6.56465">
        <ele>2205.1</ele>
        <time>2026-02-02T08:48:42Z</time>
      </trkpt>
      <trkpt lat="45.95337" lon="6.56464">
        <ele>2205.1</ele>
        <time>2026-02-02T08:48:43Z</time>
      </trkpt>
      <trkpt lat="45.95337" lon="6.56464">
        <ele>2205.1</ele>
        <time>2026-02-02T08:48:44Z</time>
      </trkpt>
      <trkpt lat="45.95337" lon="6.56464">
        <ele>2205.1</ele>
        <time>2026-02-02T08:48:45Z</time>
      </trkpt>
      <trkpt lat="45.95337" lon="6.56464">
        <ele>2205.1</ele>
        <time>2026-02-02T08:48:46Z</time>
      </trkpt>
      <trkpt lat="45.95337" lon="6.56464">
        <ele>2205.1</ele>
        <time>2026-02-02T08:48:47Z</time>
      </trkpt>
      <trkpt lat="45.95337" lon="6.56464">
        <ele>2205</ele>
        <time>2026-02-02T08:48:48Z</time>
      </trkpt>
      <trkpt lat="45.95337" lon="6.56464">
        <ele>2205</ele>
        <time>2026-02-02T08:48:49Z</time>
      </trkpt>
      <trkpt lat="45.95337" lon="6.56464">
        <ele>2205</ele>
        <time>2026-02-02T08:48:50Z</time>
      </trkpt>
      <trkpt lat="45.95337" lon="6.56464">
        <ele>2205</ele>
        <time>2026-02-02T08:48:51Z</time>
      </trkpt>
      <trkpt lat="45.95337" lon="6.56464">
        <ele>2204.9</ele>
        <time>2026-02-02T08:48:52Z</time>
      </trkpt>
      <trkpt lat="45.95337" lon="6.56464">
        <ele>2204.9</ele>
        <time>2026-02-02T08:48:53Z</time>
      </trkpt>
      <trkpt lat="45.95337" lon="6.56464">
        <ele>2204.9</ele>
        <time>2026-02-02T08:48:54Z</time>
      </trkpt>
      <trkpt lat="45.95337" lon="6.56464">
        <ele>2204.8</ele>
        <time>2026-02-02T08:48:55Z</time>
      </trkpt>
      <trkpt lat="45.95337" lon="6.56464">
        <ele>2204.8</ele>
        <time>2026-02-02T08:48:56Z</time>
      </trkpt>
      <trkpt lat="45.95337" lon="6.56464">
        <ele>2204.8</ele>
        <time>2026-02-02T08:48:57Z</time>
      </trkpt>
      <trkpt lat="45.95337" lon="6.56464">
        <ele>2204.8</ele>
        <time>2026-02-02T08:48:58Z</time>
      </trkpt>
      <trkpt lat="45.95337" lon="6.56464">
        <ele>2204.7</ele>
        <time>2026-02-02T08:48:59Z</time>
      </trkpt>
      <trkpt lat="45.95337" lon="6.56464">
        <ele>2204.7</ele>
        <time>2026-02-02T08:49:01Z</time>
      </trkpt>
      <trkpt lat="45.95337" lon="6.56464">
        <ele>2204.7</ele>
        <time>2026-02-02T08:49:02Z</time>
      </trkpt>
      <trkpt lat="45.95337" lon="6.56464">
        <ele>2204.7</ele>
        <time>2026-02-02T08:49:03Z</time>
      </trkpt>
      <trkpt lat="45.95337" lon="6.56464">
        <ele>2204.7</ele>
        <time>2026-02-02T08:49:04Z</time>
      </trkpt>
      <trkpt lat="45.95337" lon="6.56464">
        <ele>2204.7</ele>
        <time>2026-02-02T08:49:05Z</time>
      </trkpt>
      <trkpt lat="45.95337" lon="6.56463">
        <ele>2204.7</ele>
        <time>2026-02-02T08:49:06Z</time>
      </trkpt>
      <trkpt lat="45.95337" lon="6.56463">
        <ele>2204.6</ele>
        <time>2026-02-02T08:49:07Z</time>
      </trkpt>
      <trkpt lat="45.95337" lon="6.56463">
        <ele>2204.5</ele>
        <time>2026-02-02T08:49:08Z</time>
      </trkpt>
      <trkpt lat="45.95336" lon="6.5646">
        <ele>2204.1</ele>
        <time>2026-02-02T08:49:09Z</time>
      </trkpt>
      <trkpt lat="45.95336" lon="6.56461">
        <ele>2203.9</ele>
        <time>2026-02-02T08:49:10Z</time>
      </trkpt>
      <trkpt lat="45.95336" lon="6.56461">
        <ele>2203.9</ele>
        <time>2026-02-02T08:49:11Z</time>
      </trkpt>
      <trkpt lat="45.95336" lon="6.56461">
        <ele>2203.9</ele>
        <time>2026-02-02T08:49:12Z</time>
      </trkpt>
      <trkpt lat="45.95336" lon="6.56461">
        <ele>2203.8</ele>
        <time>2026-02-02T08:49:13Z</time>
      </trkpt>
      <trkpt lat="45.95336" lon="6.56461">
        <ele>2203.8</ele>
        <time>2026-02-02T08:49:14Z</time>
      </trkpt>
      <trkpt lat="45.95336" lon="6.56461">
        <ele>2203.6</ele>
        <time>2026-02-02T08:49:15Z</time>
      </trkpt>
      <trkpt lat="45.95336" lon="6.56461">
        <ele>2203.6</ele>
        <time>2026-02-02T08:49:16Z</time>
      </trkpt>
      <trkpt lat="45.95336" lon="6.56461">
        <ele>2203.4</ele>
        <time>2026-02-02T08:49:17Z</time>
      </trkpt>
      <trkpt lat="45.95335" lon="6.5646">
        <ele>2203.2</ele>
        <time>2026-02-02T08:49:18Z</time>
      </trkpt>
      <trkpt lat="45.95335" lon="6.56459">
        <ele>2203.1</ele>
        <time>2026-02-02T08:49:19Z</time>
      </trkpt>
      <trkpt lat="45.95335" lon="6.56457">
        <ele>2202.7</ele>
        <time>2026-02-02T08:49:20Z</time>
      </trkpt>
      <trkpt lat="45.95335" lon="6.56456">
        <ele>2202.5</ele>
        <time>2026-02-02T08:49:21Z</time>
      </trkpt>
      <trkpt lat="45.95334" lon="6.56454">
        <ele>2202.1</ele>
        <time>2026-02-02T08:49:22Z</time>
      </trkpt>
      <trkpt lat="45.95335" lon="6.56454">
        <ele>2202.1</ele>
        <time>2026-02-02T08:49:23Z</time>
      </trkpt>
      <trkpt lat="45.95335" lon="6.56454">
        <ele>2202</ele>
        <time>2026-02-02T08:49:24Z</time>
      </trkpt>
      <trkpt lat="45.95335" lon="6.56454">
        <ele>2202</ele>
        <time>2026-02-02T08:49:25Z</time>
      </trkpt>
      <trkpt lat="45.95335" lon="6.56454">
        <ele>2202</ele>
        <time>2026-02-02T08:49:26Z</time>
      </trkpt>
      <trkpt lat="45.95335" lon="6.56454">
        <ele>2201.9</ele>
        <time>2026-02-02T08:49:27Z</time>
      </trkpt>
      <trkpt lat="45.95334" lon="6.56453">
        <ele>2201.8</ele>
        <time>2026-02-02T08:49:28Z</time>
      </trkpt>
      <trkpt lat="45.95335" lon="6.56453">
        <ele>2201.7</ele>
        <time>2026-02-02T08:49:29Z</time>
      </trkpt>
      <trkpt lat="45.95335" lon="6.56452">
        <ele>2201.6</ele>
        <time>2026-02-02T08:49:30Z</time>
      </trkpt>
      <trkpt lat="45.95335" lon="6.56452">
        <ele>2201.6</ele>
        <time>2026-02-02T08:49:31Z</time>
      </trkpt>
      <trkpt lat="45.95335" lon="6.56452">
        <ele>2201.6</ele>
        <time>2026-02-02T08:49:32Z</time>
      </trkpt>
      <trkpt lat="45.95336" lon="6.56453">
        <ele>2201.4</ele>
        <time>2026-02-02T08:49:33Z</time>
      </trkpt>
      <trkpt lat="45.95335" lon="6.56453">
        <ele>2201.4</ele>
        <time>2026-02-02T08:49:34Z</time>
      </trkpt>
      <trkpt lat="45.95334" lon="6.56452">
        <ele>2201.2</ele>
        <time>2026-02-02T08:49:35Z</time>
      </trkpt>
      <trkpt lat="45.95334" lon="6.56453">
        <ele>2201</ele>
        <time>2026-02-02T08:49:36Z</time>
      </trkpt>
      <trkpt lat="45.95334" lon="6.56452">
        <ele>2200.9</ele>
        <time>2026-02-02T08:49:37Z</time>
      </trkpt>
      <trkpt lat="45.95333" lon="6.56452">
        <ele>2200.8</ele>
        <time>2026-02-02T08:49:38Z</time>
      </trkpt>
      <trkpt lat="45.95333" lon="6.56453">
        <ele>2200.7</ele>
        <time>2026-02-02T08:49:39Z</time>
      </trkpt>
      <trkpt lat="45.95332" lon="6.56454">
        <ele>2200.5</ele>
        <time>2026-02-02T08:49:40Z</time>
      </trkpt>
      <trkpt lat="45.95331" lon="6.56455">
        <ele>2200.3</ele>
        <time>2026-02-02T08:49:41Z</time>
      </trkpt>
      <trkpt lat="45.9533" lon="6.56457">
        <ele>2199.9</ele>
        <time>2026-02-02T08:49:42Z</time>
      </trkpt>
      <trkpt lat="45.95329" lon="6.56458">
        <ele>2199.6</ele>
        <time>2026-02-02T08:49:43Z</time>
      </trkpt>
      <trkpt lat="45.95328" lon="6.56458">
        <ele>2199.4</ele>
        <time>2026-02-02T08:49:44Z</time>
      </trkpt>
      <trkpt lat="45.95326" lon="6.5646">
        <ele>2199</ele>
        <time>2026-02-02T08:49:45Z</time>
      </trkpt>
      <trkpt lat="45.95325" lon="6.56461">
        <ele>2198.8</ele>
        <time>2026-02-02T08:49:46Z</time>
      </trkpt>
      <trkpt lat="45.95324" lon="6.56462">
        <ele>2198.6</ele>
        <time>2026-02-02T08:49:47Z</time>
      </trkpt>
      <trkpt lat="45.95323" lon="6.56462">
        <ele>2198.3</ele>
        <time>2026-02-02T08:49:48Z</time>
      </trkpt>
      <trkpt lat="45.95322" lon="6.56463">
        <ele>2198.1</ele>
        <time>2026-02-02T08:49:49Z</time>
      </trkpt>
      <trkpt lat="45.95321" lon="6.56462">
        <ele>2197.9</ele>
        <time>2026-02-02T08:49:50Z</time>
      </trkpt>
      <trkpt lat="45.9532" lon="6.56462">
        <ele>2197.8</ele>
        <time>2026-02-02T08:49:51Z</time>
      </trkpt>
      <trkpt lat="45.95321" lon="6.56462">
        <ele>2197.6</ele>
        <time>2026-02-02T08:49:52Z</time>
      </trkpt>
      <trkpt lat="45.95321" lon="6.56461">
        <ele>2197.5</ele>
        <time>2026-02-02T08:49:53Z</time>
      </trkpt>
      <trkpt lat="45.95321" lon="6.56461">
        <ele>2197.4</ele>
        <time>2026-02-02T08:49:54Z</time>
      </trkpt>
      <trkpt lat="45.95321" lon="6.5646">
        <ele>2197.2</ele>
        <time>2026-02-02T08:49:55Z</time>
      </trkpt>
      <trkpt lat="45.95321" lon="6.5646">
        <ele>2197.1</ele>
        <time>2026-02-02T08:49:56Z</time>
      </trkpt>
      <trkpt lat="45.95321" lon="6.56459">
        <ele>2197.2</ele>
        <time>2026-02-02T08:49:57Z</time>
      </trkpt>
      <trkpt lat="45.95321" lon="6.56458">
        <ele>2197.8</ele>
        <time>2026-02-02T08:49:58Z</time>
      </trkpt>
      <trkpt lat="45.95321" lon="6.56458">
        <ele>2197.7</ele>
        <time>2026-02-02T08:49:59Z</time>
      </trkpt>
      <trkpt lat="45.95321" lon="6.56457">
        <ele>2197.5</ele>
        <time>2026-02-02T08:50:00Z</time>
      </trkpt>
      <trkpt lat="45.95321" lon="6.56457">
        <ele>2197.4</ele>
        <time>2026-02-02T08:50:01Z</time>
      </trkpt>
      <trkpt lat="45.95321" lon="6.56456">
        <ele>2197.3</ele>
        <time>2026-02-02T08:50:02Z</time>
      </trkpt>
      <trkpt lat="45.95321" lon="6.56456">
        <ele>2197.1</ele>
        <time>2026-02-02T08:50:03Z</time>
      </trkpt>
      <trkpt lat="45.95322" lon="6.56452">
        <ele>2197.7</ele>
        <time>2026-02-02T08:50:04Z</time>
      </trkpt>
      <trkpt lat="45.95323" lon="6.56447">
        <ele>2198.3</ele>
        <time>2026-02-02T08:50:05Z</time>
      </trkpt>
      <trkpt lat="45.95323" lon="6.56443">
        <ele>2198.9</ele>
        <time>2026-02-02T08:50:06Z</time>
      </trkpt>
      <trkpt lat="45.95324" lon="6.56438">
        <ele>2199.4</ele>
        <time>2026-02-02T08:50:07Z</time>
      </trkpt>
      <trkpt lat="45.95324" lon="6.56433">
        <ele>2200.7</ele>
        <time>2026-02-02T08:50:08Z</time>
      </trkpt>
      <trkpt lat="45.95324" lon="6.56429">
        <ele>2201.1</ele>
        <time>2026-02-02T08:50:09Z</time>
      </trkpt>
      <trkpt lat="45.95323" lon="6.56424">
        <ele>2201.2</ele>
        <time>2026-02-02T08:50:10Z</time>
      </trkpt>
      <trkpt lat="45.95323" lon="6.56422">
        <ele>2201.1</ele>
        <time>2026-02-02T08:50:11Z</time>
      </trkpt>
      <trkpt lat="45.95322" lon="6.5642">
        <ele>2201.3</ele>
        <time>2026-02-02T08:50:12Z</time>
      </trkpt>
      <trkpt lat="45.95322" lon="6.56419">
        <ele>2201.2</ele>
        <time>2026-02-02T08:50:13Z</time>
      </trkpt>
      <trkpt lat="45.95322" lon="6.5642">
        <ele>2201.1</ele>
        <time>2026-02-02T08:50:14Z</time>
      </trkpt>
      <trkpt lat="45.95322" lon="6.5642">
        <ele>2201</ele>
        <time>2026-02-02T08:50:15Z</time>
      </trkpt>
      <trkpt lat="45.95322" lon="6.5642">
        <ele>2200.8</ele>
        <time>2026-02-02T08:50:16Z</time>
      </trkpt>
      <trkpt lat="45.95321" lon="6.5642">
        <ele>2200.7</ele>
        <time>2026-02-02T08:50:17Z</time>
      </trkpt>
      <trkpt lat="45.95321" lon="6.5642">
        <ele>2200.1</ele>
        <time>2026-02-02T08:50:18Z</time>
      </trkpt>
      <trkpt lat="45.95321" lon="6.56422">
        <ele>2200</ele>
        <time>2026-02-02T08:50:19Z</time>
      </trkpt>
      <trkpt lat="45.95321" lon="6.56423">
        <ele>2199.9</ele>
        <time>2026-02-02T08:50:20Z</time>
      </trkpt>
      <trkpt lat="45.95321" lon="6.56424">
        <ele>2199.7</ele>
        <time>2026-02-02T08:50:21Z</time>
      </trkpt>
      <trkpt lat="45.9532" lon="6.56425">
        <ele>2198.8</ele>
        <time>2026-02-02T08:50:22Z</time>
      </trkpt>
      <trkpt lat="45.95318" lon="6.56428">
        <ele>2198.6</ele>
        <time>2026-02-02T08:50:23Z</time>
      </trkpt>
      <trkpt lat="45.95317" lon="6.56429">
        <ele>2197.6</ele>
        <time>2026-02-02T08:50:24Z</time>
      </trkpt>
      <trkpt lat="45.95315" lon="6.56433">
        <ele>2197.4</ele>
        <time>2026-02-02T08:50:25Z</time>
      </trkpt>
      <trkpt lat="45.95314" lon="6.56433">
        <ele>2196.8</ele>
        <time>2026-02-02T08:50:26Z</time>
      </trkpt>
      <trkpt lat="45.95312" lon="6.56434">
        <ele>2196.1</ele>
        <time>2026-02-02T08:50:27Z</time>
      </trkpt>
      <trkpt lat="45.9531" lon="6.56434">
        <ele>2195.4</ele>
        <time>2026-02-02T08:50:28Z</time>
      </trkpt>
      <trkpt lat="45.95308" lon="6.56435">
        <ele>2194.5</ele>
        <time>2026-02-02T08:50:29Z</time>
      </trkpt>
      <trkpt lat="45.95308" lon="6.56435">
        <ele>2194.4</ele>
        <time>2026-02-02T08:50:30Z</time>
      </trkpt>
      <trkpt lat="45.95307" lon="6.56436">
        <ele>2194.2</ele>
        <time>2026-02-02T08:50:31Z</time>
      </trkpt>
      <trkpt lat="45.95308" lon="6.56436">
        <ele>2194.1</ele>
        <time>2026-02-02T08:50:32Z</time>
      </trkpt>
      <trkpt lat="45.95308" lon="6.56436">
        <ele>2194</ele>
        <time>2026-02-02T08:50:33Z</time>
      </trkpt>
      <trkpt lat="45.95308" lon="6.56436">
        <ele>2193.8</ele>
        <time>2026-02-02T08:50:34Z</time>
      </trkpt>
      <trkpt lat="45.95307" lon="6.56436">
        <ele>2193.7</ele>
        <time>2026-02-02T08:50:35Z</time>
      </trkpt>
      <trkpt lat="45.95305" lon="6.56435">
        <ele>2192.8</ele>
        <time>2026-02-02T08:50:36Z</time>
      </trkpt>
      <trkpt lat="45.95304" lon="6.56435">
        <ele>2192.6</ele>
        <time>2026-02-02T08:50:37Z</time>
      </trkpt>
      <trkpt lat="45.95304" lon="6.56435">
        <ele>2192.5</ele>
        <time>2026-02-02T08:50:38Z</time>
      </trkpt>
      <trkpt lat="45.95304" lon="6.56434">
        <ele>2192.4</ele>
        <time>2026-02-02T08:50:39Z</time>
      </trkpt>
      <trkpt lat="45.95305" lon="6.56434">
        <ele>2192.2</ele>
        <time>2026-02-02T08:50:40Z</time>
      </trkpt>
      <trkpt lat="45.95305" lon="6.56433">
        <ele>2192.1</ele>
        <time>2026-02-02T08:50:41Z</time>
      </trkpt>
      <trkpt lat="45.95305" lon="6.56433">
        <ele>2192.5</ele>
        <time>2026-02-02T08:50:42Z</time>
      </trkpt>
      <trkpt lat="45.95305" lon="6.56432">
        <ele>2192.3</ele>
        <time>2026-02-02T08:50:43Z</time>
      </trkpt>
      <trkpt lat="45.95305" lon="6.56432">
        <ele>2192.2</ele>
        <time>2026-02-02T08:50:44Z</time>
      </trkpt>
      <trkpt lat="45.95305" lon="6.56431">
        <ele>2192.1</ele>
        <time>2026-02-02T08:50:45Z</time>
      </trkpt>
      <trkpt lat="45.95305" lon="6.56431">
        <ele>2191.9</ele>
        <time>2026-02-02T08:50:46Z</time>
      </trkpt>
      <trkpt lat="45.95305" lon="6.5643">
        <ele>2191.8</ele>
        <time>2026-02-02T08:50:47Z</time>
      </trkpt>
      <trkpt lat="45.95305" lon="6.5643">
        <ele>2191.7</ele>
        <time>2026-02-02T08:50:48Z</time>
      </trkpt>
      <trkpt lat="45.95306" lon="6.56424">
        <ele>2192.5</ele>
        <time>2026-02-02T08:50:49Z</time>
      </trkpt>
      <trkpt lat="45.95306" lon="6.56419">
        <ele>2193.7</ele>
        <time>2026-02-02T08:50:50Z</time>
      </trkpt>
      <trkpt lat="45.95305" lon="6.56414">
        <ele>2193.2</ele>
        <time>2026-02-02T08:50:51Z</time>
      </trkpt>
      <trkpt lat="45.95304" lon="6.56413">
        <ele>2193</ele>
        <time>2026-02-02T08:50:52Z</time>
      </trkpt>
      <trkpt lat="45.95303" lon="6.5641">
        <ele>2192.5</ele>
        <time>2026-02-02T08:50:53Z</time>
      </trkpt>
      <trkpt lat="45.95301" lon="6.56406">
        <ele>2192.6</ele>
        <time>2026-02-02T08:50:54Z</time>
      </trkpt>
      <trkpt lat="45.953" lon="6.56401">
        <ele>2192.7</ele>
        <time>2026-02-02T08:50:55Z</time>
      </trkpt>
      <trkpt lat="45.95298" lon="6.56398">
        <ele>2191.9</ele>
        <time>2026-02-02T08:50:56Z</time>
      </trkpt>
      <trkpt lat="45.95296" lon="6.56394">
        <ele>2191.1</ele>
        <time>2026-02-02T08:50:57Z</time>
      </trkpt>
      <trkpt lat="45.95293" lon="6.5639">
        <ele>2190.4</ele>
        <time>2026-02-02T08:50:58Z</time>
      </trkpt>
      <trkpt lat="45.95291" lon="6.56387">
        <ele>2190.2</ele>
        <time>2026-02-02T08:50:59Z</time>
      </trkpt>
      <trkpt lat="45.95289" lon="6.56385">
        <ele>2189.5</ele>
        <time>2026-02-02T08:51:00Z</time>
      </trkpt>
      <trkpt lat="45.95288" lon="6.56384">
        <ele>2188.7</ele>
        <time>2026-02-02T08:51:01Z</time>
      </trkpt>
      <trkpt lat="45.95289" lon="6.56384">
        <ele>2189.2</ele>
        <time>2026-02-02T08:51:02Z</time>
      </trkpt>
      <trkpt lat="45.95288" lon="6.56384">
        <ele>2189.1</ele>
        <time>2026-02-02T08:51:03Z</time>
      </trkpt>
      <trkpt lat="45.95288" lon="6.56384">
        <ele>2189</ele>
        <time>2026-02-02T08:51:04Z</time>
      </trkpt>
      <trkpt lat="45.95289" lon="6.56384">
        <ele>2188.8</ele>
        <time>2026-02-02T08:51:05Z</time>
      </trkpt>
      <trkpt lat="45.95289" lon="6.56383">
        <ele>2188.7</ele>
        <time>2026-02-02T08:51:06Z</time>
      </trkpt>
      <trkpt lat="45.95288" lon="6.56382">
        <ele>2188.6</ele>
        <time>2026-02-02T08:51:07Z</time>
      </trkpt>
      <trkpt lat="45.95289" lon="6.56382">
        <ele>2188.5</ele>
        <time>2026-02-02T08:51:08Z</time>
      </trkpt>
      <trkpt lat="45.95289" lon="6.5638">
        <ele>2188.4</ele>
        <time>2026-02-02T08:51:09Z</time>
      </trkpt>
      <trkpt lat="45.95289" lon="6.56378">
        <ele>2188.2</ele>
        <time>2026-02-02T08:51:10Z</time>
      </trkpt>
      <trkpt lat="45.95289" lon="6.56375">
        <ele>2188.2</ele>
        <time>2026-02-02T08:51:11Z</time>
      </trkpt>
      <trkpt lat="45.95289" lon="6.56373">
        <ele>2188.1</ele>
        <time>2026-02-02T08:51:12Z</time>
      </trkpt>
      <trkpt lat="45.95288" lon="6.56368">
        <ele>2187.8</ele>
        <time>2026-02-02T08:51:13Z</time>
      </trkpt>
      <trkpt lat="45.95286" lon="6.56363">
        <ele>2188</ele>
        <time>2026-02-02T08:51:14Z</time>
      </trkpt>
      <trkpt lat="45.95284" lon="6.56362">
        <ele>2187.2</ele>
        <time>2026-02-02T08:51:15Z</time>
      </trkpt>
      <trkpt lat="45.95284" lon="6.56361">
        <ele>2187.1</ele>
        <time>2026-02-02T08:51:16Z</time>
      </trkpt>
      <trkpt lat="45.9528" lon="6.56356">
        <ele>2186.4</ele>
        <time>2026-02-02T08:51:17Z</time>
      </trkpt>
      <trkpt lat="45.95279" lon="6.56355">
        <ele>2185.7</ele>
        <time>2026-02-02T08:51:18Z</time>
      </trkpt>
      <trkpt lat="45.95276" lon="6.5635">
        <ele>2184.8</ele>
        <time>2026-02-02T08:51:19Z</time>
      </trkpt>
      <trkpt lat="45.95272" lon="6.56347">
        <ele>2183.9</ele>
        <time>2026-02-02T08:51:20Z</time>
      </trkpt>
      <trkpt lat="45.95268" lon="6.56343">
        <ele>2182.7</ele>
        <time>2026-02-02T08:51:21Z</time>
      </trkpt>
      <trkpt lat="45.95264" lon="6.5634">
        <ele>2180.5</ele>
        <time>2026-02-02T08:51:22Z</time>
      </trkpt>
      <trkpt lat="45.9526" lon="6.56338">
        <ele>2179.4</ele>
        <time>2026-02-02T08:51:23Z</time>
      </trkpt>
      <trkpt lat="45.95255" lon="6.56337">
        <ele>2176.7</ele>
        <time>2026-02-02T08:51:24Z</time>
      </trkpt>
      <trkpt lat="45.95251" lon="6.56335">
        <ele>2175.2</ele>
        <time>2026-02-02T08:51:25Z</time>
      </trkpt>
      <trkpt lat="45.95246" lon="6.56332">
        <ele>2173.7</ele>
        <time>2026-02-02T08:51:26Z</time>
      </trkpt>
      <trkpt lat="45.95241" lon="6.5633">
        <ele>2170.8</ele>
        <time>2026-02-02T08:51:27Z</time>
      </trkpt>
      <trkpt lat="45.95236" lon="6.56329">
        <ele>2168</ele>
        <time>2026-02-02T08:51:28Z</time>
      </trkpt>
      <trkpt lat="45.95232" lon="6.56328">
        <ele>2166.6</ele>
        <time>2026-02-02T08:51:29Z</time>
      </trkpt>
      <trkpt lat="45.95228" lon="6.56328">
        <ele>2163.9</ele>
        <time>2026-02-02T08:51:30Z</time>
      </trkpt>
      <trkpt lat="45.95225" lon="6.56326">
        <ele>2162.3</ele>
        <time>2026-02-02T08:51:31Z</time>
      </trkpt>
      <trkpt lat="45.95222" lon="6.56325">
        <ele>2160.9</ele>
        <time>2026-02-02T08:51:32Z</time>
      </trkpt>
      <trkpt lat="45.9522" lon="6.56322">
        <ele>2160.7</ele>
        <time>2026-02-02T08:51:33Z</time>
      </trkpt>
      <trkpt lat="45.95219" lon="6.56321">
        <ele>2159.3</ele>
        <time>2026-02-02T08:51:34Z</time>
      </trkpt>
      <trkpt lat="45.95219" lon="6.5632">
        <ele>2159.1</ele>
        <time>2026-02-02T08:51:35Z</time>
      </trkpt>
      <trkpt lat="45.95219" lon="6.56318">
        <ele>2159</ele>
        <time>2026-02-02T08:51:36Z</time>
      </trkpt>
      <trkpt lat="45.95219" lon="6.56316">
        <ele>2159.1</ele>
        <time>2026-02-02T08:51:37Z</time>
      </trkpt>
      <trkpt lat="45.95219" lon="6.56315">
        <ele>2158.9</ele>
        <time>2026-02-02T08:51:38Z</time>
      </trkpt>
      <trkpt lat="45.95219" lon="6.56314">
        <ele>2158.8</ele>
        <time>2026-02-02T08:51:39Z</time>
      </trkpt>
      <trkpt lat="45.95219" lon="6.56314">
        <ele>2158.7</ele>
        <time>2026-02-02T08:51:40Z</time>
      </trkpt>
      <trkpt lat="45.95218" lon="6.56313">
        <ele>2158.7</ele>
        <time>2026-02-02T08:51:41Z</time>
      </trkpt>
      <trkpt lat="45.95217" lon="6.56311">
        <ele>2158.6</ele>
        <time>2026-02-02T08:51:42Z</time>
      </trkpt>
      <trkpt lat="45.95216" lon="6.56311">
        <ele>2157</ele>
        <time>2026-02-02T08:51:43Z</time>
      </trkpt>
      <trkpt lat="45.95218" lon="6.56308">
        <ele>2158.6</ele>
        <time>2026-02-02T08:51:44Z</time>
      </trkpt>
      <trkpt lat="45.95218" lon="6.56307">
        <ele>2158.5</ele>
        <time>2026-02-02T08:51:45Z</time>
      </trkpt>
      <trkpt lat="45.95218" lon="6.56305">
        <ele>2158.3</ele>
        <time>2026-02-02T08:51:46Z</time>
      </trkpt>
      <trkpt lat="45.95218" lon="6.56303">
        <ele>2158.5</ele>
        <time>2026-02-02T08:51:47Z</time>
      </trkpt>
      <trkpt lat="45.95217" lon="6.56302">
        <ele>2158.4</ele>
        <time>2026-02-02T08:51:48Z</time>
      </trkpt>
      <trkpt lat="45.95216" lon="6.563">
        <ele>2157</ele>
        <time>2026-02-02T08:51:49Z</time>
      </trkpt>
      <trkpt lat="45.95216" lon="6.56298">
        <ele>2156.9</ele>
        <time>2026-02-02T08:51:50Z</time>
      </trkpt>
      <trkpt lat="45.95215" lon="6.56296">
        <ele>2157.1</ele>
        <time>2026-02-02T08:51:51Z</time>
      </trkpt>
      <trkpt lat="45.95214" lon="6.56293">
        <ele>2157</ele>
        <time>2026-02-02T08:51:52Z</time>
      </trkpt>
      <trkpt lat="45.95213" lon="6.56292">
        <ele>2155.4</ele>
        <time>2026-02-02T08:51:53Z</time>
      </trkpt>
      <trkpt lat="45.95213" lon="6.56291">
        <ele>2155.6</ele>
        <time>2026-02-02T08:51:54Z</time>
      </trkpt>
      <trkpt lat="45.95212" lon="6.5629">
        <ele>2155.5</ele>
        <time>2026-02-02T08:51:55Z</time>
      </trkpt>
      <trkpt lat="45.9521" lon="6.56288">
        <ele>2153.9</ele>
        <time>2026-02-02T08:51:56Z</time>
      </trkpt>
      <trkpt lat="45.95209" lon="6.56287">
        <ele>2153.8</ele>
        <time>2026-02-02T08:51:57Z</time>
      </trkpt>
      <trkpt lat="45.95207" lon="6.56286">
        <ele>2152.6</ele>
        <time>2026-02-02T08:51:58Z</time>
      </trkpt>
      <trkpt lat="45.95206" lon="6.56285">
        <ele>2152.4</ele>
        <time>2026-02-02T08:51:59Z</time>
      </trkpt>
      <trkpt lat="45.95205" lon="6.56283">
        <ele>2152.3</ele>
        <time>2026-02-02T08:52:00Z</time>
      </trkpt>
      <trkpt lat="45.95204" lon="6.56281">
        <ele>2151</ele>
        <time>2026-02-02T08:52:01Z</time>
      </trkpt>
      <trkpt lat="45.95203" lon="6.5628">
        <ele>2150.9</ele>
        <time>2026-02-02T08:52:02Z</time>
      </trkpt>
      <trkpt lat="45.95203" lon="6.56279">
        <ele>2150.8</ele>
        <time>2026-02-02T08:52:03Z</time>
      </trkpt>
      <trkpt lat="45.95202" lon="6.56278">
        <ele>2151.2</ele>
        <time>2026-02-02T08:52:04Z</time>
      </trkpt>
      <trkpt lat="45.95201" lon="6.56277">
        <ele>2149.3</ele>
        <time>2026-02-02T08:52:05Z</time>
      </trkpt>
      <trkpt lat="45.952" lon="6.56276">
        <ele>2149.2</ele>
        <time>2026-02-02T08:52:06Z</time>
      </trkpt>
      <trkpt lat="45.952" lon="6.56275">
        <ele>2149</ele>
        <time>2026-02-02T08:52:07Z</time>
      </trkpt>
      <trkpt lat="45.95199" lon="6.56274">
        <ele>2149.5</ele>
        <time>2026-02-02T08:52:08Z</time>
      </trkpt>
      <trkpt lat="45.95198" lon="6.56272">
        <ele>2147.5</ele>
        <time>2026-02-02T08:52:09Z</time>
      </trkpt>
      <trkpt lat="45.95198" lon="6.56269">
        <ele>2148</ele>
        <time>2026-02-02T08:52:10Z</time>
      </trkpt>
      <trkpt lat="45.95197" lon="6.56268">
        <ele>2147.9</ele>
        <time>2026-02-02T08:52:11Z</time>
      </trkpt>
      <trkpt lat="45.95197" lon="6.56267">
        <ele>2147.8</ele>
        <time>2026-02-02T08:52:12Z</time>
      </trkpt>
      <trkpt lat="45.95197" lon="6.56266">
        <ele>2148.3</ele>
        <time>2026-02-02T08:52:13Z</time>
      </trkpt>
      <trkpt lat="45.95196" lon="6.56264">
        <ele>2148.1</ele>
        <time>2026-02-02T08:52:14Z</time>
      </trkpt>
      <trkpt lat="45.95196" lon="6.56263">
        <ele>2148</ele>
        <time>2026-02-02T08:52:15Z</time>
      </trkpt>
      <trkpt lat="45.95195" lon="6.5626">
        <ele>2146.7</ele>
        <time>2026-02-02T08:52:16Z</time>
      </trkpt>
      <trkpt lat="45.95194" lon="6.56259">
        <ele>2146.6</ele>
        <time>2026-02-02T08:52:17Z</time>
      </trkpt>
      <trkpt lat="45.95194" lon="6.56258">
        <ele>2146.5</ele>
        <time>2026-02-02T08:52:18Z</time>
      </trkpt>
      <trkpt lat="45.95193" lon="6.56256">
        <ele>2147.1</ele>
        <time>2026-02-02T08:52:19Z</time>
      </trkpt>
      <trkpt lat="45.95193" lon="6.56254">
        <ele>2147</ele>
        <time>2026-02-02T08:52:20Z</time>
      </trkpt>
      <trkpt lat="45.95192" lon="6.56252">
        <ele>2146</ele>
        <time>2026-02-02T08:52:21Z</time>
      </trkpt>
      <trkpt lat="45.95192" lon="6.5625">
        <ele>2145.8</ele>
        <time>2026-02-02T08:52:22Z</time>
      </trkpt>
      <trkpt lat="45.95191" lon="6.56249">
        <ele>2145.7</ele>
        <time>2026-02-02T08:52:23Z</time>
      </trkpt>
      <trkpt lat="45.9519" lon="6.56247">
        <ele>2146.6</ele>
        <time>2026-02-02T08:52:24Z</time>
      </trkpt>
      <trkpt lat="45.95189" lon="6.56245">
        <ele>2144.8</ele>
        <time>2026-02-02T08:52:25Z</time>
      </trkpt>
      <trkpt lat="45.95188" lon="6.56244">
        <ele>2145.7</ele>
        <time>2026-02-02T08:52:26Z</time>
      </trkpt>
      <trkpt lat="45.95188" lon="6.56243">
        <ele>2145.6</ele>
        <time>2026-02-02T08:52:27Z</time>
      </trkpt>
      <trkpt lat="45.95187" lon="6.56241">
        <ele>2145.4</ele>
        <time>2026-02-02T08:52:28Z</time>
      </trkpt>
      <trkpt lat="45.95186" lon="6.56239">
        <ele>2144.8</ele>
        <time>2026-02-02T08:52:29Z</time>
      </trkpt>
      <trkpt lat="45.95186" lon="6.56238">
        <ele>2144.7</ele>
        <time>2026-02-02T08:52:30Z</time>
      </trkpt>
      <trkpt lat="45.95185" lon="6.56237">
        <ele>2144.6</ele>
        <time>2026-02-02T08:52:31Z</time>
      </trkpt>
      <trkpt lat="45.95185" lon="6.56236">
        <ele>2144.4</ele>
        <time>2026-02-02T08:52:32Z</time>
      </trkpt>
      <trkpt lat="45.95184" lon="6.56235">
        <ele>2145.5</ele>
        <time>2026-02-02T08:52:33Z</time>
      </trkpt>
      <trkpt lat="45.95184" lon="6.56233">
        <ele>2145.4</ele>
        <time>2026-02-02T08:52:34Z</time>
      </trkpt>
      <trkpt lat="45.95183" lon="6.56232">
        <ele>2143.6</ele>
        <time>2026-02-02T08:52:35Z</time>
      </trkpt>
      <trkpt lat="45.95183" lon="6.56231">
        <ele>2144.7</ele>
        <time>2026-02-02T08:52:36Z</time>
      </trkpt>
      <trkpt lat="45.95183" lon="6.56229">
        <ele>2144.6</ele>
        <time>2026-02-02T08:52:37Z</time>
      </trkpt>
      <trkpt lat="45.95182" lon="6.56227">
        <ele>2144.5</ele>
        <time>2026-02-02T08:52:38Z</time>
      </trkpt>
      <trkpt lat="45.95182" lon="6.56226">
        <ele>2145.6</ele>
        <time>2026-02-02T08:52:39Z</time>
      </trkpt>
      <trkpt lat="45.95181" lon="6.56225">
        <ele>2145.5</ele>
        <time>2026-02-02T08:52:40Z</time>
      </trkpt>
      <trkpt lat="45.95181" lon="6.56223">
        <ele>2145.4</ele>
        <time>2026-02-02T08:52:41Z</time>
      </trkpt>
      <trkpt lat="45.9518" lon="6.56222">
        <ele>2145.7</ele>
        <time>2026-02-02T08:52:42Z</time>
      </trkpt>
      <trkpt lat="45.95179" lon="6.56221">
        <ele>2146</ele>
        <time>2026-02-02T08:52:43Z</time>
      </trkpt>
      <trkpt lat="45.95179" lon="6.5622">
        <ele>2146.4</ele>
        <time>2026-02-02T08:52:44Z</time>
      </trkpt>
      <trkpt lat="45.95178" lon="6.56219">
        <ele>2146.8</ele>
        <time>2026-02-02T08:52:45Z</time>
      </trkpt>
      <trkpt lat="45.95176" lon="6.56216">
        <ele>2147.4</ele>
        <time>2026-02-02T08:52:46Z</time>
      </trkpt>
      <trkpt lat="45.95176" lon="6.56215">
        <ele>2147.6</ele>
        <time>2026-02-02T08:52:47Z</time>
      </trkpt>
      <trkpt lat="45.95175" lon="6.56214">
        <ele>2147.8</ele>
        <time>2026-02-02T08:52:48Z</time>
      </trkpt>
      <trkpt lat="45.95174" lon="6.56212">
        <ele>2148.4</ele>
        <time>2026-02-02T08:52:49Z</time>
      </trkpt>
      <trkpt lat="45.95174" lon="6.56211">
        <ele>2148.6</ele>
        <time>2026-02-02T08:52:50Z</time>
      </trkpt>
      <trkpt lat="45.95173" lon="6.5621">
        <ele>2148.8</ele>
        <time>2026-02-02T08:52:51Z</time>
      </trkpt>
      <trkpt lat="45.95172" lon="6.56208">
        <ele>2149.2</ele>
        <time>2026-02-02T08:52:52Z</time>
      </trkpt>
      <trkpt lat="45.95172" lon="6.56206">
        <ele>2149.5</ele>
        <time>2026-02-02T08:52:53Z</time>
      </trkpt>
      <trkpt lat="45.95171" lon="6.56204">
        <ele>2149.8</ele>
        <time>2026-02-02T08:52:54Z</time>
      </trkpt>
      <trkpt lat="45.9517" lon="6.56203">
        <ele>2150</ele>
        <time>2026-02-02T08:52:55Z</time>
      </trkpt>
      <trkpt lat="45.95169" lon="6.56201">
        <ele>2150.3</ele>
        <time>2026-02-02T08:52:56Z</time>
      </trkpt>
      <trkpt lat="45.95168" lon="6.562">
        <ele>2150.6</ele>
        <time>2026-02-02T08:52:57Z</time>
      </trkpt>
      <trkpt lat="45.95168" lon="6.56199">
        <ele>2150.8</ele>
        <time>2026-02-02T08:52:58Z</time>
      </trkpt>
      <trkpt lat="45.95167" lon="6.56197">
        <ele>2151</ele>
        <time>2026-02-02T08:52:59Z</time>
      </trkpt>
      <trkpt lat="45.95166" lon="6.56195">
        <ele>2151.2</ele>
        <time>2026-02-02T08:53:01Z</time>
      </trkpt>
      <trkpt lat="45.95166" lon="6.56194">
        <ele>2151.4</ele>
        <time>2026-02-02T08:53:02Z</time>
      </trkpt>
      <trkpt lat="45.95165" lon="6.56193">
        <ele>2151.5</ele>
        <time>2026-02-02T08:53:03Z</time>
      </trkpt>
      <trkpt lat="45.95165" lon="6.56193">
        <ele>2151.7</ele>
        <time>2026-02-02T08:53:04Z</time>
      </trkpt>
      <trkpt lat="45.95164" lon="6.56192">
        <ele>2151.8</ele>
        <time>2026-02-02T08:53:05Z</time>
      </trkpt>
      <trkpt lat="45.95163" lon="6.56191">
        <ele>2152</ele>
        <time>2026-02-02T08:53:06Z</time>
      </trkpt>
      <trkpt lat="45.95162" lon="6.56189">
        <ele>2152.2</ele>
        <time>2026-02-02T08:53:07Z</time>
      </trkpt>
      <trkpt lat="45.95162" lon="6.56188">
        <ele>2152.3</ele>
        <time>2026-02-02T08:53:08Z</time>
      </trkpt>
      <trkpt lat="45.95162" lon="6.56187">
        <ele>2152.5</ele>
        <time>2026-02-02T08:53:09Z</time>
      </trkpt>
      <trkpt lat="45.95162" lon="6.56185">
        <ele>2152.7</ele>
        <time>2026-02-02T08:53:10Z</time>
      </trkpt>
      <trkpt lat="45.95161" lon="6.56184">
        <ele>2152.9</ele>
        <time>2026-02-02T08:53:11Z</time>
      </trkpt>
      <trkpt lat="45.9516" lon="6.56183">
        <ele>2153</ele>
        <time>2026-02-02T08:53:12Z</time>
      </trkpt>
      <trkpt lat="45.9516" lon="6.56182">
        <ele>2153.1</ele>
        <time>2026-02-02T08:53:13Z</time>
      </trkpt>
      <trkpt lat="45.9516" lon="6.56182">
        <ele>2153.1</ele>
        <time>2026-02-02T08:53:14Z</time>
      </trkpt>
      <trkpt lat="45.9516" lon="6.56181">
        <ele>2153.2</ele>
        <time>2026-02-02T08:53:15Z</time>
      </trkpt>
      <trkpt lat="45.95159" lon="6.56181">
        <ele>2153.4</ele>
        <time>2026-02-02T08:53:16Z</time>
      </trkpt>
      <trkpt lat="45.95157" lon="6.5618">
        <ele>2153.7</ele>
        <time>2026-02-02T08:53:17Z</time>
      </trkpt>
      <trkpt lat="45.95156" lon="6.56179">
        <ele>2153.9</ele>
        <time>2026-02-02T08:53:18Z</time>
      </trkpt>
      <trkpt lat="45.95154" lon="6.56178">
        <ele>2154.1</ele>
        <time>2026-02-02T08:53:19Z</time>
      </trkpt>
      <trkpt lat="45.95153" lon="6.56177">
        <ele>2154.2</ele>
        <time>2026-02-02T08:53:20Z</time>
      </trkpt>
      <trkpt lat="45.95153" lon="6.56176">
        <ele>2154.4</ele>
        <time>2026-02-02T08:53:21Z</time>
      </trkpt>
      <trkpt lat="45.95152" lon="6.56175">
        <ele>2154.6</ele>
        <time>2026-02-02T08:53:22Z</time>
      </trkpt>
      <trkpt lat="45.95151" lon="6.56173">
        <ele>2154.8</ele>
        <time>2026-02-02T08:53:23Z</time>
      </trkpt>
      <trkpt lat="45.95149" lon="6.56171">
        <ele>2155.1</ele>
        <time>2026-02-02T08:53:24Z</time>
      </trkpt>
      <trkpt lat="45.95149" lon="6.5617">
        <ele>2155.3</ele>
        <time>2026-02-02T08:53:25Z</time>
      </trkpt>
      <trkpt lat="45.95148" lon="6.56169">
        <ele>2155.4</ele>
        <time>2026-02-02T08:53:26Z</time>
      </trkpt>
      <trkpt lat="45.95147" lon="6.56168">
        <ele>2155.6</ele>
        <time>2026-02-02T08:53:27Z</time>
      </trkpt>
      <trkpt lat="45.95147" lon="6.56165">
        <ele>2155.9</ele>
        <time>2026-02-02T08:53:28Z</time>
      </trkpt>
      <trkpt lat="45.95146" lon="6.56163">
        <ele>2156.2</ele>
        <time>2026-02-02T08:53:29Z</time>
      </trkpt>
      <trkpt lat="45.95146" lon="6.5616">
        <ele>2156.4</ele>
        <time>2026-02-02T08:53:30Z</time>
      </trkpt>
      <trkpt lat="45.95144" lon="6.56157">
        <ele>2156.9</ele>
        <time>2026-02-02T08:53:31Z</time>
      </trkpt>
      <trkpt lat="45.95144" lon="6.56156">
        <ele>2157.1</ele>
        <time>2026-02-02T08:53:33Z</time>
      </trkpt>
      <trkpt lat="45.95143" lon="6.56155">
        <ele>2157.3</ele>
        <time>2026-02-02T08:53:34Z</time>
      </trkpt>
      <trkpt lat="45.95142" lon="6.56153">
        <ele>2157.5</ele>
        <time>2026-02-02T08:53:35Z</time>
      </trkpt>
      <trkpt lat="45.95142" lon="6.56152">
        <ele>2157.7</ele>
        <time>2026-02-02T08:53:36Z</time>
      </trkpt>
      <trkpt lat="45.95141" lon="6.5615">
        <ele>2158.1</ele>
        <time>2026-02-02T08:53:37Z</time>
      </trkpt>
      <trkpt lat="45.9514" lon="6.56149">
        <ele>2158.3</ele>
        <time>2026-02-02T08:53:38Z</time>
      </trkpt>
      <trkpt lat="45.95139" lon="6.56148">
        <ele>2158.5</ele>
        <time>2026-02-02T08:53:39Z</time>
      </trkpt>
      <trkpt lat="45.95138" lon="6.56145">
        <ele>2158.8</ele>
        <time>2026-02-02T08:53:41Z</time>
      </trkpt>
      <trkpt lat="45.95137" lon="6.56144">
        <ele>2159</ele>
        <time>2026-02-02T08:53:42Z</time>
      </trkpt>
      <trkpt lat="45.95136" lon="6.56141">
        <ele>2159.4</ele>
        <time>2026-02-02T08:53:43Z</time>
      </trkpt>
      <trkpt lat="45.95136" lon="6.5614">
        <ele>2159.5</ele>
        <time>2026-02-02T08:53:44Z</time>
      </trkpt>
      <trkpt lat="45.95136" lon="6.56139">
        <ele>2159.7</ele>
        <time>2026-02-02T08:53:45Z</time>
      </trkpt>
      <trkpt lat="45.95135" lon="6.56137">
        <ele>2159.9</ele>
        <time>2026-02-02T08:53:46Z</time>
      </trkpt>
      <trkpt lat="45.95134" lon="6.56135">
        <ele>2160.1</ele>
        <time>2026-02-02T08:53:47Z</time>
      </trkpt>
      <trkpt lat="45.95133" lon="6.56133">
        <ele>2160.3</ele>
        <time>2026-02-02T08:53:48Z</time>
      </trkpt>
      <trkpt lat="45.95132" lon="6.56131">
        <ele>2160.5</ele>
        <time>2026-02-02T08:53:49Z</time>
      </trkpt>
      <trkpt lat="45.95132" lon="6.56129">
        <ele>2160.7</ele>
        <time>2026-02-02T08:53:50Z</time>
      </trkpt>
      <trkpt lat="45.95131" lon="6.56127">
        <ele>2160.8</ele>
        <time>2026-02-02T08:53:51Z</time>
      </trkpt>
      <trkpt lat="45.9513" lon="6.56126">
        <ele>2160.9</ele>
        <time>2026-02-02T08:53:52Z</time>
      </trkpt>
      <trkpt lat="45.95129" lon="6.56124">
        <ele>2161</ele>
        <time>2026-02-02T08:53:53Z</time>
      </trkpt>
      <trkpt lat="45.95128" lon="6.56121">
        <ele>2161.1</ele>
        <time>2026-02-02T08:53:54Z</time>
      </trkpt>
      <trkpt lat="45.95128" lon="6.5612">
        <ele>2161.2</ele>
        <time>2026-02-02T08:53:55Z</time>
      </trkpt>
      <trkpt lat="45.95127" lon="6.56119">
        <ele>2161.2</ele>
        <time>2026-02-02T08:53:56Z</time>
      </trkpt>
      <trkpt lat="45.95127" lon="6.56117">
        <ele>2161.3</ele>
        <time>2026-02-02T08:53:57Z</time>
      </trkpt>
      <trkpt lat="45.95126" lon="6.56115">
        <ele>2161.3</ele>
        <time>2026-02-02T08:53:58Z</time>
      </trkpt>
      <trkpt lat="45.95126" lon="6.56114">
        <ele>2161.3</ele>
        <time>2026-02-02T08:53:59Z</time>
      </trkpt>
      <trkpt lat="45.95125" lon="6.5611">
        <ele>2161.4</ele>
        <time>2026-02-02T08:54:01Z</time>
      </trkpt>
      <trkpt lat="45.95124" lon="6.5611">
        <ele>2161.4</ele>
        <time>2026-02-02T08:54:02Z</time>
      </trkpt>
      <trkpt lat="45.95123" lon="6.56107">
        <ele>2161.4</ele>
        <time>2026-02-02T08:54:03Z</time>
      </trkpt>
      <trkpt lat="45.95123" lon="6.56106">
        <ele>2161.4</ele>
        <time>2026-02-02T08:54:04Z</time>
      </trkpt>
      <trkpt lat="45.95122" lon="6.56105">
        <ele>2161.4</ele>
        <time>2026-02-02T08:54:05Z</time>
      </trkpt>
      <trkpt lat="45.95121" lon="6.56102">
        <ele>2161.5</ele>
        <time>2026-02-02T08:54:06Z</time>
      </trkpt>
      <trkpt lat="45.95121" lon="6.56101">
        <ele>2161.5</ele>
        <time>2026-02-02T08:54:07Z</time>
      </trkpt>
      <trkpt lat="45.95121" lon="6.561">
        <ele>2161.5</ele>
        <time>2026-02-02T08:54:08Z</time>
      </trkpt>
      <trkpt lat="45.95119" lon="6.56097">
        <ele>2161.5</ele>
        <time>2026-02-02T08:54:09Z</time>
      </trkpt>
      <trkpt lat="45.95119" lon="6.56096">
        <ele>2161.5</ele>
        <time>2026-02-02T08:54:10Z</time>
      </trkpt>
      <trkpt lat="45.95117" lon="6.56093">
        <ele>2161.6</ele>
        <time>2026-02-02T08:54:11Z</time>
      </trkpt>
      <trkpt lat="45.95116" lon="6.56091">
        <ele>2161.6</ele>
        <time>2026-02-02T08:54:13Z</time>
      </trkpt>
      <trkpt lat="45.95116" lon="6.5609">
        <ele>2161.6</ele>
        <time>2026-02-02T08:54:14Z</time>
      </trkpt>
      <trkpt lat="45.95115" lon="6.56089">
        <ele>2161.6</ele>
        <time>2026-02-02T08:54:15Z</time>
      </trkpt>
      <trkpt lat="45.95114" lon="6.56087">
        <ele>2161.6</ele>
        <time>2026-02-02T08:54:16Z</time>
      </trkpt>
      <trkpt lat="45.95113" lon="6.56085">
        <ele>2161.6</ele>
        <time>2026-02-02T08:54:17Z</time>
      </trkpt>
      <trkpt lat="45.95113" lon="6.56084">
        <ele>2161.6</ele>
        <time>2026-02-02T08:54:18Z</time>
      </trkpt>
      <trkpt lat="45.95112" lon="6.56084">
        <ele>2161.6</ele>
        <time>2026-02-02T08:54:19Z</time>
      </trkpt>
      <trkpt lat="45.95112" lon="6.56083">
        <ele>2161.6</ele>
        <time>2026-02-02T08:54:20Z</time>
      </trkpt>
      <trkpt lat="45.95111" lon="6.56082">
        <ele>2161.6</ele>
        <time>2026-02-02T08:54:21Z</time>
      </trkpt>
      <trkpt lat="45.95111" lon="6.56081">
        <ele>2161.5</ele>
        <time>2026-02-02T08:54:22Z</time>
      </trkpt>
      <trkpt lat="45.9511" lon="6.5608">
        <ele>2161.5</ele>
        <time>2026-02-02T08:54:23Z</time>
      </trkpt>
      <trkpt lat="45.9511" lon="6.56078">
        <ele>2161.5</ele>
        <time>2026-02-02T08:54:24Z</time>
      </trkpt>
      <trkpt lat="45.95109" lon="6.56077">
        <ele>2161.5</ele>
        <time>2026-02-02T08:54:25Z</time>
      </trkpt>
      <trkpt lat="45.95109" lon="6.56076">
        <ele>2161.4</ele>
        <time>2026-02-02T08:54:26Z</time>
      </trkpt>
      <trkpt lat="45.95108" lon="6.56074">
        <ele>2161.4</ele>
        <time>2026-02-02T08:54:27Z</time>
      </trkpt>
      <trkpt lat="45.95107" lon="6.56072">
        <ele>2161.3</ele>
        <time>2026-02-02T08:54:28Z</time>
      </trkpt>
      <trkpt lat="45.95107" lon="6.56071">
        <ele>2161.3</ele>
        <time>2026-02-02T08:54:29Z</time>
      </trkpt>
      <trkpt lat="45.95106" lon="6.5607">
        <ele>2161.3</ele>
        <time>2026-02-02T08:54:30Z</time>
      </trkpt>
      <trkpt lat="45.95105" lon="6.56069">
        <ele>2161.2</ele>
        <time>2026-02-02T08:54:31Z</time>
      </trkpt>
      <trkpt lat="45.95105" lon="6.56068">
        <ele>2161.2</ele>
        <time>2026-02-02T08:54:32Z</time>
      </trkpt>
      <trkpt lat="45.95104" lon="6.56066">
        <ele>2161.1</ele>
        <time>2026-02-02T08:54:33Z</time>
      </trkpt>
      <trkpt lat="45.95103" lon="6.56064">
        <ele>2161.1</ele>
        <time>2026-02-02T08:54:34Z</time>
      </trkpt>
      <trkpt lat="45.95102" lon="6.56063">
        <ele>2161</ele>
        <time>2026-02-02T08:54:35Z</time>
      </trkpt>
      <trkpt lat="45.95101" lon="6.56062">
        <ele>2161</ele>
        <time>2026-02-02T08:54:36Z</time>
      </trkpt>
      <trkpt lat="45.95101" lon="6.56061">
        <ele>2161</ele>
        <time>2026-02-02T08:54:37Z</time>
      </trkpt>
      <trkpt lat="45.95099" lon="6.56059">
        <ele>2160.9</ele>
        <time>2026-02-02T08:54:38Z</time>
      </trkpt>
      <trkpt lat="45.95098" lon="6.56058">
        <ele>2160.9</ele>
        <time>2026-02-02T08:54:39Z</time>
      </trkpt>
      <trkpt lat="45.95098" lon="6.56057">
        <ele>2160.9</ele>
        <time>2026-02-02T08:54:40Z</time>
      </trkpt>
      <trkpt lat="45.95097" lon="6.56056">
        <ele>2160.9</ele>
        <time>2026-02-02T08:54:41Z</time>
      </trkpt>
      <trkpt lat="45.95096" lon="6.56055">
        <ele>2160.9</ele>
        <time>2026-02-02T08:54:42Z</time>
      </trkpt>
      <trkpt lat="45.95095" lon="6.56054">
        <ele>2161</ele>
        <time>2026-02-02T08:54:43Z</time>
      </trkpt>
      <trkpt lat="45.95094" lon="6.56054">
        <ele>2161</ele>
        <time>2026-02-02T08:54:44Z</time>
      </trkpt>
      <trkpt lat="45.95093" lon="6.56052">
        <ele>2161</ele>
        <time>2026-02-02T08:54:45Z</time>
      </trkpt>
      <trkpt lat="45.95093" lon="6.56052">
        <ele>2161.1</ele>
        <time>2026-02-02T08:54:46Z</time>
      </trkpt>
      <trkpt lat="45.95092" lon="6.56051">
        <ele>2161.1</ele>
        <time>2026-02-02T08:54:47Z</time>
      </trkpt>
      <trkpt lat="45.95092" lon="6.5605">
        <ele>2161.1</ele>
        <time>2026-02-02T08:54:48Z</time>
      </trkpt>
      <trkpt lat="45.95091" lon="6.56049">
        <ele>2161.2</ele>
        <time>2026-02-02T08:54:49Z</time>
      </trkpt>
      <trkpt lat="45.9509" lon="6.56047">
        <ele>2161.3</ele>
        <time>2026-02-02T08:54:50Z</time>
      </trkpt>
      <trkpt lat="45.95089" lon="6.56045">
        <ele>2161.4</ele>
        <time>2026-02-02T08:54:51Z</time>
      </trkpt>
      <trkpt lat="45.95088" lon="6.56043">
        <ele>2161.6</ele>
        <time>2026-02-02T08:54:52Z</time>
      </trkpt>
      <trkpt lat="45.95087" lon="6.56042">
        <ele>2161.7</ele>
        <time>2026-02-02T08:54:53Z</time>
      </trkpt>
      <trkpt lat="45.95086" lon="6.56041">
        <ele>2161.8</ele>
        <time>2026-02-02T08:54:54Z</time>
      </trkpt>
      <trkpt lat="45.95086" lon="6.5604">
        <ele>2161.9</ele>
        <time>2026-02-02T08:54:55Z</time>
      </trkpt>
      <trkpt lat="45.95086" lon="6.5604">
        <ele>2161.9</ele>
        <time>2026-02-02T08:54:56Z</time>
      </trkpt>
      <trkpt lat="45.95085" lon="6.5604">
        <ele>2161.9</ele>
        <time>2026-02-02T08:54:57Z</time>
      </trkpt>
      <trkpt lat="45.95085" lon="6.5604">
        <ele>2162</ele>
        <time>2026-02-02T08:54:58Z</time>
      </trkpt>
      <trkpt lat="45.95085" lon="6.5604">
        <ele>2162</ele>
        <time>2026-02-02T08:54:59Z</time>
      </trkpt>
      <trkpt lat="45.95086" lon="6.5604">
        <ele>2162</ele>
        <time>2026-02-02T08:55:00Z</time>
      </trkpt>
      <trkpt lat="45.95086" lon="6.5604">
        <ele>2162</ele>
        <time>2026-02-02T08:55:01Z</time>
      </trkpt>
      <trkpt lat="45.95086" lon="6.5604">
        <ele>2162</ele>
        <time>2026-02-02T08:55:02Z</time>
      </trkpt>
      <trkpt lat="45.95086" lon="6.5604">
        <ele>2162</ele>
        <time>2026-02-02T08:55:03Z</time>
      </trkpt>
      <trkpt lat="45.95086" lon="6.5604">
        <ele>2162</ele>
        <time>2026-02-02T08:55:04Z</time>
      </trkpt>
      <trkpt lat="45.95085" lon="6.5604">
        <ele>2162</ele>
        <time>2026-02-02T08:55:05Z</time>
      </trkpt>
      <trkpt lat="45.95085" lon="6.5604">
        <ele>2162</ele>
        <time>2026-02-02T08:55:06Z</time>
      </trkpt>
      <trkpt lat="45.95085" lon="6.56039">
        <ele>2162.1</ele>
        <time>2026-02-02T08:55:07Z</time>
      </trkpt>
      <trkpt lat="45.95084" lon="6.56039">
        <ele>2162.2</ele>
        <time>2026-02-02T08:55:08Z</time>
      </trkpt>
      <trkpt lat="45.95083" lon="6.56038">
        <ele>2162.3</ele>
        <time>2026-02-02T08:55:09Z</time>
      </trkpt>
      <trkpt lat="45.95081" lon="6.56037">
        <ele>2162.5</ele>
        <time>2026-02-02T08:55:10Z</time>
      </trkpt>
      <trkpt lat="45.95079" lon="6.56035">
        <ele>2162.7</ele>
        <time>2026-02-02T08:55:11Z</time>
      </trkpt>
      <trkpt lat="45.95079" lon="6.56034">
        <ele>2162.8</ele>
        <time>2026-02-02T08:55:12Z</time>
      </trkpt>
      <trkpt lat="45.95078" lon="6.56034">
        <ele>2162.9</ele>
        <time>2026-02-02T08:55:13Z</time>
      </trkpt>
      <trkpt lat="45.95077" lon="6.56033">
        <ele>2163</ele>
        <time>2026-02-02T08:55:14Z</time>
      </trkpt>
      <trkpt lat="45.95077" lon="6.56032">
        <ele>2163</ele>
        <time>2026-02-02T08:55:15Z</time>
      </trkpt>
      <trkpt lat="45.95076" lon="6.5603">
        <ele>2163.1</ele>
        <time>2026-02-02T08:55:16Z</time>
      </trkpt>
      <trkpt lat="45.95075" lon="6.56029">
        <ele>2163.2</ele>
        <time>2026-02-02T08:55:17Z</time>
      </trkpt>
      <trkpt lat="45.95074" lon="6.56028">
        <ele>2163.3</ele>
        <time>2026-02-02T08:55:18Z</time>
      </trkpt>
      <trkpt lat="45.95073" lon="6.56027">
        <ele>2163.4</ele>
        <time>2026-02-02T08:55:19Z</time>
      </trkpt>
      <trkpt lat="45.95072" lon="6.56025">
        <ele>2163.5</ele>
        <time>2026-02-02T08:55:20Z</time>
      </trkpt>
      <trkpt lat="45.95071" lon="6.56024">
        <ele>2163.6</ele>
        <time>2026-02-02T08:55:21Z</time>
      </trkpt>
      <trkpt lat="45.9507" lon="6.56024">
        <ele>2163.6</ele>
        <time>2026-02-02T08:55:22Z</time>
      </trkpt>
      <trkpt lat="45.95068" lon="6.56022">
        <ele>2163.7</ele>
        <time>2026-02-02T08:55:23Z</time>
      </trkpt>
      <trkpt lat="45.95067" lon="6.56022">
        <ele>2163.7</ele>
        <time>2026-02-02T08:55:24Z</time>
      </trkpt>
      <trkpt lat="45.95066" lon="6.56021">
        <ele>2163.8</ele>
        <time>2026-02-02T08:55:25Z</time>
      </trkpt>
      <trkpt lat="45.95064" lon="6.5602">
        <ele>2163.8</ele>
        <time>2026-02-02T08:55:26Z</time>
      </trkpt>
      <trkpt lat="45.95064" lon="6.56019">
        <ele>2163.8</ele>
        <time>2026-02-02T08:55:27Z</time>
      </trkpt>
      <trkpt lat="45.95063" lon="6.56019">
        <ele>2163.8</ele>
        <time>2026-02-02T08:55:28Z</time>
      </trkpt>
      <trkpt lat="45.95062" lon="6.56018">
        <ele>2163.9</ele>
        <time>2026-02-02T08:55:29Z</time>
      </trkpt>
      <trkpt lat="45.95062" lon="6.56017">
        <ele>2163.9</ele>
        <time>2026-02-02T08:55:30Z</time>
      </trkpt>
      <trkpt lat="45.95061" lon="6.56017">
        <ele>2163.9</ele>
        <time>2026-02-02T08:55:31Z</time>
      </trkpt>
      <trkpt lat="45.9506" lon="6.56016">
        <ele>2163.9</ele>
        <time>2026-02-02T08:55:32Z</time>
      </trkpt>
      <trkpt lat="45.9506" lon="6.56015">
        <ele>2163.9</ele>
        <time>2026-02-02T08:55:33Z</time>
      </trkpt>
      <trkpt lat="45.95059" lon="6.56014">
        <ele>2163.9</ele>
        <time>2026-02-02T08:55:34Z</time>
      </trkpt>
      <trkpt lat="45.95058" lon="6.56012">
        <ele>2164</ele>
        <time>2026-02-02T08:55:35Z</time>
      </trkpt>
      <trkpt lat="45.95058" lon="6.56011">
        <ele>2164</ele>
        <time>2026-02-02T08:55:36Z</time>
      </trkpt>
      <trkpt lat="45.95057" lon="6.56009">
        <ele>2164</ele>
        <time>2026-02-02T08:55:37Z</time>
      </trkpt>
      <trkpt lat="45.95056" lon="6.56008">
        <ele>2164</ele>
        <time>2026-02-02T08:55:38Z</time>
      </trkpt>
      <trkpt lat="45.95056" lon="6.56007">
        <ele>2164.1</ele>
        <time>2026-02-02T08:55:39Z</time>
      </trkpt>
      <trkpt lat="45.95055" lon="6.56006">
        <ele>2164.1</ele>
        <time>2026-02-02T08:55:40Z</time>
      </trkpt>
      <trkpt lat="45.95054" lon="6.56005">
        <ele>2164.1</ele>
        <time>2026-02-02T08:55:41Z</time>
      </trkpt>
      <trkpt lat="45.95054" lon="6.56004">
        <ele>2164.1</ele>
        <time>2026-02-02T08:55:42Z</time>
      </trkpt>
      <trkpt lat="45.95054" lon="6.56005">
        <ele>2164.1</ele>
        <time>2026-02-02T08:55:43Z</time>
      </trkpt>
      <trkpt lat="45.95054" lon="6.56005">
        <ele>2164.1</ele>
        <time>2026-02-02T08:55:44Z</time>
      </trkpt>
      <trkpt lat="45.95054" lon="6.56006">
        <ele>2164.2</ele>
        <time>2026-02-02T08:55:45Z</time>
      </trkpt>
      <trkpt lat="45.95054" lon="6.56005">
        <ele>2164.2</ele>
        <time>2026-02-02T08:55:46Z</time>
      </trkpt>
      <trkpt lat="45.95053" lon="6.56004">
        <ele>2164.2</ele>
        <time>2026-02-02T08:55:47Z</time>
      </trkpt>
      <trkpt lat="45.95052" lon="6.56003">
        <ele>2164.3</ele>
        <time>2026-02-02T08:55:48Z</time>
      </trkpt>
      <trkpt lat="45.95051" lon="6.56002">
        <ele>2164.3</ele>
        <time>2026-02-02T08:55:49Z</time>
      </trkpt>
      <trkpt lat="45.9505" lon="6.56">
        <ele>2164.4</ele>
        <time>2026-02-02T08:55:50Z</time>
      </trkpt>
      <trkpt lat="45.95048" lon="6.56">
        <ele>2164.4</ele>
        <time>2026-02-02T08:55:51Z</time>
      </trkpt>
      <trkpt lat="45.95046" lon="6.55999">
        <ele>2164.5</ele>
        <time>2026-02-02T08:55:53Z</time>
      </trkpt>
      <trkpt lat="45.95045" lon="6.55998">
        <ele>2164.5</ele>
        <time>2026-02-02T08:55:54Z</time>
      </trkpt>
      <trkpt lat="45.95044" lon="6.55998">
        <ele>2164.6</ele>
        <time>2026-02-02T08:55:55Z</time>
      </trkpt>
      <trkpt lat="45.95044" lon="6.55998">
        <ele>2164.6</ele>
        <time>2026-02-02T08:55:56Z</time>
      </trkpt>
      <trkpt lat="45.95045" lon="6.55999">
        <ele>2164.6</ele>
        <time>2026-02-02T08:55:57Z</time>
      </trkpt>
      <trkpt lat="45.95045" lon="6.55999">
        <ele>2164.6</ele>
        <time>2026-02-02T08:55:58Z</time>
      </trkpt>
      <trkpt lat="45.95045" lon="6.55999">
        <ele>2164.6</ele>
        <time>2026-02-02T08:55:59Z</time>
      </trkpt>
      <trkpt lat="45.95045" lon="6.56">
        <ele>2164.6</ele>
        <time>2026-02-02T08:56:00Z</time>
      </trkpt>
      <trkpt lat="45.95045" lon="6.56">
        <ele>2164.6</ele>
        <time>2026-02-02T08:56:01Z</time>
      </trkpt>
      <trkpt lat="45.95045" lon="6.56">
        <ele>2164.6</ele>
        <time>2026-02-02T08:56:02Z</time>
      </trkpt>
      <trkpt lat="45.95045" lon="6.55999">
        <ele>2164.7</ele>
        <time>2026-02-02T08:56:03Z</time>
      </trkpt>
      <trkpt lat="45.95043" lon="6.55999">
        <ele>2164.7</ele>
        <time>2026-02-02T08:56:04Z</time>
      </trkpt>
      <trkpt lat="45.95042" lon="6.55998">
        <ele>2164.8</ele>
        <time>2026-02-02T08:56:05Z</time>
      </trkpt>
      <trkpt lat="45.95041" lon="6.55996">
        <ele>2164.8</ele>
        <time>2026-02-02T08:56:06Z</time>
      </trkpt>
      <trkpt lat="45.9504" lon="6.55994">
        <ele>2164.9</ele>
        <time>2026-02-02T08:56:07Z</time>
      </trkpt>
      <trkpt lat="45.95039" lon="6.55992">
        <ele>2165</ele>
        <time>2026-02-02T08:56:08Z</time>
      </trkpt>
      <trkpt lat="45.95038" lon="6.55991">
        <ele>2165.1</ele>
        <time>2026-02-02T08:56:09Z</time>
      </trkpt>
      <trkpt lat="45.95038" lon="6.5599">
        <ele>2165.1</ele>
        <time>2026-02-02T08:56:10Z</time>
      </trkpt>
      <trkpt lat="45.95037" lon="6.55989">
        <ele>2165.2</ele>
        <time>2026-02-02T08:56:11Z</time>
      </trkpt>
      <trkpt lat="45.95036" lon="6.55988">
        <ele>2165.3</ele>
        <time>2026-02-02T08:56:12Z</time>
      </trkpt>
      <trkpt lat="45.95035" lon="6.55987">
        <ele>2165.4</ele>
        <time>2026-02-02T08:56:13Z</time>
      </trkpt>
      <trkpt lat="45.95034" lon="6.55987">
        <ele>2165.5</ele>
        <time>2026-02-02T08:56:14Z</time>
      </trkpt>
      <trkpt lat="45.95034" lon="6.55986">
        <ele>2165.5</ele>
        <time>2026-02-02T08:56:15Z</time>
      </trkpt>
      <trkpt lat="45.95033" lon="6.55986">
        <ele>2165.6</ele>
        <time>2026-02-02T08:56:16Z</time>
      </trkpt>
      <trkpt lat="45.95032" lon="6.55985">
        <ele>2165.7</ele>
        <time>2026-02-02T08:56:17Z</time>
      </trkpt>
      <trkpt lat="45.95032" lon="6.55984">
        <ele>2165.7</ele>
        <time>2026-02-02T08:56:18Z</time>
      </trkpt>
      <trkpt lat="45.95031" lon="6.55983">
        <ele>2165.9</ele>
        <time>2026-02-02T08:56:19Z</time>
      </trkpt>
      <trkpt lat="45.9503" lon="6.55982">
        <ele>2166</ele>
        <time>2026-02-02T08:56:20Z</time>
      </trkpt>
      <trkpt lat="45.95029" lon="6.55982">
        <ele>2166.1</ele>
        <time>2026-02-02T08:56:21Z</time>
      </trkpt>
      <trkpt lat="45.95028" lon="6.55981">
        <ele>2166.2</ele>
        <time>2026-02-02T08:56:22Z</time>
      </trkpt>
      <trkpt lat="45.95027" lon="6.55981">
        <ele>2166.3</ele>
        <time>2026-02-02T08:56:23Z</time>
      </trkpt>
      <trkpt lat="45.95026" lon="6.5598">
        <ele>2166.4</ele>
        <time>2026-02-02T08:56:25Z</time>
      </trkpt>
      <trkpt lat="45.95026" lon="6.5598">
        <ele>2166.5</ele>
        <time>2026-02-02T08:56:26Z</time>
      </trkpt>
      <trkpt lat="45.95025" lon="6.55979">
        <ele>2166.6</ele>
        <time>2026-02-02T08:56:27Z</time>
      </trkpt>
      <trkpt lat="45.95025" lon="6.55979">
        <ele>2166.6</ele>
        <time>2026-02-02T08:56:28Z</time>
      </trkpt>
      <trkpt lat="45.95025" lon="6.55978">
        <ele>2166.7</ele>
        <time>2026-02-02T08:56:29Z</time>
      </trkpt>
      <trkpt lat="45.95025" lon="6.55978">
        <ele>2166.7</ele>
        <time>2026-02-02T08:56:30Z</time>
      </trkpt>
      <trkpt lat="45.95025" lon="6.55978">
        <ele>2166.8</ele>
        <time>2026-02-02T08:56:31Z</time>
      </trkpt>
      <trkpt lat="45.95025" lon="6.55978">
        <ele>2166.8</ele>
        <time>2026-02-02T08:56:32Z</time>
      </trkpt>
      <trkpt lat="45.95025" lon="6.55978">
        <ele>2166.8</ele>
        <time>2026-02-02T08:56:33Z</time>
      </trkpt>
      <trkpt lat="45.95025" lon="6.55978">
        <ele>2166.8</ele>
        <time>2026-02-02T08:56:34Z</time>
      </trkpt>
      <trkpt lat="45.95025" lon="6.55978">
        <ele>2166.8</ele>
        <time>2026-02-02T08:56:35Z</time>
      </trkpt>
      <trkpt lat="45.95025" lon="6.55978">
        <ele>2166.8</ele>
        <time>2026-02-02T08:56:36Z</time>
      </trkpt>
      <trkpt lat="45.95025" lon="6.55978">
        <ele>2166.8</ele>
        <time>2026-02-02T08:56:37Z</time>
      </trkpt>
      <trkpt lat="45.95025" lon="6.55978">
        <ele>2166.8</ele>
        <time>2026-02-02T08:56:38Z</time>
      </trkpt>
      <trkpt lat="45.95026" lon="6.55977">
        <ele>2166.8</ele>
        <time>2026-02-02T08:56:39Z</time>
      </trkpt>
      <trkpt lat="45.95026" lon="6.55977">
        <ele>2166.8</ele>
        <time>2026-02-02T08:56:40Z</time>
      </trkpt>
      <trkpt lat="45.95026" lon="6.55977">
        <ele>2166.8</ele>
        <time>2026-02-02T08:56:41Z</time>
      </trkpt>
      <trkpt lat="45.95026" lon="6.55977">
        <ele>2166.8</ele>
        <time>2026-02-02T08:56:42Z</time>
      </trkpt>
      <trkpt lat="45.95026" lon="6.55977">
        <ele>2166.8</ele>
        <time>2026-02-02T08:56:43Z</time>
      </trkpt>
      <trkpt lat="45.95026" lon="6.55977">
        <ele>2166.8</ele>
        <time>2026-02-02T08:56:44Z</time>
      </trkpt>
      <trkpt lat="45.95026" lon="6.55977">
        <ele>2166.8</ele>
        <time>2026-02-02T08:56:45Z</time>
      </trkpt>
      <trkpt lat="45.95026" lon="6.55977">
        <ele>2166.8</ele>
        <time>2026-02-02T08:56:46Z</time>
      </trkpt>
      <trkpt lat="45.95026" lon="6.55977">
        <ele>2166.8</ele>
        <time>2026-02-02T08:56:47Z</time>
      </trkpt>
      <trkpt lat="45.95026" lon="6.55977">
        <ele>2166.8</ele>
        <time>2026-02-02T08:56:48Z</time>
      </trkpt>
      <trkpt lat="45.95026" lon="6.55977">
        <ele>2166.8</ele>
        <time>2026-02-02T08:56:49Z</time>
      </trkpt>
      <trkpt lat="45.95026" lon="6.55977">
        <ele>2166.8</ele>
        <time>2026-02-02T08:56:50Z</time>
      </trkpt>
      <trkpt lat="45.95026" lon="6.55977">
        <ele>2166.8</ele>
        <time>2026-02-02T08:56:51Z</time>
      </trkpt>
      <trkpt lat="45.95026" lon="6.55977">
        <ele>2166.8</ele>
        <time>2026-02-02T08:56:52Z</time>
      </trkpt>
      <trkpt lat="45.95026" lon="6.55977">
        <ele>2166.8</ele>
        <time>2026-02-02T08:56:53Z</time>
      </trkpt>
      <trkpt lat="45.95026" lon="6.55977">
        <ele>2166.9</ele>
        <time>2026-02-02T08:56:54Z</time>
      </trkpt>
      <trkpt lat="45.95026" lon="6.55977">
        <ele>2166.9</ele>
        <time>2026-02-02T08:56:55Z</time>
      </trkpt>
      <trkpt lat="45.95025" lon="6.55976">
        <ele>2167</ele>
        <time>2026-02-02T08:56:56Z</time>
      </trkpt>
      <trkpt lat="45.95025" lon="6.55976">
        <ele>2167</ele>
        <time>2026-02-02T08:56:57Z</time>
      </trkpt>
      <trkpt lat="45.95024" lon="6.55975">
        <ele>2167.2</ele>
        <time>2026-02-02T08:56:58Z</time>
      </trkpt>
      <trkpt lat="45.95023" lon="6.55975">
        <ele>2167.3</ele>
        <time>2026-02-02T08:56:59Z</time>
      </trkpt>
      <trkpt lat="45.95022" lon="6.55974">
        <ele>2167.4</ele>
        <time>2026-02-02T08:57:00Z</time>
      </trkpt>
      <trkpt lat="45.95022" lon="6.55973">
        <ele>2167.5</ele>
        <time>2026-02-02T08:57:01Z</time>
      </trkpt>
      <trkpt lat="45.95021" lon="6.55972">
        <ele>2167.6</ele>
        <time>2026-02-02T08:57:02Z</time>
      </trkpt>
      <trkpt lat="45.9502" lon="6.55972">
        <ele>2167.7</ele>
        <time>2026-02-02T08:57:03Z</time>
      </trkpt>
      <trkpt lat="45.9502" lon="6.55972">
        <ele>2167.8</ele>
        <time>2026-02-02T08:57:04Z</time>
      </trkpt>
      <trkpt lat="45.9502" lon="6.55971">
        <ele>2167.8</ele>
        <time>2026-02-02T08:57:05Z</time>
      </trkpt>
      <trkpt lat="45.95019" lon="6.55972">
        <ele>2167.9</ele>
        <time>2026-02-02T08:57:06Z</time>
      </trkpt>
      <trkpt lat="45.95018" lon="6.55971">
        <ele>2168</ele>
        <time>2026-02-02T08:57:07Z</time>
      </trkpt>
      <trkpt lat="45.95018" lon="6.55969">
        <ele>2168.2</ele>
        <time>2026-02-02T08:57:08Z</time>
      </trkpt>
      <trkpt lat="45.95016" lon="6.55969">
        <ele>2168.4</ele>
        <time>2026-02-02T08:57:09Z</time>
      </trkpt>
      <trkpt lat="45.95016" lon="6.5597">
        <ele>2168.5</ele>
        <time>2026-02-02T08:57:10Z</time>
      </trkpt>
      <trkpt lat="45.95014" lon="6.5597">
        <ele>2168.7</ele>
        <time>2026-02-02T08:57:11Z</time>
      </trkpt>
      <trkpt lat="45.95014" lon="6.55969">
        <ele>2168.8</ele>
        <time>2026-02-02T08:57:12Z</time>
      </trkpt>
      <trkpt lat="45.95012" lon="6.55969">
        <ele>2168.9</ele>
        <time>2026-02-02T08:57:13Z</time>
      </trkpt>
      <trkpt lat="45.95011" lon="6.55968">
        <ele>2169.1</ele>
        <time>2026-02-02T08:57:14Z</time>
      </trkpt>
      <trkpt lat="45.9501" lon="6.55967">
        <ele>2169.2</ele>
        <time>2026-02-02T08:57:15Z</time>
      </trkpt>
      <trkpt lat="45.95009" lon="6.55967">
        <ele>2169.4</ele>
        <time>2026-02-02T08:57:16Z</time>
      </trkpt>
      <trkpt lat="45.95009" lon="6.55966">
        <ele>2169.5</ele>
        <time>2026-02-02T08:57:17Z</time>
      </trkpt>
      <trkpt lat="45.95008" lon="6.55965">
        <ele>2169.6</ele>
        <time>2026-02-02T08:57:18Z</time>
      </trkpt>
      <trkpt lat="45.95007" lon="6.55965">
        <ele>2169.7</ele>
        <time>2026-02-02T08:57:19Z</time>
      </trkpt>
      <trkpt lat="45.95006" lon="6.55964">
        <ele>2169.8</ele>
        <time>2026-02-02T08:57:20Z</time>
      </trkpt>
      <trkpt lat="45.95005" lon="6.55964">
        <ele>2169.9</ele>
        <time>2026-02-02T08:57:21Z</time>
      </trkpt>
      <trkpt lat="45.95005" lon="6.55963">
        <ele>2170</ele>
        <time>2026-02-02T08:57:22Z</time>
      </trkpt>
      <trkpt lat="45.95004" lon="6.55963">
        <ele>2170.1</ele>
        <time>2026-02-02T08:57:23Z</time>
      </trkpt>
      <trkpt lat="45.95003" lon="6.55963">
        <ele>2170.2</ele>
        <time>2026-02-02T08:57:24Z</time>
      </trkpt>
      <trkpt lat="45.95003" lon="6.55963">
        <ele>2170.2</ele>
        <time>2026-02-02T08:57:25Z</time>
      </trkpt>
      <trkpt lat="45.95003" lon="6.55963">
        <ele>2170.2</ele>
        <time>2026-02-02T08:57:26Z</time>
      </trkpt>
      <trkpt lat="45.95003" lon="6.55963">
        <ele>2170.2</ele>
        <time>2026-02-02T08:57:27Z</time>
      </trkpt>
      <trkpt lat="45.95002" lon="6.55962">
        <ele>2170.3</ele>
        <time>2026-02-02T08:57:28Z</time>
      </trkpt>
      <trkpt lat="45.95002" lon="6.55962">
        <ele>2170.4</ele>
        <time>2026-02-02T08:57:29Z</time>
      </trkpt>
      <trkpt lat="45.95001" lon="6.55961">
        <ele>2170.5</ele>
        <time>2026-02-02T08:57:30Z</time>
      </trkpt>
      <trkpt lat="45.95" lon="6.55959">
        <ele>2170.6</ele>
        <time>2026-02-02T08:57:31Z</time>
      </trkpt>
      <trkpt lat="45.94999" lon="6.55958">
        <ele>2170.8</ele>
        <time>2026-02-02T08:57:32Z</time>
      </trkpt>
      <trkpt lat="45.94998" lon="6.55956">
        <ele>2170.9</ele>
        <time>2026-02-02T08:57:33Z</time>
      </trkpt>
      <trkpt lat="45.94997" lon="6.55955">
        <ele>2171</ele>
        <time>2026-02-02T08:57:34Z</time>
      </trkpt>
      <trkpt lat="45.94997" lon="6.55954">
        <ele>2171</ele>
        <time>2026-02-02T08:57:35Z</time>
      </trkpt>
      <trkpt lat="45.94997" lon="6.55954">
        <ele>2171.1</ele>
        <time>2026-02-02T08:57:36Z</time>
      </trkpt>
      <trkpt lat="45.94997" lon="6.55954">
        <ele>2171.1</ele>
        <time>2026-02-02T08:57:37Z</time>
      </trkpt>
      <trkpt lat="45.94996" lon="6.55953">
        <ele>2171.1</ele>
        <time>2026-02-02T08:57:38Z</time>
      </trkpt>
      <trkpt lat="45.94996" lon="6.55953">
        <ele>2171.1</ele>
        <time>2026-02-02T08:57:39Z</time>
      </trkpt>
      <trkpt lat="45.94996" lon="6.55953">
        <ele>2171.2</ele>
        <time>2026-02-02T08:57:41Z</time>
      </trkpt>
      <trkpt lat="45.94995" lon="6.55952">
        <ele>2171.2</ele>
        <time>2026-02-02T08:57:42Z</time>
      </trkpt>
      <trkpt lat="45.94995" lon="6.55952">
        <ele>2171.2</ele>
        <time>2026-02-02T08:57:43Z</time>
      </trkpt>
      <trkpt lat="45.94995" lon="6.55952">
        <ele>2171.3</ele>
        <time>2026-02-02T08:57:44Z</time>
      </trkpt>
      <trkpt lat="45.94995" lon="6.55951">
        <ele>2171.3</ele>
        <time>2026-02-02T08:57:45Z</time>
      </trkpt>
      <trkpt lat="45.94994" lon="6.55951">
        <ele>2171.3</ele>
        <time>2026-02-02T08:57:46Z</time>
      </trkpt>
      <trkpt lat="45.94994" lon="6.55951">
        <ele>2171.3</ele>
        <time>2026-02-02T08:57:47Z</time>
      </trkpt>
      <trkpt lat="45.94993" lon="6.55949">
        <ele>2171.5</ele>
        <time>2026-02-02T08:57:48Z</time>
      </trkpt>
      <trkpt lat="45.94992" lon="6.55949">
        <ele>2171.5</ele>
        <time>2026-02-02T08:57:49Z</time>
      </trkpt>
      <trkpt lat="45.94991" lon="6.55948">
        <ele>2171.6</ele>
        <time>2026-02-02T08:57:50Z</time>
      </trkpt>
      <trkpt lat="45.9499" lon="6.55947">
        <ele>2171.7</ele>
        <time>2026-02-02T08:57:51Z</time>
      </trkpt>
      <trkpt lat="45.94988" lon="6.55947">
        <ele>2171.8</ele>
        <time>2026-02-02T08:57:52Z</time>
      </trkpt>
      <trkpt lat="45.94987" lon="6.55946">
        <ele>2171.8</ele>
        <time>2026-02-02T08:57:53Z</time>
      </trkpt>
      <trkpt lat="45.94986" lon="6.55945">
        <ele>2171.9</ele>
        <time>2026-02-02T08:57:54Z</time>
      </trkpt>
      <trkpt lat="45.94985" lon="6.55945">
        <ele>2172</ele>
        <time>2026-02-02T08:57:55Z</time>
      </trkpt>
      <trkpt lat="45.94985" lon="6.55944">
        <ele>2172</ele>
        <time>2026-02-02T08:57:56Z</time>
      </trkpt>
      <trkpt lat="45.94984" lon="6.55944">
        <ele>2172.1</ele>
        <time>2026-02-02T08:57:57Z</time>
      </trkpt>
      <trkpt lat="45.94983" lon="6.55943">
        <ele>2172.1</ele>
        <time>2026-02-02T08:57:58Z</time>
      </trkpt>
      <trkpt lat="45.94982" lon="6.55943">
        <ele>2172.2</ele>
        <time>2026-02-02T08:57:59Z</time>
      </trkpt>
      <trkpt lat="45.94981" lon="6.55942">
        <ele>2172.3</ele>
        <time>2026-02-02T08:58:00Z</time>
      </trkpt>
      <trkpt lat="45.9498" lon="6.55942">
        <ele>2172.4</ele>
        <time>2026-02-02T08:58:01Z</time>
      </trkpt>
      <trkpt lat="45.94978" lon="6.55941">
        <ele>2172.5</ele>
        <time>2026-02-02T08:58:03Z</time>
      </trkpt>
      <trkpt lat="45.94977" lon="6.55941">
        <ele>2172.6</ele>
        <time>2026-02-02T08:58:04Z</time>
      </trkpt>
      <trkpt lat="45.94977" lon="6.5594">
        <ele>2172.6</ele>
        <time>2026-02-02T08:58:05Z</time>
      </trkpt>
      <trkpt lat="45.94976" lon="6.5594">
        <ele>2172.7</ele>
        <time>2026-02-02T08:58:06Z</time>
      </trkpt>
      <trkpt lat="45.94975" lon="6.5594">
        <ele>2172.7</ele>
        <time>2026-02-02T08:58:07Z</time>
      </trkpt>
      <trkpt lat="45.94975" lon="6.55939">
        <ele>2172.8</ele>
        <time>2026-02-02T08:58:08Z</time>
      </trkpt>
      <trkpt lat="45.94974" lon="6.55939">
        <ele>2172.9</ele>
        <time>2026-02-02T08:58:09Z</time>
      </trkpt>
      <trkpt lat="45.94973" lon="6.55938">
        <ele>2172.9</ele>
        <time>2026-02-02T08:58:10Z</time>
      </trkpt>
      <trkpt lat="45.94972" lon="6.55937">
        <ele>2173</ele>
        <time>2026-02-02T08:58:11Z</time>
      </trkpt>
      <trkpt lat="45.94971" lon="6.55936">
        <ele>2173.1</ele>
        <time>2026-02-02T08:58:13Z</time>
      </trkpt>
      <trkpt lat="45.94972" lon="6.55936">
        <ele>2173.1</ele>
        <time>2026-02-02T08:58:14Z</time>
      </trkpt>
      <trkpt lat="45.94972" lon="6.55936">
        <ele>2173.2</ele>
        <time>2026-02-02T08:58:15Z</time>
      </trkpt>
      <trkpt lat="45.94972" lon="6.55936">
        <ele>2173.2</ele>
        <time>2026-02-02T08:58:16Z</time>
      </trkpt>
      <trkpt lat="45.94972" lon="6.55935">
        <ele>2173.2</ele>
        <time>2026-02-02T08:58:17Z</time>
      </trkpt>
      <trkpt lat="45.94972" lon="6.55935">
        <ele>2173.2</ele>
        <time>2026-02-02T08:58:18Z</time>
      </trkpt>
      <trkpt lat="45.94972" lon="6.55935">
        <ele>2173.2</ele>
        <time>2026-02-02T08:58:19Z</time>
      </trkpt>
      <trkpt lat="45.94972" lon="6.55935">
        <ele>2173.2</ele>
        <time>2026-02-02T08:58:20Z</time>
      </trkpt>
      <trkpt lat="45.94972" lon="6.55935">
        <ele>2173.2</ele>
        <time>2026-02-02T08:58:21Z</time>
      </trkpt>
      <trkpt lat="45.94972" lon="6.55935">
        <ele>2173.2</ele>
        <time>2026-02-02T08:58:22Z</time>
      </trkpt>
      <trkpt lat="45.94972" lon="6.55935">
        <ele>2173.2</ele>
        <time>2026-02-02T08:58:23Z</time>
      </trkpt>
      <trkpt lat="45.94972" lon="6.55935">
        <ele>2173.2</ele>
        <time>2026-02-02T08:58:24Z</time>
      </trkpt>
      <trkpt lat="45.94972" lon="6.55935">
        <ele>2173.2</ele>
        <time>2026-02-02T08:58:25Z</time>
      </trkpt>
      <trkpt lat="45.94972" lon="6.55935">
        <ele>2173.2</ele>
        <time>2026-02-02T08:58:26Z</time>
      </trkpt>
      <trkpt lat="45.94972" lon="6.55935">
        <ele>2173.2</ele>
        <time>2026-02-02T08:58:27Z</time>
      </trkpt>
      <trkpt lat="45.94972" lon="6.55935">
        <ele>2173.2</ele>
        <time>2026-02-02T08:58:28Z</time>
      </trkpt>
      <trkpt lat="45.94972" lon="6.55935">
        <ele>2173.2</ele>
        <time>2026-02-02T08:58:29Z</time>
      </trkpt>
      <trkpt lat="45.94972" lon="6.55935">
        <ele>2173.2</ele>
        <time>2026-02-02T08:58:30Z</time>
      </trkpt>
      <trkpt lat="45.94972" lon="6.55935">
        <ele>2173.2</ele>
        <time>2026-02-02T08:58:31Z</time>
      </trkpt>
      <trkpt lat="45.94972" lon="6.55935">
        <ele>2173.2</ele>
        <time>2026-02-02T08:58:32Z</time>
      </trkpt>
      <trkpt lat="45.94972" lon="6.55935">
        <ele>2173.2</ele>
        <time>2026-02-02T08:58:33Z</time>
      </trkpt>
      <trkpt lat="45.94972" lon="6.55935">
        <ele>2173.2</ele>
        <time>2026-02-02T08:58:34Z</time>
      </trkpt>
      <trkpt lat="45.94972" lon="6.55935">
        <ele>2173.3</ele>
        <time>2026-02-02T08:58:35Z</time>
      </trkpt>
      <trkpt lat="45.94971" lon="6.55935">
        <ele>2173.3</ele>
        <time>2026-02-02T08:58:36Z</time>
      </trkpt>
      <trkpt lat="45.94971" lon="6.55934">
        <ele>2173.3</ele>
        <time>2026-02-02T08:58:37Z</time>
      </trkpt>
      <trkpt lat="45.9497" lon="6.55934">
        <ele>2173.4</ele>
        <time>2026-02-02T08:58:38Z</time>
      </trkpt>
      <trkpt lat="45.9497" lon="6.55933">
        <ele>2173.4</ele>
        <time>2026-02-02T08:58:39Z</time>
      </trkpt>
      <trkpt lat="45.94969" lon="6.55932">
        <ele>2173.5</ele>
        <time>2026-02-02T08:58:40Z</time>
      </trkpt>
      <trkpt lat="45.94968" lon="6.55931">
        <ele>2173.6</ele>
        <time>2026-02-02T08:58:41Z</time>
      </trkpt>
      <trkpt lat="45.94968" lon="6.55931">
        <ele>2173.6</ele>
        <time>2026-02-02T08:58:42Z</time>
      </trkpt>
      <trkpt lat="45.94968" lon="6.55931">
        <ele>2173.6</ele>
        <time>2026-02-02T08:58:43Z</time>
      </trkpt>
      <trkpt lat="45.94966" lon="6.5593">
        <ele>2173.8</ele>
        <time>2026-02-02T08:58:44Z</time>
      </trkpt>
      <trkpt lat="45.94966" lon="6.55928">
        <ele>2173.9</ele>
        <time>2026-02-02T08:58:45Z</time>
      </trkpt>
      <trkpt lat="45.94965" lon="6.55927">
        <ele>2173.9</ele>
        <time>2026-02-02T08:58:46Z</time>
      </trkpt>
      <trkpt lat="45.94965" lon="6.55926">
        <ele>2174</ele>
        <time>2026-02-02T08:58:47Z</time>
      </trkpt>
      <trkpt lat="45.94964" lon="6.55925">
        <ele>2174.1</ele>
        <time>2026-02-02T08:58:48Z</time>
      </trkpt>
      <trkpt lat="45.94964" lon="6.55925">
        <ele>2174.1</ele>
        <time>2026-02-02T08:58:49Z</time>
      </trkpt>
      <trkpt lat="45.94964" lon="6.55925">
        <ele>2174.1</ele>
        <time>2026-02-02T08:58:50Z</time>
      </trkpt>
      <trkpt lat="45.94964" lon="6.55925">
        <ele>2174.1</ele>
        <time>2026-02-02T08:58:51Z</time>
      </trkpt>
      <trkpt lat="45.94963" lon="6.55924">
        <ele>2174.2</ele>
        <time>2026-02-02T08:58:52Z</time>
      </trkpt>
      <trkpt lat="45.94963" lon="6.55924">
        <ele>2174.2</ele>
        <time>2026-02-02T08:58:53Z</time>
      </trkpt>
      <trkpt lat="45.94962" lon="6.55924">
        <ele>2174.3</ele>
        <time>2026-02-02T08:58:54Z</time>
      </trkpt>
      <trkpt lat="45.94961" lon="6.55923">
        <ele>2174.3</ele>
        <time>2026-02-02T08:58:55Z</time>
      </trkpt>
      <trkpt lat="45.94961" lon="6.55923">
        <ele>2174.3</ele>
        <time>2026-02-02T08:58:56Z</time>
      </trkpt>
      <trkpt lat="45.9496" lon="6.55922">
        <ele>2174.4</ele>
        <time>2026-02-02T08:58:57Z</time>
      </trkpt>
      <trkpt lat="45.94959" lon="6.55921">
        <ele>2174.5</ele>
        <time>2026-02-02T08:58:58Z</time>
      </trkpt>
      <trkpt lat="45.94959" lon="6.5592">
        <ele>2174.5</ele>
        <time>2026-02-02T08:58:59Z</time>
      </trkpt>
      <trkpt lat="45.94958" lon="6.5592">
        <ele>2174.6</ele>
        <time>2026-02-02T08:59:00Z</time>
      </trkpt>
      <trkpt lat="45.94958" lon="6.55919">
        <ele>2174.6</ele>
        <time>2026-02-02T08:59:01Z</time>
      </trkpt>
      <trkpt lat="45.94958" lon="6.55918">
        <ele>2174.7</ele>
        <time>2026-02-02T08:59:02Z</time>
      </trkpt>
      <trkpt lat="45.94956" lon="6.55916">
        <ele>2174.8</ele>
        <time>2026-02-02T08:59:03Z</time>
      </trkpt>
      <trkpt lat="45.94956" lon="6.55915">
        <ele>2174.8</ele>
        <time>2026-02-02T08:59:04Z</time>
      </trkpt>
      <trkpt lat="45.94956" lon="6.55914">
        <ele>2174.8</ele>
        <time>2026-02-02T08:59:05Z</time>
      </trkpt>
      <trkpt lat="45.94955" lon="6.55914">
        <ele>2174.8</ele>
        <time>2026-02-02T08:59:06Z</time>
      </trkpt>
      <trkpt lat="45.94955" lon="6.55913">
        <ele>2174.9</ele>
        <time>2026-02-02T08:59:07Z</time>
      </trkpt>
      <trkpt lat="45.94955" lon="6.55913">
        <ele>2174.9</ele>
        <time>2026-02-02T08:59:08Z</time>
      </trkpt>
      <trkpt lat="45.94955" lon="6.55913">
        <ele>2174.9</ele>
        <time>2026-02-02T08:59:09Z</time>
      </trkpt>
      <trkpt lat="45.94955" lon="6.55913">
        <ele>2174.9</ele>
        <time>2026-02-02T08:59:10Z</time>
      </trkpt>
      <trkpt lat="45.94955" lon="6.55913">
        <ele>2174.9</ele>
        <time>2026-02-02T08:59:11Z</time>
      </trkpt>
      <trkpt lat="45.94955" lon="6.55913">
        <ele>2174.9</ele>
        <time>2026-02-02T08:59:12Z</time>
      </trkpt>
      <trkpt lat="45.94955" lon="6.55913">
        <ele>2174.9</ele>
        <time>2026-02-02T08:59:13Z</time>
      </trkpt>
      <trkpt lat="45.94955" lon="6.55913">
        <ele>2174.9</ele>
        <time>2026-02-02T08:59:14Z</time>
      </trkpt>
      <trkpt lat="45.94955" lon="6.55913">
        <ele>2174.9</ele>
        <time>2026-02-02T08:59:15Z</time>
      </trkpt>
      <trkpt lat="45.94955" lon="6.55913">
        <ele>2174.9</ele>
        <time>2026-02-02T08:59:16Z</time>
      </trkpt>
      <trkpt lat="45.94955" lon="6.55913">
        <ele>2174.9</ele>
        <time>2026-02-02T08:59:17Z</time>
      </trkpt>
      <trkpt lat="45.94955" lon="6.55913">
        <ele>2174.9</ele>
        <time>2026-02-02T08:59:18Z</time>
      </trkpt>
      <trkpt lat="45.94955" lon="6.55913">
        <ele>2174.9</ele>
        <time>2026-02-02T08:59:19Z</time>
      </trkpt>
      <trkpt lat="45.94954" lon="6.55913">
        <ele>2174.9</ele>
        <time>2026-02-02T08:59:20Z</time>
      </trkpt>
      <trkpt lat="45.94954" lon="6.55913">
        <ele>2174.9</ele>
        <time>2026-02-02T08:59:21Z</time>
      </trkpt>
      <trkpt lat="45.94954" lon="6.55912">
        <ele>2174.9</ele>
        <time>2026-02-02T08:59:22Z</time>
      </trkpt>
      <trkpt lat="45.94953" lon="6.55911">
        <ele>2175</ele>
        <time>2026-02-02T08:59:23Z</time>
      </trkpt>
      <trkpt lat="45.94952" lon="6.5591">
        <ele>2175</ele>
        <time>2026-02-02T08:59:24Z</time>
      </trkpt>
      <trkpt lat="45.94951" lon="6.55909">
        <ele>2175</ele>
        <time>2026-02-02T08:59:25Z</time>
      </trkpt>
      <trkpt lat="45.94951" lon="6.55908">
        <ele>2175.1</ele>
        <time>2026-02-02T08:59:26Z</time>
      </trkpt>
      <trkpt lat="45.9495" lon="6.55908">
        <ele>2175.1</ele>
        <time>2026-02-02T08:59:27Z</time>
      </trkpt>
      <trkpt lat="45.94948" lon="6.55906">
        <ele>2175.2</ele>
        <time>2026-02-02T08:59:28Z</time>
      </trkpt>
      <trkpt lat="45.94947" lon="6.55906">
        <ele>2175.2</ele>
        <time>2026-02-02T08:59:29Z</time>
      </trkpt>
      <trkpt lat="45.94947" lon="6.55905">
        <ele>2175.3</ele>
        <time>2026-02-02T08:59:30Z</time>
      </trkpt>
      <trkpt lat="45.94945" lon="6.55904">
        <ele>2175.3</ele>
        <time>2026-02-02T08:59:31Z</time>
      </trkpt>
      <trkpt lat="45.94944" lon="6.55904">
        <ele>2175.4</ele>
        <time>2026-02-02T08:59:32Z</time>
      </trkpt>
      <trkpt lat="45.94944" lon="6.55902">
        <ele>2175.5</ele>
        <time>2026-02-02T08:59:33Z</time>
      </trkpt>
      <trkpt lat="45.94943" lon="6.55902">
        <ele>2175.6</ele>
        <time>2026-02-02T08:59:34Z</time>
      </trkpt>
      <trkpt lat="45.94941" lon="6.559">
        <ele>2175.8</ele>
        <time>2026-02-02T08:59:35Z</time>
      </trkpt>
      <trkpt lat="45.9494" lon="6.55899">
        <ele>2175.9</ele>
        <time>2026-02-02T08:59:36Z</time>
      </trkpt>
      <trkpt lat="45.9494" lon="6.55898">
        <ele>2176</ele>
        <time>2026-02-02T08:59:37Z</time>
      </trkpt>
      <trkpt lat="45.9494" lon="6.55898">
        <ele>2176.1</ele>
        <time>2026-02-02T08:59:38Z</time>
      </trkpt>
      <trkpt lat="45.94941" lon="6.55898">
        <ele>2176.2</ele>
        <time>2026-02-02T08:59:39Z</time>
      </trkpt>
      <trkpt lat="45.94941" lon="6.55898">
        <ele>2176.2</ele>
        <time>2026-02-02T08:59:40Z</time>
      </trkpt>
      <trkpt lat="45.94941" lon="6.55898">
        <ele>2176.2</ele>
        <time>2026-02-02T08:59:41Z</time>
      </trkpt>
      <trkpt lat="45.94941" lon="6.55898">
        <ele>2176.3</ele>
        <time>2026-02-02T08:59:42Z</time>
      </trkpt>
      <trkpt lat="45.94941" lon="6.55897">
        <ele>2176.3</ele>
        <time>2026-02-02T08:59:43Z</time>
      </trkpt>
      <trkpt lat="45.94941" lon="6.55897">
        <ele>2176.3</ele>
        <time>2026-02-02T08:59:44Z</time>
      </trkpt>
      <trkpt lat="45.94941" lon="6.55897">
        <ele>2176.3</ele>
        <time>2026-02-02T08:59:45Z</time>
      </trkpt>
      <trkpt lat="45.94941" lon="6.55897">
        <ele>2176.3</ele>
        <time>2026-02-02T08:59:46Z</time>
      </trkpt>
      <trkpt lat="45.94942" lon="6.55897">
        <ele>2176.3</ele>
        <time>2026-02-02T08:59:47Z</time>
      </trkpt>
      <trkpt lat="45.94942" lon="6.55897">
        <ele>2176.3</ele>
        <time>2026-02-02T08:59:48Z</time>
      </trkpt>
      <trkpt lat="45.94941" lon="6.55897">
        <ele>2176.3</ele>
        <time>2026-02-02T08:59:49Z</time>
      </trkpt>
      <trkpt lat="45.94941" lon="6.55897">
        <ele>2176.4</ele>
        <time>2026-02-02T08:59:50Z</time>
      </trkpt>
      <trkpt lat="45.94941" lon="6.55897">
        <ele>2176.4</ele>
        <time>2026-02-02T08:59:51Z</time>
      </trkpt>
      <trkpt lat="45.94941" lon="6.55897">
        <ele>2176.4</ele>
        <time>2026-02-02T08:59:52Z</time>
      </trkpt>
      <trkpt lat="45.94941" lon="6.55897">
        <ele>2176.4</ele>
        <time>2026-02-02T08:59:53Z</time>
      </trkpt>
      <trkpt lat="45.94941" lon="6.55897">
        <ele>2176.5</ele>
        <time>2026-02-02T08:59:54Z</time>
      </trkpt>
      <trkpt lat="45.94941" lon="6.55898">
        <ele>2176.5</ele>
        <time>2026-02-02T08:59:55Z</time>
      </trkpt>
      <trkpt lat="45.94941" lon="6.55898">
        <ele>2176.5</ele>
        <time>2026-02-02T08:59:56Z</time>
      </trkpt>
      <trkpt lat="45.94941" lon="6.55898">
        <ele>2176.5</ele>
        <time>2026-02-02T08:59:57Z</time>
      </trkpt>
      <trkpt lat="45.94941" lon="6.55898">
        <ele>2176.5</ele>
        <time>2026-02-02T08:59:58Z</time>
      </trkpt>
      <trkpt lat="45.94941" lon="6.55898">
        <ele>2176.5</ele>
        <time>2026-02-02T08:59:59Z</time>
      </trkpt>
      <trkpt lat="45.94941" lon="6.55897">
        <ele>2176.6</ele>
        <time>2026-02-02T09:00:00Z</time>
      </trkpt>
      <trkpt lat="45.9494" lon="6.55897">
        <ele>2176.8</ele>
        <time>2026-02-02T09:00:01Z</time>
      </trkpt>
      <trkpt lat="45.94939" lon="6.55896">
        <ele>2176.9</ele>
        <time>2026-02-02T09:00:02Z</time>
      </trkpt>
      <trkpt lat="45.94938" lon="6.55895">
        <ele>2177.1</ele>
        <time>2026-02-02T09:00:03Z</time>
      </trkpt>
      <trkpt lat="45.94938" lon="6.55895">
        <ele>2177.2</ele>
        <time>2026-02-02T09:00:04Z</time>
      </trkpt>
      <trkpt lat="45.94938" lon="6.55894">
        <ele>2177.3</ele>
        <time>2026-02-02T09:00:05Z</time>
      </trkpt>
      <trkpt lat="45.94937" lon="6.55893">
        <ele>2177.4</ele>
        <time>2026-02-02T09:00:06Z</time>
      </trkpt>
      <trkpt lat="45.94937" lon="6.55891">
        <ele>2177.5</ele>
        <time>2026-02-02T09:00:07Z</time>
      </trkpt>
      <trkpt lat="45.94936" lon="6.5589">
        <ele>2177.6</ele>
        <time>2026-02-02T09:00:08Z</time>
      </trkpt>
      <trkpt lat="45.94935" lon="6.55889">
        <ele>2177.7</ele>
        <time>2026-02-02T09:00:09Z</time>
      </trkpt>
      <trkpt lat="45.94935" lon="6.55888">
        <ele>2177.7</ele>
        <time>2026-02-02T09:00:10Z</time>
      </trkpt>
      <trkpt lat="45.94934" lon="6.55889">
        <ele>2177.8</ele>
        <time>2026-02-02T09:00:11Z</time>
      </trkpt>
      <trkpt lat="45.94933" lon="6.55888">
        <ele>2177.9</ele>
        <time>2026-02-02T09:00:12Z</time>
      </trkpt>
      <trkpt lat="45.94932" lon="6.55887">
        <ele>2178</ele>
        <time>2026-02-02T09:00:13Z</time>
      </trkpt>
      <trkpt lat="45.94931" lon="6.55887">
        <ele>2178.1</ele>
        <time>2026-02-02T09:00:14Z</time>
      </trkpt>
      <trkpt lat="45.9493" lon="6.55886">
        <ele>2178.2</ele>
        <time>2026-02-02T09:00:15Z</time>
      </trkpt>
      <trkpt lat="45.94929" lon="6.55886">
        <ele>2178.2</ele>
        <time>2026-02-02T09:00:16Z</time>
      </trkpt>
      <trkpt lat="45.94929" lon="6.55886">
        <ele>2178.2</ele>
        <time>2026-02-02T09:00:17Z</time>
      </trkpt>
      <trkpt lat="45.94929" lon="6.55886">
        <ele>2178.2</ele>
        <time>2026-02-02T09:00:18Z</time>
      </trkpt>
      <trkpt lat="45.94929" lon="6.55886">
        <ele>2178.3</ele>
        <time>2026-02-02T09:00:19Z</time>
      </trkpt>
      <trkpt lat="45.94929" lon="6.55886">
        <ele>2178.3</ele>
        <time>2026-02-02T09:00:20Z</time>
      </trkpt>
      <trkpt lat="45.94928" lon="6.55886">
        <ele>2178.3</ele>
        <time>2026-02-02T09:00:21Z</time>
      </trkpt>
      <trkpt lat="45.94928" lon="6.55885">
        <ele>2178.3</ele>
        <time>2026-02-02T09:00:22Z</time>
      </trkpt>
      <trkpt lat="45.94928" lon="6.55885">
        <ele>2178.3</ele>
        <time>2026-02-02T09:00:23Z</time>
      </trkpt>
      <trkpt lat="45.94928" lon="6.55886">
        <ele>2178.3</ele>
        <time>2026-02-02T09:00:24Z</time>
      </trkpt>
      <trkpt lat="45.94928" lon="6.55886">
        <ele>2178.3</ele>
        <time>2026-02-02T09:00:25Z</time>
      </trkpt>
      <trkpt lat="45.94928" lon="6.55886">
        <ele>2178.3</ele>
        <time>2026-02-02T09:00:26Z</time>
      </trkpt>
      <trkpt lat="45.94928" lon="6.55886">
        <ele>2178.3</ele>
        <time>2026-02-02T09:00:27Z</time>
      </trkpt>
      <trkpt lat="45.94928" lon="6.55886">
        <ele>2178.3</ele>
        <time>2026-02-02T09:00:28Z</time>
      </trkpt>
      <trkpt lat="45.94928" lon="6.55886">
        <ele>2178.3</ele>
        <time>2026-02-02T09:00:29Z</time>
      </trkpt>
      <trkpt lat="45.94928" lon="6.55886">
        <ele>2178.3</ele>
        <time>2026-02-02T09:00:30Z</time>
      </trkpt>
      <trkpt lat="45.94928" lon="6.55886">
        <ele>2178.3</ele>
        <time>2026-02-02T09:00:31Z</time>
      </trkpt>
      <trkpt lat="45.94928" lon="6.55886">
        <ele>2178.4</ele>
        <time>2026-02-02T09:00:32Z</time>
      </trkpt>
      <trkpt lat="45.94928" lon="6.55886">
        <ele>2178.4</ele>
        <time>2026-02-02T09:00:34Z</time>
      </trkpt>
      <trkpt lat="45.94928" lon="6.55886">
        <ele>2178.4</ele>
        <time>2026-02-02T09:00:35Z</time>
      </trkpt>
      <trkpt lat="45.94928" lon="6.55886">
        <ele>2178.4</ele>
        <time>2026-02-02T09:00:36Z</time>
      </trkpt>
      <trkpt lat="45.94928" lon="6.55886">
        <ele>2178.4</ele>
        <time>2026-02-02T09:00:37Z</time>
      </trkpt>
      <trkpt lat="45.94928" lon="6.55886">
        <ele>2178.4</ele>
        <time>2026-02-02T09:00:38Z</time>
      </trkpt>
      <trkpt lat="45.94928" lon="6.55886">
        <ele>2178.4</ele>
        <time>2026-02-02T09:00:39Z</time>
      </trkpt>
      <trkpt lat="45.94927" lon="6.55886">
        <ele>2178.4</ele>
        <time>2026-02-02T09:00:40Z</time>
      </trkpt>
      <trkpt lat="45.94927" lon="6.55886">
        <ele>2178.4</ele>
        <time>2026-02-02T09:00:41Z</time>
      </trkpt>
      <trkpt lat="45.94927" lon="6.55885">
        <ele>2178.4</ele>
        <time>2026-02-02T09:00:42Z</time>
      </trkpt>
      <trkpt lat="45.94926" lon="6.55885">
        <ele>2178.5</ele>
        <time>2026-02-02T09:00:43Z</time>
      </trkpt>
      <trkpt lat="45.94925" lon="6.55884">
        <ele>2178.5</ele>
        <time>2026-02-02T09:00:44Z</time>
      </trkpt>
      <trkpt lat="45.94924" lon="6.55883">
        <ele>2178.5</ele>
        <time>2026-02-02T09:00:45Z</time>
      </trkpt>
      <trkpt lat="45.94924" lon="6.55883">
        <ele>2178.5</ele>
        <time>2026-02-02T09:00:46Z</time>
      </trkpt>
      <trkpt lat="45.94924" lon="6.55882">
        <ele>2178.5</ele>
        <time>2026-02-02T09:00:47Z</time>
      </trkpt>
      <trkpt lat="45.94924" lon="6.55882">
        <ele>2178.7</ele>
        <time>2026-02-02T09:00:48Z</time>
      </trkpt>
      <trkpt lat="45.94924" lon="6.55882">
        <ele>2178.7</ele>
        <time>2026-02-02T09:00:49Z</time>
      </trkpt>
      <trkpt lat="45.94924" lon="6.55882">
        <ele>2178.7</ele>
        <time>2026-02-02T09:00:50Z</time>
      </trkpt>
      <trkpt lat="45.94924" lon="6.55882">
        <ele>2178.7</ele>
        <time>2026-02-02T09:00:51Z</time>
      </trkpt>
      <trkpt lat="45.94925" lon="6.55882">
        <ele>2178.7</ele>
        <time>2026-02-02T09:00:52Z</time>
      </trkpt>
      <trkpt lat="45.94925" lon="6.55882">
        <ele>2178.7</ele>
        <time>2026-02-02T09:00:53Z</time>
      </trkpt>
      <trkpt lat="45.94926" lon="6.55881">
        <ele>2178.7</ele>
        <time>2026-02-02T09:00:54Z</time>
      </trkpt>
      <trkpt lat="45.94927" lon="6.55881">
        <ele>2178.7</ele>
        <time>2026-02-02T09:00:55Z</time>
      </trkpt>
      <trkpt lat="45.94927" lon="6.5588">
        <ele>2178.9</ele>
        <time>2026-02-02T09:00:56Z</time>
      </trkpt>
      <trkpt lat="45.94927" lon="6.5588">
        <ele>2178.9</ele>
        <time>2026-02-02T09:00:58Z</time>
      </trkpt>
      <trkpt lat="45.94927" lon="6.5588">
        <ele>2178.9</ele>
        <time>2026-02-02T09:00:59Z</time>
      </trkpt>
      <trkpt lat="45.94927" lon="6.5588">
        <ele>2178.9</ele>
        <time>2026-02-02T09:01:00Z</time>
      </trkpt>
      <trkpt lat="45.94927" lon="6.5588">
        <ele>2178.9</ele>
        <time>2026-02-02T09:01:01Z</time>
      </trkpt>
      <trkpt lat="45.94927" lon="6.55879">
        <ele>2179.6</ele>
        <time>2026-02-02T09:01:02Z</time>
      </trkpt>
      <trkpt lat="45.94927" lon="6.55879">
        <ele>2179.7</ele>
        <time>2026-02-02T09:01:03Z</time>
      </trkpt>
      <trkpt lat="45.94927" lon="6.55879">
        <ele>2179.7</ele>
        <time>2026-02-02T09:01:04Z</time>
      </trkpt>
      <trkpt lat="45.94927" lon="6.55879">
        <ele>2179.8</ele>
        <time>2026-02-02T09:01:05Z</time>
      </trkpt>
      <trkpt lat="45.94927" lon="6.5588">
        <ele>2179</ele>
        <time>2026-02-02T09:01:06Z</time>
      </trkpt>
      <trkpt lat="45.94927" lon="6.55879">
        <ele>2179.8</ele>
        <time>2026-02-02T09:01:07Z</time>
      </trkpt>
      <trkpt lat="45.94927" lon="6.55879">
        <ele>2179.9</ele>
        <time>2026-02-02T09:01:08Z</time>
      </trkpt>
      <trkpt lat="45.94927" lon="6.55879">
        <ele>2179.9</ele>
        <time>2026-02-02T09:01:09Z</time>
      </trkpt>
      <trkpt lat="45.94927" lon="6.55879">
        <ele>2180</ele>
        <time>2026-02-02T09:01:10Z</time>
      </trkpt>
      <trkpt lat="45.94928" lon="6.55879">
        <ele>2180</ele>
        <time>2026-02-02T09:01:11Z</time>
      </trkpt>
      <trkpt lat="45.94928" lon="6.55879">
        <ele>2180</ele>
        <time>2026-02-02T09:01:12Z</time>
      </trkpt>
      <trkpt lat="45.94928" lon="6.55879">
        <ele>2180.1</ele>
        <time>2026-02-02T09:01:13Z</time>
      </trkpt>
      <trkpt lat="45.94928" lon="6.55879">
        <ele>2180.1</ele>
        <time>2026-02-02T09:01:14Z</time>
      </trkpt>
      <trkpt lat="45.94928" lon="6.55879">
        <ele>2180.2</ele>
        <time>2026-02-02T09:01:15Z</time>
      </trkpt>
      <trkpt lat="45.94928" lon="6.55879">
        <ele>2180.2</ele>
        <time>2026-02-02T09:01:16Z</time>
      </trkpt>
      <trkpt lat="45.94928" lon="6.55879">
        <ele>2180.2</ele>
        <time>2026-02-02T09:01:17Z</time>
      </trkpt>
      <trkpt lat="45.94928" lon="6.55879">
        <ele>2180.3</ele>
        <time>2026-02-02T09:01:18Z</time>
      </trkpt>
      <trkpt lat="45.94928" lon="6.55879">
        <ele>2180.3</ele>
        <time>2026-02-02T09:01:19Z</time>
      </trkpt>
      <trkpt lat="45.94929" lon="6.55879">
        <ele>2180.3</ele>
        <time>2026-02-02T09:01:20Z</time>
      </trkpt>
      <trkpt lat="45.94929" lon="6.55878">
        <ele>2180.4</ele>
        <time>2026-02-02T09:01:21Z</time>
      </trkpt>
      <trkpt lat="45.9493" lon="6.55877">
        <ele>2180.8</ele>
        <time>2026-02-02T09:01:22Z</time>
      </trkpt>
      <trkpt lat="45.94931" lon="6.55877">
        <ele>2180.8</ele>
        <time>2026-02-02T09:01:23Z</time>
      </trkpt>
      <trkpt lat="45.94932" lon="6.55876">
        <ele>2180.9</ele>
        <time>2026-02-02T09:01:25Z</time>
      </trkpt>
      <trkpt lat="45.94933" lon="6.55876">
        <ele>2180.9</ele>
        <time>2026-02-02T09:01:26Z</time>
      </trkpt>
      <trkpt lat="45.94933" lon="6.55875">
        <ele>2182.2</ele>
        <time>2026-02-02T09:01:27Z</time>
      </trkpt>
      <trkpt lat="45.94933" lon="6.55875">
        <ele>2182.7</ele>
        <time>2026-02-02T09:01:28Z</time>
      </trkpt>
      <trkpt lat="45.94933" lon="6.55875">
        <ele>2182.8</ele>
        <time>2026-02-02T09:01:29Z</time>
      </trkpt>
      <trkpt lat="45.94933" lon="6.55875">
        <ele>2182.9</ele>
        <time>2026-02-02T09:01:30Z</time>
      </trkpt>
      <trkpt lat="45.94933" lon="6.55875">
        <ele>2183</ele>
        <time>2026-02-02T09:01:31Z</time>
      </trkpt>
      <trkpt lat="45.94933" lon="6.55875">
        <ele>2183.1</ele>
        <time>2026-02-02T09:01:32Z</time>
      </trkpt>
      <trkpt lat="45.94933" lon="6.55875">
        <ele>2181.7</ele>
        <time>2026-02-02T09:01:33Z</time>
      </trkpt>
      <trkpt lat="45.94933" lon="6.55875">
        <ele>2181.8</ele>
        <time>2026-02-02T09:01:34Z</time>
      </trkpt>
      <trkpt lat="45.94933" lon="6.55875">
        <ele>2183.3</ele>
        <time>2026-02-02T09:01:35Z</time>
      </trkpt>
      <trkpt lat="45.94933" lon="6.55875">
        <ele>2183.3</ele>
        <time>2026-02-02T09:01:36Z</time>
      </trkpt>
      <trkpt lat="45.94933" lon="6.55875">
        <ele>2183.4</ele>
        <time>2026-02-02T09:01:37Z</time>
      </trkpt>
      <trkpt lat="45.94933" lon="6.55875">
        <ele>2183.5</ele>
        <time>2026-02-02T09:01:38Z</time>
      </trkpt>
      <trkpt lat="45.94933" lon="6.55875">
        <ele>2183.6</ele>
        <time>2026-02-02T09:01:39Z</time>
      </trkpt>
      <trkpt lat="45.94933" lon="6.55875">
        <ele>2183.7</ele>
        <time>2026-02-02T09:01:40Z</time>
      </trkpt>
      <trkpt lat="45.94933" lon="6.55875">
        <ele>2183.8</ele>
        <time>2026-02-02T09:01:41Z</time>
      </trkpt>
      <trkpt lat="45.94933" lon="6.55875">
        <ele>2183.8</ele>
        <time>2026-02-02T09:01:42Z</time>
      </trkpt>
      <trkpt lat="45.94933" lon="6.55875">
        <ele>2183.9</ele>
        <time>2026-02-02T09:01:43Z</time>
      </trkpt>
      <trkpt lat="45.94933" lon="6.55874">
        <ele>2184</ele>
        <time>2026-02-02T09:01:44Z</time>
      </trkpt>
      <trkpt lat="45.94933" lon="6.55874">
        <ele>2184.1</ele>
        <time>2026-02-02T09:01:45Z</time>
      </trkpt>
      <trkpt lat="45.94933" lon="6.55874">
        <ele>2184.2</ele>
        <time>2026-02-02T09:01:46Z</time>
      </trkpt>
      <trkpt lat="45.94933" lon="6.55874">
        <ele>2184.3</ele>
        <time>2026-02-02T09:01:47Z</time>
      </trkpt>
      <trkpt lat="45.94933" lon="6.55874">
        <ele>2184.3</ele>
        <time>2026-02-02T09:01:48Z</time>
      </trkpt>
      <trkpt lat="45.94933" lon="6.55874">
        <ele>2184.4</ele>
        <time>2026-02-02T09:01:49Z</time>
      </trkpt>
      <trkpt lat="45.94933" lon="6.55874">
        <ele>2184.5</ele>
        <time>2026-02-02T09:01:50Z</time>
      </trkpt>
      <trkpt lat="45.94933" lon="6.55874">
        <ele>2184.6</ele>
        <time>2026-02-02T09:01:51Z</time>
      </trkpt>
      <trkpt lat="45.94933" lon="6.55874">
        <ele>2184.7</ele>
        <time>2026-02-02T09:01:52Z</time>
      </trkpt>
      <trkpt lat="45.94933" lon="6.55874">
        <ele>2184.7</ele>
        <time>2026-02-02T09:01:53Z</time>
      </trkpt>
      <trkpt lat="45.94933" lon="6.55874">
        <ele>2184.8</ele>
        <time>2026-02-02T09:01:54Z</time>
      </trkpt>
      <trkpt lat="45.94933" lon="6.55874">
        <ele>2184.9</ele>
        <time>2026-02-02T09:01:55Z</time>
      </trkpt>
      <trkpt lat="45.94933" lon="6.55874">
        <ele>2184.2</ele>
        <time>2026-02-02T09:01:56Z</time>
      </trkpt>
      <trkpt lat="45.94933" lon="6.55874">
        <ele>2184.3</ele>
        <time>2026-02-02T09:01:57Z</time>
      </trkpt>
      <trkpt lat="45.94933" lon="6.55874">
        <ele>2184.4</ele>
        <time>2026-02-02T09:01:58Z</time>
      </trkpt>
      <trkpt lat="45.94933" lon="6.55874">
        <ele>2184.5</ele>
        <time>2026-02-02T09:01:59Z</time>
      </trkpt>
      <trkpt lat="45.94933" lon="6.55874">
        <ele>2184.5</ele>
        <time>2026-02-02T09:02:00Z</time>
      </trkpt>
      <trkpt lat="45.94933" lon="6.55874">
        <ele>2184.6</ele>
        <time>2026-02-02T09:02:01Z</time>
      </trkpt>
      <trkpt lat="45.94933" lon="6.55874">
        <ele>2184.7</ele>
        <time>2026-02-02T09:02:02Z</time>
      </trkpt>
      <trkpt lat="45.94933" lon="6.55874">
        <ele>2184.7</ele>
        <time>2026-02-02T09:02:03Z</time>
      </trkpt>
      <trkpt lat="45.94933" lon="6.55874">
        <ele>2185.6</ele>
        <time>2026-02-02T09:02:04Z</time>
      </trkpt>
      <trkpt lat="45.94934" lon="6.55874">
        <ele>2185.7</ele>
        <time>2026-02-02T09:02:05Z</time>
      </trkpt>
      <trkpt lat="45.94934" lon="6.55874">
        <ele>2185.8</ele>
        <time>2026-02-02T09:02:06Z</time>
      </trkpt>
      <trkpt lat="45.94934" lon="6.55874">
        <ele>2185.9</ele>
        <time>2026-02-02T09:02:07Z</time>
      </trkpt>
      <trkpt lat="45.94934" lon="6.55874">
        <ele>2186</ele>
        <time>2026-02-02T09:02:08Z</time>
      </trkpt>
      <trkpt lat="45.94934" lon="6.55874">
        <ele>2186.1</ele>
        <time>2026-02-02T09:02:09Z</time>
      </trkpt>
      <trkpt lat="45.94934" lon="6.55874">
        <ele>2186.1</ele>
        <time>2026-02-02T09:02:10Z</time>
      </trkpt>
      <trkpt lat="45.94935" lon="6.55874">
        <ele>2186.2</ele>
        <time>2026-02-02T09:02:12Z</time>
      </trkpt>
      <trkpt lat="45.94936" lon="6.55873">
        <ele>2187.1</ele>
        <time>2026-02-02T09:02:13Z</time>
      </trkpt>
      <trkpt lat="45.94937" lon="6.55873">
        <ele>2187.1</ele>
        <time>2026-02-02T09:02:14Z</time>
      </trkpt>
      <trkpt lat="45.94938" lon="6.55873">
        <ele>2187.1</ele>
        <time>2026-02-02T09:02:15Z</time>
      </trkpt>
      <trkpt lat="45.94939" lon="6.55873">
        <ele>2188</ele>
        <time>2026-02-02T09:02:16Z</time>
      </trkpt>
      <trkpt lat="45.9494" lon="6.55873">
        <ele>2188</ele>
        <time>2026-02-02T09:02:17Z</time>
      </trkpt>
      <trkpt lat="45.94941" lon="6.55873">
        <ele>2188</ele>
        <time>2026-02-02T09:02:18Z</time>
      </trkpt>
      <trkpt lat="45.94942" lon="6.55873">
        <ele>2188</ele>
        <time>2026-02-02T09:02:19Z</time>
      </trkpt>
      <trkpt lat="45.94943" lon="6.55873">
        <ele>2189</ele>
        <time>2026-02-02T09:02:20Z</time>
      </trkpt>
      <trkpt lat="45.94943" lon="6.55873">
        <ele>2189</ele>
        <time>2026-02-02T09:02:21Z</time>
      </trkpt>
      <trkpt lat="45.94944" lon="6.55873">
        <ele>2189</ele>
        <time>2026-02-02T09:02:22Z</time>
      </trkpt>
      <trkpt lat="45.94945" lon="6.55873">
        <ele>2189</ele>
        <time>2026-02-02T09:02:23Z</time>
      </trkpt>
      <trkpt lat="45.94945" lon="6.55873">
        <ele>2190</ele>
        <time>2026-02-02T09:02:24Z</time>
      </trkpt>
      <trkpt lat="45.94946" lon="6.55873">
        <ele>2190</ele>
        <time>2026-02-02T09:02:25Z</time>
      </trkpt>
      <trkpt lat="45.94947" lon="6.55873">
        <ele>2190</ele>
        <time>2026-02-02T09:02:26Z</time>
      </trkpt>
      <trkpt lat="45.94948" lon="6.55873">
        <ele>2190</ele>
        <time>2026-02-02T09:02:27Z</time>
      </trkpt>
      <trkpt lat="45.94948" lon="6.55873">
        <ele>2191</ele>
        <time>2026-02-02T09:02:28Z</time>
      </trkpt>
      <trkpt lat="45.94949" lon="6.55872">
        <ele>2191</ele>
        <time>2026-02-02T09:02:29Z</time>
      </trkpt>
      <trkpt lat="45.94948" lon="6.55872">
        <ele>2191</ele>
        <time>2026-02-02T09:02:30Z</time>
      </trkpt>
      <trkpt lat="45.94948" lon="6.55872">
        <ele>2191</ele>
        <time>2026-02-02T09:02:31Z</time>
      </trkpt>
      <trkpt lat="45.94948" lon="6.55872">
        <ele>2191</ele>
        <time>2026-02-02T09:02:32Z</time>
      </trkpt>
      <trkpt lat="45.94948" lon="6.55872">
        <ele>2190</ele>
        <time>2026-02-02T09:02:33Z</time>
      </trkpt>
      <trkpt lat="45.94948" lon="6.55872">
        <ele>2190</ele>
        <time>2026-02-02T09:02:34Z</time>
      </trkpt>
      <trkpt lat="45.94947" lon="6.55872">
        <ele>2190</ele>
        <time>2026-02-02T09:02:35Z</time>
      </trkpt>
      <trkpt lat="45.94947" lon="6.55872">
        <ele>2190</ele>
        <time>2026-02-02T09:02:36Z</time>
      </trkpt>
      <trkpt lat="45.94947" lon="6.55872">
        <ele>2190</ele>
        <time>2026-02-02T09:02:37Z</time>
      </trkpt>
      <trkpt lat="45.94947" lon="6.55872">
        <ele>2190</ele>
        <time>2026-02-02T09:02:38Z</time>
      </trkpt>
      <trkpt lat="45.94947" lon="6.55872">
        <ele>2190</ele>
        <time>2026-02-02T09:02:39Z</time>
      </trkpt>
      <trkpt lat="45.94947" lon="6.55872">
        <ele>2190</ele>
        <time>2026-02-02T09:02:41Z</time>
      </trkpt>
      <trkpt lat="45.94948" lon="6.55872">
        <ele>2190</ele>
        <time>2026-02-02T09:02:42Z</time>
      </trkpt>
      <trkpt lat="45.94948" lon="6.55872">
        <ele>2191</ele>
        <time>2026-02-02T09:02:43Z</time>
      </trkpt>
      <trkpt lat="45.9495" lon="6.55872">
        <ele>2191</ele>
        <time>2026-02-02T09:02:44Z</time>
      </trkpt>
      <trkpt lat="45.9495" lon="6.55873">
        <ele>2191</ele>
        <time>2026-02-02T09:02:45Z</time>
      </trkpt>
      <trkpt lat="45.94951" lon="6.55874">
        <ele>2192</ele>
        <time>2026-02-02T09:02:46Z</time>
      </trkpt>
      <trkpt lat="45.94952" lon="6.55875">
        <ele>2192</ele>
        <time>2026-02-02T09:02:47Z</time>
      </trkpt>
      <trkpt lat="45.94952" lon="6.55875">
        <ele>2192</ele>
        <time>2026-02-02T09:02:48Z</time>
      </trkpt>
      <trkpt lat="45.94953" lon="6.55875">
        <ele>2192</ele>
        <time>2026-02-02T09:02:49Z</time>
      </trkpt>
      <trkpt lat="45.94954" lon="6.55875">
        <ele>2192</ele>
        <time>2026-02-02T09:02:50Z</time>
      </trkpt>
      <trkpt lat="45.94955" lon="6.55875">
        <ele>2192.8</ele>
        <time>2026-02-02T09:02:51Z</time>
      </trkpt>
      <trkpt lat="45.94956" lon="6.55874">
        <ele>2192.8</ele>
        <time>2026-02-02T09:02:52Z</time>
      </trkpt>
      <trkpt lat="45.94956" lon="6.55874">
        <ele>2192.8</ele>
        <time>2026-02-02T09:02:53Z</time>
      </trkpt>
      <trkpt lat="45.94957" lon="6.55874">
        <ele>2193.6</ele>
        <time>2026-02-02T09:02:54Z</time>
      </trkpt>
      <trkpt lat="45.94958" lon="6.55874">
        <ele>2193.6</ele>
        <time>2026-02-02T09:02:55Z</time>
      </trkpt>
      <trkpt lat="45.94959" lon="6.55874">
        <ele>2193.6</ele>
        <time>2026-02-02T09:02:56Z</time>
      </trkpt>
      <trkpt lat="45.94959" lon="6.55874">
        <ele>2193.6</ele>
        <time>2026-02-02T09:02:57Z</time>
      </trkpt>
      <trkpt lat="45.9496" lon="6.55874">
        <ele>2194.3</ele>
        <time>2026-02-02T09:02:58Z</time>
      </trkpt>
      <trkpt lat="45.94961" lon="6.55875">
        <ele>2194.3</ele>
        <time>2026-02-02T09:02:59Z</time>
      </trkpt>
      <trkpt lat="45.94961" lon="6.55875">
        <ele>2194.3</ele>
        <time>2026-02-02T09:03:00Z</time>
      </trkpt>
      <trkpt lat="45.94962" lon="6.55875">
        <ele>2191.7</ele>
        <time>2026-02-02T09:03:01Z</time>
      </trkpt>
      <trkpt lat="45.94963" lon="6.55876">
        <ele>2192.5</ele>
        <time>2026-02-02T09:03:02Z</time>
      </trkpt>
      <trkpt lat="45.94964" lon="6.55876">
        <ele>2192.5</ele>
        <time>2026-02-02T09:03:03Z</time>
      </trkpt>
      <trkpt lat="45.94965" lon="6.55877">
        <ele>2192.5</ele>
        <time>2026-02-02T09:03:04Z</time>
      </trkpt>
      <trkpt lat="45.94965" lon="6.55877">
        <ele>2192.5</ele>
        <time>2026-02-02T09:03:05Z</time>
      </trkpt>
      <trkpt lat="45.94966" lon="6.55877">
        <ele>2193.3</ele>
        <time>2026-02-02T09:03:06Z</time>
      </trkpt>
      <trkpt lat="45.94967" lon="6.55877">
        <ele>2193.3</ele>
        <time>2026-02-02T09:03:07Z</time>
      </trkpt>
      <trkpt lat="45.94967" lon="6.55877">
        <ele>2193.3</ele>
        <time>2026-02-02T09:03:08Z</time>
      </trkpt>
      <trkpt lat="45.94967" lon="6.55877">
        <ele>2193.3</ele>
        <time>2026-02-02T09:03:09Z</time>
      </trkpt>
      <trkpt lat="45.94967" lon="6.55876">
        <ele>2193.3</ele>
        <time>2026-02-02T09:03:10Z</time>
      </trkpt>
      <trkpt lat="45.94967" lon="6.55875">
        <ele>2196</ele>
        <time>2026-02-02T09:03:11Z</time>
      </trkpt>
      <trkpt lat="45.94966" lon="6.55875">
        <ele>2196</ele>
        <time>2026-02-02T09:03:12Z</time>
      </trkpt>
      <trkpt lat="45.94966" lon="6.55875">
        <ele>2196</ele>
        <time>2026-02-02T09:03:13Z</time>
      </trkpt>
      <trkpt lat="45.94966" lon="6.55875">
        <ele>2196</ele>
        <time>2026-02-02T09:03:14Z</time>
      </trkpt>
      <trkpt lat="45.94966" lon="6.55874">
        <ele>2195.1</ele>
        <time>2026-02-02T09:03:15Z</time>
      </trkpt>
      <trkpt lat="45.94966" lon="6.55874">
        <ele>2195.1</ele>
        <time>2026-02-02T09:03:16Z</time>
      </trkpt>
      <trkpt lat="45.94966" lon="6.55874">
        <ele>2195.1</ele>
        <time>2026-02-02T09:03:17Z</time>
      </trkpt>
      <trkpt lat="45.94966" lon="6.55874">
        <ele>2195.1</ele>
        <time>2026-02-02T09:03:18Z</time>
      </trkpt>
      <trkpt lat="45.94966" lon="6.55874">
        <ele>2195.1</ele>
        <time>2026-02-02T09:03:19Z</time>
      </trkpt>
      <trkpt lat="45.94965" lon="6.55872">
        <ele>2195.1</ele>
        <time>2026-02-02T09:03:20Z</time>
      </trkpt>
      <trkpt lat="45.94965" lon="6.5587">
        <ele>2197.6</ele>
        <time>2026-02-02T09:03:21Z</time>
      </trkpt>
      <trkpt lat="45.94964" lon="6.55869">
        <ele>2197.6</ele>
        <time>2026-02-02T09:03:22Z</time>
      </trkpt>
      <trkpt lat="45.94964" lon="6.55867">
        <ele>2197.6</ele>
        <time>2026-02-02T09:03:23Z</time>
      </trkpt>
      <trkpt lat="45.94964" lon="6.55867">
        <ele>2200.1</ele>
        <time>2026-02-02T09:03:24Z</time>
      </trkpt>
      <trkpt lat="45.94963" lon="6.55867">
        <ele>2200.1</ele>
        <time>2026-02-02T09:03:25Z</time>
      </trkpt>
      <trkpt lat="45.94963" lon="6.55867">
        <ele>2197.6</ele>
        <time>2026-02-02T09:03:26Z</time>
      </trkpt>
      <trkpt lat="45.94963" lon="6.55867">
        <ele>2197.6</ele>
        <time>2026-02-02T09:03:27Z</time>
      </trkpt>
      <trkpt lat="45.94963" lon="6.55867">
        <ele>2197.6</ele>
        <time>2026-02-02T09:03:28Z</time>
      </trkpt>
      <trkpt lat="45.94963" lon="6.55867">
        <ele>2196.8</ele>
        <time>2026-02-02T09:03:29Z</time>
      </trkpt>
      <trkpt lat="45.94963" lon="6.55867">
        <ele>2196.8</ele>
        <time>2026-02-02T09:03:30Z</time>
      </trkpt>
      <trkpt lat="45.94963" lon="6.55867">
        <ele>2196.8</ele>
        <time>2026-02-02T09:03:31Z</time>
      </trkpt>
      <trkpt lat="45.94963" lon="6.55867">
        <ele>2196.8</ele>
        <time>2026-02-02T09:03:32Z</time>
      </trkpt>
      <trkpt lat="45.94963" lon="6.55867">
        <ele>2196.8</ele>
        <time>2026-02-02T09:03:33Z</time>
      </trkpt>
      <trkpt lat="45.94963" lon="6.55867">
        <ele>2196.8</ele>
        <time>2026-02-02T09:03:34Z</time>
      </trkpt>
      <trkpt lat="45.94963" lon="6.55867">
        <ele>2196.8</ele>
        <time>2026-02-02T09:03:35Z</time>
      </trkpt>
      <trkpt lat="45.94963" lon="6.55867">
        <ele>2196.8</ele>
        <time>2026-02-02T09:03:36Z</time>
      </trkpt>
      <trkpt lat="45.94963" lon="6.55867">
        <ele>2196.8</ele>
        <time>2026-02-02T09:03:37Z</time>
      </trkpt>
      <trkpt lat="45.94963" lon="6.55867">
        <ele>2196.8</ele>
        <time>2026-02-02T09:03:38Z</time>
      </trkpt>
      <trkpt lat="45.94963" lon="6.55867">
        <ele>2196.8</ele>
        <time>2026-02-02T09:03:39Z</time>
      </trkpt>
      <trkpt lat="45.94963" lon="6.55867">
        <ele>2196.8</ele>
        <time>2026-02-02T09:03:40Z</time>
      </trkpt>
      <trkpt lat="45.94963" lon="6.55867">
        <ele>2196.8</ele>
        <time>2026-02-02T09:03:41Z</time>
      </trkpt>
      <trkpt lat="45.94963" lon="6.55867">
        <ele>2196.8</ele>
        <time>2026-02-02T09:03:42Z</time>
      </trkpt>
      <trkpt lat="45.94963" lon="6.55867">
        <ele>2196.8</ele>
        <time>2026-02-02T09:03:43Z</time>
      </trkpt>
      <trkpt lat="45.94963" lon="6.55867">
        <ele>2196.8</ele>
        <time>2026-02-02T09:03:44Z</time>
      </trkpt>
      <trkpt lat="45.94963" lon="6.55867">
        <ele>2196.8</ele>
        <time>2026-02-02T09:03:45Z</time>
      </trkpt>
      <trkpt lat="45.94963" lon="6.55867">
        <ele>2196.8</ele>
        <time>2026-02-02T09:03:46Z</time>
      </trkpt>
      <trkpt lat="45.94962" lon="6.55868">
        <ele>2196.8</ele>
        <time>2026-02-02T09:03:47Z</time>
      </trkpt>
      <trkpt lat="45.94962" lon="6.55868">
        <ele>2196.8</ele>
        <time>2026-02-02T09:03:48Z</time>
      </trkpt>
      <trkpt lat="45.94961" lon="6.55867">
        <ele>2196.8</ele>
        <time>2026-02-02T09:03:49Z</time>
      </trkpt>
      <trkpt lat="45.94961" lon="6.55866">
        <ele>2199.3</ele>
        <time>2026-02-02T09:03:50Z</time>
      </trkpt>
      <trkpt lat="45.9496" lon="6.55865">
        <ele>2198.5</ele>
        <time>2026-02-02T09:03:51Z</time>
      </trkpt>
      <trkpt lat="45.94959" lon="6.55864">
        <ele>2198.5</ele>
        <time>2026-02-02T09:03:52Z</time>
      </trkpt>
      <trkpt lat="45.94959" lon="6.55863">
        <ele>2198.5</ele>
        <time>2026-02-02T09:03:53Z</time>
      </trkpt>
      <trkpt lat="45.94959" lon="6.55863">
        <ele>2198.5</ele>
        <time>2026-02-02T09:03:54Z</time>
      </trkpt>
      <trkpt lat="45.94959" lon="6.55863">
        <ele>2198.5</ele>
        <time>2026-02-02T09:03:55Z</time>
      </trkpt>
      <trkpt lat="45.94959" lon="6.55861">
        <ele>2200.7</ele>
        <time>2026-02-02T09:03:56Z</time>
      </trkpt>
      <trkpt lat="45.94959" lon="6.5586">
        <ele>2200.7</ele>
        <time>2026-02-02T09:03:57Z</time>
      </trkpt>
      <trkpt lat="45.94959" lon="6.55859">
        <ele>2200.7</ele>
        <time>2026-02-02T09:03:58Z</time>
      </trkpt>
      <trkpt lat="45.94958" lon="6.55857">
        <ele>2202.8</ele>
        <time>2026-02-02T09:03:59Z</time>
      </trkpt>
      <trkpt lat="45.94958" lon="6.55856">
        <ele>2202.8</ele>
        <time>2026-02-02T09:04:00Z</time>
      </trkpt>
      <trkpt lat="45.94958" lon="6.55856">
        <ele>2202.8</ele>
        <time>2026-02-02T09:04:01Z</time>
      </trkpt>
      <trkpt lat="45.94957" lon="6.55855">
        <ele>2202.8</ele>
        <time>2026-02-02T09:04:02Z</time>
      </trkpt>
      <trkpt lat="45.94957" lon="6.55853">
        <ele>2203.8</ele>
        <time>2026-02-02T09:04:03Z</time>
      </trkpt>
      <trkpt lat="45.94957" lon="6.55851">
        <ele>2203.8</ele>
        <time>2026-02-02T09:04:04Z</time>
      </trkpt>
      <trkpt lat="45.94956" lon="6.5585">
        <ele>2203.8</ele>
        <time>2026-02-02T09:04:05Z</time>
      </trkpt>
      <trkpt lat="45.94955" lon="6.55849">
        <ele>2205.7</ele>
        <time>2026-02-02T09:04:06Z</time>
      </trkpt>
      <trkpt lat="45.94954" lon="6.55848">
        <ele>2205.7</ele>
        <time>2026-02-02T09:04:07Z</time>
      </trkpt>
      <trkpt lat="45.94953" lon="6.55848">
        <ele>2204.6</ele>
        <time>2026-02-02T09:04:08Z</time>
      </trkpt>
      <trkpt lat="45.94952" lon="6.55847">
        <ele>2204.6</ele>
        <time>2026-02-02T09:04:09Z</time>
      </trkpt>
      <trkpt lat="45.94951" lon="6.55846">
        <ele>2204.6</ele>
        <time>2026-02-02T09:04:10Z</time>
      </trkpt>
      <trkpt lat="45.94951" lon="6.55845">
        <ele>2205.2</ele>
        <time>2026-02-02T09:04:11Z</time>
      </trkpt>
      <trkpt lat="45.9495" lon="6.55844">
        <ele>2205.2</ele>
        <time>2026-02-02T09:04:12Z</time>
      </trkpt>
      <trkpt lat="45.94949" lon="6.55842">
        <ele>2205.2</ele>
        <time>2026-02-02T09:04:13Z</time>
      </trkpt>
      <trkpt lat="45.94948" lon="6.55841">
        <ele>2205.2</ele>
        <time>2026-02-02T09:04:14Z</time>
      </trkpt>
      <trkpt lat="45.94948" lon="6.55841">
        <ele>2205.7</ele>
        <time>2026-02-02T09:04:15Z</time>
      </trkpt>
      <trkpt lat="45.94947" lon="6.5584">
        <ele>2205.7</ele>
        <time>2026-02-02T09:04:16Z</time>
      </trkpt>
      <trkpt lat="45.94947" lon="6.55839">
        <ele>2205.7</ele>
        <time>2026-02-02T09:04:17Z</time>
      </trkpt>
      <trkpt lat="45.94947" lon="6.55839">
        <ele>2205.7</ele>
        <time>2026-02-02T09:04:18Z</time>
      </trkpt>
      <trkpt lat="45.94947" lon="6.55838">
        <ele>2205.7</ele>
        <time>2026-02-02T09:04:19Z</time>
      </trkpt>
      <trkpt lat="45.94947" lon="6.55837">
        <ele>2207.6</ele>
        <time>2026-02-02T09:04:20Z</time>
      </trkpt>
      <trkpt lat="45.94947" lon="6.55837">
        <ele>2205.7</ele>
        <time>2026-02-02T09:04:21Z</time>
      </trkpt>
      <trkpt lat="45.94947" lon="6.55837">
        <ele>2205.7</ele>
        <time>2026-02-02T09:04:22Z</time>
      </trkpt>
      <trkpt lat="45.94947" lon="6.55837">
        <ele>2205.7</ele>
        <time>2026-02-02T09:04:23Z</time>
      </trkpt>
      <trkpt lat="45.94947" lon="6.55837">
        <ele>2205.7</ele>
        <time>2026-02-02T09:04:24Z</time>
      </trkpt>
      <trkpt lat="45.94947" lon="6.55837">
        <ele>2205.7</ele>
        <time>2026-02-02T09:04:25Z</time>
      </trkpt>
      <trkpt lat="45.94947" lon="6.55837">
        <ele>2205.7</ele>
        <time>2026-02-02T09:04:26Z</time>
      </trkpt>
      <trkpt lat="45.94947" lon="6.55837">
        <ele>2205.7</ele>
        <time>2026-02-02T09:04:27Z</time>
      </trkpt>
      <trkpt lat="45.94947" lon="6.55837">
        <ele>2205.7</ele>
        <time>2026-02-02T09:04:28Z</time>
      </trkpt>
      <trkpt lat="45.94947" lon="6.55837">
        <ele>2205.7</ele>
        <time>2026-02-02T09:04:29Z</time>
      </trkpt>
      <trkpt lat="45.94946" lon="6.55836">
        <ele>2207.6</ele>
        <time>2026-02-02T09:04:30Z</time>
      </trkpt>
      <trkpt lat="45.94946" lon="6.55836">
        <ele>2207.6</ele>
        <time>2026-02-02T09:04:31Z</time>
      </trkpt>
      <trkpt lat="45.94945" lon="6.55835">
        <ele>2206.2</ele>
        <time>2026-02-02T09:04:32Z</time>
      </trkpt>
      <trkpt lat="45.94944" lon="6.55834">
        <ele>2206.2</ele>
        <time>2026-02-02T09:04:33Z</time>
      </trkpt>
      <trkpt lat="45.94943" lon="6.55833">
        <ele>2206.2</ele>
        <time>2026-02-02T09:04:34Z</time>
      </trkpt>
      <trkpt lat="45.94943" lon="6.55832">
        <ele>2208.2</ele>
        <time>2026-02-02T09:04:35Z</time>
      </trkpt>
      <trkpt lat="45.94942" lon="6.55831">
        <ele>2208.2</ele>
        <time>2026-02-02T09:04:36Z</time>
      </trkpt>
      <trkpt lat="45.94942" lon="6.5583">
        <ele>2208.2</ele>
        <time>2026-02-02T09:04:37Z</time>
      </trkpt>
      <trkpt lat="45.94942" lon="6.5583">
        <ele>2206.8</ele>
        <time>2026-02-02T09:04:38Z</time>
      </trkpt>
      <trkpt lat="45.9494" lon="6.55828">
        <ele>2208.7</ele>
        <time>2026-02-02T09:04:39Z</time>
      </trkpt>
      <trkpt lat="45.9494" lon="6.55827">
        <ele>2208.7</ele>
        <time>2026-02-02T09:04:40Z</time>
      </trkpt>
      <trkpt lat="45.9494" lon="6.55826">
        <ele>2208.7</ele>
        <time>2026-02-02T09:04:41Z</time>
      </trkpt>
      <trkpt lat="45.94939" lon="6.55826">
        <ele>2208.7</ele>
        <time>2026-02-02T09:04:42Z</time>
      </trkpt>
      <trkpt lat="45.94939" lon="6.55825">
        <ele>2207.4</ele>
        <time>2026-02-02T09:04:43Z</time>
      </trkpt>
      <trkpt lat="45.94938" lon="6.55824">
        <ele>2207.4</ele>
        <time>2026-02-02T09:04:44Z</time>
      </trkpt>
      <trkpt lat="45.94937" lon="6.55822">
        <ele>2209.1</ele>
        <time>2026-02-02T09:04:45Z</time>
      </trkpt>
      <trkpt lat="45.94937" lon="6.55822">
        <ele>2209.1</ele>
        <time>2026-02-02T09:04:46Z</time>
      </trkpt>
      <trkpt lat="45.94937" lon="6.5582">
        <ele>2209.1</ele>
        <time>2026-02-02T09:04:47Z</time>
      </trkpt>
      <trkpt lat="45.94937" lon="6.55819">
        <ele>2210.8</ele>
        <time>2026-02-02T09:04:48Z</time>
      </trkpt>
      <trkpt lat="45.94935" lon="6.55819">
        <ele>2209.5</ele>
        <time>2026-02-02T09:04:49Z</time>
      </trkpt>
      <trkpt lat="45.94934" lon="6.55818">
        <ele>2209.5</ele>
        <time>2026-02-02T09:04:50Z</time>
      </trkpt>
      <trkpt lat="45.94934" lon="6.55818">
        <ele>2209.5</ele>
        <time>2026-02-02T09:04:51Z</time>
      </trkpt>
      <trkpt lat="45.94933" lon="6.55818">
        <ele>2209.5</ele>
        <time>2026-02-02T09:04:52Z</time>
      </trkpt>
      <trkpt lat="45.94933" lon="6.55817">
        <ele>2208.3</ele>
        <time>2026-02-02T09:04:53Z</time>
      </trkpt>
      <trkpt lat="45.94932" lon="6.55817">
        <ele>2208.3</ele>
        <time>2026-02-02T09:04:54Z</time>
      </trkpt>
      <trkpt lat="45.94932" lon="6.55817">
        <ele>2208.3</ele>
        <time>2026-02-02T09:04:55Z</time>
      </trkpt>
      <trkpt lat="45.9493" lon="6.55816">
        <ele>2208.3</ele>
        <time>2026-02-02T09:04:57Z</time>
      </trkpt>
      <trkpt lat="45.94931" lon="6.55816">
        <ele>2208.3</ele>
        <time>2026-02-02T09:04:58Z</time>
      </trkpt>
      <trkpt lat="45.94931" lon="6.55816">
        <ele>2208.3</ele>
        <time>2026-02-02T09:04:59Z</time>
      </trkpt>
      <trkpt lat="45.94931" lon="6.55816">
        <ele>2208.3</ele>
        <time>2026-02-02T09:05:00Z</time>
      </trkpt>
      <trkpt lat="45.94931" lon="6.55817">
        <ele>2208.3</ele>
        <time>2026-02-02T09:05:01Z</time>
      </trkpt>
      <trkpt lat="45.94931" lon="6.55817">
        <ele>2208.3</ele>
        <time>2026-02-02T09:05:02Z</time>
      </trkpt>
      <trkpt lat="45.94931" lon="6.55816">
        <ele>2208.3</ele>
        <time>2026-02-02T09:05:03Z</time>
      </trkpt>
      <trkpt lat="45.94931" lon="6.55816">
        <ele>2208.3</ele>
        <time>2026-02-02T09:05:04Z</time>
      </trkpt>
      <trkpt lat="45.94931" lon="6.55817">
        <ele>2208.3</ele>
        <time>2026-02-02T09:05:06Z</time>
      </trkpt>
      <trkpt lat="45.94931" lon="6.55817">
        <ele>2208.3</ele>
        <time>2026-02-02T09:05:07Z</time>
      </trkpt>
      <trkpt lat="45.94931" lon="6.55817">
        <ele>2208.3</ele>
        <time>2026-02-02T09:05:08Z</time>
      </trkpt>
      <trkpt lat="45.94931" lon="6.55817">
        <ele>2208.3</ele>
        <time>2026-02-02T09:05:09Z</time>
      </trkpt>
      <trkpt lat="45.94931" lon="6.55817">
        <ele>2208.3</ele>
        <time>2026-02-02T09:05:10Z</time>
      </trkpt>
      <trkpt lat="45.94931" lon="6.55817">
        <ele>2208.3</ele>
        <time>2026-02-02T09:05:11Z</time>
      </trkpt>
      <trkpt lat="45.94932" lon="6.55816">
        <ele>2208.3</ele>
        <time>2026-02-02T09:05:12Z</time>
      </trkpt>
      <trkpt lat="45.94932" lon="6.55816">
        <ele>2208.3</ele>
        <time>2026-02-02T09:05:13Z</time>
      </trkpt>
      <trkpt lat="45.94932" lon="6.55816">
        <ele>2208.3</ele>
        <time>2026-02-02T09:05:14Z</time>
      </trkpt>
      <trkpt lat="45.94931" lon="6.55816">
        <ele>2208.3</ele>
        <time>2026-02-02T09:05:15Z</time>
      </trkpt>
      <trkpt lat="45.94931" lon="6.55816">
        <ele>2208.3</ele>
        <time>2026-02-02T09:05:16Z</time>
      </trkpt>
      <trkpt lat="45.9493" lon="6.55815">
        <ele>2208.3</ele>
        <time>2026-02-02T09:05:17Z</time>
      </trkpt>
      <trkpt lat="45.94929" lon="6.55815">
        <ele>2208.6</ele>
        <time>2026-02-02T09:05:18Z</time>
      </trkpt>
      <trkpt lat="45.94927" lon="6.55815">
        <ele>2208.6</ele>
        <time>2026-02-02T09:05:19Z</time>
      </trkpt>
      <trkpt lat="45.94926" lon="6.55814">
        <ele>2207.3</ele>
        <time>2026-02-02T09:05:20Z</time>
      </trkpt>
      <trkpt lat="45.94925" lon="6.55814">
        <ele>2207.3</ele>
        <time>2026-02-02T09:05:21Z</time>
      </trkpt>
      <trkpt lat="45.94924" lon="6.55814">
        <ele>2205.9</ele>
        <time>2026-02-02T09:05:22Z</time>
      </trkpt>
      <trkpt lat="45.94922" lon="6.55814">
        <ele>2205.9</ele>
        <time>2026-02-02T09:05:23Z</time>
      </trkpt>
      <trkpt lat="45.94922" lon="6.55814">
        <ele>2205.9</ele>
        <time>2026-02-02T09:05:24Z</time>
      </trkpt>
      <trkpt lat="45.94922" lon="6.55813">
        <ele>2205.9</ele>
        <time>2026-02-02T09:05:25Z</time>
      </trkpt>
      <trkpt lat="45.94921" lon="6.55813">
        <ele>2204.6</ele>
        <time>2026-02-02T09:05:26Z</time>
      </trkpt>
      <trkpt lat="45.9492" lon="6.55813">
        <ele>2204.6</ele>
        <time>2026-02-02T09:05:27Z</time>
      </trkpt>
      <trkpt lat="45.9492" lon="6.55813">
        <ele>2204.6</ele>
        <time>2026-02-02T09:05:28Z</time>
      </trkpt>
      <trkpt lat="45.94919" lon="6.55813">
        <ele>2204.6</ele>
        <time>2026-02-02T09:05:29Z</time>
      </trkpt>
      <trkpt lat="45.94919" lon="6.55813">
        <ele>2204.6</ele>
        <time>2026-02-02T09:05:30Z</time>
      </trkpt>
      <trkpt lat="45.94919" lon="6.55813">
        <ele>2204.6</ele>
        <time>2026-02-02T09:05:31Z</time>
      </trkpt>
      <trkpt lat="45.94918" lon="6.55813">
        <ele>2203.2</ele>
        <time>2026-02-02T09:05:32Z</time>
      </trkpt>
      <trkpt lat="45.94918" lon="6.55814">
        <ele>2203.2</ele>
        <time>2026-02-02T09:05:33Z</time>
      </trkpt>
      <trkpt lat="45.94917" lon="6.55814">
        <ele>2203.2</ele>
        <time>2026-02-02T09:05:34Z</time>
      </trkpt>
      <trkpt lat="45.94917" lon="6.55814">
        <ele>2203.2</ele>
        <time>2026-02-02T09:05:35Z</time>
      </trkpt>
      <trkpt lat="45.94917" lon="6.55814">
        <ele>2203.2</ele>
        <time>2026-02-02T09:05:37Z</time>
      </trkpt>
      <trkpt lat="45.94917" lon="6.55815">
        <ele>2203.2</ele>
        <time>2026-02-02T09:05:38Z</time>
      </trkpt>
      <trkpt lat="45.94917" lon="6.55815">
        <ele>2203.2</ele>
        <time>2026-02-02T09:05:39Z</time>
      </trkpt>
      <trkpt lat="45.94917" lon="6.55815">
        <ele>2203.2</ele>
        <time>2026-02-02T09:05:40Z</time>
      </trkpt>
      <trkpt lat="45.94917" lon="6.55815">
        <ele>2203.2</ele>
        <time>2026-02-02T09:05:41Z</time>
      </trkpt>
      <trkpt lat="45.94917" lon="6.55815">
        <ele>2203.2</ele>
        <time>2026-02-02T09:05:42Z</time>
      </trkpt>
      <trkpt lat="45.94917" lon="6.55815">
        <ele>2203.2</ele>
        <time>2026-02-02T09:05:43Z</time>
      </trkpt>
      <trkpt lat="45.94916" lon="6.55815">
        <ele>2203.2</ele>
        <time>2026-02-02T09:05:44Z</time>
      </trkpt>
      <trkpt lat="45.94916" lon="6.55815">
        <ele>2203.2</ele>
        <time>2026-02-02T09:05:45Z</time>
      </trkpt>
      <trkpt lat="45.94915" lon="6.55815">
        <ele>2203.2</ele>
        <time>2026-02-02T09:05:46Z</time>
      </trkpt>
      <trkpt lat="45.94914" lon="6.55814">
        <ele>2201.7</ele>
        <time>2026-02-02T09:05:47Z</time>
      </trkpt>
      <trkpt lat="45.94914" lon="6.55814">
        <ele>2201.7</ele>
        <time>2026-02-02T09:05:49Z</time>
      </trkpt>
      <trkpt lat="45.94914" lon="6.55814">
        <ele>2201.7</ele>
        <time>2026-02-02T09:05:50Z</time>
      </trkpt>
      <trkpt lat="45.94914" lon="6.55814">
        <ele>2201.7</ele>
        <time>2026-02-02T09:05:51Z</time>
      </trkpt>
      <trkpt lat="45.94913" lon="6.55814">
        <ele>2201.7</ele>
        <time>2026-02-02T09:05:52Z</time>
      </trkpt>
      <trkpt lat="45.94913" lon="6.55814">
        <ele>2201.7</ele>
        <time>2026-02-02T09:05:53Z</time>
      </trkpt>
      <trkpt lat="45.94913" lon="6.55815">
        <ele>2201.7</ele>
        <time>2026-02-02T09:05:54Z</time>
      </trkpt>
      <trkpt lat="45.94913" lon="6.55815">
        <ele>2201.7</ele>
        <time>2026-02-02T09:05:55Z</time>
      </trkpt>
      <trkpt lat="45.94913" lon="6.55815">
        <ele>2201.7</ele>
        <time>2026-02-02T09:05:56Z</time>
      </trkpt>
      <trkpt lat="45.94913" lon="6.55815">
        <ele>2201.7</ele>
        <time>2026-02-02T09:05:57Z</time>
      </trkpt>
      <trkpt lat="45.94913" lon="6.55815">
        <ele>2201.7</ele>
        <time>2026-02-02T09:05:58Z</time>
      </trkpt>
      <trkpt lat="45.94913" lon="6.55815">
        <ele>2201.7</ele>
        <time>2026-02-02T09:05:59Z</time>
      </trkpt>
      <trkpt lat="45.94913" lon="6.55815">
        <ele>2201.7</ele>
        <time>2026-02-02T09:06:00Z</time>
      </trkpt>
      <trkpt lat="45.94913" lon="6.55815">
        <ele>2201.7</ele>
        <time>2026-02-02T09:06:01Z</time>
      </trkpt>
      <trkpt lat="45.94913" lon="6.55815">
        <ele>2201.7</ele>
        <time>2026-02-02T09:06:02Z</time>
      </trkpt>
      <trkpt lat="45.94913" lon="6.55815">
        <ele>2201.7</ele>
        <time>2026-02-02T09:06:03Z</time>
      </trkpt>
      <trkpt lat="45.94912" lon="6.55815">
        <ele>2201.7</ele>
        <time>2026-02-02T09:06:04Z</time>
      </trkpt>
      <trkpt lat="45.94912" lon="6.55815">
        <ele>2201.7</ele>
        <time>2026-02-02T09:06:05Z</time>
      </trkpt>
      <trkpt lat="45.94912" lon="6.55815">
        <ele>2201.7</ele>
        <time>2026-02-02T09:06:06Z</time>
      </trkpt>
      <trkpt lat="45.94912" lon="6.55815">
        <ele>2201.7</ele>
        <time>2026-02-02T09:06:07Z</time>
      </trkpt>
      <trkpt lat="45.94912" lon="6.55815">
        <ele>2201.7</ele>
        <time>2026-02-02T09:06:08Z</time>
      </trkpt>
      <trkpt lat="45.94912" lon="6.55815">
        <ele>2200.3</ele>
        <time>2026-02-02T09:06:09Z</time>
      </trkpt>
      <trkpt lat="45.94912" lon="6.55815">
        <ele>2200.3</ele>
        <time>2026-02-02T09:06:10Z</time>
      </trkpt>
      <trkpt lat="45.94912" lon="6.55815">
        <ele>2200.3</ele>
        <time>2026-02-02T09:06:11Z</time>
      </trkpt>
      <trkpt lat="45.94912" lon="6.55815">
        <ele>2200.3</ele>
        <time>2026-02-02T09:06:12Z</time>
      </trkpt>
      <trkpt lat="45.94912" lon="6.55815">
        <ele>2200.3</ele>
        <time>2026-02-02T09:06:13Z</time>
      </trkpt>
      <trkpt lat="45.94912" lon="6.55815">
        <ele>2200.3</ele>
        <time>2026-02-02T09:06:14Z</time>
      </trkpt>
      <trkpt lat="45.94912" lon="6.55815">
        <ele>2200.3</ele>
        <time>2026-02-02T09:06:15Z</time>
      </trkpt>
      <trkpt lat="45.94912" lon="6.55815">
        <ele>2200.3</ele>
        <time>2026-02-02T09:06:16Z</time>
      </trkpt>
      <trkpt lat="45.94911" lon="6.55815">
        <ele>2200.3</ele>
        <time>2026-02-02T09:06:17Z</time>
      </trkpt>
      <trkpt lat="45.94911" lon="6.55815">
        <ele>2200.3</ele>
        <time>2026-02-02T09:06:18Z</time>
      </trkpt>
      <trkpt lat="45.94911" lon="6.55815">
        <ele>2199</ele>
        <time>2026-02-02T09:06:19Z</time>
      </trkpt>
      <trkpt lat="45.94911" lon="6.55815">
        <ele>2199</ele>
        <time>2026-02-02T09:06:20Z</time>
      </trkpt>
      <trkpt lat="45.94911" lon="6.55815">
        <ele>2199</ele>
        <time>2026-02-02T09:06:21Z</time>
      </trkpt>
      <trkpt lat="45.94911" lon="6.55815">
        <ele>2199</ele>
        <time>2026-02-02T09:06:22Z</time>
      </trkpt>
      <trkpt lat="45.94911" lon="6.55815">
        <ele>2199</ele>
        <time>2026-02-02T09:06:23Z</time>
      </trkpt>
      <trkpt lat="45.94911" lon="6.55815">
        <ele>2199</ele>
        <time>2026-02-02T09:06:24Z</time>
      </trkpt>
      <trkpt lat="45.94911" lon="6.55815">
        <ele>2199</ele>
        <time>2026-02-02T09:06:25Z</time>
      </trkpt>
      <trkpt lat="45.94911" lon="6.55815">
        <ele>2199</ele>
        <time>2026-02-02T09:06:26Z</time>
      </trkpt>
      <trkpt lat="45.94911" lon="6.55815">
        <ele>2199</ele>
        <time>2026-02-02T09:06:27Z</time>
      </trkpt>
      <trkpt lat="45.94909" lon="6.55816">
        <ele>2197.7</ele>
        <time>2026-02-02T09:06:28Z</time>
      </trkpt>
      <trkpt lat="45.94908" lon="6.55816">
        <ele>2197.7</ele>
        <time>2026-02-02T09:06:29Z</time>
      </trkpt>
      <trkpt lat="45.94908" lon="6.55815">
        <ele>2197.7</ele>
        <time>2026-02-02T09:06:30Z</time>
      </trkpt>
      <trkpt lat="45.94908" lon="6.55815">
        <ele>2199</ele>
        <time>2026-02-02T09:06:31Z</time>
      </trkpt>
      <trkpt lat="45.94909" lon="6.55814">
        <ele>2199</ele>
        <time>2026-02-02T09:06:32Z</time>
      </trkpt>
      <trkpt lat="45.9491" lon="6.55812">
        <ele>2200.3</ele>
        <time>2026-02-02T09:06:33Z</time>
      </trkpt>
      <trkpt lat="45.94911" lon="6.55811">
        <ele>2201.7</ele>
        <time>2026-02-02T09:06:34Z</time>
      </trkpt>
      <trkpt lat="45.94912" lon="6.5581">
        <ele>2201.7</ele>
        <time>2026-02-02T09:06:35Z</time>
      </trkpt>
      <trkpt lat="45.94913" lon="6.55809">
        <ele>2203.1</ele>
        <time>2026-02-02T09:06:36Z</time>
      </trkpt>
      <trkpt lat="45.94913" lon="6.55809">
        <ele>2203.1</ele>
        <time>2026-02-02T09:06:37Z</time>
      </trkpt>
      <trkpt lat="45.94914" lon="6.55809">
        <ele>2203.1</ele>
        <time>2026-02-02T09:06:38Z</time>
      </trkpt>
      <trkpt lat="45.94914" lon="6.55808">
        <ele>2203.1</ele>
        <time>2026-02-02T09:06:39Z</time>
      </trkpt>
      <trkpt lat="45.94914" lon="6.55807">
        <ele>2203.1</ele>
        <time>2026-02-02T09:06:40Z</time>
      </trkpt>
      <trkpt lat="45.94914" lon="6.55806">
        <ele>2204.5</ele>
        <time>2026-02-02T09:06:41Z</time>
      </trkpt>
      <trkpt lat="45.94915" lon="6.55805">
        <ele>2204.5</ele>
        <time>2026-02-02T09:06:42Z</time>
      </trkpt>
      <trkpt lat="45.94915" lon="6.55804">
        <ele>2206</ele>
        <time>2026-02-02T09:06:43Z</time>
      </trkpt>
      <trkpt lat="45.94915" lon="6.55803">
        <ele>2206</ele>
        <time>2026-02-02T09:06:44Z</time>
      </trkpt>
      <trkpt lat="45.94915" lon="6.55802">
        <ele>2206.1</ele>
        <time>2026-02-02T09:06:45Z</time>
      </trkpt>
      <trkpt lat="45.94914" lon="6.55801">
        <ele>2206.1</ele>
        <time>2026-02-02T09:06:46Z</time>
      </trkpt>
      <trkpt lat="45.94913" lon="6.55801">
        <ele>2206.1</ele>
        <time>2026-02-02T09:06:48Z</time>
      </trkpt>
      <trkpt lat="45.94912" lon="6.55801">
        <ele>2206.1</ele>
        <time>2026-02-02T09:06:49Z</time>
      </trkpt>
      <trkpt lat="45.94911" lon="6.55801">
        <ele>2204.6</ele>
        <time>2026-02-02T09:06:50Z</time>
      </trkpt>
      <trkpt lat="45.9491" lon="6.55802">
        <ele>2203.1</ele>
        <time>2026-02-02T09:06:51Z</time>
      </trkpt>
      <trkpt lat="45.9491" lon="6.55803">
        <ele>2203.1</ele>
        <time>2026-02-02T09:06:52Z</time>
      </trkpt>
      <trkpt lat="45.94909" lon="6.55804">
        <ele>2201.7</ele>
        <time>2026-02-02T09:06:53Z</time>
      </trkpt>
      <trkpt lat="45.94908" lon="6.55804">
        <ele>2201.7</ele>
        <time>2026-02-02T09:06:54Z</time>
      </trkpt>
      <trkpt lat="45.94908" lon="6.55804">
        <ele>2201.7</ele>
        <time>2026-02-02T09:06:55Z</time>
      </trkpt>
      <trkpt lat="45.94908" lon="6.55803">
        <ele>2201.7</ele>
        <time>2026-02-02T09:06:56Z</time>
      </trkpt>
      <trkpt lat="45.94908" lon="6.55803">
        <ele>2201.7</ele>
        <time>2026-02-02T09:06:57Z</time>
      </trkpt>
      <trkpt lat="45.94907" lon="6.55803">
        <ele>2201.7</ele>
        <time>2026-02-02T09:06:58Z</time>
      </trkpt>
      <trkpt lat="45.94907" lon="6.55803">
        <ele>2201.7</ele>
        <time>2026-02-02T09:06:59Z</time>
      </trkpt>
      <trkpt lat="45.94907" lon="6.55803">
        <ele>2201.7</ele>
        <time>2026-02-02T09:07:00Z</time>
      </trkpt>
      <trkpt lat="45.94908" lon="6.55803">
        <ele>2201.7</ele>
        <time>2026-02-02T09:07:01Z</time>
      </trkpt>
      <trkpt lat="45.94908" lon="6.55803">
        <ele>2201.7</ele>
        <time>2026-02-02T09:07:02Z</time>
      </trkpt>
      <trkpt lat="45.94908" lon="6.55803">
        <ele>2201.7</ele>
        <time>2026-02-02T09:07:03Z</time>
      </trkpt>
      <trkpt lat="45.94908" lon="6.55803">
        <ele>2201.7</ele>
        <time>2026-02-02T09:07:04Z</time>
      </trkpt>
      <trkpt lat="45.94908" lon="6.55803">
        <ele>2201.7</ele>
        <time>2026-02-02T09:07:05Z</time>
      </trkpt>
      <trkpt lat="45.94908" lon="6.55803">
        <ele>2201.7</ele>
        <time>2026-02-02T09:07:06Z</time>
      </trkpt>
      <trkpt lat="45.94908" lon="6.55803">
        <ele>2201.7</ele>
        <time>2026-02-02T09:07:07Z</time>
      </trkpt>
      <trkpt lat="45.94908" lon="6.55803">
        <ele>2201.7</ele>
        <time>2026-02-02T09:07:08Z</time>
      </trkpt>
      <trkpt lat="45.94908" lon="6.55803">
        <ele>2201.7</ele>
        <time>2026-02-02T09:07:09Z</time>
      </trkpt>
      <trkpt lat="45.94908" lon="6.55803">
        <ele>2201.7</ele>
        <time>2026-02-02T09:07:10Z</time>
      </trkpt>
      <trkpt lat="45.94907" lon="6.55803">
        <ele>2201.7</ele>
        <time>2026-02-02T09:07:11Z</time>
      </trkpt>
      <trkpt lat="45.94907" lon="6.55803">
        <ele>2201.7</ele>
        <time>2026-02-02T09:07:12Z</time>
      </trkpt>
      <trkpt lat="45.94907" lon="6.55803">
        <ele>2201.7</ele>
        <time>2026-02-02T09:07:13Z</time>
      </trkpt>
      <trkpt lat="45.94908" lon="6.55803">
        <ele>2201.7</ele>
        <time>2026-02-02T09:07:14Z</time>
      </trkpt>
      <trkpt lat="45.94908" lon="6.55803">
        <ele>2201.7</ele>
        <time>2026-02-02T09:07:15Z</time>
      </trkpt>
      <trkpt lat="45.94908" lon="6.55803">
        <ele>2201.7</ele>
        <time>2026-02-02T09:07:16Z</time>
      </trkpt>
      <trkpt lat="45.94908" lon="6.55803">
        <ele>2201.7</ele>
        <time>2026-02-02T09:07:17Z</time>
      </trkpt>
      <trkpt lat="45.94908" lon="6.55803">
        <ele>2201.7</ele>
        <time>2026-02-02T09:07:18Z</time>
      </trkpt>
      <trkpt lat="45.94908" lon="6.55803">
        <ele>2201.7</ele>
        <time>2026-02-02T09:07:20Z</time>
      </trkpt>
      <trkpt lat="45.94908" lon="6.55803">
        <ele>2201.7</ele>
        <time>2026-02-02T09:07:21Z</time>
      </trkpt>
      <trkpt lat="45.94908" lon="6.55803">
        <ele>2201.7</ele>
        <time>2026-02-02T09:07:22Z</time>
      </trkpt>
      <trkpt lat="45.94908" lon="6.55803">
        <ele>2201.7</ele>
        <time>2026-02-02T09:07:23Z</time>
      </trkpt>
      <trkpt lat="45.94908" lon="6.55803">
        <ele>2201.7</ele>
        <time>2026-02-02T09:07:24Z</time>
      </trkpt>
      <trkpt lat="45.94908" lon="6.55803">
        <ele>2201.7</ele>
        <time>2026-02-02T09:07:25Z</time>
      </trkpt>
      <trkpt lat="45.94908" lon="6.55803">
        <ele>2201.7</ele>
        <time>2026-02-02T09:07:26Z</time>
      </trkpt>
      <trkpt lat="45.94908" lon="6.55803">
        <ele>2201.7</ele>
        <time>2026-02-02T09:07:27Z</time>
      </trkpt>
      <trkpt lat="45.94908" lon="6.55803">
        <ele>2201.7</ele>
        <time>2026-02-02T09:07:28Z</time>
      </trkpt>
      <trkpt lat="45.94908" lon="6.55803">
        <ele>2201.7</ele>
        <time>2026-02-02T09:07:29Z</time>
      </trkpt>
      <trkpt lat="45.94908" lon="6.55804">
        <ele>2201.7</ele>
        <time>2026-02-02T09:07:30Z</time>
      </trkpt>
      <trkpt lat="45.94908" lon="6.55803">
        <ele>2201.7</ele>
        <time>2026-02-02T09:07:31Z</time>
      </trkpt>
      <trkpt lat="45.94908" lon="6.55803">
        <ele>2201.7</ele>
        <time>2026-02-02T09:07:32Z</time>
      </trkpt>
      <trkpt lat="45.94908" lon="6.55804">
        <ele>2201.7</ele>
        <time>2026-02-02T09:07:33Z</time>
      </trkpt>
      <trkpt lat="45.94909" lon="6.55804">
        <ele>2201.7</ele>
        <time>2026-02-02T09:07:34Z</time>
      </trkpt>
      <trkpt lat="45.94908" lon="6.55804">
        <ele>2201.7</ele>
        <time>2026-02-02T09:07:35Z</time>
      </trkpt>
      <trkpt lat="45.94908" lon="6.55804">
        <ele>2201.7</ele>
        <time>2026-02-02T09:07:36Z</time>
      </trkpt>
      <trkpt lat="45.94908" lon="6.55804">
        <ele>2201.7</ele>
        <time>2026-02-02T09:07:37Z</time>
      </trkpt>
      <trkpt lat="45.94908" lon="6.55804">
        <ele>2201.7</ele>
        <time>2026-02-02T09:07:38Z</time>
      </trkpt>
      <trkpt lat="45.94908" lon="6.55804">
        <ele>2201.7</ele>
        <time>2026-02-02T09:07:39Z</time>
      </trkpt>
      <trkpt lat="45.94908" lon="6.55805">
        <ele>2201.7</ele>
        <time>2026-02-02T09:07:40Z</time>
      </trkpt>
      <trkpt lat="45.94909" lon="6.55806">
        <ele>2201.7</ele>
        <time>2026-02-02T09:07:41Z</time>
      </trkpt>
      <trkpt lat="45.94909" lon="6.55807">
        <ele>2203.1</ele>
        <time>2026-02-02T09:07:42Z</time>
      </trkpt>
      <trkpt lat="45.94909" lon="6.55807">
        <ele>2203.1</ele>
        <time>2026-02-02T09:07:43Z</time>
      </trkpt>
      <trkpt lat="45.94909" lon="6.55806">
        <ele>2201.7</ele>
        <time>2026-02-02T09:07:45Z</time>
      </trkpt>
      <trkpt lat="45.94909" lon="6.55806">
        <ele>2201.7</ele>
        <time>2026-02-02T09:07:46Z</time>
      </trkpt>
      <trkpt lat="45.94909" lon="6.55806">
        <ele>2201.7</ele>
        <time>2026-02-02T09:07:47Z</time>
      </trkpt>
      <trkpt lat="45.94909" lon="6.55806">
        <ele>2201.7</ele>
        <time>2026-02-02T09:07:48Z</time>
      </trkpt>
      <trkpt lat="45.94909" lon="6.55806">
        <ele>2201.7</ele>
        <time>2026-02-02T09:07:49Z</time>
      </trkpt>
      <trkpt lat="45.94909" lon="6.55806">
        <ele>2201.7</ele>
        <time>2026-02-02T09:07:50Z</time>
      </trkpt>
      <trkpt lat="45.94909" lon="6.55806">
        <ele>2201.7</ele>
        <time>2026-02-02T09:07:51Z</time>
      </trkpt>
      <trkpt lat="45.94909" lon="6.55806">
        <ele>2201.7</ele>
        <time>2026-02-02T09:07:52Z</time>
      </trkpt>
      <trkpt lat="45.94909" lon="6.55806">
        <ele>2201.7</ele>
        <time>2026-02-02T09:07:54Z</time>
      </trkpt>
      <trkpt lat="45.94909" lon="6.55806">
        <ele>2201.7</ele>
        <time>2026-02-02T09:07:55Z</time>
      </trkpt>
      <trkpt lat="45.94909" lon="6.55806">
        <ele>2201.7</ele>
        <time>2026-02-02T09:07:56Z</time>
      </trkpt>
      <trkpt lat="45.94909" lon="6.55806">
        <ele>2201.7</ele>
        <time>2026-02-02T09:07:57Z</time>
      </trkpt>
      <trkpt lat="45.94909" lon="6.55806">
        <ele>2201.7</ele>
        <time>2026-02-02T09:07:58Z</time>
      </trkpt>
      <trkpt lat="45.94909" lon="6.55806">
        <ele>2201.7</ele>
        <time>2026-02-02T09:07:59Z</time>
      </trkpt>
      <trkpt lat="45.94909" lon="6.55806">
        <ele>2201.7</ele>
        <time>2026-02-02T09:08:00Z</time>
      </trkpt>
      <trkpt lat="45.94909" lon="6.55806">
        <ele>2201.7</ele>
        <time>2026-02-02T09:08:01Z</time>
      </trkpt>
      <trkpt lat="45.94909" lon="6.55806">
        <ele>2201.7</ele>
        <time>2026-02-02T09:08:02Z</time>
      </trkpt>
      <trkpt lat="45.94909" lon="6.55806">
        <ele>2201.7</ele>
        <time>2026-02-02T09:08:03Z</time>
      </trkpt>
      <trkpt lat="45.94909" lon="6.55806">
        <ele>2201.7</ele>
        <time>2026-02-02T09:08:04Z</time>
      </trkpt>
      <trkpt lat="45.94909" lon="6.55806">
        <ele>2201.7</ele>
        <time>2026-02-02T09:08:05Z</time>
      </trkpt>
      <trkpt lat="45.94909" lon="6.55806">
        <ele>2201.7</ele>
        <time>2026-02-02T09:08:06Z</time>
      </trkpt>
      <trkpt lat="45.94909" lon="6.55806">
        <ele>2201.7</ele>
        <time>2026-02-02T09:08:07Z</time>
      </trkpt>
      <trkpt lat="45.94909" lon="6.55806">
        <ele>2201.7</ele>
        <time>2026-02-02T09:08:08Z</time>
      </trkpt>
      <trkpt lat="45.94909" lon="6.55806">
        <ele>2201.7</ele>
        <time>2026-02-02T09:08:09Z</time>
      </trkpt>
      <trkpt lat="45.94909" lon="6.55806">
        <ele>2201.7</ele>
        <time>2026-02-02T09:08:10Z</time>
      </trkpt>
      <trkpt lat="45.94909" lon="6.55806">
        <ele>2201.7</ele>
        <time>2026-02-02T09:08:11Z</time>
      </trkpt>
      <trkpt lat="45.94909" lon="6.55806">
        <ele>2201.7</ele>
        <time>2026-02-02T09:08:12Z</time>
      </trkpt>
      <trkpt lat="45.94909" lon="6.55806">
        <ele>2201.7</ele>
        <time>2026-02-02T09:08:13Z</time>
      </trkpt>
      <trkpt lat="45.94909" lon="6.55806">
        <ele>2201.7</ele>
        <time>2026-02-02T09:08:14Z</time>
      </trkpt>
      <trkpt lat="45.94909" lon="6.55806">
        <ele>2201.7</ele>
        <time>2026-02-02T09:08:15Z</time>
      </trkpt>
      <trkpt lat="45.94909" lon="6.55806">
        <ele>2201.7</ele>
        <time>2026-02-02T09:08:16Z</time>
      </trkpt>
      <trkpt lat="45.94909" lon="6.55806">
        <ele>2201.7</ele>
        <time>2026-02-02T09:08:17Z</time>
      </trkpt>
      <trkpt lat="45.94909" lon="6.55806">
        <ele>2201.7</ele>
        <time>2026-02-02T09:08:18Z</time>
      </trkpt>
      <trkpt lat="45.94909" lon="6.55806">
        <ele>2201.7</ele>
        <time>2026-02-02T09:08:19Z</time>
      </trkpt>
      <trkpt lat="45.94908" lon="6.55805">
        <ele>2201.7</ele>
        <time>2026-02-02T09:08:20Z</time>
      </trkpt>
      <trkpt lat="45.94908" lon="6.55805">
        <ele>2201.7</ele>
        <time>2026-02-02T09:08:21Z</time>
      </trkpt>
      <trkpt lat="45.94908" lon="6.55805">
        <ele>2201.7</ele>
        <time>2026-02-02T09:08:22Z</time>
      </trkpt>
      <trkpt lat="45.94908" lon="6.55804">
        <ele>2201.7</ele>
        <time>2026-02-02T09:08:23Z</time>
      </trkpt>
      <trkpt lat="45.94909" lon="6.55803">
        <ele>2201.7</ele>
        <time>2026-02-02T09:08:24Z</time>
      </trkpt>
      <trkpt lat="45.94909" lon="6.55802">
        <ele>2204.6</ele>
        <time>2026-02-02T09:08:25Z</time>
      </trkpt>
      <trkpt lat="45.94909" lon="6.55801">
        <ele>2204.6</ele>
        <time>2026-02-02T09:08:26Z</time>
      </trkpt>
      <trkpt lat="45.9491" lon="6.558">
        <ele>2204.6</ele>
        <time>2026-02-02T09:08:27Z</time>
      </trkpt>
      <trkpt lat="45.94911" lon="6.55799">
        <ele>2204.6</ele>
        <time>2026-02-02T09:08:28Z</time>
      </trkpt>
      <trkpt lat="45.94912" lon="6.55797">
        <ele>2206.1</ele>
        <time>2026-02-02T09:08:29Z</time>
      </trkpt>
      <trkpt lat="45.94913" lon="6.55796">
        <ele>2207.6</ele>
        <time>2026-02-02T09:08:30Z</time>
      </trkpt>
      <trkpt lat="45.94913" lon="6.55795">
        <ele>2207.6</ele>
        <time>2026-02-02T09:08:31Z</time>
      </trkpt>
      <trkpt lat="45.94913" lon="6.55794">
        <ele>2207.6</ele>
        <time>2026-02-02T09:08:32Z</time>
      </trkpt>
      <trkpt lat="45.94913" lon="6.55793">
        <ele>2209.3</ele>
        <time>2026-02-02T09:08:33Z</time>
      </trkpt>
      <trkpt lat="45.94914" lon="6.55792">
        <ele>2209.3</ele>
        <time>2026-02-02T09:08:34Z</time>
      </trkpt>
      <trkpt lat="45.94914" lon="6.55791">
        <ele>2209.3</ele>
        <time>2026-02-02T09:08:35Z</time>
      </trkpt>
      <trkpt lat="45.94915" lon="6.55789">
        <ele>2211</ele>
        <time>2026-02-02T09:08:36Z</time>
      </trkpt>
      <trkpt lat="45.94915" lon="6.55788">
        <ele>2212.5</ele>
        <time>2026-02-02T09:08:37Z</time>
      </trkpt>
      <trkpt lat="45.94916" lon="6.55787">
        <ele>2212.5</ele>
        <time>2026-02-02T09:08:38Z</time>
      </trkpt>
      <trkpt lat="45.94916" lon="6.55786">
        <ele>2212.5</ele>
        <time>2026-02-02T09:08:39Z</time>
      </trkpt>
      <trkpt lat="45.94916" lon="6.55785">
        <ele>2214.3</ele>
        <time>2026-02-02T09:08:40Z</time>
      </trkpt>
      <trkpt lat="45.94917" lon="6.55784">
        <ele>2214.3</ele>
        <time>2026-02-02T09:08:41Z</time>
      </trkpt>
      <trkpt lat="45.94917" lon="6.55782">
        <ele>2214.3</ele>
        <time>2026-02-02T09:08:42Z</time>
      </trkpt>
      <trkpt lat="45.94917" lon="6.55781">
        <ele>2214.3</ele>
        <time>2026-02-02T09:08:43Z</time>
      </trkpt>
      <trkpt lat="45.94918" lon="6.55778">
        <ele>2216.2</ele>
        <time>2026-02-02T09:08:44Z</time>
      </trkpt>
      <trkpt lat="45.94918" lon="6.55777">
        <ele>2216.2</ele>
        <time>2026-02-02T09:08:45Z</time>
      </trkpt>
      <trkpt lat="45.94918" lon="6.55776">
        <ele>2219.5</ele>
        <time>2026-02-02T09:08:46Z</time>
      </trkpt>
      <trkpt lat="45.94919" lon="6.55774">
        <ele>2219.5</ele>
        <time>2026-02-02T09:08:47Z</time>
      </trkpt>
      <trkpt lat="45.94919" lon="6.55772">
        <ele>2219.5</ele>
        <time>2026-02-02T09:08:48Z</time>
      </trkpt>
      <trkpt lat="45.94919" lon="6.55772">
        <ele>2221.2</ele>
        <time>2026-02-02T09:08:49Z</time>
      </trkpt>
      <trkpt lat="45.94918" lon="6.55773">
        <ele>2219.5</ele>
        <time>2026-02-02T09:08:51Z</time>
      </trkpt>
      <trkpt lat="45.94918" lon="6.55773">
        <ele>2219.5</ele>
        <time>2026-02-02T09:08:52Z</time>
      </trkpt>
      <trkpt lat="45.94918" lon="6.55774">
        <ele>2219.5</ele>
        <time>2026-02-02T09:08:53Z</time>
      </trkpt>
      <trkpt lat="45.94918" lon="6.55774">
        <ele>2217.9</ele>
        <time>2026-02-02T09:08:54Z</time>
      </trkpt>
      <trkpt lat="45.94918" lon="6.55774">
        <ele>2217.9</ele>
        <time>2026-02-02T09:08:55Z</time>
      </trkpt>
      <trkpt lat="45.94918" lon="6.55774">
        <ele>2217.9</ele>
        <time>2026-02-02T09:08:56Z</time>
      </trkpt>
      <trkpt lat="45.94918" lon="6.55774">
        <ele>2217.9</ele>
        <time>2026-02-02T09:08:57Z</time>
      </trkpt>
      <trkpt lat="45.94918" lon="6.55774">
        <ele>2217.9</ele>
        <time>2026-02-02T09:08:58Z</time>
      </trkpt>
      <trkpt lat="45.94918" lon="6.55774">
        <ele>2217.9</ele>
        <time>2026-02-02T09:08:59Z</time>
      </trkpt>
      <trkpt lat="45.94918" lon="6.55774">
        <ele>2217.9</ele>
        <time>2026-02-02T09:09:00Z</time>
      </trkpt>
      <trkpt lat="45.94918" lon="6.55774">
        <ele>2217.9</ele>
        <time>2026-02-02T09:09:02Z</time>
      </trkpt>
      <trkpt lat="45.94918" lon="6.55774">
        <ele>2217.9</ele>
        <time>2026-02-02T09:09:03Z</time>
      </trkpt>
      <trkpt lat="45.94918" lon="6.55774">
        <ele>2217.9</ele>
        <time>2026-02-02T09:09:04Z</time>
      </trkpt>
      <trkpt lat="45.94918" lon="6.55774">
        <ele>2217.9</ele>
        <time>2026-02-02T09:09:05Z</time>
      </trkpt>
      <trkpt lat="45.94918" lon="6.55774">
        <ele>2217.9</ele>
        <time>2026-02-02T09:09:06Z</time>
      </trkpt>
      <trkpt lat="45.94918" lon="6.55774">
        <ele>2217.9</ele>
        <time>2026-02-02T09:09:07Z</time>
      </trkpt>
      <trkpt lat="45.94918" lon="6.55775">
        <ele>2217.9</ele>
        <time>2026-02-02T09:09:08Z</time>
      </trkpt>
      <trkpt lat="45.94918" lon="6.55775">
        <ele>2217.9</ele>
        <time>2026-02-02T09:09:09Z</time>
      </trkpt>
      <trkpt lat="45.94918" lon="6.55775">
        <ele>2217.9</ele>
        <time>2026-02-02T09:09:10Z</time>
      </trkpt>
      <trkpt lat="45.94918" lon="6.55775">
        <ele>2217.9</ele>
        <time>2026-02-02T09:09:11Z</time>
      </trkpt>
      <trkpt lat="45.94918" lon="6.55775">
        <ele>2217.9</ele>
        <time>2026-02-02T09:09:12Z</time>
      </trkpt>
      <trkpt lat="45.94918" lon="6.55775">
        <ele>2217.9</ele>
        <time>2026-02-02T09:09:13Z</time>
      </trkpt>
      <trkpt lat="45.94918" lon="6.55775">
        <ele>2217.9</ele>
        <time>2026-02-02T09:09:14Z</time>
      </trkpt>
      <trkpt lat="45.94918" lon="6.55775">
        <ele>2217.9</ele>
        <time>2026-02-02T09:09:15Z</time>
      </trkpt>
      <trkpt lat="45.94918" lon="6.55775">
        <ele>2217.9</ele>
        <time>2026-02-02T09:09:16Z</time>
      </trkpt>
      <trkpt lat="45.94918" lon="6.55775">
        <ele>2217.9</ele>
        <time>2026-02-02T09:09:17Z</time>
      </trkpt>
      <trkpt lat="45.94918" lon="6.55775">
        <ele>2217.9</ele>
        <time>2026-02-02T09:09:18Z</time>
      </trkpt>
      <trkpt lat="45.94918" lon="6.55775">
        <ele>2217.9</ele>
        <time>2026-02-02T09:09:19Z</time>
      </trkpt>
      <trkpt lat="45.94917" lon="6.55775">
        <ele>2217.9</ele>
        <time>2026-02-02T09:09:20Z</time>
      </trkpt>
      <trkpt lat="45.94917" lon="6.55775">
        <ele>2217.9</ele>
        <time>2026-02-02T09:09:21Z</time>
      </trkpt>
      <trkpt lat="45.94917" lon="6.55774">
        <ele>2217.9</ele>
        <time>2026-02-02T09:09:22Z</time>
      </trkpt>
      <trkpt lat="45.94918" lon="6.55772">
        <ele>2217.9</ele>
        <time>2026-02-02T09:09:23Z</time>
      </trkpt>
      <trkpt lat="45.94918" lon="6.55772">
        <ele>2221.2</ele>
        <time>2026-02-02T09:09:24Z</time>
      </trkpt>
      <trkpt lat="45.94919" lon="6.5577">
        <ele>2221.2</ele>
        <time>2026-02-02T09:09:25Z</time>
      </trkpt>
      <trkpt lat="45.94919" lon="6.55769">
        <ele>2221.2</ele>
        <time>2026-02-02T09:09:26Z</time>
      </trkpt>
      <trkpt lat="45.94919" lon="6.55768">
        <ele>2222.9</ele>
        <time>2026-02-02T09:09:27Z</time>
      </trkpt>
      <trkpt lat="45.94919" lon="6.55767">
        <ele>2222.9</ele>
        <time>2026-02-02T09:09:28Z</time>
      </trkpt>
      <trkpt lat="45.94919" lon="6.55766">
        <ele>2222.9</ele>
        <time>2026-02-02T09:09:29Z</time>
      </trkpt>
      <trkpt lat="45.94919" lon="6.55762">
        <ele>2224.6</ele>
        <time>2026-02-02T09:09:30Z</time>
      </trkpt>
      <trkpt lat="45.94919" lon="6.55761">
        <ele>2224.6</ele>
        <time>2026-02-02T09:09:31Z</time>
      </trkpt>
      <trkpt lat="45.94919" lon="6.55761">
        <ele>2224.6</ele>
        <time>2026-02-02T09:09:32Z</time>
      </trkpt>
      <trkpt lat="45.94919" lon="6.5576">
        <ele>2224.6</ele>
        <time>2026-02-02T09:09:33Z</time>
      </trkpt>
      <trkpt lat="45.94919" lon="6.55759">
        <ele>2226.3</ele>
        <time>2026-02-02T09:09:34Z</time>
      </trkpt>
      <trkpt lat="45.9492" lon="6.55758">
        <ele>2226.3</ele>
        <time>2026-02-02T09:09:35Z</time>
      </trkpt>
      <trkpt lat="45.9492" lon="6.55756">
        <ele>2226.3</ele>
        <time>2026-02-02T09:09:36Z</time>
      </trkpt>
      <trkpt lat="45.94921" lon="6.55755">
        <ele>2228.1</ele>
        <time>2026-02-02T09:09:37Z</time>
      </trkpt>
      <trkpt lat="45.94921" lon="6.55753">
        <ele>2229.7</ele>
        <time>2026-02-02T09:09:38Z</time>
      </trkpt>
      <trkpt lat="45.94922" lon="6.55752">
        <ele>2229.7</ele>
        <time>2026-02-02T09:09:39Z</time>
      </trkpt>
      <trkpt lat="45.94922" lon="6.5575">
        <ele>2231.6</ele>
        <time>2026-02-02T09:09:40Z</time>
      </trkpt>
      <trkpt lat="45.94922" lon="6.55749">
        <ele>2231.6</ele>
        <time>2026-02-02T09:09:41Z</time>
      </trkpt>
      <trkpt lat="45.94922" lon="6.55748">
        <ele>2231.6</ele>
        <time>2026-02-02T09:09:42Z</time>
      </trkpt>
      <trkpt lat="45.94922" lon="6.55748">
        <ele>2231.6</ele>
        <time>2026-02-02T09:09:43Z</time>
      </trkpt>
      <trkpt lat="45.94922" lon="6.55747">
        <ele>2231.6</ele>
        <time>2026-02-02T09:09:44Z</time>
      </trkpt>
      <trkpt lat="45.94922" lon="6.55745">
        <ele>2233.5</ele>
        <time>2026-02-02T09:09:45Z</time>
      </trkpt>
      <trkpt lat="45.94922" lon="6.55745">
        <ele>2233.5</ele>
        <time>2026-02-02T09:09:46Z</time>
      </trkpt>
      <trkpt lat="45.94922" lon="6.55745">
        <ele>2233.5</ele>
        <time>2026-02-02T09:09:47Z</time>
      </trkpt>
      <trkpt lat="45.94922" lon="6.55745">
        <ele>2233.5</ele>
        <time>2026-02-02T09:09:48Z</time>
      </trkpt>
      <trkpt lat="45.94922" lon="6.55745">
        <ele>2233.5</ele>
        <time>2026-02-02T09:09:49Z</time>
      </trkpt>
      <trkpt lat="45.94922" lon="6.55745">
        <ele>2233.5</ele>
        <time>2026-02-02T09:09:50Z</time>
      </trkpt>
      <trkpt lat="45.94922" lon="6.55745">
        <ele>2233.5</ele>
        <time>2026-02-02T09:09:51Z</time>
      </trkpt>
      <trkpt lat="45.94922" lon="6.55745">
        <ele>2233.5</ele>
        <time>2026-02-02T09:09:52Z</time>
      </trkpt>
      <trkpt lat="45.94922" lon="6.55745">
        <ele>2233.5</ele>
        <time>2026-02-02T09:09:53Z</time>
      </trkpt>
      <trkpt lat="45.94922" lon="6.55745">
        <ele>2233.5</ele>
        <time>2026-02-02T09:09:54Z</time>
      </trkpt>
      <trkpt lat="45.94922" lon="6.55746">
        <ele>2233.5</ele>
        <time>2026-02-02T09:09:55Z</time>
      </trkpt>
      <trkpt lat="45.94922" lon="6.55746">
        <ele>2233.5</ele>
        <time>2026-02-02T09:09:56Z</time>
      </trkpt>
      <trkpt lat="45.94922" lon="6.55746">
        <ele>2233.5</ele>
        <time>2026-02-02T09:09:57Z</time>
      </trkpt>
      <trkpt lat="45.94922" lon="6.55746">
        <ele>2233.5</ele>
        <time>2026-02-02T09:09:58Z</time>
      </trkpt>
      <trkpt lat="45.94922" lon="6.55746">
        <ele>2233.5</ele>
        <time>2026-02-02T09:09:59Z</time>
      </trkpt>
      <trkpt lat="45.94922" lon="6.55746">
        <ele>2233.5</ele>
        <time>2026-02-02T09:10:00Z</time>
      </trkpt>
      <trkpt lat="45.94922" lon="6.55746">
        <ele>2233.5</ele>
        <time>2026-02-02T09:10:01Z</time>
      </trkpt>
      <trkpt lat="45.94922" lon="6.55746">
        <ele>2233.5</ele>
        <time>2026-02-02T09:10:02Z</time>
      </trkpt>
      <trkpt lat="45.94922" lon="6.55746">
        <ele>2233.5</ele>
        <time>2026-02-02T09:10:03Z</time>
      </trkpt>
      <trkpt lat="45.94922" lon="6.55746">
        <ele>2233.5</ele>
        <time>2026-02-02T09:10:04Z</time>
      </trkpt>
      <trkpt lat="45.94922" lon="6.55746">
        <ele>2233.5</ele>
        <time>2026-02-02T09:10:05Z</time>
      </trkpt>
      <trkpt lat="45.94922" lon="6.55746">
        <ele>2233.5</ele>
        <time>2026-02-02T09:10:06Z</time>
      </trkpt>
      <trkpt lat="45.94922" lon="6.55746">
        <ele>2233.5</ele>
        <time>2026-02-02T09:10:07Z</time>
      </trkpt>
      <trkpt lat="45.94922" lon="6.55746">
        <ele>2233.5</ele>
        <time>2026-02-02T09:10:08Z</time>
      </trkpt>
      <trkpt lat="45.94922" lon="6.55746">
        <ele>2233.5</ele>
        <time>2026-02-02T09:10:09Z</time>
      </trkpt>
      <trkpt lat="45.94922" lon="6.55744">
        <ele>2233.5</ele>
        <time>2026-02-02T09:10:10Z</time>
      </trkpt>
      <trkpt lat="45.94922" lon="6.55743">
        <ele>2233.5</ele>
        <time>2026-02-02T09:10:11Z</time>
      </trkpt>
      <trkpt lat="45.94922" lon="6.55742">
        <ele>2235.4</ele>
        <time>2026-02-02T09:10:12Z</time>
      </trkpt>
      <trkpt lat="45.94922" lon="6.55741">
        <ele>2235.4</ele>
        <time>2026-02-02T09:10:13Z</time>
      </trkpt>
      <trkpt lat="45.94923" lon="6.55739">
        <ele>2235.4</ele>
        <time>2026-02-02T09:10:14Z</time>
      </trkpt>
      <trkpt lat="45.94923" lon="6.55738">
        <ele>2235.4</ele>
        <time>2026-02-02T09:10:15Z</time>
      </trkpt>
      <trkpt lat="45.94923" lon="6.55737">
        <ele>2237.3</ele>
        <time>2026-02-02T09:10:16Z</time>
      </trkpt>
      <trkpt lat="45.94923" lon="6.55737">
        <ele>2237.3</ele>
        <time>2026-02-02T09:10:17Z</time>
      </trkpt>
      <trkpt lat="45.94923" lon="6.55735">
        <ele>2237.3</ele>
        <time>2026-02-02T09:10:18Z</time>
      </trkpt>
      <trkpt lat="45.94923" lon="6.55736">
        <ele>2237.3</ele>
        <time>2026-02-02T09:10:19Z</time>
      </trkpt>
      <trkpt lat="45.94923" lon="6.55735">
        <ele>2237.3</ele>
        <time>2026-02-02T09:10:20Z</time>
      </trkpt>
      <trkpt lat="45.94923" lon="6.55735">
        <ele>2237.3</ele>
        <time>2026-02-02T09:10:21Z</time>
      </trkpt>
      <trkpt lat="45.94923" lon="6.55736">
        <ele>2237.3</ele>
        <time>2026-02-02T09:10:22Z</time>
      </trkpt>
      <trkpt lat="45.94924" lon="6.55737">
        <ele>2237.3</ele>
        <time>2026-02-02T09:10:23Z</time>
      </trkpt>
      <trkpt lat="45.94924" lon="6.55739">
        <ele>2235.4</ele>
        <time>2026-02-02T09:10:24Z</time>
      </trkpt>
      <trkpt lat="45.94925" lon="6.5574">
        <ele>2236.9</ele>
        <time>2026-02-02T09:10:25Z</time>
      </trkpt>
      <trkpt lat="45.94926" lon="6.55741">
        <ele>2236.9</ele>
        <time>2026-02-02T09:10:26Z</time>
      </trkpt>
      <trkpt lat="45.94927" lon="6.55741">
        <ele>2236.9</ele>
        <time>2026-02-02T09:10:27Z</time>
      </trkpt>
      <trkpt lat="45.94927" lon="6.55743">
        <ele>2236.5</ele>
        <time>2026-02-02T09:10:28Z</time>
      </trkpt>
      <trkpt lat="45.94928" lon="6.55744">
        <ele>2236.5</ele>
        <time>2026-02-02T09:10:29Z</time>
      </trkpt>
      <trkpt lat="45.94928" lon="6.55745">
        <ele>2236.5</ele>
        <time>2026-02-02T09:10:30Z</time>
      </trkpt>
      <trkpt lat="45.94929" lon="6.55747">
        <ele>2234.5</ele>
        <time>2026-02-02T09:10:31Z</time>
      </trkpt>
      <trkpt lat="45.9493" lon="6.55748">
        <ele>2236</ele>
        <time>2026-02-02T09:10:32Z</time>
      </trkpt>
      <trkpt lat="45.94931" lon="6.55749">
        <ele>2236</ele>
        <time>2026-02-02T09:10:33Z</time>
      </trkpt>
      <trkpt lat="45.94932" lon="6.5575">
        <ele>2236</ele>
        <time>2026-02-02T09:10:35Z</time>
      </trkpt>
      <trkpt lat="45.94934" lon="6.55751">
        <ele>2235.5</ele>
        <time>2026-02-02T09:10:36Z</time>
      </trkpt>
      <trkpt lat="45.94934" lon="6.55751">
        <ele>2235.5</ele>
        <time>2026-02-02T09:10:37Z</time>
      </trkpt>
      <trkpt lat="45.94934" lon="6.55751">
        <ele>2235.5</ele>
        <time>2026-02-02T09:10:38Z</time>
      </trkpt>
      <trkpt lat="45.94935" lon="6.55751">
        <ele>2235.5</ele>
        <time>2026-02-02T09:10:39Z</time>
      </trkpt>
      <trkpt lat="45.94935" lon="6.55751">
        <ele>2235.5</ele>
        <time>2026-02-02T09:10:40Z</time>
      </trkpt>
      <trkpt lat="45.94935" lon="6.55751">
        <ele>2235.5</ele>
        <time>2026-02-02T09:10:41Z</time>
      </trkpt>
      <trkpt lat="45.94934" lon="6.55751">
        <ele>2237.4</ele>
        <time>2026-02-02T09:10:42Z</time>
      </trkpt>
      <trkpt lat="45.94935" lon="6.55751">
        <ele>2237.4</ele>
        <time>2026-02-02T09:10:43Z</time>
      </trkpt>
      <trkpt lat="45.94935" lon="6.55751">
        <ele>2235.5</ele>
        <time>2026-02-02T09:10:44Z</time>
      </trkpt>
      <trkpt lat="45.94936" lon="6.55751">
        <ele>2236.9</ele>
        <time>2026-02-02T09:10:45Z</time>
      </trkpt>
      <trkpt lat="45.94937" lon="6.55751">
        <ele>2238.9</ele>
        <time>2026-02-02T09:10:46Z</time>
      </trkpt>
      <trkpt lat="45.94937" lon="6.5575">
        <ele>2238.9</ele>
        <time>2026-02-02T09:10:47Z</time>
      </trkpt>
      <trkpt lat="45.94937" lon="6.55748">
        <ele>2238.9</ele>
        <time>2026-02-02T09:10:48Z</time>
      </trkpt>
      <trkpt lat="45.94936" lon="6.55747">
        <ele>2238.9</ele>
        <time>2026-02-02T09:10:49Z</time>
      </trkpt>
      <trkpt lat="45.94936" lon="6.55746">
        <ele>2239.4</ele>
        <time>2026-02-02T09:10:50Z</time>
      </trkpt>
      <trkpt lat="45.94935" lon="6.55745">
        <ele>2239.4</ele>
        <time>2026-02-02T09:10:51Z</time>
      </trkpt>
      <trkpt lat="45.94935" lon="6.55744">
        <ele>2239.4</ele>
        <time>2026-02-02T09:10:52Z</time>
      </trkpt>
      <trkpt lat="45.94935" lon="6.55744">
        <ele>2239.4</ele>
        <time>2026-02-02T09:10:53Z</time>
      </trkpt>
      <trkpt lat="45.94935" lon="6.55743">
        <ele>2239.4</ele>
        <time>2026-02-02T09:10:54Z</time>
      </trkpt>
      <trkpt lat="45.94935" lon="6.55742">
        <ele>2241.3</ele>
        <time>2026-02-02T09:10:55Z</time>
      </trkpt>
      <trkpt lat="45.94935" lon="6.5574">
        <ele>2241.3</ele>
        <time>2026-02-02T09:10:56Z</time>
      </trkpt>
      <trkpt lat="45.94935" lon="6.55739">
        <ele>2241.3</ele>
        <time>2026-02-02T09:10:57Z</time>
      </trkpt>
      <trkpt lat="45.94935" lon="6.55737">
        <ele>2243.2</ele>
        <time>2026-02-02T09:10:58Z</time>
      </trkpt>
      <trkpt lat="45.94936" lon="6.55735">
        <ele>2243.2</ele>
        <time>2026-02-02T09:11:00Z</time>
      </trkpt>
      <trkpt lat="45.94935" lon="6.55735">
        <ele>2243.2</ele>
        <time>2026-02-02T09:11:01Z</time>
      </trkpt>
      <trkpt lat="45.94935" lon="6.55733">
        <ele>2245</ele>
        <time>2026-02-02T09:11:02Z</time>
      </trkpt>
      <trkpt lat="45.94935" lon="6.55733">
        <ele>2245</ele>
        <time>2026-02-02T09:11:03Z</time>
      </trkpt>
      <trkpt lat="45.94935" lon="6.55734">
        <ele>2243.2</ele>
        <time>2026-02-02T09:11:04Z</time>
      </trkpt>
      <trkpt lat="45.94936" lon="6.55734">
        <ele>2243.2</ele>
        <time>2026-02-02T09:11:05Z</time>
      </trkpt>
      <trkpt lat="45.94935" lon="6.55734">
        <ele>2243.2</ele>
        <time>2026-02-02T09:11:07Z</time>
      </trkpt>
      <trkpt lat="45.94935" lon="6.55734">
        <ele>2243.2</ele>
        <time>2026-02-02T09:11:08Z</time>
      </trkpt>
      <trkpt lat="45.94935" lon="6.55734">
        <ele>2243.2</ele>
        <time>2026-02-02T09:11:09Z</time>
      </trkpt>
      <trkpt lat="45.94935" lon="6.55735">
        <ele>2243.2</ele>
        <time>2026-02-02T09:11:10Z</time>
      </trkpt>
      <trkpt lat="45.94936" lon="6.55733">
        <ele>2245</ele>
        <time>2026-02-02T09:11:11Z</time>
      </trkpt>
      <trkpt lat="45.94935" lon="6.55731">
        <ele>2245</ele>
        <time>2026-02-02T09:11:12Z</time>
      </trkpt>
      <trkpt lat="45.94935" lon="6.5573">
        <ele>2245</ele>
        <time>2026-02-02T09:11:13Z</time>
      </trkpt>
      <trkpt lat="45.94935" lon="6.55729">
        <ele>2245</ele>
        <time>2026-02-02T09:11:14Z</time>
      </trkpt>
      <trkpt lat="45.94935" lon="6.55728">
        <ele>2246.7</ele>
        <time>2026-02-02T09:11:15Z</time>
      </trkpt>
      <trkpt lat="45.94935" lon="6.55727">
        <ele>2246.7</ele>
        <time>2026-02-02T09:11:16Z</time>
      </trkpt>
      <trkpt lat="45.94935" lon="6.55727">
        <ele>2246.7</ele>
        <time>2026-02-02T09:11:17Z</time>
      </trkpt>
      <trkpt lat="45.94935" lon="6.55726">
        <ele>2246.7</ele>
        <time>2026-02-02T09:11:18Z</time>
      </trkpt>
      <trkpt lat="45.94934" lon="6.55725">
        <ele>2246.7</ele>
        <time>2026-02-02T09:11:19Z</time>
      </trkpt>
      <trkpt lat="45.94933" lon="6.55724">
        <ele>2248.4</ele>
        <time>2026-02-02T09:11:20Z</time>
      </trkpt>
      <trkpt lat="45.94933" lon="6.55723">
        <ele>2246.9</ele>
        <time>2026-02-02T09:11:21Z</time>
      </trkpt>
      <trkpt lat="45.94932" lon="6.55722">
        <ele>2246.9</ele>
        <time>2026-02-02T09:11:22Z</time>
      </trkpt>
      <trkpt lat="45.94932" lon="6.55721">
        <ele>2248.5</ele>
        <time>2026-02-02T09:11:23Z</time>
      </trkpt>
      <trkpt lat="45.94932" lon="6.55719">
        <ele>2248.5</ele>
        <time>2026-02-02T09:11:24Z</time>
      </trkpt>
      <trkpt lat="45.94932" lon="6.55719">
        <ele>2248.5</ele>
        <time>2026-02-02T09:11:25Z</time>
      </trkpt>
      <trkpt lat="45.94931" lon="6.55717">
        <ele>2248.5</ele>
        <time>2026-02-02T09:11:26Z</time>
      </trkpt>
      <trkpt lat="45.94931" lon="6.55718">
        <ele>2248.5</ele>
        <time>2026-02-02T09:11:27Z</time>
      </trkpt>
      <trkpt lat="45.94931" lon="6.55718">
        <ele>2248.5</ele>
        <time>2026-02-02T09:11:28Z</time>
      </trkpt>
      <trkpt lat="45.94931" lon="6.55718">
        <ele>2248.5</ele>
        <time>2026-02-02T09:11:29Z</time>
      </trkpt>
      <trkpt lat="45.94931" lon="6.55718">
        <ele>2248.5</ele>
        <time>2026-02-02T09:11:30Z</time>
      </trkpt>
      <trkpt lat="45.94931" lon="6.55718">
        <ele>2248.5</ele>
        <time>2026-02-02T09:11:31Z</time>
      </trkpt>
      <trkpt lat="45.94931" lon="6.55718">
        <ele>2248.5</ele>
        <time>2026-02-02T09:11:32Z</time>
      </trkpt>
      <trkpt lat="45.94931" lon="6.55718">
        <ele>2248.5</ele>
        <time>2026-02-02T09:11:33Z</time>
      </trkpt>
      <trkpt lat="45.94931" lon="6.55718">
        <ele>2248.5</ele>
        <time>2026-02-02T09:11:34Z</time>
      </trkpt>
      <trkpt lat="45.9493" lon="6.55718">
        <ele>2248.5</ele>
        <time>2026-02-02T09:11:35Z</time>
      </trkpt>
      <trkpt lat="45.9493" lon="6.55717">
        <ele>2248.5</ele>
        <time>2026-02-02T09:11:36Z</time>
      </trkpt>
      <trkpt lat="45.9493" lon="6.55716">
        <ele>2250</ele>
        <time>2026-02-02T09:11:37Z</time>
      </trkpt>
      <trkpt lat="45.9493" lon="6.55714">
        <ele>2250</ele>
        <time>2026-02-02T09:11:38Z</time>
      </trkpt>
      <trkpt lat="45.94929" lon="6.55713">
        <ele>2248.5</ele>
        <time>2026-02-02T09:11:39Z</time>
      </trkpt>
      <trkpt lat="45.94929" lon="6.55712">
        <ele>2250</ele>
        <time>2026-02-02T09:11:40Z</time>
      </trkpt>
      <trkpt lat="45.94929" lon="6.55711">
        <ele>2250</ele>
        <time>2026-02-02T09:11:41Z</time>
      </trkpt>
      <trkpt lat="45.94928" lon="6.55711">
        <ele>2250</ele>
        <time>2026-02-02T09:11:42Z</time>
      </trkpt>
      <trkpt lat="45.94927" lon="6.55709">
        <ele>2250</ele>
        <time>2026-02-02T09:11:43Z</time>
      </trkpt>
      <trkpt lat="45.94927" lon="6.55709">
        <ele>2250</ele>
        <time>2026-02-02T09:11:44Z</time>
      </trkpt>
      <trkpt lat="45.94927" lon="6.55708">
        <ele>2251.5</ele>
        <time>2026-02-02T09:11:45Z</time>
      </trkpt>
      <trkpt lat="45.94927" lon="6.55706">
        <ele>2250</ele>
        <time>2026-02-02T09:11:46Z</time>
      </trkpt>
      <trkpt lat="45.94927" lon="6.55705">
        <ele>2250</ele>
        <time>2026-02-02T09:11:47Z</time>
      </trkpt>
      <trkpt lat="45.94927" lon="6.55704">
        <ele>2250</ele>
        <time>2026-02-02T09:11:48Z</time>
      </trkpt>
      <trkpt lat="45.94927" lon="6.55703">
        <ele>2251.5</ele>
        <time>2026-02-02T09:11:49Z</time>
      </trkpt>
      <trkpt lat="45.94927" lon="6.55703">
        <ele>2251.5</ele>
        <time>2026-02-02T09:11:50Z</time>
      </trkpt>
      <trkpt lat="45.94927" lon="6.55703">
        <ele>2251.5</ele>
        <time>2026-02-02T09:11:51Z</time>
      </trkpt>
      <trkpt lat="45.94927" lon="6.55703">
        <ele>2251.5</ele>
        <time>2026-02-02T09:11:52Z</time>
      </trkpt>
      <trkpt lat="45.94927" lon="6.55703">
        <ele>2251.5</ele>
        <time>2026-02-02T09:11:53Z</time>
      </trkpt>
      <trkpt lat="45.94927" lon="6.55703">
        <ele>2251.5</ele>
        <time>2026-02-02T09:11:54Z</time>
      </trkpt>
      <trkpt lat="45.94927" lon="6.55703">
        <ele>2251.5</ele>
        <time>2026-02-02T09:11:55Z</time>
      </trkpt>
      <trkpt lat="45.94927" lon="6.55703">
        <ele>2251.5</ele>
        <time>2026-02-02T09:11:56Z</time>
      </trkpt>
      <trkpt lat="45.94927" lon="6.55703">
        <ele>2251.5</ele>
        <time>2026-02-02T09:11:57Z</time>
      </trkpt>
      <trkpt lat="45.94927" lon="6.55703">
        <ele>2251.5</ele>
        <time>2026-02-02T09:11:58Z</time>
      </trkpt>
      <trkpt lat="45.94927" lon="6.55703">
        <ele>2251.5</ele>
        <time>2026-02-02T09:11:59Z</time>
      </trkpt>
      <trkpt lat="45.94927" lon="6.55703">
        <ele>2251.5</ele>
        <time>2026-02-02T09:12:00Z</time>
      </trkpt>
      <trkpt lat="45.94927" lon="6.55703">
        <ele>2251.5</ele>
        <time>2026-02-02T09:12:01Z</time>
      </trkpt>
      <trkpt lat="45.94927" lon="6.55703">
        <ele>2251.5</ele>
        <time>2026-02-02T09:12:02Z</time>
      </trkpt>
      <trkpt lat="45.94927" lon="6.55703">
        <ele>2251.5</ele>
        <time>2026-02-02T09:12:03Z</time>
      </trkpt>
      <trkpt lat="45.94927" lon="6.55703">
        <ele>2251.5</ele>
        <time>2026-02-02T09:12:04Z</time>
      </trkpt>
      <trkpt lat="45.94927" lon="6.55703">
        <ele>2251.5</ele>
        <time>2026-02-02T09:12:05Z</time>
      </trkpt>
      <trkpt lat="45.94927" lon="6.55703">
        <ele>2251.5</ele>
        <time>2026-02-02T09:12:06Z</time>
      </trkpt>
      <trkpt lat="45.94926" lon="6.55702">
        <ele>2251.5</ele>
        <time>2026-02-02T09:12:07Z</time>
      </trkpt>
      <trkpt lat="45.94926" lon="6.55701">
        <ele>2251.5</ele>
        <time>2026-02-02T09:12:08Z</time>
      </trkpt>
      <trkpt lat="45.94926" lon="6.55701">
        <ele>2251.5</ele>
        <time>2026-02-02T09:12:09Z</time>
      </trkpt>
      <trkpt lat="45.94925" lon="6.557">
        <ele>2251.5</ele>
        <time>2026-02-02T09:12:10Z</time>
      </trkpt>
      <trkpt lat="45.94924" lon="6.55699">
        <ele>2251.5</ele>
        <time>2026-02-02T09:12:11Z</time>
      </trkpt>
      <trkpt lat="45.94923" lon="6.55699">
        <ele>2251.5</ele>
        <time>2026-02-02T09:12:12Z</time>
      </trkpt>
      <trkpt lat="45.94922" lon="6.557">
        <ele>2249.9</ele>
        <time>2026-02-02T09:12:13Z</time>
      </trkpt>
      <trkpt lat="45.94922" lon="6.55698">
        <ele>2251.5</ele>
        <time>2026-02-02T09:12:14Z</time>
      </trkpt>
      <trkpt lat="45.94922" lon="6.55697">
        <ele>2251.5</ele>
        <time>2026-02-02T09:12:15Z</time>
      </trkpt>
      <trkpt lat="45.94922" lon="6.55695">
        <ele>2251.5</ele>
        <time>2026-02-02T09:12:16Z</time>
      </trkpt>
      <trkpt lat="45.94923" lon="6.55694">
        <ele>2252.9</ele>
        <time>2026-02-02T09:12:17Z</time>
      </trkpt>
      <trkpt lat="45.94923" lon="6.55693">
        <ele>2252.9</ele>
        <time>2026-02-02T09:12:18Z</time>
      </trkpt>
      <trkpt lat="45.94923" lon="6.55692">
        <ele>2252.9</ele>
        <time>2026-02-02T09:12:19Z</time>
      </trkpt>
      <trkpt lat="45.94923" lon="6.5569">
        <ele>2254.3</ele>
        <time>2026-02-02T09:12:20Z</time>
      </trkpt>
      <trkpt lat="45.94923" lon="6.5569">
        <ele>2254.3</ele>
        <time>2026-02-02T09:12:21Z</time>
      </trkpt>
      <trkpt lat="45.94922" lon="6.55689">
        <ele>2254.3</ele>
        <time>2026-02-02T09:12:22Z</time>
      </trkpt>
      <trkpt lat="45.94922" lon="6.55688">
        <ele>2254.3</ele>
        <time>2026-02-02T09:12:23Z</time>
      </trkpt>
      <trkpt lat="45.94922" lon="6.55688">
        <ele>2254.3</ele>
        <time>2026-02-02T09:12:24Z</time>
      </trkpt>
      <trkpt lat="45.94922" lon="6.55688">
        <ele>2254.3</ele>
        <time>2026-02-02T09:12:25Z</time>
      </trkpt>
      <trkpt lat="45.94922" lon="6.55688">
        <ele>2254.3</ele>
        <time>2026-02-02T09:12:26Z</time>
      </trkpt>
      <trkpt lat="45.94922" lon="6.55688">
        <ele>2254.3</ele>
        <time>2026-02-02T09:12:27Z</time>
      </trkpt>
      <trkpt lat="45.94922" lon="6.55688">
        <ele>2254.3</ele>
        <time>2026-02-02T09:12:28Z</time>
      </trkpt>
      <trkpt lat="45.94922" lon="6.55688">
        <ele>2254.3</ele>
        <time>2026-02-02T09:12:29Z</time>
      </trkpt>
      <trkpt lat="45.94922" lon="6.55688">
        <ele>2254.3</ele>
        <time>2026-02-02T09:12:30Z</time>
      </trkpt>
      <trkpt lat="45.94922" lon="6.55688">
        <ele>2254.3</ele>
        <time>2026-02-02T09:12:31Z</time>
      </trkpt>
      <trkpt lat="45.94922" lon="6.55688">
        <ele>2254.3</ele>
        <time>2026-02-02T09:12:32Z</time>
      </trkpt>
      <trkpt lat="45.94922" lon="6.55688">
        <ele>2254.3</ele>
        <time>2026-02-02T09:12:33Z</time>
      </trkpt>
      <trkpt lat="45.94922" lon="6.55688">
        <ele>2254.3</ele>
        <time>2026-02-02T09:12:34Z</time>
      </trkpt>
      <trkpt lat="45.94922" lon="6.55688">
        <ele>2254.3</ele>
        <time>2026-02-02T09:12:35Z</time>
      </trkpt>
      <trkpt lat="45.94922" lon="6.55688">
        <ele>2254.3</ele>
        <time>2026-02-02T09:12:36Z</time>
      </trkpt>
      <trkpt lat="45.94922" lon="6.55687">
        <ele>2254.3</ele>
        <time>2026-02-02T09:12:37Z</time>
      </trkpt>
      <trkpt lat="45.94921" lon="6.55686">
        <ele>2255.5</ele>
        <time>2026-02-02T09:12:38Z</time>
      </trkpt>
      <trkpt lat="45.94921" lon="6.55685">
        <ele>2253.9</ele>
        <time>2026-02-02T09:12:39Z</time>
      </trkpt>
      <trkpt lat="45.94921" lon="6.55684">
        <ele>2255.5</ele>
        <time>2026-02-02T09:12:40Z</time>
      </trkpt>
      <trkpt lat="45.94921" lon="6.55682">
        <ele>2255.5</ele>
        <time>2026-02-02T09:12:41Z</time>
      </trkpt>
      <trkpt lat="45.94921" lon="6.55681">
        <ele>2255</ele>
        <time>2026-02-02T09:12:42Z</time>
      </trkpt>
      <trkpt lat="45.94921" lon="6.55681">
        <ele>2256.6</ele>
        <time>2026-02-02T09:12:43Z</time>
      </trkpt>
      <trkpt lat="45.94921" lon="6.5568">
        <ele>2255</ele>
        <time>2026-02-02T09:12:44Z</time>
      </trkpt>
      <trkpt lat="45.94921" lon="6.55679">
        <ele>2255</ele>
        <time>2026-02-02T09:12:45Z</time>
      </trkpt>
      <trkpt lat="45.9492" lon="6.55678">
        <ele>2256</ele>
        <time>2026-02-02T09:12:46Z</time>
      </trkpt>
      <trkpt lat="45.9492" lon="6.55677">
        <ele>2256</ele>
        <time>2026-02-02T09:12:47Z</time>
      </trkpt>
      <trkpt lat="45.9492" lon="6.55676">
        <ele>2256</ele>
        <time>2026-02-02T09:12:48Z</time>
      </trkpt>
      <trkpt lat="45.9492" lon="6.55675">
        <ele>2256</ele>
        <time>2026-02-02T09:12:49Z</time>
      </trkpt>
      <trkpt lat="45.94919" lon="6.55675">
        <ele>2256</ele>
        <time>2026-02-02T09:12:50Z</time>
      </trkpt>
      <trkpt lat="45.94919" lon="6.55675">
        <ele>2256</ele>
        <time>2026-02-02T09:12:51Z</time>
      </trkpt>
      <trkpt lat="45.94919" lon="6.55675">
        <ele>2256</ele>
        <time>2026-02-02T09:12:52Z</time>
      </trkpt>
      <trkpt lat="45.94919" lon="6.55675">
        <ele>2256</ele>
        <time>2026-02-02T09:12:53Z</time>
      </trkpt>
      <trkpt lat="45.94919" lon="6.55675">
        <ele>2256</ele>
        <time>2026-02-02T09:12:54Z</time>
      </trkpt>
      <trkpt lat="45.94919" lon="6.55675">
        <ele>2256</ele>
        <time>2026-02-02T09:12:55Z</time>
      </trkpt>
      <trkpt lat="45.94919" lon="6.55675">
        <ele>2256</ele>
        <time>2026-02-02T09:12:56Z</time>
      </trkpt>
      <trkpt lat="45.94919" lon="6.55675">
        <ele>2256</ele>
        <time>2026-02-02T09:12:57Z</time>
      </trkpt>
      <trkpt lat="45.94919" lon="6.55675">
        <ele>2256</ele>
        <time>2026-02-02T09:12:58Z</time>
      </trkpt>
      <trkpt lat="45.94919" lon="6.55675">
        <ele>2256</ele>
        <time>2026-02-02T09:12:59Z</time>
      </trkpt>
      <trkpt lat="45.94919" lon="6.55673">
        <ele>2256.9</ele>
        <time>2026-02-02T09:13:00Z</time>
      </trkpt>
      <trkpt lat="45.94918" lon="6.55671">
        <ele>2256.9</ele>
        <time>2026-02-02T09:13:01Z</time>
      </trkpt>
      <trkpt lat="45.94918" lon="6.5567">
        <ele>2256.9</ele>
        <time>2026-02-02T09:13:02Z</time>
      </trkpt>
      <trkpt lat="45.94918" lon="6.5567">
        <ele>2255.2</ele>
        <time>2026-02-02T09:13:03Z</time>
      </trkpt>
      <trkpt lat="45.94917" lon="6.55668">
        <ele>2256.1</ele>
        <time>2026-02-02T09:13:04Z</time>
      </trkpt>
      <trkpt lat="45.94917" lon="6.55667">
        <ele>2256.1</ele>
        <time>2026-02-02T09:13:05Z</time>
      </trkpt>
      <trkpt lat="45.94918" lon="6.55666">
        <ele>2256.1</ele>
        <time>2026-02-02T09:13:06Z</time>
      </trkpt>
      <trkpt lat="45.94918" lon="6.55665">
        <ele>2256.9</ele>
        <time>2026-02-02T09:13:07Z</time>
      </trkpt>
      <trkpt lat="45.94918" lon="6.55663">
        <ele>2256.9</ele>
        <time>2026-02-02T09:13:08Z</time>
      </trkpt>
      <trkpt lat="45.94918" lon="6.55662">
        <ele>2256.9</ele>
        <time>2026-02-02T09:13:09Z</time>
      </trkpt>
      <trkpt lat="45.94918" lon="6.55661">
        <ele>2256.9</ele>
        <time>2026-02-02T09:13:10Z</time>
      </trkpt>
      <trkpt lat="45.94918" lon="6.55659">
        <ele>2257.8</ele>
        <time>2026-02-02T09:13:11Z</time>
      </trkpt>
      <trkpt lat="45.94919" lon="6.55657">
        <ele>2259.4</ele>
        <time>2026-02-02T09:13:12Z</time>
      </trkpt>
      <trkpt lat="45.94918" lon="6.55656">
        <ele>2260.3</ele>
        <time>2026-02-02T09:13:13Z</time>
      </trkpt>
      <trkpt lat="45.94918" lon="6.55655">
        <ele>2258.6</ele>
        <time>2026-02-02T09:13:14Z</time>
      </trkpt>
      <trkpt lat="45.94918" lon="6.55654">
        <ele>2258.6</ele>
        <time>2026-02-02T09:13:15Z</time>
      </trkpt>
      <trkpt lat="45.94918" lon="6.55653">
        <ele>2258.6</ele>
        <time>2026-02-02T09:13:16Z</time>
      </trkpt>
      <trkpt lat="45.94918" lon="6.55651">
        <ele>2259.5</ele>
        <time>2026-02-02T09:13:17Z</time>
      </trkpt>
      <trkpt lat="45.94917" lon="6.55651">
        <ele>2259.5</ele>
        <time>2026-02-02T09:13:18Z</time>
      </trkpt>
      <trkpt lat="45.94917" lon="6.55651">
        <ele>2259.5</ele>
        <time>2026-02-02T09:13:19Z</time>
      </trkpt>
      <trkpt lat="45.94918" lon="6.5565">
        <ele>2259.5</ele>
        <time>2026-02-02T09:13:20Z</time>
      </trkpt>
      <trkpt lat="45.94918" lon="6.5565">
        <ele>2259.5</ele>
        <time>2026-02-02T09:13:21Z</time>
      </trkpt>
      <trkpt lat="45.94918" lon="6.55649">
        <ele>2259.5</ele>
        <time>2026-02-02T09:13:22Z</time>
      </trkpt>
      <trkpt lat="45.94918" lon="6.55648">
        <ele>2261.2</ele>
        <time>2026-02-02T09:13:23Z</time>
      </trkpt>
      <trkpt lat="45.94918" lon="6.55648">
        <ele>2259.5</ele>
        <time>2026-02-02T09:13:24Z</time>
      </trkpt>
      <trkpt lat="45.94918" lon="6.55647">
        <ele>2262.2</ele>
        <time>2026-02-02T09:13:25Z</time>
      </trkpt>
      <trkpt lat="45.94919" lon="6.55647">
        <ele>2262.2</ele>
        <time>2026-02-02T09:13:26Z</time>
      </trkpt>
      <trkpt lat="45.94919" lon="6.55647">
        <ele>2262.2</ele>
        <time>2026-02-02T09:13:27Z</time>
      </trkpt>
      <trkpt lat="45.94919" lon="6.55647">
        <ele>2262.2</ele>
        <time>2026-02-02T09:13:28Z</time>
      </trkpt>
      <trkpt lat="45.94919" lon="6.55647">
        <ele>2262.2</ele>
        <time>2026-02-02T09:13:29Z</time>
      </trkpt>
      <trkpt lat="45.94919" lon="6.55647">
        <ele>2262.2</ele>
        <time>2026-02-02T09:13:30Z</time>
      </trkpt>
      <trkpt lat="45.94919" lon="6.55647">
        <ele>2262.2</ele>
        <time>2026-02-02T09:13:31Z</time>
      </trkpt>
      <trkpt lat="45.94919" lon="6.55647">
        <ele>2262.2</ele>
        <time>2026-02-02T09:13:32Z</time>
      </trkpt>
      <trkpt lat="45.94918" lon="6.55646">
        <ele>2262.2</ele>
        <time>2026-02-02T09:13:33Z</time>
      </trkpt>
      <trkpt lat="45.94918" lon="6.55646">
        <ele>2262.2</ele>
        <time>2026-02-02T09:13:34Z</time>
      </trkpt>
      <trkpt lat="45.94918" lon="6.55646">
        <ele>2262.2</ele>
        <time>2026-02-02T09:13:35Z</time>
      </trkpt>
      <trkpt lat="45.94918" lon="6.55646">
        <ele>2262.2</ele>
        <time>2026-02-02T09:13:36Z</time>
      </trkpt>
      <trkpt lat="45.94918" lon="6.55646">
        <ele>2262.2</ele>
        <time>2026-02-02T09:13:37Z</time>
      </trkpt>
      <trkpt lat="45.94918" lon="6.55646">
        <ele>2262.2</ele>
        <time>2026-02-02T09:13:38Z</time>
      </trkpt>
      <trkpt lat="45.94918" lon="6.55646">
        <ele>2262.2</ele>
        <time>2026-02-02T09:13:39Z</time>
      </trkpt>
      <trkpt lat="45.94918" lon="6.55646">
        <ele>2262.2</ele>
        <time>2026-02-02T09:13:40Z</time>
      </trkpt>
      <trkpt lat="45.94918" lon="6.55646">
        <ele>2262.2</ele>
        <time>2026-02-02T09:13:41Z</time>
      </trkpt>
      <trkpt lat="45.94918" lon="6.55646">
        <ele>2262.2</ele>
        <time>2026-02-02T09:13:42Z</time>
      </trkpt>
      <trkpt lat="45.94918" lon="6.55646">
        <ele>2260.4</ele>
        <time>2026-02-02T09:13:43Z</time>
      </trkpt>
      <trkpt lat="45.94918" lon="6.55646">
        <ele>2260.4</ele>
        <time>2026-02-02T09:13:44Z</time>
      </trkpt>
      <trkpt lat="45.94917" lon="6.55646">
        <ele>2260.4</ele>
        <time>2026-02-02T09:13:45Z</time>
      </trkpt>
      <trkpt lat="45.94917" lon="6.55646">
        <ele>2260.4</ele>
        <time>2026-02-02T09:13:46Z</time>
      </trkpt>
      <trkpt lat="45.94917" lon="6.55647">
        <ele>2260.4</ele>
        <time>2026-02-02T09:13:47Z</time>
      </trkpt>
      <trkpt lat="45.94917" lon="6.55645">
        <ele>2260.4</ele>
        <time>2026-02-02T09:13:48Z</time>
      </trkpt>
      <trkpt lat="45.94917" lon="6.55643">
        <ele>2261.2</ele>
        <time>2026-02-02T09:13:49Z</time>
      </trkpt>
      <trkpt lat="45.94918" lon="6.55642">
        <ele>2261.2</ele>
        <time>2026-02-02T09:13:50Z</time>
      </trkpt>
      <trkpt lat="45.94917" lon="6.5564">
        <ele>2261.2</ele>
        <time>2026-02-02T09:13:51Z</time>
      </trkpt>
      <trkpt lat="45.94918" lon="6.55639">
        <ele>2262.1</ele>
        <time>2026-02-02T09:13:52Z</time>
      </trkpt>
      <trkpt lat="45.94919" lon="6.55638">
        <ele>2264</ele>
        <time>2026-02-02T09:13:53Z</time>
      </trkpt>
      <trkpt lat="45.94919" lon="6.55637">
        <ele>2264</ele>
        <time>2026-02-02T09:13:54Z</time>
      </trkpt>
      <trkpt lat="45.9492" lon="6.55635">
        <ele>2264</ele>
        <time>2026-02-02T09:13:55Z</time>
      </trkpt>
      <trkpt lat="45.94919" lon="6.55635">
        <ele>2264.9</ele>
        <time>2026-02-02T09:13:56Z</time>
      </trkpt>
      <trkpt lat="45.94919" lon="6.55633">
        <ele>2264.9</ele>
        <time>2026-02-02T09:13:57Z</time>
      </trkpt>
      <trkpt lat="45.94919" lon="6.55632">
        <ele>2264.9</ele>
        <time>2026-02-02T09:13:58Z</time>
      </trkpt>
      <trkpt lat="45.94919" lon="6.5563">
        <ele>2265.7</ele>
        <time>2026-02-02T09:13:59Z</time>
      </trkpt>
      <trkpt lat="45.94919" lon="6.55629">
        <ele>2265.7</ele>
        <time>2026-02-02T09:14:00Z</time>
      </trkpt>
      <trkpt lat="45.94919" lon="6.55628">
        <ele>2265.7</ele>
        <time>2026-02-02T09:14:01Z</time>
      </trkpt>
      <trkpt lat="45.94919" lon="6.55627">
        <ele>2265.7</ele>
        <time>2026-02-02T09:14:02Z</time>
      </trkpt>
      <trkpt lat="45.94919" lon="6.55627">
        <ele>2265.7</ele>
        <time>2026-02-02T09:14:03Z</time>
      </trkpt>
      <trkpt lat="45.94919" lon="6.55627">
        <ele>2265.7</ele>
        <time>2026-02-02T09:14:04Z</time>
      </trkpt>
      <trkpt lat="45.94919" lon="6.55628">
        <ele>2265.7</ele>
        <time>2026-02-02T09:14:05Z</time>
      </trkpt>
      <trkpt lat="45.94919" lon="6.55628">
        <ele>2265.7</ele>
        <time>2026-02-02T09:14:06Z</time>
      </trkpt>
      <trkpt lat="45.9492" lon="6.55628">
        <ele>2265.7</ele>
        <time>2026-02-02T09:14:07Z</time>
      </trkpt>
      <trkpt lat="45.9492" lon="6.55628">
        <ele>2265.7</ele>
        <time>2026-02-02T09:14:08Z</time>
      </trkpt>
      <trkpt lat="45.9492" lon="6.55629">
        <ele>2265.7</ele>
        <time>2026-02-02T09:14:09Z</time>
      </trkpt>
      <trkpt lat="45.94921" lon="6.5563">
        <ele>2267.6</ele>
        <time>2026-02-02T09:14:10Z</time>
      </trkpt>
      <trkpt lat="45.94922" lon="6.55631">
        <ele>2267.6</ele>
        <time>2026-02-02T09:14:11Z</time>
      </trkpt>
      <trkpt lat="45.94922" lon="6.55632">
        <ele>2266.7</ele>
        <time>2026-02-02T09:14:12Z</time>
      </trkpt>
      <trkpt lat="45.94923" lon="6.55633">
        <ele>2266.7</ele>
        <time>2026-02-02T09:14:13Z</time>
      </trkpt>
      <trkpt lat="45.94923" lon="6.55634">
        <ele>2266.7</ele>
        <time>2026-02-02T09:14:14Z</time>
      </trkpt>
      <trkpt lat="45.94923" lon="6.55635">
        <ele>2265.8</ele>
        <time>2026-02-02T09:14:15Z</time>
      </trkpt>
      <trkpt lat="45.94923" lon="6.55635">
        <ele>2265.8</ele>
        <time>2026-02-02T09:14:16Z</time>
      </trkpt>
      <trkpt lat="45.94924" lon="6.55636">
        <ele>2265.8</ele>
        <time>2026-02-02T09:14:17Z</time>
      </trkpt>
      <trkpt lat="45.94924" lon="6.55636">
        <ele>2265.8</ele>
        <time>2026-02-02T09:14:18Z</time>
      </trkpt>
      <trkpt lat="45.94924" lon="6.55637">
        <ele>2267.6</ele>
        <time>2026-02-02T09:14:19Z</time>
      </trkpt>
      <trkpt lat="45.94924" lon="6.55637">
        <ele>2267.6</ele>
        <time>2026-02-02T09:14:20Z</time>
      </trkpt>
      <trkpt lat="45.94924" lon="6.55637">
        <ele>2267.6</ele>
        <time>2026-02-02T09:14:21Z</time>
      </trkpt>
      <trkpt lat="45.94924" lon="6.55637">
        <ele>2267.6</ele>
        <time>2026-02-02T09:14:22Z</time>
      </trkpt>
      <trkpt lat="45.94924" lon="6.55637">
        <ele>2267.6</ele>
        <time>2026-02-02T09:14:23Z</time>
      </trkpt>
      <trkpt lat="45.94924" lon="6.55637">
        <ele>2267.6</ele>
        <time>2026-02-02T09:14:24Z</time>
      </trkpt>
      <trkpt lat="45.94924" lon="6.55637">
        <ele>2267.6</ele>
        <time>2026-02-02T09:14:25Z</time>
      </trkpt>
      <trkpt lat="45.94924" lon="6.55637">
        <ele>2267.6</ele>
        <time>2026-02-02T09:14:26Z</time>
      </trkpt>
      <trkpt lat="45.94924" lon="6.55637">
        <ele>2267.6</ele>
        <time>2026-02-02T09:14:27Z</time>
      </trkpt>
      <trkpt lat="45.94924" lon="6.55637">
        <ele>2267.6</ele>
        <time>2026-02-02T09:14:28Z</time>
      </trkpt>
      <trkpt lat="45.94924" lon="6.55636">
        <ele>2265.8</ele>
        <time>2026-02-02T09:14:29Z</time>
      </trkpt>
      <trkpt lat="45.94924" lon="6.55636">
        <ele>2265.8</ele>
        <time>2026-02-02T09:14:30Z</time>
      </trkpt>
      <trkpt lat="45.94924" lon="6.55636">
        <ele>2265.8</ele>
        <time>2026-02-02T09:14:31Z</time>
      </trkpt>
      <trkpt lat="45.94924" lon="6.55636">
        <ele>2265.8</ele>
        <time>2026-02-02T09:14:32Z</time>
      </trkpt>
      <trkpt lat="45.94924" lon="6.55636">
        <ele>2265.8</ele>
        <time>2026-02-02T09:14:33Z</time>
      </trkpt>
      <trkpt lat="45.94924" lon="6.55636">
        <ele>2265.8</ele>
        <time>2026-02-02T09:14:34Z</time>
      </trkpt>
      <trkpt lat="45.94924" lon="6.55636">
        <ele>2265.8</ele>
        <time>2026-02-02T09:14:35Z</time>
      </trkpt>
      <trkpt lat="45.94924" lon="6.55636">
        <ele>2265.8</ele>
        <time>2026-02-02T09:14:36Z</time>
      </trkpt>
      <trkpt lat="45.94924" lon="6.55636">
        <ele>2265.8</ele>
        <time>2026-02-02T09:14:37Z</time>
      </trkpt>
      <trkpt lat="45.94924" lon="6.55636">
        <ele>2265.8</ele>
        <time>2026-02-02T09:14:38Z</time>
      </trkpt>
      <trkpt lat="45.94924" lon="6.55637">
        <ele>2267.6</ele>
        <time>2026-02-02T09:14:39Z</time>
      </trkpt>
      <trkpt lat="45.94925" lon="6.55638">
        <ele>2267.6</ele>
        <time>2026-02-02T09:14:40Z</time>
      </trkpt>
      <trkpt lat="45.94925" lon="6.55639">
        <ele>2266.6</ele>
        <time>2026-02-02T09:14:41Z</time>
      </trkpt>
      <trkpt lat="45.94925" lon="6.5564">
        <ele>2266.6</ele>
        <time>2026-02-02T09:14:42Z</time>
      </trkpt>
      <trkpt lat="45.94926" lon="6.55641">
        <ele>2266.6</ele>
        <time>2026-02-02T09:14:43Z</time>
      </trkpt>
      <trkpt lat="45.94927" lon="6.55642">
        <ele>2266.6</ele>
        <time>2026-02-02T09:14:44Z</time>
      </trkpt>
      <trkpt lat="45.94928" lon="6.55643">
        <ele>2268.2</ele>
        <time>2026-02-02T09:14:45Z</time>
      </trkpt>
      <trkpt lat="45.94928" lon="6.55644">
        <ele>2267.2</ele>
        <time>2026-02-02T09:14:46Z</time>
      </trkpt>
      <trkpt lat="45.94929" lon="6.55645">
        <ele>2267.2</ele>
        <time>2026-02-02T09:14:47Z</time>
      </trkpt>
      <trkpt lat="45.94929" lon="6.55646">
        <ele>2267.2</ele>
        <time>2026-02-02T09:14:48Z</time>
      </trkpt>
      <trkpt lat="45.9493" lon="6.55647">
        <ele>2268.7</ele>
        <time>2026-02-02T09:14:49Z</time>
      </trkpt>
      <trkpt lat="45.94931" lon="6.55648">
        <ele>2267.6</ele>
        <time>2026-02-02T09:14:50Z</time>
      </trkpt>
      <trkpt lat="45.94932" lon="6.55649">
        <ele>2267.6</ele>
        <time>2026-02-02T09:14:51Z</time>
      </trkpt>
      <trkpt lat="45.94932" lon="6.5565">
        <ele>2267.6</ele>
        <time>2026-02-02T09:14:52Z</time>
      </trkpt>
      <trkpt lat="45.94933" lon="6.55651">
        <ele>2267.6</ele>
        <time>2026-02-02T09:14:53Z</time>
      </trkpt>
      <trkpt lat="45.94933" lon="6.55651">
        <ele>2269.2</ele>
        <time>2026-02-02T09:14:54Z</time>
      </trkpt>
      <trkpt lat="45.94934" lon="6.55652">
        <ele>2268.1</ele>
        <time>2026-02-02T09:14:55Z</time>
      </trkpt>
      <trkpt lat="45.94934" lon="6.55653">
        <ele>2268.1</ele>
        <time>2026-02-02T09:14:56Z</time>
      </trkpt>
      <trkpt lat="45.94935" lon="6.55654">
        <ele>2268.1</ele>
        <time>2026-02-02T09:14:57Z</time>
      </trkpt>
      <trkpt lat="45.94936" lon="6.55655">
        <ele>2268.1</ele>
        <time>2026-02-02T09:14:58Z</time>
      </trkpt>
      <trkpt lat="45.94936" lon="6.55656">
        <ele>2269.7</ele>
        <time>2026-02-02T09:14:59Z</time>
      </trkpt>
      <trkpt lat="45.94937" lon="6.55657">
        <ele>2268.7</ele>
        <time>2026-02-02T09:15:00Z</time>
      </trkpt>
      <trkpt lat="45.94938" lon="6.55657">
        <ele>2268.7</ele>
        <time>2026-02-02T09:15:01Z</time>
      </trkpt>
      <trkpt lat="45.94938" lon="6.55658">
        <ele>2268.7</ele>
        <time>2026-02-02T09:15:02Z</time>
      </trkpt>
      <trkpt lat="45.94939" lon="6.55658">
        <ele>2270.4</ele>
        <time>2026-02-02T09:15:03Z</time>
      </trkpt>
      <trkpt lat="45.9494" lon="6.55659">
        <ele>2270.4</ele>
        <time>2026-02-02T09:15:04Z</time>
      </trkpt>
      <trkpt lat="45.9494" lon="6.55659">
        <ele>2270.4</ele>
        <time>2026-02-02T09:15:05Z</time>
      </trkpt>
      <trkpt lat="45.94941" lon="6.5566">
        <ele>2270.4</ele>
        <time>2026-02-02T09:15:06Z</time>
      </trkpt>
      <trkpt lat="45.94942" lon="6.55661">
        <ele>2272.2</ele>
        <time>2026-02-02T09:15:07Z</time>
      </trkpt>
      <trkpt lat="45.94943" lon="6.55661">
        <ele>2271.1</ele>
        <time>2026-02-02T09:15:08Z</time>
      </trkpt>
      <trkpt lat="45.94944" lon="6.55662">
        <ele>2271.1</ele>
        <time>2026-02-02T09:15:09Z</time>
      </trkpt>
      <trkpt lat="45.94944" lon="6.55662">
        <ele>2271.1</ele>
        <time>2026-02-02T09:15:10Z</time>
      </trkpt>
      <trkpt lat="45.94945" lon="6.55662">
        <ele>2273.1</ele>
        <time>2026-02-02T09:15:11Z</time>
      </trkpt>
      <trkpt lat="45.94946" lon="6.55663">
        <ele>2273.1</ele>
        <time>2026-02-02T09:15:12Z</time>
      </trkpt>
      <trkpt lat="45.94946" lon="6.55664">
        <ele>2273.1</ele>
        <time>2026-02-02T09:15:13Z</time>
      </trkpt>
      <trkpt lat="45.94947" lon="6.55664">
        <ele>2273.1</ele>
        <time>2026-02-02T09:15:14Z</time>
      </trkpt>
      <trkpt lat="45.94948" lon="6.55664">
        <ele>2275</ele>
        <time>2026-02-02T09:15:15Z</time>
      </trkpt>
      <trkpt lat="45.94949" lon="6.55664">
        <ele>2275</ele>
        <time>2026-02-02T09:15:16Z</time>
      </trkpt>
      <trkpt lat="45.94949" lon="6.55664">
        <ele>2275</ele>
        <time>2026-02-02T09:15:17Z</time>
      </trkpt>
      <trkpt lat="45.94949" lon="6.55664">
        <ele>2275</ele>
        <time>2026-02-02T09:15:18Z</time>
      </trkpt>
      <trkpt lat="45.94949" lon="6.55664">
        <ele>2275</ele>
        <time>2026-02-02T09:15:19Z</time>
      </trkpt>
      <trkpt lat="45.94949" lon="6.55664">
        <ele>2275</ele>
        <time>2026-02-02T09:15:20Z</time>
      </trkpt>
      <trkpt lat="45.94949" lon="6.55664">
        <ele>2275</ele>
        <time>2026-02-02T09:15:21Z</time>
      </trkpt>
      <trkpt lat="45.94949" lon="6.55664">
        <ele>2275</ele>
        <time>2026-02-02T09:15:22Z</time>
      </trkpt>
      <trkpt lat="45.94949" lon="6.55664">
        <ele>2275</ele>
        <time>2026-02-02T09:15:23Z</time>
      </trkpt>
      <trkpt lat="45.94949" lon="6.55664">
        <ele>2275</ele>
        <time>2026-02-02T09:15:24Z</time>
      </trkpt>
      <trkpt lat="45.94949" lon="6.55664">
        <ele>2275</ele>
        <time>2026-02-02T09:15:25Z</time>
      </trkpt>
      <trkpt lat="45.94949" lon="6.55664">
        <ele>2275</ele>
        <time>2026-02-02T09:15:26Z</time>
      </trkpt>
      <trkpt lat="45.94949" lon="6.55664">
        <ele>2275</ele>
        <time>2026-02-02T09:15:27Z</time>
      </trkpt>
      <trkpt lat="45.94949" lon="6.55664">
        <ele>2275</ele>
        <time>2026-02-02T09:15:28Z</time>
      </trkpt>
      <trkpt lat="45.94949" lon="6.55664">
        <ele>2275</ele>
        <time>2026-02-02T09:15:29Z</time>
      </trkpt>
      <trkpt lat="45.94949" lon="6.55664">
        <ele>2275</ele>
        <time>2026-02-02T09:15:30Z</time>
      </trkpt>
      <trkpt lat="45.94949" lon="6.55664">
        <ele>2275</ele>
        <time>2026-02-02T09:15:31Z</time>
      </trkpt>
      <trkpt lat="45.9495" lon="6.55664">
        <ele>2275</ele>
        <time>2026-02-02T09:15:32Z</time>
      </trkpt>
      <trkpt lat="45.9495" lon="6.55664">
        <ele>2275</ele>
        <time>2026-02-02T09:15:33Z</time>
      </trkpt>
      <trkpt lat="45.9495" lon="6.55663">
        <ele>2275</ele>
        <time>2026-02-02T09:15:34Z</time>
      </trkpt>
      <trkpt lat="45.9495" lon="6.55663">
        <ele>2275</ele>
        <time>2026-02-02T09:15:35Z</time>
      </trkpt>
      <trkpt lat="45.9495" lon="6.55664">
        <ele>2275</ele>
        <time>2026-02-02T09:15:36Z</time>
      </trkpt>
      <trkpt lat="45.9495" lon="6.55663">
        <ele>2275</ele>
        <time>2026-02-02T09:15:37Z</time>
      </trkpt>
      <trkpt lat="45.94949" lon="6.55662">
        <ele>2275</ele>
        <time>2026-02-02T09:15:38Z</time>
      </trkpt>
      <trkpt lat="45.94949" lon="6.55661">
        <ele>2275</ele>
        <time>2026-02-02T09:15:39Z</time>
      </trkpt>
      <trkpt lat="45.94948" lon="6.55661">
        <ele>2275</ele>
        <time>2026-02-02T09:15:40Z</time>
      </trkpt>
      <trkpt lat="45.94948" lon="6.55661">
        <ele>2275</ele>
        <time>2026-02-02T09:15:41Z</time>
      </trkpt>
      <trkpt lat="45.94947" lon="6.55659">
        <ele>2274.1</ele>
        <time>2026-02-02T09:15:42Z</time>
      </trkpt>
      <trkpt lat="45.94947" lon="6.55658">
        <ele>2274.1</ele>
        <time>2026-02-02T09:15:43Z</time>
      </trkpt>
      <trkpt lat="45.94947" lon="6.55658">
        <ele>2274.1</ele>
        <time>2026-02-02T09:15:44Z</time>
      </trkpt>
      <trkpt lat="45.94947" lon="6.55657">
        <ele>2274.1</ele>
        <time>2026-02-02T09:15:45Z</time>
      </trkpt>
      <trkpt lat="45.94947" lon="6.55657">
        <ele>2274.1</ele>
        <time>2026-02-02T09:15:46Z</time>
      </trkpt>
      <trkpt lat="45.94947" lon="6.55655">
        <ele>2275.3</ele>
        <time>2026-02-02T09:15:47Z</time>
      </trkpt>
      <trkpt lat="45.94946" lon="6.55653">
        <ele>2275.3</ele>
        <time>2026-02-02T09:15:48Z</time>
      </trkpt>
      <trkpt lat="45.94946" lon="6.55653">
        <ele>2275.3</ele>
        <time>2026-02-02T09:15:49Z</time>
      </trkpt>
      <trkpt lat="45.94947" lon="6.55652">
        <ele>2275.3</ele>
        <time>2026-02-02T09:15:50Z</time>
      </trkpt>
      <trkpt lat="45.94946" lon="6.55652">
        <ele>2276.5</ele>
        <time>2026-02-02T09:15:51Z</time>
      </trkpt>
      <trkpt lat="45.94947" lon="6.55651">
        <ele>2276.5</ele>
        <time>2026-02-02T09:15:52Z</time>
      </trkpt>
      <trkpt lat="45.94946" lon="6.55648">
        <ele>2277.8</ele>
        <time>2026-02-02T09:15:53Z</time>
      </trkpt>
      <trkpt lat="45.94946" lon="6.55646">
        <ele>2277.8</ele>
        <time>2026-02-02T09:15:54Z</time>
      </trkpt>
      <trkpt lat="45.94946" lon="6.55645">
        <ele>2277.8</ele>
        <time>2026-02-02T09:15:55Z</time>
      </trkpt>
      <trkpt lat="45.94945" lon="6.55644">
        <ele>2277.8</ele>
        <time>2026-02-02T09:15:56Z</time>
      </trkpt>
      <trkpt lat="45.94945" lon="6.55643">
        <ele>2279.1</ele>
        <time>2026-02-02T09:15:57Z</time>
      </trkpt>
      <trkpt lat="45.94945" lon="6.55643">
        <ele>2279.1</ele>
        <time>2026-02-02T09:15:58Z</time>
      </trkpt>
      <trkpt lat="45.94945" lon="6.55643">
        <ele>2279.1</ele>
        <time>2026-02-02T09:15:59Z</time>
      </trkpt>
      <trkpt lat="45.94945" lon="6.55643">
        <ele>2279.1</ele>
        <time>2026-02-02T09:16:00Z</time>
      </trkpt>
      <trkpt lat="45.94945" lon="6.55643">
        <ele>2279.1</ele>
        <time>2026-02-02T09:16:01Z</time>
      </trkpt>
      <trkpt lat="45.94945" lon="6.55643">
        <ele>2279.1</ele>
        <time>2026-02-02T09:16:02Z</time>
      </trkpt>
      <trkpt lat="45.94945" lon="6.55643">
        <ele>2279.1</ele>
        <time>2026-02-02T09:16:03Z</time>
      </trkpt>
      <trkpt lat="45.94945" lon="6.55643">
        <ele>2279.1</ele>
        <time>2026-02-02T09:16:04Z</time>
      </trkpt>
      <trkpt lat="45.94945" lon="6.55643">
        <ele>2279.1</ele>
        <time>2026-02-02T09:16:05Z</time>
      </trkpt>
      <trkpt lat="45.94945" lon="6.55643">
        <ele>2279.1</ele>
        <time>2026-02-02T09:16:06Z</time>
      </trkpt>
      <trkpt lat="45.94945" lon="6.55643">
        <ele>2279.1</ele>
        <time>2026-02-02T09:16:07Z</time>
      </trkpt>
      <trkpt lat="45.94945" lon="6.55643">
        <ele>2279.1</ele>
        <time>2026-02-02T09:16:08Z</time>
      </trkpt>
      <trkpt lat="45.94945" lon="6.55643">
        <ele>2279.1</ele>
        <time>2026-02-02T09:16:09Z</time>
      </trkpt>
      <trkpt lat="45.94945" lon="6.55643">
        <ele>2279.1</ele>
        <time>2026-02-02T09:16:10Z</time>
      </trkpt>
      <trkpt lat="45.94945" lon="6.55643">
        <ele>2279.1</ele>
        <time>2026-02-02T09:16:11Z</time>
      </trkpt>
      <trkpt lat="45.94945" lon="6.55643">
        <ele>2279.1</ele>
        <time>2026-02-02T09:16:12Z</time>
      </trkpt>
      <trkpt lat="45.94945" lon="6.55643">
        <ele>2279.1</ele>
        <time>2026-02-02T09:16:13Z</time>
      </trkpt>
      <trkpt lat="45.94945" lon="6.55643">
        <ele>2279.1</ele>
        <time>2026-02-02T09:16:14Z</time>
      </trkpt>
      <trkpt lat="45.94945" lon="6.55643">
        <ele>2279.1</ele>
        <time>2026-02-02T09:16:15Z</time>
      </trkpt>
      <trkpt lat="45.94945" lon="6.55643">
        <ele>2279.1</ele>
        <time>2026-02-02T09:16:16Z</time>
      </trkpt>
      <trkpt lat="45.94945" lon="6.55643">
        <ele>2279.1</ele>
        <time>2026-02-02T09:16:17Z</time>
      </trkpt>
      <trkpt lat="45.94945" lon="6.55643">
        <ele>2279.1</ele>
        <time>2026-02-02T09:16:18Z</time>
      </trkpt>
      <trkpt lat="45.94945" lon="6.55643">
        <ele>2279.1</ele>
        <time>2026-02-02T09:16:19Z</time>
      </trkpt>
      <trkpt lat="45.94945" lon="6.55643">
        <ele>2279.1</ele>
        <time>2026-02-02T09:16:20Z</time>
      </trkpt>
      <trkpt lat="45.94945" lon="6.55643">
        <ele>2279.1</ele>
        <time>2026-02-02T09:16:21Z</time>
      </trkpt>
      <trkpt lat="45.94945" lon="6.55641">
        <ele>2279.1</ele>
        <time>2026-02-02T09:16:22Z</time>
      </trkpt>
      <trkpt lat="45.94945" lon="6.5564">
        <ele>2279.1</ele>
        <time>2026-02-02T09:16:23Z</time>
      </trkpt>
      <trkpt lat="45.94946" lon="6.55639">
        <ele>2280.4</ele>
        <time>2026-02-02T09:16:24Z</time>
      </trkpt>
      <trkpt lat="45.94946" lon="6.55638">
        <ele>2280.4</ele>
        <time>2026-02-02T09:16:25Z</time>
      </trkpt>
      <trkpt lat="45.94946" lon="6.55637">
        <ele>2280.4</ele>
        <time>2026-02-02T09:16:26Z</time>
      </trkpt>
      <trkpt lat="45.94946" lon="6.55637">
        <ele>2280.4</ele>
        <time>2026-02-02T09:16:27Z</time>
      </trkpt>
      <trkpt lat="45.94946" lon="6.55636">
        <ele>2280.4</ele>
        <time>2026-02-02T09:16:28Z</time>
      </trkpt>
      <trkpt lat="45.94947" lon="6.55636">
        <ele>2280.4</ele>
        <time>2026-02-02T09:16:29Z</time>
      </trkpt>
      <trkpt lat="45.94947" lon="6.55635">
        <ele>2280.4</ele>
        <time>2026-02-02T09:16:30Z</time>
      </trkpt>
      <trkpt lat="45.94947" lon="6.55634">
        <ele>2281.8</ele>
        <time>2026-02-02T09:16:31Z</time>
      </trkpt>
      <trkpt lat="45.94946" lon="6.55633">
        <ele>2281.8</ele>
        <time>2026-02-02T09:16:32Z</time>
      </trkpt>
      <trkpt lat="45.94946" lon="6.55633">
        <ele>2281.8</ele>
        <time>2026-02-02T09:16:33Z</time>
      </trkpt>
      <trkpt lat="45.94946" lon="6.55631">
        <ele>2281.8</ele>
        <time>2026-02-02T09:16:34Z</time>
      </trkpt>
      <trkpt lat="45.94946" lon="6.55631">
        <ele>2283.1</ele>
        <time>2026-02-02T09:16:35Z</time>
      </trkpt>
      <trkpt lat="45.94946" lon="6.5563">
        <ele>2283.1</ele>
        <time>2026-02-02T09:16:36Z</time>
      </trkpt>
      <trkpt lat="45.94945" lon="6.55629">
        <ele>2283.1</ele>
        <time>2026-02-02T09:16:37Z</time>
      </trkpt>
      <trkpt lat="45.94946" lon="6.55628">
        <ele>2283.1</ele>
        <time>2026-02-02T09:16:38Z</time>
      </trkpt>
      <trkpt lat="45.94946" lon="6.55626">
        <ele>2284.5</ele>
        <time>2026-02-02T09:16:39Z</time>
      </trkpt>
      <trkpt lat="45.94946" lon="6.55624">
        <ele>2284.5</ele>
        <time>2026-02-02T09:16:40Z</time>
      </trkpt>
      <trkpt lat="45.94946" lon="6.55624">
        <ele>2284.5</ele>
        <time>2026-02-02T09:16:41Z</time>
      </trkpt>
      <trkpt lat="45.94947" lon="6.55623">
        <ele>2284.5</ele>
        <time>2026-02-02T09:16:42Z</time>
      </trkpt>
      <trkpt lat="45.94947" lon="6.55622">
        <ele>2286.1</ele>
        <time>2026-02-02T09:16:43Z</time>
      </trkpt>
      <trkpt lat="45.94947" lon="6.55622">
        <ele>2286.1</ele>
        <time>2026-02-02T09:16:44Z</time>
      </trkpt>
      <trkpt lat="45.94947" lon="6.55622">
        <ele>2284.5</ele>
        <time>2026-02-02T09:16:45Z</time>
      </trkpt>
      <trkpt lat="45.94947" lon="6.55622">
        <ele>2284.5</ele>
        <time>2026-02-02T09:16:46Z</time>
      </trkpt>
      <trkpt lat="45.94946" lon="6.55623">
        <ele>2284.5</ele>
        <time>2026-02-02T09:16:47Z</time>
      </trkpt>
      <trkpt lat="45.94946" lon="6.55623">
        <ele>2284.5</ele>
        <time>2026-02-02T09:16:48Z</time>
      </trkpt>
      <trkpt lat="45.94946" lon="6.55623">
        <ele>2284.5</ele>
        <time>2026-02-02T09:16:49Z</time>
      </trkpt>
      <trkpt lat="45.94946" lon="6.55623">
        <ele>2284.5</ele>
        <time>2026-02-02T09:16:50Z</time>
      </trkpt>
      <trkpt lat="45.94946" lon="6.55623">
        <ele>2284.5</ele>
        <time>2026-02-02T09:16:51Z</time>
      </trkpt>
      <trkpt lat="45.94946" lon="6.55623">
        <ele>2284.5</ele>
        <time>2026-02-02T09:16:52Z</time>
      </trkpt>
      <trkpt lat="45.94946" lon="6.55623">
        <ele>2284.5</ele>
        <time>2026-02-02T09:16:53Z</time>
      </trkpt>
      <trkpt lat="45.94946" lon="6.55623">
        <ele>2284.5</ele>
        <time>2026-02-02T09:16:54Z</time>
      </trkpt>
      <trkpt lat="45.94946" lon="6.55623">
        <ele>2284.5</ele>
        <time>2026-02-02T09:16:55Z</time>
      </trkpt>
      <trkpt lat="45.94946" lon="6.55623">
        <ele>2284.5</ele>
        <time>2026-02-02T09:16:56Z</time>
      </trkpt>
      <trkpt lat="45.94946" lon="6.55623">
        <ele>2284.5</ele>
        <time>2026-02-02T09:16:57Z</time>
      </trkpt>
      <trkpt lat="45.94947" lon="6.55624">
        <ele>2284.5</ele>
        <time>2026-02-02T09:16:58Z</time>
      </trkpt>
      <trkpt lat="45.94947" lon="6.55626">
        <ele>2284.5</ele>
        <time>2026-02-02T09:16:59Z</time>
      </trkpt>
      <trkpt lat="45.94948" lon="6.55626">
        <ele>2286.9</ele>
        <time>2026-02-02T09:17:00Z</time>
      </trkpt>
      <trkpt lat="45.94948" lon="6.55627">
        <ele>2285.5</ele>
        <time>2026-02-02T09:17:01Z</time>
      </trkpt>
      <trkpt lat="45.94949" lon="6.55628">
        <ele>2285.5</ele>
        <time>2026-02-02T09:17:02Z</time>
      </trkpt>
      <trkpt lat="45.94949" lon="6.55629">
        <ele>2285.5</ele>
        <time>2026-02-02T09:17:03Z</time>
      </trkpt>
      <trkpt lat="45.94949" lon="6.5563">
        <ele>2285.5</ele>
        <time>2026-02-02T09:17:04Z</time>
      </trkpt>
      <trkpt lat="45.9495" lon="6.55631">
        <ele>2284.1</ele>
        <time>2026-02-02T09:17:05Z</time>
      </trkpt>
      <trkpt lat="45.94951" lon="6.55632">
        <ele>2286.3</ele>
        <time>2026-02-02T09:17:06Z</time>
      </trkpt>
      <trkpt lat="45.94952" lon="6.55633">
        <ele>2286.3</ele>
        <time>2026-02-02T09:17:07Z</time>
      </trkpt>
      <trkpt lat="45.94952" lon="6.55634">
        <ele>2286.3</ele>
        <time>2026-02-02T09:17:08Z</time>
      </trkpt>
      <trkpt lat="45.94953" lon="6.55635">
        <ele>2286.3</ele>
        <time>2026-02-02T09:17:09Z</time>
      </trkpt>
      <trkpt lat="45.94953" lon="6.55636">
        <ele>2284.9</ele>
        <time>2026-02-02T09:17:10Z</time>
      </trkpt>
      <trkpt lat="45.94953" lon="6.55637">
        <ele>2284.9</ele>
        <time>2026-02-02T09:17:11Z</time>
      </trkpt>
      <trkpt lat="45.94954" lon="6.55637">
        <ele>2284.9</ele>
        <time>2026-02-02T09:17:12Z</time>
      </trkpt>
      <trkpt lat="45.94954" lon="6.55637">
        <ele>2287</ele>
        <time>2026-02-02T09:17:13Z</time>
      </trkpt>
      <trkpt lat="45.94954" lon="6.55638">
        <ele>2287</ele>
        <time>2026-02-02T09:17:14Z</time>
      </trkpt>
      <trkpt lat="45.94955" lon="6.55639">
        <ele>2287</ele>
        <time>2026-02-02T09:17:15Z</time>
      </trkpt>
      <trkpt lat="45.94956" lon="6.5564">
        <ele>2285.5</ele>
        <time>2026-02-02T09:17:16Z</time>
      </trkpt>
      <trkpt lat="45.94956" lon="6.55641">
        <ele>2285.5</ele>
        <time>2026-02-02T09:17:17Z</time>
      </trkpt>
      <trkpt lat="45.94956" lon="6.55642">
        <ele>2285.5</ele>
        <time>2026-02-02T09:17:18Z</time>
      </trkpt>
      <trkpt lat="45.94957" lon="6.55643">
        <ele>2287.5</ele>
        <time>2026-02-02T09:17:19Z</time>
      </trkpt>
      <trkpt lat="45.94959" lon="6.55643">
        <ele>2287.5</ele>
        <time>2026-02-02T09:17:20Z</time>
      </trkpt>
      <trkpt lat="45.94959" lon="6.55644">
        <ele>2285.9</ele>
        <time>2026-02-02T09:17:21Z</time>
      </trkpt>
      <trkpt lat="45.94959" lon="6.55644">
        <ele>2285.9</ele>
        <time>2026-02-02T09:17:22Z</time>
      </trkpt>
      <trkpt lat="45.94959" lon="6.55644">
        <ele>2285.9</ele>
        <time>2026-02-02T09:17:23Z</time>
      </trkpt>
      <trkpt lat="45.94959" lon="6.55644">
        <ele>2285.9</ele>
        <time>2026-02-02T09:17:24Z</time>
      </trkpt>
      <trkpt lat="45.94959" lon="6.55644">
        <ele>2285.9</ele>
        <time>2026-02-02T09:17:25Z</time>
      </trkpt>
      <trkpt lat="45.94959" lon="6.55644">
        <ele>2285.9</ele>
        <time>2026-02-02T09:17:26Z</time>
      </trkpt>
      <trkpt lat="45.94959" lon="6.55644">
        <ele>2285.9</ele>
        <time>2026-02-02T09:17:27Z</time>
      </trkpt>
      <trkpt lat="45.94959" lon="6.55644">
        <ele>2285.9</ele>
        <time>2026-02-02T09:17:28Z</time>
      </trkpt>
      <trkpt lat="45.94959" lon="6.55644">
        <ele>2285.9</ele>
        <time>2026-02-02T09:17:29Z</time>
      </trkpt>
      <trkpt lat="45.94959" lon="6.55644">
        <ele>2285.9</ele>
        <time>2026-02-02T09:17:30Z</time>
      </trkpt>
      <trkpt lat="45.94959" lon="6.55644">
        <ele>2285.9</ele>
        <time>2026-02-02T09:17:31Z</time>
      </trkpt>
      <trkpt lat="45.94959" lon="6.55644">
        <ele>2285.9</ele>
        <time>2026-02-02T09:17:32Z</time>
      </trkpt>
      <trkpt lat="45.94959" lon="6.55644">
        <ele>2285.9</ele>
        <time>2026-02-02T09:17:33Z</time>
      </trkpt>
      <trkpt lat="45.94959" lon="6.55644">
        <ele>2285.9</ele>
        <time>2026-02-02T09:17:34Z</time>
      </trkpt>
      <trkpt lat="45.94959" lon="6.55644">
        <ele>2285.9</ele>
        <time>2026-02-02T09:17:35Z</time>
      </trkpt>
      <trkpt lat="45.94959" lon="6.55644">
        <ele>2285.9</ele>
        <time>2026-02-02T09:17:36Z</time>
      </trkpt>
      <trkpt lat="45.94959" lon="6.55644">
        <ele>2285.9</ele>
        <time>2026-02-02T09:17:37Z</time>
      </trkpt>
      <trkpt lat="45.94959" lon="6.55644">
        <ele>2285.9</ele>
        <time>2026-02-02T09:17:38Z</time>
      </trkpt>
      <trkpt lat="45.94959" lon="6.55644">
        <ele>2285.9</ele>
        <time>2026-02-02T09:17:39Z</time>
      </trkpt>
      <trkpt lat="45.94959" lon="6.55644">
        <ele>2285.9</ele>
        <time>2026-02-02T09:17:40Z</time>
      </trkpt>
      <trkpt lat="45.94959" lon="6.55644">
        <ele>2285.9</ele>
        <time>2026-02-02T09:17:41Z</time>
      </trkpt>
      <trkpt lat="45.94959" lon="6.55644">
        <ele>2285.9</ele>
        <time>2026-02-02T09:17:42Z</time>
      </trkpt>
      <trkpt lat="45.9496" lon="6.55644">
        <ele>2287.8</ele>
        <time>2026-02-02T09:17:43Z</time>
      </trkpt>
      <trkpt lat="45.94961" lon="6.55645">
        <ele>2287.8</ele>
        <time>2026-02-02T09:17:44Z</time>
      </trkpt>
      <trkpt lat="45.94962" lon="6.55646">
        <ele>2287.8</ele>
        <time>2026-02-02T09:17:45Z</time>
      </trkpt>
      <trkpt lat="45.94963" lon="6.55646">
        <ele>2287.8</ele>
        <time>2026-02-02T09:17:46Z</time>
      </trkpt>
      <trkpt lat="45.94963" lon="6.55647">
        <ele>2289.7</ele>
        <time>2026-02-02T09:17:47Z</time>
      </trkpt>
      <trkpt lat="45.94964" lon="6.55648">
        <ele>2289.7</ele>
        <time>2026-02-02T09:17:48Z</time>
      </trkpt>
      <trkpt lat="45.94965" lon="6.55648">
        <ele>2288</ele>
        <time>2026-02-02T09:17:49Z</time>
      </trkpt>
      <trkpt lat="45.94966" lon="6.55649">
        <ele>2290.1</ele>
        <time>2026-02-02T09:17:50Z</time>
      </trkpt>
      <trkpt lat="45.94966" lon="6.5565">
        <ele>2290.1</ele>
        <time>2026-02-02T09:17:51Z</time>
      </trkpt>
      <trkpt lat="45.94967" lon="6.55651">
        <ele>2290.1</ele>
        <time>2026-02-02T09:17:52Z</time>
      </trkpt>
      <trkpt lat="45.94967" lon="6.5565">
        <ele>2290.1</ele>
        <time>2026-02-02T09:17:53Z</time>
      </trkpt>
      <trkpt lat="45.94967" lon="6.55649">
        <ele>2290.1</ele>
        <time>2026-02-02T09:17:54Z</time>
      </trkpt>
      <trkpt lat="45.94967" lon="6.55648">
        <ele>2290.1</ele>
        <time>2026-02-02T09:17:55Z</time>
      </trkpt>
      <trkpt lat="45.94967" lon="6.55647">
        <ele>2292</ele>
        <time>2026-02-02T09:17:56Z</time>
      </trkpt>
      <trkpt lat="45.94967" lon="6.55646">
        <ele>2292</ele>
        <time>2026-02-02T09:17:57Z</time>
      </trkpt>
      <trkpt lat="45.94967" lon="6.55645">
        <ele>2292</ele>
        <time>2026-02-02T09:17:58Z</time>
      </trkpt>
      <trkpt lat="45.94966" lon="6.55645">
        <ele>2292</ele>
        <time>2026-02-02T09:17:59Z</time>
      </trkpt>
      <trkpt lat="45.94965" lon="6.55644">
        <ele>2289.7</ele>
        <time>2026-02-02T09:18:00Z</time>
      </trkpt>
      <trkpt lat="45.94965" lon="6.55643">
        <ele>2291.5</ele>
        <time>2026-02-02T09:18:01Z</time>
      </trkpt>
      <trkpt lat="45.94965" lon="6.55642">
        <ele>2291.5</ele>
        <time>2026-02-02T09:18:02Z</time>
      </trkpt>
      <trkpt lat="45.94965" lon="6.55641">
        <ele>2291.5</ele>
        <time>2026-02-02T09:18:03Z</time>
      </trkpt>
      <trkpt lat="45.94965" lon="6.5564">
        <ele>2291.5</ele>
        <time>2026-02-02T09:18:04Z</time>
      </trkpt>
      <trkpt lat="45.94966" lon="6.5564">
        <ele>2291.5</ele>
        <time>2026-02-02T09:18:05Z</time>
      </trkpt>
      <trkpt lat="45.94966" lon="6.5564">
        <ele>2291.5</ele>
        <time>2026-02-02T09:18:06Z</time>
      </trkpt>
      <trkpt lat="45.94966" lon="6.5564">
        <ele>2291.5</ele>
        <time>2026-02-02T09:18:07Z</time>
      </trkpt>
      <trkpt lat="45.94966" lon="6.5564">
        <ele>2291.5</ele>
        <time>2026-02-02T09:18:08Z</time>
      </trkpt>
      <trkpt lat="45.94966" lon="6.5564">
        <ele>2291.5</ele>
        <time>2026-02-02T09:18:09Z</time>
      </trkpt>
      <trkpt lat="45.94966" lon="6.5564">
        <ele>2291.5</ele>
        <time>2026-02-02T09:18:10Z</time>
      </trkpt>
      <trkpt lat="45.94966" lon="6.5564">
        <ele>2291.5</ele>
        <time>2026-02-02T09:18:11Z</time>
      </trkpt>
      <trkpt lat="45.94966" lon="6.5564">
        <ele>2291.5</ele>
        <time>2026-02-02T09:18:12Z</time>
      </trkpt>
      <trkpt lat="45.94966" lon="6.5564">
        <ele>2291.5</ele>
        <time>2026-02-02T09:18:13Z</time>
      </trkpt>
      <trkpt lat="45.94966" lon="6.5564">
        <ele>2291.5</ele>
        <time>2026-02-02T09:18:14Z</time>
      </trkpt>
      <trkpt lat="45.94966" lon="6.5564">
        <ele>2291.5</ele>
        <time>2026-02-02T09:18:15Z</time>
      </trkpt>
      <trkpt lat="45.94966" lon="6.5564">
        <ele>2291.5</ele>
        <time>2026-02-02T09:18:16Z</time>
      </trkpt>
      <trkpt lat="45.94966" lon="6.5564">
        <ele>2291.5</ele>
        <time>2026-02-02T09:18:17Z</time>
      </trkpt>
      <trkpt lat="45.94966" lon="6.5564">
        <ele>2291.5</ele>
        <time>2026-02-02T09:18:18Z</time>
      </trkpt>
      <trkpt lat="45.94966" lon="6.5564">
        <ele>2291.5</ele>
        <time>2026-02-02T09:18:19Z</time>
      </trkpt>
      <trkpt lat="45.94966" lon="6.5564">
        <ele>2291.5</ele>
        <time>2026-02-02T09:18:20Z</time>
      </trkpt>
      <trkpt lat="45.94966" lon="6.5564">
        <ele>2291.5</ele>
        <time>2026-02-02T09:18:21Z</time>
      </trkpt>
      <trkpt lat="45.94966" lon="6.5564">
        <ele>2291.5</ele>
        <time>2026-02-02T09:18:22Z</time>
      </trkpt>
      <trkpt lat="45.94966" lon="6.5564">
        <ele>2291.5</ele>
        <time>2026-02-02T09:18:23Z</time>
      </trkpt>
      <trkpt lat="45.94966" lon="6.5564">
        <ele>2291.5</ele>
        <time>2026-02-02T09:18:24Z</time>
      </trkpt>
      <trkpt lat="45.94966" lon="6.5564">
        <ele>2291.5</ele>
        <time>2026-02-02T09:18:25Z</time>
      </trkpt>
      <trkpt lat="45.94966" lon="6.5564">
        <ele>2291.5</ele>
        <time>2026-02-02T09:18:26Z</time>
      </trkpt>
      <trkpt lat="45.94966" lon="6.5564">
        <ele>2291.5</ele>
        <time>2026-02-02T09:18:27Z</time>
      </trkpt>
      <trkpt lat="45.94966" lon="6.5564">
        <ele>2291.5</ele>
        <time>2026-02-02T09:18:28Z</time>
      </trkpt>
      <trkpt lat="45.94966" lon="6.5564">
        <ele>2291.5</ele>
        <time>2026-02-02T09:18:29Z</time>
      </trkpt>
      <trkpt lat="45.94966" lon="6.5564">
        <ele>2291.5</ele>
        <time>2026-02-02T09:18:30Z</time>
      </trkpt>
      <trkpt lat="45.94966" lon="6.5564">
        <ele>2291.5</ele>
        <time>2026-02-02T09:18:31Z</time>
      </trkpt>
      <trkpt lat="45.94965" lon="6.5564">
        <ele>2291.5</ele>
        <time>2026-02-02T09:18:32Z</time>
      </trkpt>
      <trkpt lat="45.94965" lon="6.5564">
        <ele>2291.5</ele>
        <time>2026-02-02T09:18:33Z</time>
      </trkpt>
      <trkpt lat="45.94965" lon="6.55639">
        <ele>2293.2</ele>
        <time>2026-02-02T09:18:34Z</time>
      </trkpt>
      <trkpt lat="45.94965" lon="6.55637">
        <ele>2293.2</ele>
        <time>2026-02-02T09:18:35Z</time>
      </trkpt>
      <trkpt lat="45.94965" lon="6.55636">
        <ele>2293.2</ele>
        <time>2026-02-02T09:18:36Z</time>
      </trkpt>
      <trkpt lat="45.94966" lon="6.55635">
        <ele>2293.2</ele>
        <time>2026-02-02T09:18:37Z</time>
      </trkpt>
      <trkpt lat="45.94966" lon="6.55634">
        <ele>2294.9</ele>
        <time>2026-02-02T09:18:38Z</time>
      </trkpt>
      <trkpt lat="45.94966" lon="6.55633">
        <ele>2294.9</ele>
        <time>2026-02-02T09:18:39Z</time>
      </trkpt>
      <trkpt lat="45.94966" lon="6.55632">
        <ele>2294.9</ele>
        <time>2026-02-02T09:18:40Z</time>
      </trkpt>
      <trkpt lat="45.94966" lon="6.55632">
        <ele>2294.9</ele>
        <time>2026-02-02T09:18:41Z</time>
      </trkpt>
      <trkpt lat="45.94965" lon="6.5563">
        <ele>2296.4</ele>
        <time>2026-02-02T09:18:42Z</time>
      </trkpt>
      <trkpt lat="45.94965" lon="6.55629">
        <ele>2296.4</ele>
        <time>2026-02-02T09:18:43Z</time>
      </trkpt>
      <trkpt lat="45.94965" lon="6.55628">
        <ele>2296.4</ele>
        <time>2026-02-02T09:18:44Z</time>
      </trkpt>
      <trkpt lat="45.94965" lon="6.55627">
        <ele>2296.4</ele>
        <time>2026-02-02T09:18:45Z</time>
      </trkpt>
      <trkpt lat="45.94965" lon="6.55626">
        <ele>2296.4</ele>
        <time>2026-02-02T09:18:46Z</time>
      </trkpt>
      <trkpt lat="45.94965" lon="6.55626">
        <ele>2297.9</ele>
        <time>2026-02-02T09:18:47Z</time>
      </trkpt>
      <trkpt lat="45.94965" lon="6.55624">
        <ele>2297.9</ele>
        <time>2026-02-02T09:18:48Z</time>
      </trkpt>
      <trkpt lat="45.94965" lon="6.55623">
        <ele>2297.9</ele>
        <time>2026-02-02T09:18:49Z</time>
      </trkpt>
      <trkpt lat="45.94965" lon="6.55622">
        <ele>2299.4</ele>
        <time>2026-02-02T09:18:50Z</time>
      </trkpt>
      <trkpt lat="45.94965" lon="6.55621">
        <ele>2299.4</ele>
        <time>2026-02-02T09:18:51Z</time>
      </trkpt>
      <trkpt lat="45.94966" lon="6.5562">
        <ele>2299.4</ele>
        <time>2026-02-02T09:18:52Z</time>
      </trkpt>
      <trkpt lat="45.94966" lon="6.5562">
        <ele>2299.4</ele>
        <time>2026-02-02T09:18:53Z</time>
      </trkpt>
      <trkpt lat="45.94966" lon="6.55619">
        <ele>2301.7</ele>
        <time>2026-02-02T09:18:54Z</time>
      </trkpt>
      <trkpt lat="45.94967" lon="6.55619">
        <ele>2301.7</ele>
        <time>2026-02-02T09:18:55Z</time>
      </trkpt>
      <trkpt lat="45.94967" lon="6.55618">
        <ele>2303.2</ele>
        <time>2026-02-02T09:18:56Z</time>
      </trkpt>
      <trkpt lat="45.94967" lon="6.55616">
        <ele>2303.2</ele>
        <time>2026-02-02T09:18:57Z</time>
      </trkpt>
      <trkpt lat="45.94966" lon="6.55614">
        <ele>2303.2</ele>
        <time>2026-02-02T09:18:58Z</time>
      </trkpt>
      <trkpt lat="45.94967" lon="6.55614">
        <ele>2303.2</ele>
        <time>2026-02-02T09:18:59Z</time>
      </trkpt>
      <trkpt lat="45.94967" lon="6.55614">
        <ele>2303.2</ele>
        <time>2026-02-02T09:19:00Z</time>
      </trkpt>
      <trkpt lat="45.94967" lon="6.55614">
        <ele>2303.2</ele>
        <time>2026-02-02T09:19:01Z</time>
      </trkpt>
      <trkpt lat="45.94967" lon="6.55614">
        <ele>2303.2</ele>
        <time>2026-02-02T09:19:02Z</time>
      </trkpt>
      <trkpt lat="45.94967" lon="6.55614">
        <ele>2303.2</ele>
        <time>2026-02-02T09:19:03Z</time>
      </trkpt>
      <trkpt lat="45.94967" lon="6.55614">
        <ele>2303.2</ele>
        <time>2026-02-02T09:19:04Z</time>
      </trkpt>
      <trkpt lat="45.94967" lon="6.55614">
        <ele>2303.2</ele>
        <time>2026-02-02T09:19:05Z</time>
      </trkpt>
      <trkpt lat="45.94967" lon="6.55614">
        <ele>2303.2</ele>
        <time>2026-02-02T09:19:06Z</time>
      </trkpt>
      <trkpt lat="45.94967" lon="6.55614">
        <ele>2303.2</ele>
        <time>2026-02-02T09:19:07Z</time>
      </trkpt>
      <trkpt lat="45.94967" lon="6.55614">
        <ele>2303.2</ele>
        <time>2026-02-02T09:19:08Z</time>
      </trkpt>
      <trkpt lat="45.94967" lon="6.55614">
        <ele>2303.2</ele>
        <time>2026-02-02T09:19:09Z</time>
      </trkpt>
      <trkpt lat="45.94967" lon="6.55614">
        <ele>2303.2</ele>
        <time>2026-02-02T09:19:10Z</time>
      </trkpt>
      <trkpt lat="45.94967" lon="6.55614">
        <ele>2303.2</ele>
        <time>2026-02-02T09:19:11Z</time>
      </trkpt>
      <trkpt lat="45.94967" lon="6.55614">
        <ele>2303.2</ele>
        <time>2026-02-02T09:19:12Z</time>
      </trkpt>
      <trkpt lat="45.94967" lon="6.55614">
        <ele>2303.2</ele>
        <time>2026-02-02T09:19:13Z</time>
      </trkpt>
      <trkpt lat="45.94967" lon="6.55613">
        <ele>2304.8</ele>
        <time>2026-02-02T09:19:14Z</time>
      </trkpt>
      <trkpt lat="45.94967" lon="6.55612">
        <ele>2304.8</ele>
        <time>2026-02-02T09:19:15Z</time>
      </trkpt>
      <trkpt lat="45.94968" lon="6.55611">
        <ele>2304.8</ele>
        <time>2026-02-02T09:19:16Z</time>
      </trkpt>
      <trkpt lat="45.94967" lon="6.5561">
        <ele>2304.8</ele>
        <time>2026-02-02T09:19:17Z</time>
      </trkpt>
      <trkpt lat="45.94967" lon="6.55609">
        <ele>2306.6</ele>
        <time>2026-02-02T09:19:18Z</time>
      </trkpt>
      <trkpt lat="45.94967" lon="6.55608">
        <ele>2306.6</ele>
        <time>2026-02-02T09:19:19Z</time>
      </trkpt>
      <trkpt lat="45.94967" lon="6.55608">
        <ele>2306.6</ele>
        <time>2026-02-02T09:19:20Z</time>
      </trkpt>
      <trkpt lat="45.94967" lon="6.55606">
        <ele>2306.6</ele>
        <time>2026-02-02T09:19:21Z</time>
      </trkpt>
      <trkpt lat="45.94966" lon="6.55606">
        <ele>2306.6</ele>
        <time>2026-02-02T09:19:22Z</time>
      </trkpt>
      <trkpt lat="45.94966" lon="6.55605">
        <ele>2308.7</ele>
        <time>2026-02-02T09:19:23Z</time>
      </trkpt>
      <trkpt lat="45.94966" lon="6.55606">
        <ele>2306.6</ele>
        <time>2026-02-02T09:19:24Z</time>
      </trkpt>
      <trkpt lat="45.94966" lon="6.55607">
        <ele>2306.6</ele>
        <time>2026-02-02T09:19:25Z</time>
      </trkpt>
      <trkpt lat="45.94967" lon="6.55607">
        <ele>2306.6</ele>
        <time>2026-02-02T09:19:26Z</time>
      </trkpt>
      <trkpt lat="45.94967" lon="6.55607">
        <ele>2306.6</ele>
        <time>2026-02-02T09:19:27Z</time>
      </trkpt>
      <trkpt lat="45.94967" lon="6.55607">
        <ele>2306.6</ele>
        <time>2026-02-02T09:19:28Z</time>
      </trkpt>
      <trkpt lat="45.94966" lon="6.55607">
        <ele>2306.6</ele>
        <time>2026-02-02T09:19:29Z</time>
      </trkpt>
      <trkpt lat="45.94967" lon="6.55607">
        <ele>2306.6</ele>
        <time>2026-02-02T09:19:30Z</time>
      </trkpt>
      <trkpt lat="45.94967" lon="6.55606">
        <ele>2306.6</ele>
        <time>2026-02-02T09:19:31Z</time>
      </trkpt>
      <trkpt lat="45.94967" lon="6.55607">
        <ele>2306.6</ele>
        <time>2026-02-02T09:19:32Z</time>
      </trkpt>
      <trkpt lat="45.94967" lon="6.55607">
        <ele>2306.6</ele>
        <time>2026-02-02T09:19:33Z</time>
      </trkpt>
      <trkpt lat="45.94967" lon="6.55607">
        <ele>2306.6</ele>
        <time>2026-02-02T09:19:34Z</time>
      </trkpt>
      <trkpt lat="45.94967" lon="6.55607">
        <ele>2306.6</ele>
        <time>2026-02-02T09:19:35Z</time>
      </trkpt>
      <trkpt lat="45.94967" lon="6.55607">
        <ele>2306.6</ele>
        <time>2026-02-02T09:19:36Z</time>
      </trkpt>
      <trkpt lat="45.94967" lon="6.55607">
        <ele>2306.6</ele>
        <time>2026-02-02T09:19:37Z</time>
      </trkpt>
      <trkpt lat="45.94967" lon="6.55607">
        <ele>2306.6</ele>
        <time>2026-02-02T09:19:38Z</time>
      </trkpt>
      <trkpt lat="45.94967" lon="6.55607">
        <ele>2306.6</ele>
        <time>2026-02-02T09:19:39Z</time>
      </trkpt>
      <trkpt lat="45.94967" lon="6.55607">
        <ele>2306.6</ele>
        <time>2026-02-02T09:19:40Z</time>
      </trkpt>
      <trkpt lat="45.94967" lon="6.55607">
        <ele>2306.6</ele>
        <time>2026-02-02T09:19:41Z</time>
      </trkpt>
      <trkpt lat="45.94967" lon="6.55607">
        <ele>2306.6</ele>
        <time>2026-02-02T09:19:42Z</time>
      </trkpt>
      <trkpt lat="45.94967" lon="6.55607">
        <ele>2306.6</ele>
        <time>2026-02-02T09:19:43Z</time>
      </trkpt>
      <trkpt lat="45.94967" lon="6.55607">
        <ele>2306.6</ele>
        <time>2026-02-02T09:19:44Z</time>
      </trkpt>
      <trkpt lat="45.94967" lon="6.55607">
        <ele>2306.6</ele>
        <time>2026-02-02T09:19:45Z</time>
      </trkpt>
      <trkpt lat="45.94967" lon="6.55607">
        <ele>2306.6</ele>
        <time>2026-02-02T09:19:46Z</time>
      </trkpt>
      <trkpt lat="45.94967" lon="6.55607">
        <ele>2306.6</ele>
        <time>2026-02-02T09:19:47Z</time>
      </trkpt>
      <trkpt lat="45.94968" lon="6.55607">
        <ele>2306.6</ele>
        <time>2026-02-02T09:19:48Z</time>
      </trkpt>
      <trkpt lat="45.94968" lon="6.55608">
        <ele>2306.6</ele>
        <time>2026-02-02T09:19:49Z</time>
      </trkpt>
      <trkpt lat="45.94969" lon="6.55607">
        <ele>2306.6</ele>
        <time>2026-02-02T09:19:50Z</time>
      </trkpt>
      <trkpt lat="45.94969" lon="6.55608">
        <ele>2308.9</ele>
        <time>2026-02-02T09:19:51Z</time>
      </trkpt>
      <trkpt lat="45.9497" lon="6.55609">
        <ele>2308.9</ele>
        <time>2026-02-02T09:19:52Z</time>
      </trkpt>
      <trkpt lat="45.9497" lon="6.55609">
        <ele>2308.9</ele>
        <time>2026-02-02T09:19:53Z</time>
      </trkpt>
      <trkpt lat="45.9497" lon="6.5561">
        <ele>2307.2</ele>
        <time>2026-02-02T09:19:54Z</time>
      </trkpt>
      <trkpt lat="45.9497" lon="6.5561">
        <ele>2307.2</ele>
        <time>2026-02-02T09:19:55Z</time>
      </trkpt>
      <trkpt lat="45.94971" lon="6.55611">
        <ele>2307.2</ele>
        <time>2026-02-02T09:19:56Z</time>
      </trkpt>
      <trkpt lat="45.94972" lon="6.55611">
        <ele>2309.7</ele>
        <time>2026-02-02T09:19:57Z</time>
      </trkpt>
      <trkpt lat="45.94972" lon="6.55612">
        <ele>2309.7</ele>
        <time>2026-02-02T09:19:58Z</time>
      </trkpt>
      <trkpt lat="45.94973" lon="6.55613">
        <ele>2309.7</ele>
        <time>2026-02-02T09:19:59Z</time>
      </trkpt>
      <trkpt lat="45.94974" lon="6.55615">
        <ele>2308.4</ele>
        <time>2026-02-02T09:20:00Z</time>
      </trkpt>
      <trkpt lat="45.94975" lon="6.55615">
        <ele>2308.4</ele>
        <time>2026-02-02T09:20:01Z</time>
      </trkpt>
      <trkpt lat="45.94975" lon="6.55616">
        <ele>2311.1</ele>
        <time>2026-02-02T09:20:02Z</time>
      </trkpt>
      <trkpt lat="45.94976" lon="6.55617">
        <ele>2311.1</ele>
        <time>2026-02-02T09:20:03Z</time>
      </trkpt>
      <trkpt lat="45.94976" lon="6.55617">
        <ele>2311.1</ele>
        <time>2026-02-02T09:20:04Z</time>
      </trkpt>
      <trkpt lat="45.94977" lon="6.55618">
        <ele>2309.9</ele>
        <time>2026-02-02T09:20:05Z</time>
      </trkpt>
      <trkpt lat="45.94977" lon="6.55619">
        <ele>2309.9</ele>
        <time>2026-02-02T09:20:06Z</time>
      </trkpt>
      <trkpt lat="45.94978" lon="6.5562">
        <ele>2312.6</ele>
        <time>2026-02-02T09:20:07Z</time>
      </trkpt>
      <trkpt lat="45.94978" lon="6.55621">
        <ele>2312.6</ele>
        <time>2026-02-02T09:20:08Z</time>
      </trkpt>
      <trkpt lat="45.94979" lon="6.55622">
        <ele>2312.6</ele>
        <time>2026-02-02T09:20:09Z</time>
      </trkpt>
      <trkpt lat="45.9498" lon="6.55623">
        <ele>2311.5</ele>
        <time>2026-02-02T09:20:10Z</time>
      </trkpt>
      <trkpt lat="45.94981" lon="6.55624">
        <ele>2314</ele>
        <time>2026-02-02T09:20:11Z</time>
      </trkpt>
      <trkpt lat="45.94981" lon="6.55625">
        <ele>2314</ele>
        <time>2026-02-02T09:20:12Z</time>
      </trkpt>
      <trkpt lat="45.94982" lon="6.55625">
        <ele>2314</ele>
        <time>2026-02-02T09:20:13Z</time>
      </trkpt>
      <trkpt lat="45.94981" lon="6.55625">
        <ele>2314</ele>
        <time>2026-02-02T09:20:14Z</time>
      </trkpt>
      <trkpt lat="45.94981" lon="6.55624">
        <ele>2314</ele>
        <time>2026-02-02T09:20:15Z</time>
      </trkpt>
      <trkpt lat="45.94981" lon="6.55623">
        <ele>2314</ele>
        <time>2026-02-02T09:20:16Z</time>
      </trkpt>
      <trkpt lat="45.94981" lon="6.55623">
        <ele>2314</ele>
        <time>2026-02-02T09:20:17Z</time>
      </trkpt>
      <trkpt lat="45.94981" lon="6.55623">
        <ele>2314</ele>
        <time>2026-02-02T09:20:18Z</time>
      </trkpt>
      <trkpt lat="45.94981" lon="6.55623">
        <ele>2314</ele>
        <time>2026-02-02T09:20:19Z</time>
      </trkpt>
      <trkpt lat="45.94981" lon="6.55623">
        <ele>2314</ele>
        <time>2026-02-02T09:20:20Z</time>
      </trkpt>
      <trkpt lat="45.94981" lon="6.55623">
        <ele>2314</ele>
        <time>2026-02-02T09:20:21Z</time>
      </trkpt>
      <trkpt lat="45.94981" lon="6.55623">
        <ele>2314</ele>
        <time>2026-02-02T09:20:22Z</time>
      </trkpt>
      <trkpt lat="45.94981" lon="6.55623">
        <ele>2314</ele>
        <time>2026-02-02T09:20:23Z</time>
      </trkpt>
      <trkpt lat="45.94981" lon="6.55623">
        <ele>2314</ele>
        <time>2026-02-02T09:20:24Z</time>
      </trkpt>
      <trkpt lat="45.94981" lon="6.55623">
        <ele>2314</ele>
        <time>2026-02-02T09:20:25Z</time>
      </trkpt>
      <trkpt lat="45.94981" lon="6.55623">
        <ele>2314</ele>
        <time>2026-02-02T09:20:26Z</time>
      </trkpt>
      <trkpt lat="45.94981" lon="6.55623">
        <ele>2314</ele>
        <time>2026-02-02T09:20:27Z</time>
      </trkpt>
      <trkpt lat="45.94981" lon="6.55623">
        <ele>2314</ele>
        <time>2026-02-02T09:20:28Z</time>
      </trkpt>
      <trkpt lat="45.94981" lon="6.55623">
        <ele>2314</ele>
        <time>2026-02-02T09:20:29Z</time>
      </trkpt>
      <trkpt lat="45.94981" lon="6.55623">
        <ele>2314</ele>
        <time>2026-02-02T09:20:30Z</time>
      </trkpt>
      <trkpt lat="45.94981" lon="6.55623">
        <ele>2314</ele>
        <time>2026-02-02T09:20:31Z</time>
      </trkpt>
      <trkpt lat="45.94981" lon="6.55623">
        <ele>2314</ele>
        <time>2026-02-02T09:20:32Z</time>
      </trkpt>
      <trkpt lat="45.94981" lon="6.55623">
        <ele>2314</ele>
        <time>2026-02-02T09:20:33Z</time>
      </trkpt>
      <trkpt lat="45.94981" lon="6.55623">
        <ele>2314</ele>
        <time>2026-02-02T09:20:34Z</time>
      </trkpt>
      <trkpt lat="45.94981" lon="6.55622">
        <ele>2314</ele>
        <time>2026-02-02T09:20:35Z</time>
      </trkpt>
      <trkpt lat="45.9498" lon="6.5562">
        <ele>2312.6</ele>
        <time>2026-02-02T09:20:36Z</time>
      </trkpt>
      <trkpt lat="45.9498" lon="6.55619">
        <ele>2312.6</ele>
        <time>2026-02-02T09:20:37Z</time>
      </trkpt>
      <trkpt lat="45.9498" lon="6.55618">
        <ele>2312.6</ele>
        <time>2026-02-02T09:20:38Z</time>
      </trkpt>
      <trkpt lat="45.9498" lon="6.55618">
        <ele>2313.6</ele>
        <time>2026-02-02T09:20:39Z</time>
      </trkpt>
      <trkpt lat="45.9498" lon="6.55617">
        <ele>2313.6</ele>
        <time>2026-02-02T09:20:40Z</time>
      </trkpt>
      <trkpt lat="45.9498" lon="6.55615">
        <ele>2313.6</ele>
        <time>2026-02-02T09:20:41Z</time>
      </trkpt>
      <trkpt lat="45.9498" lon="6.55614">
        <ele>2313.6</ele>
        <time>2026-02-02T09:20:42Z</time>
      </trkpt>
      <trkpt lat="45.9498" lon="6.55613">
        <ele>2314.7</ele>
        <time>2026-02-02T09:20:43Z</time>
      </trkpt>
      <trkpt lat="45.9498" lon="6.55612">
        <ele>2314.7</ele>
        <time>2026-02-02T09:20:44Z</time>
      </trkpt>
      <trkpt lat="45.9498" lon="6.55611">
        <ele>2314.7</ele>
        <time>2026-02-02T09:20:45Z</time>
      </trkpt>
      <trkpt lat="45.9498" lon="6.5561">
        <ele>2314.7</ele>
        <time>2026-02-02T09:20:46Z</time>
      </trkpt>
      <trkpt lat="45.9498" lon="6.55608">
        <ele>2316.2</ele>
        <time>2026-02-02T09:20:47Z</time>
      </trkpt>
      <trkpt lat="45.94981" lon="6.55608">
        <ele>2316.2</ele>
        <time>2026-02-02T09:20:48Z</time>
      </trkpt>
      <trkpt lat="45.94981" lon="6.55606">
        <ele>2318.4</ele>
        <time>2026-02-02T09:20:49Z</time>
      </trkpt>
      <trkpt lat="45.94981" lon="6.55605">
        <ele>2318.4</ele>
        <time>2026-02-02T09:20:50Z</time>
      </trkpt>
      <trkpt lat="45.94981" lon="6.55604">
        <ele>2320.5</ele>
        <time>2026-02-02T09:20:51Z</time>
      </trkpt>
      <trkpt lat="45.94981" lon="6.55603">
        <ele>2320.5</ele>
        <time>2026-02-02T09:20:52Z</time>
      </trkpt>
      <trkpt lat="45.94982" lon="6.55603">
        <ele>2320.5</ele>
        <time>2026-02-02T09:20:53Z</time>
      </trkpt>
      <trkpt lat="45.94981" lon="6.55602">
        <ele>2320.5</ele>
        <time>2026-02-02T09:20:54Z</time>
      </trkpt>
      <trkpt lat="45.94981" lon="6.55601">
        <ele>2320.5</ele>
        <time>2026-02-02T09:20:55Z</time>
      </trkpt>
      <trkpt lat="45.9498" lon="6.55601">
        <ele>2318.3</ele>
        <time>2026-02-02T09:20:56Z</time>
      </trkpt>
      <trkpt lat="45.9498" lon="6.556">
        <ele>2321.2</ele>
        <time>2026-02-02T09:20:57Z</time>
      </trkpt>
      <trkpt lat="45.9498" lon="6.556">
        <ele>2321.2</ele>
        <time>2026-02-02T09:20:58Z</time>
      </trkpt>
      <trkpt lat="45.9498" lon="6.55599">
        <ele>2321.2</ele>
        <time>2026-02-02T09:20:59Z</time>
      </trkpt>
      <trkpt lat="45.9498" lon="6.55599">
        <ele>2321.2</ele>
        <time>2026-02-02T09:21:00Z</time>
      </trkpt>
      <trkpt lat="45.9498" lon="6.55599">
        <ele>2321.2</ele>
        <time>2026-02-02T09:21:01Z</time>
      </trkpt>
      <trkpt lat="45.9498" lon="6.55599">
        <ele>2321.2</ele>
        <time>2026-02-02T09:21:02Z</time>
      </trkpt>
      <trkpt lat="45.9498" lon="6.55598">
        <ele>2321.2</ele>
        <time>2026-02-02T09:21:03Z</time>
      </trkpt>
      <trkpt lat="45.9498" lon="6.55598">
        <ele>2321.2</ele>
        <time>2026-02-02T09:21:04Z</time>
      </trkpt>
      <trkpt lat="45.9498" lon="6.55599">
        <ele>2321.2</ele>
        <time>2026-02-02T09:21:05Z</time>
      </trkpt>
      <trkpt lat="45.94979" lon="6.556">
        <ele>2321.2</ele>
        <time>2026-02-02T09:21:06Z</time>
      </trkpt>
      <trkpt lat="45.94979" lon="6.556">
        <ele>2321.2</ele>
        <time>2026-02-02T09:21:07Z</time>
      </trkpt>
      <trkpt lat="45.9498" lon="6.556">
        <ele>2321.2</ele>
        <time>2026-02-02T09:21:08Z</time>
      </trkpt>
      <trkpt lat="45.9498" lon="6.55601">
        <ele>2318.3</ele>
        <time>2026-02-02T09:21:09Z</time>
      </trkpt>
      <trkpt lat="45.9498" lon="6.55601">
        <ele>2318.3</ele>
        <time>2026-02-02T09:21:10Z</time>
      </trkpt>
      <trkpt lat="45.9498" lon="6.55601">
        <ele>2318.3</ele>
        <time>2026-02-02T09:21:11Z</time>
      </trkpt>
      <trkpt lat="45.9498" lon="6.55601">
        <ele>2318.3</ele>
        <time>2026-02-02T09:21:12Z</time>
      </trkpt>
      <trkpt lat="45.9498" lon="6.55601">
        <ele>2318.3</ele>
        <time>2026-02-02T09:21:13Z</time>
      </trkpt>
      <trkpt lat="45.9498" lon="6.55601">
        <ele>2318.3</ele>
        <time>2026-02-02T09:21:14Z</time>
      </trkpt>
      <trkpt lat="45.9498" lon="6.55601">
        <ele>2318.3</ele>
        <time>2026-02-02T09:21:15Z</time>
      </trkpt>
      <trkpt lat="45.9498" lon="6.55601">
        <ele>2318.3</ele>
        <time>2026-02-02T09:21:16Z</time>
      </trkpt>
      <trkpt lat="45.9498" lon="6.55601">
        <ele>2318.3</ele>
        <time>2026-02-02T09:21:17Z</time>
      </trkpt>
      <trkpt lat="45.9498" lon="6.55601">
        <ele>2318.3</ele>
        <time>2026-02-02T09:21:18Z</time>
      </trkpt>
      <trkpt lat="45.9498" lon="6.55601">
        <ele>2318.3</ele>
        <time>2026-02-02T09:21:19Z</time>
      </trkpt>
      <trkpt lat="45.9498" lon="6.55601">
        <ele>2318.3</ele>
        <time>2026-02-02T09:21:20Z</time>
      </trkpt>
      <trkpt lat="45.9498" lon="6.55601">
        <ele>2318.3</ele>
        <time>2026-02-02T09:21:21Z</time>
      </trkpt>
      <trkpt lat="45.9498" lon="6.55601">
        <ele>2318.3</ele>
        <time>2026-02-02T09:21:22Z</time>
      </trkpt>
      <trkpt lat="45.9498" lon="6.55601">
        <ele>2318.3</ele>
        <time>2026-02-02T09:21:23Z</time>
      </trkpt>
      <trkpt lat="45.9498" lon="6.55601">
        <ele>2318.3</ele>
        <time>2026-02-02T09:21:24Z</time>
      </trkpt>
      <trkpt lat="45.94981" lon="6.55601">
        <ele>2318.3</ele>
        <time>2026-02-02T09:21:25Z</time>
      </trkpt>
      <trkpt lat="45.94981" lon="6.55601">
        <ele>2320.5</ele>
        <time>2026-02-02T09:21:26Z</time>
      </trkpt>
      <trkpt lat="45.94982" lon="6.55602">
        <ele>2320.5</ele>
        <time>2026-02-02T09:21:27Z</time>
      </trkpt>
      <trkpt lat="45.94982" lon="6.55602">
        <ele>2320.5</ele>
        <time>2026-02-02T09:21:28Z</time>
      </trkpt>
      <trkpt lat="45.94983" lon="6.55603">
        <ele>2320.5</ele>
        <time>2026-02-02T09:21:29Z</time>
      </trkpt>
      <trkpt lat="45.94983" lon="6.55603">
        <ele>2320.5</ele>
        <time>2026-02-02T09:21:30Z</time>
      </trkpt>
      <trkpt lat="45.94984" lon="6.55604">
        <ele>2322.7</ele>
        <time>2026-02-02T09:21:31Z</time>
      </trkpt>
      <trkpt lat="45.94985" lon="6.55604">
        <ele>2322.7</ele>
        <time>2026-02-02T09:21:32Z</time>
      </trkpt>
      <trkpt lat="45.94985" lon="6.55605">
        <ele>2322.7</ele>
        <time>2026-02-02T09:21:33Z</time>
      </trkpt>
      <trkpt lat="45.94986" lon="6.55605">
        <ele>2320.7</ele>
        <time>2026-02-02T09:21:34Z</time>
      </trkpt>
      <trkpt lat="45.94986" lon="6.55605">
        <ele>2320.7</ele>
        <time>2026-02-02T09:21:35Z</time>
      </trkpt>
      <trkpt lat="45.94987" lon="6.55606">
        <ele>2320.7</ele>
        <time>2026-02-02T09:21:36Z</time>
      </trkpt>
      <trkpt lat="45.94987" lon="6.55607">
        <ele>2323</ele>
        <time>2026-02-02T09:21:37Z</time>
      </trkpt>
      <trkpt lat="45.94988" lon="6.55607">
        <ele>2323</ele>
        <time>2026-02-02T09:21:38Z</time>
      </trkpt>
      <trkpt lat="45.94988" lon="6.55608">
        <ele>2323</ele>
        <time>2026-02-02T09:21:39Z</time>
      </trkpt>
      <trkpt lat="45.94989" lon="6.55609">
        <ele>2323</ele>
        <time>2026-02-02T09:21:40Z</time>
      </trkpt>
      <trkpt lat="45.94989" lon="6.5561">
        <ele>2321.8</ele>
        <time>2026-02-02T09:21:41Z</time>
      </trkpt>
      <trkpt lat="45.94989" lon="6.55609">
        <ele>2323</ele>
        <time>2026-02-02T09:21:42Z</time>
      </trkpt>
      <trkpt lat="45.94989" lon="6.55609">
        <ele>2323</ele>
        <time>2026-02-02T09:21:43Z</time>
      </trkpt>
      <trkpt lat="45.94989" lon="6.55609">
        <ele>2323</ele>
        <time>2026-02-02T09:21:44Z</time>
      </trkpt>
      <trkpt lat="45.94989" lon="6.55609">
        <ele>2323</ele>
        <time>2026-02-02T09:21:45Z</time>
      </trkpt>
      <trkpt lat="45.94989" lon="6.55609">
        <ele>2323</ele>
        <time>2026-02-02T09:21:46Z</time>
      </trkpt>
      <trkpt lat="45.94989" lon="6.55609">
        <ele>2323</ele>
        <time>2026-02-02T09:21:47Z</time>
      </trkpt>
      <trkpt lat="45.94989" lon="6.55609">
        <ele>2321.8</ele>
        <time>2026-02-02T09:21:48Z</time>
      </trkpt>
      <trkpt lat="45.94989" lon="6.55609">
        <ele>2321.8</ele>
        <time>2026-02-02T09:21:49Z</time>
      </trkpt>
      <trkpt lat="45.94989" lon="6.55609">
        <ele>2321.8</ele>
        <time>2026-02-02T09:21:50Z</time>
      </trkpt>
      <trkpt lat="45.94989" lon="6.55609">
        <ele>2321.8</ele>
        <time>2026-02-02T09:21:51Z</time>
      </trkpt>
      <trkpt lat="45.94989" lon="6.55609">
        <ele>2321.8</ele>
        <time>2026-02-02T09:21:52Z</time>
      </trkpt>
      <trkpt lat="45.94989" lon="6.55609">
        <ele>2321.8</ele>
        <time>2026-02-02T09:21:53Z</time>
      </trkpt>
      <trkpt lat="45.94989" lon="6.55609">
        <ele>2321.8</ele>
        <time>2026-02-02T09:21:54Z</time>
      </trkpt>
      <trkpt lat="45.94989" lon="6.55609">
        <ele>2321.8</ele>
        <time>2026-02-02T09:21:55Z</time>
      </trkpt>
      <trkpt lat="45.94989" lon="6.55609">
        <ele>2321.8</ele>
        <time>2026-02-02T09:21:56Z</time>
      </trkpt>
      <trkpt lat="45.94989" lon="6.55609">
        <ele>2321.8</ele>
        <time>2026-02-02T09:21:57Z</time>
      </trkpt>
      <trkpt lat="45.94989" lon="6.55609">
        <ele>2321.8</ele>
        <time>2026-02-02T09:21:58Z</time>
      </trkpt>
      <trkpt lat="45.94989" lon="6.55609">
        <ele>2321.8</ele>
        <time>2026-02-02T09:21:59Z</time>
      </trkpt>
      <trkpt lat="45.94989" lon="6.55609">
        <ele>2321.8</ele>
        <time>2026-02-02T09:22:00Z</time>
      </trkpt>
      <trkpt lat="45.94989" lon="6.55609">
        <ele>2321.8</ele>
        <time>2026-02-02T09:22:01Z</time>
      </trkpt>
      <trkpt lat="45.94989" lon="6.55609">
        <ele>2321.8</ele>
        <time>2026-02-02T09:22:02Z</time>
      </trkpt>
      <trkpt lat="45.94989" lon="6.55609">
        <ele>2321.8</ele>
        <time>2026-02-02T09:22:03Z</time>
      </trkpt>
      <trkpt lat="45.94989" lon="6.5561">
        <ele>2321.8</ele>
        <time>2026-02-02T09:22:04Z</time>
      </trkpt>
      <trkpt lat="45.9499" lon="6.5561">
        <ele>2324.4</ele>
        <time>2026-02-02T09:22:05Z</time>
      </trkpt>
      <trkpt lat="45.94992" lon="6.55611">
        <ele>2324.4</ele>
        <time>2026-02-02T09:22:06Z</time>
      </trkpt>
      <trkpt lat="45.94992" lon="6.55613">
        <ele>2324.4</ele>
        <time>2026-02-02T09:22:07Z</time>
      </trkpt>
      <trkpt lat="45.94992" lon="6.55614">
        <ele>2323.5</ele>
        <time>2026-02-02T09:22:08Z</time>
      </trkpt>
      <trkpt lat="45.94993" lon="6.55615">
        <ele>2326.4</ele>
        <time>2026-02-02T09:22:09Z</time>
      </trkpt>
      <trkpt lat="45.94994" lon="6.55615">
        <ele>2326.4</ele>
        <time>2026-02-02T09:22:10Z</time>
      </trkpt>
      <trkpt lat="45.94994" lon="6.55616">
        <ele>2326.4</ele>
        <time>2026-02-02T09:22:11Z</time>
      </trkpt>
      <trkpt lat="45.94995" lon="6.55616">
        <ele>2326.4</ele>
        <time>2026-02-02T09:22:12Z</time>
      </trkpt>
      <trkpt lat="45.94995" lon="6.55615">
        <ele>2326.4</ele>
        <time>2026-02-02T09:22:13Z</time>
      </trkpt>
      <trkpt lat="45.94995" lon="6.55614">
        <ele>2326.4</ele>
        <time>2026-02-02T09:22:14Z</time>
      </trkpt>
      <trkpt lat="45.94995" lon="6.55614">
        <ele>2326.4</ele>
        <time>2026-02-02T09:22:15Z</time>
      </trkpt>
      <trkpt lat="45.94995" lon="6.55613">
        <ele>2327.4</ele>
        <time>2026-02-02T09:22:16Z</time>
      </trkpt>
      <trkpt lat="45.94995" lon="6.55612">
        <ele>2327.4</ele>
        <time>2026-02-02T09:22:17Z</time>
      </trkpt>
      <trkpt lat="45.94995" lon="6.55611">
        <ele>2327.4</ele>
        <time>2026-02-02T09:22:18Z</time>
      </trkpt>
      <trkpt lat="45.94995" lon="6.55609">
        <ele>2327.4</ele>
        <time>2026-02-02T09:22:19Z</time>
      </trkpt>
      <trkpt lat="45.94995" lon="6.55608">
        <ele>2328.6</ele>
        <time>2026-02-02T09:22:20Z</time>
      </trkpt>
      <trkpt lat="45.94995" lon="6.55607">
        <ele>2328.6</ele>
        <time>2026-02-02T09:22:21Z</time>
      </trkpt>
      <trkpt lat="45.94996" lon="6.55606">
        <ele>2331.8</ele>
        <time>2026-02-02T09:22:22Z</time>
      </trkpt>
      <trkpt lat="45.94996" lon="6.55604">
        <ele>2333.5</ele>
        <time>2026-02-02T09:22:23Z</time>
      </trkpt>
      <trkpt lat="45.94997" lon="6.55603">
        <ele>2333.5</ele>
        <time>2026-02-02T09:22:24Z</time>
      </trkpt>
      <trkpt lat="45.94997" lon="6.55602">
        <ele>2333.5</ele>
        <time>2026-02-02T09:22:25Z</time>
      </trkpt>
      <trkpt lat="45.94997" lon="6.55602">
        <ele>2333.5</ele>
        <time>2026-02-02T09:22:26Z</time>
      </trkpt>
      <trkpt lat="45.94997" lon="6.55601">
        <ele>2333.5</ele>
        <time>2026-02-02T09:22:27Z</time>
      </trkpt>
      <trkpt lat="45.94997" lon="6.55599">
        <ele>2335.9</ele>
        <time>2026-02-02T09:22:28Z</time>
      </trkpt>
      <trkpt lat="45.94997" lon="6.55598">
        <ele>2335.9</ele>
        <time>2026-02-02T09:22:29Z</time>
      </trkpt>
      <trkpt lat="45.94997" lon="6.55597">
        <ele>2335.9</ele>
        <time>2026-02-02T09:22:30Z</time>
      </trkpt>
      <trkpt lat="45.94997" lon="6.55595">
        <ele>2339</ele>
        <time>2026-02-02T09:22:31Z</time>
      </trkpt>
      <trkpt lat="45.94997" lon="6.55595">
        <ele>2339</ele>
        <time>2026-02-02T09:22:32Z</time>
      </trkpt>
      <trkpt lat="45.94997" lon="6.55594">
        <ele>2339</ele>
        <time>2026-02-02T09:22:33Z</time>
      </trkpt>
      <trkpt lat="45.94997" lon="6.55594">
        <ele>2339</ele>
        <time>2026-02-02T09:22:34Z</time>
      </trkpt>
      <trkpt lat="45.94997" lon="6.55594">
        <ele>2339</ele>
        <time>2026-02-02T09:22:35Z</time>
      </trkpt>
      <trkpt lat="45.94997" lon="6.55594">
        <ele>2339</ele>
        <time>2026-02-02T09:22:36Z</time>
      </trkpt>
      <trkpt lat="45.94997" lon="6.55594">
        <ele>2339</ele>
        <time>2026-02-02T09:22:37Z</time>
      </trkpt>
      <trkpt lat="45.94997" lon="6.55594">
        <ele>2339</ele>
        <time>2026-02-02T09:22:38Z</time>
      </trkpt>
      <trkpt lat="45.94997" lon="6.55594">
        <ele>2339</ele>
        <time>2026-02-02T09:22:39Z</time>
      </trkpt>
      <trkpt lat="45.94998" lon="6.55594">
        <ele>2339</ele>
        <time>2026-02-02T09:22:40Z</time>
      </trkpt>
      <trkpt lat="45.94998" lon="6.55595">
        <ele>2339</ele>
        <time>2026-02-02T09:22:41Z</time>
      </trkpt>
      <trkpt lat="45.94998" lon="6.55595">
        <ele>2339</ele>
        <time>2026-02-02T09:22:42Z</time>
      </trkpt>
      <trkpt lat="45.94998" lon="6.55595">
        <ele>2339</ele>
        <time>2026-02-02T09:22:43Z</time>
      </trkpt>
      <trkpt lat="45.94998" lon="6.55595">
        <ele>2339</ele>
        <time>2026-02-02T09:22:44Z</time>
      </trkpt>
      <trkpt lat="45.94998" lon="6.55595">
        <ele>2339</ele>
        <time>2026-02-02T09:22:45Z</time>
      </trkpt>
      <trkpt lat="45.94998" lon="6.55595">
        <ele>2339</ele>
        <time>2026-02-02T09:22:46Z</time>
      </trkpt>
      <trkpt lat="45.94998" lon="6.55595">
        <ele>2339</ele>
        <time>2026-02-02T09:22:47Z</time>
      </trkpt>
      <trkpt lat="45.94998" lon="6.55595">
        <ele>2339</ele>
        <time>2026-02-02T09:22:48Z</time>
      </trkpt>
      <trkpt lat="45.94998" lon="6.55596">
        <ele>2339</ele>
        <time>2026-02-02T09:22:49Z</time>
      </trkpt>
      <trkpt lat="45.94998" lon="6.55596">
        <ele>2339</ele>
        <time>2026-02-02T09:22:50Z</time>
      </trkpt>
      <trkpt lat="45.94998" lon="6.55596">
        <ele>2339</ele>
        <time>2026-02-02T09:22:51Z</time>
      </trkpt>
      <trkpt lat="45.94999" lon="6.55596">
        <ele>2339</ele>
        <time>2026-02-02T09:22:52Z</time>
      </trkpt>
      <trkpt lat="45.94999" lon="6.55596">
        <ele>2341.7</ele>
        <time>2026-02-02T09:22:53Z</time>
      </trkpt>
      <trkpt lat="45.94999" lon="6.55596">
        <ele>2341.7</ele>
        <time>2026-02-02T09:22:54Z</time>
      </trkpt>
      <trkpt lat="45.94999" lon="6.55596">
        <ele>2341.7</ele>
        <time>2026-02-02T09:22:55Z</time>
      </trkpt>
      <trkpt lat="45.94999" lon="6.55596">
        <ele>2339</ele>
        <time>2026-02-02T09:22:56Z</time>
      </trkpt>
      <trkpt lat="45.94999" lon="6.55597">
        <ele>2339</ele>
        <time>2026-02-02T09:22:57Z</time>
      </trkpt>
      <trkpt lat="45.94999" lon="6.55597">
        <ele>2339</ele>
        <time>2026-02-02T09:22:58Z</time>
      </trkpt>
      <trkpt lat="45.94999" lon="6.55597">
        <ele>2339</ele>
        <time>2026-02-02T09:22:59Z</time>
      </trkpt>
      <trkpt lat="45.94999" lon="6.55597">
        <ele>2339</ele>
        <time>2026-02-02T09:23:00Z</time>
      </trkpt>
      <trkpt lat="45.94999" lon="6.55597">
        <ele>2339</ele>
        <time>2026-02-02T09:23:01Z</time>
      </trkpt>
      <trkpt lat="45.94999" lon="6.55597">
        <ele>2339</ele>
        <time>2026-02-02T09:23:02Z</time>
      </trkpt>
      <trkpt lat="45.94999" lon="6.55597">
        <ele>2339</ele>
        <time>2026-02-02T09:23:03Z</time>
      </trkpt>
      <trkpt lat="45.95" lon="6.55598">
        <ele>2339</ele>
        <time>2026-02-02T09:23:04Z</time>
      </trkpt>
      <trkpt lat="45.95001" lon="6.55598">
        <ele>2339</ele>
        <time>2026-02-02T09:23:05Z</time>
      </trkpt>
      <trkpt lat="45.95001" lon="6.55599">
        <ele>2339</ele>
        <time>2026-02-02T09:23:06Z</time>
      </trkpt>
      <trkpt lat="45.95002" lon="6.55599">
        <ele>2342.1</ele>
        <time>2026-02-02T09:23:07Z</time>
      </trkpt>
      <trkpt lat="45.95002" lon="6.556">
        <ele>2342.1</ele>
        <time>2026-02-02T09:23:08Z</time>
      </trkpt>
      <trkpt lat="45.95003" lon="6.556">
        <ele>2342.1</ele>
        <time>2026-02-02T09:23:09Z</time>
      </trkpt>
      <trkpt lat="45.95004" lon="6.55601">
        <ele>2340.1</ele>
        <time>2026-02-02T09:23:10Z</time>
      </trkpt>
      <trkpt lat="45.95004" lon="6.55602">
        <ele>2340.1</ele>
        <time>2026-02-02T09:23:11Z</time>
      </trkpt>
      <trkpt lat="45.95005" lon="6.55602">
        <ele>2343.4</ele>
        <time>2026-02-02T09:23:12Z</time>
      </trkpt>
      <trkpt lat="45.95005" lon="6.55603">
        <ele>2343.4</ele>
        <time>2026-02-02T09:23:13Z</time>
      </trkpt>
      <trkpt lat="45.95006" lon="6.55605">
        <ele>2343.4</ele>
        <time>2026-02-02T09:23:14Z</time>
      </trkpt>
      <trkpt lat="45.95006" lon="6.55605">
        <ele>2343.4</ele>
        <time>2026-02-02T09:23:15Z</time>
      </trkpt>
      <trkpt lat="45.95007" lon="6.55605">
        <ele>2343.4</ele>
        <time>2026-02-02T09:23:16Z</time>
      </trkpt>
      <trkpt lat="45.95007" lon="6.55606">
        <ele>2341.9</ele>
        <time>2026-02-02T09:23:17Z</time>
      </trkpt>
      <trkpt lat="45.95008" lon="6.55606">
        <ele>2345.2</ele>
        <time>2026-02-02T09:23:18Z</time>
      </trkpt>
      <trkpt lat="45.95008" lon="6.55606">
        <ele>2345.2</ele>
        <time>2026-02-02T09:23:19Z</time>
      </trkpt>
      <trkpt lat="45.95008" lon="6.55605">
        <ele>2345.2</ele>
        <time>2026-02-02T09:23:20Z</time>
      </trkpt>
      <trkpt lat="45.95008" lon="6.55604">
        <ele>2346.7</ele>
        <time>2026-02-02T09:23:21Z</time>
      </trkpt>
      <trkpt lat="45.95007" lon="6.55603">
        <ele>2343.4</ele>
        <time>2026-02-02T09:23:22Z</time>
      </trkpt>
      <trkpt lat="45.95007" lon="6.55603">
        <ele>2343.4</ele>
        <time>2026-02-02T09:23:23Z</time>
      </trkpt>
      <trkpt lat="45.95007" lon="6.55604">
        <ele>2343.4</ele>
        <time>2026-02-02T09:23:24Z</time>
      </trkpt>
      <trkpt lat="45.95007" lon="6.55604">
        <ele>2343.4</ele>
        <time>2026-02-02T09:23:25Z</time>
      </trkpt>
      <trkpt lat="45.95006" lon="6.55604">
        <ele>2343.4</ele>
        <time>2026-02-02T09:23:26Z</time>
      </trkpt>
      <trkpt lat="45.95006" lon="6.55604">
        <ele>2343.4</ele>
        <time>2026-02-02T09:23:27Z</time>
      </trkpt>
      <trkpt lat="45.95006" lon="6.55604">
        <ele>2343.4</ele>
        <time>2026-02-02T09:23:28Z</time>
      </trkpt>
      <trkpt lat="45.95006" lon="6.55604">
        <ele>2343.4</ele>
        <time>2026-02-02T09:23:29Z</time>
      </trkpt>
      <trkpt lat="45.95006" lon="6.55604">
        <ele>2343.4</ele>
        <time>2026-02-02T09:23:30Z</time>
      </trkpt>
      <trkpt lat="45.95006" lon="6.55605">
        <ele>2343.4</ele>
        <time>2026-02-02T09:23:31Z</time>
      </trkpt>
      <trkpt lat="45.95006" lon="6.55605">
        <ele>2343.4</ele>
        <time>2026-02-02T09:23:32Z</time>
      </trkpt>
      <trkpt lat="45.95006" lon="6.55604">
        <ele>2343.4</ele>
        <time>2026-02-02T09:23:33Z</time>
      </trkpt>
      <trkpt lat="45.95006" lon="6.55605">
        <ele>2343.4</ele>
        <time>2026-02-02T09:23:34Z</time>
      </trkpt>
      <trkpt lat="45.95006" lon="6.55605">
        <ele>2343.4</ele>
        <time>2026-02-02T09:23:35Z</time>
      </trkpt>
      <trkpt lat="45.95006" lon="6.55604">
        <ele>2343.4</ele>
        <time>2026-02-02T09:23:36Z</time>
      </trkpt>
      <trkpt lat="45.95006" lon="6.55604">
        <ele>2343.4</ele>
        <time>2026-02-02T09:23:37Z</time>
      </trkpt>
      <trkpt lat="45.95007" lon="6.55603">
        <ele>2343.4</ele>
        <time>2026-02-02T09:23:38Z</time>
      </trkpt>
      <trkpt lat="45.95007" lon="6.55602">
        <ele>2343.4</ele>
        <time>2026-02-02T09:23:39Z</time>
      </trkpt>
      <trkpt lat="45.95008" lon="6.556">
        <ele>2348.3</ele>
        <time>2026-02-02T09:23:40Z</time>
      </trkpt>
      <trkpt lat="45.95007" lon="6.55598">
        <ele>2345.2</ele>
        <time>2026-02-02T09:23:42Z</time>
      </trkpt>
      <trkpt lat="45.95007" lon="6.55596">
        <ele>2347.2</ele>
        <time>2026-02-02T09:23:43Z</time>
      </trkpt>
      <trkpt lat="45.95007" lon="6.55595">
        <ele>2347.2</ele>
        <time>2026-02-02T09:23:44Z</time>
      </trkpt>
      <trkpt lat="45.95008" lon="6.55593">
        <ele>2347.2</ele>
        <time>2026-02-02T09:23:45Z</time>
      </trkpt>
      <trkpt lat="45.95008" lon="6.55592">
        <ele>2351.9</ele>
        <time>2026-02-02T09:23:46Z</time>
      </trkpt>
      <trkpt lat="45.95008" lon="6.55591">
        <ele>2351.9</ele>
        <time>2026-02-02T09:23:47Z</time>
      </trkpt>
      <trkpt lat="45.95008" lon="6.5559">
        <ele>2351.9</ele>
        <time>2026-02-02T09:23:48Z</time>
      </trkpt>
      <trkpt lat="45.95008" lon="6.55591">
        <ele>2351.9</ele>
        <time>2026-02-02T09:23:50Z</time>
      </trkpt>
      <trkpt lat="45.95008" lon="6.55591">
        <ele>2351.9</ele>
        <time>2026-02-02T09:23:51Z</time>
      </trkpt>
      <trkpt lat="45.95008" lon="6.55591">
        <ele>2351.9</ele>
        <time>2026-02-02T09:23:52Z</time>
      </trkpt>
      <trkpt lat="45.95008" lon="6.55591">
        <ele>2351.9</ele>
        <time>2026-02-02T09:23:53Z</time>
      </trkpt>
      <trkpt lat="45.95008" lon="6.55591">
        <ele>2351.9</ele>
        <time>2026-02-02T09:23:54Z</time>
      </trkpt>
      <trkpt lat="45.95008" lon="6.55591">
        <ele>2351.9</ele>
        <time>2026-02-02T09:23:55Z</time>
      </trkpt>
      <trkpt lat="45.95009" lon="6.55591">
        <ele>2351.9</ele>
        <time>2026-02-02T09:23:56Z</time>
      </trkpt>
      <trkpt lat="45.95009" lon="6.55591">
        <ele>2351.9</ele>
        <time>2026-02-02T09:23:57Z</time>
      </trkpt>
      <trkpt lat="45.95009" lon="6.55591">
        <ele>2351.9</ele>
        <time>2026-02-02T09:23:58Z</time>
      </trkpt>
      <trkpt lat="45.95009" lon="6.55591">
        <ele>2351.9</ele>
        <time>2026-02-02T09:23:59Z</time>
      </trkpt>
      <trkpt lat="45.95009" lon="6.55591">
        <ele>2351.9</ele>
        <time>2026-02-02T09:24:00Z</time>
      </trkpt>
      <trkpt lat="45.95009" lon="6.5559">
        <ele>2351.9</ele>
        <time>2026-02-02T09:24:01Z</time>
      </trkpt>
      <trkpt lat="45.95009" lon="6.5559">
        <ele>2351.9</ele>
        <time>2026-02-02T09:24:02Z</time>
      </trkpt>
      <trkpt lat="45.95009" lon="6.5559">
        <ele>2351.9</ele>
        <time>2026-02-02T09:24:03Z</time>
      </trkpt>
      <trkpt lat="45.95009" lon="6.5559">
        <ele>2351.9</ele>
        <time>2026-02-02T09:24:04Z</time>
      </trkpt>
      <trkpt lat="45.95009" lon="6.55591">
        <ele>2351.9</ele>
        <time>2026-02-02T09:24:05Z</time>
      </trkpt>
      <trkpt lat="45.95009" lon="6.55591">
        <ele>2351.9</ele>
        <time>2026-02-02T09:24:06Z</time>
      </trkpt>
      <trkpt lat="45.95009" lon="6.55591">
        <ele>2351.9</ele>
        <time>2026-02-02T09:24:07Z</time>
      </trkpt>
      <trkpt lat="45.95009" lon="6.55591">
        <ele>2351.9</ele>
        <time>2026-02-02T09:24:08Z</time>
      </trkpt>
      <trkpt lat="45.95009" lon="6.55591">
        <ele>2351.9</ele>
        <time>2026-02-02T09:24:09Z</time>
      </trkpt>
      <trkpt lat="45.95009" lon="6.5559">
        <ele>2351.9</ele>
        <time>2026-02-02T09:24:10Z</time>
      </trkpt>
      <trkpt lat="45.95009" lon="6.55589">
        <ele>2351.9</ele>
        <time>2026-02-02T09:24:11Z</time>
      </trkpt>
      <trkpt lat="45.95009" lon="6.55588">
        <ele>2351.9</ele>
        <time>2026-02-02T09:24:12Z</time>
      </trkpt>
      <trkpt lat="45.95009" lon="6.55588">
        <ele>2351.9</ele>
        <time>2026-02-02T09:24:13Z</time>
      </trkpt>
      <trkpt lat="45.95009" lon="6.55587">
        <ele>2354</ele>
        <time>2026-02-02T09:24:14Z</time>
      </trkpt>
      <trkpt lat="45.95009" lon="6.55587">
        <ele>2354</ele>
        <time>2026-02-02T09:24:15Z</time>
      </trkpt>
      <trkpt lat="45.95008" lon="6.55587">
        <ele>2354</ele>
        <time>2026-02-02T09:24:16Z</time>
      </trkpt>
      <trkpt lat="45.95008" lon="6.55587">
        <ele>2354</ele>
        <time>2026-02-02T09:24:17Z</time>
      </trkpt>
      <trkpt lat="45.95008" lon="6.55587">
        <ele>2354</ele>
        <time>2026-02-02T09:24:18Z</time>
      </trkpt>
      <trkpt lat="45.95007" lon="6.55587">
        <ele>2352</ele>
        <time>2026-02-02T09:24:19Z</time>
      </trkpt>
      <trkpt lat="45.95007" lon="6.55586">
        <ele>2352</ele>
        <time>2026-02-02T09:24:20Z</time>
      </trkpt>
      <trkpt lat="45.95007" lon="6.55586">
        <ele>2352</ele>
        <time>2026-02-02T09:24:21Z</time>
      </trkpt>
      <trkpt lat="45.95008" lon="6.55586">
        <ele>2352</ele>
        <time>2026-02-02T09:24:22Z</time>
      </trkpt>
      <trkpt lat="45.95008" lon="6.55586">
        <ele>2352</ele>
        <time>2026-02-02T09:24:23Z</time>
      </trkpt>
      <trkpt lat="45.95007" lon="6.55586">
        <ele>2352</ele>
        <time>2026-02-02T09:24:24Z</time>
      </trkpt>
      <trkpt lat="45.95007" lon="6.55585">
        <ele>2352</ele>
        <time>2026-02-02T09:24:25Z</time>
      </trkpt>
      <trkpt lat="45.95007" lon="6.55585">
        <ele>2352</ele>
        <time>2026-02-02T09:24:26Z</time>
      </trkpt>
      <trkpt lat="45.95007" lon="6.55585">
        <ele>2352</ele>
        <time>2026-02-02T09:24:27Z</time>
      </trkpt>
      <trkpt lat="45.95007" lon="6.55585">
        <ele>2352</ele>
        <time>2026-02-02T09:24:28Z</time>
      </trkpt>
      <trkpt lat="45.95007" lon="6.55585">
        <ele>2352</ele>
        <time>2026-02-02T09:24:29Z</time>
      </trkpt>
      <trkpt lat="45.95008" lon="6.55585">
        <ele>2354</ele>
        <time>2026-02-02T09:24:30Z</time>
      </trkpt>
      <trkpt lat="45.95009" lon="6.55585">
        <ele>2354</ele>
        <time>2026-02-02T09:24:31Z</time>
      </trkpt>
      <trkpt lat="45.95009" lon="6.55585">
        <ele>2354</ele>
        <time>2026-02-02T09:24:32Z</time>
      </trkpt>
      <trkpt lat="45.9501" lon="6.55586">
        <ele>2354</ele>
        <time>2026-02-02T09:24:33Z</time>
      </trkpt>
      <trkpt lat="45.9501" lon="6.55588">
        <ele>2351.9</ele>
        <time>2026-02-02T09:24:34Z</time>
      </trkpt>
      <trkpt lat="45.95011" lon="6.55589">
        <ele>2354.5</ele>
        <time>2026-02-02T09:24:35Z</time>
      </trkpt>
      <trkpt lat="45.95011" lon="6.5559">
        <ele>2354.5</ele>
        <time>2026-02-02T09:24:36Z</time>
      </trkpt>
      <trkpt lat="45.95011" lon="6.55591">
        <ele>2354.5</ele>
        <time>2026-02-02T09:24:37Z</time>
      </trkpt>
      <trkpt lat="45.95011" lon="6.55592">
        <ele>2354.5</ele>
        <time>2026-02-02T09:24:38Z</time>
      </trkpt>
      <trkpt lat="45.95011" lon="6.55592">
        <ele>2354.5</ele>
        <time>2026-02-02T09:24:39Z</time>
      </trkpt>
      <trkpt lat="45.95011" lon="6.55591">
        <ele>2354.5</ele>
        <time>2026-02-02T09:24:40Z</time>
      </trkpt>
      <trkpt lat="45.9501" lon="6.55591">
        <ele>2351.9</ele>
        <time>2026-02-02T09:24:41Z</time>
      </trkpt>
      <trkpt lat="45.9501" lon="6.55591">
        <ele>2351.9</ele>
        <time>2026-02-02T09:24:42Z</time>
      </trkpt>
      <trkpt lat="45.9501" lon="6.55591">
        <ele>2351.9</ele>
        <time>2026-02-02T09:24:43Z</time>
      </trkpt>
      <trkpt lat="45.9501" lon="6.55591">
        <ele>2351.9</ele>
        <time>2026-02-02T09:24:44Z</time>
      </trkpt>
      <trkpt lat="45.9501" lon="6.55591">
        <ele>2351.9</ele>
        <time>2026-02-02T09:24:45Z</time>
      </trkpt>
      <trkpt lat="45.9501" lon="6.55591">
        <ele>2351.9</ele>
        <time>2026-02-02T09:24:46Z</time>
      </trkpt>
      <trkpt lat="45.9501" lon="6.55591">
        <ele>2351.9</ele>
        <time>2026-02-02T09:24:47Z</time>
      </trkpt>
      <trkpt lat="45.9501" lon="6.55591">
        <ele>2351.9</ele>
        <time>2026-02-02T09:24:48Z</time>
      </trkpt>
      <trkpt lat="45.9501" lon="6.55591">
        <ele>2351.9</ele>
        <time>2026-02-02T09:24:49Z</time>
      </trkpt>
      <trkpt lat="45.9501" lon="6.55591">
        <ele>2351.9</ele>
        <time>2026-02-02T09:24:50Z</time>
      </trkpt>
      <trkpt lat="45.95009" lon="6.55591">
        <ele>2351.9</ele>
        <time>2026-02-02T09:24:51Z</time>
      </trkpt>
      <trkpt lat="45.9501" lon="6.55591">
        <ele>2351.9</ele>
        <time>2026-02-02T09:24:52Z</time>
      </trkpt>
      <trkpt lat="45.9501" lon="6.55591">
        <ele>2351.9</ele>
        <time>2026-02-02T09:24:53Z</time>
      </trkpt>
      <trkpt lat="45.95009" lon="6.55591">
        <ele>2351.9</ele>
        <time>2026-02-02T09:24:54Z</time>
      </trkpt>
      <trkpt lat="45.95009" lon="6.55591">
        <ele>2351.9</ele>
        <time>2026-02-02T09:24:55Z</time>
      </trkpt>
      <trkpt lat="45.95009" lon="6.55591">
        <ele>2351.9</ele>
        <time>2026-02-02T09:24:56Z</time>
      </trkpt>
      <trkpt lat="45.9501" lon="6.55591">
        <ele>2351.9</ele>
        <time>2026-02-02T09:24:57Z</time>
      </trkpt>
      <trkpt lat="45.9501" lon="6.55592">
        <ele>2351.9</ele>
        <time>2026-02-02T09:24:58Z</time>
      </trkpt>
      <trkpt lat="45.95011" lon="6.55593">
        <ele>2352.9</ele>
        <time>2026-02-02T09:24:59Z</time>
      </trkpt>
      <trkpt lat="45.95012" lon="6.55593">
        <ele>2352.9</ele>
        <time>2026-02-02T09:25:00Z</time>
      </trkpt>
      <trkpt lat="45.95013" lon="6.55594">
        <ele>2352.9</ele>
        <time>2026-02-02T09:25:01Z</time>
      </trkpt>
      <trkpt lat="45.95013" lon="6.55595">
        <ele>2352.9</ele>
        <time>2026-02-02T09:25:02Z</time>
      </trkpt>
      <trkpt lat="45.95014" lon="6.55596">
        <ele>2356</ele>
        <time>2026-02-02T09:25:03Z</time>
      </trkpt>
      <trkpt lat="45.95014" lon="6.55597">
        <ele>2354.7</ele>
        <time>2026-02-02T09:25:04Z</time>
      </trkpt>
      <trkpt lat="45.95014" lon="6.55597">
        <ele>2354.7</ele>
        <time>2026-02-02T09:25:05Z</time>
      </trkpt>
      <trkpt lat="45.95015" lon="6.55598">
        <ele>2354.7</ele>
        <time>2026-02-02T09:25:06Z</time>
      </trkpt>
      <trkpt lat="45.95015" lon="6.55597">
        <ele>2354.7</ele>
        <time>2026-02-02T09:25:07Z</time>
      </trkpt>
      <trkpt lat="45.95015" lon="6.55597">
        <ele>2354.7</ele>
        <time>2026-02-02T09:25:08Z</time>
      </trkpt>
      <trkpt lat="45.95016" lon="6.55595">
        <ele>2356</ele>
        <time>2026-02-02T09:25:09Z</time>
      </trkpt>
      <trkpt lat="45.95016" lon="6.55594">
        <ele>2356</ele>
        <time>2026-02-02T09:25:10Z</time>
      </trkpt>
      <trkpt lat="45.95016" lon="6.55593">
        <ele>2356</ele>
        <time>2026-02-02T09:25:11Z</time>
      </trkpt>
      <trkpt lat="45.95016" lon="6.55592">
        <ele>2356</ele>
        <time>2026-02-02T09:25:12Z</time>
      </trkpt>
      <trkpt lat="45.95016" lon="6.55591">
        <ele>2357.3</ele>
        <time>2026-02-02T09:25:13Z</time>
      </trkpt>
      <trkpt lat="45.95015" lon="6.5559">
        <ele>2357.3</ele>
        <time>2026-02-02T09:25:14Z</time>
      </trkpt>
      <trkpt lat="45.95015" lon="6.55589">
        <ele>2357.3</ele>
        <time>2026-02-02T09:25:15Z</time>
      </trkpt>
      <trkpt lat="45.95015" lon="6.55588">
        <ele>2358.8</ele>
        <time>2026-02-02T09:25:16Z</time>
      </trkpt>
      <trkpt lat="45.95014" lon="6.55588">
        <ele>2357.3</ele>
        <time>2026-02-02T09:25:17Z</time>
      </trkpt>
      <trkpt lat="45.95014" lon="6.55588">
        <ele>2357.3</ele>
        <time>2026-02-02T09:25:18Z</time>
      </trkpt>
      <trkpt lat="45.95014" lon="6.55588">
        <ele>2357.3</ele>
        <time>2026-02-02T09:25:19Z</time>
      </trkpt>
      <trkpt lat="45.95014" lon="6.55588">
        <ele>2357.3</ele>
        <time>2026-02-02T09:25:20Z</time>
      </trkpt>
      <trkpt lat="45.95014" lon="6.55589">
        <ele>2357.3</ele>
        <time>2026-02-02T09:25:21Z</time>
      </trkpt>
      <trkpt lat="45.95014" lon="6.55589">
        <ele>2357.3</ele>
        <time>2026-02-02T09:25:22Z</time>
      </trkpt>
      <trkpt lat="45.95014" lon="6.55589">
        <ele>2357.3</ele>
        <time>2026-02-02T09:25:23Z</time>
      </trkpt>
      <trkpt lat="45.95014" lon="6.55589">
        <ele>2357.3</ele>
        <time>2026-02-02T09:25:24Z</time>
      </trkpt>
      <trkpt lat="45.95014" lon="6.55589">
        <ele>2357.3</ele>
        <time>2026-02-02T09:25:25Z</time>
      </trkpt>
      <trkpt lat="45.95014" lon="6.55589">
        <ele>2357.3</ele>
        <time>2026-02-02T09:25:26Z</time>
      </trkpt>
      <trkpt lat="45.95014" lon="6.55589">
        <ele>2357.3</ele>
        <time>2026-02-02T09:25:27Z</time>
      </trkpt>
      <trkpt lat="45.95014" lon="6.55589">
        <ele>2357.3</ele>
        <time>2026-02-02T09:25:28Z</time>
      </trkpt>
      <trkpt lat="45.95014" lon="6.55589">
        <ele>2357.3</ele>
        <time>2026-02-02T09:25:29Z</time>
      </trkpt>
      <trkpt lat="45.95014" lon="6.55589">
        <ele>2357.3</ele>
        <time>2026-02-02T09:25:30Z</time>
      </trkpt>
      <trkpt lat="45.95014" lon="6.55589">
        <ele>2357.3</ele>
        <time>2026-02-02T09:25:31Z</time>
      </trkpt>
      <trkpt lat="45.95014" lon="6.55589">
        <ele>2357.3</ele>
        <time>2026-02-02T09:25:32Z</time>
      </trkpt>
      <trkpt lat="45.95014" lon="6.55589">
        <ele>2357.3</ele>
        <time>2026-02-02T09:25:33Z</time>
      </trkpt>
      <trkpt lat="45.95014" lon="6.55589">
        <ele>2357.3</ele>
        <time>2026-02-02T09:25:34Z</time>
      </trkpt>
      <trkpt lat="45.95014" lon="6.55589">
        <ele>2357.3</ele>
        <time>2026-02-02T09:25:35Z</time>
      </trkpt>
      <trkpt lat="45.95014" lon="6.55589">
        <ele>2357.3</ele>
        <time>2026-02-02T09:25:36Z</time>
      </trkpt>
      <trkpt lat="45.95014" lon="6.55589">
        <ele>2357.3</ele>
        <time>2026-02-02T09:25:37Z</time>
      </trkpt>
      <trkpt lat="45.95014" lon="6.55589">
        <ele>2357.3</ele>
        <time>2026-02-02T09:25:38Z</time>
      </trkpt>
      <trkpt lat="45.95014" lon="6.55589">
        <ele>2357.3</ele>
        <time>2026-02-02T09:25:39Z</time>
      </trkpt>
      <trkpt lat="45.95014" lon="6.55589">
        <ele>2357.3</ele>
        <time>2026-02-02T09:25:40Z</time>
      </trkpt>
      <trkpt lat="45.95014" lon="6.55589">
        <ele>2357.3</ele>
        <time>2026-02-02T09:25:41Z</time>
      </trkpt>
      <trkpt lat="45.95014" lon="6.55589">
        <ele>2357.3</ele>
        <time>2026-02-02T09:25:42Z</time>
      </trkpt>
      <trkpt lat="45.95014" lon="6.55589">
        <ele>2357.3</ele>
        <time>2026-02-02T09:25:43Z</time>
      </trkpt>
      <trkpt lat="45.95014" lon="6.55589">
        <ele>2357.3</ele>
        <time>2026-02-02T09:25:44Z</time>
      </trkpt>
      <trkpt lat="45.95014" lon="6.55589">
        <ele>2357.3</ele>
        <time>2026-02-02T09:25:45Z</time>
      </trkpt>
      <trkpt lat="45.95014" lon="6.55589">
        <ele>2357.3</ele>
        <time>2026-02-02T09:25:46Z</time>
      </trkpt>
      <trkpt lat="45.95014" lon="6.55589">
        <ele>2357.3</ele>
        <time>2026-02-02T09:25:47Z</time>
      </trkpt>
      <trkpt lat="45.95014" lon="6.55589">
        <ele>2357.3</ele>
        <time>2026-02-02T09:25:48Z</time>
      </trkpt>
      <trkpt lat="45.95014" lon="6.55589">
        <ele>2357.3</ele>
        <time>2026-02-02T09:25:49Z</time>
      </trkpt>
      <trkpt lat="45.95014" lon="6.55589">
        <ele>2357.3</ele>
        <time>2026-02-02T09:25:50Z</time>
      </trkpt>
      <trkpt lat="45.95014" lon="6.55588">
        <ele>2357.3</ele>
        <time>2026-02-02T09:25:51Z</time>
      </trkpt>
      <trkpt lat="45.95014" lon="6.55588">
        <ele>2358.8</ele>
        <time>2026-02-02T09:25:52Z</time>
      </trkpt>
      <trkpt lat="45.95014" lon="6.55588">
        <ele>2358.8</ele>
        <time>2026-02-02T09:25:53Z</time>
      </trkpt>
      <trkpt lat="45.95015" lon="6.55588">
        <ele>2357.3</ele>
        <time>2026-02-02T09:25:54Z</time>
      </trkpt>
      <trkpt lat="45.95014" lon="6.55589">
        <ele>2357.3</ele>
        <time>2026-02-02T09:25:55Z</time>
      </trkpt>
      <trkpt lat="45.95014" lon="6.55588">
        <ele>2357.3</ele>
        <time>2026-02-02T09:25:56Z</time>
      </trkpt>
      <trkpt lat="45.95014" lon="6.55589">
        <ele>2357.3</ele>
        <time>2026-02-02T09:25:57Z</time>
      </trkpt>
      <trkpt lat="45.95014" lon="6.55589">
        <ele>2357.3</ele>
        <time>2026-02-02T09:25:58Z</time>
      </trkpt>
      <trkpt lat="45.95014" lon="6.55589">
        <ele>2357.3</ele>
        <time>2026-02-02T09:25:59Z</time>
      </trkpt>
      <trkpt lat="45.95014" lon="6.55589">
        <ele>2357.3</ele>
        <time>2026-02-02T09:26:00Z</time>
      </trkpt>
      <trkpt lat="45.95014" lon="6.55589">
        <ele>2357.3</ele>
        <time>2026-02-02T09:26:01Z</time>
      </trkpt>
      <trkpt lat="45.95015" lon="6.55589">
        <ele>2357.3</ele>
        <time>2026-02-02T09:26:02Z</time>
      </trkpt>
      <trkpt lat="45.95015" lon="6.55591">
        <ele>2357.3</ele>
        <time>2026-02-02T09:26:03Z</time>
      </trkpt>
      <trkpt lat="45.95016" lon="6.55592">
        <ele>2357.3</ele>
        <time>2026-02-02T09:26:04Z</time>
      </trkpt>
      <trkpt lat="45.95017" lon="6.55593">
        <ele>2356</ele>
        <time>2026-02-02T09:26:05Z</time>
      </trkpt>
      <trkpt lat="45.95017" lon="6.55594">
        <ele>2359.1</ele>
        <time>2026-02-02T09:26:06Z</time>
      </trkpt>
      <trkpt lat="45.95017" lon="6.55595">
        <ele>2359.1</ele>
        <time>2026-02-02T09:26:07Z</time>
      </trkpt>
      <trkpt lat="45.95018" lon="6.55596">
        <ele>2359.1</ele>
        <time>2026-02-02T09:26:08Z</time>
      </trkpt>
      <trkpt lat="45.95018" lon="6.55596">
        <ele>2359.1</ele>
        <time>2026-02-02T09:26:09Z</time>
      </trkpt>
      <trkpt lat="45.95018" lon="6.55597">
        <ele>2357.9</ele>
        <time>2026-02-02T09:26:10Z</time>
      </trkpt>
      <trkpt lat="45.95019" lon="6.55598">
        <ele>2357.9</ele>
        <time>2026-02-02T09:26:11Z</time>
      </trkpt>
      <trkpt lat="45.95019" lon="6.55597">
        <ele>2357.9</ele>
        <time>2026-02-02T09:26:12Z</time>
      </trkpt>
      <trkpt lat="45.95019" lon="6.55597">
        <ele>2357.9</ele>
        <time>2026-02-02T09:26:13Z</time>
      </trkpt>
      <trkpt lat="45.9502" lon="6.55596">
        <ele>2361.3</ele>
        <time>2026-02-02T09:26:14Z</time>
      </trkpt>
      <trkpt lat="45.9502" lon="6.55595">
        <ele>2362.5</ele>
        <time>2026-02-02T09:26:15Z</time>
      </trkpt>
      <trkpt lat="45.95019" lon="6.55594">
        <ele>2359.1</ele>
        <time>2026-02-02T09:26:16Z</time>
      </trkpt>
      <trkpt lat="45.95019" lon="6.55594">
        <ele>2359.1</ele>
        <time>2026-02-02T09:26:17Z</time>
      </trkpt>
      <trkpt lat="45.95018" lon="6.55595">
        <ele>2359.1</ele>
        <time>2026-02-02T09:26:18Z</time>
      </trkpt>
      <trkpt lat="45.95018" lon="6.55595">
        <ele>2359.1</ele>
        <time>2026-02-02T09:26:19Z</time>
      </trkpt>
      <trkpt lat="45.95017" lon="6.55595">
        <ele>2359.1</ele>
        <time>2026-02-02T09:26:20Z</time>
      </trkpt>
      <trkpt lat="45.95017" lon="6.55596">
        <ele>2359.1</ele>
        <time>2026-02-02T09:26:21Z</time>
      </trkpt>
      <trkpt lat="45.95017" lon="6.55596">
        <ele>2359.1</ele>
        <time>2026-02-02T09:26:22Z</time>
      </trkpt>
      <trkpt lat="45.95017" lon="6.55596">
        <ele>2359.1</ele>
        <time>2026-02-02T09:26:23Z</time>
      </trkpt>
      <trkpt lat="45.95017" lon="6.55596">
        <ele>2359.1</ele>
        <time>2026-02-02T09:26:24Z</time>
      </trkpt>
      <trkpt lat="45.95017" lon="6.55596">
        <ele>2356</ele>
        <time>2026-02-02T09:26:25Z</time>
      </trkpt>
      <trkpt lat="45.95017" lon="6.55596">
        <ele>2356</ele>
        <time>2026-02-02T09:26:26Z</time>
      </trkpt>
      <trkpt lat="45.95016" lon="6.55596">
        <ele>2356</ele>
        <time>2026-02-02T09:26:27Z</time>
      </trkpt>
      <trkpt lat="45.95016" lon="6.55596">
        <ele>2356</ele>
        <time>2026-02-02T09:26:28Z</time>
      </trkpt>
      <trkpt lat="45.95016" lon="6.55596">
        <ele>2356</ele>
        <time>2026-02-02T09:26:29Z</time>
      </trkpt>
      <trkpt lat="45.95016" lon="6.55596">
        <ele>2356</ele>
        <time>2026-02-02T09:26:30Z</time>
      </trkpt>
      <trkpt lat="45.95016" lon="6.55596">
        <ele>2356</ele>
        <time>2026-02-02T09:26:31Z</time>
      </trkpt>
      <trkpt lat="45.95016" lon="6.55596">
        <ele>2356</ele>
        <time>2026-02-02T09:26:32Z</time>
      </trkpt>
      <trkpt lat="45.95016" lon="6.55596">
        <ele>2356</ele>
        <time>2026-02-02T09:26:33Z</time>
      </trkpt>
      <trkpt lat="45.95016" lon="6.55596">
        <ele>2354.7</ele>
        <time>2026-02-02T09:26:34Z</time>
      </trkpt>
      <trkpt lat="45.95016" lon="6.55596">
        <ele>2354.7</ele>
        <time>2026-02-02T09:26:35Z</time>
      </trkpt>
      <trkpt lat="45.95017" lon="6.55596">
        <ele>2359.1</ele>
        <time>2026-02-02T09:26:37Z</time>
      </trkpt>
      <trkpt lat="45.95017" lon="6.55596">
        <ele>2359.1</ele>
        <time>2026-02-02T09:26:38Z</time>
      </trkpt>
      <trkpt lat="45.95017" lon="6.55596">
        <ele>2359.1</ele>
        <time>2026-02-02T09:26:39Z</time>
      </trkpt>
      <trkpt lat="45.95017" lon="6.55596">
        <ele>2359.1</ele>
        <time>2026-02-02T09:26:40Z</time>
      </trkpt>
      <trkpt lat="45.95017" lon="6.55596">
        <ele>2359.1</ele>
        <time>2026-02-02T09:26:41Z</time>
      </trkpt>
      <trkpt lat="45.95017" lon="6.55596">
        <ele>2359.1</ele>
        <time>2026-02-02T09:26:42Z</time>
      </trkpt>
      <trkpt lat="45.95017" lon="6.55596">
        <ele>2359.1</ele>
        <time>2026-02-02T09:26:43Z</time>
      </trkpt>
      <trkpt lat="45.95017" lon="6.55596">
        <ele>2359.1</ele>
        <time>2026-02-02T09:26:44Z</time>
      </trkpt>
      <trkpt lat="45.95017" lon="6.55596">
        <ele>2359.1</ele>
        <time>2026-02-02T09:26:45Z</time>
      </trkpt>
      <trkpt lat="45.95017" lon="6.55596">
        <ele>2359.1</ele>
        <time>2026-02-02T09:26:46Z</time>
      </trkpt>
      <trkpt lat="45.95017" lon="6.55596">
        <ele>2359.1</ele>
        <time>2026-02-02T09:26:47Z</time>
      </trkpt>
      <trkpt lat="45.95017" lon="6.55596">
        <ele>2359.1</ele>
        <time>2026-02-02T09:26:48Z</time>
      </trkpt>
      <trkpt lat="45.95017" lon="6.55596">
        <ele>2359.1</ele>
        <time>2026-02-02T09:26:49Z</time>
      </trkpt>
      <trkpt lat="45.95017" lon="6.55596">
        <ele>2359.1</ele>
        <time>2026-02-02T09:26:50Z</time>
      </trkpt>
      <trkpt lat="45.95017" lon="6.55596">
        <ele>2359.1</ele>
        <time>2026-02-02T09:26:51Z</time>
      </trkpt>
      <trkpt lat="45.95017" lon="6.55596">
        <ele>2359.1</ele>
        <time>2026-02-02T09:26:52Z</time>
      </trkpt>
      <trkpt lat="45.95017" lon="6.55596">
        <ele>2359.1</ele>
        <time>2026-02-02T09:26:53Z</time>
      </trkpt>
      <trkpt lat="45.95017" lon="6.55596">
        <ele>2359.1</ele>
        <time>2026-02-02T09:26:54Z</time>
      </trkpt>
      <trkpt lat="45.95017" lon="6.55596">
        <ele>2359.1</ele>
        <time>2026-02-02T09:26:55Z</time>
      </trkpt>
      <trkpt lat="45.95017" lon="6.55596">
        <ele>2359.1</ele>
        <time>2026-02-02T09:26:56Z</time>
      </trkpt>
      <trkpt lat="45.95017" lon="6.55596">
        <ele>2359.1</ele>
        <time>2026-02-02T09:26:57Z</time>
      </trkpt>
      <trkpt lat="45.95017" lon="6.55596">
        <ele>2359.1</ele>
        <time>2026-02-02T09:26:58Z</time>
      </trkpt>
      <trkpt lat="45.95017" lon="6.55596">
        <ele>2359.1</ele>
        <time>2026-02-02T09:26:59Z</time>
      </trkpt>
      <trkpt lat="45.95017" lon="6.55596">
        <ele>2359.1</ele>
        <time>2026-02-02T09:27:00Z</time>
      </trkpt>
      <trkpt lat="45.95017" lon="6.55596">
        <ele>2359.1</ele>
        <time>2026-02-02T09:27:01Z</time>
      </trkpt>
      <trkpt lat="45.95017" lon="6.55596">
        <ele>2359.1</ele>
        <time>2026-02-02T09:27:02Z</time>
      </trkpt>
      <trkpt lat="45.95017" lon="6.55596">
        <ele>2359.1</ele>
        <time>2026-02-02T09:27:03Z</time>
      </trkpt>
      <trkpt lat="45.95017" lon="6.55596">
        <ele>2359.1</ele>
        <time>2026-02-02T09:27:04Z</time>
      </trkpt>
      <trkpt lat="45.95017" lon="6.55596">
        <ele>2359.1</ele>
        <time>2026-02-02T09:27:05Z</time>
      </trkpt>
      <trkpt lat="45.95017" lon="6.55596">
        <ele>2359.1</ele>
        <time>2026-02-02T09:27:06Z</time>
      </trkpt>
      <trkpt lat="45.95017" lon="6.55596">
        <ele>2359.1</ele>
        <time>2026-02-02T09:27:07Z</time>
      </trkpt>
      <trkpt lat="45.95017" lon="6.55596">
        <ele>2359.1</ele>
        <time>2026-02-02T09:27:08Z</time>
      </trkpt>
      <trkpt lat="45.95017" lon="6.55596">
        <ele>2359.1</ele>
        <time>2026-02-02T09:27:09Z</time>
      </trkpt>
      <trkpt lat="45.95017" lon="6.55596">
        <ele>2359.1</ele>
        <time>2026-02-02T09:27:10Z</time>
      </trkpt>
      <trkpt lat="45.95017" lon="6.55596">
        <ele>2359.1</ele>
        <time>2026-02-02T09:27:11Z</time>
      </trkpt>
      <trkpt lat="45.95017" lon="6.55596">
        <ele>2359.1</ele>
        <time>2026-02-02T09:27:12Z</time>
      </trkpt>
      <trkpt lat="45.95017" lon="6.55596">
        <ele>2359.1</ele>
        <time>2026-02-02T09:27:13Z</time>
      </trkpt>
      <trkpt lat="45.95017" lon="6.55596">
        <ele>2359.1</ele>
        <time>2026-02-02T09:27:14Z</time>
      </trkpt>
      <trkpt lat="45.95017" lon="6.55596">
        <ele>2359.1</ele>
        <time>2026-02-02T09:27:15Z</time>
      </trkpt>
      <trkpt lat="45.95017" lon="6.55596">
        <ele>2359.1</ele>
        <time>2026-02-02T09:27:16Z</time>
      </trkpt>
      <trkpt lat="45.95017" lon="6.55596">
        <ele>2359.1</ele>
        <time>2026-02-02T09:27:17Z</time>
      </trkpt>
      <trkpt lat="45.95017" lon="6.55596">
        <ele>2359.1</ele>
        <time>2026-02-02T09:27:18Z</time>
      </trkpt>
      <trkpt lat="45.95017" lon="6.55596">
        <ele>2359.1</ele>
        <time>2026-02-02T09:27:19Z</time>
      </trkpt>
      <trkpt lat="45.95017" lon="6.55596">
        <ele>2359.1</ele>
        <time>2026-02-02T09:27:20Z</time>
      </trkpt>
      <trkpt lat="45.95017" lon="6.55596">
        <ele>2359.1</ele>
        <time>2026-02-02T09:27:21Z</time>
      </trkpt>
      <trkpt lat="45.95017" lon="6.55596">
        <ele>2359.1</ele>
        <time>2026-02-02T09:27:22Z</time>
      </trkpt>
      <trkpt lat="45.95017" lon="6.55596">
        <ele>2359.1</ele>
        <time>2026-02-02T09:27:23Z</time>
      </trkpt>
      <trkpt lat="45.95017" lon="6.55596">
        <ele>2359.1</ele>
        <time>2026-02-02T09:27:24Z</time>
      </trkpt>
      <trkpt lat="45.95017" lon="6.55596">
        <ele>2359.1</ele>
        <time>2026-02-02T09:27:25Z</time>
      </trkpt>
      <trkpt lat="45.95017" lon="6.55596">
        <ele>2359.1</ele>
        <time>2026-02-02T09:27:26Z</time>
      </trkpt>
      <trkpt lat="45.95017" lon="6.55596">
        <ele>2359.1</ele>
        <time>2026-02-02T09:27:27Z</time>
      </trkpt>
      <trkpt lat="45.95017" lon="6.55596">
        <ele>2359.1</ele>
        <time>2026-02-02T09:27:28Z</time>
      </trkpt>
      <trkpt lat="45.95017" lon="6.55596">
        <ele>2359.1</ele>
        <time>2026-02-02T09:27:29Z</time>
      </trkpt>
      <trkpt lat="45.95017" lon="6.55596">
        <ele>2359.1</ele>
        <time>2026-02-02T09:27:30Z</time>
      </trkpt>
      <trkpt lat="45.95017" lon="6.55596">
        <ele>2359.1</ele>
        <time>2026-02-02T09:27:31Z</time>
      </trkpt>
      <trkpt lat="45.95017" lon="6.55596">
        <ele>2359.1</ele>
        <time>2026-02-02T09:27:32Z</time>
      </trkpt>
      <trkpt lat="45.95017" lon="6.55596">
        <ele>2359.1</ele>
        <time>2026-02-02T09:27:33Z</time>
      </trkpt>
      <trkpt lat="45.95017" lon="6.55596">
        <ele>2359.1</ele>
        <time>2026-02-02T09:27:34Z</time>
      </trkpt>
      <trkpt lat="45.95017" lon="6.55596">
        <ele>2359.1</ele>
        <time>2026-02-02T09:27:35Z</time>
      </trkpt>
      <trkpt lat="45.95017" lon="6.55596">
        <ele>2359.1</ele>
        <time>2026-02-02T09:27:36Z</time>
      </trkpt>
      <trkpt lat="45.95017" lon="6.55596">
        <ele>2359.1</ele>
        <time>2026-02-02T09:27:37Z</time>
      </trkpt>
      <trkpt lat="45.95017" lon="6.55596">
        <ele>2359.1</ele>
        <time>2026-02-02T09:27:38Z</time>
      </trkpt>
      <trkpt lat="45.95017" lon="6.55596">
        <ele>2359.1</ele>
        <time>2026-02-02T09:27:39Z</time>
      </trkpt>
      <trkpt lat="45.95017" lon="6.55596">
        <ele>2359.1</ele>
        <time>2026-02-02T09:27:40Z</time>
      </trkpt>
      <trkpt lat="45.95017" lon="6.55596">
        <ele>2359.1</ele>
        <time>2026-02-02T09:27:41Z</time>
      </trkpt>
      <trkpt lat="45.95017" lon="6.55596">
        <ele>2359.1</ele>
        <time>2026-02-02T09:27:42Z</time>
      </trkpt>
      <trkpt lat="45.95017" lon="6.55596">
        <ele>2359.1</ele>
        <time>2026-02-02T09:27:43Z</time>
      </trkpt>
      <trkpt lat="45.95017" lon="6.55596">
        <ele>2359.1</ele>
        <time>2026-02-02T09:27:44Z</time>
      </trkpt>
      <trkpt lat="45.95017" lon="6.55596">
        <ele>2359.1</ele>
        <time>2026-02-02T09:27:45Z</time>
      </trkpt>
      <trkpt lat="45.95017" lon="6.55596">
        <ele>2359.1</ele>
        <time>2026-02-02T09:27:46Z</time>
      </trkpt>
      <trkpt lat="45.95017" lon="6.55596">
        <ele>2359.1</ele>
        <time>2026-02-02T09:27:47Z</time>
      </trkpt>
      <trkpt lat="45.95017" lon="6.55596">
        <ele>2357.9</ele>
        <time>2026-02-02T09:27:48Z</time>
      </trkpt>
      <trkpt lat="45.95017" lon="6.55596">
        <ele>2357.9</ele>
        <time>2026-02-02T09:27:49Z</time>
      </trkpt>
      <trkpt lat="45.95017" lon="6.55596">
        <ele>2357.9</ele>
        <time>2026-02-02T09:27:50Z</time>
      </trkpt>
      <trkpt lat="45.95017" lon="6.55596">
        <ele>2357.9</ele>
        <time>2026-02-02T09:27:51Z</time>
      </trkpt>
      <trkpt lat="45.95017" lon="6.55596">
        <ele>2357.9</ele>
        <time>2026-02-02T09:27:52Z</time>
      </trkpt>
      <trkpt lat="45.95017" lon="6.55596">
        <ele>2357.9</ele>
        <time>2026-02-02T09:27:53Z</time>
      </trkpt>
      <trkpt lat="45.95017" lon="6.55596">
        <ele>2357.9</ele>
        <time>2026-02-02T09:27:54Z</time>
      </trkpt>
      <trkpt lat="45.95017" lon="6.55596">
        <ele>2357.9</ele>
        <time>2026-02-02T09:27:55Z</time>
      </trkpt>
      <trkpt lat="45.95017" lon="6.55596">
        <ele>2357.9</ele>
        <time>2026-02-02T09:27:56Z</time>
      </trkpt>
      <trkpt lat="45.95017" lon="6.55596">
        <ele>2357.9</ele>
        <time>2026-02-02T09:27:57Z</time>
      </trkpt>
      <trkpt lat="45.95017" lon="6.55596">
        <ele>2357.9</ele>
        <time>2026-02-02T09:27:58Z</time>
      </trkpt>
      <trkpt lat="45.95017" lon="6.55596">
        <ele>2357.9</ele>
        <time>2026-02-02T09:27:59Z</time>
      </trkpt>
      <trkpt lat="45.95017" lon="6.55596">
        <ele>2357.9</ele>
        <time>2026-02-02T09:28:00Z</time>
      </trkpt>
      <trkpt lat="45.95017" lon="6.55596">
        <ele>2357.9</ele>
        <time>2026-02-02T09:28:01Z</time>
      </trkpt>
      <trkpt lat="45.95017" lon="6.55596">
        <ele>2357.9</ele>
        <time>2026-02-02T09:28:02Z</time>
      </trkpt>
      <trkpt lat="45.95017" lon="6.55596">
        <ele>2357.9</ele>
        <time>2026-02-02T09:28:03Z</time>
      </trkpt>
      <trkpt lat="45.95017" lon="6.55596">
        <ele>2357.9</ele>
        <time>2026-02-02T09:28:04Z</time>
      </trkpt>
      <trkpt lat="45.95017" lon="6.55596">
        <ele>2357.9</ele>
        <time>2026-02-02T09:28:05Z</time>
      </trkpt>
      <trkpt lat="45.95017" lon="6.55596">
        <ele>2357.9</ele>
        <time>2026-02-02T09:28:06Z</time>
      </trkpt>
      <trkpt lat="45.95017" lon="6.55596">
        <ele>2357.9</ele>
        <time>2026-02-02T09:28:07Z</time>
      </trkpt>
      <trkpt lat="45.95017" lon="6.55596">
        <ele>2357.9</ele>
        <time>2026-02-02T09:28:08Z</time>
      </trkpt>
      <trkpt lat="45.95017" lon="6.55596">
        <ele>2357.9</ele>
        <time>2026-02-02T09:28:09Z</time>
      </trkpt>
      <trkpt lat="45.95017" lon="6.55596">
        <ele>2357.9</ele>
        <time>2026-02-02T09:28:10Z</time>
      </trkpt>
      <trkpt lat="45.95017" lon="6.55596">
        <ele>2357.9</ele>
        <time>2026-02-02T09:28:11Z</time>
      </trkpt>
      <trkpt lat="45.95017" lon="6.55596">
        <ele>2357.9</ele>
        <time>2026-02-02T09:28:12Z</time>
      </trkpt>
      <trkpt lat="45.95017" lon="6.55596">
        <ele>2357.9</ele>
        <time>2026-02-02T09:28:13Z</time>
      </trkpt>
      <trkpt lat="45.95017" lon="6.55596">
        <ele>2357.9</ele>
        <time>2026-02-02T09:28:14Z</time>
      </trkpt>
      <trkpt lat="45.95017" lon="6.55596">
        <ele>2357.9</ele>
        <time>2026-02-02T09:28:15Z</time>
      </trkpt>
      <trkpt lat="45.95017" lon="6.55596">
        <ele>2357.9</ele>
        <time>2026-02-02T09:28:16Z</time>
      </trkpt>
      <trkpt lat="45.95017" lon="6.55596">
        <ele>2357.9</ele>
        <time>2026-02-02T09:28:17Z</time>
      </trkpt>
      <trkpt lat="45.95017" lon="6.55596">
        <ele>2357.9</ele>
        <time>2026-02-02T09:28:18Z</time>
      </trkpt>
      <trkpt lat="45.95017" lon="6.55596">
        <ele>2357.9</ele>
        <time>2026-02-02T09:28:19Z</time>
      </trkpt>
      <trkpt lat="45.95017" lon="6.55596">
        <ele>2357.9</ele>
        <time>2026-02-02T09:28:20Z</time>
      </trkpt>
      <trkpt lat="45.95017" lon="6.55596">
        <ele>2357.9</ele>
        <time>2026-02-02T09:28:21Z</time>
      </trkpt>
      <trkpt lat="45.95017" lon="6.55596">
        <ele>2357.9</ele>
        <time>2026-02-02T09:28:22Z</time>
      </trkpt>
      <trkpt lat="45.95017" lon="6.55596">
        <ele>2357.9</ele>
        <time>2026-02-02T09:28:23Z</time>
      </trkpt>
      <trkpt lat="45.95017" lon="6.55596">
        <ele>2357.9</ele>
        <time>2026-02-02T09:28:24Z</time>
      </trkpt>
      <trkpt lat="45.95017" lon="6.55596">
        <ele>2357.9</ele>
        <time>2026-02-02T09:28:25Z</time>
      </trkpt>
      <trkpt lat="45.95017" lon="6.55596">
        <ele>2357.9</ele>
        <time>2026-02-02T09:28:26Z</time>
      </trkpt>
      <trkpt lat="45.95017" lon="6.55596">
        <ele>2357.9</ele>
        <time>2026-02-02T09:28:27Z</time>
      </trkpt>
      <trkpt lat="45.95017" lon="6.55596">
        <ele>2357.9</ele>
        <time>2026-02-02T09:28:28Z</time>
      </trkpt>
      <trkpt lat="45.95017" lon="6.55596">
        <ele>2357.9</ele>
        <time>2026-02-02T09:28:29Z</time>
      </trkpt>
      <trkpt lat="45.95017" lon="6.55596">
        <ele>2357.9</ele>
        <time>2026-02-02T09:28:30Z</time>
      </trkpt>
      <trkpt lat="45.95017" lon="6.55596">
        <ele>2357.9</ele>
        <time>2026-02-02T09:28:31Z</time>
      </trkpt>
      <trkpt lat="45.95017" lon="6.55596">
        <ele>2357.9</ele>
        <time>2026-02-02T09:28:32Z</time>
      </trkpt>
      <trkpt lat="45.95017" lon="6.55596">
        <ele>2357.9</ele>
        <time>2026-02-02T09:28:33Z</time>
      </trkpt>
      <trkpt lat="45.95017" lon="6.55596">
        <ele>2357.9</ele>
        <time>2026-02-02T09:28:34Z</time>
      </trkpt>
      <trkpt lat="45.95017" lon="6.55596">
        <ele>2357.9</ele>
        <time>2026-02-02T09:28:35Z</time>
      </trkpt>
      <trkpt lat="45.95017" lon="6.55596">
        <ele>2357.9</ele>
        <time>2026-02-02T09:28:36Z</time>
      </trkpt>
      <trkpt lat="45.95017" lon="6.55596">
        <ele>2357.9</ele>
        <time>2026-02-02T09:28:37Z</time>
      </trkpt>
      <trkpt lat="45.95017" lon="6.55596">
        <ele>2357.9</ele>
        <time>2026-02-02T09:28:38Z</time>
      </trkpt>
      <trkpt lat="45.95017" lon="6.55596">
        <ele>2357.9</ele>
        <time>2026-02-02T09:28:39Z</time>
      </trkpt>
      <trkpt lat="45.95017" lon="6.55596">
        <ele>2357.9</ele>
        <time>2026-02-02T09:28:40Z</time>
      </trkpt>
      <trkpt lat="45.95017" lon="6.55596">
        <ele>2357.9</ele>
        <time>2026-02-02T09:28:41Z</time>
      </trkpt>
      <trkpt lat="45.95017" lon="6.55596">
        <ele>2357.9</ele>
        <time>2026-02-02T09:28:42Z</time>
      </trkpt>
      <trkpt lat="45.95017" lon="6.55596">
        <ele>2357.9</ele>
        <time>2026-02-02T09:28:43Z</time>
      </trkpt>
      <trkpt lat="45.95017" lon="6.55596">
        <ele>2357.9</ele>
        <time>2026-02-02T09:28:44Z</time>
      </trkpt>
      <trkpt lat="45.95017" lon="6.55596">
        <ele>2357.9</ele>
        <time>2026-02-02T09:28:45Z</time>
      </trkpt>
      <trkpt lat="45.95017" lon="6.55596">
        <ele>2357.9</ele>
        <time>2026-02-02T09:28:46Z</time>
      </trkpt>
      <trkpt lat="45.95017" lon="6.55596">
        <ele>2357.9</ele>
        <time>2026-02-02T09:28:47Z</time>
      </trkpt>
      <trkpt lat="45.95017" lon="6.55596">
        <ele>2357.9</ele>
        <time>2026-02-02T09:28:48Z</time>
      </trkpt>
      <trkpt lat="45.95017" lon="6.55597">
        <ele>2357.9</ele>
        <time>2026-02-02T09:28:49Z</time>
      </trkpt>
      <trkpt lat="45.95017" lon="6.55596">
        <ele>2359.1</ele>
        <time>2026-02-02T09:28:50Z</time>
      </trkpt>
      <trkpt lat="45.95017" lon="6.55596">
        <ele>2359.1</ele>
        <time>2026-02-02T09:28:51Z</time>
      </trkpt>
      <trkpt lat="45.95017" lon="6.55596">
        <ele>2359.1</ele>
        <time>2026-02-02T09:28:52Z</time>
      </trkpt>
      <trkpt lat="45.95017" lon="6.55596">
        <ele>2359.1</ele>
        <time>2026-02-02T09:28:53Z</time>
      </trkpt>
      <trkpt lat="45.95017" lon="6.55596">
        <ele>2357.9</ele>
        <time>2026-02-02T09:28:54Z</time>
      </trkpt>
      <trkpt lat="45.95017" lon="6.55596">
        <ele>2357.9</ele>
        <time>2026-02-02T09:28:55Z</time>
      </trkpt>
      <trkpt lat="45.95017" lon="6.55597">
        <ele>2357.9</ele>
        <time>2026-02-02T09:28:56Z</time>
      </trkpt>
      <trkpt lat="45.95018" lon="6.55596">
        <ele>2357.9</ele>
        <time>2026-02-02T09:28:57Z</time>
      </trkpt>
      <trkpt lat="45.95018" lon="6.55596">
        <ele>2357.9</ele>
        <time>2026-02-02T09:28:58Z</time>
      </trkpt>
      <trkpt lat="45.95018" lon="6.55596">
        <ele>2357.9</ele>
        <time>2026-02-02T09:28:59Z</time>
      </trkpt>
      <trkpt lat="45.95018" lon="6.55596">
        <ele>2357.9</ele>
        <time>2026-02-02T09:29:00Z</time>
      </trkpt>
      <trkpt lat="45.95018" lon="6.55596">
        <ele>2357.9</ele>
        <time>2026-02-02T09:29:01Z</time>
      </trkpt>
      <trkpt lat="45.95018" lon="6.55596">
        <ele>2357.9</ele>
        <time>2026-02-02T09:29:02Z</time>
      </trkpt>
      <trkpt lat="45.95018" lon="6.55596">
        <ele>2357.9</ele>
        <time>2026-02-02T09:29:03Z</time>
      </trkpt>
      <trkpt lat="45.95018" lon="6.55596">
        <ele>2357.9</ele>
        <time>2026-02-02T09:29:04Z</time>
      </trkpt>
      <trkpt lat="45.95018" lon="6.55596">
        <ele>2359.1</ele>
        <time>2026-02-02T09:29:05Z</time>
      </trkpt>
      <trkpt lat="45.95018" lon="6.55596">
        <ele>2359.1</ele>
        <time>2026-02-02T09:29:06Z</time>
      </trkpt>
      <trkpt lat="45.95018" lon="6.55595">
        <ele>2359.1</ele>
        <time>2026-02-02T09:29:07Z</time>
      </trkpt>
      <trkpt lat="45.95018" lon="6.55594">
        <ele>2359.1</ele>
        <time>2026-02-02T09:29:08Z</time>
      </trkpt>
      <trkpt lat="45.95018" lon="6.55593">
        <ele>2359.1</ele>
        <time>2026-02-02T09:29:09Z</time>
      </trkpt>
      <trkpt lat="45.95018" lon="6.55592">
        <ele>2359.1</ele>
        <time>2026-02-02T09:29:10Z</time>
      </trkpt>
      <trkpt lat="45.95019" lon="6.55592">
        <ele>2360.3</ele>
        <time>2026-02-02T09:29:11Z</time>
      </trkpt>
      <trkpt lat="45.95019" lon="6.55591">
        <ele>2360.3</ele>
        <time>2026-02-02T09:29:12Z</time>
      </trkpt>
      <trkpt lat="45.95019" lon="6.5559">
        <ele>2360.3</ele>
        <time>2026-02-02T09:29:13Z</time>
      </trkpt>
      <trkpt lat="45.9502" lon="6.55591">
        <ele>2363.6</ele>
        <time>2026-02-02T09:29:14Z</time>
      </trkpt>
      <trkpt lat="45.95019" lon="6.55591">
        <ele>2360.3</ele>
        <time>2026-02-02T09:29:15Z</time>
      </trkpt>
      <trkpt lat="45.95019" lon="6.5559">
        <ele>2360.3</ele>
        <time>2026-02-02T09:29:16Z</time>
      </trkpt>
      <trkpt lat="45.95019" lon="6.55588">
        <ele>2360.3</ele>
        <time>2026-02-02T09:29:17Z</time>
      </trkpt>
      <trkpt lat="45.9502" lon="6.55585">
        <ele>2364.8</ele>
        <time>2026-02-02T09:29:18Z</time>
      </trkpt>
      <trkpt lat="45.95019" lon="6.55584">
        <ele>2361.6</ele>
        <time>2026-02-02T09:29:19Z</time>
      </trkpt>
      <trkpt lat="45.95019" lon="6.55583">
        <ele>2363.1</ele>
        <time>2026-02-02T09:29:20Z</time>
      </trkpt>
      <trkpt lat="45.9502" lon="6.55583">
        <ele>2366.2</ele>
        <time>2026-02-02T09:29:21Z</time>
      </trkpt>
      <trkpt lat="45.9502" lon="6.55583">
        <ele>2366.2</ele>
        <time>2026-02-02T09:29:22Z</time>
      </trkpt>
      <trkpt lat="45.9502" lon="6.55583">
        <ele>2366.2</ele>
        <time>2026-02-02T09:29:23Z</time>
      </trkpt>
      <trkpt lat="45.95019" lon="6.55583">
        <ele>2363.1</ele>
        <time>2026-02-02T09:29:24Z</time>
      </trkpt>
      <trkpt lat="45.95019" lon="6.55583">
        <ele>2363.1</ele>
        <time>2026-02-02T09:29:25Z</time>
      </trkpt>
      <trkpt lat="45.9502" lon="6.55583">
        <ele>2366.2</ele>
        <time>2026-02-02T09:29:26Z</time>
      </trkpt>
      <trkpt lat="45.9502" lon="6.55584">
        <ele>2364.8</ele>
        <time>2026-02-02T09:29:27Z</time>
      </trkpt>
      <trkpt lat="45.95021" lon="6.55585">
        <ele>2364.8</ele>
        <time>2026-02-02T09:29:28Z</time>
      </trkpt>
      <trkpt lat="45.95021" lon="6.55586">
        <ele>2364.8</ele>
        <time>2026-02-02T09:29:29Z</time>
      </trkpt>
      <trkpt lat="45.95021" lon="6.55586">
        <ele>2364.8</ele>
        <time>2026-02-02T09:29:30Z</time>
      </trkpt>
      <trkpt lat="45.95022" lon="6.55587">
        <ele>2364.8</ele>
        <time>2026-02-02T09:29:31Z</time>
      </trkpt>
      <trkpt lat="45.95022" lon="6.55587">
        <ele>2364.8</ele>
        <time>2026-02-02T09:29:32Z</time>
      </trkpt>
      <trkpt lat="45.95023" lon="6.55588">
        <ele>2367.1</ele>
        <time>2026-02-02T09:29:33Z</time>
      </trkpt>
      <trkpt lat="45.95023" lon="6.55589">
        <ele>2367.1</ele>
        <time>2026-02-02T09:29:34Z</time>
      </trkpt>
      <trkpt lat="45.95023" lon="6.55589">
        <ele>2367.1</ele>
        <time>2026-02-02T09:29:35Z</time>
      </trkpt>
      <trkpt lat="45.95023" lon="6.55588">
        <ele>2367.1</ele>
        <time>2026-02-02T09:29:36Z</time>
      </trkpt>
      <trkpt lat="45.95023" lon="6.55587">
        <ele>2368.3</ele>
        <time>2026-02-02T09:29:37Z</time>
      </trkpt>
      <trkpt lat="45.95022" lon="6.55587">
        <ele>2364.8</ele>
        <time>2026-02-02T09:29:38Z</time>
      </trkpt>
      <trkpt lat="45.95022" lon="6.55587">
        <ele>2364.8</ele>
        <time>2026-02-02T09:29:39Z</time>
      </trkpt>
      <trkpt lat="45.95022" lon="6.55587">
        <ele>2364.8</ele>
        <time>2026-02-02T09:29:40Z</time>
      </trkpt>
      <trkpt lat="45.95022" lon="6.55587">
        <ele>2364.8</ele>
        <time>2026-02-02T09:29:41Z</time>
      </trkpt>
      <trkpt lat="45.95022" lon="6.55587">
        <ele>2364.8</ele>
        <time>2026-02-02T09:29:42Z</time>
      </trkpt>
      <trkpt lat="45.95022" lon="6.55587">
        <ele>2364.8</ele>
        <time>2026-02-02T09:29:43Z</time>
      </trkpt>
      <trkpt lat="45.95022" lon="6.55587">
        <ele>2364.8</ele>
        <time>2026-02-02T09:29:44Z</time>
      </trkpt>
      <trkpt lat="45.95022" lon="6.55586">
        <ele>2364.8</ele>
        <time>2026-02-02T09:29:45Z</time>
      </trkpt>
      <trkpt lat="45.95022" lon="6.55586">
        <ele>2364.8</ele>
        <time>2026-02-02T09:29:46Z</time>
      </trkpt>
      <trkpt lat="45.95022" lon="6.55586">
        <ele>2364.8</ele>
        <time>2026-02-02T09:29:47Z</time>
      </trkpt>
      <trkpt lat="45.95022" lon="6.55586">
        <ele>2364.8</ele>
        <time>2026-02-02T09:29:48Z</time>
      </trkpt>
      <trkpt lat="45.95022" lon="6.55586">
        <ele>2364.8</ele>
        <time>2026-02-02T09:29:49Z</time>
      </trkpt>
      <trkpt lat="45.95023" lon="6.55587">
        <ele>2368.3</ele>
        <time>2026-02-02T09:29:50Z</time>
      </trkpt>
      <trkpt lat="45.95023" lon="6.55588">
        <ele>2368.3</ele>
        <time>2026-02-02T09:29:52Z</time>
      </trkpt>
      <trkpt lat="45.95024" lon="6.55588">
        <ele>2367.1</ele>
        <time>2026-02-02T09:29:53Z</time>
      </trkpt>
      <trkpt lat="45.95025" lon="6.5559">
        <ele>2367.1</ele>
        <time>2026-02-02T09:29:54Z</time>
      </trkpt>
      <trkpt lat="45.95025" lon="6.55592">
        <ele>2366</ele>
        <time>2026-02-02T09:29:55Z</time>
      </trkpt>
      <trkpt lat="45.95026" lon="6.55593">
        <ele>2369.7</ele>
        <time>2026-02-02T09:29:56Z</time>
      </trkpt>
      <trkpt lat="45.95026" lon="6.55593">
        <ele>2369.7</ele>
        <time>2026-02-02T09:29:57Z</time>
      </trkpt>
      <trkpt lat="45.95027" lon="6.55592">
        <ele>2369.7</ele>
        <time>2026-02-02T09:29:58Z</time>
      </trkpt>
      <trkpt lat="45.95027" lon="6.55591">
        <ele>2370.9</ele>
        <time>2026-02-02T09:29:59Z</time>
      </trkpt>
      <trkpt lat="45.95027" lon="6.5559">
        <ele>2370.9</ele>
        <time>2026-02-02T09:30:00Z</time>
      </trkpt>
      <trkpt lat="45.95027" lon="6.55588">
        <ele>2370.9</ele>
        <time>2026-02-02T09:30:01Z</time>
      </trkpt>
      <trkpt lat="45.95027" lon="6.55587">
        <ele>2372.2</ele>
        <time>2026-02-02T09:30:02Z</time>
      </trkpt>
      <trkpt lat="45.95026" lon="6.55586">
        <ele>2372.2</ele>
        <time>2026-02-02T09:30:03Z</time>
      </trkpt>
      <trkpt lat="45.95026" lon="6.55585">
        <ele>2372.2</ele>
        <time>2026-02-02T09:30:04Z</time>
      </trkpt>
      <trkpt lat="45.95026" lon="6.55584">
        <ele>2372.2</ele>
        <time>2026-02-02T09:30:05Z</time>
      </trkpt>
      <trkpt lat="45.95026" lon="6.55582">
        <ele>2373.6</ele>
        <time>2026-02-02T09:30:06Z</time>
      </trkpt>
      <trkpt lat="45.95026" lon="6.55582">
        <ele>2373.6</ele>
        <time>2026-02-02T09:30:07Z</time>
      </trkpt>
      <trkpt lat="45.95026" lon="6.55581">
        <ele>2373.6</ele>
        <time>2026-02-02T09:30:08Z</time>
      </trkpt>
      <trkpt lat="45.95026" lon="6.55579">
        <ele>2373.6</ele>
        <time>2026-02-02T09:30:09Z</time>
      </trkpt>
      <trkpt lat="45.95026" lon="6.5558">
        <ele>2373.6</ele>
        <time>2026-02-02T09:30:10Z</time>
      </trkpt>
      <trkpt lat="45.95026" lon="6.5558">
        <ele>2373.6</ele>
        <time>2026-02-02T09:30:11Z</time>
      </trkpt>
      <trkpt lat="45.95026" lon="6.5558">
        <ele>2373.6</ele>
        <time>2026-02-02T09:30:12Z</time>
      </trkpt>
      <trkpt lat="45.95025" lon="6.5558">
        <ele>2369.7</ele>
        <time>2026-02-02T09:30:13Z</time>
      </trkpt>
      <trkpt lat="45.95025" lon="6.5558">
        <ele>2369.7</ele>
        <time>2026-02-02T09:30:14Z</time>
      </trkpt>
      <trkpt lat="45.95025" lon="6.5558">
        <ele>2369.7</ele>
        <time>2026-02-02T09:30:15Z</time>
      </trkpt>
      <trkpt lat="45.95025" lon="6.5558">
        <ele>2369.7</ele>
        <time>2026-02-02T09:30:16Z</time>
      </trkpt>
      <trkpt lat="45.95025" lon="6.5558">
        <ele>2369.7</ele>
        <time>2026-02-02T09:30:17Z</time>
      </trkpt>
      <trkpt lat="45.95025" lon="6.5558">
        <ele>2369.7</ele>
        <time>2026-02-02T09:30:18Z</time>
      </trkpt>
      <trkpt lat="45.95025" lon="6.5558">
        <ele>2369.7</ele>
        <time>2026-02-02T09:30:19Z</time>
      </trkpt>
      <trkpt lat="45.95025" lon="6.5558">
        <ele>2369.7</ele>
        <time>2026-02-02T09:30:20Z</time>
      </trkpt>
      <trkpt lat="45.95025" lon="6.5558">
        <ele>2369.7</ele>
        <time>2026-02-02T09:30:21Z</time>
      </trkpt>
      <trkpt lat="45.95025" lon="6.5558">
        <ele>2369.7</ele>
        <time>2026-02-02T09:30:22Z</time>
      </trkpt>
      <trkpt lat="45.95025" lon="6.55581">
        <ele>2369.7</ele>
        <time>2026-02-02T09:30:23Z</time>
      </trkpt>
      <trkpt lat="45.95025" lon="6.55581">
        <ele>2369.7</ele>
        <time>2026-02-02T09:30:24Z</time>
      </trkpt>
      <trkpt lat="45.95025" lon="6.55581">
        <ele>2369.7</ele>
        <time>2026-02-02T09:30:25Z</time>
      </trkpt>
      <trkpt lat="45.95025" lon="6.55581">
        <ele>2369.7</ele>
        <time>2026-02-02T09:30:26Z</time>
      </trkpt>
      <trkpt lat="45.95025" lon="6.55581">
        <ele>2369.7</ele>
        <time>2026-02-02T09:30:27Z</time>
      </trkpt>
      <trkpt lat="45.95025" lon="6.55581">
        <ele>2369.7</ele>
        <time>2026-02-02T09:30:28Z</time>
      </trkpt>
      <trkpt lat="45.95025" lon="6.55581">
        <ele>2369.7</ele>
        <time>2026-02-02T09:30:29Z</time>
      </trkpt>
      <trkpt lat="45.95025" lon="6.55581">
        <ele>2369.7</ele>
        <time>2026-02-02T09:30:30Z</time>
      </trkpt>
      <trkpt lat="45.95026" lon="6.55581">
        <ele>2373.6</ele>
        <time>2026-02-02T09:30:31Z</time>
      </trkpt>
      <trkpt lat="45.95026" lon="6.55581">
        <ele>2373.6</ele>
        <time>2026-02-02T09:30:32Z</time>
      </trkpt>
      <trkpt lat="45.95027" lon="6.55582">
        <ele>2373.6</ele>
        <time>2026-02-02T09:30:33Z</time>
      </trkpt>
      <trkpt lat="45.95028" lon="6.55583">
        <ele>2373.6</ele>
        <time>2026-02-02T09:30:34Z</time>
      </trkpt>
      <trkpt lat="45.95028" lon="6.55585">
        <ele>2372.2</ele>
        <time>2026-02-02T09:30:35Z</time>
      </trkpt>
      <trkpt lat="45.95029" lon="6.55586">
        <ele>2376.3</ele>
        <time>2026-02-02T09:30:36Z</time>
      </trkpt>
      <trkpt lat="45.95029" lon="6.55588">
        <ele>2374.9</ele>
        <time>2026-02-02T09:30:37Z</time>
      </trkpt>
      <trkpt lat="45.9503" lon="6.55588">
        <ele>2374.9</ele>
        <time>2026-02-02T09:30:38Z</time>
      </trkpt>
      <trkpt lat="45.9503" lon="6.55589">
        <ele>2374.9</ele>
        <time>2026-02-02T09:30:39Z</time>
      </trkpt>
      <trkpt lat="45.9503" lon="6.5559">
        <ele>2374.9</ele>
        <time>2026-02-02T09:30:40Z</time>
      </trkpt>
      <trkpt lat="45.9503" lon="6.55591">
        <ele>2374.9</ele>
        <time>2026-02-02T09:30:41Z</time>
      </trkpt>
      <trkpt lat="45.95031" lon="6.55591">
        <ele>2374.9</ele>
        <time>2026-02-02T09:30:42Z</time>
      </trkpt>
      <trkpt lat="45.95031" lon="6.55593">
        <ele>2373.6</ele>
        <time>2026-02-02T09:30:43Z</time>
      </trkpt>
      <trkpt lat="45.95031" lon="6.55594">
        <ele>2373.6</ele>
        <time>2026-02-02T09:30:44Z</time>
      </trkpt>
      <trkpt lat="45.95032" lon="6.55595">
        <ele>2377.4</ele>
        <time>2026-02-02T09:30:45Z</time>
      </trkpt>
      <trkpt lat="45.95032" lon="6.55594">
        <ele>2377.4</ele>
        <time>2026-02-02T09:30:46Z</time>
      </trkpt>
      <trkpt lat="45.95032" lon="6.55593">
        <ele>2377.4</ele>
        <time>2026-02-02T09:30:47Z</time>
      </trkpt>
      <trkpt lat="45.95032" lon="6.55592">
        <ele>2379</ele>
        <time>2026-02-02T09:30:48Z</time>
      </trkpt>
      <trkpt lat="45.95033" lon="6.5559">
        <ele>2379</ele>
        <time>2026-02-02T09:30:49Z</time>
      </trkpt>
      <trkpt lat="45.95033" lon="6.5559">
        <ele>2379</ele>
        <time>2026-02-02T09:30:50Z</time>
      </trkpt>
      <trkpt lat="45.95033" lon="6.55589">
        <ele>2379</ele>
        <time>2026-02-02T09:30:51Z</time>
      </trkpt>
      <trkpt lat="45.95033" lon="6.55589">
        <ele>2379</ele>
        <time>2026-02-02T09:30:52Z</time>
      </trkpt>
      <trkpt lat="45.95033" lon="6.55589">
        <ele>2379</ele>
        <time>2026-02-02T09:30:53Z</time>
      </trkpt>
      <trkpt lat="45.95033" lon="6.55589">
        <ele>2379</ele>
        <time>2026-02-02T09:30:54Z</time>
      </trkpt>
      <trkpt lat="45.95033" lon="6.55589">
        <ele>2379</ele>
        <time>2026-02-02T09:30:55Z</time>
      </trkpt>
      <trkpt lat="45.95033" lon="6.55589">
        <ele>2379</ele>
        <time>2026-02-02T09:30:56Z</time>
      </trkpt>
      <trkpt lat="45.95033" lon="6.55589">
        <ele>2379</ele>
        <time>2026-02-02T09:30:57Z</time>
      </trkpt>
      <trkpt lat="45.95033" lon="6.55589">
        <ele>2379</ele>
        <time>2026-02-02T09:30:58Z</time>
      </trkpt>
      <trkpt lat="45.95033" lon="6.55589">
        <ele>2379</ele>
        <time>2026-02-02T09:30:59Z</time>
      </trkpt>
      <trkpt lat="45.95033" lon="6.55589">
        <ele>2379</ele>
        <time>2026-02-02T09:31:00Z</time>
      </trkpt>
      <trkpt lat="45.95034" lon="6.55589">
        <ele>2379</ele>
        <time>2026-02-02T09:31:01Z</time>
      </trkpt>
      <trkpt lat="45.95034" lon="6.55588">
        <ele>2379</ele>
        <time>2026-02-02T09:31:02Z</time>
      </trkpt>
      <trkpt lat="45.95034" lon="6.55588">
        <ele>2379</ele>
        <time>2026-02-02T09:31:03Z</time>
      </trkpt>
      <trkpt lat="45.95034" lon="6.55587">
        <ele>2380.5</ele>
        <time>2026-02-02T09:31:04Z</time>
      </trkpt>
      <trkpt lat="45.95034" lon="6.55586">
        <ele>2380.5</ele>
        <time>2026-02-02T09:31:05Z</time>
      </trkpt>
      <trkpt lat="45.95034" lon="6.55585">
        <ele>2380.5</ele>
        <time>2026-02-02T09:31:06Z</time>
      </trkpt>
      <trkpt lat="45.95035" lon="6.55583">
        <ele>2386.4</ele>
        <time>2026-02-02T09:31:07Z</time>
      </trkpt>
      <trkpt lat="45.95035" lon="6.55581">
        <ele>2386.4</ele>
        <time>2026-02-02T09:31:08Z</time>
      </trkpt>
      <trkpt lat="45.95035" lon="6.5558">
        <ele>2386.4</ele>
        <time>2026-02-02T09:31:09Z</time>
      </trkpt>
      <trkpt lat="45.95035" lon="6.55579">
        <ele>2388.3</ele>
        <time>2026-02-02T09:31:11Z</time>
      </trkpt>
      <trkpt lat="45.95035" lon="6.55577">
        <ele>2388.3</ele>
        <time>2026-02-02T09:31:12Z</time>
      </trkpt>
      <trkpt lat="45.95035" lon="6.55576">
        <ele>2388.3</ele>
        <time>2026-02-02T09:31:13Z</time>
      </trkpt>
      <trkpt lat="45.95035" lon="6.55576">
        <ele>2388.3</ele>
        <time>2026-02-02T09:31:14Z</time>
      </trkpt>
      <trkpt lat="45.95035" lon="6.55576">
        <ele>2388.3</ele>
        <time>2026-02-02T09:31:15Z</time>
      </trkpt>
      <trkpt lat="45.95035" lon="6.55576">
        <ele>2388.3</ele>
        <time>2026-02-02T09:31:16Z</time>
      </trkpt>
      <trkpt lat="45.95035" lon="6.55577">
        <ele>2388.3</ele>
        <time>2026-02-02T09:31:17Z</time>
      </trkpt>
      <trkpt lat="45.95035" lon="6.55577">
        <ele>2388.3</ele>
        <time>2026-02-02T09:31:18Z</time>
      </trkpt>
      <trkpt lat="45.95035" lon="6.55577">
        <ele>2388.3</ele>
        <time>2026-02-02T09:31:19Z</time>
      </trkpt>
      <trkpt lat="45.95035" lon="6.55577">
        <ele>2388.3</ele>
        <time>2026-02-02T09:31:20Z</time>
      </trkpt>
      <trkpt lat="45.95035" lon="6.55578">
        <ele>2388.3</ele>
        <time>2026-02-02T09:31:21Z</time>
      </trkpt>
      <trkpt lat="45.95036" lon="6.55578">
        <ele>2388.3</ele>
        <time>2026-02-02T09:31:22Z</time>
      </trkpt>
      <trkpt lat="45.95036" lon="6.55578">
        <ele>2388.3</ele>
        <time>2026-02-02T09:31:23Z</time>
      </trkpt>
      <trkpt lat="45.95036" lon="6.55578">
        <ele>2388.3</ele>
        <time>2026-02-02T09:31:24Z</time>
      </trkpt>
      <trkpt lat="45.95036" lon="6.55579">
        <ele>2388.3</ele>
        <time>2026-02-02T09:31:25Z</time>
      </trkpt>
      <trkpt lat="45.95036" lon="6.55579">
        <ele>2388.3</ele>
        <time>2026-02-02T09:31:26Z</time>
      </trkpt>
      <trkpt lat="45.95036" lon="6.55579">
        <ele>2386.4</ele>
        <time>2026-02-02T09:31:27Z</time>
      </trkpt>
      <trkpt lat="45.95036" lon="6.5558">
        <ele>2386.4</ele>
        <time>2026-02-02T09:31:28Z</time>
      </trkpt>
      <trkpt lat="45.95036" lon="6.5558">
        <ele>2386.4</ele>
        <time>2026-02-02T09:31:29Z</time>
      </trkpt>
      <trkpt lat="45.95036" lon="6.5558">
        <ele>2386.4</ele>
        <time>2026-02-02T09:31:30Z</time>
      </trkpt>
      <trkpt lat="45.95036" lon="6.5558">
        <ele>2386.4</ele>
        <time>2026-02-02T09:31:31Z</time>
      </trkpt>
      <trkpt lat="45.95036" lon="6.55581">
        <ele>2386.4</ele>
        <time>2026-02-02T09:31:32Z</time>
      </trkpt>
      <trkpt lat="45.95036" lon="6.55581">
        <ele>2386.4</ele>
        <time>2026-02-02T09:31:33Z</time>
      </trkpt>
      <trkpt lat="45.95036" lon="6.55581">
        <ele>2386.4</ele>
        <time>2026-02-02T09:31:34Z</time>
      </trkpt>
      <trkpt lat="45.95036" lon="6.55583">
        <ele>2386.4</ele>
        <time>2026-02-02T09:31:35Z</time>
      </trkpt>
      <trkpt lat="45.95036" lon="6.55583">
        <ele>2386.4</ele>
        <time>2026-02-02T09:31:36Z</time>
      </trkpt>
      <trkpt lat="45.95036" lon="6.55585">
        <ele>2384.6</ele>
        <time>2026-02-02T09:31:37Z</time>
      </trkpt>
      <trkpt lat="45.95036" lon="6.55585">
        <ele>2384.6</ele>
        <time>2026-02-02T09:31:38Z</time>
      </trkpt>
      <trkpt lat="45.95037" lon="6.55588">
        <ele>2384.6</ele>
        <time>2026-02-02T09:31:39Z</time>
      </trkpt>
      <trkpt lat="45.95037" lon="6.55589">
        <ele>2382.9</ele>
        <time>2026-02-02T09:31:40Z</time>
      </trkpt>
      <trkpt lat="45.95037" lon="6.5559">
        <ele>2382.9</ele>
        <time>2026-02-02T09:31:41Z</time>
      </trkpt>
      <trkpt lat="45.95037" lon="6.55591">
        <ele>2382.9</ele>
        <time>2026-02-02T09:31:42Z</time>
      </trkpt>
      <trkpt lat="45.95037" lon="6.55592">
        <ele>2386.6</ele>
        <time>2026-02-02T09:31:43Z</time>
      </trkpt>
      <trkpt lat="45.95038" lon="6.55593">
        <ele>2384.7</ele>
        <time>2026-02-02T09:31:44Z</time>
      </trkpt>
      <trkpt lat="45.95038" lon="6.55593">
        <ele>2384.7</ele>
        <time>2026-02-02T09:31:45Z</time>
      </trkpt>
      <trkpt lat="45.95038" lon="6.55593">
        <ele>2384.7</ele>
        <time>2026-02-02T09:31:46Z</time>
      </trkpt>
      <trkpt lat="45.95038" lon="6.55593">
        <ele>2384.7</ele>
        <time>2026-02-02T09:31:47Z</time>
      </trkpt>
      <trkpt lat="45.95038" lon="6.55593">
        <ele>2384.7</ele>
        <time>2026-02-02T09:31:48Z</time>
      </trkpt>
      <trkpt lat="45.95038" lon="6.55593">
        <ele>2384.7</ele>
        <time>2026-02-02T09:31:49Z</time>
      </trkpt>
      <trkpt lat="45.95038" lon="6.55593">
        <ele>2384.7</ele>
        <time>2026-02-02T09:31:50Z</time>
      </trkpt>
      <trkpt lat="45.95038" lon="6.55592">
        <ele>2384.7</ele>
        <time>2026-02-02T09:31:51Z</time>
      </trkpt>
      <trkpt lat="45.95037" lon="6.55592">
        <ele>2381.2</ele>
        <time>2026-02-02T09:31:52Z</time>
      </trkpt>
      <trkpt lat="45.95037" lon="6.55592">
        <ele>2381.2</ele>
        <time>2026-02-02T09:31:53Z</time>
      </trkpt>
      <trkpt lat="45.95037" lon="6.55592">
        <ele>2381.2</ele>
        <time>2026-02-02T09:31:54Z</time>
      </trkpt>
      <trkpt lat="45.95037" lon="6.55591">
        <ele>2382.9</ele>
        <time>2026-02-02T09:31:55Z</time>
      </trkpt>
      <trkpt lat="45.95037" lon="6.55591">
        <ele>2382.9</ele>
        <time>2026-02-02T09:31:56Z</time>
      </trkpt>
      <trkpt lat="45.95037" lon="6.5559">
        <ele>2382.9</ele>
        <time>2026-02-02T09:31:57Z</time>
      </trkpt>
      <trkpt lat="45.95037" lon="6.5559">
        <ele>2382.9</ele>
        <time>2026-02-02T09:31:58Z</time>
      </trkpt>
      <trkpt lat="45.95037" lon="6.5559">
        <ele>2382.9</ele>
        <time>2026-02-02T09:31:59Z</time>
      </trkpt>
      <trkpt lat="45.95037" lon="6.5559">
        <ele>2382.9</ele>
        <time>2026-02-02T09:32:00Z</time>
      </trkpt>
      <trkpt lat="45.95037" lon="6.5559">
        <ele>2382.9</ele>
        <time>2026-02-02T09:32:01Z</time>
      </trkpt>
      <trkpt lat="45.95037" lon="6.55589">
        <ele>2382.9</ele>
        <time>2026-02-02T09:32:02Z</time>
      </trkpt>
      <trkpt lat="45.95037" lon="6.55589">
        <ele>2382.9</ele>
        <time>2026-02-02T09:32:03Z</time>
      </trkpt>
      <trkpt lat="45.95037" lon="6.55589">
        <ele>2382.9</ele>
        <time>2026-02-02T09:32:04Z</time>
      </trkpt>
      <trkpt lat="45.95037" lon="6.55589">
        <ele>2382.9</ele>
        <time>2026-02-02T09:32:05Z</time>
      </trkpt>
      <trkpt lat="45.95037" lon="6.55589">
        <ele>2382.9</ele>
        <time>2026-02-02T09:32:06Z</time>
      </trkpt>
      <trkpt lat="45.95037" lon="6.55589">
        <ele>2382.9</ele>
        <time>2026-02-02T09:32:07Z</time>
      </trkpt>
      <trkpt lat="45.95037" lon="6.55589">
        <ele>2382.9</ele>
        <time>2026-02-02T09:32:08Z</time>
      </trkpt>
      <trkpt lat="45.95037" lon="6.55588">
        <ele>2382.9</ele>
        <time>2026-02-02T09:32:09Z</time>
      </trkpt>
      <trkpt lat="45.95037" lon="6.55588">
        <ele>2382.9</ele>
        <time>2026-02-02T09:32:10Z</time>
      </trkpt>
      <trkpt lat="45.95038" lon="6.55587">
        <ele>2388.4</ele>
        <time>2026-02-02T09:32:11Z</time>
      </trkpt>
      <trkpt lat="45.95038" lon="6.55586">
        <ele>2388.4</ele>
        <time>2026-02-02T09:32:12Z</time>
      </trkpt>
      <trkpt lat="45.95039" lon="6.55585">
        <ele>2388.4</ele>
        <time>2026-02-02T09:32:13Z</time>
      </trkpt>
      <trkpt lat="45.95039" lon="6.55585">
        <ele>2388.4</ele>
        <time>2026-02-02T09:32:14Z</time>
      </trkpt>
      <trkpt lat="45.95039" lon="6.55583">
        <ele>2390.3</ele>
        <time>2026-02-02T09:32:15Z</time>
      </trkpt>
      <trkpt lat="45.9504" lon="6.55582">
        <ele>2390.3</ele>
        <time>2026-02-02T09:32:16Z</time>
      </trkpt>
      <trkpt lat="45.9504" lon="6.55581">
        <ele>2390.3</ele>
        <time>2026-02-02T09:32:17Z</time>
      </trkpt>
      <trkpt lat="45.9504" lon="6.5558">
        <ele>2390.3</ele>
        <time>2026-02-02T09:32:18Z</time>
      </trkpt>
      <trkpt lat="45.9504" lon="6.55579">
        <ele>2390.3</ele>
        <time>2026-02-02T09:32:19Z</time>
      </trkpt>
      <trkpt lat="45.9504" lon="6.55579">
        <ele>2395.9</ele>
        <time>2026-02-02T09:32:20Z</time>
      </trkpt>
      <trkpt lat="45.9504" lon="6.55579">
        <ele>2390.3</ele>
        <time>2026-02-02T09:32:21Z</time>
      </trkpt>
      <trkpt lat="45.9504" lon="6.5558">
        <ele>2390.3</ele>
        <time>2026-02-02T09:32:22Z</time>
      </trkpt>
      <trkpt lat="45.9504" lon="6.5558">
        <ele>2390.3</ele>
        <time>2026-02-02T09:32:23Z</time>
      </trkpt>
      <trkpt lat="45.9504" lon="6.5558">
        <ele>2390.3</ele>
        <time>2026-02-02T09:32:24Z</time>
      </trkpt>
      <trkpt lat="45.9504" lon="6.5558">
        <ele>2390.3</ele>
        <time>2026-02-02T09:32:25Z</time>
      </trkpt>
      <trkpt lat="45.95041" lon="6.5558">
        <ele>2393.8</ele>
        <time>2026-02-02T09:32:26Z</time>
      </trkpt>
      <trkpt lat="45.95041" lon="6.55581">
        <ele>2393.8</ele>
        <time>2026-02-02T09:32:27Z</time>
      </trkpt>
      <trkpt lat="45.95042" lon="6.55581">
        <ele>2393.8</ele>
        <time>2026-02-02T09:32:28Z</time>
      </trkpt>
      <trkpt lat="45.95042" lon="6.55584">
        <ele>2391.8</ele>
        <time>2026-02-02T09:32:29Z</time>
      </trkpt>
      <trkpt lat="45.95042" lon="6.55585">
        <ele>2391.8</ele>
        <time>2026-02-02T09:32:30Z</time>
      </trkpt>
      <trkpt lat="45.95042" lon="6.55587">
        <ele>2391.8</ele>
        <time>2026-02-02T09:32:31Z</time>
      </trkpt>
      <trkpt lat="45.95043" lon="6.55588">
        <ele>2391.8</ele>
        <time>2026-02-02T09:32:32Z</time>
      </trkpt>
      <trkpt lat="45.95044" lon="6.55589">
        <ele>2392.9</ele>
        <time>2026-02-02T09:32:33Z</time>
      </trkpt>
      <trkpt lat="45.95044" lon="6.55589">
        <ele>2392.9</ele>
        <time>2026-02-02T09:32:34Z</time>
      </trkpt>
      <trkpt lat="45.95044" lon="6.55589">
        <ele>2392.9</ele>
        <time>2026-02-02T09:32:35Z</time>
      </trkpt>
      <trkpt lat="45.95044" lon="6.55588">
        <ele>2392.9</ele>
        <time>2026-02-02T09:32:36Z</time>
      </trkpt>
      <trkpt lat="45.95043" lon="6.55588">
        <ele>2392.9</ele>
        <time>2026-02-02T09:32:37Z</time>
      </trkpt>
      <trkpt lat="45.95043" lon="6.55588">
        <ele>2392.9</ele>
        <time>2026-02-02T09:32:38Z</time>
      </trkpt>
      <trkpt lat="45.95043" lon="6.55588">
        <ele>2392.9</ele>
        <time>2026-02-02T09:32:39Z</time>
      </trkpt>
      <trkpt lat="45.95043" lon="6.55588">
        <ele>2392.9</ele>
        <time>2026-02-02T09:32:40Z</time>
      </trkpt>
      <trkpt lat="45.95043" lon="6.55588">
        <ele>2389.9</ele>
        <time>2026-02-02T09:32:42Z</time>
      </trkpt>
      <trkpt lat="45.95043" lon="6.55588">
        <ele>2389.9</ele>
        <time>2026-02-02T09:32:43Z</time>
      </trkpt>
      <trkpt lat="45.95043" lon="6.55588">
        <ele>2389.9</ele>
        <time>2026-02-02T09:32:44Z</time>
      </trkpt>
      <trkpt lat="45.95043" lon="6.55588">
        <ele>2389.9</ele>
        <time>2026-02-02T09:32:45Z</time>
      </trkpt>
      <trkpt lat="45.95043" lon="6.55588">
        <ele>2389.9</ele>
        <time>2026-02-02T09:32:46Z</time>
      </trkpt>
      <trkpt lat="45.95043" lon="6.55588">
        <ele>2389.9</ele>
        <time>2026-02-02T09:32:47Z</time>
      </trkpt>
      <trkpt lat="45.95043" lon="6.55588">
        <ele>2389.9</ele>
        <time>2026-02-02T09:32:48Z</time>
      </trkpt>
      <trkpt lat="45.95043" lon="6.55588">
        <ele>2389.9</ele>
        <time>2026-02-02T09:32:49Z</time>
      </trkpt>
      <trkpt lat="45.95043" lon="6.55588">
        <ele>2389.9</ele>
        <time>2026-02-02T09:32:50Z</time>
      </trkpt>
      <trkpt lat="45.95043" lon="6.55588">
        <ele>2389.9</ele>
        <time>2026-02-02T09:32:51Z</time>
      </trkpt>
      <trkpt lat="45.95043" lon="6.55588">
        <ele>2389.9</ele>
        <time>2026-02-02T09:32:52Z</time>
      </trkpt>
      <trkpt lat="45.95043" lon="6.55588">
        <ele>2389.9</ele>
        <time>2026-02-02T09:32:53Z</time>
      </trkpt>
      <trkpt lat="45.95043" lon="6.5559">
        <ele>2389.9</ele>
        <time>2026-02-02T09:32:54Z</time>
      </trkpt>
      <trkpt lat="45.95043" lon="6.55591">
        <ele>2389.9</ele>
        <time>2026-02-02T09:32:55Z</time>
      </trkpt>
      <trkpt lat="45.95043" lon="6.55592">
        <ele>2389.9</ele>
        <time>2026-02-02T09:32:56Z</time>
      </trkpt>
      <trkpt lat="45.95043" lon="6.5559">
        <ele>2389.9</ele>
        <time>2026-02-02T09:32:57Z</time>
      </trkpt>
      <trkpt lat="45.95044" lon="6.55591">
        <ele>2392.9</ele>
        <time>2026-02-02T09:32:58Z</time>
      </trkpt>
      <trkpt lat="45.95044" lon="6.55592">
        <ele>2390.8</ele>
        <time>2026-02-02T09:32:59Z</time>
      </trkpt>
      <trkpt lat="45.95045" lon="6.55593">
        <ele>2390.8</ele>
        <time>2026-02-02T09:33:00Z</time>
      </trkpt>
      <trkpt lat="45.95045" lon="6.55592">
        <ele>2390.8</ele>
        <time>2026-02-02T09:33:01Z</time>
      </trkpt>
      <trkpt lat="45.95045" lon="6.55591">
        <ele>2392.9</ele>
        <time>2026-02-02T09:33:02Z</time>
      </trkpt>
      <trkpt lat="45.95045" lon="6.55591">
        <ele>2392.9</ele>
        <time>2026-02-02T09:33:03Z</time>
      </trkpt>
      <trkpt lat="45.95045" lon="6.5559">
        <ele>2392.9</ele>
        <time>2026-02-02T09:33:04Z</time>
      </trkpt>
      <trkpt lat="45.95045" lon="6.55588">
        <ele>2392.9</ele>
        <time>2026-02-02T09:33:05Z</time>
      </trkpt>
      <trkpt lat="45.95045" lon="6.55586">
        <ele>2395</ele>
        <time>2026-02-02T09:33:06Z</time>
      </trkpt>
      <trkpt lat="45.95045" lon="6.55585">
        <ele>2395</ele>
        <time>2026-02-02T09:33:07Z</time>
      </trkpt>
      <trkpt lat="45.95045" lon="6.55583">
        <ele>2395</ele>
        <time>2026-02-02T09:33:08Z</time>
      </trkpt>
      <trkpt lat="45.95045" lon="6.55583">
        <ele>2397.1</ele>
        <time>2026-02-02T09:33:09Z</time>
      </trkpt>
      <trkpt lat="45.95045" lon="6.55582">
        <ele>2397.1</ele>
        <time>2026-02-02T09:33:10Z</time>
      </trkpt>
      <trkpt lat="45.95045" lon="6.55581">
        <ele>2397.1</ele>
        <time>2026-02-02T09:33:11Z</time>
      </trkpt>
      <trkpt lat="45.95045" lon="6.5558">
        <ele>2397.1</ele>
        <time>2026-02-02T09:33:12Z</time>
      </trkpt>
      <trkpt lat="45.95044" lon="6.55579">
        <ele>2397.1</ele>
        <time>2026-02-02T09:33:13Z</time>
      </trkpt>
      <trkpt lat="45.95044" lon="6.55579">
        <ele>2399.2</ele>
        <time>2026-02-02T09:33:14Z</time>
      </trkpt>
      <trkpt lat="45.95044" lon="6.55579">
        <ele>2399.2</ele>
        <time>2026-02-02T09:33:15Z</time>
      </trkpt>
      <trkpt lat="45.95044" lon="6.55579">
        <ele>2399.2</ele>
        <time>2026-02-02T09:33:16Z</time>
      </trkpt>
      <trkpt lat="45.95044" lon="6.55579">
        <ele>2399.2</ele>
        <time>2026-02-02T09:33:17Z</time>
      </trkpt>
      <trkpt lat="45.95044" lon="6.55579">
        <ele>2399.2</ele>
        <time>2026-02-02T09:33:18Z</time>
      </trkpt>
      <trkpt lat="45.95044" lon="6.55579">
        <ele>2399.2</ele>
        <time>2026-02-02T09:33:19Z</time>
      </trkpt>
      <trkpt lat="45.95044" lon="6.55579">
        <ele>2397.1</ele>
        <time>2026-02-02T09:33:20Z</time>
      </trkpt>
      <trkpt lat="45.95044" lon="6.55579">
        <ele>2397.1</ele>
        <time>2026-02-02T09:33:21Z</time>
      </trkpt>
      <trkpt lat="45.95044" lon="6.55579">
        <ele>2397.1</ele>
        <time>2026-02-02T09:33:22Z</time>
      </trkpt>
      <trkpt lat="45.95044" lon="6.55579">
        <ele>2397.1</ele>
        <time>2026-02-02T09:33:23Z</time>
      </trkpt>
      <trkpt lat="45.95044" lon="6.55579">
        <ele>2397.1</ele>
        <time>2026-02-02T09:33:25Z</time>
      </trkpt>
      <trkpt lat="45.95044" lon="6.55579">
        <ele>2397.1</ele>
        <time>2026-02-02T09:33:26Z</time>
      </trkpt>
      <trkpt lat="45.95044" lon="6.55579">
        <ele>2397.1</ele>
        <time>2026-02-02T09:33:27Z</time>
      </trkpt>
      <trkpt lat="45.95044" lon="6.55579">
        <ele>2397.1</ele>
        <time>2026-02-02T09:33:28Z</time>
      </trkpt>
      <trkpt lat="45.95044" lon="6.55579">
        <ele>2397.1</ele>
        <time>2026-02-02T09:33:29Z</time>
      </trkpt>
      <trkpt lat="45.95044" lon="6.55579">
        <ele>2397.1</ele>
        <time>2026-02-02T09:33:30Z</time>
      </trkpt>
      <trkpt lat="45.95044" lon="6.55579">
        <ele>2397.1</ele>
        <time>2026-02-02T09:33:31Z</time>
      </trkpt>
      <trkpt lat="45.95044" lon="6.55579">
        <ele>2397.1</ele>
        <time>2026-02-02T09:33:32Z</time>
      </trkpt>
      <trkpt lat="45.95044" lon="6.55579">
        <ele>2397.1</ele>
        <time>2026-02-02T09:33:33Z</time>
      </trkpt>
      <trkpt lat="45.95045" lon="6.55579">
        <ele>2397.1</ele>
        <time>2026-02-02T09:33:34Z</time>
      </trkpt>
      <trkpt lat="45.95045" lon="6.55578">
        <ele>2399.2</ele>
        <time>2026-02-02T09:33:35Z</time>
      </trkpt>
      <trkpt lat="45.95045" lon="6.55578">
        <ele>2399.2</ele>
        <time>2026-02-02T09:33:36Z</time>
      </trkpt>
      <trkpt lat="45.95045" lon="6.55577">
        <ele>2399.2</ele>
        <time>2026-02-02T09:33:37Z</time>
      </trkpt>
      <trkpt lat="45.95046" lon="6.55576">
        <ele>2399.2</ele>
        <time>2026-02-02T09:33:38Z</time>
      </trkpt>
      <trkpt lat="45.95045" lon="6.55577">
        <ele>2399.2</ele>
        <time>2026-02-02T09:33:39Z</time>
      </trkpt>
      <trkpt lat="45.95045" lon="6.55576">
        <ele>2399.2</ele>
        <time>2026-02-02T09:33:40Z</time>
      </trkpt>
      <trkpt lat="45.95046" lon="6.55575">
        <ele>2399.2</ele>
        <time>2026-02-02T09:33:41Z</time>
      </trkpt>
      <trkpt lat="45.95046" lon="6.55575">
        <ele>2399.2</ele>
        <time>2026-02-02T09:33:42Z</time>
      </trkpt>
      <trkpt lat="45.95046" lon="6.55576">
        <ele>2399.2</ele>
        <time>2026-02-02T09:33:43Z</time>
      </trkpt>
      <trkpt lat="45.95046" lon="6.55577">
        <ele>2399.2</ele>
        <time>2026-02-02T09:33:44Z</time>
      </trkpt>
      <trkpt lat="45.95046" lon="6.55578">
        <ele>2399.2</ele>
        <time>2026-02-02T09:33:45Z</time>
      </trkpt>
      <trkpt lat="45.95046" lon="6.55579">
        <ele>2399.2</ele>
        <time>2026-02-02T09:33:46Z</time>
      </trkpt>
      <trkpt lat="45.95047" lon="6.5558">
        <ele>2400.1</ele>
        <time>2026-02-02T09:33:47Z</time>
      </trkpt>
      <trkpt lat="45.95048" lon="6.5558">
        <ele>2400.1</ele>
        <time>2026-02-02T09:33:48Z</time>
      </trkpt>
      <trkpt lat="45.95049" lon="6.55581">
        <ele>2400.1</ele>
        <time>2026-02-02T09:33:49Z</time>
      </trkpt>
      <trkpt lat="45.9505" lon="6.55581">
        <ele>2403.1</ele>
        <time>2026-02-02T09:33:50Z</time>
      </trkpt>
      <trkpt lat="45.9505" lon="6.55582">
        <ele>2403.1</ele>
        <time>2026-02-02T09:33:51Z</time>
      </trkpt>
      <trkpt lat="45.95051" lon="6.55582">
        <ele>2403.1</ele>
        <time>2026-02-02T09:33:52Z</time>
      </trkpt>
      <trkpt lat="45.95052" lon="6.55583">
        <ele>2403.1</ele>
        <time>2026-02-02T09:33:53Z</time>
      </trkpt>
      <trkpt lat="45.95052" lon="6.55584">
        <ele>2400.9</ele>
        <time>2026-02-02T09:33:54Z</time>
      </trkpt>
      <trkpt lat="45.95053" lon="6.55585">
        <ele>2403.9</ele>
        <time>2026-02-02T09:33:55Z</time>
      </trkpt>
      <trkpt lat="45.95053" lon="6.55587">
        <ele>2403.9</ele>
        <time>2026-02-02T09:33:56Z</time>
      </trkpt>
      <trkpt lat="45.95054" lon="6.55588">
        <ele>2401.6</ele>
        <time>2026-02-02T09:33:57Z</time>
      </trkpt>
      <trkpt lat="45.95054" lon="6.55588">
        <ele>2401.6</ele>
        <time>2026-02-02T09:33:58Z</time>
      </trkpt>
      <trkpt lat="45.95054" lon="6.55588">
        <ele>2401.6</ele>
        <time>2026-02-02T09:33:59Z</time>
      </trkpt>
      <trkpt lat="45.95053" lon="6.55588">
        <ele>2401.6</ele>
        <time>2026-02-02T09:34:00Z</time>
      </trkpt>
      <trkpt lat="45.95053" lon="6.55588">
        <ele>2401.6</ele>
        <time>2026-02-02T09:34:01Z</time>
      </trkpt>
      <trkpt lat="45.95053" lon="6.55588">
        <ele>2403.9</ele>
        <time>2026-02-02T09:34:02Z</time>
      </trkpt>
      <trkpt lat="45.95053" lon="6.55588">
        <ele>2403.9</ele>
        <time>2026-02-02T09:34:03Z</time>
      </trkpt>
      <trkpt lat="45.95053" lon="6.55588">
        <ele>2401.6</ele>
        <time>2026-02-02T09:34:04Z</time>
      </trkpt>
      <trkpt lat="45.95053" lon="6.55588">
        <ele>2401.6</ele>
        <time>2026-02-02T09:34:05Z</time>
      </trkpt>
      <trkpt lat="45.95053" lon="6.55588">
        <ele>2401.6</ele>
        <time>2026-02-02T09:34:06Z</time>
      </trkpt>
      <trkpt lat="45.95053" lon="6.55588">
        <ele>2401.6</ele>
        <time>2026-02-02T09:34:08Z</time>
      </trkpt>
      <trkpt lat="45.95053" lon="6.55588">
        <ele>2401.6</ele>
        <time>2026-02-02T09:34:09Z</time>
      </trkpt>
      <trkpt lat="45.95053" lon="6.55588">
        <ele>2401.6</ele>
        <time>2026-02-02T09:34:10Z</time>
      </trkpt>
      <trkpt lat="45.95053" lon="6.55588">
        <ele>2401.6</ele>
        <time>2026-02-02T09:34:11Z</time>
      </trkpt>
      <trkpt lat="45.95053" lon="6.55588">
        <ele>2401.6</ele>
        <time>2026-02-02T09:34:12Z</time>
      </trkpt>
      <trkpt lat="45.95053" lon="6.55588">
        <ele>2401.6</ele>
        <time>2026-02-02T09:34:13Z</time>
      </trkpt>
      <trkpt lat="45.95053" lon="6.55588">
        <ele>2401.6</ele>
        <time>2026-02-02T09:34:14Z</time>
      </trkpt>
      <trkpt lat="45.95053" lon="6.55588">
        <ele>2401.6</ele>
        <time>2026-02-02T09:34:15Z</time>
      </trkpt>
      <trkpt lat="45.95053" lon="6.55588">
        <ele>2401.6</ele>
        <time>2026-02-02T09:34:16Z</time>
      </trkpt>
      <trkpt lat="45.95053" lon="6.55588">
        <ele>2401.6</ele>
        <time>2026-02-02T09:34:17Z</time>
      </trkpt>
      <trkpt lat="45.95053" lon="6.55588">
        <ele>2401.6</ele>
        <time>2026-02-02T09:34:18Z</time>
      </trkpt>
      <trkpt lat="45.95053" lon="6.55588">
        <ele>2401.6</ele>
        <time>2026-02-02T09:34:19Z</time>
      </trkpt>
      <trkpt lat="45.95053" lon="6.55588">
        <ele>2401.6</ele>
        <time>2026-02-02T09:34:20Z</time>
      </trkpt>
      <trkpt lat="45.95053" lon="6.55588">
        <ele>2401.6</ele>
        <time>2026-02-02T09:34:21Z</time>
      </trkpt>
      <trkpt lat="45.95053" lon="6.55588">
        <ele>2401.6</ele>
        <time>2026-02-02T09:34:22Z</time>
      </trkpt>
      <trkpt lat="45.95053" lon="6.55589">
        <ele>2401.6</ele>
        <time>2026-02-02T09:34:23Z</time>
      </trkpt>
      <trkpt lat="45.95054" lon="6.5559">
        <ele>2401.6</ele>
        <time>2026-02-02T09:34:24Z</time>
      </trkpt>
      <trkpt lat="45.95054" lon="6.5559">
        <ele>2401.6</ele>
        <time>2026-02-02T09:34:25Z</time>
      </trkpt>
      <trkpt lat="45.95054" lon="6.55591">
        <ele>2401.6</ele>
        <time>2026-02-02T09:34:26Z</time>
      </trkpt>
      <trkpt lat="45.95054" lon="6.55592">
        <ele>2399.4</ele>
        <time>2026-02-02T09:34:27Z</time>
      </trkpt>
      <trkpt lat="45.95053" lon="6.55592">
        <ele>2401.6</ele>
        <time>2026-02-02T09:34:28Z</time>
      </trkpt>
      <trkpt lat="45.95052" lon="6.55592">
        <ele>2398.7</ele>
        <time>2026-02-02T09:34:29Z</time>
      </trkpt>
      <trkpt lat="45.95052" lon="6.55592">
        <ele>2398.7</ele>
        <time>2026-02-02T09:34:30Z</time>
      </trkpt>
      <trkpt lat="45.95053" lon="6.55592">
        <ele>2401.6</ele>
        <time>2026-02-02T09:34:31Z</time>
      </trkpt>
      <trkpt lat="45.95053" lon="6.55591">
        <ele>2401.6</ele>
        <time>2026-02-02T09:34:32Z</time>
      </trkpt>
      <trkpt lat="45.95054" lon="6.5559">
        <ele>2401.6</ele>
        <time>2026-02-02T09:34:33Z</time>
      </trkpt>
      <trkpt lat="45.95054" lon="6.5559">
        <ele>2401.6</ele>
        <time>2026-02-02T09:34:34Z</time>
      </trkpt>
      <trkpt lat="45.95054" lon="6.55589">
        <ele>2401.6</ele>
        <time>2026-02-02T09:34:35Z</time>
      </trkpt>
      <trkpt lat="45.95054" lon="6.5559">
        <ele>2401.6</ele>
        <time>2026-02-02T09:34:36Z</time>
      </trkpt>
      <trkpt lat="45.95054" lon="6.55589">
        <ele>2401.6</ele>
        <time>2026-02-02T09:34:37Z</time>
      </trkpt>
      <trkpt lat="45.95054" lon="6.55587">
        <ele>2403.9</ele>
        <time>2026-02-02T09:34:38Z</time>
      </trkpt>
      <trkpt lat="45.95055" lon="6.55585">
        <ele>2403.9</ele>
        <time>2026-02-02T09:34:39Z</time>
      </trkpt>
      <trkpt lat="45.95055" lon="6.55584">
        <ele>2403.9</ele>
        <time>2026-02-02T09:34:40Z</time>
      </trkpt>
      <trkpt lat="45.95055" lon="6.55582">
        <ele>2408.9</ele>
        <time>2026-02-02T09:34:41Z</time>
      </trkpt>
      <trkpt lat="45.95056" lon="6.55582">
        <ele>2408.9</ele>
        <time>2026-02-02T09:34:42Z</time>
      </trkpt>
      <trkpt lat="45.95056" lon="6.55581">
        <ele>2408.9</ele>
        <time>2026-02-02T09:34:43Z</time>
      </trkpt>
      <trkpt lat="45.95056" lon="6.55581">
        <ele>2408.9</ele>
        <time>2026-02-02T09:34:44Z</time>
      </trkpt>
      <trkpt lat="45.95056" lon="6.55581">
        <ele>2408.9</ele>
        <time>2026-02-02T09:34:45Z</time>
      </trkpt>
      <trkpt lat="45.95056" lon="6.55581">
        <ele>2408.9</ele>
        <time>2026-02-02T09:34:46Z</time>
      </trkpt>
      <trkpt lat="45.95056" lon="6.55581">
        <ele>2408.9</ele>
        <time>2026-02-02T09:34:47Z</time>
      </trkpt>
      <trkpt lat="45.95056" lon="6.55581">
        <ele>2408.9</ele>
        <time>2026-02-02T09:34:48Z</time>
      </trkpt>
      <trkpt lat="45.95056" lon="6.55581">
        <ele>2408.9</ele>
        <time>2026-02-02T09:34:49Z</time>
      </trkpt>
      <trkpt lat="45.95056" lon="6.55581">
        <ele>2408.9</ele>
        <time>2026-02-02T09:34:50Z</time>
      </trkpt>
      <trkpt lat="45.95056" lon="6.55581">
        <ele>2408.9</ele>
        <time>2026-02-02T09:34:51Z</time>
      </trkpt>
      <trkpt lat="45.95056" lon="6.55581">
        <ele>2408.9</ele>
        <time>2026-02-02T09:34:52Z</time>
      </trkpt>
      <trkpt lat="45.95056" lon="6.55581">
        <ele>2408.9</ele>
        <time>2026-02-02T09:34:53Z</time>
      </trkpt>
      <trkpt lat="45.95056" lon="6.55581">
        <ele>2408.9</ele>
        <time>2026-02-02T09:34:54Z</time>
      </trkpt>
      <trkpt lat="45.95056" lon="6.55581">
        <ele>2408.9</ele>
        <time>2026-02-02T09:34:55Z</time>
      </trkpt>
      <trkpt lat="45.95056" lon="6.55581">
        <ele>2408.9</ele>
        <time>2026-02-02T09:34:56Z</time>
      </trkpt>
      <trkpt lat="45.95056" lon="6.55581">
        <ele>2408.9</ele>
        <time>2026-02-02T09:34:57Z</time>
      </trkpt>
      <trkpt lat="45.95056" lon="6.55581">
        <ele>2408.9</ele>
        <time>2026-02-02T09:34:58Z</time>
      </trkpt>
      <trkpt lat="45.95056" lon="6.55581">
        <ele>2408.9</ele>
        <time>2026-02-02T09:34:59Z</time>
      </trkpt>
      <trkpt lat="45.95056" lon="6.55581">
        <ele>2408.9</ele>
        <time>2026-02-02T09:35:00Z</time>
      </trkpt>
      <trkpt lat="45.95056" lon="6.55581">
        <ele>2408.9</ele>
        <time>2026-02-02T09:35:01Z</time>
      </trkpt>
      <trkpt lat="45.95056" lon="6.55581">
        <ele>2408.9</ele>
        <time>2026-02-02T09:35:02Z</time>
      </trkpt>
      <trkpt lat="45.95056" lon="6.55581">
        <ele>2408.9</ele>
        <time>2026-02-02T09:35:03Z</time>
      </trkpt>
      <trkpt lat="45.95056" lon="6.55581">
        <ele>2408.9</ele>
        <time>2026-02-02T09:35:04Z</time>
      </trkpt>
      <trkpt lat="45.95056" lon="6.55581">
        <ele>2408.9</ele>
        <time>2026-02-02T09:35:05Z</time>
      </trkpt>
      <trkpt lat="45.95056" lon="6.55581">
        <ele>2408.9</ele>
        <time>2026-02-02T09:35:06Z</time>
      </trkpt>
      <trkpt lat="45.95056" lon="6.55581">
        <ele>2408.9</ele>
        <time>2026-02-02T09:35:07Z</time>
      </trkpt>
      <trkpt lat="45.95056" lon="6.55581">
        <ele>2408.9</ele>
        <time>2026-02-02T09:35:08Z</time>
      </trkpt>
      <trkpt lat="45.95057" lon="6.55581">
        <ele>2408.9</ele>
        <time>2026-02-02T09:35:09Z</time>
      </trkpt>
      <trkpt lat="45.95057" lon="6.55581">
        <ele>2408.9</ele>
        <time>2026-02-02T09:35:10Z</time>
      </trkpt>
      <trkpt lat="45.95057" lon="6.55581">
        <ele>2408.9</ele>
        <time>2026-02-02T09:35:11Z</time>
      </trkpt>
      <trkpt lat="45.95057" lon="6.55581">
        <ele>2408.9</ele>
        <time>2026-02-02T09:35:12Z</time>
      </trkpt>
      <trkpt lat="45.95057" lon="6.55581">
        <ele>2408.9</ele>
        <time>2026-02-02T09:35:13Z</time>
      </trkpt>
      <trkpt lat="45.95058" lon="6.55581">
        <ele>2408.9</ele>
        <time>2026-02-02T09:35:14Z</time>
      </trkpt>
      <trkpt lat="45.95057" lon="6.55581">
        <ele>2408.9</ele>
        <time>2026-02-02T09:35:15Z</time>
      </trkpt>
      <trkpt lat="45.95057" lon="6.55581">
        <ele>2408.9</ele>
        <time>2026-02-02T09:35:16Z</time>
      </trkpt>
      <trkpt lat="45.95057" lon="6.55581">
        <ele>2408.9</ele>
        <time>2026-02-02T09:35:17Z</time>
      </trkpt>
      <trkpt lat="45.95057" lon="6.55582">
        <ele>2408.9</ele>
        <time>2026-02-02T09:35:18Z</time>
      </trkpt>
      <trkpt lat="45.95057" lon="6.55582">
        <ele>2408.9</ele>
        <time>2026-02-02T09:35:19Z</time>
      </trkpt>
      <trkpt lat="45.95058" lon="6.55584">
        <ele>2406.8</ele>
        <time>2026-02-02T09:35:20Z</time>
      </trkpt>
      <trkpt lat="45.95058" lon="6.55586">
        <ele>2406.8</ele>
        <time>2026-02-02T09:35:21Z</time>
      </trkpt>
      <trkpt lat="45.95059" lon="6.55587">
        <ele>2409.5</ele>
        <time>2026-02-02T09:35:22Z</time>
      </trkpt>
      <trkpt lat="45.95059" lon="6.55589">
        <ele>2407.3</ele>
        <time>2026-02-02T09:35:23Z</time>
      </trkpt>
      <trkpt lat="45.95059" lon="6.5559">
        <ele>2407.3</ele>
        <time>2026-02-02T09:35:24Z</time>
      </trkpt>
      <trkpt lat="45.95059" lon="6.5559">
        <ele>2407.3</ele>
        <time>2026-02-02T09:35:25Z</time>
      </trkpt>
      <trkpt lat="45.95059" lon="6.55592">
        <ele>2407.3</ele>
        <time>2026-02-02T09:35:26Z</time>
      </trkpt>
      <trkpt lat="45.95059" lon="6.55593">
        <ele>2405</ele>
        <time>2026-02-02T09:35:27Z</time>
      </trkpt>
      <trkpt lat="45.95059" lon="6.55593">
        <ele>2405</ele>
        <time>2026-02-02T09:35:28Z</time>
      </trkpt>
      <trkpt lat="45.95059" lon="6.55594">
        <ele>2405</ele>
        <time>2026-02-02T09:35:29Z</time>
      </trkpt>
      <trkpt lat="45.95059" lon="6.55594">
        <ele>2405</ele>
        <time>2026-02-02T09:35:30Z</time>
      </trkpt>
      <trkpt lat="45.95059" lon="6.55593">
        <ele>2405</ele>
        <time>2026-02-02T09:35:31Z</time>
      </trkpt>
      <trkpt lat="45.95059" lon="6.55593">
        <ele>2405</ele>
        <time>2026-02-02T09:35:32Z</time>
      </trkpt>
      <trkpt lat="45.95059" lon="6.55593">
        <ele>2405</ele>
        <time>2026-02-02T09:35:33Z</time>
      </trkpt>
      <trkpt lat="45.9506" lon="6.55593">
        <ele>2405</ele>
        <time>2026-02-02T09:35:34Z</time>
      </trkpt>
      <trkpt lat="45.9506" lon="6.55592">
        <ele>2407.3</ele>
        <time>2026-02-02T09:35:35Z</time>
      </trkpt>
      <trkpt lat="45.9506" lon="6.55592">
        <ele>2407.3</ele>
        <time>2026-02-02T09:35:36Z</time>
      </trkpt>
      <trkpt lat="45.95061" lon="6.55592">
        <ele>2407.3</ele>
        <time>2026-02-02T09:35:37Z</time>
      </trkpt>
      <trkpt lat="45.95061" lon="6.55592">
        <ele>2409.8</ele>
        <time>2026-02-02T09:35:38Z</time>
      </trkpt>
      <trkpt lat="45.95061" lon="6.55592">
        <ele>2409.8</ele>
        <time>2026-02-02T09:35:39Z</time>
      </trkpt>
      <trkpt lat="45.95061" lon="6.55592">
        <ele>2409.8</ele>
        <time>2026-02-02T09:35:40Z</time>
      </trkpt>
      <trkpt lat="45.95061" lon="6.55592">
        <ele>2409.8</ele>
        <time>2026-02-02T09:35:41Z</time>
      </trkpt>
      <trkpt lat="45.95061" lon="6.55592">
        <ele>2409.8</ele>
        <time>2026-02-02T09:35:42Z</time>
      </trkpt>
      <trkpt lat="45.95061" lon="6.55592">
        <ele>2407.5</ele>
        <time>2026-02-02T09:35:43Z</time>
      </trkpt>
      <trkpt lat="45.95061" lon="6.55592">
        <ele>2407.5</ele>
        <time>2026-02-02T09:35:44Z</time>
      </trkpt>
      <trkpt lat="45.95061" lon="6.55592">
        <ele>2407.5</ele>
        <time>2026-02-02T09:35:45Z</time>
      </trkpt>
      <trkpt lat="45.95061" lon="6.55592">
        <ele>2407.5</ele>
        <time>2026-02-02T09:35:46Z</time>
      </trkpt>
      <trkpt lat="45.95061" lon="6.55592">
        <ele>2407.5</ele>
        <time>2026-02-02T09:35:47Z</time>
      </trkpt>
      <trkpt lat="45.95061" lon="6.55592">
        <ele>2407.5</ele>
        <time>2026-02-02T09:35:48Z</time>
      </trkpt>
      <trkpt lat="45.95061" lon="6.55592">
        <ele>2407.5</ele>
        <time>2026-02-02T09:35:49Z</time>
      </trkpt>
      <trkpt lat="45.95061" lon="6.55592">
        <ele>2407.5</ele>
        <time>2026-02-02T09:35:50Z</time>
      </trkpt>
      <trkpt lat="45.95061" lon="6.55592">
        <ele>2407.5</ele>
        <time>2026-02-02T09:35:51Z</time>
      </trkpt>
      <trkpt lat="45.95061" lon="6.55592">
        <ele>2407.5</ele>
        <time>2026-02-02T09:35:52Z</time>
      </trkpt>
      <trkpt lat="45.95061" lon="6.55592">
        <ele>2407.5</ele>
        <time>2026-02-02T09:35:53Z</time>
      </trkpt>
      <trkpt lat="45.95061" lon="6.55592">
        <ele>2407.5</ele>
        <time>2026-02-02T09:35:54Z</time>
      </trkpt>
      <trkpt lat="45.95061" lon="6.55592">
        <ele>2407.5</ele>
        <time>2026-02-02T09:35:55Z</time>
      </trkpt>
      <trkpt lat="45.95062" lon="6.55593">
        <ele>2407.5</ele>
        <time>2026-02-02T09:35:56Z</time>
      </trkpt>
      <trkpt lat="45.95062" lon="6.55593">
        <ele>2407.5</ele>
        <time>2026-02-02T09:35:57Z</time>
      </trkpt>
      <trkpt lat="45.95062" lon="6.55592">
        <ele>2407.5</ele>
        <time>2026-02-02T09:35:58Z</time>
      </trkpt>
      <trkpt lat="45.95063" lon="6.55591">
        <ele>2409.8</ele>
        <time>2026-02-02T09:35:59Z</time>
      </trkpt>
      <trkpt lat="45.95062" lon="6.5559">
        <ele>2409.8</ele>
        <time>2026-02-02T09:36:00Z</time>
      </trkpt>
      <trkpt lat="45.95062" lon="6.5559">
        <ele>2409.8</ele>
        <time>2026-02-02T09:36:01Z</time>
      </trkpt>
      <trkpt lat="45.95061" lon="6.55589">
        <ele>2409.8</ele>
        <time>2026-02-02T09:36:02Z</time>
      </trkpt>
      <trkpt lat="45.95061" lon="6.55588">
        <ele>2409.8</ele>
        <time>2026-02-02T09:36:03Z</time>
      </trkpt>
      <trkpt lat="45.95062" lon="6.55586">
        <ele>2412</ele>
        <time>2026-02-02T09:36:04Z</time>
      </trkpt>
      <trkpt lat="45.95063" lon="6.55585">
        <ele>2412</ele>
        <time>2026-02-02T09:36:05Z</time>
      </trkpt>
      <trkpt lat="45.95063" lon="6.55584">
        <ele>2412</ele>
        <time>2026-02-02T09:36:06Z</time>
      </trkpt>
      <trkpt lat="45.95063" lon="6.55583">
        <ele>2414.2</ele>
        <time>2026-02-02T09:36:07Z</time>
      </trkpt>
      <trkpt lat="45.95063" lon="6.55583">
        <ele>2414.2</ele>
        <time>2026-02-02T09:36:08Z</time>
      </trkpt>
      <trkpt lat="45.95063" lon="6.55583">
        <ele>2414.2</ele>
        <time>2026-02-02T09:36:09Z</time>
      </trkpt>
      <trkpt lat="45.95063" lon="6.55583">
        <ele>2414.2</ele>
        <time>2026-02-02T09:36:10Z</time>
      </trkpt>
      <trkpt lat="45.95062" lon="6.55583">
        <ele>2414.2</ele>
        <time>2026-02-02T09:36:11Z</time>
      </trkpt>
      <trkpt lat="45.95063" lon="6.55583">
        <ele>2414.2</ele>
        <time>2026-02-02T09:36:12Z</time>
      </trkpt>
      <trkpt lat="45.95062" lon="6.55584">
        <ele>2412</ele>
        <time>2026-02-02T09:36:13Z</time>
      </trkpt>
      <trkpt lat="45.95063" lon="6.55584">
        <ele>2412</ele>
        <time>2026-02-02T09:36:14Z</time>
      </trkpt>
      <trkpt lat="45.95063" lon="6.55585">
        <ele>2412</ele>
        <time>2026-02-02T09:36:15Z</time>
      </trkpt>
      <trkpt lat="45.95064" lon="6.55587">
        <ele>2412</ele>
        <time>2026-02-02T09:36:16Z</time>
      </trkpt>
      <trkpt lat="45.95064" lon="6.55588">
        <ele>2409.8</ele>
        <time>2026-02-02T09:36:17Z</time>
      </trkpt>
      <trkpt lat="45.95064" lon="6.5559">
        <ele>2412</ele>
        <time>2026-02-02T09:36:18Z</time>
      </trkpt>
      <trkpt lat="45.95065" lon="6.5559">
        <ele>2412</ele>
        <time>2026-02-02T09:36:19Z</time>
      </trkpt>
      <trkpt lat="45.95065" lon="6.55591">
        <ele>2412</ele>
        <time>2026-02-02T09:36:20Z</time>
      </trkpt>
      <trkpt lat="45.95065" lon="6.55592">
        <ele>2412</ele>
        <time>2026-02-02T09:36:21Z</time>
      </trkpt>
      <trkpt lat="45.95064" lon="6.55591">
        <ele>2409.8</ele>
        <time>2026-02-02T09:36:22Z</time>
      </trkpt>
      <trkpt lat="45.95064" lon="6.55591">
        <ele>2409.8</ele>
        <time>2026-02-02T09:36:23Z</time>
      </trkpt>
      <trkpt lat="45.95064" lon="6.55591">
        <ele>2409.8</ele>
        <time>2026-02-02T09:36:24Z</time>
      </trkpt>
      <trkpt lat="45.95064" lon="6.55591">
        <ele>2409.8</ele>
        <time>2026-02-02T09:36:25Z</time>
      </trkpt>
      <trkpt lat="45.95064" lon="6.55591">
        <ele>2409.8</ele>
        <time>2026-02-02T09:36:26Z</time>
      </trkpt>
      <trkpt lat="45.95064" lon="6.55591">
        <ele>2409.8</ele>
        <time>2026-02-02T09:36:27Z</time>
      </trkpt>
      <trkpt lat="45.95064" lon="6.55591">
        <ele>2409.8</ele>
        <time>2026-02-02T09:36:28Z</time>
      </trkpt>
      <trkpt lat="45.95064" lon="6.55591">
        <ele>2409.8</ele>
        <time>2026-02-02T09:36:29Z</time>
      </trkpt>
      <trkpt lat="45.95064" lon="6.55591">
        <ele>2409.8</ele>
        <time>2026-02-02T09:36:30Z</time>
      </trkpt>
      <trkpt lat="45.95064" lon="6.55591">
        <ele>2409.8</ele>
        <time>2026-02-02T09:36:31Z</time>
      </trkpt>
      <trkpt lat="45.95064" lon="6.55591">
        <ele>2409.8</ele>
        <time>2026-02-02T09:36:32Z</time>
      </trkpt>
      <trkpt lat="45.95064" lon="6.55591">
        <ele>2409.8</ele>
        <time>2026-02-02T09:36:33Z</time>
      </trkpt>
      <trkpt lat="45.95064" lon="6.55591">
        <ele>2409.8</ele>
        <time>2026-02-02T09:36:34Z</time>
      </trkpt>
      <trkpt lat="45.95064" lon="6.55591">
        <ele>2409.8</ele>
        <time>2026-02-02T09:36:35Z</time>
      </trkpt>
      <trkpt lat="45.95064" lon="6.55591">
        <ele>2409.8</ele>
        <time>2026-02-02T09:36:36Z</time>
      </trkpt>
      <trkpt lat="45.95064" lon="6.55591">
        <ele>2409.8</ele>
        <time>2026-02-02T09:36:37Z</time>
      </trkpt>
      <trkpt lat="45.95064" lon="6.55591">
        <ele>2409.8</ele>
        <time>2026-02-02T09:36:38Z</time>
      </trkpt>
      <trkpt lat="45.95064" lon="6.55591">
        <ele>2409.8</ele>
        <time>2026-02-02T09:36:39Z</time>
      </trkpt>
      <trkpt lat="45.95064" lon="6.55592">
        <ele>2409.8</ele>
        <time>2026-02-02T09:36:40Z</time>
      </trkpt>
      <trkpt lat="45.95064" lon="6.55593">
        <ele>2407.5</ele>
        <time>2026-02-02T09:36:41Z</time>
      </trkpt>
      <trkpt lat="45.95064" lon="6.55593">
        <ele>2407.5</ele>
        <time>2026-02-02T09:36:42Z</time>
      </trkpt>
      <trkpt lat="45.95064" lon="6.55595">
        <ele>2407.5</ele>
        <time>2026-02-02T09:36:43Z</time>
      </trkpt>
      <trkpt lat="45.95064" lon="6.55595">
        <ele>2407.5</ele>
        <time>2026-02-02T09:36:44Z</time>
      </trkpt>
      <trkpt lat="45.95064" lon="6.55596">
        <ele>2407.5</ele>
        <time>2026-02-02T09:36:45Z</time>
      </trkpt>
      <trkpt lat="45.95064" lon="6.55596">
        <ele>2409.7</ele>
        <time>2026-02-02T09:36:46Z</time>
      </trkpt>
      <trkpt lat="45.95064" lon="6.55596">
        <ele>2409.7</ele>
        <time>2026-02-02T09:36:47Z</time>
      </trkpt>
      <trkpt lat="45.95064" lon="6.55596">
        <ele>2409.7</ele>
        <time>2026-02-02T09:36:48Z</time>
      </trkpt>
      <trkpt lat="45.95064" lon="6.55596">
        <ele>2409.7</ele>
        <time>2026-02-02T09:36:49Z</time>
      </trkpt>
      <trkpt lat="45.95064" lon="6.55596">
        <ele>2409.7</ele>
        <time>2026-02-02T09:36:50Z</time>
      </trkpt>
      <trkpt lat="45.95064" lon="6.55596">
        <ele>2409.7</ele>
        <time>2026-02-02T09:36:51Z</time>
      </trkpt>
      <trkpt lat="45.95064" lon="6.55596">
        <ele>2409.7</ele>
        <time>2026-02-02T09:36:52Z</time>
      </trkpt>
      <trkpt lat="45.95064" lon="6.55596">
        <ele>2409.7</ele>
        <time>2026-02-02T09:36:53Z</time>
      </trkpt>
      <trkpt lat="45.95064" lon="6.55596">
        <ele>2409.7</ele>
        <time>2026-02-02T09:36:54Z</time>
      </trkpt>
      <trkpt lat="45.95065" lon="6.55596">
        <ele>2409.7</ele>
        <time>2026-02-02T09:36:55Z</time>
      </trkpt>
      <trkpt lat="45.95065" lon="6.55596">
        <ele>2407.3</ele>
        <time>2026-02-02T09:36:56Z</time>
      </trkpt>
      <trkpt lat="45.95065" lon="6.55596">
        <ele>2409.7</ele>
        <time>2026-02-02T09:36:57Z</time>
      </trkpt>
      <trkpt lat="45.95065" lon="6.55596">
        <ele>2409.7</ele>
        <time>2026-02-02T09:36:58Z</time>
      </trkpt>
      <trkpt lat="45.95065" lon="6.55596">
        <ele>2409.7</ele>
        <time>2026-02-02T09:36:59Z</time>
      </trkpt>
      <trkpt lat="45.95065" lon="6.55596">
        <ele>2409.7</ele>
        <time>2026-02-02T09:37:00Z</time>
      </trkpt>
      <trkpt lat="45.95065" lon="6.55596">
        <ele>2409.7</ele>
        <time>2026-02-02T09:37:01Z</time>
      </trkpt>
      <trkpt lat="45.95063" lon="6.55596">
        <ele>2405.1</ele>
        <time>2026-02-02T09:37:02Z</time>
      </trkpt>
      <trkpt lat="45.95064" lon="6.55597">
        <ele>2405.1</ele>
        <time>2026-02-02T09:37:03Z</time>
      </trkpt>
      <trkpt lat="45.95063" lon="6.55598">
        <ele>2405.1</ele>
        <time>2026-02-02T09:37:04Z</time>
      </trkpt>
      <trkpt lat="45.95063" lon="6.55596">
        <ele>2405.1</ele>
        <time>2026-02-02T09:37:05Z</time>
      </trkpt>
      <trkpt lat="45.95063" lon="6.55596">
        <ele>2405.1</ele>
        <time>2026-02-02T09:37:06Z</time>
      </trkpt>
      <trkpt lat="45.95063" lon="6.55596">
        <ele>2405.1</ele>
        <time>2026-02-02T09:37:07Z</time>
      </trkpt>
      <trkpt lat="45.95063" lon="6.55596">
        <ele>2405.1</ele>
        <time>2026-02-02T09:37:08Z</time>
      </trkpt>
      <trkpt lat="45.95063" lon="6.55596">
        <ele>2405.1</ele>
        <time>2026-02-02T09:37:09Z</time>
      </trkpt>
      <trkpt lat="45.95063" lon="6.55596">
        <ele>2405.1</ele>
        <time>2026-02-02T09:37:10Z</time>
      </trkpt>
      <trkpt lat="45.95063" lon="6.55596">
        <ele>2405.1</ele>
        <time>2026-02-02T09:37:11Z</time>
      </trkpt>
      <trkpt lat="45.95063" lon="6.55596">
        <ele>2405.1</ele>
        <time>2026-02-02T09:37:12Z</time>
      </trkpt>
      <trkpt lat="45.95063" lon="6.55596">
        <ele>2405.1</ele>
        <time>2026-02-02T09:37:13Z</time>
      </trkpt>
      <trkpt lat="45.95064" lon="6.55596">
        <ele>2409.7</ele>
        <time>2026-02-02T09:37:14Z</time>
      </trkpt>
      <trkpt lat="45.95065" lon="6.55597">
        <ele>2407.3</ele>
        <time>2026-02-02T09:37:15Z</time>
      </trkpt>
      <trkpt lat="45.95064" lon="6.55597">
        <ele>2405.1</ele>
        <time>2026-02-02T09:37:16Z</time>
      </trkpt>
      <trkpt lat="45.95064" lon="6.55597">
        <ele>2405.1</ele>
        <time>2026-02-02T09:37:17Z</time>
      </trkpt>
      <trkpt lat="45.95064" lon="6.55597">
        <ele>2405.1</ele>
        <time>2026-02-02T09:37:18Z</time>
      </trkpt>
      <trkpt lat="45.95064" lon="6.55597">
        <ele>2405.1</ele>
        <time>2026-02-02T09:37:19Z</time>
      </trkpt>
      <trkpt lat="45.95064" lon="6.55597">
        <ele>2405.1</ele>
        <time>2026-02-02T09:37:20Z</time>
      </trkpt>
      <trkpt lat="45.95064" lon="6.55597">
        <ele>2405.1</ele>
        <time>2026-02-02T09:37:21Z</time>
      </trkpt>
      <trkpt lat="45.95064" lon="6.55597">
        <ele>2405.1</ele>
        <time>2026-02-02T09:37:22Z</time>
      </trkpt>
      <trkpt lat="45.95064" lon="6.55597">
        <ele>2405.1</ele>
        <time>2026-02-02T09:37:23Z</time>
      </trkpt>
      <trkpt lat="45.95064" lon="6.55597">
        <ele>2405.1</ele>
        <time>2026-02-02T09:37:24Z</time>
      </trkpt>
      <trkpt lat="45.95064" lon="6.55597">
        <ele>2405.1</ele>
        <time>2026-02-02T09:37:25Z</time>
      </trkpt>
      <trkpt lat="45.95064" lon="6.55597">
        <ele>2405.1</ele>
        <time>2026-02-02T09:37:26Z</time>
      </trkpt>
      <trkpt lat="45.95064" lon="6.55597">
        <ele>2405.1</ele>
        <time>2026-02-02T09:37:27Z</time>
      </trkpt>
      <trkpt lat="45.95064" lon="6.55597">
        <ele>2405.1</ele>
        <time>2026-02-02T09:37:28Z</time>
      </trkpt>
      <trkpt lat="45.95064" lon="6.55597">
        <ele>2405.1</ele>
        <time>2026-02-02T09:37:29Z</time>
      </trkpt>
      <trkpt lat="45.95064" lon="6.55595">
        <ele>2407.5</ele>
        <time>2026-02-02T09:37:30Z</time>
      </trkpt>
      <trkpt lat="45.95064" lon="6.55595">
        <ele>2407.5</ele>
        <time>2026-02-02T09:37:31Z</time>
      </trkpt>
      <trkpt lat="45.95064" lon="6.55595">
        <ele>2407.5</ele>
        <time>2026-02-02T09:37:32Z</time>
      </trkpt>
      <trkpt lat="45.95064" lon="6.55595">
        <ele>2407.5</ele>
        <time>2026-02-02T09:37:33Z</time>
      </trkpt>
      <trkpt lat="45.95064" lon="6.55595">
        <ele>2407.5</ele>
        <time>2026-02-02T09:37:34Z</time>
      </trkpt>
      <trkpt lat="45.95064" lon="6.55595">
        <ele>2407.5</ele>
        <time>2026-02-02T09:37:35Z</time>
      </trkpt>
      <trkpt lat="45.95064" lon="6.55595">
        <ele>2407.5</ele>
        <time>2026-02-02T09:37:36Z</time>
      </trkpt>
      <trkpt lat="45.95064" lon="6.55595">
        <ele>2407.5</ele>
        <time>2026-02-02T09:37:37Z</time>
      </trkpt>
      <trkpt lat="45.95064" lon="6.55595">
        <ele>2407.5</ele>
        <time>2026-02-02T09:37:38Z</time>
      </trkpt>
      <trkpt lat="45.95064" lon="6.55595">
        <ele>2407.5</ele>
        <time>2026-02-02T09:37:39Z</time>
      </trkpt>
      <trkpt lat="45.95064" lon="6.55595">
        <ele>2407.5</ele>
        <time>2026-02-02T09:37:40Z</time>
      </trkpt>
      <trkpt lat="45.95064" lon="6.55595">
        <ele>2407.5</ele>
        <time>2026-02-02T09:37:41Z</time>
      </trkpt>
      <trkpt lat="45.95064" lon="6.55595">
        <ele>2407.5</ele>
        <time>2026-02-02T09:37:42Z</time>
      </trkpt>
      <trkpt lat="45.95064" lon="6.55595">
        <ele>2409.7</ele>
        <time>2026-02-02T09:37:43Z</time>
      </trkpt>
      <trkpt lat="45.95065" lon="6.55595">
        <ele>2409.7</ele>
        <time>2026-02-02T09:37:44Z</time>
      </trkpt>
      <trkpt lat="45.95065" lon="6.55596">
        <ele>2409.7</ele>
        <time>2026-02-02T09:37:45Z</time>
      </trkpt>
      <trkpt lat="45.95065" lon="6.55596">
        <ele>2409.7</ele>
        <time>2026-02-02T09:37:46Z</time>
      </trkpt>
      <trkpt lat="45.95065" lon="6.55596">
        <ele>2409.7</ele>
        <time>2026-02-02T09:37:47Z</time>
      </trkpt>
      <trkpt lat="45.95065" lon="6.55596">
        <ele>2409.7</ele>
        <time>2026-02-02T09:37:48Z</time>
      </trkpt>
      <trkpt lat="45.95064" lon="6.55596">
        <ele>2407.5</ele>
        <time>2026-02-02T09:37:49Z</time>
      </trkpt>
      <trkpt lat="45.95064" lon="6.55597">
        <ele>2405.1</ele>
        <time>2026-02-02T09:37:50Z</time>
      </trkpt>
      <trkpt lat="45.95065" lon="6.55597">
        <ele>2407.3</ele>
        <time>2026-02-02T09:37:51Z</time>
      </trkpt>
      <trkpt lat="45.95065" lon="6.55596">
        <ele>2407.3</ele>
        <time>2026-02-02T09:37:52Z</time>
      </trkpt>
      <trkpt lat="45.95065" lon="6.55597">
        <ele>2407.3</ele>
        <time>2026-02-02T09:37:53Z</time>
      </trkpt>
      <trkpt lat="45.95065" lon="6.55597">
        <ele>2407.3</ele>
        <time>2026-02-02T09:37:54Z</time>
      </trkpt>
      <trkpt lat="45.95065" lon="6.55597">
        <ele>2407.3</ele>
        <time>2026-02-02T09:37:55Z</time>
      </trkpt>
      <trkpt lat="45.95065" lon="6.55597">
        <ele>2407.3</ele>
        <time>2026-02-02T09:37:56Z</time>
      </trkpt>
      <trkpt lat="45.95065" lon="6.55597">
        <ele>2407.3</ele>
        <time>2026-02-02T09:37:57Z</time>
      </trkpt>
      <trkpt lat="45.95065" lon="6.55597">
        <ele>2407.3</ele>
        <time>2026-02-02T09:37:58Z</time>
      </trkpt>
      <trkpt lat="45.95065" lon="6.55597">
        <ele>2407.3</ele>
        <time>2026-02-02T09:37:59Z</time>
      </trkpt>
      <trkpt lat="45.95065" lon="6.55597">
        <ele>2407.3</ele>
        <time>2026-02-02T09:38:00Z</time>
      </trkpt>
      <trkpt lat="45.95065" lon="6.55597">
        <ele>2407.3</ele>
        <time>2026-02-02T09:38:01Z</time>
      </trkpt>
      <trkpt lat="45.95066" lon="6.55597">
        <ele>2407.3</ele>
        <time>2026-02-02T09:38:02Z</time>
      </trkpt>
      <trkpt lat="45.95066" lon="6.55597">
        <ele>2407.3</ele>
        <time>2026-02-02T09:38:03Z</time>
      </trkpt>
      <trkpt lat="45.95066" lon="6.55597">
        <ele>2407.3</ele>
        <time>2026-02-02T09:38:04Z</time>
      </trkpt>
      <trkpt lat="45.95066" lon="6.55597">
        <ele>2407.3</ele>
        <time>2026-02-02T09:38:05Z</time>
      </trkpt>
      <trkpt lat="45.95066" lon="6.55597">
        <ele>2407.3</ele>
        <time>2026-02-02T09:38:06Z</time>
      </trkpt>
      <trkpt lat="45.95066" lon="6.55597">
        <ele>2407.3</ele>
        <time>2026-02-02T09:38:07Z</time>
      </trkpt>
      <trkpt lat="45.95066" lon="6.55597">
        <ele>2407.3</ele>
        <time>2026-02-02T09:38:08Z</time>
      </trkpt>
      <trkpt lat="45.95066" lon="6.55597">
        <ele>2407.3</ele>
        <time>2026-02-02T09:38:09Z</time>
      </trkpt>
      <trkpt lat="45.95066" lon="6.55597">
        <ele>2407.3</ele>
        <time>2026-02-02T09:38:10Z</time>
      </trkpt>
      <trkpt lat="45.95066" lon="6.55597">
        <ele>2407.3</ele>
        <time>2026-02-02T09:38:11Z</time>
      </trkpt>
      <trkpt lat="45.95066" lon="6.55597">
        <ele>2407.3</ele>
        <time>2026-02-02T09:38:12Z</time>
      </trkpt>
      <trkpt lat="45.95066" lon="6.55597">
        <ele>2407.3</ele>
        <time>2026-02-02T09:38:13Z</time>
      </trkpt>
      <trkpt lat="45.95066" lon="6.55597">
        <ele>2407.3</ele>
        <time>2026-02-02T09:38:14Z</time>
      </trkpt>
      <trkpt lat="45.95066" lon="6.55597">
        <ele>2407.3</ele>
        <time>2026-02-02T09:38:15Z</time>
      </trkpt>
      <trkpt lat="45.95066" lon="6.55597">
        <ele>2407.3</ele>
        <time>2026-02-02T09:38:16Z</time>
      </trkpt>
      <trkpt lat="45.95066" lon="6.55597">
        <ele>2407.3</ele>
        <time>2026-02-02T09:38:17Z</time>
      </trkpt>
      <trkpt lat="45.95066" lon="6.55597">
        <ele>2407.3</ele>
        <time>2026-02-02T09:38:18Z</time>
      </trkpt>
      <trkpt lat="45.95066" lon="6.55597">
        <ele>2407.3</ele>
        <time>2026-02-02T09:38:19Z</time>
      </trkpt>
      <trkpt lat="45.95066" lon="6.55597">
        <ele>2407.3</ele>
        <time>2026-02-02T09:38:20Z</time>
      </trkpt>
      <trkpt lat="45.95066" lon="6.55596">
        <ele>2409.7</ele>
        <time>2026-02-02T09:38:21Z</time>
      </trkpt>
      <trkpt lat="45.95066" lon="6.55595">
        <ele>2409.7</ele>
        <time>2026-02-02T09:38:22Z</time>
      </trkpt>
      <trkpt lat="45.95067" lon="6.55594">
        <ele>2409.7</ele>
        <time>2026-02-02T09:38:23Z</time>
      </trkpt>
      <trkpt lat="45.95067" lon="6.55594">
        <ele>2409.7</ele>
        <time>2026-02-02T09:38:24Z</time>
      </trkpt>
      <trkpt lat="45.95067" lon="6.55595">
        <ele>2409.7</ele>
        <time>2026-02-02T09:38:25Z</time>
      </trkpt>
      <trkpt lat="45.95067" lon="6.55594">
        <ele>2411.7</ele>
        <time>2026-02-02T09:38:26Z</time>
      </trkpt>
      <trkpt lat="45.95067" lon="6.55594">
        <ele>2411.7</ele>
        <time>2026-02-02T09:38:27Z</time>
      </trkpt>
      <trkpt lat="45.95067" lon="6.55594">
        <ele>2411.7</ele>
        <time>2026-02-02T09:38:28Z</time>
      </trkpt>
      <trkpt lat="45.95067" lon="6.55594">
        <ele>2411.7</ele>
        <time>2026-02-02T09:38:29Z</time>
      </trkpt>
      <trkpt lat="45.95068" lon="6.55594">
        <ele>2411.7</ele>
        <time>2026-02-02T09:38:30Z</time>
      </trkpt>
      <trkpt lat="45.95068" lon="6.55594">
        <ele>2411.7</ele>
        <time>2026-02-02T09:38:31Z</time>
      </trkpt>
      <trkpt lat="45.95068" lon="6.55594">
        <ele>2411.7</ele>
        <time>2026-02-02T09:38:32Z</time>
      </trkpt>
      <trkpt lat="45.95068" lon="6.55594">
        <ele>2411.7</ele>
        <time>2026-02-02T09:38:33Z</time>
      </trkpt>
      <trkpt lat="45.95068" lon="6.55594">
        <ele>2411.7</ele>
        <time>2026-02-02T09:38:34Z</time>
      </trkpt>
      <trkpt lat="45.95068" lon="6.55594">
        <ele>2411.7</ele>
        <time>2026-02-02T09:38:35Z</time>
      </trkpt>
      <trkpt lat="45.95068" lon="6.55594">
        <ele>2411.7</ele>
        <time>2026-02-02T09:38:36Z</time>
      </trkpt>
      <trkpt lat="45.95068" lon="6.55593">
        <ele>2411.7</ele>
        <time>2026-02-02T09:38:37Z</time>
      </trkpt>
      <trkpt lat="45.95068" lon="6.55594">
        <ele>2411.7</ele>
        <time>2026-02-02T09:38:38Z</time>
      </trkpt>
      <trkpt lat="45.95068" lon="6.55594">
        <ele>2411.7</ele>
        <time>2026-02-02T09:38:39Z</time>
      </trkpt>
      <trkpt lat="45.95068" lon="6.55594">
        <ele>2411.7</ele>
        <time>2026-02-02T09:38:40Z</time>
      </trkpt>
      <trkpt lat="45.95068" lon="6.55594">
        <ele>2411.7</ele>
        <time>2026-02-02T09:38:41Z</time>
      </trkpt>
      <trkpt lat="45.95068" lon="6.55593">
        <ele>2411.7</ele>
        <time>2026-02-02T09:38:42Z</time>
      </trkpt>
      <trkpt lat="45.95068" lon="6.55593">
        <ele>2411.7</ele>
        <time>2026-02-02T09:38:43Z</time>
      </trkpt>
      <trkpt lat="45.95068" lon="6.55593">
        <ele>2411.7</ele>
        <time>2026-02-02T09:38:44Z</time>
      </trkpt>
      <trkpt lat="45.95068" lon="6.55592">
        <ele>2411.7</ele>
        <time>2026-02-02T09:38:45Z</time>
      </trkpt>
      <trkpt lat="45.95069" lon="6.55591">
        <ele>2414</ele>
        <time>2026-02-02T09:38:46Z</time>
      </trkpt>
      <trkpt lat="45.95069" lon="6.55591">
        <ele>2414</ele>
        <time>2026-02-02T09:38:47Z</time>
      </trkpt>
      <trkpt lat="45.95069" lon="6.5559">
        <ele>2414</ele>
        <time>2026-02-02T09:38:48Z</time>
      </trkpt>
      <trkpt lat="45.95069" lon="6.5559">
        <ele>2414</ele>
        <time>2026-02-02T09:38:49Z</time>
      </trkpt>
      <trkpt lat="45.95069" lon="6.55589">
        <ele>2414</ele>
        <time>2026-02-02T09:38:50Z</time>
      </trkpt>
      <trkpt lat="45.9507" lon="6.55587">
        <ele>2416.2</ele>
        <time>2026-02-02T09:38:51Z</time>
      </trkpt>
      <trkpt lat="45.95071" lon="6.55585">
        <ele>2418.2</ele>
        <time>2026-02-02T09:38:53Z</time>
      </trkpt>
      <trkpt lat="45.95072" lon="6.55585">
        <ele>2418.2</ele>
        <time>2026-02-02T09:38:54Z</time>
      </trkpt>
      <trkpt lat="45.95072" lon="6.55584">
        <ele>2418.2</ele>
        <time>2026-02-02T09:38:55Z</time>
      </trkpt>
      <trkpt lat="45.95072" lon="6.55584">
        <ele>2418.2</ele>
        <time>2026-02-02T09:38:56Z</time>
      </trkpt>
      <trkpt lat="45.95072" lon="6.55584">
        <ele>2418.2</ele>
        <time>2026-02-02T09:38:57Z</time>
      </trkpt>
      <trkpt lat="45.95072" lon="6.55583">
        <ele>2420.5</ele>
        <time>2026-02-02T09:38:58Z</time>
      </trkpt>
      <trkpt lat="45.95072" lon="6.55583">
        <ele>2420.5</ele>
        <time>2026-02-02T09:38:59Z</time>
      </trkpt>
      <trkpt lat="45.95072" lon="6.55583">
        <ele>2420.5</ele>
        <time>2026-02-02T09:39:00Z</time>
      </trkpt>
      <trkpt lat="45.95072" lon="6.55583">
        <ele>2420.5</ele>
        <time>2026-02-02T09:39:01Z</time>
      </trkpt>
      <trkpt lat="45.95072" lon="6.55583">
        <ele>2420.5</ele>
        <time>2026-02-02T09:39:02Z</time>
      </trkpt>
      <trkpt lat="45.95072" lon="6.55583">
        <ele>2420.5</ele>
        <time>2026-02-02T09:39:03Z</time>
      </trkpt>
      <trkpt lat="45.95072" lon="6.55583">
        <ele>2420.5</ele>
        <time>2026-02-02T09:39:04Z</time>
      </trkpt>
      <trkpt lat="45.95072" lon="6.55583">
        <ele>2420.5</ele>
        <time>2026-02-02T09:39:05Z</time>
      </trkpt>
      <trkpt lat="45.95072" lon="6.55583">
        <ele>2420.5</ele>
        <time>2026-02-02T09:39:06Z</time>
      </trkpt>
      <trkpt lat="45.95072" lon="6.55583">
        <ele>2420.5</ele>
        <time>2026-02-02T09:39:07Z</time>
      </trkpt>
      <trkpt lat="45.95072" lon="6.55583">
        <ele>2420.5</ele>
        <time>2026-02-02T09:39:08Z</time>
      </trkpt>
      <trkpt lat="45.95072" lon="6.55583">
        <ele>2420.5</ele>
        <time>2026-02-02T09:39:09Z</time>
      </trkpt>
      <trkpt lat="45.95072" lon="6.55583">
        <ele>2420.5</ele>
        <time>2026-02-02T09:39:10Z</time>
      </trkpt>
      <trkpt lat="45.95072" lon="6.55583">
        <ele>2420.5</ele>
        <time>2026-02-02T09:39:11Z</time>
      </trkpt>
      <trkpt lat="45.95072" lon="6.55583">
        <ele>2420.5</ele>
        <time>2026-02-02T09:39:12Z</time>
      </trkpt>
      <trkpt lat="45.95072" lon="6.55583">
        <ele>2420.5</ele>
        <time>2026-02-02T09:39:13Z</time>
      </trkpt>
      <trkpt lat="45.95072" lon="6.55583">
        <ele>2420.5</ele>
        <time>2026-02-02T09:39:14Z</time>
      </trkpt>
      <trkpt lat="45.95072" lon="6.55583">
        <ele>2418.2</ele>
        <time>2026-02-02T09:39:15Z</time>
      </trkpt>
      <trkpt lat="45.95072" lon="6.55584">
        <ele>2418.2</ele>
        <time>2026-02-02T09:39:16Z</time>
      </trkpt>
      <trkpt lat="45.95072" lon="6.55584">
        <ele>2418.2</ele>
        <time>2026-02-02T09:39:17Z</time>
      </trkpt>
      <trkpt lat="45.95072" lon="6.55584">
        <ele>2418.2</ele>
        <time>2026-02-02T09:39:18Z</time>
      </trkpt>
      <trkpt lat="45.95072" lon="6.55584">
        <ele>2418.2</ele>
        <time>2026-02-02T09:39:19Z</time>
      </trkpt>
      <trkpt lat="45.95072" lon="6.55584">
        <ele>2418.2</ele>
        <time>2026-02-02T09:39:20Z</time>
      </trkpt>
      <trkpt lat="45.95072" lon="6.55584">
        <ele>2418.2</ele>
        <time>2026-02-02T09:39:21Z</time>
      </trkpt>
      <trkpt lat="45.95072" lon="6.55584">
        <ele>2418.2</ele>
        <time>2026-02-02T09:39:23Z</time>
      </trkpt>
      <trkpt lat="45.95072" lon="6.55584">
        <ele>2418.2</ele>
        <time>2026-02-02T09:39:24Z</time>
      </trkpt>
      <trkpt lat="45.95072" lon="6.55585">
        <ele>2418.2</ele>
        <time>2026-02-02T09:39:25Z</time>
      </trkpt>
      <trkpt lat="45.95072" lon="6.55585">
        <ele>2418.2</ele>
        <time>2026-02-02T09:39:26Z</time>
      </trkpt>
      <trkpt lat="45.95072" lon="6.55585">
        <ele>2418.2</ele>
        <time>2026-02-02T09:39:27Z</time>
      </trkpt>
      <trkpt lat="45.95072" lon="6.55585">
        <ele>2418.2</ele>
        <time>2026-02-02T09:39:28Z</time>
      </trkpt>
      <trkpt lat="45.95072" lon="6.55585">
        <ele>2418.2</ele>
        <time>2026-02-02T09:39:29Z</time>
      </trkpt>
      <trkpt lat="45.95072" lon="6.55585">
        <ele>2418.2</ele>
        <time>2026-02-02T09:39:30Z</time>
      </trkpt>
      <trkpt lat="45.95072" lon="6.55585">
        <ele>2418.2</ele>
        <time>2026-02-02T09:39:31Z</time>
      </trkpt>
      <trkpt lat="45.95072" lon="6.55585">
        <ele>2418.2</ele>
        <time>2026-02-02T09:39:32Z</time>
      </trkpt>
      <trkpt lat="45.95072" lon="6.55585">
        <ele>2418.2</ele>
        <time>2026-02-02T09:39:33Z</time>
      </trkpt>
      <trkpt lat="45.95071" lon="6.55585">
        <ele>2418.2</ele>
        <time>2026-02-02T09:39:34Z</time>
      </trkpt>
      <trkpt lat="45.95071" lon="6.55585">
        <ele>2418.2</ele>
        <time>2026-02-02T09:39:35Z</time>
      </trkpt>
      <trkpt lat="45.95071" lon="6.55585">
        <ele>2418.2</ele>
        <time>2026-02-02T09:39:36Z</time>
      </trkpt>
      <trkpt lat="45.95071" lon="6.55585">
        <ele>2418.2</ele>
        <time>2026-02-02T09:39:37Z</time>
      </trkpt>
      <trkpt lat="45.95071" lon="6.55585">
        <ele>2418.2</ele>
        <time>2026-02-02T09:39:38Z</time>
      </trkpt>
      <trkpt lat="45.95071" lon="6.55585">
        <ele>2418.2</ele>
        <time>2026-02-02T09:39:39Z</time>
      </trkpt>
      <trkpt lat="45.95071" lon="6.55585">
        <ele>2418.2</ele>
        <time>2026-02-02T09:39:40Z</time>
      </trkpt>
      <trkpt lat="45.95071" lon="6.55585">
        <ele>2418.2</ele>
        <time>2026-02-02T09:39:41Z</time>
      </trkpt>
      <trkpt lat="45.95071" lon="6.55585">
        <ele>2418.2</ele>
        <time>2026-02-02T09:39:42Z</time>
      </trkpt>
      <trkpt lat="45.95071" lon="6.55585">
        <ele>2418.2</ele>
        <time>2026-02-02T09:39:43Z</time>
      </trkpt>
      <trkpt lat="45.95071" lon="6.55585">
        <ele>2418.2</ele>
        <time>2026-02-02T09:39:44Z</time>
      </trkpt>
      <trkpt lat="45.95071" lon="6.55585">
        <ele>2418.2</ele>
        <time>2026-02-02T09:39:45Z</time>
      </trkpt>
      <trkpt lat="45.95071" lon="6.55585">
        <ele>2418.2</ele>
        <time>2026-02-02T09:39:46Z</time>
      </trkpt>
      <trkpt lat="45.95071" lon="6.55585">
        <ele>2418.2</ele>
        <time>2026-02-02T09:39:47Z</time>
      </trkpt>
      <trkpt lat="45.95071" lon="6.55585">
        <ele>2418.2</ele>
        <time>2026-02-02T09:39:48Z</time>
      </trkpt>
      <trkpt lat="45.95071" lon="6.55585">
        <ele>2418.2</ele>
        <time>2026-02-02T09:39:49Z</time>
      </trkpt>
      <trkpt lat="45.95071" lon="6.55585">
        <ele>2418.2</ele>
        <time>2026-02-02T09:39:50Z</time>
      </trkpt>
      <trkpt lat="45.95071" lon="6.55585">
        <ele>2418.2</ele>
        <time>2026-02-02T09:39:51Z</time>
      </trkpt>
      <trkpt lat="45.95071" lon="6.55585">
        <ele>2418.2</ele>
        <time>2026-02-02T09:39:52Z</time>
      </trkpt>
      <trkpt lat="45.95071" lon="6.55584">
        <ele>2418.2</ele>
        <time>2026-02-02T09:39:53Z</time>
      </trkpt>
      <trkpt lat="45.95072" lon="6.55584">
        <ele>2418.2</ele>
        <time>2026-02-02T09:39:54Z</time>
      </trkpt>
      <trkpt lat="45.95072" lon="6.55584">
        <ele>2418.2</ele>
        <time>2026-02-02T09:39:55Z</time>
      </trkpt>
      <trkpt lat="45.95072" lon="6.55584">
        <ele>2418.2</ele>
        <time>2026-02-02T09:39:56Z</time>
      </trkpt>
      <trkpt lat="45.95072" lon="6.55584">
        <ele>2418.2</ele>
        <time>2026-02-02T09:39:57Z</time>
      </trkpt>
      <trkpt lat="45.95072" lon="6.55584">
        <ele>2418.2</ele>
        <time>2026-02-02T09:39:58Z</time>
      </trkpt>
      <trkpt lat="45.95072" lon="6.55584">
        <ele>2418.2</ele>
        <time>2026-02-02T09:39:59Z</time>
      </trkpt>
      <trkpt lat="45.95072" lon="6.55584">
        <ele>2418.2</ele>
        <time>2026-02-02T09:40:00Z</time>
      </trkpt>
      <trkpt lat="45.95072" lon="6.55584">
        <ele>2418.2</ele>
        <time>2026-02-02T09:40:01Z</time>
      </trkpt>
      <trkpt lat="45.95072" lon="6.55585">
        <ele>2418.2</ele>
        <time>2026-02-02T09:40:02Z</time>
      </trkpt>
      <trkpt lat="45.95072" lon="6.55585">
        <ele>2418.2</ele>
        <time>2026-02-02T09:40:03Z</time>
      </trkpt>
      <trkpt lat="45.95072" lon="6.55585">
        <ele>2418.2</ele>
        <time>2026-02-02T09:40:04Z</time>
      </trkpt>
      <trkpt lat="45.95072" lon="6.55585">
        <ele>2418.2</ele>
        <time>2026-02-02T09:40:05Z</time>
      </trkpt>
      <trkpt lat="45.95072" lon="6.55585">
        <ele>2418.2</ele>
        <time>2026-02-02T09:40:06Z</time>
      </trkpt>
      <trkpt lat="45.95072" lon="6.55585">
        <ele>2418.2</ele>
        <time>2026-02-02T09:40:07Z</time>
      </trkpt>
      <trkpt lat="45.95071" lon="6.55585">
        <ele>2418.2</ele>
        <time>2026-02-02T09:40:08Z</time>
      </trkpt>
      <trkpt lat="45.95071" lon="6.55585">
        <ele>2418.2</ele>
        <time>2026-02-02T09:40:09Z</time>
      </trkpt>
      <trkpt lat="45.95071" lon="6.55585">
        <ele>2418.2</ele>
        <time>2026-02-02T09:40:10Z</time>
      </trkpt>
      <trkpt lat="45.95071" lon="6.55585">
        <ele>2418.2</ele>
        <time>2026-02-02T09:40:11Z</time>
      </trkpt>
      <trkpt lat="45.95071" lon="6.55585">
        <ele>2418.2</ele>
        <time>2026-02-02T09:40:12Z</time>
      </trkpt>
      <trkpt lat="45.95071" lon="6.55585">
        <ele>2418.2</ele>
        <time>2026-02-02T09:40:13Z</time>
      </trkpt>
      <trkpt lat="45.95071" lon="6.55585">
        <ele>2418.2</ele>
        <time>2026-02-02T09:40:14Z</time>
      </trkpt>
      <trkpt lat="45.95071" lon="6.55585">
        <ele>2418.2</ele>
        <time>2026-02-02T09:40:15Z</time>
      </trkpt>
      <trkpt lat="45.95071" lon="6.55585">
        <ele>2418.2</ele>
        <time>2026-02-02T09:40:16Z</time>
      </trkpt>
      <trkpt lat="45.95071" lon="6.55585">
        <ele>2418.2</ele>
        <time>2026-02-02T09:40:17Z</time>
      </trkpt>
      <trkpt lat="45.95071" lon="6.55585">
        <ele>2418.2</ele>
        <time>2026-02-02T09:40:18Z</time>
      </trkpt>
      <trkpt lat="45.95071" lon="6.55585">
        <ele>2418.2</ele>
        <time>2026-02-02T09:40:19Z</time>
      </trkpt>
      <trkpt lat="45.95071" lon="6.55585">
        <ele>2418.2</ele>
        <time>2026-02-02T09:40:20Z</time>
      </trkpt>
      <trkpt lat="45.95071" lon="6.55585">
        <ele>2418.2</ele>
        <time>2026-02-02T09:40:21Z</time>
      </trkpt>
      <trkpt lat="45.95071" lon="6.55585">
        <ele>2418.2</ele>
        <time>2026-02-02T09:40:22Z</time>
      </trkpt>
      <trkpt lat="45.95071" lon="6.55585">
        <ele>2418.2</ele>
        <time>2026-02-02T09:40:23Z</time>
      </trkpt>
      <trkpt lat="45.95071" lon="6.55585">
        <ele>2418.2</ele>
        <time>2026-02-02T09:40:24Z</time>
      </trkpt>
      <trkpt lat="45.95071" lon="6.55585">
        <ele>2418.2</ele>
        <time>2026-02-02T09:40:25Z</time>
      </trkpt>
      <trkpt lat="45.95071" lon="6.55585">
        <ele>2418.2</ele>
        <time>2026-02-02T09:40:26Z</time>
      </trkpt>
      <trkpt lat="45.95071" lon="6.55585">
        <ele>2418.2</ele>
        <time>2026-02-02T09:40:27Z</time>
      </trkpt>
      <trkpt lat="45.95071" lon="6.55585">
        <ele>2418.2</ele>
        <time>2026-02-02T09:40:28Z</time>
      </trkpt>
      <trkpt lat="45.95071" lon="6.55585">
        <ele>2418.2</ele>
        <time>2026-02-02T09:40:29Z</time>
      </trkpt>
      <trkpt lat="45.95071" lon="6.55585">
        <ele>2418.2</ele>
        <time>2026-02-02T09:40:30Z</time>
      </trkpt>
      <trkpt lat="45.95071" lon="6.55585">
        <ele>2418.2</ele>
        <time>2026-02-02T09:40:31Z</time>
      </trkpt>
      <trkpt lat="45.95071" lon="6.55585">
        <ele>2418.2</ele>
        <time>2026-02-02T09:40:32Z</time>
      </trkpt>
      <trkpt lat="45.95071" lon="6.55585">
        <ele>2418.2</ele>
        <time>2026-02-02T09:40:33Z</time>
      </trkpt>
      <trkpt lat="45.95071" lon="6.55585">
        <ele>2418.2</ele>
        <time>2026-02-02T09:40:34Z</time>
      </trkpt>
      <trkpt lat="45.95071" lon="6.55585">
        <ele>2418.2</ele>
        <time>2026-02-02T09:40:35Z</time>
      </trkpt>
      <trkpt lat="45.95071" lon="6.55585">
        <ele>2418.2</ele>
        <time>2026-02-02T09:40:36Z</time>
      </trkpt>
      <trkpt lat="45.95072" lon="6.55585">
        <ele>2418.2</ele>
        <time>2026-02-02T09:40:37Z</time>
      </trkpt>
      <trkpt lat="45.95072" lon="6.55585">
        <ele>2418.2</ele>
        <time>2026-02-02T09:40:38Z</time>
      </trkpt>
      <trkpt lat="45.95072" lon="6.55585">
        <ele>2418.2</ele>
        <time>2026-02-02T09:40:39Z</time>
      </trkpt>
      <trkpt lat="45.95071" lon="6.55584">
        <ele>2418.2</ele>
        <time>2026-02-02T09:40:40Z</time>
      </trkpt>
      <trkpt lat="45.95071" lon="6.55584">
        <ele>2418.2</ele>
        <time>2026-02-02T09:40:41Z</time>
      </trkpt>
      <trkpt lat="45.95071" lon="6.55584">
        <ele>2418.2</ele>
        <time>2026-02-02T09:40:42Z</time>
      </trkpt>
      <trkpt lat="45.95071" lon="6.55585">
        <ele>2418.2</ele>
        <time>2026-02-02T09:40:43Z</time>
      </trkpt>
      <trkpt lat="45.95071" lon="6.55585">
        <ele>2418.2</ele>
        <time>2026-02-02T09:40:44Z</time>
      </trkpt>
      <trkpt lat="45.95071" lon="6.55585">
        <ele>2418.2</ele>
        <time>2026-02-02T09:40:45Z</time>
      </trkpt>
      <trkpt lat="45.95071" lon="6.55585">
        <ele>2418.2</ele>
        <time>2026-02-02T09:40:46Z</time>
      </trkpt>
      <trkpt lat="45.95071" lon="6.55585">
        <ele>2418.2</ele>
        <time>2026-02-02T09:40:47Z</time>
      </trkpt>
      <trkpt lat="45.95071" lon="6.55585">
        <ele>2418.2</ele>
        <time>2026-02-02T09:40:48Z</time>
      </trkpt>
      <trkpt lat="45.95071" lon="6.55585">
        <ele>2418.2</ele>
        <time>2026-02-02T09:40:49Z</time>
      </trkpt>
      <trkpt lat="45.95071" lon="6.55585">
        <ele>2418.2</ele>
        <time>2026-02-02T09:40:50Z</time>
      </trkpt>
      <trkpt lat="45.95071" lon="6.55585">
        <ele>2418.2</ele>
        <time>2026-02-02T09:40:51Z</time>
      </trkpt>
      <trkpt lat="45.95071" lon="6.55584">
        <ele>2418.2</ele>
        <time>2026-02-02T09:40:52Z</time>
      </trkpt>
      <trkpt lat="45.95071" lon="6.55584">
        <ele>2418.2</ele>
        <time>2026-02-02T09:40:53Z</time>
      </trkpt>
      <trkpt lat="45.95071" lon="6.55584">
        <ele>2418.2</ele>
        <time>2026-02-02T09:40:54Z</time>
      </trkpt>
      <trkpt lat="45.95071" lon="6.55584">
        <ele>2418.2</ele>
        <time>2026-02-02T09:40:55Z</time>
      </trkpt>
      <trkpt lat="45.95071" lon="6.55584">
        <ele>2418.2</ele>
        <time>2026-02-02T09:40:56Z</time>
      </trkpt>
      <trkpt lat="45.95071" lon="6.55584">
        <ele>2418.2</ele>
        <time>2026-02-02T09:40:57Z</time>
      </trkpt>
      <trkpt lat="45.95071" lon="6.55584">
        <ele>2418.2</ele>
        <time>2026-02-02T09:40:58Z</time>
      </trkpt>
      <trkpt lat="45.95071" lon="6.55584">
        <ele>2418.2</ele>
        <time>2026-02-02T09:40:59Z</time>
      </trkpt>
      <trkpt lat="45.95071" lon="6.55584">
        <ele>2418.2</ele>
        <time>2026-02-02T09:41:00Z</time>
      </trkpt>
      <trkpt lat="45.95071" lon="6.55584">
        <ele>2418.2</ele>
        <time>2026-02-02T09:41:01Z</time>
      </trkpt>
      <trkpt lat="45.95071" lon="6.55584">
        <ele>2418.2</ele>
        <time>2026-02-02T09:41:02Z</time>
      </trkpt>
      <trkpt lat="45.95071" lon="6.55584">
        <ele>2418.2</ele>
        <time>2026-02-02T09:41:03Z</time>
      </trkpt>
      <trkpt lat="45.95071" lon="6.55584">
        <ele>2418.2</ele>
        <time>2026-02-02T09:41:04Z</time>
      </trkpt>
      <trkpt lat="45.95071" lon="6.55584">
        <ele>2418.2</ele>
        <time>2026-02-02T09:41:05Z</time>
      </trkpt>
      <trkpt lat="45.95071" lon="6.55584">
        <ele>2418.2</ele>
        <time>2026-02-02T09:41:06Z</time>
      </trkpt>
      <trkpt lat="45.95071" lon="6.55584">
        <ele>2418.2</ele>
        <time>2026-02-02T09:41:07Z</time>
      </trkpt>
      <trkpt lat="45.95071" lon="6.55584">
        <ele>2418.2</ele>
        <time>2026-02-02T09:41:08Z</time>
      </trkpt>
      <trkpt lat="45.95071" lon="6.55584">
        <ele>2418.2</ele>
        <time>2026-02-02T09:41:09Z</time>
      </trkpt>
      <trkpt lat="45.95071" lon="6.55584">
        <ele>2418.2</ele>
        <time>2026-02-02T09:41:10Z</time>
      </trkpt>
      <trkpt lat="45.95071" lon="6.55584">
        <ele>2418.2</ele>
        <time>2026-02-02T09:41:11Z</time>
      </trkpt>
      <trkpt lat="45.95071" lon="6.55584">
        <ele>2418.2</ele>
        <time>2026-02-02T09:41:12Z</time>
      </trkpt>
      <trkpt lat="45.95072" lon="6.55584">
        <ele>2418.2</ele>
        <time>2026-02-02T09:41:13Z</time>
      </trkpt>
      <trkpt lat="45.95072" lon="6.55584">
        <ele>2418.2</ele>
        <time>2026-02-02T09:41:14Z</time>
      </trkpt>
      <trkpt lat="45.95072" lon="6.55584">
        <ele>2418.2</ele>
        <time>2026-02-02T09:41:15Z</time>
      </trkpt>
      <trkpt lat="45.95072" lon="6.55584">
        <ele>2418.2</ele>
        <time>2026-02-02T09:41:16Z</time>
      </trkpt>
      <trkpt lat="45.95072" lon="6.55584">
        <ele>2418.2</ele>
        <time>2026-02-02T09:41:17Z</time>
      </trkpt>
      <trkpt lat="45.95072" lon="6.55584">
        <ele>2418.2</ele>
        <time>2026-02-02T09:41:18Z</time>
      </trkpt>
      <trkpt lat="45.95072" lon="6.55584">
        <ele>2418.2</ele>
        <time>2026-02-02T09:41:19Z</time>
      </trkpt>
      <trkpt lat="45.95072" lon="6.55584">
        <ele>2418.2</ele>
        <time>2026-02-02T09:41:20Z</time>
      </trkpt>
      <trkpt lat="45.95072" lon="6.55584">
        <ele>2418.2</ele>
        <time>2026-02-02T09:41:21Z</time>
      </trkpt>
      <trkpt lat="45.95072" lon="6.55584">
        <ele>2418.2</ele>
        <time>2026-02-02T09:41:22Z</time>
      </trkpt>
      <trkpt lat="45.95072" lon="6.55584">
        <ele>2418.2</ele>
        <time>2026-02-02T09:41:23Z</time>
      </trkpt>
      <trkpt lat="45.95072" lon="6.55584">
        <ele>2418.2</ele>
        <time>2026-02-02T09:41:24Z</time>
      </trkpt>
      <trkpt lat="45.95072" lon="6.55584">
        <ele>2418.2</ele>
        <time>2026-02-02T09:41:25Z</time>
      </trkpt>
      <trkpt lat="45.95072" lon="6.55584">
        <ele>2418.2</ele>
        <time>2026-02-02T09:41:26Z</time>
      </trkpt>
      <trkpt lat="45.95072" lon="6.55584">
        <ele>2418.2</ele>
        <time>2026-02-02T09:41:27Z</time>
      </trkpt>
      <trkpt lat="45.95072" lon="6.55584">
        <ele>2418.2</ele>
        <time>2026-02-02T09:41:28Z</time>
      </trkpt>
      <trkpt lat="45.95072" lon="6.55584">
        <ele>2418.2</ele>
        <time>2026-02-02T09:41:29Z</time>
      </trkpt>
      <trkpt lat="45.95072" lon="6.55584">
        <ele>2418.2</ele>
        <time>2026-02-02T09:41:30Z</time>
      </trkpt>
      <trkpt lat="45.95072" lon="6.55584">
        <ele>2418.2</ele>
        <time>2026-02-02T09:41:31Z</time>
      </trkpt>
      <trkpt lat="45.95072" lon="6.55584">
        <ele>2418.2</ele>
        <time>2026-02-02T09:41:32Z</time>
      </trkpt>
      <trkpt lat="45.95072" lon="6.55584">
        <ele>2418.2</ele>
        <time>2026-02-02T09:41:33Z</time>
      </trkpt>
      <trkpt lat="45.95072" lon="6.55584">
        <ele>2418.2</ele>
        <time>2026-02-02T09:41:34Z</time>
      </trkpt>
      <trkpt lat="45.95072" lon="6.55584">
        <ele>2418.2</ele>
        <time>2026-02-02T09:41:35Z</time>
      </trkpt>
      <trkpt lat="45.95072" lon="6.55584">
        <ele>2418.2</ele>
        <time>2026-02-02T09:41:36Z</time>
      </trkpt>
      <trkpt lat="45.95072" lon="6.55584">
        <ele>2418.2</ele>
        <time>2026-02-02T09:41:37Z</time>
      </trkpt>
      <trkpt lat="45.95072" lon="6.55584">
        <ele>2418.2</ele>
        <time>2026-02-02T09:41:38Z</time>
      </trkpt>
      <trkpt lat="45.95072" lon="6.55584">
        <ele>2418.2</ele>
        <time>2026-02-02T09:41:39Z</time>
      </trkpt>
      <trkpt lat="45.95072" lon="6.55584">
        <ele>2418.2</ele>
        <time>2026-02-02T09:41:40Z</time>
      </trkpt>
      <trkpt lat="45.95072" lon="6.55584">
        <ele>2418.2</ele>
        <time>2026-02-02T09:41:41Z</time>
      </trkpt>
      <trkpt lat="45.95072" lon="6.55584">
        <ele>2418.2</ele>
        <time>2026-02-02T09:41:42Z</time>
      </trkpt>
      <trkpt lat="45.95072" lon="6.55584">
        <ele>2418.2</ele>
        <time>2026-02-02T09:41:43Z</time>
      </trkpt>
      <trkpt lat="45.95072" lon="6.55584">
        <ele>2418.2</ele>
        <time>2026-02-02T09:41:44Z</time>
      </trkpt>
      <trkpt lat="45.95072" lon="6.55584">
        <ele>2418.2</ele>
        <time>2026-02-02T09:41:45Z</time>
      </trkpt>
      <trkpt lat="45.95072" lon="6.55584">
        <ele>2418.2</ele>
        <time>2026-02-02T09:41:46Z</time>
      </trkpt>
      <trkpt lat="45.95072" lon="6.55584">
        <ele>2418.2</ele>
        <time>2026-02-02T09:41:47Z</time>
      </trkpt>
      <trkpt lat="45.95072" lon="6.55584">
        <ele>2418.2</ele>
        <time>2026-02-02T09:41:48Z</time>
      </trkpt>
      <trkpt lat="45.95072" lon="6.55584">
        <ele>2418.2</ele>
        <time>2026-02-02T09:41:49Z</time>
      </trkpt>
      <trkpt lat="45.95072" lon="6.55584">
        <ele>2418.2</ele>
        <time>2026-02-02T09:41:50Z</time>
      </trkpt>
      <trkpt lat="45.95072" lon="6.55584">
        <ele>2418.2</ele>
        <time>2026-02-02T09:41:51Z</time>
      </trkpt>
      <trkpt lat="45.95072" lon="6.55584">
        <ele>2418.2</ele>
        <time>2026-02-02T09:41:52Z</time>
      </trkpt>
      <trkpt lat="45.95072" lon="6.55584">
        <ele>2418.2</ele>
        <time>2026-02-02T09:41:53Z</time>
      </trkpt>
      <trkpt lat="45.95072" lon="6.55584">
        <ele>2418.2</ele>
        <time>2026-02-02T09:41:54Z</time>
      </trkpt>
      <trkpt lat="45.95072" lon="6.55584">
        <ele>2418.2</ele>
        <time>2026-02-02T09:41:55Z</time>
      </trkpt>
      <trkpt lat="45.95072" lon="6.55584">
        <ele>2418.2</ele>
        <time>2026-02-02T09:41:56Z</time>
      </trkpt>
      <trkpt lat="45.95072" lon="6.55584">
        <ele>2418.2</ele>
        <time>2026-02-02T09:41:57Z</time>
      </trkpt>
      <trkpt lat="45.95072" lon="6.55584">
        <ele>2418.2</ele>
        <time>2026-02-02T09:41:58Z</time>
      </trkpt>
      <trkpt lat="45.95072" lon="6.55584">
        <ele>2418.2</ele>
        <time>2026-02-02T09:41:59Z</time>
      </trkpt>
      <trkpt lat="45.95072" lon="6.55584">
        <ele>2418.2</ele>
        <time>2026-02-02T09:42:00Z</time>
      </trkpt>
      <trkpt lat="45.95072" lon="6.55584">
        <ele>2418.2</ele>
        <time>2026-02-02T09:42:01Z</time>
      </trkpt>
      <trkpt lat="45.95072" lon="6.55584">
        <ele>2418.2</ele>
        <time>2026-02-02T09:42:02Z</time>
      </trkpt>
      <trkpt lat="45.95072" lon="6.55584">
        <ele>2418.2</ele>
        <time>2026-02-02T09:42:03Z</time>
      </trkpt>
      <trkpt lat="45.95072" lon="6.55584">
        <ele>2418.2</ele>
        <time>2026-02-02T09:42:04Z</time>
      </trkpt>
      <trkpt lat="45.95071" lon="6.55584">
        <ele>2418.2</ele>
        <time>2026-02-02T09:42:05Z</time>
      </trkpt>
      <trkpt lat="45.95071" lon="6.55584">
        <ele>2418.2</ele>
        <time>2026-02-02T09:42:06Z</time>
      </trkpt>
      <trkpt lat="45.95071" lon="6.55584">
        <ele>2418.2</ele>
        <time>2026-02-02T09:42:07Z</time>
      </trkpt>
      <trkpt lat="45.95071" lon="6.55584">
        <ele>2418.2</ele>
        <time>2026-02-02T09:42:08Z</time>
      </trkpt>
      <trkpt lat="45.95071" lon="6.55584">
        <ele>2418.2</ele>
        <time>2026-02-02T09:42:09Z</time>
      </trkpt>
      <trkpt lat="45.9507" lon="6.55584">
        <ele>2416.2</ele>
        <time>2026-02-02T09:42:10Z</time>
      </trkpt>
      <trkpt lat="45.9507" lon="6.55584">
        <ele>2416.2</ele>
        <time>2026-02-02T09:42:11Z</time>
      </trkpt>
      <trkpt lat="45.9507" lon="6.55584">
        <ele>2416.2</ele>
        <time>2026-02-02T09:42:12Z</time>
      </trkpt>
      <trkpt lat="45.9507" lon="6.55584">
        <ele>2416.2</ele>
        <time>2026-02-02T09:42:13Z</time>
      </trkpt>
      <trkpt lat="45.9507" lon="6.55584">
        <ele>2416.2</ele>
        <time>2026-02-02T09:42:14Z</time>
      </trkpt>
      <trkpt lat="45.9507" lon="6.55584">
        <ele>2416.2</ele>
        <time>2026-02-02T09:42:15Z</time>
      </trkpt>
      <trkpt lat="45.9507" lon="6.55584">
        <ele>2416.2</ele>
        <time>2026-02-02T09:42:16Z</time>
      </trkpt>
      <trkpt lat="45.9507" lon="6.55584">
        <ele>2416.2</ele>
        <time>2026-02-02T09:42:17Z</time>
      </trkpt>
      <trkpt lat="45.9507" lon="6.55584">
        <ele>2416.2</ele>
        <time>2026-02-02T09:42:18Z</time>
      </trkpt>
      <trkpt lat="45.9507" lon="6.55584">
        <ele>2416.2</ele>
        <time>2026-02-02T09:42:19Z</time>
      </trkpt>
      <trkpt lat="45.9507" lon="6.55584">
        <ele>2416.2</ele>
        <time>2026-02-02T09:42:20Z</time>
      </trkpt>
      <trkpt lat="45.9507" lon="6.55584">
        <ele>2416.2</ele>
        <time>2026-02-02T09:42:21Z</time>
      </trkpt>
      <trkpt lat="45.9507" lon="6.55584">
        <ele>2416.2</ele>
        <time>2026-02-02T09:42:22Z</time>
      </trkpt>
      <trkpt lat="45.9507" lon="6.55584">
        <ele>2416.2</ele>
        <time>2026-02-02T09:42:23Z</time>
      </trkpt>
      <trkpt lat="45.9507" lon="6.55584">
        <ele>2418.2</ele>
        <time>2026-02-02T09:42:24Z</time>
      </trkpt>
      <trkpt lat="45.9507" lon="6.55583">
        <ele>2416.2</ele>
        <time>2026-02-02T09:42:25Z</time>
      </trkpt>
      <trkpt lat="45.9507" lon="6.55583">
        <ele>2416.2</ele>
        <time>2026-02-02T09:42:26Z</time>
      </trkpt>
      <trkpt lat="45.9507" lon="6.55583">
        <ele>2420.5</ele>
        <time>2026-02-02T09:42:27Z</time>
      </trkpt>
      <trkpt lat="45.95071" lon="6.55583">
        <ele>2420.5</ele>
        <time>2026-02-02T09:42:28Z</time>
      </trkpt>
      <trkpt lat="45.95071" lon="6.55583">
        <ele>2420.5</ele>
        <time>2026-02-02T09:42:30Z</time>
      </trkpt>
      <trkpt lat="45.95071" lon="6.55583">
        <ele>2420.5</ele>
        <time>2026-02-02T09:42:31Z</time>
      </trkpt>
      <trkpt lat="45.95071" lon="6.55582">
        <ele>2420.5</ele>
        <time>2026-02-02T09:42:32Z</time>
      </trkpt>
      <trkpt lat="45.95071" lon="6.55582">
        <ele>2420.5</ele>
        <time>2026-02-02T09:42:33Z</time>
      </trkpt>
      <trkpt lat="45.95071" lon="6.55582">
        <ele>2420.5</ele>
        <time>2026-02-02T09:42:34Z</time>
      </trkpt>
      <trkpt lat="45.95071" lon="6.55582">
        <ele>2420.5</ele>
        <time>2026-02-02T09:42:35Z</time>
      </trkpt>
      <trkpt lat="45.95071" lon="6.55582">
        <ele>2420.5</ele>
        <time>2026-02-02T09:42:36Z</time>
      </trkpt>
      <trkpt lat="45.95071" lon="6.55582">
        <ele>2420.5</ele>
        <time>2026-02-02T09:42:37Z</time>
      </trkpt>
      <trkpt lat="45.95071" lon="6.55582">
        <ele>2420.5</ele>
        <time>2026-02-02T09:42:38Z</time>
      </trkpt>
      <trkpt lat="45.95071" lon="6.55582">
        <ele>2420.5</ele>
        <time>2026-02-02T09:42:39Z</time>
      </trkpt>
      <trkpt lat="45.95071" lon="6.55582">
        <ele>2420.5</ele>
        <time>2026-02-02T09:42:40Z</time>
      </trkpt>
      <trkpt lat="45.95071" lon="6.55582">
        <ele>2420.5</ele>
        <time>2026-02-02T09:42:41Z</time>
      </trkpt>
      <trkpt lat="45.95072" lon="6.55582">
        <ele>2420.5</ele>
        <time>2026-02-02T09:42:42Z</time>
      </trkpt>
      <trkpt lat="45.95072" lon="6.55582">
        <ele>2420.5</ele>
        <time>2026-02-02T09:42:43Z</time>
      </trkpt>
      <trkpt lat="45.95072" lon="6.55582">
        <ele>2420.5</ele>
        <time>2026-02-02T09:42:44Z</time>
      </trkpt>
      <trkpt lat="45.95072" lon="6.55582">
        <ele>2420.5</ele>
        <time>2026-02-02T09:42:45Z</time>
      </trkpt>
      <trkpt lat="45.95073" lon="6.55581">
        <ele>2420.5</ele>
        <time>2026-02-02T09:42:46Z</time>
      </trkpt>
      <trkpt lat="45.95073" lon="6.55581">
        <ele>2420.5</ele>
        <time>2026-02-02T09:42:47Z</time>
      </trkpt>
      <trkpt lat="45.95074" lon="6.55581">
        <ele>2422.6</ele>
        <time>2026-02-02T09:42:48Z</time>
      </trkpt>
      <trkpt lat="45.95074" lon="6.55581">
        <ele>2422.6</ele>
        <time>2026-02-02T09:42:49Z</time>
      </trkpt>
      <trkpt lat="45.95074" lon="6.55581">
        <ele>2422.6</ele>
        <time>2026-02-02T09:42:50Z</time>
      </trkpt>
      <trkpt lat="45.95074" lon="6.55581">
        <ele>2422.6</ele>
        <time>2026-02-02T09:42:51Z</time>
      </trkpt>
      <trkpt lat="45.95074" lon="6.55581">
        <ele>2422.6</ele>
        <time>2026-02-02T09:42:52Z</time>
      </trkpt>
      <trkpt lat="45.95075" lon="6.5558">
        <ele>2422.6</ele>
        <time>2026-02-02T09:42:53Z</time>
      </trkpt>
      <trkpt lat="45.95075" lon="6.5558">
        <ele>2422.6</ele>
        <time>2026-02-02T09:42:54Z</time>
      </trkpt>
      <trkpt lat="45.95075" lon="6.5558">
        <ele>2422.6</ele>
        <time>2026-02-02T09:42:55Z</time>
      </trkpt>
      <trkpt lat="45.95075" lon="6.5558">
        <ele>2422.6</ele>
        <time>2026-02-02T09:42:56Z</time>
      </trkpt>
      <trkpt lat="45.95075" lon="6.5558">
        <ele>2422.6</ele>
        <time>2026-02-02T09:42:57Z</time>
      </trkpt>
      <trkpt lat="45.95075" lon="6.5558">
        <ele>2422.6</ele>
        <time>2026-02-02T09:42:58Z</time>
      </trkpt>
      <trkpt lat="45.95075" lon="6.5558">
        <ele>2422.6</ele>
        <time>2026-02-02T09:42:59Z</time>
      </trkpt>
      <trkpt lat="45.95075" lon="6.5558">
        <ele>2422.6</ele>
        <time>2026-02-02T09:43:00Z</time>
      </trkpt>
      <trkpt lat="45.95075" lon="6.5558">
        <ele>2422.6</ele>
        <time>2026-02-02T09:43:01Z</time>
      </trkpt>
      <trkpt lat="45.95075" lon="6.5558">
        <ele>2422.6</ele>
        <time>2026-02-02T09:43:02Z</time>
      </trkpt>
      <trkpt lat="45.95075" lon="6.55581">
        <ele>2422.6</ele>
        <time>2026-02-02T09:43:03Z</time>
      </trkpt>
      <trkpt lat="45.95074" lon="6.55581">
        <ele>2422.6</ele>
        <time>2026-02-02T09:43:04Z</time>
      </trkpt>
      <trkpt lat="45.95074" lon="6.55581">
        <ele>2422.6</ele>
        <time>2026-02-02T09:43:05Z</time>
      </trkpt>
      <trkpt lat="45.95074" lon="6.55581">
        <ele>2422.6</ele>
        <time>2026-02-02T09:43:06Z</time>
      </trkpt>
      <trkpt lat="45.95074" lon="6.55581">
        <ele>2422.6</ele>
        <time>2026-02-02T09:43:07Z</time>
      </trkpt>
      <trkpt lat="45.95074" lon="6.55581">
        <ele>2422.6</ele>
        <time>2026-02-02T09:43:08Z</time>
      </trkpt>
      <trkpt lat="45.95075" lon="6.55581">
        <ele>2422.6</ele>
        <time>2026-02-02T09:43:09Z</time>
      </trkpt>
      <trkpt lat="45.95075" lon="6.5558">
        <ele>2422.6</ele>
        <time>2026-02-02T09:43:10Z</time>
      </trkpt>
      <trkpt lat="45.95075" lon="6.5558">
        <ele>2422.6</ele>
        <time>2026-02-02T09:43:11Z</time>
      </trkpt>
      <trkpt lat="45.95076" lon="6.5558">
        <ele>2422.6</ele>
        <time>2026-02-02T09:43:12Z</time>
      </trkpt>
      <trkpt lat="45.95076" lon="6.5558">
        <ele>2422.6</ele>
        <time>2026-02-02T09:43:13Z</time>
      </trkpt>
      <trkpt lat="45.95076" lon="6.55579">
        <ele>2422.6</ele>
        <time>2026-02-02T09:43:14Z</time>
      </trkpt>
      <trkpt lat="45.95076" lon="6.55579">
        <ele>2427.3</ele>
        <time>2026-02-02T09:43:15Z</time>
      </trkpt>
      <trkpt lat="45.95077" lon="6.55579">
        <ele>2427.3</ele>
        <time>2026-02-02T09:43:16Z</time>
      </trkpt>
      <trkpt lat="45.95077" lon="6.55579">
        <ele>2427.3</ele>
        <time>2026-02-02T09:43:17Z</time>
      </trkpt>
      <trkpt lat="45.95077" lon="6.55579">
        <ele>2427.3</ele>
        <time>2026-02-02T09:43:18Z</time>
      </trkpt>
      <trkpt lat="45.95077" lon="6.55579">
        <ele>2427.3</ele>
        <time>2026-02-02T09:43:19Z</time>
      </trkpt>
      <trkpt lat="45.95077" lon="6.55579">
        <ele>2427.3</ele>
        <time>2026-02-02T09:43:20Z</time>
      </trkpt>
      <trkpt lat="45.95077" lon="6.55579">
        <ele>2427.3</ele>
        <time>2026-02-02T09:43:21Z</time>
      </trkpt>
      <trkpt lat="45.95077" lon="6.55579">
        <ele>2427.3</ele>
        <time>2026-02-02T09:43:22Z</time>
      </trkpt>
      <trkpt lat="45.95077" lon="6.55579">
        <ele>2425</ele>
        <time>2026-02-02T09:43:23Z</time>
      </trkpt>
      <trkpt lat="45.95077" lon="6.55579">
        <ele>2425</ele>
        <time>2026-02-02T09:43:25Z</time>
      </trkpt>
      <trkpt lat="45.95078" lon="6.55579">
        <ele>2425</ele>
        <time>2026-02-02T09:43:26Z</time>
      </trkpt>
      <trkpt lat="45.95078" lon="6.5558">
        <ele>2425</ele>
        <time>2026-02-02T09:43:27Z</time>
      </trkpt>
      <trkpt lat="45.95078" lon="6.5558">
        <ele>2425</ele>
        <time>2026-02-02T09:43:28Z</time>
      </trkpt>
      <trkpt lat="45.95079" lon="6.5558">
        <ele>2425</ele>
        <time>2026-02-02T09:43:29Z</time>
      </trkpt>
      <trkpt lat="45.95079" lon="6.5558">
        <ele>2425</ele>
        <time>2026-02-02T09:43:30Z</time>
      </trkpt>
      <trkpt lat="45.95079" lon="6.5558">
        <ele>2425</ele>
        <time>2026-02-02T09:43:31Z</time>
      </trkpt>
      <trkpt lat="45.95079" lon="6.5558">
        <ele>2427.4</ele>
        <time>2026-02-02T09:43:32Z</time>
      </trkpt>
      <trkpt lat="45.95079" lon="6.5558">
        <ele>2427.4</ele>
        <time>2026-02-02T09:43:33Z</time>
      </trkpt>
      <trkpt lat="45.95079" lon="6.5558">
        <ele>2427.4</ele>
        <time>2026-02-02T09:43:34Z</time>
      </trkpt>
      <trkpt lat="45.95079" lon="6.5558">
        <ele>2427.4</ele>
        <time>2026-02-02T09:43:35Z</time>
      </trkpt>
      <trkpt lat="45.9508" lon="6.5558">
        <ele>2427.4</ele>
        <time>2026-02-02T09:43:36Z</time>
      </trkpt>
      <trkpt lat="45.9508" lon="6.5558">
        <ele>2427.4</ele>
        <time>2026-02-02T09:43:37Z</time>
      </trkpt>
      <trkpt lat="45.9508" lon="6.55581">
        <ele>2427.4</ele>
        <time>2026-02-02T09:43:38Z</time>
      </trkpt>
      <trkpt lat="45.9508" lon="6.55581">
        <ele>2427.4</ele>
        <time>2026-02-02T09:43:39Z</time>
      </trkpt>
      <trkpt lat="45.9508" lon="6.5558">
        <ele>2427.4</ele>
        <time>2026-02-02T09:43:40Z</time>
      </trkpt>
      <trkpt lat="45.95079" lon="6.5558">
        <ele>2427.4</ele>
        <time>2026-02-02T09:43:41Z</time>
      </trkpt>
      <trkpt lat="45.95079" lon="6.5558">
        <ele>2425</ele>
        <time>2026-02-02T09:43:42Z</time>
      </trkpt>
      <trkpt lat="45.95079" lon="6.5558">
        <ele>2425</ele>
        <time>2026-02-02T09:43:43Z</time>
      </trkpt>
      <trkpt lat="45.95079" lon="6.55581">
        <ele>2427.4</ele>
        <time>2026-02-02T09:43:44Z</time>
      </trkpt>
      <trkpt lat="45.95079" lon="6.5558">
        <ele>2427.4</ele>
        <time>2026-02-02T09:43:45Z</time>
      </trkpt>
      <trkpt lat="45.9508" lon="6.5558">
        <ele>2427.4</ele>
        <time>2026-02-02T09:43:46Z</time>
      </trkpt>
      <trkpt lat="45.9508" lon="6.5558">
        <ele>2427.4</ele>
        <time>2026-02-02T09:43:47Z</time>
      </trkpt>
      <trkpt lat="45.9508" lon="6.5558">
        <ele>2427.4</ele>
        <time>2026-02-02T09:43:48Z</time>
      </trkpt>
      <trkpt lat="45.9508" lon="6.55579">
        <ele>2427.4</ele>
        <time>2026-02-02T09:43:49Z</time>
      </trkpt>
      <trkpt lat="45.9508" lon="6.55579">
        <ele>2427.4</ele>
        <time>2026-02-02T09:43:50Z</time>
      </trkpt>
      <trkpt lat="45.9508" lon="6.55579">
        <ele>2427.4</ele>
        <time>2026-02-02T09:43:51Z</time>
      </trkpt>
      <trkpt lat="45.95081" lon="6.55579">
        <ele>2427.4</ele>
        <time>2026-02-02T09:43:52Z</time>
      </trkpt>
      <trkpt lat="45.95081" lon="6.55579">
        <ele>2429.8</ele>
        <time>2026-02-02T09:43:53Z</time>
      </trkpt>
      <trkpt lat="45.95081" lon="6.55579">
        <ele>2429.8</ele>
        <time>2026-02-02T09:43:54Z</time>
      </trkpt>
      <trkpt lat="45.95081" lon="6.55579">
        <ele>2429.8</ele>
        <time>2026-02-02T09:43:55Z</time>
      </trkpt>
      <trkpt lat="45.95081" lon="6.55578">
        <ele>2429.8</ele>
        <time>2026-02-02T09:43:57Z</time>
      </trkpt>
      <trkpt lat="45.95081" lon="6.55578">
        <ele>2429.8</ele>
        <time>2026-02-02T09:43:58Z</time>
      </trkpt>
      <trkpt lat="45.95081" lon="6.55578">
        <ele>2429.8</ele>
        <time>2026-02-02T09:43:59Z</time>
      </trkpt>
      <trkpt lat="45.95081" lon="6.55578">
        <ele>2429.8</ele>
        <time>2026-02-02T09:44:00Z</time>
      </trkpt>
      <trkpt lat="45.95081" lon="6.55578">
        <ele>2429.8</ele>
        <time>2026-02-02T09:44:01Z</time>
      </trkpt>
      <trkpt lat="45.95081" lon="6.55578">
        <ele>2429.8</ele>
        <time>2026-02-02T09:44:02Z</time>
      </trkpt>
      <trkpt lat="45.95081" lon="6.55578">
        <ele>2429.8</ele>
        <time>2026-02-02T09:44:03Z</time>
      </trkpt>
      <trkpt lat="45.95081" lon="6.55578">
        <ele>2429.8</ele>
        <time>2026-02-02T09:44:04Z</time>
      </trkpt>
      <trkpt lat="45.95081" lon="6.55577">
        <ele>2429.8</ele>
        <time>2026-02-02T09:44:05Z</time>
      </trkpt>
      <trkpt lat="45.95081" lon="6.55577">
        <ele>2429.8</ele>
        <time>2026-02-02T09:44:06Z</time>
      </trkpt>
      <trkpt lat="45.95081" lon="6.55577">
        <ele>2429.8</ele>
        <time>2026-02-02T09:44:07Z</time>
      </trkpt>
      <trkpt lat="45.95081" lon="6.55577">
        <ele>2429.8</ele>
        <time>2026-02-02T09:44:08Z</time>
      </trkpt>
      <trkpt lat="45.95081" lon="6.55577">
        <ele>2429.8</ele>
        <time>2026-02-02T09:44:09Z</time>
      </trkpt>
      <trkpt lat="45.95082" lon="6.55577">
        <ele>2429.8</ele>
        <time>2026-02-02T09:44:10Z</time>
      </trkpt>
      <trkpt lat="45.95082" lon="6.55577">
        <ele>2429.8</ele>
        <time>2026-02-02T09:44:11Z</time>
      </trkpt>
      <trkpt lat="45.95082" lon="6.55577">
        <ele>2429.8</ele>
        <time>2026-02-02T09:44:12Z</time>
      </trkpt>
      <trkpt lat="45.95082" lon="6.55577">
        <ele>2429.8</ele>
        <time>2026-02-02T09:44:13Z</time>
      </trkpt>
      <trkpt lat="45.95081" lon="6.55577">
        <ele>2429.8</ele>
        <time>2026-02-02T09:44:14Z</time>
      </trkpt>
      <trkpt lat="45.95081" lon="6.55577">
        <ele>2429.8</ele>
        <time>2026-02-02T09:44:15Z</time>
      </trkpt>
      <trkpt lat="45.95081" lon="6.55577">
        <ele>2429.8</ele>
        <time>2026-02-02T09:44:16Z</time>
      </trkpt>
      <trkpt lat="45.95081" lon="6.55577">
        <ele>2429.8</ele>
        <time>2026-02-02T09:44:17Z</time>
      </trkpt>
      <trkpt lat="45.95082" lon="6.55578">
        <ele>2429.8</ele>
        <time>2026-02-02T09:44:18Z</time>
      </trkpt>
      <trkpt lat="45.95082" lon="6.55578">
        <ele>2429.8</ele>
        <time>2026-02-02T09:44:19Z</time>
      </trkpt>
      <trkpt lat="45.95082" lon="6.55579">
        <ele>2429.8</ele>
        <time>2026-02-02T09:44:20Z</time>
      </trkpt>
      <trkpt lat="45.95083" lon="6.55578">
        <ele>2432.2</ele>
        <time>2026-02-02T09:44:21Z</time>
      </trkpt>
      <trkpt lat="45.95083" lon="6.55578">
        <ele>2432.2</ele>
        <time>2026-02-02T09:44:22Z</time>
      </trkpt>
      <trkpt lat="45.95082" lon="6.55578">
        <ele>2432.2</ele>
        <time>2026-02-02T09:44:23Z</time>
      </trkpt>
      <trkpt lat="45.95082" lon="6.55578">
        <ele>2429.8</ele>
        <time>2026-02-02T09:44:24Z</time>
      </trkpt>
      <trkpt lat="45.95082" lon="6.55578">
        <ele>2429.8</ele>
        <time>2026-02-02T09:44:25Z</time>
      </trkpt>
      <trkpt lat="45.95082" lon="6.55578">
        <ele>2432.2</ele>
        <time>2026-02-02T09:44:26Z</time>
      </trkpt>
      <trkpt lat="45.95082" lon="6.55578">
        <ele>2432.2</ele>
        <time>2026-02-02T09:44:27Z</time>
      </trkpt>
      <trkpt lat="45.95083" lon="6.55578">
        <ele>2432.2</ele>
        <time>2026-02-02T09:44:28Z</time>
      </trkpt>
      <trkpt lat="45.95083" lon="6.55577">
        <ele>2432.2</ele>
        <time>2026-02-02T09:44:29Z</time>
      </trkpt>
      <trkpt lat="45.95083" lon="6.55577">
        <ele>2432.2</ele>
        <time>2026-02-02T09:44:30Z</time>
      </trkpt>
      <trkpt lat="45.95083" lon="6.55577">
        <ele>2432.2</ele>
        <time>2026-02-02T09:44:31Z</time>
      </trkpt>
      <trkpt lat="45.95082" lon="6.55577">
        <ele>2432.2</ele>
        <time>2026-02-02T09:44:32Z</time>
      </trkpt>
      <trkpt lat="45.95082" lon="6.55577">
        <ele>2429.8</ele>
        <time>2026-02-02T09:44:33Z</time>
      </trkpt>
      <trkpt lat="45.95082" lon="6.55577">
        <ele>2429.8</ele>
        <time>2026-02-02T09:44:34Z</time>
      </trkpt>
      <trkpt lat="45.95082" lon="6.55577">
        <ele>2429.8</ele>
        <time>2026-02-02T09:44:35Z</time>
      </trkpt>
      <trkpt lat="45.95082" lon="6.55577">
        <ele>2429.8</ele>
        <time>2026-02-02T09:44:36Z</time>
      </trkpt>
      <trkpt lat="45.95082" lon="6.55577">
        <ele>2429.8</ele>
        <time>2026-02-02T09:44:37Z</time>
      </trkpt>
      <trkpt lat="45.95082" lon="6.55578">
        <ele>2429.8</ele>
        <time>2026-02-02T09:44:38Z</time>
      </trkpt>
      <trkpt lat="45.95082" lon="6.55578">
        <ele>2429.8</ele>
        <time>2026-02-02T09:44:39Z</time>
      </trkpt>
      <trkpt lat="45.95082" lon="6.55578">
        <ele>2429.8</ele>
        <time>2026-02-02T09:44:40Z</time>
      </trkpt>
      <trkpt lat="45.95082" lon="6.55578">
        <ele>2429.8</ele>
        <time>2026-02-02T09:44:41Z</time>
      </trkpt>
      <trkpt lat="45.95082" lon="6.55578">
        <ele>2429.8</ele>
        <time>2026-02-02T09:44:42Z</time>
      </trkpt>
      <trkpt lat="45.95082" lon="6.55578">
        <ele>2429.8</ele>
        <time>2026-02-02T09:44:43Z</time>
      </trkpt>
      <trkpt lat="45.95081" lon="6.55578">
        <ele>2429.8</ele>
        <time>2026-02-02T09:44:44Z</time>
      </trkpt>
      <trkpt lat="45.95081" lon="6.55578">
        <ele>2429.8</ele>
        <time>2026-02-02T09:44:45Z</time>
      </trkpt>
      <trkpt lat="45.95081" lon="6.55578">
        <ele>2429.8</ele>
        <time>2026-02-02T09:44:46Z</time>
      </trkpt>
      <trkpt lat="45.95081" lon="6.55578">
        <ele>2429.8</ele>
        <time>2026-02-02T09:44:47Z</time>
      </trkpt>
      <trkpt lat="45.95081" lon="6.55578">
        <ele>2429.8</ele>
        <time>2026-02-02T09:44:48Z</time>
      </trkpt>
      <trkpt lat="45.95081" lon="6.55578">
        <ele>2429.8</ele>
        <time>2026-02-02T09:44:49Z</time>
      </trkpt>
      <trkpt lat="45.95081" lon="6.55578">
        <ele>2429.8</ele>
        <time>2026-02-02T09:44:50Z</time>
      </trkpt>
      <trkpt lat="45.95081" lon="6.55577">
        <ele>2429.8</ele>
        <time>2026-02-02T09:44:51Z</time>
      </trkpt>
      <trkpt lat="45.95081" lon="6.55577">
        <ele>2429.8</ele>
        <time>2026-02-02T09:44:52Z</time>
      </trkpt>
      <trkpt lat="45.95081" lon="6.55577">
        <ele>2429.8</ele>
        <time>2026-02-02T09:44:53Z</time>
      </trkpt>
      <trkpt lat="45.95081" lon="6.55577">
        <ele>2429.8</ele>
        <time>2026-02-02T09:44:54Z</time>
      </trkpt>
      <trkpt lat="45.95081" lon="6.55576">
        <ele>2429.8</ele>
        <time>2026-02-02T09:44:55Z</time>
      </trkpt>
      <trkpt lat="45.95081" lon="6.55576">
        <ele>2429.8</ele>
        <time>2026-02-02T09:44:56Z</time>
      </trkpt>
      <trkpt lat="45.95081" lon="6.55576">
        <ele>2429.8</ele>
        <time>2026-02-02T09:44:57Z</time>
      </trkpt>
      <trkpt lat="45.95081" lon="6.55576">
        <ele>2429.8</ele>
        <time>2026-02-02T09:44:58Z</time>
      </trkpt>
      <trkpt lat="45.95081" lon="6.55576">
        <ele>2429.8</ele>
        <time>2026-02-02T09:44:59Z</time>
      </trkpt>
      <trkpt lat="45.95082" lon="6.55576">
        <ele>2429.8</ele>
        <time>2026-02-02T09:45:00Z</time>
      </trkpt>
      <trkpt lat="45.95082" lon="6.55576">
        <ele>2429.8</ele>
        <time>2026-02-02T09:45:01Z</time>
      </trkpt>
      <trkpt lat="45.95082" lon="6.55576">
        <ele>2429.8</ele>
        <time>2026-02-02T09:45:02Z</time>
      </trkpt>
      <trkpt lat="45.95082" lon="6.55576">
        <ele>2429.8</ele>
        <time>2026-02-02T09:45:03Z</time>
      </trkpt>
      <trkpt lat="45.95082" lon="6.55576">
        <ele>2432.2</ele>
        <time>2026-02-02T09:45:04Z</time>
      </trkpt>
      <trkpt lat="45.95083" lon="6.55576">
        <ele>2432.2</ele>
        <time>2026-02-02T09:45:05Z</time>
      </trkpt>
      <trkpt lat="45.95083" lon="6.55577">
        <ele>2432.2</ele>
        <time>2026-02-02T09:45:06Z</time>
      </trkpt>
      <trkpt lat="45.95083" lon="6.55576">
        <ele>2432.2</ele>
        <time>2026-02-02T09:45:07Z</time>
      </trkpt>
      <trkpt lat="45.95083" lon="6.55575">
        <ele>2432.2</ele>
        <time>2026-02-02T09:45:08Z</time>
      </trkpt>
      <trkpt lat="45.95083" lon="6.55575">
        <ele>2432.2</ele>
        <time>2026-02-02T09:45:09Z</time>
      </trkpt>
      <trkpt lat="45.95083" lon="6.55575">
        <ele>2432.2</ele>
        <time>2026-02-02T09:45:10Z</time>
      </trkpt>
      <trkpt lat="45.95083" lon="6.55575">
        <ele>2432.2</ele>
        <time>2026-02-02T09:45:11Z</time>
      </trkpt>
      <trkpt lat="45.95084" lon="6.55575">
        <ele>2434.7</ele>
        <time>2026-02-02T09:45:12Z</time>
      </trkpt>
      <trkpt lat="45.95084" lon="6.55575">
        <ele>2434.7</ele>
        <time>2026-02-02T09:45:13Z</time>
      </trkpt>
      <trkpt lat="45.95084" lon="6.55575">
        <ele>2434.7</ele>
        <time>2026-02-02T09:45:14Z</time>
      </trkpt>
      <trkpt lat="45.95084" lon="6.55574">
        <ele>2434.7</ele>
        <time>2026-02-02T09:45:15Z</time>
      </trkpt>
      <trkpt lat="45.95085" lon="6.55574">
        <ele>2434.7</ele>
        <time>2026-02-02T09:45:16Z</time>
      </trkpt>
      <trkpt lat="45.95085" lon="6.55574">
        <ele>2434.7</ele>
        <time>2026-02-02T09:45:17Z</time>
      </trkpt>
      <trkpt lat="45.95085" lon="6.55574">
        <ele>2434.7</ele>
        <time>2026-02-02T09:45:18Z</time>
      </trkpt>
      <trkpt lat="45.95085" lon="6.55574">
        <ele>2434.7</ele>
        <time>2026-02-02T09:45:19Z</time>
      </trkpt>
      <trkpt lat="45.95085" lon="6.55574">
        <ele>2434.7</ele>
        <time>2026-02-02T09:45:20Z</time>
      </trkpt>
      <trkpt lat="45.95085" lon="6.55574">
        <ele>2434.7</ele>
        <time>2026-02-02T09:45:21Z</time>
      </trkpt>
      <trkpt lat="45.95085" lon="6.55574">
        <ele>2434.7</ele>
        <time>2026-02-02T09:45:22Z</time>
      </trkpt>
      <trkpt lat="45.95085" lon="6.55574">
        <ele>2434.7</ele>
        <time>2026-02-02T09:45:23Z</time>
      </trkpt>
      <trkpt lat="45.95085" lon="6.55575">
        <ele>2434.7</ele>
        <time>2026-02-02T09:45:24Z</time>
      </trkpt>
      <trkpt lat="45.95085" lon="6.55575">
        <ele>2434.7</ele>
        <time>2026-02-02T09:45:25Z</time>
      </trkpt>
      <trkpt lat="45.95085" lon="6.55575">
        <ele>2434.7</ele>
        <time>2026-02-02T09:45:26Z</time>
      </trkpt>
      <trkpt lat="45.95085" lon="6.55575">
        <ele>2434.7</ele>
        <time>2026-02-02T09:45:27Z</time>
      </trkpt>
      <trkpt lat="45.95085" lon="6.55575">
        <ele>2434.7</ele>
        <time>2026-02-02T09:45:28Z</time>
      </trkpt>
      <trkpt lat="45.95085" lon="6.55574">
        <ele>2434.7</ele>
        <time>2026-02-02T09:45:29Z</time>
      </trkpt>
      <trkpt lat="45.95085" lon="6.55574">
        <ele>2434.7</ele>
        <time>2026-02-02T09:45:30Z</time>
      </trkpt>
      <trkpt lat="45.95085" lon="6.55574">
        <ele>2434.7</ele>
        <time>2026-02-02T09:45:31Z</time>
      </trkpt>
      <trkpt lat="45.95085" lon="6.55574">
        <ele>2434.7</ele>
        <time>2026-02-02T09:45:32Z</time>
      </trkpt>
      <trkpt lat="45.95085" lon="6.55574">
        <ele>2434.7</ele>
        <time>2026-02-02T09:45:33Z</time>
      </trkpt>
      <trkpt lat="45.95085" lon="6.55574">
        <ele>2434.7</ele>
        <time>2026-02-02T09:45:34Z</time>
      </trkpt>
      <trkpt lat="45.95085" lon="6.55574">
        <ele>2434.7</ele>
        <time>2026-02-02T09:45:35Z</time>
      </trkpt>
      <trkpt lat="45.95085" lon="6.55574">
        <ele>2434.7</ele>
        <time>2026-02-02T09:45:36Z</time>
      </trkpt>
      <trkpt lat="45.95085" lon="6.55575">
        <ele>2434.7</ele>
        <time>2026-02-02T09:45:37Z</time>
      </trkpt>
      <trkpt lat="45.95085" lon="6.55575">
        <ele>2434.7</ele>
        <time>2026-02-02T09:45:38Z</time>
      </trkpt>
      <trkpt lat="45.95085" lon="6.55575">
        <ele>2434.7</ele>
        <time>2026-02-02T09:45:39Z</time>
      </trkpt>
      <trkpt lat="45.95085" lon="6.55575">
        <ele>2434.7</ele>
        <time>2026-02-02T09:45:40Z</time>
      </trkpt>
      <trkpt lat="45.95085" lon="6.55575">
        <ele>2434.7</ele>
        <time>2026-02-02T09:45:41Z</time>
      </trkpt>
      <trkpt lat="45.95085" lon="6.55575">
        <ele>2434.7</ele>
        <time>2026-02-02T09:45:42Z</time>
      </trkpt>
      <trkpt lat="45.95085" lon="6.55575">
        <ele>2434.7</ele>
        <time>2026-02-02T09:45:43Z</time>
      </trkpt>
      <trkpt lat="45.95085" lon="6.55575">
        <ele>2434.7</ele>
        <time>2026-02-02T09:45:44Z</time>
      </trkpt>
      <trkpt lat="45.95085" lon="6.55575">
        <ele>2434.7</ele>
        <time>2026-02-02T09:45:45Z</time>
      </trkpt>
      <trkpt lat="45.95085" lon="6.55575">
        <ele>2434.7</ele>
        <time>2026-02-02T09:45:46Z</time>
      </trkpt>
      <trkpt lat="45.95085" lon="6.55575">
        <ele>2434.7</ele>
        <time>2026-02-02T09:45:47Z</time>
      </trkpt>
      <trkpt lat="45.95085" lon="6.55574">
        <ele>2434.7</ele>
        <time>2026-02-02T09:45:48Z</time>
      </trkpt>
      <trkpt lat="45.95085" lon="6.55574">
        <ele>2434.7</ele>
        <time>2026-02-02T09:45:49Z</time>
      </trkpt>
      <trkpt lat="45.95085" lon="6.55573">
        <ele>2437.1</ele>
        <time>2026-02-02T09:45:50Z</time>
      </trkpt>
      <trkpt lat="45.95086" lon="6.55573">
        <ele>2437.1</ele>
        <time>2026-02-02T09:45:51Z</time>
      </trkpt>
      <trkpt lat="45.95086" lon="6.55573">
        <ele>2437.1</ele>
        <time>2026-02-02T09:45:52Z</time>
      </trkpt>
      <trkpt lat="45.95086" lon="6.55573">
        <ele>2437.1</ele>
        <time>2026-02-02T09:45:53Z</time>
      </trkpt>
      <trkpt lat="45.95086" lon="6.55573">
        <ele>2437.1</ele>
        <time>2026-02-02T09:45:54Z</time>
      </trkpt>
      <trkpt lat="45.95087" lon="6.55572">
        <ele>2437.1</ele>
        <time>2026-02-02T09:45:55Z</time>
      </trkpt>
      <trkpt lat="45.95088" lon="6.55572">
        <ele>2437.1</ele>
        <time>2026-02-02T09:45:56Z</time>
      </trkpt>
      <trkpt lat="45.95087" lon="6.55573">
        <ele>2437.1</ele>
        <time>2026-02-02T09:45:57Z</time>
      </trkpt>
      <trkpt lat="45.95087" lon="6.55573">
        <ele>2437.1</ele>
        <time>2026-02-02T09:45:58Z</time>
      </trkpt>
      <trkpt lat="45.95088" lon="6.55573">
        <ele>2437.1</ele>
        <time>2026-02-02T09:45:59Z</time>
      </trkpt>
      <trkpt lat="45.95088" lon="6.55572">
        <ele>2437.1</ele>
        <time>2026-02-02T09:46:00Z</time>
      </trkpt>
      <trkpt lat="45.95088" lon="6.55572">
        <ele>2437.1</ele>
        <time>2026-02-02T09:46:01Z</time>
      </trkpt>
      <trkpt lat="45.95088" lon="6.55572">
        <ele>2437.1</ele>
        <time>2026-02-02T09:46:02Z</time>
      </trkpt>
      <trkpt lat="45.95088" lon="6.55572">
        <ele>2437.1</ele>
        <time>2026-02-02T09:46:03Z</time>
      </trkpt>
      <trkpt lat="45.95088" lon="6.55572">
        <ele>2439.2</ele>
        <time>2026-02-02T09:46:04Z</time>
      </trkpt>
      <trkpt lat="45.95088" lon="6.55572">
        <ele>2437.1</ele>
        <time>2026-02-02T09:46:05Z</time>
      </trkpt>
      <trkpt lat="45.95088" lon="6.55572">
        <ele>2439.2</ele>
        <time>2026-02-02T09:46:06Z</time>
      </trkpt>
      <trkpt lat="45.95089" lon="6.55572">
        <ele>2439.2</ele>
        <time>2026-02-02T09:46:07Z</time>
      </trkpt>
      <trkpt lat="45.95089" lon="6.55572">
        <ele>2439.2</ele>
        <time>2026-02-02T09:46:08Z</time>
      </trkpt>
      <trkpt lat="45.95089" lon="6.55573">
        <ele>2439.2</ele>
        <time>2026-02-02T09:46:09Z</time>
      </trkpt>
      <trkpt lat="45.95089" lon="6.55573">
        <ele>2439.2</ele>
        <time>2026-02-02T09:46:10Z</time>
      </trkpt>
      <trkpt lat="45.95089" lon="6.55573">
        <ele>2439.2</ele>
        <time>2026-02-02T09:46:11Z</time>
      </trkpt>
      <trkpt lat="45.95089" lon="6.55573">
        <ele>2439.2</ele>
        <time>2026-02-02T09:46:12Z</time>
      </trkpt>
      <trkpt lat="45.95089" lon="6.55573">
        <ele>2439.2</ele>
        <time>2026-02-02T09:46:13Z</time>
      </trkpt>
      <trkpt lat="45.95089" lon="6.55573">
        <ele>2439.2</ele>
        <time>2026-02-02T09:46:14Z</time>
      </trkpt>
      <trkpt lat="45.95089" lon="6.55573">
        <ele>2439.2</ele>
        <time>2026-02-02T09:46:15Z</time>
      </trkpt>
      <trkpt lat="45.95089" lon="6.55573">
        <ele>2439.2</ele>
        <time>2026-02-02T09:46:16Z</time>
      </trkpt>
      <trkpt lat="45.95089" lon="6.55573">
        <ele>2439.2</ele>
        <time>2026-02-02T09:46:17Z</time>
      </trkpt>
      <trkpt lat="45.95089" lon="6.55573">
        <ele>2439.2</ele>
        <time>2026-02-02T09:46:18Z</time>
      </trkpt>
      <trkpt lat="45.95089" lon="6.55573">
        <ele>2439.2</ele>
        <time>2026-02-02T09:46:19Z</time>
      </trkpt>
      <trkpt lat="45.95089" lon="6.55573">
        <ele>2439.2</ele>
        <time>2026-02-02T09:46:20Z</time>
      </trkpt>
      <trkpt lat="45.95089" lon="6.55573">
        <ele>2439.2</ele>
        <time>2026-02-02T09:46:21Z</time>
      </trkpt>
      <trkpt lat="45.95089" lon="6.55573">
        <ele>2439.2</ele>
        <time>2026-02-02T09:46:22Z</time>
      </trkpt>
      <trkpt lat="45.95089" lon="6.55573">
        <ele>2439.2</ele>
        <time>2026-02-02T09:46:23Z</time>
      </trkpt>
      <trkpt lat="45.95089" lon="6.55572">
        <ele>2439.2</ele>
        <time>2026-02-02T09:46:24Z</time>
      </trkpt>
      <trkpt lat="45.95089" lon="6.55572">
        <ele>2439.2</ele>
        <time>2026-02-02T09:46:25Z</time>
      </trkpt>
      <trkpt lat="45.95089" lon="6.55572">
        <ele>2439.2</ele>
        <time>2026-02-02T09:46:26Z</time>
      </trkpt>
      <trkpt lat="45.95089" lon="6.55572">
        <ele>2439.2</ele>
        <time>2026-02-02T09:46:27Z</time>
      </trkpt>
      <trkpt lat="45.95089" lon="6.55572">
        <ele>2439.2</ele>
        <time>2026-02-02T09:46:28Z</time>
      </trkpt>
      <trkpt lat="45.95089" lon="6.55574">
        <ele>2439.2</ele>
        <time>2026-02-02T09:46:29Z</time>
      </trkpt>
      <trkpt lat="45.95089" lon="6.55574">
        <ele>2439.2</ele>
        <time>2026-02-02T09:46:30Z</time>
      </trkpt>
      <trkpt lat="45.95089" lon="6.55573">
        <ele>2439.2</ele>
        <time>2026-02-02T09:46:31Z</time>
      </trkpt>
      <trkpt lat="45.95089" lon="6.55574">
        <ele>2439.2</ele>
        <time>2026-02-02T09:46:32Z</time>
      </trkpt>
      <trkpt lat="45.95089" lon="6.55574">
        <ele>2439.2</ele>
        <time>2026-02-02T09:46:33Z</time>
      </trkpt>
      <trkpt lat="45.95089" lon="6.55575">
        <ele>2436.7</ele>
        <time>2026-02-02T09:46:34Z</time>
      </trkpt>
      <trkpt lat="45.95089" lon="6.55575">
        <ele>2439.2</ele>
        <time>2026-02-02T09:46:35Z</time>
      </trkpt>
      <trkpt lat="45.95089" lon="6.55574">
        <ele>2439.2</ele>
        <time>2026-02-02T09:46:36Z</time>
      </trkpt>
      <trkpt lat="45.95089" lon="6.55574">
        <ele>2439.2</ele>
        <time>2026-02-02T09:46:37Z</time>
      </trkpt>
      <trkpt lat="45.95089" lon="6.55574">
        <ele>2439.2</ele>
        <time>2026-02-02T09:46:38Z</time>
      </trkpt>
      <trkpt lat="45.95089" lon="6.55574">
        <ele>2439.2</ele>
        <time>2026-02-02T09:46:39Z</time>
      </trkpt>
      <trkpt lat="45.95089" lon="6.55573">
        <ele>2439.2</ele>
        <time>2026-02-02T09:46:40Z</time>
      </trkpt>
      <trkpt lat="45.95089" lon="6.55573">
        <ele>2439.2</ele>
        <time>2026-02-02T09:46:41Z</time>
      </trkpt>
      <trkpt lat="45.95089" lon="6.55573">
        <ele>2439.2</ele>
        <time>2026-02-02T09:46:42Z</time>
      </trkpt>
      <trkpt lat="45.95089" lon="6.55573">
        <ele>2439.2</ele>
        <time>2026-02-02T09:46:43Z</time>
      </trkpt>
      <trkpt lat="45.95089" lon="6.55573">
        <ele>2439.2</ele>
        <time>2026-02-02T09:46:44Z</time>
      </trkpt>
      <trkpt lat="45.95089" lon="6.55572">
        <ele>2439.2</ele>
        <time>2026-02-02T09:46:45Z</time>
      </trkpt>
      <trkpt lat="45.95089" lon="6.55572">
        <ele>2439.2</ele>
        <time>2026-02-02T09:46:46Z</time>
      </trkpt>
      <trkpt lat="45.9509" lon="6.55572">
        <ele>2439.2</ele>
        <time>2026-02-02T09:46:47Z</time>
      </trkpt>
      <trkpt lat="45.9509" lon="6.55572">
        <ele>2439.2</ele>
        <time>2026-02-02T09:46:48Z</time>
      </trkpt>
      <trkpt lat="45.9509" lon="6.55572">
        <ele>2439.2</ele>
        <time>2026-02-02T09:46:49Z</time>
      </trkpt>
      <trkpt lat="45.9509" lon="6.55571">
        <ele>2439.2</ele>
        <time>2026-02-02T09:46:50Z</time>
      </trkpt>
      <trkpt lat="45.9509" lon="6.55571">
        <ele>2439.2</ele>
        <time>2026-02-02T09:46:51Z</time>
      </trkpt>
      <trkpt lat="45.9509" lon="6.55571">
        <ele>2439.2</ele>
        <time>2026-02-02T09:46:52Z</time>
      </trkpt>
      <trkpt lat="45.9509" lon="6.55571">
        <ele>2439.2</ele>
        <time>2026-02-02T09:46:53Z</time>
      </trkpt>
      <trkpt lat="45.9509" lon="6.55571">
        <ele>2439.2</ele>
        <time>2026-02-02T09:46:54Z</time>
      </trkpt>
      <trkpt lat="45.9509" lon="6.55571">
        <ele>2439.2</ele>
        <time>2026-02-02T09:46:55Z</time>
      </trkpt>
      <trkpt lat="45.9509" lon="6.55571">
        <ele>2439.2</ele>
        <time>2026-02-02T09:46:56Z</time>
      </trkpt>
      <trkpt lat="45.9509" lon="6.55571">
        <ele>2439.2</ele>
        <time>2026-02-02T09:46:57Z</time>
      </trkpt>
      <trkpt lat="45.9509" lon="6.55571">
        <ele>2439.2</ele>
        <time>2026-02-02T09:46:58Z</time>
      </trkpt>
      <trkpt lat="45.9509" lon="6.55571">
        <ele>2439.2</ele>
        <time>2026-02-02T09:46:59Z</time>
      </trkpt>
      <trkpt lat="45.9509" lon="6.55571">
        <ele>2439.2</ele>
        <time>2026-02-02T09:47:00Z</time>
      </trkpt>
      <trkpt lat="45.9509" lon="6.55571">
        <ele>2439.2</ele>
        <time>2026-02-02T09:47:01Z</time>
      </trkpt>
      <trkpt lat="45.9509" lon="6.55571">
        <ele>2439.2</ele>
        <time>2026-02-02T09:47:02Z</time>
      </trkpt>
      <trkpt lat="45.9509" lon="6.55571">
        <ele>2439.2</ele>
        <time>2026-02-02T09:47:03Z</time>
      </trkpt>
      <trkpt lat="45.9509" lon="6.55571">
        <ele>2439.2</ele>
        <time>2026-02-02T09:47:04Z</time>
      </trkpt>
      <trkpt lat="45.9509" lon="6.55571">
        <ele>2439.2</ele>
        <time>2026-02-02T09:47:05Z</time>
      </trkpt>
      <trkpt lat="45.9509" lon="6.55571">
        <ele>2439.2</ele>
        <time>2026-02-02T09:47:06Z</time>
      </trkpt>
      <trkpt lat="45.9509" lon="6.55571">
        <ele>2439.2</ele>
        <time>2026-02-02T09:47:07Z</time>
      </trkpt>
      <trkpt lat="45.9509" lon="6.55571">
        <ele>2439.2</ele>
        <time>2026-02-02T09:47:08Z</time>
      </trkpt>
      <trkpt lat="45.95089" lon="6.55571">
        <ele>2439.2</ele>
        <time>2026-02-02T09:47:09Z</time>
      </trkpt>
      <trkpt lat="45.95089" lon="6.55571">
        <ele>2439.2</ele>
        <time>2026-02-02T09:47:10Z</time>
      </trkpt>
      <trkpt lat="45.9509" lon="6.55571">
        <ele>2439.2</ele>
        <time>2026-02-02T09:47:11Z</time>
      </trkpt>
      <trkpt lat="45.9509" lon="6.55571">
        <ele>2439.2</ele>
        <time>2026-02-02T09:47:12Z</time>
      </trkpt>
      <trkpt lat="45.9509" lon="6.55571">
        <ele>2439.2</ele>
        <time>2026-02-02T09:47:13Z</time>
      </trkpt>
      <trkpt lat="45.9509" lon="6.55572">
        <ele>2439.2</ele>
        <time>2026-02-02T09:47:14Z</time>
      </trkpt>
      <trkpt lat="45.9509" lon="6.55572">
        <ele>2439.2</ele>
        <time>2026-02-02T09:47:15Z</time>
      </trkpt>
      <trkpt lat="45.9509" lon="6.55572">
        <ele>2439.2</ele>
        <time>2026-02-02T09:47:16Z</time>
      </trkpt>
      <trkpt lat="45.9509" lon="6.55572">
        <ele>2439.2</ele>
        <time>2026-02-02T09:47:17Z</time>
      </trkpt>
      <trkpt lat="45.9509" lon="6.55572">
        <ele>2439.2</ele>
        <time>2026-02-02T09:47:18Z</time>
      </trkpt>
      <trkpt lat="45.9509" lon="6.55572">
        <ele>2439.2</ele>
        <time>2026-02-02T09:47:19Z</time>
      </trkpt>
      <trkpt lat="45.9509" lon="6.55572">
        <ele>2439.2</ele>
        <time>2026-02-02T09:47:20Z</time>
      </trkpt>
      <trkpt lat="45.9509" lon="6.55572">
        <ele>2439.2</ele>
        <time>2026-02-02T09:47:21Z</time>
      </trkpt>
      <trkpt lat="45.9509" lon="6.55572">
        <ele>2439.2</ele>
        <time>2026-02-02T09:47:22Z</time>
      </trkpt>
      <trkpt lat="45.9509" lon="6.55572">
        <ele>2439.2</ele>
        <time>2026-02-02T09:47:23Z</time>
      </trkpt>
      <trkpt lat="45.9509" lon="6.55572">
        <ele>2439.2</ele>
        <time>2026-02-02T09:47:24Z</time>
      </trkpt>
      <trkpt lat="45.9509" lon="6.55572">
        <ele>2439.2</ele>
        <time>2026-02-02T09:47:25Z</time>
      </trkpt>
      <trkpt lat="45.9509" lon="6.55572">
        <ele>2439.2</ele>
        <time>2026-02-02T09:47:26Z</time>
      </trkpt>
      <trkpt lat="45.9509" lon="6.55572">
        <ele>2439.2</ele>
        <time>2026-02-02T09:47:27Z</time>
      </trkpt>
      <trkpt lat="45.9509" lon="6.55572">
        <ele>2439.2</ele>
        <time>2026-02-02T09:47:28Z</time>
      </trkpt>
      <trkpt lat="45.9509" lon="6.55572">
        <ele>2439.2</ele>
        <time>2026-02-02T09:47:29Z</time>
      </trkpt>
      <trkpt lat="45.9509" lon="6.55572">
        <ele>2439.2</ele>
        <time>2026-02-02T09:47:30Z</time>
      </trkpt>
      <trkpt lat="45.9509" lon="6.55572">
        <ele>2439.2</ele>
        <time>2026-02-02T09:47:31Z</time>
      </trkpt>
      <trkpt lat="45.9509" lon="6.55572">
        <ele>2439.2</ele>
        <time>2026-02-02T09:47:32Z</time>
      </trkpt>
      <trkpt lat="45.9509" lon="6.55572">
        <ele>2439.2</ele>
        <time>2026-02-02T09:47:33Z</time>
      </trkpt>
      <trkpt lat="45.9509" lon="6.55572">
        <ele>2439.2</ele>
        <time>2026-02-02T09:47:34Z</time>
      </trkpt>
      <trkpt lat="45.9509" lon="6.55572">
        <ele>2439.2</ele>
        <time>2026-02-02T09:47:35Z</time>
      </trkpt>
      <trkpt lat="45.9509" lon="6.55572">
        <ele>2439.2</ele>
        <time>2026-02-02T09:47:36Z</time>
      </trkpt>
      <trkpt lat="45.9509" lon="6.55571">
        <ele>2439.2</ele>
        <time>2026-02-02T09:47:37Z</time>
      </trkpt>
      <trkpt lat="45.9509" lon="6.55571">
        <ele>2439.2</ele>
        <time>2026-02-02T09:47:38Z</time>
      </trkpt>
      <trkpt lat="45.95091" lon="6.55571">
        <ele>2439.2</ele>
        <time>2026-02-02T09:47:39Z</time>
      </trkpt>
      <trkpt lat="45.95091" lon="6.55571">
        <ele>2439.2</ele>
        <time>2026-02-02T09:47:40Z</time>
      </trkpt>
      <trkpt lat="45.95091" lon="6.55571">
        <ele>2439.2</ele>
        <time>2026-02-02T09:47:41Z</time>
      </trkpt>
      <trkpt lat="45.95091" lon="6.55571">
        <ele>2439.2</ele>
        <time>2026-02-02T09:47:42Z</time>
      </trkpt>
      <trkpt lat="45.9509" lon="6.55571">
        <ele>2439.2</ele>
        <time>2026-02-02T09:47:43Z</time>
      </trkpt>
      <trkpt lat="45.9509" lon="6.5557">
        <ele>2441.8</ele>
        <time>2026-02-02T09:47:44Z</time>
      </trkpt>
      <trkpt lat="45.9509" lon="6.5557">
        <ele>2441.8</ele>
        <time>2026-02-02T09:47:45Z</time>
      </trkpt>
      <trkpt lat="45.9509" lon="6.5557">
        <ele>2441.8</ele>
        <time>2026-02-02T09:47:46Z</time>
      </trkpt>
      <trkpt lat="45.9509" lon="6.5557">
        <ele>2441.8</ele>
        <time>2026-02-02T09:47:47Z</time>
      </trkpt>
      <trkpt lat="45.9509" lon="6.5557">
        <ele>2441.8</ele>
        <time>2026-02-02T09:47:48Z</time>
      </trkpt>
      <trkpt lat="45.9509" lon="6.5557">
        <ele>2441.8</ele>
        <time>2026-02-02T09:47:49Z</time>
      </trkpt>
      <trkpt lat="45.9509" lon="6.5557">
        <ele>2441.8</ele>
        <time>2026-02-02T09:47:50Z</time>
      </trkpt>
      <trkpt lat="45.9509" lon="6.5557">
        <ele>2441.8</ele>
        <time>2026-02-02T09:47:51Z</time>
      </trkpt>
      <trkpt lat="45.95091" lon="6.5557">
        <ele>2441.8</ele>
        <time>2026-02-02T09:47:52Z</time>
      </trkpt>
      <trkpt lat="45.95091" lon="6.5557">
        <ele>2441.8</ele>
        <time>2026-02-02T09:47:53Z</time>
      </trkpt>
      <trkpt lat="45.95091" lon="6.5557">
        <ele>2441.8</ele>
        <time>2026-02-02T09:47:54Z</time>
      </trkpt>
      <trkpt lat="45.95091" lon="6.5557">
        <ele>2441.8</ele>
        <time>2026-02-02T09:47:55Z</time>
      </trkpt>
      <trkpt lat="45.95091" lon="6.55569">
        <ele>2443.9</ele>
        <time>2026-02-02T09:47:56Z</time>
      </trkpt>
      <trkpt lat="45.95091" lon="6.55569">
        <ele>2443.9</ele>
        <time>2026-02-02T09:47:57Z</time>
      </trkpt>
      <trkpt lat="45.95092" lon="6.55569">
        <ele>2443.9</ele>
        <time>2026-02-02T09:47:58Z</time>
      </trkpt>
      <trkpt lat="45.95092" lon="6.55569">
        <ele>2443.9</ele>
        <time>2026-02-02T09:47:59Z</time>
      </trkpt>
      <trkpt lat="45.95092" lon="6.55569">
        <ele>2443.9</ele>
        <time>2026-02-02T09:48:00Z</time>
      </trkpt>
      <trkpt lat="45.95092" lon="6.55569">
        <ele>2443.9</ele>
        <time>2026-02-02T09:48:01Z</time>
      </trkpt>
      <trkpt lat="45.95092" lon="6.55569">
        <ele>2443.9</ele>
        <time>2026-02-02T09:48:02Z</time>
      </trkpt>
      <trkpt lat="45.95092" lon="6.55569">
        <ele>2443.9</ele>
        <time>2026-02-02T09:48:03Z</time>
      </trkpt>
      <trkpt lat="45.95092" lon="6.55569">
        <ele>2443.9</ele>
        <time>2026-02-02T09:48:04Z</time>
      </trkpt>
      <trkpt lat="45.95092" lon="6.55569">
        <ele>2443.9</ele>
        <time>2026-02-02T09:48:05Z</time>
      </trkpt>
      <trkpt lat="45.95092" lon="6.55569">
        <ele>2443.9</ele>
        <time>2026-02-02T09:48:06Z</time>
      </trkpt>
      <trkpt lat="45.95092" lon="6.55569">
        <ele>2443.9</ele>
        <time>2026-02-02T09:48:07Z</time>
      </trkpt>
      <trkpt lat="45.95092" lon="6.55569">
        <ele>2443.9</ele>
        <time>2026-02-02T09:48:08Z</time>
      </trkpt>
      <trkpt lat="45.95092" lon="6.55569">
        <ele>2443.9</ele>
        <time>2026-02-02T09:48:09Z</time>
      </trkpt>
      <trkpt lat="45.95092" lon="6.55569">
        <ele>2443.9</ele>
        <time>2026-02-02T09:48:10Z</time>
      </trkpt>
      <trkpt lat="45.95092" lon="6.55569">
        <ele>2443.9</ele>
        <time>2026-02-02T09:48:11Z</time>
      </trkpt>
      <trkpt lat="45.95092" lon="6.55569">
        <ele>2443.9</ele>
        <time>2026-02-02T09:48:12Z</time>
      </trkpt>
      <trkpt lat="45.95092" lon="6.55569">
        <ele>2443.9</ele>
        <time>2026-02-02T09:48:13Z</time>
      </trkpt>
      <trkpt lat="45.95093" lon="6.55569">
        <ele>2443.9</ele>
        <time>2026-02-02T09:48:14Z</time>
      </trkpt>
      <trkpt lat="45.95093" lon="6.55569">
        <ele>2443.9</ele>
        <time>2026-02-02T09:48:15Z</time>
      </trkpt>
      <trkpt lat="45.95093" lon="6.55569">
        <ele>2443.9</ele>
        <time>2026-02-02T09:48:16Z</time>
      </trkpt>
      <trkpt lat="45.95093" lon="6.55569">
        <ele>2443.9</ele>
        <time>2026-02-02T09:48:17Z</time>
      </trkpt>
      <trkpt lat="45.95093" lon="6.55569">
        <ele>2443.9</ele>
        <time>2026-02-02T09:48:18Z</time>
      </trkpt>
      <trkpt lat="45.95093" lon="6.55569">
        <ele>2443.9</ele>
        <time>2026-02-02T09:48:19Z</time>
      </trkpt>
      <trkpt lat="45.95093" lon="6.5557">
        <ele>2443.9</ele>
        <time>2026-02-02T09:48:20Z</time>
      </trkpt>
      <trkpt lat="45.95093" lon="6.5557">
        <ele>2443.9</ele>
        <time>2026-02-02T09:48:21Z</time>
      </trkpt>
      <trkpt lat="45.95093" lon="6.5557">
        <ele>2443.9</ele>
        <time>2026-02-02T09:48:22Z</time>
      </trkpt>
      <trkpt lat="45.95093" lon="6.5557">
        <ele>2443.9</ele>
        <time>2026-02-02T09:48:23Z</time>
      </trkpt>
      <trkpt lat="45.95093" lon="6.5557">
        <ele>2443.9</ele>
        <time>2026-02-02T09:48:24Z</time>
      </trkpt>
      <trkpt lat="45.95093" lon="6.5557">
        <ele>2443.9</ele>
        <time>2026-02-02T09:48:25Z</time>
      </trkpt>
      <trkpt lat="45.95093" lon="6.5557">
        <ele>2443.9</ele>
        <time>2026-02-02T09:48:26Z</time>
      </trkpt>
      <trkpt lat="45.95093" lon="6.5557">
        <ele>2443.9</ele>
        <time>2026-02-02T09:48:27Z</time>
      </trkpt>
      <trkpt lat="45.95093" lon="6.5557">
        <ele>2443.9</ele>
        <time>2026-02-02T09:48:28Z</time>
      </trkpt>
      <trkpt lat="45.95093" lon="6.5557">
        <ele>2443.9</ele>
        <time>2026-02-02T09:48:29Z</time>
      </trkpt>
      <trkpt lat="45.95093" lon="6.5557">
        <ele>2443.9</ele>
        <time>2026-02-02T09:48:30Z</time>
      </trkpt>
      <trkpt lat="45.95093" lon="6.5557">
        <ele>2443.9</ele>
        <time>2026-02-02T09:48:31Z</time>
      </trkpt>
      <trkpt lat="45.95093" lon="6.5557">
        <ele>2443.9</ele>
        <time>2026-02-02T09:48:32Z</time>
      </trkpt>
      <trkpt lat="45.95093" lon="6.5557">
        <ele>2443.9</ele>
        <time>2026-02-02T09:48:33Z</time>
      </trkpt>
      <trkpt lat="45.95093" lon="6.5557">
        <ele>2443.9</ele>
        <time>2026-02-02T09:48:34Z</time>
      </trkpt>
      <trkpt lat="45.95093" lon="6.5557">
        <ele>2443.9</ele>
        <time>2026-02-02T09:48:35Z</time>
      </trkpt>
      <trkpt lat="45.95093" lon="6.5557">
        <ele>2443.9</ele>
        <time>2026-02-02T09:48:36Z</time>
      </trkpt>
      <trkpt lat="45.95093" lon="6.5557">
        <ele>2443.9</ele>
        <time>2026-02-02T09:48:37Z</time>
      </trkpt>
      <trkpt lat="45.95093" lon="6.5557">
        <ele>2443.9</ele>
        <time>2026-02-02T09:48:38Z</time>
      </trkpt>
      <trkpt lat="45.95094" lon="6.5557">
        <ele>2443.9</ele>
        <time>2026-02-02T09:48:39Z</time>
      </trkpt>
      <trkpt lat="45.95094" lon="6.5557">
        <ele>2445.8</ele>
        <time>2026-02-02T09:48:40Z</time>
      </trkpt>
      <trkpt lat="45.95095" lon="6.5557">
        <ele>2445.8</ele>
        <time>2026-02-02T09:48:41Z</time>
      </trkpt>
      <trkpt lat="45.95095" lon="6.5557">
        <ele>2445.8</ele>
        <time>2026-02-02T09:48:42Z</time>
      </trkpt>
      <trkpt lat="45.95094" lon="6.5557">
        <ele>2445.8</ele>
        <time>2026-02-02T09:48:43Z</time>
      </trkpt>
      <trkpt lat="45.95094" lon="6.55571">
        <ele>2443.2</ele>
        <time>2026-02-02T09:48:44Z</time>
      </trkpt>
      <trkpt lat="45.95094" lon="6.55571">
        <ele>2443.2</ele>
        <time>2026-02-02T09:48:45Z</time>
      </trkpt>
      <trkpt lat="45.95094" lon="6.55571">
        <ele>2443.2</ele>
        <time>2026-02-02T09:48:46Z</time>
      </trkpt>
      <trkpt lat="45.95094" lon="6.55571">
        <ele>2443.2</ele>
        <time>2026-02-02T09:48:47Z</time>
      </trkpt>
      <trkpt lat="45.95094" lon="6.55571">
        <ele>2443.2</ele>
        <time>2026-02-02T09:48:48Z</time>
      </trkpt>
      <trkpt lat="45.95094" lon="6.55571">
        <ele>2443.2</ele>
        <time>2026-02-02T09:48:49Z</time>
      </trkpt>
      <trkpt lat="45.95095" lon="6.55571">
        <ele>2443.2</ele>
        <time>2026-02-02T09:48:50Z</time>
      </trkpt>
      <trkpt lat="45.95095" lon="6.55571">
        <ele>2443.2</ele>
        <time>2026-02-02T09:48:51Z</time>
      </trkpt>
      <trkpt lat="45.95095" lon="6.55572">
        <ele>2443.2</ele>
        <time>2026-02-02T09:48:52Z</time>
      </trkpt>
      <trkpt lat="45.95095" lon="6.55572">
        <ele>2443.2</ele>
        <time>2026-02-02T09:48:53Z</time>
      </trkpt>
      <trkpt lat="45.95095" lon="6.55572">
        <ele>2443.2</ele>
        <time>2026-02-02T09:48:54Z</time>
      </trkpt>
      <trkpt lat="45.95096" lon="6.55572">
        <ele>2443.2</ele>
        <time>2026-02-02T09:48:55Z</time>
      </trkpt>
      <trkpt lat="45.95096" lon="6.55572">
        <ele>2443.2</ele>
        <time>2026-02-02T09:48:56Z</time>
      </trkpt>
      <trkpt lat="45.95096" lon="6.55572">
        <ele>2443.2</ele>
        <time>2026-02-02T09:48:57Z</time>
      </trkpt>
      <trkpt lat="45.95096" lon="6.55572">
        <ele>2443.2</ele>
        <time>2026-02-02T09:48:58Z</time>
      </trkpt>
      <trkpt lat="45.95096" lon="6.55572">
        <ele>2443.2</ele>
        <time>2026-02-02T09:48:59Z</time>
      </trkpt>
      <trkpt lat="45.95096" lon="6.55572">
        <ele>2443.2</ele>
        <time>2026-02-02T09:49:00Z</time>
      </trkpt>
      <trkpt lat="45.95097" lon="6.55572">
        <ele>2443.2</ele>
        <time>2026-02-02T09:49:01Z</time>
      </trkpt>
      <trkpt lat="45.95097" lon="6.55572">
        <ele>2443.2</ele>
        <time>2026-02-02T09:49:02Z</time>
      </trkpt>
      <trkpt lat="45.95097" lon="6.55572">
        <ele>2445</ele>
        <time>2026-02-02T09:49:03Z</time>
      </trkpt>
      <trkpt lat="45.95097" lon="6.55572">
        <ele>2445</ele>
        <time>2026-02-02T09:49:04Z</time>
      </trkpt>
      <trkpt lat="45.95098" lon="6.55572">
        <ele>2445</ele>
        <time>2026-02-02T09:49:05Z</time>
      </trkpt>
      <trkpt lat="45.95098" lon="6.55572">
        <ele>2445</ele>
        <time>2026-02-02T09:49:06Z</time>
      </trkpt>
      <trkpt lat="45.95098" lon="6.55572">
        <ele>2445</ele>
        <time>2026-02-02T09:49:08Z</time>
      </trkpt>
      <trkpt lat="45.95098" lon="6.55572">
        <ele>2445</ele>
        <time>2026-02-02T09:49:09Z</time>
      </trkpt>
      <trkpt lat="45.95098" lon="6.55572">
        <ele>2445</ele>
        <time>2026-02-02T09:49:10Z</time>
      </trkpt>
      <trkpt lat="45.95099" lon="6.55571">
        <ele>2445</ele>
        <time>2026-02-02T09:49:11Z</time>
      </trkpt>
      <trkpt lat="45.95099" lon="6.55571">
        <ele>2445</ele>
        <time>2026-02-02T09:49:12Z</time>
      </trkpt>
      <trkpt lat="45.95099" lon="6.55571">
        <ele>2445</ele>
        <time>2026-02-02T09:49:13Z</time>
      </trkpt>
      <trkpt lat="45.95099" lon="6.55571">
        <ele>2445</ele>
        <time>2026-02-02T09:49:14Z</time>
      </trkpt>
      <trkpt lat="45.95099" lon="6.55571">
        <ele>2445</ele>
        <time>2026-02-02T09:49:15Z</time>
      </trkpt>
      <trkpt lat="45.95099" lon="6.55571">
        <ele>2445</ele>
        <time>2026-02-02T09:49:16Z</time>
      </trkpt>
      <trkpt lat="45.95099" lon="6.55571">
        <ele>2445</ele>
        <time>2026-02-02T09:49:17Z</time>
      </trkpt>
      <trkpt lat="45.95099" lon="6.55571">
        <ele>2445</ele>
        <time>2026-02-02T09:49:18Z</time>
      </trkpt>
      <trkpt lat="45.95099" lon="6.55571">
        <ele>2447.6</ele>
        <time>2026-02-02T09:49:19Z</time>
      </trkpt>
      <trkpt lat="45.95099" lon="6.5557">
        <ele>2447.6</ele>
        <time>2026-02-02T09:49:20Z</time>
      </trkpt>
      <trkpt lat="45.95099" lon="6.5557">
        <ele>2447.6</ele>
        <time>2026-02-02T09:49:21Z</time>
      </trkpt>
      <trkpt lat="45.95099" lon="6.5557">
        <ele>2447.6</ele>
        <time>2026-02-02T09:49:22Z</time>
      </trkpt>
      <trkpt lat="45.951" lon="6.55569">
        <ele>2449.3</ele>
        <time>2026-02-02T09:49:23Z</time>
      </trkpt>
      <trkpt lat="45.95101" lon="6.55569">
        <ele>2449.3</ele>
        <time>2026-02-02T09:49:24Z</time>
      </trkpt>
      <trkpt lat="45.95101" lon="6.55568">
        <ele>2449.3</ele>
        <time>2026-02-02T09:49:25Z</time>
      </trkpt>
      <trkpt lat="45.95101" lon="6.55568">
        <ele>2449.3</ele>
        <time>2026-02-02T09:49:26Z</time>
      </trkpt>
      <trkpt lat="45.95101" lon="6.55568">
        <ele>2449.3</ele>
        <time>2026-02-02T09:49:27Z</time>
      </trkpt>
      <trkpt lat="45.95101" lon="6.55568">
        <ele>2449.3</ele>
        <time>2026-02-02T09:49:28Z</time>
      </trkpt>
      <trkpt lat="45.95101" lon="6.55568">
        <ele>2449.3</ele>
        <time>2026-02-02T09:49:29Z</time>
      </trkpt>
      <trkpt lat="45.95102" lon="6.55568">
        <ele>2449.3</ele>
        <time>2026-02-02T09:49:30Z</time>
      </trkpt>
      <trkpt lat="45.95102" lon="6.55569">
        <ele>2449.3</ele>
        <time>2026-02-02T09:49:31Z</time>
      </trkpt>
      <trkpt lat="45.95102" lon="6.55569">
        <ele>2449.3</ele>
        <time>2026-02-02T09:49:32Z</time>
      </trkpt>
      <trkpt lat="45.95101" lon="6.55569">
        <ele>2449.3</ele>
        <time>2026-02-02T09:49:33Z</time>
      </trkpt>
      <trkpt lat="45.95102" lon="6.55568">
        <ele>2449.3</ele>
        <time>2026-02-02T09:49:34Z</time>
      </trkpt>
      <trkpt lat="45.95102" lon="6.55568">
        <ele>2449.3</ele>
        <time>2026-02-02T09:49:35Z</time>
      </trkpt>
      <trkpt lat="45.95102" lon="6.55568">
        <ele>2449.3</ele>
        <time>2026-02-02T09:49:36Z</time>
      </trkpt>
      <trkpt lat="45.95101" lon="6.55567">
        <ele>2449.3</ele>
        <time>2026-02-02T09:49:37Z</time>
      </trkpt>
      <trkpt lat="45.95101" lon="6.55567">
        <ele>2449.3</ele>
        <time>2026-02-02T09:49:38Z</time>
      </trkpt>
      <trkpt lat="45.95101" lon="6.55567">
        <ele>2449.3</ele>
        <time>2026-02-02T09:49:39Z</time>
      </trkpt>
      <trkpt lat="45.95101" lon="6.55567">
        <ele>2449.3</ele>
        <time>2026-02-02T09:49:40Z</time>
      </trkpt>
      <trkpt lat="45.95101" lon="6.55566">
        <ele>2452</ele>
        <time>2026-02-02T09:49:41Z</time>
      </trkpt>
      <trkpt lat="45.95101" lon="6.55566">
        <ele>2452</ele>
        <time>2026-02-02T09:49:42Z</time>
      </trkpt>
      <trkpt lat="45.95101" lon="6.55566">
        <ele>2452</ele>
        <time>2026-02-02T09:49:43Z</time>
      </trkpt>
      <trkpt lat="45.95101" lon="6.55566">
        <ele>2452</ele>
        <time>2026-02-02T09:49:44Z</time>
      </trkpt>
      <trkpt lat="45.95102" lon="6.55567">
        <ele>2449.3</ele>
        <time>2026-02-02T09:49:45Z</time>
      </trkpt>
      <trkpt lat="45.95102" lon="6.55567">
        <ele>2449.3</ele>
        <time>2026-02-02T09:49:46Z</time>
      </trkpt>
      <trkpt lat="45.95102" lon="6.55567">
        <ele>2449.3</ele>
        <time>2026-02-02T09:49:47Z</time>
      </trkpt>
      <trkpt lat="45.95102" lon="6.55567">
        <ele>2449.3</ele>
        <time>2026-02-02T09:49:48Z</time>
      </trkpt>
      <trkpt lat="45.95102" lon="6.55567">
        <ele>2449.3</ele>
        <time>2026-02-02T09:49:49Z</time>
      </trkpt>
      <trkpt lat="45.95102" lon="6.55567">
        <ele>2449.3</ele>
        <time>2026-02-02T09:49:50Z</time>
      </trkpt>
      <trkpt lat="45.95102" lon="6.55567">
        <ele>2449.3</ele>
        <time>2026-02-02T09:49:51Z</time>
      </trkpt>
      <trkpt lat="45.95102" lon="6.55568">
        <ele>2449.3</ele>
        <time>2026-02-02T09:49:52Z</time>
      </trkpt>
      <trkpt lat="45.95102" lon="6.55568">
        <ele>2449.3</ele>
        <time>2026-02-02T09:49:53Z</time>
      </trkpt>
      <trkpt lat="45.95102" lon="6.55568">
        <ele>2449.3</ele>
        <time>2026-02-02T09:49:54Z</time>
      </trkpt>
      <trkpt lat="45.95102" lon="6.55568">
        <ele>2449.3</ele>
        <time>2026-02-02T09:49:55Z</time>
      </trkpt>
      <trkpt lat="45.95102" lon="6.55568">
        <ele>2449.3</ele>
        <time>2026-02-02T09:49:56Z</time>
      </trkpt>
      <trkpt lat="45.95102" lon="6.55568">
        <ele>2449.3</ele>
        <time>2026-02-02T09:49:57Z</time>
      </trkpt>
      <trkpt lat="45.95102" lon="6.55568">
        <ele>2449.3</ele>
        <time>2026-02-02T09:49:58Z</time>
      </trkpt>
      <trkpt lat="45.95102" lon="6.55568">
        <ele>2449.3</ele>
        <time>2026-02-02T09:49:59Z</time>
      </trkpt>
      <trkpt lat="45.95102" lon="6.55568">
        <ele>2449.3</ele>
        <time>2026-02-02T09:50:00Z</time>
      </trkpt>
      <trkpt lat="45.95102" lon="6.55568">
        <ele>2449.3</ele>
        <time>2026-02-02T09:50:01Z</time>
      </trkpt>
      <trkpt lat="45.95101" lon="6.55568">
        <ele>2449.3</ele>
        <time>2026-02-02T09:50:02Z</time>
      </trkpt>
      <trkpt lat="45.95101" lon="6.55568">
        <ele>2449.3</ele>
        <time>2026-02-02T09:50:03Z</time>
      </trkpt>
      <trkpt lat="45.95101" lon="6.55568">
        <ele>2449.3</ele>
        <time>2026-02-02T09:50:04Z</time>
      </trkpt>
      <trkpt lat="45.95101" lon="6.55568">
        <ele>2449.3</ele>
        <time>2026-02-02T09:50:05Z</time>
      </trkpt>
      <trkpt lat="45.95101" lon="6.55568">
        <ele>2449.3</ele>
        <time>2026-02-02T09:50:06Z</time>
      </trkpt>
      <trkpt lat="45.95101" lon="6.55568">
        <ele>2449.3</ele>
        <time>2026-02-02T09:50:07Z</time>
      </trkpt>
      <trkpt lat="45.95101" lon="6.55568">
        <ele>2449.3</ele>
        <time>2026-02-02T09:50:08Z</time>
      </trkpt>
      <trkpt lat="45.95101" lon="6.55568">
        <ele>2449.3</ele>
        <time>2026-02-02T09:50:09Z</time>
      </trkpt>
      <trkpt lat="45.95101" lon="6.55568">
        <ele>2449.3</ele>
        <time>2026-02-02T09:50:10Z</time>
      </trkpt>
      <trkpt lat="45.95101" lon="6.55568">
        <ele>2449.3</ele>
        <time>2026-02-02T09:50:11Z</time>
      </trkpt>
      <trkpt lat="45.95101" lon="6.55568">
        <ele>2449.3</ele>
        <time>2026-02-02T09:50:12Z</time>
      </trkpt>
      <trkpt lat="45.95101" lon="6.55568">
        <ele>2449.3</ele>
        <time>2026-02-02T09:50:13Z</time>
      </trkpt>
      <trkpt lat="45.95101" lon="6.55567">
        <ele>2449.3</ele>
        <time>2026-02-02T09:50:14Z</time>
      </trkpt>
      <trkpt lat="45.95102" lon="6.55566">
        <ele>2449.3</ele>
        <time>2026-02-02T09:50:15Z</time>
      </trkpt>
      <trkpt lat="45.95102" lon="6.55566">
        <ele>2452</ele>
        <time>2026-02-02T09:50:16Z</time>
      </trkpt>
      <trkpt lat="45.95101" lon="6.55567">
        <ele>2449.3</ele>
        <time>2026-02-02T09:50:17Z</time>
      </trkpt>
      <trkpt lat="45.95101" lon="6.55567">
        <ele>2449.3</ele>
        <time>2026-02-02T09:50:18Z</time>
      </trkpt>
      <trkpt lat="45.95102" lon="6.55567">
        <ele>2449.3</ele>
        <time>2026-02-02T09:50:19Z</time>
      </trkpt>
      <trkpt lat="45.95102" lon="6.55566">
        <ele>2452</ele>
        <time>2026-02-02T09:50:20Z</time>
      </trkpt>
      <trkpt lat="45.95102" lon="6.55566">
        <ele>2452</ele>
        <time>2026-02-02T09:50:21Z</time>
      </trkpt>
      <trkpt lat="45.95102" lon="6.55566">
        <ele>2452</ele>
        <time>2026-02-02T09:50:22Z</time>
      </trkpt>
      <trkpt lat="45.95102" lon="6.55566">
        <ele>2452</ele>
        <time>2026-02-02T09:50:23Z</time>
      </trkpt>
      <trkpt lat="45.95102" lon="6.55566">
        <ele>2452</ele>
        <time>2026-02-02T09:50:24Z</time>
      </trkpt>
      <trkpt lat="45.95103" lon="6.55565">
        <ele>2452</ele>
        <time>2026-02-02T09:50:25Z</time>
      </trkpt>
      <trkpt lat="45.95103" lon="6.55565">
        <ele>2452</ele>
        <time>2026-02-02T09:50:26Z</time>
      </trkpt>
      <trkpt lat="45.95103" lon="6.55565">
        <ele>2452</ele>
        <time>2026-02-02T09:50:27Z</time>
      </trkpt>
      <trkpt lat="45.95103" lon="6.55565">
        <ele>2453.7</ele>
        <time>2026-02-02T09:50:28Z</time>
      </trkpt>
      <trkpt lat="45.95104" lon="6.55565">
        <ele>2453.7</ele>
        <time>2026-02-02T09:50:30Z</time>
      </trkpt>
      <trkpt lat="45.95104" lon="6.55565">
        <ele>2453.7</ele>
        <time>2026-02-02T09:50:31Z</time>
      </trkpt>
      <trkpt lat="45.95104" lon="6.55565">
        <ele>2453.7</ele>
        <time>2026-02-02T09:50:32Z</time>
      </trkpt>
      <trkpt lat="45.95104" lon="6.55565">
        <ele>2453.7</ele>
        <time>2026-02-02T09:50:33Z</time>
      </trkpt>
      <trkpt lat="45.95104" lon="6.55565">
        <ele>2453.7</ele>
        <time>2026-02-02T09:50:34Z</time>
      </trkpt>
      <trkpt lat="45.95104" lon="6.55565">
        <ele>2453.7</ele>
        <time>2026-02-02T09:50:35Z</time>
      </trkpt>
      <trkpt lat="45.95104" lon="6.55565">
        <ele>2453.7</ele>
        <time>2026-02-02T09:50:36Z</time>
      </trkpt>
      <trkpt lat="45.95104" lon="6.55565">
        <ele>2453.7</ele>
        <time>2026-02-02T09:50:37Z</time>
      </trkpt>
      <trkpt lat="45.95104" lon="6.55565">
        <ele>2453.7</ele>
        <time>2026-02-02T09:50:38Z</time>
      </trkpt>
      <trkpt lat="45.95104" lon="6.55565">
        <ele>2453.7</ele>
        <time>2026-02-02T09:50:39Z</time>
      </trkpt>
      <trkpt lat="45.95104" lon="6.55565">
        <ele>2453.7</ele>
        <time>2026-02-02T09:50:40Z</time>
      </trkpt>
      <trkpt lat="45.95104" lon="6.55565">
        <ele>2453.7</ele>
        <time>2026-02-02T09:50:41Z</time>
      </trkpt>
      <trkpt lat="45.95104" lon="6.55565">
        <ele>2453.7</ele>
        <time>2026-02-02T09:50:42Z</time>
      </trkpt>
      <trkpt lat="45.95104" lon="6.55565">
        <ele>2453.7</ele>
        <time>2026-02-02T09:50:43Z</time>
      </trkpt>
      <trkpt lat="45.95104" lon="6.55565">
        <ele>2453.7</ele>
        <time>2026-02-02T09:50:44Z</time>
      </trkpt>
      <trkpt lat="45.95104" lon="6.55565">
        <ele>2453.7</ele>
        <time>2026-02-02T09:50:45Z</time>
      </trkpt>
      <trkpt lat="45.95104" lon="6.55565">
        <ele>2453.7</ele>
        <time>2026-02-02T09:50:46Z</time>
      </trkpt>
      <trkpt lat="45.95104" lon="6.55565">
        <ele>2453.7</ele>
        <time>2026-02-02T09:50:47Z</time>
      </trkpt>
      <trkpt lat="45.95104" lon="6.55565">
        <ele>2453.7</ele>
        <time>2026-02-02T09:50:48Z</time>
      </trkpt>
      <trkpt lat="45.95104" lon="6.55565">
        <ele>2453.7</ele>
        <time>2026-02-02T09:50:49Z</time>
      </trkpt>
      <trkpt lat="45.95104" lon="6.55565">
        <ele>2453.7</ele>
        <time>2026-02-02T09:50:50Z</time>
      </trkpt>
      <trkpt lat="45.95104" lon="6.55565">
        <ele>2453.7</ele>
        <time>2026-02-02T09:50:51Z</time>
      </trkpt>
      <trkpt lat="45.95104" lon="6.55565">
        <ele>2453.7</ele>
        <time>2026-02-02T09:50:52Z</time>
      </trkpt>
      <trkpt lat="45.95104" lon="6.55565">
        <ele>2453.7</ele>
        <time>2026-02-02T09:50:53Z</time>
      </trkpt>
      <trkpt lat="45.95104" lon="6.55565">
        <ele>2453.7</ele>
        <time>2026-02-02T09:50:54Z</time>
      </trkpt>
      <trkpt lat="45.95104" lon="6.55565">
        <ele>2453.7</ele>
        <time>2026-02-02T09:50:55Z</time>
      </trkpt>
      <trkpt lat="45.95104" lon="6.55565">
        <ele>2453.7</ele>
        <time>2026-02-02T09:50:56Z</time>
      </trkpt>
      <trkpt lat="45.95104" lon="6.55565">
        <ele>2453.7</ele>
        <time>2026-02-02T09:50:57Z</time>
      </trkpt>
      <trkpt lat="45.95104" lon="6.55565">
        <ele>2453.7</ele>
        <time>2026-02-02T09:50:58Z</time>
      </trkpt>
      <trkpt lat="45.95104" lon="6.55565">
        <ele>2453.7</ele>
        <time>2026-02-02T09:50:59Z</time>
      </trkpt>
      <trkpt lat="45.95104" lon="6.55564">
        <ele>2453.7</ele>
        <time>2026-02-02T09:51:00Z</time>
      </trkpt>
      <trkpt lat="45.95105" lon="6.55563">
        <ele>2453.7</ele>
        <time>2026-02-02T09:51:01Z</time>
      </trkpt>
      <trkpt lat="45.95105" lon="6.55563">
        <ele>2453.7</ele>
        <time>2026-02-02T09:51:02Z</time>
      </trkpt>
      <trkpt lat="45.95105" lon="6.55562">
        <ele>2453.7</ele>
        <time>2026-02-02T09:51:03Z</time>
      </trkpt>
      <trkpt lat="45.95105" lon="6.55563">
        <ele>2453.7</ele>
        <time>2026-02-02T09:51:04Z</time>
      </trkpt>
      <trkpt lat="45.95105" lon="6.55563">
        <ele>2453.7</ele>
        <time>2026-02-02T09:51:05Z</time>
      </trkpt>
      <trkpt lat="45.95105" lon="6.55563">
        <ele>2453.7</ele>
        <time>2026-02-02T09:51:06Z</time>
      </trkpt>
      <trkpt lat="45.95105" lon="6.55563">
        <ele>2453.7</ele>
        <time>2026-02-02T09:51:07Z</time>
      </trkpt>
      <trkpt lat="45.95106" lon="6.55563">
        <ele>2453.7</ele>
        <time>2026-02-02T09:51:08Z</time>
      </trkpt>
      <trkpt lat="45.95107" lon="6.55563">
        <ele>2455.3</ele>
        <time>2026-02-02T09:51:09Z</time>
      </trkpt>
      <trkpt lat="45.95107" lon="6.55563">
        <ele>2455.3</ele>
        <time>2026-02-02T09:51:10Z</time>
      </trkpt>
      <trkpt lat="45.95107" lon="6.55563">
        <ele>2455.3</ele>
        <time>2026-02-02T09:51:11Z</time>
      </trkpt>
      <trkpt lat="45.95107" lon="6.55564">
        <ele>2455.3</ele>
        <time>2026-02-02T09:51:12Z</time>
      </trkpt>
      <trkpt lat="45.95107" lon="6.55564">
        <ele>2455.3</ele>
        <time>2026-02-02T09:51:13Z</time>
      </trkpt>
      <trkpt lat="45.95107" lon="6.55564">
        <ele>2455.3</ele>
        <time>2026-02-02T09:51:14Z</time>
      </trkpt>
      <trkpt lat="45.95106" lon="6.55564">
        <ele>2453.7</ele>
        <time>2026-02-02T09:51:15Z</time>
      </trkpt>
      <trkpt lat="45.95106" lon="6.55564">
        <ele>2453.7</ele>
        <time>2026-02-02T09:51:16Z</time>
      </trkpt>
      <trkpt lat="45.95106" lon="6.55564">
        <ele>2453.7</ele>
        <time>2026-02-02T09:51:17Z</time>
      </trkpt>
      <trkpt lat="45.95105" lon="6.55564">
        <ele>2453.7</ele>
        <time>2026-02-02T09:51:18Z</time>
      </trkpt>
      <trkpt lat="45.95105" lon="6.55564">
        <ele>2453.7</ele>
        <time>2026-02-02T09:51:19Z</time>
      </trkpt>
      <trkpt lat="45.95105" lon="6.55564">
        <ele>2453.7</ele>
        <time>2026-02-02T09:51:20Z</time>
      </trkpt>
      <trkpt lat="45.95105" lon="6.55564">
        <ele>2453.7</ele>
        <time>2026-02-02T09:51:21Z</time>
      </trkpt>
      <trkpt lat="45.95105" lon="6.55564">
        <ele>2453.7</ele>
        <time>2026-02-02T09:51:22Z</time>
      </trkpt>
      <trkpt lat="45.95105" lon="6.55564">
        <ele>2453.7</ele>
        <time>2026-02-02T09:51:23Z</time>
      </trkpt>
      <trkpt lat="45.95105" lon="6.55564">
        <ele>2453.7</ele>
        <time>2026-02-02T09:51:24Z</time>
      </trkpt>
      <trkpt lat="45.95105" lon="6.55564">
        <ele>2453.7</ele>
        <time>2026-02-02T09:51:25Z</time>
      </trkpt>
      <trkpt lat="45.95105" lon="6.55564">
        <ele>2453.7</ele>
        <time>2026-02-02T09:51:26Z</time>
      </trkpt>
      <trkpt lat="45.95104" lon="6.55564">
        <ele>2453.7</ele>
        <time>2026-02-02T09:51:27Z</time>
      </trkpt>
      <trkpt lat="45.95104" lon="6.55564">
        <ele>2453.7</ele>
        <time>2026-02-02T09:51:28Z</time>
      </trkpt>
      <trkpt lat="45.95104" lon="6.55564">
        <ele>2453.7</ele>
        <time>2026-02-02T09:51:29Z</time>
      </trkpt>
      <trkpt lat="45.95104" lon="6.55564">
        <ele>2453.7</ele>
        <time>2026-02-02T09:51:30Z</time>
      </trkpt>
      <trkpt lat="45.95104" lon="6.55564">
        <ele>2453.7</ele>
        <time>2026-02-02T09:51:31Z</time>
      </trkpt>
      <trkpt lat="45.95104" lon="6.55564">
        <ele>2453.7</ele>
        <time>2026-02-02T09:51:32Z</time>
      </trkpt>
      <trkpt lat="45.95104" lon="6.55564">
        <ele>2453.7</ele>
        <time>2026-02-02T09:51:33Z</time>
      </trkpt>
      <trkpt lat="45.95104" lon="6.55564">
        <ele>2453.7</ele>
        <time>2026-02-02T09:51:34Z</time>
      </trkpt>
      <trkpt lat="45.95104" lon="6.55564">
        <ele>2453.7</ele>
        <time>2026-02-02T09:51:35Z</time>
      </trkpt>
      <trkpt lat="45.95104" lon="6.55564">
        <ele>2453.7</ele>
        <time>2026-02-02T09:51:36Z</time>
      </trkpt>
      <trkpt lat="45.95104" lon="6.55564">
        <ele>2453.7</ele>
        <time>2026-02-02T09:51:37Z</time>
      </trkpt>
      <trkpt lat="45.95104" lon="6.55564">
        <ele>2453.7</ele>
        <time>2026-02-02T09:51:38Z</time>
      </trkpt>
      <trkpt lat="45.95104" lon="6.55564">
        <ele>2453.7</ele>
        <time>2026-02-02T09:51:39Z</time>
      </trkpt>
      <trkpt lat="45.95104" lon="6.55564">
        <ele>2453.7</ele>
        <time>2026-02-02T09:51:40Z</time>
      </trkpt>
      <trkpt lat="45.95104" lon="6.55564">
        <ele>2453.7</ele>
        <time>2026-02-02T09:51:41Z</time>
      </trkpt>
      <trkpt lat="45.95104" lon="6.55564">
        <ele>2453.7</ele>
        <time>2026-02-02T09:51:42Z</time>
      </trkpt>
      <trkpt lat="45.95104" lon="6.55564">
        <ele>2453.7</ele>
        <time>2026-02-02T09:51:43Z</time>
      </trkpt>
      <trkpt lat="45.95105" lon="6.55564">
        <ele>2453.7</ele>
        <time>2026-02-02T09:51:44Z</time>
      </trkpt>
      <trkpt lat="45.95105" lon="6.55565">
        <ele>2453.7</ele>
        <time>2026-02-02T09:51:45Z</time>
      </trkpt>
      <trkpt lat="45.95106" lon="6.55564">
        <ele>2453.7</ele>
        <time>2026-02-02T09:51:46Z</time>
      </trkpt>
      <trkpt lat="45.95106" lon="6.55564">
        <ele>2455.3</ele>
        <time>2026-02-02T09:51:47Z</time>
      </trkpt>
      <trkpt lat="45.95107" lon="6.55564">
        <ele>2455.3</ele>
        <time>2026-02-02T09:51:48Z</time>
      </trkpt>
      <trkpt lat="45.95107" lon="6.55564">
        <ele>2455.3</ele>
        <time>2026-02-02T09:51:49Z</time>
      </trkpt>
      <trkpt lat="45.95107" lon="6.55564">
        <ele>2455.3</ele>
        <time>2026-02-02T09:51:50Z</time>
      </trkpt>
      <trkpt lat="45.95107" lon="6.55564">
        <ele>2455.3</ele>
        <time>2026-02-02T09:51:51Z</time>
      </trkpt>
      <trkpt lat="45.95108" lon="6.55564">
        <ele>2455.3</ele>
        <time>2026-02-02T09:51:52Z</time>
      </trkpt>
      <trkpt lat="45.95108" lon="6.55564">
        <ele>2455.3</ele>
        <time>2026-02-02T09:51:53Z</time>
      </trkpt>
      <trkpt lat="45.95107" lon="6.55564">
        <ele>2455.3</ele>
        <time>2026-02-02T09:51:54Z</time>
      </trkpt>
      <trkpt lat="45.95107" lon="6.55564">
        <ele>2455.3</ele>
        <time>2026-02-02T09:51:55Z</time>
      </trkpt>
      <trkpt lat="45.95107" lon="6.55564">
        <ele>2455.3</ele>
        <time>2026-02-02T09:51:56Z</time>
      </trkpt>
      <trkpt lat="45.95107" lon="6.55564">
        <ele>2455.3</ele>
        <time>2026-02-02T09:51:57Z</time>
      </trkpt>
      <trkpt lat="45.95107" lon="6.55564">
        <ele>2455.3</ele>
        <time>2026-02-02T09:51:58Z</time>
      </trkpt>
      <trkpt lat="45.95107" lon="6.55564">
        <ele>2455.3</ele>
        <time>2026-02-02T09:51:59Z</time>
      </trkpt>
      <trkpt lat="45.95108" lon="6.55564">
        <ele>2455.3</ele>
        <time>2026-02-02T09:52:00Z</time>
      </trkpt>
      <trkpt lat="45.95108" lon="6.55565">
        <ele>2455.3</ele>
        <time>2026-02-02T09:52:01Z</time>
      </trkpt>
      <trkpt lat="45.95108" lon="6.55565">
        <ele>2455.3</ele>
        <time>2026-02-02T09:52:02Z</time>
      </trkpt>
      <trkpt lat="45.95108" lon="6.55565">
        <ele>2455.3</ele>
        <time>2026-02-02T09:52:03Z</time>
      </trkpt>
      <trkpt lat="45.95108" lon="6.55565">
        <ele>2455.3</ele>
        <time>2026-02-02T09:52:04Z</time>
      </trkpt>
      <trkpt lat="45.95108" lon="6.55565">
        <ele>2455.3</ele>
        <time>2026-02-02T09:52:05Z</time>
      </trkpt>
      <trkpt lat="45.95108" lon="6.55565">
        <ele>2455.3</ele>
        <time>2026-02-02T09:52:06Z</time>
      </trkpt>
      <trkpt lat="45.95108" lon="6.55565">
        <ele>2455.3</ele>
        <time>2026-02-02T09:52:07Z</time>
      </trkpt>
      <trkpt lat="45.95108" lon="6.55566">
        <ele>2455.3</ele>
        <time>2026-02-02T09:52:08Z</time>
      </trkpt>
      <trkpt lat="45.95108" lon="6.55566">
        <ele>2455.3</ele>
        <time>2026-02-02T09:52:09Z</time>
      </trkpt>
      <trkpt lat="45.95108" lon="6.55566">
        <ele>2455.3</ele>
        <time>2026-02-02T09:52:10Z</time>
      </trkpt>
      <trkpt lat="45.95108" lon="6.55566">
        <ele>2455.3</ele>
        <time>2026-02-02T09:52:11Z</time>
      </trkpt>
      <trkpt lat="45.95108" lon="6.55566">
        <ele>2455.3</ele>
        <time>2026-02-02T09:52:12Z</time>
      </trkpt>
      <trkpt lat="45.95108" lon="6.55566">
        <ele>2455.3</ele>
        <time>2026-02-02T09:52:13Z</time>
      </trkpt>
      <trkpt lat="45.95108" lon="6.55566">
        <ele>2455.3</ele>
        <time>2026-02-02T09:52:14Z</time>
      </trkpt>
      <trkpt lat="45.95108" lon="6.55566">
        <ele>2455.3</ele>
        <time>2026-02-02T09:52:15Z</time>
      </trkpt>
      <trkpt lat="45.95108" lon="6.55566">
        <ele>2455.3</ele>
        <time>2026-02-02T09:52:16Z</time>
      </trkpt>
      <trkpt lat="45.95108" lon="6.55567">
        <ele>2452.6</ele>
        <time>2026-02-02T09:52:17Z</time>
      </trkpt>
      <trkpt lat="45.95109" lon="6.55567">
        <ele>2452.6</ele>
        <time>2026-02-02T09:52:18Z</time>
      </trkpt>
      <trkpt lat="45.95109" lon="6.55567">
        <ele>2452.6</ele>
        <time>2026-02-02T09:52:19Z</time>
      </trkpt>
      <trkpt lat="45.95109" lon="6.55567">
        <ele>2454.2</ele>
        <time>2026-02-02T09:52:20Z</time>
      </trkpt>
      <trkpt lat="45.95109" lon="6.55567">
        <ele>2454.2</ele>
        <time>2026-02-02T09:52:21Z</time>
      </trkpt>
      <trkpt lat="45.9511" lon="6.55568">
        <ele>2454.2</ele>
        <time>2026-02-02T09:52:22Z</time>
      </trkpt>
      <trkpt lat="45.9511" lon="6.55568">
        <ele>2454.2</ele>
        <time>2026-02-02T09:52:23Z</time>
      </trkpt>
      <trkpt lat="45.9511" lon="6.55568">
        <ele>2454.2</ele>
        <time>2026-02-02T09:52:24Z</time>
      </trkpt>
      <trkpt lat="45.9511" lon="6.55568">
        <ele>2454.2</ele>
        <time>2026-02-02T09:52:25Z</time>
      </trkpt>
      <trkpt lat="45.9511" lon="6.55568">
        <ele>2454.2</ele>
        <time>2026-02-02T09:52:26Z</time>
      </trkpt>
      <trkpt lat="45.9511" lon="6.55568">
        <ele>2454.2</ele>
        <time>2026-02-02T09:52:27Z</time>
      </trkpt>
      <trkpt lat="45.95111" lon="6.55568">
        <ele>2454.2</ele>
        <time>2026-02-02T09:52:28Z</time>
      </trkpt>
      <trkpt lat="45.95111" lon="6.55569">
        <ele>2454.2</ele>
        <time>2026-02-02T09:52:29Z</time>
      </trkpt>
      <trkpt lat="45.95111" lon="6.55569">
        <ele>2454.2</ele>
        <time>2026-02-02T09:52:30Z</time>
      </trkpt>
      <trkpt lat="45.95111" lon="6.55568">
        <ele>2454.2</ele>
        <time>2026-02-02T09:52:31Z</time>
      </trkpt>
      <trkpt lat="45.95111" lon="6.55568">
        <ele>2454.2</ele>
        <time>2026-02-02T09:52:32Z</time>
      </trkpt>
      <trkpt lat="45.95112" lon="6.55568">
        <ele>2454.2</ele>
        <time>2026-02-02T09:52:33Z</time>
      </trkpt>
      <trkpt lat="45.95112" lon="6.55568">
        <ele>2454.2</ele>
        <time>2026-02-02T09:52:34Z</time>
      </trkpt>
      <trkpt lat="45.95112" lon="6.55568">
        <ele>2454.2</ele>
        <time>2026-02-02T09:52:35Z</time>
      </trkpt>
      <trkpt lat="45.95112" lon="6.55568">
        <ele>2455.9</ele>
        <time>2026-02-02T09:52:36Z</time>
      </trkpt>
      <trkpt lat="45.95112" lon="6.55568">
        <ele>2455.9</ele>
        <time>2026-02-02T09:52:37Z</time>
      </trkpt>
      <trkpt lat="45.95112" lon="6.55568">
        <ele>2455.9</ele>
        <time>2026-02-02T09:52:38Z</time>
      </trkpt>
      <trkpt lat="45.95112" lon="6.55568">
        <ele>2455.9</ele>
        <time>2026-02-02T09:52:39Z</time>
      </trkpt>
      <trkpt lat="45.95112" lon="6.55568">
        <ele>2455.9</ele>
        <time>2026-02-02T09:52:40Z</time>
      </trkpt>
      <trkpt lat="45.95112" lon="6.55568">
        <ele>2455.9</ele>
        <time>2026-02-02T09:52:41Z</time>
      </trkpt>
      <trkpt lat="45.95112" lon="6.55568">
        <ele>2455.9</ele>
        <time>2026-02-02T09:52:42Z</time>
      </trkpt>
      <trkpt lat="45.95112" lon="6.55568">
        <ele>2455.9</ele>
        <time>2026-02-02T09:52:43Z</time>
      </trkpt>
      <trkpt lat="45.95112" lon="6.55568">
        <ele>2455.9</ele>
        <time>2026-02-02T09:52:44Z</time>
      </trkpt>
      <trkpt lat="45.95112" lon="6.55568">
        <ele>2455.9</ele>
        <time>2026-02-02T09:52:45Z</time>
      </trkpt>
      <trkpt lat="45.95113" lon="6.55568">
        <ele>2455.9</ele>
        <time>2026-02-02T09:52:46Z</time>
      </trkpt>
      <trkpt lat="45.95113" lon="6.55568">
        <ele>2455.9</ele>
        <time>2026-02-02T09:52:47Z</time>
      </trkpt>
      <trkpt lat="45.95112" lon="6.55567">
        <ele>2455.9</ele>
        <time>2026-02-02T09:52:48Z</time>
      </trkpt>
      <trkpt lat="45.95112" lon="6.55567">
        <ele>2455.9</ele>
        <time>2026-02-02T09:52:49Z</time>
      </trkpt>
      <trkpt lat="45.95113" lon="6.55568">
        <ele>2455.9</ele>
        <time>2026-02-02T09:52:50Z</time>
      </trkpt>
      <trkpt lat="45.95113" lon="6.55568">
        <ele>2455.9</ele>
        <time>2026-02-02T09:52:51Z</time>
      </trkpt>
      <trkpt lat="45.95113" lon="6.55568">
        <ele>2455.9</ele>
        <time>2026-02-02T09:52:52Z</time>
      </trkpt>
      <trkpt lat="45.95114" lon="6.55567">
        <ele>2455.9</ele>
        <time>2026-02-02T09:52:53Z</time>
      </trkpt>
      <trkpt lat="45.95114" lon="6.55567">
        <ele>2455.9</ele>
        <time>2026-02-02T09:52:54Z</time>
      </trkpt>
      <trkpt lat="45.95114" lon="6.55567">
        <ele>2455.9</ele>
        <time>2026-02-02T09:52:55Z</time>
      </trkpt>
      <trkpt lat="45.95114" lon="6.55566">
        <ele>2455.9</ele>
        <time>2026-02-02T09:52:56Z</time>
      </trkpt>
      <trkpt lat="45.95114" lon="6.55566">
        <ele>2455.9</ele>
        <time>2026-02-02T09:52:57Z</time>
      </trkpt>
      <trkpt lat="45.95114" lon="6.55566">
        <ele>2455.9</ele>
        <time>2026-02-02T09:52:58Z</time>
      </trkpt>
      <trkpt lat="45.95114" lon="6.55567">
        <ele>2455.9</ele>
        <time>2026-02-02T09:52:59Z</time>
      </trkpt>
      <trkpt lat="45.95114" lon="6.55567">
        <ele>2455.9</ele>
        <time>2026-02-02T09:53:00Z</time>
      </trkpt>
      <trkpt lat="45.95114" lon="6.55567">
        <ele>2455.9</ele>
        <time>2026-02-02T09:53:01Z</time>
      </trkpt>
      <trkpt lat="45.95114" lon="6.55567">
        <ele>2455.9</ele>
        <time>2026-02-02T09:53:02Z</time>
      </trkpt>
      <trkpt lat="45.95113" lon="6.55567">
        <ele>2455.9</ele>
        <time>2026-02-02T09:53:03Z</time>
      </trkpt>
      <trkpt lat="45.95113" lon="6.55567">
        <ele>2455.9</ele>
        <time>2026-02-02T09:53:04Z</time>
      </trkpt>
      <trkpt lat="45.95113" lon="6.55567">
        <ele>2455.9</ele>
        <time>2026-02-02T09:53:05Z</time>
      </trkpt>
      <trkpt lat="45.95113" lon="6.55567">
        <ele>2455.9</ele>
        <time>2026-02-02T09:53:06Z</time>
      </trkpt>
      <trkpt lat="45.95113" lon="6.55567">
        <ele>2455.9</ele>
        <time>2026-02-02T09:53:07Z</time>
      </trkpt>
      <trkpt lat="45.95112" lon="6.55567">
        <ele>2455.9</ele>
        <time>2026-02-02T09:53:08Z</time>
      </trkpt>
      <trkpt lat="45.95112" lon="6.55567">
        <ele>2455.9</ele>
        <time>2026-02-02T09:53:09Z</time>
      </trkpt>
      <trkpt lat="45.95112" lon="6.55567">
        <ele>2454.2</ele>
        <time>2026-02-02T09:53:10Z</time>
      </trkpt>
      <trkpt lat="45.95112" lon="6.55567">
        <ele>2454.2</ele>
        <time>2026-02-02T09:53:11Z</time>
      </trkpt>
      <trkpt lat="45.95112" lon="6.55567">
        <ele>2454.2</ele>
        <time>2026-02-02T09:53:12Z</time>
      </trkpt>
      <trkpt lat="45.95112" lon="6.55567">
        <ele>2454.2</ele>
        <time>2026-02-02T09:53:13Z</time>
      </trkpt>
      <trkpt lat="45.95111" lon="6.55567">
        <ele>2454.2</ele>
        <time>2026-02-02T09:53:14Z</time>
      </trkpt>
      <trkpt lat="45.95112" lon="6.55567">
        <ele>2454.2</ele>
        <time>2026-02-02T09:53:15Z</time>
      </trkpt>
      <trkpt lat="45.95112" lon="6.55567">
        <ele>2454.2</ele>
        <time>2026-02-02T09:53:16Z</time>
      </trkpt>
      <trkpt lat="45.95112" lon="6.55568">
        <ele>2454.2</ele>
        <time>2026-02-02T09:53:18Z</time>
      </trkpt>
      <trkpt lat="45.95112" lon="6.55567">
        <ele>2454.2</ele>
        <time>2026-02-02T09:53:19Z</time>
      </trkpt>
      <trkpt lat="45.95112" lon="6.55567">
        <ele>2454.2</ele>
        <time>2026-02-02T09:53:20Z</time>
      </trkpt>
      <trkpt lat="45.95112" lon="6.55567">
        <ele>2455.9</ele>
        <time>2026-02-02T09:53:21Z</time>
      </trkpt>
      <trkpt lat="45.95113" lon="6.55567">
        <ele>2455.9</ele>
        <time>2026-02-02T09:53:22Z</time>
      </trkpt>
      <trkpt lat="45.95113" lon="6.55567">
        <ele>2455.9</ele>
        <time>2026-02-02T09:53:23Z</time>
      </trkpt>
      <trkpt lat="45.95113" lon="6.55567">
        <ele>2455.9</ele>
        <time>2026-02-02T09:53:24Z</time>
      </trkpt>
      <trkpt lat="45.95113" lon="6.55568">
        <ele>2455.9</ele>
        <time>2026-02-02T09:53:25Z</time>
      </trkpt>
      <trkpt lat="45.95113" lon="6.55568">
        <ele>2455.9</ele>
        <time>2026-02-02T09:53:26Z</time>
      </trkpt>
      <trkpt lat="45.95114" lon="6.55568">
        <ele>2455.9</ele>
        <time>2026-02-02T09:53:27Z</time>
      </trkpt>
      <trkpt lat="45.95114" lon="6.55568">
        <ele>2455.9</ele>
        <time>2026-02-02T09:53:28Z</time>
      </trkpt>
      <trkpt lat="45.95114" lon="6.55568">
        <ele>2455.9</ele>
        <time>2026-02-02T09:53:29Z</time>
      </trkpt>
      <trkpt lat="45.95114" lon="6.55568">
        <ele>2455.9</ele>
        <time>2026-02-02T09:53:30Z</time>
      </trkpt>
      <trkpt lat="45.95115" lon="6.55569">
        <ele>2455.9</ele>
        <time>2026-02-02T09:53:31Z</time>
      </trkpt>
      <trkpt lat="45.95115" lon="6.55569">
        <ele>2458.3</ele>
        <time>2026-02-02T09:53:32Z</time>
      </trkpt>
      <trkpt lat="45.95115" lon="6.5557">
        <ele>2458.3</ele>
        <time>2026-02-02T09:53:33Z</time>
      </trkpt>
      <trkpt lat="45.95116" lon="6.55571">
        <ele>2455.8</ele>
        <time>2026-02-02T09:53:34Z</time>
      </trkpt>
      <trkpt lat="45.95116" lon="6.55571">
        <ele>2455.8</ele>
        <time>2026-02-02T09:53:35Z</time>
      </trkpt>
      <trkpt lat="45.95116" lon="6.55572">
        <ele>2455.8</ele>
        <time>2026-02-02T09:53:36Z</time>
      </trkpt>
      <trkpt lat="45.95116" lon="6.55572">
        <ele>2455.8</ele>
        <time>2026-02-02T09:53:37Z</time>
      </trkpt>
      <trkpt lat="45.95116" lon="6.55572">
        <ele>2455.8</ele>
        <time>2026-02-02T09:53:38Z</time>
      </trkpt>
      <trkpt lat="45.95116" lon="6.55573">
        <ele>2455.8</ele>
        <time>2026-02-02T09:53:39Z</time>
      </trkpt>
      <trkpt lat="45.95116" lon="6.55573">
        <ele>2455.8</ele>
        <time>2026-02-02T09:53:40Z</time>
      </trkpt>
      <trkpt lat="45.95116" lon="6.55573">
        <ele>2455.8</ele>
        <time>2026-02-02T09:53:41Z</time>
      </trkpt>
      <trkpt lat="45.95116" lon="6.55573">
        <ele>2455.8</ele>
        <time>2026-02-02T09:53:42Z</time>
      </trkpt>
      <trkpt lat="45.95116" lon="6.55573">
        <ele>2455.8</ele>
        <time>2026-02-02T09:53:43Z</time>
      </trkpt>
      <trkpt lat="45.95117" lon="6.55574">
        <ele>2455.8</ele>
        <time>2026-02-02T09:53:44Z</time>
      </trkpt>
      <trkpt lat="45.95117" lon="6.55574">
        <ele>2455.8</ele>
        <time>2026-02-02T09:53:45Z</time>
      </trkpt>
      <trkpt lat="45.95117" lon="6.55574">
        <ele>2455.8</ele>
        <time>2026-02-02T09:53:46Z</time>
      </trkpt>
      <trkpt lat="45.95117" lon="6.55574">
        <ele>2455.8</ele>
        <time>2026-02-02T09:53:47Z</time>
      </trkpt>
      <trkpt lat="45.95118" lon="6.55574">
        <ele>2455.8</ele>
        <time>2026-02-02T09:53:48Z</time>
      </trkpt>
      <trkpt lat="45.95118" lon="6.55574">
        <ele>2455.8</ele>
        <time>2026-02-02T09:53:49Z</time>
      </trkpt>
      <trkpt lat="45.95118" lon="6.55574">
        <ele>2455.8</ele>
        <time>2026-02-02T09:53:50Z</time>
      </trkpt>
      <trkpt lat="45.95118" lon="6.55573">
        <ele>2455.8</ele>
        <time>2026-02-02T09:53:51Z</time>
      </trkpt>
      <trkpt lat="45.95118" lon="6.55573">
        <ele>2457.1</ele>
        <time>2026-02-02T09:53:52Z</time>
      </trkpt>
      <trkpt lat="45.95118" lon="6.55572">
        <ele>2457.1</ele>
        <time>2026-02-02T09:53:53Z</time>
      </trkpt>
      <trkpt lat="45.95118" lon="6.55572">
        <ele>2457.1</ele>
        <time>2026-02-02T09:53:54Z</time>
      </trkpt>
      <trkpt lat="45.95118" lon="6.55572">
        <ele>2457.1</ele>
        <time>2026-02-02T09:53:55Z</time>
      </trkpt>
      <trkpt lat="45.95118" lon="6.55572">
        <ele>2457.1</ele>
        <time>2026-02-02T09:53:56Z</time>
      </trkpt>
      <trkpt lat="45.95118" lon="6.55572">
        <ele>2457.1</ele>
        <time>2026-02-02T09:53:57Z</time>
      </trkpt>
      <trkpt lat="45.95118" lon="6.55572">
        <ele>2457.1</ele>
        <time>2026-02-02T09:53:58Z</time>
      </trkpt>
      <trkpt lat="45.95118" lon="6.55572">
        <ele>2457.1</ele>
        <time>2026-02-02T09:53:59Z</time>
      </trkpt>
      <trkpt lat="45.95118" lon="6.55572">
        <ele>2457.1</ele>
        <time>2026-02-02T09:54:00Z</time>
      </trkpt>
      <trkpt lat="45.95118" lon="6.55572">
        <ele>2457.1</ele>
        <time>2026-02-02T09:54:01Z</time>
      </trkpt>
      <trkpt lat="45.95118" lon="6.55572">
        <ele>2457.1</ele>
        <time>2026-02-02T09:54:02Z</time>
      </trkpt>
      <trkpt lat="45.95118" lon="6.55572">
        <ele>2455.8</ele>
        <time>2026-02-02T09:54:03Z</time>
      </trkpt>
      <trkpt lat="45.95118" lon="6.55572">
        <ele>2455.8</ele>
        <time>2026-02-02T09:54:04Z</time>
      </trkpt>
      <trkpt lat="45.95118" lon="6.55572">
        <ele>2457.1</ele>
        <time>2026-02-02T09:54:05Z</time>
      </trkpt>
      <trkpt lat="45.95118" lon="6.55572">
        <ele>2457.1</ele>
        <time>2026-02-02T09:54:06Z</time>
      </trkpt>
      <trkpt lat="45.95118" lon="6.55573">
        <ele>2457.1</ele>
        <time>2026-02-02T09:54:07Z</time>
      </trkpt>
      <trkpt lat="45.95118" lon="6.55573">
        <ele>2457.1</ele>
        <time>2026-02-02T09:54:08Z</time>
      </trkpt>
      <trkpt lat="45.95118" lon="6.55573">
        <ele>2457.1</ele>
        <time>2026-02-02T09:54:09Z</time>
      </trkpt>
      <trkpt lat="45.95118" lon="6.55573">
        <ele>2457.1</ele>
        <time>2026-02-02T09:54:10Z</time>
      </trkpt>
      <trkpt lat="45.95118" lon="6.55573">
        <ele>2457.1</ele>
        <time>2026-02-02T09:54:11Z</time>
      </trkpt>
      <trkpt lat="45.95119" lon="6.55573">
        <ele>2457.1</ele>
        <time>2026-02-02T09:54:12Z</time>
      </trkpt>
      <trkpt lat="45.95119" lon="6.55573">
        <ele>2457.1</ele>
        <time>2026-02-02T09:54:13Z</time>
      </trkpt>
      <trkpt lat="45.95119" lon="6.55573">
        <ele>2457.1</ele>
        <time>2026-02-02T09:54:14Z</time>
      </trkpt>
      <trkpt lat="45.95119" lon="6.55573">
        <ele>2457.1</ele>
        <time>2026-02-02T09:54:15Z</time>
      </trkpt>
      <trkpt lat="45.95119" lon="6.55573">
        <ele>2457.1</ele>
        <time>2026-02-02T09:54:16Z</time>
      </trkpt>
      <trkpt lat="45.95119" lon="6.55573">
        <ele>2457.1</ele>
        <time>2026-02-02T09:54:17Z</time>
      </trkpt>
      <trkpt lat="45.95119" lon="6.55573">
        <ele>2457.1</ele>
        <time>2026-02-02T09:54:18Z</time>
      </trkpt>
      <trkpt lat="45.95119" lon="6.55573">
        <ele>2457.1</ele>
        <time>2026-02-02T09:54:19Z</time>
      </trkpt>
      <trkpt lat="45.95119" lon="6.55573">
        <ele>2457.1</ele>
        <time>2026-02-02T09:54:20Z</time>
      </trkpt>
      <trkpt lat="45.95119" lon="6.55573">
        <ele>2457.1</ele>
        <time>2026-02-02T09:54:21Z</time>
      </trkpt>
      <trkpt lat="45.95119" lon="6.55573">
        <ele>2457.1</ele>
        <time>2026-02-02T09:54:22Z</time>
      </trkpt>
      <trkpt lat="45.95119" lon="6.55573">
        <ele>2457.1</ele>
        <time>2026-02-02T09:54:23Z</time>
      </trkpt>
      <trkpt lat="45.95119" lon="6.55572">
        <ele>2457.1</ele>
        <time>2026-02-02T09:54:24Z</time>
      </trkpt>
      <trkpt lat="45.95119" lon="6.55573">
        <ele>2457.1</ele>
        <time>2026-02-02T09:54:25Z</time>
      </trkpt>
      <trkpt lat="45.95119" lon="6.55573">
        <ele>2457.1</ele>
        <time>2026-02-02T09:54:26Z</time>
      </trkpt>
      <trkpt lat="45.95119" lon="6.55573">
        <ele>2457.1</ele>
        <time>2026-02-02T09:54:27Z</time>
      </trkpt>
      <trkpt lat="45.95119" lon="6.55573">
        <ele>2457.1</ele>
        <time>2026-02-02T09:54:28Z</time>
      </trkpt>
      <trkpt lat="45.95119" lon="6.55572">
        <ele>2457.1</ele>
        <time>2026-02-02T09:54:29Z</time>
      </trkpt>
      <trkpt lat="45.95119" lon="6.55572">
        <ele>2457.1</ele>
        <time>2026-02-02T09:54:30Z</time>
      </trkpt>
      <trkpt lat="45.95119" lon="6.55572">
        <ele>2457.1</ele>
        <time>2026-02-02T09:54:31Z</time>
      </trkpt>
      <trkpt lat="45.95119" lon="6.55572">
        <ele>2457.1</ele>
        <time>2026-02-02T09:54:32Z</time>
      </trkpt>
      <trkpt lat="45.95119" lon="6.55573">
        <ele>2457.1</ele>
        <time>2026-02-02T09:54:33Z</time>
      </trkpt>
      <trkpt lat="45.95119" lon="6.55573">
        <ele>2457.1</ele>
        <time>2026-02-02T09:54:34Z</time>
      </trkpt>
      <trkpt lat="45.95119" lon="6.55573">
        <ele>2457.1</ele>
        <time>2026-02-02T09:54:35Z</time>
      </trkpt>
      <trkpt lat="45.95119" lon="6.55573">
        <ele>2457.1</ele>
        <time>2026-02-02T09:54:36Z</time>
      </trkpt>
      <trkpt lat="45.9512" lon="6.55573">
        <ele>2457.1</ele>
        <time>2026-02-02T09:54:37Z</time>
      </trkpt>
      <trkpt lat="45.9512" lon="6.55573">
        <ele>2457.1</ele>
        <time>2026-02-02T09:54:38Z</time>
      </trkpt>
      <trkpt lat="45.9512" lon="6.55573">
        <ele>2457.1</ele>
        <time>2026-02-02T09:54:39Z</time>
      </trkpt>
      <trkpt lat="45.9512" lon="6.55573">
        <ele>2457.1</ele>
        <time>2026-02-02T09:54:40Z</time>
      </trkpt>
      <trkpt lat="45.9512" lon="6.55574">
        <ele>2457.1</ele>
        <time>2026-02-02T09:54:41Z</time>
      </trkpt>
      <trkpt lat="45.9512" lon="6.55574">
        <ele>2457.1</ele>
        <time>2026-02-02T09:54:42Z</time>
      </trkpt>
      <trkpt lat="45.9512" lon="6.55574">
        <ele>2457.1</ele>
        <time>2026-02-02T09:54:43Z</time>
      </trkpt>
      <trkpt lat="45.9512" lon="6.55574">
        <ele>2457.1</ele>
        <time>2026-02-02T09:54:44Z</time>
      </trkpt>
      <trkpt lat="45.9512" lon="6.55574">
        <ele>2457.1</ele>
        <time>2026-02-02T09:54:45Z</time>
      </trkpt>
      <trkpt lat="45.9512" lon="6.55574">
        <ele>2457.1</ele>
        <time>2026-02-02T09:54:46Z</time>
      </trkpt>
      <trkpt lat="45.95121" lon="6.55574">
        <ele>2457.1</ele>
        <time>2026-02-02T09:54:47Z</time>
      </trkpt>
      <trkpt lat="45.95121" lon="6.55574">
        <ele>2457.1</ele>
        <time>2026-02-02T09:54:48Z</time>
      </trkpt>
      <trkpt lat="45.95121" lon="6.55575">
        <ele>2457.1</ele>
        <time>2026-02-02T09:54:49Z</time>
      </trkpt>
      <trkpt lat="45.95121" lon="6.55575">
        <ele>2457.1</ele>
        <time>2026-02-02T09:54:50Z</time>
      </trkpt>
      <trkpt lat="45.95121" lon="6.55575">
        <ele>2457.1</ele>
        <time>2026-02-02T09:54:51Z</time>
      </trkpt>
      <trkpt lat="45.95121" lon="6.55575">
        <ele>2458.3</ele>
        <time>2026-02-02T09:54:52Z</time>
      </trkpt>
      <trkpt lat="45.95121" lon="6.55575">
        <ele>2457.1</ele>
        <time>2026-02-02T09:54:53Z</time>
      </trkpt>
      <trkpt lat="45.95121" lon="6.55575">
        <ele>2457.1</ele>
        <time>2026-02-02T09:54:54Z</time>
      </trkpt>
      <trkpt lat="45.95121" lon="6.55575">
        <ele>2457.1</ele>
        <time>2026-02-02T09:54:55Z</time>
      </trkpt>
      <trkpt lat="45.95121" lon="6.55575">
        <ele>2458.3</ele>
        <time>2026-02-02T09:54:56Z</time>
      </trkpt>
      <trkpt lat="45.95121" lon="6.55575">
        <ele>2457.1</ele>
        <time>2026-02-02T09:54:57Z</time>
      </trkpt>
      <trkpt lat="45.95121" lon="6.55575">
        <ele>2455.9</ele>
        <time>2026-02-02T09:54:58Z</time>
      </trkpt>
      <trkpt lat="45.95121" lon="6.55575">
        <ele>2455.9</ele>
        <time>2026-02-02T09:54:59Z</time>
      </trkpt>
      <trkpt lat="45.95121" lon="6.55575">
        <ele>2455.9</ele>
        <time>2026-02-02T09:55:00Z</time>
      </trkpt>
      <trkpt lat="45.95121" lon="6.55575">
        <ele>2455.9</ele>
        <time>2026-02-02T09:55:01Z</time>
      </trkpt>
      <trkpt lat="45.95121" lon="6.55575">
        <ele>2455.9</ele>
        <time>2026-02-02T09:55:02Z</time>
      </trkpt>
      <trkpt lat="45.95121" lon="6.55575">
        <ele>2455.9</ele>
        <time>2026-02-02T09:55:03Z</time>
      </trkpt>
      <trkpt lat="45.95121" lon="6.55575">
        <ele>2455.9</ele>
        <time>2026-02-02T09:55:04Z</time>
      </trkpt>
      <trkpt lat="45.95121" lon="6.55575">
        <ele>2455.9</ele>
        <time>2026-02-02T09:55:05Z</time>
      </trkpt>
      <trkpt lat="45.95121" lon="6.55576">
        <ele>2455.9</ele>
        <time>2026-02-02T09:55:06Z</time>
      </trkpt>
      <trkpt lat="45.95122" lon="6.55577">
        <ele>2455.9</ele>
        <time>2026-02-02T09:55:07Z</time>
      </trkpt>
      <trkpt lat="45.95122" lon="6.55577">
        <ele>2455.9</ele>
        <time>2026-02-02T09:55:08Z</time>
      </trkpt>
      <trkpt lat="45.95122" lon="6.55577">
        <ele>2455.9</ele>
        <time>2026-02-02T09:55:09Z</time>
      </trkpt>
      <trkpt lat="45.95122" lon="6.55577">
        <ele>2455.9</ele>
        <time>2026-02-02T09:55:10Z</time>
      </trkpt>
      <trkpt lat="45.95122" lon="6.55577">
        <ele>2455.9</ele>
        <time>2026-02-02T09:55:11Z</time>
      </trkpt>
      <trkpt lat="45.95122" lon="6.55577">
        <ele>2455.9</ele>
        <time>2026-02-02T09:55:12Z</time>
      </trkpt>
      <trkpt lat="45.95122" lon="6.55577">
        <ele>2455.9</ele>
        <time>2026-02-02T09:55:13Z</time>
      </trkpt>
      <trkpt lat="45.95123" lon="6.55577">
        <ele>2455.9</ele>
        <time>2026-02-02T09:55:14Z</time>
      </trkpt>
      <trkpt lat="45.95123" lon="6.55577">
        <ele>2455.9</ele>
        <time>2026-02-02T09:55:15Z</time>
      </trkpt>
      <trkpt lat="45.95123" lon="6.55577">
        <ele>2455.9</ele>
        <time>2026-02-02T09:55:16Z</time>
      </trkpt>
      <trkpt lat="45.95124" lon="6.55577">
        <ele>2455.9</ele>
        <time>2026-02-02T09:55:17Z</time>
      </trkpt>
      <trkpt lat="45.95124" lon="6.55577">
        <ele>2455.9</ele>
        <time>2026-02-02T09:55:18Z</time>
      </trkpt>
      <trkpt lat="45.95124" lon="6.55577">
        <ele>2457</ele>
        <time>2026-02-02T09:55:19Z</time>
      </trkpt>
      <trkpt lat="45.95124" lon="6.55576">
        <ele>2457</ele>
        <time>2026-02-02T09:55:20Z</time>
      </trkpt>
      <trkpt lat="45.95125" lon="6.55576">
        <ele>2457</ele>
        <time>2026-02-02T09:55:21Z</time>
      </trkpt>
      <trkpt lat="45.95125" lon="6.55576">
        <ele>2457</ele>
        <time>2026-02-02T09:55:22Z</time>
      </trkpt>
      <trkpt lat="45.95125" lon="6.55576">
        <ele>2457</ele>
        <time>2026-02-02T09:55:23Z</time>
      </trkpt>
      <trkpt lat="45.95125" lon="6.55576">
        <ele>2457</ele>
        <time>2026-02-02T09:55:24Z</time>
      </trkpt>
      <trkpt lat="45.95125" lon="6.55576">
        <ele>2457</ele>
        <time>2026-02-02T09:55:25Z</time>
      </trkpt>
      <trkpt lat="45.95125" lon="6.55576">
        <ele>2457</ele>
        <time>2026-02-02T09:55:26Z</time>
      </trkpt>
      <trkpt lat="45.95125" lon="6.55576">
        <ele>2457</ele>
        <time>2026-02-02T09:55:27Z</time>
      </trkpt>
      <trkpt lat="45.95125" lon="6.55576">
        <ele>2457</ele>
        <time>2026-02-02T09:55:28Z</time>
      </trkpt>
      <trkpt lat="45.95125" lon="6.55576">
        <ele>2457</ele>
        <time>2026-02-02T09:55:29Z</time>
      </trkpt>
      <trkpt lat="45.95125" lon="6.55576">
        <ele>2457</ele>
        <time>2026-02-02T09:55:30Z</time>
      </trkpt>
      <trkpt lat="45.95125" lon="6.55576">
        <ele>2457</ele>
        <time>2026-02-02T09:55:31Z</time>
      </trkpt>
      <trkpt lat="45.95125" lon="6.55576">
        <ele>2457</ele>
        <time>2026-02-02T09:55:32Z</time>
      </trkpt>
      <trkpt lat="45.95125" lon="6.55576">
        <ele>2457</ele>
        <time>2026-02-02T09:55:33Z</time>
      </trkpt>
      <trkpt lat="45.95125" lon="6.55576">
        <ele>2457</ele>
        <time>2026-02-02T09:55:34Z</time>
      </trkpt>
      <trkpt lat="45.95125" lon="6.55576">
        <ele>2457</ele>
        <time>2026-02-02T09:55:35Z</time>
      </trkpt>
      <trkpt lat="45.95126" lon="6.55576">
        <ele>2457</ele>
        <time>2026-02-02T09:55:36Z</time>
      </trkpt>
      <trkpt lat="45.95126" lon="6.55576">
        <ele>2457</ele>
        <time>2026-02-02T09:55:37Z</time>
      </trkpt>
      <trkpt lat="45.95126" lon="6.55576">
        <ele>2457</ele>
        <time>2026-02-02T09:55:38Z</time>
      </trkpt>
      <trkpt lat="45.95126" lon="6.55576">
        <ele>2457</ele>
        <time>2026-02-02T09:55:39Z</time>
      </trkpt>
      <trkpt lat="45.95126" lon="6.55576">
        <ele>2457</ele>
        <time>2026-02-02T09:55:40Z</time>
      </trkpt>
      <trkpt lat="45.95126" lon="6.55577">
        <ele>2457</ele>
        <time>2026-02-02T09:55:41Z</time>
      </trkpt>
      <trkpt lat="45.95126" lon="6.55576">
        <ele>2457</ele>
        <time>2026-02-02T09:55:42Z</time>
      </trkpt>
      <trkpt lat="45.95126" lon="6.55576">
        <ele>2457</ele>
        <time>2026-02-02T09:55:44Z</time>
      </trkpt>
      <trkpt lat="45.95126" lon="6.55576">
        <ele>2457</ele>
        <time>2026-02-02T09:55:45Z</time>
      </trkpt>
      <trkpt lat="45.95126" lon="6.55577">
        <ele>2457</ele>
        <time>2026-02-02T09:55:46Z</time>
      </trkpt>
      <trkpt lat="45.95126" lon="6.55577">
        <ele>2457</ele>
        <time>2026-02-02T09:55:47Z</time>
      </trkpt>
      <trkpt lat="45.95126" lon="6.55577">
        <ele>2457</ele>
        <time>2026-02-02T09:55:48Z</time>
      </trkpt>
      <trkpt lat="45.95126" lon="6.55577">
        <ele>2457</ele>
        <time>2026-02-02T09:55:49Z</time>
      </trkpt>
      <trkpt lat="45.95126" lon="6.55577">
        <ele>2457</ele>
        <time>2026-02-02T09:55:50Z</time>
      </trkpt>
      <trkpt lat="45.95126" lon="6.55577">
        <ele>2457</ele>
        <time>2026-02-02T09:55:51Z</time>
      </trkpt>
      <trkpt lat="45.95126" lon="6.55577">
        <ele>2457</ele>
        <time>2026-02-02T09:55:52Z</time>
      </trkpt>
      <trkpt lat="45.95126" lon="6.55577">
        <ele>2457</ele>
        <time>2026-02-02T09:55:53Z</time>
      </trkpt>
      <trkpt lat="45.95126" lon="6.55577">
        <ele>2457</ele>
        <time>2026-02-02T09:55:54Z</time>
      </trkpt>
      <trkpt lat="45.95126" lon="6.55577">
        <ele>2457</ele>
        <time>2026-02-02T09:55:55Z</time>
      </trkpt>
      <trkpt lat="45.95126" lon="6.55577">
        <ele>2457</ele>
        <time>2026-02-02T09:55:56Z</time>
      </trkpt>
      <trkpt lat="45.95126" lon="6.55577">
        <ele>2457</ele>
        <time>2026-02-02T09:55:57Z</time>
      </trkpt>
      <trkpt lat="45.95126" lon="6.55577">
        <ele>2457</ele>
        <time>2026-02-02T09:55:58Z</time>
      </trkpt>
      <trkpt lat="45.95126" lon="6.55577">
        <ele>2457</ele>
        <time>2026-02-02T09:55:59Z</time>
      </trkpt>
      <trkpt lat="45.95126" lon="6.55577">
        <ele>2457</ele>
        <time>2026-02-02T09:56:00Z</time>
      </trkpt>
      <trkpt lat="45.95126" lon="6.55577">
        <ele>2457</ele>
        <time>2026-02-02T09:56:01Z</time>
      </trkpt>
      <trkpt lat="45.95126" lon="6.55577">
        <ele>2457</ele>
        <time>2026-02-02T09:56:02Z</time>
      </trkpt>
      <trkpt lat="45.95126" lon="6.55577">
        <ele>2457</ele>
        <time>2026-02-02T09:56:03Z</time>
      </trkpt>
      <trkpt lat="45.95126" lon="6.55577">
        <ele>2457</ele>
        <time>2026-02-02T09:56:04Z</time>
      </trkpt>
      <trkpt lat="45.95126" lon="6.55577">
        <ele>2457</ele>
        <time>2026-02-02T09:56:05Z</time>
      </trkpt>
      <trkpt lat="45.95126" lon="6.55577">
        <ele>2457</ele>
        <time>2026-02-02T09:56:06Z</time>
      </trkpt>
      <trkpt lat="45.95126" lon="6.55577">
        <ele>2457</ele>
        <time>2026-02-02T09:56:07Z</time>
      </trkpt>
      <trkpt lat="45.95126" lon="6.55577">
        <ele>2457</ele>
        <time>2026-02-02T09:56:08Z</time>
      </trkpt>
      <trkpt lat="45.95126" lon="6.55577">
        <ele>2457</ele>
        <time>2026-02-02T09:56:09Z</time>
      </trkpt>
      <trkpt lat="45.95126" lon="6.55577">
        <ele>2457</ele>
        <time>2026-02-02T09:56:10Z</time>
      </trkpt>
      <trkpt lat="45.95126" lon="6.55577">
        <ele>2457</ele>
        <time>2026-02-02T09:56:11Z</time>
      </trkpt>
      <trkpt lat="45.95126" lon="6.55577">
        <ele>2457</ele>
        <time>2026-02-02T09:56:12Z</time>
      </trkpt>
      <trkpt lat="45.95127" lon="6.55576">
        <ele>2457</ele>
        <time>2026-02-02T09:56:13Z</time>
      </trkpt>
      <trkpt lat="45.95127" lon="6.55575">
        <ele>2457</ele>
        <time>2026-02-02T09:56:14Z</time>
      </trkpt>
      <trkpt lat="45.95127" lon="6.55574">
        <ele>2460.4</ele>
        <time>2026-02-02T09:56:15Z</time>
      </trkpt>
      <trkpt lat="45.95128" lon="6.55574">
        <ele>2460.4</ele>
        <time>2026-02-02T09:56:16Z</time>
      </trkpt>
      <trkpt lat="45.95128" lon="6.55574">
        <ele>2460.4</ele>
        <time>2026-02-02T09:56:17Z</time>
      </trkpt>
      <trkpt lat="45.95128" lon="6.55574">
        <ele>2460.4</ele>
        <time>2026-02-02T09:56:18Z</time>
      </trkpt>
      <trkpt lat="45.95128" lon="6.55574">
        <ele>2460.4</ele>
        <time>2026-02-02T09:56:19Z</time>
      </trkpt>
      <trkpt lat="45.95127" lon="6.55574">
        <ele>2460.4</ele>
        <time>2026-02-02T09:56:20Z</time>
      </trkpt>
      <trkpt lat="45.95127" lon="6.55574">
        <ele>2460.4</ele>
        <time>2026-02-02T09:56:21Z</time>
      </trkpt>
      <trkpt lat="45.95127" lon="6.55574">
        <ele>2460.4</ele>
        <time>2026-02-02T09:56:22Z</time>
      </trkpt>
      <trkpt lat="45.95127" lon="6.55574">
        <ele>2459.4</ele>
        <time>2026-02-02T09:56:23Z</time>
      </trkpt>
      <trkpt lat="45.95127" lon="6.55574">
        <ele>2459.4</ele>
        <time>2026-02-02T09:56:24Z</time>
      </trkpt>
      <trkpt lat="45.95127" lon="6.55573">
        <ele>2459.4</ele>
        <time>2026-02-02T09:56:25Z</time>
      </trkpt>
      <trkpt lat="45.95127" lon="6.55573">
        <ele>2459.4</ele>
        <time>2026-02-02T09:56:26Z</time>
      </trkpt>
      <trkpt lat="45.95127" lon="6.55573">
        <ele>2459.4</ele>
        <time>2026-02-02T09:56:27Z</time>
      </trkpt>
      <trkpt lat="45.95127" lon="6.55573">
        <ele>2459.4</ele>
        <time>2026-02-02T09:56:28Z</time>
      </trkpt>
      <trkpt lat="45.95127" lon="6.55573">
        <ele>2459.4</ele>
        <time>2026-02-02T09:56:29Z</time>
      </trkpt>
      <trkpt lat="45.95127" lon="6.55573">
        <ele>2459.4</ele>
        <time>2026-02-02T09:56:30Z</time>
      </trkpt>
      <trkpt lat="45.95127" lon="6.55573">
        <ele>2459.4</ele>
        <time>2026-02-02T09:56:31Z</time>
      </trkpt>
      <trkpt lat="45.95127" lon="6.55573">
        <ele>2460.4</ele>
        <time>2026-02-02T09:56:32Z</time>
      </trkpt>
      <trkpt lat="45.95127" lon="6.55573">
        <ele>2460.4</ele>
        <time>2026-02-02T09:56:33Z</time>
      </trkpt>
      <trkpt lat="45.95127" lon="6.55573">
        <ele>2460.4</ele>
        <time>2026-02-02T09:56:34Z</time>
      </trkpt>
      <trkpt lat="45.95127" lon="6.55573">
        <ele>2460.4</ele>
        <time>2026-02-02T09:56:35Z</time>
      </trkpt>
      <trkpt lat="45.95127" lon="6.55573">
        <ele>2460.4</ele>
        <time>2026-02-02T09:56:36Z</time>
      </trkpt>
      <trkpt lat="45.95127" lon="6.55573">
        <ele>2460.4</ele>
        <time>2026-02-02T09:56:37Z</time>
      </trkpt>
      <trkpt lat="45.95127" lon="6.55573">
        <ele>2460.4</ele>
        <time>2026-02-02T09:56:38Z</time>
      </trkpt>
      <trkpt lat="45.95128" lon="6.55573">
        <ele>2460.4</ele>
        <time>2026-02-02T09:56:39Z</time>
      </trkpt>
      <trkpt lat="45.95128" lon="6.55574">
        <ele>2460.4</ele>
        <time>2026-02-02T09:56:40Z</time>
      </trkpt>
      <trkpt lat="45.95129" lon="6.55574">
        <ele>2460.4</ele>
        <time>2026-02-02T09:56:41Z</time>
      </trkpt>
      <trkpt lat="45.95129" lon="6.55574">
        <ele>2460.4</ele>
        <time>2026-02-02T09:56:42Z</time>
      </trkpt>
      <trkpt lat="45.9513" lon="6.55574">
        <ele>2460.4</ele>
        <time>2026-02-02T09:56:43Z</time>
      </trkpt>
      <trkpt lat="45.9513" lon="6.55574">
        <ele>2460.4</ele>
        <time>2026-02-02T09:56:44Z</time>
      </trkpt>
      <trkpt lat="45.9513" lon="6.55574">
        <ele>2460.4</ele>
        <time>2026-02-02T09:56:45Z</time>
      </trkpt>
      <trkpt lat="45.9513" lon="6.55574">
        <ele>2461.4</ele>
        <time>2026-02-02T09:56:46Z</time>
      </trkpt>
      <trkpt lat="45.9513" lon="6.55574">
        <ele>2461.4</ele>
        <time>2026-02-02T09:56:47Z</time>
      </trkpt>
      <trkpt lat="45.9513" lon="6.55574">
        <ele>2461.4</ele>
        <time>2026-02-02T09:56:48Z</time>
      </trkpt>
      <trkpt lat="45.9513" lon="6.55574">
        <ele>2461.4</ele>
        <time>2026-02-02T09:56:49Z</time>
      </trkpt>
      <trkpt lat="45.9513" lon="6.55574">
        <ele>2461.4</ele>
        <time>2026-02-02T09:56:50Z</time>
      </trkpt>
      <trkpt lat="45.9513" lon="6.55574">
        <ele>2461.4</ele>
        <time>2026-02-02T09:56:51Z</time>
      </trkpt>
      <trkpt lat="45.9513" lon="6.55574">
        <ele>2461.4</ele>
        <time>2026-02-02T09:56:52Z</time>
      </trkpt>
      <trkpt lat="45.9513" lon="6.55574">
        <ele>2461.4</ele>
        <time>2026-02-02T09:56:53Z</time>
      </trkpt>
      <trkpt lat="45.9513" lon="6.55574">
        <ele>2461.4</ele>
        <time>2026-02-02T09:56:54Z</time>
      </trkpt>
      <trkpt lat="45.9513" lon="6.55574">
        <ele>2461.4</ele>
        <time>2026-02-02T09:56:55Z</time>
      </trkpt>
      <trkpt lat="45.9513" lon="6.55574">
        <ele>2461.4</ele>
        <time>2026-02-02T09:56:56Z</time>
      </trkpt>
      <trkpt lat="45.9513" lon="6.55574">
        <ele>2461.4</ele>
        <time>2026-02-02T09:56:57Z</time>
      </trkpt>
      <trkpt lat="45.95131" lon="6.55574">
        <ele>2461.4</ele>
        <time>2026-02-02T09:56:58Z</time>
      </trkpt>
      <trkpt lat="45.95131" lon="6.55574">
        <ele>2461.4</ele>
        <time>2026-02-02T09:56:59Z</time>
      </trkpt>
      <trkpt lat="45.95131" lon="6.55574">
        <ele>2461.4</ele>
        <time>2026-02-02T09:57:00Z</time>
      </trkpt>
      <trkpt lat="45.95131" lon="6.55574">
        <ele>2461.4</ele>
        <time>2026-02-02T09:57:01Z</time>
      </trkpt>
      <trkpt lat="45.95131" lon="6.55574">
        <ele>2461.4</ele>
        <time>2026-02-02T09:57:02Z</time>
      </trkpt>
      <trkpt lat="45.9513" lon="6.55574">
        <ele>2461.4</ele>
        <time>2026-02-02T09:57:03Z</time>
      </trkpt>
      <trkpt lat="45.9513" lon="6.55574">
        <ele>2461.4</ele>
        <time>2026-02-02T09:57:04Z</time>
      </trkpt>
      <trkpt lat="45.9513" lon="6.55574">
        <ele>2461.4</ele>
        <time>2026-02-02T09:57:05Z</time>
      </trkpt>
      <trkpt lat="45.9513" lon="6.55574">
        <ele>2461.4</ele>
        <time>2026-02-02T09:57:06Z</time>
      </trkpt>
      <trkpt lat="45.9513" lon="6.55574">
        <ele>2461.4</ele>
        <time>2026-02-02T09:57:07Z</time>
      </trkpt>
      <trkpt lat="45.95129" lon="6.55575">
        <ele>2460.4</ele>
        <time>2026-02-02T09:57:08Z</time>
      </trkpt>
      <trkpt lat="45.95129" lon="6.55575">
        <ele>2460.4</ele>
        <time>2026-02-02T09:57:09Z</time>
      </trkpt>
      <trkpt lat="45.95129" lon="6.55574">
        <ele>2460.4</ele>
        <time>2026-02-02T09:57:10Z</time>
      </trkpt>
      <trkpt lat="45.95129" lon="6.55574">
        <ele>2460.4</ele>
        <time>2026-02-02T09:57:11Z</time>
      </trkpt>
      <trkpt lat="45.95129" lon="6.55574">
        <ele>2460.4</ele>
        <time>2026-02-02T09:57:12Z</time>
      </trkpt>
      <trkpt lat="45.95129" lon="6.55574">
        <ele>2460.4</ele>
        <time>2026-02-02T09:57:13Z</time>
      </trkpt>
      <trkpt lat="45.95129" lon="6.55574">
        <ele>2460.4</ele>
        <time>2026-02-02T09:57:14Z</time>
      </trkpt>
      <trkpt lat="45.95129" lon="6.55574">
        <ele>2460.4</ele>
        <time>2026-02-02T09:57:15Z</time>
      </trkpt>
      <trkpt lat="45.95129" lon="6.55574">
        <ele>2460.4</ele>
        <time>2026-02-02T09:57:16Z</time>
      </trkpt>
      <trkpt lat="45.95129" lon="6.55574">
        <ele>2460.4</ele>
        <time>2026-02-02T09:57:17Z</time>
      </trkpt>
      <trkpt lat="45.95129" lon="6.55574">
        <ele>2460.4</ele>
        <time>2026-02-02T09:57:18Z</time>
      </trkpt>
      <trkpt lat="45.95129" lon="6.55574">
        <ele>2460.4</ele>
        <time>2026-02-02T09:57:19Z</time>
      </trkpt>
      <trkpt lat="45.95129" lon="6.55574">
        <ele>2460.4</ele>
        <time>2026-02-02T09:57:20Z</time>
      </trkpt>
      <trkpt lat="45.95129" lon="6.55574">
        <ele>2460.4</ele>
        <time>2026-02-02T09:57:21Z</time>
      </trkpt>
      <trkpt lat="45.95129" lon="6.55574">
        <ele>2460.4</ele>
        <time>2026-02-02T09:57:22Z</time>
      </trkpt>
      <trkpt lat="45.95129" lon="6.55574">
        <ele>2460.4</ele>
        <time>2026-02-02T09:57:23Z</time>
      </trkpt>
      <trkpt lat="45.95129" lon="6.55574">
        <ele>2460.4</ele>
        <time>2026-02-02T09:57:24Z</time>
      </trkpt>
      <trkpt lat="45.95129" lon="6.55574">
        <ele>2460.4</ele>
        <time>2026-02-02T09:57:25Z</time>
      </trkpt>
      <trkpt lat="45.95129" lon="6.55575">
        <ele>2460.4</ele>
        <time>2026-02-02T09:57:26Z</time>
      </trkpt>
      <trkpt lat="45.95129" lon="6.55575">
        <ele>2460.4</ele>
        <time>2026-02-02T09:57:27Z</time>
      </trkpt>
      <trkpt lat="45.95128" lon="6.55575">
        <ele>2460.4</ele>
        <time>2026-02-02T09:57:28Z</time>
      </trkpt>
      <trkpt lat="45.95128" lon="6.55575">
        <ele>2460.4</ele>
        <time>2026-02-02T09:57:29Z</time>
      </trkpt>
      <trkpt lat="45.95129" lon="6.55575">
        <ele>2460.4</ele>
        <time>2026-02-02T09:57:30Z</time>
      </trkpt>
      <trkpt lat="45.95128" lon="6.55575">
        <ele>2460.4</ele>
        <time>2026-02-02T09:57:31Z</time>
      </trkpt>
      <trkpt lat="45.95128" lon="6.55575">
        <ele>2460.4</ele>
        <time>2026-02-02T09:57:32Z</time>
      </trkpt>
      <trkpt lat="45.95128" lon="6.55575">
        <ele>2460.4</ele>
        <time>2026-02-02T09:57:33Z</time>
      </trkpt>
      <trkpt lat="45.95129" lon="6.55575">
        <ele>2460.4</ele>
        <time>2026-02-02T09:57:34Z</time>
      </trkpt>
      <trkpt lat="45.95128" lon="6.55574">
        <ele>2460.4</ele>
        <time>2026-02-02T09:57:35Z</time>
      </trkpt>
      <trkpt lat="45.95129" lon="6.55574">
        <ele>2460.4</ele>
        <time>2026-02-02T09:57:36Z</time>
      </trkpt>
      <trkpt lat="45.95129" lon="6.55574">
        <ele>2460.4</ele>
        <time>2026-02-02T09:57:37Z</time>
      </trkpt>
      <trkpt lat="45.95129" lon="6.55574">
        <ele>2460.4</ele>
        <time>2026-02-02T09:57:38Z</time>
      </trkpt>
      <trkpt lat="45.95129" lon="6.55574">
        <ele>2460.4</ele>
        <time>2026-02-02T09:57:39Z</time>
      </trkpt>
      <trkpt lat="45.95129" lon="6.55575">
        <ele>2460.4</ele>
        <time>2026-02-02T09:57:40Z</time>
      </trkpt>
      <trkpt lat="45.95129" lon="6.55575">
        <ele>2460.4</ele>
        <time>2026-02-02T09:57:41Z</time>
      </trkpt>
      <trkpt lat="45.95129" lon="6.55575">
        <ele>2460.4</ele>
        <time>2026-02-02T09:57:42Z</time>
      </trkpt>
      <trkpt lat="45.95129" lon="6.55574">
        <ele>2460.4</ele>
        <time>2026-02-02T09:57:43Z</time>
      </trkpt>
      <trkpt lat="45.95129" lon="6.55574">
        <ele>2460.4</ele>
        <time>2026-02-02T09:57:44Z</time>
      </trkpt>
      <trkpt lat="45.95129" lon="6.55574">
        <ele>2460.4</ele>
        <time>2026-02-02T09:57:45Z</time>
      </trkpt>
      <trkpt lat="45.95129" lon="6.55574">
        <ele>2460.4</ele>
        <time>2026-02-02T09:57:46Z</time>
      </trkpt>
      <trkpt lat="45.95129" lon="6.55574">
        <ele>2460.4</ele>
        <time>2026-02-02T09:57:47Z</time>
      </trkpt>
      <trkpt lat="45.95129" lon="6.55574">
        <ele>2460.4</ele>
        <time>2026-02-02T09:57:48Z</time>
      </trkpt>
      <trkpt lat="45.9513" lon="6.55575">
        <ele>2460.4</ele>
        <time>2026-02-02T09:57:49Z</time>
      </trkpt>
      <trkpt lat="45.95129" lon="6.55575">
        <ele>2458</ele>
        <time>2026-02-02T09:57:50Z</time>
      </trkpt>
      <trkpt lat="45.95129" lon="6.55574">
        <ele>2460.4</ele>
        <time>2026-02-02T09:57:51Z</time>
      </trkpt>
      <trkpt lat="45.95129" lon="6.55574">
        <ele>2460.4</ele>
        <time>2026-02-02T09:57:52Z</time>
      </trkpt>
      <trkpt lat="45.95129" lon="6.55574">
        <ele>2460.4</ele>
        <time>2026-02-02T09:57:53Z</time>
      </trkpt>
      <trkpt lat="45.95129" lon="6.55574">
        <ele>2460.4</ele>
        <time>2026-02-02T09:57:54Z</time>
      </trkpt>
      <trkpt lat="45.95129" lon="6.55574">
        <ele>2460.4</ele>
        <time>2026-02-02T09:57:55Z</time>
      </trkpt>
      <trkpt lat="45.95129" lon="6.55574">
        <ele>2460.4</ele>
        <time>2026-02-02T09:57:56Z</time>
      </trkpt>
      <trkpt lat="45.95129" lon="6.55574">
        <ele>2460.4</ele>
        <time>2026-02-02T09:57:57Z</time>
      </trkpt>
      <trkpt lat="45.95129" lon="6.55574">
        <ele>2460.4</ele>
        <time>2026-02-02T09:57:58Z</time>
      </trkpt>
      <trkpt lat="45.95129" lon="6.55574">
        <ele>2460.4</ele>
        <time>2026-02-02T09:57:59Z</time>
      </trkpt>
      <trkpt lat="45.95129" lon="6.55574">
        <ele>2460.4</ele>
        <time>2026-02-02T09:58:00Z</time>
      </trkpt>
      <trkpt lat="45.95129" lon="6.55574">
        <ele>2460.4</ele>
        <time>2026-02-02T09:58:01Z</time>
      </trkpt>
      <trkpt lat="45.95129" lon="6.55574">
        <ele>2460.4</ele>
        <time>2026-02-02T09:58:02Z</time>
      </trkpt>
      <trkpt lat="45.95129" lon="6.55574">
        <ele>2460.4</ele>
        <time>2026-02-02T09:58:03Z</time>
      </trkpt>
      <trkpt lat="45.95129" lon="6.55574">
        <ele>2460.4</ele>
        <time>2026-02-02T09:58:04Z</time>
      </trkpt>
      <trkpt lat="45.95129" lon="6.55574">
        <ele>2460.4</ele>
        <time>2026-02-02T09:58:05Z</time>
      </trkpt>
      <trkpt lat="45.95129" lon="6.55574">
        <ele>2460.4</ele>
        <time>2026-02-02T09:58:06Z</time>
      </trkpt>
      <trkpt lat="45.95129" lon="6.55574">
        <ele>2460.4</ele>
        <time>2026-02-02T09:58:07Z</time>
      </trkpt>
      <trkpt lat="45.95129" lon="6.55574">
        <ele>2460.4</ele>
        <time>2026-02-02T09:58:08Z</time>
      </trkpt>
      <trkpt lat="45.95129" lon="6.55574">
        <ele>2460.4</ele>
        <time>2026-02-02T09:58:09Z</time>
      </trkpt>
      <trkpt lat="45.95129" lon="6.55575">
        <ele>2460.4</ele>
        <time>2026-02-02T09:58:10Z</time>
      </trkpt>
      <trkpt lat="45.95129" lon="6.55575">
        <ele>2460.4</ele>
        <time>2026-02-02T09:58:11Z</time>
      </trkpt>
      <trkpt lat="45.95129" lon="6.55575">
        <ele>2460.4</ele>
        <time>2026-02-02T09:58:12Z</time>
      </trkpt>
      <trkpt lat="45.95129" lon="6.55575">
        <ele>2460.4</ele>
        <time>2026-02-02T09:58:13Z</time>
      </trkpt>
      <trkpt lat="45.95129" lon="6.55575">
        <ele>2460.4</ele>
        <time>2026-02-02T09:58:14Z</time>
      </trkpt>
      <trkpt lat="45.95129" lon="6.55575">
        <ele>2460.4</ele>
        <time>2026-02-02T09:58:15Z</time>
      </trkpt>
      <trkpt lat="45.95129" lon="6.55575">
        <ele>2460.4</ele>
        <time>2026-02-02T09:58:16Z</time>
      </trkpt>
      <trkpt lat="45.95129" lon="6.55575">
        <ele>2458</ele>
        <time>2026-02-02T09:58:17Z</time>
      </trkpt>
      <trkpt lat="45.95129" lon="6.55575">
        <ele>2458</ele>
        <time>2026-02-02T09:58:18Z</time>
      </trkpt>
      <trkpt lat="45.95129" lon="6.55575">
        <ele>2458</ele>
        <time>2026-02-02T09:58:19Z</time>
      </trkpt>
      <trkpt lat="45.95129" lon="6.55575">
        <ele>2458</ele>
        <time>2026-02-02T09:58:20Z</time>
      </trkpt>
      <trkpt lat="45.95129" lon="6.55575">
        <ele>2458</ele>
        <time>2026-02-02T09:58:21Z</time>
      </trkpt>
      <trkpt lat="45.95129" lon="6.55575">
        <ele>2458</ele>
        <time>2026-02-02T09:58:22Z</time>
      </trkpt>
      <trkpt lat="45.95129" lon="6.55575">
        <ele>2458</ele>
        <time>2026-02-02T09:58:23Z</time>
      </trkpt>
      <trkpt lat="45.95129" lon="6.55575">
        <ele>2458</ele>
        <time>2026-02-02T09:58:24Z</time>
      </trkpt>
      <trkpt lat="45.95129" lon="6.55575">
        <ele>2458</ele>
        <time>2026-02-02T09:58:25Z</time>
      </trkpt>
      <trkpt lat="45.95129" lon="6.55575">
        <ele>2458</ele>
        <time>2026-02-02T09:58:26Z</time>
      </trkpt>
      <trkpt lat="45.95129" lon="6.55575">
        <ele>2458</ele>
        <time>2026-02-02T09:58:27Z</time>
      </trkpt>
      <trkpt lat="45.95129" lon="6.55575">
        <ele>2458</ele>
        <time>2026-02-02T09:58:28Z</time>
      </trkpt>
      <trkpt lat="45.95129" lon="6.55575">
        <ele>2458</ele>
        <time>2026-02-02T09:58:29Z</time>
      </trkpt>
      <trkpt lat="45.95129" lon="6.55575">
        <ele>2458</ele>
        <time>2026-02-02T09:58:30Z</time>
      </trkpt>
      <trkpt lat="45.95129" lon="6.55575">
        <ele>2458</ele>
        <time>2026-02-02T09:58:31Z</time>
      </trkpt>
      <trkpt lat="45.95129" lon="6.55575">
        <ele>2458</ele>
        <time>2026-02-02T09:58:32Z</time>
      </trkpt>
      <trkpt lat="45.95129" lon="6.55575">
        <ele>2458</ele>
        <time>2026-02-02T09:58:33Z</time>
      </trkpt>
      <trkpt lat="45.95129" lon="6.55576">
        <ele>2458</ele>
        <time>2026-02-02T09:58:34Z</time>
      </trkpt>
      <trkpt lat="45.9513" lon="6.55576">
        <ele>2458</ele>
        <time>2026-02-02T09:58:35Z</time>
      </trkpt>
      <trkpt lat="45.9513" lon="6.55576">
        <ele>2458</ele>
        <time>2026-02-02T09:58:36Z</time>
      </trkpt>
      <trkpt lat="45.9513" lon="6.55577">
        <ele>2459</ele>
        <time>2026-02-02T09:58:37Z</time>
      </trkpt>
      <trkpt lat="45.9513" lon="6.55576">
        <ele>2458</ele>
        <time>2026-02-02T09:58:38Z</time>
      </trkpt>
      <trkpt lat="45.95129" lon="6.55576">
        <ele>2458</ele>
        <time>2026-02-02T09:58:39Z</time>
      </trkpt>
      <trkpt lat="45.95129" lon="6.55576">
        <ele>2458</ele>
        <time>2026-02-02T09:58:40Z</time>
      </trkpt>
      <trkpt lat="45.95129" lon="6.55575">
        <ele>2458</ele>
        <time>2026-02-02T09:58:41Z</time>
      </trkpt>
      <trkpt lat="45.95129" lon="6.55575">
        <ele>2458</ele>
        <time>2026-02-02T09:58:42Z</time>
      </trkpt>
      <trkpt lat="45.95129" lon="6.55575">
        <ele>2458</ele>
        <time>2026-02-02T09:58:43Z</time>
      </trkpt>
      <trkpt lat="45.95128" lon="6.55575">
        <ele>2458</ele>
        <time>2026-02-02T09:58:44Z</time>
      </trkpt>
      <trkpt lat="45.95128" lon="6.55575">
        <ele>2458</ele>
        <time>2026-02-02T09:58:45Z</time>
      </trkpt>
      <trkpt lat="45.95129" lon="6.55575">
        <ele>2458</ele>
        <time>2026-02-02T09:58:46Z</time>
      </trkpt>
      <trkpt lat="45.95129" lon="6.55575">
        <ele>2460.4</ele>
        <time>2026-02-02T09:58:47Z</time>
      </trkpt>
      <trkpt lat="45.95129" lon="6.55575">
        <ele>2460.4</ele>
        <time>2026-02-02T09:58:48Z</time>
      </trkpt>
      <trkpt lat="45.95129" lon="6.55574">
        <ele>2460.4</ele>
        <time>2026-02-02T09:58:49Z</time>
      </trkpt>
      <trkpt lat="45.95129" lon="6.55574">
        <ele>2460.4</ele>
        <time>2026-02-02T09:58:50Z</time>
      </trkpt>
      <trkpt lat="45.95129" lon="6.55574">
        <ele>2460.4</ele>
        <time>2026-02-02T09:58:51Z</time>
      </trkpt>
      <trkpt lat="45.95129" lon="6.55574">
        <ele>2460.4</ele>
        <time>2026-02-02T09:58:52Z</time>
      </trkpt>
      <trkpt lat="45.95129" lon="6.55574">
        <ele>2460.4</ele>
        <time>2026-02-02T09:58:53Z</time>
      </trkpt>
      <trkpt lat="45.95129" lon="6.55574">
        <ele>2460.4</ele>
        <time>2026-02-02T09:58:54Z</time>
      </trkpt>
      <trkpt lat="45.95129" lon="6.55574">
        <ele>2460.4</ele>
        <time>2026-02-02T09:58:55Z</time>
      </trkpt>
      <trkpt lat="45.95129" lon="6.55574">
        <ele>2460.4</ele>
        <time>2026-02-02T09:58:56Z</time>
      </trkpt>
      <trkpt lat="45.95129" lon="6.55574">
        <ele>2460.4</ele>
        <time>2026-02-02T09:58:57Z</time>
      </trkpt>
      <trkpt lat="45.95129" lon="6.55574">
        <ele>2460.4</ele>
        <time>2026-02-02T09:58:58Z</time>
      </trkpt>
      <trkpt lat="45.95129" lon="6.55574">
        <ele>2460.4</ele>
        <time>2026-02-02T09:58:59Z</time>
      </trkpt>
      <trkpt lat="45.95129" lon="6.55574">
        <ele>2460.4</ele>
        <time>2026-02-02T09:59:00Z</time>
      </trkpt>
      <trkpt lat="45.95129" lon="6.55574">
        <ele>2460.4</ele>
        <time>2026-02-02T09:59:01Z</time>
      </trkpt>
      <trkpt lat="45.95129" lon="6.55574">
        <ele>2460.4</ele>
        <time>2026-02-02T09:59:02Z</time>
      </trkpt>
      <trkpt lat="45.95129" lon="6.55574">
        <ele>2460.4</ele>
        <time>2026-02-02T09:59:03Z</time>
      </trkpt>
      <trkpt lat="45.95129" lon="6.55574">
        <ele>2460.4</ele>
        <time>2026-02-02T09:59:04Z</time>
      </trkpt>
      <trkpt lat="45.95129" lon="6.55574">
        <ele>2460.4</ele>
        <time>2026-02-02T09:59:05Z</time>
      </trkpt>
      <trkpt lat="45.95129" lon="6.55574">
        <ele>2460.4</ele>
        <time>2026-02-02T09:59:06Z</time>
      </trkpt>
      <trkpt lat="45.9513" lon="6.55574">
        <ele>2460.4</ele>
        <time>2026-02-02T09:59:07Z</time>
      </trkpt>
      <trkpt lat="45.95129" lon="6.55574">
        <ele>2460.4</ele>
        <time>2026-02-02T09:59:08Z</time>
      </trkpt>
      <trkpt lat="45.9513" lon="6.55574">
        <ele>2460.4</ele>
        <time>2026-02-02T09:59:09Z</time>
      </trkpt>
      <trkpt lat="45.95129" lon="6.55574">
        <ele>2460.4</ele>
        <time>2026-02-02T09:59:10Z</time>
      </trkpt>
      <trkpt lat="45.95129" lon="6.55574">
        <ele>2460.4</ele>
        <time>2026-02-02T09:59:11Z</time>
      </trkpt>
      <trkpt lat="45.95129" lon="6.55573">
        <ele>2460.4</ele>
        <time>2026-02-02T09:59:12Z</time>
      </trkpt>
      <trkpt lat="45.9513" lon="6.55573">
        <ele>2460.4</ele>
        <time>2026-02-02T09:59:13Z</time>
      </trkpt>
      <trkpt lat="45.9513" lon="6.55573">
        <ele>2460.4</ele>
        <time>2026-02-02T09:59:14Z</time>
      </trkpt>
      <trkpt lat="45.9513" lon="6.55573">
        <ele>2460.4</ele>
        <time>2026-02-02T09:59:15Z</time>
      </trkpt>
      <trkpt lat="45.9513" lon="6.55574">
        <ele>2461.4</ele>
        <time>2026-02-02T09:59:16Z</time>
      </trkpt>
      <trkpt lat="45.9513" lon="6.55573">
        <ele>2461.4</ele>
        <time>2026-02-02T09:59:17Z</time>
      </trkpt>
      <trkpt lat="45.9513" lon="6.55573">
        <ele>2461.4</ele>
        <time>2026-02-02T09:59:18Z</time>
      </trkpt>
      <trkpt lat="45.9513" lon="6.55573">
        <ele>2461.4</ele>
        <time>2026-02-02T09:59:19Z</time>
      </trkpt>
      <trkpt lat="45.9513" lon="6.55573">
        <ele>2461.4</ele>
        <time>2026-02-02T09:59:20Z</time>
      </trkpt>
      <trkpt lat="45.9513" lon="6.55573">
        <ele>2461.4</ele>
        <time>2026-02-02T09:59:21Z</time>
      </trkpt>
      <trkpt lat="45.9513" lon="6.55573">
        <ele>2461.4</ele>
        <time>2026-02-02T09:59:22Z</time>
      </trkpt>
      <trkpt lat="45.9513" lon="6.55573">
        <ele>2461.4</ele>
        <time>2026-02-02T09:59:23Z</time>
      </trkpt>
      <trkpt lat="45.9513" lon="6.55573">
        <ele>2461.4</ele>
        <time>2026-02-02T09:59:24Z</time>
      </trkpt>
      <trkpt lat="45.9513" lon="6.55573">
        <ele>2461.4</ele>
        <time>2026-02-02T09:59:25Z</time>
      </trkpt>
      <trkpt lat="45.9513" lon="6.55573">
        <ele>2461.4</ele>
        <time>2026-02-02T09:59:26Z</time>
      </trkpt>
      <trkpt lat="45.9513" lon="6.55573">
        <ele>2461.4</ele>
        <time>2026-02-02T09:59:27Z</time>
      </trkpt>
      <trkpt lat="45.9513" lon="6.55573">
        <ele>2461.4</ele>
        <time>2026-02-02T09:59:28Z</time>
      </trkpt>
      <trkpt lat="45.9513" lon="6.55573">
        <ele>2461.4</ele>
        <time>2026-02-02T09:59:29Z</time>
      </trkpt>
      <trkpt lat="45.9513" lon="6.55573">
        <ele>2460.4</ele>
        <time>2026-02-02T09:59:30Z</time>
      </trkpt>
      <trkpt lat="45.9513" lon="6.55573">
        <ele>2460.4</ele>
        <time>2026-02-02T09:59:31Z</time>
      </trkpt>
      <trkpt lat="45.9513" lon="6.55573">
        <ele>2460.4</ele>
        <time>2026-02-02T09:59:32Z</time>
      </trkpt>
      <trkpt lat="45.9513" lon="6.55573">
        <ele>2460.4</ele>
        <time>2026-02-02T09:59:33Z</time>
      </trkpt>
      <trkpt lat="45.9513" lon="6.55573">
        <ele>2460.4</ele>
        <time>2026-02-02T09:59:34Z</time>
      </trkpt>
      <trkpt lat="45.9513" lon="6.55573">
        <ele>2460.4</ele>
        <time>2026-02-02T09:59:35Z</time>
      </trkpt>
      <trkpt lat="45.95129" lon="6.55573">
        <ele>2460.4</ele>
        <time>2026-02-02T09:59:36Z</time>
      </trkpt>
      <trkpt lat="45.95129" lon="6.55573">
        <ele>2460.4</ele>
        <time>2026-02-02T09:59:37Z</time>
      </trkpt>
      <trkpt lat="45.95129" lon="6.55574">
        <ele>2460.4</ele>
        <time>2026-02-02T09:59:38Z</time>
      </trkpt>
      <trkpt lat="45.95129" lon="6.55574">
        <ele>2460.4</ele>
        <time>2026-02-02T09:59:39Z</time>
      </trkpt>
      <trkpt lat="45.95129" lon="6.55574">
        <ele>2460.4</ele>
        <time>2026-02-02T09:59:40Z</time>
      </trkpt>
      <trkpt lat="45.95129" lon="6.55574">
        <ele>2460.4</ele>
        <time>2026-02-02T09:59:41Z</time>
      </trkpt>
      <trkpt lat="45.95129" lon="6.55574">
        <ele>2460.4</ele>
        <time>2026-02-02T09:59:42Z</time>
      </trkpt>
      <trkpt lat="45.95129" lon="6.55574">
        <ele>2460.4</ele>
        <time>2026-02-02T09:59:43Z</time>
      </trkpt>
      <trkpt lat="45.95129" lon="6.55574">
        <ele>2460.4</ele>
        <time>2026-02-02T09:59:44Z</time>
      </trkpt>
      <trkpt lat="45.95129" lon="6.55574">
        <ele>2460.4</ele>
        <time>2026-02-02T09:59:45Z</time>
      </trkpt>
      <trkpt lat="45.95129" lon="6.55574">
        <ele>2460.4</ele>
        <time>2026-02-02T09:59:46Z</time>
      </trkpt>
      <trkpt lat="45.95129" lon="6.55574">
        <ele>2460.4</ele>
        <time>2026-02-02T09:59:47Z</time>
      </trkpt>
      <trkpt lat="45.95129" lon="6.55574">
        <ele>2460.4</ele>
        <time>2026-02-02T09:59:48Z</time>
      </trkpt>
      <trkpt lat="45.95129" lon="6.55574">
        <ele>2460.4</ele>
        <time>2026-02-02T09:59:49Z</time>
      </trkpt>
      <trkpt lat="45.95129" lon="6.55574">
        <ele>2460.4</ele>
        <time>2026-02-02T09:59:50Z</time>
      </trkpt>
      <trkpt lat="45.95129" lon="6.55574">
        <ele>2460.4</ele>
        <time>2026-02-02T09:59:51Z</time>
      </trkpt>
      <trkpt lat="45.95129" lon="6.55574">
        <ele>2460.4</ele>
        <time>2026-02-02T09:59:52Z</time>
      </trkpt>
      <trkpt lat="45.95129" lon="6.55574">
        <ele>2460.4</ele>
        <time>2026-02-02T09:59:53Z</time>
      </trkpt>
      <trkpt lat="45.95129" lon="6.55574">
        <ele>2460.4</ele>
        <time>2026-02-02T09:59:54Z</time>
      </trkpt>
      <trkpt lat="45.95129" lon="6.55574">
        <ele>2460.4</ele>
        <time>2026-02-02T09:59:55Z</time>
      </trkpt>
      <trkpt lat="45.95129" lon="6.55574">
        <ele>2460.4</ele>
        <time>2026-02-02T09:59:56Z</time>
      </trkpt>
      <trkpt lat="45.95129" lon="6.55574">
        <ele>2460.4</ele>
        <time>2026-02-02T09:59:57Z</time>
      </trkpt>
      <trkpt lat="45.95129" lon="6.55574">
        <ele>2460.4</ele>
        <time>2026-02-02T09:59:58Z</time>
      </trkpt>
      <trkpt lat="45.95129" lon="6.55574">
        <ele>2460.4</ele>
        <time>2026-02-02T09:59:59Z</time>
      </trkpt>
      <trkpt lat="45.95129" lon="6.55574">
        <ele>2460.4</ele>
        <time>2026-02-02T10:00:00Z</time>
      </trkpt>
      <trkpt lat="45.95129" lon="6.55574">
        <ele>2460.4</ele>
        <time>2026-02-02T10:00:01Z</time>
      </trkpt>
      <trkpt lat="45.95129" lon="6.55574">
        <ele>2460.4</ele>
        <time>2026-02-02T10:00:02Z</time>
      </trkpt>
      <trkpt lat="45.95129" lon="6.55574">
        <ele>2460.4</ele>
        <time>2026-02-02T10:00:03Z</time>
      </trkpt>
      <trkpt lat="45.95129" lon="6.55574">
        <ele>2460.4</ele>
        <time>2026-02-02T10:00:04Z</time>
      </trkpt>
      <trkpt lat="45.95129" lon="6.55574">
        <ele>2460.4</ele>
        <time>2026-02-02T10:00:05Z</time>
      </trkpt>
      <trkpt lat="45.95129" lon="6.55574">
        <ele>2460.4</ele>
        <time>2026-02-02T10:00:06Z</time>
      </trkpt>
      <trkpt lat="45.95129" lon="6.55574">
        <ele>2460.4</ele>
        <time>2026-02-02T10:00:07Z</time>
      </trkpt>
      <trkpt lat="45.95129" lon="6.55574">
        <ele>2460.4</ele>
        <time>2026-02-02T10:00:08Z</time>
      </trkpt>
      <trkpt lat="45.95129" lon="6.55574">
        <ele>2460.4</ele>
        <time>2026-02-02T10:00:09Z</time>
      </trkpt>
      <trkpt lat="45.95129" lon="6.55574">
        <ele>2460.4</ele>
        <time>2026-02-02T10:00:10Z</time>
      </trkpt>
      <trkpt lat="45.95129" lon="6.55574">
        <ele>2460.4</ele>
        <time>2026-02-02T10:00:11Z</time>
      </trkpt>
      <trkpt lat="45.95129" lon="6.55574">
        <ele>2460.4</ele>
        <time>2026-02-02T10:00:12Z</time>
      </trkpt>
      <trkpt lat="45.95129" lon="6.55574">
        <ele>2460.4</ele>
        <time>2026-02-02T10:00:13Z</time>
      </trkpt>
      <trkpt lat="45.95129" lon="6.55574">
        <ele>2460.4</ele>
        <time>2026-02-02T10:00:14Z</time>
      </trkpt>
      <trkpt lat="45.95129" lon="6.55574">
        <ele>2460.4</ele>
        <time>2026-02-02T10:00:15Z</time>
      </trkpt>
      <trkpt lat="45.95129" lon="6.55574">
        <ele>2460.4</ele>
        <time>2026-02-02T10:00:16Z</time>
      </trkpt>
      <trkpt lat="45.95129" lon="6.55574">
        <ele>2460.4</ele>
        <time>2026-02-02T10:00:17Z</time>
      </trkpt>
      <trkpt lat="45.95129" lon="6.55574">
        <ele>2460.4</ele>
        <time>2026-02-02T10:00:18Z</time>
      </trkpt>
      <trkpt lat="45.95129" lon="6.55574">
        <ele>2460.4</ele>
        <time>2026-02-02T10:00:19Z</time>
      </trkpt>
      <trkpt lat="45.95129" lon="6.55573">
        <ele>2460.4</ele>
        <time>2026-02-02T10:00:20Z</time>
      </trkpt>
      <trkpt lat="45.95129" lon="6.55573">
        <ele>2460.4</ele>
        <time>2026-02-02T10:00:21Z</time>
      </trkpt>
      <trkpt lat="45.95129" lon="6.55573">
        <ele>2460.4</ele>
        <time>2026-02-02T10:00:22Z</time>
      </trkpt>
      <trkpt lat="45.95129" lon="6.55573">
        <ele>2460.4</ele>
        <time>2026-02-02T10:00:23Z</time>
      </trkpt>
      <trkpt lat="45.95129" lon="6.55573">
        <ele>2460.4</ele>
        <time>2026-02-02T10:00:24Z</time>
      </trkpt>
      <trkpt lat="45.95129" lon="6.55573">
        <ele>2460.4</ele>
        <time>2026-02-02T10:00:25Z</time>
      </trkpt>
      <trkpt lat="45.95129" lon="6.55573">
        <ele>2460.4</ele>
        <time>2026-02-02T10:00:26Z</time>
      </trkpt>
      <trkpt lat="45.95129" lon="6.55573">
        <ele>2460.4</ele>
        <time>2026-02-02T10:00:27Z</time>
      </trkpt>
      <trkpt lat="45.95128" lon="6.55573">
        <ele>2460.4</ele>
        <time>2026-02-02T10:00:28Z</time>
      </trkpt>
      <trkpt lat="45.95128" lon="6.55574">
        <ele>2460.4</ele>
        <time>2026-02-02T10:00:29Z</time>
      </trkpt>
      <trkpt lat="45.95128" lon="6.55574">
        <ele>2460.4</ele>
        <time>2026-02-02T10:00:30Z</time>
      </trkpt>
      <trkpt lat="45.95128" lon="6.55574">
        <ele>2460.4</ele>
        <time>2026-02-02T10:00:31Z</time>
      </trkpt>
      <trkpt lat="45.95128" lon="6.55574">
        <ele>2460.4</ele>
        <time>2026-02-02T10:00:32Z</time>
      </trkpt>
      <trkpt lat="45.95128" lon="6.55574">
        <ele>2460.4</ele>
        <time>2026-02-02T10:00:33Z</time>
      </trkpt>
      <trkpt lat="45.95128" lon="6.55574">
        <ele>2460.4</ele>
        <time>2026-02-02T10:00:34Z</time>
      </trkpt>
      <trkpt lat="45.95127" lon="6.55574">
        <ele>2460.4</ele>
        <time>2026-02-02T10:00:36Z</time>
      </trkpt>
      <trkpt lat="45.95127" lon="6.55574">
        <ele>2460.4</ele>
        <time>2026-02-02T10:00:37Z</time>
      </trkpt>
      <trkpt lat="45.95127" lon="6.55574">
        <ele>2460.4</ele>
        <time>2026-02-02T10:00:38Z</time>
      </trkpt>
      <trkpt lat="45.95127" lon="6.55574">
        <ele>2460.4</ele>
        <time>2026-02-02T10:00:39Z</time>
      </trkpt>
      <trkpt lat="45.95127" lon="6.55574">
        <ele>2460.4</ele>
        <time>2026-02-02T10:00:40Z</time>
      </trkpt>
      <trkpt lat="45.95127" lon="6.55574">
        <ele>2460.4</ele>
        <time>2026-02-02T10:00:41Z</time>
      </trkpt>
      <trkpt lat="45.95127" lon="6.55574">
        <ele>2460.4</ele>
        <time>2026-02-02T10:00:42Z</time>
      </trkpt>
      <trkpt lat="45.95127" lon="6.55574">
        <ele>2460.4</ele>
        <time>2026-02-02T10:00:43Z</time>
      </trkpt>
      <trkpt lat="45.95127" lon="6.55574">
        <ele>2460.4</ele>
        <time>2026-02-02T10:00:44Z</time>
      </trkpt>
      <trkpt lat="45.95127" lon="6.55574">
        <ele>2460.4</ele>
        <time>2026-02-02T10:00:45Z</time>
      </trkpt>
      <trkpt lat="45.95127" lon="6.55574">
        <ele>2460.4</ele>
        <time>2026-02-02T10:00:46Z</time>
      </trkpt>
      <trkpt lat="45.95127" lon="6.55574">
        <ele>2460.4</ele>
        <time>2026-02-02T10:00:47Z</time>
      </trkpt>
      <trkpt lat="45.95127" lon="6.55574">
        <ele>2460.4</ele>
        <time>2026-02-02T10:00:48Z</time>
      </trkpt>
      <trkpt lat="45.95127" lon="6.55574">
        <ele>2460.4</ele>
        <time>2026-02-02T10:00:49Z</time>
      </trkpt>
      <trkpt lat="45.95127" lon="6.55574">
        <ele>2460.4</ele>
        <time>2026-02-02T10:00:50Z</time>
      </trkpt>
      <trkpt lat="45.95128" lon="6.55574">
        <ele>2460.4</ele>
        <time>2026-02-02T10:00:51Z</time>
      </trkpt>
      <trkpt lat="45.95128" lon="6.55574">
        <ele>2460.4</ele>
        <time>2026-02-02T10:00:52Z</time>
      </trkpt>
      <trkpt lat="45.95128" lon="6.55574">
        <ele>2460.4</ele>
        <time>2026-02-02T10:00:53Z</time>
      </trkpt>
      <trkpt lat="45.95128" lon="6.55574">
        <ele>2460.4</ele>
        <time>2026-02-02T10:00:54Z</time>
      </trkpt>
      <trkpt lat="45.95128" lon="6.55574">
        <ele>2460.4</ele>
        <time>2026-02-02T10:00:55Z</time>
      </trkpt>
      <trkpt lat="45.95128" lon="6.55574">
        <ele>2460.4</ele>
        <time>2026-02-02T10:00:56Z</time>
      </trkpt>
      <trkpt lat="45.95128" lon="6.55574">
        <ele>2460.4</ele>
        <time>2026-02-02T10:00:57Z</time>
      </trkpt>
      <trkpt lat="45.95128" lon="6.55574">
        <ele>2460.4</ele>
        <time>2026-02-02T10:00:58Z</time>
      </trkpt>
      <trkpt lat="45.95128" lon="6.55574">
        <ele>2460.4</ele>
        <time>2026-02-02T10:00:59Z</time>
      </trkpt>
      <trkpt lat="45.95128" lon="6.55574">
        <ele>2460.4</ele>
        <time>2026-02-02T10:01:00Z</time>
      </trkpt>
      <trkpt lat="45.95128" lon="6.55574">
        <ele>2460.4</ele>
        <time>2026-02-02T10:01:01Z</time>
      </trkpt>
      <trkpt lat="45.95128" lon="6.55574">
        <ele>2460.4</ele>
        <time>2026-02-02T10:01:02Z</time>
      </trkpt>
      <trkpt lat="45.95128" lon="6.55574">
        <ele>2460.4</ele>
        <time>2026-02-02T10:01:03Z</time>
      </trkpt>
      <trkpt lat="45.95128" lon="6.55574">
        <ele>2460.4</ele>
        <time>2026-02-02T10:01:04Z</time>
      </trkpt>
      <trkpt lat="45.95128" lon="6.55574">
        <ele>2460.4</ele>
        <time>2026-02-02T10:01:05Z</time>
      </trkpt>
      <trkpt lat="45.95128" lon="6.55574">
        <ele>2460.4</ele>
        <time>2026-02-02T10:01:06Z</time>
      </trkpt>
      <trkpt lat="45.95129" lon="6.55574">
        <ele>2460.4</ele>
        <time>2026-02-02T10:01:07Z</time>
      </trkpt>
      <trkpt lat="45.95129" lon="6.55574">
        <ele>2460.4</ele>
        <time>2026-02-02T10:01:08Z</time>
      </trkpt>
      <trkpt lat="45.95129" lon="6.55574">
        <ele>2460.4</ele>
        <time>2026-02-02T10:01:09Z</time>
      </trkpt>
      <trkpt lat="45.95129" lon="6.55574">
        <ele>2460.4</ele>
        <time>2026-02-02T10:01:10Z</time>
      </trkpt>
      <trkpt lat="45.95129" lon="6.55574">
        <ele>2460.4</ele>
        <time>2026-02-02T10:01:11Z</time>
      </trkpt>
      <trkpt lat="45.95129" lon="6.55574">
        <ele>2460.4</ele>
        <time>2026-02-02T10:01:12Z</time>
      </trkpt>
      <trkpt lat="45.95129" lon="6.55574">
        <ele>2460.4</ele>
        <time>2026-02-02T10:01:13Z</time>
      </trkpt>
      <trkpt lat="45.95129" lon="6.55574">
        <ele>2460.4</ele>
        <time>2026-02-02T10:01:14Z</time>
      </trkpt>
      <trkpt lat="45.95129" lon="6.55573">
        <ele>2460.4</ele>
        <time>2026-02-02T10:01:15Z</time>
      </trkpt>
      <trkpt lat="45.95129" lon="6.55573">
        <ele>2460.4</ele>
        <time>2026-02-02T10:01:16Z</time>
      </trkpt>
      <trkpt lat="45.95129" lon="6.55573">
        <ele>2460.4</ele>
        <time>2026-02-02T10:01:17Z</time>
      </trkpt>
      <trkpt lat="45.95129" lon="6.55573">
        <ele>2460.4</ele>
        <time>2026-02-02T10:01:18Z</time>
      </trkpt>
      <trkpt lat="45.95129" lon="6.55573">
        <ele>2460.4</ele>
        <time>2026-02-02T10:01:19Z</time>
      </trkpt>
      <trkpt lat="45.95128" lon="6.55573">
        <ele>2460.4</ele>
        <time>2026-02-02T10:01:20Z</time>
      </trkpt>
      <trkpt lat="45.95128" lon="6.55573">
        <ele>2460.4</ele>
        <time>2026-02-02T10:01:21Z</time>
      </trkpt>
      <trkpt lat="45.95128" lon="6.55573">
        <ele>2460.4</ele>
        <time>2026-02-02T10:01:22Z</time>
      </trkpt>
      <trkpt lat="45.95128" lon="6.55573">
        <ele>2460.4</ele>
        <time>2026-02-02T10:01:23Z</time>
      </trkpt>
      <trkpt lat="45.95128" lon="6.55573">
        <ele>2460.4</ele>
        <time>2026-02-02T10:01:24Z</time>
      </trkpt>
      <trkpt lat="45.95128" lon="6.55573">
        <ele>2460.4</ele>
        <time>2026-02-02T10:01:25Z</time>
      </trkpt>
      <trkpt lat="45.95128" lon="6.55573">
        <ele>2460.4</ele>
        <time>2026-02-02T10:01:26Z</time>
      </trkpt>
      <trkpt lat="45.95128" lon="6.55573">
        <ele>2460.4</ele>
        <time>2026-02-02T10:01:27Z</time>
      </trkpt>
      <trkpt lat="45.95128" lon="6.55573">
        <ele>2460.4</ele>
        <time>2026-02-02T10:01:28Z</time>
      </trkpt>
      <trkpt lat="45.95128" lon="6.55573">
        <ele>2460.4</ele>
        <time>2026-02-02T10:01:29Z</time>
      </trkpt>
      <trkpt lat="45.95128" lon="6.55573">
        <ele>2460.4</ele>
        <time>2026-02-02T10:01:31Z</time>
      </trkpt>
      <trkpt lat="45.95128" lon="6.55573">
        <ele>2460.4</ele>
        <time>2026-02-02T10:01:32Z</time>
      </trkpt>
      <trkpt lat="45.95128" lon="6.55573">
        <ele>2460.4</ele>
        <time>2026-02-02T10:01:33Z</time>
      </trkpt>
      <trkpt lat="45.95128" lon="6.55573">
        <ele>2460.4</ele>
        <time>2026-02-02T10:01:34Z</time>
      </trkpt>
      <trkpt lat="45.95128" lon="6.55573">
        <ele>2460.4</ele>
        <time>2026-02-02T10:01:35Z</time>
      </trkpt>
      <trkpt lat="45.95128" lon="6.55573">
        <ele>2460.4</ele>
        <time>2026-02-02T10:01:36Z</time>
      </trkpt>
      <trkpt lat="45.95128" lon="6.55573">
        <ele>2460.4</ele>
        <time>2026-02-02T10:01:37Z</time>
      </trkpt>
      <trkpt lat="45.95128" lon="6.55573">
        <ele>2460.4</ele>
        <time>2026-02-02T10:01:38Z</time>
      </trkpt>
      <trkpt lat="45.95128" lon="6.55573">
        <ele>2460.4</ele>
        <time>2026-02-02T10:01:39Z</time>
      </trkpt>
      <trkpt lat="45.95128" lon="6.55574">
        <ele>2460.4</ele>
        <time>2026-02-02T10:01:40Z</time>
      </trkpt>
      <trkpt lat="45.95128" lon="6.55574">
        <ele>2460.4</ele>
        <time>2026-02-02T10:01:41Z</time>
      </trkpt>
      <trkpt lat="45.95127" lon="6.55574">
        <ele>2460.4</ele>
        <time>2026-02-02T10:01:42Z</time>
      </trkpt>
      <trkpt lat="45.95127" lon="6.55574">
        <ele>2460.4</ele>
        <time>2026-02-02T10:01:43Z</time>
      </trkpt>
      <trkpt lat="45.95127" lon="6.55574">
        <ele>2460.4</ele>
        <time>2026-02-02T10:01:44Z</time>
      </trkpt>
      <trkpt lat="45.95127" lon="6.55574">
        <ele>2460.4</ele>
        <time>2026-02-02T10:01:45Z</time>
      </trkpt>
      <trkpt lat="45.95127" lon="6.55574">
        <ele>2460.4</ele>
        <time>2026-02-02T10:01:46Z</time>
      </trkpt>
      <trkpt lat="45.95127" lon="6.55574">
        <ele>2460.4</ele>
        <time>2026-02-02T10:01:47Z</time>
      </trkpt>
      <trkpt lat="45.95127" lon="6.55574">
        <ele>2460.4</ele>
        <time>2026-02-02T10:01:48Z</time>
      </trkpt>
      <trkpt lat="45.95127" lon="6.55574">
        <ele>2460.4</ele>
        <time>2026-02-02T10:01:49Z</time>
      </trkpt>
      <trkpt lat="45.95127" lon="6.55574">
        <ele>2460.4</ele>
        <time>2026-02-02T10:01:50Z</time>
      </trkpt>
      <trkpt lat="45.95127" lon="6.55574">
        <ele>2460.4</ele>
        <time>2026-02-02T10:01:51Z</time>
      </trkpt>
      <trkpt lat="45.95128" lon="6.55574">
        <ele>2460.4</ele>
        <time>2026-02-02T10:01:52Z</time>
      </trkpt>
      <trkpt lat="45.95128" lon="6.55574">
        <ele>2460.4</ele>
        <time>2026-02-02T10:01:53Z</time>
      </trkpt>
      <trkpt lat="45.95128" lon="6.55574">
        <ele>2460.4</ele>
        <time>2026-02-02T10:01:54Z</time>
      </trkpt>
      <trkpt lat="45.95128" lon="6.55574">
        <ele>2460.4</ele>
        <time>2026-02-02T10:01:55Z</time>
      </trkpt>
      <trkpt lat="45.95128" lon="6.55574">
        <ele>2460.4</ele>
        <time>2026-02-02T10:01:56Z</time>
      </trkpt>
      <trkpt lat="45.95128" lon="6.55574">
        <ele>2460.4</ele>
        <time>2026-02-02T10:01:57Z</time>
      </trkpt>
      <trkpt lat="45.95128" lon="6.55574">
        <ele>2460.4</ele>
        <time>2026-02-02T10:01:58Z</time>
      </trkpt>
      <trkpt lat="45.95128" lon="6.55574">
        <ele>2460.4</ele>
        <time>2026-02-02T10:01:59Z</time>
      </trkpt>
      <trkpt lat="45.95128" lon="6.55574">
        <ele>2460.4</ele>
        <time>2026-02-02T10:02:00Z</time>
      </trkpt>
      <trkpt lat="45.95128" lon="6.55574">
        <ele>2460.4</ele>
        <time>2026-02-02T10:02:01Z</time>
      </trkpt>
      <trkpt lat="45.95128" lon="6.55574">
        <ele>2460.4</ele>
        <time>2026-02-02T10:02:02Z</time>
      </trkpt>
      <trkpt lat="45.95127" lon="6.55574">
        <ele>2460.4</ele>
        <time>2026-02-02T10:02:03Z</time>
      </trkpt>
      <trkpt lat="45.95127" lon="6.55574">
        <ele>2460.4</ele>
        <time>2026-02-02T10:02:04Z</time>
      </trkpt>
      <trkpt lat="45.95127" lon="6.55574">
        <ele>2460.4</ele>
        <time>2026-02-02T10:02:05Z</time>
      </trkpt>
      <trkpt lat="45.95127" lon="6.55574">
        <ele>2460.4</ele>
        <time>2026-02-02T10:02:06Z</time>
      </trkpt>
      <trkpt lat="45.95127" lon="6.55574">
        <ele>2460.4</ele>
        <time>2026-02-02T10:02:07Z</time>
      </trkpt>
      <trkpt lat="45.95128" lon="6.55574">
        <ele>2460.4</ele>
        <time>2026-02-02T10:02:08Z</time>
      </trkpt>
      <trkpt lat="45.95128" lon="6.55574">
        <ele>2460.4</ele>
        <time>2026-02-02T10:02:09Z</time>
      </trkpt>
      <trkpt lat="45.95128" lon="6.55574">
        <ele>2460.4</ele>
        <time>2026-02-02T10:02:10Z</time>
      </trkpt>
      <trkpt lat="45.95128" lon="6.55574">
        <ele>2460.4</ele>
        <time>2026-02-02T10:02:11Z</time>
      </trkpt>
      <trkpt lat="45.95127" lon="6.55573">
        <ele>2460.4</ele>
        <time>2026-02-02T10:02:12Z</time>
      </trkpt>
      <trkpt lat="45.95127" lon="6.55573">
        <ele>2460.4</ele>
        <time>2026-02-02T10:02:13Z</time>
      </trkpt>
      <trkpt lat="45.95127" lon="6.55573">
        <ele>2460.4</ele>
        <time>2026-02-02T10:02:14Z</time>
      </trkpt>
      <trkpt lat="45.95127" lon="6.55573">
        <ele>2460.4</ele>
        <time>2026-02-02T10:02:15Z</time>
      </trkpt>
      <trkpt lat="45.95127" lon="6.55573">
        <ele>2460.4</ele>
        <time>2026-02-02T10:02:16Z</time>
      </trkpt>
      <trkpt lat="45.95127" lon="6.55573">
        <ele>2460.4</ele>
        <time>2026-02-02T10:02:17Z</time>
      </trkpt>
      <trkpt lat="45.95127" lon="6.55573">
        <ele>2460.4</ele>
        <time>2026-02-02T10:02:18Z</time>
      </trkpt>
      <trkpt lat="45.95127" lon="6.55573">
        <ele>2460.4</ele>
        <time>2026-02-02T10:02:19Z</time>
      </trkpt>
      <trkpt lat="45.95127" lon="6.55573">
        <ele>2460.4</ele>
        <time>2026-02-02T10:02:20Z</time>
      </trkpt>
      <trkpt lat="45.95127" lon="6.55573">
        <ele>2460.4</ele>
        <time>2026-02-02T10:02:21Z</time>
      </trkpt>
      <trkpt lat="45.95127" lon="6.55573">
        <ele>2460.4</ele>
        <time>2026-02-02T10:02:22Z</time>
      </trkpt>
      <trkpt lat="45.95127" lon="6.55573">
        <ele>2460.4</ele>
        <time>2026-02-02T10:02:23Z</time>
      </trkpt>
      <trkpt lat="45.95127" lon="6.55573">
        <ele>2460.4</ele>
        <time>2026-02-02T10:02:24Z</time>
      </trkpt>
      <trkpt lat="45.95127" lon="6.55573">
        <ele>2460.4</ele>
        <time>2026-02-02T10:02:25Z</time>
      </trkpt>
      <trkpt lat="45.95127" lon="6.55573">
        <ele>2460.4</ele>
        <time>2026-02-02T10:02:26Z</time>
      </trkpt>
      <trkpt lat="45.95127" lon="6.55573">
        <ele>2460.4</ele>
        <time>2026-02-02T10:02:27Z</time>
      </trkpt>
      <trkpt lat="45.95127" lon="6.55573">
        <ele>2460.4</ele>
        <time>2026-02-02T10:02:28Z</time>
      </trkpt>
      <trkpt lat="45.95127" lon="6.55573">
        <ele>2460.4</ele>
        <time>2026-02-02T10:02:29Z</time>
      </trkpt>
      <trkpt lat="45.95127" lon="6.55573">
        <ele>2460.4</ele>
        <time>2026-02-02T10:02:30Z</time>
      </trkpt>
      <trkpt lat="45.95127" lon="6.55573">
        <ele>2460.4</ele>
        <time>2026-02-02T10:02:31Z</time>
      </trkpt>
      <trkpt lat="45.95127" lon="6.55573">
        <ele>2460.4</ele>
        <time>2026-02-02T10:02:32Z</time>
      </trkpt>
      <trkpt lat="45.95127" lon="6.55573">
        <ele>2460.4</ele>
        <time>2026-02-02T10:02:33Z</time>
      </trkpt>
      <trkpt lat="45.95127" lon="6.55573">
        <ele>2460.4</ele>
        <time>2026-02-02T10:02:34Z</time>
      </trkpt>
      <trkpt lat="45.95127" lon="6.55573">
        <ele>2460.4</ele>
        <time>2026-02-02T10:02:35Z</time>
      </trkpt>
      <trkpt lat="45.95127" lon="6.55573">
        <ele>2460.4</ele>
        <time>2026-02-02T10:02:36Z</time>
      </trkpt>
      <trkpt lat="45.95127" lon="6.55573">
        <ele>2460.4</ele>
        <time>2026-02-02T10:02:37Z</time>
      </trkpt>
      <trkpt lat="45.95127" lon="6.55573">
        <ele>2460.4</ele>
        <time>2026-02-02T10:02:38Z</time>
      </trkpt>
      <trkpt lat="45.95127" lon="6.55573">
        <ele>2460.4</ele>
        <time>2026-02-02T10:02:39Z</time>
      </trkpt>
      <trkpt lat="45.95127" lon="6.55573">
        <ele>2460.4</ele>
        <time>2026-02-02T10:02:40Z</time>
      </trkpt>
      <trkpt lat="45.95127" lon="6.55573">
        <ele>2460.4</ele>
        <time>2026-02-02T10:02:41Z</time>
      </trkpt>
      <trkpt lat="45.95127" lon="6.55573">
        <ele>2460.4</ele>
        <time>2026-02-02T10:02:42Z</time>
      </trkpt>
      <trkpt lat="45.95127" lon="6.55573">
        <ele>2460.4</ele>
        <time>2026-02-02T10:02:43Z</time>
      </trkpt>
      <trkpt lat="45.95127" lon="6.55573">
        <ele>2460.4</ele>
        <time>2026-02-02T10:02:44Z</time>
      </trkpt>
      <trkpt lat="45.95127" lon="6.55573">
        <ele>2460.4</ele>
        <time>2026-02-02T10:02:45Z</time>
      </trkpt>
      <trkpt lat="45.95127" lon="6.55573">
        <ele>2460.4</ele>
        <time>2026-02-02T10:02:46Z</time>
      </trkpt>
      <trkpt lat="45.95127" lon="6.55573">
        <ele>2460.4</ele>
        <time>2026-02-02T10:02:47Z</time>
      </trkpt>
      <trkpt lat="45.95128" lon="6.55574">
        <ele>2460.4</ele>
        <time>2026-02-02T10:02:48Z</time>
      </trkpt>
      <trkpt lat="45.95128" lon="6.55573">
        <ele>2460.4</ele>
        <time>2026-02-02T10:02:49Z</time>
      </trkpt>
      <trkpt lat="45.95128" lon="6.55573">
        <ele>2460.4</ele>
        <time>2026-02-02T10:02:50Z</time>
      </trkpt>
      <trkpt lat="45.95129" lon="6.55574">
        <ele>2460.4</ele>
        <time>2026-02-02T10:02:51Z</time>
      </trkpt>
      <trkpt lat="45.95129" lon="6.55574">
        <ele>2460.4</ele>
        <time>2026-02-02T10:02:52Z</time>
      </trkpt>
      <trkpt lat="45.95129" lon="6.55573">
        <ele>2460.4</ele>
        <time>2026-02-02T10:02:53Z</time>
      </trkpt>
      <trkpt lat="45.95129" lon="6.55573">
        <ele>2460.4</ele>
        <time>2026-02-02T10:02:54Z</time>
      </trkpt>
      <trkpt lat="45.9513" lon="6.55573">
        <ele>2460.4</ele>
        <time>2026-02-02T10:02:55Z</time>
      </trkpt>
      <trkpt lat="45.9513" lon="6.55573">
        <ele>2460.4</ele>
        <time>2026-02-02T10:02:56Z</time>
      </trkpt>
      <trkpt lat="45.9513" lon="6.55574">
        <ele>2460.4</ele>
        <time>2026-02-02T10:02:57Z</time>
      </trkpt>
      <trkpt lat="45.9513" lon="6.55574">
        <ele>2461.4</ele>
        <time>2026-02-02T10:02:58Z</time>
      </trkpt>
      <trkpt lat="45.9513" lon="6.55574">
        <ele>2461.4</ele>
        <time>2026-02-02T10:02:59Z</time>
      </trkpt>
      <trkpt lat="45.95131" lon="6.55573">
        <ele>2461.4</ele>
        <time>2026-02-02T10:03:00Z</time>
      </trkpt>
      <trkpt lat="45.95131" lon="6.55573">
        <ele>2461.4</ele>
        <time>2026-02-02T10:03:01Z</time>
      </trkpt>
      <trkpt lat="45.95132" lon="6.55573">
        <ele>2461.4</ele>
        <time>2026-02-02T10:03:02Z</time>
      </trkpt>
      <trkpt lat="45.95132" lon="6.55573">
        <ele>2461.4</ele>
        <time>2026-02-02T10:03:03Z</time>
      </trkpt>
      <trkpt lat="45.95133" lon="6.55573">
        <ele>2461.4</ele>
        <time>2026-02-02T10:03:04Z</time>
      </trkpt>
      <trkpt lat="45.95133" lon="6.55573">
        <ele>2461.4</ele>
        <time>2026-02-02T10:03:05Z</time>
      </trkpt>
      <trkpt lat="45.95133" lon="6.55573">
        <ele>2462.6</ele>
        <time>2026-02-02T10:03:06Z</time>
      </trkpt>
      <trkpt lat="45.95133" lon="6.55573">
        <ele>2462.6</ele>
        <time>2026-02-02T10:03:07Z</time>
      </trkpt>
      <trkpt lat="45.95134" lon="6.55574">
        <ele>2462.6</ele>
        <time>2026-02-02T10:03:08Z</time>
      </trkpt>
      <trkpt lat="45.95134" lon="6.55574">
        <ele>2462.6</ele>
        <time>2026-02-02T10:03:09Z</time>
      </trkpt>
      <trkpt lat="45.95134" lon="6.55574">
        <ele>2462.6</ele>
        <time>2026-02-02T10:03:10Z</time>
      </trkpt>
      <trkpt lat="45.95135" lon="6.55574">
        <ele>2462.6</ele>
        <time>2026-02-02T10:03:11Z</time>
      </trkpt>
      <trkpt lat="45.95135" lon="6.55573">
        <ele>2462.6</ele>
        <time>2026-02-02T10:03:12Z</time>
      </trkpt>
      <trkpt lat="45.95135" lon="6.55573">
        <ele>2462.6</ele>
        <time>2026-02-02T10:03:14Z</time>
      </trkpt>
      <trkpt lat="45.95135" lon="6.55573">
        <ele>2462.6</ele>
        <time>2026-02-02T10:03:15Z</time>
      </trkpt>
      <trkpt lat="45.95135" lon="6.55572">
        <ele>2462.6</ele>
        <time>2026-02-02T10:03:16Z</time>
      </trkpt>
      <trkpt lat="45.95135" lon="6.55572">
        <ele>2462.6</ele>
        <time>2026-02-02T10:03:17Z</time>
      </trkpt>
      <trkpt lat="45.95135" lon="6.55572">
        <ele>2462.6</ele>
        <time>2026-02-02T10:03:18Z</time>
      </trkpt>
      <trkpt lat="45.95135" lon="6.55572">
        <ele>2462.6</ele>
        <time>2026-02-02T10:03:19Z</time>
      </trkpt>
      <trkpt lat="45.95135" lon="6.55572">
        <ele>2462.6</ele>
        <time>2026-02-02T10:03:20Z</time>
      </trkpt>
      <trkpt lat="45.95135" lon="6.55572">
        <ele>2462.6</ele>
        <time>2026-02-02T10:03:21Z</time>
      </trkpt>
      <trkpt lat="45.95135" lon="6.55572">
        <ele>2462.6</ele>
        <time>2026-02-02T10:03:22Z</time>
      </trkpt>
      <trkpt lat="45.95135" lon="6.55572">
        <ele>2462.6</ele>
        <time>2026-02-02T10:03:23Z</time>
      </trkpt>
      <trkpt lat="45.95135" lon="6.55572">
        <ele>2462.6</ele>
        <time>2026-02-02T10:03:25Z</time>
      </trkpt>
      <trkpt lat="45.95135" lon="6.55572">
        <ele>2462.6</ele>
        <time>2026-02-02T10:03:26Z</time>
      </trkpt>
      <trkpt lat="45.95135" lon="6.55572">
        <ele>2462.6</ele>
        <time>2026-02-02T10:03:27Z</time>
      </trkpt>
      <trkpt lat="45.95135" lon="6.55571">
        <ele>2462.6</ele>
        <time>2026-02-02T10:03:28Z</time>
      </trkpt>
      <trkpt lat="45.95135" lon="6.55571">
        <ele>2462.6</ele>
        <time>2026-02-02T10:03:29Z</time>
      </trkpt>
      <trkpt lat="45.95135" lon="6.55571">
        <ele>2462.6</ele>
        <time>2026-02-02T10:03:30Z</time>
      </trkpt>
      <trkpt lat="45.95135" lon="6.5557">
        <ele>2465</ele>
        <time>2026-02-02T10:03:31Z</time>
      </trkpt>
      <trkpt lat="45.95135" lon="6.5557">
        <ele>2465</ele>
        <time>2026-02-02T10:03:32Z</time>
      </trkpt>
      <trkpt lat="45.95135" lon="6.5557">
        <ele>2465</ele>
        <time>2026-02-02T10:03:33Z</time>
      </trkpt>
      <trkpt lat="45.95135" lon="6.5557">
        <ele>2465</ele>
        <time>2026-02-02T10:03:34Z</time>
      </trkpt>
      <trkpt lat="45.95135" lon="6.5557">
        <ele>2465</ele>
        <time>2026-02-02T10:03:35Z</time>
      </trkpt>
      <trkpt lat="45.95135" lon="6.5557">
        <ele>2465</ele>
        <time>2026-02-02T10:03:36Z</time>
      </trkpt>
      <trkpt lat="45.95135" lon="6.5557">
        <ele>2465</ele>
        <time>2026-02-02T10:03:37Z</time>
      </trkpt>
      <trkpt lat="45.95135" lon="6.5557">
        <ele>2465</ele>
        <time>2026-02-02T10:03:38Z</time>
      </trkpt>
      <trkpt lat="45.95135" lon="6.5557">
        <ele>2465</ele>
        <time>2026-02-02T10:03:39Z</time>
      </trkpt>
      <trkpt lat="45.95135" lon="6.5557">
        <ele>2465</ele>
        <time>2026-02-02T10:03:40Z</time>
      </trkpt>
      <trkpt lat="45.95135" lon="6.5557">
        <ele>2465</ele>
        <time>2026-02-02T10:03:41Z</time>
      </trkpt>
      <trkpt lat="45.95135" lon="6.5557">
        <ele>2465</ele>
        <time>2026-02-02T10:03:42Z</time>
      </trkpt>
      <trkpt lat="45.95135" lon="6.5557">
        <ele>2465</ele>
        <time>2026-02-02T10:03:43Z</time>
      </trkpt>
      <trkpt lat="45.95135" lon="6.5557">
        <ele>2465</ele>
        <time>2026-02-02T10:03:44Z</time>
      </trkpt>
      <trkpt lat="45.95135" lon="6.5557">
        <ele>2465</ele>
        <time>2026-02-02T10:03:45Z</time>
      </trkpt>
      <trkpt lat="45.95135" lon="6.5557">
        <ele>2465</ele>
        <time>2026-02-02T10:03:46Z</time>
      </trkpt>
      <trkpt lat="45.95135" lon="6.5557">
        <ele>2465</ele>
        <time>2026-02-02T10:03:47Z</time>
      </trkpt>
      <trkpt lat="45.95135" lon="6.5557">
        <ele>2465</ele>
        <time>2026-02-02T10:03:48Z</time>
      </trkpt>
      <trkpt lat="45.95135" lon="6.5557">
        <ele>2465</ele>
        <time>2026-02-02T10:03:49Z</time>
      </trkpt>
      <trkpt lat="45.95135" lon="6.5557">
        <ele>2465</ele>
        <time>2026-02-02T10:03:50Z</time>
      </trkpt>
      <trkpt lat="45.95135" lon="6.5557">
        <ele>2465</ele>
        <time>2026-02-02T10:03:51Z</time>
      </trkpt>
      <trkpt lat="45.95135" lon="6.5557">
        <ele>2465</ele>
        <time>2026-02-02T10:03:52Z</time>
      </trkpt>
      <trkpt lat="45.95135" lon="6.5557">
        <ele>2465</ele>
        <time>2026-02-02T10:03:53Z</time>
      </trkpt>
      <trkpt lat="45.95135" lon="6.5557">
        <ele>2465</ele>
        <time>2026-02-02T10:03:54Z</time>
      </trkpt>
      <trkpt lat="45.95135" lon="6.5557">
        <ele>2465</ele>
        <time>2026-02-02T10:03:55Z</time>
      </trkpt>
      <trkpt lat="45.95135" lon="6.55571">
        <ele>2465</ele>
        <time>2026-02-02T10:03:56Z</time>
      </trkpt>
      <trkpt lat="45.95135" lon="6.5557">
        <ele>2465</ele>
        <time>2026-02-02T10:03:57Z</time>
      </trkpt>
      <trkpt lat="45.95135" lon="6.5557">
        <ele>2465</ele>
        <time>2026-02-02T10:03:58Z</time>
      </trkpt>
      <trkpt lat="45.95135" lon="6.5557">
        <ele>2465</ele>
        <time>2026-02-02T10:03:59Z</time>
      </trkpt>
      <trkpt lat="45.95135" lon="6.5557">
        <ele>2465</ele>
        <time>2026-02-02T10:04:00Z</time>
      </trkpt>
      <trkpt lat="45.95135" lon="6.5557">
        <ele>2465</ele>
        <time>2026-02-02T10:04:01Z</time>
      </trkpt>
      <trkpt lat="45.95135" lon="6.5557">
        <ele>2465</ele>
        <time>2026-02-02T10:04:02Z</time>
      </trkpt>
      <trkpt lat="45.95135" lon="6.5557">
        <ele>2465</ele>
        <time>2026-02-02T10:04:03Z</time>
      </trkpt>
      <trkpt lat="45.95135" lon="6.5557">
        <ele>2465</ele>
        <time>2026-02-02T10:04:04Z</time>
      </trkpt>
      <trkpt lat="45.95135" lon="6.5557">
        <ele>2465</ele>
        <time>2026-02-02T10:04:05Z</time>
      </trkpt>
      <trkpt lat="45.95135" lon="6.5557">
        <ele>2465</ele>
        <time>2026-02-02T10:04:06Z</time>
      </trkpt>
      <trkpt lat="45.95135" lon="6.5557">
        <ele>2465</ele>
        <time>2026-02-02T10:04:08Z</time>
      </trkpt>
      <trkpt lat="45.95135" lon="6.55569">
        <ele>2465</ele>
        <time>2026-02-02T10:04:09Z</time>
      </trkpt>
      <trkpt lat="45.95135" lon="6.55569">
        <ele>2465</ele>
        <time>2026-02-02T10:04:10Z</time>
      </trkpt>
      <trkpt lat="45.95135" lon="6.55569">
        <ele>2465</ele>
        <time>2026-02-02T10:04:11Z</time>
      </trkpt>
      <trkpt lat="45.95135" lon="6.55569">
        <ele>2465</ele>
        <time>2026-02-02T10:04:12Z</time>
      </trkpt>
      <trkpt lat="45.95135" lon="6.55569">
        <ele>2465</ele>
        <time>2026-02-02T10:04:13Z</time>
      </trkpt>
      <trkpt lat="45.95135" lon="6.55569">
        <ele>2465</ele>
        <time>2026-02-02T10:04:14Z</time>
      </trkpt>
      <trkpt lat="45.95135" lon="6.55569">
        <ele>2465</ele>
        <time>2026-02-02T10:04:15Z</time>
      </trkpt>
      <trkpt lat="45.95135" lon="6.55569">
        <ele>2465</ele>
        <time>2026-02-02T10:04:16Z</time>
      </trkpt>
      <trkpt lat="45.95135" lon="6.55569">
        <ele>2465</ele>
        <time>2026-02-02T10:04:17Z</time>
      </trkpt>
      <trkpt lat="45.95135" lon="6.55569">
        <ele>2465</ele>
        <time>2026-02-02T10:04:18Z</time>
      </trkpt>
      <trkpt lat="45.95135" lon="6.55569">
        <ele>2465</ele>
        <time>2026-02-02T10:04:19Z</time>
      </trkpt>
      <trkpt lat="45.95135" lon="6.55569">
        <ele>2465</ele>
        <time>2026-02-02T10:04:20Z</time>
      </trkpt>
      <trkpt lat="45.95135" lon="6.55569">
        <ele>2465</ele>
        <time>2026-02-02T10:04:21Z</time>
      </trkpt>
      <trkpt lat="45.95135" lon="6.55569">
        <ele>2465</ele>
        <time>2026-02-02T10:04:22Z</time>
      </trkpt>
      <trkpt lat="45.95134" lon="6.5557">
        <ele>2465</ele>
        <time>2026-02-02T10:04:23Z</time>
      </trkpt>
      <trkpt lat="45.95134" lon="6.5557">
        <ele>2465</ele>
        <time>2026-02-02T10:04:24Z</time>
      </trkpt>
      <trkpt lat="45.95134" lon="6.5557">
        <ele>2465</ele>
        <time>2026-02-02T10:04:25Z</time>
      </trkpt>
      <trkpt lat="45.95134" lon="6.5557">
        <ele>2465</ele>
        <time>2026-02-02T10:04:26Z</time>
      </trkpt>
      <trkpt lat="45.95134" lon="6.5557">
        <ele>2465</ele>
        <time>2026-02-02T10:04:27Z</time>
      </trkpt>
      <trkpt lat="45.95135" lon="6.55569">
        <ele>2465</ele>
        <time>2026-02-02T10:04:28Z</time>
      </trkpt>
      <trkpt lat="45.95135" lon="6.55569">
        <ele>2465</ele>
        <time>2026-02-02T10:04:30Z</time>
      </trkpt>
      <trkpt lat="45.95135" lon="6.55569">
        <ele>2465</ele>
        <time>2026-02-02T10:04:31Z</time>
      </trkpt>
      <trkpt lat="45.95135" lon="6.55569">
        <ele>2465</ele>
        <time>2026-02-02T10:04:32Z</time>
      </trkpt>
      <trkpt lat="45.95135" lon="6.55569">
        <ele>2465</ele>
        <time>2026-02-02T10:04:33Z</time>
      </trkpt>
      <trkpt lat="45.95135" lon="6.55568">
        <ele>2465</ele>
        <time>2026-02-02T10:04:34Z</time>
      </trkpt>
      <trkpt lat="45.95135" lon="6.55568">
        <ele>2465</ele>
        <time>2026-02-02T10:04:35Z</time>
      </trkpt>
      <trkpt lat="45.95135" lon="6.55568">
        <ele>2465</ele>
        <time>2026-02-02T10:04:36Z</time>
      </trkpt>
      <trkpt lat="45.95134" lon="6.55569">
        <ele>2465</ele>
        <time>2026-02-02T10:04:37Z</time>
      </trkpt>
      <trkpt lat="45.95134" lon="6.55569">
        <ele>2465</ele>
        <time>2026-02-02T10:04:38Z</time>
      </trkpt>
      <trkpt lat="45.95134" lon="6.55569">
        <ele>2465</ele>
        <time>2026-02-02T10:04:39Z</time>
      </trkpt>
      <trkpt lat="45.95134" lon="6.55569">
        <ele>2465</ele>
        <time>2026-02-02T10:04:40Z</time>
      </trkpt>
      <trkpt lat="45.95134" lon="6.55569">
        <ele>2465</ele>
        <time>2026-02-02T10:04:41Z</time>
      </trkpt>
      <trkpt lat="45.95134" lon="6.55569">
        <ele>2465</ele>
        <time>2026-02-02T10:04:42Z</time>
      </trkpt>
      <trkpt lat="45.95134" lon="6.5557">
        <ele>2465</ele>
        <time>2026-02-02T10:04:43Z</time>
      </trkpt>
      <trkpt lat="45.95134" lon="6.5557">
        <ele>2465</ele>
        <time>2026-02-02T10:04:44Z</time>
      </trkpt>
      <trkpt lat="45.95134" lon="6.5557">
        <ele>2465</ele>
        <time>2026-02-02T10:04:45Z</time>
      </trkpt>
      <trkpt lat="45.95134" lon="6.5557">
        <ele>2465</ele>
        <time>2026-02-02T10:04:46Z</time>
      </trkpt>
      <trkpt lat="45.95134" lon="6.5557">
        <ele>2465</ele>
        <time>2026-02-02T10:04:47Z</time>
      </trkpt>
      <trkpt lat="45.95134" lon="6.5557">
        <ele>2465</ele>
        <time>2026-02-02T10:04:48Z</time>
      </trkpt>
      <trkpt lat="45.95134" lon="6.5557">
        <ele>2465</ele>
        <time>2026-02-02T10:04:49Z</time>
      </trkpt>
      <trkpt lat="45.95134" lon="6.5557">
        <ele>2465</ele>
        <time>2026-02-02T10:04:50Z</time>
      </trkpt>
      <trkpt lat="45.95134" lon="6.5557">
        <ele>2465</ele>
        <time>2026-02-02T10:04:51Z</time>
      </trkpt>
      <trkpt lat="45.95134" lon="6.5557">
        <ele>2465</ele>
        <time>2026-02-02T10:04:52Z</time>
      </trkpt>
      <trkpt lat="45.95134" lon="6.5557">
        <ele>2465</ele>
        <time>2026-02-02T10:04:53Z</time>
      </trkpt>
      <trkpt lat="45.95134" lon="6.5557">
        <ele>2465</ele>
        <time>2026-02-02T10:04:54Z</time>
      </trkpt>
      <trkpt lat="45.95134" lon="6.5557">
        <ele>2465</ele>
        <time>2026-02-02T10:04:55Z</time>
      </trkpt>
      <trkpt lat="45.95134" lon="6.5557">
        <ele>2465</ele>
        <time>2026-02-02T10:04:56Z</time>
      </trkpt>
      <trkpt lat="45.95134" lon="6.5557">
        <ele>2465</ele>
        <time>2026-02-02T10:04:57Z</time>
      </trkpt>
      <trkpt lat="45.95134" lon="6.5557">
        <ele>2465</ele>
        <time>2026-02-02T10:04:58Z</time>
      </trkpt>
      <trkpt lat="45.95135" lon="6.5557">
        <ele>2465</ele>
        <time>2026-02-02T10:04:59Z</time>
      </trkpt>
      <trkpt lat="45.95135" lon="6.5557">
        <ele>2465</ele>
        <time>2026-02-02T10:05:00Z</time>
      </trkpt>
      <trkpt lat="45.95135" lon="6.5557">
        <ele>2465</ele>
        <time>2026-02-02T10:05:01Z</time>
      </trkpt>
      <trkpt lat="45.95135" lon="6.55569">
        <ele>2465</ele>
        <time>2026-02-02T10:05:02Z</time>
      </trkpt>
      <trkpt lat="45.95135" lon="6.55569">
        <ele>2465</ele>
        <time>2026-02-02T10:05:03Z</time>
      </trkpt>
      <trkpt lat="45.95135" lon="6.55569">
        <ele>2465</ele>
        <time>2026-02-02T10:05:04Z</time>
      </trkpt>
      <trkpt lat="45.95135" lon="6.55569">
        <ele>2465</ele>
        <time>2026-02-02T10:05:05Z</time>
      </trkpt>
      <trkpt lat="45.95135" lon="6.55569">
        <ele>2465</ele>
        <time>2026-02-02T10:05:06Z</time>
      </trkpt>
      <trkpt lat="45.95135" lon="6.55569">
        <ele>2465</ele>
        <time>2026-02-02T10:05:07Z</time>
      </trkpt>
      <trkpt lat="45.95135" lon="6.55569">
        <ele>2465</ele>
        <time>2026-02-02T10:05:08Z</time>
      </trkpt>
      <trkpt lat="45.95135" lon="6.55568">
        <ele>2465</ele>
        <time>2026-02-02T10:05:09Z</time>
      </trkpt>
      <trkpt lat="45.95135" lon="6.55568">
        <ele>2465</ele>
        <time>2026-02-02T10:05:10Z</time>
      </trkpt>
      <trkpt lat="45.95135" lon="6.55568">
        <ele>2465</ele>
        <time>2026-02-02T10:05:11Z</time>
      </trkpt>
      <trkpt lat="45.95135" lon="6.55568">
        <ele>2465</ele>
        <time>2026-02-02T10:05:12Z</time>
      </trkpt>
      <trkpt lat="45.95135" lon="6.55568">
        <ele>2465</ele>
        <time>2026-02-02T10:05:13Z</time>
      </trkpt>
      <trkpt lat="45.95135" lon="6.55568">
        <ele>2465</ele>
        <time>2026-02-02T10:05:14Z</time>
      </trkpt>
      <trkpt lat="45.95135" lon="6.55568">
        <ele>2465</ele>
        <time>2026-02-02T10:05:15Z</time>
      </trkpt>
      <trkpt lat="45.95135" lon="6.55568">
        <ele>2465</ele>
        <time>2026-02-02T10:05:16Z</time>
      </trkpt>
      <trkpt lat="45.95135" lon="6.55568">
        <ele>2465</ele>
        <time>2026-02-02T10:05:18Z</time>
      </trkpt>
      <trkpt lat="45.95135" lon="6.55568">
        <ele>2465</ele>
        <time>2026-02-02T10:05:19Z</time>
      </trkpt>
      <trkpt lat="45.95135" lon="6.55568">
        <ele>2465</ele>
        <time>2026-02-02T10:05:20Z</time>
      </trkpt>
      <trkpt lat="45.95135" lon="6.55568">
        <ele>2465</ele>
        <time>2026-02-02T10:05:21Z</time>
      </trkpt>
      <trkpt lat="45.95135" lon="6.55568">
        <ele>2465</ele>
        <time>2026-02-02T10:05:22Z</time>
      </trkpt>
      <trkpt lat="45.95135" lon="6.55568">
        <ele>2465</ele>
        <time>2026-02-02T10:05:23Z</time>
      </trkpt>
      <trkpt lat="45.95135" lon="6.55568">
        <ele>2465</ele>
        <time>2026-02-02T10:05:24Z</time>
      </trkpt>
      <trkpt lat="45.95135" lon="6.55568">
        <ele>2465</ele>
        <time>2026-02-02T10:05:25Z</time>
      </trkpt>
      <trkpt lat="45.95135" lon="6.55568">
        <ele>2465</ele>
        <time>2026-02-02T10:05:26Z</time>
      </trkpt>
      <trkpt lat="45.95135" lon="6.55568">
        <ele>2465</ele>
        <time>2026-02-02T10:05:27Z</time>
      </trkpt>
      <trkpt lat="45.95135" lon="6.55568">
        <ele>2465</ele>
        <time>2026-02-02T10:05:28Z</time>
      </trkpt>
      <trkpt lat="45.95135" lon="6.55568">
        <ele>2465</ele>
        <time>2026-02-02T10:05:29Z</time>
      </trkpt>
      <trkpt lat="45.95135" lon="6.55568">
        <ele>2465</ele>
        <time>2026-02-02T10:05:30Z</time>
      </trkpt>
      <trkpt lat="45.95135" lon="6.55568">
        <ele>2465</ele>
        <time>2026-02-02T10:05:31Z</time>
      </trkpt>
      <trkpt lat="45.95135" lon="6.55568">
        <ele>2465</ele>
        <time>2026-02-02T10:05:32Z</time>
      </trkpt>
      <trkpt lat="45.95135" lon="6.55568">
        <ele>2465</ele>
        <time>2026-02-02T10:05:33Z</time>
      </trkpt>
      <trkpt lat="45.95135" lon="6.55568">
        <ele>2465</ele>
        <time>2026-02-02T10:05:34Z</time>
      </trkpt>
      <trkpt lat="45.95135" lon="6.55568">
        <ele>2465</ele>
        <time>2026-02-02T10:05:35Z</time>
      </trkpt>
      <trkpt lat="45.95135" lon="6.55568">
        <ele>2465</ele>
        <time>2026-02-02T10:05:36Z</time>
      </trkpt>
      <trkpt lat="45.95135" lon="6.55568">
        <ele>2465</ele>
        <time>2026-02-02T10:05:37Z</time>
      </trkpt>
      <trkpt lat="45.95135" lon="6.55568">
        <ele>2465</ele>
        <time>2026-02-02T10:05:38Z</time>
      </trkpt>
      <trkpt lat="45.95135" lon="6.55568">
        <ele>2465</ele>
        <time>2026-02-02T10:05:39Z</time>
      </trkpt>
      <trkpt lat="45.95135" lon="6.55568">
        <ele>2465</ele>
        <time>2026-02-02T10:05:40Z</time>
      </trkpt>
      <trkpt lat="45.95135" lon="6.55568">
        <ele>2465</ele>
        <time>2026-02-02T10:05:41Z</time>
      </trkpt>
      <trkpt lat="45.95135" lon="6.55568">
        <ele>2465</ele>
        <time>2026-02-02T10:05:42Z</time>
      </trkpt>
      <trkpt lat="45.95135" lon="6.55568">
        <ele>2465</ele>
        <time>2026-02-02T10:05:43Z</time>
      </trkpt>
      <trkpt lat="45.95135" lon="6.55568">
        <ele>2465</ele>
        <time>2026-02-02T10:05:44Z</time>
      </trkpt>
      <trkpt lat="45.95135" lon="6.55568">
        <ele>2465</ele>
        <time>2026-02-02T10:05:45Z</time>
      </trkpt>
      <trkpt lat="45.95135" lon="6.55569">
        <ele>2465</ele>
        <time>2026-02-02T10:05:46Z</time>
      </trkpt>
      <trkpt lat="45.95135" lon="6.55568">
        <ele>2465</ele>
        <time>2026-02-02T10:05:47Z</time>
      </trkpt>
      <trkpt lat="45.95135" lon="6.55569">
        <ele>2465</ele>
        <time>2026-02-02T10:05:48Z</time>
      </trkpt>
      <trkpt lat="45.95135" lon="6.55569">
        <ele>2465</ele>
        <time>2026-02-02T10:05:49Z</time>
      </trkpt>
      <trkpt lat="45.95135" lon="6.55569">
        <ele>2465</ele>
        <time>2026-02-02T10:05:50Z</time>
      </trkpt>
      <trkpt lat="45.95135" lon="6.55569">
        <ele>2465</ele>
        <time>2026-02-02T10:05:51Z</time>
      </trkpt>
      <trkpt lat="45.95135" lon="6.55569">
        <ele>2465</ele>
        <time>2026-02-02T10:05:52Z</time>
      </trkpt>
      <trkpt lat="45.95135" lon="6.55569">
        <ele>2465</ele>
        <time>2026-02-02T10:05:53Z</time>
      </trkpt>
      <trkpt lat="45.95135" lon="6.55569">
        <ele>2465</ele>
        <time>2026-02-02T10:05:54Z</time>
      </trkpt>
      <trkpt lat="45.95135" lon="6.55569">
        <ele>2465</ele>
        <time>2026-02-02T10:05:55Z</time>
      </trkpt>
      <trkpt lat="45.95135" lon="6.55569">
        <ele>2465</ele>
        <time>2026-02-02T10:05:56Z</time>
      </trkpt>
      <trkpt lat="45.95135" lon="6.55569">
        <ele>2465</ele>
        <time>2026-02-02T10:05:57Z</time>
      </trkpt>
      <trkpt lat="45.95135" lon="6.55569">
        <ele>2465</ele>
        <time>2026-02-02T10:05:58Z</time>
      </trkpt>
      <trkpt lat="45.95135" lon="6.55569">
        <ele>2465</ele>
        <time>2026-02-02T10:05:59Z</time>
      </trkpt>
      <trkpt lat="45.95135" lon="6.55569">
        <ele>2465</ele>
        <time>2026-02-02T10:06:00Z</time>
      </trkpt>
      <trkpt lat="45.95135" lon="6.55569">
        <ele>2465</ele>
        <time>2026-02-02T10:06:02Z</time>
      </trkpt>
      <trkpt lat="45.95135" lon="6.55569">
        <ele>2465</ele>
        <time>2026-02-02T10:06:03Z</time>
      </trkpt>
      <trkpt lat="45.95135" lon="6.55569">
        <ele>2465</ele>
        <time>2026-02-02T10:06:04Z</time>
      </trkpt>
      <trkpt lat="45.95135" lon="6.55569">
        <ele>2465</ele>
        <time>2026-02-02T10:06:05Z</time>
      </trkpt>
      <trkpt lat="45.95135" lon="6.55569">
        <ele>2465</ele>
        <time>2026-02-02T10:06:06Z</time>
      </trkpt>
      <trkpt lat="45.95135" lon="6.55569">
        <ele>2465</ele>
        <time>2026-02-02T10:06:07Z</time>
      </trkpt>
      <trkpt lat="45.95135" lon="6.55569">
        <ele>2465</ele>
        <time>2026-02-02T10:06:08Z</time>
      </trkpt>
      <trkpt lat="45.95135" lon="6.55569">
        <ele>2465</ele>
        <time>2026-02-02T10:06:09Z</time>
      </trkpt>
      <trkpt lat="45.95135" lon="6.55569">
        <ele>2465</ele>
        <time>2026-02-02T10:06:10Z</time>
      </trkpt>
      <trkpt lat="45.95135" lon="6.55569">
        <ele>2465</ele>
        <time>2026-02-02T10:06:11Z</time>
      </trkpt>
      <trkpt lat="45.95135" lon="6.55568">
        <ele>2465</ele>
        <time>2026-02-02T10:06:12Z</time>
      </trkpt>
      <trkpt lat="45.95135" lon="6.55568">
        <ele>2465</ele>
        <time>2026-02-02T10:06:13Z</time>
      </trkpt>
      <trkpt lat="45.95135" lon="6.55568">
        <ele>2465</ele>
        <time>2026-02-02T10:06:14Z</time>
      </trkpt>
      <trkpt lat="45.95135" lon="6.55568">
        <ele>2465</ele>
        <time>2026-02-02T10:06:15Z</time>
      </trkpt>
      <trkpt lat="45.95135" lon="6.55569">
        <ele>2465</ele>
        <time>2026-02-02T10:06:16Z</time>
      </trkpt>
      <trkpt lat="45.95134" lon="6.55569">
        <ele>2465</ele>
        <time>2026-02-02T10:06:17Z</time>
      </trkpt>
      <trkpt lat="45.95134" lon="6.55569">
        <ele>2465</ele>
        <time>2026-02-02T10:06:18Z</time>
      </trkpt>
      <trkpt lat="45.95134" lon="6.55569">
        <ele>2465</ele>
        <time>2026-02-02T10:06:19Z</time>
      </trkpt>
      <trkpt lat="45.95134" lon="6.55569">
        <ele>2465</ele>
        <time>2026-02-02T10:06:20Z</time>
      </trkpt>
      <trkpt lat="45.95135" lon="6.55569">
        <ele>2465</ele>
        <time>2026-02-02T10:06:21Z</time>
      </trkpt>
      <trkpt lat="45.95135" lon="6.55569">
        <ele>2465</ele>
        <time>2026-02-02T10:06:22Z</time>
      </trkpt>
      <trkpt lat="45.95135" lon="6.55569">
        <ele>2465</ele>
        <time>2026-02-02T10:06:23Z</time>
      </trkpt>
      <trkpt lat="45.95135" lon="6.55569">
        <ele>2465</ele>
        <time>2026-02-02T10:06:24Z</time>
      </trkpt>
      <trkpt lat="45.95135" lon="6.55569">
        <ele>2465</ele>
        <time>2026-02-02T10:06:25Z</time>
      </trkpt>
      <trkpt lat="45.95135" lon="6.55569">
        <ele>2465</ele>
        <time>2026-02-02T10:06:26Z</time>
      </trkpt>
      <trkpt lat="45.95134" lon="6.55569">
        <ele>2465</ele>
        <time>2026-02-02T10:06:27Z</time>
      </trkpt>
      <trkpt lat="45.95134" lon="6.55569">
        <ele>2465</ele>
        <time>2026-02-02T10:06:28Z</time>
      </trkpt>
      <trkpt lat="45.95134" lon="6.55569">
        <ele>2465</ele>
        <time>2026-02-02T10:06:29Z</time>
      </trkpt>
      <trkpt lat="45.95134" lon="6.55569">
        <ele>2465</ele>
        <time>2026-02-02T10:06:30Z</time>
      </trkpt>
      <trkpt lat="45.95134" lon="6.55569">
        <ele>2465</ele>
        <time>2026-02-02T10:06:31Z</time>
      </trkpt>
      <trkpt lat="45.95134" lon="6.55569">
        <ele>2465</ele>
        <time>2026-02-02T10:06:32Z</time>
      </trkpt>
      <trkpt lat="45.95134" lon="6.55569">
        <ele>2465</ele>
        <time>2026-02-02T10:06:33Z</time>
      </trkpt>
      <trkpt lat="45.95134" lon="6.55569">
        <ele>2465</ele>
        <time>2026-02-02T10:06:34Z</time>
      </trkpt>
      <trkpt lat="45.95134" lon="6.55569">
        <ele>2465</ele>
        <time>2026-02-02T10:06:35Z</time>
      </trkpt>
      <trkpt lat="45.95134" lon="6.55569">
        <ele>2465</ele>
        <time>2026-02-02T10:06:36Z</time>
      </trkpt>
      <trkpt lat="45.95134" lon="6.55569">
        <ele>2465</ele>
        <time>2026-02-02T10:06:37Z</time>
      </trkpt>
      <trkpt lat="45.95134" lon="6.55569">
        <ele>2465</ele>
        <time>2026-02-02T10:06:38Z</time>
      </trkpt>
      <trkpt lat="45.95134" lon="6.55569">
        <ele>2465</ele>
        <time>2026-02-02T10:06:39Z</time>
      </trkpt>
      <trkpt lat="45.95134" lon="6.55569">
        <ele>2465</ele>
        <time>2026-02-02T10:06:40Z</time>
      </trkpt>
      <trkpt lat="45.95134" lon="6.55569">
        <ele>2465</ele>
        <time>2026-02-02T10:06:41Z</time>
      </trkpt>
      <trkpt lat="45.95134" lon="6.55569">
        <ele>2465</ele>
        <time>2026-02-02T10:06:42Z</time>
      </trkpt>
      <trkpt lat="45.95134" lon="6.55569">
        <ele>2465</ele>
        <time>2026-02-02T10:06:43Z</time>
      </trkpt>
      <trkpt lat="45.95134" lon="6.55568">
        <ele>2465</ele>
        <time>2026-02-02T10:06:44Z</time>
      </trkpt>
      <trkpt lat="45.95134" lon="6.55568">
        <ele>2465</ele>
        <time>2026-02-02T10:06:45Z</time>
      </trkpt>
      <trkpt lat="45.95134" lon="6.55568">
        <ele>2465</ele>
        <time>2026-02-02T10:06:46Z</time>
      </trkpt>
      <trkpt lat="45.95134" lon="6.55569">
        <ele>2465</ele>
        <time>2026-02-02T10:06:47Z</time>
      </trkpt>
      <trkpt lat="45.95134" lon="6.55569">
        <ele>2465</ele>
        <time>2026-02-02T10:06:48Z</time>
      </trkpt>
      <trkpt lat="45.95134" lon="6.55569">
        <ele>2465</ele>
        <time>2026-02-02T10:06:49Z</time>
      </trkpt>
      <trkpt lat="45.95134" lon="6.55569">
        <ele>2465</ele>
        <time>2026-02-02T10:06:50Z</time>
      </trkpt>
      <trkpt lat="45.95134" lon="6.55569">
        <ele>2465</ele>
        <time>2026-02-02T10:06:51Z</time>
      </trkpt>
      <trkpt lat="45.95134" lon="6.55569">
        <ele>2465</ele>
        <time>2026-02-02T10:06:52Z</time>
      </trkpt>
      <trkpt lat="45.95134" lon="6.55569">
        <ele>2465</ele>
        <time>2026-02-02T10:06:53Z</time>
      </trkpt>
      <trkpt lat="45.95134" lon="6.55569">
        <ele>2465</ele>
        <time>2026-02-02T10:06:54Z</time>
      </trkpt>
      <trkpt lat="45.95134" lon="6.55569">
        <ele>2465</ele>
        <time>2026-02-02T10:06:55Z</time>
      </trkpt>
      <trkpt lat="45.95134" lon="6.55569">
        <ele>2465</ele>
        <time>2026-02-02T10:06:56Z</time>
      </trkpt>
      <trkpt lat="45.95134" lon="6.55569">
        <ele>2465</ele>
        <time>2026-02-02T10:06:57Z</time>
      </trkpt>
      <trkpt lat="45.95134" lon="6.55569">
        <ele>2465</ele>
        <time>2026-02-02T10:06:58Z</time>
      </trkpt>
      <trkpt lat="45.95134" lon="6.55569">
        <ele>2465</ele>
        <time>2026-02-02T10:06:59Z</time>
      </trkpt>
      <trkpt lat="45.95134" lon="6.55568">
        <ele>2465</ele>
        <time>2026-02-02T10:07:00Z</time>
      </trkpt>
      <trkpt lat="45.95134" lon="6.55569">
        <ele>2465</ele>
        <time>2026-02-02T10:07:01Z</time>
      </trkpt>
      <trkpt lat="45.95134" lon="6.55568">
        <ele>2465</ele>
        <time>2026-02-02T10:07:02Z</time>
      </trkpt>
      <trkpt lat="45.95134" lon="6.55568">
        <ele>2465</ele>
        <time>2026-02-02T10:07:03Z</time>
      </trkpt>
      <trkpt lat="45.95134" lon="6.55568">
        <ele>2465</ele>
        <time>2026-02-02T10:07:04Z</time>
      </trkpt>
      <trkpt lat="45.95134" lon="6.55568">
        <ele>2465</ele>
        <time>2026-02-02T10:07:05Z</time>
      </trkpt>
      <trkpt lat="45.95134" lon="6.55568">
        <ele>2465</ele>
        <time>2026-02-02T10:07:06Z</time>
      </trkpt>
      <trkpt lat="45.95134" lon="6.55568">
        <ele>2465</ele>
        <time>2026-02-02T10:07:07Z</time>
      </trkpt>
      <trkpt lat="45.95134" lon="6.55568">
        <ele>2465</ele>
        <time>2026-02-02T10:07:08Z</time>
      </trkpt>
      <trkpt lat="45.95134" lon="6.55568">
        <ele>2465</ele>
        <time>2026-02-02T10:07:09Z</time>
      </trkpt>
      <trkpt lat="45.95134" lon="6.55568">
        <ele>2465</ele>
        <time>2026-02-02T10:07:10Z</time>
      </trkpt>
      <trkpt lat="45.95134" lon="6.55568">
        <ele>2465</ele>
        <time>2026-02-02T10:07:11Z</time>
      </trkpt>
      <trkpt lat="45.95134" lon="6.55568">
        <ele>2465</ele>
        <time>2026-02-02T10:07:12Z</time>
      </trkpt>
      <trkpt lat="45.95134" lon="6.55568">
        <ele>2465</ele>
        <time>2026-02-02T10:07:13Z</time>
      </trkpt>
      <trkpt lat="45.95135" lon="6.55568">
        <ele>2465</ele>
        <time>2026-02-02T10:07:14Z</time>
      </trkpt>
      <trkpt lat="45.95135" lon="6.55568">
        <ele>2465</ele>
        <time>2026-02-02T10:07:15Z</time>
      </trkpt>
      <trkpt lat="45.95134" lon="6.55568">
        <ele>2465</ele>
        <time>2026-02-02T10:07:16Z</time>
      </trkpt>
      <trkpt lat="45.95135" lon="6.55568">
        <ele>2465</ele>
        <time>2026-02-02T10:07:17Z</time>
      </trkpt>
      <trkpt lat="45.95135" lon="6.55568">
        <ele>2465</ele>
        <time>2026-02-02T10:07:18Z</time>
      </trkpt>
      <trkpt lat="45.95135" lon="6.55568">
        <ele>2465</ele>
        <time>2026-02-02T10:07:19Z</time>
      </trkpt>
      <trkpt lat="45.95135" lon="6.55568">
        <ele>2465</ele>
        <time>2026-02-02T10:07:20Z</time>
      </trkpt>
      <trkpt lat="45.95135" lon="6.55568">
        <ele>2465</ele>
        <time>2026-02-02T10:07:21Z</time>
      </trkpt>
      <trkpt lat="45.95135" lon="6.55568">
        <ele>2465</ele>
        <time>2026-02-02T10:07:22Z</time>
      </trkpt>
      <trkpt lat="45.95135" lon="6.55568">
        <ele>2465</ele>
        <time>2026-02-02T10:07:23Z</time>
      </trkpt>
      <trkpt lat="45.95135" lon="6.55568">
        <ele>2465</ele>
        <time>2026-02-02T10:07:24Z</time>
      </trkpt>
      <trkpt lat="45.95135" lon="6.55568">
        <ele>2465</ele>
        <time>2026-02-02T10:07:25Z</time>
      </trkpt>
      <trkpt lat="45.95135" lon="6.55568">
        <ele>2465</ele>
        <time>2026-02-02T10:07:26Z</time>
      </trkpt>
      <trkpt lat="45.95135" lon="6.55568">
        <ele>2465</ele>
        <time>2026-02-02T10:07:27Z</time>
      </trkpt>
      <trkpt lat="45.95135" lon="6.55568">
        <ele>2465</ele>
        <time>2026-02-02T10:07:28Z</time>
      </trkpt>
      <trkpt lat="45.95135" lon="6.55568">
        <ele>2465</ele>
        <time>2026-02-02T10:07:29Z</time>
      </trkpt>
      <trkpt lat="45.95135" lon="6.55568">
        <ele>2465</ele>
        <time>2026-02-02T10:07:30Z</time>
      </trkpt>
      <trkpt lat="45.95135" lon="6.55568">
        <ele>2465</ele>
        <time>2026-02-02T10:07:31Z</time>
      </trkpt>
      <trkpt lat="45.95135" lon="6.55568">
        <ele>2465</ele>
        <time>2026-02-02T10:07:32Z</time>
      </trkpt>
      <trkpt lat="45.95135" lon="6.55568">
        <ele>2465</ele>
        <time>2026-02-02T10:07:33Z</time>
      </trkpt>
      <trkpt lat="45.95135" lon="6.55568">
        <ele>2465</ele>
        <time>2026-02-02T10:07:34Z</time>
      </trkpt>
      <trkpt lat="45.95135" lon="6.55568">
        <ele>2465</ele>
        <time>2026-02-02T10:07:35Z</time>
      </trkpt>
      <trkpt lat="45.95135" lon="6.55568">
        <ele>2465</ele>
        <time>2026-02-02T10:07:36Z</time>
      </trkpt>
      <trkpt lat="45.95135" lon="6.55568">
        <ele>2465</ele>
        <time>2026-02-02T10:07:37Z</time>
      </trkpt>
      <trkpt lat="45.95135" lon="6.55568">
        <ele>2465</ele>
        <time>2026-02-02T10:07:38Z</time>
      </trkpt>
      <trkpt lat="45.95135" lon="6.55568">
        <ele>2465</ele>
        <time>2026-02-02T10:07:39Z</time>
      </trkpt>
      <trkpt lat="45.95135" lon="6.55568">
        <ele>2465</ele>
        <time>2026-02-02T10:07:40Z</time>
      </trkpt>
      <trkpt lat="45.95135" lon="6.55568">
        <ele>2465</ele>
        <time>2026-02-02T10:07:41Z</time>
      </trkpt>
      <trkpt lat="45.95135" lon="6.55568">
        <ele>2465</ele>
        <time>2026-02-02T10:07:42Z</time>
      </trkpt>
      <trkpt lat="45.95135" lon="6.55568">
        <ele>2465</ele>
        <time>2026-02-02T10:07:43Z</time>
      </trkpt>
      <trkpt lat="45.95135" lon="6.55568">
        <ele>2465</ele>
        <time>2026-02-02T10:07:44Z</time>
      </trkpt>
      <trkpt lat="45.95135" lon="6.55568">
        <ele>2465</ele>
        <time>2026-02-02T10:07:45Z</time>
      </trkpt>
      <trkpt lat="45.95135" lon="6.55568">
        <ele>2465</ele>
        <time>2026-02-02T10:07:46Z</time>
      </trkpt>
      <trkpt lat="45.95135" lon="6.55568">
        <ele>2465</ele>
        <time>2026-02-02T10:07:47Z</time>
      </trkpt>
      <trkpt lat="45.95134" lon="6.55568">
        <ele>2465</ele>
        <time>2026-02-02T10:07:48Z</time>
      </trkpt>
      <trkpt lat="45.95134" lon="6.55568">
        <ele>2465</ele>
        <time>2026-02-02T10:07:49Z</time>
      </trkpt>
      <trkpt lat="45.95134" lon="6.55568">
        <ele>2465</ele>
        <time>2026-02-02T10:07:50Z</time>
      </trkpt>
      <trkpt lat="45.95134" lon="6.55568">
        <ele>2465</ele>
        <time>2026-02-02T10:07:51Z</time>
      </trkpt>
      <trkpt lat="45.95134" lon="6.55568">
        <ele>2465</ele>
        <time>2026-02-02T10:07:52Z</time>
      </trkpt>
      <trkpt lat="45.95134" lon="6.55568">
        <ele>2465</ele>
        <time>2026-02-02T10:07:53Z</time>
      </trkpt>
      <trkpt lat="45.95134" lon="6.55568">
        <ele>2465</ele>
        <time>2026-02-02T10:07:54Z</time>
      </trkpt>
      <trkpt lat="45.95134" lon="6.55568">
        <ele>2465</ele>
        <time>2026-02-02T10:07:55Z</time>
      </trkpt>
      <trkpt lat="45.95134" lon="6.55568">
        <ele>2465</ele>
        <time>2026-02-02T10:07:56Z</time>
      </trkpt>
      <trkpt lat="45.95134" lon="6.55568">
        <ele>2465</ele>
        <time>2026-02-02T10:07:57Z</time>
      </trkpt>
      <trkpt lat="45.95134" lon="6.55568">
        <ele>2465</ele>
        <time>2026-02-02T10:07:58Z</time>
      </trkpt>
      <trkpt lat="45.95134" lon="6.55568">
        <ele>2465</ele>
        <time>2026-02-02T10:07:59Z</time>
      </trkpt>
      <trkpt lat="45.95134" lon="6.55567">
        <ele>2465</ele>
        <time>2026-02-02T10:08:00Z</time>
      </trkpt>
      <trkpt lat="45.95134" lon="6.55567">
        <ele>2465</ele>
        <time>2026-02-02T10:08:01Z</time>
      </trkpt>
      <trkpt lat="45.95134" lon="6.55567">
        <ele>2465</ele>
        <time>2026-02-02T10:08:02Z</time>
      </trkpt>
      <trkpt lat="45.95134" lon="6.55567">
        <ele>2465</ele>
        <time>2026-02-02T10:08:03Z</time>
      </trkpt>
      <trkpt lat="45.95134" lon="6.55567">
        <ele>2465</ele>
        <time>2026-02-02T10:08:04Z</time>
      </trkpt>
      <trkpt lat="45.95134" lon="6.55566">
        <ele>2465</ele>
        <time>2026-02-02T10:08:05Z</time>
      </trkpt>
      <trkpt lat="45.95134" lon="6.55566">
        <ele>2465</ele>
        <time>2026-02-02T10:08:06Z</time>
      </trkpt>
      <trkpt lat="45.95134" lon="6.55566">
        <ele>2465</ele>
        <time>2026-02-02T10:08:07Z</time>
      </trkpt>
      <trkpt lat="45.95134" lon="6.55566">
        <ele>2465</ele>
        <time>2026-02-02T10:08:08Z</time>
      </trkpt>
      <trkpt lat="45.95134" lon="6.55566">
        <ele>2467.4</ele>
        <time>2026-02-02T10:08:09Z</time>
      </trkpt>
      <trkpt lat="45.95134" lon="6.55566">
        <ele>2467.4</ele>
        <time>2026-02-02T10:08:10Z</time>
      </trkpt>
      <trkpt lat="45.95134" lon="6.55566">
        <ele>2467.4</ele>
        <time>2026-02-02T10:08:11Z</time>
      </trkpt>
      <trkpt lat="45.95134" lon="6.55566">
        <ele>2467.4</ele>
        <time>2026-02-02T10:08:12Z</time>
      </trkpt>
      <trkpt lat="45.95134" lon="6.55566">
        <ele>2467.4</ele>
        <time>2026-02-02T10:08:13Z</time>
      </trkpt>
      <trkpt lat="45.95134" lon="6.55566">
        <ele>2467.4</ele>
        <time>2026-02-02T10:08:14Z</time>
      </trkpt>
      <trkpt lat="45.95134" lon="6.55566">
        <ele>2467.4</ele>
        <time>2026-02-02T10:08:15Z</time>
      </trkpt>
      <trkpt lat="45.95134" lon="6.55565">
        <ele>2467.4</ele>
        <time>2026-02-02T10:08:16Z</time>
      </trkpt>
      <trkpt lat="45.95134" lon="6.55565">
        <ele>2467.4</ele>
        <time>2026-02-02T10:08:17Z</time>
      </trkpt>
      <trkpt lat="45.95134" lon="6.55565">
        <ele>2467.4</ele>
        <time>2026-02-02T10:08:18Z</time>
      </trkpt>
      <trkpt lat="45.95134" lon="6.55565">
        <ele>2467.4</ele>
        <time>2026-02-02T10:08:19Z</time>
      </trkpt>
      <trkpt lat="45.95134" lon="6.55565">
        <ele>2467.4</ele>
        <time>2026-02-02T10:08:20Z</time>
      </trkpt>
      <trkpt lat="45.95134" lon="6.55565">
        <ele>2467.4</ele>
        <time>2026-02-02T10:08:21Z</time>
      </trkpt>
      <trkpt lat="45.95134" lon="6.55565">
        <ele>2467.4</ele>
        <time>2026-02-02T10:08:22Z</time>
      </trkpt>
      <trkpt lat="45.95134" lon="6.55565">
        <ele>2467.4</ele>
        <time>2026-02-02T10:08:23Z</time>
      </trkpt>
      <trkpt lat="45.95134" lon="6.55565">
        <ele>2467.4</ele>
        <time>2026-02-02T10:08:24Z</time>
      </trkpt>
      <trkpt lat="45.95134" lon="6.55565">
        <ele>2467.4</ele>
        <time>2026-02-02T10:08:25Z</time>
      </trkpt>
      <trkpt lat="45.95134" lon="6.55565">
        <ele>2467.4</ele>
        <time>2026-02-02T10:08:26Z</time>
      </trkpt>
      <trkpt lat="45.95134" lon="6.55565">
        <ele>2467.4</ele>
        <time>2026-02-02T10:08:27Z</time>
      </trkpt>
      <trkpt lat="45.95134" lon="6.55566">
        <ele>2467.4</ele>
        <time>2026-02-02T10:08:28Z</time>
      </trkpt>
      <trkpt lat="45.95134" lon="6.55566">
        <ele>2467.4</ele>
        <time>2026-02-02T10:08:29Z</time>
      </trkpt>
      <trkpt lat="45.95134" lon="6.55566">
        <ele>2467.4</ele>
        <time>2026-02-02T10:08:30Z</time>
      </trkpt>
      <trkpt lat="45.95134" lon="6.55566">
        <ele>2467.4</ele>
        <time>2026-02-02T10:08:31Z</time>
      </trkpt>
      <trkpt lat="45.95135" lon="6.55566">
        <ele>2467.4</ele>
        <time>2026-02-02T10:08:32Z</time>
      </trkpt>
      <trkpt lat="45.95135" lon="6.55566">
        <ele>2467.4</ele>
        <time>2026-02-02T10:08:33Z</time>
      </trkpt>
      <trkpt lat="45.95135" lon="6.55566">
        <ele>2467.4</ele>
        <time>2026-02-02T10:08:34Z</time>
      </trkpt>
      <trkpt lat="45.95134" lon="6.55566">
        <ele>2467.4</ele>
        <time>2026-02-02T10:08:35Z</time>
      </trkpt>
      <trkpt lat="45.95135" lon="6.55566">
        <ele>2467.4</ele>
        <time>2026-02-02T10:08:36Z</time>
      </trkpt>
      <trkpt lat="45.95134" lon="6.55566">
        <ele>2467.4</ele>
        <time>2026-02-02T10:08:37Z</time>
      </trkpt>
      <trkpt lat="45.95134" lon="6.55566">
        <ele>2467.4</ele>
        <time>2026-02-02T10:08:38Z</time>
      </trkpt>
      <trkpt lat="45.95135" lon="6.55565">
        <ele>2467.4</ele>
        <time>2026-02-02T10:08:39Z</time>
      </trkpt>
      <trkpt lat="45.95135" lon="6.55565">
        <ele>2467.4</ele>
        <time>2026-02-02T10:08:40Z</time>
      </trkpt>
      <trkpt lat="45.95135" lon="6.55565">
        <ele>2467.4</ele>
        <time>2026-02-02T10:08:41Z</time>
      </trkpt>
      <trkpt lat="45.95135" lon="6.55565">
        <ele>2467.4</ele>
        <time>2026-02-02T10:08:42Z</time>
      </trkpt>
      <trkpt lat="45.95135" lon="6.55565">
        <ele>2467.4</ele>
        <time>2026-02-02T10:08:43Z</time>
      </trkpt>
      <trkpt lat="45.95135" lon="6.55565">
        <ele>2467.4</ele>
        <time>2026-02-02T10:08:44Z</time>
      </trkpt>
      <trkpt lat="45.95135" lon="6.55565">
        <ele>2467.4</ele>
        <time>2026-02-02T10:08:45Z</time>
      </trkpt>
      <trkpt lat="45.95135" lon="6.55565">
        <ele>2467.4</ele>
        <time>2026-02-02T10:08:46Z</time>
      </trkpt>
      <trkpt lat="45.95135" lon="6.55565">
        <ele>2467.4</ele>
        <time>2026-02-02T10:08:47Z</time>
      </trkpt>
      <trkpt lat="45.95135" lon="6.55565">
        <ele>2467.4</ele>
        <time>2026-02-02T10:08:48Z</time>
      </trkpt>
      <trkpt lat="45.95135" lon="6.55565">
        <ele>2467.4</ele>
        <time>2026-02-02T10:08:49Z</time>
      </trkpt>
      <trkpt lat="45.95135" lon="6.55565">
        <ele>2467.4</ele>
        <time>2026-02-02T10:08:50Z</time>
      </trkpt>
      <trkpt lat="45.95135" lon="6.55565">
        <ele>2467.4</ele>
        <time>2026-02-02T10:08:51Z</time>
      </trkpt>
      <trkpt lat="45.95135" lon="6.55565">
        <ele>2467.4</ele>
        <time>2026-02-02T10:08:52Z</time>
      </trkpt>
      <trkpt lat="45.95135" lon="6.55565">
        <ele>2467.4</ele>
        <time>2026-02-02T10:08:53Z</time>
      </trkpt>
      <trkpt lat="45.95135" lon="6.55565">
        <ele>2467.4</ele>
        <time>2026-02-02T10:08:54Z</time>
      </trkpt>
      <trkpt lat="45.95135" lon="6.55565">
        <ele>2467.4</ele>
        <time>2026-02-02T10:08:55Z</time>
      </trkpt>
      <trkpt lat="45.95135" lon="6.55565">
        <ele>2467.4</ele>
        <time>2026-02-02T10:08:56Z</time>
      </trkpt>
      <trkpt lat="45.95135" lon="6.55565">
        <ele>2467.4</ele>
        <time>2026-02-02T10:08:57Z</time>
      </trkpt>
      <trkpt lat="45.95135" lon="6.55565">
        <ele>2467.4</ele>
        <time>2026-02-02T10:08:58Z</time>
      </trkpt>
      <trkpt lat="45.95135" lon="6.55564">
        <ele>2467.4</ele>
        <time>2026-02-02T10:08:59Z</time>
      </trkpt>
      <trkpt lat="45.95135" lon="6.55564">
        <ele>2467.4</ele>
        <time>2026-02-02T10:09:00Z</time>
      </trkpt>
      <trkpt lat="45.95135" lon="6.55564">
        <ele>2467.4</ele>
        <time>2026-02-02T10:09:01Z</time>
      </trkpt>
      <trkpt lat="45.95135" lon="6.55564">
        <ele>2467.4</ele>
        <time>2026-02-02T10:09:02Z</time>
      </trkpt>
      <trkpt lat="45.95135" lon="6.55564">
        <ele>2467.4</ele>
        <time>2026-02-02T10:09:03Z</time>
      </trkpt>
      <trkpt lat="45.95136" lon="6.55564">
        <ele>2467.4</ele>
        <time>2026-02-02T10:09:04Z</time>
      </trkpt>
      <trkpt lat="45.95136" lon="6.55564">
        <ele>2467.4</ele>
        <time>2026-02-02T10:09:05Z</time>
      </trkpt>
      <trkpt lat="45.95136" lon="6.55564">
        <ele>2467.4</ele>
        <time>2026-02-02T10:09:06Z</time>
      </trkpt>
      <trkpt lat="45.95136" lon="6.55564">
        <ele>2468.6</ele>
        <time>2026-02-02T10:09:07Z</time>
      </trkpt>
      <trkpt lat="45.95136" lon="6.55563">
        <ele>2468.6</ele>
        <time>2026-02-02T10:09:08Z</time>
      </trkpt>
      <trkpt lat="45.95136" lon="6.55563">
        <ele>2468.6</ele>
        <time>2026-02-02T10:09:09Z</time>
      </trkpt>
      <trkpt lat="45.95137" lon="6.55563">
        <ele>2468.6</ele>
        <time>2026-02-02T10:09:10Z</time>
      </trkpt>
      <trkpt lat="45.95137" lon="6.55563">
        <ele>2468.6</ele>
        <time>2026-02-02T10:09:11Z</time>
      </trkpt>
      <trkpt lat="45.95137" lon="6.55563">
        <ele>2468.6</ele>
        <time>2026-02-02T10:09:12Z</time>
      </trkpt>
      <trkpt lat="45.95137" lon="6.55563">
        <ele>2468.6</ele>
        <time>2026-02-02T10:09:13Z</time>
      </trkpt>
      <trkpt lat="45.95137" lon="6.55563">
        <ele>2468.6</ele>
        <time>2026-02-02T10:09:14Z</time>
      </trkpt>
      <trkpt lat="45.95137" lon="6.55562">
        <ele>2468.6</ele>
        <time>2026-02-02T10:09:15Z</time>
      </trkpt>
      <trkpt lat="45.95138" lon="6.55562">
        <ele>2468.6</ele>
        <time>2026-02-02T10:09:16Z</time>
      </trkpt>
      <trkpt lat="45.95138" lon="6.55562">
        <ele>2468.6</ele>
        <time>2026-02-02T10:09:17Z</time>
      </trkpt>
      <trkpt lat="45.95138" lon="6.55562">
        <ele>2468.6</ele>
        <time>2026-02-02T10:09:18Z</time>
      </trkpt>
      <trkpt lat="45.95138" lon="6.55562">
        <ele>2468.6</ele>
        <time>2026-02-02T10:09:19Z</time>
      </trkpt>
      <trkpt lat="45.95138" lon="6.55562">
        <ele>2468.6</ele>
        <time>2026-02-02T10:09:20Z</time>
      </trkpt>
      <trkpt lat="45.95138" lon="6.55562">
        <ele>2468.6</ele>
        <time>2026-02-02T10:09:21Z</time>
      </trkpt>
      <trkpt lat="45.95138" lon="6.55562">
        <ele>2468.6</ele>
        <time>2026-02-02T10:09:22Z</time>
      </trkpt>
      <trkpt lat="45.95138" lon="6.55562">
        <ele>2470.9</ele>
        <time>2026-02-02T10:09:23Z</time>
      </trkpt>
      <trkpt lat="45.95139" lon="6.55562">
        <ele>2470.9</ele>
        <time>2026-02-02T10:09:24Z</time>
      </trkpt>
      <trkpt lat="45.95139" lon="6.55562">
        <ele>2470.9</ele>
        <time>2026-02-02T10:09:25Z</time>
      </trkpt>
      <trkpt lat="45.95139" lon="6.55562">
        <ele>2472.1</ele>
        <time>2026-02-02T10:09:26Z</time>
      </trkpt>
      <trkpt lat="45.95139" lon="6.55561">
        <ele>2472.1</ele>
        <time>2026-02-02T10:09:27Z</time>
      </trkpt>
      <trkpt lat="45.95139" lon="6.55561">
        <ele>2472.1</ele>
        <time>2026-02-02T10:09:28Z</time>
      </trkpt>
      <trkpt lat="45.95139" lon="6.55561">
        <ele>2472.1</ele>
        <time>2026-02-02T10:09:29Z</time>
      </trkpt>
      <trkpt lat="45.95139" lon="6.55561">
        <ele>2472.1</ele>
        <time>2026-02-02T10:09:30Z</time>
      </trkpt>
      <trkpt lat="45.95139" lon="6.55562">
        <ele>2472.1</ele>
        <time>2026-02-02T10:09:31Z</time>
      </trkpt>
      <trkpt lat="45.95139" lon="6.55562">
        <ele>2472.1</ele>
        <time>2026-02-02T10:09:32Z</time>
      </trkpt>
      <trkpt lat="45.95139" lon="6.55562">
        <ele>2472.1</ele>
        <time>2026-02-02T10:09:33Z</time>
      </trkpt>
      <trkpt lat="45.95139" lon="6.55562">
        <ele>2472.1</ele>
        <time>2026-02-02T10:09:34Z</time>
      </trkpt>
      <trkpt lat="45.95139" lon="6.55562">
        <ele>2472.1</ele>
        <time>2026-02-02T10:09:35Z</time>
      </trkpt>
      <trkpt lat="45.95139" lon="6.55562">
        <ele>2472.1</ele>
        <time>2026-02-02T10:09:36Z</time>
      </trkpt>
      <trkpt lat="45.95139" lon="6.55562">
        <ele>2470.9</ele>
        <time>2026-02-02T10:09:37Z</time>
      </trkpt>
      <trkpt lat="45.95139" lon="6.55562">
        <ele>2470.9</ele>
        <time>2026-02-02T10:09:38Z</time>
      </trkpt>
      <trkpt lat="45.95139" lon="6.55562">
        <ele>2470.9</ele>
        <time>2026-02-02T10:09:39Z</time>
      </trkpt>
      <trkpt lat="45.95139" lon="6.55562">
        <ele>2470.9</ele>
        <time>2026-02-02T10:09:40Z</time>
      </trkpt>
      <trkpt lat="45.95139" lon="6.55562">
        <ele>2470.9</ele>
        <time>2026-02-02T10:09:41Z</time>
      </trkpt>
      <trkpt lat="45.95139" lon="6.55562">
        <ele>2470.9</ele>
        <time>2026-02-02T10:09:42Z</time>
      </trkpt>
      <trkpt lat="45.95139" lon="6.55562">
        <ele>2470.9</ele>
        <time>2026-02-02T10:09:43Z</time>
      </trkpt>
      <trkpt lat="45.95139" lon="6.55562">
        <ele>2470.9</ele>
        <time>2026-02-02T10:09:44Z</time>
      </trkpt>
      <trkpt lat="45.95139" lon="6.55562">
        <ele>2470.9</ele>
        <time>2026-02-02T10:09:45Z</time>
      </trkpt>
      <trkpt lat="45.95139" lon="6.55562">
        <ele>2470.9</ele>
        <time>2026-02-02T10:09:46Z</time>
      </trkpt>
      <trkpt lat="45.95139" lon="6.55562">
        <ele>2468.6</ele>
        <time>2026-02-02T10:09:47Z</time>
      </trkpt>
      <trkpt lat="45.95139" lon="6.55562">
        <ele>2468.6</ele>
        <time>2026-02-02T10:09:48Z</time>
      </trkpt>
      <trkpt lat="45.95139" lon="6.55562">
        <ele>2469.7</ele>
        <time>2026-02-02T10:09:49Z</time>
      </trkpt>
      <trkpt lat="45.95139" lon="6.55562">
        <ele>2469.7</ele>
        <time>2026-02-02T10:09:50Z</time>
      </trkpt>
      <trkpt lat="45.95139" lon="6.55562">
        <ele>2469.7</ele>
        <time>2026-02-02T10:09:51Z</time>
      </trkpt>
      <trkpt lat="45.95139" lon="6.55562">
        <ele>2469.7</ele>
        <time>2026-02-02T10:09:52Z</time>
      </trkpt>
      <trkpt lat="45.95139" lon="6.55562">
        <ele>2469.7</ele>
        <time>2026-02-02T10:09:53Z</time>
      </trkpt>
      <trkpt lat="45.9514" lon="6.55562">
        <ele>2469.7</ele>
        <time>2026-02-02T10:09:54Z</time>
      </trkpt>
      <trkpt lat="45.9514" lon="6.55562">
        <ele>2472.1</ele>
        <time>2026-02-02T10:09:55Z</time>
      </trkpt>
      <trkpt lat="45.9514" lon="6.55562">
        <ele>2472.1</ele>
        <time>2026-02-02T10:09:56Z</time>
      </trkpt>
      <trkpt lat="45.9514" lon="6.55562">
        <ele>2472.1</ele>
        <time>2026-02-02T10:09:57Z</time>
      </trkpt>
      <trkpt lat="45.9514" lon="6.55562">
        <ele>2472.1</ele>
        <time>2026-02-02T10:09:58Z</time>
      </trkpt>
      <trkpt lat="45.9514" lon="6.55561">
        <ele>2472.1</ele>
        <time>2026-02-02T10:09:59Z</time>
      </trkpt>
      <trkpt lat="45.95141" lon="6.55561">
        <ele>2472.1</ele>
        <time>2026-02-02T10:10:00Z</time>
      </trkpt>
      <trkpt lat="45.95141" lon="6.55561">
        <ele>2472.1</ele>
        <time>2026-02-02T10:10:01Z</time>
      </trkpt>
      <trkpt lat="45.95141" lon="6.55561">
        <ele>2472.1</ele>
        <time>2026-02-02T10:10:02Z</time>
      </trkpt>
      <trkpt lat="45.95141" lon="6.55561">
        <ele>2472.1</ele>
        <time>2026-02-02T10:10:03Z</time>
      </trkpt>
      <trkpt lat="45.95141" lon="6.55561">
        <ele>2472.1</ele>
        <time>2026-02-02T10:10:04Z</time>
      </trkpt>
      <trkpt lat="45.95141" lon="6.5556">
        <ele>2472.1</ele>
        <time>2026-02-02T10:10:05Z</time>
      </trkpt>
      <trkpt lat="45.95141" lon="6.5556">
        <ele>2472.1</ele>
        <time>2026-02-02T10:10:06Z</time>
      </trkpt>
      <trkpt lat="45.95141" lon="6.5556">
        <ele>2472.1</ele>
        <time>2026-02-02T10:10:07Z</time>
      </trkpt>
      <trkpt lat="45.95141" lon="6.5556">
        <ele>2472.1</ele>
        <time>2026-02-02T10:10:08Z</time>
      </trkpt>
      <trkpt lat="45.95141" lon="6.5556">
        <ele>2472.1</ele>
        <time>2026-02-02T10:10:09Z</time>
      </trkpt>
      <trkpt lat="45.95141" lon="6.5556">
        <ele>2472.1</ele>
        <time>2026-02-02T10:10:10Z</time>
      </trkpt>
      <trkpt lat="45.95141" lon="6.5556">
        <ele>2472.1</ele>
        <time>2026-02-02T10:10:11Z</time>
      </trkpt>
      <trkpt lat="45.95141" lon="6.5556">
        <ele>2472.1</ele>
        <time>2026-02-02T10:10:12Z</time>
      </trkpt>
      <trkpt lat="45.95141" lon="6.5556">
        <ele>2472.1</ele>
        <time>2026-02-02T10:10:13Z</time>
      </trkpt>
      <trkpt lat="45.95141" lon="6.5556">
        <ele>2472.1</ele>
        <time>2026-02-02T10:10:14Z</time>
      </trkpt>
      <trkpt lat="45.95141" lon="6.5556">
        <ele>2472.1</ele>
        <time>2026-02-02T10:10:15Z</time>
      </trkpt>
      <trkpt lat="45.95141" lon="6.5556">
        <ele>2472.1</ele>
        <time>2026-02-02T10:10:16Z</time>
      </trkpt>
      <trkpt lat="45.95141" lon="6.5556">
        <ele>2472.1</ele>
        <time>2026-02-02T10:10:17Z</time>
      </trkpt>
      <trkpt lat="45.95141" lon="6.5556">
        <ele>2472.1</ele>
        <time>2026-02-02T10:10:18Z</time>
      </trkpt>
      <trkpt lat="45.95141" lon="6.5556">
        <ele>2472.1</ele>
        <time>2026-02-02T10:10:19Z</time>
      </trkpt>
      <trkpt lat="45.95141" lon="6.5556">
        <ele>2472.1</ele>
        <time>2026-02-02T10:10:20Z</time>
      </trkpt>
      <trkpt lat="45.95141" lon="6.5556">
        <ele>2472.1</ele>
        <time>2026-02-02T10:10:21Z</time>
      </trkpt>
      <trkpt lat="45.95141" lon="6.5556">
        <ele>2472.1</ele>
        <time>2026-02-02T10:10:22Z</time>
      </trkpt>
      <trkpt lat="45.95141" lon="6.5556">
        <ele>2472.1</ele>
        <time>2026-02-02T10:10:23Z</time>
      </trkpt>
      <trkpt lat="45.95141" lon="6.5556">
        <ele>2472.1</ele>
        <time>2026-02-02T10:10:24Z</time>
      </trkpt>
      <trkpt lat="45.95141" lon="6.5556">
        <ele>2472.1</ele>
        <time>2026-02-02T10:10:25Z</time>
      </trkpt>
      <trkpt lat="45.95141" lon="6.5556">
        <ele>2472.1</ele>
        <time>2026-02-02T10:10:26Z</time>
      </trkpt>
      <trkpt lat="45.95141" lon="6.5556">
        <ele>2472.1</ele>
        <time>2026-02-02T10:10:27Z</time>
      </trkpt>
      <trkpt lat="45.95141" lon="6.5556">
        <ele>2472.1</ele>
        <time>2026-02-02T10:10:28Z</time>
      </trkpt>
      <trkpt lat="45.95141" lon="6.5556">
        <ele>2472.1</ele>
        <time>2026-02-02T10:10:29Z</time>
      </trkpt>
      <trkpt lat="45.95141" lon="6.55559">
        <ele>2472.1</ele>
        <time>2026-02-02T10:10:30Z</time>
      </trkpt>
      <trkpt lat="45.95141" lon="6.55559">
        <ele>2472.1</ele>
        <time>2026-02-02T10:10:31Z</time>
      </trkpt>
      <trkpt lat="45.95141" lon="6.55559">
        <ele>2472.1</ele>
        <time>2026-02-02T10:10:32Z</time>
      </trkpt>
      <trkpt lat="45.95141" lon="6.55559">
        <ele>2472.1</ele>
        <time>2026-02-02T10:10:33Z</time>
      </trkpt>
      <trkpt lat="45.95141" lon="6.55559">
        <ele>2472.1</ele>
        <time>2026-02-02T10:10:34Z</time>
      </trkpt>
      <trkpt lat="45.95141" lon="6.55559">
        <ele>2472.1</ele>
        <time>2026-02-02T10:10:35Z</time>
      </trkpt>
      <trkpt lat="45.95141" lon="6.55559">
        <ele>2472.1</ele>
        <time>2026-02-02T10:10:36Z</time>
      </trkpt>
      <trkpt lat="45.95141" lon="6.55559">
        <ele>2472.1</ele>
        <time>2026-02-02T10:10:37Z</time>
      </trkpt>
      <trkpt lat="45.95141" lon="6.55559">
        <ele>2472.1</ele>
        <time>2026-02-02T10:10:38Z</time>
      </trkpt>
      <trkpt lat="45.95141" lon="6.55559">
        <ele>2472.1</ele>
        <time>2026-02-02T10:10:39Z</time>
      </trkpt>
      <trkpt lat="45.95141" lon="6.55559">
        <ele>2472.1</ele>
        <time>2026-02-02T10:10:40Z</time>
      </trkpt>
      <trkpt lat="45.95141" lon="6.55559">
        <ele>2472.1</ele>
        <time>2026-02-02T10:10:41Z</time>
      </trkpt>
      <trkpt lat="45.95141" lon="6.55559">
        <ele>2472.1</ele>
        <time>2026-02-02T10:10:42Z</time>
      </trkpt>
      <trkpt lat="45.95141" lon="6.5556">
        <ele>2472.1</ele>
        <time>2026-02-02T10:10:43Z</time>
      </trkpt>
      <trkpt lat="45.95141" lon="6.5556">
        <ele>2472.1</ele>
        <time>2026-02-02T10:10:44Z</time>
      </trkpt>
      <trkpt lat="45.95141" lon="6.5556">
        <ele>2472.1</ele>
        <time>2026-02-02T10:10:45Z</time>
      </trkpt>
      <trkpt lat="45.95141" lon="6.5556">
        <ele>2472.1</ele>
        <time>2026-02-02T10:10:46Z</time>
      </trkpt>
      <trkpt lat="45.95141" lon="6.5556">
        <ele>2472.1</ele>
        <time>2026-02-02T10:10:47Z</time>
      </trkpt>
      <trkpt lat="45.95141" lon="6.5556">
        <ele>2472.1</ele>
        <time>2026-02-02T10:10:48Z</time>
      </trkpt>
      <trkpt lat="45.95141" lon="6.5556">
        <ele>2472.1</ele>
        <time>2026-02-02T10:10:49Z</time>
      </trkpt>
      <trkpt lat="45.95141" lon="6.5556">
        <ele>2472.1</ele>
        <time>2026-02-02T10:10:50Z</time>
      </trkpt>
      <trkpt lat="45.95141" lon="6.5556">
        <ele>2472.1</ele>
        <time>2026-02-02T10:10:51Z</time>
      </trkpt>
      <trkpt lat="45.95141" lon="6.5556">
        <ele>2472.1</ele>
        <time>2026-02-02T10:10:52Z</time>
      </trkpt>
      <trkpt lat="45.95141" lon="6.5556">
        <ele>2472.1</ele>
        <time>2026-02-02T10:10:53Z</time>
      </trkpt>
      <trkpt lat="45.95141" lon="6.5556">
        <ele>2472.1</ele>
        <time>2026-02-02T10:10:54Z</time>
      </trkpt>
      <trkpt lat="45.95141" lon="6.5556">
        <ele>2472.1</ele>
        <time>2026-02-02T10:10:55Z</time>
      </trkpt>
      <trkpt lat="45.95141" lon="6.5556">
        <ele>2472.1</ele>
        <time>2026-02-02T10:10:56Z</time>
      </trkpt>
      <trkpt lat="45.95141" lon="6.5556">
        <ele>2472.1</ele>
        <time>2026-02-02T10:10:57Z</time>
      </trkpt>
      <trkpt lat="45.95141" lon="6.5556">
        <ele>2472.1</ele>
        <time>2026-02-02T10:10:58Z</time>
      </trkpt>
      <trkpt lat="45.95141" lon="6.5556">
        <ele>2472.1</ele>
        <time>2026-02-02T10:10:59Z</time>
      </trkpt>
      <trkpt lat="45.95141" lon="6.55559">
        <ele>2472.1</ele>
        <time>2026-02-02T10:11:00Z</time>
      </trkpt>
      <trkpt lat="45.95141" lon="6.5556">
        <ele>2472.1</ele>
        <time>2026-02-02T10:11:01Z</time>
      </trkpt>
      <trkpt lat="45.95141" lon="6.5556">
        <ele>2472.1</ele>
        <time>2026-02-02T10:11:02Z</time>
      </trkpt>
      <trkpt lat="45.95141" lon="6.5556">
        <ele>2472.1</ele>
        <time>2026-02-02T10:11:03Z</time>
      </trkpt>
      <trkpt lat="45.95141" lon="6.55559">
        <ele>2472.1</ele>
        <time>2026-02-02T10:11:04Z</time>
      </trkpt>
      <trkpt lat="45.95141" lon="6.55559">
        <ele>2472.1</ele>
        <time>2026-02-02T10:11:05Z</time>
      </trkpt>
      <trkpt lat="45.95141" lon="6.55559">
        <ele>2472.1</ele>
        <time>2026-02-02T10:11:06Z</time>
      </trkpt>
      <trkpt lat="45.95141" lon="6.55559">
        <ele>2472.1</ele>
        <time>2026-02-02T10:11:07Z</time>
      </trkpt>
      <trkpt lat="45.95141" lon="6.55559">
        <ele>2472.1</ele>
        <time>2026-02-02T10:11:08Z</time>
      </trkpt>
      <trkpt lat="45.95141" lon="6.55559">
        <ele>2472.1</ele>
        <time>2026-02-02T10:11:09Z</time>
      </trkpt>
      <trkpt lat="45.95141" lon="6.5556">
        <ele>2472.1</ele>
        <time>2026-02-02T10:11:10Z</time>
      </trkpt>
      <trkpt lat="45.95141" lon="6.5556">
        <ele>2472.1</ele>
        <time>2026-02-02T10:11:11Z</time>
      </trkpt>
      <trkpt lat="45.95141" lon="6.5556">
        <ele>2472.1</ele>
        <time>2026-02-02T10:11:12Z</time>
      </trkpt>
      <trkpt lat="45.95141" lon="6.55559">
        <ele>2472.1</ele>
        <time>2026-02-02T10:11:13Z</time>
      </trkpt>
      <trkpt lat="45.95141" lon="6.55559">
        <ele>2472.1</ele>
        <time>2026-02-02T10:11:14Z</time>
      </trkpt>
      <trkpt lat="45.95141" lon="6.55559">
        <ele>2472.1</ele>
        <time>2026-02-02T10:11:15Z</time>
      </trkpt>
      <trkpt lat="45.95141" lon="6.55559">
        <ele>2472.1</ele>
        <time>2026-02-02T10:11:16Z</time>
      </trkpt>
      <trkpt lat="45.95142" lon="6.55559">
        <ele>2472.1</ele>
        <time>2026-02-02T10:11:17Z</time>
      </trkpt>
      <trkpt lat="45.95142" lon="6.55559">
        <ele>2472.1</ele>
        <time>2026-02-02T10:11:18Z</time>
      </trkpt>
      <trkpt lat="45.95142" lon="6.55559">
        <ele>2472.1</ele>
        <time>2026-02-02T10:11:19Z</time>
      </trkpt>
      <trkpt lat="45.95141" lon="6.55559">
        <ele>2472.1</ele>
        <time>2026-02-02T10:11:20Z</time>
      </trkpt>
      <trkpt lat="45.95142" lon="6.55559">
        <ele>2472.1</ele>
        <time>2026-02-02T10:11:21Z</time>
      </trkpt>
      <trkpt lat="45.95141" lon="6.55559">
        <ele>2472.1</ele>
        <time>2026-02-02T10:11:22Z</time>
      </trkpt>
      <trkpt lat="45.95141" lon="6.55559">
        <ele>2472.1</ele>
        <time>2026-02-02T10:11:23Z</time>
      </trkpt>
      <trkpt lat="45.95141" lon="6.55559">
        <ele>2472.1</ele>
        <time>2026-02-02T10:11:24Z</time>
      </trkpt>
      <trkpt lat="45.95141" lon="6.55559">
        <ele>2472.1</ele>
        <time>2026-02-02T10:11:25Z</time>
      </trkpt>
      <trkpt lat="45.95141" lon="6.55559">
        <ele>2472.1</ele>
        <time>2026-02-02T10:11:26Z</time>
      </trkpt>
      <trkpt lat="45.95141" lon="6.55559">
        <ele>2472.1</ele>
        <time>2026-02-02T10:11:27Z</time>
      </trkpt>
      <trkpt lat="45.95141" lon="6.55559">
        <ele>2472.1</ele>
        <time>2026-02-02T10:11:28Z</time>
      </trkpt>
      <trkpt lat="45.95141" lon="6.55559">
        <ele>2472.1</ele>
        <time>2026-02-02T10:11:29Z</time>
      </trkpt>
      <trkpt lat="45.95141" lon="6.55559">
        <ele>2472.1</ele>
        <time>2026-02-02T10:11:30Z</time>
      </trkpt>
      <trkpt lat="45.95141" lon="6.55559">
        <ele>2472.1</ele>
        <time>2026-02-02T10:11:31Z</time>
      </trkpt>
      <trkpt lat="45.95141" lon="6.5556">
        <ele>2472.1</ele>
        <time>2026-02-02T10:11:32Z</time>
      </trkpt>
      <trkpt lat="45.95141" lon="6.55559">
        <ele>2472.1</ele>
        <time>2026-02-02T10:11:33Z</time>
      </trkpt>
      <trkpt lat="45.95141" lon="6.55559">
        <ele>2472.1</ele>
        <time>2026-02-02T10:11:34Z</time>
      </trkpt>
      <trkpt lat="45.95141" lon="6.55559">
        <ele>2472.1</ele>
        <time>2026-02-02T10:11:35Z</time>
      </trkpt>
      <trkpt lat="45.95141" lon="6.55559">
        <ele>2472.1</ele>
        <time>2026-02-02T10:11:36Z</time>
      </trkpt>
      <trkpt lat="45.95141" lon="6.55559">
        <ele>2472.1</ele>
        <time>2026-02-02T10:11:37Z</time>
      </trkpt>
      <trkpt lat="45.95141" lon="6.55559">
        <ele>2472.1</ele>
        <time>2026-02-02T10:11:38Z</time>
      </trkpt>
      <trkpt lat="45.95141" lon="6.55559">
        <ele>2472.1</ele>
        <time>2026-02-02T10:11:39Z</time>
      </trkpt>
      <trkpt lat="45.95141" lon="6.55559">
        <ele>2472.1</ele>
        <time>2026-02-02T10:11:40Z</time>
      </trkpt>
      <trkpt lat="45.95141" lon="6.55559">
        <ele>2472.1</ele>
        <time>2026-02-02T10:11:41Z</time>
      </trkpt>
      <trkpt lat="45.95141" lon="6.55559">
        <ele>2472.1</ele>
        <time>2026-02-02T10:11:42Z</time>
      </trkpt>
      <trkpt lat="45.95141" lon="6.55559">
        <ele>2472.1</ele>
        <time>2026-02-02T10:11:43Z</time>
      </trkpt>
      <trkpt lat="45.95142" lon="6.55559">
        <ele>2472.1</ele>
        <time>2026-02-02T10:11:44Z</time>
      </trkpt>
      <trkpt lat="45.95142" lon="6.5556">
        <ele>2472.1</ele>
        <time>2026-02-02T10:11:45Z</time>
      </trkpt>
      <trkpt lat="45.95142" lon="6.55561">
        <ele>2472.1</ele>
        <time>2026-02-02T10:11:46Z</time>
      </trkpt>
      <trkpt lat="45.95142" lon="6.55561">
        <ele>2472.1</ele>
        <time>2026-02-02T10:11:47Z</time>
      </trkpt>
      <trkpt lat="45.95142" lon="6.55561">
        <ele>2472.1</ele>
        <time>2026-02-02T10:11:48Z</time>
      </trkpt>
      <trkpt lat="45.95142" lon="6.55561">
        <ele>2472.1</ele>
        <time>2026-02-02T10:11:49Z</time>
      </trkpt>
      <trkpt lat="45.95141" lon="6.5556">
        <ele>2472.1</ele>
        <time>2026-02-02T10:11:50Z</time>
      </trkpt>
      <trkpt lat="45.95141" lon="6.5556">
        <ele>2472.1</ele>
        <time>2026-02-02T10:11:51Z</time>
      </trkpt>
      <trkpt lat="45.95142" lon="6.5556">
        <ele>2472.1</ele>
        <time>2026-02-02T10:11:52Z</time>
      </trkpt>
      <trkpt lat="45.95142" lon="6.5556">
        <ele>2472.1</ele>
        <time>2026-02-02T10:11:53Z</time>
      </trkpt>
      <trkpt lat="45.95142" lon="6.5556">
        <ele>2472.1</ele>
        <time>2026-02-02T10:11:54Z</time>
      </trkpt>
      <trkpt lat="45.95142" lon="6.5556">
        <ele>2472.1</ele>
        <time>2026-02-02T10:11:55Z</time>
      </trkpt>
      <trkpt lat="45.95142" lon="6.5556">
        <ele>2473.1</ele>
        <time>2026-02-02T10:11:56Z</time>
      </trkpt>
      <trkpt lat="45.95142" lon="6.5556">
        <ele>2473.1</ele>
        <time>2026-02-02T10:11:57Z</time>
      </trkpt>
      <trkpt lat="45.95142" lon="6.5556">
        <ele>2473.1</ele>
        <time>2026-02-02T10:11:58Z</time>
      </trkpt>
      <trkpt lat="45.95142" lon="6.5556">
        <ele>2473.1</ele>
        <time>2026-02-02T10:11:59Z</time>
      </trkpt>
      <trkpt lat="45.95142" lon="6.5556">
        <ele>2473.1</ele>
        <time>2026-02-02T10:12:00Z</time>
      </trkpt>
      <trkpt lat="45.95142" lon="6.5556">
        <ele>2473.1</ele>
        <time>2026-02-02T10:12:01Z</time>
      </trkpt>
      <trkpt lat="45.95142" lon="6.5556">
        <ele>2473.1</ele>
        <time>2026-02-02T10:12:02Z</time>
      </trkpt>
      <trkpt lat="45.95142" lon="6.5556">
        <ele>2473.1</ele>
        <time>2026-02-02T10:12:03Z</time>
      </trkpt>
      <trkpt lat="45.95142" lon="6.5556">
        <ele>2473.1</ele>
        <time>2026-02-02T10:12:04Z</time>
      </trkpt>
      <trkpt lat="45.95142" lon="6.5556">
        <ele>2473.1</ele>
        <time>2026-02-02T10:12:05Z</time>
      </trkpt>
      <trkpt lat="45.95142" lon="6.5556">
        <ele>2473.1</ele>
        <time>2026-02-02T10:12:06Z</time>
      </trkpt>
      <trkpt lat="45.95143" lon="6.5556">
        <ele>2473.1</ele>
        <time>2026-02-02T10:12:07Z</time>
      </trkpt>
      <trkpt lat="45.95143" lon="6.5556">
        <ele>2473.1</ele>
        <time>2026-02-02T10:12:08Z</time>
      </trkpt>
      <trkpt lat="45.95143" lon="6.5556">
        <ele>2473.1</ele>
        <time>2026-02-02T10:12:09Z</time>
      </trkpt>
      <trkpt lat="45.95143" lon="6.5556">
        <ele>2473.1</ele>
        <time>2026-02-02T10:12:10Z</time>
      </trkpt>
      <trkpt lat="45.95143" lon="6.5556">
        <ele>2473.1</ele>
        <time>2026-02-02T10:12:11Z</time>
      </trkpt>
      <trkpt lat="45.95143" lon="6.5556">
        <ele>2473.1</ele>
        <time>2026-02-02T10:12:12Z</time>
      </trkpt>
      <trkpt lat="45.95144" lon="6.5556">
        <ele>2473.1</ele>
        <time>2026-02-02T10:12:13Z</time>
      </trkpt>
      <trkpt lat="45.95144" lon="6.5556">
        <ele>2473.1</ele>
        <time>2026-02-02T10:12:14Z</time>
      </trkpt>
      <trkpt lat="45.95145" lon="6.5556">
        <ele>2474</ele>
        <time>2026-02-02T10:12:15Z</time>
      </trkpt>
      <trkpt lat="45.95145" lon="6.55559">
        <ele>2474</ele>
        <time>2026-02-02T10:12:16Z</time>
      </trkpt>
      <trkpt lat="45.95146" lon="6.55559">
        <ele>2474</ele>
        <time>2026-02-02T10:12:17Z</time>
      </trkpt>
      <trkpt lat="45.95146" lon="6.55558">
        <ele>2474</ele>
        <time>2026-02-02T10:12:18Z</time>
      </trkpt>
      <trkpt lat="45.95146" lon="6.55558">
        <ele>2476.1</ele>
        <time>2026-02-02T10:12:19Z</time>
      </trkpt>
      <trkpt lat="45.95146" lon="6.55557">
        <ele>2476.1</ele>
        <time>2026-02-02T10:12:20Z</time>
      </trkpt>
      <trkpt lat="45.95147" lon="6.55557">
        <ele>2476.1</ele>
        <time>2026-02-02T10:12:21Z</time>
      </trkpt>
      <trkpt lat="45.95147" lon="6.55557">
        <ele>2476.1</ele>
        <time>2026-02-02T10:12:22Z</time>
      </trkpt>
      <trkpt lat="45.95147" lon="6.55557">
        <ele>2476.1</ele>
        <time>2026-02-02T10:12:23Z</time>
      </trkpt>
      <trkpt lat="45.95147" lon="6.55557">
        <ele>2476.1</ele>
        <time>2026-02-02T10:12:24Z</time>
      </trkpt>
      <trkpt lat="45.95147" lon="6.55557">
        <ele>2476.1</ele>
        <time>2026-02-02T10:12:25Z</time>
      </trkpt>
      <trkpt lat="45.95147" lon="6.55557">
        <ele>2476.1</ele>
        <time>2026-02-02T10:12:26Z</time>
      </trkpt>
      <trkpt lat="45.95147" lon="6.55557">
        <ele>2476.1</ele>
        <time>2026-02-02T10:12:27Z</time>
      </trkpt>
      <trkpt lat="45.95147" lon="6.55557">
        <ele>2476.1</ele>
        <time>2026-02-02T10:12:28Z</time>
      </trkpt>
      <trkpt lat="45.95147" lon="6.55557">
        <ele>2476.1</ele>
        <time>2026-02-02T10:12:29Z</time>
      </trkpt>
      <trkpt lat="45.95147" lon="6.55557">
        <ele>2476.1</ele>
        <time>2026-02-02T10:12:30Z</time>
      </trkpt>
      <trkpt lat="45.95147" lon="6.55557">
        <ele>2476.1</ele>
        <time>2026-02-02T10:12:31Z</time>
      </trkpt>
      <trkpt lat="45.95147" lon="6.55557">
        <ele>2476.1</ele>
        <time>2026-02-02T10:12:32Z</time>
      </trkpt>
      <trkpt lat="45.95146" lon="6.55557">
        <ele>2476.1</ele>
        <time>2026-02-02T10:12:33Z</time>
      </trkpt>
      <trkpt lat="45.95146" lon="6.55557">
        <ele>2476.1</ele>
        <time>2026-02-02T10:12:34Z</time>
      </trkpt>
      <trkpt lat="45.95147" lon="6.55557">
        <ele>2476.1</ele>
        <time>2026-02-02T10:12:35Z</time>
      </trkpt>
      <trkpt lat="45.95146" lon="6.55557">
        <ele>2476.1</ele>
        <time>2026-02-02T10:12:36Z</time>
      </trkpt>
      <trkpt lat="45.95146" lon="6.55558">
        <ele>2476.1</ele>
        <time>2026-02-02T10:12:37Z</time>
      </trkpt>
      <trkpt lat="45.95146" lon="6.55557">
        <ele>2476.1</ele>
        <time>2026-02-02T10:12:38Z</time>
      </trkpt>
      <trkpt lat="45.95146" lon="6.55557">
        <ele>2476.1</ele>
        <time>2026-02-02T10:12:39Z</time>
      </trkpt>
      <trkpt lat="45.95146" lon="6.55558">
        <ele>2474</ele>
        <time>2026-02-02T10:12:40Z</time>
      </trkpt>
      <trkpt lat="45.95146" lon="6.55558">
        <ele>2474</ele>
        <time>2026-02-02T10:12:41Z</time>
      </trkpt>
      <trkpt lat="45.95146" lon="6.55558">
        <ele>2474</ele>
        <time>2026-02-02T10:12:42Z</time>
      </trkpt>
      <trkpt lat="45.95146" lon="6.55558">
        <ele>2474</ele>
        <time>2026-02-02T10:12:43Z</time>
      </trkpt>
      <trkpt lat="45.95146" lon="6.55558">
        <ele>2474</ele>
        <time>2026-02-02T10:12:44Z</time>
      </trkpt>
      <trkpt lat="45.95146" lon="6.55558">
        <ele>2474</ele>
        <time>2026-02-02T10:12:45Z</time>
      </trkpt>
      <trkpt lat="45.95146" lon="6.55558">
        <ele>2474</ele>
        <time>2026-02-02T10:12:46Z</time>
      </trkpt>
      <trkpt lat="45.95146" lon="6.55558">
        <ele>2474</ele>
        <time>2026-02-02T10:12:47Z</time>
      </trkpt>
      <trkpt lat="45.95146" lon="6.55558">
        <ele>2474</ele>
        <time>2026-02-02T10:12:48Z</time>
      </trkpt>
      <trkpt lat="45.95146" lon="6.55558">
        <ele>2474</ele>
        <time>2026-02-02T10:12:49Z</time>
      </trkpt>
      <trkpt lat="45.95146" lon="6.55558">
        <ele>2474</ele>
        <time>2026-02-02T10:12:50Z</time>
      </trkpt>
      <trkpt lat="45.95146" lon="6.55558">
        <ele>2474</ele>
        <time>2026-02-02T10:12:51Z</time>
      </trkpt>
      <trkpt lat="45.95146" lon="6.55558">
        <ele>2474</ele>
        <time>2026-02-02T10:12:52Z</time>
      </trkpt>
      <trkpt lat="45.95146" lon="6.55558">
        <ele>2474</ele>
        <time>2026-02-02T10:12:53Z</time>
      </trkpt>
      <trkpt lat="45.95146" lon="6.55558">
        <ele>2474</ele>
        <time>2026-02-02T10:12:54Z</time>
      </trkpt>
      <trkpt lat="45.95146" lon="6.55558">
        <ele>2474</ele>
        <time>2026-02-02T10:12:55Z</time>
      </trkpt>
      <trkpt lat="45.95146" lon="6.55558">
        <ele>2474</ele>
        <time>2026-02-02T10:12:56Z</time>
      </trkpt>
      <trkpt lat="45.95146" lon="6.55558">
        <ele>2474</ele>
        <time>2026-02-02T10:12:57Z</time>
      </trkpt>
      <trkpt lat="45.95146" lon="6.55558">
        <ele>2474</ele>
        <time>2026-02-02T10:12:58Z</time>
      </trkpt>
      <trkpt lat="45.95146" lon="6.55558">
        <ele>2474</ele>
        <time>2026-02-02T10:12:59Z</time>
      </trkpt>
      <trkpt lat="45.95146" lon="6.55558">
        <ele>2474</ele>
        <time>2026-02-02T10:13:00Z</time>
      </trkpt>
      <trkpt lat="45.95146" lon="6.55558">
        <ele>2474</ele>
        <time>2026-02-02T10:13:01Z</time>
      </trkpt>
      <trkpt lat="45.95146" lon="6.55558">
        <ele>2474</ele>
        <time>2026-02-02T10:13:02Z</time>
      </trkpt>
      <trkpt lat="45.95146" lon="6.55558">
        <ele>2474</ele>
        <time>2026-02-02T10:13:03Z</time>
      </trkpt>
      <trkpt lat="45.95146" lon="6.55558">
        <ele>2474</ele>
        <time>2026-02-02T10:13:04Z</time>
      </trkpt>
      <trkpt lat="45.95146" lon="6.55558">
        <ele>2474</ele>
        <time>2026-02-02T10:13:05Z</time>
      </trkpt>
      <trkpt lat="45.95146" lon="6.55558">
        <ele>2474</ele>
        <time>2026-02-02T10:13:06Z</time>
      </trkpt>
      <trkpt lat="45.95146" lon="6.55558">
        <ele>2474</ele>
        <time>2026-02-02T10:13:07Z</time>
      </trkpt>
      <trkpt lat="45.95146" lon="6.55558">
        <ele>2474</ele>
        <time>2026-02-02T10:13:08Z</time>
      </trkpt>
      <trkpt lat="45.95146" lon="6.55558">
        <ele>2474</ele>
        <time>2026-02-02T10:13:09Z</time>
      </trkpt>
      <trkpt lat="45.95146" lon="6.55558">
        <ele>2474</ele>
        <time>2026-02-02T10:13:10Z</time>
      </trkpt>
      <trkpt lat="45.95146" lon="6.55558">
        <ele>2474</ele>
        <time>2026-02-02T10:13:11Z</time>
      </trkpt>
      <trkpt lat="45.95146" lon="6.55558">
        <ele>2474</ele>
        <time>2026-02-02T10:13:12Z</time>
      </trkpt>
      <trkpt lat="45.95146" lon="6.55558">
        <ele>2474</ele>
        <time>2026-02-02T10:13:13Z</time>
      </trkpt>
      <trkpt lat="45.95147" lon="6.55558">
        <ele>2474</ele>
        <time>2026-02-02T10:13:14Z</time>
      </trkpt>
      <trkpt lat="45.95147" lon="6.55557">
        <ele>2476.1</ele>
        <time>2026-02-02T10:13:15Z</time>
      </trkpt>
      <trkpt lat="45.95147" lon="6.55558">
        <ele>2474</ele>
        <time>2026-02-02T10:13:16Z</time>
      </trkpt>
      <trkpt lat="45.95147" lon="6.55558">
        <ele>2474</ele>
        <time>2026-02-02T10:13:17Z</time>
      </trkpt>
      <trkpt lat="45.95147" lon="6.55558">
        <ele>2476.1</ele>
        <time>2026-02-02T10:13:18Z</time>
      </trkpt>
      <trkpt lat="45.95147" lon="6.55557">
        <ele>2476.1</ele>
        <time>2026-02-02T10:13:19Z</time>
      </trkpt>
      <trkpt lat="45.95147" lon="6.55557">
        <ele>2476.1</ele>
        <time>2026-02-02T10:13:20Z</time>
      </trkpt>
      <trkpt lat="45.95147" lon="6.55556">
        <ele>2476.1</ele>
        <time>2026-02-02T10:13:21Z</time>
      </trkpt>
      <trkpt lat="45.95147" lon="6.55555">
        <ele>2476.1</ele>
        <time>2026-02-02T10:13:22Z</time>
      </trkpt>
      <trkpt lat="45.95147" lon="6.55555">
        <ele>2476.1</ele>
        <time>2026-02-02T10:13:23Z</time>
      </trkpt>
      <trkpt lat="45.95148" lon="6.55555">
        <ele>2476.1</ele>
        <time>2026-02-02T10:13:24Z</time>
      </trkpt>
      <trkpt lat="45.95148" lon="6.55555">
        <ele>2476.8</ele>
        <time>2026-02-02T10:13:25Z</time>
      </trkpt>
      <trkpt lat="45.95149" lon="6.55555">
        <ele>2476.8</ele>
        <time>2026-02-02T10:13:26Z</time>
      </trkpt>
      <trkpt lat="45.9515" lon="6.55554">
        <ele>2476.8</ele>
        <time>2026-02-02T10:13:27Z</time>
      </trkpt>
      <trkpt lat="45.9515" lon="6.55554">
        <ele>2476.8</ele>
        <time>2026-02-02T10:13:28Z</time>
      </trkpt>
      <trkpt lat="45.9515" lon="6.55554">
        <ele>2476.8</ele>
        <time>2026-02-02T10:13:29Z</time>
      </trkpt>
      <trkpt lat="45.9515" lon="6.55554">
        <ele>2476.8</ele>
        <time>2026-02-02T10:13:30Z</time>
      </trkpt>
      <trkpt lat="45.9515" lon="6.55554">
        <ele>2476.8</ele>
        <time>2026-02-02T10:13:31Z</time>
      </trkpt>
      <trkpt lat="45.9515" lon="6.55553">
        <ele>2478.8</ele>
        <time>2026-02-02T10:13:32Z</time>
      </trkpt>
      <trkpt lat="45.9515" lon="6.55553">
        <ele>2478.8</ele>
        <time>2026-02-02T10:13:33Z</time>
      </trkpt>
      <trkpt lat="45.9515" lon="6.55553">
        <ele>2478.8</ele>
        <time>2026-02-02T10:13:34Z</time>
      </trkpt>
      <trkpt lat="45.9515" lon="6.55553">
        <ele>2478.8</ele>
        <time>2026-02-02T10:13:35Z</time>
      </trkpt>
      <trkpt lat="45.9515" lon="6.55553">
        <ele>2478.8</ele>
        <time>2026-02-02T10:13:36Z</time>
      </trkpt>
      <trkpt lat="45.95149" lon="6.55554">
        <ele>2476.8</ele>
        <time>2026-02-02T10:13:37Z</time>
      </trkpt>
      <trkpt lat="45.9515" lon="6.55554">
        <ele>2476.8</ele>
        <time>2026-02-02T10:13:38Z</time>
      </trkpt>
      <trkpt lat="45.9515" lon="6.55554">
        <ele>2476.8</ele>
        <time>2026-02-02T10:13:39Z</time>
      </trkpt>
      <trkpt lat="45.95149" lon="6.55554">
        <ele>2476.8</ele>
        <time>2026-02-02T10:13:40Z</time>
      </trkpt>
      <trkpt lat="45.9515" lon="6.55553">
        <ele>2478.8</ele>
        <time>2026-02-02T10:13:41Z</time>
      </trkpt>
      <trkpt lat="45.9515" lon="6.55553">
        <ele>2478.8</ele>
        <time>2026-02-02T10:13:42Z</time>
      </trkpt>
      <trkpt lat="45.9515" lon="6.55553">
        <ele>2476.8</ele>
        <time>2026-02-02T10:13:43Z</time>
      </trkpt>
      <trkpt lat="45.9515" lon="6.55554">
        <ele>2476.8</ele>
        <time>2026-02-02T10:13:44Z</time>
      </trkpt>
      <trkpt lat="45.95151" lon="6.55554">
        <ele>2476.8</ele>
        <time>2026-02-02T10:13:45Z</time>
      </trkpt>
      <trkpt lat="45.95151" lon="6.55553">
        <ele>2479.4</ele>
        <time>2026-02-02T10:13:46Z</time>
      </trkpt>
      <trkpt lat="45.95151" lon="6.55554">
        <ele>2477.5</ele>
        <time>2026-02-02T10:13:47Z</time>
      </trkpt>
      <trkpt lat="45.95152" lon="6.55554">
        <ele>2477.5</ele>
        <time>2026-02-02T10:13:48Z</time>
      </trkpt>
      <trkpt lat="45.95152" lon="6.55554">
        <ele>2477.5</ele>
        <time>2026-02-02T10:13:49Z</time>
      </trkpt>
      <trkpt lat="45.95152" lon="6.55554">
        <ele>2477.5</ele>
        <time>2026-02-02T10:13:50Z</time>
      </trkpt>
      <trkpt lat="45.95152" lon="6.55554">
        <ele>2477.5</ele>
        <time>2026-02-02T10:13:51Z</time>
      </trkpt>
      <trkpt lat="45.95152" lon="6.55554">
        <ele>2477.5</ele>
        <time>2026-02-02T10:13:52Z</time>
      </trkpt>
      <trkpt lat="45.95152" lon="6.55554">
        <ele>2477.5</ele>
        <time>2026-02-02T10:13:53Z</time>
      </trkpt>
      <trkpt lat="45.95152" lon="6.55554">
        <ele>2477.5</ele>
        <time>2026-02-02T10:13:54Z</time>
      </trkpt>
      <trkpt lat="45.95152" lon="6.55554">
        <ele>2477.5</ele>
        <time>2026-02-02T10:13:55Z</time>
      </trkpt>
      <trkpt lat="45.95152" lon="6.55554">
        <ele>2477.5</ele>
        <time>2026-02-02T10:13:56Z</time>
      </trkpt>
      <trkpt lat="45.95152" lon="6.55554">
        <ele>2477.5</ele>
        <time>2026-02-02T10:13:57Z</time>
      </trkpt>
      <trkpt lat="45.95152" lon="6.55554">
        <ele>2477.5</ele>
        <time>2026-02-02T10:13:58Z</time>
      </trkpt>
      <trkpt lat="45.95152" lon="6.55554">
        <ele>2477.5</ele>
        <time>2026-02-02T10:13:59Z</time>
      </trkpt>
      <trkpt lat="45.95152" lon="6.55554">
        <ele>2477.5</ele>
        <time>2026-02-02T10:14:00Z</time>
      </trkpt>
      <trkpt lat="45.95152" lon="6.55554">
        <ele>2477.5</ele>
        <time>2026-02-02T10:14:01Z</time>
      </trkpt>
      <trkpt lat="45.95152" lon="6.55554">
        <ele>2477.5</ele>
        <time>2026-02-02T10:14:02Z</time>
      </trkpt>
      <trkpt lat="45.95152" lon="6.55554">
        <ele>2477.5</ele>
        <time>2026-02-02T10:14:03Z</time>
      </trkpt>
      <trkpt lat="45.95152" lon="6.55554">
        <ele>2477.5</ele>
        <time>2026-02-02T10:14:04Z</time>
      </trkpt>
      <trkpt lat="45.95152" lon="6.55554">
        <ele>2477.5</ele>
        <time>2026-02-02T10:14:05Z</time>
      </trkpt>
      <trkpt lat="45.95151" lon="6.55555">
        <ele>2477.5</ele>
        <time>2026-02-02T10:14:06Z</time>
      </trkpt>
      <trkpt lat="45.95151" lon="6.55555">
        <ele>2477.5</ele>
        <time>2026-02-02T10:14:07Z</time>
      </trkpt>
      <trkpt lat="45.95152" lon="6.55554">
        <ele>2477.5</ele>
        <time>2026-02-02T10:14:08Z</time>
      </trkpt>
      <trkpt lat="45.95152" lon="6.55554">
        <ele>2477.5</ele>
        <time>2026-02-02T10:14:09Z</time>
      </trkpt>
      <trkpt lat="45.95152" lon="6.55555">
        <ele>2477.5</ele>
        <time>2026-02-02T10:14:10Z</time>
      </trkpt>
      <trkpt lat="45.95152" lon="6.55555">
        <ele>2477.5</ele>
        <time>2026-02-02T10:14:11Z</time>
      </trkpt>
      <trkpt lat="45.95152" lon="6.55554">
        <ele>2477.5</ele>
        <time>2026-02-02T10:14:12Z</time>
      </trkpt>
      <trkpt lat="45.95153" lon="6.55553">
        <ele>2479.4</ele>
        <time>2026-02-02T10:14:13Z</time>
      </trkpt>
      <trkpt lat="45.95153" lon="6.55553">
        <ele>2479.4</ele>
        <time>2026-02-02T10:14:14Z</time>
      </trkpt>
      <trkpt lat="45.95153" lon="6.55553">
        <ele>2479.4</ele>
        <time>2026-02-02T10:14:15Z</time>
      </trkpt>
      <trkpt lat="45.95153" lon="6.55553">
        <ele>2479.4</ele>
        <time>2026-02-02T10:14:16Z</time>
      </trkpt>
      <trkpt lat="45.95153" lon="6.55553">
        <ele>2479.4</ele>
        <time>2026-02-02T10:14:17Z</time>
      </trkpt>
      <trkpt lat="45.95152" lon="6.55553">
        <ele>2479.4</ele>
        <time>2026-02-02T10:14:18Z</time>
      </trkpt>
      <trkpt lat="45.95152" lon="6.55553">
        <ele>2479.4</ele>
        <time>2026-02-02T10:14:19Z</time>
      </trkpt>
      <trkpt lat="45.95152" lon="6.55553">
        <ele>2479.4</ele>
        <time>2026-02-02T10:14:20Z</time>
      </trkpt>
      <trkpt lat="45.95152" lon="6.55553">
        <ele>2477.5</ele>
        <time>2026-02-02T10:14:21Z</time>
      </trkpt>
      <trkpt lat="45.95153" lon="6.55553">
        <ele>2477.5</ele>
        <time>2026-02-02T10:14:22Z</time>
      </trkpt>
      <trkpt lat="45.95153" lon="6.55554">
        <ele>2477.5</ele>
        <time>2026-02-02T10:14:23Z</time>
      </trkpt>
      <trkpt lat="45.95154" lon="6.55554">
        <ele>2478.1</ele>
        <time>2026-02-02T10:14:24Z</time>
      </trkpt>
      <trkpt lat="45.95154" lon="6.55554">
        <ele>2478.1</ele>
        <time>2026-02-02T10:14:25Z</time>
      </trkpt>
      <trkpt lat="45.95154" lon="6.55553">
        <ele>2480</ele>
        <time>2026-02-02T10:14:26Z</time>
      </trkpt>
      <trkpt lat="45.95154" lon="6.55553">
        <ele>2480</ele>
        <time>2026-02-02T10:14:27Z</time>
      </trkpt>
      <trkpt lat="45.95154" lon="6.55553">
        <ele>2480</ele>
        <time>2026-02-02T10:14:28Z</time>
      </trkpt>
      <trkpt lat="45.95154" lon="6.55554">
        <ele>2478.1</ele>
        <time>2026-02-02T10:14:29Z</time>
      </trkpt>
      <trkpt lat="45.95154" lon="6.55554">
        <ele>2478.1</ele>
        <time>2026-02-02T10:14:30Z</time>
      </trkpt>
      <trkpt lat="45.95154" lon="6.55554">
        <ele>2477.5</ele>
        <time>2026-02-02T10:14:31Z</time>
      </trkpt>
      <trkpt lat="45.95154" lon="6.55554">
        <ele>2477.5</ele>
        <time>2026-02-02T10:14:32Z</time>
      </trkpt>
      <trkpt lat="45.95153" lon="6.55553">
        <ele>2477.5</ele>
        <time>2026-02-02T10:14:33Z</time>
      </trkpt>
      <trkpt lat="45.95153" lon="6.55553">
        <ele>2477.5</ele>
        <time>2026-02-02T10:14:34Z</time>
      </trkpt>
      <trkpt lat="45.95153" lon="6.55553">
        <ele>2479.4</ele>
        <time>2026-02-02T10:14:35Z</time>
      </trkpt>
      <trkpt lat="45.95153" lon="6.55552">
        <ele>2479.4</ele>
        <time>2026-02-02T10:14:36Z</time>
      </trkpt>
      <trkpt lat="45.95153" lon="6.55552">
        <ele>2479.4</ele>
        <time>2026-02-02T10:14:37Z</time>
      </trkpt>
      <trkpt lat="45.95153" lon="6.55552">
        <ele>2479.4</ele>
        <time>2026-02-02T10:14:38Z</time>
      </trkpt>
      <trkpt lat="45.95153" lon="6.55552">
        <ele>2479.4</ele>
        <time>2026-02-02T10:14:39Z</time>
      </trkpt>
      <trkpt lat="45.95153" lon="6.55552">
        <ele>2479.4</ele>
        <time>2026-02-02T10:14:40Z</time>
      </trkpt>
      <trkpt lat="45.95153" lon="6.55552">
        <ele>2479.4</ele>
        <time>2026-02-02T10:14:41Z</time>
      </trkpt>
      <trkpt lat="45.95153" lon="6.55552">
        <ele>2479.4</ele>
        <time>2026-02-02T10:14:42Z</time>
      </trkpt>
      <trkpt lat="45.95153" lon="6.55552">
        <ele>2479.4</ele>
        <time>2026-02-02T10:14:43Z</time>
      </trkpt>
      <trkpt lat="45.95153" lon="6.55552">
        <ele>2479.4</ele>
        <time>2026-02-02T10:14:44Z</time>
      </trkpt>
      <trkpt lat="45.95153" lon="6.55552">
        <ele>2479.4</ele>
        <time>2026-02-02T10:14:45Z</time>
      </trkpt>
      <trkpt lat="45.95153" lon="6.55552">
        <ele>2479.4</ele>
        <time>2026-02-02T10:14:46Z</time>
      </trkpt>
      <trkpt lat="45.95153" lon="6.55552">
        <ele>2479.4</ele>
        <time>2026-02-02T10:14:47Z</time>
      </trkpt>
      <trkpt lat="45.95153" lon="6.55552">
        <ele>2479.4</ele>
        <time>2026-02-02T10:14:48Z</time>
      </trkpt>
      <trkpt lat="45.95153" lon="6.55552">
        <ele>2479.4</ele>
        <time>2026-02-02T10:14:49Z</time>
      </trkpt>
      <trkpt lat="45.95153" lon="6.55552">
        <ele>2479.4</ele>
        <time>2026-02-02T10:14:50Z</time>
      </trkpt>
      <trkpt lat="45.95153" lon="6.55552">
        <ele>2479.4</ele>
        <time>2026-02-02T10:14:51Z</time>
      </trkpt>
      <trkpt lat="45.95153" lon="6.55552">
        <ele>2479.4</ele>
        <time>2026-02-02T10:14:52Z</time>
      </trkpt>
      <trkpt lat="45.95153" lon="6.55552">
        <ele>2479.4</ele>
        <time>2026-02-02T10:14:53Z</time>
      </trkpt>
      <trkpt lat="45.95153" lon="6.55552">
        <ele>2479.4</ele>
        <time>2026-02-02T10:14:54Z</time>
      </trkpt>
      <trkpt lat="45.95153" lon="6.55552">
        <ele>2479.4</ele>
        <time>2026-02-02T10:14:55Z</time>
      </trkpt>
      <trkpt lat="45.95153" lon="6.55552">
        <ele>2479.4</ele>
        <time>2026-02-02T10:14:56Z</time>
      </trkpt>
      <trkpt lat="45.95153" lon="6.55552">
        <ele>2479.4</ele>
        <time>2026-02-02T10:14:57Z</time>
      </trkpt>
      <trkpt lat="45.95153" lon="6.55552">
        <ele>2479.4</ele>
        <time>2026-02-02T10:14:58Z</time>
      </trkpt>
      <trkpt lat="45.95153" lon="6.55552">
        <ele>2479.4</ele>
        <time>2026-02-02T10:14:59Z</time>
      </trkpt>
      <trkpt lat="45.95153" lon="6.55552">
        <ele>2479.4</ele>
        <time>2026-02-02T10:15:00Z</time>
      </trkpt>
      <trkpt lat="45.95153" lon="6.55552">
        <ele>2479.4</ele>
        <time>2026-02-02T10:15:01Z</time>
      </trkpt>
      <trkpt lat="45.95153" lon="6.55552">
        <ele>2479.4</ele>
        <time>2026-02-02T10:15:02Z</time>
      </trkpt>
      <trkpt lat="45.95152" lon="6.55552">
        <ele>2479.4</ele>
        <time>2026-02-02T10:15:03Z</time>
      </trkpt>
      <trkpt lat="45.95153" lon="6.55552">
        <ele>2479.4</ele>
        <time>2026-02-02T10:15:04Z</time>
      </trkpt>
      <trkpt lat="45.95153" lon="6.55552">
        <ele>2479.4</ele>
        <time>2026-02-02T10:15:05Z</time>
      </trkpt>
      <trkpt lat="45.95153" lon="6.55552">
        <ele>2479.4</ele>
        <time>2026-02-02T10:15:06Z</time>
      </trkpt>
      <trkpt lat="45.95153" lon="6.55551">
        <ele>2479.4</ele>
        <time>2026-02-02T10:15:07Z</time>
      </trkpt>
      <trkpt lat="45.95153" lon="6.55551">
        <ele>2479.4</ele>
        <time>2026-02-02T10:15:08Z</time>
      </trkpt>
      <trkpt lat="45.95153" lon="6.5555">
        <ele>2479.4</ele>
        <time>2026-02-02T10:15:09Z</time>
      </trkpt>
      <trkpt lat="45.95153" lon="6.5555">
        <ele>2479.4</ele>
        <time>2026-02-02T10:15:10Z</time>
      </trkpt>
      <trkpt lat="45.95153" lon="6.5555">
        <ele>2479.4</ele>
        <time>2026-02-02T10:15:11Z</time>
      </trkpt>
      <trkpt lat="45.95153" lon="6.55549">
        <ele>2479.4</ele>
        <time>2026-02-02T10:15:12Z</time>
      </trkpt>
      <trkpt lat="45.95153" lon="6.55549">
        <ele>2481.2</ele>
        <time>2026-02-02T10:15:13Z</time>
      </trkpt>
      <trkpt lat="45.95154" lon="6.55548">
        <ele>2481.8</ele>
        <time>2026-02-02T10:15:14Z</time>
      </trkpt>
      <trkpt lat="45.95154" lon="6.55548">
        <ele>2481.8</ele>
        <time>2026-02-02T10:15:15Z</time>
      </trkpt>
      <trkpt lat="45.95154" lon="6.55548">
        <ele>2481.2</ele>
        <time>2026-02-02T10:15:16Z</time>
      </trkpt>
      <trkpt lat="45.95154" lon="6.55548">
        <ele>2481.8</ele>
        <time>2026-02-02T10:15:17Z</time>
      </trkpt>
      <trkpt lat="45.95154" lon="6.55548">
        <ele>2481.8</ele>
        <time>2026-02-02T10:15:18Z</time>
      </trkpt>
      <trkpt lat="45.95154" lon="6.55548">
        <ele>2481.8</ele>
        <time>2026-02-02T10:15:19Z</time>
      </trkpt>
      <trkpt lat="45.95154" lon="6.55548">
        <ele>2481.8</ele>
        <time>2026-02-02T10:15:20Z</time>
      </trkpt>
      <trkpt lat="45.95154" lon="6.55548">
        <ele>2481.8</ele>
        <time>2026-02-02T10:15:21Z</time>
      </trkpt>
      <trkpt lat="45.95154" lon="6.55548">
        <ele>2481.8</ele>
        <time>2026-02-02T10:15:22Z</time>
      </trkpt>
      <trkpt lat="45.95155" lon="6.55548">
        <ele>2481.8</ele>
        <time>2026-02-02T10:15:23Z</time>
      </trkpt>
      <trkpt lat="45.95154" lon="6.55548">
        <ele>2481.8</ele>
        <time>2026-02-02T10:15:24Z</time>
      </trkpt>
      <trkpt lat="45.95154" lon="6.55549">
        <ele>2481.8</ele>
        <time>2026-02-02T10:15:25Z</time>
      </trkpt>
      <trkpt lat="45.95154" lon="6.55548">
        <ele>2481.8</ele>
        <time>2026-02-02T10:15:26Z</time>
      </trkpt>
      <trkpt lat="45.95154" lon="6.55547">
        <ele>2481.8</ele>
        <time>2026-02-02T10:15:27Z</time>
      </trkpt>
      <trkpt lat="45.95154" lon="6.55547">
        <ele>2481.8</ele>
        <time>2026-02-02T10:15:28Z</time>
      </trkpt>
      <trkpt lat="45.95154" lon="6.55548">
        <ele>2481.8</ele>
        <time>2026-02-02T10:15:29Z</time>
      </trkpt>
      <trkpt lat="45.95154" lon="6.55548">
        <ele>2481.8</ele>
        <time>2026-02-02T10:15:30Z</time>
      </trkpt>
      <trkpt lat="45.95154" lon="6.55548">
        <ele>2481.2</ele>
        <time>2026-02-02T10:15:31Z</time>
      </trkpt>
      <trkpt lat="45.95154" lon="6.55549">
        <ele>2481.2</ele>
        <time>2026-02-02T10:15:32Z</time>
      </trkpt>
      <trkpt lat="45.95153" lon="6.55549">
        <ele>2481.2</ele>
        <time>2026-02-02T10:15:33Z</time>
      </trkpt>
      <trkpt lat="45.95153" lon="6.55549">
        <ele>2481.2</ele>
        <time>2026-02-02T10:15:34Z</time>
      </trkpt>
      <trkpt lat="45.95153" lon="6.55549">
        <ele>2481.2</ele>
        <time>2026-02-02T10:15:35Z</time>
      </trkpt>
      <trkpt lat="45.95153" lon="6.55549">
        <ele>2481.2</ele>
        <time>2026-02-02T10:15:36Z</time>
      </trkpt>
      <trkpt lat="45.95154" lon="6.55549">
        <ele>2481.2</ele>
        <time>2026-02-02T10:15:37Z</time>
      </trkpt>
      <trkpt lat="45.95154" lon="6.55549">
        <ele>2481.2</ele>
        <time>2026-02-02T10:15:38Z</time>
      </trkpt>
      <trkpt lat="45.95153" lon="6.55549">
        <ele>2481.2</ele>
        <time>2026-02-02T10:15:39Z</time>
      </trkpt>
      <trkpt lat="45.95154" lon="6.55549">
        <ele>2481.2</ele>
        <time>2026-02-02T10:15:40Z</time>
      </trkpt>
      <trkpt lat="45.95154" lon="6.55549">
        <ele>2481.2</ele>
        <time>2026-02-02T10:15:41Z</time>
      </trkpt>
      <trkpt lat="45.95154" lon="6.55549">
        <ele>2481.2</ele>
        <time>2026-02-02T10:15:42Z</time>
      </trkpt>
      <trkpt lat="45.95154" lon="6.55549">
        <ele>2481.2</ele>
        <time>2026-02-02T10:15:43Z</time>
      </trkpt>
      <trkpt lat="45.95154" lon="6.55549">
        <ele>2480</ele>
        <time>2026-02-02T10:15:44Z</time>
      </trkpt>
      <trkpt lat="45.95154" lon="6.55549">
        <ele>2480</ele>
        <time>2026-02-02T10:15:45Z</time>
      </trkpt>
      <trkpt lat="45.95154" lon="6.55549">
        <ele>2480</ele>
        <time>2026-02-02T10:15:46Z</time>
      </trkpt>
      <trkpt lat="45.95154" lon="6.55549">
        <ele>2480</ele>
        <time>2026-02-02T10:15:47Z</time>
      </trkpt>
      <trkpt lat="45.95154" lon="6.55549">
        <ele>2480</ele>
        <time>2026-02-02T10:15:48Z</time>
      </trkpt>
      <trkpt lat="45.95154" lon="6.55549">
        <ele>2480</ele>
        <time>2026-02-02T10:15:49Z</time>
      </trkpt>
      <trkpt lat="45.95154" lon="6.55549">
        <ele>2480</ele>
        <time>2026-02-02T10:15:50Z</time>
      </trkpt>
      <trkpt lat="45.95154" lon="6.55549">
        <ele>2480</ele>
        <time>2026-02-02T10:15:51Z</time>
      </trkpt>
      <trkpt lat="45.95154" lon="6.55549">
        <ele>2480</ele>
        <time>2026-02-02T10:15:52Z</time>
      </trkpt>
      <trkpt lat="45.95154" lon="6.55549">
        <ele>2480</ele>
        <time>2026-02-02T10:15:53Z</time>
      </trkpt>
      <trkpt lat="45.95154" lon="6.55549">
        <ele>2480</ele>
        <time>2026-02-02T10:15:54Z</time>
      </trkpt>
      <trkpt lat="45.95154" lon="6.55549">
        <ele>2481.2</ele>
        <time>2026-02-02T10:15:55Z</time>
      </trkpt>
      <trkpt lat="45.95154" lon="6.55548">
        <ele>2481.8</ele>
        <time>2026-02-02T10:15:56Z</time>
      </trkpt>
      <trkpt lat="45.95154" lon="6.55547">
        <ele>2481.8</ele>
        <time>2026-02-02T10:15:57Z</time>
      </trkpt>
      <trkpt lat="45.95154" lon="6.55547">
        <ele>2481.8</ele>
        <time>2026-02-02T10:15:58Z</time>
      </trkpt>
      <trkpt lat="45.95154" lon="6.55547">
        <ele>2481.8</ele>
        <time>2026-02-02T10:15:59Z</time>
      </trkpt>
      <trkpt lat="45.95154" lon="6.55546">
        <ele>2481.8</ele>
        <time>2026-02-02T10:16:00Z</time>
      </trkpt>
      <trkpt lat="45.95155" lon="6.55547">
        <ele>2481.8</ele>
        <time>2026-02-02T10:16:01Z</time>
      </trkpt>
      <trkpt lat="45.95155" lon="6.55547">
        <ele>2481.8</ele>
        <time>2026-02-02T10:16:02Z</time>
      </trkpt>
      <trkpt lat="45.95155" lon="6.55548">
        <ele>2481.8</ele>
        <time>2026-02-02T10:16:03Z</time>
      </trkpt>
      <trkpt lat="45.95155" lon="6.55547">
        <ele>2481.8</ele>
        <time>2026-02-02T10:16:04Z</time>
      </trkpt>
      <trkpt lat="45.95155" lon="6.55547">
        <ele>2481.8</ele>
        <time>2026-02-02T10:16:05Z</time>
      </trkpt>
      <trkpt lat="45.95155" lon="6.55547">
        <ele>2481.8</ele>
        <time>2026-02-02T10:16:06Z</time>
      </trkpt>
      <trkpt lat="45.95155" lon="6.55547">
        <ele>2481.8</ele>
        <time>2026-02-02T10:16:07Z</time>
      </trkpt>
      <trkpt lat="45.95156" lon="6.55547">
        <ele>2481.8</ele>
        <time>2026-02-02T10:16:08Z</time>
      </trkpt>
      <trkpt lat="45.95156" lon="6.55547">
        <ele>2481.8</ele>
        <time>2026-02-02T10:16:09Z</time>
      </trkpt>
      <trkpt lat="45.95156" lon="6.55547">
        <ele>2481.8</ele>
        <time>2026-02-02T10:16:10Z</time>
      </trkpt>
      <trkpt lat="45.95156" lon="6.55547">
        <ele>2481.8</ele>
        <time>2026-02-02T10:16:11Z</time>
      </trkpt>
      <trkpt lat="45.95156" lon="6.55546">
        <ele>2481.8</ele>
        <time>2026-02-02T10:16:12Z</time>
      </trkpt>
      <trkpt lat="45.95156" lon="6.55546">
        <ele>2481.8</ele>
        <time>2026-02-02T10:16:13Z</time>
      </trkpt>
      <trkpt lat="45.95156" lon="6.55546">
        <ele>2481.8</ele>
        <time>2026-02-02T10:16:14Z</time>
      </trkpt>
      <trkpt lat="45.95156" lon="6.55546">
        <ele>2481.8</ele>
        <time>2026-02-02T10:16:15Z</time>
      </trkpt>
      <trkpt lat="45.95156" lon="6.55546">
        <ele>2481.8</ele>
        <time>2026-02-02T10:16:16Z</time>
      </trkpt>
      <trkpt lat="45.95156" lon="6.55546">
        <ele>2481.8</ele>
        <time>2026-02-02T10:16:17Z</time>
      </trkpt>
      <trkpt lat="45.95156" lon="6.55546">
        <ele>2481.8</ele>
        <time>2026-02-02T10:16:18Z</time>
      </trkpt>
      <trkpt lat="45.95156" lon="6.55546">
        <ele>2481.8</ele>
        <time>2026-02-02T10:16:19Z</time>
      </trkpt>
      <trkpt lat="45.95156" lon="6.55546">
        <ele>2481.8</ele>
        <time>2026-02-02T10:16:20Z</time>
      </trkpt>
      <trkpt lat="45.95156" lon="6.55546">
        <ele>2481.8</ele>
        <time>2026-02-02T10:16:21Z</time>
      </trkpt>
      <trkpt lat="45.95156" lon="6.55545">
        <ele>2481.8</ele>
        <time>2026-02-02T10:16:22Z</time>
      </trkpt>
      <trkpt lat="45.95156" lon="6.55545">
        <ele>2481.8</ele>
        <time>2026-02-02T10:16:23Z</time>
      </trkpt>
      <trkpt lat="45.95156" lon="6.55545">
        <ele>2483.3</ele>
        <time>2026-02-02T10:16:24Z</time>
      </trkpt>
      <trkpt lat="45.95156" lon="6.55545">
        <ele>2483.3</ele>
        <time>2026-02-02T10:16:25Z</time>
      </trkpt>
      <trkpt lat="45.95156" lon="6.55544">
        <ele>2483.3</ele>
        <time>2026-02-02T10:16:26Z</time>
      </trkpt>
      <trkpt lat="45.95156" lon="6.55544">
        <ele>2483.3</ele>
        <time>2026-02-02T10:16:27Z</time>
      </trkpt>
      <trkpt lat="45.95156" lon="6.55544">
        <ele>2483.3</ele>
        <time>2026-02-02T10:16:28Z</time>
      </trkpt>
      <trkpt lat="45.95156" lon="6.55544">
        <ele>2483.3</ele>
        <time>2026-02-02T10:16:29Z</time>
      </trkpt>
      <trkpt lat="45.95156" lon="6.55544">
        <ele>2483.3</ele>
        <time>2026-02-02T10:16:30Z</time>
      </trkpt>
      <trkpt lat="45.95156" lon="6.55544">
        <ele>2483.3</ele>
        <time>2026-02-02T10:16:31Z</time>
      </trkpt>
      <trkpt lat="45.95156" lon="6.55544">
        <ele>2483.3</ele>
        <time>2026-02-02T10:16:32Z</time>
      </trkpt>
      <trkpt lat="45.95156" lon="6.55544">
        <ele>2483.3</ele>
        <time>2026-02-02T10:16:33Z</time>
      </trkpt>
      <trkpt lat="45.95156" lon="6.55544">
        <ele>2483.3</ele>
        <time>2026-02-02T10:16:34Z</time>
      </trkpt>
      <trkpt lat="45.95157" lon="6.55544">
        <ele>2483.3</ele>
        <time>2026-02-02T10:16:35Z</time>
      </trkpt>
      <trkpt lat="45.95157" lon="6.55544">
        <ele>2483.3</ele>
        <time>2026-02-02T10:16:36Z</time>
      </trkpt>
      <trkpt lat="45.95157" lon="6.55543">
        <ele>2483.3</ele>
        <time>2026-02-02T10:16:37Z</time>
      </trkpt>
      <trkpt lat="45.95157" lon="6.55543">
        <ele>2483.9</ele>
        <time>2026-02-02T10:16:38Z</time>
      </trkpt>
      <trkpt lat="45.95157" lon="6.55543">
        <ele>2483.9</ele>
        <time>2026-02-02T10:16:39Z</time>
      </trkpt>
      <trkpt lat="45.95157" lon="6.55543">
        <ele>2483.9</ele>
        <time>2026-02-02T10:16:40Z</time>
      </trkpt>
      <trkpt lat="45.95157" lon="6.55543">
        <ele>2483.9</ele>
        <time>2026-02-02T10:16:41Z</time>
      </trkpt>
      <trkpt lat="45.95157" lon="6.55543">
        <ele>2483.9</ele>
        <time>2026-02-02T10:16:42Z</time>
      </trkpt>
      <trkpt lat="45.95157" lon="6.55543">
        <ele>2483.9</ele>
        <time>2026-02-02T10:16:43Z</time>
      </trkpt>
      <trkpt lat="45.95157" lon="6.55543">
        <ele>2483.9</ele>
        <time>2026-02-02T10:16:44Z</time>
      </trkpt>
      <trkpt lat="45.95157" lon="6.55543">
        <ele>2483.9</ele>
        <time>2026-02-02T10:16:45Z</time>
      </trkpt>
      <trkpt lat="45.95157" lon="6.55543">
        <ele>2483.9</ele>
        <time>2026-02-02T10:16:46Z</time>
      </trkpt>
      <trkpt lat="45.95157" lon="6.55543">
        <ele>2483.9</ele>
        <time>2026-02-02T10:16:47Z</time>
      </trkpt>
      <trkpt lat="45.95158" lon="6.55543">
        <ele>2483.9</ele>
        <time>2026-02-02T10:16:48Z</time>
      </trkpt>
      <trkpt lat="45.95158" lon="6.55542">
        <ele>2483.9</ele>
        <time>2026-02-02T10:16:49Z</time>
      </trkpt>
      <trkpt lat="45.95158" lon="6.55542">
        <ele>2483.9</ele>
        <time>2026-02-02T10:16:50Z</time>
      </trkpt>
      <trkpt lat="45.95157" lon="6.55543">
        <ele>2483.9</ele>
        <time>2026-02-02T10:16:51Z</time>
      </trkpt>
      <trkpt lat="45.95157" lon="6.55543">
        <ele>2483.9</ele>
        <time>2026-02-02T10:16:52Z</time>
      </trkpt>
      <trkpt lat="45.95157" lon="6.55543">
        <ele>2483.9</ele>
        <time>2026-02-02T10:16:53Z</time>
      </trkpt>
      <trkpt lat="45.95157" lon="6.55543">
        <ele>2483.9</ele>
        <time>2026-02-02T10:16:54Z</time>
      </trkpt>
      <trkpt lat="45.95158" lon="6.55543">
        <ele>2483.9</ele>
        <time>2026-02-02T10:16:55Z</time>
      </trkpt>
      <trkpt lat="45.95157" lon="6.55543">
        <ele>2483.9</ele>
        <time>2026-02-02T10:16:56Z</time>
      </trkpt>
      <trkpt lat="45.95157" lon="6.55543">
        <ele>2483.9</ele>
        <time>2026-02-02T10:16:57Z</time>
      </trkpt>
      <trkpt lat="45.95157" lon="6.55543">
        <ele>2483.9</ele>
        <time>2026-02-02T10:16:58Z</time>
      </trkpt>
      <trkpt lat="45.95157" lon="6.55543">
        <ele>2483.9</ele>
        <time>2026-02-02T10:16:59Z</time>
      </trkpt>
      <trkpt lat="45.95158" lon="6.55543">
        <ele>2483.9</ele>
        <time>2026-02-02T10:17:00Z</time>
      </trkpt>
      <trkpt lat="45.95158" lon="6.55543">
        <ele>2483.9</ele>
        <time>2026-02-02T10:17:01Z</time>
      </trkpt>
      <trkpt lat="45.95158" lon="6.55543">
        <ele>2483.9</ele>
        <time>2026-02-02T10:17:02Z</time>
      </trkpt>
      <trkpt lat="45.95158" lon="6.55542">
        <ele>2483.9</ele>
        <time>2026-02-02T10:17:03Z</time>
      </trkpt>
      <trkpt lat="45.95158" lon="6.55542">
        <ele>2483.9</ele>
        <time>2026-02-02T10:17:04Z</time>
      </trkpt>
      <trkpt lat="45.95158" lon="6.55542">
        <ele>2483.9</ele>
        <time>2026-02-02T10:17:05Z</time>
      </trkpt>
      <trkpt lat="45.95158" lon="6.55542">
        <ele>2483.9</ele>
        <time>2026-02-02T10:17:06Z</time>
      </trkpt>
      <trkpt lat="45.95158" lon="6.55542">
        <ele>2483.9</ele>
        <time>2026-02-02T10:17:07Z</time>
      </trkpt>
      <trkpt lat="45.95158" lon="6.55542">
        <ele>2483.9</ele>
        <time>2026-02-02T10:17:08Z</time>
      </trkpt>
      <trkpt lat="45.95158" lon="6.55542">
        <ele>2483.9</ele>
        <time>2026-02-02T10:17:09Z</time>
      </trkpt>
      <trkpt lat="45.95157" lon="6.55543">
        <ele>2483.9</ele>
        <time>2026-02-02T10:17:10Z</time>
      </trkpt>
      <trkpt lat="45.95157" lon="6.55543">
        <ele>2483.9</ele>
        <time>2026-02-02T10:17:11Z</time>
      </trkpt>
      <trkpt lat="45.95157" lon="6.55543">
        <ele>2483.9</ele>
        <time>2026-02-02T10:17:12Z</time>
      </trkpt>
      <trkpt lat="45.95157" lon="6.55543">
        <ele>2483.9</ele>
        <time>2026-02-02T10:17:13Z</time>
      </trkpt>
      <trkpt lat="45.95157" lon="6.55543">
        <ele>2483.9</ele>
        <time>2026-02-02T10:17:14Z</time>
      </trkpt>
      <trkpt lat="45.95157" lon="6.55543">
        <ele>2483.9</ele>
        <time>2026-02-02T10:17:15Z</time>
      </trkpt>
      <trkpt lat="45.95157" lon="6.55543">
        <ele>2483.9</ele>
        <time>2026-02-02T10:17:16Z</time>
      </trkpt>
      <trkpt lat="45.95157" lon="6.55543">
        <ele>2483.9</ele>
        <time>2026-02-02T10:17:17Z</time>
      </trkpt>
      <trkpt lat="45.95157" lon="6.55542">
        <ele>2483.9</ele>
        <time>2026-02-02T10:17:18Z</time>
      </trkpt>
      <trkpt lat="45.95157" lon="6.55543">
        <ele>2483.9</ele>
        <time>2026-02-02T10:17:19Z</time>
      </trkpt>
      <trkpt lat="45.95157" lon="6.55543">
        <ele>2483.9</ele>
        <time>2026-02-02T10:17:20Z</time>
      </trkpt>
      <trkpt lat="45.95157" lon="6.55543">
        <ele>2483.9</ele>
        <time>2026-02-02T10:17:21Z</time>
      </trkpt>
      <trkpt lat="45.95158" lon="6.55543">
        <ele>2483.9</ele>
        <time>2026-02-02T10:17:22Z</time>
      </trkpt>
      <trkpt lat="45.95158" lon="6.55542">
        <ele>2483.9</ele>
        <time>2026-02-02T10:17:24Z</time>
      </trkpt>
      <trkpt lat="45.95158" lon="6.55542">
        <ele>2483.9</ele>
        <time>2026-02-02T10:17:25Z</time>
      </trkpt>
      <trkpt lat="45.95158" lon="6.55542">
        <ele>2483.9</ele>
        <time>2026-02-02T10:17:26Z</time>
      </trkpt>
      <trkpt lat="45.95158" lon="6.55541">
        <ele>2483.9</ele>
        <time>2026-02-02T10:17:27Z</time>
      </trkpt>
      <trkpt lat="45.95159" lon="6.55541">
        <ele>2483.9</ele>
        <time>2026-02-02T10:17:28Z</time>
      </trkpt>
      <trkpt lat="45.95159" lon="6.55541">
        <ele>2483.9</ele>
        <time>2026-02-02T10:17:29Z</time>
      </trkpt>
      <trkpt lat="45.95159" lon="6.5554">
        <ele>2485.3</ele>
        <time>2026-02-02T10:17:30Z</time>
      </trkpt>
      <trkpt lat="45.95159" lon="6.5554">
        <ele>2485.3</ele>
        <time>2026-02-02T10:17:31Z</time>
      </trkpt>
      <trkpt lat="45.95159" lon="6.55539">
        <ele>2485.3</ele>
        <time>2026-02-02T10:17:32Z</time>
      </trkpt>
      <trkpt lat="45.95159" lon="6.55538">
        <ele>2485.3</ele>
        <time>2026-02-02T10:17:34Z</time>
      </trkpt>
      <trkpt lat="45.9516" lon="6.55538">
        <ele>2485.3</ele>
        <time>2026-02-02T10:17:35Z</time>
      </trkpt>
      <trkpt lat="45.9516" lon="6.55538">
        <ele>2485.3</ele>
        <time>2026-02-02T10:17:36Z</time>
      </trkpt>
      <trkpt lat="45.9516" lon="6.55538">
        <ele>2485.3</ele>
        <time>2026-02-02T10:17:37Z</time>
      </trkpt>
      <trkpt lat="45.9516" lon="6.55538">
        <ele>2485.3</ele>
        <time>2026-02-02T10:17:38Z</time>
      </trkpt>
      <trkpt lat="45.9516" lon="6.55538">
        <ele>2485.3</ele>
        <time>2026-02-02T10:17:39Z</time>
      </trkpt>
      <trkpt lat="45.9516" lon="6.55537">
        <ele>2485.3</ele>
        <time>2026-02-02T10:17:40Z</time>
      </trkpt>
      <trkpt lat="45.9516" lon="6.55537">
        <ele>2485.3</ele>
        <time>2026-02-02T10:17:41Z</time>
      </trkpt>
      <trkpt lat="45.9516" lon="6.55537">
        <ele>2485.3</ele>
        <time>2026-02-02T10:17:42Z</time>
      </trkpt>
      <trkpt lat="45.9516" lon="6.55537">
        <ele>2485.3</ele>
        <time>2026-02-02T10:17:43Z</time>
      </trkpt>
      <trkpt lat="45.9516" lon="6.55537">
        <ele>2485.3</ele>
        <time>2026-02-02T10:17:44Z</time>
      </trkpt>
      <trkpt lat="45.9516" lon="6.55537">
        <ele>2485.3</ele>
        <time>2026-02-02T10:17:45Z</time>
      </trkpt>
      <trkpt lat="45.9516" lon="6.55537">
        <ele>2485.3</ele>
        <time>2026-02-02T10:17:46Z</time>
      </trkpt>
      <trkpt lat="45.9516" lon="6.55537">
        <ele>2485.9</ele>
        <time>2026-02-02T10:17:47Z</time>
      </trkpt>
      <trkpt lat="45.9516" lon="6.55537">
        <ele>2485.9</ele>
        <time>2026-02-02T10:17:48Z</time>
      </trkpt>
      <trkpt lat="45.9516" lon="6.55537">
        <ele>2485.9</ele>
        <time>2026-02-02T10:17:49Z</time>
      </trkpt>
      <trkpt lat="45.9516" lon="6.55537">
        <ele>2485.9</ele>
        <time>2026-02-02T10:17:50Z</time>
      </trkpt>
      <trkpt lat="45.9516" lon="6.55537">
        <ele>2485.9</ele>
        <time>2026-02-02T10:17:51Z</time>
      </trkpt>
      <trkpt lat="45.9516" lon="6.55537">
        <ele>2485.9</ele>
        <time>2026-02-02T10:17:52Z</time>
      </trkpt>
      <trkpt lat="45.9516" lon="6.55537">
        <ele>2485.9</ele>
        <time>2026-02-02T10:17:53Z</time>
      </trkpt>
      <trkpt lat="45.9516" lon="6.55538">
        <ele>2485.9</ele>
        <time>2026-02-02T10:17:54Z</time>
      </trkpt>
      <trkpt lat="45.9516" lon="6.55538">
        <ele>2485.3</ele>
        <time>2026-02-02T10:17:55Z</time>
      </trkpt>
      <trkpt lat="45.9516" lon="6.55538">
        <ele>2485.3</ele>
        <time>2026-02-02T10:17:57Z</time>
      </trkpt>
      <trkpt lat="45.9516" lon="6.55538">
        <ele>2485.9</ele>
        <time>2026-02-02T10:17:58Z</time>
      </trkpt>
      <trkpt lat="45.9516" lon="6.55538">
        <ele>2485.9</ele>
        <time>2026-02-02T10:17:59Z</time>
      </trkpt>
      <trkpt lat="45.9516" lon="6.55538">
        <ele>2485.9</ele>
        <time>2026-02-02T10:18:00Z</time>
      </trkpt>
      <trkpt lat="45.9516" lon="6.55538">
        <ele>2485.9</ele>
        <time>2026-02-02T10:18:01Z</time>
      </trkpt>
      <trkpt lat="45.9516" lon="6.55539">
        <ele>2485.9</ele>
        <time>2026-02-02T10:18:02Z</time>
      </trkpt>
      <trkpt lat="45.9516" lon="6.55539">
        <ele>2485.9</ele>
        <time>2026-02-02T10:18:03Z</time>
      </trkpt>
      <trkpt lat="45.9516" lon="6.55539">
        <ele>2485.9</ele>
        <time>2026-02-02T10:18:04Z</time>
      </trkpt>
      <trkpt lat="45.9516" lon="6.55539">
        <ele>2485.9</ele>
        <time>2026-02-02T10:18:05Z</time>
      </trkpt>
      <trkpt lat="45.95161" lon="6.55539">
        <ele>2485.9</ele>
        <time>2026-02-02T10:18:06Z</time>
      </trkpt>
      <trkpt lat="45.95161" lon="6.55539">
        <ele>2485.9</ele>
        <time>2026-02-02T10:18:07Z</time>
      </trkpt>
      <trkpt lat="45.95161" lon="6.5554">
        <ele>2485.9</ele>
        <time>2026-02-02T10:18:08Z</time>
      </trkpt>
      <trkpt lat="45.95161" lon="6.5554">
        <ele>2485.9</ele>
        <time>2026-02-02T10:18:09Z</time>
      </trkpt>
      <trkpt lat="45.95161" lon="6.5554">
        <ele>2485.9</ele>
        <time>2026-02-02T10:18:10Z</time>
      </trkpt>
      <trkpt lat="45.95161" lon="6.5554">
        <ele>2485.9</ele>
        <time>2026-02-02T10:18:11Z</time>
      </trkpt>
      <trkpt lat="45.95161" lon="6.55541">
        <ele>2484.6</ele>
        <time>2026-02-02T10:18:12Z</time>
      </trkpt>
      <trkpt lat="45.95161" lon="6.55541">
        <ele>2484.6</ele>
        <time>2026-02-02T10:18:13Z</time>
      </trkpt>
      <trkpt lat="45.95161" lon="6.55541">
        <ele>2484.6</ele>
        <time>2026-02-02T10:18:14Z</time>
      </trkpt>
      <trkpt lat="45.95161" lon="6.55541">
        <ele>2484.6</ele>
        <time>2026-02-02T10:18:15Z</time>
      </trkpt>
      <trkpt lat="45.95161" lon="6.55541">
        <ele>2484.6</ele>
        <time>2026-02-02T10:18:16Z</time>
      </trkpt>
      <trkpt lat="45.95161" lon="6.55541">
        <ele>2484.6</ele>
        <time>2026-02-02T10:18:17Z</time>
      </trkpt>
      <trkpt lat="45.95161" lon="6.55541">
        <ele>2484.6</ele>
        <time>2026-02-02T10:18:18Z</time>
      </trkpt>
      <trkpt lat="45.95161" lon="6.55542">
        <ele>2484.6</ele>
        <time>2026-02-02T10:18:19Z</time>
      </trkpt>
      <trkpt lat="45.95161" lon="6.55542">
        <ele>2484.6</ele>
        <time>2026-02-02T10:18:20Z</time>
      </trkpt>
      <trkpt lat="45.95161" lon="6.55542">
        <ele>2484.6</ele>
        <time>2026-02-02T10:18:21Z</time>
      </trkpt>
      <trkpt lat="45.95161" lon="6.55542">
        <ele>2484.6</ele>
        <time>2026-02-02T10:18:22Z</time>
      </trkpt>
      <trkpt lat="45.95161" lon="6.55542">
        <ele>2484.6</ele>
        <time>2026-02-02T10:18:23Z</time>
      </trkpt>
      <trkpt lat="45.95161" lon="6.55542">
        <ele>2484.6</ele>
        <time>2026-02-02T10:18:24Z</time>
      </trkpt>
      <trkpt lat="45.95161" lon="6.55542">
        <ele>2484.6</ele>
        <time>2026-02-02T10:18:25Z</time>
      </trkpt>
      <trkpt lat="45.95161" lon="6.55542">
        <ele>2484.6</ele>
        <time>2026-02-02T10:18:26Z</time>
      </trkpt>
      <trkpt lat="45.95161" lon="6.55542">
        <ele>2484.6</ele>
        <time>2026-02-02T10:18:27Z</time>
      </trkpt>
      <trkpt lat="45.95161" lon="6.55542">
        <ele>2484.6</ele>
        <time>2026-02-02T10:18:28Z</time>
      </trkpt>
      <trkpt lat="45.95161" lon="6.55542">
        <ele>2484.6</ele>
        <time>2026-02-02T10:18:29Z</time>
      </trkpt>
      <trkpt lat="45.95161" lon="6.55542">
        <ele>2484.6</ele>
        <time>2026-02-02T10:18:30Z</time>
      </trkpt>
      <trkpt lat="45.95161" lon="6.55542">
        <ele>2484.6</ele>
        <time>2026-02-02T10:18:31Z</time>
      </trkpt>
      <trkpt lat="45.95161" lon="6.55542">
        <ele>2484.6</ele>
        <time>2026-02-02T10:18:32Z</time>
      </trkpt>
      <trkpt lat="45.95161" lon="6.55542">
        <ele>2484.6</ele>
        <time>2026-02-02T10:18:33Z</time>
      </trkpt>
      <trkpt lat="45.95161" lon="6.55542">
        <ele>2484.6</ele>
        <time>2026-02-02T10:18:34Z</time>
      </trkpt>
      <trkpt lat="45.95161" lon="6.55542">
        <ele>2484.6</ele>
        <time>2026-02-02T10:18:35Z</time>
      </trkpt>
      <trkpt lat="45.95161" lon="6.55542">
        <ele>2484.6</ele>
        <time>2026-02-02T10:18:36Z</time>
      </trkpt>
      <trkpt lat="45.95161" lon="6.55542">
        <ele>2484.6</ele>
        <time>2026-02-02T10:18:37Z</time>
      </trkpt>
      <trkpt lat="45.95161" lon="6.55542">
        <ele>2484.6</ele>
        <time>2026-02-02T10:18:38Z</time>
      </trkpt>
      <trkpt lat="45.95161" lon="6.55542">
        <ele>2484.6</ele>
        <time>2026-02-02T10:18:39Z</time>
      </trkpt>
      <trkpt lat="45.95161" lon="6.55542">
        <ele>2484.6</ele>
        <time>2026-02-02T10:18:40Z</time>
      </trkpt>
      <trkpt lat="45.95161" lon="6.55542">
        <ele>2484.6</ele>
        <time>2026-02-02T10:18:41Z</time>
      </trkpt>
      <trkpt lat="45.95161" lon="6.55542">
        <ele>2484.6</ele>
        <time>2026-02-02T10:18:42Z</time>
      </trkpt>
      <trkpt lat="45.95161" lon="6.55542">
        <ele>2484.6</ele>
        <time>2026-02-02T10:18:43Z</time>
      </trkpt>
      <trkpt lat="45.95161" lon="6.55542">
        <ele>2484.6</ele>
        <time>2026-02-02T10:18:44Z</time>
      </trkpt>
      <trkpt lat="45.95161" lon="6.55542">
        <ele>2484.6</ele>
        <time>2026-02-02T10:18:45Z</time>
      </trkpt>
      <trkpt lat="45.95161" lon="6.55542">
        <ele>2484.6</ele>
        <time>2026-02-02T10:18:46Z</time>
      </trkpt>
      <trkpt lat="45.95161" lon="6.55542">
        <ele>2484.6</ele>
        <time>2026-02-02T10:18:47Z</time>
      </trkpt>
      <trkpt lat="45.95161" lon="6.55542">
        <ele>2484.6</ele>
        <time>2026-02-02T10:18:48Z</time>
      </trkpt>
      <trkpt lat="45.95161" lon="6.55542">
        <ele>2484.6</ele>
        <time>2026-02-02T10:18:49Z</time>
      </trkpt>
      <trkpt lat="45.95161" lon="6.55542">
        <ele>2484.6</ele>
        <time>2026-02-02T10:18:50Z</time>
      </trkpt>
      <trkpt lat="45.95161" lon="6.55542">
        <ele>2484.6</ele>
        <time>2026-02-02T10:18:51Z</time>
      </trkpt>
      <trkpt lat="45.95161" lon="6.55542">
        <ele>2484.6</ele>
        <time>2026-02-02T10:18:52Z</time>
      </trkpt>
      <trkpt lat="45.95161" lon="6.55542">
        <ele>2484.6</ele>
        <time>2026-02-02T10:18:53Z</time>
      </trkpt>
      <trkpt lat="45.95161" lon="6.55542">
        <ele>2484.6</ele>
        <time>2026-02-02T10:18:54Z</time>
      </trkpt>
      <trkpt lat="45.95161" lon="6.55542">
        <ele>2484.6</ele>
        <time>2026-02-02T10:18:55Z</time>
      </trkpt>
      <trkpt lat="45.95161" lon="6.55541">
        <ele>2484.6</ele>
        <time>2026-02-02T10:18:56Z</time>
      </trkpt>
      <trkpt lat="45.95161" lon="6.55541">
        <ele>2484.6</ele>
        <time>2026-02-02T10:18:57Z</time>
      </trkpt>
      <trkpt lat="45.95161" lon="6.55541">
        <ele>2484.6</ele>
        <time>2026-02-02T10:18:58Z</time>
      </trkpt>
      <trkpt lat="45.95161" lon="6.55542">
        <ele>2484.6</ele>
        <time>2026-02-02T10:18:59Z</time>
      </trkpt>
      <trkpt lat="45.95161" lon="6.55541">
        <ele>2484.6</ele>
        <time>2026-02-02T10:19:00Z</time>
      </trkpt>
      <trkpt lat="45.95161" lon="6.55541">
        <ele>2484.6</ele>
        <time>2026-02-02T10:19:01Z</time>
      </trkpt>
      <trkpt lat="45.95161" lon="6.55541">
        <ele>2484.6</ele>
        <time>2026-02-02T10:19:02Z</time>
      </trkpt>
      <trkpt lat="45.95161" lon="6.55541">
        <ele>2484.6</ele>
        <time>2026-02-02T10:19:03Z</time>
      </trkpt>
      <trkpt lat="45.95161" lon="6.55541">
        <ele>2484.6</ele>
        <time>2026-02-02T10:19:04Z</time>
      </trkpt>
      <trkpt lat="45.95161" lon="6.55541">
        <ele>2484.6</ele>
        <time>2026-02-02T10:19:05Z</time>
      </trkpt>
      <trkpt lat="45.95161" lon="6.55541">
        <ele>2484.6</ele>
        <time>2026-02-02T10:19:06Z</time>
      </trkpt>
      <trkpt lat="45.95161" lon="6.55541">
        <ele>2484.6</ele>
        <time>2026-02-02T10:19:07Z</time>
      </trkpt>
      <trkpt lat="45.95161" lon="6.55541">
        <ele>2484.6</ele>
        <time>2026-02-02T10:19:08Z</time>
      </trkpt>
      <trkpt lat="45.95161" lon="6.55541">
        <ele>2484.6</ele>
        <time>2026-02-02T10:19:09Z</time>
      </trkpt>
      <trkpt lat="45.95161" lon="6.55541">
        <ele>2484.6</ele>
        <time>2026-02-02T10:19:10Z</time>
      </trkpt>
      <trkpt lat="45.95161" lon="6.55541">
        <ele>2484.6</ele>
        <time>2026-02-02T10:19:11Z</time>
      </trkpt>
      <trkpt lat="45.95161" lon="6.55541">
        <ele>2484.6</ele>
        <time>2026-02-02T10:19:13Z</time>
      </trkpt>
      <trkpt lat="45.95161" lon="6.55541">
        <ele>2484.6</ele>
        <time>2026-02-02T10:19:14Z</time>
      </trkpt>
      <trkpt lat="45.95161" lon="6.55541">
        <ele>2484.6</ele>
        <time>2026-02-02T10:19:15Z</time>
      </trkpt>
      <trkpt lat="45.95161" lon="6.55541">
        <ele>2484.6</ele>
        <time>2026-02-02T10:19:16Z</time>
      </trkpt>
      <trkpt lat="45.95161" lon="6.55541">
        <ele>2484.6</ele>
        <time>2026-02-02T10:19:17Z</time>
      </trkpt>
      <trkpt lat="45.95161" lon="6.55541">
        <ele>2484.6</ele>
        <time>2026-02-02T10:19:18Z</time>
      </trkpt>
      <trkpt lat="45.95161" lon="6.55541">
        <ele>2484.6</ele>
        <time>2026-02-02T10:19:19Z</time>
      </trkpt>
      <trkpt lat="45.95161" lon="6.55541">
        <ele>2484.6</ele>
        <time>2026-02-02T10:19:20Z</time>
      </trkpt>
      <trkpt lat="45.95161" lon="6.55541">
        <ele>2484.6</ele>
        <time>2026-02-02T10:19:21Z</time>
      </trkpt>
      <trkpt lat="45.95161" lon="6.55541">
        <ele>2484.6</ele>
        <time>2026-02-02T10:19:22Z</time>
      </trkpt>
      <trkpt lat="45.95161" lon="6.55541">
        <ele>2484.6</ele>
        <time>2026-02-02T10:19:23Z</time>
      </trkpt>
      <trkpt lat="45.95161" lon="6.55541">
        <ele>2484.6</ele>
        <time>2026-02-02T10:19:24Z</time>
      </trkpt>
      <trkpt lat="45.95161" lon="6.5554">
        <ele>2485.9</ele>
        <time>2026-02-02T10:19:25Z</time>
      </trkpt>
      <trkpt lat="45.95161" lon="6.5554">
        <ele>2485.9</ele>
        <time>2026-02-02T10:19:26Z</time>
      </trkpt>
      <trkpt lat="45.95161" lon="6.5554">
        <ele>2485.9</ele>
        <time>2026-02-02T10:19:27Z</time>
      </trkpt>
      <trkpt lat="45.95161" lon="6.5554">
        <ele>2485.9</ele>
        <time>2026-02-02T10:19:28Z</time>
      </trkpt>
      <trkpt lat="45.95161" lon="6.5554">
        <ele>2485.9</ele>
        <time>2026-02-02T10:19:29Z</time>
      </trkpt>
      <trkpt lat="45.95161" lon="6.5554">
        <ele>2485.9</ele>
        <time>2026-02-02T10:19:30Z</time>
      </trkpt>
      <trkpt lat="45.95161" lon="6.5554">
        <ele>2485.9</ele>
        <time>2026-02-02T10:19:31Z</time>
      </trkpt>
      <trkpt lat="45.95161" lon="6.5554">
        <ele>2485.9</ele>
        <time>2026-02-02T10:19:32Z</time>
      </trkpt>
      <trkpt lat="45.95161" lon="6.5554">
        <ele>2485.9</ele>
        <time>2026-02-02T10:19:33Z</time>
      </trkpt>
      <trkpt lat="45.95161" lon="6.5554">
        <ele>2485.9</ele>
        <time>2026-02-02T10:19:34Z</time>
      </trkpt>
      <trkpt lat="45.95161" lon="6.5554">
        <ele>2485.9</ele>
        <time>2026-02-02T10:19:35Z</time>
      </trkpt>
      <trkpt lat="45.95161" lon="6.5554">
        <ele>2485.9</ele>
        <time>2026-02-02T10:19:36Z</time>
      </trkpt>
      <trkpt lat="45.95161" lon="6.5554">
        <ele>2485.9</ele>
        <time>2026-02-02T10:19:37Z</time>
      </trkpt>
      <trkpt lat="45.95161" lon="6.5554">
        <ele>2485.9</ele>
        <time>2026-02-02T10:19:38Z</time>
      </trkpt>
      <trkpt lat="45.95161" lon="6.5554">
        <ele>2485.9</ele>
        <time>2026-02-02T10:19:39Z</time>
      </trkpt>
      <trkpt lat="45.95161" lon="6.5554">
        <ele>2485.9</ele>
        <time>2026-02-02T10:19:40Z</time>
      </trkpt>
      <trkpt lat="45.95161" lon="6.55541">
        <ele>2484.6</ele>
        <time>2026-02-02T10:19:41Z</time>
      </trkpt>
      <trkpt lat="45.9516" lon="6.55541">
        <ele>2484.6</ele>
        <time>2026-02-02T10:19:42Z</time>
      </trkpt>
      <trkpt lat="45.95161" lon="6.55541">
        <ele>2484.6</ele>
        <time>2026-02-02T10:19:43Z</time>
      </trkpt>
      <trkpt lat="45.95161" lon="6.55541">
        <ele>2484.6</ele>
        <time>2026-02-02T10:19:44Z</time>
      </trkpt>
      <trkpt lat="45.95161" lon="6.55541">
        <ele>2484.6</ele>
        <time>2026-02-02T10:19:45Z</time>
      </trkpt>
      <trkpt lat="45.95161" lon="6.55541">
        <ele>2484.6</ele>
        <time>2026-02-02T10:19:46Z</time>
      </trkpt>
      <trkpt lat="45.95161" lon="6.55541">
        <ele>2484.6</ele>
        <time>2026-02-02T10:19:47Z</time>
      </trkpt>
      <trkpt lat="45.95161" lon="6.55541">
        <ele>2484.6</ele>
        <time>2026-02-02T10:19:48Z</time>
      </trkpt>
      <trkpt lat="45.95161" lon="6.55541">
        <ele>2484.6</ele>
        <time>2026-02-02T10:19:49Z</time>
      </trkpt>
      <trkpt lat="45.95161" lon="6.55541">
        <ele>2484.6</ele>
        <time>2026-02-02T10:19:50Z</time>
      </trkpt>
      <trkpt lat="45.95161" lon="6.55541">
        <ele>2484.6</ele>
        <time>2026-02-02T10:19:51Z</time>
      </trkpt>
      <trkpt lat="45.95161" lon="6.55541">
        <ele>2484.6</ele>
        <time>2026-02-02T10:19:52Z</time>
      </trkpt>
      <trkpt lat="45.95161" lon="6.55541">
        <ele>2484.6</ele>
        <time>2026-02-02T10:19:53Z</time>
      </trkpt>
      <trkpt lat="45.95161" lon="6.55541">
        <ele>2484.6</ele>
        <time>2026-02-02T10:19:54Z</time>
      </trkpt>
      <trkpt lat="45.95161" lon="6.55541">
        <ele>2484.6</ele>
        <time>2026-02-02T10:19:55Z</time>
      </trkpt>
      <trkpt lat="45.95161" lon="6.55541">
        <ele>2484.6</ele>
        <time>2026-02-02T10:19:56Z</time>
      </trkpt>
      <trkpt lat="45.95161" lon="6.55541">
        <ele>2484.6</ele>
        <time>2026-02-02T10:19:57Z</time>
      </trkpt>
      <trkpt lat="45.95161" lon="6.55541">
        <ele>2484.6</ele>
        <time>2026-02-02T10:19:58Z</time>
      </trkpt>
      <trkpt lat="45.95161" lon="6.55541">
        <ele>2484.6</ele>
        <time>2026-02-02T10:19:59Z</time>
      </trkpt>
      <trkpt lat="45.95161" lon="6.55541">
        <ele>2484.6</ele>
        <time>2026-02-02T10:20:00Z</time>
      </trkpt>
      <trkpt lat="45.95161" lon="6.55541">
        <ele>2484.6</ele>
        <time>2026-02-02T10:20:01Z</time>
      </trkpt>
      <trkpt lat="45.95161" lon="6.55541">
        <ele>2484.6</ele>
        <time>2026-02-02T10:20:02Z</time>
      </trkpt>
      <trkpt lat="45.95161" lon="6.55541">
        <ele>2484.6</ele>
        <time>2026-02-02T10:20:03Z</time>
      </trkpt>
      <trkpt lat="45.95161" lon="6.55541">
        <ele>2484.6</ele>
        <time>2026-02-02T10:20:04Z</time>
      </trkpt>
      <trkpt lat="45.95161" lon="6.55541">
        <ele>2484.6</ele>
        <time>2026-02-02T10:20:05Z</time>
      </trkpt>
      <trkpt lat="45.95161" lon="6.55541">
        <ele>2484.6</ele>
        <time>2026-02-02T10:20:06Z</time>
      </trkpt>
      <trkpt lat="45.95161" lon="6.55541">
        <ele>2484.6</ele>
        <time>2026-02-02T10:20:07Z</time>
      </trkpt>
      <trkpt lat="45.95161" lon="6.55541">
        <ele>2484.6</ele>
        <time>2026-02-02T10:20:08Z</time>
      </trkpt>
      <trkpt lat="45.95161" lon="6.55541">
        <ele>2484.6</ele>
        <time>2026-02-02T10:20:09Z</time>
      </trkpt>
      <trkpt lat="45.95161" lon="6.55541">
        <ele>2484.6</ele>
        <time>2026-02-02T10:20:10Z</time>
      </trkpt>
      <trkpt lat="45.95161" lon="6.55541">
        <ele>2484.6</ele>
        <time>2026-02-02T10:20:11Z</time>
      </trkpt>
      <trkpt lat="45.95161" lon="6.55541">
        <ele>2484.6</ele>
        <time>2026-02-02T10:20:12Z</time>
      </trkpt>
      <trkpt lat="45.95161" lon="6.55541">
        <ele>2484.6</ele>
        <time>2026-02-02T10:20:13Z</time>
      </trkpt>
      <trkpt lat="45.95161" lon="6.55541">
        <ele>2484.6</ele>
        <time>2026-02-02T10:20:14Z</time>
      </trkpt>
      <trkpt lat="45.95161" lon="6.55541">
        <ele>2484.6</ele>
        <time>2026-02-02T10:20:15Z</time>
      </trkpt>
      <trkpt lat="45.95161" lon="6.55541">
        <ele>2484.6</ele>
        <time>2026-02-02T10:20:16Z</time>
      </trkpt>
      <trkpt lat="45.95161" lon="6.55541">
        <ele>2484.6</ele>
        <time>2026-02-02T10:20:17Z</time>
      </trkpt>
      <trkpt lat="45.95161" lon="6.55541">
        <ele>2484.6</ele>
        <time>2026-02-02T10:20:18Z</time>
      </trkpt>
      <trkpt lat="45.95161" lon="6.55541">
        <ele>2484.6</ele>
        <time>2026-02-02T10:20:19Z</time>
      </trkpt>
      <trkpt lat="45.95161" lon="6.55541">
        <ele>2484.6</ele>
        <time>2026-02-02T10:20:20Z</time>
      </trkpt>
      <trkpt lat="45.95161" lon="6.55541">
        <ele>2484.6</ele>
        <time>2026-02-02T10:20:21Z</time>
      </trkpt>
      <trkpt lat="45.95161" lon="6.55541">
        <ele>2484.6</ele>
        <time>2026-02-02T10:20:22Z</time>
      </trkpt>
      <trkpt lat="45.95161" lon="6.55541">
        <ele>2484.6</ele>
        <time>2026-02-02T10:20:23Z</time>
      </trkpt>
      <trkpt lat="45.95161" lon="6.55541">
        <ele>2484.6</ele>
        <time>2026-02-02T10:20:24Z</time>
      </trkpt>
      <trkpt lat="45.95161" lon="6.55541">
        <ele>2484.6</ele>
        <time>2026-02-02T10:20:25Z</time>
      </trkpt>
      <trkpt lat="45.95161" lon="6.55541">
        <ele>2484.6</ele>
        <time>2026-02-02T10:20:26Z</time>
      </trkpt>
      <trkpt lat="45.95161" lon="6.55541">
        <ele>2484.6</ele>
        <time>2026-02-02T10:20:27Z</time>
      </trkpt>
      <trkpt lat="45.95161" lon="6.55541">
        <ele>2484.6</ele>
        <time>2026-02-02T10:20:28Z</time>
      </trkpt>
      <trkpt lat="45.95161" lon="6.55541">
        <ele>2484.6</ele>
        <time>2026-02-02T10:20:29Z</time>
      </trkpt>
      <trkpt lat="45.95161" lon="6.55541">
        <ele>2484.6</ele>
        <time>2026-02-02T10:20:30Z</time>
      </trkpt>
      <trkpt lat="45.95161" lon="6.55541">
        <ele>2484.6</ele>
        <time>2026-02-02T10:20:31Z</time>
      </trkpt>
      <trkpt lat="45.95161" lon="6.55541">
        <ele>2484.6</ele>
        <time>2026-02-02T10:20:32Z</time>
      </trkpt>
      <trkpt lat="45.95161" lon="6.55541">
        <ele>2484.6</ele>
        <time>2026-02-02T10:20:33Z</time>
      </trkpt>
      <trkpt lat="45.95161" lon="6.55541">
        <ele>2484.6</ele>
        <time>2026-02-02T10:20:34Z</time>
      </trkpt>
      <trkpt lat="45.95161" lon="6.55541">
        <ele>2484.6</ele>
        <time>2026-02-02T10:20:35Z</time>
      </trkpt>
      <trkpt lat="45.95161" lon="6.55541">
        <ele>2484.6</ele>
        <time>2026-02-02T10:20:36Z</time>
      </trkpt>
      <trkpt lat="45.95161" lon="6.55541">
        <ele>2484.6</ele>
        <time>2026-02-02T10:20:37Z</time>
      </trkpt>
      <trkpt lat="45.95161" lon="6.55541">
        <ele>2484.6</ele>
        <time>2026-02-02T10:20:38Z</time>
      </trkpt>
      <trkpt lat="45.95161" lon="6.55541">
        <ele>2484.6</ele>
        <time>2026-02-02T10:20:39Z</time>
      </trkpt>
      <trkpt lat="45.95161" lon="6.55541">
        <ele>2484.6</ele>
        <time>2026-02-02T10:20:40Z</time>
      </trkpt>
      <trkpt lat="45.95161" lon="6.55541">
        <ele>2484.6</ele>
        <time>2026-02-02T10:20:41Z</time>
      </trkpt>
      <trkpt lat="45.95161" lon="6.55541">
        <ele>2484.6</ele>
        <time>2026-02-02T10:20:42Z</time>
      </trkpt>
      <trkpt lat="45.95161" lon="6.55541">
        <ele>2484.6</ele>
        <time>2026-02-02T10:20:43Z</time>
      </trkpt>
      <trkpt lat="45.95161" lon="6.55541">
        <ele>2484.6</ele>
        <time>2026-02-02T10:20:44Z</time>
      </trkpt>
      <trkpt lat="45.95161" lon="6.55541">
        <ele>2484.6</ele>
        <time>2026-02-02T10:20:45Z</time>
      </trkpt>
      <trkpt lat="45.95161" lon="6.55541">
        <ele>2484.6</ele>
        <time>2026-02-02T10:20:46Z</time>
      </trkpt>
      <trkpt lat="45.95161" lon="6.55541">
        <ele>2484.6</ele>
        <time>2026-02-02T10:20:47Z</time>
      </trkpt>
      <trkpt lat="45.95161" lon="6.55541">
        <ele>2484.6</ele>
        <time>2026-02-02T10:20:48Z</time>
      </trkpt>
      <trkpt lat="45.95161" lon="6.55541">
        <ele>2484.6</ele>
        <time>2026-02-02T10:20:49Z</time>
      </trkpt>
      <trkpt lat="45.95161" lon="6.55541">
        <ele>2484.6</ele>
        <time>2026-02-02T10:20:50Z</time>
      </trkpt>
      <trkpt lat="45.95161" lon="6.55541">
        <ele>2484.6</ele>
        <time>2026-02-02T10:20:51Z</time>
      </trkpt>
      <trkpt lat="45.95161" lon="6.55541">
        <ele>2484.6</ele>
        <time>2026-02-02T10:20:52Z</time>
      </trkpt>
      <trkpt lat="45.95161" lon="6.55541">
        <ele>2484.6</ele>
        <time>2026-02-02T10:20:53Z</time>
      </trkpt>
      <trkpt lat="45.95161" lon="6.55541">
        <ele>2484.6</ele>
        <time>2026-02-02T10:20:54Z</time>
      </trkpt>
      <trkpt lat="45.95161" lon="6.55541">
        <ele>2484.6</ele>
        <time>2026-02-02T10:20:55Z</time>
      </trkpt>
      <trkpt lat="45.95161" lon="6.55541">
        <ele>2484.6</ele>
        <time>2026-02-02T10:20:56Z</time>
      </trkpt>
      <trkpt lat="45.95161" lon="6.55541">
        <ele>2484.6</ele>
        <time>2026-02-02T10:20:57Z</time>
      </trkpt>
      <trkpt lat="45.95161" lon="6.55541">
        <ele>2484.6</ele>
        <time>2026-02-02T10:20:58Z</time>
      </trkpt>
      <trkpt lat="45.95161" lon="6.55541">
        <ele>2484.6</ele>
        <time>2026-02-02T10:20:59Z</time>
      </trkpt>
      <trkpt lat="45.95161" lon="6.55541">
        <ele>2484.6</ele>
        <time>2026-02-02T10:21:00Z</time>
      </trkpt>
      <trkpt lat="45.95161" lon="6.55541">
        <ele>2484.6</ele>
        <time>2026-02-02T10:21:01Z</time>
      </trkpt>
      <trkpt lat="45.95161" lon="6.55541">
        <ele>2484.6</ele>
        <time>2026-02-02T10:21:02Z</time>
      </trkpt>
      <trkpt lat="45.95161" lon="6.55541">
        <ele>2484.6</ele>
        <time>2026-02-02T10:21:03Z</time>
      </trkpt>
      <trkpt lat="45.95161" lon="6.55541">
        <ele>2484.6</ele>
        <time>2026-02-02T10:21:04Z</time>
      </trkpt>
      <trkpt lat="45.95161" lon="6.55541">
        <ele>2484.6</ele>
        <time>2026-02-02T10:21:05Z</time>
      </trkpt>
      <trkpt lat="45.95161" lon="6.55541">
        <ele>2484.6</ele>
        <time>2026-02-02T10:21:06Z</time>
      </trkpt>
      <trkpt lat="45.95161" lon="6.55541">
        <ele>2484.6</ele>
        <time>2026-02-02T10:21:07Z</time>
      </trkpt>
      <trkpt lat="45.95161" lon="6.55541">
        <ele>2484.6</ele>
        <time>2026-02-02T10:21:08Z</time>
      </trkpt>
      <trkpt lat="45.95161" lon="6.55541">
        <ele>2484.6</ele>
        <time>2026-02-02T10:21:09Z</time>
      </trkpt>
      <trkpt lat="45.95161" lon="6.55541">
        <ele>2484.6</ele>
        <time>2026-02-02T10:21:10Z</time>
      </trkpt>
      <trkpt lat="45.95161" lon="6.55541">
        <ele>2484.6</ele>
        <time>2026-02-02T10:21:11Z</time>
      </trkpt>
      <trkpt lat="45.95161" lon="6.55541">
        <ele>2484.6</ele>
        <time>2026-02-02T10:21:12Z</time>
      </trkpt>
      <trkpt lat="45.95161" lon="6.55541">
        <ele>2484.6</ele>
        <time>2026-02-02T10:21:13Z</time>
      </trkpt>
      <trkpt lat="45.95161" lon="6.55541">
        <ele>2484.6</ele>
        <time>2026-02-02T10:21:14Z</time>
      </trkpt>
      <trkpt lat="45.95161" lon="6.55541">
        <ele>2484.6</ele>
        <time>2026-02-02T10:21:15Z</time>
      </trkpt>
      <trkpt lat="45.95161" lon="6.55541">
        <ele>2484.6</ele>
        <time>2026-02-02T10:21:16Z</time>
      </trkpt>
      <trkpt lat="45.95161" lon="6.55541">
        <ele>2484.6</ele>
        <time>2026-02-02T10:21:17Z</time>
      </trkpt>
      <trkpt lat="45.95161" lon="6.55541">
        <ele>2484.6</ele>
        <time>2026-02-02T10:21:18Z</time>
      </trkpt>
      <trkpt lat="45.95161" lon="6.55541">
        <ele>2484.6</ele>
        <time>2026-02-02T10:21:19Z</time>
      </trkpt>
      <trkpt lat="45.95161" lon="6.55541">
        <ele>2484.6</ele>
        <time>2026-02-02T10:21:20Z</time>
      </trkpt>
      <trkpt lat="45.95161" lon="6.55541">
        <ele>2484.6</ele>
        <time>2026-02-02T10:21:21Z</time>
      </trkpt>
      <trkpt lat="45.95161" lon="6.55541">
        <ele>2484.6</ele>
        <time>2026-02-02T10:21:22Z</time>
      </trkpt>
      <trkpt lat="45.95161" lon="6.55541">
        <ele>2484.6</ele>
        <time>2026-02-02T10:21:23Z</time>
      </trkpt>
      <trkpt lat="45.95161" lon="6.55541">
        <ele>2484.6</ele>
        <time>2026-02-02T10:21:24Z</time>
      </trkpt>
      <trkpt lat="45.95161" lon="6.55541">
        <ele>2484.6</ele>
        <time>2026-02-02T10:21:25Z</time>
      </trkpt>
      <trkpt lat="45.95161" lon="6.55541">
        <ele>2484.6</ele>
        <time>2026-02-02T10:21:26Z</time>
      </trkpt>
      <trkpt lat="45.95161" lon="6.55541">
        <ele>2484.6</ele>
        <time>2026-02-02T10:21:27Z</time>
      </trkpt>
      <trkpt lat="45.95161" lon="6.55541">
        <ele>2484.6</ele>
        <time>2026-02-02T10:21:28Z</time>
      </trkpt>
      <trkpt lat="45.95161" lon="6.55541">
        <ele>2484.6</ele>
        <time>2026-02-02T10:21:29Z</time>
      </trkpt>
      <trkpt lat="45.95161" lon="6.55541">
        <ele>2484.6</ele>
        <time>2026-02-02T10:21:30Z</time>
      </trkpt>
      <trkpt lat="45.95161" lon="6.55541">
        <ele>2484.6</ele>
        <time>2026-02-02T10:21:31Z</time>
      </trkpt>
      <trkpt lat="45.95161" lon="6.55541">
        <ele>2484.6</ele>
        <time>2026-02-02T10:21:32Z</time>
      </trkpt>
      <trkpt lat="45.95161" lon="6.55541">
        <ele>2484.6</ele>
        <time>2026-02-02T10:21:33Z</time>
      </trkpt>
      <trkpt lat="45.95161" lon="6.55541">
        <ele>2484.6</ele>
        <time>2026-02-02T10:21:34Z</time>
      </trkpt>
      <trkpt lat="45.95161" lon="6.55541">
        <ele>2484.6</ele>
        <time>2026-02-02T10:21:35Z</time>
      </trkpt>
      <trkpt lat="45.95161" lon="6.55541">
        <ele>2484.6</ele>
        <time>2026-02-02T10:21:36Z</time>
      </trkpt>
      <trkpt lat="45.95162" lon="6.55541">
        <ele>2484.6</ele>
        <time>2026-02-02T10:21:37Z</time>
      </trkpt>
      <trkpt lat="45.95162" lon="6.55541">
        <ele>2484.6</ele>
        <time>2026-02-02T10:21:38Z</time>
      </trkpt>
      <trkpt lat="45.95162" lon="6.55541">
        <ele>2484.6</ele>
        <time>2026-02-02T10:21:39Z</time>
      </trkpt>
      <trkpt lat="45.95162" lon="6.55541">
        <ele>2484.6</ele>
        <time>2026-02-02T10:21:40Z</time>
      </trkpt>
      <trkpt lat="45.95162" lon="6.55541">
        <ele>2484.6</ele>
        <time>2026-02-02T10:21:41Z</time>
      </trkpt>
      <trkpt lat="45.95162" lon="6.55541">
        <ele>2484.6</ele>
        <time>2026-02-02T10:21:42Z</time>
      </trkpt>
      <trkpt lat="45.95162" lon="6.55541">
        <ele>2484.6</ele>
        <time>2026-02-02T10:21:43Z</time>
      </trkpt>
      <trkpt lat="45.95162" lon="6.55541">
        <ele>2484.6</ele>
        <time>2026-02-02T10:21:44Z</time>
      </trkpt>
      <trkpt lat="45.95162" lon="6.55541">
        <ele>2484.6</ele>
        <time>2026-02-02T10:21:45Z</time>
      </trkpt>
      <trkpt lat="45.95162" lon="6.55541">
        <ele>2484.6</ele>
        <time>2026-02-02T10:21:46Z</time>
      </trkpt>
      <trkpt lat="45.95162" lon="6.55541">
        <ele>2484.6</ele>
        <time>2026-02-02T10:21:47Z</time>
      </trkpt>
      <trkpt lat="45.95162" lon="6.55541">
        <ele>2484.6</ele>
        <time>2026-02-02T10:21:48Z</time>
      </trkpt>
      <trkpt lat="45.95162" lon="6.55541">
        <ele>2484.6</ele>
        <time>2026-02-02T10:21:49Z</time>
      </trkpt>
      <trkpt lat="45.95162" lon="6.55541">
        <ele>2484.6</ele>
        <time>2026-02-02T10:21:50Z</time>
      </trkpt>
      <trkpt lat="45.95162" lon="6.55541">
        <ele>2484.6</ele>
        <time>2026-02-02T10:21:51Z</time>
      </trkpt>
      <trkpt lat="45.95162" lon="6.55541">
        <ele>2484.6</ele>
        <time>2026-02-02T10:21:52Z</time>
      </trkpt>
      <trkpt lat="45.95162" lon="6.55541">
        <ele>2484.6</ele>
        <time>2026-02-02T10:21:53Z</time>
      </trkpt>
      <trkpt lat="45.95162" lon="6.55541">
        <ele>2484.6</ele>
        <time>2026-02-02T10:21:54Z</time>
      </trkpt>
      <trkpt lat="45.95162" lon="6.55541">
        <ele>2484.6</ele>
        <time>2026-02-02T10:21:55Z</time>
      </trkpt>
      <trkpt lat="45.95162" lon="6.55541">
        <ele>2484.6</ele>
        <time>2026-02-02T10:21:56Z</time>
      </trkpt>
      <trkpt lat="45.95162" lon="6.55541">
        <ele>2484.6</ele>
        <time>2026-02-02T10:21:57Z</time>
      </trkpt>
      <trkpt lat="45.95162" lon="6.55541">
        <ele>2484.6</ele>
        <time>2026-02-02T10:21:58Z</time>
      </trkpt>
      <trkpt lat="45.95162" lon="6.5554">
        <ele>2485.9</ele>
        <time>2026-02-02T10:21:59Z</time>
      </trkpt>
      <trkpt lat="45.95162" lon="6.5554">
        <ele>2485.9</ele>
        <time>2026-02-02T10:22:00Z</time>
      </trkpt>
      <trkpt lat="45.95162" lon="6.5554">
        <ele>2485.9</ele>
        <time>2026-02-02T10:22:01Z</time>
      </trkpt>
      <trkpt lat="45.95162" lon="6.5554">
        <ele>2485.9</ele>
        <time>2026-02-02T10:22:02Z</time>
      </trkpt>
      <trkpt lat="45.95162" lon="6.5554">
        <ele>2485.9</ele>
        <time>2026-02-02T10:22:03Z</time>
      </trkpt>
      <trkpt lat="45.95161" lon="6.5554">
        <ele>2485.9</ele>
        <time>2026-02-02T10:22:04Z</time>
      </trkpt>
      <trkpt lat="45.95161" lon="6.5554">
        <ele>2485.9</ele>
        <time>2026-02-02T10:22:05Z</time>
      </trkpt>
      <trkpt lat="45.95161" lon="6.5554">
        <ele>2485.9</ele>
        <time>2026-02-02T10:22:06Z</time>
      </trkpt>
      <trkpt lat="45.95161" lon="6.5554">
        <ele>2485.9</ele>
        <time>2026-02-02T10:22:07Z</time>
      </trkpt>
      <trkpt lat="45.95161" lon="6.5554">
        <ele>2485.9</ele>
        <time>2026-02-02T10:22:08Z</time>
      </trkpt>
      <trkpt lat="45.95162" lon="6.5554">
        <ele>2485.9</ele>
        <time>2026-02-02T10:22:09Z</time>
      </trkpt>
      <trkpt lat="45.95162" lon="6.55539">
        <ele>2485.9</ele>
        <time>2026-02-02T10:22:10Z</time>
      </trkpt>
      <trkpt lat="45.95162" lon="6.55539">
        <ele>2485.9</ele>
        <time>2026-02-02T10:22:11Z</time>
      </trkpt>
      <trkpt lat="45.95163" lon="6.55539">
        <ele>2485.9</ele>
        <time>2026-02-02T10:22:12Z</time>
      </trkpt>
      <trkpt lat="45.95163" lon="6.55539">
        <ele>2486.6</ele>
        <time>2026-02-02T10:22:13Z</time>
      </trkpt>
      <trkpt lat="45.95163" lon="6.55538">
        <ele>2486.6</ele>
        <time>2026-02-02T10:22:14Z</time>
      </trkpt>
      <trkpt lat="45.95164" lon="6.55538">
        <ele>2486.6</ele>
        <time>2026-02-02T10:22:15Z</time>
      </trkpt>
      <trkpt lat="45.95164" lon="6.55538">
        <ele>2486.6</ele>
        <time>2026-02-02T10:22:16Z</time>
      </trkpt>
      <trkpt lat="45.95164" lon="6.55537">
        <ele>2486.6</ele>
        <time>2026-02-02T10:22:17Z</time>
      </trkpt>
      <trkpt lat="45.95164" lon="6.55537">
        <ele>2486.6</ele>
        <time>2026-02-02T10:22:18Z</time>
      </trkpt>
      <trkpt lat="45.95164" lon="6.55537">
        <ele>2486.6</ele>
        <time>2026-02-02T10:22:19Z</time>
      </trkpt>
      <trkpt lat="45.95165" lon="6.55536">
        <ele>2487.8</ele>
        <time>2026-02-02T10:22:20Z</time>
      </trkpt>
      <trkpt lat="45.95165" lon="6.55535">
        <ele>2487.8</ele>
        <time>2026-02-02T10:22:21Z</time>
      </trkpt>
      <trkpt lat="45.95165" lon="6.55535">
        <ele>2487.8</ele>
        <time>2026-02-02T10:22:22Z</time>
      </trkpt>
      <trkpt lat="45.95166" lon="6.55534">
        <ele>2487.8</ele>
        <time>2026-02-02T10:22:23Z</time>
      </trkpt>
      <trkpt lat="45.95166" lon="6.55534">
        <ele>2488.4</ele>
        <time>2026-02-02T10:22:24Z</time>
      </trkpt>
      <trkpt lat="45.95166" lon="6.55534">
        <ele>2488.4</ele>
        <time>2026-02-02T10:22:25Z</time>
      </trkpt>
      <trkpt lat="45.95166" lon="6.55533">
        <ele>2488.4</ele>
        <time>2026-02-02T10:22:26Z</time>
      </trkpt>
      <trkpt lat="45.95166" lon="6.55533">
        <ele>2488.4</ele>
        <time>2026-02-02T10:22:27Z</time>
      </trkpt>
      <trkpt lat="45.95167" lon="6.55533">
        <ele>2488.4</ele>
        <time>2026-02-02T10:22:28Z</time>
      </trkpt>
      <trkpt lat="45.95167" lon="6.55532">
        <ele>2488.4</ele>
        <time>2026-02-02T10:22:29Z</time>
      </trkpt>
      <trkpt lat="45.95167" lon="6.55532">
        <ele>2488.4</ele>
        <time>2026-02-02T10:22:30Z</time>
      </trkpt>
      <trkpt lat="45.95167" lon="6.55532">
        <ele>2489.4</ele>
        <time>2026-02-02T10:22:31Z</time>
      </trkpt>
      <trkpt lat="45.95167" lon="6.55532">
        <ele>2489.4</ele>
        <time>2026-02-02T10:22:32Z</time>
      </trkpt>
      <trkpt lat="45.95167" lon="6.55532">
        <ele>2489.4</ele>
        <time>2026-02-02T10:22:33Z</time>
      </trkpt>
      <trkpt lat="45.95167" lon="6.55532">
        <ele>2489.4</ele>
        <time>2026-02-02T10:22:34Z</time>
      </trkpt>
      <trkpt lat="45.95167" lon="6.55532">
        <ele>2489.4</ele>
        <time>2026-02-02T10:22:35Z</time>
      </trkpt>
      <trkpt lat="45.95167" lon="6.55532">
        <ele>2489.4</ele>
        <time>2026-02-02T10:22:37Z</time>
      </trkpt>
      <trkpt lat="45.95167" lon="6.55532">
        <ele>2489.4</ele>
        <time>2026-02-02T10:22:38Z</time>
      </trkpt>
      <trkpt lat="45.95167" lon="6.55532">
        <ele>2489.4</ele>
        <time>2026-02-02T10:22:39Z</time>
      </trkpt>
      <trkpt lat="45.95167" lon="6.55532">
        <ele>2489.4</ele>
        <time>2026-02-02T10:22:40Z</time>
      </trkpt>
      <trkpt lat="45.95167" lon="6.55532">
        <ele>2489.4</ele>
        <time>2026-02-02T10:22:41Z</time>
      </trkpt>
      <trkpt lat="45.95167" lon="6.55532">
        <ele>2489.4</ele>
        <time>2026-02-02T10:22:42Z</time>
      </trkpt>
      <trkpt lat="45.95167" lon="6.55532">
        <ele>2489.4</ele>
        <time>2026-02-02T10:22:43Z</time>
      </trkpt>
      <trkpt lat="45.95167" lon="6.55532">
        <ele>2489.4</ele>
        <time>2026-02-02T10:22:44Z</time>
      </trkpt>
      <trkpt lat="45.95167" lon="6.55532">
        <ele>2489.4</ele>
        <time>2026-02-02T10:22:45Z</time>
      </trkpt>
      <trkpt lat="45.95167" lon="6.55532">
        <ele>2489.4</ele>
        <time>2026-02-02T10:22:46Z</time>
      </trkpt>
      <trkpt lat="45.95167" lon="6.55532">
        <ele>2489.4</ele>
        <time>2026-02-02T10:22:47Z</time>
      </trkpt>
      <trkpt lat="45.95167" lon="6.55532">
        <ele>2488.4</ele>
        <time>2026-02-02T10:22:48Z</time>
      </trkpt>
      <trkpt lat="45.95167" lon="6.55532">
        <ele>2488.4</ele>
        <time>2026-02-02T10:22:49Z</time>
      </trkpt>
      <trkpt lat="45.95167" lon="6.55532">
        <ele>2489.4</ele>
        <time>2026-02-02T10:22:50Z</time>
      </trkpt>
      <trkpt lat="45.95167" lon="6.55532">
        <ele>2489.4</ele>
        <time>2026-02-02T10:22:51Z</time>
      </trkpt>
      <trkpt lat="45.95167" lon="6.55532">
        <ele>2489.4</ele>
        <time>2026-02-02T10:22:52Z</time>
      </trkpt>
      <trkpt lat="45.95167" lon="6.55532">
        <ele>2488.4</ele>
        <time>2026-02-02T10:22:53Z</time>
      </trkpt>
      <trkpt lat="45.95167" lon="6.55532">
        <ele>2488.4</ele>
        <time>2026-02-02T10:22:54Z</time>
      </trkpt>
      <trkpt lat="45.95167" lon="6.55532">
        <ele>2488.4</ele>
        <time>2026-02-02T10:22:55Z</time>
      </trkpt>
      <trkpt lat="45.95167" lon="6.55532">
        <ele>2488.4</ele>
        <time>2026-02-02T10:22:56Z</time>
      </trkpt>
      <trkpt lat="45.95167" lon="6.55532">
        <ele>2488.4</ele>
        <time>2026-02-02T10:22:57Z</time>
      </trkpt>
      <trkpt lat="45.95167" lon="6.55532">
        <ele>2488.4</ele>
        <time>2026-02-02T10:22:58Z</time>
      </trkpt>
      <trkpt lat="45.95167" lon="6.55532">
        <ele>2488.4</ele>
        <time>2026-02-02T10:22:59Z</time>
      </trkpt>
      <trkpt lat="45.95167" lon="6.55532">
        <ele>2488.4</ele>
        <time>2026-02-02T10:23:00Z</time>
      </trkpt>
      <trkpt lat="45.95167" lon="6.55533">
        <ele>2488.4</ele>
        <time>2026-02-02T10:23:01Z</time>
      </trkpt>
      <trkpt lat="45.95167" lon="6.55533">
        <ele>2488.4</ele>
        <time>2026-02-02T10:23:02Z</time>
      </trkpt>
      <trkpt lat="45.95167" lon="6.55534">
        <ele>2488.4</ele>
        <time>2026-02-02T10:23:03Z</time>
      </trkpt>
      <trkpt lat="45.95167" lon="6.55533">
        <ele>2488.4</ele>
        <time>2026-02-02T10:23:04Z</time>
      </trkpt>
      <trkpt lat="45.95167" lon="6.55533">
        <ele>2488.4</ele>
        <time>2026-02-02T10:23:05Z</time>
      </trkpt>
      <trkpt lat="45.95167" lon="6.55532">
        <ele>2488.4</ele>
        <time>2026-02-02T10:23:06Z</time>
      </trkpt>
      <trkpt lat="45.95167" lon="6.55532">
        <ele>2488.4</ele>
        <time>2026-02-02T10:23:07Z</time>
      </trkpt>
      <trkpt lat="45.95167" lon="6.55532">
        <ele>2488.4</ele>
        <time>2026-02-02T10:23:08Z</time>
      </trkpt>
      <trkpt lat="45.95167" lon="6.55532">
        <ele>2488.4</ele>
        <time>2026-02-02T10:23:09Z</time>
      </trkpt>
      <trkpt lat="45.95167" lon="6.55532">
        <ele>2489.4</ele>
        <time>2026-02-02T10:23:10Z</time>
      </trkpt>
      <trkpt lat="45.95167" lon="6.55532">
        <ele>2488.4</ele>
        <time>2026-02-02T10:23:11Z</time>
      </trkpt>
      <trkpt lat="45.95167" lon="6.55532">
        <ele>2488.4</ele>
        <time>2026-02-02T10:23:12Z</time>
      </trkpt>
      <trkpt lat="45.95167" lon="6.55532">
        <ele>2488.4</ele>
        <time>2026-02-02T10:23:13Z</time>
      </trkpt>
      <trkpt lat="45.95167" lon="6.55532">
        <ele>2488.4</ele>
        <time>2026-02-02T10:23:14Z</time>
      </trkpt>
      <trkpt lat="45.95167" lon="6.55532">
        <ele>2488.4</ele>
        <time>2026-02-02T10:23:15Z</time>
      </trkpt>
      <trkpt lat="45.95167" lon="6.55532">
        <ele>2488.4</ele>
        <time>2026-02-02T10:23:16Z</time>
      </trkpt>
      <trkpt lat="45.95167" lon="6.55532">
        <ele>2488.4</ele>
        <time>2026-02-02T10:23:17Z</time>
      </trkpt>
      <trkpt lat="45.95167" lon="6.55532">
        <ele>2488.4</ele>
        <time>2026-02-02T10:23:18Z</time>
      </trkpt>
      <trkpt lat="45.95167" lon="6.55533">
        <ele>2488.4</ele>
        <time>2026-02-02T10:23:19Z</time>
      </trkpt>
      <trkpt lat="45.95167" lon="6.55533">
        <ele>2488.4</ele>
        <time>2026-02-02T10:23:20Z</time>
      </trkpt>
      <trkpt lat="45.95167" lon="6.55533">
        <ele>2488.4</ele>
        <time>2026-02-02T10:23:21Z</time>
      </trkpt>
      <trkpt lat="45.95167" lon="6.55533">
        <ele>2488.4</ele>
        <time>2026-02-02T10:23:22Z</time>
      </trkpt>
      <trkpt lat="45.95168" lon="6.55532">
        <ele>2488.4</ele>
        <time>2026-02-02T10:23:23Z</time>
      </trkpt>
      <trkpt lat="45.95168" lon="6.55532">
        <ele>2488.4</ele>
        <time>2026-02-02T10:23:24Z</time>
      </trkpt>
      <trkpt lat="45.95168" lon="6.55531">
        <ele>2489.4</ele>
        <time>2026-02-02T10:23:25Z</time>
      </trkpt>
      <trkpt lat="45.95168" lon="6.55531">
        <ele>2489.4</ele>
        <time>2026-02-02T10:23:26Z</time>
      </trkpt>
      <trkpt lat="45.95169" lon="6.55531">
        <ele>2489.4</ele>
        <time>2026-02-02T10:23:27Z</time>
      </trkpt>
      <trkpt lat="45.95169" lon="6.5553">
        <ele>2489.9</ele>
        <time>2026-02-02T10:23:28Z</time>
      </trkpt>
      <trkpt lat="45.95169" lon="6.5553">
        <ele>2489.9</ele>
        <time>2026-02-02T10:23:29Z</time>
      </trkpt>
      <trkpt lat="45.95169" lon="6.5553">
        <ele>2489.9</ele>
        <time>2026-02-02T10:23:30Z</time>
      </trkpt>
      <trkpt lat="45.95169" lon="6.55529">
        <ele>2489.9</ele>
        <time>2026-02-02T10:23:32Z</time>
      </trkpt>
      <trkpt lat="45.95169" lon="6.55529">
        <ele>2489.9</ele>
        <time>2026-02-02T10:23:33Z</time>
      </trkpt>
      <trkpt lat="45.95169" lon="6.55529">
        <ele>2489.9</ele>
        <time>2026-02-02T10:23:34Z</time>
      </trkpt>
      <trkpt lat="45.95169" lon="6.55529">
        <ele>2489.9</ele>
        <time>2026-02-02T10:23:35Z</time>
      </trkpt>
      <trkpt lat="45.95169" lon="6.55528">
        <ele>2489.9</ele>
        <time>2026-02-02T10:23:36Z</time>
      </trkpt>
      <trkpt lat="45.95169" lon="6.55528">
        <ele>2489.9</ele>
        <time>2026-02-02T10:23:37Z</time>
      </trkpt>
      <trkpt lat="45.95169" lon="6.55528">
        <ele>2489.9</ele>
        <time>2026-02-02T10:23:38Z</time>
      </trkpt>
      <trkpt lat="45.95169" lon="6.55528">
        <ele>2489.9</ele>
        <time>2026-02-02T10:23:39Z</time>
      </trkpt>
      <trkpt lat="45.95169" lon="6.55528">
        <ele>2489.9</ele>
        <time>2026-02-02T10:23:40Z</time>
      </trkpt>
      <trkpt lat="45.95169" lon="6.55529">
        <ele>2489.9</ele>
        <time>2026-02-02T10:23:41Z</time>
      </trkpt>
      <trkpt lat="45.95169" lon="6.55529">
        <ele>2489.9</ele>
        <time>2026-02-02T10:23:42Z</time>
      </trkpt>
      <trkpt lat="45.95169" lon="6.55529">
        <ele>2489.9</ele>
        <time>2026-02-02T10:23:43Z</time>
      </trkpt>
      <trkpt lat="45.95169" lon="6.55529">
        <ele>2489.9</ele>
        <time>2026-02-02T10:23:44Z</time>
      </trkpt>
      <trkpt lat="45.95169" lon="6.55529">
        <ele>2489.9</ele>
        <time>2026-02-02T10:23:45Z</time>
      </trkpt>
      <trkpt lat="45.95169" lon="6.55529">
        <ele>2489.9</ele>
        <time>2026-02-02T10:23:47Z</time>
      </trkpt>
      <trkpt lat="45.95169" lon="6.55529">
        <ele>2489.9</ele>
        <time>2026-02-02T10:23:48Z</time>
      </trkpt>
      <trkpt lat="45.95169" lon="6.55529">
        <ele>2489.9</ele>
        <time>2026-02-02T10:23:49Z</time>
      </trkpt>
      <trkpt lat="45.95169" lon="6.55528">
        <ele>2489.9</ele>
        <time>2026-02-02T10:23:50Z</time>
      </trkpt>
      <trkpt lat="45.95169" lon="6.55528">
        <ele>2489.9</ele>
        <time>2026-02-02T10:23:51Z</time>
      </trkpt>
      <trkpt lat="45.95169" lon="6.55529">
        <ele>2489.9</ele>
        <time>2026-02-02T10:23:52Z</time>
      </trkpt>
      <trkpt lat="45.95169" lon="6.55529">
        <ele>2489.9</ele>
        <time>2026-02-02T10:23:53Z</time>
      </trkpt>
      <trkpt lat="45.95169" lon="6.55529">
        <ele>2489.9</ele>
        <time>2026-02-02T10:23:54Z</time>
      </trkpt>
      <trkpt lat="45.95169" lon="6.55529">
        <ele>2489.9</ele>
        <time>2026-02-02T10:23:55Z</time>
      </trkpt>
      <trkpt lat="45.95169" lon="6.55529">
        <ele>2489.9</ele>
        <time>2026-02-02T10:23:56Z</time>
      </trkpt>
      <trkpt lat="45.95169" lon="6.55529">
        <ele>2489.9</ele>
        <time>2026-02-02T10:23:57Z</time>
      </trkpt>
      <trkpt lat="45.95169" lon="6.55529">
        <ele>2489.9</ele>
        <time>2026-02-02T10:23:58Z</time>
      </trkpt>
      <trkpt lat="45.95169" lon="6.55529">
        <ele>2489.9</ele>
        <time>2026-02-02T10:23:59Z</time>
      </trkpt>
      <trkpt lat="45.95169" lon="6.55529">
        <ele>2489.9</ele>
        <time>2026-02-02T10:24:00Z</time>
      </trkpt>
      <trkpt lat="45.95169" lon="6.55529">
        <ele>2489.9</ele>
        <time>2026-02-02T10:24:01Z</time>
      </trkpt>
      <trkpt lat="45.95169" lon="6.55529">
        <ele>2489.9</ele>
        <time>2026-02-02T10:24:02Z</time>
      </trkpt>
      <trkpt lat="45.95169" lon="6.55529">
        <ele>2489.9</ele>
        <time>2026-02-02T10:24:03Z</time>
      </trkpt>
      <trkpt lat="45.95169" lon="6.55529">
        <ele>2489.9</ele>
        <time>2026-02-02T10:24:04Z</time>
      </trkpt>
      <trkpt lat="45.95169" lon="6.55529">
        <ele>2489.9</ele>
        <time>2026-02-02T10:24:05Z</time>
      </trkpt>
      <trkpt lat="45.95169" lon="6.55529">
        <ele>2489.9</ele>
        <time>2026-02-02T10:24:06Z</time>
      </trkpt>
      <trkpt lat="45.95169" lon="6.55529">
        <ele>2489.9</ele>
        <time>2026-02-02T10:24:07Z</time>
      </trkpt>
      <trkpt lat="45.95169" lon="6.55529">
        <ele>2489.9</ele>
        <time>2026-02-02T10:24:08Z</time>
      </trkpt>
      <trkpt lat="45.95169" lon="6.55529">
        <ele>2489.9</ele>
        <time>2026-02-02T10:24:09Z</time>
      </trkpt>
      <trkpt lat="45.95169" lon="6.55529">
        <ele>2489.9</ele>
        <time>2026-02-02T10:24:10Z</time>
      </trkpt>
      <trkpt lat="45.95169" lon="6.55529">
        <ele>2489.9</ele>
        <time>2026-02-02T10:24:11Z</time>
      </trkpt>
      <trkpt lat="45.95169" lon="6.55529">
        <ele>2489.4</ele>
        <time>2026-02-02T10:24:12Z</time>
      </trkpt>
      <trkpt lat="45.95169" lon="6.55529">
        <ele>2489.4</ele>
        <time>2026-02-02T10:24:13Z</time>
      </trkpt>
      <trkpt lat="45.95169" lon="6.55529">
        <ele>2489.4</ele>
        <time>2026-02-02T10:24:14Z</time>
      </trkpt>
      <trkpt lat="45.95169" lon="6.55529">
        <ele>2489.9</ele>
        <time>2026-02-02T10:24:15Z</time>
      </trkpt>
      <trkpt lat="45.95169" lon="6.55529">
        <ele>2489.9</ele>
        <time>2026-02-02T10:24:16Z</time>
      </trkpt>
      <trkpt lat="45.95169" lon="6.55529">
        <ele>2489.9</ele>
        <time>2026-02-02T10:24:17Z</time>
      </trkpt>
      <trkpt lat="45.95169" lon="6.55529">
        <ele>2489.4</ele>
        <time>2026-02-02T10:24:18Z</time>
      </trkpt>
      <trkpt lat="45.95169" lon="6.55529">
        <ele>2489.4</ele>
        <time>2026-02-02T10:24:19Z</time>
      </trkpt>
      <trkpt lat="45.95169" lon="6.55529">
        <ele>2489.4</ele>
        <time>2026-02-02T10:24:20Z</time>
      </trkpt>
      <trkpt lat="45.95169" lon="6.55529">
        <ele>2489.9</ele>
        <time>2026-02-02T10:24:21Z</time>
      </trkpt>
      <trkpt lat="45.95169" lon="6.55529">
        <ele>2489.9</ele>
        <time>2026-02-02T10:24:22Z</time>
      </trkpt>
      <trkpt lat="45.95169" lon="6.55529">
        <ele>2489.9</ele>
        <time>2026-02-02T10:24:23Z</time>
      </trkpt>
      <trkpt lat="45.95169" lon="6.55529">
        <ele>2489.9</ele>
        <time>2026-02-02T10:24:24Z</time>
      </trkpt>
      <trkpt lat="45.95169" lon="6.55529">
        <ele>2489.9</ele>
        <time>2026-02-02T10:24:25Z</time>
      </trkpt>
      <trkpt lat="45.95169" lon="6.55529">
        <ele>2489.9</ele>
        <time>2026-02-02T10:24:26Z</time>
      </trkpt>
      <trkpt lat="45.95169" lon="6.55529">
        <ele>2489.9</ele>
        <time>2026-02-02T10:24:27Z</time>
      </trkpt>
      <trkpt lat="45.95169" lon="6.55529">
        <ele>2489.9</ele>
        <time>2026-02-02T10:24:28Z</time>
      </trkpt>
      <trkpt lat="45.9517" lon="6.55528">
        <ele>2489.9</ele>
        <time>2026-02-02T10:24:29Z</time>
      </trkpt>
      <trkpt lat="45.95169" lon="6.55529">
        <ele>2489.9</ele>
        <time>2026-02-02T10:24:30Z</time>
      </trkpt>
      <trkpt lat="45.9517" lon="6.55528">
        <ele>2489.9</ele>
        <time>2026-02-02T10:24:31Z</time>
      </trkpt>
      <trkpt lat="45.9517" lon="6.55528">
        <ele>2489.9</ele>
        <time>2026-02-02T10:24:32Z</time>
      </trkpt>
      <trkpt lat="45.9517" lon="6.55528">
        <ele>2489.9</ele>
        <time>2026-02-02T10:24:33Z</time>
      </trkpt>
      <trkpt lat="45.9517" lon="6.55528">
        <ele>2489.9</ele>
        <time>2026-02-02T10:24:34Z</time>
      </trkpt>
      <trkpt lat="45.9517" lon="6.55528">
        <ele>2489.9</ele>
        <time>2026-02-02T10:24:35Z</time>
      </trkpt>
      <trkpt lat="45.9517" lon="6.55528">
        <ele>2489.9</ele>
        <time>2026-02-02T10:24:36Z</time>
      </trkpt>
      <trkpt lat="45.9517" lon="6.55528">
        <ele>2489.9</ele>
        <time>2026-02-02T10:24:37Z</time>
      </trkpt>
      <trkpt lat="45.9517" lon="6.55528">
        <ele>2489.9</ele>
        <time>2026-02-02T10:24:38Z</time>
      </trkpt>
      <trkpt lat="45.9517" lon="6.55528">
        <ele>2489.9</ele>
        <time>2026-02-02T10:24:39Z</time>
      </trkpt>
      <trkpt lat="45.9517" lon="6.55528">
        <ele>2489.9</ele>
        <time>2026-02-02T10:24:40Z</time>
      </trkpt>
      <trkpt lat="45.9517" lon="6.55528">
        <ele>2489.9</ele>
        <time>2026-02-02T10:24:41Z</time>
      </trkpt>
      <trkpt lat="45.9517" lon="6.55528">
        <ele>2489.9</ele>
        <time>2026-02-02T10:24:42Z</time>
      </trkpt>
      <trkpt lat="45.9517" lon="6.55528">
        <ele>2489.9</ele>
        <time>2026-02-02T10:24:43Z</time>
      </trkpt>
      <trkpt lat="45.9517" lon="6.55527">
        <ele>2490.8</ele>
        <time>2026-02-02T10:24:44Z</time>
      </trkpt>
      <trkpt lat="45.9517" lon="6.55527">
        <ele>2490.8</ele>
        <time>2026-02-02T10:24:45Z</time>
      </trkpt>
      <trkpt lat="45.9517" lon="6.55528">
        <ele>2489.9</ele>
        <time>2026-02-02T10:24:46Z</time>
      </trkpt>
      <trkpt lat="45.9517" lon="6.55528">
        <ele>2489.9</ele>
        <time>2026-02-02T10:24:47Z</time>
      </trkpt>
      <trkpt lat="45.9517" lon="6.55528">
        <ele>2489.9</ele>
        <time>2026-02-02T10:24:48Z</time>
      </trkpt>
      <trkpt lat="45.9517" lon="6.55528">
        <ele>2489.9</ele>
        <time>2026-02-02T10:24:49Z</time>
      </trkpt>
      <trkpt lat="45.9517" lon="6.55527">
        <ele>2490.8</ele>
        <time>2026-02-02T10:24:50Z</time>
      </trkpt>
      <trkpt lat="45.9517" lon="6.55527">
        <ele>2490.8</ele>
        <time>2026-02-02T10:24:51Z</time>
      </trkpt>
      <trkpt lat="45.95171" lon="6.55527">
        <ele>2490.8</ele>
        <time>2026-02-02T10:24:52Z</time>
      </trkpt>
      <trkpt lat="45.95171" lon="6.55526">
        <ele>2490.8</ele>
        <time>2026-02-02T10:24:53Z</time>
      </trkpt>
      <trkpt lat="45.95171" lon="6.55526">
        <ele>2490.8</ele>
        <time>2026-02-02T10:24:54Z</time>
      </trkpt>
      <trkpt lat="45.95172" lon="6.55526">
        <ele>2490.8</ele>
        <time>2026-02-02T10:24:55Z</time>
      </trkpt>
      <trkpt lat="45.95172" lon="6.55525">
        <ele>2491.2</ele>
        <time>2026-02-02T10:24:56Z</time>
      </trkpt>
      <trkpt lat="45.95172" lon="6.55524">
        <ele>2490.8</ele>
        <time>2026-02-02T10:24:57Z</time>
      </trkpt>
      <trkpt lat="45.95172" lon="6.55523">
        <ele>2491.2</ele>
        <time>2026-02-02T10:24:58Z</time>
      </trkpt>
      <trkpt lat="45.95172" lon="6.55523">
        <ele>2491.9</ele>
        <time>2026-02-02T10:24:59Z</time>
      </trkpt>
      <trkpt lat="45.95173" lon="6.55523">
        <ele>2491.9</ele>
        <time>2026-02-02T10:25:00Z</time>
      </trkpt>
      <trkpt lat="45.95172" lon="6.55523">
        <ele>2491.9</ele>
        <time>2026-02-02T10:25:01Z</time>
      </trkpt>
      <trkpt lat="45.95172" lon="6.55523">
        <ele>2491.9</ele>
        <time>2026-02-02T10:25:02Z</time>
      </trkpt>
      <trkpt lat="45.95172" lon="6.55523">
        <ele>2491.9</ele>
        <time>2026-02-02T10:25:03Z</time>
      </trkpt>
      <trkpt lat="45.95172" lon="6.55523">
        <ele>2491.9</ele>
        <time>2026-02-02T10:25:04Z</time>
      </trkpt>
      <trkpt lat="45.95172" lon="6.55523">
        <ele>2491.9</ele>
        <time>2026-02-02T10:25:05Z</time>
      </trkpt>
      <trkpt lat="45.95172" lon="6.55523">
        <ele>2491.9</ele>
        <time>2026-02-02T10:25:06Z</time>
      </trkpt>
      <trkpt lat="45.95172" lon="6.55523">
        <ele>2491.9</ele>
        <time>2026-02-02T10:25:07Z</time>
      </trkpt>
      <trkpt lat="45.95172" lon="6.55523">
        <ele>2491.9</ele>
        <time>2026-02-02T10:25:08Z</time>
      </trkpt>
      <trkpt lat="45.95172" lon="6.55523">
        <ele>2491.9</ele>
        <time>2026-02-02T10:25:09Z</time>
      </trkpt>
      <trkpt lat="45.95172" lon="6.55523">
        <ele>2491.9</ele>
        <time>2026-02-02T10:25:10Z</time>
      </trkpt>
      <trkpt lat="45.95172" lon="6.55523">
        <ele>2491.9</ele>
        <time>2026-02-02T10:25:11Z</time>
      </trkpt>
      <trkpt lat="45.95172" lon="6.55523">
        <ele>2491.9</ele>
        <time>2026-02-02T10:25:12Z</time>
      </trkpt>
      <trkpt lat="45.95172" lon="6.55523">
        <ele>2491.9</ele>
        <time>2026-02-02T10:25:13Z</time>
      </trkpt>
      <trkpt lat="45.95172" lon="6.55523">
        <ele>2491.9</ele>
        <time>2026-02-02T10:25:14Z</time>
      </trkpt>
      <trkpt lat="45.95172" lon="6.55523">
        <ele>2491.9</ele>
        <time>2026-02-02T10:25:15Z</time>
      </trkpt>
      <trkpt lat="45.95172" lon="6.55523">
        <ele>2491.9</ele>
        <time>2026-02-02T10:25:16Z</time>
      </trkpt>
      <trkpt lat="45.95172" lon="6.55523">
        <ele>2491.9</ele>
        <time>2026-02-02T10:25:17Z</time>
      </trkpt>
      <trkpt lat="45.95172" lon="6.55523">
        <ele>2491.9</ele>
        <time>2026-02-02T10:25:18Z</time>
      </trkpt>
      <trkpt lat="45.95172" lon="6.55523">
        <ele>2491.9</ele>
        <time>2026-02-02T10:25:19Z</time>
      </trkpt>
      <trkpt lat="45.95172" lon="6.55523">
        <ele>2491.9</ele>
        <time>2026-02-02T10:25:20Z</time>
      </trkpt>
      <trkpt lat="45.95172" lon="6.55523">
        <ele>2491.9</ele>
        <time>2026-02-02T10:25:21Z</time>
      </trkpt>
      <trkpt lat="45.95172" lon="6.55523">
        <ele>2491.9</ele>
        <time>2026-02-02T10:25:22Z</time>
      </trkpt>
      <trkpt lat="45.95172" lon="6.55523">
        <ele>2491.9</ele>
        <time>2026-02-02T10:25:23Z</time>
      </trkpt>
      <trkpt lat="45.95172" lon="6.55523">
        <ele>2491.9</ele>
        <time>2026-02-02T10:25:24Z</time>
      </trkpt>
      <trkpt lat="45.95172" lon="6.55523">
        <ele>2491.9</ele>
        <time>2026-02-02T10:25:25Z</time>
      </trkpt>
      <trkpt lat="45.95172" lon="6.55523">
        <ele>2491.9</ele>
        <time>2026-02-02T10:25:26Z</time>
      </trkpt>
      <trkpt lat="45.95172" lon="6.55523">
        <ele>2491.9</ele>
        <time>2026-02-02T10:25:27Z</time>
      </trkpt>
      <trkpt lat="45.95173" lon="6.55523">
        <ele>2491.9</ele>
        <time>2026-02-02T10:25:28Z</time>
      </trkpt>
      <trkpt lat="45.95173" lon="6.55523">
        <ele>2491.9</ele>
        <time>2026-02-02T10:25:29Z</time>
      </trkpt>
      <trkpt lat="45.95173" lon="6.55523">
        <ele>2491.9</ele>
        <time>2026-02-02T10:25:30Z</time>
      </trkpt>
      <trkpt lat="45.95173" lon="6.55522">
        <ele>2491.9</ele>
        <time>2026-02-02T10:25:31Z</time>
      </trkpt>
      <trkpt lat="45.95174" lon="6.55522">
        <ele>2491.9</ele>
        <time>2026-02-02T10:25:32Z</time>
      </trkpt>
      <trkpt lat="45.95174" lon="6.55521">
        <ele>2491.9</ele>
        <time>2026-02-02T10:25:33Z</time>
      </trkpt>
      <trkpt lat="45.95174" lon="6.55521">
        <ele>2491.9</ele>
        <time>2026-02-02T10:25:34Z</time>
      </trkpt>
      <trkpt lat="45.95174" lon="6.55521">
        <ele>2491.9</ele>
        <time>2026-02-02T10:25:35Z</time>
      </trkpt>
      <trkpt lat="45.95174" lon="6.55521">
        <ele>2491.9</ele>
        <time>2026-02-02T10:25:36Z</time>
      </trkpt>
      <trkpt lat="45.95174" lon="6.55521">
        <ele>2491.9</ele>
        <time>2026-02-02T10:25:37Z</time>
      </trkpt>
      <trkpt lat="45.95174" lon="6.55521">
        <ele>2491.9</ele>
        <time>2026-02-02T10:25:38Z</time>
      </trkpt>
      <trkpt lat="45.95174" lon="6.55521">
        <ele>2491.9</ele>
        <time>2026-02-02T10:25:39Z</time>
      </trkpt>
      <trkpt lat="45.95174" lon="6.55521">
        <ele>2491.9</ele>
        <time>2026-02-02T10:25:40Z</time>
      </trkpt>
      <trkpt lat="45.95174" lon="6.55521">
        <ele>2491.9</ele>
        <time>2026-02-02T10:25:41Z</time>
      </trkpt>
      <trkpt lat="45.95174" lon="6.55521">
        <ele>2491.9</ele>
        <time>2026-02-02T10:25:42Z</time>
      </trkpt>
      <trkpt lat="45.95174" lon="6.55521">
        <ele>2491.9</ele>
        <time>2026-02-02T10:25:43Z</time>
      </trkpt>
      <trkpt lat="45.95174" lon="6.55521">
        <ele>2491.9</ele>
        <time>2026-02-02T10:25:44Z</time>
      </trkpt>
      <trkpt lat="45.95174" lon="6.55521">
        <ele>2491.9</ele>
        <time>2026-02-02T10:25:45Z</time>
      </trkpt>
      <trkpt lat="45.95173" lon="6.55521">
        <ele>2491.9</ele>
        <time>2026-02-02T10:25:46Z</time>
      </trkpt>
      <trkpt lat="45.95173" lon="6.55521">
        <ele>2491.9</ele>
        <time>2026-02-02T10:25:47Z</time>
      </trkpt>
      <trkpt lat="45.95173" lon="6.55521">
        <ele>2491.9</ele>
        <time>2026-02-02T10:25:48Z</time>
      </trkpt>
      <trkpt lat="45.95174" lon="6.5552">
        <ele>2491.9</ele>
        <time>2026-02-02T10:25:49Z</time>
      </trkpt>
      <trkpt lat="45.95174" lon="6.5552">
        <ele>2491.9</ele>
        <time>2026-02-02T10:25:50Z</time>
      </trkpt>
      <trkpt lat="45.95174" lon="6.5552">
        <ele>2491.9</ele>
        <time>2026-02-02T10:25:51Z</time>
      </trkpt>
      <trkpt lat="45.95174" lon="6.55521">
        <ele>2491.9</ele>
        <time>2026-02-02T10:25:52Z</time>
      </trkpt>
      <trkpt lat="45.95174" lon="6.55521">
        <ele>2491.9</ele>
        <time>2026-02-02T10:25:53Z</time>
      </trkpt>
      <trkpt lat="45.95174" lon="6.55521">
        <ele>2491.9</ele>
        <time>2026-02-02T10:25:54Z</time>
      </trkpt>
      <trkpt lat="45.95174" lon="6.55521">
        <ele>2491.9</ele>
        <time>2026-02-02T10:25:55Z</time>
      </trkpt>
      <trkpt lat="45.95174" lon="6.55521">
        <ele>2491.9</ele>
        <time>2026-02-02T10:25:56Z</time>
      </trkpt>
      <trkpt lat="45.95174" lon="6.55521">
        <ele>2491.9</ele>
        <time>2026-02-02T10:25:57Z</time>
      </trkpt>
      <trkpt lat="45.95174" lon="6.55521">
        <ele>2491.9</ele>
        <time>2026-02-02T10:25:58Z</time>
      </trkpt>
      <trkpt lat="45.95174" lon="6.55521">
        <ele>2491.9</ele>
        <time>2026-02-02T10:25:59Z</time>
      </trkpt>
      <trkpt lat="45.95174" lon="6.55521">
        <ele>2491.9</ele>
        <time>2026-02-02T10:26:00Z</time>
      </trkpt>
      <trkpt lat="45.95174" lon="6.55521">
        <ele>2491.9</ele>
        <time>2026-02-02T10:26:01Z</time>
      </trkpt>
      <trkpt lat="45.95174" lon="6.55521">
        <ele>2491.9</ele>
        <time>2026-02-02T10:26:02Z</time>
      </trkpt>
      <trkpt lat="45.95173" lon="6.55521">
        <ele>2491.9</ele>
        <time>2026-02-02T10:26:03Z</time>
      </trkpt>
      <trkpt lat="45.95173" lon="6.55521">
        <ele>2491.9</ele>
        <time>2026-02-02T10:26:04Z</time>
      </trkpt>
      <trkpt lat="45.95174" lon="6.5552">
        <ele>2491.9</ele>
        <time>2026-02-02T10:26:05Z</time>
      </trkpt>
      <trkpt lat="45.95174" lon="6.5552">
        <ele>2491.9</ele>
        <time>2026-02-02T10:26:06Z</time>
      </trkpt>
      <trkpt lat="45.95174" lon="6.5552">
        <ele>2491.9</ele>
        <time>2026-02-02T10:26:07Z</time>
      </trkpt>
      <trkpt lat="45.95173" lon="6.5552">
        <ele>2491.9</ele>
        <time>2026-02-02T10:26:08Z</time>
      </trkpt>
      <trkpt lat="45.95173" lon="6.5552">
        <ele>2491.9</ele>
        <time>2026-02-02T10:26:09Z</time>
      </trkpt>
      <trkpt lat="45.95173" lon="6.5552">
        <ele>2491.9</ele>
        <time>2026-02-02T10:26:10Z</time>
      </trkpt>
      <trkpt lat="45.95172" lon="6.5552">
        <ele>2491.9</ele>
        <time>2026-02-02T10:26:11Z</time>
      </trkpt>
      <trkpt lat="45.95172" lon="6.5552">
        <ele>2491.9</ele>
        <time>2026-02-02T10:26:12Z</time>
      </trkpt>
      <trkpt lat="45.95172" lon="6.55519">
        <ele>2491.9</ele>
        <time>2026-02-02T10:26:13Z</time>
      </trkpt>
      <trkpt lat="45.95172" lon="6.55519">
        <ele>2492.4</ele>
        <time>2026-02-02T10:26:14Z</time>
      </trkpt>
      <trkpt lat="45.95172" lon="6.55518">
        <ele>2492.4</ele>
        <time>2026-02-02T10:26:15Z</time>
      </trkpt>
      <trkpt lat="45.95172" lon="6.55517">
        <ele>2492.4</ele>
        <time>2026-02-02T10:26:16Z</time>
      </trkpt>
      <trkpt lat="45.95173" lon="6.55516">
        <ele>2492.4</ele>
        <time>2026-02-02T10:26:17Z</time>
      </trkpt>
      <trkpt lat="45.95173" lon="6.55515">
        <ele>2492.4</ele>
        <time>2026-02-02T10:26:18Z</time>
      </trkpt>
      <trkpt lat="45.95174" lon="6.55515">
        <ele>2492.4</ele>
        <time>2026-02-02T10:26:19Z</time>
      </trkpt>
      <trkpt lat="45.95174" lon="6.55516">
        <ele>2492.4</ele>
        <time>2026-02-02T10:26:20Z</time>
      </trkpt>
      <trkpt lat="45.95174" lon="6.55516">
        <ele>2492.4</ele>
        <time>2026-02-02T10:26:21Z</time>
      </trkpt>
      <trkpt lat="45.95174" lon="6.55516">
        <ele>2492.4</ele>
        <time>2026-02-02T10:26:22Z</time>
      </trkpt>
      <trkpt lat="45.95174" lon="6.55516">
        <ele>2492.4</ele>
        <time>2026-02-02T10:26:23Z</time>
      </trkpt>
      <trkpt lat="45.95173" lon="6.55516">
        <ele>2492.4</ele>
        <time>2026-02-02T10:26:24Z</time>
      </trkpt>
      <trkpt lat="45.95173" lon="6.55515">
        <ele>2492.4</ele>
        <time>2026-02-02T10:26:25Z</time>
      </trkpt>
      <trkpt lat="45.95173" lon="6.55515">
        <ele>2492.4</ele>
        <time>2026-02-02T10:26:26Z</time>
      </trkpt>
      <trkpt lat="45.95174" lon="6.55515">
        <ele>2492.7</ele>
        <time>2026-02-02T10:26:27Z</time>
      </trkpt>
      <trkpt lat="45.95174" lon="6.55514">
        <ele>2492.7</ele>
        <time>2026-02-02T10:26:28Z</time>
      </trkpt>
      <trkpt lat="45.95174" lon="6.55514">
        <ele>2492.7</ele>
        <time>2026-02-02T10:26:29Z</time>
      </trkpt>
      <trkpt lat="45.95174" lon="6.55514">
        <ele>2492.7</ele>
        <time>2026-02-02T10:26:30Z</time>
      </trkpt>
      <trkpt lat="45.95174" lon="6.55514">
        <ele>2492.7</ele>
        <time>2026-02-02T10:26:31Z</time>
      </trkpt>
      <trkpt lat="45.95174" lon="6.55514">
        <ele>2492.7</ele>
        <time>2026-02-02T10:26:32Z</time>
      </trkpt>
      <trkpt lat="45.95174" lon="6.55514">
        <ele>2492.7</ele>
        <time>2026-02-02T10:26:33Z</time>
      </trkpt>
      <trkpt lat="45.95174" lon="6.55514">
        <ele>2492.7</ele>
        <time>2026-02-02T10:26:34Z</time>
      </trkpt>
      <trkpt lat="45.95174" lon="6.55514">
        <ele>2492.7</ele>
        <time>2026-02-02T10:26:35Z</time>
      </trkpt>
      <trkpt lat="45.95174" lon="6.55514">
        <ele>2492.7</ele>
        <time>2026-02-02T10:26:36Z</time>
      </trkpt>
      <trkpt lat="45.95174" lon="6.55514">
        <ele>2492.7</ele>
        <time>2026-02-02T10:26:37Z</time>
      </trkpt>
      <trkpt lat="45.95174" lon="6.55514">
        <ele>2492.7</ele>
        <time>2026-02-02T10:26:38Z</time>
      </trkpt>
      <trkpt lat="45.95174" lon="6.55514">
        <ele>2492.7</ele>
        <time>2026-02-02T10:26:39Z</time>
      </trkpt>
      <trkpt lat="45.95174" lon="6.55514">
        <ele>2492.7</ele>
        <time>2026-02-02T10:26:40Z</time>
      </trkpt>
      <trkpt lat="45.95175" lon="6.55514">
        <ele>2492.7</ele>
        <time>2026-02-02T10:26:41Z</time>
      </trkpt>
      <trkpt lat="45.95175" lon="6.55515">
        <ele>2492.7</ele>
        <time>2026-02-02T10:26:42Z</time>
      </trkpt>
      <trkpt lat="45.95174" lon="6.55516">
        <ele>2492.4</ele>
        <time>2026-02-02T10:26:43Z</time>
      </trkpt>
      <trkpt lat="45.95174" lon="6.55516">
        <ele>2492.4</ele>
        <time>2026-02-02T10:26:44Z</time>
      </trkpt>
      <trkpt lat="45.95174" lon="6.55516">
        <ele>2492.4</ele>
        <time>2026-02-02T10:26:45Z</time>
      </trkpt>
      <trkpt lat="45.95174" lon="6.55515">
        <ele>2492.4</ele>
        <time>2026-02-02T10:26:46Z</time>
      </trkpt>
      <trkpt lat="45.95175" lon="6.55515">
        <ele>2492.7</ele>
        <time>2026-02-02T10:26:47Z</time>
      </trkpt>
      <trkpt lat="45.95175" lon="6.55516">
        <ele>2492.4</ele>
        <time>2026-02-02T10:26:48Z</time>
      </trkpt>
      <trkpt lat="45.95175" lon="6.55516">
        <ele>2492.7</ele>
        <time>2026-02-02T10:26:49Z</time>
      </trkpt>
      <trkpt lat="45.95175" lon="6.55517">
        <ele>2492.7</ele>
        <time>2026-02-02T10:26:50Z</time>
      </trkpt>
      <trkpt lat="45.95175" lon="6.55516">
        <ele>2492.7</ele>
        <time>2026-02-02T10:26:51Z</time>
      </trkpt>
      <trkpt lat="45.95175" lon="6.55516">
        <ele>2492.7</ele>
        <time>2026-02-02T10:26:52Z</time>
      </trkpt>
      <trkpt lat="45.95176" lon="6.55516">
        <ele>2492.7</ele>
        <time>2026-02-02T10:26:53Z</time>
      </trkpt>
      <trkpt lat="45.95176" lon="6.55516">
        <ele>2492.7</ele>
        <time>2026-02-02T10:26:54Z</time>
      </trkpt>
      <trkpt lat="45.95176" lon="6.55516">
        <ele>2492.7</ele>
        <time>2026-02-02T10:26:55Z</time>
      </trkpt>
      <trkpt lat="45.95176" lon="6.55516">
        <ele>2492.7</ele>
        <time>2026-02-02T10:26:56Z</time>
      </trkpt>
      <trkpt lat="45.95176" lon="6.55517">
        <ele>2492.7</ele>
        <time>2026-02-02T10:26:57Z</time>
      </trkpt>
      <trkpt lat="45.95176" lon="6.55517">
        <ele>2492.7</ele>
        <time>2026-02-02T10:26:58Z</time>
      </trkpt>
      <trkpt lat="45.95176" lon="6.55517">
        <ele>2492.7</ele>
        <time>2026-02-02T10:26:59Z</time>
      </trkpt>
      <trkpt lat="45.95176" lon="6.55516">
        <ele>2492.7</ele>
        <time>2026-02-02T10:27:00Z</time>
      </trkpt>
      <trkpt lat="45.95176" lon="6.55515">
        <ele>2492.7</ele>
        <time>2026-02-02T10:27:01Z</time>
      </trkpt>
      <trkpt lat="45.95176" lon="6.55515">
        <ele>2493</ele>
        <time>2026-02-02T10:27:02Z</time>
      </trkpt>
      <trkpt lat="45.95176" lon="6.55514">
        <ele>2493</ele>
        <time>2026-02-02T10:27:03Z</time>
      </trkpt>
      <trkpt lat="45.95175" lon="6.55514">
        <ele>2493</ele>
        <time>2026-02-02T10:27:04Z</time>
      </trkpt>
      <trkpt lat="45.95175" lon="6.55513">
        <ele>2493</ele>
        <time>2026-02-02T10:27:05Z</time>
      </trkpt>
      <trkpt lat="45.95175" lon="6.55513">
        <ele>2493</ele>
        <time>2026-02-02T10:27:06Z</time>
      </trkpt>
      <trkpt lat="45.95176" lon="6.55513">
        <ele>2493</ele>
        <time>2026-02-02T10:27:07Z</time>
      </trkpt>
      <trkpt lat="45.95176" lon="6.55513">
        <ele>2493</ele>
        <time>2026-02-02T10:27:08Z</time>
      </trkpt>
      <trkpt lat="45.95177" lon="6.55511">
        <ele>2493</ele>
        <time>2026-02-02T10:27:09Z</time>
      </trkpt>
      <trkpt lat="45.95176" lon="6.55511">
        <ele>2493</ele>
        <time>2026-02-02T10:27:10Z</time>
      </trkpt>
      <trkpt lat="45.95176" lon="6.55511">
        <ele>2493</ele>
        <time>2026-02-02T10:27:11Z</time>
      </trkpt>
      <trkpt lat="45.95176" lon="6.5551">
        <ele>2493.2</ele>
        <time>2026-02-02T10:27:12Z</time>
      </trkpt>
      <trkpt lat="45.95177" lon="6.5551">
        <ele>2493.2</ele>
        <time>2026-02-02T10:27:13Z</time>
      </trkpt>
      <trkpt lat="45.95177" lon="6.5551">
        <ele>2493.2</ele>
        <time>2026-02-02T10:27:14Z</time>
      </trkpt>
      <trkpt lat="45.95177" lon="6.5551">
        <ele>2493.2</ele>
        <time>2026-02-02T10:27:15Z</time>
      </trkpt>
      <trkpt lat="45.95176" lon="6.55511">
        <ele>2493</ele>
        <time>2026-02-02T10:27:16Z</time>
      </trkpt>
      <trkpt lat="45.95176" lon="6.55511">
        <ele>2493</ele>
        <time>2026-02-02T10:27:17Z</time>
      </trkpt>
      <trkpt lat="45.95176" lon="6.55511">
        <ele>2493</ele>
        <time>2026-02-02T10:27:18Z</time>
      </trkpt>
      <trkpt lat="45.95176" lon="6.55512">
        <ele>2493</ele>
        <time>2026-02-02T10:27:19Z</time>
      </trkpt>
      <trkpt lat="45.95176" lon="6.55512">
        <ele>2493</ele>
        <time>2026-02-02T10:27:20Z</time>
      </trkpt>
      <trkpt lat="45.95176" lon="6.55512">
        <ele>2493</ele>
        <time>2026-02-02T10:27:21Z</time>
      </trkpt>
      <trkpt lat="45.95176" lon="6.55512">
        <ele>2493</ele>
        <time>2026-02-02T10:27:22Z</time>
      </trkpt>
      <trkpt lat="45.95176" lon="6.55512">
        <ele>2493</ele>
        <time>2026-02-02T10:27:23Z</time>
      </trkpt>
      <trkpt lat="45.95176" lon="6.55511">
        <ele>2493</ele>
        <time>2026-02-02T10:27:24Z</time>
      </trkpt>
      <trkpt lat="45.95176" lon="6.55511">
        <ele>2493</ele>
        <time>2026-02-02T10:27:25Z</time>
      </trkpt>
      <trkpt lat="45.95177" lon="6.5551">
        <ele>2493.2</ele>
        <time>2026-02-02T10:27:26Z</time>
      </trkpt>
      <trkpt lat="45.95177" lon="6.5551">
        <ele>2493.2</ele>
        <time>2026-02-02T10:27:27Z</time>
      </trkpt>
      <trkpt lat="45.95177" lon="6.55509">
        <ele>2493.2</ele>
        <time>2026-02-02T10:27:28Z</time>
      </trkpt>
      <trkpt lat="45.95177" lon="6.55509">
        <ele>2493.2</ele>
        <time>2026-02-02T10:27:29Z</time>
      </trkpt>
      <trkpt lat="45.95177" lon="6.55509">
        <ele>2493.2</ele>
        <time>2026-02-02T10:27:30Z</time>
      </trkpt>
      <trkpt lat="45.95177" lon="6.55509">
        <ele>2493.2</ele>
        <time>2026-02-02T10:27:31Z</time>
      </trkpt>
      <trkpt lat="45.95177" lon="6.55509">
        <ele>2493.2</ele>
        <time>2026-02-02T10:27:32Z</time>
      </trkpt>
      <trkpt lat="45.95177" lon="6.55509">
        <ele>2493.2</ele>
        <time>2026-02-02T10:27:33Z</time>
      </trkpt>
      <trkpt lat="45.95177" lon="6.55509">
        <ele>2493.2</ele>
        <time>2026-02-02T10:27:34Z</time>
      </trkpt>
      <trkpt lat="45.95177" lon="6.55509">
        <ele>2493.2</ele>
        <time>2026-02-02T10:27:35Z</time>
      </trkpt>
      <trkpt lat="45.95177" lon="6.55509">
        <ele>2493.2</ele>
        <time>2026-02-02T10:27:36Z</time>
      </trkpt>
      <trkpt lat="45.95177" lon="6.55509">
        <ele>2493.2</ele>
        <time>2026-02-02T10:27:37Z</time>
      </trkpt>
      <trkpt lat="45.95177" lon="6.55509">
        <ele>2493.2</ele>
        <time>2026-02-02T10:27:38Z</time>
      </trkpt>
      <trkpt lat="45.95177" lon="6.55508">
        <ele>2493.2</ele>
        <time>2026-02-02T10:27:39Z</time>
      </trkpt>
      <trkpt lat="45.95178" lon="6.55507">
        <ele>2493.4</ele>
        <time>2026-02-02T10:27:40Z</time>
      </trkpt>
      <trkpt lat="45.95178" lon="6.55507">
        <ele>2493.4</ele>
        <time>2026-02-02T10:27:41Z</time>
      </trkpt>
      <trkpt lat="45.95178" lon="6.55507">
        <ele>2493.4</ele>
        <time>2026-02-02T10:27:42Z</time>
      </trkpt>
      <trkpt lat="45.95178" lon="6.55507">
        <ele>2493.4</ele>
        <time>2026-02-02T10:27:43Z</time>
      </trkpt>
      <trkpt lat="45.95178" lon="6.55507">
        <ele>2493.4</ele>
        <time>2026-02-02T10:27:44Z</time>
      </trkpt>
      <trkpt lat="45.95178" lon="6.55508">
        <ele>2493.4</ele>
        <time>2026-02-02T10:27:45Z</time>
      </trkpt>
      <trkpt lat="45.95178" lon="6.55509">
        <ele>2493.4</ele>
        <time>2026-02-02T10:27:46Z</time>
      </trkpt>
      <trkpt lat="45.95178" lon="6.55509">
        <ele>2493.4</ele>
        <time>2026-02-02T10:27:47Z</time>
      </trkpt>
      <trkpt lat="45.95178" lon="6.55511">
        <ele>2493</ele>
        <time>2026-02-02T10:27:48Z</time>
      </trkpt>
      <trkpt lat="45.95177" lon="6.5551">
        <ele>2493.2</ele>
        <time>2026-02-02T10:27:49Z</time>
      </trkpt>
      <trkpt lat="45.95177" lon="6.55509">
        <ele>2493.2</ele>
        <time>2026-02-02T10:27:50Z</time>
      </trkpt>
      <trkpt lat="45.95177" lon="6.55509">
        <ele>2493.2</ele>
        <time>2026-02-02T10:27:51Z</time>
      </trkpt>
      <trkpt lat="45.95177" lon="6.5551">
        <ele>2493.2</ele>
        <time>2026-02-02T10:27:52Z</time>
      </trkpt>
      <trkpt lat="45.95177" lon="6.5551">
        <ele>2493.2</ele>
        <time>2026-02-02T10:27:53Z</time>
      </trkpt>
      <trkpt lat="45.95177" lon="6.5551">
        <ele>2493.2</ele>
        <time>2026-02-02T10:27:54Z</time>
      </trkpt>
      <trkpt lat="45.95177" lon="6.5551">
        <ele>2493.2</ele>
        <time>2026-02-02T10:27:55Z</time>
      </trkpt>
      <trkpt lat="45.95177" lon="6.55509">
        <ele>2493.2</ele>
        <time>2026-02-02T10:27:56Z</time>
      </trkpt>
      <trkpt lat="45.95177" lon="6.5551">
        <ele>2493.2</ele>
        <time>2026-02-02T10:27:57Z</time>
      </trkpt>
      <trkpt lat="45.95176" lon="6.5551">
        <ele>2493.2</ele>
        <time>2026-02-02T10:27:58Z</time>
      </trkpt>
      <trkpt lat="45.95176" lon="6.5551">
        <ele>2493.2</ele>
        <time>2026-02-02T10:27:59Z</time>
      </trkpt>
      <trkpt lat="45.95176" lon="6.5551">
        <ele>2493.2</ele>
        <time>2026-02-02T10:28:00Z</time>
      </trkpt>
      <trkpt lat="45.95176" lon="6.55509">
        <ele>2493.2</ele>
        <time>2026-02-02T10:28:01Z</time>
      </trkpt>
      <trkpt lat="45.95177" lon="6.55509">
        <ele>2493.2</ele>
        <time>2026-02-02T10:28:02Z</time>
      </trkpt>
      <trkpt lat="45.95177" lon="6.55509">
        <ele>2493.2</ele>
        <time>2026-02-02T10:28:03Z</time>
      </trkpt>
      <trkpt lat="45.95177" lon="6.55509">
        <ele>2493.2</ele>
        <time>2026-02-02T10:28:04Z</time>
      </trkpt>
      <trkpt lat="45.95177" lon="6.55508">
        <ele>2493.2</ele>
        <time>2026-02-02T10:28:05Z</time>
      </trkpt>
      <trkpt lat="45.95178" lon="6.55508">
        <ele>2493.4</ele>
        <time>2026-02-02T10:28:06Z</time>
      </trkpt>
      <trkpt lat="45.95178" lon="6.55507">
        <ele>2493.4</ele>
        <time>2026-02-02T10:28:07Z</time>
      </trkpt>
      <trkpt lat="45.95179" lon="6.55507">
        <ele>2493.4</ele>
        <time>2026-02-02T10:28:08Z</time>
      </trkpt>
      <trkpt lat="45.95179" lon="6.55507">
        <ele>2493.4</ele>
        <time>2026-02-02T10:28:09Z</time>
      </trkpt>
      <trkpt lat="45.95179" lon="6.55507">
        <ele>2493.4</ele>
        <time>2026-02-02T10:28:10Z</time>
      </trkpt>
      <trkpt lat="45.95179" lon="6.55506">
        <ele>2493.3</ele>
        <time>2026-02-02T10:28:11Z</time>
      </trkpt>
      <trkpt lat="45.9518" lon="6.55505">
        <ele>2493.3</ele>
        <time>2026-02-02T10:28:12Z</time>
      </trkpt>
      <trkpt lat="45.95179" lon="6.55506">
        <ele>2493.3</ele>
        <time>2026-02-02T10:28:13Z</time>
      </trkpt>
      <trkpt lat="45.95179" lon="6.55506">
        <ele>2493.3</ele>
        <time>2026-02-02T10:28:14Z</time>
      </trkpt>
      <trkpt lat="45.95179" lon="6.55506">
        <ele>2493.4</ele>
        <time>2026-02-02T10:28:15Z</time>
      </trkpt>
      <trkpt lat="45.95179" lon="6.55506">
        <ele>2493.4</ele>
        <time>2026-02-02T10:28:16Z</time>
      </trkpt>
      <trkpt lat="45.95179" lon="6.55506">
        <ele>2493.3</ele>
        <time>2026-02-02T10:28:17Z</time>
      </trkpt>
      <trkpt lat="45.95179" lon="6.55506">
        <ele>2493.4</ele>
        <time>2026-02-02T10:28:18Z</time>
      </trkpt>
      <trkpt lat="45.95179" lon="6.55506">
        <ele>2493.3</ele>
        <time>2026-02-02T10:28:19Z</time>
      </trkpt>
      <trkpt lat="45.95178" lon="6.55506">
        <ele>2493.3</ele>
        <time>2026-02-02T10:28:20Z</time>
      </trkpt>
      <trkpt lat="45.95178" lon="6.55506">
        <ele>2493.3</ele>
        <time>2026-02-02T10:28:21Z</time>
      </trkpt>
      <trkpt lat="45.95178" lon="6.55506">
        <ele>2493.3</ele>
        <time>2026-02-02T10:28:22Z</time>
      </trkpt>
      <trkpt lat="45.95178" lon="6.55505">
        <ele>2493.3</ele>
        <time>2026-02-02T10:28:23Z</time>
      </trkpt>
      <trkpt lat="45.95178" lon="6.55505">
        <ele>2493.3</ele>
        <time>2026-02-02T10:28:24Z</time>
      </trkpt>
      <trkpt lat="45.95178" lon="6.55505">
        <ele>2493.1</ele>
        <time>2026-02-02T10:28:25Z</time>
      </trkpt>
      <trkpt lat="45.95178" lon="6.55505">
        <ele>2493.3</ele>
        <time>2026-02-02T10:28:26Z</time>
      </trkpt>
      <trkpt lat="45.95178" lon="6.55505">
        <ele>2493.3</ele>
        <time>2026-02-02T10:28:27Z</time>
      </trkpt>
      <trkpt lat="45.95178" lon="6.55504">
        <ele>2493.3</ele>
        <time>2026-02-02T10:28:28Z</time>
      </trkpt>
      <trkpt lat="45.95178" lon="6.55504">
        <ele>2493.3</ele>
        <time>2026-02-02T10:28:29Z</time>
      </trkpt>
      <trkpt lat="45.95178" lon="6.55504">
        <ele>2493.3</ele>
        <time>2026-02-02T10:28:30Z</time>
      </trkpt>
      <trkpt lat="45.95178" lon="6.55503">
        <ele>2493.3</ele>
        <time>2026-02-02T10:28:31Z</time>
      </trkpt>
      <trkpt lat="45.95178" lon="6.55503">
        <ele>2493.3</ele>
        <time>2026-02-02T10:28:32Z</time>
      </trkpt>
      <trkpt lat="45.95178" lon="6.55504">
        <ele>2493.1</ele>
        <time>2026-02-02T10:28:33Z</time>
      </trkpt>
      <trkpt lat="45.95177" lon="6.55504">
        <ele>2493.1</ele>
        <time>2026-02-02T10:28:34Z</time>
      </trkpt>
      <trkpt lat="45.95177" lon="6.55504">
        <ele>2493.1</ele>
        <time>2026-02-02T10:28:35Z</time>
      </trkpt>
      <trkpt lat="45.95177" lon="6.55504">
        <ele>2493.1</ele>
        <time>2026-02-02T10:28:36Z</time>
      </trkpt>
      <trkpt lat="45.95177" lon="6.55504">
        <ele>2493.1</ele>
        <time>2026-02-02T10:28:37Z</time>
      </trkpt>
      <trkpt lat="45.95177" lon="6.55504">
        <ele>2493.1</ele>
        <time>2026-02-02T10:28:38Z</time>
      </trkpt>
      <trkpt lat="45.95177" lon="6.55504">
        <ele>2493.1</ele>
        <time>2026-02-02T10:28:39Z</time>
      </trkpt>
      <trkpt lat="45.95177" lon="6.55503">
        <ele>2493.1</ele>
        <time>2026-02-02T10:28:40Z</time>
      </trkpt>
      <trkpt lat="45.95176" lon="6.55503">
        <ele>2493.1</ele>
        <time>2026-02-02T10:28:41Z</time>
      </trkpt>
      <trkpt lat="45.95176" lon="6.55503">
        <ele>2493.1</ele>
        <time>2026-02-02T10:28:42Z</time>
      </trkpt>
      <trkpt lat="45.95176" lon="6.55503">
        <ele>2493.1</ele>
        <time>2026-02-02T10:28:43Z</time>
      </trkpt>
      <trkpt lat="45.95176" lon="6.55503">
        <ele>2493.1</ele>
        <time>2026-02-02T10:28:44Z</time>
      </trkpt>
      <trkpt lat="45.95176" lon="6.55503">
        <ele>2493.1</ele>
        <time>2026-02-02T10:28:45Z</time>
      </trkpt>
      <trkpt lat="45.95177" lon="6.55503">
        <ele>2493.1</ele>
        <time>2026-02-02T10:28:46Z</time>
      </trkpt>
      <trkpt lat="45.95177" lon="6.55502">
        <ele>2493.1</ele>
        <time>2026-02-02T10:28:47Z</time>
      </trkpt>
      <trkpt lat="45.95177" lon="6.55502">
        <ele>2493.1</ele>
        <time>2026-02-02T10:28:48Z</time>
      </trkpt>
      <trkpt lat="45.95177" lon="6.55502">
        <ele>2493.1</ele>
        <time>2026-02-02T10:28:49Z</time>
      </trkpt>
      <trkpt lat="45.95177" lon="6.55502">
        <ele>2493.1</ele>
        <time>2026-02-02T10:28:50Z</time>
      </trkpt>
      <trkpt lat="45.95177" lon="6.55502">
        <ele>2493.1</ele>
        <time>2026-02-02T10:28:51Z</time>
      </trkpt>
      <trkpt lat="45.95177" lon="6.55502">
        <ele>2493.1</ele>
        <time>2026-02-02T10:28:52Z</time>
      </trkpt>
      <trkpt lat="45.95177" lon="6.55502">
        <ele>2493.1</ele>
        <time>2026-02-02T10:28:53Z</time>
      </trkpt>
      <trkpt lat="45.95177" lon="6.55502">
        <ele>2493.1</ele>
        <time>2026-02-02T10:28:54Z</time>
      </trkpt>
      <trkpt lat="45.95177" lon="6.55502">
        <ele>2493.1</ele>
        <time>2026-02-02T10:28:55Z</time>
      </trkpt>
      <trkpt lat="45.95177" lon="6.55502">
        <ele>2493.1</ele>
        <time>2026-02-02T10:28:56Z</time>
      </trkpt>
      <trkpt lat="45.95177" lon="6.55502">
        <ele>2493.1</ele>
        <time>2026-02-02T10:28:57Z</time>
      </trkpt>
      <trkpt lat="45.95177" lon="6.55503">
        <ele>2493.1</ele>
        <time>2026-02-02T10:28:58Z</time>
      </trkpt>
      <trkpt lat="45.95177" lon="6.55503">
        <ele>2493.1</ele>
        <time>2026-02-02T10:28:59Z</time>
      </trkpt>
      <trkpt lat="45.95177" lon="6.55502">
        <ele>2493.1</ele>
        <time>2026-02-02T10:29:00Z</time>
      </trkpt>
      <trkpt lat="45.95177" lon="6.55502">
        <ele>2493.1</ele>
        <time>2026-02-02T10:29:01Z</time>
      </trkpt>
      <trkpt lat="45.95177" lon="6.55502">
        <ele>2493.1</ele>
        <time>2026-02-02T10:29:02Z</time>
      </trkpt>
      <trkpt lat="45.95177" lon="6.55502">
        <ele>2493.1</ele>
        <time>2026-02-02T10:29:03Z</time>
      </trkpt>
      <trkpt lat="45.95177" lon="6.55502">
        <ele>2493.1</ele>
        <time>2026-02-02T10:29:04Z</time>
      </trkpt>
      <trkpt lat="45.95177" lon="6.55502">
        <ele>2493.1</ele>
        <time>2026-02-02T10:29:05Z</time>
      </trkpt>
      <trkpt lat="45.95177" lon="6.55502">
        <ele>2493.1</ele>
        <time>2026-02-02T10:29:06Z</time>
      </trkpt>
      <trkpt lat="45.95177" lon="6.55501">
        <ele>2493</ele>
        <time>2026-02-02T10:29:07Z</time>
      </trkpt>
      <trkpt lat="45.95177" lon="6.55502">
        <ele>2493</ele>
        <time>2026-02-02T10:29:08Z</time>
      </trkpt>
      <trkpt lat="45.95177" lon="6.55502">
        <ele>2493</ele>
        <time>2026-02-02T10:29:09Z</time>
      </trkpt>
      <trkpt lat="45.95177" lon="6.55502">
        <ele>2493</ele>
        <time>2026-02-02T10:29:10Z</time>
      </trkpt>
      <trkpt lat="45.95177" lon="6.55502">
        <ele>2493</ele>
        <time>2026-02-02T10:29:11Z</time>
      </trkpt>
      <trkpt lat="45.95177" lon="6.55502">
        <ele>2493</ele>
        <time>2026-02-02T10:29:12Z</time>
      </trkpt>
      <trkpt lat="45.95177" lon="6.55502">
        <ele>2493</ele>
        <time>2026-02-02T10:29:13Z</time>
      </trkpt>
      <trkpt lat="45.95177" lon="6.55502">
        <ele>2493</ele>
        <time>2026-02-02T10:29:14Z</time>
      </trkpt>
      <trkpt lat="45.95177" lon="6.55502">
        <ele>2493</ele>
        <time>2026-02-02T10:29:15Z</time>
      </trkpt>
      <trkpt lat="45.95177" lon="6.55502">
        <ele>2493</ele>
        <time>2026-02-02T10:29:16Z</time>
      </trkpt>
      <trkpt lat="45.95177" lon="6.55502">
        <ele>2493</ele>
        <time>2026-02-02T10:29:17Z</time>
      </trkpt>
      <trkpt lat="45.95177" lon="6.55501">
        <ele>2493</ele>
        <time>2026-02-02T10:29:18Z</time>
      </trkpt>
      <trkpt lat="45.95177" lon="6.55502">
        <ele>2493</ele>
        <time>2026-02-02T10:29:19Z</time>
      </trkpt>
      <trkpt lat="45.95177" lon="6.55502">
        <ele>2493</ele>
        <time>2026-02-02T10:29:20Z</time>
      </trkpt>
      <trkpt lat="45.95177" lon="6.55502">
        <ele>2493</ele>
        <time>2026-02-02T10:29:21Z</time>
      </trkpt>
      <trkpt lat="45.95177" lon="6.55502">
        <ele>2493</ele>
        <time>2026-02-02T10:29:22Z</time>
      </trkpt>
      <trkpt lat="45.95177" lon="6.55502">
        <ele>2493</ele>
        <time>2026-02-02T10:29:23Z</time>
      </trkpt>
      <trkpt lat="45.95177" lon="6.55502">
        <ele>2493</ele>
        <time>2026-02-02T10:29:24Z</time>
      </trkpt>
      <trkpt lat="45.95177" lon="6.55502">
        <ele>2493</ele>
        <time>2026-02-02T10:29:25Z</time>
      </trkpt>
      <trkpt lat="45.95177" lon="6.55502">
        <ele>2493</ele>
        <time>2026-02-02T10:29:26Z</time>
      </trkpt>
      <trkpt lat="45.95177" lon="6.55502">
        <ele>2493</ele>
        <time>2026-02-02T10:29:27Z</time>
      </trkpt>
      <trkpt lat="45.95177" lon="6.55502">
        <ele>2493</ele>
        <time>2026-02-02T10:29:28Z</time>
      </trkpt>
      <trkpt lat="45.95177" lon="6.55502">
        <ele>2493.1</ele>
        <time>2026-02-02T10:29:29Z</time>
      </trkpt>
      <trkpt lat="45.95177" lon="6.55502">
        <ele>2493.1</ele>
        <time>2026-02-02T10:29:30Z</time>
      </trkpt>
      <trkpt lat="45.95177" lon="6.55502">
        <ele>2493.1</ele>
        <time>2026-02-02T10:29:31Z</time>
      </trkpt>
      <trkpt lat="45.95177" lon="6.55502">
        <ele>2493.1</ele>
        <time>2026-02-02T10:29:32Z</time>
      </trkpt>
      <trkpt lat="45.95177" lon="6.55502">
        <ele>2493.1</ele>
        <time>2026-02-02T10:29:33Z</time>
      </trkpt>
      <trkpt lat="45.95177" lon="6.55502">
        <ele>2493.1</ele>
        <time>2026-02-02T10:29:34Z</time>
      </trkpt>
      <trkpt lat="45.95177" lon="6.55502">
        <ele>2493.1</ele>
        <time>2026-02-02T10:29:35Z</time>
      </trkpt>
      <trkpt lat="45.95177" lon="6.55502">
        <ele>2493.1</ele>
        <time>2026-02-02T10:29:36Z</time>
      </trkpt>
      <trkpt lat="45.95177" lon="6.55503">
        <ele>2493.1</ele>
        <time>2026-02-02T10:29:37Z</time>
      </trkpt>
      <trkpt lat="45.95177" lon="6.55503">
        <ele>2493.1</ele>
        <time>2026-02-02T10:29:38Z</time>
      </trkpt>
      <trkpt lat="45.95177" lon="6.55503">
        <ele>2493.1</ele>
        <time>2026-02-02T10:29:39Z</time>
      </trkpt>
      <trkpt lat="45.95177" lon="6.55503">
        <ele>2493.1</ele>
        <time>2026-02-02T10:29:40Z</time>
      </trkpt>
      <trkpt lat="45.95177" lon="6.55503">
        <ele>2493.1</ele>
        <time>2026-02-02T10:29:41Z</time>
      </trkpt>
      <trkpt lat="45.95177" lon="6.55503">
        <ele>2493.1</ele>
        <time>2026-02-02T10:29:42Z</time>
      </trkpt>
      <trkpt lat="45.95177" lon="6.55503">
        <ele>2493.1</ele>
        <time>2026-02-02T10:29:43Z</time>
      </trkpt>
      <trkpt lat="45.95177" lon="6.55503">
        <ele>2493.1</ele>
        <time>2026-02-02T10:29:44Z</time>
      </trkpt>
      <trkpt lat="45.95176" lon="6.55502">
        <ele>2493.1</ele>
        <time>2026-02-02T10:29:45Z</time>
      </trkpt>
      <trkpt lat="45.95176" lon="6.55502">
        <ele>2493.1</ele>
        <time>2026-02-02T10:29:46Z</time>
      </trkpt>
      <trkpt lat="45.95176" lon="6.55502">
        <ele>2493.1</ele>
        <time>2026-02-02T10:29:47Z</time>
      </trkpt>
      <trkpt lat="45.95176" lon="6.55502">
        <ele>2493.1</ele>
        <time>2026-02-02T10:29:48Z</time>
      </trkpt>
      <trkpt lat="45.95176" lon="6.55502">
        <ele>2493.1</ele>
        <time>2026-02-02T10:29:49Z</time>
      </trkpt>
      <trkpt lat="45.95176" lon="6.55503">
        <ele>2493.1</ele>
        <time>2026-02-02T10:29:50Z</time>
      </trkpt>
      <trkpt lat="45.95176" lon="6.55503">
        <ele>2493.1</ele>
        <time>2026-02-02T10:29:51Z</time>
      </trkpt>
      <trkpt lat="45.95176" lon="6.55504">
        <ele>2493.1</ele>
        <time>2026-02-02T10:29:52Z</time>
      </trkpt>
      <trkpt lat="45.95176" lon="6.55504">
        <ele>2493.1</ele>
        <time>2026-02-02T10:29:53Z</time>
      </trkpt>
      <trkpt lat="45.95176" lon="6.55504">
        <ele>2493.1</ele>
        <time>2026-02-02T10:29:54Z</time>
      </trkpt>
      <trkpt lat="45.95176" lon="6.55504">
        <ele>2493.1</ele>
        <time>2026-02-02T10:29:55Z</time>
      </trkpt>
      <trkpt lat="45.95176" lon="6.55504">
        <ele>2493.1</ele>
        <time>2026-02-02T10:29:56Z</time>
      </trkpt>
      <trkpt lat="45.95176" lon="6.55504">
        <ele>2493.1</ele>
        <time>2026-02-02T10:29:57Z</time>
      </trkpt>
      <trkpt lat="45.95176" lon="6.55504">
        <ele>2493.1</ele>
        <time>2026-02-02T10:29:58Z</time>
      </trkpt>
      <trkpt lat="45.95176" lon="6.55504">
        <ele>2493.1</ele>
        <time>2026-02-02T10:29:59Z</time>
      </trkpt>
      <trkpt lat="45.95176" lon="6.55504">
        <ele>2493.1</ele>
        <time>2026-02-02T10:30:00Z</time>
      </trkpt>
      <trkpt lat="45.95176" lon="6.55504">
        <ele>2493.1</ele>
        <time>2026-02-02T10:30:01Z</time>
      </trkpt>
      <trkpt lat="45.95176" lon="6.55504">
        <ele>2493.1</ele>
        <time>2026-02-02T10:30:02Z</time>
      </trkpt>
      <trkpt lat="45.95177" lon="6.55504">
        <ele>2493.1</ele>
        <time>2026-02-02T10:30:03Z</time>
      </trkpt>
      <trkpt lat="45.95177" lon="6.55505">
        <ele>2493.1</ele>
        <time>2026-02-02T10:30:04Z</time>
      </trkpt>
      <trkpt lat="45.95178" lon="6.55505">
        <ele>2493.1</ele>
        <time>2026-02-02T10:30:05Z</time>
      </trkpt>
      <trkpt lat="45.95178" lon="6.55505">
        <ele>2493.1</ele>
        <time>2026-02-02T10:30:06Z</time>
      </trkpt>
      <trkpt lat="45.95178" lon="6.55505">
        <ele>2493.1</ele>
        <time>2026-02-02T10:30:07Z</time>
      </trkpt>
      <trkpt lat="45.95178" lon="6.55505">
        <ele>2493.1</ele>
        <time>2026-02-02T10:30:08Z</time>
      </trkpt>
      <trkpt lat="45.95175" lon="6.55506">
        <ele>2493.1</ele>
        <time>2026-02-02T10:30:09Z</time>
      </trkpt>
      <trkpt lat="45.95175" lon="6.55506">
        <ele>2493.1</ele>
        <time>2026-02-02T10:30:10Z</time>
      </trkpt>
      <trkpt lat="45.95176" lon="6.55506">
        <ele>2493.2</ele>
        <time>2026-02-02T10:30:11Z</time>
      </trkpt>
      <trkpt lat="45.95176" lon="6.55506">
        <ele>2493.1</ele>
        <time>2026-02-02T10:30:12Z</time>
      </trkpt>
      <trkpt lat="45.95176" lon="6.55506">
        <ele>2493.1</ele>
        <time>2026-02-02T10:30:13Z</time>
      </trkpt>
      <trkpt lat="45.95176" lon="6.55505">
        <ele>2493.1</ele>
        <time>2026-02-02T10:30:14Z</time>
      </trkpt>
      <trkpt lat="45.95175" lon="6.55505">
        <ele>2493.1</ele>
        <time>2026-02-02T10:30:15Z</time>
      </trkpt>
      <trkpt lat="45.95175" lon="6.55505">
        <ele>2493.1</ele>
        <time>2026-02-02T10:30:16Z</time>
      </trkpt>
      <trkpt lat="45.95176" lon="6.55505">
        <ele>2493.1</ele>
        <time>2026-02-02T10:30:17Z</time>
      </trkpt>
      <trkpt lat="45.95176" lon="6.55504">
        <ele>2493.1</ele>
        <time>2026-02-02T10:30:18Z</time>
      </trkpt>
      <trkpt lat="45.95176" lon="6.55504">
        <ele>2493.1</ele>
        <time>2026-02-02T10:30:19Z</time>
      </trkpt>
      <trkpt lat="45.95176" lon="6.55504">
        <ele>2493.1</ele>
        <time>2026-02-02T10:30:20Z</time>
      </trkpt>
      <trkpt lat="45.95176" lon="6.55504">
        <ele>2493.1</ele>
        <time>2026-02-02T10:30:21Z</time>
      </trkpt>
      <trkpt lat="45.95176" lon="6.55504">
        <ele>2493.1</ele>
        <time>2026-02-02T10:30:22Z</time>
      </trkpt>
      <trkpt lat="45.95176" lon="6.55504">
        <ele>2493.1</ele>
        <time>2026-02-02T10:30:23Z</time>
      </trkpt>
      <trkpt lat="45.95176" lon="6.55504">
        <ele>2493.1</ele>
        <time>2026-02-02T10:30:24Z</time>
      </trkpt>
      <trkpt lat="45.95176" lon="6.55504">
        <ele>2493.1</ele>
        <time>2026-02-02T10:30:25Z</time>
      </trkpt>
      <trkpt lat="45.95176" lon="6.55504">
        <ele>2493.1</ele>
        <time>2026-02-02T10:30:26Z</time>
      </trkpt>
      <trkpt lat="45.95176" lon="6.55504">
        <ele>2493.1</ele>
        <time>2026-02-02T10:30:27Z</time>
      </trkpt>
      <trkpt lat="45.95176" lon="6.55504">
        <ele>2493.1</ele>
        <time>2026-02-02T10:30:28Z</time>
      </trkpt>
      <trkpt lat="45.95176" lon="6.55504">
        <ele>2493.1</ele>
        <time>2026-02-02T10:30:29Z</time>
      </trkpt>
      <trkpt lat="45.95176" lon="6.55504">
        <ele>2493.1</ele>
        <time>2026-02-02T10:30:30Z</time>
      </trkpt>
      <trkpt lat="45.95176" lon="6.55504">
        <ele>2493.1</ele>
        <time>2026-02-02T10:30:31Z</time>
      </trkpt>
      <trkpt lat="45.95176" lon="6.55504">
        <ele>2493.1</ele>
        <time>2026-02-02T10:30:32Z</time>
      </trkpt>
      <trkpt lat="45.95176" lon="6.55504">
        <ele>2493.1</ele>
        <time>2026-02-02T10:30:33Z</time>
      </trkpt>
      <trkpt lat="45.95176" lon="6.55504">
        <ele>2493.1</ele>
        <time>2026-02-02T10:30:34Z</time>
      </trkpt>
      <trkpt lat="45.95176" lon="6.55504">
        <ele>2493.1</ele>
        <time>2026-02-02T10:30:35Z</time>
      </trkpt>
      <trkpt lat="45.95176" lon="6.55504">
        <ele>2493.1</ele>
        <time>2026-02-02T10:30:36Z</time>
      </trkpt>
      <trkpt lat="45.95176" lon="6.55504">
        <ele>2493.1</ele>
        <time>2026-02-02T10:30:37Z</time>
      </trkpt>
      <trkpt lat="45.95176" lon="6.55504">
        <ele>2493.1</ele>
        <time>2026-02-02T10:30:38Z</time>
      </trkpt>
      <trkpt lat="45.95176" lon="6.55504">
        <ele>2493.1</ele>
        <time>2026-02-02T10:30:39Z</time>
      </trkpt>
      <trkpt lat="45.95176" lon="6.55504">
        <ele>2493.1</ele>
        <time>2026-02-02T10:30:40Z</time>
      </trkpt>
      <trkpt lat="45.95175" lon="6.55505">
        <ele>2493.1</ele>
        <time>2026-02-02T10:30:41Z</time>
      </trkpt>
      <trkpt lat="45.95175" lon="6.55505">
        <ele>2493.1</ele>
        <time>2026-02-02T10:30:42Z</time>
      </trkpt>
      <trkpt lat="45.95176" lon="6.55506">
        <ele>2493.1</ele>
        <time>2026-02-02T10:30:43Z</time>
      </trkpt>
      <trkpt lat="45.95176" lon="6.55506">
        <ele>2493.1</ele>
        <time>2026-02-02T10:30:44Z</time>
      </trkpt>
      <trkpt lat="45.95176" lon="6.55506">
        <ele>2493.1</ele>
        <time>2026-02-02T10:30:45Z</time>
      </trkpt>
      <trkpt lat="45.95177" lon="6.55505">
        <ele>2493.1</ele>
        <time>2026-02-02T10:30:46Z</time>
      </trkpt>
      <trkpt lat="45.95177" lon="6.55504">
        <ele>2493.1</ele>
        <time>2026-02-02T10:30:47Z</time>
      </trkpt>
      <trkpt lat="45.95176" lon="6.55503">
        <ele>2493.1</ele>
        <time>2026-02-02T10:30:48Z</time>
      </trkpt>
      <trkpt lat="45.95176" lon="6.55503">
        <ele>2493.1</ele>
        <time>2026-02-02T10:30:49Z</time>
      </trkpt>
      <trkpt lat="45.95176" lon="6.55504">
        <ele>2493.1</ele>
        <time>2026-02-02T10:30:50Z</time>
      </trkpt>
      <trkpt lat="45.95176" lon="6.55505">
        <ele>2493.1</ele>
        <time>2026-02-02T10:30:51Z</time>
      </trkpt>
      <trkpt lat="45.95176" lon="6.55505">
        <ele>2493.1</ele>
        <time>2026-02-02T10:30:52Z</time>
      </trkpt>
      <trkpt lat="45.95176" lon="6.55505">
        <ele>2493.1</ele>
        <time>2026-02-02T10:30:53Z</time>
      </trkpt>
      <trkpt lat="45.95176" lon="6.55505">
        <ele>2493.1</ele>
        <time>2026-02-02T10:30:54Z</time>
      </trkpt>
      <trkpt lat="45.95176" lon="6.55505">
        <ele>2493.1</ele>
        <time>2026-02-02T10:30:55Z</time>
      </trkpt>
      <trkpt lat="45.95176" lon="6.55505">
        <ele>2493.1</ele>
        <time>2026-02-02T10:30:56Z</time>
      </trkpt>
      <trkpt lat="45.95176" lon="6.55505">
        <ele>2493.1</ele>
        <time>2026-02-02T10:30:57Z</time>
      </trkpt>
      <trkpt lat="45.95176" lon="6.55505">
        <ele>2493.1</ele>
        <time>2026-02-02T10:30:58Z</time>
      </trkpt>
      <trkpt lat="45.95176" lon="6.55505">
        <ele>2493.1</ele>
        <time>2026-02-02T10:30:59Z</time>
      </trkpt>
      <trkpt lat="45.95176" lon="6.55505">
        <ele>2493.1</ele>
        <time>2026-02-02T10:31:00Z</time>
      </trkpt>
      <trkpt lat="45.95176" lon="6.55505">
        <ele>2493.1</ele>
        <time>2026-02-02T10:31:01Z</time>
      </trkpt>
      <trkpt lat="45.95176" lon="6.55505">
        <ele>2493.1</ele>
        <time>2026-02-02T10:31:02Z</time>
      </trkpt>
      <trkpt lat="45.95175" lon="6.55505">
        <ele>2493.1</ele>
        <time>2026-02-02T10:31:03Z</time>
      </trkpt>
      <trkpt lat="45.95175" lon="6.55505">
        <ele>2493.1</ele>
        <time>2026-02-02T10:31:04Z</time>
      </trkpt>
      <trkpt lat="45.95175" lon="6.55505">
        <ele>2493.1</ele>
        <time>2026-02-02T10:31:05Z</time>
      </trkpt>
      <trkpt lat="45.95175" lon="6.55505">
        <ele>2493.1</ele>
        <time>2026-02-02T10:31:06Z</time>
      </trkpt>
      <trkpt lat="45.95175" lon="6.55505">
        <ele>2493.1</ele>
        <time>2026-02-02T10:31:07Z</time>
      </trkpt>
      <trkpt lat="45.95176" lon="6.55505">
        <ele>2493.1</ele>
        <time>2026-02-02T10:31:08Z</time>
      </trkpt>
      <trkpt lat="45.95175" lon="6.55505">
        <ele>2493.1</ele>
        <time>2026-02-02T10:31:09Z</time>
      </trkpt>
      <trkpt lat="45.95176" lon="6.55505">
        <ele>2493.1</ele>
        <time>2026-02-02T10:31:10Z</time>
      </trkpt>
      <trkpt lat="45.95176" lon="6.55505">
        <ele>2493.1</ele>
        <time>2026-02-02T10:31:11Z</time>
      </trkpt>
      <trkpt lat="45.95176" lon="6.55505">
        <ele>2493.1</ele>
        <time>2026-02-02T10:31:12Z</time>
      </trkpt>
      <trkpt lat="45.95176" lon="6.55504">
        <ele>2493.1</ele>
        <time>2026-02-02T10:31:13Z</time>
      </trkpt>
      <trkpt lat="45.95176" lon="6.55504">
        <ele>2493.1</ele>
        <time>2026-02-02T10:31:14Z</time>
      </trkpt>
      <trkpt lat="45.95176" lon="6.55504">
        <ele>2493.1</ele>
        <time>2026-02-02T10:31:15Z</time>
      </trkpt>
      <trkpt lat="45.95176" lon="6.55504">
        <ele>2493.1</ele>
        <time>2026-02-02T10:31:16Z</time>
      </trkpt>
      <trkpt lat="45.95176" lon="6.55504">
        <ele>2493.1</ele>
        <time>2026-02-02T10:31:17Z</time>
      </trkpt>
      <trkpt lat="45.95176" lon="6.55504">
        <ele>2493.1</ele>
        <time>2026-02-02T10:31:18Z</time>
      </trkpt>
      <trkpt lat="45.95176" lon="6.55504">
        <ele>2493.1</ele>
        <time>2026-02-02T10:31:19Z</time>
      </trkpt>
      <trkpt lat="45.95176" lon="6.55504">
        <ele>2493.1</ele>
        <time>2026-02-02T10:31:20Z</time>
      </trkpt>
      <trkpt lat="45.95176" lon="6.55504">
        <ele>2493.1</ele>
        <time>2026-02-02T10:31:21Z</time>
      </trkpt>
      <trkpt lat="45.95176" lon="6.55504">
        <ele>2493.1</ele>
        <time>2026-02-02T10:31:22Z</time>
      </trkpt>
      <trkpt lat="45.95176" lon="6.55504">
        <ele>2493.1</ele>
        <time>2026-02-02T10:31:23Z</time>
      </trkpt>
      <trkpt lat="45.95176" lon="6.55504">
        <ele>2493.1</ele>
        <time>2026-02-02T10:31:24Z</time>
      </trkpt>
      <trkpt lat="45.95176" lon="6.55504">
        <ele>2493.1</ele>
        <time>2026-02-02T10:31:25Z</time>
      </trkpt>
      <trkpt lat="45.95176" lon="6.55504">
        <ele>2493.1</ele>
        <time>2026-02-02T10:31:26Z</time>
      </trkpt>
      <trkpt lat="45.95176" lon="6.55504">
        <ele>2493.1</ele>
        <time>2026-02-02T10:31:27Z</time>
      </trkpt>
      <trkpt lat="45.95176" lon="6.55504">
        <ele>2493.1</ele>
        <time>2026-02-02T10:31:28Z</time>
      </trkpt>
      <trkpt lat="45.95176" lon="6.55504">
        <ele>2493.1</ele>
        <time>2026-02-02T10:31:29Z</time>
      </trkpt>
      <trkpt lat="45.95176" lon="6.55504">
        <ele>2493.1</ele>
        <time>2026-02-02T10:31:30Z</time>
      </trkpt>
      <trkpt lat="45.95176" lon="6.55504">
        <ele>2493.1</ele>
        <time>2026-02-02T10:31:31Z</time>
      </trkpt>
      <trkpt lat="45.95176" lon="6.55504">
        <ele>2493.1</ele>
        <time>2026-02-02T10:31:32Z</time>
      </trkpt>
      <trkpt lat="45.95176" lon="6.55504">
        <ele>2493.1</ele>
        <time>2026-02-02T10:31:33Z</time>
      </trkpt>
      <trkpt lat="45.95176" lon="6.55504">
        <ele>2493.1</ele>
        <time>2026-02-02T10:31:34Z</time>
      </trkpt>
      <trkpt lat="45.95176" lon="6.55504">
        <ele>2493.1</ele>
        <time>2026-02-02T10:31:35Z</time>
      </trkpt>
      <trkpt lat="45.95176" lon="6.55504">
        <ele>2493.1</ele>
        <time>2026-02-02T10:31:36Z</time>
      </trkpt>
      <trkpt lat="45.95176" lon="6.55504">
        <ele>2493.1</ele>
        <time>2026-02-02T10:31:37Z</time>
      </trkpt>
      <trkpt lat="45.95176" lon="6.55504">
        <ele>2493.1</ele>
        <time>2026-02-02T10:31:38Z</time>
      </trkpt>
      <trkpt lat="45.95176" lon="6.55504">
        <ele>2493.1</ele>
        <time>2026-02-02T10:31:39Z</time>
      </trkpt>
      <trkpt lat="45.95176" lon="6.55504">
        <ele>2493.1</ele>
        <time>2026-02-02T10:31:40Z</time>
      </trkpt>
      <trkpt lat="45.95176" lon="6.55504">
        <ele>2493.1</ele>
        <time>2026-02-02T10:31:41Z</time>
      </trkpt>
      <trkpt lat="45.95176" lon="6.55504">
        <ele>2493.1</ele>
        <time>2026-02-02T10:31:42Z</time>
      </trkpt>
      <trkpt lat="45.95176" lon="6.55504">
        <ele>2493.1</ele>
        <time>2026-02-02T10:31:43Z</time>
      </trkpt>
      <trkpt lat="45.95176" lon="6.55504">
        <ele>2493.1</ele>
        <time>2026-02-02T10:31:44Z</time>
      </trkpt>
      <trkpt lat="45.95176" lon="6.55504">
        <ele>2493.1</ele>
        <time>2026-02-02T10:31:45Z</time>
      </trkpt>
      <trkpt lat="45.95176" lon="6.55504">
        <ele>2493.1</ele>
        <time>2026-02-02T10:31:46Z</time>
      </trkpt>
      <trkpt lat="45.95176" lon="6.55504">
        <ele>2493.1</ele>
        <time>2026-02-02T10:31:47Z</time>
      </trkpt>
      <trkpt lat="45.95176" lon="6.55504">
        <ele>2493.1</ele>
        <time>2026-02-02T10:31:48Z</time>
      </trkpt>
      <trkpt lat="45.95176" lon="6.55504">
        <ele>2493.1</ele>
        <time>2026-02-02T10:31:49Z</time>
      </trkpt>
      <trkpt lat="45.95176" lon="6.55504">
        <ele>2493.1</ele>
        <time>2026-02-02T10:31:50Z</time>
      </trkpt>
      <trkpt lat="45.95176" lon="6.55504">
        <ele>2493.1</ele>
        <time>2026-02-02T10:31:51Z</time>
      </trkpt>
      <trkpt lat="45.95176" lon="6.55504">
        <ele>2493.1</ele>
        <time>2026-02-02T10:31:52Z</time>
      </trkpt>
      <trkpt lat="45.95176" lon="6.55504">
        <ele>2493.1</ele>
        <time>2026-02-02T10:31:53Z</time>
      </trkpt>
      <trkpt lat="45.95176" lon="6.55504">
        <ele>2493.1</ele>
        <time>2026-02-02T10:31:54Z</time>
      </trkpt>
      <trkpt lat="45.95175" lon="6.55504">
        <ele>2493.1</ele>
        <time>2026-02-02T10:31:55Z</time>
      </trkpt>
      <trkpt lat="45.95175" lon="6.55504">
        <ele>2493.1</ele>
        <time>2026-02-02T10:31:56Z</time>
      </trkpt>
      <trkpt lat="45.95175" lon="6.55504">
        <ele>2493.1</ele>
        <time>2026-02-02T10:31:57Z</time>
      </trkpt>
      <trkpt lat="45.95175" lon="6.55504">
        <ele>2493.1</ele>
        <time>2026-02-02T10:31:58Z</time>
      </trkpt>
      <trkpt lat="45.95176" lon="6.55503">
        <ele>2493.1</ele>
        <time>2026-02-02T10:31:59Z</time>
      </trkpt>
      <trkpt lat="45.95176" lon="6.55503">
        <ele>2493.1</ele>
        <time>2026-02-02T10:32:00Z</time>
      </trkpt>
      <trkpt lat="45.95176" lon="6.55503">
        <ele>2493.1</ele>
        <time>2026-02-02T10:32:01Z</time>
      </trkpt>
      <trkpt lat="45.95176" lon="6.55503">
        <ele>2493.1</ele>
        <time>2026-02-02T10:32:02Z</time>
      </trkpt>
      <trkpt lat="45.95176" lon="6.55503">
        <ele>2493.1</ele>
        <time>2026-02-02T10:32:03Z</time>
      </trkpt>
      <trkpt lat="45.95176" lon="6.55503">
        <ele>2493.1</ele>
        <time>2026-02-02T10:32:04Z</time>
      </trkpt>
      <trkpt lat="45.95176" lon="6.55503">
        <ele>2493.1</ele>
        <time>2026-02-02T10:32:05Z</time>
      </trkpt>
      <trkpt lat="45.95176" lon="6.55503">
        <ele>2493.1</ele>
        <time>2026-02-02T10:32:06Z</time>
      </trkpt>
      <trkpt lat="45.95176" lon="6.55503">
        <ele>2493.1</ele>
        <time>2026-02-02T10:32:07Z</time>
      </trkpt>
      <trkpt lat="45.95176" lon="6.55504">
        <ele>2493.1</ele>
        <time>2026-02-02T10:32:08Z</time>
      </trkpt>
      <trkpt lat="45.95176" lon="6.55504">
        <ele>2493.1</ele>
        <time>2026-02-02T10:32:09Z</time>
      </trkpt>
      <trkpt lat="45.95176" lon="6.55503">
        <ele>2493.1</ele>
        <time>2026-02-02T10:32:10Z</time>
      </trkpt>
      <trkpt lat="45.95176" lon="6.55503">
        <ele>2493.1</ele>
        <time>2026-02-02T10:32:11Z</time>
      </trkpt>
      <trkpt lat="45.95176" lon="6.55503">
        <ele>2493.1</ele>
        <time>2026-02-02T10:32:12Z</time>
      </trkpt>
      <trkpt lat="45.95176" lon="6.55503">
        <ele>2493.1</ele>
        <time>2026-02-02T10:32:13Z</time>
      </trkpt>
      <trkpt lat="45.95176" lon="6.55504">
        <ele>2493.1</ele>
        <time>2026-02-02T10:32:14Z</time>
      </trkpt>
      <trkpt lat="45.95176" lon="6.55504">
        <ele>2493.1</ele>
        <time>2026-02-02T10:32:15Z</time>
      </trkpt>
      <trkpt lat="45.95176" lon="6.55504">
        <ele>2493.1</ele>
        <time>2026-02-02T10:32:16Z</time>
      </trkpt>
      <trkpt lat="45.95176" lon="6.55504">
        <ele>2493.1</ele>
        <time>2026-02-02T10:32:17Z</time>
      </trkpt>
      <trkpt lat="45.95176" lon="6.55504">
        <ele>2493.1</ele>
        <time>2026-02-02T10:32:18Z</time>
      </trkpt>
      <trkpt lat="45.95176" lon="6.55504">
        <ele>2493.1</ele>
        <time>2026-02-02T10:32:19Z</time>
      </trkpt>
      <trkpt lat="45.95176" lon="6.55504">
        <ele>2493.1</ele>
        <time>2026-02-02T10:32:20Z</time>
      </trkpt>
      <trkpt lat="45.95176" lon="6.55504">
        <ele>2493.1</ele>
        <time>2026-02-02T10:32:21Z</time>
      </trkpt>
      <trkpt lat="45.95176" lon="6.55504">
        <ele>2493.1</ele>
        <time>2026-02-02T10:32:22Z</time>
      </trkpt>
      <trkpt lat="45.95176" lon="6.55504">
        <ele>2493.1</ele>
        <time>2026-02-02T10:32:23Z</time>
      </trkpt>
      <trkpt lat="45.95176" lon="6.55504">
        <ele>2493.1</ele>
        <time>2026-02-02T10:32:24Z</time>
      </trkpt>
      <trkpt lat="45.95176" lon="6.55504">
        <ele>2493.1</ele>
        <time>2026-02-02T10:32:25Z</time>
      </trkpt>
      <trkpt lat="45.95176" lon="6.55503">
        <ele>2493.1</ele>
        <time>2026-02-02T10:32:26Z</time>
      </trkpt>
      <trkpt lat="45.95176" lon="6.55503">
        <ele>2493.1</ele>
        <time>2026-02-02T10:32:27Z</time>
      </trkpt>
      <trkpt lat="45.95176" lon="6.55504">
        <ele>2493.1</ele>
        <time>2026-02-02T10:32:28Z</time>
      </trkpt>
      <trkpt lat="45.95176" lon="6.55504">
        <ele>2493.1</ele>
        <time>2026-02-02T10:32:29Z</time>
      </trkpt>
      <trkpt lat="45.95177" lon="6.55504">
        <ele>2493.1</ele>
        <time>2026-02-02T10:32:30Z</time>
      </trkpt>
      <trkpt lat="45.95177" lon="6.55504">
        <ele>2493.1</ele>
        <time>2026-02-02T10:32:31Z</time>
      </trkpt>
      <trkpt lat="45.95177" lon="6.55504">
        <ele>2493.1</ele>
        <time>2026-02-02T10:32:32Z</time>
      </trkpt>
      <trkpt lat="45.95176" lon="6.55504">
        <ele>2493.1</ele>
        <time>2026-02-02T10:32:33Z</time>
      </trkpt>
      <trkpt lat="45.95176" lon="6.55504">
        <ele>2493.1</ele>
        <time>2026-02-02T10:32:34Z</time>
      </trkpt>
      <trkpt lat="45.95176" lon="6.55504">
        <ele>2493.1</ele>
        <time>2026-02-02T10:32:35Z</time>
      </trkpt>
      <trkpt lat="45.95176" lon="6.55504">
        <ele>2493.1</ele>
        <time>2026-02-02T10:32:36Z</time>
      </trkpt>
      <trkpt lat="45.95176" lon="6.55504">
        <ele>2493.1</ele>
        <time>2026-02-02T10:32:37Z</time>
      </trkpt>
      <trkpt lat="45.95176" lon="6.55504">
        <ele>2493.1</ele>
        <time>2026-02-02T10:32:38Z</time>
      </trkpt>
      <trkpt lat="45.95176" lon="6.55504">
        <ele>2493.1</ele>
        <time>2026-02-02T10:32:39Z</time>
      </trkpt>
      <trkpt lat="45.95176" lon="6.55503">
        <ele>2493.1</ele>
        <time>2026-02-02T10:32:40Z</time>
      </trkpt>
      <trkpt lat="45.95176" lon="6.55503">
        <ele>2493.1</ele>
        <time>2026-02-02T10:32:41Z</time>
      </trkpt>
      <trkpt lat="45.95176" lon="6.55503">
        <ele>2493.1</ele>
        <time>2026-02-02T10:32:42Z</time>
      </trkpt>
      <trkpt lat="45.95176" lon="6.55503">
        <ele>2493.1</ele>
        <time>2026-02-02T10:32:43Z</time>
      </trkpt>
      <trkpt lat="45.95176" lon="6.55503">
        <ele>2493.1</ele>
        <time>2026-02-02T10:32:44Z</time>
      </trkpt>
      <trkpt lat="45.95176" lon="6.55503">
        <ele>2493.1</ele>
        <time>2026-02-02T10:32:45Z</time>
      </trkpt>
      <trkpt lat="45.95176" lon="6.55503">
        <ele>2493.1</ele>
        <time>2026-02-02T10:32:46Z</time>
      </trkpt>
      <trkpt lat="45.95176" lon="6.55503">
        <ele>2493.1</ele>
        <time>2026-02-02T10:32:47Z</time>
      </trkpt>
      <trkpt lat="45.95176" lon="6.55503">
        <ele>2493.1</ele>
        <time>2026-02-02T10:32:48Z</time>
      </trkpt>
      <trkpt lat="45.95176" lon="6.55503">
        <ele>2493.1</ele>
        <time>2026-02-02T10:32:49Z</time>
      </trkpt>
      <trkpt lat="45.95176" lon="6.55503">
        <ele>2493.1</ele>
        <time>2026-02-02T10:32:50Z</time>
      </trkpt>
      <trkpt lat="45.95176" lon="6.55503">
        <ele>2493.1</ele>
        <time>2026-02-02T10:32:51Z</time>
      </trkpt>
      <trkpt lat="45.95176" lon="6.55504">
        <ele>2493.1</ele>
        <time>2026-02-02T10:32:52Z</time>
      </trkpt>
      <trkpt lat="45.95176" lon="6.55504">
        <ele>2493.1</ele>
        <time>2026-02-02T10:32:53Z</time>
      </trkpt>
      <trkpt lat="45.95176" lon="6.55504">
        <ele>2493.1</ele>
        <time>2026-02-02T10:32:54Z</time>
      </trkpt>
      <trkpt lat="45.95176" lon="6.55504">
        <ele>2493.1</ele>
        <time>2026-02-02T10:32:55Z</time>
      </trkpt>
      <trkpt lat="45.95176" lon="6.55504">
        <ele>2493.1</ele>
        <time>2026-02-02T10:32:56Z</time>
      </trkpt>
      <trkpt lat="45.95176" lon="6.55504">
        <ele>2493.1</ele>
        <time>2026-02-02T10:32:57Z</time>
      </trkpt>
      <trkpt lat="45.95176" lon="6.55504">
        <ele>2493.1</ele>
        <time>2026-02-02T10:32:58Z</time>
      </trkpt>
      <trkpt lat="45.95176" lon="6.55504">
        <ele>2493.1</ele>
        <time>2026-02-02T10:32:59Z</time>
      </trkpt>
      <trkpt lat="45.95176" lon="6.55504">
        <ele>2493.1</ele>
        <time>2026-02-02T10:33:00Z</time>
      </trkpt>
      <trkpt lat="45.95176" lon="6.55504">
        <ele>2493.1</ele>
        <time>2026-02-02T10:33:01Z</time>
      </trkpt>
      <trkpt lat="45.95176" lon="6.55505">
        <ele>2493.1</ele>
        <time>2026-02-02T10:33:02Z</time>
      </trkpt>
      <trkpt lat="45.95176" lon="6.55504">
        <ele>2493.1</ele>
        <time>2026-02-02T10:33:03Z</time>
      </trkpt>
      <trkpt lat="45.95176" lon="6.55505">
        <ele>2493.1</ele>
        <time>2026-02-02T10:33:04Z</time>
      </trkpt>
      <trkpt lat="45.95177" lon="6.55505">
        <ele>2493.1</ele>
        <time>2026-02-02T10:33:05Z</time>
      </trkpt>
      <trkpt lat="45.95177" lon="6.55505">
        <ele>2493.1</ele>
        <time>2026-02-02T10:33:06Z</time>
      </trkpt>
      <trkpt lat="45.95177" lon="6.55505">
        <ele>2493.1</ele>
        <time>2026-02-02T10:33:07Z</time>
      </trkpt>
      <trkpt lat="45.95177" lon="6.55505">
        <ele>2493.1</ele>
        <time>2026-02-02T10:33:08Z</time>
      </trkpt>
      <trkpt lat="45.95177" lon="6.55505">
        <ele>2493.1</ele>
        <time>2026-02-02T10:33:09Z</time>
      </trkpt>
      <trkpt lat="45.95177" lon="6.55505">
        <ele>2493.1</ele>
        <time>2026-02-02T10:33:10Z</time>
      </trkpt>
      <trkpt lat="45.95176" lon="6.55506">
        <ele>2493.1</ele>
        <time>2026-02-02T10:33:11Z</time>
      </trkpt>
      <trkpt lat="45.95177" lon="6.55506">
        <ele>2493.1</ele>
        <time>2026-02-02T10:33:12Z</time>
      </trkpt>
      <trkpt lat="45.95177" lon="6.55506">
        <ele>2493.1</ele>
        <time>2026-02-02T10:33:13Z</time>
      </trkpt>
      <trkpt lat="45.95177" lon="6.55506">
        <ele>2493.1</ele>
        <time>2026-02-02T10:33:14Z</time>
      </trkpt>
      <trkpt lat="45.95177" lon="6.55506">
        <ele>2493.1</ele>
        <time>2026-02-02T10:33:15Z</time>
      </trkpt>
      <trkpt lat="45.95177" lon="6.55506">
        <ele>2493.1</ele>
        <time>2026-02-02T10:33:16Z</time>
      </trkpt>
      <trkpt lat="45.95177" lon="6.55506">
        <ele>2493.1</ele>
        <time>2026-02-02T10:33:17Z</time>
      </trkpt>
      <trkpt lat="45.95177" lon="6.55505">
        <ele>2493.1</ele>
        <time>2026-02-02T10:33:18Z</time>
      </trkpt>
      <trkpt lat="45.95177" lon="6.55505">
        <ele>2493.1</ele>
        <time>2026-02-02T10:33:19Z</time>
      </trkpt>
      <trkpt lat="45.95177" lon="6.55505">
        <ele>2493.1</ele>
        <time>2026-02-02T10:33:20Z</time>
      </trkpt>
      <trkpt lat="45.95177" lon="6.55505">
        <ele>2493.1</ele>
        <time>2026-02-02T10:33:21Z</time>
      </trkpt>
      <trkpt lat="45.95177" lon="6.55504">
        <ele>2493.1</ele>
        <time>2026-02-02T10:33:22Z</time>
      </trkpt>
      <trkpt lat="45.95178" lon="6.55504">
        <ele>2493.1</ele>
        <time>2026-02-02T10:33:23Z</time>
      </trkpt>
      <trkpt lat="45.95177" lon="6.55504">
        <ele>2493.1</ele>
        <time>2026-02-02T10:33:24Z</time>
      </trkpt>
      <trkpt lat="45.95177" lon="6.55504">
        <ele>2493.1</ele>
        <time>2026-02-02T10:33:25Z</time>
      </trkpt>
      <trkpt lat="45.95177" lon="6.55504">
        <ele>2493.1</ele>
        <time>2026-02-02T10:33:26Z</time>
      </trkpt>
      <trkpt lat="45.95177" lon="6.55504">
        <ele>2493.1</ele>
        <time>2026-02-02T10:33:27Z</time>
      </trkpt>
      <trkpt lat="45.95177" lon="6.55504">
        <ele>2493.1</ele>
        <time>2026-02-02T10:33:28Z</time>
      </trkpt>
      <trkpt lat="45.95177" lon="6.55504">
        <ele>2493.1</ele>
        <time>2026-02-02T10:33:29Z</time>
      </trkpt>
      <trkpt lat="45.95177" lon="6.55504">
        <ele>2493.1</ele>
        <time>2026-02-02T10:33:30Z</time>
      </trkpt>
      <trkpt lat="45.95177" lon="6.55504">
        <ele>2493.1</ele>
        <time>2026-02-02T10:33:31Z</time>
      </trkpt>
      <trkpt lat="45.95177" lon="6.55504">
        <ele>2493.1</ele>
        <time>2026-02-02T10:33:32Z</time>
      </trkpt>
      <trkpt lat="45.95177" lon="6.55504">
        <ele>2493.1</ele>
        <time>2026-02-02T10:33:33Z</time>
      </trkpt>
      <trkpt lat="45.95177" lon="6.55504">
        <ele>2493.1</ele>
        <time>2026-02-02T10:33:34Z</time>
      </trkpt>
      <trkpt lat="45.95177" lon="6.55504">
        <ele>2493.1</ele>
        <time>2026-02-02T10:33:35Z</time>
      </trkpt>
      <trkpt lat="45.95177" lon="6.55505">
        <ele>2493.1</ele>
        <time>2026-02-02T10:33:36Z</time>
      </trkpt>
      <trkpt lat="45.95177" lon="6.55505">
        <ele>2493.1</ele>
        <time>2026-02-02T10:33:37Z</time>
      </trkpt>
      <trkpt lat="45.95177" lon="6.55505">
        <ele>2493.1</ele>
        <time>2026-02-02T10:33:38Z</time>
      </trkpt>
      <trkpt lat="45.95177" lon="6.55505">
        <ele>2493.1</ele>
        <time>2026-02-02T10:33:39Z</time>
      </trkpt>
      <trkpt lat="45.95178" lon="6.55505">
        <ele>2493.1</ele>
        <time>2026-02-02T10:33:40Z</time>
      </trkpt>
      <trkpt lat="45.95177" lon="6.55505">
        <ele>2493.1</ele>
        <time>2026-02-02T10:33:41Z</time>
      </trkpt>
      <trkpt lat="45.95177" lon="6.55505">
        <ele>2493.1</ele>
        <time>2026-02-02T10:33:42Z</time>
      </trkpt>
      <trkpt lat="45.95177" lon="6.55505">
        <ele>2493.1</ele>
        <time>2026-02-02T10:33:43Z</time>
      </trkpt>
      <trkpt lat="45.95177" lon="6.55505">
        <ele>2493.1</ele>
        <time>2026-02-02T10:33:44Z</time>
      </trkpt>
      <trkpt lat="45.95177" lon="6.55505">
        <ele>2493.1</ele>
        <time>2026-02-02T10:33:45Z</time>
      </trkpt>
      <trkpt lat="45.95177" lon="6.55505">
        <ele>2493.1</ele>
        <time>2026-02-02T10:33:46Z</time>
      </trkpt>
      <trkpt lat="45.95177" lon="6.55505">
        <ele>2493.1</ele>
        <time>2026-02-02T10:33:47Z</time>
      </trkpt>
      <trkpt lat="45.95177" lon="6.55505">
        <ele>2493.1</ele>
        <time>2026-02-02T10:33:48Z</time>
      </trkpt>
      <trkpt lat="45.95178" lon="6.55505">
        <ele>2493.1</ele>
        <time>2026-02-02T10:33:49Z</time>
      </trkpt>
      <trkpt lat="45.95178" lon="6.55505">
        <ele>2493.1</ele>
        <time>2026-02-02T10:33:50Z</time>
      </trkpt>
      <trkpt lat="45.95178" lon="6.55505">
        <ele>2493.1</ele>
        <time>2026-02-02T10:33:51Z</time>
      </trkpt>
      <trkpt lat="45.95178" lon="6.55505">
        <ele>2493.1</ele>
        <time>2026-02-02T10:33:52Z</time>
      </trkpt>
      <trkpt lat="45.95178" lon="6.55505">
        <ele>2493.1</ele>
        <time>2026-02-02T10:33:53Z</time>
      </trkpt>
      <trkpt lat="45.95178" lon="6.55505">
        <ele>2493.1</ele>
        <time>2026-02-02T10:33:54Z</time>
      </trkpt>
      <trkpt lat="45.95178" lon="6.55505">
        <ele>2493.1</ele>
        <time>2026-02-02T10:33:55Z</time>
      </trkpt>
      <trkpt lat="45.95178" lon="6.55505">
        <ele>2493.1</ele>
        <time>2026-02-02T10:33:56Z</time>
      </trkpt>
      <trkpt lat="45.95178" lon="6.55505">
        <ele>2493.1</ele>
        <time>2026-02-02T10:33:57Z</time>
      </trkpt>
      <trkpt lat="45.95178" lon="6.55505">
        <ele>2493.1</ele>
        <time>2026-02-02T10:33:58Z</time>
      </trkpt>
      <trkpt lat="45.95178" lon="6.55505">
        <ele>2493.1</ele>
        <time>2026-02-02T10:33:59Z</time>
      </trkpt>
      <trkpt lat="45.95178" lon="6.55505">
        <ele>2493.1</ele>
        <time>2026-02-02T10:34:00Z</time>
      </trkpt>
      <trkpt lat="45.95178" lon="6.55505">
        <ele>2493.1</ele>
        <time>2026-02-02T10:34:01Z</time>
      </trkpt>
      <trkpt lat="45.95178" lon="6.55505">
        <ele>2493.1</ele>
        <time>2026-02-02T10:34:02Z</time>
      </trkpt>
      <trkpt lat="45.95178" lon="6.55505">
        <ele>2493.1</ele>
        <time>2026-02-02T10:34:03Z</time>
      </trkpt>
      <trkpt lat="45.95178" lon="6.55505">
        <ele>2493.1</ele>
        <time>2026-02-02T10:34:04Z</time>
      </trkpt>
      <trkpt lat="45.95178" lon="6.55505">
        <ele>2493.1</ele>
        <time>2026-02-02T10:34:05Z</time>
      </trkpt>
      <trkpt lat="45.95177" lon="6.55505">
        <ele>2493.1</ele>
        <time>2026-02-02T10:34:06Z</time>
      </trkpt>
      <trkpt lat="45.95177" lon="6.55506">
        <ele>2493.1</ele>
        <time>2026-02-02T10:34:07Z</time>
      </trkpt>
      <trkpt lat="45.95177" lon="6.55506">
        <ele>2493.1</ele>
        <time>2026-02-02T10:34:08Z</time>
      </trkpt>
      <trkpt lat="45.95177" lon="6.55506">
        <ele>2493.1</ele>
        <time>2026-02-02T10:34:09Z</time>
      </trkpt>
      <trkpt lat="45.95177" lon="6.55506">
        <ele>2493.1</ele>
        <time>2026-02-02T10:34:10Z</time>
      </trkpt>
      <trkpt lat="45.95177" lon="6.55506">
        <ele>2493.1</ele>
        <time>2026-02-02T10:34:11Z</time>
      </trkpt>
      <trkpt lat="45.95177" lon="6.55506">
        <ele>2493.1</ele>
        <time>2026-02-02T10:34:12Z</time>
      </trkpt>
      <trkpt lat="45.95177" lon="6.55505">
        <ele>2493.1</ele>
        <time>2026-02-02T10:34:13Z</time>
      </trkpt>
      <trkpt lat="45.95177" lon="6.55506">
        <ele>2493.1</ele>
        <time>2026-02-02T10:34:14Z</time>
      </trkpt>
      <trkpt lat="45.95177" lon="6.55506">
        <ele>2493.1</ele>
        <time>2026-02-02T10:34:15Z</time>
      </trkpt>
      <trkpt lat="45.95177" lon="6.55506">
        <ele>2493.1</ele>
        <time>2026-02-02T10:34:16Z</time>
      </trkpt>
      <trkpt lat="45.95177" lon="6.55505">
        <ele>2493.1</ele>
        <time>2026-02-02T10:34:17Z</time>
      </trkpt>
      <trkpt lat="45.95177" lon="6.55505">
        <ele>2493.1</ele>
        <time>2026-02-02T10:34:18Z</time>
      </trkpt>
      <trkpt lat="45.95177" lon="6.55506">
        <ele>2493.1</ele>
        <time>2026-02-02T10:34:19Z</time>
      </trkpt>
      <trkpt lat="45.95177" lon="6.55506">
        <ele>2493.1</ele>
        <time>2026-02-02T10:34:20Z</time>
      </trkpt>
      <trkpt lat="45.95177" lon="6.55505">
        <ele>2493.1</ele>
        <time>2026-02-02T10:34:21Z</time>
      </trkpt>
      <trkpt lat="45.95177" lon="6.55505">
        <ele>2493.1</ele>
        <time>2026-02-02T10:34:22Z</time>
      </trkpt>
      <trkpt lat="45.95177" lon="6.55505">
        <ele>2493.1</ele>
        <time>2026-02-02T10:34:23Z</time>
      </trkpt>
      <trkpt lat="45.95177" lon="6.55505">
        <ele>2493.1</ele>
        <time>2026-02-02T10:34:24Z</time>
      </trkpt>
      <trkpt lat="45.95177" lon="6.55505">
        <ele>2493.1</ele>
        <time>2026-02-02T10:34:25Z</time>
      </trkpt>
      <trkpt lat="45.95177" lon="6.55505">
        <ele>2493.1</ele>
        <time>2026-02-02T10:34:26Z</time>
      </trkpt>
      <trkpt lat="45.95177" lon="6.55505">
        <ele>2493.1</ele>
        <time>2026-02-02T10:34:27Z</time>
      </trkpt>
      <trkpt lat="45.95177" lon="6.55505">
        <ele>2493.1</ele>
        <time>2026-02-02T10:34:28Z</time>
      </trkpt>
      <trkpt lat="45.95177" lon="6.55505">
        <ele>2493.1</ele>
        <time>2026-02-02T10:34:29Z</time>
      </trkpt>
      <trkpt lat="45.95177" lon="6.55505">
        <ele>2493.1</ele>
        <time>2026-02-02T10:34:30Z</time>
      </trkpt>
      <trkpt lat="45.95177" lon="6.55505">
        <ele>2493.1</ele>
        <time>2026-02-02T10:34:31Z</time>
      </trkpt>
      <trkpt lat="45.95177" lon="6.55505">
        <ele>2493.1</ele>
        <time>2026-02-02T10:34:32Z</time>
      </trkpt>
      <trkpt lat="45.95177" lon="6.55505">
        <ele>2493.1</ele>
        <time>2026-02-02T10:34:33Z</time>
      </trkpt>
      <trkpt lat="45.95177" lon="6.55505">
        <ele>2493.1</ele>
        <time>2026-02-02T10:34:34Z</time>
      </trkpt>
      <trkpt lat="45.95177" lon="6.55505">
        <ele>2493.1</ele>
        <time>2026-02-02T10:34:35Z</time>
      </trkpt>
      <trkpt lat="45.95177" lon="6.55505">
        <ele>2493.1</ele>
        <time>2026-02-02T10:34:36Z</time>
      </trkpt>
      <trkpt lat="45.95177" lon="6.55505">
        <ele>2493.1</ele>
        <time>2026-02-02T10:34:37Z</time>
      </trkpt>
      <trkpt lat="45.95178" lon="6.55505">
        <ele>2493.1</ele>
        <time>2026-02-02T10:34:38Z</time>
      </trkpt>
      <trkpt lat="45.95178" lon="6.55505">
        <ele>2493.1</ele>
        <time>2026-02-02T10:34:39Z</time>
      </trkpt>
      <trkpt lat="45.95177" lon="6.55505">
        <ele>2493.1</ele>
        <time>2026-02-02T10:34:40Z</time>
      </trkpt>
      <trkpt lat="45.95177" lon="6.55505">
        <ele>2493.1</ele>
        <time>2026-02-02T10:34:41Z</time>
      </trkpt>
      <trkpt lat="45.95177" lon="6.55505">
        <ele>2493.1</ele>
        <time>2026-02-02T10:34:42Z</time>
      </trkpt>
      <trkpt lat="45.95177" lon="6.55505">
        <ele>2493.1</ele>
        <time>2026-02-02T10:34:43Z</time>
      </trkpt>
      <trkpt lat="45.95177" lon="6.55505">
        <ele>2493.1</ele>
        <time>2026-02-02T10:34:44Z</time>
      </trkpt>
      <trkpt lat="45.95177" lon="6.55505">
        <ele>2493.1</ele>
        <time>2026-02-02T10:34:45Z</time>
      </trkpt>
      <trkpt lat="45.95177" lon="6.55505">
        <ele>2493.1</ele>
        <time>2026-02-02T10:34:46Z</time>
      </trkpt>
      <trkpt lat="45.95176" lon="6.55505">
        <ele>2493.1</ele>
        <time>2026-02-02T10:34:47Z</time>
      </trkpt>
      <trkpt lat="45.95177" lon="6.55504">
        <ele>2493.1</ele>
        <time>2026-02-02T10:34:48Z</time>
      </trkpt>
      <trkpt lat="45.95177" lon="6.55504">
        <ele>2493.1</ele>
        <time>2026-02-02T10:34:49Z</time>
      </trkpt>
      <trkpt lat="45.95177" lon="6.55505">
        <ele>2493.1</ele>
        <time>2026-02-02T10:34:50Z</time>
      </trkpt>
      <trkpt lat="45.95177" lon="6.55504">
        <ele>2493.1</ele>
        <time>2026-02-02T10:34:51Z</time>
      </trkpt>
      <trkpt lat="45.95177" lon="6.55504">
        <ele>2493.1</ele>
        <time>2026-02-02T10:34:52Z</time>
      </trkpt>
      <trkpt lat="45.95177" lon="6.55503">
        <ele>2493.1</ele>
        <time>2026-02-02T10:34:53Z</time>
      </trkpt>
      <trkpt lat="45.95177" lon="6.55503">
        <ele>2493.1</ele>
        <time>2026-02-02T10:34:54Z</time>
      </trkpt>
      <trkpt lat="45.95177" lon="6.55503">
        <ele>2493.1</ele>
        <time>2026-02-02T10:34:55Z</time>
      </trkpt>
      <trkpt lat="45.95177" lon="6.55503">
        <ele>2493.1</ele>
        <time>2026-02-02T10:34:56Z</time>
      </trkpt>
      <trkpt lat="45.95177" lon="6.55503">
        <ele>2493.1</ele>
        <time>2026-02-02T10:34:57Z</time>
      </trkpt>
      <trkpt lat="45.95177" lon="6.55503">
        <ele>2493.1</ele>
        <time>2026-02-02T10:34:58Z</time>
      </trkpt>
      <trkpt lat="45.95177" lon="6.55503">
        <ele>2493.1</ele>
        <time>2026-02-02T10:34:59Z</time>
      </trkpt>
      <trkpt lat="45.95177" lon="6.55503">
        <ele>2493.1</ele>
        <time>2026-02-02T10:35:00Z</time>
      </trkpt>
      <trkpt lat="45.95177" lon="6.55503">
        <ele>2493.1</ele>
        <time>2026-02-02T10:35:01Z</time>
      </trkpt>
      <trkpt lat="45.95178" lon="6.55504">
        <ele>2493.1</ele>
        <time>2026-02-02T10:35:02Z</time>
      </trkpt>
      <trkpt lat="45.95177" lon="6.55503">
        <ele>2493.1</ele>
        <time>2026-02-02T10:35:03Z</time>
      </trkpt>
      <trkpt lat="45.95177" lon="6.55503">
        <ele>2493.1</ele>
        <time>2026-02-02T10:35:04Z</time>
      </trkpt>
      <trkpt lat="45.95177" lon="6.55503">
        <ele>2493.1</ele>
        <time>2026-02-02T10:35:05Z</time>
      </trkpt>
      <trkpt lat="45.95177" lon="6.55503">
        <ele>2493.1</ele>
        <time>2026-02-02T10:35:06Z</time>
      </trkpt>
      <trkpt lat="45.95177" lon="6.55503">
        <ele>2493.1</ele>
        <time>2026-02-02T10:35:07Z</time>
      </trkpt>
      <trkpt lat="45.95177" lon="6.55503">
        <ele>2493.1</ele>
        <time>2026-02-02T10:35:08Z</time>
      </trkpt>
      <trkpt lat="45.95177" lon="6.55503">
        <ele>2493.1</ele>
        <time>2026-02-02T10:35:09Z</time>
      </trkpt>
      <trkpt lat="45.95177" lon="6.55503">
        <ele>2493.1</ele>
        <time>2026-02-02T10:35:10Z</time>
      </trkpt>
      <trkpt lat="45.95177" lon="6.55503">
        <ele>2493.1</ele>
        <time>2026-02-02T10:35:12Z</time>
      </trkpt>
      <trkpt lat="45.95177" lon="6.55503">
        <ele>2493.1</ele>
        <time>2026-02-02T10:35:13Z</time>
      </trkpt>
      <trkpt lat="45.95177" lon="6.55504">
        <ele>2493.1</ele>
        <time>2026-02-02T10:35:14Z</time>
      </trkpt>
      <trkpt lat="45.95177" lon="6.55505">
        <ele>2493.1</ele>
        <time>2026-02-02T10:35:15Z</time>
      </trkpt>
      <trkpt lat="45.95177" lon="6.55504">
        <ele>2493.1</ele>
        <time>2026-02-02T10:35:16Z</time>
      </trkpt>
      <trkpt lat="45.95177" lon="6.55504">
        <ele>2493.1</ele>
        <time>2026-02-02T10:35:17Z</time>
      </trkpt>
      <trkpt lat="45.95177" lon="6.55504">
        <ele>2493.1</ele>
        <time>2026-02-02T10:35:18Z</time>
      </trkpt>
      <trkpt lat="45.95177" lon="6.55504">
        <ele>2493.1</ele>
        <time>2026-02-02T10:35:19Z</time>
      </trkpt>
      <trkpt lat="45.95177" lon="6.55505">
        <ele>2493.1</ele>
        <time>2026-02-02T10:35:20Z</time>
      </trkpt>
      <trkpt lat="45.95177" lon="6.55505">
        <ele>2493.1</ele>
        <time>2026-02-02T10:35:21Z</time>
      </trkpt>
      <trkpt lat="45.95177" lon="6.55505">
        <ele>2493.1</ele>
        <time>2026-02-02T10:35:22Z</time>
      </trkpt>
      <trkpt lat="45.95177" lon="6.55505">
        <ele>2493.1</ele>
        <time>2026-02-02T10:35:23Z</time>
      </trkpt>
      <trkpt lat="45.95177" lon="6.55506">
        <ele>2493.1</ele>
        <time>2026-02-02T10:35:24Z</time>
      </trkpt>
      <trkpt lat="45.95177" lon="6.55506">
        <ele>2493.1</ele>
        <time>2026-02-02T10:35:25Z</time>
      </trkpt>
      <trkpt lat="45.95177" lon="6.55506">
        <ele>2493.1</ele>
        <time>2026-02-02T10:35:26Z</time>
      </trkpt>
      <trkpt lat="45.95177" lon="6.55505">
        <ele>2493.1</ele>
        <time>2026-02-02T10:35:27Z</time>
      </trkpt>
      <trkpt lat="45.95177" lon="6.55505">
        <ele>2493.1</ele>
        <time>2026-02-02T10:35:28Z</time>
      </trkpt>
      <trkpt lat="45.95177" lon="6.55505">
        <ele>2493.1</ele>
        <time>2026-02-02T10:35:29Z</time>
      </trkpt>
      <trkpt lat="45.95177" lon="6.55505">
        <ele>2493.1</ele>
        <time>2026-02-02T10:35:30Z</time>
      </trkpt>
      <trkpt lat="45.95177" lon="6.55505">
        <ele>2493.1</ele>
        <time>2026-02-02T10:35:31Z</time>
      </trkpt>
      <trkpt lat="45.95177" lon="6.55505">
        <ele>2493.1</ele>
        <time>2026-02-02T10:35:32Z</time>
      </trkpt>
      <trkpt lat="45.95177" lon="6.55505">
        <ele>2493.1</ele>
        <time>2026-02-02T10:35:33Z</time>
      </trkpt>
      <trkpt lat="45.95177" lon="6.55505">
        <ele>2493.1</ele>
        <time>2026-02-02T10:35:34Z</time>
      </trkpt>
      <trkpt lat="45.95177" lon="6.55505">
        <ele>2493.1</ele>
        <time>2026-02-02T10:35:35Z</time>
      </trkpt>
      <trkpt lat="45.95178" lon="6.55505">
        <ele>2493.1</ele>
        <time>2026-02-02T10:35:36Z</time>
      </trkpt>
      <trkpt lat="45.95177" lon="6.55504">
        <ele>2493.1</ele>
        <time>2026-02-02T10:35:37Z</time>
      </trkpt>
      <trkpt lat="45.95177" lon="6.55504">
        <ele>2493.1</ele>
        <time>2026-02-02T10:35:38Z</time>
      </trkpt>
      <trkpt lat="45.95177" lon="6.55504">
        <ele>2493.1</ele>
        <time>2026-02-02T10:35:39Z</time>
      </trkpt>
      <trkpt lat="45.95177" lon="6.55504">
        <ele>2493.1</ele>
        <time>2026-02-02T10:35:40Z</time>
      </trkpt>
      <trkpt lat="45.95177" lon="6.55504">
        <ele>2493.1</ele>
        <time>2026-02-02T10:35:41Z</time>
      </trkpt>
      <trkpt lat="45.95177" lon="6.55504">
        <ele>2493.1</ele>
        <time>2026-02-02T10:35:42Z</time>
      </trkpt>
      <trkpt lat="45.95177" lon="6.55504">
        <ele>2493.1</ele>
        <time>2026-02-02T10:35:44Z</time>
      </trkpt>
      <trkpt lat="45.95177" lon="6.55504">
        <ele>2493.1</ele>
        <time>2026-02-02T10:35:45Z</time>
      </trkpt>
      <trkpt lat="45.95177" lon="6.55504">
        <ele>2493.1</ele>
        <time>2026-02-02T10:35:46Z</time>
      </trkpt>
      <trkpt lat="45.95177" lon="6.55504">
        <ele>2493.1</ele>
        <time>2026-02-02T10:35:47Z</time>
      </trkpt>
      <trkpt lat="45.95177" lon="6.55504">
        <ele>2493.1</ele>
        <time>2026-02-02T10:35:48Z</time>
      </trkpt>
      <trkpt lat="45.95177" lon="6.55504">
        <ele>2493.1</ele>
        <time>2026-02-02T10:35:49Z</time>
      </trkpt>
      <trkpt lat="45.95177" lon="6.55504">
        <ele>2493.1</ele>
        <time>2026-02-02T10:35:50Z</time>
      </trkpt>
      <trkpt lat="45.95177" lon="6.55504">
        <ele>2493.1</ele>
        <time>2026-02-02T10:35:51Z</time>
      </trkpt>
      <trkpt lat="45.95177" lon="6.55504">
        <ele>2493.1</ele>
        <time>2026-02-02T10:35:52Z</time>
      </trkpt>
      <trkpt lat="45.95177" lon="6.55504">
        <ele>2493.1</ele>
        <time>2026-02-02T10:35:53Z</time>
      </trkpt>
      <trkpt lat="45.95177" lon="6.55504">
        <ele>2493.1</ele>
        <time>2026-02-02T10:35:54Z</time>
      </trkpt>
      <trkpt lat="45.95177" lon="6.55504">
        <ele>2493.1</ele>
        <time>2026-02-02T10:35:55Z</time>
      </trkpt>
      <trkpt lat="45.95177" lon="6.55504">
        <ele>2493.1</ele>
        <time>2026-02-02T10:35:56Z</time>
      </trkpt>
      <trkpt lat="45.95177" lon="6.55504">
        <ele>2493.1</ele>
        <time>2026-02-02T10:35:57Z</time>
      </trkpt>
      <trkpt lat="45.95177" lon="6.55504">
        <ele>2493.1</ele>
        <time>2026-02-02T10:35:58Z</time>
      </trkpt>
      <trkpt lat="45.95177" lon="6.55504">
        <ele>2493.1</ele>
        <time>2026-02-02T10:35:59Z</time>
      </trkpt>
      <trkpt lat="45.95177" lon="6.55504">
        <ele>2493.1</ele>
        <time>2026-02-02T10:36:00Z</time>
      </trkpt>
      <trkpt lat="45.95177" lon="6.55504">
        <ele>2493.1</ele>
        <time>2026-02-02T10:36:01Z</time>
      </trkpt>
      <trkpt lat="45.95177" lon="6.55504">
        <ele>2493.1</ele>
        <time>2026-02-02T10:36:02Z</time>
      </trkpt>
      <trkpt lat="45.95177" lon="6.55504">
        <ele>2493.1</ele>
        <time>2026-02-02T10:36:03Z</time>
      </trkpt>
      <trkpt lat="45.95177" lon="6.55504">
        <ele>2493.1</ele>
        <time>2026-02-02T10:36:04Z</time>
      </trkpt>
      <trkpt lat="45.95177" lon="6.55504">
        <ele>2493.1</ele>
        <time>2026-02-02T10:36:05Z</time>
      </trkpt>
      <trkpt lat="45.95177" lon="6.55504">
        <ele>2493.1</ele>
        <time>2026-02-02T10:36:06Z</time>
      </trkpt>
      <trkpt lat="45.95177" lon="6.55504">
        <ele>2493.1</ele>
        <time>2026-02-02T10:36:07Z</time>
      </trkpt>
      <trkpt lat="45.95177" lon="6.55504">
        <ele>2493.1</ele>
        <time>2026-02-02T10:36:08Z</time>
      </trkpt>
      <trkpt lat="45.95177" lon="6.55504">
        <ele>2493.1</ele>
        <time>2026-02-02T10:36:09Z</time>
      </trkpt>
      <trkpt lat="45.95177" lon="6.55504">
        <ele>2493.1</ele>
        <time>2026-02-02T10:36:10Z</time>
      </trkpt>
      <trkpt lat="45.95177" lon="6.55505">
        <ele>2493.1</ele>
        <time>2026-02-02T10:36:11Z</time>
      </trkpt>
      <trkpt lat="45.95177" lon="6.55505">
        <ele>2493.1</ele>
        <time>2026-02-02T10:36:12Z</time>
      </trkpt>
      <trkpt lat="45.95177" lon="6.55505">
        <ele>2493.1</ele>
        <time>2026-02-02T10:36:13Z</time>
      </trkpt>
      <trkpt lat="45.95177" lon="6.55505">
        <ele>2493.1</ele>
        <time>2026-02-02T10:36:14Z</time>
      </trkpt>
      <trkpt lat="45.95177" lon="6.55505">
        <ele>2493.1</ele>
        <time>2026-02-02T10:36:15Z</time>
      </trkpt>
      <trkpt lat="45.95177" lon="6.55505">
        <ele>2493.1</ele>
        <time>2026-02-02T10:36:17Z</time>
      </trkpt>
      <trkpt lat="45.95177" lon="6.55505">
        <ele>2493.1</ele>
        <time>2026-02-02T10:36:18Z</time>
      </trkpt>
      <trkpt lat="45.95176" lon="6.55506">
        <ele>2493.1</ele>
        <time>2026-02-02T10:36:19Z</time>
      </trkpt>
      <trkpt lat="45.95176" lon="6.55506">
        <ele>2493.1</ele>
        <time>2026-02-02T10:36:20Z</time>
      </trkpt>
      <trkpt lat="45.95176" lon="6.55505">
        <ele>2493.1</ele>
        <time>2026-02-02T10:36:21Z</time>
      </trkpt>
      <trkpt lat="45.95176" lon="6.55505">
        <ele>2493.1</ele>
        <time>2026-02-02T10:36:22Z</time>
      </trkpt>
      <trkpt lat="45.95176" lon="6.55505">
        <ele>2493.1</ele>
        <time>2026-02-02T10:36:23Z</time>
      </trkpt>
      <trkpt lat="45.95176" lon="6.55505">
        <ele>2493.1</ele>
        <time>2026-02-02T10:36:24Z</time>
      </trkpt>
      <trkpt lat="45.95176" lon="6.55505">
        <ele>2493.1</ele>
        <time>2026-02-02T10:36:25Z</time>
      </trkpt>
      <trkpt lat="45.95176" lon="6.55505">
        <ele>2493.1</ele>
        <time>2026-02-02T10:36:26Z</time>
      </trkpt>
      <trkpt lat="45.95176" lon="6.55504">
        <ele>2493.1</ele>
        <time>2026-02-02T10:36:27Z</time>
      </trkpt>
      <trkpt lat="45.95176" lon="6.55504">
        <ele>2493.1</ele>
        <time>2026-02-02T10:36:28Z</time>
      </trkpt>
      <trkpt lat="45.95176" lon="6.55504">
        <ele>2493.1</ele>
        <time>2026-02-02T10:36:29Z</time>
      </trkpt>
      <trkpt lat="45.95176" lon="6.55504">
        <ele>2493.1</ele>
        <time>2026-02-02T10:36:30Z</time>
      </trkpt>
      <trkpt lat="45.95176" lon="6.55504">
        <ele>2493.1</ele>
        <time>2026-02-02T10:36:31Z</time>
      </trkpt>
      <trkpt lat="45.95176" lon="6.55504">
        <ele>2493.1</ele>
        <time>2026-02-02T10:36:32Z</time>
      </trkpt>
      <trkpt lat="45.95176" lon="6.55503">
        <ele>2493.1</ele>
        <time>2026-02-02T10:36:33Z</time>
      </trkpt>
      <trkpt lat="45.95176" lon="6.55503">
        <ele>2493.1</ele>
        <time>2026-02-02T10:36:34Z</time>
      </trkpt>
      <trkpt lat="45.95175" lon="6.55503">
        <ele>2493.1</ele>
        <time>2026-02-02T10:36:35Z</time>
      </trkpt>
      <trkpt lat="45.95176" lon="6.55503">
        <ele>2493.1</ele>
        <time>2026-02-02T10:36:36Z</time>
      </trkpt>
      <trkpt lat="45.95176" lon="6.55503">
        <ele>2493.1</ele>
        <time>2026-02-02T10:36:37Z</time>
      </trkpt>
      <trkpt lat="45.95176" lon="6.55504">
        <ele>2493.1</ele>
        <time>2026-02-02T10:36:38Z</time>
      </trkpt>
      <trkpt lat="45.95176" lon="6.55503">
        <ele>2493.1</ele>
        <time>2026-02-02T10:36:39Z</time>
      </trkpt>
      <trkpt lat="45.95176" lon="6.55504">
        <ele>2493.1</ele>
        <time>2026-02-02T10:36:40Z</time>
      </trkpt>
      <trkpt lat="45.95176" lon="6.55504">
        <ele>2493.1</ele>
        <time>2026-02-02T10:36:41Z</time>
      </trkpt>
      <trkpt lat="45.95176" lon="6.55504">
        <ele>2493.1</ele>
        <time>2026-02-02T10:36:42Z</time>
      </trkpt>
      <trkpt lat="45.95176" lon="6.55504">
        <ele>2493.1</ele>
        <time>2026-02-02T10:36:43Z</time>
      </trkpt>
      <trkpt lat="45.95176" lon="6.55504">
        <ele>2493.1</ele>
        <time>2026-02-02T10:36:44Z</time>
      </trkpt>
      <trkpt lat="45.95176" lon="6.55504">
        <ele>2493.1</ele>
        <time>2026-02-02T10:36:45Z</time>
      </trkpt>
      <trkpt lat="45.95176" lon="6.55504">
        <ele>2493.1</ele>
        <time>2026-02-02T10:36:46Z</time>
      </trkpt>
      <trkpt lat="45.95176" lon="6.55504">
        <ele>2493.1</ele>
        <time>2026-02-02T10:36:47Z</time>
      </trkpt>
      <trkpt lat="45.95176" lon="6.55504">
        <ele>2493.1</ele>
        <time>2026-02-02T10:36:48Z</time>
      </trkpt>
      <trkpt lat="45.95176" lon="6.55504">
        <ele>2493.1</ele>
        <time>2026-02-02T10:36:49Z</time>
      </trkpt>
      <trkpt lat="45.95176" lon="6.55504">
        <ele>2493.1</ele>
        <time>2026-02-02T10:36:51Z</time>
      </trkpt>
      <trkpt lat="45.95176" lon="6.55504">
        <ele>2493.1</ele>
        <time>2026-02-02T10:36:52Z</time>
      </trkpt>
      <trkpt lat="45.95176" lon="6.55504">
        <ele>2493.1</ele>
        <time>2026-02-02T10:36:53Z</time>
      </trkpt>
      <trkpt lat="45.95176" lon="6.55504">
        <ele>2493.1</ele>
        <time>2026-02-02T10:36:54Z</time>
      </trkpt>
      <trkpt lat="45.95176" lon="6.55504">
        <ele>2493.1</ele>
        <time>2026-02-02T10:36:55Z</time>
      </trkpt>
      <trkpt lat="45.95176" lon="6.55504">
        <ele>2493.1</ele>
        <time>2026-02-02T10:36:56Z</time>
      </trkpt>
      <trkpt lat="45.95176" lon="6.55503">
        <ele>2493.1</ele>
        <time>2026-02-02T10:36:57Z</time>
      </trkpt>
      <trkpt lat="45.95176" lon="6.55503">
        <ele>2493.1</ele>
        <time>2026-02-02T10:36:58Z</time>
      </trkpt>
      <trkpt lat="45.95176" lon="6.55503">
        <ele>2493.1</ele>
        <time>2026-02-02T10:36:59Z</time>
      </trkpt>
      <trkpt lat="45.95176" lon="6.55503">
        <ele>2493.1</ele>
        <time>2026-02-02T10:37:00Z</time>
      </trkpt>
      <trkpt lat="45.95176" lon="6.55502">
        <ele>2493.1</ele>
        <time>2026-02-02T10:37:01Z</time>
      </trkpt>
      <trkpt lat="45.95176" lon="6.55502">
        <ele>2493.1</ele>
        <time>2026-02-02T10:37:02Z</time>
      </trkpt>
      <trkpt lat="45.95176" lon="6.55502">
        <ele>2493.1</ele>
        <time>2026-02-02T10:37:03Z</time>
      </trkpt>
      <trkpt lat="45.95176" lon="6.55501">
        <ele>2493</ele>
        <time>2026-02-02T10:37:04Z</time>
      </trkpt>
      <trkpt lat="45.95176" lon="6.55501">
        <ele>2493</ele>
        <time>2026-02-02T10:37:05Z</time>
      </trkpt>
      <trkpt lat="45.95177" lon="6.555">
        <ele>2493</ele>
        <time>2026-02-02T10:37:06Z</time>
      </trkpt>
      <trkpt lat="45.95177" lon="6.555">
        <ele>2493</ele>
        <time>2026-02-02T10:37:07Z</time>
      </trkpt>
      <trkpt lat="45.95177" lon="6.555">
        <ele>2493</ele>
        <time>2026-02-02T10:37:08Z</time>
      </trkpt>
      <trkpt lat="45.95177" lon="6.55499">
        <ele>2493</ele>
        <time>2026-02-02T10:37:09Z</time>
      </trkpt>
      <trkpt lat="45.95176" lon="6.55499">
        <ele>2493</ele>
        <time>2026-02-02T10:37:10Z</time>
      </trkpt>
      <trkpt lat="45.95176" lon="6.55499">
        <ele>2493</ele>
        <time>2026-02-02T10:37:11Z</time>
      </trkpt>
      <trkpt lat="45.95176" lon="6.55499">
        <ele>2493</ele>
        <time>2026-02-02T10:37:12Z</time>
      </trkpt>
      <trkpt lat="45.95176" lon="6.55499">
        <ele>2493</ele>
        <time>2026-02-02T10:37:13Z</time>
      </trkpt>
      <trkpt lat="45.95175" lon="6.55499">
        <ele>2493</ele>
        <time>2026-02-02T10:37:14Z</time>
      </trkpt>
      <trkpt lat="45.95174" lon="6.55499">
        <ele>2492.9</ele>
        <time>2026-02-02T10:37:15Z</time>
      </trkpt>
      <trkpt lat="45.95174" lon="6.55498">
        <ele>2492.9</ele>
        <time>2026-02-02T10:37:16Z</time>
      </trkpt>
      <trkpt lat="45.95173" lon="6.55498">
        <ele>2492.7</ele>
        <time>2026-02-02T10:37:17Z</time>
      </trkpt>
      <trkpt lat="45.95173" lon="6.55497">
        <ele>2492.7</ele>
        <time>2026-02-02T10:37:18Z</time>
      </trkpt>
      <trkpt lat="45.95172" lon="6.55497">
        <ele>2492.7</ele>
        <time>2026-02-02T10:37:19Z</time>
      </trkpt>
      <trkpt lat="45.95171" lon="6.55496">
        <ele>2492.7</ele>
        <time>2026-02-02T10:37:20Z</time>
      </trkpt>
      <trkpt lat="45.95171" lon="6.55495">
        <ele>2492.7</ele>
        <time>2026-02-02T10:37:21Z</time>
      </trkpt>
      <trkpt lat="45.9517" lon="6.55495">
        <ele>2492.7</ele>
        <time>2026-02-02T10:37:22Z</time>
      </trkpt>
      <trkpt lat="45.9517" lon="6.55495">
        <ele>2492.7</ele>
        <time>2026-02-02T10:37:23Z</time>
      </trkpt>
      <trkpt lat="45.9517" lon="6.55495">
        <ele>2492.7</ele>
        <time>2026-02-02T10:37:24Z</time>
      </trkpt>
      <trkpt lat="45.9517" lon="6.55495">
        <ele>2492.7</ele>
        <time>2026-02-02T10:37:25Z</time>
      </trkpt>
      <trkpt lat="45.95171" lon="6.55495">
        <ele>2492.7</ele>
        <time>2026-02-02T10:37:26Z</time>
      </trkpt>
      <trkpt lat="45.95171" lon="6.55494">
        <ele>2492.7</ele>
        <time>2026-02-02T10:37:27Z</time>
      </trkpt>
      <trkpt lat="45.9517" lon="6.55494">
        <ele>2492.7</ele>
        <time>2026-02-02T10:37:28Z</time>
      </trkpt>
      <trkpt lat="45.9517" lon="6.55493">
        <ele>2492.4</ele>
        <time>2026-02-02T10:37:29Z</time>
      </trkpt>
      <trkpt lat="45.9517" lon="6.55492">
        <ele>2492.4</ele>
        <time>2026-02-02T10:37:30Z</time>
      </trkpt>
      <trkpt lat="45.95169" lon="6.55491">
        <ele>2492.4</ele>
        <time>2026-02-02T10:37:31Z</time>
      </trkpt>
      <trkpt lat="45.95169" lon="6.55491">
        <ele>2492.4</ele>
        <time>2026-02-02T10:37:32Z</time>
      </trkpt>
      <trkpt lat="45.95169" lon="6.55491">
        <ele>2492.4</ele>
        <time>2026-02-02T10:37:33Z</time>
      </trkpt>
      <trkpt lat="45.95169" lon="6.55491">
        <ele>2492.4</ele>
        <time>2026-02-02T10:37:34Z</time>
      </trkpt>
      <trkpt lat="45.95169" lon="6.55491">
        <ele>2492.4</ele>
        <time>2026-02-02T10:37:35Z</time>
      </trkpt>
      <trkpt lat="45.95169" lon="6.55491">
        <ele>2492.4</ele>
        <time>2026-02-02T10:37:36Z</time>
      </trkpt>
      <trkpt lat="45.95169" lon="6.55491">
        <ele>2492.4</ele>
        <time>2026-02-02T10:37:37Z</time>
      </trkpt>
      <trkpt lat="45.95168" lon="6.55491">
        <ele>2492.5</ele>
        <time>2026-02-02T10:37:38Z</time>
      </trkpt>
      <trkpt lat="45.95168" lon="6.55491">
        <ele>2492.5</ele>
        <time>2026-02-02T10:37:39Z</time>
      </trkpt>
      <trkpt lat="45.95168" lon="6.55491">
        <ele>2492.5</ele>
        <time>2026-02-02T10:37:40Z</time>
      </trkpt>
      <trkpt lat="45.95167" lon="6.55491">
        <ele>2492.5</ele>
        <time>2026-02-02T10:37:41Z</time>
      </trkpt>
      <trkpt lat="45.95167" lon="6.55491">
        <ele>2492.5</ele>
        <time>2026-02-02T10:37:42Z</time>
      </trkpt>
      <trkpt lat="45.95166" lon="6.55491">
        <ele>2492.5</ele>
        <time>2026-02-02T10:37:43Z</time>
      </trkpt>
      <trkpt lat="45.95166" lon="6.55491">
        <ele>2492.5</ele>
        <time>2026-02-02T10:37:44Z</time>
      </trkpt>
      <trkpt lat="45.95166" lon="6.55491">
        <ele>2492.5</ele>
        <time>2026-02-02T10:37:45Z</time>
      </trkpt>
      <trkpt lat="45.95166" lon="6.55491">
        <ele>2492.5</ele>
        <time>2026-02-02T10:37:46Z</time>
      </trkpt>
      <trkpt lat="45.95166" lon="6.5549">
        <ele>2492.5</ele>
        <time>2026-02-02T10:37:47Z</time>
      </trkpt>
      <trkpt lat="45.95166" lon="6.5549">
        <ele>2492.5</ele>
        <time>2026-02-02T10:37:48Z</time>
      </trkpt>
      <trkpt lat="45.95166" lon="6.5549">
        <ele>2492.5</ele>
        <time>2026-02-02T10:37:49Z</time>
      </trkpt>
      <trkpt lat="45.95166" lon="6.5549">
        <ele>2492.5</ele>
        <time>2026-02-02T10:37:50Z</time>
      </trkpt>
      <trkpt lat="45.95166" lon="6.5549">
        <ele>2492.5</ele>
        <time>2026-02-02T10:37:51Z</time>
      </trkpt>
      <trkpt lat="45.95166" lon="6.5549">
        <ele>2492.5</ele>
        <time>2026-02-02T10:37:52Z</time>
      </trkpt>
      <trkpt lat="45.95166" lon="6.5549">
        <ele>2492.5</ele>
        <time>2026-02-02T10:37:53Z</time>
      </trkpt>
      <trkpt lat="45.95167" lon="6.5549">
        <ele>2492.5</ele>
        <time>2026-02-02T10:37:55Z</time>
      </trkpt>
      <trkpt lat="45.95167" lon="6.5549">
        <ele>2492.5</ele>
        <time>2026-02-02T10:37:56Z</time>
      </trkpt>
      <trkpt lat="45.95167" lon="6.5549">
        <ele>2492.5</ele>
        <time>2026-02-02T10:37:57Z</time>
      </trkpt>
      <trkpt lat="45.95167" lon="6.55489">
        <ele>2492.5</ele>
        <time>2026-02-02T10:37:58Z</time>
      </trkpt>
      <trkpt lat="45.95167" lon="6.55489">
        <ele>2492.5</ele>
        <time>2026-02-02T10:37:59Z</time>
      </trkpt>
      <trkpt lat="45.95167" lon="6.55489">
        <ele>2492.2</ele>
        <time>2026-02-02T10:38:00Z</time>
      </trkpt>
      <trkpt lat="45.95167" lon="6.55488">
        <ele>2492.2</ele>
        <time>2026-02-02T10:38:01Z</time>
      </trkpt>
      <trkpt lat="45.95166" lon="6.55487">
        <ele>2492.2</ele>
        <time>2026-02-02T10:38:02Z</time>
      </trkpt>
      <trkpt lat="45.95166" lon="6.55487">
        <ele>2492.2</ele>
        <time>2026-02-02T10:38:03Z</time>
      </trkpt>
      <trkpt lat="45.95167" lon="6.55487">
        <ele>2492.2</ele>
        <time>2026-02-02T10:38:04Z</time>
      </trkpt>
      <trkpt lat="45.95167" lon="6.55487">
        <ele>2492.2</ele>
        <time>2026-02-02T10:38:06Z</time>
      </trkpt>
      <trkpt lat="45.95167" lon="6.55487">
        <ele>2492.2</ele>
        <time>2026-02-02T10:38:07Z</time>
      </trkpt>
      <trkpt lat="45.95167" lon="6.55487">
        <ele>2492.2</ele>
        <time>2026-02-02T10:38:08Z</time>
      </trkpt>
      <trkpt lat="45.95167" lon="6.55487">
        <ele>2492.2</ele>
        <time>2026-02-02T10:38:09Z</time>
      </trkpt>
      <trkpt lat="45.95167" lon="6.55486">
        <ele>2492.2</ele>
        <time>2026-02-02T10:38:10Z</time>
      </trkpt>
      <trkpt lat="45.95167" lon="6.55486">
        <ele>2492.2</ele>
        <time>2026-02-02T10:38:11Z</time>
      </trkpt>
      <trkpt lat="45.95167" lon="6.55485">
        <ele>2492.2</ele>
        <time>2026-02-02T10:38:12Z</time>
      </trkpt>
      <trkpt lat="45.95167" lon="6.55485">
        <ele>2492.2</ele>
        <time>2026-02-02T10:38:13Z</time>
      </trkpt>
      <trkpt lat="45.95166" lon="6.55483">
        <ele>2491.8</ele>
        <time>2026-02-02T10:38:14Z</time>
      </trkpt>
      <trkpt lat="45.95166" lon="6.55483">
        <ele>2491.8</ele>
        <time>2026-02-02T10:38:15Z</time>
      </trkpt>
      <trkpt lat="45.95166" lon="6.55482">
        <ele>2491.8</ele>
        <time>2026-02-02T10:38:16Z</time>
      </trkpt>
      <trkpt lat="45.95166" lon="6.55481">
        <ele>2491.8</ele>
        <time>2026-02-02T10:38:17Z</time>
      </trkpt>
      <trkpt lat="45.95168" lon="6.55481">
        <ele>2491.8</ele>
        <time>2026-02-02T10:38:18Z</time>
      </trkpt>
      <trkpt lat="45.95169" lon="6.55481">
        <ele>2491.8</ele>
        <time>2026-02-02T10:38:19Z</time>
      </trkpt>
      <trkpt lat="45.95169" lon="6.55481">
        <ele>2491.8</ele>
        <time>2026-02-02T10:38:20Z</time>
      </trkpt>
      <trkpt lat="45.95169" lon="6.55481">
        <ele>2491.8</ele>
        <time>2026-02-02T10:38:21Z</time>
      </trkpt>
      <trkpt lat="45.95169" lon="6.5548">
        <ele>2491.1</ele>
        <time>2026-02-02T10:38:22Z</time>
      </trkpt>
      <trkpt lat="45.95169" lon="6.5548">
        <ele>2491.1</ele>
        <time>2026-02-02T10:38:23Z</time>
      </trkpt>
      <trkpt lat="45.95169" lon="6.55478">
        <ele>2491.1</ele>
        <time>2026-02-02T10:38:24Z</time>
      </trkpt>
      <trkpt lat="45.9517" lon="6.55478">
        <ele>2491.1</ele>
        <time>2026-02-02T10:38:25Z</time>
      </trkpt>
      <trkpt lat="45.9517" lon="6.55478">
        <ele>2491.1</ele>
        <time>2026-02-02T10:38:26Z</time>
      </trkpt>
      <trkpt lat="45.95171" lon="6.55477">
        <ele>2491.1</ele>
        <time>2026-02-02T10:38:27Z</time>
      </trkpt>
      <trkpt lat="45.95171" lon="6.55477">
        <ele>2491.1</ele>
        <time>2026-02-02T10:38:28Z</time>
      </trkpt>
      <trkpt lat="45.95171" lon="6.55477">
        <ele>2491.1</ele>
        <time>2026-02-02T10:38:29Z</time>
      </trkpt>
      <trkpt lat="45.95171" lon="6.55477">
        <ele>2491.1</ele>
        <time>2026-02-02T10:38:30Z</time>
      </trkpt>
      <trkpt lat="45.95171" lon="6.55476">
        <ele>2490.5</ele>
        <time>2026-02-02T10:38:31Z</time>
      </trkpt>
      <trkpt lat="45.95172" lon="6.55476">
        <ele>2490.2</ele>
        <time>2026-02-02T10:38:32Z</time>
      </trkpt>
      <trkpt lat="45.95173" lon="6.55476">
        <ele>2490.9</ele>
        <time>2026-02-02T10:38:33Z</time>
      </trkpt>
      <trkpt lat="45.95173" lon="6.55476">
        <ele>2490.2</ele>
        <time>2026-02-02T10:38:34Z</time>
      </trkpt>
      <trkpt lat="45.95173" lon="6.55476">
        <ele>2490.2</ele>
        <time>2026-02-02T10:38:35Z</time>
      </trkpt>
      <trkpt lat="45.95173" lon="6.55476">
        <ele>2490.2</ele>
        <time>2026-02-02T10:38:36Z</time>
      </trkpt>
      <trkpt lat="45.95172" lon="6.55476">
        <ele>2490.2</ele>
        <time>2026-02-02T10:38:37Z</time>
      </trkpt>
      <trkpt lat="45.95173" lon="6.55475">
        <ele>2490.2</ele>
        <time>2026-02-02T10:38:38Z</time>
      </trkpt>
      <trkpt lat="45.95173" lon="6.55474">
        <ele>2490.2</ele>
        <time>2026-02-02T10:38:39Z</time>
      </trkpt>
      <trkpt lat="45.95174" lon="6.55473">
        <ele>2490.2</ele>
        <time>2026-02-02T10:38:40Z</time>
      </trkpt>
      <trkpt lat="45.95174" lon="6.55473">
        <ele>2490.2</ele>
        <time>2026-02-02T10:38:41Z</time>
      </trkpt>
      <trkpt lat="45.95173" lon="6.55471">
        <ele>2489.4</ele>
        <time>2026-02-02T10:38:42Z</time>
      </trkpt>
      <trkpt lat="45.95172" lon="6.5547">
        <ele>2489.8</ele>
        <time>2026-02-02T10:38:43Z</time>
      </trkpt>
      <trkpt lat="45.9517" lon="6.55469">
        <ele>2489.8</ele>
        <time>2026-02-02T10:38:44Z</time>
      </trkpt>
      <trkpt lat="45.9517" lon="6.55468">
        <ele>2489.8</ele>
        <time>2026-02-02T10:38:45Z</time>
      </trkpt>
      <trkpt lat="45.9517" lon="6.55466">
        <ele>2488.9</ele>
        <time>2026-02-02T10:38:46Z</time>
      </trkpt>
      <trkpt lat="45.9517" lon="6.55466">
        <ele>2488.9</ele>
        <time>2026-02-02T10:38:47Z</time>
      </trkpt>
      <trkpt lat="45.95171" lon="6.55466">
        <ele>2488.9</ele>
        <time>2026-02-02T10:38:48Z</time>
      </trkpt>
      <trkpt lat="45.95171" lon="6.55466">
        <ele>2488.9</ele>
        <time>2026-02-02T10:38:49Z</time>
      </trkpt>
      <trkpt lat="45.95172" lon="6.55465">
        <ele>2488.9</ele>
        <time>2026-02-02T10:38:50Z</time>
      </trkpt>
      <trkpt lat="45.9517" lon="6.55462">
        <ele>2488</ele>
        <time>2026-02-02T10:38:51Z</time>
      </trkpt>
      <trkpt lat="45.95168" lon="6.55459">
        <ele>2487.6</ele>
        <time>2026-02-02T10:38:52Z</time>
      </trkpt>
      <trkpt lat="45.95167" lon="6.55458">
        <ele>2487.6</ele>
        <time>2026-02-02T10:38:53Z</time>
      </trkpt>
      <trkpt lat="45.95167" lon="6.55456">
        <ele>2487.6</ele>
        <time>2026-02-02T10:38:54Z</time>
      </trkpt>
      <trkpt lat="45.95166" lon="6.55455">
        <ele>2487.6</ele>
        <time>2026-02-02T10:38:55Z</time>
      </trkpt>
      <trkpt lat="45.95166" lon="6.55456">
        <ele>2487.6</ele>
        <time>2026-02-02T10:38:56Z</time>
      </trkpt>
      <trkpt lat="45.95166" lon="6.55454">
        <ele>2487.1</ele>
        <time>2026-02-02T10:38:57Z</time>
      </trkpt>
      <trkpt lat="45.95167" lon="6.5545">
        <ele>2485.4</ele>
        <time>2026-02-02T10:38:58Z</time>
      </trkpt>
      <trkpt lat="45.95169" lon="6.55449">
        <ele>2484.8</ele>
        <time>2026-02-02T10:38:59Z</time>
      </trkpt>
      <trkpt lat="45.95171" lon="6.55451">
        <ele>2486</ele>
        <time>2026-02-02T10:39:00Z</time>
      </trkpt>
      <trkpt lat="45.95171" lon="6.55452">
        <ele>2486</ele>
        <time>2026-02-02T10:39:01Z</time>
      </trkpt>
      <trkpt lat="45.95171" lon="6.55453">
        <ele>2486</ele>
        <time>2026-02-02T10:39:02Z</time>
      </trkpt>
      <trkpt lat="45.95171" lon="6.55453">
        <ele>2486</ele>
        <time>2026-02-02T10:39:03Z</time>
      </trkpt>
      <trkpt lat="45.95171" lon="6.55453">
        <ele>2486</ele>
        <time>2026-02-02T10:39:04Z</time>
      </trkpt>
      <trkpt lat="45.95171" lon="6.55453">
        <ele>2486</ele>
        <time>2026-02-02T10:39:05Z</time>
      </trkpt>
      <trkpt lat="45.95171" lon="6.55453">
        <ele>2486</ele>
        <time>2026-02-02T10:39:06Z</time>
      </trkpt>
      <trkpt lat="45.95171" lon="6.55453">
        <ele>2486</ele>
        <time>2026-02-02T10:39:07Z</time>
      </trkpt>
      <trkpt lat="45.95171" lon="6.55453">
        <ele>2486</ele>
        <time>2026-02-02T10:39:08Z</time>
      </trkpt>
      <trkpt lat="45.95171" lon="6.55453">
        <ele>2486</ele>
        <time>2026-02-02T10:39:09Z</time>
      </trkpt>
      <trkpt lat="45.95172" lon="6.55452">
        <ele>2486</ele>
        <time>2026-02-02T10:39:10Z</time>
      </trkpt>
      <trkpt lat="45.95172" lon="6.55451">
        <ele>2485.4</ele>
        <time>2026-02-02T10:39:11Z</time>
      </trkpt>
      <trkpt lat="45.95174" lon="6.5545">
        <ele>2484.2</ele>
        <time>2026-02-02T10:39:12Z</time>
      </trkpt>
      <trkpt lat="45.95174" lon="6.55449">
        <ele>2484.2</ele>
        <time>2026-02-02T10:39:13Z</time>
      </trkpt>
      <trkpt lat="45.95173" lon="6.55448">
        <ele>2484.2</ele>
        <time>2026-02-02T10:39:14Z</time>
      </trkpt>
      <trkpt lat="45.95172" lon="6.55446">
        <ele>2484.2</ele>
        <time>2026-02-02T10:39:15Z</time>
      </trkpt>
      <trkpt lat="45.95172" lon="6.55445">
        <ele>2483.6</ele>
        <time>2026-02-02T10:39:16Z</time>
      </trkpt>
      <trkpt lat="45.95169" lon="6.55444">
        <ele>2483.6</ele>
        <time>2026-02-02T10:39:17Z</time>
      </trkpt>
      <trkpt lat="45.95169" lon="6.55442">
        <ele>2483.6</ele>
        <time>2026-02-02T10:39:18Z</time>
      </trkpt>
      <trkpt lat="45.9517" lon="6.55439">
        <ele>2482.2</ele>
        <time>2026-02-02T10:39:19Z</time>
      </trkpt>
      <trkpt lat="45.95171" lon="6.55437">
        <ele>2480.8</ele>
        <time>2026-02-02T10:39:20Z</time>
      </trkpt>
      <trkpt lat="45.95172" lon="6.55437">
        <ele>2480.1</ele>
        <time>2026-02-02T10:39:21Z</time>
      </trkpt>
      <trkpt lat="45.95174" lon="6.55437">
        <ele>2480.1</ele>
        <time>2026-02-02T10:39:22Z</time>
      </trkpt>
      <trkpt lat="45.95174" lon="6.55436">
        <ele>2480.1</ele>
        <time>2026-02-02T10:39:23Z</time>
      </trkpt>
      <trkpt lat="45.95174" lon="6.55436">
        <ele>2480.1</ele>
        <time>2026-02-02T10:39:24Z</time>
      </trkpt>
      <trkpt lat="45.95175" lon="6.55436">
        <ele>2480.1</ele>
        <time>2026-02-02T10:39:25Z</time>
      </trkpt>
      <trkpt lat="45.95175" lon="6.55436">
        <ele>2480.1</ele>
        <time>2026-02-02T10:39:26Z</time>
      </trkpt>
      <trkpt lat="45.95175" lon="6.55437">
        <ele>2480.1</ele>
        <time>2026-02-02T10:39:27Z</time>
      </trkpt>
      <trkpt lat="45.95176" lon="6.55437">
        <ele>2479.4</ele>
        <time>2026-02-02T10:39:28Z</time>
      </trkpt>
      <trkpt lat="45.95177" lon="6.55436">
        <ele>2479.4</ele>
        <time>2026-02-02T10:39:29Z</time>
      </trkpt>
      <trkpt lat="45.9518" lon="6.55436">
        <ele>2478.8</ele>
        <time>2026-02-02T10:39:30Z</time>
      </trkpt>
      <trkpt lat="45.95183" lon="6.55435">
        <ele>2478.2</ele>
        <time>2026-02-02T10:39:31Z</time>
      </trkpt>
      <trkpt lat="45.95186" lon="6.55434">
        <ele>2477.6</ele>
        <time>2026-02-02T10:39:32Z</time>
      </trkpt>
      <trkpt lat="45.9519" lon="6.55432">
        <ele>2475.1</ele>
        <time>2026-02-02T10:39:33Z</time>
      </trkpt>
      <trkpt lat="45.95191" lon="6.55431">
        <ele>2475.1</ele>
        <time>2026-02-02T10:39:34Z</time>
      </trkpt>
      <trkpt lat="45.95196" lon="6.55428">
        <ele>2472.8</ele>
        <time>2026-02-02T10:39:35Z</time>
      </trkpt>
      <trkpt lat="45.95202" lon="6.55425">
        <ele>2472.5</ele>
        <time>2026-02-02T10:39:36Z</time>
      </trkpt>
      <trkpt lat="45.95207" lon="6.55422">
        <ele>2470.4</ele>
        <time>2026-02-02T10:39:37Z</time>
      </trkpt>
      <trkpt lat="45.95211" lon="6.55419">
        <ele>2468.2</ele>
        <time>2026-02-02T10:39:38Z</time>
      </trkpt>
      <trkpt lat="45.95216" lon="6.55416">
        <ele>2468.2</ele>
        <time>2026-02-02T10:39:39Z</time>
      </trkpt>
      <trkpt lat="45.9522" lon="6.55415">
        <ele>2466.5</ele>
        <time>2026-02-02T10:39:40Z</time>
      </trkpt>
      <trkpt lat="45.95224" lon="6.55413">
        <ele>2466.8</ele>
        <time>2026-02-02T10:39:41Z</time>
      </trkpt>
      <trkpt lat="45.95229" lon="6.55411">
        <ele>2465.5</ele>
        <time>2026-02-02T10:39:42Z</time>
      </trkpt>
      <trkpt lat="45.95233" lon="6.55408">
        <ele>2466.1</ele>
        <time>2026-02-02T10:39:43Z</time>
      </trkpt>
      <trkpt lat="45.95238" lon="6.55406">
        <ele>2465.3</ele>
        <time>2026-02-02T10:39:44Z</time>
      </trkpt>
      <trkpt lat="45.95242" lon="6.55403">
        <ele>2466.1</ele>
        <time>2026-02-02T10:39:45Z</time>
      </trkpt>
      <trkpt lat="45.95246" lon="6.554">
        <ele>2464.9</ele>
        <time>2026-02-02T10:39:46Z</time>
      </trkpt>
      <trkpt lat="45.95249" lon="6.55397">
        <ele>2464.8</ele>
        <time>2026-02-02T10:39:47Z</time>
      </trkpt>
      <trkpt lat="45.95253" lon="6.55395">
        <ele>2465.9</ele>
        <time>2026-02-02T10:39:48Z</time>
      </trkpt>
      <trkpt lat="45.95254" lon="6.55393">
        <ele>2463.4</ele>
        <time>2026-02-02T10:39:49Z</time>
      </trkpt>
      <trkpt lat="45.95254" lon="6.55392">
        <ele>2463.4</ele>
        <time>2026-02-02T10:39:50Z</time>
      </trkpt>
      <trkpt lat="45.95251" lon="6.5539">
        <ele>2459.5</ele>
        <time>2026-02-02T10:39:51Z</time>
      </trkpt>
      <trkpt lat="45.95247" lon="6.5539">
        <ele>2458.3</ele>
        <time>2026-02-02T10:39:52Z</time>
      </trkpt>
      <trkpt lat="45.95244" lon="6.55389">
        <ele>2457.3</ele>
        <time>2026-02-02T10:39:53Z</time>
      </trkpt>
      <trkpt lat="45.95241" lon="6.55389">
        <ele>2456.3</ele>
        <time>2026-02-02T10:39:54Z</time>
      </trkpt>
      <trkpt lat="45.95238" lon="6.55388">
        <ele>2455.4</ele>
        <time>2026-02-02T10:39:55Z</time>
      </trkpt>
      <trkpt lat="45.95234" lon="6.55386">
        <ele>2451.1</ele>
        <time>2026-02-02T10:39:56Z</time>
      </trkpt>
      <trkpt lat="45.9523" lon="6.55384">
        <ele>2450.7</ele>
        <time>2026-02-02T10:39:57Z</time>
      </trkpt>
      <trkpt lat="45.95225" lon="6.55382">
        <ele>2449.9</ele>
        <time>2026-02-02T10:39:58Z</time>
      </trkpt>
      <trkpt lat="45.9522" lon="6.55381">
        <ele>2446.7</ele>
        <time>2026-02-02T10:39:59Z</time>
      </trkpt>
      <trkpt lat="45.95215" lon="6.55379">
        <ele>2446.6</ele>
        <time>2026-02-02T10:40:00Z</time>
      </trkpt>
      <trkpt lat="45.95211" lon="6.55377">
        <ele>2443.7</ele>
        <time>2026-02-02T10:40:01Z</time>
      </trkpt>
      <trkpt lat="45.95207" lon="6.55375">
        <ele>2444.3</ele>
        <time>2026-02-02T10:40:02Z</time>
      </trkpt>
      <trkpt lat="45.95205" lon="6.55373">
        <ele>2441.4</ele>
        <time>2026-02-02T10:40:03Z</time>
      </trkpt>
      <trkpt lat="45.95202" lon="6.55371">
        <ele>2441.8</ele>
        <time>2026-02-02T10:40:04Z</time>
      </trkpt>
      <trkpt lat="45.95199" lon="6.5537">
        <ele>2442.3</ele>
        <time>2026-02-02T10:40:05Z</time>
      </trkpt>
      <trkpt lat="45.95194" lon="6.55368">
        <ele>2440.6</ele>
        <time>2026-02-02T10:40:06Z</time>
      </trkpt>
      <trkpt lat="45.9519" lon="6.55365">
        <ele>2438.4</ele>
        <time>2026-02-02T10:40:07Z</time>
      </trkpt>
      <trkpt lat="45.95187" lon="6.55361">
        <ele>2439.3</ele>
        <time>2026-02-02T10:40:08Z</time>
      </trkpt>
      <trkpt lat="45.95183" lon="6.55358">
        <ele>2438.5</ele>
        <time>2026-02-02T10:40:09Z</time>
      </trkpt>
      <trkpt lat="45.95181" lon="6.55354">
        <ele>2435.5</ele>
        <time>2026-02-02T10:40:10Z</time>
      </trkpt>
      <trkpt lat="45.95183" lon="6.55348">
        <ele>2432.4</ele>
        <time>2026-02-02T10:40:11Z</time>
      </trkpt>
      <trkpt lat="45.95187" lon="6.55344">
        <ele>2427</ele>
        <time>2026-02-02T10:40:12Z</time>
      </trkpt>
      <trkpt lat="45.95188" lon="6.55338">
        <ele>2420.4</ele>
        <time>2026-02-02T10:40:13Z</time>
      </trkpt>
      <trkpt lat="45.95184" lon="6.55335">
        <ele>2421.5</ele>
        <time>2026-02-02T10:40:14Z</time>
      </trkpt>
      <trkpt lat="45.95182" lon="6.55335">
        <ele>2422.8</ele>
        <time>2026-02-02T10:40:15Z</time>
      </trkpt>
      <trkpt lat="45.95182" lon="6.55334">
        <ele>2419.6</ele>
        <time>2026-02-02T10:40:16Z</time>
      </trkpt>
      <trkpt lat="45.95183" lon="6.55334">
        <ele>2419.6</ele>
        <time>2026-02-02T10:40:17Z</time>
      </trkpt>
      <trkpt lat="45.95183" lon="6.55334">
        <ele>2419.6</ele>
        <time>2026-02-02T10:40:18Z</time>
      </trkpt>
      <trkpt lat="45.95183" lon="6.55334">
        <ele>2419.6</ele>
        <time>2026-02-02T10:40:19Z</time>
      </trkpt>
      <trkpt lat="45.95183" lon="6.55334">
        <ele>2419.6</ele>
        <time>2026-02-02T10:40:20Z</time>
      </trkpt>
      <trkpt lat="45.95183" lon="6.55334">
        <ele>2419.6</ele>
        <time>2026-02-02T10:40:21Z</time>
      </trkpt>
      <trkpt lat="45.95183" lon="6.55334">
        <ele>2419.6</ele>
        <time>2026-02-02T10:40:22Z</time>
      </trkpt>
      <trkpt lat="45.95183" lon="6.55334">
        <ele>2419.6</ele>
        <time>2026-02-02T10:40:23Z</time>
      </trkpt>
      <trkpt lat="45.95184" lon="6.55334">
        <ele>2418.3</ele>
        <time>2026-02-02T10:40:24Z</time>
      </trkpt>
      <trkpt lat="45.95184" lon="6.55334">
        <ele>2418.3</ele>
        <time>2026-02-02T10:40:25Z</time>
      </trkpt>
      <trkpt lat="45.95185" lon="6.55331">
        <ele>2418.3</ele>
        <time>2026-02-02T10:40:26Z</time>
      </trkpt>
      <trkpt lat="45.95187" lon="6.55327">
        <ele>2414</ele>
        <time>2026-02-02T10:40:27Z</time>
      </trkpt>
      <trkpt lat="45.95188" lon="6.55322">
        <ele>2411.2</ele>
        <time>2026-02-02T10:40:28Z</time>
      </trkpt>
      <trkpt lat="45.95185" lon="6.55318">
        <ele>2409.9</ele>
        <time>2026-02-02T10:40:29Z</time>
      </trkpt>
      <trkpt lat="45.95181" lon="6.55314">
        <ele>2409</ele>
        <time>2026-02-02T10:40:30Z</time>
      </trkpt>
      <trkpt lat="45.9518" lon="6.5531">
        <ele>2408.4</ele>
        <time>2026-02-02T10:40:31Z</time>
      </trkpt>
      <trkpt lat="45.95182" lon="6.55306">
        <ele>2405</ele>
        <time>2026-02-02T10:40:32Z</time>
      </trkpt>
      <trkpt lat="45.95186" lon="6.55306">
        <ele>2403.6</ele>
        <time>2026-02-02T10:40:33Z</time>
      </trkpt>
      <trkpt lat="45.95191" lon="6.55305">
        <ele>2401.1</ele>
        <time>2026-02-02T10:40:34Z</time>
      </trkpt>
      <trkpt lat="45.95197" lon="6.55303">
        <ele>2397.2</ele>
        <time>2026-02-02T10:40:35Z</time>
      </trkpt>
      <trkpt lat="45.95203" lon="6.55301">
        <ele>2395.7</ele>
        <time>2026-02-02T10:40:36Z</time>
      </trkpt>
      <trkpt lat="45.95209" lon="6.55298">
        <ele>2392.8</ele>
        <time>2026-02-02T10:40:37Z</time>
      </trkpt>
      <trkpt lat="45.95215" lon="6.55294">
        <ele>2390.3</ele>
        <time>2026-02-02T10:40:38Z</time>
      </trkpt>
      <trkpt lat="45.95221" lon="6.5529">
        <ele>2388</ele>
        <time>2026-02-02T10:40:39Z</time>
      </trkpt>
      <trkpt lat="45.95228" lon="6.55283">
        <ele>2385.9</ele>
        <time>2026-02-02T10:40:40Z</time>
      </trkpt>
      <trkpt lat="45.95234" lon="6.55276">
        <ele>2382.4</ele>
        <time>2026-02-02T10:40:41Z</time>
      </trkpt>
      <trkpt lat="45.95239" lon="6.55269">
        <ele>2379.4</ele>
        <time>2026-02-02T10:40:42Z</time>
      </trkpt>
      <trkpt lat="45.95243" lon="6.55265">
        <ele>2378</ele>
        <time>2026-02-02T10:40:43Z</time>
      </trkpt>
      <trkpt lat="45.95247" lon="6.55262">
        <ele>2378.2</ele>
        <time>2026-02-02T10:40:44Z</time>
      </trkpt>
      <trkpt lat="45.9525" lon="6.55257">
        <ele>2375.4</ele>
        <time>2026-02-02T10:40:45Z</time>
      </trkpt>
      <trkpt lat="45.95254" lon="6.55254">
        <ele>2375.8</ele>
        <time>2026-02-02T10:40:46Z</time>
      </trkpt>
      <trkpt lat="45.95254" lon="6.55254">
        <ele>2375.8</ele>
        <time>2026-02-02T10:40:47Z</time>
      </trkpt>
      <trkpt lat="45.95254" lon="6.55253">
        <ele>2375.8</ele>
        <time>2026-02-02T10:40:48Z</time>
      </trkpt>
      <trkpt lat="45.95253" lon="6.55253">
        <ele>2374.1</ele>
        <time>2026-02-02T10:40:49Z</time>
      </trkpt>
      <trkpt lat="45.95252" lon="6.55252">
        <ele>2373.8</ele>
        <time>2026-02-02T10:40:50Z</time>
      </trkpt>
      <trkpt lat="45.95251" lon="6.55251">
        <ele>2373.8</ele>
        <time>2026-02-02T10:40:51Z</time>
      </trkpt>
      <trkpt lat="45.95251" lon="6.5525">
        <ele>2373.8</ele>
        <time>2026-02-02T10:40:52Z</time>
      </trkpt>
      <trkpt lat="45.9525" lon="6.5525">
        <ele>2373.8</ele>
        <time>2026-02-02T10:40:53Z</time>
      </trkpt>
      <trkpt lat="45.95249" lon="6.55249">
        <ele>2373.7</ele>
        <time>2026-02-02T10:40:54Z</time>
      </trkpt>
      <trkpt lat="45.95248" lon="6.55248">
        <ele>2372.1</ele>
        <time>2026-02-02T10:40:55Z</time>
      </trkpt>
      <trkpt lat="45.95244" lon="6.55245">
        <ele>2372</ele>
        <time>2026-02-02T10:40:56Z</time>
      </trkpt>
      <trkpt lat="45.95238" lon="6.55243">
        <ele>2370.8</ele>
        <time>2026-02-02T10:40:57Z</time>
      </trkpt>
      <trkpt lat="45.95232" lon="6.55242">
        <ele>2371.3</ele>
        <time>2026-02-02T10:40:58Z</time>
      </trkpt>
      <trkpt lat="45.95225" lon="6.5524">
        <ele>2371.5</ele>
        <time>2026-02-02T10:40:59Z</time>
      </trkpt>
      <trkpt lat="45.95218" lon="6.55238">
        <ele>2373.1</ele>
        <time>2026-02-02T10:41:00Z</time>
      </trkpt>
      <trkpt lat="45.95212" lon="6.55235">
        <ele>2374</ele>
        <time>2026-02-02T10:41:01Z</time>
      </trkpt>
      <trkpt lat="45.95206" lon="6.55231">
        <ele>2375.5</ele>
        <time>2026-02-02T10:41:02Z</time>
      </trkpt>
      <trkpt lat="45.95202" lon="6.55227">
        <ele>2376.3</ele>
        <time>2026-02-02T10:41:03Z</time>
      </trkpt>
      <trkpt lat="45.95198" lon="6.55222">
        <ele>2378.9</ele>
        <time>2026-02-02T10:41:04Z</time>
      </trkpt>
      <trkpt lat="45.95194" lon="6.55217">
        <ele>2380.3</ele>
        <time>2026-02-02T10:41:05Z</time>
      </trkpt>
      <trkpt lat="45.95193" lon="6.55212">
        <ele>2381.7</ele>
        <time>2026-02-02T10:41:06Z</time>
      </trkpt>
      <trkpt lat="45.95191" lon="6.55204">
        <ele>2381.4</ele>
        <time>2026-02-02T10:41:07Z</time>
      </trkpt>
      <trkpt lat="45.95189" lon="6.55198">
        <ele>2383</ele>
        <time>2026-02-02T10:41:08Z</time>
      </trkpt>
      <trkpt lat="45.95187" lon="6.55193">
        <ele>2382.9</ele>
        <time>2026-02-02T10:41:09Z</time>
      </trkpt>
      <trkpt lat="45.95186" lon="6.55187">
        <ele>2384.7</ele>
        <time>2026-02-02T10:41:10Z</time>
      </trkpt>
      <trkpt lat="45.95186" lon="6.55182">
        <ele>2384.7</ele>
        <time>2026-02-02T10:41:11Z</time>
      </trkpt>
      <trkpt lat="45.95189" lon="6.55176">
        <ele>2382.9</ele>
        <time>2026-02-02T10:41:12Z</time>
      </trkpt>
      <trkpt lat="45.95195" lon="6.55174">
        <ele>2379.2</ele>
        <time>2026-02-02T10:41:13Z</time>
      </trkpt>
      <trkpt lat="45.95201" lon="6.55174">
        <ele>2375.3</ele>
        <time>2026-02-02T10:41:14Z</time>
      </trkpt>
      <trkpt lat="45.95205" lon="6.55169">
        <ele>2371.7</ele>
        <time>2026-02-02T10:41:15Z</time>
      </trkpt>
      <trkpt lat="45.95205" lon="6.55157">
        <ele>2371.7</ele>
        <time>2026-02-02T10:41:16Z</time>
      </trkpt>
      <trkpt lat="45.95207" lon="6.55149">
        <ele>2371.9</ele>
        <time>2026-02-02T10:41:17Z</time>
      </trkpt>
      <trkpt lat="45.95209" lon="6.55142">
        <ele>2370.2</ele>
        <time>2026-02-02T10:41:18Z</time>
      </trkpt>
      <trkpt lat="45.95213" lon="6.55142">
        <ele>2368.4</ele>
        <time>2026-02-02T10:41:19Z</time>
      </trkpt>
      <trkpt lat="45.95219" lon="6.55144">
        <ele>2364.6</ele>
        <time>2026-02-02T10:41:20Z</time>
      </trkpt>
      <trkpt lat="45.95224" lon="6.55144">
        <ele>2360.6</ele>
        <time>2026-02-02T10:41:21Z</time>
      </trkpt>
      <trkpt lat="45.95224" lon="6.55136">
        <ele>2360.7</ele>
        <time>2026-02-02T10:41:22Z</time>
      </trkpt>
      <trkpt lat="45.95224" lon="6.55125">
        <ele>2360.8</ele>
        <time>2026-02-02T10:41:23Z</time>
      </trkpt>
      <trkpt lat="45.95223" lon="6.55116">
        <ele>2360.5</ele>
        <time>2026-02-02T10:41:24Z</time>
      </trkpt>
      <trkpt lat="45.95223" lon="6.55107">
        <ele>2360.1</ele>
        <time>2026-02-02T10:41:25Z</time>
      </trkpt>
      <trkpt lat="45.95222" lon="6.551">
        <ele>2362.2</ele>
        <time>2026-02-02T10:41:26Z</time>
      </trkpt>
      <trkpt lat="45.95221" lon="6.55093">
        <ele>2361.6</ele>
        <time>2026-02-02T10:41:27Z</time>
      </trkpt>
      <trkpt lat="45.95219" lon="6.55091">
        <ele>2364.1</ele>
        <time>2026-02-02T10:41:28Z</time>
      </trkpt>
      <trkpt lat="45.9522" lon="6.5509">
        <ele>2361.6</ele>
        <time>2026-02-02T10:41:29Z</time>
      </trkpt>
      <trkpt lat="45.95219" lon="6.5509">
        <ele>2364.1</ele>
        <time>2026-02-02T10:41:30Z</time>
      </trkpt>
      <trkpt lat="45.9522" lon="6.55089">
        <ele>2361.3</ele>
        <time>2026-02-02T10:41:31Z</time>
      </trkpt>
      <trkpt lat="45.9522" lon="6.55089">
        <ele>2361.3</ele>
        <time>2026-02-02T10:41:32Z</time>
      </trkpt>
      <trkpt lat="45.9522" lon="6.55089">
        <ele>2361.3</ele>
        <time>2026-02-02T10:41:33Z</time>
      </trkpt>
      <trkpt lat="45.9522" lon="6.55089">
        <ele>2361.3</ele>
        <time>2026-02-02T10:41:34Z</time>
      </trkpt>
      <trkpt lat="45.9522" lon="6.55089">
        <ele>2361.3</ele>
        <time>2026-02-02T10:41:35Z</time>
      </trkpt>
      <trkpt lat="45.9522" lon="6.55089">
        <ele>2361.3</ele>
        <time>2026-02-02T10:41:36Z</time>
      </trkpt>
      <trkpt lat="45.9522" lon="6.55089">
        <ele>2361.3</ele>
        <time>2026-02-02T10:41:37Z</time>
      </trkpt>
      <trkpt lat="45.9522" lon="6.55089">
        <ele>2361.3</ele>
        <time>2026-02-02T10:41:38Z</time>
      </trkpt>
      <trkpt lat="45.9522" lon="6.55089">
        <ele>2361.3</ele>
        <time>2026-02-02T10:41:39Z</time>
      </trkpt>
      <trkpt lat="45.9522" lon="6.55088">
        <ele>2361.3</ele>
        <time>2026-02-02T10:41:40Z</time>
      </trkpt>
      <trkpt lat="45.95221" lon="6.55088">
        <ele>2361.3</ele>
        <time>2026-02-02T10:41:41Z</time>
      </trkpt>
      <trkpt lat="45.95221" lon="6.55088">
        <ele>2361.3</ele>
        <time>2026-02-02T10:41:42Z</time>
      </trkpt>
      <trkpt lat="45.95221" lon="6.55088">
        <ele>2361.3</ele>
        <time>2026-02-02T10:41:43Z</time>
      </trkpt>
      <trkpt lat="45.95221" lon="6.55088">
        <ele>2361.3</ele>
        <time>2026-02-02T10:41:44Z</time>
      </trkpt>
      <trkpt lat="45.95221" lon="6.55088">
        <ele>2361.3</ele>
        <time>2026-02-02T10:41:45Z</time>
      </trkpt>
      <trkpt lat="45.95221" lon="6.55088">
        <ele>2361.3</ele>
        <time>2026-02-02T10:41:46Z</time>
      </trkpt>
      <trkpt lat="45.95221" lon="6.55088">
        <ele>2361.3</ele>
        <time>2026-02-02T10:41:47Z</time>
      </trkpt>
      <trkpt lat="45.95221" lon="6.55088">
        <ele>2361.3</ele>
        <time>2026-02-02T10:41:48Z</time>
      </trkpt>
      <trkpt lat="45.95221" lon="6.55088">
        <ele>2361.3</ele>
        <time>2026-02-02T10:41:49Z</time>
      </trkpt>
      <trkpt lat="45.95221" lon="6.55087">
        <ele>2361.3</ele>
        <time>2026-02-02T10:41:50Z</time>
      </trkpt>
      <trkpt lat="45.95221" lon="6.55087">
        <ele>2361.3</ele>
        <time>2026-02-02T10:41:51Z</time>
      </trkpt>
      <trkpt lat="45.95222" lon="6.55087">
        <ele>2361.3</ele>
        <time>2026-02-02T10:41:52Z</time>
      </trkpt>
      <trkpt lat="45.95222" lon="6.55087">
        <ele>2361.3</ele>
        <time>2026-02-02T10:41:53Z</time>
      </trkpt>
      <trkpt lat="45.95222" lon="6.55087">
        <ele>2361.3</ele>
        <time>2026-02-02T10:41:54Z</time>
      </trkpt>
      <trkpt lat="45.95221" lon="6.55085">
        <ele>2360.9</ele>
        <time>2026-02-02T10:41:55Z</time>
      </trkpt>
      <trkpt lat="45.95221" lon="6.55085">
        <ele>2360.9</ele>
        <time>2026-02-02T10:41:56Z</time>
      </trkpt>
      <trkpt lat="45.95221" lon="6.55085">
        <ele>2360.9</ele>
        <time>2026-02-02T10:41:57Z</time>
      </trkpt>
      <trkpt lat="45.9522" lon="6.55084">
        <ele>2360.9</ele>
        <time>2026-02-02T10:41:58Z</time>
      </trkpt>
      <trkpt lat="45.9522" lon="6.55084">
        <ele>2360.9</ele>
        <time>2026-02-02T10:41:59Z</time>
      </trkpt>
      <trkpt lat="45.9522" lon="6.55084">
        <ele>2360.9</ele>
        <time>2026-02-02T10:42:00Z</time>
      </trkpt>
      <trkpt lat="45.95219" lon="6.55083">
        <ele>2363.4</ele>
        <time>2026-02-02T10:42:01Z</time>
      </trkpt>
      <trkpt lat="45.95219" lon="6.55083">
        <ele>2363.4</ele>
        <time>2026-02-02T10:42:02Z</time>
      </trkpt>
      <trkpt lat="45.95219" lon="6.55083">
        <ele>2363.4</ele>
        <time>2026-02-02T10:42:03Z</time>
      </trkpt>
      <trkpt lat="45.95218" lon="6.55083">
        <ele>2363.4</ele>
        <time>2026-02-02T10:42:04Z</time>
      </trkpt>
      <trkpt lat="45.95216" lon="6.55084">
        <ele>2365.7</ele>
        <time>2026-02-02T10:42:05Z</time>
      </trkpt>
      <trkpt lat="45.95215" lon="6.55087">
        <ele>2366.1</ele>
        <time>2026-02-02T10:42:06Z</time>
      </trkpt>
      <trkpt lat="45.95215" lon="6.55089">
        <ele>2366.1</ele>
        <time>2026-02-02T10:42:07Z</time>
      </trkpt>
      <trkpt lat="45.95215" lon="6.55089">
        <ele>2366.1</ele>
        <time>2026-02-02T10:42:08Z</time>
      </trkpt>
      <trkpt lat="45.95215" lon="6.55089">
        <ele>2366.1</ele>
        <time>2026-02-02T10:42:09Z</time>
      </trkpt>
      <trkpt lat="45.95215" lon="6.55089">
        <ele>2366.1</ele>
        <time>2026-02-02T10:42:10Z</time>
      </trkpt>
      <trkpt lat="45.95217" lon="6.5509">
        <ele>2363.7</ele>
        <time>2026-02-02T10:42:11Z</time>
      </trkpt>
      <trkpt lat="45.95218" lon="6.5509">
        <ele>2363.7</ele>
        <time>2026-02-02T10:42:12Z</time>
      </trkpt>
      <trkpt lat="45.95219" lon="6.5509">
        <ele>2363.7</ele>
        <time>2026-02-02T10:42:13Z</time>
      </trkpt>
      <trkpt lat="45.95219" lon="6.5509">
        <ele>2363.7</ele>
        <time>2026-02-02T10:42:14Z</time>
      </trkpt>
      <trkpt lat="45.95219" lon="6.5509">
        <ele>2363.7</ele>
        <time>2026-02-02T10:42:15Z</time>
      </trkpt>
      <trkpt lat="45.95219" lon="6.5509">
        <ele>2363.7</ele>
        <time>2026-02-02T10:42:16Z</time>
      </trkpt>
      <trkpt lat="45.95219" lon="6.5509">
        <ele>2363.7</ele>
        <time>2026-02-02T10:42:17Z</time>
      </trkpt>
      <trkpt lat="45.95219" lon="6.5509">
        <ele>2363.7</ele>
        <time>2026-02-02T10:42:18Z</time>
      </trkpt>
      <trkpt lat="45.95219" lon="6.5509">
        <ele>2363.7</ele>
        <time>2026-02-02T10:42:19Z</time>
      </trkpt>
      <trkpt lat="45.95219" lon="6.5509">
        <ele>2363.7</ele>
        <time>2026-02-02T10:42:20Z</time>
      </trkpt>
      <trkpt lat="45.95219" lon="6.5509">
        <ele>2363.7</ele>
        <time>2026-02-02T10:42:21Z</time>
      </trkpt>
      <trkpt lat="45.95219" lon="6.5509">
        <ele>2363.7</ele>
        <time>2026-02-02T10:42:22Z</time>
      </trkpt>
      <trkpt lat="45.95219" lon="6.5509">
        <ele>2363.7</ele>
        <time>2026-02-02T10:42:23Z</time>
      </trkpt>
      <trkpt lat="45.95219" lon="6.5509">
        <ele>2363.7</ele>
        <time>2026-02-02T10:42:24Z</time>
      </trkpt>
      <trkpt lat="45.95219" lon="6.5509">
        <ele>2363.7</ele>
        <time>2026-02-02T10:42:25Z</time>
      </trkpt>
      <trkpt lat="45.9522" lon="6.55091">
        <ele>2361.6</ele>
        <time>2026-02-02T10:42:26Z</time>
      </trkpt>
      <trkpt lat="45.95221" lon="6.55091">
        <ele>2361.6</ele>
        <time>2026-02-02T10:42:27Z</time>
      </trkpt>
      <trkpt lat="45.95222" lon="6.55092">
        <ele>2361.6</ele>
        <time>2026-02-02T10:42:28Z</time>
      </trkpt>
      <trkpt lat="45.95222" lon="6.55091">
        <ele>2361.6</ele>
        <time>2026-02-02T10:42:29Z</time>
      </trkpt>
      <trkpt lat="45.95222" lon="6.55091">
        <ele>2361.6</ele>
        <time>2026-02-02T10:42:30Z</time>
      </trkpt>
      <trkpt lat="45.95222" lon="6.55091">
        <ele>2361.6</ele>
        <time>2026-02-02T10:42:31Z</time>
      </trkpt>
      <trkpt lat="45.95222" lon="6.55092">
        <ele>2361.6</ele>
        <time>2026-02-02T10:42:32Z</time>
      </trkpt>
      <trkpt lat="45.95222" lon="6.55091">
        <ele>2361.6</ele>
        <time>2026-02-02T10:42:33Z</time>
      </trkpt>
      <trkpt lat="45.95223" lon="6.5509">
        <ele>2358.9</ele>
        <time>2026-02-02T10:42:34Z</time>
      </trkpt>
      <trkpt lat="45.95223" lon="6.55088">
        <ele>2358.9</ele>
        <time>2026-02-02T10:42:35Z</time>
      </trkpt>
      <trkpt lat="45.95224" lon="6.55083">
        <ele>2358.4</ele>
        <time>2026-02-02T10:42:36Z</time>
      </trkpt>
      <trkpt lat="45.95225" lon="6.55081">
        <ele>2357.9</ele>
        <time>2026-02-02T10:42:37Z</time>
      </trkpt>
      <trkpt lat="45.95227" lon="6.55077">
        <ele>2354.9</ele>
        <time>2026-02-02T10:42:38Z</time>
      </trkpt>
      <trkpt lat="45.9523" lon="6.55078">
        <ele>2353.3</ele>
        <time>2026-02-02T10:42:39Z</time>
      </trkpt>
      <trkpt lat="45.95234" lon="6.55082">
        <ele>2351.9</ele>
        <time>2026-02-02T10:42:40Z</time>
      </trkpt>
      <trkpt lat="45.95238" lon="6.55084">
        <ele>2348</ele>
        <time>2026-02-02T10:42:41Z</time>
      </trkpt>
      <trkpt lat="45.95243" lon="6.55088">
        <ele>2346.5</ele>
        <time>2026-02-02T10:42:42Z</time>
      </trkpt>
      <trkpt lat="45.95248" lon="6.55091">
        <ele>2343.1</ele>
        <time>2026-02-02T10:42:43Z</time>
      </trkpt>
      <trkpt lat="45.95253" lon="6.55096">
        <ele>2340.1</ele>
        <time>2026-02-02T10:42:44Z</time>
      </trkpt>
      <trkpt lat="45.95259" lon="6.55099">
        <ele>2337.8</ele>
        <time>2026-02-02T10:42:45Z</time>
      </trkpt>
      <trkpt lat="45.95265" lon="6.55101">
        <ele>2335</ele>
        <time>2026-02-02T10:42:46Z</time>
      </trkpt>
      <trkpt lat="45.9527" lon="6.55103">
        <ele>2334.6</ele>
        <time>2026-02-02T10:42:47Z</time>
      </trkpt>
      <trkpt lat="45.95276" lon="6.55104">
        <ele>2330.7</ele>
        <time>2026-02-02T10:42:48Z</time>
      </trkpt>
      <trkpt lat="45.95283" lon="6.55104">
        <ele>2328.3</ele>
        <time>2026-02-02T10:42:49Z</time>
      </trkpt>
      <trkpt lat="45.95288" lon="6.55104">
        <ele>2327.3</ele>
        <time>2026-02-02T10:42:50Z</time>
      </trkpt>
      <trkpt lat="45.95293" lon="6.55102">
        <ele>2324.4</ele>
        <time>2026-02-02T10:42:51Z</time>
      </trkpt>
      <trkpt lat="45.95299" lon="6.551">
        <ele>2322.9</ele>
        <time>2026-02-02T10:42:52Z</time>
      </trkpt>
      <trkpt lat="45.95305" lon="6.55098">
        <ele>2320.3</ele>
        <time>2026-02-02T10:42:53Z</time>
      </trkpt>
      <trkpt lat="45.95311" lon="6.55097">
        <ele>2318.8</ele>
        <time>2026-02-02T10:42:54Z</time>
      </trkpt>
      <trkpt lat="45.95317" lon="6.55095">
        <ele>2317.8</ele>
        <time>2026-02-02T10:42:55Z</time>
      </trkpt>
      <trkpt lat="45.95324" lon="6.55093">
        <ele>2315.8</ele>
        <time>2026-02-02T10:42:56Z</time>
      </trkpt>
      <trkpt lat="45.95331" lon="6.55091">
        <ele>2315.1</ele>
        <time>2026-02-02T10:42:57Z</time>
      </trkpt>
      <trkpt lat="45.95338" lon="6.55089">
        <ele>2313.6</ele>
        <time>2026-02-02T10:42:58Z</time>
      </trkpt>
      <trkpt lat="45.95345" lon="6.55087">
        <ele>2313.1</ele>
        <time>2026-02-02T10:42:59Z</time>
      </trkpt>
      <trkpt lat="45.95351" lon="6.55083">
        <ele>2311.8</ele>
        <time>2026-02-02T10:43:00Z</time>
      </trkpt>
      <trkpt lat="45.95357" lon="6.5508">
        <ele>2310.6</ele>
        <time>2026-02-02T10:43:01Z</time>
      </trkpt>
      <trkpt lat="45.95362" lon="6.55077">
        <ele>2309.1</ele>
        <time>2026-02-02T10:43:02Z</time>
      </trkpt>
      <trkpt lat="45.95367" lon="6.55074">
        <ele>2308.6</ele>
        <time>2026-02-02T10:43:03Z</time>
      </trkpt>
      <trkpt lat="45.95372" lon="6.55071">
        <ele>2307.2</ele>
        <time>2026-02-02T10:43:04Z</time>
      </trkpt>
      <trkpt lat="45.95377" lon="6.55069">
        <ele>2307</ele>
        <time>2026-02-02T10:43:05Z</time>
      </trkpt>
      <trkpt lat="45.95383" lon="6.55067">
        <ele>2305.6</ele>
        <time>2026-02-02T10:43:06Z</time>
      </trkpt>
      <trkpt lat="45.95388" lon="6.55065">
        <ele>2305.2</ele>
        <time>2026-02-02T10:43:07Z</time>
      </trkpt>
      <trkpt lat="45.95393" lon="6.55062">
        <ele>2303.5</ele>
        <time>2026-02-02T10:43:08Z</time>
      </trkpt>
      <trkpt lat="45.95398" lon="6.55058">
        <ele>2302</ele>
        <time>2026-02-02T10:43:09Z</time>
      </trkpt>
      <trkpt lat="45.95404" lon="6.55054">
        <ele>2300.2</ele>
        <time>2026-02-02T10:43:10Z</time>
      </trkpt>
      <trkpt lat="45.95409" lon="6.55051">
        <ele>2298.3</ele>
        <time>2026-02-02T10:43:11Z</time>
      </trkpt>
      <trkpt lat="45.95413" lon="6.55047">
        <ele>2296.8</ele>
        <time>2026-02-02T10:43:12Z</time>
      </trkpt>
      <trkpt lat="45.95418" lon="6.55042">
        <ele>2295</ele>
        <time>2026-02-02T10:43:13Z</time>
      </trkpt>
      <trkpt lat="45.95423" lon="6.55039">
        <ele>2294.4</ele>
        <time>2026-02-02T10:43:14Z</time>
      </trkpt>
      <trkpt lat="45.95428" lon="6.55037">
        <ele>2293</ele>
        <time>2026-02-02T10:43:15Z</time>
      </trkpt>
      <trkpt lat="45.95431" lon="6.55034">
        <ele>2292.7</ele>
        <time>2026-02-02T10:43:16Z</time>
      </trkpt>
      <trkpt lat="45.95436" lon="6.55031">
        <ele>2291.1</ele>
        <time>2026-02-02T10:43:17Z</time>
      </trkpt>
      <trkpt lat="45.95441" lon="6.55026">
        <ele>2289.5</ele>
        <time>2026-02-02T10:43:18Z</time>
      </trkpt>
      <trkpt lat="45.95446" lon="6.55021">
        <ele>2287</ele>
        <time>2026-02-02T10:43:19Z</time>
      </trkpt>
      <trkpt lat="45.95452" lon="6.55016">
        <ele>2286</ele>
        <time>2026-02-02T10:43:20Z</time>
      </trkpt>
      <trkpt lat="45.95458" lon="6.55011">
        <ele>2285.1</ele>
        <time>2026-02-02T10:43:21Z</time>
      </trkpt>
      <trkpt lat="45.95464" lon="6.55005">
        <ele>2284.4</ele>
        <time>2026-02-02T10:43:22Z</time>
      </trkpt>
      <trkpt lat="45.95469" lon="6.55">
        <ele>2283.2</ele>
        <time>2026-02-02T10:43:23Z</time>
      </trkpt>
      <trkpt lat="45.95474" lon="6.54994">
        <ele>2283</ele>
        <time>2026-02-02T10:43:24Z</time>
      </trkpt>
      <trkpt lat="45.95478" lon="6.54991">
        <ele>2282.6</ele>
        <time>2026-02-02T10:43:25Z</time>
      </trkpt>
      <trkpt lat="45.9548" lon="6.54987">
        <ele>2282.9</ele>
        <time>2026-02-02T10:43:26Z</time>
      </trkpt>
      <trkpt lat="45.95482" lon="6.54982">
        <ele>2281.3</ele>
        <time>2026-02-02T10:43:27Z</time>
      </trkpt>
      <trkpt lat="45.95484" lon="6.54978">
        <ele>2281.7</ele>
        <time>2026-02-02T10:43:28Z</time>
      </trkpt>
      <trkpt lat="45.95486" lon="6.54975">
        <ele>2281.2</ele>
        <time>2026-02-02T10:43:29Z</time>
      </trkpt>
      <trkpt lat="45.95487" lon="6.54973">
        <ele>2280.3</ele>
        <time>2026-02-02T10:43:30Z</time>
      </trkpt>
      <trkpt lat="45.95487" lon="6.54971">
        <ele>2280.3</ele>
        <time>2026-02-02T10:43:31Z</time>
      </trkpt>
      <trkpt lat="45.95487" lon="6.54964">
        <ele>2278.6</ele>
        <time>2026-02-02T10:43:32Z</time>
      </trkpt>
      <trkpt lat="45.95488" lon="6.54956">
        <ele>2277.4</ele>
        <time>2026-02-02T10:43:33Z</time>
      </trkpt>
      <trkpt lat="45.95491" lon="6.54948">
        <ele>2275.7</ele>
        <time>2026-02-02T10:43:34Z</time>
      </trkpt>
      <trkpt lat="45.95492" lon="6.5494">
        <ele>2275.2</ele>
        <time>2026-02-02T10:43:35Z</time>
      </trkpt>
      <trkpt lat="45.95496" lon="6.54931">
        <ele>2273.6</ele>
        <time>2026-02-02T10:43:36Z</time>
      </trkpt>
      <trkpt lat="45.95501" lon="6.54924">
        <ele>2272.2</ele>
        <time>2026-02-02T10:43:37Z</time>
      </trkpt>
      <trkpt lat="45.95506" lon="6.54921">
        <ele>2271.6</ele>
        <time>2026-02-02T10:43:38Z</time>
      </trkpt>
      <trkpt lat="45.9551" lon="6.54919">
        <ele>2272.1</ele>
        <time>2026-02-02T10:43:39Z</time>
      </trkpt>
      <trkpt lat="45.95512" lon="6.54915">
        <ele>2271.5</ele>
        <time>2026-02-02T10:43:40Z</time>
      </trkpt>
      <trkpt lat="45.95513" lon="6.54913">
        <ele>2270.6</ele>
        <time>2026-02-02T10:43:41Z</time>
      </trkpt>
      <trkpt lat="45.95516" lon="6.54909">
        <ele>2270.1</ele>
        <time>2026-02-02T10:43:42Z</time>
      </trkpt>
      <trkpt lat="45.95519" lon="6.54902">
        <ele>2269.6</ele>
        <time>2026-02-02T10:43:43Z</time>
      </trkpt>
      <trkpt lat="45.95523" lon="6.54894">
        <ele>2268.3</ele>
        <time>2026-02-02T10:43:44Z</time>
      </trkpt>
      <trkpt lat="45.95527" lon="6.54888">
        <ele>2267</ele>
        <time>2026-02-02T10:43:45Z</time>
      </trkpt>
      <trkpt lat="45.9553" lon="6.54885">
        <ele>2267.5</ele>
        <time>2026-02-02T10:43:46Z</time>
      </trkpt>
      <trkpt lat="45.95534" lon="6.54883">
        <ele>2267</ele>
        <time>2026-02-02T10:43:47Z</time>
      </trkpt>
      <trkpt lat="45.95536" lon="6.54878">
        <ele>2266.5</ele>
        <time>2026-02-02T10:43:48Z</time>
      </trkpt>
      <trkpt lat="45.95539" lon="6.54874">
        <ele>2266</ele>
        <time>2026-02-02T10:43:49Z</time>
      </trkpt>
      <trkpt lat="45.95542" lon="6.54872">
        <ele>2266.2</ele>
        <time>2026-02-02T10:43:50Z</time>
      </trkpt>
      <trkpt lat="45.95543" lon="6.54872">
        <ele>2266.2</ele>
        <time>2026-02-02T10:43:51Z</time>
      </trkpt>
      <trkpt lat="45.95546" lon="6.5487">
        <ele>2265.8</ele>
        <time>2026-02-02T10:43:52Z</time>
      </trkpt>
      <trkpt lat="45.95547" lon="6.54869">
        <ele>2265.8</ele>
        <time>2026-02-02T10:43:53Z</time>
      </trkpt>
      <trkpt lat="45.9555" lon="6.54867">
        <ele>2266</ele>
        <time>2026-02-02T10:43:54Z</time>
      </trkpt>
      <trkpt lat="45.95551" lon="6.54867">
        <ele>2266.2</ele>
        <time>2026-02-02T10:43:55Z</time>
      </trkpt>
      <trkpt lat="45.95554" lon="6.54862">
        <ele>2265</ele>
        <time>2026-02-02T10:43:56Z</time>
      </trkpt>
      <trkpt lat="45.95554" lon="6.5486">
        <ele>2265</ele>
        <time>2026-02-02T10:43:57Z</time>
      </trkpt>
      <trkpt lat="45.95556" lon="6.54856">
        <ele>2264.3</ele>
        <time>2026-02-02T10:43:58Z</time>
      </trkpt>
      <trkpt lat="45.95558" lon="6.54851">
        <ele>2263.7</ele>
        <time>2026-02-02T10:43:59Z</time>
      </trkpt>
      <trkpt lat="45.95561" lon="6.54848">
        <ele>2262.9</ele>
        <time>2026-02-02T10:44:00Z</time>
      </trkpt>
      <trkpt lat="45.95565" lon="6.54849">
        <ele>2262.9</ele>
        <time>2026-02-02T10:44:01Z</time>
      </trkpt>
      <trkpt lat="45.95569" lon="6.54848">
        <ele>2262.9</ele>
        <time>2026-02-02T10:44:02Z</time>
      </trkpt>
      <trkpt lat="45.95573" lon="6.54845">
        <ele>2261.9</ele>
        <time>2026-02-02T10:44:03Z</time>
      </trkpt>
      <trkpt lat="45.95576" lon="6.54841">
        <ele>2261.7</ele>
        <time>2026-02-02T10:44:04Z</time>
      </trkpt>
      <trkpt lat="45.95579" lon="6.54835">
        <ele>2259.5</ele>
        <time>2026-02-02T10:44:05Z</time>
      </trkpt>
      <trkpt lat="45.95583" lon="6.5483">
        <ele>2258.3</ele>
        <time>2026-02-02T10:44:06Z</time>
      </trkpt>
      <trkpt lat="45.95588" lon="6.54829">
        <ele>2257.7</ele>
        <time>2026-02-02T10:44:07Z</time>
      </trkpt>
      <trkpt lat="45.95595" lon="6.5483">
        <ele>2257.1</ele>
        <time>2026-02-02T10:44:08Z</time>
      </trkpt>
      <trkpt lat="45.95602" lon="6.54827">
        <ele>2255.2</ele>
        <time>2026-02-02T10:44:09Z</time>
      </trkpt>
      <trkpt lat="45.95609" lon="6.54825">
        <ele>2254.4</ele>
        <time>2026-02-02T10:44:10Z</time>
      </trkpt>
      <trkpt lat="45.95617" lon="6.54823">
        <ele>2252</ele>
        <time>2026-02-02T10:44:11Z</time>
      </trkpt>
      <trkpt lat="45.95626" lon="6.5482">
        <ele>2250.6</ele>
        <time>2026-02-02T10:44:12Z</time>
      </trkpt>
      <trkpt lat="45.95633" lon="6.54817">
        <ele>2248.7</ele>
        <time>2026-02-02T10:44:13Z</time>
      </trkpt>
      <trkpt lat="45.9564" lon="6.54814">
        <ele>2246.2</ele>
        <time>2026-02-02T10:44:14Z</time>
      </trkpt>
      <trkpt lat="45.95647" lon="6.54815">
        <ele>2245.2</ele>
        <time>2026-02-02T10:44:15Z</time>
      </trkpt>
      <trkpt lat="45.95653" lon="6.54816">
        <ele>2245</ele>
        <time>2026-02-02T10:44:16Z</time>
      </trkpt>
      <trkpt lat="45.95659" lon="6.54818">
        <ele>2243.9</ele>
        <time>2026-02-02T10:44:17Z</time>
      </trkpt>
      <trkpt lat="45.95665" lon="6.54818">
        <ele>2242.7</ele>
        <time>2026-02-02T10:44:18Z</time>
      </trkpt>
      <trkpt lat="45.95671" lon="6.54819">
        <ele>2241.6</ele>
        <time>2026-02-02T10:44:19Z</time>
      </trkpt>
      <trkpt lat="45.95677" lon="6.54819">
        <ele>2240.4</ele>
        <time>2026-02-02T10:44:20Z</time>
      </trkpt>
      <trkpt lat="45.95683" lon="6.5482">
        <ele>2240.1</ele>
        <time>2026-02-02T10:44:21Z</time>
      </trkpt>
      <trkpt lat="45.95688" lon="6.5482">
        <ele>2239.5</ele>
        <time>2026-02-02T10:44:22Z</time>
      </trkpt>
      <trkpt lat="45.95693" lon="6.54818">
        <ele>2237.5</ele>
        <time>2026-02-02T10:44:23Z</time>
      </trkpt>
      <trkpt lat="45.95699" lon="6.54814">
        <ele>2235.5</ele>
        <time>2026-02-02T10:44:24Z</time>
      </trkpt>
      <trkpt lat="45.95706" lon="6.54808">
        <ele>2233.6</ele>
        <time>2026-02-02T10:44:25Z</time>
      </trkpt>
      <trkpt lat="45.95713" lon="6.548">
        <ele>2230.7</ele>
        <time>2026-02-02T10:44:26Z</time>
      </trkpt>
      <trkpt lat="45.95721" lon="6.54795">
        <ele>2228.6</ele>
        <time>2026-02-02T10:44:27Z</time>
      </trkpt>
      <trkpt lat="45.95728" lon="6.54791">
        <ele>2226.8</ele>
        <time>2026-02-02T10:44:28Z</time>
      </trkpt>
      <trkpt lat="45.95734" lon="6.54789">
        <ele>2225</ele>
        <time>2026-02-02T10:44:29Z</time>
      </trkpt>
      <trkpt lat="45.9574" lon="6.54789">
        <ele>2224.2</ele>
        <time>2026-02-02T10:44:30Z</time>
      </trkpt>
      <trkpt lat="45.95744" lon="6.54791">
        <ele>2224.5</ele>
        <time>2026-02-02T10:44:31Z</time>
      </trkpt>
      <trkpt lat="45.95747" lon="6.5479">
        <ele>2224</ele>
        <time>2026-02-02T10:44:32Z</time>
      </trkpt>
      <trkpt lat="45.9575" lon="6.54788">
        <ele>2222.6</ele>
        <time>2026-02-02T10:44:33Z</time>
      </trkpt>
      <trkpt lat="45.95755" lon="6.54785">
        <ele>2220.4</ele>
        <time>2026-02-02T10:44:34Z</time>
      </trkpt>
      <trkpt lat="45.95757" lon="6.54781">
        <ele>2219.9</ele>
        <time>2026-02-02T10:44:35Z</time>
      </trkpt>
      <trkpt lat="45.95759" lon="6.54778">
        <ele>2219.2</ele>
        <time>2026-02-02T10:44:36Z</time>
      </trkpt>
      <trkpt lat="45.9576" lon="6.54773">
        <ele>2218.2</ele>
        <time>2026-02-02T10:44:37Z</time>
      </trkpt>
      <trkpt lat="45.9576" lon="6.54772">
        <ele>2217.5</ele>
        <time>2026-02-02T10:44:38Z</time>
      </trkpt>
      <trkpt lat="45.95761" lon="6.5477">
        <ele>2217.5</ele>
        <time>2026-02-02T10:44:39Z</time>
      </trkpt>
      <trkpt lat="45.95762" lon="6.54769">
        <ele>2217.5</ele>
        <time>2026-02-02T10:44:40Z</time>
      </trkpt>
      <trkpt lat="45.95763" lon="6.54767">
        <ele>2216.4</ele>
        <time>2026-02-02T10:44:41Z</time>
      </trkpt>
      <trkpt lat="45.95764" lon="6.54766">
        <ele>2216.4</ele>
        <time>2026-02-02T10:44:42Z</time>
      </trkpt>
      <trkpt lat="45.95764" lon="6.54765">
        <ele>2216.4</ele>
        <time>2026-02-02T10:44:43Z</time>
      </trkpt>
      <trkpt lat="45.95765" lon="6.54764">
        <ele>2215.7</ele>
        <time>2026-02-02T10:44:44Z</time>
      </trkpt>
      <trkpt lat="45.95765" lon="6.54762">
        <ele>2215.3</ele>
        <time>2026-02-02T10:44:45Z</time>
      </trkpt>
      <trkpt lat="45.95766" lon="6.54761">
        <ele>2215.3</ele>
        <time>2026-02-02T10:44:46Z</time>
      </trkpt>
      <trkpt lat="45.95767" lon="6.54757">
        <ele>2214.6</ele>
        <time>2026-02-02T10:44:47Z</time>
      </trkpt>
      <trkpt lat="45.95767" lon="6.54756">
        <ele>2214.6</ele>
        <time>2026-02-02T10:44:48Z</time>
      </trkpt>
      <trkpt lat="45.95767" lon="6.54756">
        <ele>2214.6</ele>
        <time>2026-02-02T10:44:49Z</time>
      </trkpt>
      <trkpt lat="45.95767" lon="6.54756">
        <ele>2214.6</ele>
        <time>2026-02-02T10:44:50Z</time>
      </trkpt>
      <trkpt lat="45.95767" lon="6.54755">
        <ele>2214.6</ele>
        <time>2026-02-02T10:44:51Z</time>
      </trkpt>
      <trkpt lat="45.95767" lon="6.54755">
        <ele>2213.8</ele>
        <time>2026-02-02T10:44:52Z</time>
      </trkpt>
      <trkpt lat="45.95767" lon="6.54755">
        <ele>2213.8</ele>
        <time>2026-02-02T10:44:53Z</time>
      </trkpt>
      <trkpt lat="45.95767" lon="6.54754">
        <ele>2213.8</ele>
        <time>2026-02-02T10:44:54Z</time>
      </trkpt>
      <trkpt lat="45.95767" lon="6.54754">
        <ele>2213.8</ele>
        <time>2026-02-02T10:44:55Z</time>
      </trkpt>
      <trkpt lat="45.95767" lon="6.54754">
        <ele>2213.8</ele>
        <time>2026-02-02T10:44:56Z</time>
      </trkpt>
      <trkpt lat="45.95768" lon="6.54753">
        <ele>2213.8</ele>
        <time>2026-02-02T10:44:57Z</time>
      </trkpt>
      <trkpt lat="45.95768" lon="6.54753">
        <ele>2213.8</ele>
        <time>2026-02-02T10:44:58Z</time>
      </trkpt>
      <trkpt lat="45.95768" lon="6.54753">
        <ele>2213.8</ele>
        <time>2026-02-02T10:44:59Z</time>
      </trkpt>
      <trkpt lat="45.95768" lon="6.54752">
        <ele>2213.8</ele>
        <time>2026-02-02T10:45:00Z</time>
      </trkpt>
      <trkpt lat="45.95768" lon="6.54752">
        <ele>2213.8</ele>
        <time>2026-02-02T10:45:01Z</time>
      </trkpt>
      <trkpt lat="45.95768" lon="6.54752">
        <ele>2213.8</ele>
        <time>2026-02-02T10:45:02Z</time>
      </trkpt>
      <trkpt lat="45.95768" lon="6.54751">
        <ele>2213.8</ele>
        <time>2026-02-02T10:45:03Z</time>
      </trkpt>
      <trkpt lat="45.95768" lon="6.54751">
        <ele>2213</ele>
        <time>2026-02-02T10:45:04Z</time>
      </trkpt>
      <trkpt lat="45.95772" lon="6.54747">
        <ele>2212.4</ele>
        <time>2026-02-02T10:45:05Z</time>
      </trkpt>
      <trkpt lat="45.95776" lon="6.54742">
        <ele>2210.7</ele>
        <time>2026-02-02T10:45:06Z</time>
      </trkpt>
      <trkpt lat="45.95783" lon="6.54732">
        <ele>2209.1</ele>
        <time>2026-02-02T10:45:07Z</time>
      </trkpt>
      <trkpt lat="45.9579" lon="6.54723">
        <ele>2207.5</ele>
        <time>2026-02-02T10:45:08Z</time>
      </trkpt>
      <trkpt lat="45.958" lon="6.54716">
        <ele>2206</ele>
        <time>2026-02-02T10:45:09Z</time>
      </trkpt>
      <trkpt lat="45.95811" lon="6.54713">
        <ele>2205.6</ele>
        <time>2026-02-02T10:45:10Z</time>
      </trkpt>
      <trkpt lat="45.95821" lon="6.54712">
        <ele>2204.7</ele>
        <time>2026-02-02T10:45:11Z</time>
      </trkpt>
      <trkpt lat="45.95829" lon="6.5471">
        <ele>2204.5</ele>
        <time>2026-02-02T10:45:12Z</time>
      </trkpt>
      <trkpt lat="45.95834" lon="6.54708">
        <ele>2204.4</ele>
        <time>2026-02-02T10:45:13Z</time>
      </trkpt>
      <trkpt lat="45.95836" lon="6.54707">
        <ele>2203.6</ele>
        <time>2026-02-02T10:45:14Z</time>
      </trkpt>
      <trkpt lat="45.95836" lon="6.54706">
        <ele>2203.6</ele>
        <time>2026-02-02T10:45:15Z</time>
      </trkpt>
      <trkpt lat="45.95836" lon="6.54705">
        <ele>2203.6</ele>
        <time>2026-02-02T10:45:16Z</time>
      </trkpt>
      <trkpt lat="45.95837" lon="6.54704">
        <ele>2202.8</ele>
        <time>2026-02-02T10:45:17Z</time>
      </trkpt>
      <trkpt lat="45.95837" lon="6.54703">
        <ele>2202.7</ele>
        <time>2026-02-02T10:45:18Z</time>
      </trkpt>
      <trkpt lat="45.95838" lon="6.54702">
        <ele>2202.7</ele>
        <time>2026-02-02T10:45:19Z</time>
      </trkpt>
      <trkpt lat="45.95838" lon="6.54702">
        <ele>2202.7</ele>
        <time>2026-02-02T10:45:20Z</time>
      </trkpt>
      <trkpt lat="45.95839" lon="6.54702">
        <ele>2202.7</ele>
        <time>2026-02-02T10:45:21Z</time>
      </trkpt>
      <trkpt lat="45.95839" lon="6.54702">
        <ele>2202.7</ele>
        <time>2026-02-02T10:45:22Z</time>
      </trkpt>
      <trkpt lat="45.95839" lon="6.54702">
        <ele>2202.7</ele>
        <time>2026-02-02T10:45:23Z</time>
      </trkpt>
      <trkpt lat="45.95841" lon="6.54701">
        <ele>2202.7</ele>
        <time>2026-02-02T10:45:24Z</time>
      </trkpt>
      <trkpt lat="45.9584" lon="6.54701">
        <ele>2202.7</ele>
        <time>2026-02-02T10:45:25Z</time>
      </trkpt>
      <trkpt lat="45.95842" lon="6.547">
        <ele>2202.7</ele>
        <time>2026-02-02T10:45:26Z</time>
      </trkpt>
      <trkpt lat="45.95842" lon="6.54699">
        <ele>2201.9</ele>
        <time>2026-02-02T10:45:27Z</time>
      </trkpt>
      <trkpt lat="45.95843" lon="6.54699">
        <ele>2201.9</ele>
        <time>2026-02-02T10:45:28Z</time>
      </trkpt>
      <trkpt lat="45.95844" lon="6.54699">
        <ele>2201.9</ele>
        <time>2026-02-02T10:45:29Z</time>
      </trkpt>
      <trkpt lat="45.95844" lon="6.54699">
        <ele>2201.9</ele>
        <time>2026-02-02T10:45:30Z</time>
      </trkpt>
      <trkpt lat="45.95844" lon="6.54699">
        <ele>2201.9</ele>
        <time>2026-02-02T10:45:31Z</time>
      </trkpt>
      <trkpt lat="45.95844" lon="6.54699">
        <ele>2201.9</ele>
        <time>2026-02-02T10:45:32Z</time>
      </trkpt>
      <trkpt lat="45.95844" lon="6.54699">
        <ele>2201.9</ele>
        <time>2026-02-02T10:45:33Z</time>
      </trkpt>
      <trkpt lat="45.95844" lon="6.54698">
        <ele>2201.9</ele>
        <time>2026-02-02T10:45:34Z</time>
      </trkpt>
      <trkpt lat="45.95845" lon="6.54697">
        <ele>2201.9</ele>
        <time>2026-02-02T10:45:35Z</time>
      </trkpt>
      <trkpt lat="45.95844" lon="6.54696">
        <ele>2201.9</ele>
        <time>2026-02-02T10:45:36Z</time>
      </trkpt>
      <trkpt lat="45.95844" lon="6.54695">
        <ele>2201.1</ele>
        <time>2026-02-02T10:45:37Z</time>
      </trkpt>
      <trkpt lat="45.95843" lon="6.54692">
        <ele>2201.1</ele>
        <time>2026-02-02T10:45:38Z</time>
      </trkpt>
      <trkpt lat="45.95843" lon="6.54691">
        <ele>2201.2</ele>
        <time>2026-02-02T10:45:39Z</time>
      </trkpt>
      <trkpt lat="45.95842" lon="6.5469">
        <ele>2200.4</ele>
        <time>2026-02-02T10:45:40Z</time>
      </trkpt>
      <trkpt lat="45.95841" lon="6.54688">
        <ele>2200.4</ele>
        <time>2026-02-02T10:45:41Z</time>
      </trkpt>
      <trkpt lat="45.95841" lon="6.54688">
        <ele>2200.4</ele>
        <time>2026-02-02T10:45:42Z</time>
      </trkpt>
      <trkpt lat="45.95841" lon="6.54687">
        <ele>2200.4</ele>
        <time>2026-02-02T10:45:43Z</time>
      </trkpt>
      <trkpt lat="45.95841" lon="6.54686">
        <ele>2199.7</ele>
        <time>2026-02-02T10:45:44Z</time>
      </trkpt>
      <trkpt lat="45.95841" lon="6.54685">
        <ele>2199.7</ele>
        <time>2026-02-02T10:45:45Z</time>
      </trkpt>
      <trkpt lat="45.95841" lon="6.54684">
        <ele>2199.7</ele>
        <time>2026-02-02T10:45:46Z</time>
      </trkpt>
      <trkpt lat="45.95842" lon="6.54683">
        <ele>2199.7</ele>
        <time>2026-02-02T10:45:47Z</time>
      </trkpt>
      <trkpt lat="45.95842" lon="6.54682">
        <ele>2199</ele>
        <time>2026-02-02T10:45:48Z</time>
      </trkpt>
      <trkpt lat="45.95843" lon="6.5468">
        <ele>2199</ele>
        <time>2026-02-02T10:45:49Z</time>
      </trkpt>
      <trkpt lat="45.95844" lon="6.54678">
        <ele>2198.9</ele>
        <time>2026-02-02T10:45:50Z</time>
      </trkpt>
      <trkpt lat="45.95847" lon="6.54675">
        <ele>2198</ele>
        <time>2026-02-02T10:45:51Z</time>
      </trkpt>
      <trkpt lat="45.95847" lon="6.54675">
        <ele>2198</ele>
        <time>2026-02-02T10:45:52Z</time>
      </trkpt>
      <trkpt lat="45.95849" lon="6.54675">
        <ele>2198</ele>
        <time>2026-02-02T10:45:53Z</time>
      </trkpt>
      <trkpt lat="45.9585" lon="6.54675">
        <ele>2197.9</ele>
        <time>2026-02-02T10:45:54Z</time>
      </trkpt>
      <trkpt lat="45.9585" lon="6.54674">
        <ele>2197.9</ele>
        <time>2026-02-02T10:45:55Z</time>
      </trkpt>
      <trkpt lat="45.95851" lon="6.54674">
        <ele>2197.9</ele>
        <time>2026-02-02T10:45:56Z</time>
      </trkpt>
      <trkpt lat="45.95852" lon="6.54673">
        <ele>2197.1</ele>
        <time>2026-02-02T10:45:57Z</time>
      </trkpt>
      <trkpt lat="45.95852" lon="6.54672">
        <ele>2197</ele>
        <time>2026-02-02T10:45:58Z</time>
      </trkpt>
      <trkpt lat="45.95853" lon="6.54672">
        <ele>2197</ele>
        <time>2026-02-02T10:45:59Z</time>
      </trkpt>
      <trkpt lat="45.95854" lon="6.54671">
        <ele>2197</ele>
        <time>2026-02-02T10:46:00Z</time>
      </trkpt>
      <trkpt lat="45.95855" lon="6.54671">
        <ele>2197</ele>
        <time>2026-02-02T10:46:01Z</time>
      </trkpt>
      <trkpt lat="45.95856" lon="6.5467">
        <ele>2197</ele>
        <time>2026-02-02T10:46:02Z</time>
      </trkpt>
      <trkpt lat="45.95857" lon="6.5467">
        <ele>2197</ele>
        <time>2026-02-02T10:46:03Z</time>
      </trkpt>
      <trkpt lat="45.95858" lon="6.54669">
        <ele>2196</ele>
        <time>2026-02-02T10:46:04Z</time>
      </trkpt>
      <trkpt lat="45.95859" lon="6.54669">
        <ele>2196</ele>
        <time>2026-02-02T10:46:05Z</time>
      </trkpt>
      <trkpt lat="45.9586" lon="6.54668">
        <ele>2196</ele>
        <time>2026-02-02T10:46:06Z</time>
      </trkpt>
      <trkpt lat="45.95861" lon="6.54668">
        <ele>2196</ele>
        <time>2026-02-02T10:46:07Z</time>
      </trkpt>
      <trkpt lat="45.95862" lon="6.54668">
        <ele>2195.9</ele>
        <time>2026-02-02T10:46:08Z</time>
      </trkpt>
      <trkpt lat="45.95863" lon="6.54667">
        <ele>2195.9</ele>
        <time>2026-02-02T10:46:09Z</time>
      </trkpt>
      <trkpt lat="45.95863" lon="6.54667">
        <ele>2195.9</ele>
        <time>2026-02-02T10:46:10Z</time>
      </trkpt>
      <trkpt lat="45.95864" lon="6.54667">
        <ele>2195.9</ele>
        <time>2026-02-02T10:46:11Z</time>
      </trkpt>
      <trkpt lat="45.95865" lon="6.54667">
        <ele>2195.9</ele>
        <time>2026-02-02T10:46:12Z</time>
      </trkpt>
      <trkpt lat="45.95865" lon="6.54667">
        <ele>2195.9</ele>
        <time>2026-02-02T10:46:13Z</time>
      </trkpt>
      <trkpt lat="45.95866" lon="6.54668">
        <ele>2195.9</ele>
        <time>2026-02-02T10:46:14Z</time>
      </trkpt>
      <trkpt lat="45.9587" lon="6.54668">
        <ele>2195.9</ele>
        <time>2026-02-02T10:46:16Z</time>
      </trkpt>
      <trkpt lat="45.95871" lon="6.54669">
        <ele>2195.9</ele>
        <time>2026-02-02T10:46:17Z</time>
      </trkpt>
      <trkpt lat="45.95872" lon="6.54669">
        <ele>2195.9</ele>
        <time>2026-02-02T10:46:18Z</time>
      </trkpt>
      <trkpt lat="45.95873" lon="6.54669">
        <ele>2195.9</ele>
        <time>2026-02-02T10:46:19Z</time>
      </trkpt>
      <trkpt lat="45.95874" lon="6.54669">
        <ele>2196</ele>
        <time>2026-02-02T10:46:20Z</time>
      </trkpt>
      <trkpt lat="45.95875" lon="6.54669">
        <ele>2196</ele>
        <time>2026-02-02T10:46:21Z</time>
      </trkpt>
      <trkpt lat="45.95876" lon="6.54669">
        <ele>2196</ele>
        <time>2026-02-02T10:46:22Z</time>
      </trkpt>
      <trkpt lat="45.95876" lon="6.54668">
        <ele>2196</ele>
        <time>2026-02-02T10:46:23Z</time>
      </trkpt>
      <trkpt lat="45.95877" lon="6.54669">
        <ele>2196</ele>
        <time>2026-02-02T10:46:24Z</time>
      </trkpt>
      <trkpt lat="45.95878" lon="6.54669">
        <ele>2196</ele>
        <time>2026-02-02T10:46:25Z</time>
      </trkpt>
      <trkpt lat="45.95879" lon="6.54669">
        <ele>2196</ele>
        <time>2026-02-02T10:46:26Z</time>
      </trkpt>
      <trkpt lat="45.9588" lon="6.54669">
        <ele>2197</ele>
        <time>2026-02-02T10:46:27Z</time>
      </trkpt>
      <trkpt lat="45.95881" lon="6.54669">
        <ele>2196</ele>
        <time>2026-02-02T10:46:28Z</time>
      </trkpt>
      <trkpt lat="45.95882" lon="6.54669">
        <ele>2195.9</ele>
        <time>2026-02-02T10:46:29Z</time>
      </trkpt>
      <trkpt lat="45.95883" lon="6.54669">
        <ele>2195.9</ele>
        <time>2026-02-02T10:46:30Z</time>
      </trkpt>
      <trkpt lat="45.95885" lon="6.54669">
        <ele>2195.9</ele>
        <time>2026-02-02T10:46:31Z</time>
      </trkpt>
      <trkpt lat="45.95887" lon="6.54669">
        <ele>2195.9</ele>
        <time>2026-02-02T10:46:32Z</time>
      </trkpt>
      <trkpt lat="45.95888" lon="6.54669">
        <ele>2195.9</ele>
        <time>2026-02-02T10:46:33Z</time>
      </trkpt>
      <trkpt lat="45.95889" lon="6.54669">
        <ele>2195.8</ele>
        <time>2026-02-02T10:46:34Z</time>
      </trkpt>
      <trkpt lat="45.95893" lon="6.54668">
        <ele>2195.7</ele>
        <time>2026-02-02T10:46:35Z</time>
      </trkpt>
      <trkpt lat="45.95894" lon="6.54667">
        <ele>2195.5</ele>
        <time>2026-02-02T10:46:36Z</time>
      </trkpt>
      <trkpt lat="45.95898" lon="6.54667">
        <ele>2195.4</ele>
        <time>2026-02-02T10:46:37Z</time>
      </trkpt>
      <trkpt lat="45.95901" lon="6.54666">
        <ele>2195.3</ele>
        <time>2026-02-02T10:46:38Z</time>
      </trkpt>
      <trkpt lat="45.95905" lon="6.54666">
        <ele>2195.2</ele>
        <time>2026-02-02T10:46:39Z</time>
      </trkpt>
      <trkpt lat="45.95909" lon="6.54665">
        <ele>2194.8</ele>
        <time>2026-02-02T10:46:40Z</time>
      </trkpt>
      <trkpt lat="45.95913" lon="6.54665">
        <ele>2194.6</ele>
        <time>2026-02-02T10:46:41Z</time>
      </trkpt>
      <trkpt lat="45.95917" lon="6.54665">
        <ele>2194.3</ele>
        <time>2026-02-02T10:46:42Z</time>
      </trkpt>
      <trkpt lat="45.95921" lon="6.54665">
        <ele>2192.6</ele>
        <time>2026-02-02T10:46:43Z</time>
      </trkpt>
      <trkpt lat="45.95924" lon="6.54662">
        <ele>2192.3</ele>
        <time>2026-02-02T10:46:44Z</time>
      </trkpt>
      <trkpt lat="45.95928" lon="6.5466">
        <ele>2190.9</ele>
        <time>2026-02-02T10:46:45Z</time>
      </trkpt>
      <trkpt lat="45.95931" lon="6.54657">
        <ele>2190.6</ele>
        <time>2026-02-02T10:46:46Z</time>
      </trkpt>
      <trkpt lat="45.95934" lon="6.54656">
        <ele>2189</ele>
        <time>2026-02-02T10:46:47Z</time>
      </trkpt>
      <trkpt lat="45.95938" lon="6.54655">
        <ele>2188.6</ele>
        <time>2026-02-02T10:46:48Z</time>
      </trkpt>
      <trkpt lat="45.95941" lon="6.54655">
        <ele>2188.2</ele>
        <time>2026-02-02T10:46:49Z</time>
      </trkpt>
      <trkpt lat="45.95944" lon="6.54655">
        <ele>2187.7</ele>
        <time>2026-02-02T10:46:50Z</time>
      </trkpt>
      <trkpt lat="45.95947" lon="6.54655">
        <ele>2187.3</ele>
        <time>2026-02-02T10:46:51Z</time>
      </trkpt>
      <trkpt lat="45.95948" lon="6.54655">
        <ele>2186.8</ele>
        <time>2026-02-02T10:46:52Z</time>
      </trkpt>
      <trkpt lat="45.95952" lon="6.54653">
        <ele>2186.3</ele>
        <time>2026-02-02T10:46:53Z</time>
      </trkpt>
      <trkpt lat="45.95953" lon="6.54653">
        <ele>2186.3</ele>
        <time>2026-02-02T10:46:54Z</time>
      </trkpt>
      <trkpt lat="45.95956" lon="6.54652">
        <ele>2184.6</ele>
        <time>2026-02-02T10:46:55Z</time>
      </trkpt>
      <trkpt lat="45.95959" lon="6.54651">
        <ele>2184.2</ele>
        <time>2026-02-02T10:46:56Z</time>
      </trkpt>
      <trkpt lat="45.95962" lon="6.54651">
        <ele>2183.3</ele>
        <time>2026-02-02T10:46:57Z</time>
      </trkpt>
      <trkpt lat="45.95966" lon="6.5465">
        <ele>2182.9</ele>
        <time>2026-02-02T10:46:58Z</time>
      </trkpt>
      <trkpt lat="45.95969" lon="6.54649">
        <ele>2182.4</ele>
        <time>2026-02-02T10:46:59Z</time>
      </trkpt>
      <trkpt lat="45.95973" lon="6.5465">
        <ele>2181.9</ele>
        <time>2026-02-02T10:47:00Z</time>
      </trkpt>
      <trkpt lat="45.95976" lon="6.5465">
        <ele>2181.3</ele>
        <time>2026-02-02T10:47:01Z</time>
      </trkpt>
      <trkpt lat="45.95979" lon="6.54651">
        <ele>2180.8</ele>
        <time>2026-02-02T10:47:02Z</time>
      </trkpt>
      <trkpt lat="45.95983" lon="6.54652">
        <ele>2181.6</ele>
        <time>2026-02-02T10:47:03Z</time>
      </trkpt>
      <trkpt lat="45.95986" lon="6.54654">
        <ele>2181.2</ele>
        <time>2026-02-02T10:47:04Z</time>
      </trkpt>
      <trkpt lat="45.95989" lon="6.54655">
        <ele>2180.8</ele>
        <time>2026-02-02T10:47:05Z</time>
      </trkpt>
      <trkpt lat="45.95992" lon="6.54655">
        <ele>2180.3</ele>
        <time>2026-02-02T10:47:06Z</time>
      </trkpt>
      <trkpt lat="45.95995" lon="6.54657">
        <ele>2181.1</ele>
        <time>2026-02-02T10:47:07Z</time>
      </trkpt>
      <trkpt lat="45.95998" lon="6.54658">
        <ele>2180.5</ele>
        <time>2026-02-02T10:47:08Z</time>
      </trkpt>
      <trkpt lat="45.96001" lon="6.5466">
        <ele>2179.3</ele>
        <time>2026-02-02T10:47:09Z</time>
      </trkpt>
      <trkpt lat="45.96004" lon="6.54661">
        <ele>2180.1</ele>
        <time>2026-02-02T10:47:10Z</time>
      </trkpt>
      <trkpt lat="45.96007" lon="6.54663">
        <ele>2179.6</ele>
        <time>2026-02-02T10:47:11Z</time>
      </trkpt>
      <trkpt lat="45.96011" lon="6.54665">
        <ele>2179</ele>
        <time>2026-02-02T10:47:12Z</time>
      </trkpt>
      <trkpt lat="45.96016" lon="6.54667">
        <ele>2179.8</ele>
        <time>2026-02-02T10:47:13Z</time>
      </trkpt>
      <trkpt lat="45.9602" lon="6.54669">
        <ele>2178.6</ele>
        <time>2026-02-02T10:47:14Z</time>
      </trkpt>
      <trkpt lat="45.96024" lon="6.54671">
        <ele>2179.2</ele>
        <time>2026-02-02T10:47:15Z</time>
      </trkpt>
      <trkpt lat="45.96028" lon="6.54672">
        <ele>2177.9</ele>
        <time>2026-02-02T10:47:16Z</time>
      </trkpt>
      <trkpt lat="45.96033" lon="6.54675">
        <ele>2178.4</ele>
        <time>2026-02-02T10:47:17Z</time>
      </trkpt>
      <trkpt lat="45.96037" lon="6.54676">
        <ele>2177.1</ele>
        <time>2026-02-02T10:47:18Z</time>
      </trkpt>
      <trkpt lat="45.96042" lon="6.54678">
        <ele>2176.5</ele>
        <time>2026-02-02T10:47:19Z</time>
      </trkpt>
      <trkpt lat="45.96046" lon="6.5468">
        <ele>2177</ele>
        <time>2026-02-02T10:47:20Z</time>
      </trkpt>
      <trkpt lat="45.9605" lon="6.54681">
        <ele>2175.9</ele>
        <time>2026-02-02T10:47:21Z</time>
      </trkpt>
      <trkpt lat="45.96054" lon="6.54684">
        <ele>2176.3</ele>
        <time>2026-02-02T10:47:22Z</time>
      </trkpt>
      <trkpt lat="45.96058" lon="6.54686">
        <ele>2175</ele>
        <time>2026-02-02T10:47:23Z</time>
      </trkpt>
      <trkpt lat="45.96062" lon="6.54688">
        <ele>2175.3</ele>
        <time>2026-02-02T10:47:24Z</time>
      </trkpt>
      <trkpt lat="45.96067" lon="6.54689">
        <ele>2174.1</ele>
        <time>2026-02-02T10:47:25Z</time>
      </trkpt>
      <trkpt lat="45.96071" lon="6.5469">
        <ele>2173.5</ele>
        <time>2026-02-02T10:47:26Z</time>
      </trkpt>
      <trkpt lat="45.96075" lon="6.54691">
        <ele>2172.9</ele>
        <time>2026-02-02T10:47:27Z</time>
      </trkpt>
      <trkpt lat="45.9608" lon="6.54691">
        <ele>2172.4</ele>
        <time>2026-02-02T10:47:28Z</time>
      </trkpt>
      <trkpt lat="45.96084" lon="6.54692">
        <ele>2171.7</ele>
        <time>2026-02-02T10:47:29Z</time>
      </trkpt>
      <trkpt lat="45.96088" lon="6.54693">
        <ele>2170.3</ele>
        <time>2026-02-02T10:47:30Z</time>
      </trkpt>
      <trkpt lat="45.96092" lon="6.54695">
        <ele>2169.7</ele>
        <time>2026-02-02T10:47:31Z</time>
      </trkpt>
      <trkpt lat="45.96095" lon="6.54696">
        <ele>2170.1</ele>
        <time>2026-02-02T10:47:32Z</time>
      </trkpt>
      <trkpt lat="45.96098" lon="6.54697">
        <ele>2169.6</ele>
        <time>2026-02-02T10:47:33Z</time>
      </trkpt>
      <trkpt lat="45.961" lon="6.54699">
        <ele>2169</ele>
        <time>2026-02-02T10:47:34Z</time>
      </trkpt>
      <trkpt lat="45.96101" lon="6.547">
        <ele>2169.9</ele>
        <time>2026-02-02T10:47:35Z</time>
      </trkpt>
      <trkpt lat="45.96101" lon="6.547">
        <ele>2169.9</ele>
        <time>2026-02-02T10:47:36Z</time>
      </trkpt>
      <trkpt lat="45.96101" lon="6.547">
        <ele>2169.9</ele>
        <time>2026-02-02T10:47:37Z</time>
      </trkpt>
      <trkpt lat="45.96101" lon="6.547">
        <ele>2169.9</ele>
        <time>2026-02-02T10:47:38Z</time>
      </trkpt>
      <trkpt lat="45.96101" lon="6.547">
        <ele>2169.9</ele>
        <time>2026-02-02T10:47:39Z</time>
      </trkpt>
      <trkpt lat="45.96101" lon="6.54701">
        <ele>2169.9</ele>
        <time>2026-02-02T10:47:40Z</time>
      </trkpt>
      <trkpt lat="45.96101" lon="6.54701">
        <ele>2169.9</ele>
        <time>2026-02-02T10:47:41Z</time>
      </trkpt>
      <trkpt lat="45.96101" lon="6.54701">
        <ele>2169.9</ele>
        <time>2026-02-02T10:47:42Z</time>
      </trkpt>
      <trkpt lat="45.96101" lon="6.54701">
        <ele>2169.9</ele>
        <time>2026-02-02T10:47:43Z</time>
      </trkpt>
      <trkpt lat="45.96101" lon="6.54701">
        <ele>2169.9</ele>
        <time>2026-02-02T10:47:44Z</time>
      </trkpt>
      <trkpt lat="45.96101" lon="6.54701">
        <ele>2169.9</ele>
        <time>2026-02-02T10:47:45Z</time>
      </trkpt>
      <trkpt lat="45.96101" lon="6.54701">
        <ele>2169.9</ele>
        <time>2026-02-02T10:47:46Z</time>
      </trkpt>
      <trkpt lat="45.96101" lon="6.54701">
        <ele>2169.9</ele>
        <time>2026-02-02T10:47:47Z</time>
      </trkpt>
      <trkpt lat="45.96101" lon="6.54701">
        <ele>2169.9</ele>
        <time>2026-02-02T10:47:48Z</time>
      </trkpt>
      <trkpt lat="45.96101" lon="6.54701">
        <ele>2169.9</ele>
        <time>2026-02-02T10:47:49Z</time>
      </trkpt>
      <trkpt lat="45.96101" lon="6.54701">
        <ele>2169.9</ele>
        <time>2026-02-02T10:47:50Z</time>
      </trkpt>
      <trkpt lat="45.96101" lon="6.54701">
        <ele>2169.9</ele>
        <time>2026-02-02T10:47:51Z</time>
      </trkpt>
      <trkpt lat="45.96101" lon="6.54701">
        <ele>2169.9</ele>
        <time>2026-02-02T10:47:52Z</time>
      </trkpt>
      <trkpt lat="45.96101" lon="6.54701">
        <ele>2169.9</ele>
        <time>2026-02-02T10:47:53Z</time>
      </trkpt>
      <trkpt lat="45.96101" lon="6.54701">
        <ele>2169.9</ele>
        <time>2026-02-02T10:47:54Z</time>
      </trkpt>
      <trkpt lat="45.96101" lon="6.54701">
        <ele>2169.9</ele>
        <time>2026-02-02T10:47:55Z</time>
      </trkpt>
      <trkpt lat="45.96101" lon="6.54701">
        <ele>2169.9</ele>
        <time>2026-02-02T10:47:56Z</time>
      </trkpt>
      <trkpt lat="45.96101" lon="6.54701">
        <ele>2169.9</ele>
        <time>2026-02-02T10:47:57Z</time>
      </trkpt>
      <trkpt lat="45.96101" lon="6.54701">
        <ele>2169.9</ele>
        <time>2026-02-02T10:47:58Z</time>
      </trkpt>
      <trkpt lat="45.96101" lon="6.54701">
        <ele>2169.9</ele>
        <time>2026-02-02T10:47:59Z</time>
      </trkpt>
      <trkpt lat="45.96101" lon="6.54701">
        <ele>2169.9</ele>
        <time>2026-02-02T10:48:00Z</time>
      </trkpt>
      <trkpt lat="45.96101" lon="6.54701">
        <ele>2169.9</ele>
        <time>2026-02-02T10:48:01Z</time>
      </trkpt>
      <trkpt lat="45.96101" lon="6.54701">
        <ele>2169.9</ele>
        <time>2026-02-02T10:48:02Z</time>
      </trkpt>
      <trkpt lat="45.96101" lon="6.54701">
        <ele>2169.9</ele>
        <time>2026-02-02T10:48:03Z</time>
      </trkpt>
      <trkpt lat="45.96101" lon="6.54701">
        <ele>2169.9</ele>
        <time>2026-02-02T10:48:04Z</time>
      </trkpt>
      <trkpt lat="45.96101" lon="6.54701">
        <ele>2169.9</ele>
        <time>2026-02-02T10:48:05Z</time>
      </trkpt>
      <trkpt lat="45.96101" lon="6.54701">
        <ele>2169.9</ele>
        <time>2026-02-02T10:48:06Z</time>
      </trkpt>
      <trkpt lat="45.96101" lon="6.54701">
        <ele>2169.9</ele>
        <time>2026-02-02T10:48:07Z</time>
      </trkpt>
      <trkpt lat="45.96101" lon="6.54701">
        <ele>2169.9</ele>
        <time>2026-02-02T10:48:08Z</time>
      </trkpt>
      <trkpt lat="45.96101" lon="6.54701">
        <ele>2169.9</ele>
        <time>2026-02-02T10:48:09Z</time>
      </trkpt>
      <trkpt lat="45.96101" lon="6.54701">
        <ele>2169.9</ele>
        <time>2026-02-02T10:48:10Z</time>
      </trkpt>
      <trkpt lat="45.96101" lon="6.54701">
        <ele>2169.9</ele>
        <time>2026-02-02T10:48:11Z</time>
      </trkpt>
      <trkpt lat="45.96101" lon="6.54701">
        <ele>2169.9</ele>
        <time>2026-02-02T10:48:12Z</time>
      </trkpt>
      <trkpt lat="45.96101" lon="6.54701">
        <ele>2169.9</ele>
        <time>2026-02-02T10:48:13Z</time>
      </trkpt>
      <trkpt lat="45.96101" lon="6.54701">
        <ele>2169.9</ele>
        <time>2026-02-02T10:48:14Z</time>
      </trkpt>
      <trkpt lat="45.96101" lon="6.54701">
        <ele>2169.9</ele>
        <time>2026-02-02T10:48:15Z</time>
      </trkpt>
      <trkpt lat="45.96101" lon="6.54701">
        <ele>2169.9</ele>
        <time>2026-02-02T10:48:16Z</time>
      </trkpt>
      <trkpt lat="45.96101" lon="6.54701">
        <ele>2169.9</ele>
        <time>2026-02-02T10:48:17Z</time>
      </trkpt>
      <trkpt lat="45.96101" lon="6.54701">
        <ele>2169.9</ele>
        <time>2026-02-02T10:48:18Z</time>
      </trkpt>
      <trkpt lat="45.96101" lon="6.54701">
        <ele>2169.9</ele>
        <time>2026-02-02T10:48:19Z</time>
      </trkpt>
      <trkpt lat="45.96101" lon="6.54701">
        <ele>2169.9</ele>
        <time>2026-02-02T10:48:20Z</time>
      </trkpt>
      <trkpt lat="45.96101" lon="6.54701">
        <ele>2169.9</ele>
        <time>2026-02-02T10:48:21Z</time>
      </trkpt>
      <trkpt lat="45.96101" lon="6.54701">
        <ele>2169.9</ele>
        <time>2026-02-02T10:48:22Z</time>
      </trkpt>
      <trkpt lat="45.96101" lon="6.54701">
        <ele>2169.9</ele>
        <time>2026-02-02T10:48:23Z</time>
      </trkpt>
      <trkpt lat="45.96101" lon="6.54701">
        <ele>2169.9</ele>
        <time>2026-02-02T10:48:24Z</time>
      </trkpt>
      <trkpt lat="45.96101" lon="6.54701">
        <ele>2169.9</ele>
        <time>2026-02-02T10:48:25Z</time>
      </trkpt>
      <trkpt lat="45.96101" lon="6.54701">
        <ele>2169.9</ele>
        <time>2026-02-02T10:48:26Z</time>
      </trkpt>
      <trkpt lat="45.96101" lon="6.54701">
        <ele>2169.9</ele>
        <time>2026-02-02T10:48:27Z</time>
      </trkpt>
      <trkpt lat="45.96101" lon="6.54701">
        <ele>2169.9</ele>
        <time>2026-02-02T10:48:28Z</time>
      </trkpt>
      <trkpt lat="45.96101" lon="6.54701">
        <ele>2169.9</ele>
        <time>2026-02-02T10:48:29Z</time>
      </trkpt>
      <trkpt lat="45.96101" lon="6.54701">
        <ele>2169.9</ele>
        <time>2026-02-02T10:48:30Z</time>
      </trkpt>
      <trkpt lat="45.96102" lon="6.54701">
        <ele>2169.9</ele>
        <time>2026-02-02T10:48:31Z</time>
      </trkpt>
      <trkpt lat="45.96102" lon="6.54701">
        <ele>2169.9</ele>
        <time>2026-02-02T10:48:32Z</time>
      </trkpt>
      <trkpt lat="45.96102" lon="6.54701">
        <ele>2169.9</ele>
        <time>2026-02-02T10:48:33Z</time>
      </trkpt>
      <trkpt lat="45.96102" lon="6.54701">
        <ele>2169.9</ele>
        <time>2026-02-02T10:48:34Z</time>
      </trkpt>
      <trkpt lat="45.96102" lon="6.54701">
        <ele>2169.9</ele>
        <time>2026-02-02T10:48:35Z</time>
      </trkpt>
      <trkpt lat="45.96102" lon="6.54701">
        <ele>2169.9</ele>
        <time>2026-02-02T10:48:36Z</time>
      </trkpt>
      <trkpt lat="45.96102" lon="6.54701">
        <ele>2169.9</ele>
        <time>2026-02-02T10:48:37Z</time>
      </trkpt>
      <trkpt lat="45.96102" lon="6.54701">
        <ele>2169.9</ele>
        <time>2026-02-02T10:48:38Z</time>
      </trkpt>
      <trkpt lat="45.96102" lon="6.54701">
        <ele>2169.9</ele>
        <time>2026-02-02T10:48:39Z</time>
      </trkpt>
      <trkpt lat="45.96102" lon="6.54701">
        <ele>2169.9</ele>
        <time>2026-02-02T10:48:40Z</time>
      </trkpt>
      <trkpt lat="45.96102" lon="6.54701">
        <ele>2169.9</ele>
        <time>2026-02-02T10:48:41Z</time>
      </trkpt>
      <trkpt lat="45.96102" lon="6.54701">
        <ele>2169.9</ele>
        <time>2026-02-02T10:48:42Z</time>
      </trkpt>
      <trkpt lat="45.96102" lon="6.54701">
        <ele>2169.9</ele>
        <time>2026-02-02T10:48:43Z</time>
      </trkpt>
      <trkpt lat="45.96102" lon="6.54701">
        <ele>2169.9</ele>
        <time>2026-02-02T10:48:44Z</time>
      </trkpt>
      <trkpt lat="45.96102" lon="6.54701">
        <ele>2169.9</ele>
        <time>2026-02-02T10:48:45Z</time>
      </trkpt>
      <trkpt lat="45.96102" lon="6.54701">
        <ele>2169.9</ele>
        <time>2026-02-02T10:48:46Z</time>
      </trkpt>
      <trkpt lat="45.96102" lon="6.54701">
        <ele>2169.9</ele>
        <time>2026-02-02T10:48:47Z</time>
      </trkpt>
      <trkpt lat="45.96102" lon="6.54701">
        <ele>2169.9</ele>
        <time>2026-02-02T10:48:48Z</time>
      </trkpt>
      <trkpt lat="45.96102" lon="6.54701">
        <ele>2169.9</ele>
        <time>2026-02-02T10:48:49Z</time>
      </trkpt>
      <trkpt lat="45.96102" lon="6.54701">
        <ele>2169.9</ele>
        <time>2026-02-02T10:48:50Z</time>
      </trkpt>
      <trkpt lat="45.96102" lon="6.54701">
        <ele>2169.9</ele>
        <time>2026-02-02T10:48:51Z</time>
      </trkpt>
      <trkpt lat="45.96102" lon="6.54701">
        <ele>2169.9</ele>
        <time>2026-02-02T10:48:52Z</time>
      </trkpt>
      <trkpt lat="45.96102" lon="6.54701">
        <ele>2169.9</ele>
        <time>2026-02-02T10:48:53Z</time>
      </trkpt>
      <trkpt lat="45.96102" lon="6.54701">
        <ele>2169.9</ele>
        <time>2026-02-02T10:48:54Z</time>
      </trkpt>
      <trkpt lat="45.96102" lon="6.54701">
        <ele>2169.9</ele>
        <time>2026-02-02T10:48:55Z</time>
      </trkpt>
      <trkpt lat="45.96102" lon="6.54701">
        <ele>2169.9</ele>
        <time>2026-02-02T10:48:56Z</time>
      </trkpt>
      <trkpt lat="45.96102" lon="6.54701">
        <ele>2169.9</ele>
        <time>2026-02-02T10:48:57Z</time>
      </trkpt>
      <trkpt lat="45.96102" lon="6.54701">
        <ele>2169.9</ele>
        <time>2026-02-02T10:48:58Z</time>
      </trkpt>
      <trkpt lat="45.96102" lon="6.54701">
        <ele>2169.9</ele>
        <time>2026-02-02T10:48:59Z</time>
      </trkpt>
      <trkpt lat="45.96102" lon="6.54701">
        <ele>2169.9</ele>
        <time>2026-02-02T10:49:00Z</time>
      </trkpt>
      <trkpt lat="45.96102" lon="6.54701">
        <ele>2169.9</ele>
        <time>2026-02-02T10:49:01Z</time>
      </trkpt>
      <trkpt lat="45.96102" lon="6.54701">
        <ele>2169.9</ele>
        <time>2026-02-02T10:49:02Z</time>
      </trkpt>
      <trkpt lat="45.96102" lon="6.54701">
        <ele>2169.9</ele>
        <time>2026-02-02T10:49:03Z</time>
      </trkpt>
      <trkpt lat="45.96102" lon="6.54701">
        <ele>2169.9</ele>
        <time>2026-02-02T10:49:04Z</time>
      </trkpt>
      <trkpt lat="45.96102" lon="6.54702">
        <ele>2169.9</ele>
        <time>2026-02-02T10:49:05Z</time>
      </trkpt>
      <trkpt lat="45.96102" lon="6.54702">
        <ele>2169.9</ele>
        <time>2026-02-02T10:49:06Z</time>
      </trkpt>
      <trkpt lat="45.96102" lon="6.54702">
        <ele>2169.9</ele>
        <time>2026-02-02T10:49:07Z</time>
      </trkpt>
      <trkpt lat="45.96102" lon="6.54702">
        <ele>2169.9</ele>
        <time>2026-02-02T10:49:08Z</time>
      </trkpt>
      <trkpt lat="45.96102" lon="6.54702">
        <ele>2169.9</ele>
        <time>2026-02-02T10:49:09Z</time>
      </trkpt>
      <trkpt lat="45.96102" lon="6.54702">
        <ele>2169.9</ele>
        <time>2026-02-02T10:49:10Z</time>
      </trkpt>
      <trkpt lat="45.96102" lon="6.54702">
        <ele>2169.9</ele>
        <time>2026-02-02T10:49:11Z</time>
      </trkpt>
      <trkpt lat="45.96102" lon="6.54702">
        <ele>2169.9</ele>
        <time>2026-02-02T10:49:12Z</time>
      </trkpt>
      <trkpt lat="45.96102" lon="6.54702">
        <ele>2169.9</ele>
        <time>2026-02-02T10:49:13Z</time>
      </trkpt>
      <trkpt lat="45.96102" lon="6.54702">
        <ele>2169.9</ele>
        <time>2026-02-02T10:49:14Z</time>
      </trkpt>
      <trkpt lat="45.96102" lon="6.54702">
        <ele>2169.9</ele>
        <time>2026-02-02T10:49:15Z</time>
      </trkpt>
      <trkpt lat="45.96102" lon="6.54702">
        <ele>2169.9</ele>
        <time>2026-02-02T10:49:16Z</time>
      </trkpt>
      <trkpt lat="45.96102" lon="6.54702">
        <ele>2169.9</ele>
        <time>2026-02-02T10:49:17Z</time>
      </trkpt>
      <trkpt lat="45.96102" lon="6.54702">
        <ele>2169.9</ele>
        <time>2026-02-02T10:49:18Z</time>
      </trkpt>
      <trkpt lat="45.96102" lon="6.54702">
        <ele>2169.9</ele>
        <time>2026-02-02T10:49:19Z</time>
      </trkpt>
      <trkpt lat="45.96102" lon="6.54702">
        <ele>2169.9</ele>
        <time>2026-02-02T10:49:20Z</time>
      </trkpt>
      <trkpt lat="45.96102" lon="6.54702">
        <ele>2169.9</ele>
        <time>2026-02-02T10:49:21Z</time>
      </trkpt>
      <trkpt lat="45.96102" lon="6.54702">
        <ele>2169.9</ele>
        <time>2026-02-02T10:49:22Z</time>
      </trkpt>
      <trkpt lat="45.96102" lon="6.54702">
        <ele>2169.9</ele>
        <time>2026-02-02T10:49:23Z</time>
      </trkpt>
      <trkpt lat="45.96102" lon="6.54702">
        <ele>2169.9</ele>
        <time>2026-02-02T10:49:24Z</time>
      </trkpt>
      <trkpt lat="45.96102" lon="6.54702">
        <ele>2169.9</ele>
        <time>2026-02-02T10:49:25Z</time>
      </trkpt>
      <trkpt lat="45.96102" lon="6.54702">
        <ele>2169.9</ele>
        <time>2026-02-02T10:49:26Z</time>
      </trkpt>
      <trkpt lat="45.96102" lon="6.54702">
        <ele>2169.9</ele>
        <time>2026-02-02T10:49:27Z</time>
      </trkpt>
      <trkpt lat="45.96102" lon="6.54702">
        <ele>2169.9</ele>
        <time>2026-02-02T10:49:28Z</time>
      </trkpt>
      <trkpt lat="45.96102" lon="6.54702">
        <ele>2169.9</ele>
        <time>2026-02-02T10:49:29Z</time>
      </trkpt>
      <trkpt lat="45.96102" lon="6.54702">
        <ele>2169.9</ele>
        <time>2026-02-02T10:49:30Z</time>
      </trkpt>
      <trkpt lat="45.96102" lon="6.54702">
        <ele>2169.9</ele>
        <time>2026-02-02T10:49:31Z</time>
      </trkpt>
      <trkpt lat="45.96102" lon="6.54702">
        <ele>2169.9</ele>
        <time>2026-02-02T10:49:32Z</time>
      </trkpt>
      <trkpt lat="45.96102" lon="6.54702">
        <ele>2169.9</ele>
        <time>2026-02-02T10:49:33Z</time>
      </trkpt>
      <trkpt lat="45.96102" lon="6.54702">
        <ele>2169.9</ele>
        <time>2026-02-02T10:49:34Z</time>
      </trkpt>
      <trkpt lat="45.96102" lon="6.54702">
        <ele>2169.9</ele>
        <time>2026-02-02T10:49:35Z</time>
      </trkpt>
      <trkpt lat="45.96102" lon="6.54702">
        <ele>2169.9</ele>
        <time>2026-02-02T10:49:36Z</time>
      </trkpt>
      <trkpt lat="45.96102" lon="6.54702">
        <ele>2169.9</ele>
        <time>2026-02-02T10:49:37Z</time>
      </trkpt>
      <trkpt lat="45.96102" lon="6.54702">
        <ele>2169.9</ele>
        <time>2026-02-02T10:49:38Z</time>
      </trkpt>
      <trkpt lat="45.96102" lon="6.54702">
        <ele>2169.9</ele>
        <time>2026-02-02T10:49:39Z</time>
      </trkpt>
      <trkpt lat="45.96102" lon="6.54702">
        <ele>2169.9</ele>
        <time>2026-02-02T10:49:40Z</time>
      </trkpt>
      <trkpt lat="45.96102" lon="6.54702">
        <ele>2169.9</ele>
        <time>2026-02-02T10:49:41Z</time>
      </trkpt>
      <trkpt lat="45.96102" lon="6.54702">
        <ele>2169.9</ele>
        <time>2026-02-02T10:49:42Z</time>
      </trkpt>
      <trkpt lat="45.96102" lon="6.54702">
        <ele>2169.9</ele>
        <time>2026-02-02T10:49:43Z</time>
      </trkpt>
      <trkpt lat="45.96102" lon="6.54702">
        <ele>2169.9</ele>
        <time>2026-02-02T10:49:44Z</time>
      </trkpt>
      <trkpt lat="45.96102" lon="6.54702">
        <ele>2169.9</ele>
        <time>2026-02-02T10:49:45Z</time>
      </trkpt>
      <trkpt lat="45.96102" lon="6.54702">
        <ele>2169.9</ele>
        <time>2026-02-02T10:49:46Z</time>
      </trkpt>
      <trkpt lat="45.96102" lon="6.54702">
        <ele>2169.9</ele>
        <time>2026-02-02T10:49:47Z</time>
      </trkpt>
      <trkpt lat="45.96102" lon="6.54702">
        <ele>2169.9</ele>
        <time>2026-02-02T10:49:48Z</time>
      </trkpt>
      <trkpt lat="45.96102" lon="6.54702">
        <ele>2169.9</ele>
        <time>2026-02-02T10:49:49Z</time>
      </trkpt>
      <trkpt lat="45.96102" lon="6.54702">
        <ele>2169.9</ele>
        <time>2026-02-02T10:49:50Z</time>
      </trkpt>
      <trkpt lat="45.96102" lon="6.54702">
        <ele>2169.9</ele>
        <time>2026-02-02T10:49:51Z</time>
      </trkpt>
      <trkpt lat="45.96102" lon="6.54702">
        <ele>2169.9</ele>
        <time>2026-02-02T10:49:52Z</time>
      </trkpt>
      <trkpt lat="45.96102" lon="6.54702">
        <ele>2169.9</ele>
        <time>2026-02-02T10:49:53Z</time>
      </trkpt>
      <trkpt lat="45.96102" lon="6.54702">
        <ele>2169.9</ele>
        <time>2026-02-02T10:49:54Z</time>
      </trkpt>
      <trkpt lat="45.96102" lon="6.54702">
        <ele>2169.9</ele>
        <time>2026-02-02T10:49:55Z</time>
      </trkpt>
      <trkpt lat="45.96102" lon="6.54702">
        <ele>2169.9</ele>
        <time>2026-02-02T10:49:56Z</time>
      </trkpt>
      <trkpt lat="45.96102" lon="6.54702">
        <ele>2169.9</ele>
        <time>2026-02-02T10:49:57Z</time>
      </trkpt>
      <trkpt lat="45.96102" lon="6.54702">
        <ele>2169.9</ele>
        <time>2026-02-02T10:49:58Z</time>
      </trkpt>
      <trkpt lat="45.96102" lon="6.54702">
        <ele>2169.9</ele>
        <time>2026-02-02T10:49:59Z</time>
      </trkpt>
      <trkpt lat="45.96102" lon="6.54702">
        <ele>2169.9</ele>
        <time>2026-02-02T10:50:00Z</time>
      </trkpt>
      <trkpt lat="45.96102" lon="6.54702">
        <ele>2169.9</ele>
        <time>2026-02-02T10:50:01Z</time>
      </trkpt>
      <trkpt lat="45.96102" lon="6.54702">
        <ele>2169.9</ele>
        <time>2026-02-02T10:50:02Z</time>
      </trkpt>
      <trkpt lat="45.96102" lon="6.54702">
        <ele>2169.9</ele>
        <time>2026-02-02T10:50:03Z</time>
      </trkpt>
      <trkpt lat="45.96102" lon="6.54702">
        <ele>2169.9</ele>
        <time>2026-02-02T10:50:04Z</time>
      </trkpt>
      <trkpt lat="45.96102" lon="6.54702">
        <ele>2169.9</ele>
        <time>2026-02-02T10:50:05Z</time>
      </trkpt>
      <trkpt lat="45.96102" lon="6.54702">
        <ele>2169.9</ele>
        <time>2026-02-02T10:50:06Z</time>
      </trkpt>
      <trkpt lat="45.96102" lon="6.54702">
        <ele>2169.9</ele>
        <time>2026-02-02T10:50:07Z</time>
      </trkpt>
      <trkpt lat="45.96102" lon="6.54702">
        <ele>2169.9</ele>
        <time>2026-02-02T10:50:08Z</time>
      </trkpt>
      <trkpt lat="45.96102" lon="6.54702">
        <ele>2169.9</ele>
        <time>2026-02-02T10:50:09Z</time>
      </trkpt>
      <trkpt lat="45.96102" lon="6.54702">
        <ele>2169.9</ele>
        <time>2026-02-02T10:50:10Z</time>
      </trkpt>
      <trkpt lat="45.96102" lon="6.54702">
        <ele>2169.9</ele>
        <time>2026-02-02T10:50:11Z</time>
      </trkpt>
      <trkpt lat="45.96102" lon="6.54702">
        <ele>2169.9</ele>
        <time>2026-02-02T10:50:12Z</time>
      </trkpt>
      <trkpt lat="45.96102" lon="6.54702">
        <ele>2169.9</ele>
        <time>2026-02-02T10:50:13Z</time>
      </trkpt>
      <trkpt lat="45.96102" lon="6.54702">
        <ele>2169.9</ele>
        <time>2026-02-02T10:50:14Z</time>
      </trkpt>
      <trkpt lat="45.96102" lon="6.54702">
        <ele>2169.9</ele>
        <time>2026-02-02T10:50:15Z</time>
      </trkpt>
      <trkpt lat="45.96102" lon="6.54702">
        <ele>2169.9</ele>
        <time>2026-02-02T10:50:16Z</time>
      </trkpt>
      <trkpt lat="45.96102" lon="6.54702">
        <ele>2169.9</ele>
        <time>2026-02-02T10:50:17Z</time>
      </trkpt>
      <trkpt lat="45.96102" lon="6.54702">
        <ele>2169.9</ele>
        <time>2026-02-02T10:50:18Z</time>
      </trkpt>
      <trkpt lat="45.96102" lon="6.54702">
        <ele>2169.9</ele>
        <time>2026-02-02T10:50:19Z</time>
      </trkpt>
      <trkpt lat="45.96102" lon="6.54702">
        <ele>2169.9</ele>
        <time>2026-02-02T10:50:20Z</time>
      </trkpt>
      <trkpt lat="45.96102" lon="6.54702">
        <ele>2169.9</ele>
        <time>2026-02-02T10:50:21Z</time>
      </trkpt>
      <trkpt lat="45.96102" lon="6.54702">
        <ele>2169.9</ele>
        <time>2026-02-02T10:50:22Z</time>
      </trkpt>
      <trkpt lat="45.96102" lon="6.54702">
        <ele>2169.9</ele>
        <time>2026-02-02T10:50:23Z</time>
      </trkpt>
      <trkpt lat="45.96102" lon="6.54702">
        <ele>2169.9</ele>
        <time>2026-02-02T10:50:24Z</time>
      </trkpt>
      <trkpt lat="45.96102" lon="6.54702">
        <ele>2169.9</ele>
        <time>2026-02-02T10:50:25Z</time>
      </trkpt>
      <trkpt lat="45.96102" lon="6.54702">
        <ele>2169.9</ele>
        <time>2026-02-02T10:50:26Z</time>
      </trkpt>
      <trkpt lat="45.96102" lon="6.54702">
        <ele>2169.9</ele>
        <time>2026-02-02T10:50:27Z</time>
      </trkpt>
      <trkpt lat="45.96102" lon="6.54702">
        <ele>2169.9</ele>
        <time>2026-02-02T10:50:28Z</time>
      </trkpt>
      <trkpt lat="45.96102" lon="6.54702">
        <ele>2169.9</ele>
        <time>2026-02-02T10:50:29Z</time>
      </trkpt>
      <trkpt lat="45.96102" lon="6.54703">
        <ele>2169.9</ele>
        <time>2026-02-02T10:50:30Z</time>
      </trkpt>
      <trkpt lat="45.96102" lon="6.54703">
        <ele>2169.9</ele>
        <time>2026-02-02T10:50:31Z</time>
      </trkpt>
      <trkpt lat="45.96102" lon="6.54703">
        <ele>2169.9</ele>
        <time>2026-02-02T10:50:32Z</time>
      </trkpt>
      <trkpt lat="45.96102" lon="6.54703">
        <ele>2169.9</ele>
        <time>2026-02-02T10:50:33Z</time>
      </trkpt>
      <trkpt lat="45.96102" lon="6.54703">
        <ele>2169.9</ele>
        <time>2026-02-02T10:50:34Z</time>
      </trkpt>
      <trkpt lat="45.96102" lon="6.54703">
        <ele>2169.9</ele>
        <time>2026-02-02T10:50:35Z</time>
      </trkpt>
      <trkpt lat="45.96102" lon="6.54703">
        <ele>2169.9</ele>
        <time>2026-02-02T10:50:36Z</time>
      </trkpt>
      <trkpt lat="45.96102" lon="6.54703">
        <ele>2169.9</ele>
        <time>2026-02-02T10:50:37Z</time>
      </trkpt>
      <trkpt lat="45.96102" lon="6.54703">
        <ele>2169.9</ele>
        <time>2026-02-02T10:50:38Z</time>
      </trkpt>
      <trkpt lat="45.96102" lon="6.54703">
        <ele>2169.9</ele>
        <time>2026-02-02T10:50:39Z</time>
      </trkpt>
      <trkpt lat="45.96102" lon="6.54703">
        <ele>2169.9</ele>
        <time>2026-02-02T10:50:40Z</time>
      </trkpt>
      <trkpt lat="45.96102" lon="6.54703">
        <ele>2169.9</ele>
        <time>2026-02-02T10:50:41Z</time>
      </trkpt>
      <trkpt lat="45.96102" lon="6.54703">
        <ele>2169.9</ele>
        <time>2026-02-02T10:50:42Z</time>
      </trkpt>
      <trkpt lat="45.96102" lon="6.54703">
        <ele>2169.9</ele>
        <time>2026-02-02T10:50:43Z</time>
      </trkpt>
      <trkpt lat="45.96102" lon="6.54703">
        <ele>2169.9</ele>
        <time>2026-02-02T10:50:44Z</time>
      </trkpt>
      <trkpt lat="45.96102" lon="6.54703">
        <ele>2169.9</ele>
        <time>2026-02-02T10:50:45Z</time>
      </trkpt>
      <trkpt lat="45.96102" lon="6.54703">
        <ele>2169.9</ele>
        <time>2026-02-02T10:50:46Z</time>
      </trkpt>
      <trkpt lat="45.96102" lon="6.54703">
        <ele>2169.9</ele>
        <time>2026-02-02T10:50:47Z</time>
      </trkpt>
      <trkpt lat="45.96102" lon="6.54703">
        <ele>2169.9</ele>
        <time>2026-02-02T10:50:48Z</time>
      </trkpt>
      <trkpt lat="45.96102" lon="6.54703">
        <ele>2169.9</ele>
        <time>2026-02-02T10:50:49Z</time>
      </trkpt>
      <trkpt lat="45.96102" lon="6.54703">
        <ele>2169.9</ele>
        <time>2026-02-02T10:50:50Z</time>
      </trkpt>
      <trkpt lat="45.96102" lon="6.54703">
        <ele>2169.9</ele>
        <time>2026-02-02T10:50:51Z</time>
      </trkpt>
      <trkpt lat="45.96102" lon="6.54703">
        <ele>2169.9</ele>
        <time>2026-02-02T10:50:52Z</time>
      </trkpt>
      <trkpt lat="45.96102" lon="6.54703">
        <ele>2169.9</ele>
        <time>2026-02-02T10:50:53Z</time>
      </trkpt>
      <trkpt lat="45.96102" lon="6.54703">
        <ele>2169.9</ele>
        <time>2026-02-02T10:50:54Z</time>
      </trkpt>
      <trkpt lat="45.96102" lon="6.54703">
        <ele>2169.9</ele>
        <time>2026-02-02T10:50:55Z</time>
      </trkpt>
      <trkpt lat="45.96102" lon="6.54703">
        <ele>2169.9</ele>
        <time>2026-02-02T10:50:56Z</time>
      </trkpt>
      <trkpt lat="45.96102" lon="6.54703">
        <ele>2169.9</ele>
        <time>2026-02-02T10:50:57Z</time>
      </trkpt>
      <trkpt lat="45.96102" lon="6.54703">
        <ele>2169.9</ele>
        <time>2026-02-02T10:50:58Z</time>
      </trkpt>
      <trkpt lat="45.96102" lon="6.54703">
        <ele>2169.9</ele>
        <time>2026-02-02T10:50:59Z</time>
      </trkpt>
      <trkpt lat="45.96102" lon="6.54703">
        <ele>2169.9</ele>
        <time>2026-02-02T10:51:00Z</time>
      </trkpt>
      <trkpt lat="45.96102" lon="6.54703">
        <ele>2169.9</ele>
        <time>2026-02-02T10:51:01Z</time>
      </trkpt>
      <trkpt lat="45.96102" lon="6.54703">
        <ele>2169.9</ele>
        <time>2026-02-02T10:51:02Z</time>
      </trkpt>
      <trkpt lat="45.96102" lon="6.54703">
        <ele>2169.9</ele>
        <time>2026-02-02T10:51:03Z</time>
      </trkpt>
      <trkpt lat="45.96102" lon="6.54703">
        <ele>2169.9</ele>
        <time>2026-02-02T10:51:04Z</time>
      </trkpt>
      <trkpt lat="45.96102" lon="6.54703">
        <ele>2169.9</ele>
        <time>2026-02-02T10:51:05Z</time>
      </trkpt>
      <trkpt lat="45.96102" lon="6.54703">
        <ele>2169.9</ele>
        <time>2026-02-02T10:51:06Z</time>
      </trkpt>
      <trkpt lat="45.96102" lon="6.54703">
        <ele>2169.9</ele>
        <time>2026-02-02T10:51:07Z</time>
      </trkpt>
      <trkpt lat="45.96102" lon="6.54703">
        <ele>2169.9</ele>
        <time>2026-02-02T10:51:08Z</time>
      </trkpt>
      <trkpt lat="45.96102" lon="6.54703">
        <ele>2169.9</ele>
        <time>2026-02-02T10:51:09Z</time>
      </trkpt>
      <trkpt lat="45.96102" lon="6.54703">
        <ele>2169.9</ele>
        <time>2026-02-02T10:51:10Z</time>
      </trkpt>
      <trkpt lat="45.96102" lon="6.54703">
        <ele>2169.9</ele>
        <time>2026-02-02T10:51:11Z</time>
      </trkpt>
      <trkpt lat="45.96102" lon="6.54703">
        <ele>2169.9</ele>
        <time>2026-02-02T10:51:12Z</time>
      </trkpt>
      <trkpt lat="45.96102" lon="6.54703">
        <ele>2169.9</ele>
        <time>2026-02-02T10:51:13Z</time>
      </trkpt>
      <trkpt lat="45.96102" lon="6.54703">
        <ele>2169.9</ele>
        <time>2026-02-02T10:51:14Z</time>
      </trkpt>
      <trkpt lat="45.96102" lon="6.54703">
        <ele>2169.9</ele>
        <time>2026-02-02T10:51:15Z</time>
      </trkpt>
      <trkpt lat="45.96102" lon="6.54703">
        <ele>2169.9</ele>
        <time>2026-02-02T10:51:16Z</time>
      </trkpt>
      <trkpt lat="45.96102" lon="6.54703">
        <ele>2169.9</ele>
        <time>2026-02-02T10:51:17Z</time>
      </trkpt>
      <trkpt lat="45.96102" lon="6.54703">
        <ele>2169.9</ele>
        <time>2026-02-02T10:51:18Z</time>
      </trkpt>
      <trkpt lat="45.96102" lon="6.54703">
        <ele>2169.9</ele>
        <time>2026-02-02T10:51:19Z</time>
      </trkpt>
      <trkpt lat="45.96102" lon="6.54703">
        <ele>2169.9</ele>
        <time>2026-02-02T10:51:20Z</time>
      </trkpt>
      <trkpt lat="45.96102" lon="6.54703">
        <ele>2169.9</ele>
        <time>2026-02-02T10:51:21Z</time>
      </trkpt>
      <trkpt lat="45.96102" lon="6.54703">
        <ele>2169.9</ele>
        <time>2026-02-02T10:51:22Z</time>
      </trkpt>
      <trkpt lat="45.96102" lon="6.54703">
        <ele>2169.9</ele>
        <time>2026-02-02T10:51:23Z</time>
      </trkpt>
      <trkpt lat="45.96102" lon="6.54703">
        <ele>2169.9</ele>
        <time>2026-02-02T10:51:24Z</time>
      </trkpt>
      <trkpt lat="45.96102" lon="6.54703">
        <ele>2169.9</ele>
        <time>2026-02-02T10:51:25Z</time>
      </trkpt>
      <trkpt lat="45.96102" lon="6.54703">
        <ele>2169.9</ele>
        <time>2026-02-02T10:51:26Z</time>
      </trkpt>
      <trkpt lat="45.96102" lon="6.54703">
        <ele>2169.9</ele>
        <time>2026-02-02T10:51:27Z</time>
      </trkpt>
      <trkpt lat="45.96102" lon="6.54703">
        <ele>2169.9</ele>
        <time>2026-02-02T10:51:28Z</time>
      </trkpt>
      <trkpt lat="45.96102" lon="6.54703">
        <ele>2169.9</ele>
        <time>2026-02-02T10:51:29Z</time>
      </trkpt>
      <trkpt lat="45.96102" lon="6.54703">
        <ele>2169.9</ele>
        <time>2026-02-02T10:51:30Z</time>
      </trkpt>
      <trkpt lat="45.96102" lon="6.54703">
        <ele>2169.9</ele>
        <time>2026-02-02T10:51:31Z</time>
      </trkpt>
      <trkpt lat="45.96102" lon="6.54703">
        <ele>2169.9</ele>
        <time>2026-02-02T10:51:32Z</time>
      </trkpt>
      <trkpt lat="45.96102" lon="6.54703">
        <ele>2169.9</ele>
        <time>2026-02-02T10:51:33Z</time>
      </trkpt>
      <trkpt lat="45.96102" lon="6.54703">
        <ele>2169.9</ele>
        <time>2026-02-02T10:51:34Z</time>
      </trkpt>
      <trkpt lat="45.96102" lon="6.54703">
        <ele>2169.9</ele>
        <time>2026-02-02T10:51:35Z</time>
      </trkpt>
      <trkpt lat="45.96102" lon="6.54703">
        <ele>2169.9</ele>
        <time>2026-02-02T10:51:36Z</time>
      </trkpt>
      <trkpt lat="45.96102" lon="6.54703">
        <ele>2169.9</ele>
        <time>2026-02-02T10:51:37Z</time>
      </trkpt>
      <trkpt lat="45.96102" lon="6.54703">
        <ele>2169.9</ele>
        <time>2026-02-02T10:51:38Z</time>
      </trkpt>
      <trkpt lat="45.96102" lon="6.54703">
        <ele>2169.9</ele>
        <time>2026-02-02T10:51:39Z</time>
      </trkpt>
      <trkpt lat="45.96102" lon="6.54703">
        <ele>2169.9</ele>
        <time>2026-02-02T10:51:40Z</time>
      </trkpt>
      <trkpt lat="45.96102" lon="6.54703">
        <ele>2169.9</ele>
        <time>2026-02-02T10:51:41Z</time>
      </trkpt>
      <trkpt lat="45.96102" lon="6.54703">
        <ele>2169.9</ele>
        <time>2026-02-02T10:51:42Z</time>
      </trkpt>
      <trkpt lat="45.96102" lon="6.54703">
        <ele>2169.9</ele>
        <time>2026-02-02T10:51:43Z</time>
      </trkpt>
      <trkpt lat="45.96102" lon="6.54703">
        <ele>2169.9</ele>
        <time>2026-02-02T10:51:44Z</time>
      </trkpt>
      <trkpt lat="45.96102" lon="6.54703">
        <ele>2169.9</ele>
        <time>2026-02-02T10:51:45Z</time>
      </trkpt>
      <trkpt lat="45.96102" lon="6.54703">
        <ele>2169.9</ele>
        <time>2026-02-02T10:51:46Z</time>
      </trkpt>
      <trkpt lat="45.96102" lon="6.54703">
        <ele>2169.9</ele>
        <time>2026-02-02T10:51:47Z</time>
      </trkpt>
      <trkpt lat="45.96102" lon="6.54703">
        <ele>2169.9</ele>
        <time>2026-02-02T10:51:48Z</time>
      </trkpt>
      <trkpt lat="45.96102" lon="6.54703">
        <ele>2169.9</ele>
        <time>2026-02-02T10:51:49Z</time>
      </trkpt>
      <trkpt lat="45.96102" lon="6.54703">
        <ele>2169.9</ele>
        <time>2026-02-02T10:51:50Z</time>
      </trkpt>
      <trkpt lat="45.96102" lon="6.54703">
        <ele>2169.9</ele>
        <time>2026-02-02T10:51:51Z</time>
      </trkpt>
      <trkpt lat="45.96102" lon="6.54703">
        <ele>2169.9</ele>
        <time>2026-02-02T10:51:52Z</time>
      </trkpt>
      <trkpt lat="45.96102" lon="6.54703">
        <ele>2169.9</ele>
        <time>2026-02-02T10:51:53Z</time>
      </trkpt>
      <trkpt lat="45.96102" lon="6.54703">
        <ele>2169.9</ele>
        <time>2026-02-02T10:51:54Z</time>
      </trkpt>
      <trkpt lat="45.96102" lon="6.54704">
        <ele>2169.9</ele>
        <time>2026-02-02T10:51:55Z</time>
      </trkpt>
      <trkpt lat="45.96102" lon="6.54704">
        <ele>2169.9</ele>
        <time>2026-02-02T10:51:56Z</time>
      </trkpt>
      <trkpt lat="45.96102" lon="6.54704">
        <ele>2169.9</ele>
        <time>2026-02-02T10:51:57Z</time>
      </trkpt>
      <trkpt lat="45.96102" lon="6.54704">
        <ele>2169.9</ele>
        <time>2026-02-02T10:51:58Z</time>
      </trkpt>
      <trkpt lat="45.96102" lon="6.54704">
        <ele>2169.9</ele>
        <time>2026-02-02T10:51:59Z</time>
      </trkpt>
      <trkpt lat="45.96102" lon="6.54704">
        <ele>2169.9</ele>
        <time>2026-02-02T10:52:00Z</time>
      </trkpt>
      <trkpt lat="45.96102" lon="6.54704">
        <ele>2169.9</ele>
        <time>2026-02-02T10:52:01Z</time>
      </trkpt>
      <trkpt lat="45.96102" lon="6.54704">
        <ele>2169.9</ele>
        <time>2026-02-02T10:52:02Z</time>
      </trkpt>
      <trkpt lat="45.96102" lon="6.54704">
        <ele>2169.9</ele>
        <time>2026-02-02T10:52:03Z</time>
      </trkpt>
      <trkpt lat="45.96102" lon="6.54704">
        <ele>2169.9</ele>
        <time>2026-02-02T10:52:04Z</time>
      </trkpt>
      <trkpt lat="45.96102" lon="6.54704">
        <ele>2169.9</ele>
        <time>2026-02-02T10:52:05Z</time>
      </trkpt>
      <trkpt lat="45.96102" lon="6.54704">
        <ele>2169.9</ele>
        <time>2026-02-02T10:52:06Z</time>
      </trkpt>
      <trkpt lat="45.96102" lon="6.54704">
        <ele>2169.9</ele>
        <time>2026-02-02T10:52:07Z</time>
      </trkpt>
      <trkpt lat="45.96102" lon="6.54704">
        <ele>2169.9</ele>
        <time>2026-02-02T10:52:08Z</time>
      </trkpt>
      <trkpt lat="45.96102" lon="6.54704">
        <ele>2169.9</ele>
        <time>2026-02-02T10:52:09Z</time>
      </trkpt>
      <trkpt lat="45.96102" lon="6.54704">
        <ele>2169.9</ele>
        <time>2026-02-02T10:52:10Z</time>
      </trkpt>
      <trkpt lat="45.96102" lon="6.54704">
        <ele>2169.9</ele>
        <time>2026-02-02T10:52:11Z</time>
      </trkpt>
      <trkpt lat="45.96102" lon="6.54704">
        <ele>2169.9</ele>
        <time>2026-02-02T10:52:12Z</time>
      </trkpt>
      <trkpt lat="45.96102" lon="6.54704">
        <ele>2170.8</ele>
        <time>2026-02-02T10:52:13Z</time>
      </trkpt>
      <trkpt lat="45.96102" lon="6.54704">
        <ele>2170.8</ele>
        <time>2026-02-02T10:52:14Z</time>
      </trkpt>
      <trkpt lat="45.96103" lon="6.54704">
        <ele>2170.8</ele>
        <time>2026-02-02T10:52:15Z</time>
      </trkpt>
      <trkpt lat="45.96103" lon="6.54704">
        <ele>2170.8</ele>
        <time>2026-02-02T10:52:16Z</time>
      </trkpt>
      <trkpt lat="45.96103" lon="6.54704">
        <ele>2170.8</ele>
        <time>2026-02-02T10:52:17Z</time>
      </trkpt>
      <trkpt lat="45.96103" lon="6.54704">
        <ele>2170.8</ele>
        <time>2026-02-02T10:52:18Z</time>
      </trkpt>
      <trkpt lat="45.96103" lon="6.54704">
        <ele>2170.8</ele>
        <time>2026-02-02T10:52:19Z</time>
      </trkpt>
      <trkpt lat="45.96103" lon="6.54704">
        <ele>2170.8</ele>
        <time>2026-02-02T10:52:20Z</time>
      </trkpt>
      <trkpt lat="45.96103" lon="6.54704">
        <ele>2170.8</ele>
        <time>2026-02-02T10:52:21Z</time>
      </trkpt>
      <trkpt lat="45.96103" lon="6.54704">
        <ele>2170.8</ele>
        <time>2026-02-02T10:52:22Z</time>
      </trkpt>
      <trkpt lat="45.96103" lon="6.54704">
        <ele>2170.8</ele>
        <time>2026-02-02T10:52:23Z</time>
      </trkpt>
      <trkpt lat="45.96103" lon="6.54704">
        <ele>2170.8</ele>
        <time>2026-02-02T10:52:24Z</time>
      </trkpt>
      <trkpt lat="45.96103" lon="6.54704">
        <ele>2170.8</ele>
        <time>2026-02-02T10:52:25Z</time>
      </trkpt>
      <trkpt lat="45.96103" lon="6.54704">
        <ele>2170.8</ele>
        <time>2026-02-02T10:52:26Z</time>
      </trkpt>
      <trkpt lat="45.96103" lon="6.54704">
        <ele>2170.8</ele>
        <time>2026-02-02T10:52:27Z</time>
      </trkpt>
      <trkpt lat="45.96103" lon="6.54704">
        <ele>2170.8</ele>
        <time>2026-02-02T10:52:28Z</time>
      </trkpt>
      <trkpt lat="45.96103" lon="6.54704">
        <ele>2170.8</ele>
        <time>2026-02-02T10:52:29Z</time>
      </trkpt>
      <trkpt lat="45.96103" lon="6.54704">
        <ele>2170.8</ele>
        <time>2026-02-02T10:52:30Z</time>
      </trkpt>
      <trkpt lat="45.96103" lon="6.54704">
        <ele>2170.8</ele>
        <time>2026-02-02T10:52:31Z</time>
      </trkpt>
      <trkpt lat="45.96103" lon="6.54704">
        <ele>2170.8</ele>
        <time>2026-02-02T10:52:32Z</time>
      </trkpt>
      <trkpt lat="45.96103" lon="6.54704">
        <ele>2170.8</ele>
        <time>2026-02-02T10:52:33Z</time>
      </trkpt>
      <trkpt lat="45.96103" lon="6.54704">
        <ele>2170.8</ele>
        <time>2026-02-02T10:52:34Z</time>
      </trkpt>
      <trkpt lat="45.96103" lon="6.54704">
        <ele>2170.8</ele>
        <time>2026-02-02T10:52:35Z</time>
      </trkpt>
      <trkpt lat="45.96103" lon="6.54704">
        <ele>2170.8</ele>
        <time>2026-02-02T10:52:36Z</time>
      </trkpt>
      <trkpt lat="45.96103" lon="6.54704">
        <ele>2170.8</ele>
        <time>2026-02-02T10:52:37Z</time>
      </trkpt>
      <trkpt lat="45.96103" lon="6.54704">
        <ele>2170.2</ele>
        <time>2026-02-02T10:52:38Z</time>
      </trkpt>
      <trkpt lat="45.96103" lon="6.54704">
        <ele>2170.2</ele>
        <time>2026-02-02T10:52:39Z</time>
      </trkpt>
      <trkpt lat="45.96103" lon="6.54704">
        <ele>2170.2</ele>
        <time>2026-02-02T10:52:40Z</time>
      </trkpt>
      <trkpt lat="45.96103" lon="6.54704">
        <ele>2170.2</ele>
        <time>2026-02-02T10:52:41Z</time>
      </trkpt>
      <trkpt lat="45.96103" lon="6.54704">
        <ele>2170.2</ele>
        <time>2026-02-02T10:52:42Z</time>
      </trkpt>
      <trkpt lat="45.96103" lon="6.54704">
        <ele>2170.2</ele>
        <time>2026-02-02T10:52:43Z</time>
      </trkpt>
      <trkpt lat="45.96103" lon="6.54704">
        <ele>2170.2</ele>
        <time>2026-02-02T10:52:44Z</time>
      </trkpt>
      <trkpt lat="45.96103" lon="6.54704">
        <ele>2170.2</ele>
        <time>2026-02-02T10:52:45Z</time>
      </trkpt>
      <trkpt lat="45.96103" lon="6.54704">
        <ele>2170.2</ele>
        <time>2026-02-02T10:52:46Z</time>
      </trkpt>
      <trkpt lat="45.96103" lon="6.54704">
        <ele>2170.2</ele>
        <time>2026-02-02T10:52:47Z</time>
      </trkpt>
      <trkpt lat="45.96103" lon="6.54704">
        <ele>2170.2</ele>
        <time>2026-02-02T10:52:48Z</time>
      </trkpt>
      <trkpt lat="45.96103" lon="6.54704">
        <ele>2170.2</ele>
        <time>2026-02-02T10:52:49Z</time>
      </trkpt>
      <trkpt lat="45.96103" lon="6.54704">
        <ele>2170.2</ele>
        <time>2026-02-02T10:52:50Z</time>
      </trkpt>
      <trkpt lat="45.96103" lon="6.54704">
        <ele>2170.2</ele>
        <time>2026-02-02T10:52:51Z</time>
      </trkpt>
      <trkpt lat="45.96103" lon="6.54704">
        <ele>2170.2</ele>
        <time>2026-02-02T10:52:52Z</time>
      </trkpt>
      <trkpt lat="45.96103" lon="6.54704">
        <ele>2170.2</ele>
        <time>2026-02-02T10:52:53Z</time>
      </trkpt>
      <trkpt lat="45.96103" lon="6.54704">
        <ele>2170.2</ele>
        <time>2026-02-02T10:52:54Z</time>
      </trkpt>
      <trkpt lat="45.96103" lon="6.54704">
        <ele>2170.2</ele>
        <time>2026-02-02T10:52:55Z</time>
      </trkpt>
      <trkpt lat="45.96103" lon="6.54704">
        <ele>2170.2</ele>
        <time>2026-02-02T10:52:56Z</time>
      </trkpt>
      <trkpt lat="45.96103" lon="6.54704">
        <ele>2170.2</ele>
        <time>2026-02-02T10:52:57Z</time>
      </trkpt>
      <trkpt lat="45.96103" lon="6.54704">
        <ele>2170.2</ele>
        <time>2026-02-02T10:52:58Z</time>
      </trkpt>
      <trkpt lat="45.96103" lon="6.54704">
        <ele>2170.2</ele>
        <time>2026-02-02T10:52:59Z</time>
      </trkpt>
      <trkpt lat="45.96103" lon="6.54704">
        <ele>2170.2</ele>
        <time>2026-02-02T10:53:00Z</time>
      </trkpt>
      <trkpt lat="45.96103" lon="6.54704">
        <ele>2170.2</ele>
        <time>2026-02-02T10:53:01Z</time>
      </trkpt>
      <trkpt lat="45.96103" lon="6.54704">
        <ele>2170.2</ele>
        <time>2026-02-02T10:53:02Z</time>
      </trkpt>
      <trkpt lat="45.96103" lon="6.54704">
        <ele>2170.2</ele>
        <time>2026-02-02T10:53:03Z</time>
      </trkpt>
      <trkpt lat="45.96103" lon="6.54704">
        <ele>2170.2</ele>
        <time>2026-02-02T10:53:04Z</time>
      </trkpt>
      <trkpt lat="45.96103" lon="6.54704">
        <ele>2170.2</ele>
        <time>2026-02-02T10:53:05Z</time>
      </trkpt>
      <trkpt lat="45.96103" lon="6.54704">
        <ele>2170.2</ele>
        <time>2026-02-02T10:53:06Z</time>
      </trkpt>
      <trkpt lat="45.96103" lon="6.54704">
        <ele>2170.2</ele>
        <time>2026-02-02T10:53:07Z</time>
      </trkpt>
      <trkpt lat="45.96103" lon="6.54704">
        <ele>2170.2</ele>
        <time>2026-02-02T10:53:08Z</time>
      </trkpt>
      <trkpt lat="45.96103" lon="6.54704">
        <ele>2170.2</ele>
        <time>2026-02-02T10:53:09Z</time>
      </trkpt>
      <trkpt lat="45.96103" lon="6.54704">
        <ele>2170.2</ele>
        <time>2026-02-02T10:53:10Z</time>
      </trkpt>
      <trkpt lat="45.96103" lon="6.54704">
        <ele>2170.2</ele>
        <time>2026-02-02T10:53:11Z</time>
      </trkpt>
      <trkpt lat="45.96103" lon="6.54704">
        <ele>2170.2</ele>
        <time>2026-02-02T10:53:12Z</time>
      </trkpt>
      <trkpt lat="45.96103" lon="6.54704">
        <ele>2170.2</ele>
        <time>2026-02-02T10:53:13Z</time>
      </trkpt>
      <trkpt lat="45.96103" lon="6.54704">
        <ele>2170.2</ele>
        <time>2026-02-02T10:53:14Z</time>
      </trkpt>
      <trkpt lat="45.96103" lon="6.54704">
        <ele>2170.2</ele>
        <time>2026-02-02T10:53:15Z</time>
      </trkpt>
      <trkpt lat="45.96103" lon="6.54704">
        <ele>2170.2</ele>
        <time>2026-02-02T10:53:16Z</time>
      </trkpt>
      <trkpt lat="45.96103" lon="6.54704">
        <ele>2170.2</ele>
        <time>2026-02-02T10:53:17Z</time>
      </trkpt>
      <trkpt lat="45.96103" lon="6.54704">
        <ele>2170.2</ele>
        <time>2026-02-02T10:53:18Z</time>
      </trkpt>
      <trkpt lat="45.96103" lon="6.54704">
        <ele>2170.2</ele>
        <time>2026-02-02T10:53:19Z</time>
      </trkpt>
      <trkpt lat="45.96103" lon="6.54704">
        <ele>2170.2</ele>
        <time>2026-02-02T10:53:20Z</time>
      </trkpt>
      <trkpt lat="45.96103" lon="6.54705">
        <ele>2170.2</ele>
        <time>2026-02-02T10:53:21Z</time>
      </trkpt>
      <trkpt lat="45.96103" lon="6.54705">
        <ele>2170.2</ele>
        <time>2026-02-02T10:53:22Z</time>
      </trkpt>
      <trkpt lat="45.96103" lon="6.54705">
        <ele>2170.2</ele>
        <time>2026-02-02T10:53:23Z</time>
      </trkpt>
      <trkpt lat="45.96103" lon="6.54705">
        <ele>2170.2</ele>
        <time>2026-02-02T10:53:24Z</time>
      </trkpt>
      <trkpt lat="45.96103" lon="6.54705">
        <ele>2170.2</ele>
        <time>2026-02-02T10:53:25Z</time>
      </trkpt>
      <trkpt lat="45.96103" lon="6.54705">
        <ele>2170.2</ele>
        <time>2026-02-02T10:53:26Z</time>
      </trkpt>
      <trkpt lat="45.96103" lon="6.54705">
        <ele>2170.2</ele>
        <time>2026-02-02T10:53:27Z</time>
      </trkpt>
      <trkpt lat="45.96103" lon="6.54705">
        <ele>2170.2</ele>
        <time>2026-02-02T10:53:28Z</time>
      </trkpt>
      <trkpt lat="45.96103" lon="6.54705">
        <ele>2170.2</ele>
        <time>2026-02-02T10:53:29Z</time>
      </trkpt>
      <trkpt lat="45.96103" lon="6.54705">
        <ele>2170.2</ele>
        <time>2026-02-02T10:53:30Z</time>
      </trkpt>
      <trkpt lat="45.96103" lon="6.54705">
        <ele>2170.2</ele>
        <time>2026-02-02T10:53:31Z</time>
      </trkpt>
      <trkpt lat="45.96103" lon="6.54705">
        <ele>2170.2</ele>
        <time>2026-02-02T10:53:32Z</time>
      </trkpt>
      <trkpt lat="45.96103" lon="6.54705">
        <ele>2170.2</ele>
        <time>2026-02-02T10:53:33Z</time>
      </trkpt>
      <trkpt lat="45.96103" lon="6.54706">
        <ele>2170.2</ele>
        <time>2026-02-02T10:53:34Z</time>
      </trkpt>
      <trkpt lat="45.96104" lon="6.54707">
        <ele>2170.2</ele>
        <time>2026-02-02T10:53:35Z</time>
      </trkpt>
      <trkpt lat="45.96105" lon="6.54708">
        <ele>2171.1</ele>
        <time>2026-02-02T10:53:36Z</time>
      </trkpt>
      <trkpt lat="45.96105" lon="6.54709">
        <ele>2171.1</ele>
        <time>2026-02-02T10:53:37Z</time>
      </trkpt>
      <trkpt lat="45.96106" lon="6.5471">
        <ele>2170.5</ele>
        <time>2026-02-02T10:53:38Z</time>
      </trkpt>
      <trkpt lat="45.96107" lon="6.54712">
        <ele>2170.5</ele>
        <time>2026-02-02T10:53:39Z</time>
      </trkpt>
      <trkpt lat="45.96107" lon="6.54714">
        <ele>2171.4</ele>
        <time>2026-02-02T10:53:40Z</time>
      </trkpt>
      <trkpt lat="45.96108" lon="6.54715">
        <ele>2171.4</ele>
        <time>2026-02-02T10:53:41Z</time>
      </trkpt>
      <trkpt lat="45.96108" lon="6.54716">
        <ele>2171.4</ele>
        <time>2026-02-02T10:53:42Z</time>
      </trkpt>
      <trkpt lat="45.96108" lon="6.54717">
        <ele>2172.3</ele>
        <time>2026-02-02T10:53:43Z</time>
      </trkpt>
      <trkpt lat="45.96109" lon="6.54718">
        <ele>2171.6</ele>
        <time>2026-02-02T10:53:44Z</time>
      </trkpt>
      <trkpt lat="45.96109" lon="6.5472">
        <ele>2171.6</ele>
        <time>2026-02-02T10:53:45Z</time>
      </trkpt>
      <trkpt lat="45.9611" lon="6.54721">
        <ele>2172.4</ele>
        <time>2026-02-02T10:53:46Z</time>
      </trkpt>
      <trkpt lat="45.96111" lon="6.54723">
        <ele>2172.4</ele>
        <time>2026-02-02T10:53:47Z</time>
      </trkpt>
      <trkpt lat="45.96111" lon="6.54724">
        <ele>2172.4</ele>
        <time>2026-02-02T10:53:48Z</time>
      </trkpt>
      <trkpt lat="45.96111" lon="6.54725">
        <ele>2173.3</ele>
        <time>2026-02-02T10:53:49Z</time>
      </trkpt>
      <trkpt lat="45.96112" lon="6.54726">
        <ele>2172.6</ele>
        <time>2026-02-02T10:53:50Z</time>
      </trkpt>
      <trkpt lat="45.96113" lon="6.54728">
        <ele>2172.6</ele>
        <time>2026-02-02T10:53:52Z</time>
      </trkpt>
      <trkpt lat="45.96113" lon="6.54729">
        <ele>2172.6</ele>
        <time>2026-02-02T10:53:53Z</time>
      </trkpt>
      <trkpt lat="45.96114" lon="6.5473">
        <ele>2173.4</ele>
        <time>2026-02-02T10:53:54Z</time>
      </trkpt>
      <trkpt lat="45.96114" lon="6.54731">
        <ele>2173.4</ele>
        <time>2026-02-02T10:53:55Z</time>
      </trkpt>
      <trkpt lat="45.96114" lon="6.54732">
        <ele>2173.4</ele>
        <time>2026-02-02T10:53:56Z</time>
      </trkpt>
      <trkpt lat="45.96115" lon="6.54733">
        <ele>2172.8</ele>
        <time>2026-02-02T10:53:57Z</time>
      </trkpt>
      <trkpt lat="45.96115" lon="6.54735">
        <ele>2173.6</ele>
        <time>2026-02-02T10:53:58Z</time>
      </trkpt>
      <trkpt lat="45.96115" lon="6.54736">
        <ele>2173.6</ele>
        <time>2026-02-02T10:53:59Z</time>
      </trkpt>
      <trkpt lat="45.96116" lon="6.54737">
        <ele>2173.6</ele>
        <time>2026-02-02T10:54:00Z</time>
      </trkpt>
      <trkpt lat="45.96116" lon="6.54738">
        <ele>2173.6</ele>
        <time>2026-02-02T10:54:01Z</time>
      </trkpt>
      <trkpt lat="45.96116" lon="6.54739">
        <ele>2174.4</ele>
        <time>2026-02-02T10:54:02Z</time>
      </trkpt>
      <trkpt lat="45.96117" lon="6.5474">
        <ele>2174.4</ele>
        <time>2026-02-02T10:54:03Z</time>
      </trkpt>
      <trkpt lat="45.96117" lon="6.54741">
        <ele>2174.4</ele>
        <time>2026-02-02T10:54:04Z</time>
      </trkpt>
      <trkpt lat="45.96118" lon="6.54742">
        <ele>2173.8</ele>
        <time>2026-02-02T10:54:05Z</time>
      </trkpt>
      <trkpt lat="45.96118" lon="6.54743">
        <ele>2174.6</ele>
        <time>2026-02-02T10:54:06Z</time>
      </trkpt>
      <trkpt lat="45.96119" lon="6.54743">
        <ele>2174.6</ele>
        <time>2026-02-02T10:54:07Z</time>
      </trkpt>
      <trkpt lat="45.96119" lon="6.54745">
        <ele>2174.6</ele>
        <time>2026-02-02T10:54:08Z</time>
      </trkpt>
      <trkpt lat="45.9612" lon="6.54746">
        <ele>2174.6</ele>
        <time>2026-02-02T10:54:09Z</time>
      </trkpt>
      <trkpt lat="45.96121" lon="6.54747">
        <ele>2174.9</ele>
        <time>2026-02-02T10:54:10Z</time>
      </trkpt>
      <trkpt lat="45.96121" lon="6.54748">
        <ele>2174.9</ele>
        <time>2026-02-02T10:54:11Z</time>
      </trkpt>
      <trkpt lat="45.96121" lon="6.5475">
        <ele>2174.9</ele>
        <time>2026-02-02T10:54:12Z</time>
      </trkpt>
      <trkpt lat="45.96121" lon="6.54751">
        <ele>2174.9</ele>
        <time>2026-02-02T10:54:13Z</time>
      </trkpt>
      <trkpt lat="45.96121" lon="6.54751">
        <ele>2175.8</ele>
        <time>2026-02-02T10:54:14Z</time>
      </trkpt>
      <trkpt lat="45.9612" lon="6.54751">
        <ele>2176.4</ele>
        <time>2026-02-02T10:54:15Z</time>
      </trkpt>
      <trkpt lat="45.96119" lon="6.54751">
        <ele>2176.4</ele>
        <time>2026-02-02T10:54:16Z</time>
      </trkpt>
      <trkpt lat="45.96118" lon="6.54751">
        <ele>2175.5</ele>
        <time>2026-02-02T10:54:17Z</time>
      </trkpt>
      <trkpt lat="45.96118" lon="6.5475">
        <ele>2175.5</ele>
        <time>2026-02-02T10:54:18Z</time>
      </trkpt>
      <trkpt lat="45.96119" lon="6.5475">
        <ele>2175.5</ele>
        <time>2026-02-02T10:54:19Z</time>
      </trkpt>
      <trkpt lat="45.96119" lon="6.54749">
        <ele>2175.5</ele>
        <time>2026-02-02T10:54:20Z</time>
      </trkpt>
      <trkpt lat="45.96119" lon="6.54749">
        <ele>2175.5</ele>
        <time>2026-02-02T10:54:21Z</time>
      </trkpt>
      <trkpt lat="45.96119" lon="6.54749">
        <ele>2175.5</ele>
        <time>2026-02-02T10:54:22Z</time>
      </trkpt>
      <trkpt lat="45.96118" lon="6.54749">
        <ele>2175.5</ele>
        <time>2026-02-02T10:54:23Z</time>
      </trkpt>
      <trkpt lat="45.96118" lon="6.54748">
        <ele>2175.5</ele>
        <time>2026-02-02T10:54:24Z</time>
      </trkpt>
      <trkpt lat="45.96118" lon="6.54748">
        <ele>2175.5</ele>
        <time>2026-02-02T10:54:25Z</time>
      </trkpt>
      <trkpt lat="45.96118" lon="6.54748">
        <ele>2175.5</ele>
        <time>2026-02-02T10:54:26Z</time>
      </trkpt>
      <trkpt lat="45.96118" lon="6.54748">
        <ele>2175.5</ele>
        <time>2026-02-02T10:54:27Z</time>
      </trkpt>
      <trkpt lat="45.96118" lon="6.54748">
        <ele>2175.5</ele>
        <time>2026-02-02T10:54:28Z</time>
      </trkpt>
      <trkpt lat="45.96118" lon="6.54748">
        <ele>2175.5</ele>
        <time>2026-02-02T10:54:29Z</time>
      </trkpt>
      <trkpt lat="45.96118" lon="6.54748">
        <ele>2175.5</ele>
        <time>2026-02-02T10:54:30Z</time>
      </trkpt>
      <trkpt lat="45.96118" lon="6.54748">
        <ele>2175.5</ele>
        <time>2026-02-02T10:54:31Z</time>
      </trkpt>
      <trkpt lat="45.96118" lon="6.54748">
        <ele>2175.5</ele>
        <time>2026-02-02T10:54:32Z</time>
      </trkpt>
      <trkpt lat="45.96118" lon="6.54748">
        <ele>2175.5</ele>
        <time>2026-02-02T10:54:33Z</time>
      </trkpt>
      <trkpt lat="45.96116" lon="6.54748">
        <ele>2176.1</ele>
        <time>2026-02-02T10:54:34Z</time>
      </trkpt>
      <trkpt lat="45.96115" lon="6.54748">
        <ele>2176.1</ele>
        <time>2026-02-02T10:54:36Z</time>
      </trkpt>
      <trkpt lat="45.96114" lon="6.54749">
        <ele>2176.8</ele>
        <time>2026-02-02T10:54:37Z</time>
      </trkpt>
      <trkpt lat="45.96113" lon="6.54749">
        <ele>2176.8</ele>
        <time>2026-02-02T10:54:38Z</time>
      </trkpt>
      <trkpt lat="45.96112" lon="6.54749">
        <ele>2176.8</ele>
        <time>2026-02-02T10:54:39Z</time>
      </trkpt>
      <trkpt lat="45.96111" lon="6.54749">
        <ele>2177.5</ele>
        <time>2026-02-02T10:54:40Z</time>
      </trkpt>
      <trkpt lat="45.9611" lon="6.5475">
        <ele>2177.5</ele>
        <time>2026-02-02T10:54:41Z</time>
      </trkpt>
      <trkpt lat="45.9611" lon="6.5475">
        <ele>2177.5</ele>
        <time>2026-02-02T10:54:42Z</time>
      </trkpt>
      <trkpt lat="45.96109" lon="6.5475">
        <ele>2177.5</ele>
        <time>2026-02-02T10:54:43Z</time>
      </trkpt>
      <trkpt lat="45.96108" lon="6.5475">
        <ele>2178.2</ele>
        <time>2026-02-02T10:54:44Z</time>
      </trkpt>
      <trkpt lat="45.96107" lon="6.54751">
        <ele>2178.2</ele>
        <time>2026-02-02T10:54:45Z</time>
      </trkpt>
      <trkpt lat="45.96106" lon="6.54751">
        <ele>2179.1</ele>
        <time>2026-02-02T10:54:46Z</time>
      </trkpt>
      <trkpt lat="45.96105" lon="6.54751">
        <ele>2179.9</ele>
        <time>2026-02-02T10:54:47Z</time>
      </trkpt>
      <trkpt lat="45.96104" lon="6.54751">
        <ele>2179.9</ele>
        <time>2026-02-02T10:54:48Z</time>
      </trkpt>
      <trkpt lat="45.96103" lon="6.54752">
        <ele>2179.9</ele>
        <time>2026-02-02T10:54:49Z</time>
      </trkpt>
      <trkpt lat="45.96102" lon="6.54752">
        <ele>2180.6</ele>
        <time>2026-02-02T10:54:50Z</time>
      </trkpt>
      <trkpt lat="45.96101" lon="6.54753">
        <ele>2180.6</ele>
        <time>2026-02-02T10:54:51Z</time>
      </trkpt>
      <trkpt lat="45.961" lon="6.54753">
        <ele>2180.6</ele>
        <time>2026-02-02T10:54:52Z</time>
      </trkpt>
      <trkpt lat="45.96099" lon="6.54754">
        <ele>2181.3</ele>
        <time>2026-02-02T10:54:53Z</time>
      </trkpt>
      <trkpt lat="45.96099" lon="6.54755">
        <ele>2182.3</ele>
        <time>2026-02-02T10:54:54Z</time>
      </trkpt>
      <trkpt lat="45.96099" lon="6.54757">
        <ele>2182.3</ele>
        <time>2026-02-02T10:54:55Z</time>
      </trkpt>
      <trkpt lat="45.961" lon="6.54758">
        <ele>2181.6</ele>
        <time>2026-02-02T10:54:56Z</time>
      </trkpt>
      <trkpt lat="45.96101" lon="6.54759">
        <ele>2181.6</ele>
        <time>2026-02-02T10:54:57Z</time>
      </trkpt>
      <trkpt lat="45.96101" lon="6.5476">
        <ele>2182.5</ele>
        <time>2026-02-02T10:54:58Z</time>
      </trkpt>
      <trkpt lat="45.96102" lon="6.54762">
        <ele>2182.5</ele>
        <time>2026-02-02T10:54:59Z</time>
      </trkpt>
      <trkpt lat="45.96102" lon="6.54763">
        <ele>2182.5</ele>
        <time>2026-02-02T10:55:00Z</time>
      </trkpt>
      <trkpt lat="45.96103" lon="6.54764">
        <ele>2181.7</ele>
        <time>2026-02-02T10:55:01Z</time>
      </trkpt>
      <trkpt lat="45.96103" lon="6.54765">
        <ele>2182.6</ele>
        <time>2026-02-02T10:55:02Z</time>
      </trkpt>
      <trkpt lat="45.96104" lon="6.54766">
        <ele>2182.6</ele>
        <time>2026-02-02T10:55:03Z</time>
      </trkpt>
      <trkpt lat="45.96104" lon="6.54767">
        <ele>2182.6</ele>
        <time>2026-02-02T10:55:04Z</time>
      </trkpt>
      <trkpt lat="45.96105" lon="6.54769">
        <ele>2183.5</ele>
        <time>2026-02-02T10:55:05Z</time>
      </trkpt>
      <trkpt lat="45.96105" lon="6.54771">
        <ele>2183.5</ele>
        <time>2026-02-02T10:55:07Z</time>
      </trkpt>
      <trkpt lat="45.96105" lon="6.54772">
        <ele>2183.5</ele>
        <time>2026-02-02T10:55:08Z</time>
      </trkpt>
      <trkpt lat="45.96106" lon="6.54773">
        <ele>2183.6</ele>
        <time>2026-02-02T10:55:09Z</time>
      </trkpt>
      <trkpt lat="45.96106" lon="6.54774">
        <ele>2183.6</ele>
        <time>2026-02-02T10:55:10Z</time>
      </trkpt>
      <trkpt lat="45.96107" lon="6.54775">
        <ele>2183.6</ele>
        <time>2026-02-02T10:55:11Z</time>
      </trkpt>
      <trkpt lat="45.96107" lon="6.54775">
        <ele>2183.6</ele>
        <time>2026-02-02T10:55:12Z</time>
      </trkpt>
      <trkpt lat="45.96107" lon="6.54776">
        <ele>2183.6</ele>
        <time>2026-02-02T10:55:13Z</time>
      </trkpt>
      <trkpt lat="45.96108" lon="6.54777">
        <ele>2184.4</ele>
        <time>2026-02-02T10:55:14Z</time>
      </trkpt>
      <trkpt lat="45.96108" lon="6.54778">
        <ele>2184.4</ele>
        <time>2026-02-02T10:55:15Z</time>
      </trkpt>
      <trkpt lat="45.96108" lon="6.54778">
        <ele>2184.4</ele>
        <time>2026-02-02T10:55:16Z</time>
      </trkpt>
      <trkpt lat="45.96109" lon="6.54779">
        <ele>2183.6</ele>
        <time>2026-02-02T10:55:17Z</time>
      </trkpt>
      <trkpt lat="45.96109" lon="6.54781">
        <ele>2183.6</ele>
        <time>2026-02-02T10:55:18Z</time>
      </trkpt>
      <trkpt lat="45.96109" lon="6.54782">
        <ele>2184.5</ele>
        <time>2026-02-02T10:55:19Z</time>
      </trkpt>
      <trkpt lat="45.9611" lon="6.54782">
        <ele>2184.5</ele>
        <time>2026-02-02T10:55:20Z</time>
      </trkpt>
      <trkpt lat="45.9611" lon="6.54783">
        <ele>2184.5</ele>
        <time>2026-02-02T10:55:21Z</time>
      </trkpt>
      <trkpt lat="45.9611" lon="6.54784">
        <ele>2184.5</ele>
        <time>2026-02-02T10:55:22Z</time>
      </trkpt>
      <trkpt lat="45.96111" lon="6.54785">
        <ele>2184.5</ele>
        <time>2026-02-02T10:55:23Z</time>
      </trkpt>
      <trkpt lat="45.96111" lon="6.54786">
        <ele>2185.9</ele>
        <time>2026-02-02T10:55:24Z</time>
      </trkpt>
      <trkpt lat="45.96111" lon="6.54787">
        <ele>2185.9</ele>
        <time>2026-02-02T10:55:25Z</time>
      </trkpt>
      <trkpt lat="45.96112" lon="6.54788">
        <ele>2185</ele>
        <time>2026-02-02T10:55:26Z</time>
      </trkpt>
      <trkpt lat="45.96112" lon="6.54789">
        <ele>2185</ele>
        <time>2026-02-02T10:55:27Z</time>
      </trkpt>
      <trkpt lat="45.96113" lon="6.54791">
        <ele>2185.9</ele>
        <time>2026-02-02T10:55:29Z</time>
      </trkpt>
      <trkpt lat="45.96114" lon="6.54793">
        <ele>2185.9</ele>
        <time>2026-02-02T10:55:30Z</time>
      </trkpt>
      <trkpt lat="45.96114" lon="6.54794">
        <ele>2186.9</ele>
        <time>2026-02-02T10:55:31Z</time>
      </trkpt>
      <trkpt lat="45.96114" lon="6.54795">
        <ele>2186.9</ele>
        <time>2026-02-02T10:55:32Z</time>
      </trkpt>
      <trkpt lat="45.96115" lon="6.54796">
        <ele>2186</ele>
        <time>2026-02-02T10:55:33Z</time>
      </trkpt>
      <trkpt lat="45.96114" lon="6.54797">
        <ele>2186.9</ele>
        <time>2026-02-02T10:55:34Z</time>
      </trkpt>
      <trkpt lat="45.96115" lon="6.54798">
        <ele>2186</ele>
        <time>2026-02-02T10:55:35Z</time>
      </trkpt>
      <trkpt lat="45.96115" lon="6.54799">
        <ele>2186.9</ele>
        <time>2026-02-02T10:55:36Z</time>
      </trkpt>
      <trkpt lat="45.96115" lon="6.54801">
        <ele>2186.9</ele>
        <time>2026-02-02T10:55:37Z</time>
      </trkpt>
      <trkpt lat="45.96115" lon="6.54802">
        <ele>2186.9</ele>
        <time>2026-02-02T10:55:38Z</time>
      </trkpt>
      <trkpt lat="45.96115" lon="6.54804">
        <ele>2187.9</ele>
        <time>2026-02-02T10:55:39Z</time>
      </trkpt>
      <trkpt lat="45.96115" lon="6.54805">
        <ele>2187.9</ele>
        <time>2026-02-02T10:55:40Z</time>
      </trkpt>
      <trkpt lat="45.96116" lon="6.54806">
        <ele>2187.9</ele>
        <time>2026-02-02T10:55:41Z</time>
      </trkpt>
      <trkpt lat="45.96116" lon="6.54808">
        <ele>2188.9</ele>
        <time>2026-02-02T10:55:42Z</time>
      </trkpt>
      <trkpt lat="45.96116" lon="6.54809">
        <ele>2188.9</ele>
        <time>2026-02-02T10:55:43Z</time>
      </trkpt>
      <trkpt lat="45.96116" lon="6.5481">
        <ele>2188.9</ele>
        <time>2026-02-02T10:55:44Z</time>
      </trkpt>
      <trkpt lat="45.96116" lon="6.54811">
        <ele>2188.9</ele>
        <time>2026-02-02T10:55:45Z</time>
      </trkpt>
      <trkpt lat="45.96116" lon="6.54812">
        <ele>2189.8</ele>
        <time>2026-02-02T10:55:46Z</time>
      </trkpt>
      <trkpt lat="45.96116" lon="6.54813">
        <ele>2189.8</ele>
        <time>2026-02-02T10:55:47Z</time>
      </trkpt>
      <trkpt lat="45.96117" lon="6.54815">
        <ele>2189.8</ele>
        <time>2026-02-02T10:55:48Z</time>
      </trkpt>
      <trkpt lat="45.96117" lon="6.54817">
        <ele>2190.7</ele>
        <time>2026-02-02T10:55:49Z</time>
      </trkpt>
      <trkpt lat="45.96117" lon="6.54818">
        <ele>2190.7</ele>
        <time>2026-02-02T10:55:50Z</time>
      </trkpt>
      <trkpt lat="45.96118" lon="6.5482">
        <ele>2190.6</ele>
        <time>2026-02-02T10:55:51Z</time>
      </trkpt>
      <trkpt lat="45.96118" lon="6.5482">
        <ele>2190.6</ele>
        <time>2026-02-02T10:55:52Z</time>
      </trkpt>
      <trkpt lat="45.96118" lon="6.54821">
        <ele>2190.6</ele>
        <time>2026-02-02T10:55:53Z</time>
      </trkpt>
      <trkpt lat="45.96119" lon="6.54822">
        <ele>2190.6</ele>
        <time>2026-02-02T10:55:54Z</time>
      </trkpt>
      <trkpt lat="45.96119" lon="6.54823">
        <ele>2190.6</ele>
        <time>2026-02-02T10:55:55Z</time>
      </trkpt>
      <trkpt lat="45.96119" lon="6.54824">
        <ele>2191.5</ele>
        <time>2026-02-02T10:55:56Z</time>
      </trkpt>
      <trkpt lat="45.9612" lon="6.54825">
        <ele>2191.5</ele>
        <time>2026-02-02T10:55:57Z</time>
      </trkpt>
      <trkpt lat="45.9612" lon="6.54826">
        <ele>2191.5</ele>
        <time>2026-02-02T10:55:58Z</time>
      </trkpt>
      <trkpt lat="45.9612" lon="6.54826">
        <ele>2191.5</ele>
        <time>2026-02-02T10:55:59Z</time>
      </trkpt>
      <trkpt lat="45.96121" lon="6.54827">
        <ele>2190.5</ele>
        <time>2026-02-02T10:56:00Z</time>
      </trkpt>
      <trkpt lat="45.96121" lon="6.54828">
        <ele>2191.5</ele>
        <time>2026-02-02T10:56:01Z</time>
      </trkpt>
      <trkpt lat="45.96122" lon="6.54829">
        <ele>2191.5</ele>
        <time>2026-02-02T10:56:02Z</time>
      </trkpt>
      <trkpt lat="45.96122" lon="6.5483">
        <ele>2191.5</ele>
        <time>2026-02-02T10:56:03Z</time>
      </trkpt>
      <trkpt lat="45.96123" lon="6.54831">
        <ele>2191.5</ele>
        <time>2026-02-02T10:56:04Z</time>
      </trkpt>
      <trkpt lat="45.96123" lon="6.54832">
        <ele>2191.5</ele>
        <time>2026-02-02T10:56:05Z</time>
      </trkpt>
      <trkpt lat="45.96124" lon="6.54833">
        <ele>2191.6</ele>
        <time>2026-02-02T10:56:06Z</time>
      </trkpt>
      <trkpt lat="45.96124" lon="6.54833">
        <ele>2191.6</ele>
        <time>2026-02-02T10:56:07Z</time>
      </trkpt>
      <trkpt lat="45.96125" lon="6.54833">
        <ele>2191.6</ele>
        <time>2026-02-02T10:56:08Z</time>
      </trkpt>
      <trkpt lat="45.96125" lon="6.54834">
        <ele>2191.6</ele>
        <time>2026-02-02T10:56:09Z</time>
      </trkpt>
      <trkpt lat="45.96125" lon="6.54834">
        <ele>2191.6</ele>
        <time>2026-02-02T10:56:10Z</time>
      </trkpt>
      <trkpt lat="45.96125" lon="6.54835">
        <ele>2191.6</ele>
        <time>2026-02-02T10:56:11Z</time>
      </trkpt>
      <trkpt lat="45.96126" lon="6.54836">
        <ele>2191.6</ele>
        <time>2026-02-02T10:56:12Z</time>
      </trkpt>
      <trkpt lat="45.96126" lon="6.54836">
        <ele>2191.6</ele>
        <time>2026-02-02T10:56:13Z</time>
      </trkpt>
      <trkpt lat="45.96126" lon="6.54837">
        <ele>2192.7</ele>
        <time>2026-02-02T10:56:14Z</time>
      </trkpt>
      <trkpt lat="45.96127" lon="6.54839">
        <ele>2191.8</ele>
        <time>2026-02-02T10:56:15Z</time>
      </trkpt>
      <trkpt lat="45.96127" lon="6.5484">
        <ele>2191.8</ele>
        <time>2026-02-02T10:56:16Z</time>
      </trkpt>
      <trkpt lat="45.96128" lon="6.54841">
        <ele>2191.8</ele>
        <time>2026-02-02T10:56:17Z</time>
      </trkpt>
      <trkpt lat="45.96128" lon="6.54842">
        <ele>2193</ele>
        <time>2026-02-02T10:56:18Z</time>
      </trkpt>
      <trkpt lat="45.96128" lon="6.54842">
        <ele>2193</ele>
        <time>2026-02-02T10:56:19Z</time>
      </trkpt>
      <trkpt lat="45.96128" lon="6.54843">
        <ele>2193</ele>
        <time>2026-02-02T10:56:20Z</time>
      </trkpt>
      <trkpt lat="45.96128" lon="6.54843">
        <ele>2193</ele>
        <time>2026-02-02T10:56:21Z</time>
      </trkpt>
      <trkpt lat="45.96128" lon="6.54845">
        <ele>2193</ele>
        <time>2026-02-02T10:56:22Z</time>
      </trkpt>
      <trkpt lat="45.96129" lon="6.54846">
        <ele>2194.1</ele>
        <time>2026-02-02T10:56:23Z</time>
      </trkpt>
      <trkpt lat="45.96129" lon="6.54847">
        <ele>2194.1</ele>
        <time>2026-02-02T10:56:24Z</time>
      </trkpt>
      <trkpt lat="45.96129" lon="6.54849">
        <ele>2194.1</ele>
        <time>2026-02-02T10:56:25Z</time>
      </trkpt>
      <trkpt lat="45.96129" lon="6.5485">
        <ele>2195.2</ele>
        <time>2026-02-02T10:56:26Z</time>
      </trkpt>
      <trkpt lat="45.96129" lon="6.54851">
        <ele>2195.2</ele>
        <time>2026-02-02T10:56:27Z</time>
      </trkpt>
      <trkpt lat="45.96129" lon="6.54852">
        <ele>2195.2</ele>
        <time>2026-02-02T10:56:28Z</time>
      </trkpt>
      <trkpt lat="45.96129" lon="6.54852">
        <ele>2195.2</ele>
        <time>2026-02-02T10:56:29Z</time>
      </trkpt>
      <trkpt lat="45.96129" lon="6.54854">
        <ele>2195.2</ele>
        <time>2026-02-02T10:56:30Z</time>
      </trkpt>
      <trkpt lat="45.96129" lon="6.54855">
        <ele>2196.4</ele>
        <time>2026-02-02T10:56:31Z</time>
      </trkpt>
      <trkpt lat="45.96129" lon="6.54857">
        <ele>2196.4</ele>
        <time>2026-02-02T10:56:32Z</time>
      </trkpt>
      <trkpt lat="45.96129" lon="6.54858">
        <ele>2196.4</ele>
        <time>2026-02-02T10:56:33Z</time>
      </trkpt>
      <trkpt lat="45.96129" lon="6.5486">
        <ele>2197.5</ele>
        <time>2026-02-02T10:56:34Z</time>
      </trkpt>
      <trkpt lat="45.9613" lon="6.54861">
        <ele>2196.6</ele>
        <time>2026-02-02T10:56:35Z</time>
      </trkpt>
      <trkpt lat="45.9613" lon="6.54862">
        <ele>2196.6</ele>
        <time>2026-02-02T10:56:36Z</time>
      </trkpt>
      <trkpt lat="45.96131" lon="6.54863">
        <ele>2197.7</ele>
        <time>2026-02-02T10:56:37Z</time>
      </trkpt>
      <trkpt lat="45.96131" lon="6.54863">
        <ele>2197.7</ele>
        <time>2026-02-02T10:56:38Z</time>
      </trkpt>
      <trkpt lat="45.96131" lon="6.54863">
        <ele>2197.7</ele>
        <time>2026-02-02T10:56:39Z</time>
      </trkpt>
      <trkpt lat="45.96131" lon="6.54862">
        <ele>2196.6</ele>
        <time>2026-02-02T10:56:40Z</time>
      </trkpt>
      <trkpt lat="45.96131" lon="6.54862">
        <ele>2196.6</ele>
        <time>2026-02-02T10:56:41Z</time>
      </trkpt>
      <trkpt lat="45.96131" lon="6.54862">
        <ele>2196.6</ele>
        <time>2026-02-02T10:56:42Z</time>
      </trkpt>
      <trkpt lat="45.96131" lon="6.54862">
        <ele>2196.6</ele>
        <time>2026-02-02T10:56:43Z</time>
      </trkpt>
      <trkpt lat="45.96131" lon="6.54862">
        <ele>2196.6</ele>
        <time>2026-02-02T10:56:44Z</time>
      </trkpt>
      <trkpt lat="45.96131" lon="6.54862">
        <ele>2196.6</ele>
        <time>2026-02-02T10:56:45Z</time>
      </trkpt>
      <trkpt lat="45.96131" lon="6.54862">
        <ele>2196.6</ele>
        <time>2026-02-02T10:56:46Z</time>
      </trkpt>
      <trkpt lat="45.96131" lon="6.54862">
        <ele>2196.6</ele>
        <time>2026-02-02T10:56:47Z</time>
      </trkpt>
      <trkpt lat="45.96131" lon="6.54862">
        <ele>2196.6</ele>
        <time>2026-02-02T10:56:48Z</time>
      </trkpt>
      <trkpt lat="45.96131" lon="6.54861">
        <ele>2196.6</ele>
        <time>2026-02-02T10:56:49Z</time>
      </trkpt>
      <trkpt lat="45.96131" lon="6.54861">
        <ele>2196.6</ele>
        <time>2026-02-02T10:56:50Z</time>
      </trkpt>
      <trkpt lat="45.96131" lon="6.54862">
        <ele>2196.6</ele>
        <time>2026-02-02T10:56:51Z</time>
      </trkpt>
      <trkpt lat="45.96131" lon="6.54862">
        <ele>2196.6</ele>
        <time>2026-02-02T10:56:52Z</time>
      </trkpt>
      <trkpt lat="45.96131" lon="6.54863">
        <ele>2197.7</ele>
        <time>2026-02-02T10:56:53Z</time>
      </trkpt>
      <trkpt lat="45.96132" lon="6.54865">
        <ele>2197.7</ele>
        <time>2026-02-02T10:56:54Z</time>
      </trkpt>
      <trkpt lat="45.96132" lon="6.54866">
        <ele>2197.7</ele>
        <time>2026-02-02T10:56:55Z</time>
      </trkpt>
      <trkpt lat="45.96133" lon="6.54867">
        <ele>2197.9</ele>
        <time>2026-02-02T10:56:56Z</time>
      </trkpt>
      <trkpt lat="45.96133" lon="6.54868">
        <ele>2197.9</ele>
        <time>2026-02-02T10:56:57Z</time>
      </trkpt>
      <trkpt lat="45.96134" lon="6.54869">
        <ele>2197.9</ele>
        <time>2026-02-02T10:56:58Z</time>
      </trkpt>
      <trkpt lat="45.96134" lon="6.54871">
        <ele>2197.9</ele>
        <time>2026-02-02T10:56:59Z</time>
      </trkpt>
      <trkpt lat="45.96135" lon="6.54872">
        <ele>2199</ele>
        <time>2026-02-02T10:57:00Z</time>
      </trkpt>
      <trkpt lat="45.96136" lon="6.54873">
        <ele>2198</ele>
        <time>2026-02-02T10:57:01Z</time>
      </trkpt>
      <trkpt lat="45.96136" lon="6.54874">
        <ele>2198</ele>
        <time>2026-02-02T10:57:02Z</time>
      </trkpt>
      <trkpt lat="45.96137" lon="6.54875">
        <ele>2199.2</ele>
        <time>2026-02-02T10:57:03Z</time>
      </trkpt>
      <trkpt lat="45.96137" lon="6.54877">
        <ele>2199.2</ele>
        <time>2026-02-02T10:57:04Z</time>
      </trkpt>
      <trkpt lat="45.96138" lon="6.54877">
        <ele>2199.2</ele>
        <time>2026-02-02T10:57:05Z</time>
      </trkpt>
      <trkpt lat="45.96138" lon="6.54878">
        <ele>2199.2</ele>
        <time>2026-02-02T10:57:06Z</time>
      </trkpt>
      <trkpt lat="45.96139" lon="6.54879">
        <ele>2198.1</ele>
        <time>2026-02-02T10:57:07Z</time>
      </trkpt>
      <trkpt lat="45.96139" lon="6.5488">
        <ele>2199.3</ele>
        <time>2026-02-02T10:57:08Z</time>
      </trkpt>
      <trkpt lat="45.9614" lon="6.54881">
        <ele>2199.3</ele>
        <time>2026-02-02T10:57:09Z</time>
      </trkpt>
      <trkpt lat="45.9614" lon="6.54882">
        <ele>2199.3</ele>
        <time>2026-02-02T10:57:10Z</time>
      </trkpt>
      <trkpt lat="45.96141" lon="6.54883">
        <ele>2199.3</ele>
        <time>2026-02-02T10:57:11Z</time>
      </trkpt>
      <trkpt lat="45.96141" lon="6.54883">
        <ele>2199.3</ele>
        <time>2026-02-02T10:57:12Z</time>
      </trkpt>
      <trkpt lat="45.96142" lon="6.54884">
        <ele>2199.6</ele>
        <time>2026-02-02T10:57:13Z</time>
      </trkpt>
      <trkpt lat="45.96142" lon="6.54885">
        <ele>2199.6</ele>
        <time>2026-02-02T10:57:14Z</time>
      </trkpt>
      <trkpt lat="45.96143" lon="6.54886">
        <ele>2199.6</ele>
        <time>2026-02-02T10:57:15Z</time>
      </trkpt>
      <trkpt lat="45.96144" lon="6.54887">
        <ele>2199.6</ele>
        <time>2026-02-02T10:57:16Z</time>
      </trkpt>
      <trkpt lat="45.96144" lon="6.54888">
        <ele>2199.6</ele>
        <time>2026-02-02T10:57:17Z</time>
      </trkpt>
      <trkpt lat="45.96145" lon="6.54889">
        <ele>2199.9</ele>
        <time>2026-02-02T10:57:18Z</time>
      </trkpt>
      <trkpt lat="45.96146" lon="6.5489">
        <ele>2199.9</ele>
        <time>2026-02-02T10:57:19Z</time>
      </trkpt>
      <trkpt lat="45.96146" lon="6.54891">
        <ele>2199.9</ele>
        <time>2026-02-02T10:57:20Z</time>
      </trkpt>
      <trkpt lat="45.96146" lon="6.54891">
        <ele>2199.9</ele>
        <time>2026-02-02T10:57:21Z</time>
      </trkpt>
      <trkpt lat="45.96147" lon="6.54892">
        <ele>2199.9</ele>
        <time>2026-02-02T10:57:22Z</time>
      </trkpt>
      <trkpt lat="45.96147" lon="6.54893">
        <ele>2201.2</ele>
        <time>2026-02-02T10:57:23Z</time>
      </trkpt>
      <trkpt lat="45.96147" lon="6.54894">
        <ele>2201.2</ele>
        <time>2026-02-02T10:57:24Z</time>
      </trkpt>
      <trkpt lat="45.96147" lon="6.54895">
        <ele>2201.2</ele>
        <time>2026-02-02T10:57:25Z</time>
      </trkpt>
      <trkpt lat="45.96147" lon="6.54896">
        <ele>2200.3</ele>
        <time>2026-02-02T10:57:26Z</time>
      </trkpt>
      <trkpt lat="45.96148" lon="6.54897">
        <ele>2201.5</ele>
        <time>2026-02-02T10:57:27Z</time>
      </trkpt>
      <trkpt lat="45.96148" lon="6.54898">
        <ele>2201.5</ele>
        <time>2026-02-02T10:57:28Z</time>
      </trkpt>
      <trkpt lat="45.96148" lon="6.549">
        <ele>2201.5</ele>
        <time>2026-02-02T10:57:29Z</time>
      </trkpt>
      <trkpt lat="45.96149" lon="6.54901">
        <ele>2201.5</ele>
        <time>2026-02-02T10:57:30Z</time>
      </trkpt>
      <trkpt lat="45.96149" lon="6.54902">
        <ele>2202.7</ele>
        <time>2026-02-02T10:57:31Z</time>
      </trkpt>
      <trkpt lat="45.96149" lon="6.54903">
        <ele>2202.7</ele>
        <time>2026-02-02T10:57:32Z</time>
      </trkpt>
      <trkpt lat="45.96149" lon="6.54903">
        <ele>2202.7</ele>
        <time>2026-02-02T10:57:33Z</time>
      </trkpt>
      <trkpt lat="45.96149" lon="6.54903">
        <ele>2202.7</ele>
        <time>2026-02-02T10:57:34Z</time>
      </trkpt>
      <trkpt lat="45.96149" lon="6.54902">
        <ele>2202.7</ele>
        <time>2026-02-02T10:57:35Z</time>
      </trkpt>
      <trkpt lat="45.96149" lon="6.54902">
        <ele>2202.7</ele>
        <time>2026-02-02T10:57:36Z</time>
      </trkpt>
      <trkpt lat="45.96149" lon="6.54902">
        <ele>2202.7</ele>
        <time>2026-02-02T10:57:37Z</time>
      </trkpt>
      <trkpt lat="45.96148" lon="6.54902">
        <ele>2202.7</ele>
        <time>2026-02-02T10:57:38Z</time>
      </trkpt>
      <trkpt lat="45.96148" lon="6.54902">
        <ele>2202.7</ele>
        <time>2026-02-02T10:57:39Z</time>
      </trkpt>
      <trkpt lat="45.96148" lon="6.54902">
        <ele>2202.7</ele>
        <time>2026-02-02T10:57:40Z</time>
      </trkpt>
      <trkpt lat="45.96148" lon="6.54902">
        <ele>2202.7</ele>
        <time>2026-02-02T10:57:41Z</time>
      </trkpt>
      <trkpt lat="45.96148" lon="6.54902">
        <ele>2202.7</ele>
        <time>2026-02-02T10:57:42Z</time>
      </trkpt>
      <trkpt lat="45.96148" lon="6.54902">
        <ele>2202.7</ele>
        <time>2026-02-02T10:57:43Z</time>
      </trkpt>
      <trkpt lat="45.96148" lon="6.54903">
        <ele>2202.7</ele>
        <time>2026-02-02T10:57:44Z</time>
      </trkpt>
      <trkpt lat="45.96148" lon="6.54903">
        <ele>2202.7</ele>
        <time>2026-02-02T10:57:45Z</time>
      </trkpt>
      <trkpt lat="45.96148" lon="6.54903">
        <ele>2202.7</ele>
        <time>2026-02-02T10:57:46Z</time>
      </trkpt>
      <trkpt lat="45.96148" lon="6.54903">
        <ele>2202.7</ele>
        <time>2026-02-02T10:57:47Z</time>
      </trkpt>
      <trkpt lat="45.96148" lon="6.54903">
        <ele>2202.7</ele>
        <time>2026-02-02T10:57:48Z</time>
      </trkpt>
      <trkpt lat="45.96148" lon="6.54903">
        <ele>2202.7</ele>
        <time>2026-02-02T10:57:49Z</time>
      </trkpt>
      <trkpt lat="45.96148" lon="6.54903">
        <ele>2202.7</ele>
        <time>2026-02-02T10:57:50Z</time>
      </trkpt>
      <trkpt lat="45.96148" lon="6.54903">
        <ele>2202.7</ele>
        <time>2026-02-02T10:57:51Z</time>
      </trkpt>
      <trkpt lat="45.96148" lon="6.54904">
        <ele>2202.7</ele>
        <time>2026-02-02T10:57:52Z</time>
      </trkpt>
      <trkpt lat="45.96148" lon="6.54904">
        <ele>2202.7</ele>
        <time>2026-02-02T10:57:53Z</time>
      </trkpt>
      <trkpt lat="45.96148" lon="6.54904">
        <ele>2202.7</ele>
        <time>2026-02-02T10:57:54Z</time>
      </trkpt>
      <trkpt lat="45.96148" lon="6.54904">
        <ele>2202.7</ele>
        <time>2026-02-02T10:57:55Z</time>
      </trkpt>
      <trkpt lat="45.96148" lon="6.54903">
        <ele>2202.7</ele>
        <time>2026-02-02T10:57:56Z</time>
      </trkpt>
      <trkpt lat="45.96148" lon="6.54903">
        <ele>2202.7</ele>
        <time>2026-02-02T10:57:57Z</time>
      </trkpt>
      <trkpt lat="45.96148" lon="6.54903">
        <ele>2202.7</ele>
        <time>2026-02-02T10:57:58Z</time>
      </trkpt>
      <trkpt lat="45.96148" lon="6.54903">
        <ele>2202.7</ele>
        <time>2026-02-02T10:57:59Z</time>
      </trkpt>
      <trkpt lat="45.96148" lon="6.54903">
        <ele>2202.7</ele>
        <time>2026-02-02T10:58:00Z</time>
      </trkpt>
      <trkpt lat="45.96148" lon="6.54903">
        <ele>2202.7</ele>
        <time>2026-02-02T10:58:01Z</time>
      </trkpt>
      <trkpt lat="45.96148" lon="6.54903">
        <ele>2202.7</ele>
        <time>2026-02-02T10:58:02Z</time>
      </trkpt>
      <trkpt lat="45.96148" lon="6.54903">
        <ele>2202.7</ele>
        <time>2026-02-02T10:58:03Z</time>
      </trkpt>
      <trkpt lat="45.96148" lon="6.54903">
        <ele>2202.7</ele>
        <time>2026-02-02T10:58:04Z</time>
      </trkpt>
      <trkpt lat="45.96148" lon="6.54903">
        <ele>2202.7</ele>
        <time>2026-02-02T10:58:05Z</time>
      </trkpt>
      <trkpt lat="45.96148" lon="6.54903">
        <ele>2202.7</ele>
        <time>2026-02-02T10:58:06Z</time>
      </trkpt>
      <trkpt lat="45.96148" lon="6.54904">
        <ele>2202.7</ele>
        <time>2026-02-02T10:58:07Z</time>
      </trkpt>
      <trkpt lat="45.96149" lon="6.54904">
        <ele>2202.7</ele>
        <time>2026-02-02T10:58:08Z</time>
      </trkpt>
      <trkpt lat="45.9615" lon="6.54905">
        <ele>2202.7</ele>
        <time>2026-02-02T10:58:09Z</time>
      </trkpt>
      <trkpt lat="45.96151" lon="6.54906">
        <ele>2203.1</ele>
        <time>2026-02-02T10:58:10Z</time>
      </trkpt>
      <trkpt lat="45.96152" lon="6.54907">
        <ele>2203.1</ele>
        <time>2026-02-02T10:58:11Z</time>
      </trkpt>
      <trkpt lat="45.96152" lon="6.54907">
        <ele>2203.1</ele>
        <time>2026-02-02T10:58:12Z</time>
      </trkpt>
      <trkpt lat="45.96153" lon="6.54908">
        <ele>2203.1</ele>
        <time>2026-02-02T10:58:13Z</time>
      </trkpt>
      <trkpt lat="45.96154" lon="6.54909">
        <ele>2202.3</ele>
        <time>2026-02-02T10:58:14Z</time>
      </trkpt>
      <trkpt lat="45.96155" lon="6.5491">
        <ele>2203.5</ele>
        <time>2026-02-02T10:58:15Z</time>
      </trkpt>
      <trkpt lat="45.96155" lon="6.54912">
        <ele>2203.5</ele>
        <time>2026-02-02T10:58:16Z</time>
      </trkpt>
      <trkpt lat="45.96156" lon="6.54913">
        <ele>2203.5</ele>
        <time>2026-02-02T10:58:17Z</time>
      </trkpt>
      <trkpt lat="45.96157" lon="6.54915">
        <ele>2204</ele>
        <time>2026-02-02T10:58:18Z</time>
      </trkpt>
      <trkpt lat="45.96157" lon="6.54916">
        <ele>2204</ele>
        <time>2026-02-02T10:58:19Z</time>
      </trkpt>
      <trkpt lat="45.96157" lon="6.54917">
        <ele>2204</ele>
        <time>2026-02-02T10:58:20Z</time>
      </trkpt>
      <trkpt lat="45.96158" lon="6.54918">
        <ele>2205.3</ele>
        <time>2026-02-02T10:58:21Z</time>
      </trkpt>
      <trkpt lat="45.96158" lon="6.5492">
        <ele>2205.3</ele>
        <time>2026-02-02T10:58:22Z</time>
      </trkpt>
      <trkpt lat="45.96158" lon="6.54921">
        <ele>2205.3</ele>
        <time>2026-02-02T10:58:23Z</time>
      </trkpt>
      <trkpt lat="45.96158" lon="6.54921">
        <ele>2205.3</ele>
        <time>2026-02-02T10:58:24Z</time>
      </trkpt>
      <trkpt lat="45.96159" lon="6.54922">
        <ele>2205.3</ele>
        <time>2026-02-02T10:58:25Z</time>
      </trkpt>
      <trkpt lat="45.96159" lon="6.54922">
        <ele>2204.5</ele>
        <time>2026-02-02T10:58:26Z</time>
      </trkpt>
      <trkpt lat="45.9616" lon="6.54923">
        <ele>2205.8</ele>
        <time>2026-02-02T10:58:27Z</time>
      </trkpt>
      <trkpt lat="45.9616" lon="6.54923">
        <ele>2205.8</ele>
        <time>2026-02-02T10:58:28Z</time>
      </trkpt>
      <trkpt lat="45.9616" lon="6.54923">
        <ele>2205.8</ele>
        <time>2026-02-02T10:58:29Z</time>
      </trkpt>
      <trkpt lat="45.96159" lon="6.54923">
        <ele>2205.8</ele>
        <time>2026-02-02T10:58:30Z</time>
      </trkpt>
      <trkpt lat="45.96159" lon="6.54924">
        <ele>2206.7</ele>
        <time>2026-02-02T10:58:31Z</time>
      </trkpt>
      <trkpt lat="45.96157" lon="6.54924">
        <ele>2206.7</ele>
        <time>2026-02-02T10:58:32Z</time>
      </trkpt>
      <trkpt lat="45.96156" lon="6.54924">
        <ele>2207.5</ele>
        <time>2026-02-02T10:58:33Z</time>
      </trkpt>
      <trkpt lat="45.96154" lon="6.54924">
        <ele>2207.5</ele>
        <time>2026-02-02T10:58:34Z</time>
      </trkpt>
      <trkpt lat="45.96153" lon="6.54924">
        <ele>2207.5</ele>
        <time>2026-02-02T10:58:35Z</time>
      </trkpt>
      <trkpt lat="45.96153" lon="6.54924">
        <ele>2208.3</ele>
        <time>2026-02-02T10:58:36Z</time>
      </trkpt>
      <trkpt lat="45.96152" lon="6.54924">
        <ele>2208.3</ele>
        <time>2026-02-02T10:58:37Z</time>
      </trkpt>
      <trkpt lat="45.96151" lon="6.54924">
        <ele>2208.3</ele>
        <time>2026-02-02T10:58:38Z</time>
      </trkpt>
      <trkpt lat="45.9615" lon="6.54924">
        <ele>2209.2</ele>
        <time>2026-02-02T10:58:39Z</time>
      </trkpt>
      <trkpt lat="45.96149" lon="6.54924">
        <ele>2209.2</ele>
        <time>2026-02-02T10:58:40Z</time>
      </trkpt>
      <trkpt lat="45.96148" lon="6.54924">
        <ele>2209.2</ele>
        <time>2026-02-02T10:58:41Z</time>
      </trkpt>
      <trkpt lat="45.96147" lon="6.54924">
        <ele>2210.1</ele>
        <time>2026-02-02T10:58:42Z</time>
      </trkpt>
      <trkpt lat="45.96146" lon="6.54924">
        <ele>2210.1</ele>
        <time>2026-02-02T10:58:43Z</time>
      </trkpt>
      <trkpt lat="45.96145" lon="6.54924">
        <ele>2210.1</ele>
        <time>2026-02-02T10:58:44Z</time>
      </trkpt>
      <trkpt lat="45.96144" lon="6.54925">
        <ele>2211.1</ele>
        <time>2026-02-02T10:58:45Z</time>
      </trkpt>
      <trkpt lat="45.96143" lon="6.54925">
        <ele>2211.1</ele>
        <time>2026-02-02T10:58:46Z</time>
      </trkpt>
      <trkpt lat="45.96142" lon="6.54925">
        <ele>2211.1</ele>
        <time>2026-02-02T10:58:47Z</time>
      </trkpt>
      <trkpt lat="45.96141" lon="6.54926">
        <ele>2211.1</ele>
        <time>2026-02-02T10:58:48Z</time>
      </trkpt>
      <trkpt lat="45.96141" lon="6.54926">
        <ele>2212.2</ele>
        <time>2026-02-02T10:58:49Z</time>
      </trkpt>
      <trkpt lat="45.9614" lon="6.54926">
        <ele>2212.2</ele>
        <time>2026-02-02T10:58:50Z</time>
      </trkpt>
      <trkpt lat="45.96139" lon="6.54927">
        <ele>2212.2</ele>
        <time>2026-02-02T10:58:51Z</time>
      </trkpt>
      <trkpt lat="45.96138" lon="6.54927">
        <ele>2213.3</ele>
        <time>2026-02-02T10:58:52Z</time>
      </trkpt>
      <trkpt lat="45.96137" lon="6.54927">
        <ele>2214.7</ele>
        <time>2026-02-02T10:58:53Z</time>
      </trkpt>
      <trkpt lat="45.96136" lon="6.54927">
        <ele>2213.3</ele>
        <time>2026-02-02T10:58:54Z</time>
      </trkpt>
      <trkpt lat="45.96136" lon="6.54927">
        <ele>2213.3</ele>
        <time>2026-02-02T10:58:55Z</time>
      </trkpt>
      <trkpt lat="45.96135" lon="6.54927">
        <ele>2215.8</ele>
        <time>2026-02-02T10:58:56Z</time>
      </trkpt>
      <trkpt lat="45.96135" lon="6.54928">
        <ele>2215.8</ele>
        <time>2026-02-02T10:58:57Z</time>
      </trkpt>
      <trkpt lat="45.96135" lon="6.54929">
        <ele>2215.8</ele>
        <time>2026-02-02T10:58:58Z</time>
      </trkpt>
      <trkpt lat="45.96135" lon="6.5493">
        <ele>2214.7</ele>
        <time>2026-02-02T10:58:59Z</time>
      </trkpt>
      <trkpt lat="45.96136" lon="6.54932">
        <ele>2216.2</ele>
        <time>2026-02-02T10:59:00Z</time>
      </trkpt>
      <trkpt lat="45.96137" lon="6.54932">
        <ele>2216.2</ele>
        <time>2026-02-02T10:59:01Z</time>
      </trkpt>
      <trkpt lat="45.96137" lon="6.54933">
        <ele>2216.2</ele>
        <time>2026-02-02T10:59:02Z</time>
      </trkpt>
      <trkpt lat="45.96138" lon="6.54934">
        <ele>2216.2</ele>
        <time>2026-02-02T10:59:03Z</time>
      </trkpt>
      <trkpt lat="45.96138" lon="6.54934">
        <ele>2216.2</ele>
        <time>2026-02-02T10:59:04Z</time>
      </trkpt>
      <trkpt lat="45.96139" lon="6.54935">
        <ele>2215.1</ele>
        <time>2026-02-02T10:59:05Z</time>
      </trkpt>
      <trkpt lat="45.96139" lon="6.54936">
        <ele>2216.6</ele>
        <time>2026-02-02T10:59:06Z</time>
      </trkpt>
      <trkpt lat="45.9614" lon="6.54936">
        <ele>2216.6</ele>
        <time>2026-02-02T10:59:07Z</time>
      </trkpt>
      <trkpt lat="45.9614" lon="6.54937">
        <ele>2216.6</ele>
        <time>2026-02-02T10:59:08Z</time>
      </trkpt>
      <trkpt lat="45.96141" lon="6.54937">
        <ele>2216.6</ele>
        <time>2026-02-02T10:59:09Z</time>
      </trkpt>
      <trkpt lat="45.96142" lon="6.54938">
        <ele>2215.5</ele>
        <time>2026-02-02T10:59:10Z</time>
      </trkpt>
      <trkpt lat="45.96142" lon="6.54938">
        <ele>2215.5</ele>
        <time>2026-02-02T10:59:11Z</time>
      </trkpt>
      <trkpt lat="45.96142" lon="6.54938">
        <ele>2215.5</ele>
        <time>2026-02-02T10:59:12Z</time>
      </trkpt>
      <trkpt lat="45.96142" lon="6.54938">
        <ele>2215.5</ele>
        <time>2026-02-02T10:59:13Z</time>
      </trkpt>
      <trkpt lat="45.96142" lon="6.54937">
        <ele>2215.5</ele>
        <time>2026-02-02T10:59:14Z</time>
      </trkpt>
      <trkpt lat="45.96142" lon="6.54937">
        <ele>2215.5</ele>
        <time>2026-02-02T10:59:15Z</time>
      </trkpt>
      <trkpt lat="45.96142" lon="6.54937">
        <ele>2215.5</ele>
        <time>2026-02-02T10:59:16Z</time>
      </trkpt>
      <trkpt lat="45.96142" lon="6.54937">
        <ele>2215.5</ele>
        <time>2026-02-02T10:59:17Z</time>
      </trkpt>
      <trkpt lat="45.96142" lon="6.54937">
        <ele>2215.5</ele>
        <time>2026-02-02T10:59:18Z</time>
      </trkpt>
      <trkpt lat="45.96142" lon="6.54937">
        <ele>2215.5</ele>
        <time>2026-02-02T10:59:19Z</time>
      </trkpt>
      <trkpt lat="45.96142" lon="6.54937">
        <ele>2215.5</ele>
        <time>2026-02-02T10:59:20Z</time>
      </trkpt>
      <trkpt lat="45.96142" lon="6.54937">
        <ele>2215.5</ele>
        <time>2026-02-02T10:59:21Z</time>
      </trkpt>
      <trkpt lat="45.96142" lon="6.54938">
        <ele>2215.5</ele>
        <time>2026-02-02T10:59:22Z</time>
      </trkpt>
      <trkpt lat="45.96142" lon="6.54938">
        <ele>2215.5</ele>
        <time>2026-02-02T10:59:23Z</time>
      </trkpt>
      <trkpt lat="45.96142" lon="6.54939">
        <ele>2215.5</ele>
        <time>2026-02-02T10:59:24Z</time>
      </trkpt>
      <trkpt lat="45.96143" lon="6.54941">
        <ele>2217</ele>
        <time>2026-02-02T10:59:25Z</time>
      </trkpt>
      <trkpt lat="45.96144" lon="6.54942">
        <ele>2217</ele>
        <time>2026-02-02T10:59:26Z</time>
      </trkpt>
      <trkpt lat="45.96144" lon="6.54943">
        <ele>2216</ele>
        <time>2026-02-02T10:59:27Z</time>
      </trkpt>
      <trkpt lat="45.96145" lon="6.54944">
        <ele>2216</ele>
        <time>2026-02-02T10:59:28Z</time>
      </trkpt>
      <trkpt lat="45.96146" lon="6.54944">
        <ele>2217.5</ele>
        <time>2026-02-02T10:59:29Z</time>
      </trkpt>
      <trkpt lat="45.96146" lon="6.54945">
        <ele>2217.5</ele>
        <time>2026-02-02T10:59:30Z</time>
      </trkpt>
      <trkpt lat="45.96146" lon="6.54946">
        <ele>2217.5</ele>
        <time>2026-02-02T10:59:31Z</time>
      </trkpt>
      <trkpt lat="45.96147" lon="6.54947">
        <ele>2217.5</ele>
        <time>2026-02-02T10:59:32Z</time>
      </trkpt>
      <trkpt lat="45.96147" lon="6.54948">
        <ele>2216.6</ele>
        <time>2026-02-02T10:59:33Z</time>
      </trkpt>
      <trkpt lat="45.96148" lon="6.54949">
        <ele>2218</ele>
        <time>2026-02-02T10:59:34Z</time>
      </trkpt>
      <trkpt lat="45.96148" lon="6.5495">
        <ele>2218</ele>
        <time>2026-02-02T10:59:35Z</time>
      </trkpt>
      <trkpt lat="45.96149" lon="6.54951">
        <ele>2218</ele>
        <time>2026-02-02T10:59:36Z</time>
      </trkpt>
      <trkpt lat="45.96149" lon="6.54951">
        <ele>2218</ele>
        <time>2026-02-02T10:59:37Z</time>
      </trkpt>
      <trkpt lat="45.9615" lon="6.54952">
        <ele>2218</ele>
        <time>2026-02-02T10:59:38Z</time>
      </trkpt>
      <trkpt lat="45.9615" lon="6.54953">
        <ele>2219.4</ele>
        <time>2026-02-02T10:59:39Z</time>
      </trkpt>
      <trkpt lat="45.96151" lon="6.54954">
        <ele>2218.7</ele>
        <time>2026-02-02T10:59:40Z</time>
      </trkpt>
      <trkpt lat="45.96151" lon="6.54954">
        <ele>2218.7</ele>
        <time>2026-02-02T10:59:41Z</time>
      </trkpt>
      <trkpt lat="45.96152" lon="6.54956">
        <ele>2218.7</ele>
        <time>2026-02-02T10:59:42Z</time>
      </trkpt>
      <trkpt lat="45.96152" lon="6.54957">
        <ele>2218.7</ele>
        <time>2026-02-02T10:59:43Z</time>
      </trkpt>
      <trkpt lat="45.96153" lon="6.54958">
        <ele>2220.1</ele>
        <time>2026-02-02T10:59:44Z</time>
      </trkpt>
      <trkpt lat="45.96154" lon="6.54959">
        <ele>2219.4</ele>
        <time>2026-02-02T10:59:45Z</time>
      </trkpt>
      <trkpt lat="45.96154" lon="6.5496">
        <ele>2219.4</ele>
        <time>2026-02-02T10:59:47Z</time>
      </trkpt>
      <trkpt lat="45.96155" lon="6.54961">
        <ele>2219.4</ele>
        <time>2026-02-02T10:59:48Z</time>
      </trkpt>
      <trkpt lat="45.96156" lon="6.54962">
        <ele>2221</ele>
        <time>2026-02-02T10:59:49Z</time>
      </trkpt>
      <trkpt lat="45.96156" lon="6.54962">
        <ele>2221</ele>
        <time>2026-02-02T10:59:50Z</time>
      </trkpt>
      <trkpt lat="45.96155" lon="6.54961">
        <ele>2221</ele>
        <time>2026-02-02T10:59:51Z</time>
      </trkpt>
      <trkpt lat="45.96155" lon="6.54961">
        <ele>2221</ele>
        <time>2026-02-02T10:59:52Z</time>
      </trkpt>
      <trkpt lat="45.96155" lon="6.54961">
        <ele>2221</ele>
        <time>2026-02-02T10:59:53Z</time>
      </trkpt>
      <trkpt lat="45.96155" lon="6.54961">
        <ele>2219.4</ele>
        <time>2026-02-02T10:59:54Z</time>
      </trkpt>
      <trkpt lat="45.96155" lon="6.54961">
        <ele>2219.4</ele>
        <time>2026-02-02T10:59:55Z</time>
      </trkpt>
      <trkpt lat="45.96155" lon="6.54961">
        <ele>2219.4</ele>
        <time>2026-02-02T10:59:56Z</time>
      </trkpt>
      <trkpt lat="45.96155" lon="6.54961">
        <ele>2219.4</ele>
        <time>2026-02-02T10:59:57Z</time>
      </trkpt>
      <trkpt lat="45.96155" lon="6.54961">
        <ele>2221</ele>
        <time>2026-02-02T10:59:58Z</time>
      </trkpt>
      <trkpt lat="45.96155" lon="6.54961">
        <ele>2219.4</ele>
        <time>2026-02-02T10:59:59Z</time>
      </trkpt>
      <trkpt lat="45.96155" lon="6.54961">
        <ele>2219.4</ele>
        <time>2026-02-02T11:00:00Z</time>
      </trkpt>
      <trkpt lat="45.96155" lon="6.54961">
        <ele>2221</ele>
        <time>2026-02-02T11:00:01Z</time>
      </trkpt>
      <trkpt lat="45.96155" lon="6.54961">
        <ele>2219.4</ele>
        <time>2026-02-02T11:00:02Z</time>
      </trkpt>
      <trkpt lat="45.96155" lon="6.54961">
        <ele>2219.4</ele>
        <time>2026-02-02T11:00:03Z</time>
      </trkpt>
      <trkpt lat="45.96155" lon="6.54961">
        <ele>2221</ele>
        <time>2026-02-02T11:00:04Z</time>
      </trkpt>
      <trkpt lat="45.96155" lon="6.54961">
        <ele>2221</ele>
        <time>2026-02-02T11:00:05Z</time>
      </trkpt>
      <trkpt lat="45.96156" lon="6.54963">
        <ele>2221</ele>
        <time>2026-02-02T11:00:07Z</time>
      </trkpt>
      <trkpt lat="45.96156" lon="6.54964">
        <ele>2221</ele>
        <time>2026-02-02T11:00:08Z</time>
      </trkpt>
      <trkpt lat="45.96157" lon="6.54965">
        <ele>2220.3</ele>
        <time>2026-02-02T11:00:09Z</time>
      </trkpt>
      <trkpt lat="45.96157" lon="6.54966">
        <ele>2222</ele>
        <time>2026-02-02T11:00:10Z</time>
      </trkpt>
      <trkpt lat="45.96158" lon="6.54967">
        <ele>2222</ele>
        <time>2026-02-02T11:00:11Z</time>
      </trkpt>
      <trkpt lat="45.96159" lon="6.54968">
        <ele>2222</ele>
        <time>2026-02-02T11:00:12Z</time>
      </trkpt>
      <trkpt lat="45.9616" lon="6.54969">
        <ele>2221.4</ele>
        <time>2026-02-02T11:00:13Z</time>
      </trkpt>
      <trkpt lat="45.9616" lon="6.5497">
        <ele>2223.2</ele>
        <time>2026-02-02T11:00:14Z</time>
      </trkpt>
      <trkpt lat="45.96161" lon="6.54971">
        <ele>2223.2</ele>
        <time>2026-02-02T11:00:15Z</time>
      </trkpt>
      <trkpt lat="45.96161" lon="6.54971">
        <ele>2223.2</ele>
        <time>2026-02-02T11:00:16Z</time>
      </trkpt>
      <trkpt lat="45.96162" lon="6.54973">
        <ele>2223.2</ele>
        <time>2026-02-02T11:00:17Z</time>
      </trkpt>
      <trkpt lat="45.96163" lon="6.54974">
        <ele>2222.6</ele>
        <time>2026-02-02T11:00:18Z</time>
      </trkpt>
      <trkpt lat="45.96163" lon="6.54975">
        <ele>2224.4</ele>
        <time>2026-02-02T11:00:19Z</time>
      </trkpt>
      <trkpt lat="45.96163" lon="6.54976">
        <ele>2224.4</ele>
        <time>2026-02-02T11:00:20Z</time>
      </trkpt>
      <trkpt lat="45.96164" lon="6.54977">
        <ele>2224.4</ele>
        <time>2026-02-02T11:00:21Z</time>
      </trkpt>
      <trkpt lat="45.96164" lon="6.54978">
        <ele>2224.4</ele>
        <time>2026-02-02T11:00:22Z</time>
      </trkpt>
      <trkpt lat="45.96165" lon="6.54979">
        <ele>2226.3</ele>
        <time>2026-02-02T11:00:23Z</time>
      </trkpt>
      <trkpt lat="45.96165" lon="6.5498">
        <ele>2225.8</ele>
        <time>2026-02-02T11:00:24Z</time>
      </trkpt>
      <trkpt lat="45.96166" lon="6.5498">
        <ele>2225.8</ele>
        <time>2026-02-02T11:00:25Z</time>
      </trkpt>
      <trkpt lat="45.96166" lon="6.54981">
        <ele>2225.8</ele>
        <time>2026-02-02T11:00:26Z</time>
      </trkpt>
      <trkpt lat="45.96166" lon="6.54981">
        <ele>2225.8</ele>
        <time>2026-02-02T11:00:27Z</time>
      </trkpt>
      <trkpt lat="45.96166" lon="6.54981">
        <ele>2225.8</ele>
        <time>2026-02-02T11:00:28Z</time>
      </trkpt>
      <trkpt lat="45.96167" lon="6.54981">
        <ele>2225.8</ele>
        <time>2026-02-02T11:00:29Z</time>
      </trkpt>
      <trkpt lat="45.96167" lon="6.54982">
        <ele>2225.8</ele>
        <time>2026-02-02T11:00:30Z</time>
      </trkpt>
      <trkpt lat="45.96167" lon="6.54982">
        <ele>2225.8</ele>
        <time>2026-02-02T11:00:31Z</time>
      </trkpt>
      <trkpt lat="45.96168" lon="6.54983">
        <ele>2227.6</ele>
        <time>2026-02-02T11:00:32Z</time>
      </trkpt>
      <trkpt lat="45.96168" lon="6.54984">
        <ele>2227.2</ele>
        <time>2026-02-02T11:00:33Z</time>
      </trkpt>
      <trkpt lat="45.96169" lon="6.54985">
        <ele>2227.2</ele>
        <time>2026-02-02T11:00:34Z</time>
      </trkpt>
      <trkpt lat="45.9617" lon="6.54987">
        <ele>2227.2</ele>
        <time>2026-02-02T11:00:35Z</time>
      </trkpt>
      <trkpt lat="45.9617" lon="6.54988">
        <ele>2229</ele>
        <time>2026-02-02T11:00:36Z</time>
      </trkpt>
      <trkpt lat="45.96171" lon="6.54989">
        <ele>2229</ele>
        <time>2026-02-02T11:00:37Z</time>
      </trkpt>
      <trkpt lat="45.96171" lon="6.54989">
        <ele>2229</ele>
        <time>2026-02-02T11:00:38Z</time>
      </trkpt>
      <trkpt lat="45.96172" lon="6.5499">
        <ele>2228.6</ele>
        <time>2026-02-02T11:00:39Z</time>
      </trkpt>
      <trkpt lat="45.96172" lon="6.54991">
        <ele>2228.6</ele>
        <time>2026-02-02T11:00:40Z</time>
      </trkpt>
      <trkpt lat="45.96173" lon="6.54991">
        <ele>2230.4</ele>
        <time>2026-02-02T11:00:41Z</time>
      </trkpt>
      <trkpt lat="45.96173" lon="6.54992">
        <ele>2230.4</ele>
        <time>2026-02-02T11:00:42Z</time>
      </trkpt>
      <trkpt lat="45.96174" lon="6.54993">
        <ele>2230.1</ele>
        <time>2026-02-02T11:00:43Z</time>
      </trkpt>
      <trkpt lat="45.96175" lon="6.54994">
        <ele>2230.1</ele>
        <time>2026-02-02T11:00:44Z</time>
      </trkpt>
      <trkpt lat="45.96175" lon="6.54994">
        <ele>2230.1</ele>
        <time>2026-02-02T11:00:45Z</time>
      </trkpt>
      <trkpt lat="45.96175" lon="6.54994">
        <ele>2230.1</ele>
        <time>2026-02-02T11:00:46Z</time>
      </trkpt>
      <trkpt lat="45.96175" lon="6.54994">
        <ele>2230.1</ele>
        <time>2026-02-02T11:00:47Z</time>
      </trkpt>
      <trkpt lat="45.96175" lon="6.54994">
        <ele>2230.1</ele>
        <time>2026-02-02T11:00:48Z</time>
      </trkpt>
      <trkpt lat="45.96175" lon="6.54994">
        <ele>2230.1</ele>
        <time>2026-02-02T11:00:49Z</time>
      </trkpt>
      <trkpt lat="45.96175" lon="6.54995">
        <ele>2230.1</ele>
        <time>2026-02-02T11:00:51Z</time>
      </trkpt>
      <trkpt lat="45.96175" lon="6.54995">
        <ele>2230.1</ele>
        <time>2026-02-02T11:00:52Z</time>
      </trkpt>
      <trkpt lat="45.96176" lon="6.54995">
        <ele>2230.1</ele>
        <time>2026-02-02T11:00:53Z</time>
      </trkpt>
      <trkpt lat="45.96175" lon="6.54995">
        <ele>2230.1</ele>
        <time>2026-02-02T11:00:54Z</time>
      </trkpt>
      <trkpt lat="45.96175" lon="6.54995">
        <ele>2230.1</ele>
        <time>2026-02-02T11:00:55Z</time>
      </trkpt>
      <trkpt lat="45.96175" lon="6.54995">
        <ele>2230.1</ele>
        <time>2026-02-02T11:00:56Z</time>
      </trkpt>
      <trkpt lat="45.96176" lon="6.54996">
        <ele>2231.9</ele>
        <time>2026-02-02T11:00:57Z</time>
      </trkpt>
      <trkpt lat="45.96176" lon="6.54997">
        <ele>2231.9</ele>
        <time>2026-02-02T11:00:58Z</time>
      </trkpt>
      <trkpt lat="45.96176" lon="6.54998">
        <ele>2231.9</ele>
        <time>2026-02-02T11:00:59Z</time>
      </trkpt>
      <trkpt lat="45.96176" lon="6.54999">
        <ele>2231.9</ele>
        <time>2026-02-02T11:01:00Z</time>
      </trkpt>
      <trkpt lat="45.96176" lon="6.54999">
        <ele>2231.9</ele>
        <time>2026-02-02T11:01:01Z</time>
      </trkpt>
      <trkpt lat="45.96176" lon="6.55">
        <ele>2231.9</ele>
        <time>2026-02-02T11:01:03Z</time>
      </trkpt>
      <trkpt lat="45.96174" lon="6.55">
        <ele>2234</ele>
        <time>2026-02-02T11:01:04Z</time>
      </trkpt>
      <trkpt lat="45.96173" lon="6.55">
        <ele>2234</ele>
        <time>2026-02-02T11:01:05Z</time>
      </trkpt>
      <trkpt lat="45.96172" lon="6.54999">
        <ele>2232.2</ele>
        <time>2026-02-02T11:01:06Z</time>
      </trkpt>
      <trkpt lat="45.96171" lon="6.54999">
        <ele>2232.6</ele>
        <time>2026-02-02T11:01:07Z</time>
      </trkpt>
      <trkpt lat="45.96169" lon="6.54999">
        <ele>2232.6</ele>
        <time>2026-02-02T11:01:08Z</time>
      </trkpt>
      <trkpt lat="45.96168" lon="6.55">
        <ele>2232.6</ele>
        <time>2026-02-02T11:01:09Z</time>
      </trkpt>
      <trkpt lat="45.96167" lon="6.55">
        <ele>2234.8</ele>
        <time>2026-02-02T11:01:10Z</time>
      </trkpt>
      <trkpt lat="45.96166" lon="6.55">
        <ele>2234.8</ele>
        <time>2026-02-02T11:01:11Z</time>
      </trkpt>
      <trkpt lat="45.96165" lon="6.55001">
        <ele>2234.8</ele>
        <time>2026-02-02T11:01:12Z</time>
      </trkpt>
      <trkpt lat="45.96164" lon="6.55001">
        <ele>2235.2</ele>
        <time>2026-02-02T11:01:13Z</time>
      </trkpt>
      <trkpt lat="45.96163" lon="6.55001">
        <ele>2235.2</ele>
        <time>2026-02-02T11:01:14Z</time>
      </trkpt>
      <trkpt lat="45.96162" lon="6.55001">
        <ele>2235.7</ele>
        <time>2026-02-02T11:01:15Z</time>
      </trkpt>
      <trkpt lat="45.96161" lon="6.55001">
        <ele>2235.7</ele>
        <time>2026-02-02T11:01:16Z</time>
      </trkpt>
      <trkpt lat="45.9616" lon="6.55002">
        <ele>2235.7</ele>
        <time>2026-02-02T11:01:17Z</time>
      </trkpt>
      <trkpt lat="45.96159" lon="6.55002">
        <ele>2236.1</ele>
        <time>2026-02-02T11:01:18Z</time>
      </trkpt>
      <trkpt lat="45.96158" lon="6.55002">
        <ele>2236.1</ele>
        <time>2026-02-02T11:01:19Z</time>
      </trkpt>
      <trkpt lat="45.96157" lon="6.55002">
        <ele>2236.1</ele>
        <time>2026-02-02T11:01:20Z</time>
      </trkpt>
      <trkpt lat="45.96156" lon="6.55002">
        <ele>2236.6</ele>
        <time>2026-02-02T11:01:21Z</time>
      </trkpt>
      <trkpt lat="45.96156" lon="6.55003">
        <ele>2236.6</ele>
        <time>2026-02-02T11:01:22Z</time>
      </trkpt>
      <trkpt lat="45.96155" lon="6.55003">
        <ele>2236.6</ele>
        <time>2026-02-02T11:01:23Z</time>
      </trkpt>
      <trkpt lat="45.96154" lon="6.55003">
        <ele>2236.6</ele>
        <time>2026-02-02T11:01:24Z</time>
      </trkpt>
      <trkpt lat="45.96153" lon="6.55003">
        <ele>2237</ele>
        <time>2026-02-02T11:01:25Z</time>
      </trkpt>
      <trkpt lat="45.96152" lon="6.55004">
        <ele>2237</ele>
        <time>2026-02-02T11:01:26Z</time>
      </trkpt>
      <trkpt lat="45.96151" lon="6.55004">
        <ele>2237</ele>
        <time>2026-02-02T11:01:27Z</time>
      </trkpt>
      <trkpt lat="45.9615" lon="6.55003">
        <ele>2237.5</ele>
        <time>2026-02-02T11:01:28Z</time>
      </trkpt>
      <trkpt lat="45.96149" lon="6.55003">
        <ele>2237.5</ele>
        <time>2026-02-02T11:01:29Z</time>
      </trkpt>
      <trkpt lat="45.96148" lon="6.55003">
        <ele>2237.5</ele>
        <time>2026-02-02T11:01:30Z</time>
      </trkpt>
      <trkpt lat="45.96147" lon="6.55003">
        <ele>2238.1</ele>
        <time>2026-02-02T11:01:31Z</time>
      </trkpt>
      <trkpt lat="45.96146" lon="6.55003">
        <ele>2238.1</ele>
        <time>2026-02-02T11:01:32Z</time>
      </trkpt>
      <trkpt lat="45.96145" lon="6.55003">
        <ele>2238.1</ele>
        <time>2026-02-02T11:01:33Z</time>
      </trkpt>
      <trkpt lat="45.96143" lon="6.55003">
        <ele>2238.7</ele>
        <time>2026-02-02T11:01:35Z</time>
      </trkpt>
      <trkpt lat="45.96142" lon="6.55003">
        <ele>2238.7</ele>
        <time>2026-02-02T11:01:36Z</time>
      </trkpt>
      <trkpt lat="45.96141" lon="6.55003">
        <ele>2238.7</ele>
        <time>2026-02-02T11:01:37Z</time>
      </trkpt>
      <trkpt lat="45.96141" lon="6.55003">
        <ele>2239.4</ele>
        <time>2026-02-02T11:01:38Z</time>
      </trkpt>
      <trkpt lat="45.9614" lon="6.55004">
        <ele>2239.4</ele>
        <time>2026-02-02T11:01:39Z</time>
      </trkpt>
      <trkpt lat="45.96139" lon="6.55004">
        <ele>2239.4</ele>
        <time>2026-02-02T11:01:40Z</time>
      </trkpt>
      <trkpt lat="45.96138" lon="6.55004">
        <ele>2240</ele>
        <time>2026-02-02T11:01:41Z</time>
      </trkpt>
      <trkpt lat="45.96137" lon="6.55004">
        <ele>2240</ele>
        <time>2026-02-02T11:01:42Z</time>
      </trkpt>
      <trkpt lat="45.96136" lon="6.55004">
        <ele>2241.5</ele>
        <time>2026-02-02T11:01:43Z</time>
      </trkpt>
      <trkpt lat="45.96134" lon="6.55005">
        <ele>2242.1</ele>
        <time>2026-02-02T11:01:44Z</time>
      </trkpt>
      <trkpt lat="45.96133" lon="6.55005">
        <ele>2242.1</ele>
        <time>2026-02-02T11:01:45Z</time>
      </trkpt>
      <trkpt lat="45.96132" lon="6.55006">
        <ele>2242.7</ele>
        <time>2026-02-02T11:01:46Z</time>
      </trkpt>
      <trkpt lat="45.96131" lon="6.55006">
        <ele>2242.7</ele>
        <time>2026-02-02T11:01:47Z</time>
      </trkpt>
      <trkpt lat="45.9613" lon="6.55007">
        <ele>2242.7</ele>
        <time>2026-02-02T11:01:48Z</time>
      </trkpt>
      <trkpt lat="45.96129" lon="6.55007">
        <ele>2243.2</ele>
        <time>2026-02-02T11:01:49Z</time>
      </trkpt>
      <trkpt lat="45.96128" lon="6.55008">
        <ele>2243.2</ele>
        <time>2026-02-02T11:01:50Z</time>
      </trkpt>
      <trkpt lat="45.96128" lon="6.55008">
        <ele>2243.2</ele>
        <time>2026-02-02T11:01:51Z</time>
      </trkpt>
      <trkpt lat="45.96127" lon="6.55008">
        <ele>2243.2</ele>
        <time>2026-02-02T11:01:52Z</time>
      </trkpt>
      <trkpt lat="45.96126" lon="6.55009">
        <ele>2245</ele>
        <time>2026-02-02T11:01:53Z</time>
      </trkpt>
      <trkpt lat="45.96126" lon="6.55009">
        <ele>2245</ele>
        <time>2026-02-02T11:01:54Z</time>
      </trkpt>
      <trkpt lat="45.96125" lon="6.5501">
        <ele>2245</ele>
        <time>2026-02-02T11:01:55Z</time>
      </trkpt>
      <trkpt lat="45.96124" lon="6.5501">
        <ele>2245</ele>
        <time>2026-02-02T11:01:56Z</time>
      </trkpt>
      <trkpt lat="45.96124" lon="6.5501">
        <ele>2245</ele>
        <time>2026-02-02T11:01:57Z</time>
      </trkpt>
      <trkpt lat="45.96124" lon="6.5501">
        <ele>2245</ele>
        <time>2026-02-02T11:01:58Z</time>
      </trkpt>
      <trkpt lat="45.96124" lon="6.5501">
        <ele>2245</ele>
        <time>2026-02-02T11:01:59Z</time>
      </trkpt>
      <trkpt lat="45.96125" lon="6.55009">
        <ele>2245</ele>
        <time>2026-02-02T11:02:00Z</time>
      </trkpt>
      <trkpt lat="45.96125" lon="6.55009">
        <ele>2245</ele>
        <time>2026-02-02T11:02:01Z</time>
      </trkpt>
      <trkpt lat="45.96125" lon="6.55009">
        <ele>2245</ele>
        <time>2026-02-02T11:02:02Z</time>
      </trkpt>
      <trkpt lat="45.96125" lon="6.5501">
        <ele>2245</ele>
        <time>2026-02-02T11:02:03Z</time>
      </trkpt>
      <trkpt lat="45.96125" lon="6.5501">
        <ele>2245</ele>
        <time>2026-02-02T11:02:04Z</time>
      </trkpt>
      <trkpt lat="45.96125" lon="6.55009">
        <ele>2245</ele>
        <time>2026-02-02T11:02:05Z</time>
      </trkpt>
      <trkpt lat="45.96125" lon="6.55009">
        <ele>2245</ele>
        <time>2026-02-02T11:02:06Z</time>
      </trkpt>
      <trkpt lat="45.96125" lon="6.55009">
        <ele>2245</ele>
        <time>2026-02-02T11:02:08Z</time>
      </trkpt>
      <trkpt lat="45.96125" lon="6.55009">
        <ele>2245</ele>
        <time>2026-02-02T11:02:09Z</time>
      </trkpt>
      <trkpt lat="45.96124" lon="6.5501">
        <ele>2245</ele>
        <time>2026-02-02T11:02:10Z</time>
      </trkpt>
      <trkpt lat="45.96124" lon="6.5501">
        <ele>2245</ele>
        <time>2026-02-02T11:02:11Z</time>
      </trkpt>
      <trkpt lat="45.96123" lon="6.55011">
        <ele>2245.5</ele>
        <time>2026-02-02T11:02:12Z</time>
      </trkpt>
      <trkpt lat="45.96122" lon="6.55012">
        <ele>2245.5</ele>
        <time>2026-02-02T11:02:13Z</time>
      </trkpt>
      <trkpt lat="45.96121" lon="6.55013">
        <ele>2246.8</ele>
        <time>2026-02-02T11:02:14Z</time>
      </trkpt>
      <trkpt lat="45.9612" lon="6.55014">
        <ele>2247.3</ele>
        <time>2026-02-02T11:02:15Z</time>
      </trkpt>
      <trkpt lat="45.9612" lon="6.55016">
        <ele>2247.3</ele>
        <time>2026-02-02T11:02:16Z</time>
      </trkpt>
      <trkpt lat="45.9612" lon="6.55018">
        <ele>2248.6</ele>
        <time>2026-02-02T11:02:17Z</time>
      </trkpt>
      <trkpt lat="45.96121" lon="6.55019">
        <ele>2248.2</ele>
        <time>2026-02-02T11:02:18Z</time>
      </trkpt>
      <trkpt lat="45.96121" lon="6.55021">
        <ele>2248.2</ele>
        <time>2026-02-02T11:02:19Z</time>
      </trkpt>
      <trkpt lat="45.96122" lon="6.55023">
        <ele>2249.6</ele>
        <time>2026-02-02T11:02:20Z</time>
      </trkpt>
      <trkpt lat="45.96122" lon="6.55024">
        <ele>2249.6</ele>
        <time>2026-02-02T11:02:21Z</time>
      </trkpt>
      <trkpt lat="45.96123" lon="6.55025">
        <ele>2249.6</ele>
        <time>2026-02-02T11:02:22Z</time>
      </trkpt>
      <trkpt lat="45.96123" lon="6.55026">
        <ele>2251</ele>
        <time>2026-02-02T11:02:23Z</time>
      </trkpt>
      <trkpt lat="45.96123" lon="6.55028">
        <ele>2250.6</ele>
        <time>2026-02-02T11:02:24Z</time>
      </trkpt>
      <trkpt lat="45.96124" lon="6.55029">
        <ele>2250.6</ele>
        <time>2026-02-02T11:02:25Z</time>
      </trkpt>
      <trkpt lat="45.96124" lon="6.55031">
        <ele>2251.9</ele>
        <time>2026-02-02T11:02:26Z</time>
      </trkpt>
      <trkpt lat="45.96124" lon="6.55032">
        <ele>2251.9</ele>
        <time>2026-02-02T11:02:27Z</time>
      </trkpt>
      <trkpt lat="45.96125" lon="6.55033">
        <ele>2251.9</ele>
        <time>2026-02-02T11:02:28Z</time>
      </trkpt>
      <trkpt lat="45.96125" lon="6.55035">
        <ele>2253.2</ele>
        <time>2026-02-02T11:02:29Z</time>
      </trkpt>
      <trkpt lat="45.96126" lon="6.55036">
        <ele>2253.2</ele>
        <time>2026-02-02T11:02:30Z</time>
      </trkpt>
      <trkpt lat="45.96126" lon="6.55037">
        <ele>2253.2</ele>
        <time>2026-02-02T11:02:31Z</time>
      </trkpt>
      <trkpt lat="45.96127" lon="6.55038">
        <ele>2252.9</ele>
        <time>2026-02-02T11:02:32Z</time>
      </trkpt>
      <trkpt lat="45.96127" lon="6.55039">
        <ele>2254.1</ele>
        <time>2026-02-02T11:02:33Z</time>
      </trkpt>
      <trkpt lat="45.96128" lon="6.5504">
        <ele>2254.1</ele>
        <time>2026-02-02T11:02:34Z</time>
      </trkpt>
      <trkpt lat="45.96128" lon="6.55041">
        <ele>2254.1</ele>
        <time>2026-02-02T11:02:35Z</time>
      </trkpt>
      <trkpt lat="45.96129" lon="6.55042">
        <ele>2254.1</ele>
        <time>2026-02-02T11:02:36Z</time>
      </trkpt>
      <trkpt lat="45.96129" lon="6.55042">
        <ele>2254.1</ele>
        <time>2026-02-02T11:02:37Z</time>
      </trkpt>
      <trkpt lat="45.96129" lon="6.55042">
        <ele>2253.8</ele>
        <time>2026-02-02T11:02:38Z</time>
      </trkpt>
      <trkpt lat="45.9613" lon="6.55042">
        <ele>2253.8</ele>
        <time>2026-02-02T11:02:39Z</time>
      </trkpt>
      <trkpt lat="45.9613" lon="6.55042">
        <ele>2253.8</ele>
        <time>2026-02-02T11:02:40Z</time>
      </trkpt>
      <trkpt lat="45.9613" lon="6.55042">
        <ele>2253.8</ele>
        <time>2026-02-02T11:02:41Z</time>
      </trkpt>
      <trkpt lat="45.9613" lon="6.55042">
        <ele>2253.8</ele>
        <time>2026-02-02T11:02:42Z</time>
      </trkpt>
      <trkpt lat="45.9613" lon="6.55042">
        <ele>2253.8</ele>
        <time>2026-02-02T11:02:43Z</time>
      </trkpt>
      <trkpt lat="45.9613" lon="6.55042">
        <ele>2253.8</ele>
        <time>2026-02-02T11:02:44Z</time>
      </trkpt>
      <trkpt lat="45.9613" lon="6.55042">
        <ele>2253.8</ele>
        <time>2026-02-02T11:02:45Z</time>
      </trkpt>
      <trkpt lat="45.9613" lon="6.55042">
        <ele>2253.8</ele>
        <time>2026-02-02T11:02:46Z</time>
      </trkpt>
      <trkpt lat="45.9613" lon="6.55042">
        <ele>2253.8</ele>
        <time>2026-02-02T11:02:47Z</time>
      </trkpt>
      <trkpt lat="45.9613" lon="6.55041">
        <ele>2253.8</ele>
        <time>2026-02-02T11:02:48Z</time>
      </trkpt>
      <trkpt lat="45.9613" lon="6.55041">
        <ele>2253.8</ele>
        <time>2026-02-02T11:02:49Z</time>
      </trkpt>
      <trkpt lat="45.9613" lon="6.55041">
        <ele>2253.8</ele>
        <time>2026-02-02T11:02:50Z</time>
      </trkpt>
      <trkpt lat="45.9613" lon="6.55041">
        <ele>2253.8</ele>
        <time>2026-02-02T11:02:51Z</time>
      </trkpt>
      <trkpt lat="45.9613" lon="6.55041">
        <ele>2253.8</ele>
        <time>2026-02-02T11:02:52Z</time>
      </trkpt>
      <trkpt lat="45.9613" lon="6.55041">
        <ele>2253.8</ele>
        <time>2026-02-02T11:02:53Z</time>
      </trkpt>
      <trkpt lat="45.9613" lon="6.55041">
        <ele>2253.8</ele>
        <time>2026-02-02T11:02:54Z</time>
      </trkpt>
      <trkpt lat="45.9613" lon="6.55041">
        <ele>2253.8</ele>
        <time>2026-02-02T11:02:55Z</time>
      </trkpt>
      <trkpt lat="45.9613" lon="6.55042">
        <ele>2253.8</ele>
        <time>2026-02-02T11:02:56Z</time>
      </trkpt>
      <trkpt lat="45.96131" lon="6.55042">
        <ele>2253.8</ele>
        <time>2026-02-02T11:02:57Z</time>
      </trkpt>
      <trkpt lat="45.96132" lon="6.55042">
        <ele>2253.8</ele>
        <time>2026-02-02T11:02:58Z</time>
      </trkpt>
      <trkpt lat="45.96133" lon="6.55043">
        <ele>2254.7</ele>
        <time>2026-02-02T11:02:59Z</time>
      </trkpt>
      <trkpt lat="45.96135" lon="6.55044">
        <ele>2254.7</ele>
        <time>2026-02-02T11:03:01Z</time>
      </trkpt>
      <trkpt lat="45.96136" lon="6.55045">
        <ele>2254.3</ele>
        <time>2026-02-02T11:03:02Z</time>
      </trkpt>
      <trkpt lat="45.96138" lon="6.55047">
        <ele>2254.3</ele>
        <time>2026-02-02T11:03:03Z</time>
      </trkpt>
      <trkpt lat="45.96138" lon="6.55047">
        <ele>2255.5</ele>
        <time>2026-02-02T11:03:04Z</time>
      </trkpt>
      <trkpt lat="45.96139" lon="6.55048">
        <ele>2255.2</ele>
        <time>2026-02-02T11:03:05Z</time>
      </trkpt>
      <trkpt lat="45.96139" lon="6.55049">
        <ele>2255.2</ele>
        <time>2026-02-02T11:03:06Z</time>
      </trkpt>
      <trkpt lat="45.9614" lon="6.55049">
        <ele>2255.2</ele>
        <time>2026-02-02T11:03:07Z</time>
      </trkpt>
      <trkpt lat="45.96141" lon="6.5505">
        <ele>2255.2</ele>
        <time>2026-02-02T11:03:08Z</time>
      </trkpt>
      <trkpt lat="45.96142" lon="6.55051">
        <ele>2254.8</ele>
        <time>2026-02-02T11:03:09Z</time>
      </trkpt>
      <trkpt lat="45.96142" lon="6.55052">
        <ele>2256.1</ele>
        <time>2026-02-02T11:03:10Z</time>
      </trkpt>
      <trkpt lat="45.96143" lon="6.55053">
        <ele>2256.1</ele>
        <time>2026-02-02T11:03:11Z</time>
      </trkpt>
      <trkpt lat="45.96145" lon="6.55053">
        <ele>2255.8</ele>
        <time>2026-02-02T11:03:12Z</time>
      </trkpt>
      <trkpt lat="45.96146" lon="6.55053">
        <ele>2255.8</ele>
        <time>2026-02-02T11:03:13Z</time>
      </trkpt>
      <trkpt lat="45.96147" lon="6.55053">
        <ele>2255.8</ele>
        <time>2026-02-02T11:03:14Z</time>
      </trkpt>
      <trkpt lat="45.96148" lon="6.55053">
        <ele>2255.5</ele>
        <time>2026-02-02T11:03:16Z</time>
      </trkpt>
      <trkpt lat="45.96148" lon="6.55054">
        <ele>2255.5</ele>
        <time>2026-02-02T11:03:17Z</time>
      </trkpt>
      <trkpt lat="45.96149" lon="6.55054">
        <ele>2255.5</ele>
        <time>2026-02-02T11:03:18Z</time>
      </trkpt>
      <trkpt lat="45.9615" lon="6.55054">
        <ele>2255.5</ele>
        <time>2026-02-02T11:03:19Z</time>
      </trkpt>
      <trkpt lat="45.96151" lon="6.55055">
        <ele>2255.2</ele>
        <time>2026-02-02T11:03:20Z</time>
      </trkpt>
      <trkpt lat="45.96151" lon="6.55055">
        <ele>2255.2</ele>
        <time>2026-02-02T11:03:21Z</time>
      </trkpt>
      <trkpt lat="45.96152" lon="6.55055">
        <ele>2255.2</ele>
        <time>2026-02-02T11:03:22Z</time>
      </trkpt>
      <trkpt lat="45.96152" lon="6.55056">
        <ele>2255.2</ele>
        <time>2026-02-02T11:03:23Z</time>
      </trkpt>
      <trkpt lat="45.96153" lon="6.55056">
        <ele>2256.6</ele>
        <time>2026-02-02T11:03:24Z</time>
      </trkpt>
      <trkpt lat="45.96153" lon="6.55057">
        <ele>2256.6</ele>
        <time>2026-02-02T11:03:25Z</time>
      </trkpt>
      <trkpt lat="45.96154" lon="6.55057">
        <ele>2256.4</ele>
        <time>2026-02-02T11:03:26Z</time>
      </trkpt>
      <trkpt lat="45.96154" lon="6.55058">
        <ele>2256.4</ele>
        <time>2026-02-02T11:03:27Z</time>
      </trkpt>
      <trkpt lat="45.96155" lon="6.55059">
        <ele>2256.4</ele>
        <time>2026-02-02T11:03:28Z</time>
      </trkpt>
      <trkpt lat="45.96156" lon="6.5506">
        <ele>2256.4</ele>
        <time>2026-02-02T11:03:29Z</time>
      </trkpt>
      <trkpt lat="45.96157" lon="6.5506">
        <ele>2257.7</ele>
        <time>2026-02-02T11:03:30Z</time>
      </trkpt>
      <trkpt lat="45.96158" lon="6.55061">
        <ele>2257.7</ele>
        <time>2026-02-02T11:03:31Z</time>
      </trkpt>
      <trkpt lat="45.96159" lon="6.55062">
        <ele>2257.7</ele>
        <time>2026-02-02T11:03:32Z</time>
      </trkpt>
      <trkpt lat="45.9616" lon="6.55062">
        <ele>2257.4</ele>
        <time>2026-02-02T11:03:33Z</time>
      </trkpt>
      <trkpt lat="45.96161" lon="6.55063">
        <ele>2257.4</ele>
        <time>2026-02-02T11:03:34Z</time>
      </trkpt>
      <trkpt lat="45.96162" lon="6.55064">
        <ele>2257.4</ele>
        <time>2026-02-02T11:03:35Z</time>
      </trkpt>
      <trkpt lat="45.96163" lon="6.55065">
        <ele>2258.7</ele>
        <time>2026-02-02T11:03:36Z</time>
      </trkpt>
      <trkpt lat="45.96163" lon="6.55065">
        <ele>2258.7</ele>
        <time>2026-02-02T11:03:37Z</time>
      </trkpt>
      <trkpt lat="45.96165" lon="6.55067">
        <ele>2258.7</ele>
        <time>2026-02-02T11:03:38Z</time>
      </trkpt>
      <trkpt lat="45.96165" lon="6.55068">
        <ele>2258.7</ele>
        <time>2026-02-02T11:03:39Z</time>
      </trkpt>
      <trkpt lat="45.96166" lon="6.55068">
        <ele>2258.4</ele>
        <time>2026-02-02T11:03:40Z</time>
      </trkpt>
      <trkpt lat="45.96166" lon="6.55069">
        <ele>2259.9</ele>
        <time>2026-02-02T11:03:41Z</time>
      </trkpt>
      <trkpt lat="45.96167" lon="6.5507">
        <ele>2259.9</ele>
        <time>2026-02-02T11:03:42Z</time>
      </trkpt>
      <trkpt lat="45.96168" lon="6.55071">
        <ele>2259.9</ele>
        <time>2026-02-02T11:03:43Z</time>
      </trkpt>
      <trkpt lat="45.96169" lon="6.55071">
        <ele>2259.6</ele>
        <time>2026-02-02T11:03:44Z</time>
      </trkpt>
      <trkpt lat="45.96169" lon="6.55072">
        <ele>2259.6</ele>
        <time>2026-02-02T11:03:45Z</time>
      </trkpt>
      <trkpt lat="45.9617" lon="6.55073">
        <ele>2261</ele>
        <time>2026-02-02T11:03:47Z</time>
      </trkpt>
      <trkpt lat="45.9617" lon="6.55073">
        <ele>2259.6</ele>
        <time>2026-02-02T11:03:48Z</time>
      </trkpt>
      <trkpt lat="45.9617" lon="6.55072">
        <ele>2259.6</ele>
        <time>2026-02-02T11:03:49Z</time>
      </trkpt>
      <trkpt lat="45.96169" lon="6.55072">
        <ele>2259.6</ele>
        <time>2026-02-02T11:03:50Z</time>
      </trkpt>
      <trkpt lat="45.96169" lon="6.55072">
        <ele>2259.6</ele>
        <time>2026-02-02T11:03:51Z</time>
      </trkpt>
      <trkpt lat="45.96169" lon="6.55072">
        <ele>2259.6</ele>
        <time>2026-02-02T11:03:52Z</time>
      </trkpt>
      <trkpt lat="45.96169" lon="6.55072">
        <ele>2259.6</ele>
        <time>2026-02-02T11:03:53Z</time>
      </trkpt>
      <trkpt lat="45.96169" lon="6.55072">
        <ele>2259.6</ele>
        <time>2026-02-02T11:03:54Z</time>
      </trkpt>
      <trkpt lat="45.96169" lon="6.55072">
        <ele>2259.6</ele>
        <time>2026-02-02T11:03:55Z</time>
      </trkpt>
      <trkpt lat="45.9617" lon="6.55074">
        <ele>2261</ele>
        <time>2026-02-02T11:03:56Z</time>
      </trkpt>
      <trkpt lat="45.96171" lon="6.55074">
        <ele>2260.8</ele>
        <time>2026-02-02T11:03:57Z</time>
      </trkpt>
      <trkpt lat="45.96172" lon="6.55074">
        <ele>2260.8</ele>
        <time>2026-02-02T11:03:58Z</time>
      </trkpt>
      <trkpt lat="45.96172" lon="6.55075">
        <ele>2260.8</ele>
        <time>2026-02-02T11:03:59Z</time>
      </trkpt>
      <trkpt lat="45.96172" lon="6.55075">
        <ele>2260.8</ele>
        <time>2026-02-02T11:04:00Z</time>
      </trkpt>
      <trkpt lat="45.96173" lon="6.55076">
        <ele>2260.8</ele>
        <time>2026-02-02T11:04:01Z</time>
      </trkpt>
      <trkpt lat="45.96174" lon="6.55077">
        <ele>2262.2</ele>
        <time>2026-02-02T11:04:02Z</time>
      </trkpt>
      <trkpt lat="45.96174" lon="6.55078">
        <ele>2262.2</ele>
        <time>2026-02-02T11:04:03Z</time>
      </trkpt>
      <trkpt lat="45.96175" lon="6.55079">
        <ele>2262</ele>
        <time>2026-02-02T11:04:04Z</time>
      </trkpt>
      <trkpt lat="45.96175" lon="6.5508">
        <ele>2262</ele>
        <time>2026-02-02T11:04:05Z</time>
      </trkpt>
      <trkpt lat="45.96176" lon="6.55081">
        <ele>2262</ele>
        <time>2026-02-02T11:04:06Z</time>
      </trkpt>
      <trkpt lat="45.96177" lon="6.55082">
        <ele>2263.2</ele>
        <time>2026-02-02T11:04:07Z</time>
      </trkpt>
      <trkpt lat="45.96178" lon="6.55083">
        <ele>2263</ele>
        <time>2026-02-02T11:04:08Z</time>
      </trkpt>
      <trkpt lat="45.96178" lon="6.55084">
        <ele>2263</ele>
        <time>2026-02-02T11:04:09Z</time>
      </trkpt>
      <trkpt lat="45.96178" lon="6.55086">
        <ele>2264.3</ele>
        <time>2026-02-02T11:04:10Z</time>
      </trkpt>
      <trkpt lat="45.96178" lon="6.55086">
        <ele>2264.3</ele>
        <time>2026-02-02T11:04:11Z</time>
      </trkpt>
      <trkpt lat="45.96179" lon="6.55087">
        <ele>2264.3</ele>
        <time>2026-02-02T11:04:12Z</time>
      </trkpt>
      <trkpt lat="45.96179" lon="6.55088">
        <ele>2264.3</ele>
        <time>2026-02-02T11:04:13Z</time>
      </trkpt>
      <trkpt lat="45.9618" lon="6.5509">
        <ele>2265.5</ele>
        <time>2026-02-02T11:04:14Z</time>
      </trkpt>
      <trkpt lat="45.9618" lon="6.55091">
        <ele>2265.3</ele>
        <time>2026-02-02T11:04:15Z</time>
      </trkpt>
      <trkpt lat="45.96181" lon="6.55092">
        <ele>2265.3</ele>
        <time>2026-02-02T11:04:16Z</time>
      </trkpt>
      <trkpt lat="45.96181" lon="6.55093">
        <ele>2265.3</ele>
        <time>2026-02-02T11:04:17Z</time>
      </trkpt>
      <trkpt lat="45.96182" lon="6.55093">
        <ele>2265.3</ele>
        <time>2026-02-02T11:04:18Z</time>
      </trkpt>
      <trkpt lat="45.96182" lon="6.55094">
        <ele>2265.3</ele>
        <time>2026-02-02T11:04:19Z</time>
      </trkpt>
      <trkpt lat="45.96183" lon="6.55094">
        <ele>2265.3</ele>
        <time>2026-02-02T11:04:20Z</time>
      </trkpt>
      <trkpt lat="45.96184" lon="6.55095">
        <ele>2266.3</ele>
        <time>2026-02-02T11:04:21Z</time>
      </trkpt>
      <trkpt lat="45.96185" lon="6.55095">
        <ele>2266.3</ele>
        <time>2026-02-02T11:04:22Z</time>
      </trkpt>
      <trkpt lat="45.96185" lon="6.55095">
        <ele>2266.3</ele>
        <time>2026-02-02T11:04:23Z</time>
      </trkpt>
      <trkpt lat="45.96186" lon="6.55096">
        <ele>2266.1</ele>
        <time>2026-02-02T11:04:24Z</time>
      </trkpt>
      <trkpt lat="45.96187" lon="6.55097">
        <ele>2266.1</ele>
        <time>2026-02-02T11:04:25Z</time>
      </trkpt>
      <trkpt lat="45.96187" lon="6.55097">
        <ele>2266.1</ele>
        <time>2026-02-02T11:04:26Z</time>
      </trkpt>
      <trkpt lat="45.96187" lon="6.55098">
        <ele>2266.1</ele>
        <time>2026-02-02T11:04:27Z</time>
      </trkpt>
      <trkpt lat="45.96188" lon="6.55099">
        <ele>2267.3</ele>
        <time>2026-02-02T11:04:28Z</time>
      </trkpt>
      <trkpt lat="45.96188" lon="6.551">
        <ele>2267.3</ele>
        <time>2026-02-02T11:04:29Z</time>
      </trkpt>
      <trkpt lat="45.96188" lon="6.55101">
        <ele>2267.3</ele>
        <time>2026-02-02T11:04:30Z</time>
      </trkpt>
      <trkpt lat="45.96188" lon="6.55102">
        <ele>2267.3</ele>
        <time>2026-02-02T11:04:31Z</time>
      </trkpt>
      <trkpt lat="45.96188" lon="6.55103">
        <ele>2267.3</ele>
        <time>2026-02-02T11:04:32Z</time>
      </trkpt>
      <trkpt lat="45.96189" lon="6.55103">
        <ele>2268.6</ele>
        <time>2026-02-02T11:04:33Z</time>
      </trkpt>
      <trkpt lat="45.96189" lon="6.55103">
        <ele>2268.6</ele>
        <time>2026-02-02T11:04:34Z</time>
      </trkpt>
      <trkpt lat="45.96189" lon="6.55103">
        <ele>2268.6</ele>
        <time>2026-02-02T11:04:35Z</time>
      </trkpt>
      <trkpt lat="45.96189" lon="6.55103">
        <ele>2268.6</ele>
        <time>2026-02-02T11:04:36Z</time>
      </trkpt>
      <trkpt lat="45.96189" lon="6.55103">
        <ele>2267.3</ele>
        <time>2026-02-02T11:04:37Z</time>
      </trkpt>
      <trkpt lat="45.96189" lon="6.55103">
        <ele>2267.3</ele>
        <time>2026-02-02T11:04:38Z</time>
      </trkpt>
      <trkpt lat="45.96189" lon="6.55103">
        <ele>2267.3</ele>
        <time>2026-02-02T11:04:39Z</time>
      </trkpt>
      <trkpt lat="45.96189" lon="6.55103">
        <ele>2267.3</ele>
        <time>2026-02-02T11:04:40Z</time>
      </trkpt>
      <trkpt lat="45.96189" lon="6.55103">
        <ele>2267.3</ele>
        <time>2026-02-02T11:04:41Z</time>
      </trkpt>
      <trkpt lat="45.96189" lon="6.55103">
        <ele>2267.3</ele>
        <time>2026-02-02T11:04:42Z</time>
      </trkpt>
      <trkpt lat="45.96189" lon="6.55103">
        <ele>2267.3</ele>
        <time>2026-02-02T11:04:43Z</time>
      </trkpt>
      <trkpt lat="45.96189" lon="6.55103">
        <ele>2267.3</ele>
        <time>2026-02-02T11:04:44Z</time>
      </trkpt>
      <trkpt lat="45.96189" lon="6.55103">
        <ele>2267.3</ele>
        <time>2026-02-02T11:04:45Z</time>
      </trkpt>
      <trkpt lat="45.96189" lon="6.55103">
        <ele>2267.3</ele>
        <time>2026-02-02T11:04:46Z</time>
      </trkpt>
      <trkpt lat="45.96189" lon="6.55103">
        <ele>2267.3</ele>
        <time>2026-02-02T11:04:47Z</time>
      </trkpt>
      <trkpt lat="45.96189" lon="6.55103">
        <ele>2267.3</ele>
        <time>2026-02-02T11:04:48Z</time>
      </trkpt>
      <trkpt lat="45.96189" lon="6.55103">
        <ele>2267.3</ele>
        <time>2026-02-02T11:04:49Z</time>
      </trkpt>
      <trkpt lat="45.96189" lon="6.55103">
        <ele>2268.4</ele>
        <time>2026-02-02T11:04:50Z</time>
      </trkpt>
      <trkpt lat="45.9619" lon="6.55104">
        <ele>2268.4</ele>
        <time>2026-02-02T11:04:51Z</time>
      </trkpt>
      <trkpt lat="45.9619" lon="6.55105">
        <ele>2268.4</ele>
        <time>2026-02-02T11:04:52Z</time>
      </trkpt>
      <trkpt lat="45.9619" lon="6.55106">
        <ele>2268.4</ele>
        <time>2026-02-02T11:04:53Z</time>
      </trkpt>
      <trkpt lat="45.96191" lon="6.55107">
        <ele>2269.8</ele>
        <time>2026-02-02T11:04:54Z</time>
      </trkpt>
      <trkpt lat="45.96191" lon="6.55108">
        <ele>2269.8</ele>
        <time>2026-02-02T11:04:55Z</time>
      </trkpt>
      <trkpt lat="45.96191" lon="6.55109">
        <ele>2269.8</ele>
        <time>2026-02-02T11:04:56Z</time>
      </trkpt>
      <trkpt lat="45.96191" lon="6.5511">
        <ele>2269.8</ele>
        <time>2026-02-02T11:04:57Z</time>
      </trkpt>
      <trkpt lat="45.96191" lon="6.55111">
        <ele>2269.8</ele>
        <time>2026-02-02T11:04:58Z</time>
      </trkpt>
      <trkpt lat="45.96191" lon="6.55112">
        <ele>2271.2</ele>
        <time>2026-02-02T11:04:59Z</time>
      </trkpt>
      <trkpt lat="45.9619" lon="6.55114">
        <ele>2271.2</ele>
        <time>2026-02-02T11:05:00Z</time>
      </trkpt>
      <trkpt lat="45.9619" lon="6.55115">
        <ele>2271.2</ele>
        <time>2026-02-02T11:05:01Z</time>
      </trkpt>
      <trkpt lat="45.96189" lon="6.55116">
        <ele>2272.5</ele>
        <time>2026-02-02T11:05:02Z</time>
      </trkpt>
      <trkpt lat="45.96189" lon="6.55117">
        <ele>2272.7</ele>
        <time>2026-02-02T11:05:03Z</time>
      </trkpt>
      <trkpt lat="45.96188" lon="6.55119">
        <ele>2272.7</ele>
        <time>2026-02-02T11:05:04Z</time>
      </trkpt>
      <trkpt lat="45.96188" lon="6.5512">
        <ele>2274</ele>
        <time>2026-02-02T11:05:05Z</time>
      </trkpt>
      <trkpt lat="45.96188" lon="6.55121">
        <ele>2274</ele>
        <time>2026-02-02T11:05:06Z</time>
      </trkpt>
      <trkpt lat="45.96188" lon="6.55122">
        <ele>2274</ele>
        <time>2026-02-02T11:05:07Z</time>
      </trkpt>
      <trkpt lat="45.96188" lon="6.55123">
        <ele>2274</ele>
        <time>2026-02-02T11:05:08Z</time>
      </trkpt>
      <trkpt lat="45.96187" lon="6.55124">
        <ele>2274</ele>
        <time>2026-02-02T11:05:09Z</time>
      </trkpt>
      <trkpt lat="45.96187" lon="6.55125">
        <ele>2275.2</ele>
        <time>2026-02-02T11:05:10Z</time>
      </trkpt>
      <trkpt lat="45.96186" lon="6.55125">
        <ele>2275.4</ele>
        <time>2026-02-02T11:05:11Z</time>
      </trkpt>
      <trkpt lat="45.96186" lon="6.55126">
        <ele>2275.4</ele>
        <time>2026-02-02T11:05:12Z</time>
      </trkpt>
      <trkpt lat="45.96186" lon="6.55126">
        <ele>2275.4</ele>
        <time>2026-02-02T11:05:13Z</time>
      </trkpt>
      <trkpt lat="45.96186" lon="6.55126">
        <ele>2275.4</ele>
        <time>2026-02-02T11:05:14Z</time>
      </trkpt>
      <trkpt lat="45.96186" lon="6.55126">
        <ele>2275.4</ele>
        <time>2026-02-02T11:05:15Z</time>
      </trkpt>
      <trkpt lat="45.96186" lon="6.55126">
        <ele>2275.4</ele>
        <time>2026-02-02T11:05:16Z</time>
      </trkpt>
      <trkpt lat="45.96186" lon="6.55126">
        <ele>2275.4</ele>
        <time>2026-02-02T11:05:17Z</time>
      </trkpt>
      <trkpt lat="45.96186" lon="6.55126">
        <ele>2275.4</ele>
        <time>2026-02-02T11:05:18Z</time>
      </trkpt>
      <trkpt lat="45.96186" lon="6.55126">
        <ele>2275.4</ele>
        <time>2026-02-02T11:05:19Z</time>
      </trkpt>
      <trkpt lat="45.96186" lon="6.55126">
        <ele>2275.4</ele>
        <time>2026-02-02T11:05:20Z</time>
      </trkpt>
      <trkpt lat="45.96186" lon="6.55126">
        <ele>2275.4</ele>
        <time>2026-02-02T11:05:21Z</time>
      </trkpt>
      <trkpt lat="45.96186" lon="6.55125">
        <ele>2275.4</ele>
        <time>2026-02-02T11:05:22Z</time>
      </trkpt>
      <trkpt lat="45.96186" lon="6.55125">
        <ele>2275.4</ele>
        <time>2026-02-02T11:05:23Z</time>
      </trkpt>
      <trkpt lat="45.96186" lon="6.55125">
        <ele>2275.2</ele>
        <time>2026-02-02T11:05:24Z</time>
      </trkpt>
      <trkpt lat="45.96186" lon="6.55125">
        <ele>2275.4</ele>
        <time>2026-02-02T11:05:25Z</time>
      </trkpt>
      <trkpt lat="45.96186" lon="6.55125">
        <ele>2275.4</ele>
        <time>2026-02-02T11:05:26Z</time>
      </trkpt>
      <trkpt lat="45.96186" lon="6.55125">
        <ele>2275.4</ele>
        <time>2026-02-02T11:05:27Z</time>
      </trkpt>
      <trkpt lat="45.96186" lon="6.55126">
        <ele>2275.4</ele>
        <time>2026-02-02T11:05:28Z</time>
      </trkpt>
      <trkpt lat="45.96186" lon="6.55126">
        <ele>2275.4</ele>
        <time>2026-02-02T11:05:29Z</time>
      </trkpt>
      <trkpt lat="45.96186" lon="6.55127">
        <ele>2275.4</ele>
        <time>2026-02-02T11:05:30Z</time>
      </trkpt>
      <trkpt lat="45.96186" lon="6.55127">
        <ele>2275.4</ele>
        <time>2026-02-02T11:05:31Z</time>
      </trkpt>
      <trkpt lat="45.96185" lon="6.55128">
        <ele>2275.4</ele>
        <time>2026-02-02T11:05:32Z</time>
      </trkpt>
      <trkpt lat="45.96185" lon="6.5513">
        <ele>2276.6</ele>
        <time>2026-02-02T11:05:33Z</time>
      </trkpt>
      <trkpt lat="45.96185" lon="6.55131">
        <ele>2276.6</ele>
        <time>2026-02-02T11:05:34Z</time>
      </trkpt>
      <trkpt lat="45.96185" lon="6.55133">
        <ele>2276.6</ele>
        <time>2026-02-02T11:05:35Z</time>
      </trkpt>
      <trkpt lat="45.96184" lon="6.55134">
        <ele>2277.9</ele>
        <time>2026-02-02T11:05:36Z</time>
      </trkpt>
      <trkpt lat="45.96184" lon="6.55135">
        <ele>2277.9</ele>
        <time>2026-02-02T11:05:37Z</time>
      </trkpt>
      <trkpt lat="45.96183" lon="6.55137">
        <ele>2278</ele>
        <time>2026-02-02T11:05:38Z</time>
      </trkpt>
      <trkpt lat="45.96182" lon="6.55138">
        <ele>2279.2</ele>
        <time>2026-02-02T11:05:39Z</time>
      </trkpt>
      <trkpt lat="45.96181" lon="6.55139">
        <ele>2279.2</ele>
        <time>2026-02-02T11:05:40Z</time>
      </trkpt>
      <trkpt lat="45.96181" lon="6.5514">
        <ele>2279.2</ele>
        <time>2026-02-02T11:05:41Z</time>
      </trkpt>
      <trkpt lat="45.9618" lon="6.55141">
        <ele>2279.4</ele>
        <time>2026-02-02T11:05:42Z</time>
      </trkpt>
      <trkpt lat="45.9618" lon="6.55142">
        <ele>2280.6</ele>
        <time>2026-02-02T11:05:43Z</time>
      </trkpt>
      <trkpt lat="45.9618" lon="6.55144">
        <ele>2280.6</ele>
        <time>2026-02-02T11:05:44Z</time>
      </trkpt>
      <trkpt lat="45.9618" lon="6.55144">
        <ele>2280.6</ele>
        <time>2026-02-02T11:05:45Z</time>
      </trkpt>
      <trkpt lat="45.9618" lon="6.55144">
        <ele>2280.5</ele>
        <time>2026-02-02T11:05:46Z</time>
      </trkpt>
      <trkpt lat="45.96181" lon="6.55145">
        <ele>2280.5</ele>
        <time>2026-02-02T11:05:47Z</time>
      </trkpt>
      <trkpt lat="45.96182" lon="6.55146">
        <ele>2281.7</ele>
        <time>2026-02-02T11:05:48Z</time>
      </trkpt>
      <trkpt lat="45.96183" lon="6.55147">
        <ele>2281.7</ele>
        <time>2026-02-02T11:05:49Z</time>
      </trkpt>
      <trkpt lat="45.96183" lon="6.55149">
        <ele>2281.5</ele>
        <time>2026-02-02T11:05:50Z</time>
      </trkpt>
      <trkpt lat="45.96184" lon="6.5515">
        <ele>2281.5</ele>
        <time>2026-02-02T11:05:51Z</time>
      </trkpt>
      <trkpt lat="45.96185" lon="6.55151">
        <ele>2282.7</ele>
        <time>2026-02-02T11:05:52Z</time>
      </trkpt>
      <trkpt lat="45.96186" lon="6.55153">
        <ele>2282.7</ele>
        <time>2026-02-02T11:05:53Z</time>
      </trkpt>
      <trkpt lat="45.96187" lon="6.55154">
        <ele>2282.5</ele>
        <time>2026-02-02T11:05:54Z</time>
      </trkpt>
      <trkpt lat="45.96187" lon="6.55155">
        <ele>2283.7</ele>
        <time>2026-02-02T11:05:55Z</time>
      </trkpt>
      <trkpt lat="45.96188" lon="6.55156">
        <ele>2283.7</ele>
        <time>2026-02-02T11:05:56Z</time>
      </trkpt>
      <trkpt lat="45.96189" lon="6.55157">
        <ele>2283.4</ele>
        <time>2026-02-02T11:05:57Z</time>
      </trkpt>
      <trkpt lat="45.9619" lon="6.55158">
        <ele>2283.4</ele>
        <time>2026-02-02T11:05:58Z</time>
      </trkpt>
      <trkpt lat="45.96191" lon="6.55159">
        <ele>2284.5</ele>
        <time>2026-02-02T11:05:59Z</time>
      </trkpt>
      <trkpt lat="45.96192" lon="6.5516">
        <ele>2284.5</ele>
        <time>2026-02-02T11:06:00Z</time>
      </trkpt>
      <trkpt lat="45.96193" lon="6.55161">
        <ele>2284.2</ele>
        <time>2026-02-02T11:06:01Z</time>
      </trkpt>
      <trkpt lat="45.96194" lon="6.55162">
        <ele>2284.2</ele>
        <time>2026-02-02T11:06:02Z</time>
      </trkpt>
      <trkpt lat="45.96194" lon="6.55162">
        <ele>2284.2</ele>
        <time>2026-02-02T11:06:03Z</time>
      </trkpt>
      <trkpt lat="45.96194" lon="6.55163">
        <ele>2284.2</ele>
        <time>2026-02-02T11:06:04Z</time>
      </trkpt>
      <trkpt lat="45.96194" lon="6.55163">
        <ele>2284.2</ele>
        <time>2026-02-02T11:06:05Z</time>
      </trkpt>
      <trkpt lat="45.96194" lon="6.55163">
        <ele>2284.2</ele>
        <time>2026-02-02T11:06:06Z</time>
      </trkpt>
      <trkpt lat="45.96194" lon="6.55162">
        <ele>2284.2</ele>
        <time>2026-02-02T11:06:07Z</time>
      </trkpt>
      <trkpt lat="45.96194" lon="6.55162">
        <ele>2284.2</ele>
        <time>2026-02-02T11:06:08Z</time>
      </trkpt>
      <trkpt lat="45.96194" lon="6.55162">
        <ele>2284.2</ele>
        <time>2026-02-02T11:06:09Z</time>
      </trkpt>
      <trkpt lat="45.96194" lon="6.55162">
        <ele>2284.2</ele>
        <time>2026-02-02T11:06:10Z</time>
      </trkpt>
      <trkpt lat="45.96194" lon="6.55162">
        <ele>2284.2</ele>
        <time>2026-02-02T11:06:11Z</time>
      </trkpt>
      <trkpt lat="45.96194" lon="6.55162">
        <ele>2284.2</ele>
        <time>2026-02-02T11:06:12Z</time>
      </trkpt>
      <trkpt lat="45.96194" lon="6.55163">
        <ele>2284.2</ele>
        <time>2026-02-02T11:06:13Z</time>
      </trkpt>
      <trkpt lat="45.96194" lon="6.55163">
        <ele>2284.2</ele>
        <time>2026-02-02T11:06:14Z</time>
      </trkpt>
      <trkpt lat="45.96194" lon="6.55162">
        <ele>2284.2</ele>
        <time>2026-02-02T11:06:15Z</time>
      </trkpt>
      <trkpt lat="45.96194" lon="6.55163">
        <ele>2284.2</ele>
        <time>2026-02-02T11:06:16Z</time>
      </trkpt>
      <trkpt lat="45.96194" lon="6.55164">
        <ele>2285.3</ele>
        <time>2026-02-02T11:06:17Z</time>
      </trkpt>
      <trkpt lat="45.96195" lon="6.55165">
        <ele>2285.3</ele>
        <time>2026-02-02T11:06:18Z</time>
      </trkpt>
      <trkpt lat="45.96195" lon="6.55166">
        <ele>2285.3</ele>
        <time>2026-02-02T11:06:19Z</time>
      </trkpt>
      <trkpt lat="45.96195" lon="6.55167">
        <ele>2285</ele>
        <time>2026-02-02T11:06:20Z</time>
      </trkpt>
      <trkpt lat="45.96195" lon="6.55169">
        <ele>2286</ele>
        <time>2026-02-02T11:06:21Z</time>
      </trkpt>
      <trkpt lat="45.96195" lon="6.5517">
        <ele>2286</ele>
        <time>2026-02-02T11:06:22Z</time>
      </trkpt>
      <trkpt lat="45.96196" lon="6.55171">
        <ele>2286</ele>
        <time>2026-02-02T11:06:23Z</time>
      </trkpt>
      <trkpt lat="45.96197" lon="6.55173">
        <ele>2286.9</ele>
        <time>2026-02-02T11:06:24Z</time>
      </trkpt>
      <trkpt lat="45.96197" lon="6.55174">
        <ele>2286.9</ele>
        <time>2026-02-02T11:06:25Z</time>
      </trkpt>
      <trkpt lat="45.96198" lon="6.55174">
        <ele>2286.9</ele>
        <time>2026-02-02T11:06:26Z</time>
      </trkpt>
      <trkpt lat="45.96198" lon="6.55175">
        <ele>2286.6</ele>
        <time>2026-02-02T11:06:27Z</time>
      </trkpt>
      <trkpt lat="45.96199" lon="6.55176">
        <ele>2286.6</ele>
        <time>2026-02-02T11:06:28Z</time>
      </trkpt>
      <trkpt lat="45.962" lon="6.55176">
        <ele>2287.4</ele>
        <time>2026-02-02T11:06:29Z</time>
      </trkpt>
      <trkpt lat="45.96201" lon="6.55179">
        <ele>2287.4</ele>
        <time>2026-02-02T11:06:31Z</time>
      </trkpt>
      <trkpt lat="45.96202" lon="6.5518">
        <ele>2287.1</ele>
        <time>2026-02-02T11:06:32Z</time>
      </trkpt>
      <trkpt lat="45.96203" lon="6.55181">
        <ele>2287.9</ele>
        <time>2026-02-02T11:06:33Z</time>
      </trkpt>
      <trkpt lat="45.96203" lon="6.55182">
        <ele>2287.9</ele>
        <time>2026-02-02T11:06:34Z</time>
      </trkpt>
      <trkpt lat="45.96204" lon="6.55183">
        <ele>2287.9</ele>
        <time>2026-02-02T11:06:35Z</time>
      </trkpt>
      <trkpt lat="45.96204" lon="6.55183">
        <ele>2287.7</ele>
        <time>2026-02-02T11:06:36Z</time>
      </trkpt>
      <trkpt lat="45.96205" lon="6.55184">
        <ele>2287.7</ele>
        <time>2026-02-02T11:06:37Z</time>
      </trkpt>
      <trkpt lat="45.96206" lon="6.55185">
        <ele>2288.5</ele>
        <time>2026-02-02T11:06:38Z</time>
      </trkpt>
      <trkpt lat="45.96206" lon="6.55186">
        <ele>2288.5</ele>
        <time>2026-02-02T11:06:39Z</time>
      </trkpt>
      <trkpt lat="45.96207" lon="6.55187">
        <ele>2288.5</ele>
        <time>2026-02-02T11:06:40Z</time>
      </trkpt>
      <trkpt lat="45.96207" lon="6.55188">
        <ele>2288.2</ele>
        <time>2026-02-02T11:06:41Z</time>
      </trkpt>
      <trkpt lat="45.96208" lon="6.5519">
        <ele>2289.1</ele>
        <time>2026-02-02T11:06:42Z</time>
      </trkpt>
      <trkpt lat="45.96208" lon="6.55191">
        <ele>2289.1</ele>
        <time>2026-02-02T11:06:43Z</time>
      </trkpt>
      <trkpt lat="45.96209" lon="6.55193">
        <ele>2289.1</ele>
        <time>2026-02-02T11:06:44Z</time>
      </trkpt>
      <trkpt lat="45.96209" lon="6.55194">
        <ele>2290</ele>
        <time>2026-02-02T11:06:45Z</time>
      </trkpt>
      <trkpt lat="45.96209" lon="6.55195">
        <ele>2290</ele>
        <time>2026-02-02T11:06:46Z</time>
      </trkpt>
      <trkpt lat="45.96209" lon="6.55195">
        <ele>2290</ele>
        <time>2026-02-02T11:06:47Z</time>
      </trkpt>
      <trkpt lat="45.96208" lon="6.55195">
        <ele>2290</ele>
        <time>2026-02-02T11:06:48Z</time>
      </trkpt>
      <trkpt lat="45.96207" lon="6.55196">
        <ele>2290</ele>
        <time>2026-02-02T11:06:49Z</time>
      </trkpt>
      <trkpt lat="45.96206" lon="6.55197">
        <ele>2290.3</ele>
        <time>2026-02-02T11:06:50Z</time>
      </trkpt>
      <trkpt lat="45.96206" lon="6.55196">
        <ele>2290.3</ele>
        <time>2026-02-02T11:06:51Z</time>
      </trkpt>
      <trkpt lat="45.96205" lon="6.55197">
        <ele>2290.3</ele>
        <time>2026-02-02T11:06:52Z</time>
      </trkpt>
      <trkpt lat="45.96204" lon="6.55197">
        <ele>2290.3</ele>
        <time>2026-02-02T11:06:53Z</time>
      </trkpt>
      <trkpt lat="45.96203" lon="6.55197">
        <ele>2290.5</ele>
        <time>2026-02-02T11:06:54Z</time>
      </trkpt>
      <trkpt lat="45.96203" lon="6.55197">
        <ele>2291.4</ele>
        <time>2026-02-02T11:06:55Z</time>
      </trkpt>
      <trkpt lat="45.96202" lon="6.55198">
        <ele>2291.4</ele>
        <time>2026-02-02T11:06:56Z</time>
      </trkpt>
      <trkpt lat="45.96202" lon="6.55198">
        <ele>2291.4</ele>
        <time>2026-02-02T11:06:57Z</time>
      </trkpt>
      <trkpt lat="45.96201" lon="6.55198">
        <ele>2291.6</ele>
        <time>2026-02-02T11:06:58Z</time>
      </trkpt>
      <trkpt lat="45.962" lon="6.55199">
        <ele>2291.6</ele>
        <time>2026-02-02T11:06:59Z</time>
      </trkpt>
      <trkpt lat="45.962" lon="6.55199">
        <ele>2291.6</ele>
        <time>2026-02-02T11:07:00Z</time>
      </trkpt>
      <trkpt lat="45.962" lon="6.55201">
        <ele>2291.6</ele>
        <time>2026-02-02T11:07:01Z</time>
      </trkpt>
      <trkpt lat="45.962" lon="6.552">
        <ele>2291.6</ele>
        <time>2026-02-02T11:07:02Z</time>
      </trkpt>
      <trkpt lat="45.96201" lon="6.552">
        <ele>2291.6</ele>
        <time>2026-02-02T11:07:03Z</time>
      </trkpt>
      <trkpt lat="45.96201" lon="6.552">
        <ele>2291.6</ele>
        <time>2026-02-02T11:07:04Z</time>
      </trkpt>
      <trkpt lat="45.96201" lon="6.55199">
        <ele>2291.6</ele>
        <time>2026-02-02T11:07:05Z</time>
      </trkpt>
      <trkpt lat="45.96201" lon="6.55199">
        <ele>2291.6</ele>
        <time>2026-02-02T11:07:06Z</time>
      </trkpt>
      <trkpt lat="45.96201" lon="6.55199">
        <ele>2291.4</ele>
        <time>2026-02-02T11:07:07Z</time>
      </trkpt>
      <trkpt lat="45.96201" lon="6.55199">
        <ele>2291.4</ele>
        <time>2026-02-02T11:07:08Z</time>
      </trkpt>
      <trkpt lat="45.96201" lon="6.55199">
        <ele>2291.4</ele>
        <time>2026-02-02T11:07:09Z</time>
      </trkpt>
      <trkpt lat="45.96201" lon="6.55199">
        <ele>2291.4</ele>
        <time>2026-02-02T11:07:10Z</time>
      </trkpt>
      <trkpt lat="45.96201" lon="6.552">
        <ele>2291.4</ele>
        <time>2026-02-02T11:07:11Z</time>
      </trkpt>
      <trkpt lat="45.96201" lon="6.55201">
        <ele>2291.4</ele>
        <time>2026-02-02T11:07:12Z</time>
      </trkpt>
      <trkpt lat="45.96202" lon="6.55203">
        <ele>2292.2</ele>
        <time>2026-02-02T11:07:13Z</time>
      </trkpt>
      <trkpt lat="45.96203" lon="6.55205">
        <ele>2292.2</ele>
        <time>2026-02-02T11:07:14Z</time>
      </trkpt>
      <trkpt lat="45.96203" lon="6.55207">
        <ele>2293</ele>
        <time>2026-02-02T11:07:15Z</time>
      </trkpt>
      <trkpt lat="45.96204" lon="6.55209">
        <ele>2292.8</ele>
        <time>2026-02-02T11:07:16Z</time>
      </trkpt>
      <trkpt lat="45.96205" lon="6.55211">
        <ele>2293.5</ele>
        <time>2026-02-02T11:07:17Z</time>
      </trkpt>
      <trkpt lat="45.96206" lon="6.55213">
        <ele>2293.5</ele>
        <time>2026-02-02T11:07:18Z</time>
      </trkpt>
      <trkpt lat="45.96207" lon="6.55214">
        <ele>2293.5</ele>
        <time>2026-02-02T11:07:19Z</time>
      </trkpt>
      <trkpt lat="45.96207" lon="6.55215">
        <ele>2294</ele>
        <time>2026-02-02T11:07:20Z</time>
      </trkpt>
      <trkpt lat="45.96208" lon="6.55216">
        <ele>2294</ele>
        <time>2026-02-02T11:07:21Z</time>
      </trkpt>
      <trkpt lat="45.96209" lon="6.55217">
        <ele>2294</ele>
        <time>2026-02-02T11:07:22Z</time>
      </trkpt>
      <trkpt lat="45.96209" lon="6.55219">
        <ele>2294</ele>
        <time>2026-02-02T11:07:23Z</time>
      </trkpt>
      <trkpt lat="45.96211" lon="6.55221">
        <ele>2294.4</ele>
        <time>2026-02-02T11:07:24Z</time>
      </trkpt>
      <trkpt lat="45.96212" lon="6.55221">
        <ele>2294.4</ele>
        <time>2026-02-02T11:07:25Z</time>
      </trkpt>
      <trkpt lat="45.96212" lon="6.55222">
        <ele>2294.4</ele>
        <time>2026-02-02T11:07:26Z</time>
      </trkpt>
      <trkpt lat="45.96213" lon="6.55223">
        <ele>2294.9</ele>
        <time>2026-02-02T11:07:27Z</time>
      </trkpt>
      <trkpt lat="45.96214" lon="6.55224">
        <ele>2294.9</ele>
        <time>2026-02-02T11:07:28Z</time>
      </trkpt>
      <trkpt lat="45.96215" lon="6.55225">
        <ele>2294.9</ele>
        <time>2026-02-02T11:07:29Z</time>
      </trkpt>
      <trkpt lat="45.96216" lon="6.55226">
        <ele>2294.7</ele>
        <time>2026-02-02T11:07:30Z</time>
      </trkpt>
      <trkpt lat="45.96217" lon="6.55228">
        <ele>2295.4</ele>
        <time>2026-02-02T11:07:31Z</time>
      </trkpt>
      <trkpt lat="45.96218" lon="6.55229">
        <ele>2295.4</ele>
        <time>2026-02-02T11:07:32Z</time>
      </trkpt>
      <trkpt lat="45.96218" lon="6.5523">
        <ele>2295.4</ele>
        <time>2026-02-02T11:07:33Z</time>
      </trkpt>
      <trkpt lat="45.96219" lon="6.55231">
        <ele>2295.4</ele>
        <time>2026-02-02T11:07:34Z</time>
      </trkpt>
      <trkpt lat="45.96219" lon="6.55232">
        <ele>2295.9</ele>
        <time>2026-02-02T11:07:35Z</time>
      </trkpt>
      <trkpt lat="45.9622" lon="6.55233">
        <ele>2295.9</ele>
        <time>2026-02-02T11:07:36Z</time>
      </trkpt>
      <trkpt lat="45.96221" lon="6.55234">
        <ele>2295.9</ele>
        <time>2026-02-02T11:07:37Z</time>
      </trkpt>
      <trkpt lat="45.96222" lon="6.55235">
        <ele>2295.7</ele>
        <time>2026-02-02T11:07:38Z</time>
      </trkpt>
      <trkpt lat="45.96223" lon="6.55235">
        <ele>2295.7</ele>
        <time>2026-02-02T11:07:39Z</time>
      </trkpt>
      <trkpt lat="45.96224" lon="6.55236">
        <ele>2296.5</ele>
        <time>2026-02-02T11:07:40Z</time>
      </trkpt>
      <trkpt lat="45.96225" lon="6.55237">
        <ele>2296.3</ele>
        <time>2026-02-02T11:07:41Z</time>
      </trkpt>
      <trkpt lat="45.96226" lon="6.55237">
        <ele>2296.3</ele>
        <time>2026-02-02T11:07:42Z</time>
      </trkpt>
      <trkpt lat="45.96226" lon="6.55238">
        <ele>2296.3</ele>
        <time>2026-02-02T11:07:43Z</time>
      </trkpt>
      <trkpt lat="45.96227" lon="6.55239">
        <ele>2296.3</ele>
        <time>2026-02-02T11:07:44Z</time>
      </trkpt>
      <trkpt lat="45.96227" lon="6.5524">
        <ele>2297.2</ele>
        <time>2026-02-02T11:07:45Z</time>
      </trkpt>
      <trkpt lat="45.96228" lon="6.55241">
        <ele>2297.2</ele>
        <time>2026-02-02T11:07:46Z</time>
      </trkpt>
      <trkpt lat="45.96228" lon="6.55243">
        <ele>2297</ele>
        <time>2026-02-02T11:07:47Z</time>
      </trkpt>
      <trkpt lat="45.96229" lon="6.55244">
        <ele>2297</ele>
        <time>2026-02-02T11:07:48Z</time>
      </trkpt>
      <trkpt lat="45.9623" lon="6.55245">
        <ele>2297.9</ele>
        <time>2026-02-02T11:07:49Z</time>
      </trkpt>
      <trkpt lat="45.9623" lon="6.55247">
        <ele>2297.9</ele>
        <time>2026-02-02T11:07:50Z</time>
      </trkpt>
      <trkpt lat="45.96231" lon="6.55248">
        <ele>2297.7</ele>
        <time>2026-02-02T11:07:51Z</time>
      </trkpt>
      <trkpt lat="45.96231" lon="6.55249">
        <ele>2298.6</ele>
        <time>2026-02-02T11:07:52Z</time>
      </trkpt>
      <trkpt lat="45.96232" lon="6.5525">
        <ele>2298.6</ele>
        <time>2026-02-02T11:07:53Z</time>
      </trkpt>
      <trkpt lat="45.96232" lon="6.55252">
        <ele>2298.6</ele>
        <time>2026-02-02T11:07:54Z</time>
      </trkpt>
      <trkpt lat="45.96233" lon="6.55254">
        <ele>2299.5</ele>
        <time>2026-02-02T11:07:55Z</time>
      </trkpt>
      <trkpt lat="45.96234" lon="6.55256">
        <ele>2299.5</ele>
        <time>2026-02-02T11:07:56Z</time>
      </trkpt>
      <trkpt lat="45.96234" lon="6.55258">
        <ele>2300.1</ele>
        <time>2026-02-02T11:07:57Z</time>
      </trkpt>
      <trkpt lat="45.96235" lon="6.5526">
        <ele>2300.1</ele>
        <time>2026-02-02T11:07:58Z</time>
      </trkpt>
      <trkpt lat="45.96236" lon="6.55261">
        <ele>2300.1</ele>
        <time>2026-02-02T11:07:59Z</time>
      </trkpt>
      <trkpt lat="45.96237" lon="6.55262">
        <ele>2300.8</ele>
        <time>2026-02-02T11:08:00Z</time>
      </trkpt>
      <trkpt lat="45.96237" lon="6.55263">
        <ele>2300.6</ele>
        <time>2026-02-02T11:08:01Z</time>
      </trkpt>
      <trkpt lat="45.96238" lon="6.55264">
        <ele>2300.6</ele>
        <time>2026-02-02T11:08:02Z</time>
      </trkpt>
      <trkpt lat="45.96238" lon="6.55266">
        <ele>2300.6</ele>
        <time>2026-02-02T11:08:03Z</time>
      </trkpt>
      <trkpt lat="45.96239" lon="6.55268">
        <ele>2301.3</ele>
        <time>2026-02-02T11:08:04Z</time>
      </trkpt>
      <trkpt lat="45.96239" lon="6.55269">
        <ele>2301.3</ele>
        <time>2026-02-02T11:08:05Z</time>
      </trkpt>
      <trkpt lat="45.96239" lon="6.55271">
        <ele>2301.9</ele>
        <time>2026-02-02T11:08:06Z</time>
      </trkpt>
      <trkpt lat="45.96239" lon="6.55273">
        <ele>2301.9</ele>
        <time>2026-02-02T11:08:07Z</time>
      </trkpt>
      <trkpt lat="45.96238" lon="6.55274">
        <ele>2302.6</ele>
        <time>2026-02-02T11:08:08Z</time>
      </trkpt>
      <trkpt lat="45.96238" lon="6.55277">
        <ele>2302.6</ele>
        <time>2026-02-02T11:08:09Z</time>
      </trkpt>
      <trkpt lat="45.96237" lon="6.55279">
        <ele>2302.6</ele>
        <time>2026-02-02T11:08:10Z</time>
      </trkpt>
      <trkpt lat="45.96236" lon="6.55281">
        <ele>2303.5</ele>
        <time>2026-02-02T11:08:11Z</time>
      </trkpt>
      <trkpt lat="45.96235" lon="6.55284">
        <ele>2304.2</ele>
        <time>2026-02-02T11:08:12Z</time>
      </trkpt>
      <trkpt lat="45.96234" lon="6.55285">
        <ele>2304.2</ele>
        <time>2026-02-02T11:08:13Z</time>
      </trkpt>
      <trkpt lat="45.96234" lon="6.55288">
        <ele>2305</ele>
        <time>2026-02-02T11:08:14Z</time>
      </trkpt>
      <trkpt lat="45.96233" lon="6.5529">
        <ele>2305</ele>
        <time>2026-02-02T11:08:15Z</time>
      </trkpt>
      <trkpt lat="45.96233" lon="6.55291">
        <ele>2305</ele>
        <time>2026-02-02T11:08:16Z</time>
      </trkpt>
      <trkpt lat="45.96232" lon="6.55293">
        <ele>2305.7</ele>
        <time>2026-02-02T11:08:17Z</time>
      </trkpt>
      <trkpt lat="45.96232" lon="6.55294">
        <ele>2305.7</ele>
        <time>2026-02-02T11:08:18Z</time>
      </trkpt>
      <trkpt lat="45.96231" lon="6.55296">
        <ele>2305.7</ele>
        <time>2026-02-02T11:08:19Z</time>
      </trkpt>
      <trkpt lat="45.96231" lon="6.55297">
        <ele>2306.5</ele>
        <time>2026-02-02T11:08:20Z</time>
      </trkpt>
      <trkpt lat="45.9623" lon="6.55299">
        <ele>2306.5</ele>
        <time>2026-02-02T11:08:21Z</time>
      </trkpt>
      <trkpt lat="45.96229" lon="6.55301">
        <ele>2307.2</ele>
        <time>2026-02-02T11:08:22Z</time>
      </trkpt>
      <trkpt lat="45.96229" lon="6.55302">
        <ele>2307.2</ele>
        <time>2026-02-02T11:08:23Z</time>
      </trkpt>
      <trkpt lat="45.96228" lon="6.55304">
        <ele>2307.2</ele>
        <time>2026-02-02T11:08:24Z</time>
      </trkpt>
      <trkpt lat="45.96227" lon="6.55305">
        <ele>2308</ele>
        <time>2026-02-02T11:08:25Z</time>
      </trkpt>
      <trkpt lat="45.96227" lon="6.55306">
        <ele>2308</ele>
        <time>2026-02-02T11:08:26Z</time>
      </trkpt>
      <trkpt lat="45.96226" lon="6.55307">
        <ele>2308</ele>
        <time>2026-02-02T11:08:27Z</time>
      </trkpt>
      <trkpt lat="45.96226" lon="6.55308">
        <ele>2308</ele>
        <time>2026-02-02T11:08:28Z</time>
      </trkpt>
      <trkpt lat="45.96225" lon="6.55309">
        <ele>2308</ele>
        <time>2026-02-02T11:08:29Z</time>
      </trkpt>
      <trkpt lat="45.96225" lon="6.55309">
        <ele>2308.9</ele>
        <time>2026-02-02T11:08:30Z</time>
      </trkpt>
      <trkpt lat="45.96224" lon="6.55309">
        <ele>2308.9</ele>
        <time>2026-02-02T11:08:31Z</time>
      </trkpt>
      <trkpt lat="45.96224" lon="6.5531">
        <ele>2308.9</ele>
        <time>2026-02-02T11:08:32Z</time>
      </trkpt>
      <trkpt lat="45.96224" lon="6.5531">
        <ele>2308.9</ele>
        <time>2026-02-02T11:08:33Z</time>
      </trkpt>
      <trkpt lat="45.96223" lon="6.55311">
        <ele>2308.9</ele>
        <time>2026-02-02T11:08:34Z</time>
      </trkpt>
      <trkpt lat="45.96223" lon="6.55312">
        <ele>2308.9</ele>
        <time>2026-02-02T11:08:35Z</time>
      </trkpt>
      <trkpt lat="45.96222" lon="6.55313">
        <ele>2309.6</ele>
        <time>2026-02-02T11:08:36Z</time>
      </trkpt>
      <trkpt lat="45.96222" lon="6.55314">
        <ele>2309.8</ele>
        <time>2026-02-02T11:08:37Z</time>
      </trkpt>
      <trkpt lat="45.96221" lon="6.55316">
        <ele>2309.8</ele>
        <time>2026-02-02T11:08:38Z</time>
      </trkpt>
      <trkpt lat="45.96221" lon="6.55317">
        <ele>2309.8</ele>
        <time>2026-02-02T11:08:39Z</time>
      </trkpt>
      <trkpt lat="45.9622" lon="6.55318">
        <ele>2310.6</ele>
        <time>2026-02-02T11:08:40Z</time>
      </trkpt>
      <trkpt lat="45.9622" lon="6.5532">
        <ele>2310.6</ele>
        <time>2026-02-02T11:08:41Z</time>
      </trkpt>
      <trkpt lat="45.96219" lon="6.55321">
        <ele>2310.6</ele>
        <time>2026-02-02T11:08:42Z</time>
      </trkpt>
      <trkpt lat="45.96219" lon="6.55323">
        <ele>2311.4</ele>
        <time>2026-02-02T11:08:43Z</time>
      </trkpt>
      <trkpt lat="45.96219" lon="6.55324">
        <ele>2311.5</ele>
        <time>2026-02-02T11:08:44Z</time>
      </trkpt>
      <trkpt lat="45.96218" lon="6.55327">
        <ele>2312.5</ele>
        <time>2026-02-02T11:08:45Z</time>
      </trkpt>
      <trkpt lat="45.96217" lon="6.55328">
        <ele>2312.5</ele>
        <time>2026-02-02T11:08:46Z</time>
      </trkpt>
      <trkpt lat="45.96217" lon="6.55329">
        <ele>2312.5</ele>
        <time>2026-02-02T11:08:47Z</time>
      </trkpt>
      <trkpt lat="45.96216" lon="6.5533">
        <ele>2313.4</ele>
        <time>2026-02-02T11:08:48Z</time>
      </trkpt>
      <trkpt lat="45.96216" lon="6.55332">
        <ele>2313.5</ele>
        <time>2026-02-02T11:08:49Z</time>
      </trkpt>
      <trkpt lat="45.96215" lon="6.55333">
        <ele>2313.5</ele>
        <time>2026-02-02T11:08:50Z</time>
      </trkpt>
      <trkpt lat="45.96215" lon="6.55334">
        <ele>2313.5</ele>
        <time>2026-02-02T11:08:51Z</time>
      </trkpt>
      <trkpt lat="45.96214" lon="6.55336">
        <ele>2314.5</ele>
        <time>2026-02-02T11:08:52Z</time>
      </trkpt>
      <trkpt lat="45.96214" lon="6.55337">
        <ele>2314.5</ele>
        <time>2026-02-02T11:08:53Z</time>
      </trkpt>
      <trkpt lat="45.96214" lon="6.55338">
        <ele>2314.5</ele>
        <time>2026-02-02T11:08:54Z</time>
      </trkpt>
      <trkpt lat="45.96214" lon="6.55338">
        <ele>2314.5</ele>
        <time>2026-02-02T11:08:55Z</time>
      </trkpt>
      <trkpt lat="45.96214" lon="6.55338">
        <ele>2314.5</ele>
        <time>2026-02-02T11:08:56Z</time>
      </trkpt>
      <trkpt lat="45.96214" lon="6.55338">
        <ele>2314.5</ele>
        <time>2026-02-02T11:08:57Z</time>
      </trkpt>
      <trkpt lat="45.96214" lon="6.55338">
        <ele>2314.5</ele>
        <time>2026-02-02T11:08:58Z</time>
      </trkpt>
      <trkpt lat="45.96214" lon="6.55337">
        <ele>2314.5</ele>
        <time>2026-02-02T11:08:59Z</time>
      </trkpt>
      <trkpt lat="45.96214" lon="6.55337">
        <ele>2314.5</ele>
        <time>2026-02-02T11:09:00Z</time>
      </trkpt>
      <trkpt lat="45.96214" lon="6.55337">
        <ele>2314.5</ele>
        <time>2026-02-02T11:09:01Z</time>
      </trkpt>
      <trkpt lat="45.96214" lon="6.55337">
        <ele>2314.5</ele>
        <time>2026-02-02T11:09:02Z</time>
      </trkpt>
      <trkpt lat="45.96214" lon="6.55337">
        <ele>2314.5</ele>
        <time>2026-02-02T11:09:03Z</time>
      </trkpt>
      <trkpt lat="45.96214" lon="6.55337">
        <ele>2314.5</ele>
        <time>2026-02-02T11:09:04Z</time>
      </trkpt>
      <trkpt lat="45.96214" lon="6.55337">
        <ele>2314.5</ele>
        <time>2026-02-02T11:09:05Z</time>
      </trkpt>
      <trkpt lat="45.96214" lon="6.55337">
        <ele>2314.5</ele>
        <time>2026-02-02T11:09:06Z</time>
      </trkpt>
      <trkpt lat="45.96214" lon="6.55337">
        <ele>2314.5</ele>
        <time>2026-02-02T11:09:07Z</time>
      </trkpt>
      <trkpt lat="45.96214" lon="6.55337">
        <ele>2314.5</ele>
        <time>2026-02-02T11:09:08Z</time>
      </trkpt>
      <trkpt lat="45.96214" lon="6.55337">
        <ele>2314.5</ele>
        <time>2026-02-02T11:09:09Z</time>
      </trkpt>
      <trkpt lat="45.96214" lon="6.55337">
        <ele>2314.5</ele>
        <time>2026-02-02T11:09:10Z</time>
      </trkpt>
      <trkpt lat="45.96214" lon="6.55337">
        <ele>2314.5</ele>
        <time>2026-02-02T11:09:11Z</time>
      </trkpt>
      <trkpt lat="45.96214" lon="6.55337">
        <ele>2314.5</ele>
        <time>2026-02-02T11:09:12Z</time>
      </trkpt>
      <trkpt lat="45.96214" lon="6.55337">
        <ele>2314.5</ele>
        <time>2026-02-02T11:09:13Z</time>
      </trkpt>
      <trkpt lat="45.96214" lon="6.55338">
        <ele>2314.5</ele>
        <time>2026-02-02T11:09:14Z</time>
      </trkpt>
      <trkpt lat="45.96214" lon="6.55339">
        <ele>2315.5</ele>
        <time>2026-02-02T11:09:15Z</time>
      </trkpt>
      <trkpt lat="45.96213" lon="6.55341">
        <ele>2315.5</ele>
        <time>2026-02-02T11:09:16Z</time>
      </trkpt>
      <trkpt lat="45.96213" lon="6.55342">
        <ele>2315.5</ele>
        <time>2026-02-02T11:09:17Z</time>
      </trkpt>
      <trkpt lat="45.96213" lon="6.55342">
        <ele>2315.5</ele>
        <time>2026-02-02T11:09:18Z</time>
      </trkpt>
      <trkpt lat="45.96213" lon="6.55344">
        <ele>2316.4</ele>
        <time>2026-02-02T11:09:19Z</time>
      </trkpt>
      <trkpt lat="45.96213" lon="6.55346">
        <ele>2316.4</ele>
        <time>2026-02-02T11:09:20Z</time>
      </trkpt>
      <trkpt lat="45.96212" lon="6.55347">
        <ele>2316.4</ele>
        <time>2026-02-02T11:09:21Z</time>
      </trkpt>
      <trkpt lat="45.96212" lon="6.55348">
        <ele>2317.2</ele>
        <time>2026-02-02T11:09:22Z</time>
      </trkpt>
      <trkpt lat="45.96211" lon="6.55348">
        <ele>2317.2</ele>
        <time>2026-02-02T11:09:23Z</time>
      </trkpt>
      <trkpt lat="45.9621" lon="6.55348">
        <ele>2317.2</ele>
        <time>2026-02-02T11:09:24Z</time>
      </trkpt>
      <trkpt lat="45.96209" lon="6.55349">
        <ele>2317.2</ele>
        <time>2026-02-02T11:09:25Z</time>
      </trkpt>
      <trkpt lat="45.96208" lon="6.55349">
        <ele>2317.2</ele>
        <time>2026-02-02T11:09:26Z</time>
      </trkpt>
      <trkpt lat="45.96207" lon="6.55349">
        <ele>2317.2</ele>
        <time>2026-02-02T11:09:27Z</time>
      </trkpt>
      <trkpt lat="45.96206" lon="6.55349">
        <ele>2317.2</ele>
        <time>2026-02-02T11:09:28Z</time>
      </trkpt>
      <trkpt lat="45.96205" lon="6.55349">
        <ele>2317.2</ele>
        <time>2026-02-02T11:09:29Z</time>
      </trkpt>
      <trkpt lat="45.96204" lon="6.55349">
        <ele>2317.1</ele>
        <time>2026-02-02T11:09:30Z</time>
      </trkpt>
      <trkpt lat="45.96203" lon="6.55349">
        <ele>2317.1</ele>
        <time>2026-02-02T11:09:31Z</time>
      </trkpt>
      <trkpt lat="45.96202" lon="6.55349">
        <ele>2317.1</ele>
        <time>2026-02-02T11:09:32Z</time>
      </trkpt>
      <trkpt lat="45.96202" lon="6.5535">
        <ele>2317.1</ele>
        <time>2026-02-02T11:09:33Z</time>
      </trkpt>
      <trkpt lat="45.96201" lon="6.55351">
        <ele>2317.1</ele>
        <time>2026-02-02T11:09:34Z</time>
      </trkpt>
      <trkpt lat="45.96201" lon="6.55352">
        <ele>2317.7</ele>
        <time>2026-02-02T11:09:35Z</time>
      </trkpt>
      <trkpt lat="45.962" lon="6.55353">
        <ele>2317.7</ele>
        <time>2026-02-02T11:09:36Z</time>
      </trkpt>
      <trkpt lat="45.962" lon="6.55354">
        <ele>2317.7</ele>
        <time>2026-02-02T11:09:37Z</time>
      </trkpt>
      <trkpt lat="45.96199" lon="6.55356">
        <ele>2317.7</ele>
        <time>2026-02-02T11:09:38Z</time>
      </trkpt>
      <trkpt lat="45.96199" lon="6.55357">
        <ele>2318.3</ele>
        <time>2026-02-02T11:09:39Z</time>
      </trkpt>
      <trkpt lat="45.96199" lon="6.55356">
        <ele>2318.3</ele>
        <time>2026-02-02T11:09:40Z</time>
      </trkpt>
      <trkpt lat="45.96198" lon="6.55356">
        <ele>2318.3</ele>
        <time>2026-02-02T11:09:41Z</time>
      </trkpt>
      <trkpt lat="45.96197" lon="6.55356">
        <ele>2318.3</ele>
        <time>2026-02-02T11:09:42Z</time>
      </trkpt>
      <trkpt lat="45.96196" lon="6.55356">
        <ele>2318.3</ele>
        <time>2026-02-02T11:09:43Z</time>
      </trkpt>
      <trkpt lat="45.96195" lon="6.55356">
        <ele>2317.7</ele>
        <time>2026-02-02T11:09:44Z</time>
      </trkpt>
      <trkpt lat="45.96194" lon="6.55356">
        <ele>2318.2</ele>
        <time>2026-02-02T11:09:45Z</time>
      </trkpt>
      <trkpt lat="45.96194" lon="6.55356">
        <ele>2318.2</ele>
        <time>2026-02-02T11:09:46Z</time>
      </trkpt>
      <trkpt lat="45.96193" lon="6.55357">
        <ele>2318.2</ele>
        <time>2026-02-02T11:09:47Z</time>
      </trkpt>
      <trkpt lat="45.96193" lon="6.55357">
        <ele>2318.2</ele>
        <time>2026-02-02T11:09:48Z</time>
      </trkpt>
      <trkpt lat="45.96192" lon="6.55358">
        <ele>2318.2</ele>
        <time>2026-02-02T11:09:49Z</time>
      </trkpt>
      <trkpt lat="45.96192" lon="6.55359">
        <ele>2318.1</ele>
        <time>2026-02-02T11:09:50Z</time>
      </trkpt>
      <trkpt lat="45.96191" lon="6.55359">
        <ele>2318.1</ele>
        <time>2026-02-02T11:09:51Z</time>
      </trkpt>
      <trkpt lat="45.96191" lon="6.55359">
        <ele>2318.1</ele>
        <time>2026-02-02T11:09:52Z</time>
      </trkpt>
      <trkpt lat="45.96191" lon="6.55359">
        <ele>2318.1</ele>
        <time>2026-02-02T11:09:53Z</time>
      </trkpt>
      <trkpt lat="45.96191" lon="6.55359">
        <ele>2318.1</ele>
        <time>2026-02-02T11:09:54Z</time>
      </trkpt>
      <trkpt lat="45.96191" lon="6.55359">
        <ele>2318.1</ele>
        <time>2026-02-02T11:09:55Z</time>
      </trkpt>
      <trkpt lat="45.96191" lon="6.55359">
        <ele>2318.1</ele>
        <time>2026-02-02T11:09:56Z</time>
      </trkpt>
      <trkpt lat="45.96191" lon="6.55359">
        <ele>2318.1</ele>
        <time>2026-02-02T11:09:57Z</time>
      </trkpt>
      <trkpt lat="45.96191" lon="6.55359">
        <ele>2318.1</ele>
        <time>2026-02-02T11:09:58Z</time>
      </trkpt>
      <trkpt lat="45.96191" lon="6.55359">
        <ele>2318.1</ele>
        <time>2026-02-02T11:09:59Z</time>
      </trkpt>
      <trkpt lat="45.96191" lon="6.55359">
        <ele>2318.1</ele>
        <time>2026-02-02T11:10:00Z</time>
      </trkpt>
      <trkpt lat="45.96191" lon="6.55359">
        <ele>2318.1</ele>
        <time>2026-02-02T11:10:01Z</time>
      </trkpt>
      <trkpt lat="45.96191" lon="6.55359">
        <ele>2318.1</ele>
        <time>2026-02-02T11:10:02Z</time>
      </trkpt>
      <trkpt lat="45.96191" lon="6.55359">
        <ele>2318.1</ele>
        <time>2026-02-02T11:10:03Z</time>
      </trkpt>
      <trkpt lat="45.96191" lon="6.55359">
        <ele>2318.1</ele>
        <time>2026-02-02T11:10:04Z</time>
      </trkpt>
      <trkpt lat="45.96191" lon="6.55359">
        <ele>2318.1</ele>
        <time>2026-02-02T11:10:05Z</time>
      </trkpt>
      <trkpt lat="45.96191" lon="6.55359">
        <ele>2318.1</ele>
        <time>2026-02-02T11:10:06Z</time>
      </trkpt>
      <trkpt lat="45.96191" lon="6.55359">
        <ele>2318.1</ele>
        <time>2026-02-02T11:10:07Z</time>
      </trkpt>
      <trkpt lat="45.96191" lon="6.55359">
        <ele>2318.1</ele>
        <time>2026-02-02T11:10:08Z</time>
      </trkpt>
      <trkpt lat="45.96191" lon="6.55359">
        <ele>2318.1</ele>
        <time>2026-02-02T11:10:09Z</time>
      </trkpt>
      <trkpt lat="45.96191" lon="6.55359">
        <ele>2318.1</ele>
        <time>2026-02-02T11:10:10Z</time>
      </trkpt>
      <trkpt lat="45.96191" lon="6.55359">
        <ele>2318.1</ele>
        <time>2026-02-02T11:10:11Z</time>
      </trkpt>
      <trkpt lat="45.96191" lon="6.55359">
        <ele>2318.1</ele>
        <time>2026-02-02T11:10:12Z</time>
      </trkpt>
      <trkpt lat="45.9619" lon="6.5536">
        <ele>2318.1</ele>
        <time>2026-02-02T11:10:13Z</time>
      </trkpt>
      <trkpt lat="45.96189" lon="6.5536">
        <ele>2318.6</ele>
        <time>2026-02-02T11:10:14Z</time>
      </trkpt>
      <trkpt lat="45.96189" lon="6.55362">
        <ele>2318.6</ele>
        <time>2026-02-02T11:10:15Z</time>
      </trkpt>
      <trkpt lat="45.96188" lon="6.55363">
        <ele>2318.6</ele>
        <time>2026-02-02T11:10:16Z</time>
      </trkpt>
      <trkpt lat="45.96186" lon="6.55364">
        <ele>2318.6</ele>
        <time>2026-02-02T11:10:17Z</time>
      </trkpt>
      <trkpt lat="45.96185" lon="6.55365">
        <ele>2319</ele>
        <time>2026-02-02T11:10:18Z</time>
      </trkpt>
      <trkpt lat="45.96184" lon="6.55366">
        <ele>2319</ele>
        <time>2026-02-02T11:10:19Z</time>
      </trkpt>
      <trkpt lat="45.96183" lon="6.55368">
        <ele>2319</ele>
        <time>2026-02-02T11:10:20Z</time>
      </trkpt>
      <trkpt lat="45.96182" lon="6.5537">
        <ele>2319.5</ele>
        <time>2026-02-02T11:10:21Z</time>
      </trkpt>
      <trkpt lat="45.96181" lon="6.55373">
        <ele>2320</ele>
        <time>2026-02-02T11:10:22Z</time>
      </trkpt>
      <trkpt lat="45.96181" lon="6.55375">
        <ele>2320</ele>
        <time>2026-02-02T11:10:23Z</time>
      </trkpt>
      <trkpt lat="45.9618" lon="6.55376">
        <ele>2320</ele>
        <time>2026-02-02T11:10:24Z</time>
      </trkpt>
      <trkpt lat="45.9618" lon="6.55377">
        <ele>2320</ele>
        <time>2026-02-02T11:10:25Z</time>
      </trkpt>
      <trkpt lat="45.96179" lon="6.55378">
        <ele>2320.5</ele>
        <time>2026-02-02T11:10:26Z</time>
      </trkpt>
      <trkpt lat="45.96178" lon="6.5538">
        <ele>2320.5</ele>
        <time>2026-02-02T11:10:27Z</time>
      </trkpt>
      <trkpt lat="45.96176" lon="6.55382">
        <ele>2320.5</ele>
        <time>2026-02-02T11:10:29Z</time>
      </trkpt>
      <trkpt lat="45.96175" lon="6.55383">
        <ele>2321.1</ele>
        <time>2026-02-02T11:10:30Z</time>
      </trkpt>
      <trkpt lat="45.96175" lon="6.55383">
        <ele>2321.1</ele>
        <time>2026-02-02T11:10:31Z</time>
      </trkpt>
      <trkpt lat="45.96175" lon="6.55384">
        <ele>2321.1</ele>
        <time>2026-02-02T11:10:32Z</time>
      </trkpt>
      <trkpt lat="45.96174" lon="6.55385">
        <ele>2321.1</ele>
        <time>2026-02-02T11:10:33Z</time>
      </trkpt>
      <trkpt lat="45.96174" lon="6.55385">
        <ele>2321.2</ele>
        <time>2026-02-02T11:10:34Z</time>
      </trkpt>
      <trkpt lat="45.96174" lon="6.55385">
        <ele>2321.2</ele>
        <time>2026-02-02T11:10:35Z</time>
      </trkpt>
      <trkpt lat="45.96173" lon="6.55386">
        <ele>2321.8</ele>
        <time>2026-02-02T11:10:36Z</time>
      </trkpt>
      <trkpt lat="45.96172" lon="6.55386">
        <ele>2321.2</ele>
        <time>2026-02-02T11:10:37Z</time>
      </trkpt>
      <trkpt lat="45.96171" lon="6.55386">
        <ele>2321.2</ele>
        <time>2026-02-02T11:10:38Z</time>
      </trkpt>
      <trkpt lat="45.9617" lon="6.55386">
        <ele>2321.2</ele>
        <time>2026-02-02T11:10:39Z</time>
      </trkpt>
      <trkpt lat="45.9617" lon="6.55386">
        <ele>2321.2</ele>
        <time>2026-02-02T11:10:40Z</time>
      </trkpt>
      <trkpt lat="45.96169" lon="6.55386">
        <ele>2321.2</ele>
        <time>2026-02-02T11:10:41Z</time>
      </trkpt>
      <trkpt lat="45.96168" lon="6.55386">
        <ele>2321.2</ele>
        <time>2026-02-02T11:10:42Z</time>
      </trkpt>
      <trkpt lat="45.96167" lon="6.55386">
        <ele>2321.9</ele>
        <time>2026-02-02T11:10:43Z</time>
      </trkpt>
      <trkpt lat="45.96166" lon="6.55386">
        <ele>2321.9</ele>
        <time>2026-02-02T11:10:44Z</time>
      </trkpt>
      <trkpt lat="45.96166" lon="6.55387">
        <ele>2321.9</ele>
        <time>2026-02-02T11:10:45Z</time>
      </trkpt>
      <trkpt lat="45.96164" lon="6.55387">
        <ele>2322</ele>
        <time>2026-02-02T11:10:46Z</time>
      </trkpt>
      <trkpt lat="45.96164" lon="6.55387">
        <ele>2322</ele>
        <time>2026-02-02T11:10:47Z</time>
      </trkpt>
      <trkpt lat="45.96162" lon="6.55387">
        <ele>2322</ele>
        <time>2026-02-02T11:10:48Z</time>
      </trkpt>
      <trkpt lat="45.96161" lon="6.55388">
        <ele>2322</ele>
        <time>2026-02-02T11:10:49Z</time>
      </trkpt>
      <trkpt lat="45.96161" lon="6.55388">
        <ele>2322</ele>
        <time>2026-02-02T11:10:50Z</time>
      </trkpt>
      <trkpt lat="45.96161" lon="6.55388">
        <ele>2322</ele>
        <time>2026-02-02T11:10:51Z</time>
      </trkpt>
      <trkpt lat="45.96161" lon="6.55388">
        <ele>2322</ele>
        <time>2026-02-02T11:10:52Z</time>
      </trkpt>
      <trkpt lat="45.96161" lon="6.55388">
        <ele>2322</ele>
        <time>2026-02-02T11:10:53Z</time>
      </trkpt>
      <trkpt lat="45.96161" lon="6.55388">
        <ele>2322</ele>
        <time>2026-02-02T11:10:54Z</time>
      </trkpt>
      <trkpt lat="45.96161" lon="6.55388">
        <ele>2322</ele>
        <time>2026-02-02T11:10:55Z</time>
      </trkpt>
      <trkpt lat="45.96161" lon="6.55388">
        <ele>2322</ele>
        <time>2026-02-02T11:10:56Z</time>
      </trkpt>
      <trkpt lat="45.96161" lon="6.55388">
        <ele>2322</ele>
        <time>2026-02-02T11:10:57Z</time>
      </trkpt>
      <trkpt lat="45.96161" lon="6.55388">
        <ele>2322</ele>
        <time>2026-02-02T11:10:58Z</time>
      </trkpt>
      <trkpt lat="45.96161" lon="6.55388">
        <ele>2322</ele>
        <time>2026-02-02T11:10:59Z</time>
      </trkpt>
      <trkpt lat="45.96161" lon="6.55388">
        <ele>2322</ele>
        <time>2026-02-02T11:11:00Z</time>
      </trkpt>
      <trkpt lat="45.96161" lon="6.55388">
        <ele>2322</ele>
        <time>2026-02-02T11:11:01Z</time>
      </trkpt>
      <trkpt lat="45.96161" lon="6.55388">
        <ele>2322</ele>
        <time>2026-02-02T11:11:02Z</time>
      </trkpt>
      <trkpt lat="45.96161" lon="6.55388">
        <ele>2322</ele>
        <time>2026-02-02T11:11:03Z</time>
      </trkpt>
      <trkpt lat="45.96161" lon="6.55388">
        <ele>2322</ele>
        <time>2026-02-02T11:11:04Z</time>
      </trkpt>
      <trkpt lat="45.96161" lon="6.55388">
        <ele>2322</ele>
        <time>2026-02-02T11:11:05Z</time>
      </trkpt>
      <trkpt lat="45.96161" lon="6.55388">
        <ele>2322</ele>
        <time>2026-02-02T11:11:06Z</time>
      </trkpt>
      <trkpt lat="45.96161" lon="6.55388">
        <ele>2322</ele>
        <time>2026-02-02T11:11:07Z</time>
      </trkpt>
      <trkpt lat="45.96161" lon="6.55388">
        <ele>2322</ele>
        <time>2026-02-02T11:11:08Z</time>
      </trkpt>
      <trkpt lat="45.96161" lon="6.55388">
        <ele>2322</ele>
        <time>2026-02-02T11:11:09Z</time>
      </trkpt>
      <trkpt lat="45.96161" lon="6.55388">
        <ele>2322</ele>
        <time>2026-02-02T11:11:10Z</time>
      </trkpt>
      <trkpt lat="45.9616" lon="6.55388">
        <ele>2322</ele>
        <time>2026-02-02T11:11:11Z</time>
      </trkpt>
      <trkpt lat="45.96159" lon="6.55388">
        <ele>2322</ele>
        <time>2026-02-02T11:11:12Z</time>
      </trkpt>
      <trkpt lat="45.96158" lon="6.55388">
        <ele>2322.1</ele>
        <time>2026-02-02T11:11:13Z</time>
      </trkpt>
      <trkpt lat="45.96157" lon="6.55387">
        <ele>2322.1</ele>
        <time>2026-02-02T11:11:14Z</time>
      </trkpt>
      <trkpt lat="45.96157" lon="6.55388">
        <ele>2322.1</ele>
        <time>2026-02-02T11:11:15Z</time>
      </trkpt>
      <trkpt lat="45.96157" lon="6.55388">
        <ele>2322.1</ele>
        <time>2026-02-02T11:11:16Z</time>
      </trkpt>
      <trkpt lat="45.96155" lon="6.55389">
        <ele>2322.1</ele>
        <time>2026-02-02T11:11:17Z</time>
      </trkpt>
      <trkpt lat="45.96154" lon="6.55389">
        <ele>2322.1</ele>
        <time>2026-02-02T11:11:18Z</time>
      </trkpt>
      <trkpt lat="45.96153" lon="6.55389">
        <ele>2322.2</ele>
        <time>2026-02-02T11:11:19Z</time>
      </trkpt>
      <trkpt lat="45.96152" lon="6.55389">
        <ele>2322.2</ele>
        <time>2026-02-02T11:11:20Z</time>
      </trkpt>
      <trkpt lat="45.96151" lon="6.55389">
        <ele>2322.2</ele>
        <time>2026-02-02T11:11:21Z</time>
      </trkpt>
      <trkpt lat="45.9615" lon="6.55389">
        <ele>2322.2</ele>
        <time>2026-02-02T11:11:22Z</time>
      </trkpt>
      <trkpt lat="45.96149" lon="6.5539">
        <ele>2322.2</ele>
        <time>2026-02-02T11:11:23Z</time>
      </trkpt>
      <trkpt lat="45.96148" lon="6.5539">
        <ele>2322.2</ele>
        <time>2026-02-02T11:11:24Z</time>
      </trkpt>
      <trkpt lat="45.96147" lon="6.5539">
        <ele>2322.2</ele>
        <time>2026-02-02T11:11:25Z</time>
      </trkpt>
      <trkpt lat="45.96146" lon="6.5539">
        <ele>2322.2</ele>
        <time>2026-02-02T11:11:26Z</time>
      </trkpt>
      <trkpt lat="45.96145" lon="6.5539">
        <ele>2322.2</ele>
        <time>2026-02-02T11:11:27Z</time>
      </trkpt>
      <trkpt lat="45.96144" lon="6.5539">
        <ele>2322.2</ele>
        <time>2026-02-02T11:11:28Z</time>
      </trkpt>
      <trkpt lat="45.96143" lon="6.55389">
        <ele>2322.2</ele>
        <time>2026-02-02T11:11:29Z</time>
      </trkpt>
      <trkpt lat="45.96142" lon="6.55389">
        <ele>2322.2</ele>
        <time>2026-02-02T11:11:30Z</time>
      </trkpt>
      <trkpt lat="45.96142" lon="6.55389">
        <ele>2322.2</ele>
        <time>2026-02-02T11:11:31Z</time>
      </trkpt>
      <trkpt lat="45.96141" lon="6.5539">
        <ele>2322.2</ele>
        <time>2026-02-02T11:11:32Z</time>
      </trkpt>
      <trkpt lat="45.9614" lon="6.5539">
        <ele>2322.2</ele>
        <time>2026-02-02T11:11:33Z</time>
      </trkpt>
      <trkpt lat="45.96139" lon="6.5539">
        <ele>2322.2</ele>
        <time>2026-02-02T11:11:34Z</time>
      </trkpt>
      <trkpt lat="45.96139" lon="6.5539">
        <ele>2323.1</ele>
        <time>2026-02-02T11:11:35Z</time>
      </trkpt>
      <trkpt lat="45.96138" lon="6.55391">
        <ele>2323.1</ele>
        <time>2026-02-02T11:11:36Z</time>
      </trkpt>
      <trkpt lat="45.96137" lon="6.55391">
        <ele>2323.1</ele>
        <time>2026-02-02T11:11:37Z</time>
      </trkpt>
      <trkpt lat="45.96137" lon="6.55391">
        <ele>2323.1</ele>
        <time>2026-02-02T11:11:38Z</time>
      </trkpt>
      <trkpt lat="45.96136" lon="6.55391">
        <ele>2323.1</ele>
        <time>2026-02-02T11:11:39Z</time>
      </trkpt>
      <trkpt lat="45.96136" lon="6.55392">
        <ele>2323.1</ele>
        <time>2026-02-02T11:11:40Z</time>
      </trkpt>
      <trkpt lat="45.96136" lon="6.55393">
        <ele>2323.1</ele>
        <time>2026-02-02T11:11:41Z</time>
      </trkpt>
      <trkpt lat="45.96136" lon="6.55394">
        <ele>2323.1</ele>
        <time>2026-02-02T11:11:42Z</time>
      </trkpt>
      <trkpt lat="45.96137" lon="6.55396">
        <ele>2323.9</ele>
        <time>2026-02-02T11:11:43Z</time>
      </trkpt>
      <trkpt lat="45.96137" lon="6.55396">
        <ele>2323.9</ele>
        <time>2026-02-02T11:11:44Z</time>
      </trkpt>
      <trkpt lat="45.96137" lon="6.55397">
        <ele>2323.9</ele>
        <time>2026-02-02T11:11:45Z</time>
      </trkpt>
      <trkpt lat="45.96137" lon="6.55397">
        <ele>2323.9</ele>
        <time>2026-02-02T11:11:46Z</time>
      </trkpt>
      <trkpt lat="45.96137" lon="6.55397">
        <ele>2323.9</ele>
        <time>2026-02-02T11:11:47Z</time>
      </trkpt>
      <trkpt lat="45.96137" lon="6.55397">
        <ele>2323.9</ele>
        <time>2026-02-02T11:11:48Z</time>
      </trkpt>
      <trkpt lat="45.96137" lon="6.55397">
        <ele>2323.9</ele>
        <time>2026-02-02T11:11:49Z</time>
      </trkpt>
      <trkpt lat="45.96137" lon="6.55397">
        <ele>2323.9</ele>
        <time>2026-02-02T11:11:50Z</time>
      </trkpt>
      <trkpt lat="45.96137" lon="6.55397">
        <ele>2323.9</ele>
        <time>2026-02-02T11:11:51Z</time>
      </trkpt>
      <trkpt lat="45.96137" lon="6.55397">
        <ele>2323.9</ele>
        <time>2026-02-02T11:11:52Z</time>
      </trkpt>
      <trkpt lat="45.96137" lon="6.55397">
        <ele>2323.9</ele>
        <time>2026-02-02T11:11:53Z</time>
      </trkpt>
      <trkpt lat="45.96137" lon="6.55397">
        <ele>2323.9</ele>
        <time>2026-02-02T11:11:54Z</time>
      </trkpt>
      <trkpt lat="45.96138" lon="6.55398">
        <ele>2323.9</ele>
        <time>2026-02-02T11:11:55Z</time>
      </trkpt>
      <trkpt lat="45.96138" lon="6.55398">
        <ele>2323.9</ele>
        <time>2026-02-02T11:11:56Z</time>
      </trkpt>
      <trkpt lat="45.96138" lon="6.55399">
        <ele>2324.7</ele>
        <time>2026-02-02T11:11:57Z</time>
      </trkpt>
      <trkpt lat="45.96139" lon="6.554">
        <ele>2324.7</ele>
        <time>2026-02-02T11:11:58Z</time>
      </trkpt>
      <trkpt lat="45.96139" lon="6.554">
        <ele>2324.7</ele>
        <time>2026-02-02T11:11:59Z</time>
      </trkpt>
      <trkpt lat="45.96139" lon="6.55401">
        <ele>2324.7</ele>
        <time>2026-02-02T11:12:00Z</time>
      </trkpt>
      <trkpt lat="45.96139" lon="6.55401">
        <ele>2324.7</ele>
        <time>2026-02-02T11:12:01Z</time>
      </trkpt>
      <trkpt lat="45.9614" lon="6.55402">
        <ele>2324.7</ele>
        <time>2026-02-02T11:12:02Z</time>
      </trkpt>
      <trkpt lat="45.9614" lon="6.55403">
        <ele>2325.4</ele>
        <time>2026-02-02T11:12:03Z</time>
      </trkpt>
      <trkpt lat="45.96141" lon="6.55405">
        <ele>2325.4</ele>
        <time>2026-02-02T11:12:04Z</time>
      </trkpt>
      <trkpt lat="45.96141" lon="6.55406">
        <ele>2325.4</ele>
        <time>2026-02-02T11:12:05Z</time>
      </trkpt>
      <trkpt lat="45.96141" lon="6.55407">
        <ele>2325.4</ele>
        <time>2026-02-02T11:12:06Z</time>
      </trkpt>
      <trkpt lat="45.96141" lon="6.55408">
        <ele>2326.1</ele>
        <time>2026-02-02T11:12:07Z</time>
      </trkpt>
      <trkpt lat="45.96142" lon="6.55408">
        <ele>2326.1</ele>
        <time>2026-02-02T11:12:08Z</time>
      </trkpt>
      <trkpt lat="45.96142" lon="6.55409">
        <ele>2326.1</ele>
        <time>2026-02-02T11:12:09Z</time>
      </trkpt>
      <trkpt lat="45.96143" lon="6.55409">
        <ele>2326.1</ele>
        <time>2026-02-02T11:12:10Z</time>
      </trkpt>
      <trkpt lat="45.96143" lon="6.5541">
        <ele>2326.1</ele>
        <time>2026-02-02T11:12:11Z</time>
      </trkpt>
      <trkpt lat="45.96143" lon="6.55411">
        <ele>2326.1</ele>
        <time>2026-02-02T11:12:12Z</time>
      </trkpt>
      <trkpt lat="45.96143" lon="6.55412">
        <ele>2326.9</ele>
        <time>2026-02-02T11:12:13Z</time>
      </trkpt>
      <trkpt lat="45.96144" lon="6.55414">
        <ele>2326.9</ele>
        <time>2026-02-02T11:12:14Z</time>
      </trkpt>
      <trkpt lat="45.96144" lon="6.55415">
        <ele>2326.9</ele>
        <time>2026-02-02T11:12:15Z</time>
      </trkpt>
      <trkpt lat="45.96144" lon="6.55416">
        <ele>2326.9</ele>
        <time>2026-02-02T11:12:16Z</time>
      </trkpt>
      <trkpt lat="45.96144" lon="6.55417">
        <ele>2327.5</ele>
        <time>2026-02-02T11:12:17Z</time>
      </trkpt>
      <trkpt lat="45.96145" lon="6.55418">
        <ele>2327.5</ele>
        <time>2026-02-02T11:12:18Z</time>
      </trkpt>
      <trkpt lat="45.96145" lon="6.55419">
        <ele>2327.5</ele>
        <time>2026-02-02T11:12:19Z</time>
      </trkpt>
      <trkpt lat="45.96145" lon="6.55421">
        <ele>2328.4</ele>
        <time>2026-02-02T11:12:20Z</time>
      </trkpt>
      <trkpt lat="45.96145" lon="6.55422">
        <ele>2328.4</ele>
        <time>2026-02-02T11:12:21Z</time>
      </trkpt>
      <trkpt lat="45.96145" lon="6.55423">
        <ele>2328.4</ele>
        <time>2026-02-02T11:12:22Z</time>
      </trkpt>
      <trkpt lat="45.96145" lon="6.55424">
        <ele>2328.4</ele>
        <time>2026-02-02T11:12:23Z</time>
      </trkpt>
      <trkpt lat="45.96144" lon="6.55425">
        <ele>2329.3</ele>
        <time>2026-02-02T11:12:24Z</time>
      </trkpt>
      <trkpt lat="45.96143" lon="6.55425">
        <ele>2329.5</ele>
        <time>2026-02-02T11:12:25Z</time>
      </trkpt>
      <trkpt lat="45.96143" lon="6.55425">
        <ele>2328.6</ele>
        <time>2026-02-02T11:12:27Z</time>
      </trkpt>
      <trkpt lat="45.96143" lon="6.55425">
        <ele>2328.6</ele>
        <time>2026-02-02T11:12:28Z</time>
      </trkpt>
      <trkpt lat="45.96143" lon="6.55424">
        <ele>2328.6</ele>
        <time>2026-02-02T11:12:29Z</time>
      </trkpt>
      <trkpt lat="45.96142" lon="6.55424">
        <ele>2328.6</ele>
        <time>2026-02-02T11:12:30Z</time>
      </trkpt>
      <trkpt lat="45.96142" lon="6.55424">
        <ele>2328.6</ele>
        <time>2026-02-02T11:12:31Z</time>
      </trkpt>
      <trkpt lat="45.96142" lon="6.55424">
        <ele>2328.6</ele>
        <time>2026-02-02T11:12:32Z</time>
      </trkpt>
      <trkpt lat="45.96142" lon="6.55424">
        <ele>2328.6</ele>
        <time>2026-02-02T11:12:33Z</time>
      </trkpt>
      <trkpt lat="45.96141" lon="6.55424">
        <ele>2328.6</ele>
        <time>2026-02-02T11:12:34Z</time>
      </trkpt>
      <trkpt lat="45.96141" lon="6.55424">
        <ele>2328.8</ele>
        <time>2026-02-02T11:12:35Z</time>
      </trkpt>
      <trkpt lat="45.96141" lon="6.55424">
        <ele>2328.8</ele>
        <time>2026-02-02T11:12:36Z</time>
      </trkpt>
      <trkpt lat="45.96141" lon="6.55424">
        <ele>2328.8</ele>
        <time>2026-02-02T11:12:38Z</time>
      </trkpt>
      <trkpt lat="45.9614" lon="6.55424">
        <ele>2328.8</ele>
        <time>2026-02-02T11:12:39Z</time>
      </trkpt>
      <trkpt lat="45.9614" lon="6.55424">
        <ele>2328.8</ele>
        <time>2026-02-02T11:12:40Z</time>
      </trkpt>
      <trkpt lat="45.9614" lon="6.55424">
        <ele>2328.8</ele>
        <time>2026-02-02T11:12:41Z</time>
      </trkpt>
      <trkpt lat="45.9614" lon="6.55424">
        <ele>2328.8</ele>
        <time>2026-02-02T11:12:42Z</time>
      </trkpt>
      <trkpt lat="45.96139" lon="6.55424">
        <ele>2328.8</ele>
        <time>2026-02-02T11:12:43Z</time>
      </trkpt>
      <trkpt lat="45.96139" lon="6.55424">
        <ele>2328.8</ele>
        <time>2026-02-02T11:12:44Z</time>
      </trkpt>
      <trkpt lat="45.96139" lon="6.55424">
        <ele>2328.8</ele>
        <time>2026-02-02T11:12:45Z</time>
      </trkpt>
      <trkpt lat="45.96139" lon="6.55424">
        <ele>2328.8</ele>
        <time>2026-02-02T11:12:46Z</time>
      </trkpt>
      <trkpt lat="45.96138" lon="6.55424">
        <ele>2328.8</ele>
        <time>2026-02-02T11:12:47Z</time>
      </trkpt>
      <trkpt lat="45.96137" lon="6.55425">
        <ele>2329.9</ele>
        <time>2026-02-02T11:12:49Z</time>
      </trkpt>
      <trkpt lat="45.96136" lon="6.55425">
        <ele>2329.9</ele>
        <time>2026-02-02T11:12:50Z</time>
      </trkpt>
      <trkpt lat="45.96135" lon="6.55425">
        <ele>2330.1</ele>
        <time>2026-02-02T11:12:51Z</time>
      </trkpt>
      <trkpt lat="45.96134" lon="6.55425">
        <ele>2330.1</ele>
        <time>2026-02-02T11:12:52Z</time>
      </trkpt>
      <trkpt lat="45.96132" lon="6.55425">
        <ele>2330.2</ele>
        <time>2026-02-02T11:12:53Z</time>
      </trkpt>
      <trkpt lat="45.96131" lon="6.55425">
        <ele>2330.2</ele>
        <time>2026-02-02T11:12:54Z</time>
      </trkpt>
      <trkpt lat="45.96131" lon="6.55424">
        <ele>2329.3</ele>
        <time>2026-02-02T11:12:55Z</time>
      </trkpt>
      <trkpt lat="45.9613" lon="6.55424">
        <ele>2329.3</ele>
        <time>2026-02-02T11:12:56Z</time>
      </trkpt>
      <trkpt lat="45.96129" lon="6.55424">
        <ele>2329.4</ele>
        <time>2026-02-02T11:12:57Z</time>
      </trkpt>
      <trkpt lat="45.96128" lon="6.55424">
        <ele>2329.4</ele>
        <time>2026-02-02T11:12:58Z</time>
      </trkpt>
      <trkpt lat="45.96127" lon="6.55425">
        <ele>2329.4</ele>
        <time>2026-02-02T11:12:59Z</time>
      </trkpt>
      <trkpt lat="45.96126" lon="6.55425">
        <ele>2330.5</ele>
        <time>2026-02-02T11:13:00Z</time>
      </trkpt>
      <trkpt lat="45.96124" lon="6.55425">
        <ele>2330.5</ele>
        <time>2026-02-02T11:13:01Z</time>
      </trkpt>
      <trkpt lat="45.96123" lon="6.55426">
        <ele>2330.7</ele>
        <time>2026-02-02T11:13:02Z</time>
      </trkpt>
      <trkpt lat="45.96122" lon="6.55427">
        <ele>2330.7</ele>
        <time>2026-02-02T11:13:03Z</time>
      </trkpt>
      <trkpt lat="45.96121" lon="6.55428">
        <ele>2330.7</ele>
        <time>2026-02-02T11:13:04Z</time>
      </trkpt>
      <trkpt lat="45.96121" lon="6.55428">
        <ele>2330.7</ele>
        <time>2026-02-02T11:13:05Z</time>
      </trkpt>
      <trkpt lat="45.9612" lon="6.55429">
        <ele>2331.8</ele>
        <time>2026-02-02T11:13:06Z</time>
      </trkpt>
      <trkpt lat="45.9612" lon="6.55429">
        <ele>2331.8</ele>
        <time>2026-02-02T11:13:07Z</time>
      </trkpt>
      <trkpt lat="45.96119" lon="6.55429">
        <ele>2330.8</ele>
        <time>2026-02-02T11:13:09Z</time>
      </trkpt>
      <trkpt lat="45.9612" lon="6.55428">
        <ele>2330.8</ele>
        <time>2026-02-02T11:13:10Z</time>
      </trkpt>
      <trkpt lat="45.9612" lon="6.55428">
        <ele>2330.8</ele>
        <time>2026-02-02T11:13:11Z</time>
      </trkpt>
      <trkpt lat="45.9612" lon="6.55428">
        <ele>2330.8</ele>
        <time>2026-02-02T11:13:12Z</time>
      </trkpt>
      <trkpt lat="45.9612" lon="6.55428">
        <ele>2330.8</ele>
        <time>2026-02-02T11:13:13Z</time>
      </trkpt>
      <trkpt lat="45.9612" lon="6.55428">
        <ele>2330.8</ele>
        <time>2026-02-02T11:13:14Z</time>
      </trkpt>
      <trkpt lat="45.9612" lon="6.55428">
        <ele>2330.8</ele>
        <time>2026-02-02T11:13:15Z</time>
      </trkpt>
      <trkpt lat="45.9612" lon="6.55428">
        <ele>2330.8</ele>
        <time>2026-02-02T11:13:16Z</time>
      </trkpt>
      <trkpt lat="45.9612" lon="6.55428">
        <ele>2330.8</ele>
        <time>2026-02-02T11:13:17Z</time>
      </trkpt>
      <trkpt lat="45.9612" lon="6.55428">
        <ele>2330.8</ele>
        <time>2026-02-02T11:13:18Z</time>
      </trkpt>
      <trkpt lat="45.9612" lon="6.55428">
        <ele>2330.8</ele>
        <time>2026-02-02T11:13:19Z</time>
      </trkpt>
      <trkpt lat="45.9612" lon="6.55428">
        <ele>2330.8</ele>
        <time>2026-02-02T11:13:20Z</time>
      </trkpt>
      <trkpt lat="45.9612" lon="6.55428">
        <ele>2330.8</ele>
        <time>2026-02-02T11:13:21Z</time>
      </trkpt>
      <trkpt lat="45.9612" lon="6.55429">
        <ele>2330.8</ele>
        <time>2026-02-02T11:13:22Z</time>
      </trkpt>
      <trkpt lat="45.96121" lon="6.55429">
        <ele>2330.7</ele>
        <time>2026-02-02T11:13:23Z</time>
      </trkpt>
      <trkpt lat="45.96121" lon="6.55429">
        <ele>2330.7</ele>
        <time>2026-02-02T11:13:24Z</time>
      </trkpt>
      <trkpt lat="45.96121" lon="6.55429">
        <ele>2330.7</ele>
        <time>2026-02-02T11:13:25Z</time>
      </trkpt>
      <trkpt lat="45.96122" lon="6.55429">
        <ele>2331.7</ele>
        <time>2026-02-02T11:13:26Z</time>
      </trkpt>
      <trkpt lat="45.96123" lon="6.55429">
        <ele>2331.7</ele>
        <time>2026-02-02T11:13:27Z</time>
      </trkpt>
      <trkpt lat="45.96122" lon="6.5543">
        <ele>2331.7</ele>
        <time>2026-02-02T11:13:28Z</time>
      </trkpt>
      <trkpt lat="45.96121" lon="6.55431">
        <ele>2331.7</ele>
        <time>2026-02-02T11:13:29Z</time>
      </trkpt>
      <trkpt lat="45.9612" lon="6.55432">
        <ele>2331.8</ele>
        <time>2026-02-02T11:13:30Z</time>
      </trkpt>
      <trkpt lat="45.9612" lon="6.55431">
        <ele>2331.8</ele>
        <time>2026-02-02T11:13:31Z</time>
      </trkpt>
      <trkpt lat="45.96119" lon="6.55431">
        <ele>2331.8</ele>
        <time>2026-02-02T11:13:32Z</time>
      </trkpt>
      <trkpt lat="45.96118" lon="6.55432">
        <ele>2331.8</ele>
        <time>2026-02-02T11:13:33Z</time>
      </trkpt>
      <trkpt lat="45.96117" lon="6.55433">
        <ele>2332.9</ele>
        <time>2026-02-02T11:13:34Z</time>
      </trkpt>
      <trkpt lat="45.96116" lon="6.55434">
        <ele>2332.9</ele>
        <time>2026-02-02T11:13:35Z</time>
      </trkpt>
      <trkpt lat="45.96114" lon="6.55435">
        <ele>2333</ele>
        <time>2026-02-02T11:13:36Z</time>
      </trkpt>
      <trkpt lat="45.96113" lon="6.55436">
        <ele>2333</ele>
        <time>2026-02-02T11:13:37Z</time>
      </trkpt>
      <trkpt lat="45.96112" lon="6.55437">
        <ele>2333</ele>
        <time>2026-02-02T11:13:38Z</time>
      </trkpt>
      <trkpt lat="45.96111" lon="6.55438">
        <ele>2334.1</ele>
        <time>2026-02-02T11:13:39Z</time>
      </trkpt>
      <trkpt lat="45.96111" lon="6.55438">
        <ele>2334.1</ele>
        <time>2026-02-02T11:13:40Z</time>
      </trkpt>
      <trkpt lat="45.9611" lon="6.55438">
        <ele>2334.1</ele>
        <time>2026-02-02T11:13:41Z</time>
      </trkpt>
      <trkpt lat="45.96108" lon="6.55437">
        <ele>2333.2</ele>
        <time>2026-02-02T11:13:43Z</time>
      </trkpt>
      <trkpt lat="45.96108" lon="6.55437">
        <ele>2333.2</ele>
        <time>2026-02-02T11:13:44Z</time>
      </trkpt>
      <trkpt lat="45.96107" lon="6.55436">
        <ele>2333.2</ele>
        <time>2026-02-02T11:13:45Z</time>
      </trkpt>
      <trkpt lat="45.96106" lon="6.55436">
        <ele>2333.2</ele>
        <time>2026-02-02T11:13:46Z</time>
      </trkpt>
      <trkpt lat="45.96105" lon="6.55435">
        <ele>2333.2</ele>
        <time>2026-02-02T11:13:47Z</time>
      </trkpt>
      <trkpt lat="45.96104" lon="6.55435">
        <ele>2333.2</ele>
        <time>2026-02-02T11:13:48Z</time>
      </trkpt>
      <trkpt lat="45.96102" lon="6.55434">
        <ele>2333.3</ele>
        <time>2026-02-02T11:13:49Z</time>
      </trkpt>
      <trkpt lat="45.96102" lon="6.55434">
        <ele>2333.3</ele>
        <time>2026-02-02T11:13:50Z</time>
      </trkpt>
      <trkpt lat="45.96101" lon="6.55433">
        <ele>2333.3</ele>
        <time>2026-02-02T11:13:51Z</time>
      </trkpt>
      <trkpt lat="45.96101" lon="6.55433">
        <ele>2333.3</ele>
        <time>2026-02-02T11:13:52Z</time>
      </trkpt>
      <trkpt lat="45.96101" lon="6.55433">
        <ele>2333.3</ele>
        <time>2026-02-02T11:13:53Z</time>
      </trkpt>
      <trkpt lat="45.96101" lon="6.55433">
        <ele>2333.3</ele>
        <time>2026-02-02T11:13:54Z</time>
      </trkpt>
      <trkpt lat="45.96101" lon="6.55434">
        <ele>2333.3</ele>
        <time>2026-02-02T11:13:55Z</time>
      </trkpt>
      <trkpt lat="45.96101" lon="6.55434">
        <ele>2333.3</ele>
        <time>2026-02-02T11:13:56Z</time>
      </trkpt>
      <trkpt lat="45.96101" lon="6.55434">
        <ele>2333.3</ele>
        <time>2026-02-02T11:13:57Z</time>
      </trkpt>
      <trkpt lat="45.96101" lon="6.55434">
        <ele>2333.3</ele>
        <time>2026-02-02T11:13:58Z</time>
      </trkpt>
      <trkpt lat="45.96101" lon="6.55434">
        <ele>2333.3</ele>
        <time>2026-02-02T11:13:59Z</time>
      </trkpt>
      <trkpt lat="45.96101" lon="6.55434">
        <ele>2333.3</ele>
        <time>2026-02-02T11:14:00Z</time>
      </trkpt>
      <trkpt lat="45.96101" lon="6.55434">
        <ele>2333.3</ele>
        <time>2026-02-02T11:14:01Z</time>
      </trkpt>
      <trkpt lat="45.96101" lon="6.55434">
        <ele>2333.3</ele>
        <time>2026-02-02T11:14:02Z</time>
      </trkpt>
      <trkpt lat="45.96101" lon="6.55434">
        <ele>2333.3</ele>
        <time>2026-02-02T11:14:03Z</time>
      </trkpt>
      <trkpt lat="45.96101" lon="6.55434">
        <ele>2333.3</ele>
        <time>2026-02-02T11:14:04Z</time>
      </trkpt>
      <trkpt lat="45.96101" lon="6.55434">
        <ele>2333.3</ele>
        <time>2026-02-02T11:14:05Z</time>
      </trkpt>
      <trkpt lat="45.96101" lon="6.55434">
        <ele>2333.3</ele>
        <time>2026-02-02T11:14:06Z</time>
      </trkpt>
      <trkpt lat="45.96101" lon="6.55434">
        <ele>2333.3</ele>
        <time>2026-02-02T11:14:07Z</time>
      </trkpt>
      <trkpt lat="45.96101" lon="6.55434">
        <ele>2333.3</ele>
        <time>2026-02-02T11:14:08Z</time>
      </trkpt>
      <trkpt lat="45.96101" lon="6.55433">
        <ele>2333.3</ele>
        <time>2026-02-02T11:14:09Z</time>
      </trkpt>
      <trkpt lat="45.96099" lon="6.55433">
        <ele>2333.4</ele>
        <time>2026-02-02T11:14:10Z</time>
      </trkpt>
      <trkpt lat="45.96098" lon="6.55434">
        <ele>2333.4</ele>
        <time>2026-02-02T11:14:11Z</time>
      </trkpt>
      <trkpt lat="45.96096" lon="6.55434">
        <ele>2333.5</ele>
        <time>2026-02-02T11:14:12Z</time>
      </trkpt>
      <trkpt lat="45.96095" lon="6.55435">
        <ele>2333.5</ele>
        <time>2026-02-02T11:14:13Z</time>
      </trkpt>
      <trkpt lat="45.96094" lon="6.55434">
        <ele>2333.5</ele>
        <time>2026-02-02T11:14:14Z</time>
      </trkpt>
      <trkpt lat="45.96093" lon="6.55434">
        <ele>2333.5</ele>
        <time>2026-02-02T11:14:15Z</time>
      </trkpt>
      <trkpt lat="45.96092" lon="6.55434">
        <ele>2333.5</ele>
        <time>2026-02-02T11:14:16Z</time>
      </trkpt>
      <trkpt lat="45.96091" lon="6.55433">
        <ele>2333.5</ele>
        <time>2026-02-02T11:14:17Z</time>
      </trkpt>
      <trkpt lat="45.96089" lon="6.55433">
        <ele>2332.6</ele>
        <time>2026-02-02T11:14:18Z</time>
      </trkpt>
      <trkpt lat="45.96088" lon="6.55432">
        <ele>2332.6</ele>
        <time>2026-02-02T11:14:19Z</time>
      </trkpt>
      <trkpt lat="45.96086" lon="6.55431">
        <ele>2332.7</ele>
        <time>2026-02-02T11:14:20Z</time>
      </trkpt>
      <trkpt lat="45.96085" lon="6.55431">
        <ele>2332.7</ele>
        <time>2026-02-02T11:14:21Z</time>
      </trkpt>
      <trkpt lat="45.96084" lon="6.5543">
        <ele>2332.7</ele>
        <time>2026-02-02T11:14:22Z</time>
      </trkpt>
      <trkpt lat="45.96083" lon="6.55429">
        <ele>2332.7</ele>
        <time>2026-02-02T11:14:23Z</time>
      </trkpt>
      <trkpt lat="45.96082" lon="6.55429">
        <ele>2332.7</ele>
        <time>2026-02-02T11:14:24Z</time>
      </trkpt>
      <trkpt lat="45.96082" lon="6.55429">
        <ele>2331.7</ele>
        <time>2026-02-02T11:14:25Z</time>
      </trkpt>
      <trkpt lat="45.96081" lon="6.55429">
        <ele>2331.8</ele>
        <time>2026-02-02T11:14:26Z</time>
      </trkpt>
      <trkpt lat="45.9608" lon="6.55428">
        <ele>2331.8</ele>
        <time>2026-02-02T11:14:27Z</time>
      </trkpt>
      <trkpt lat="45.9608" lon="6.55428">
        <ele>2331.8</ele>
        <time>2026-02-02T11:14:28Z</time>
      </trkpt>
      <trkpt lat="45.96079" lon="6.55428">
        <ele>2331.8</ele>
        <time>2026-02-02T11:14:29Z</time>
      </trkpt>
      <trkpt lat="45.96079" lon="6.55428">
        <ele>2331.8</ele>
        <time>2026-02-02T11:14:30Z</time>
      </trkpt>
      <trkpt lat="45.96078" lon="6.55428">
        <ele>2331.8</ele>
        <time>2026-02-02T11:14:31Z</time>
      </trkpt>
      <trkpt lat="45.96077" lon="6.55428">
        <ele>2331.8</ele>
        <time>2026-02-02T11:14:32Z</time>
      </trkpt>
      <trkpt lat="45.96076" lon="6.55428">
        <ele>2331.8</ele>
        <time>2026-02-02T11:14:33Z</time>
      </trkpt>
      <trkpt lat="45.96075" lon="6.55428">
        <ele>2331.8</ele>
        <time>2026-02-02T11:14:34Z</time>
      </trkpt>
      <trkpt lat="45.96074" lon="6.55428">
        <ele>2331.8</ele>
        <time>2026-02-02T11:14:35Z</time>
      </trkpt>
      <trkpt lat="45.96073" lon="6.55428">
        <ele>2331.8</ele>
        <time>2026-02-02T11:14:36Z</time>
      </trkpt>
      <trkpt lat="45.96072" lon="6.55428">
        <ele>2331.8</ele>
        <time>2026-02-02T11:14:37Z</time>
      </trkpt>
      <trkpt lat="45.96071" lon="6.55428">
        <ele>2331.8</ele>
        <time>2026-02-02T11:14:38Z</time>
      </trkpt>
      <trkpt lat="45.96071" lon="6.55429">
        <ele>2331.8</ele>
        <time>2026-02-02T11:14:39Z</time>
      </trkpt>
      <trkpt lat="45.9607" lon="6.55429">
        <ele>2332.8</ele>
        <time>2026-02-02T11:14:40Z</time>
      </trkpt>
      <trkpt lat="45.9607" lon="6.5543">
        <ele>2332.8</ele>
        <time>2026-02-02T11:14:41Z</time>
      </trkpt>
      <trkpt lat="45.96071" lon="6.5543">
        <ele>2332.8</ele>
        <time>2026-02-02T11:14:42Z</time>
      </trkpt>
      <trkpt lat="45.96071" lon="6.55431">
        <ele>2332.8</ele>
        <time>2026-02-02T11:14:43Z</time>
      </trkpt>
      <trkpt lat="45.96072" lon="6.55431">
        <ele>2332.8</ele>
        <time>2026-02-02T11:14:44Z</time>
      </trkpt>
      <trkpt lat="45.96073" lon="6.55432">
        <ele>2332.8</ele>
        <time>2026-02-02T11:14:45Z</time>
      </trkpt>
      <trkpt lat="45.96073" lon="6.55433">
        <ele>2332.8</ele>
        <time>2026-02-02T11:14:46Z</time>
      </trkpt>
      <trkpt lat="45.96074" lon="6.55433">
        <ele>2332.8</ele>
        <time>2026-02-02T11:14:47Z</time>
      </trkpt>
      <trkpt lat="45.96073" lon="6.55433">
        <ele>2332.8</ele>
        <time>2026-02-02T11:14:48Z</time>
      </trkpt>
      <trkpt lat="45.96073" lon="6.55433">
        <ele>2332.8</ele>
        <time>2026-02-02T11:14:49Z</time>
      </trkpt>
      <trkpt lat="45.96073" lon="6.55433">
        <ele>2333.9</ele>
        <time>2026-02-02T11:14:50Z</time>
      </trkpt>
      <trkpt lat="45.96073" lon="6.55433">
        <ele>2333.9</ele>
        <time>2026-02-02T11:14:51Z</time>
      </trkpt>
      <trkpt lat="45.96073" lon="6.55433">
        <ele>2333.9</ele>
        <time>2026-02-02T11:14:52Z</time>
      </trkpt>
      <trkpt lat="45.96073" lon="6.55434">
        <ele>2333.9</ele>
        <time>2026-02-02T11:14:53Z</time>
      </trkpt>
      <trkpt lat="45.96073" lon="6.55434">
        <ele>2333.9</ele>
        <time>2026-02-02T11:14:54Z</time>
      </trkpt>
      <trkpt lat="45.96073" lon="6.55434">
        <ele>2333.9</ele>
        <time>2026-02-02T11:14:55Z</time>
      </trkpt>
      <trkpt lat="45.96073" lon="6.55434">
        <ele>2333.9</ele>
        <time>2026-02-02T11:14:56Z</time>
      </trkpt>
      <trkpt lat="45.96073" lon="6.55434">
        <ele>2333.9</ele>
        <time>2026-02-02T11:14:57Z</time>
      </trkpt>
      <trkpt lat="45.96073" lon="6.55434">
        <ele>2333.9</ele>
        <time>2026-02-02T11:14:58Z</time>
      </trkpt>
      <trkpt lat="45.96073" lon="6.55434">
        <ele>2333.9</ele>
        <time>2026-02-02T11:14:59Z</time>
      </trkpt>
      <trkpt lat="45.96073" lon="6.55434">
        <ele>2333.9</ele>
        <time>2026-02-02T11:15:00Z</time>
      </trkpt>
      <trkpt lat="45.96073" lon="6.55434">
        <ele>2333.9</ele>
        <time>2026-02-02T11:15:01Z</time>
      </trkpt>
      <trkpt lat="45.96073" lon="6.55435">
        <ele>2333.9</ele>
        <time>2026-02-02T11:15:02Z</time>
      </trkpt>
      <trkpt lat="45.96073" lon="6.55436">
        <ele>2333.9</ele>
        <time>2026-02-02T11:15:03Z</time>
      </trkpt>
      <trkpt lat="45.96074" lon="6.55437">
        <ele>2333.9</ele>
        <time>2026-02-02T11:15:04Z</time>
      </trkpt>
      <trkpt lat="45.96074" lon="6.55438">
        <ele>2334.9</ele>
        <time>2026-02-02T11:15:05Z</time>
      </trkpt>
      <trkpt lat="45.96075" lon="6.55439">
        <ele>2334.9</ele>
        <time>2026-02-02T11:15:06Z</time>
      </trkpt>
      <trkpt lat="45.96076" lon="6.5544">
        <ele>2334.9</ele>
        <time>2026-02-02T11:15:07Z</time>
      </trkpt>
      <trkpt lat="45.96077" lon="6.55441">
        <ele>2334.9</ele>
        <time>2026-02-02T11:15:08Z</time>
      </trkpt>
      <trkpt lat="45.96077" lon="6.55442">
        <ele>2334.9</ele>
        <time>2026-02-02T11:15:09Z</time>
      </trkpt>
      <trkpt lat="45.96078" lon="6.55443">
        <ele>2335.9</ele>
        <time>2026-02-02T11:15:10Z</time>
      </trkpt>
      <trkpt lat="45.96079" lon="6.55444">
        <ele>2335.9</ele>
        <time>2026-02-02T11:15:11Z</time>
      </trkpt>
      <trkpt lat="45.96079" lon="6.55445">
        <ele>2335.8</ele>
        <time>2026-02-02T11:15:12Z</time>
      </trkpt>
      <trkpt lat="45.9608" lon="6.55446">
        <ele>2335.8</ele>
        <time>2026-02-02T11:15:13Z</time>
      </trkpt>
      <trkpt lat="45.9608" lon="6.55447">
        <ele>2336.8</ele>
        <time>2026-02-02T11:15:14Z</time>
      </trkpt>
      <trkpt lat="45.96081" lon="6.55448">
        <ele>2336.8</ele>
        <time>2026-02-02T11:15:15Z</time>
      </trkpt>
      <trkpt lat="45.96081" lon="6.55449">
        <ele>2336.8</ele>
        <time>2026-02-02T11:15:16Z</time>
      </trkpt>
      <trkpt lat="45.96081" lon="6.55451">
        <ele>2337.8</ele>
        <time>2026-02-02T11:15:17Z</time>
      </trkpt>
      <trkpt lat="45.96081" lon="6.55452">
        <ele>2337.8</ele>
        <time>2026-02-02T11:15:18Z</time>
      </trkpt>
      <trkpt lat="45.96081" lon="6.55453">
        <ele>2337.8</ele>
        <time>2026-02-02T11:15:19Z</time>
      </trkpt>
      <trkpt lat="45.96081" lon="6.55454">
        <ele>2337.8</ele>
        <time>2026-02-02T11:15:20Z</time>
      </trkpt>
      <trkpt lat="45.96081" lon="6.55455">
        <ele>2337.8</ele>
        <time>2026-02-02T11:15:21Z</time>
      </trkpt>
      <trkpt lat="45.96082" lon="6.55456">
        <ele>2338.7</ele>
        <time>2026-02-02T11:15:22Z</time>
      </trkpt>
      <trkpt lat="45.96082" lon="6.55457">
        <ele>2338.7</ele>
        <time>2026-02-02T11:15:23Z</time>
      </trkpt>
      <trkpt lat="45.96083" lon="6.55458">
        <ele>2338.7</ele>
        <time>2026-02-02T11:15:24Z</time>
      </trkpt>
      <trkpt lat="45.96083" lon="6.55459">
        <ele>2339.7</ele>
        <time>2026-02-02T11:15:25Z</time>
      </trkpt>
      <trkpt lat="45.96083" lon="6.5546">
        <ele>2339.7</ele>
        <time>2026-02-02T11:15:26Z</time>
      </trkpt>
      <trkpt lat="45.96083" lon="6.5546">
        <ele>2339.7</ele>
        <time>2026-02-02T11:15:27Z</time>
      </trkpt>
      <trkpt lat="45.96083" lon="6.55459">
        <ele>2339.7</ele>
        <time>2026-02-02T11:15:28Z</time>
      </trkpt>
      <trkpt lat="45.96083" lon="6.55459">
        <ele>2339.7</ele>
        <time>2026-02-02T11:15:29Z</time>
      </trkpt>
      <trkpt lat="45.96083" lon="6.55459">
        <ele>2339.7</ele>
        <time>2026-02-02T11:15:30Z</time>
      </trkpt>
      <trkpt lat="45.96083" lon="6.55459">
        <ele>2339.7</ele>
        <time>2026-02-02T11:15:31Z</time>
      </trkpt>
      <trkpt lat="45.96083" lon="6.55459">
        <ele>2339.7</ele>
        <time>2026-02-02T11:15:32Z</time>
      </trkpt>
      <trkpt lat="45.96083" lon="6.55459">
        <ele>2339.7</ele>
        <time>2026-02-02T11:15:33Z</time>
      </trkpt>
      <trkpt lat="45.96083" lon="6.55459">
        <ele>2339.7</ele>
        <time>2026-02-02T11:15:34Z</time>
      </trkpt>
      <trkpt lat="45.96083" lon="6.55459">
        <ele>2339.7</ele>
        <time>2026-02-02T11:15:35Z</time>
      </trkpt>
      <trkpt lat="45.96083" lon="6.5546">
        <ele>2339.7</ele>
        <time>2026-02-02T11:15:36Z</time>
      </trkpt>
      <trkpt lat="45.96083" lon="6.5546">
        <ele>2339.7</ele>
        <time>2026-02-02T11:15:37Z</time>
      </trkpt>
      <trkpt lat="45.96083" lon="6.5546">
        <ele>2339.7</ele>
        <time>2026-02-02T11:15:38Z</time>
      </trkpt>
      <trkpt lat="45.96083" lon="6.5546">
        <ele>2339.7</ele>
        <time>2026-02-02T11:15:39Z</time>
      </trkpt>
      <trkpt lat="45.96083" lon="6.5546">
        <ele>2339.7</ele>
        <time>2026-02-02T11:15:40Z</time>
      </trkpt>
      <trkpt lat="45.96083" lon="6.55461">
        <ele>2339.7</ele>
        <time>2026-02-02T11:15:41Z</time>
      </trkpt>
      <trkpt lat="45.96083" lon="6.55461">
        <ele>2339.7</ele>
        <time>2026-02-02T11:15:42Z</time>
      </trkpt>
      <trkpt lat="45.96083" lon="6.55461">
        <ele>2339.7</ele>
        <time>2026-02-02T11:15:43Z</time>
      </trkpt>
      <trkpt lat="45.96084" lon="6.55462">
        <ele>2339.7</ele>
        <time>2026-02-02T11:15:44Z</time>
      </trkpt>
      <trkpt lat="45.96084" lon="6.55463">
        <ele>2339.7</ele>
        <time>2026-02-02T11:15:45Z</time>
      </trkpt>
      <trkpt lat="45.96085" lon="6.55464">
        <ele>2340.8</ele>
        <time>2026-02-02T11:15:46Z</time>
      </trkpt>
      <trkpt lat="45.96085" lon="6.55465">
        <ele>2340.7</ele>
        <time>2026-02-02T11:15:47Z</time>
      </trkpt>
      <trkpt lat="45.96085" lon="6.55467">
        <ele>2340.7</ele>
        <time>2026-02-02T11:15:48Z</time>
      </trkpt>
      <trkpt lat="45.96086" lon="6.55468">
        <ele>2341.8</ele>
        <time>2026-02-02T11:15:49Z</time>
      </trkpt>
      <trkpt lat="45.96086" lon="6.55469">
        <ele>2341.8</ele>
        <time>2026-02-02T11:15:50Z</time>
      </trkpt>
      <trkpt lat="45.96087" lon="6.55471">
        <ele>2341.8</ele>
        <time>2026-02-02T11:15:51Z</time>
      </trkpt>
      <trkpt lat="45.96087" lon="6.55472">
        <ele>2343</ele>
        <time>2026-02-02T11:15:52Z</time>
      </trkpt>
      <trkpt lat="45.96088" lon="6.55474">
        <ele>2343</ele>
        <time>2026-02-02T11:15:53Z</time>
      </trkpt>
      <trkpt lat="45.96088" lon="6.55475">
        <ele>2343</ele>
        <time>2026-02-02T11:15:54Z</time>
      </trkpt>
      <trkpt lat="45.96089" lon="6.55477">
        <ele>2344.1</ele>
        <time>2026-02-02T11:15:55Z</time>
      </trkpt>
      <trkpt lat="45.9609" lon="6.55478">
        <ele>2344.1</ele>
        <time>2026-02-02T11:15:56Z</time>
      </trkpt>
      <trkpt lat="45.9609" lon="6.55479">
        <ele>2344.1</ele>
        <time>2026-02-02T11:15:57Z</time>
      </trkpt>
      <trkpt lat="45.9609" lon="6.55481">
        <ele>2345.2</ele>
        <time>2026-02-02T11:15:58Z</time>
      </trkpt>
      <trkpt lat="45.96091" lon="6.55482">
        <ele>2345.2</ele>
        <time>2026-02-02T11:15:59Z</time>
      </trkpt>
      <trkpt lat="45.96091" lon="6.55483">
        <ele>2345.2</ele>
        <time>2026-02-02T11:16:00Z</time>
      </trkpt>
      <trkpt lat="45.96092" lon="6.55484">
        <ele>2345.2</ele>
        <time>2026-02-02T11:16:01Z</time>
      </trkpt>
      <trkpt lat="45.96093" lon="6.55485">
        <ele>2346.3</ele>
        <time>2026-02-02T11:16:02Z</time>
      </trkpt>
      <trkpt lat="45.96094" lon="6.55487">
        <ele>2346.2</ele>
        <time>2026-02-02T11:16:03Z</time>
      </trkpt>
      <trkpt lat="45.96096" lon="6.55488">
        <ele>2346.2</ele>
        <time>2026-02-02T11:16:04Z</time>
      </trkpt>
      <trkpt lat="45.96096" lon="6.55489">
        <ele>2346.2</ele>
        <time>2026-02-02T11:16:05Z</time>
      </trkpt>
      <trkpt lat="45.96097" lon="6.55489">
        <ele>2347.3</ele>
        <time>2026-02-02T11:16:06Z</time>
      </trkpt>
      <trkpt lat="45.96098" lon="6.5549">
        <ele>2347.3</ele>
        <time>2026-02-02T11:16:07Z</time>
      </trkpt>
      <trkpt lat="45.96099" lon="6.55491">
        <ele>2347.3</ele>
        <time>2026-02-02T11:16:08Z</time>
      </trkpt>
      <trkpt lat="45.961" lon="6.55492">
        <ele>2347.3</ele>
        <time>2026-02-02T11:16:09Z</time>
      </trkpt>
      <trkpt lat="45.961" lon="6.55493">
        <ele>2347.2</ele>
        <time>2026-02-02T11:16:10Z</time>
      </trkpt>
      <trkpt lat="45.96101" lon="6.55494">
        <ele>2348.2</ele>
        <time>2026-02-02T11:16:11Z</time>
      </trkpt>
      <trkpt lat="45.96102" lon="6.55494">
        <ele>2348.2</ele>
        <time>2026-02-02T11:16:12Z</time>
      </trkpt>
      <trkpt lat="45.96102" lon="6.55495">
        <ele>2348.2</ele>
        <time>2026-02-02T11:16:13Z</time>
      </trkpt>
      <trkpt lat="45.96104" lon="6.55496">
        <ele>2348.2</ele>
        <time>2026-02-02T11:16:14Z</time>
      </trkpt>
      <trkpt lat="45.96104" lon="6.55496">
        <ele>2348.2</ele>
        <time>2026-02-02T11:16:15Z</time>
      </trkpt>
      <trkpt lat="45.96105" lon="6.55497">
        <ele>2348.2</ele>
        <time>2026-02-02T11:16:16Z</time>
      </trkpt>
      <trkpt lat="45.96106" lon="6.55498">
        <ele>2349.1</ele>
        <time>2026-02-02T11:16:17Z</time>
      </trkpt>
      <trkpt lat="45.96107" lon="6.55499">
        <ele>2349.1</ele>
        <time>2026-02-02T11:16:18Z</time>
      </trkpt>
      <trkpt lat="45.96107" lon="6.55499">
        <ele>2349.1</ele>
        <time>2026-02-02T11:16:19Z</time>
      </trkpt>
      <trkpt lat="45.96107" lon="6.55499">
        <ele>2349.1</ele>
        <time>2026-02-02T11:16:20Z</time>
      </trkpt>
      <trkpt lat="45.96107" lon="6.55498">
        <ele>2349.1</ele>
        <time>2026-02-02T11:16:21Z</time>
      </trkpt>
      <trkpt lat="45.96107" lon="6.55498">
        <ele>2349.1</ele>
        <time>2026-02-02T11:16:22Z</time>
      </trkpt>
      <trkpt lat="45.96107" lon="6.55498">
        <ele>2349.1</ele>
        <time>2026-02-02T11:16:23Z</time>
      </trkpt>
      <trkpt lat="45.96107" lon="6.55498">
        <ele>2349.1</ele>
        <time>2026-02-02T11:16:24Z</time>
      </trkpt>
      <trkpt lat="45.96106" lon="6.55498">
        <ele>2349.1</ele>
        <time>2026-02-02T11:16:25Z</time>
      </trkpt>
      <trkpt lat="45.96106" lon="6.55498">
        <ele>2349.1</ele>
        <time>2026-02-02T11:16:26Z</time>
      </trkpt>
      <trkpt lat="45.96106" lon="6.55498">
        <ele>2349.1</ele>
        <time>2026-02-02T11:16:27Z</time>
      </trkpt>
      <trkpt lat="45.96106" lon="6.55497">
        <ele>2348.1</ele>
        <time>2026-02-02T11:16:28Z</time>
      </trkpt>
      <trkpt lat="45.96106" lon="6.55497">
        <ele>2348.1</ele>
        <time>2026-02-02T11:16:29Z</time>
      </trkpt>
      <trkpt lat="45.96107" lon="6.55497">
        <ele>2348.1</ele>
        <time>2026-02-02T11:16:30Z</time>
      </trkpt>
      <trkpt lat="45.96107" lon="6.55498">
        <ele>2349.1</ele>
        <time>2026-02-02T11:16:31Z</time>
      </trkpt>
      <trkpt lat="45.96108" lon="6.55499">
        <ele>2349.1</ele>
        <time>2026-02-02T11:16:32Z</time>
      </trkpt>
      <trkpt lat="45.96109" lon="6.555">
        <ele>2349</ele>
        <time>2026-02-02T11:16:33Z</time>
      </trkpt>
      <trkpt lat="45.9611" lon="6.55501">
        <ele>2349</ele>
        <time>2026-02-02T11:16:34Z</time>
      </trkpt>
      <trkpt lat="45.96111" lon="6.55503">
        <ele>2350</ele>
        <time>2026-02-02T11:16:36Z</time>
      </trkpt>
      <trkpt lat="45.96112" lon="6.55504">
        <ele>2349.9</ele>
        <time>2026-02-02T11:16:37Z</time>
      </trkpt>
      <trkpt lat="45.96113" lon="6.55505">
        <ele>2349.9</ele>
        <time>2026-02-02T11:16:38Z</time>
      </trkpt>
      <trkpt lat="45.96113" lon="6.55506">
        <ele>2350.9</ele>
        <time>2026-02-02T11:16:39Z</time>
      </trkpt>
      <trkpt lat="45.96113" lon="6.55507">
        <ele>2350.9</ele>
        <time>2026-02-02T11:16:40Z</time>
      </trkpt>
      <trkpt lat="45.96114" lon="6.55508">
        <ele>2350.9</ele>
        <time>2026-02-02T11:16:41Z</time>
      </trkpt>
      <trkpt lat="45.96115" lon="6.5551">
        <ele>2350.7</ele>
        <time>2026-02-02T11:16:42Z</time>
      </trkpt>
      <trkpt lat="45.96115" lon="6.55511">
        <ele>2351.8</ele>
        <time>2026-02-02T11:16:43Z</time>
      </trkpt>
      <trkpt lat="45.96116" lon="6.55512">
        <ele>2351.8</ele>
        <time>2026-02-02T11:16:44Z</time>
      </trkpt>
      <trkpt lat="45.96116" lon="6.55513">
        <ele>2351.8</ele>
        <time>2026-02-02T11:16:45Z</time>
      </trkpt>
      <trkpt lat="45.96117" lon="6.55513">
        <ele>2351.8</ele>
        <time>2026-02-02T11:16:46Z</time>
      </trkpt>
      <trkpt lat="45.96117" lon="6.55514">
        <ele>2351.8</ele>
        <time>2026-02-02T11:16:47Z</time>
      </trkpt>
      <trkpt lat="45.96118" lon="6.55515">
        <ele>2351.6</ele>
        <time>2026-02-02T11:16:48Z</time>
      </trkpt>
      <trkpt lat="45.96118" lon="6.55516">
        <ele>2352.7</ele>
        <time>2026-02-02T11:16:49Z</time>
      </trkpt>
      <trkpt lat="45.96119" lon="6.55517">
        <ele>2352.7</ele>
        <time>2026-02-02T11:16:50Z</time>
      </trkpt>
      <trkpt lat="45.9612" lon="6.55518">
        <ele>2352.7</ele>
        <time>2026-02-02T11:16:51Z</time>
      </trkpt>
      <trkpt lat="45.96121" lon="6.55518">
        <ele>2352.5</ele>
        <time>2026-02-02T11:16:52Z</time>
      </trkpt>
      <trkpt lat="45.96121" lon="6.55519">
        <ele>2353.6</ele>
        <time>2026-02-02T11:16:53Z</time>
      </trkpt>
      <trkpt lat="45.96123" lon="6.5552">
        <ele>2353.6</ele>
        <time>2026-02-02T11:16:54Z</time>
      </trkpt>
      <trkpt lat="45.96124" lon="6.55521">
        <ele>2353.4</ele>
        <time>2026-02-02T11:16:55Z</time>
      </trkpt>
      <trkpt lat="45.96125" lon="6.55522">
        <ele>2353.4</ele>
        <time>2026-02-02T11:16:57Z</time>
      </trkpt>
      <trkpt lat="45.96126" lon="6.55522">
        <ele>2353.4</ele>
        <time>2026-02-02T11:16:58Z</time>
      </trkpt>
      <trkpt lat="45.96126" lon="6.55523">
        <ele>2353.4</ele>
        <time>2026-02-02T11:16:59Z</time>
      </trkpt>
      <trkpt lat="45.96127" lon="6.55524">
        <ele>2354.3</ele>
        <time>2026-02-02T11:17:00Z</time>
      </trkpt>
      <trkpt lat="45.96127" lon="6.55525">
        <ele>2354.3</ele>
        <time>2026-02-02T11:17:01Z</time>
      </trkpt>
      <trkpt lat="45.96127" lon="6.55525">
        <ele>2354.3</ele>
        <time>2026-02-02T11:17:02Z</time>
      </trkpt>
      <trkpt lat="45.96128" lon="6.55526">
        <ele>2354.3</ele>
        <time>2026-02-02T11:17:03Z</time>
      </trkpt>
      <trkpt lat="45.96128" lon="6.55527">
        <ele>2354.3</ele>
        <time>2026-02-02T11:17:04Z</time>
      </trkpt>
      <trkpt lat="45.96128" lon="6.55528">
        <ele>2355.4</ele>
        <time>2026-02-02T11:17:05Z</time>
      </trkpt>
      <trkpt lat="45.96129" lon="6.55529">
        <ele>2355.4</ele>
        <time>2026-02-02T11:17:06Z</time>
      </trkpt>
      <trkpt lat="45.96129" lon="6.55531">
        <ele>2355.4</ele>
        <time>2026-02-02T11:17:07Z</time>
      </trkpt>
      <trkpt lat="45.96129" lon="6.55532">
        <ele>2355.4</ele>
        <time>2026-02-02T11:17:08Z</time>
      </trkpt>
      <trkpt lat="45.96129" lon="6.55533">
        <ele>2356.3</ele>
        <time>2026-02-02T11:17:09Z</time>
      </trkpt>
      <trkpt lat="45.9613" lon="6.55533">
        <ele>2356.3</ele>
        <time>2026-02-02T11:17:10Z</time>
      </trkpt>
      <trkpt lat="45.96129" lon="6.55533">
        <ele>2356.4</ele>
        <time>2026-02-02T11:17:11Z</time>
      </trkpt>
      <trkpt lat="45.96129" lon="6.55533">
        <ele>2356.4</ele>
        <time>2026-02-02T11:17:12Z</time>
      </trkpt>
      <trkpt lat="45.96129" lon="6.55533">
        <ele>2356.4</ele>
        <time>2026-02-02T11:17:13Z</time>
      </trkpt>
      <trkpt lat="45.96129" lon="6.55532">
        <ele>2356.4</ele>
        <time>2026-02-02T11:17:14Z</time>
      </trkpt>
      <trkpt lat="45.96129" lon="6.55532">
        <ele>2356.4</ele>
        <time>2026-02-02T11:17:15Z</time>
      </trkpt>
      <trkpt lat="45.96129" lon="6.55532">
        <ele>2356.4</ele>
        <time>2026-02-02T11:17:16Z</time>
      </trkpt>
      <trkpt lat="45.96129" lon="6.55532">
        <ele>2356.4</ele>
        <time>2026-02-02T11:17:17Z</time>
      </trkpt>
      <trkpt lat="45.96129" lon="6.55532">
        <ele>2356.4</ele>
        <time>2026-02-02T11:17:18Z</time>
      </trkpt>
      <trkpt lat="45.96129" lon="6.55532">
        <ele>2356.4</ele>
        <time>2026-02-02T11:17:19Z</time>
      </trkpt>
      <trkpt lat="45.96129" lon="6.55532">
        <ele>2356.4</ele>
        <time>2026-02-02T11:17:20Z</time>
      </trkpt>
      <trkpt lat="45.96129" lon="6.55532">
        <ele>2356.4</ele>
        <time>2026-02-02T11:17:21Z</time>
      </trkpt>
      <trkpt lat="45.96129" lon="6.55532">
        <ele>2356.4</ele>
        <time>2026-02-02T11:17:22Z</time>
      </trkpt>
      <trkpt lat="45.96129" lon="6.55532">
        <ele>2356.4</ele>
        <time>2026-02-02T11:17:23Z</time>
      </trkpt>
      <trkpt lat="45.96129" lon="6.55532">
        <ele>2356.4</ele>
        <time>2026-02-02T11:17:24Z</time>
      </trkpt>
      <trkpt lat="45.96129" lon="6.55532">
        <ele>2356.4</ele>
        <time>2026-02-02T11:17:25Z</time>
      </trkpt>
      <trkpt lat="45.96129" lon="6.55532">
        <ele>2356.4</ele>
        <time>2026-02-02T11:17:26Z</time>
      </trkpt>
      <trkpt lat="45.96129" lon="6.55533">
        <ele>2356.4</ele>
        <time>2026-02-02T11:17:27Z</time>
      </trkpt>
      <trkpt lat="45.96129" lon="6.55533">
        <ele>2356.4</ele>
        <time>2026-02-02T11:17:28Z</time>
      </trkpt>
      <trkpt lat="45.96129" lon="6.55534">
        <ele>2356.4</ele>
        <time>2026-02-02T11:17:29Z</time>
      </trkpt>
      <trkpt lat="45.96129" lon="6.55536">
        <ele>2356.3</ele>
        <time>2026-02-02T11:17:30Z</time>
      </trkpt>
      <trkpt lat="45.9613" lon="6.55537">
        <ele>2357.3</ele>
        <time>2026-02-02T11:17:31Z</time>
      </trkpt>
      <trkpt lat="45.9613" lon="6.55539">
        <ele>2357.3</ele>
        <time>2026-02-02T11:17:32Z</time>
      </trkpt>
      <trkpt lat="45.96131" lon="6.5554">
        <ele>2357.3</ele>
        <time>2026-02-02T11:17:33Z</time>
      </trkpt>
      <trkpt lat="45.96131" lon="6.55542">
        <ele>2358.3</ele>
        <time>2026-02-02T11:17:34Z</time>
      </trkpt>
      <trkpt lat="45.96132" lon="6.55542">
        <ele>2358.3</ele>
        <time>2026-02-02T11:17:35Z</time>
      </trkpt>
      <trkpt lat="45.96133" lon="6.55543">
        <ele>2358.1</ele>
        <time>2026-02-02T11:17:36Z</time>
      </trkpt>
      <trkpt lat="45.96133" lon="6.55545">
        <ele>2358.1</ele>
        <time>2026-02-02T11:17:37Z</time>
      </trkpt>
      <trkpt lat="45.96134" lon="6.55546">
        <ele>2359.2</ele>
        <time>2026-02-02T11:17:38Z</time>
      </trkpt>
      <trkpt lat="45.96134" lon="6.55547">
        <ele>2359.2</ele>
        <time>2026-02-02T11:17:39Z</time>
      </trkpt>
      <trkpt lat="45.96135" lon="6.55548">
        <ele>2359.2</ele>
        <time>2026-02-02T11:17:40Z</time>
      </trkpt>
      <trkpt lat="45.96135" lon="6.5555">
        <ele>2360.3</ele>
        <time>2026-02-02T11:17:41Z</time>
      </trkpt>
      <trkpt lat="45.96135" lon="6.55551">
        <ele>2360.3</ele>
        <time>2026-02-02T11:17:42Z</time>
      </trkpt>
      <trkpt lat="45.96135" lon="6.55552">
        <ele>2360.3</ele>
        <time>2026-02-02T11:17:43Z</time>
      </trkpt>
      <trkpt lat="45.96135" lon="6.55553">
        <ele>2360</ele>
        <time>2026-02-02T11:17:44Z</time>
      </trkpt>
      <trkpt lat="45.96136" lon="6.55554">
        <ele>2361.2</ele>
        <time>2026-02-02T11:17:45Z</time>
      </trkpt>
      <trkpt lat="45.96136" lon="6.55554">
        <ele>2361.2</ele>
        <time>2026-02-02T11:17:46Z</time>
      </trkpt>
      <trkpt lat="45.96136" lon="6.55554">
        <ele>2361.2</ele>
        <time>2026-02-02T11:17:47Z</time>
      </trkpt>
      <trkpt lat="45.96136" lon="6.55553">
        <ele>2360</ele>
        <time>2026-02-02T11:17:48Z</time>
      </trkpt>
      <trkpt lat="45.96136" lon="6.55553">
        <ele>2360</ele>
        <time>2026-02-02T11:17:49Z</time>
      </trkpt>
      <trkpt lat="45.96136" lon="6.55552">
        <ele>2360</ele>
        <time>2026-02-02T11:17:50Z</time>
      </trkpt>
      <trkpt lat="45.96136" lon="6.55552">
        <ele>2360</ele>
        <time>2026-02-02T11:17:51Z</time>
      </trkpt>
      <trkpt lat="45.96136" lon="6.55552">
        <ele>2360</ele>
        <time>2026-02-02T11:17:52Z</time>
      </trkpt>
      <trkpt lat="45.96136" lon="6.55552">
        <ele>2360</ele>
        <time>2026-02-02T11:17:53Z</time>
      </trkpt>
      <trkpt lat="45.96136" lon="6.55552">
        <ele>2360</ele>
        <time>2026-02-02T11:17:54Z</time>
      </trkpt>
      <trkpt lat="45.96136" lon="6.55551">
        <ele>2360</ele>
        <time>2026-02-02T11:17:55Z</time>
      </trkpt>
      <trkpt lat="45.96136" lon="6.55551">
        <ele>2360</ele>
        <time>2026-02-02T11:17:56Z</time>
      </trkpt>
      <trkpt lat="45.96136" lon="6.55551">
        <ele>2360</ele>
        <time>2026-02-02T11:17:57Z</time>
      </trkpt>
      <trkpt lat="45.96136" lon="6.55551">
        <ele>2360</ele>
        <time>2026-02-02T11:17:58Z</time>
      </trkpt>
      <trkpt lat="45.96136" lon="6.55551">
        <ele>2360</ele>
        <time>2026-02-02T11:17:59Z</time>
      </trkpt>
      <trkpt lat="45.96136" lon="6.55551">
        <ele>2360</ele>
        <time>2026-02-02T11:18:00Z</time>
      </trkpt>
      <trkpt lat="45.96136" lon="6.55551">
        <ele>2360</ele>
        <time>2026-02-02T11:18:01Z</time>
      </trkpt>
      <trkpt lat="45.96136" lon="6.55551">
        <ele>2360</ele>
        <time>2026-02-02T11:18:02Z</time>
      </trkpt>
      <trkpt lat="45.96136" lon="6.55551">
        <ele>2360</ele>
        <time>2026-02-02T11:18:03Z</time>
      </trkpt>
      <trkpt lat="45.96136" lon="6.55552">
        <ele>2360</ele>
        <time>2026-02-02T11:18:04Z</time>
      </trkpt>
      <trkpt lat="45.96136" lon="6.55554">
        <ele>2361.2</ele>
        <time>2026-02-02T11:18:05Z</time>
      </trkpt>
      <trkpt lat="45.96137" lon="6.55557">
        <ele>2361.2</ele>
        <time>2026-02-02T11:18:06Z</time>
      </trkpt>
      <trkpt lat="45.96137" lon="6.55559">
        <ele>2362.3</ele>
        <time>2026-02-02T11:18:07Z</time>
      </trkpt>
      <trkpt lat="45.96138" lon="6.5556">
        <ele>2362.3</ele>
        <time>2026-02-02T11:18:08Z</time>
      </trkpt>
      <trkpt lat="45.96138" lon="6.55562">
        <ele>2362.3</ele>
        <time>2026-02-02T11:18:09Z</time>
      </trkpt>
      <trkpt lat="45.96138" lon="6.55564">
        <ele>2363.5</ele>
        <time>2026-02-02T11:18:10Z</time>
      </trkpt>
      <trkpt lat="45.96138" lon="6.55565">
        <ele>2363.5</ele>
        <time>2026-02-02T11:18:11Z</time>
      </trkpt>
      <trkpt lat="45.96138" lon="6.55566">
        <ele>2364.7</ele>
        <time>2026-02-02T11:18:12Z</time>
      </trkpt>
      <trkpt lat="45.96138" lon="6.55568">
        <ele>2364.7</ele>
        <time>2026-02-02T11:18:13Z</time>
      </trkpt>
      <trkpt lat="45.96138" lon="6.55569">
        <ele>2364.3</ele>
        <time>2026-02-02T11:18:14Z</time>
      </trkpt>
      <trkpt lat="45.96139" lon="6.55571">
        <ele>2365.4</ele>
        <time>2026-02-02T11:18:15Z</time>
      </trkpt>
      <trkpt lat="45.96139" lon="6.55572">
        <ele>2365.4</ele>
        <time>2026-02-02T11:18:16Z</time>
      </trkpt>
      <trkpt lat="45.96139" lon="6.55573">
        <ele>2365.4</ele>
        <time>2026-02-02T11:18:17Z</time>
      </trkpt>
      <trkpt lat="45.96138" lon="6.55577">
        <ele>2366.8</ele>
        <time>2026-02-02T11:18:19Z</time>
      </trkpt>
      <trkpt lat="45.96138" lon="6.55578">
        <ele>2366.8</ele>
        <time>2026-02-02T11:18:20Z</time>
      </trkpt>
      <trkpt lat="45.96138" lon="6.5558">
        <ele>2367.8</ele>
        <time>2026-02-02T11:18:21Z</time>
      </trkpt>
      <trkpt lat="45.96137" lon="6.55582">
        <ele>2367.8</ele>
        <time>2026-02-02T11:18:22Z</time>
      </trkpt>
      <trkpt lat="45.96137" lon="6.55584">
        <ele>2368.8</ele>
        <time>2026-02-02T11:18:23Z</time>
      </trkpt>
      <trkpt lat="45.96137" lon="6.55586">
        <ele>2368.8</ele>
        <time>2026-02-02T11:18:24Z</time>
      </trkpt>
      <trkpt lat="45.96137" lon="6.55587">
        <ele>2368.8</ele>
        <time>2026-02-02T11:18:25Z</time>
      </trkpt>
      <trkpt lat="45.96136" lon="6.55588">
        <ele>2369.8</ele>
        <time>2026-02-02T11:18:26Z</time>
      </trkpt>
      <trkpt lat="45.96136" lon="6.5559">
        <ele>2369.8</ele>
        <time>2026-02-02T11:18:27Z</time>
      </trkpt>
      <trkpt lat="45.96136" lon="6.55591">
        <ele>2369.8</ele>
        <time>2026-02-02T11:18:28Z</time>
      </trkpt>
      <trkpt lat="45.96136" lon="6.55593">
        <ele>2370.7</ele>
        <time>2026-02-02T11:18:29Z</time>
      </trkpt>
      <trkpt lat="45.96136" lon="6.55594">
        <ele>2370.7</ele>
        <time>2026-02-02T11:18:30Z</time>
      </trkpt>
      <trkpt lat="45.96137" lon="6.55596">
        <ele>2370.7</ele>
        <time>2026-02-02T11:18:31Z</time>
      </trkpt>
      <trkpt lat="45.96137" lon="6.55597">
        <ele>2371.8</ele>
        <time>2026-02-02T11:18:32Z</time>
      </trkpt>
      <trkpt lat="45.96137" lon="6.55598">
        <ele>2371.8</ele>
        <time>2026-02-02T11:18:33Z</time>
      </trkpt>
      <trkpt lat="45.96137" lon="6.55599">
        <ele>2371.8</ele>
        <time>2026-02-02T11:18:34Z</time>
      </trkpt>
      <trkpt lat="45.96137" lon="6.556">
        <ele>2371.8</ele>
        <time>2026-02-02T11:18:35Z</time>
      </trkpt>
      <trkpt lat="45.96137" lon="6.55601">
        <ele>2372.8</ele>
        <time>2026-02-02T11:18:36Z</time>
      </trkpt>
      <trkpt lat="45.96136" lon="6.55602">
        <ele>2372.8</ele>
        <time>2026-02-02T11:18:37Z</time>
      </trkpt>
      <trkpt lat="45.96136" lon="6.55603">
        <ele>2372.8</ele>
        <time>2026-02-02T11:18:38Z</time>
      </trkpt>
      <trkpt lat="45.96136" lon="6.55603">
        <ele>2372.8</ele>
        <time>2026-02-02T11:18:39Z</time>
      </trkpt>
      <trkpt lat="45.96136" lon="6.55603">
        <ele>2372.8</ele>
        <time>2026-02-02T11:18:40Z</time>
      </trkpt>
      <trkpt lat="45.96136" lon="6.55603">
        <ele>2372.8</ele>
        <time>2026-02-02T11:18:41Z</time>
      </trkpt>
      <trkpt lat="45.96136" lon="6.55603">
        <ele>2372.8</ele>
        <time>2026-02-02T11:18:42Z</time>
      </trkpt>
      <trkpt lat="45.96136" lon="6.55603">
        <ele>2372.8</ele>
        <time>2026-02-02T11:18:43Z</time>
      </trkpt>
      <trkpt lat="45.96136" lon="6.55603">
        <ele>2372.8</ele>
        <time>2026-02-02T11:18:44Z</time>
      </trkpt>
      <trkpt lat="45.96136" lon="6.55603">
        <ele>2372.8</ele>
        <time>2026-02-02T11:18:45Z</time>
      </trkpt>
      <trkpt lat="45.96136" lon="6.55603">
        <ele>2372.8</ele>
        <time>2026-02-02T11:18:46Z</time>
      </trkpt>
      <trkpt lat="45.96136" lon="6.55603">
        <ele>2372.8</ele>
        <time>2026-02-02T11:18:47Z</time>
      </trkpt>
      <trkpt lat="45.96136" lon="6.55603">
        <ele>2372.8</ele>
        <time>2026-02-02T11:18:48Z</time>
      </trkpt>
      <trkpt lat="45.96136" lon="6.55603">
        <ele>2372.8</ele>
        <time>2026-02-02T11:18:49Z</time>
      </trkpt>
      <trkpt lat="45.96136" lon="6.55603">
        <ele>2372.8</ele>
        <time>2026-02-02T11:18:50Z</time>
      </trkpt>
      <trkpt lat="45.96136" lon="6.55603">
        <ele>2372.8</ele>
        <time>2026-02-02T11:18:51Z</time>
      </trkpt>
      <trkpt lat="45.96136" lon="6.55603">
        <ele>2372.8</ele>
        <time>2026-02-02T11:18:52Z</time>
      </trkpt>
      <trkpt lat="45.96136" lon="6.55603">
        <ele>2372.8</ele>
        <time>2026-02-02T11:18:53Z</time>
      </trkpt>
      <trkpt lat="45.96136" lon="6.55603">
        <ele>2372.8</ele>
        <time>2026-02-02T11:18:54Z</time>
      </trkpt>
      <trkpt lat="45.96136" lon="6.55604">
        <ele>2372.8</ele>
        <time>2026-02-02T11:18:55Z</time>
      </trkpt>
      <trkpt lat="45.96136" lon="6.55605">
        <ele>2373.9</ele>
        <time>2026-02-02T11:18:56Z</time>
      </trkpt>
      <trkpt lat="45.96135" lon="6.55607">
        <ele>2374.3</ele>
        <time>2026-02-02T11:18:57Z</time>
      </trkpt>
      <trkpt lat="45.96135" lon="6.55609">
        <ele>2374.3</ele>
        <time>2026-02-02T11:18:58Z</time>
      </trkpt>
      <trkpt lat="45.96135" lon="6.5561">
        <ele>2375.4</ele>
        <time>2026-02-02T11:18:59Z</time>
      </trkpt>
      <trkpt lat="45.96135" lon="6.55611">
        <ele>2375.4</ele>
        <time>2026-02-02T11:19:00Z</time>
      </trkpt>
      <trkpt lat="45.96134" lon="6.55613">
        <ele>2375.4</ele>
        <time>2026-02-02T11:19:01Z</time>
      </trkpt>
      <trkpt lat="45.96134" lon="6.55616">
        <ele>2376.5</ele>
        <time>2026-02-02T11:19:03Z</time>
      </trkpt>
      <trkpt lat="45.96133" lon="6.55617">
        <ele>2376.5</ele>
        <time>2026-02-02T11:19:04Z</time>
      </trkpt>
      <trkpt lat="45.96133" lon="6.55618">
        <ele>2377.6</ele>
        <time>2026-02-02T11:19:05Z</time>
      </trkpt>
      <trkpt lat="45.96133" lon="6.55619">
        <ele>2377.6</ele>
        <time>2026-02-02T11:19:06Z</time>
      </trkpt>
      <trkpt lat="45.96133" lon="6.5562">
        <ele>2377.6</ele>
        <time>2026-02-02T11:19:07Z</time>
      </trkpt>
      <trkpt lat="45.96133" lon="6.55621">
        <ele>2377.6</ele>
        <time>2026-02-02T11:19:08Z</time>
      </trkpt>
      <trkpt lat="45.96133" lon="6.55622">
        <ele>2378.6</ele>
        <time>2026-02-02T11:19:09Z</time>
      </trkpt>
      <trkpt lat="45.96132" lon="6.55624">
        <ele>2378.6</ele>
        <time>2026-02-02T11:19:10Z</time>
      </trkpt>
      <trkpt lat="45.96132" lon="6.55625">
        <ele>2378.6</ele>
        <time>2026-02-02T11:19:11Z</time>
      </trkpt>
      <trkpt lat="45.96132" lon="6.55626">
        <ele>2379</ele>
        <time>2026-02-02T11:19:12Z</time>
      </trkpt>
      <trkpt lat="45.96132" lon="6.55628">
        <ele>2379.9</ele>
        <time>2026-02-02T11:19:13Z</time>
      </trkpt>
      <trkpt lat="45.96132" lon="6.55629">
        <ele>2379.9</ele>
        <time>2026-02-02T11:19:14Z</time>
      </trkpt>
      <trkpt lat="45.96132" lon="6.5563">
        <ele>2379.9</ele>
        <time>2026-02-02T11:19:15Z</time>
      </trkpt>
      <trkpt lat="45.96132" lon="6.55632">
        <ele>2381</ele>
        <time>2026-02-02T11:19:16Z</time>
      </trkpt>
      <trkpt lat="45.96131" lon="6.55634">
        <ele>2381</ele>
        <time>2026-02-02T11:19:17Z</time>
      </trkpt>
      <trkpt lat="45.96131" lon="6.55635">
        <ele>2381</ele>
        <time>2026-02-02T11:19:18Z</time>
      </trkpt>
      <trkpt lat="45.96131" lon="6.55635">
        <ele>2382</ele>
        <time>2026-02-02T11:19:19Z</time>
      </trkpt>
      <trkpt lat="45.96131" lon="6.55637">
        <ele>2382</ele>
        <time>2026-02-02T11:19:20Z</time>
      </trkpt>
      <trkpt lat="45.9613" lon="6.55638">
        <ele>2382</ele>
        <time>2026-02-02T11:19:21Z</time>
      </trkpt>
      <trkpt lat="45.9613" lon="6.55641">
        <ele>2383.2</ele>
        <time>2026-02-02T11:19:23Z</time>
      </trkpt>
      <trkpt lat="45.9613" lon="6.55643">
        <ele>2383.2</ele>
        <time>2026-02-02T11:19:24Z</time>
      </trkpt>
      <trkpt lat="45.9613" lon="6.55645">
        <ele>2384.3</ele>
        <time>2026-02-02T11:19:25Z</time>
      </trkpt>
      <trkpt lat="45.9613" lon="6.55647">
        <ele>2384.3</ele>
        <time>2026-02-02T11:19:26Z</time>
      </trkpt>
      <trkpt lat="45.96131" lon="6.55649">
        <ele>2385.6</ele>
        <time>2026-02-02T11:19:27Z</time>
      </trkpt>
      <trkpt lat="45.96131" lon="6.55651">
        <ele>2385.6</ele>
        <time>2026-02-02T11:19:28Z</time>
      </trkpt>
      <trkpt lat="45.96131" lon="6.55652">
        <ele>2386.8</ele>
        <time>2026-02-02T11:19:29Z</time>
      </trkpt>
      <trkpt lat="45.96131" lon="6.55655">
        <ele>2386.8</ele>
        <time>2026-02-02T11:19:30Z</time>
      </trkpt>
      <trkpt lat="45.9613" lon="6.55656">
        <ele>2386.8</ele>
        <time>2026-02-02T11:19:31Z</time>
      </trkpt>
      <trkpt lat="45.9613" lon="6.55657">
        <ele>2388.1</ele>
        <time>2026-02-02T11:19:32Z</time>
      </trkpt>
      <trkpt lat="45.9613" lon="6.55658">
        <ele>2388.1</ele>
        <time>2026-02-02T11:19:33Z</time>
      </trkpt>
      <trkpt lat="45.9613" lon="6.5566">
        <ele>2388.1</ele>
        <time>2026-02-02T11:19:35Z</time>
      </trkpt>
      <trkpt lat="45.9613" lon="6.55661">
        <ele>2388.1</ele>
        <time>2026-02-02T11:19:36Z</time>
      </trkpt>
      <trkpt lat="45.9613" lon="6.55662">
        <ele>2389.3</ele>
        <time>2026-02-02T11:19:37Z</time>
      </trkpt>
      <trkpt lat="45.96129" lon="6.55662">
        <ele>2389.3</ele>
        <time>2026-02-02T11:19:38Z</time>
      </trkpt>
      <trkpt lat="45.96129" lon="6.55663">
        <ele>2389.7</ele>
        <time>2026-02-02T11:19:39Z</time>
      </trkpt>
      <trkpt lat="45.96129" lon="6.55665">
        <ele>2389.7</ele>
        <time>2026-02-02T11:19:40Z</time>
      </trkpt>
      <trkpt lat="45.96129" lon="6.55666">
        <ele>2390.9</ele>
        <time>2026-02-02T11:19:41Z</time>
      </trkpt>
      <trkpt lat="45.96129" lon="6.55667">
        <ele>2390.9</ele>
        <time>2026-02-02T11:19:42Z</time>
      </trkpt>
      <trkpt lat="45.96129" lon="6.55668">
        <ele>2390.9</ele>
        <time>2026-02-02T11:19:43Z</time>
      </trkpt>
      <trkpt lat="45.96129" lon="6.55668">
        <ele>2390.9</ele>
        <time>2026-02-02T11:19:44Z</time>
      </trkpt>
      <trkpt lat="45.96129" lon="6.55669">
        <ele>2390.9</ele>
        <time>2026-02-02T11:19:45Z</time>
      </trkpt>
      <trkpt lat="45.96129" lon="6.5567">
        <ele>2392.1</ele>
        <time>2026-02-02T11:19:46Z</time>
      </trkpt>
      <trkpt lat="45.96129" lon="6.55671">
        <ele>2392.1</ele>
        <time>2026-02-02T11:19:47Z</time>
      </trkpt>
      <trkpt lat="45.96129" lon="6.55672">
        <ele>2392.1</ele>
        <time>2026-02-02T11:19:48Z</time>
      </trkpt>
      <trkpt lat="45.96129" lon="6.55673">
        <ele>2392.1</ele>
        <time>2026-02-02T11:19:49Z</time>
      </trkpt>
      <trkpt lat="45.96129" lon="6.55675">
        <ele>2393.3</ele>
        <time>2026-02-02T11:19:50Z</time>
      </trkpt>
      <trkpt lat="45.96128" lon="6.55676">
        <ele>2393.3</ele>
        <time>2026-02-02T11:19:51Z</time>
      </trkpt>
      <trkpt lat="45.96128" lon="6.55677">
        <ele>2393.3</ele>
        <time>2026-02-02T11:19:52Z</time>
      </trkpt>
      <trkpt lat="45.96128" lon="6.55678">
        <ele>2394.4</ele>
        <time>2026-02-02T11:19:53Z</time>
      </trkpt>
      <trkpt lat="45.96128" lon="6.55678">
        <ele>2394.4</ele>
        <time>2026-02-02T11:19:54Z</time>
      </trkpt>
      <trkpt lat="45.96128" lon="6.55678">
        <ele>2394.4</ele>
        <time>2026-02-02T11:19:55Z</time>
      </trkpt>
      <trkpt lat="45.96128" lon="6.55678">
        <ele>2394.4</ele>
        <time>2026-02-02T11:19:56Z</time>
      </trkpt>
      <trkpt lat="45.96128" lon="6.55678">
        <ele>2394.4</ele>
        <time>2026-02-02T11:19:57Z</time>
      </trkpt>
      <trkpt lat="45.96128" lon="6.55678">
        <ele>2394.4</ele>
        <time>2026-02-02T11:19:58Z</time>
      </trkpt>
      <trkpt lat="45.96128" lon="6.55678">
        <ele>2394.4</ele>
        <time>2026-02-02T11:19:59Z</time>
      </trkpt>
      <trkpt lat="45.96127" lon="6.55678">
        <ele>2394.4</ele>
        <time>2026-02-02T11:20:00Z</time>
      </trkpt>
      <trkpt lat="45.96127" lon="6.55678">
        <ele>2394.4</ele>
        <time>2026-02-02T11:20:01Z</time>
      </trkpt>
      <trkpt lat="45.96127" lon="6.55678">
        <ele>2394.4</ele>
        <time>2026-02-02T11:20:02Z</time>
      </trkpt>
      <trkpt lat="45.96127" lon="6.55678">
        <ele>2394.4</ele>
        <time>2026-02-02T11:20:03Z</time>
      </trkpt>
      <trkpt lat="45.96127" lon="6.55678">
        <ele>2394.4</ele>
        <time>2026-02-02T11:20:05Z</time>
      </trkpt>
      <trkpt lat="45.96127" lon="6.55678">
        <ele>2394.4</ele>
        <time>2026-02-02T11:20:06Z</time>
      </trkpt>
      <trkpt lat="45.96127" lon="6.55678">
        <ele>2394.4</ele>
        <time>2026-02-02T11:20:07Z</time>
      </trkpt>
      <trkpt lat="45.96127" lon="6.55678">
        <ele>2394.4</ele>
        <time>2026-02-02T11:20:08Z</time>
      </trkpt>
      <trkpt lat="45.96127" lon="6.55679">
        <ele>2394.4</ele>
        <time>2026-02-02T11:20:09Z</time>
      </trkpt>
      <trkpt lat="45.96127" lon="6.5568">
        <ele>2394.4</ele>
        <time>2026-02-02T11:20:10Z</time>
      </trkpt>
      <trkpt lat="45.96126" lon="6.5568">
        <ele>2394.8</ele>
        <time>2026-02-02T11:20:11Z</time>
      </trkpt>
      <trkpt lat="45.96126" lon="6.55682">
        <ele>2394.8</ele>
        <time>2026-02-02T11:20:12Z</time>
      </trkpt>
      <trkpt lat="45.96126" lon="6.55683">
        <ele>2396</ele>
        <time>2026-02-02T11:20:13Z</time>
      </trkpt>
      <trkpt lat="45.96126" lon="6.55685">
        <ele>2396</ele>
        <time>2026-02-02T11:20:14Z</time>
      </trkpt>
      <trkpt lat="45.96126" lon="6.55687">
        <ele>2397.1</ele>
        <time>2026-02-02T11:20:15Z</time>
      </trkpt>
      <trkpt lat="45.96127" lon="6.55689">
        <ele>2396.7</ele>
        <time>2026-02-02T11:20:16Z</time>
      </trkpt>
      <trkpt lat="45.96127" lon="6.5569">
        <ele>2396.7</ele>
        <time>2026-02-02T11:20:17Z</time>
      </trkpt>
      <trkpt lat="45.96127" lon="6.55692">
        <ele>2397.9</ele>
        <time>2026-02-02T11:20:18Z</time>
      </trkpt>
      <trkpt lat="45.96127" lon="6.55694">
        <ele>2397.9</ele>
        <time>2026-02-02T11:20:19Z</time>
      </trkpt>
      <trkpt lat="45.96127" lon="6.55695">
        <ele>2397.9</ele>
        <time>2026-02-02T11:20:20Z</time>
      </trkpt>
      <trkpt lat="45.96127" lon="6.55696">
        <ele>2399.2</ele>
        <time>2026-02-02T11:20:21Z</time>
      </trkpt>
      <trkpt lat="45.96127" lon="6.55697">
        <ele>2399.2</ele>
        <time>2026-02-02T11:20:22Z</time>
      </trkpt>
      <trkpt lat="45.96127" lon="6.55698">
        <ele>2399.2</ele>
        <time>2026-02-02T11:20:23Z</time>
      </trkpt>
      <trkpt lat="45.96127" lon="6.55698">
        <ele>2399.2</ele>
        <time>2026-02-02T11:20:24Z</time>
      </trkpt>
      <trkpt lat="45.96127" lon="6.55699">
        <ele>2400.4</ele>
        <time>2026-02-02T11:20:25Z</time>
      </trkpt>
      <trkpt lat="45.96128" lon="6.55701">
        <ele>2400.4</ele>
        <time>2026-02-02T11:20:26Z</time>
      </trkpt>
      <trkpt lat="45.96128" lon="6.55702">
        <ele>2400.4</ele>
        <time>2026-02-02T11:20:27Z</time>
      </trkpt>
      <trkpt lat="45.96128" lon="6.55703">
        <ele>2400.4</ele>
        <time>2026-02-02T11:20:28Z</time>
      </trkpt>
      <trkpt lat="45.96128" lon="6.55704">
        <ele>2401.5</ele>
        <time>2026-02-02T11:20:29Z</time>
      </trkpt>
      <trkpt lat="45.96128" lon="6.55706">
        <ele>2401.5</ele>
        <time>2026-02-02T11:20:30Z</time>
      </trkpt>
      <trkpt lat="45.96128" lon="6.55706">
        <ele>2401.5</ele>
        <time>2026-02-02T11:20:31Z</time>
      </trkpt>
      <trkpt lat="45.96128" lon="6.55706">
        <ele>2401.5</ele>
        <time>2026-02-02T11:20:32Z</time>
      </trkpt>
      <trkpt lat="45.96128" lon="6.55705">
        <ele>2401.5</ele>
        <time>2026-02-02T11:20:33Z</time>
      </trkpt>
      <trkpt lat="45.96128" lon="6.55705">
        <ele>2401.5</ele>
        <time>2026-02-02T11:20:34Z</time>
      </trkpt>
      <trkpt lat="45.96128" lon="6.55706">
        <ele>2401.5</ele>
        <time>2026-02-02T11:20:35Z</time>
      </trkpt>
      <trkpt lat="45.96128" lon="6.55706">
        <ele>2401.5</ele>
        <time>2026-02-02T11:20:36Z</time>
      </trkpt>
      <trkpt lat="45.96128" lon="6.55706">
        <ele>2401.5</ele>
        <time>2026-02-02T11:20:37Z</time>
      </trkpt>
      <trkpt lat="45.96128" lon="6.55706">
        <ele>2401.5</ele>
        <time>2026-02-02T11:20:38Z</time>
      </trkpt>
      <trkpt lat="45.96128" lon="6.55706">
        <ele>2401.5</ele>
        <time>2026-02-02T11:20:39Z</time>
      </trkpt>
      <trkpt lat="45.96128" lon="6.55706">
        <ele>2401.5</ele>
        <time>2026-02-02T11:20:40Z</time>
      </trkpt>
      <trkpt lat="45.96128" lon="6.55706">
        <ele>2401.5</ele>
        <time>2026-02-02T11:20:41Z</time>
      </trkpt>
      <trkpt lat="45.96128" lon="6.55706">
        <ele>2401.5</ele>
        <time>2026-02-02T11:20:42Z</time>
      </trkpt>
      <trkpt lat="45.96128" lon="6.55706">
        <ele>2401.5</ele>
        <time>2026-02-02T11:20:43Z</time>
      </trkpt>
      <trkpt lat="45.96128" lon="6.55706">
        <ele>2401.5</ele>
        <time>2026-02-02T11:20:44Z</time>
      </trkpt>
      <trkpt lat="45.96128" lon="6.55706">
        <ele>2401.5</ele>
        <time>2026-02-02T11:20:45Z</time>
      </trkpt>
      <trkpt lat="45.96127" lon="6.55707">
        <ele>2401.5</ele>
        <time>2026-02-02T11:20:46Z</time>
      </trkpt>
      <trkpt lat="45.96127" lon="6.55708">
        <ele>2402.7</ele>
        <time>2026-02-02T11:20:47Z</time>
      </trkpt>
      <trkpt lat="45.96127" lon="6.5571">
        <ele>2402.7</ele>
        <time>2026-02-02T11:20:48Z</time>
      </trkpt>
      <trkpt lat="45.96127" lon="6.55712">
        <ele>2402.7</ele>
        <time>2026-02-02T11:20:49Z</time>
      </trkpt>
      <trkpt lat="45.96127" lon="6.55714">
        <ele>2403.8</ele>
        <time>2026-02-02T11:20:50Z</time>
      </trkpt>
      <trkpt lat="45.96126" lon="6.55717">
        <ele>2405.2</ele>
        <time>2026-02-02T11:20:51Z</time>
      </trkpt>
      <trkpt lat="45.96125" lon="6.55718">
        <ele>2405.2</ele>
        <time>2026-02-02T11:20:52Z</time>
      </trkpt>
      <trkpt lat="45.96125" lon="6.55719">
        <ele>2405.2</ele>
        <time>2026-02-02T11:20:53Z</time>
      </trkpt>
      <trkpt lat="45.96124" lon="6.55719">
        <ele>2405.2</ele>
        <time>2026-02-02T11:20:54Z</time>
      </trkpt>
      <trkpt lat="45.96124" lon="6.5572">
        <ele>2405.2</ele>
        <time>2026-02-02T11:20:55Z</time>
      </trkpt>
      <trkpt lat="45.96123" lon="6.55721">
        <ele>2406.3</ele>
        <time>2026-02-02T11:20:56Z</time>
      </trkpt>
      <trkpt lat="45.96123" lon="6.55722">
        <ele>2406.7</ele>
        <time>2026-02-02T11:20:57Z</time>
      </trkpt>
      <trkpt lat="45.96123" lon="6.55723">
        <ele>2406.7</ele>
        <time>2026-02-02T11:20:58Z</time>
      </trkpt>
      <trkpt lat="45.96122" lon="6.55725">
        <ele>2406.7</ele>
        <time>2026-02-02T11:20:59Z</time>
      </trkpt>
      <trkpt lat="45.96122" lon="6.55726">
        <ele>2407.8</ele>
        <time>2026-02-02T11:21:00Z</time>
      </trkpt>
      <trkpt lat="45.96121" lon="6.55728">
        <ele>2407.8</ele>
        <time>2026-02-02T11:21:01Z</time>
      </trkpt>
      <trkpt lat="45.96121" lon="6.55729">
        <ele>2407.8</ele>
        <time>2026-02-02T11:21:02Z</time>
      </trkpt>
      <trkpt lat="45.96121" lon="6.5573">
        <ele>2408.8</ele>
        <time>2026-02-02T11:21:03Z</time>
      </trkpt>
      <trkpt lat="45.96121" lon="6.55732">
        <ele>2408.8</ele>
        <time>2026-02-02T11:21:04Z</time>
      </trkpt>
      <trkpt lat="45.96121" lon="6.55733">
        <ele>2408.8</ele>
        <time>2026-02-02T11:21:05Z</time>
      </trkpt>
      <trkpt lat="45.96121" lon="6.55734">
        <ele>2409.9</ele>
        <time>2026-02-02T11:21:06Z</time>
      </trkpt>
      <trkpt lat="45.96121" lon="6.55736">
        <ele>2409.9</ele>
        <time>2026-02-02T11:21:07Z</time>
      </trkpt>
      <trkpt lat="45.96122" lon="6.55737">
        <ele>2409.9</ele>
        <time>2026-02-02T11:21:08Z</time>
      </trkpt>
      <trkpt lat="45.96122" lon="6.55738">
        <ele>2410.9</ele>
        <time>2026-02-02T11:21:09Z</time>
      </trkpt>
      <trkpt lat="45.96122" lon="6.55739">
        <ele>2410.9</ele>
        <time>2026-02-02T11:21:10Z</time>
      </trkpt>
      <trkpt lat="45.96122" lon="6.5574">
        <ele>2410.9</ele>
        <time>2026-02-02T11:21:11Z</time>
      </trkpt>
      <trkpt lat="45.96123" lon="6.55741">
        <ele>2410.9</ele>
        <time>2026-02-02T11:21:12Z</time>
      </trkpt>
      <trkpt lat="45.96123" lon="6.55741">
        <ele>2410.9</ele>
        <time>2026-02-02T11:21:13Z</time>
      </trkpt>
      <trkpt lat="45.96123" lon="6.55741">
        <ele>2410.9</ele>
        <time>2026-02-02T11:21:14Z</time>
      </trkpt>
      <trkpt lat="45.96123" lon="6.55741">
        <ele>2410.9</ele>
        <time>2026-02-02T11:21:15Z</time>
      </trkpt>
      <trkpt lat="45.96123" lon="6.55741">
        <ele>2410.9</ele>
        <time>2026-02-02T11:21:16Z</time>
      </trkpt>
      <trkpt lat="45.96123" lon="6.55741">
        <ele>2410.9</ele>
        <time>2026-02-02T11:21:17Z</time>
      </trkpt>
      <trkpt lat="45.96123" lon="6.55741">
        <ele>2410.9</ele>
        <time>2026-02-02T11:21:18Z</time>
      </trkpt>
      <trkpt lat="45.96123" lon="6.55741">
        <ele>2410.9</ele>
        <time>2026-02-02T11:21:19Z</time>
      </trkpt>
      <trkpt lat="45.96123" lon="6.55741">
        <ele>2410.9</ele>
        <time>2026-02-02T11:21:20Z</time>
      </trkpt>
      <trkpt lat="45.96123" lon="6.55741">
        <ele>2410.9</ele>
        <time>2026-02-02T11:21:21Z</time>
      </trkpt>
      <trkpt lat="45.96123" lon="6.55741">
        <ele>2410.9</ele>
        <time>2026-02-02T11:21:22Z</time>
      </trkpt>
      <trkpt lat="45.96123" lon="6.55741">
        <ele>2410.9</ele>
        <time>2026-02-02T11:21:23Z</time>
      </trkpt>
      <trkpt lat="45.96123" lon="6.55741">
        <ele>2410.9</ele>
        <time>2026-02-02T11:21:24Z</time>
      </trkpt>
      <trkpt lat="45.96123" lon="6.55741">
        <ele>2410.9</ele>
        <time>2026-02-02T11:21:25Z</time>
      </trkpt>
      <trkpt lat="45.96123" lon="6.55741">
        <ele>2410.9</ele>
        <time>2026-02-02T11:21:26Z</time>
      </trkpt>
      <trkpt lat="45.96123" lon="6.55741">
        <ele>2410.9</ele>
        <time>2026-02-02T11:21:27Z</time>
      </trkpt>
      <trkpt lat="45.96123" lon="6.55742">
        <ele>2410.9</ele>
        <time>2026-02-02T11:21:28Z</time>
      </trkpt>
      <trkpt lat="45.96123" lon="6.55742">
        <ele>2411.5</ele>
        <time>2026-02-02T11:21:29Z</time>
      </trkpt>
      <trkpt lat="45.96124" lon="6.55744">
        <ele>2411.5</ele>
        <time>2026-02-02T11:21:30Z</time>
      </trkpt>
      <trkpt lat="45.96124" lon="6.55745">
        <ele>2411.5</ele>
        <time>2026-02-02T11:21:31Z</time>
      </trkpt>
      <trkpt lat="45.96125" lon="6.55746">
        <ele>2411.5</ele>
        <time>2026-02-02T11:21:32Z</time>
      </trkpt>
      <trkpt lat="45.96125" lon="6.55747">
        <ele>2412.4</ele>
        <time>2026-02-02T11:21:33Z</time>
      </trkpt>
      <trkpt lat="45.96125" lon="6.55748">
        <ele>2412.4</ele>
        <time>2026-02-02T11:21:34Z</time>
      </trkpt>
      <trkpt lat="45.96126" lon="6.55749">
        <ele>2412.4</ele>
        <time>2026-02-02T11:21:35Z</time>
      </trkpt>
      <trkpt lat="45.96126" lon="6.5575">
        <ele>2412.4</ele>
        <time>2026-02-02T11:21:36Z</time>
      </trkpt>
      <trkpt lat="45.96126" lon="6.55751">
        <ele>2413.2</ele>
        <time>2026-02-02T11:21:37Z</time>
      </trkpt>
      <trkpt lat="45.96126" lon="6.55752">
        <ele>2413.2</ele>
        <time>2026-02-02T11:21:38Z</time>
      </trkpt>
      <trkpt lat="45.96126" lon="6.55753">
        <ele>2413.2</ele>
        <time>2026-02-02T11:21:39Z</time>
      </trkpt>
      <trkpt lat="45.96126" lon="6.55754">
        <ele>2412.8</ele>
        <time>2026-02-02T11:21:40Z</time>
      </trkpt>
      <trkpt lat="45.96127" lon="6.55755">
        <ele>2413.4</ele>
        <time>2026-02-02T11:21:41Z</time>
      </trkpt>
      <trkpt lat="45.96128" lon="6.55756">
        <ele>2413.4</ele>
        <time>2026-02-02T11:21:42Z</time>
      </trkpt>
      <trkpt lat="45.96129" lon="6.55757">
        <ele>2413.4</ele>
        <time>2026-02-02T11:21:43Z</time>
      </trkpt>
      <trkpt lat="45.96129" lon="6.55758">
        <ele>2413.4</ele>
        <time>2026-02-02T11:21:44Z</time>
      </trkpt>
      <trkpt lat="45.9613" lon="6.5576">
        <ele>2413.4</ele>
        <time>2026-02-02T11:21:45Z</time>
      </trkpt>
      <trkpt lat="45.9613" lon="6.55761">
        <ele>2413.4</ele>
        <time>2026-02-02T11:21:46Z</time>
      </trkpt>
      <trkpt lat="45.96129" lon="6.55762">
        <ele>2413.9</ele>
        <time>2026-02-02T11:21:47Z</time>
      </trkpt>
      <trkpt lat="45.96129" lon="6.55762">
        <ele>2413.9</ele>
        <time>2026-02-02T11:21:48Z</time>
      </trkpt>
      <trkpt lat="45.96129" lon="6.55762">
        <ele>2413.9</ele>
        <time>2026-02-02T11:21:49Z</time>
      </trkpt>
      <trkpt lat="45.96129" lon="6.55762">
        <ele>2413.9</ele>
        <time>2026-02-02T11:21:50Z</time>
      </trkpt>
      <trkpt lat="45.96128" lon="6.55762">
        <ele>2413.9</ele>
        <time>2026-02-02T11:21:51Z</time>
      </trkpt>
      <trkpt lat="45.96128" lon="6.55762">
        <ele>2413.9</ele>
        <time>2026-02-02T11:21:52Z</time>
      </trkpt>
      <trkpt lat="45.96128" lon="6.55762">
        <ele>2413.9</ele>
        <time>2026-02-02T11:21:53Z</time>
      </trkpt>
      <trkpt lat="45.96128" lon="6.55762">
        <ele>2413.9</ele>
        <time>2026-02-02T11:21:54Z</time>
      </trkpt>
      <trkpt lat="45.96128" lon="6.55762">
        <ele>2413.9</ele>
        <time>2026-02-02T11:21:55Z</time>
      </trkpt>
      <trkpt lat="45.96128" lon="6.55762">
        <ele>2413.9</ele>
        <time>2026-02-02T11:21:56Z</time>
      </trkpt>
      <trkpt lat="45.96128" lon="6.55762">
        <ele>2413.9</ele>
        <time>2026-02-02T11:21:57Z</time>
      </trkpt>
      <trkpt lat="45.96128" lon="6.55762">
        <ele>2413.9</ele>
        <time>2026-02-02T11:21:58Z</time>
      </trkpt>
      <trkpt lat="45.96128" lon="6.55762">
        <ele>2413.9</ele>
        <time>2026-02-02T11:21:59Z</time>
      </trkpt>
      <trkpt lat="45.96128" lon="6.55761">
        <ele>2413.9</ele>
        <time>2026-02-02T11:22:00Z</time>
      </trkpt>
      <trkpt lat="45.96128" lon="6.55761">
        <ele>2413.9</ele>
        <time>2026-02-02T11:22:01Z</time>
      </trkpt>
      <trkpt lat="45.96128" lon="6.55761">
        <ele>2413.9</ele>
        <time>2026-02-02T11:22:02Z</time>
      </trkpt>
      <trkpt lat="45.96128" lon="6.55761">
        <ele>2413.9</ele>
        <time>2026-02-02T11:22:03Z</time>
      </trkpt>
      <trkpt lat="45.96127" lon="6.55761">
        <ele>2413.9</ele>
        <time>2026-02-02T11:22:04Z</time>
      </trkpt>
      <trkpt lat="45.96127" lon="6.55761">
        <ele>2413.9</ele>
        <time>2026-02-02T11:22:05Z</time>
      </trkpt>
      <trkpt lat="45.96127" lon="6.55761">
        <ele>2413.9</ele>
        <time>2026-02-02T11:22:06Z</time>
      </trkpt>
      <trkpt lat="45.96127" lon="6.55761">
        <ele>2413.9</ele>
        <time>2026-02-02T11:22:07Z</time>
      </trkpt>
      <trkpt lat="45.96127" lon="6.55761">
        <ele>2413.9</ele>
        <time>2026-02-02T11:22:08Z</time>
      </trkpt>
      <trkpt lat="45.96127" lon="6.55761">
        <ele>2413.9</ele>
        <time>2026-02-02T11:22:09Z</time>
      </trkpt>
      <trkpt lat="45.96127" lon="6.55761">
        <ele>2413.9</ele>
        <time>2026-02-02T11:22:10Z</time>
      </trkpt>
      <trkpt lat="45.96127" lon="6.55761">
        <ele>2413.9</ele>
        <time>2026-02-02T11:22:11Z</time>
      </trkpt>
      <trkpt lat="45.96127" lon="6.55761">
        <ele>2413.9</ele>
        <time>2026-02-02T11:22:13Z</time>
      </trkpt>
      <trkpt lat="45.96127" lon="6.55761">
        <ele>2413.9</ele>
        <time>2026-02-02T11:22:14Z</time>
      </trkpt>
      <trkpt lat="45.96127" lon="6.55761">
        <ele>2413.9</ele>
        <time>2026-02-02T11:22:15Z</time>
      </trkpt>
      <trkpt lat="45.96127" lon="6.55761">
        <ele>2413.9</ele>
        <time>2026-02-02T11:22:16Z</time>
      </trkpt>
      <trkpt lat="45.96127" lon="6.55761">
        <ele>2413.9</ele>
        <time>2026-02-02T11:22:17Z</time>
      </trkpt>
      <trkpt lat="45.96127" lon="6.55761">
        <ele>2413.9</ele>
        <time>2026-02-02T11:22:18Z</time>
      </trkpt>
      <trkpt lat="45.96127" lon="6.55761">
        <ele>2413.9</ele>
        <time>2026-02-02T11:22:19Z</time>
      </trkpt>
      <trkpt lat="45.96127" lon="6.55761">
        <ele>2413.9</ele>
        <time>2026-02-02T11:22:20Z</time>
      </trkpt>
      <trkpt lat="45.96127" lon="6.55761">
        <ele>2413.9</ele>
        <time>2026-02-02T11:22:21Z</time>
      </trkpt>
      <trkpt lat="45.96128" lon="6.55759">
        <ele>2413.4</ele>
        <time>2026-02-02T11:22:22Z</time>
      </trkpt>
      <trkpt lat="45.96128" lon="6.5576">
        <ele>2413.9</ele>
        <time>2026-02-02T11:22:23Z</time>
      </trkpt>
      <trkpt lat="45.96128" lon="6.55761">
        <ele>2413.9</ele>
        <time>2026-02-02T11:22:24Z</time>
      </trkpt>
      <trkpt lat="45.96127" lon="6.55761">
        <ele>2413.9</ele>
        <time>2026-02-02T11:22:25Z</time>
      </trkpt>
      <trkpt lat="45.96127" lon="6.55762">
        <ele>2413.9</ele>
        <time>2026-02-02T11:22:26Z</time>
      </trkpt>
      <trkpt lat="45.96128" lon="6.55763">
        <ele>2413.9</ele>
        <time>2026-02-02T11:22:27Z</time>
      </trkpt>
      <trkpt lat="45.96128" lon="6.55763">
        <ele>2413.9</ele>
        <time>2026-02-02T11:22:28Z</time>
      </trkpt>
      <trkpt lat="45.96128" lon="6.55764">
        <ele>2414.3</ele>
        <time>2026-02-02T11:22:29Z</time>
      </trkpt>
      <trkpt lat="45.96128" lon="6.55765">
        <ele>2414.3</ele>
        <time>2026-02-02T11:22:30Z</time>
      </trkpt>
      <trkpt lat="45.96127" lon="6.55766">
        <ele>2414.3</ele>
        <time>2026-02-02T11:22:31Z</time>
      </trkpt>
      <trkpt lat="45.96125" lon="6.55767">
        <ele>2414.7</ele>
        <time>2026-02-02T11:22:32Z</time>
      </trkpt>
      <trkpt lat="45.96124" lon="6.55767">
        <ele>2414.7</ele>
        <time>2026-02-02T11:22:33Z</time>
      </trkpt>
      <trkpt lat="45.96124" lon="6.55767">
        <ele>2414.7</ele>
        <time>2026-02-02T11:22:34Z</time>
      </trkpt>
      <trkpt lat="45.96123" lon="6.55766">
        <ele>2415.2</ele>
        <time>2026-02-02T11:22:35Z</time>
      </trkpt>
      <trkpt lat="45.96122" lon="6.55766">
        <ele>2415.2</ele>
        <time>2026-02-02T11:22:36Z</time>
      </trkpt>
      <trkpt lat="45.96121" lon="6.55765">
        <ele>2415.2</ele>
        <time>2026-02-02T11:22:37Z</time>
      </trkpt>
      <trkpt lat="45.96121" lon="6.55765">
        <ele>2415.2</ele>
        <time>2026-02-02T11:22:38Z</time>
      </trkpt>
      <trkpt lat="45.9612" lon="6.55764">
        <ele>2415.6</ele>
        <time>2026-02-02T11:22:39Z</time>
      </trkpt>
      <trkpt lat="45.9612" lon="6.55764">
        <ele>2415.2</ele>
        <time>2026-02-02T11:22:40Z</time>
      </trkpt>
      <trkpt lat="45.96119" lon="6.55763">
        <ele>2415.2</ele>
        <time>2026-02-02T11:22:41Z</time>
      </trkpt>
      <trkpt lat="45.96118" lon="6.55762">
        <ele>2415.2</ele>
        <time>2026-02-02T11:22:42Z</time>
      </trkpt>
      <trkpt lat="45.96118" lon="6.5576">
        <ele>2415.2</ele>
        <time>2026-02-02T11:22:43Z</time>
      </trkpt>
      <trkpt lat="45.96117" lon="6.55759">
        <ele>2415.1</ele>
        <time>2026-02-02T11:22:44Z</time>
      </trkpt>
      <trkpt lat="45.96116" lon="6.55758">
        <ele>2415.1</ele>
        <time>2026-02-02T11:22:45Z</time>
      </trkpt>
      <trkpt lat="45.96115" lon="6.55756">
        <ele>2415.1</ele>
        <time>2026-02-02T11:22:46Z</time>
      </trkpt>
      <trkpt lat="45.96115" lon="6.55755">
        <ele>2415.1</ele>
        <time>2026-02-02T11:22:47Z</time>
      </trkpt>
      <trkpt lat="45.96114" lon="6.55754">
        <ele>2414.8</ele>
        <time>2026-02-02T11:22:48Z</time>
      </trkpt>
      <trkpt lat="45.96113" lon="6.55753">
        <ele>2414.8</ele>
        <time>2026-02-02T11:22:49Z</time>
      </trkpt>
      <trkpt lat="45.96112" lon="6.55752">
        <ele>2414.8</ele>
        <time>2026-02-02T11:22:50Z</time>
      </trkpt>
      <trkpt lat="45.96111" lon="6.55751">
        <ele>2415.1</ele>
        <time>2026-02-02T11:22:51Z</time>
      </trkpt>
      <trkpt lat="45.9611" lon="6.55751">
        <ele>2415.1</ele>
        <time>2026-02-02T11:22:52Z</time>
      </trkpt>
      <trkpt lat="45.96109" lon="6.55751">
        <ele>2415.1</ele>
        <time>2026-02-02T11:22:53Z</time>
      </trkpt>
      <trkpt lat="45.96108" lon="6.55751">
        <ele>2415.4</ele>
        <time>2026-02-02T11:22:54Z</time>
      </trkpt>
      <trkpt lat="45.96107" lon="6.55752">
        <ele>2415.4</ele>
        <time>2026-02-02T11:22:55Z</time>
      </trkpt>
      <trkpt lat="45.96107" lon="6.55752">
        <ele>2415.4</ele>
        <time>2026-02-02T11:22:56Z</time>
      </trkpt>
      <trkpt lat="45.96108" lon="6.55751">
        <ele>2415.4</ele>
        <time>2026-02-02T11:22:57Z</time>
      </trkpt>
      <trkpt lat="45.96109" lon="6.55751">
        <ele>2415.1</ele>
        <time>2026-02-02T11:22:58Z</time>
      </trkpt>
      <trkpt lat="45.96109" lon="6.55751">
        <ele>2415.1</ele>
        <time>2026-02-02T11:22:59Z</time>
      </trkpt>
      <trkpt lat="45.96109" lon="6.55752">
        <ele>2415.1</ele>
        <time>2026-02-02T11:23:00Z</time>
      </trkpt>
      <trkpt lat="45.96109" lon="6.55752">
        <ele>2415.1</ele>
        <time>2026-02-02T11:23:01Z</time>
      </trkpt>
      <trkpt lat="45.96109" lon="6.55752">
        <ele>2415.1</ele>
        <time>2026-02-02T11:23:02Z</time>
      </trkpt>
      <trkpt lat="45.96109" lon="6.55752">
        <ele>2415.1</ele>
        <time>2026-02-02T11:23:03Z</time>
      </trkpt>
      <trkpt lat="45.96108" lon="6.55752">
        <ele>2415.4</ele>
        <time>2026-02-02T11:23:04Z</time>
      </trkpt>
      <trkpt lat="45.96108" lon="6.55752">
        <ele>2415.4</ele>
        <time>2026-02-02T11:23:05Z</time>
      </trkpt>
      <trkpt lat="45.96107" lon="6.55752">
        <ele>2415.4</ele>
        <time>2026-02-02T11:23:06Z</time>
      </trkpt>
      <trkpt lat="45.96106" lon="6.55752">
        <ele>2415.4</ele>
        <time>2026-02-02T11:23:07Z</time>
      </trkpt>
      <trkpt lat="45.96105" lon="6.55752">
        <ele>2415.7</ele>
        <time>2026-02-02T11:23:08Z</time>
      </trkpt>
      <trkpt lat="45.96103" lon="6.55752">
        <ele>2415.7</ele>
        <time>2026-02-02T11:23:09Z</time>
      </trkpt>
      <trkpt lat="45.96101" lon="6.55752">
        <ele>2415.9</ele>
        <time>2026-02-02T11:23:10Z</time>
      </trkpt>
      <trkpt lat="45.961" lon="6.55752">
        <ele>2415.9</ele>
        <time>2026-02-02T11:23:11Z</time>
      </trkpt>
      <trkpt lat="45.96099" lon="6.55752">
        <ele>2416.1</ele>
        <time>2026-02-02T11:23:12Z</time>
      </trkpt>
      <trkpt lat="45.96098" lon="6.55752">
        <ele>2416.1</ele>
        <time>2026-02-02T11:23:13Z</time>
      </trkpt>
      <trkpt lat="45.96097" lon="6.55752">
        <ele>2416.1</ele>
        <time>2026-02-02T11:23:14Z</time>
      </trkpt>
      <trkpt lat="45.96097" lon="6.55752">
        <ele>2416.1</ele>
        <time>2026-02-02T11:23:15Z</time>
      </trkpt>
      <trkpt lat="45.96097" lon="6.55754">
        <ele>2416.1</ele>
        <time>2026-02-02T11:23:16Z</time>
      </trkpt>
      <trkpt lat="45.96097" lon="6.55755">
        <ele>2416.1</ele>
        <time>2026-02-02T11:23:17Z</time>
      </trkpt>
      <trkpt lat="45.96098" lon="6.55757">
        <ele>2416.7</ele>
        <time>2026-02-02T11:23:18Z</time>
      </trkpt>
      <trkpt lat="45.96099" lon="6.55759">
        <ele>2416.7</ele>
        <time>2026-02-02T11:23:19Z</time>
      </trkpt>
      <trkpt lat="45.96099" lon="6.55761">
        <ele>2417.3</ele>
        <time>2026-02-02T11:23:20Z</time>
      </trkpt>
      <trkpt lat="45.961" lon="6.55762">
        <ele>2417.1</ele>
        <time>2026-02-02T11:23:21Z</time>
      </trkpt>
      <trkpt lat="45.96101" lon="6.55764">
        <ele>2417.1</ele>
        <time>2026-02-02T11:23:22Z</time>
      </trkpt>
      <trkpt lat="45.96102" lon="6.55765">
        <ele>2417.5</ele>
        <time>2026-02-02T11:23:23Z</time>
      </trkpt>
      <trkpt lat="45.96103" lon="6.55766">
        <ele>2417.3</ele>
        <time>2026-02-02T11:23:24Z</time>
      </trkpt>
      <trkpt lat="45.96104" lon="6.55766">
        <ele>2417.3</ele>
        <time>2026-02-02T11:23:25Z</time>
      </trkpt>
      <trkpt lat="45.96104" lon="6.55766">
        <ele>2417.3</ele>
        <time>2026-02-02T11:23:26Z</time>
      </trkpt>
      <trkpt lat="45.96104" lon="6.55766">
        <ele>2417.3</ele>
        <time>2026-02-02T11:23:27Z</time>
      </trkpt>
      <trkpt lat="45.96104" lon="6.55766">
        <ele>2417.3</ele>
        <time>2026-02-02T11:23:28Z</time>
      </trkpt>
      <trkpt lat="45.96104" lon="6.55766">
        <ele>2417.3</ele>
        <time>2026-02-02T11:23:29Z</time>
      </trkpt>
      <trkpt lat="45.96103" lon="6.55766">
        <ele>2417.3</ele>
        <time>2026-02-02T11:23:30Z</time>
      </trkpt>
      <trkpt lat="45.96103" lon="6.55766">
        <ele>2417.3</ele>
        <time>2026-02-02T11:23:31Z</time>
      </trkpt>
      <trkpt lat="45.96103" lon="6.55766">
        <ele>2417.3</ele>
        <time>2026-02-02T11:23:32Z</time>
      </trkpt>
      <trkpt lat="45.96103" lon="6.55767">
        <ele>2417.3</ele>
        <time>2026-02-02T11:23:33Z</time>
      </trkpt>
      <trkpt lat="45.96104" lon="6.55768">
        <ele>2417.3</ele>
        <time>2026-02-02T11:23:34Z</time>
      </trkpt>
      <trkpt lat="45.96104" lon="6.55769">
        <ele>2417.6</ele>
        <time>2026-02-02T11:23:35Z</time>
      </trkpt>
      <trkpt lat="45.96104" lon="6.55769">
        <ele>2417.6</ele>
        <time>2026-02-02T11:23:36Z</time>
      </trkpt>
      <trkpt lat="45.96105" lon="6.55771">
        <ele>2417.6</ele>
        <time>2026-02-02T11:23:37Z</time>
      </trkpt>
      <trkpt lat="45.96105" lon="6.55773">
        <ele>2417.8</ele>
        <time>2026-02-02T11:23:38Z</time>
      </trkpt>
      <trkpt lat="45.96105" lon="6.55775">
        <ele>2417.8</ele>
        <time>2026-02-02T11:23:39Z</time>
      </trkpt>
      <trkpt lat="45.96105" lon="6.55777">
        <ele>2417.9</ele>
        <time>2026-02-02T11:23:40Z</time>
      </trkpt>
      <trkpt lat="45.96105" lon="6.55778">
        <ele>2417.9</ele>
        <time>2026-02-02T11:23:41Z</time>
      </trkpt>
      <trkpt lat="45.96105" lon="6.5578">
        <ele>2417.9</ele>
        <time>2026-02-02T11:23:42Z</time>
      </trkpt>
      <trkpt lat="45.96105" lon="6.55781">
        <ele>2418</ele>
        <time>2026-02-02T11:23:43Z</time>
      </trkpt>
      <trkpt lat="45.96105" lon="6.55782">
        <ele>2418</ele>
        <time>2026-02-02T11:23:44Z</time>
      </trkpt>
      <trkpt lat="45.96105" lon="6.55783">
        <ele>2418</ele>
        <time>2026-02-02T11:23:45Z</time>
      </trkpt>
      <trkpt lat="45.96104" lon="6.55784">
        <ele>2418</ele>
        <time>2026-02-02T11:23:46Z</time>
      </trkpt>
      <trkpt lat="45.96104" lon="6.55785">
        <ele>2418</ele>
        <time>2026-02-02T11:23:47Z</time>
      </trkpt>
      <trkpt lat="45.96104" lon="6.55785">
        <ele>2417.9</ele>
        <time>2026-02-02T11:23:48Z</time>
      </trkpt>
      <trkpt lat="45.96104" lon="6.55785">
        <ele>2418</ele>
        <time>2026-02-02T11:23:49Z</time>
      </trkpt>
      <trkpt lat="45.96103" lon="6.55785">
        <ele>2418</ele>
        <time>2026-02-02T11:23:50Z</time>
      </trkpt>
      <trkpt lat="45.96103" lon="6.55784">
        <ele>2418</ele>
        <time>2026-02-02T11:23:51Z</time>
      </trkpt>
      <trkpt lat="45.96103" lon="6.55784">
        <ele>2418</ele>
        <time>2026-02-02T11:23:52Z</time>
      </trkpt>
      <trkpt lat="45.96103" lon="6.55784">
        <ele>2418</ele>
        <time>2026-02-02T11:23:53Z</time>
      </trkpt>
      <trkpt lat="45.96103" lon="6.55784">
        <ele>2418</ele>
        <time>2026-02-02T11:23:54Z</time>
      </trkpt>
      <trkpt lat="45.96103" lon="6.55784">
        <ele>2418</ele>
        <time>2026-02-02T11:23:55Z</time>
      </trkpt>
      <trkpt lat="45.96103" lon="6.55784">
        <ele>2418</ele>
        <time>2026-02-02T11:23:56Z</time>
      </trkpt>
      <trkpt lat="45.96103" lon="6.55784">
        <ele>2418</ele>
        <time>2026-02-02T11:23:57Z</time>
      </trkpt>
      <trkpt lat="45.96103" lon="6.55784">
        <ele>2418</ele>
        <time>2026-02-02T11:23:58Z</time>
      </trkpt>
      <trkpt lat="45.96103" lon="6.55784">
        <ele>2418</ele>
        <time>2026-02-02T11:23:59Z</time>
      </trkpt>
      <trkpt lat="45.96103" lon="6.55784">
        <ele>2418</ele>
        <time>2026-02-02T11:24:00Z</time>
      </trkpt>
      <trkpt lat="45.96103" lon="6.55783">
        <ele>2418</ele>
        <time>2026-02-02T11:24:01Z</time>
      </trkpt>
      <trkpt lat="45.96103" lon="6.55783">
        <ele>2418</ele>
        <time>2026-02-02T11:24:02Z</time>
      </trkpt>
      <trkpt lat="45.96103" lon="6.55784">
        <ele>2418</ele>
        <time>2026-02-02T11:24:03Z</time>
      </trkpt>
      <trkpt lat="45.96103" lon="6.55784">
        <ele>2418</ele>
        <time>2026-02-02T11:24:04Z</time>
      </trkpt>
      <trkpt lat="45.96103" lon="6.55784">
        <ele>2418</ele>
        <time>2026-02-02T11:24:05Z</time>
      </trkpt>
      <trkpt lat="45.96103" lon="6.55783">
        <ele>2418</ele>
        <time>2026-02-02T11:24:06Z</time>
      </trkpt>
      <trkpt lat="45.96103" lon="6.55783">
        <ele>2418</ele>
        <time>2026-02-02T11:24:07Z</time>
      </trkpt>
      <trkpt lat="45.96103" lon="6.55783">
        <ele>2418</ele>
        <time>2026-02-02T11:24:08Z</time>
      </trkpt>
      <trkpt lat="45.96103" lon="6.55783">
        <ele>2418</ele>
        <time>2026-02-02T11:24:09Z</time>
      </trkpt>
      <trkpt lat="45.96103" lon="6.55783">
        <ele>2418</ele>
        <time>2026-02-02T11:24:10Z</time>
      </trkpt>
      <trkpt lat="45.96103" lon="6.55783">
        <ele>2418</ele>
        <time>2026-02-02T11:24:11Z</time>
      </trkpt>
      <trkpt lat="45.96102" lon="6.55782">
        <ele>2418.2</ele>
        <time>2026-02-02T11:24:12Z</time>
      </trkpt>
      <trkpt lat="45.96101" lon="6.55781">
        <ele>2418.2</ele>
        <time>2026-02-02T11:24:13Z</time>
      </trkpt>
      <trkpt lat="45.961" lon="6.55781">
        <ele>2418.2</ele>
        <time>2026-02-02T11:24:14Z</time>
      </trkpt>
      <trkpt lat="45.96099" lon="6.55781">
        <ele>2418.4</ele>
        <time>2026-02-02T11:24:15Z</time>
      </trkpt>
      <trkpt lat="45.96098" lon="6.5578">
        <ele>2418.3</ele>
        <time>2026-02-02T11:24:16Z</time>
      </trkpt>
      <trkpt lat="45.96097" lon="6.5578">
        <ele>2418.3</ele>
        <time>2026-02-02T11:24:17Z</time>
      </trkpt>
      <trkpt lat="45.96095" lon="6.55779">
        <ele>2418.4</ele>
        <time>2026-02-02T11:24:18Z</time>
      </trkpt>
      <trkpt lat="45.96095" lon="6.55778">
        <ele>2418.4</ele>
        <time>2026-02-02T11:24:19Z</time>
      </trkpt>
      <trkpt lat="45.96094" lon="6.55778">
        <ele>2418.4</ele>
        <time>2026-02-02T11:24:20Z</time>
      </trkpt>
      <trkpt lat="45.96093" lon="6.55779">
        <ele>2418.5</ele>
        <time>2026-02-02T11:24:21Z</time>
      </trkpt>
      <trkpt lat="45.96093" lon="6.5578">
        <ele>2418.5</ele>
        <time>2026-02-02T11:24:22Z</time>
      </trkpt>
      <trkpt lat="45.96094" lon="6.55781">
        <ele>2418.5</ele>
        <time>2026-02-02T11:24:23Z</time>
      </trkpt>
      <trkpt lat="45.96094" lon="6.55782">
        <ele>2418.5</ele>
        <time>2026-02-02T11:24:24Z</time>
      </trkpt>
      <trkpt lat="45.96096" lon="6.55784">
        <ele>2418.5</ele>
        <time>2026-02-02T11:24:25Z</time>
      </trkpt>
      <trkpt lat="45.96097" lon="6.55784">
        <ele>2418.4</ele>
        <time>2026-02-02T11:24:26Z</time>
      </trkpt>
      <trkpt lat="45.96098" lon="6.55785">
        <ele>2418.4</ele>
        <time>2026-02-02T11:24:27Z</time>
      </trkpt>
      <trkpt lat="45.961" lon="6.55787">
        <ele>2418.2</ele>
        <time>2026-02-02T11:24:28Z</time>
      </trkpt>
      <trkpt lat="45.96101" lon="6.55788">
        <ele>2418.2</ele>
        <time>2026-02-02T11:24:29Z</time>
      </trkpt>
      <trkpt lat="45.96103" lon="6.5579">
        <ele>2418.1</ele>
        <time>2026-02-02T11:24:30Z</time>
      </trkpt>
      <trkpt lat="45.96103" lon="6.55791">
        <ele>2417.9</ele>
        <time>2026-02-02T11:24:31Z</time>
      </trkpt>
      <trkpt lat="45.96104" lon="6.55791">
        <ele>2417.9</ele>
        <time>2026-02-02T11:24:32Z</time>
      </trkpt>
      <trkpt lat="45.96105" lon="6.55792">
        <ele>2417.9</ele>
        <time>2026-02-02T11:24:33Z</time>
      </trkpt>
      <trkpt lat="45.96106" lon="6.55793">
        <ele>2417.6</ele>
        <time>2026-02-02T11:24:34Z</time>
      </trkpt>
      <trkpt lat="45.96106" lon="6.55794">
        <ele>2417.4</ele>
        <time>2026-02-02T11:24:35Z</time>
      </trkpt>
      <trkpt lat="45.96107" lon="6.55795">
        <ele>2417.4</ele>
        <time>2026-02-02T11:24:36Z</time>
      </trkpt>
      <trkpt lat="45.96107" lon="6.55796">
        <ele>2417.4</ele>
        <time>2026-02-02T11:24:37Z</time>
      </trkpt>
      <trkpt lat="45.96108" lon="6.55797">
        <ele>2417.4</ele>
        <time>2026-02-02T11:24:38Z</time>
      </trkpt>
      <trkpt lat="45.96108" lon="6.55797">
        <ele>2417.4</ele>
        <time>2026-02-02T11:24:39Z</time>
      </trkpt>
      <trkpt lat="45.96108" lon="6.55797">
        <ele>2417.4</ele>
        <time>2026-02-02T11:24:40Z</time>
      </trkpt>
      <trkpt lat="45.96108" lon="6.55797">
        <ele>2417.4</ele>
        <time>2026-02-02T11:24:41Z</time>
      </trkpt>
      <trkpt lat="45.96108" lon="6.55798">
        <ele>2417.4</ele>
        <time>2026-02-02T11:24:42Z</time>
      </trkpt>
      <trkpt lat="45.96109" lon="6.55799">
        <ele>2416.9</ele>
        <time>2026-02-02T11:24:43Z</time>
      </trkpt>
      <trkpt lat="45.96109" lon="6.55799">
        <ele>2416.9</ele>
        <time>2026-02-02T11:24:44Z</time>
      </trkpt>
      <trkpt lat="45.96111" lon="6.558">
        <ele>2416.9</ele>
        <time>2026-02-02T11:24:45Z</time>
      </trkpt>
      <trkpt lat="45.96112" lon="6.558">
        <ele>2416.5</ele>
        <time>2026-02-02T11:24:46Z</time>
      </trkpt>
      <trkpt lat="45.96113" lon="6.558">
        <ele>2416.5</ele>
        <time>2026-02-02T11:24:47Z</time>
      </trkpt>
      <trkpt lat="45.96114" lon="6.55801">
        <ele>2416.5</ele>
        <time>2026-02-02T11:24:48Z</time>
      </trkpt>
      <trkpt lat="45.96114" lon="6.55801">
        <ele>2416.5</ele>
        <time>2026-02-02T11:24:49Z</time>
      </trkpt>
      <trkpt lat="45.96116" lon="6.55801">
        <ele>2416.1</ele>
        <time>2026-02-02T11:24:50Z</time>
      </trkpt>
      <trkpt lat="45.96117" lon="6.55801">
        <ele>2416.1</ele>
        <time>2026-02-02T11:24:51Z</time>
      </trkpt>
      <trkpt lat="45.96118" lon="6.55802">
        <ele>2415.7</ele>
        <time>2026-02-02T11:24:52Z</time>
      </trkpt>
      <trkpt lat="45.96119" lon="6.55802">
        <ele>2415.7</ele>
        <time>2026-02-02T11:24:53Z</time>
      </trkpt>
      <trkpt lat="45.9612" lon="6.55803">
        <ele>2415.5</ele>
        <time>2026-02-02T11:24:54Z</time>
      </trkpt>
      <trkpt lat="45.96121" lon="6.55803">
        <ele>2415</ele>
        <time>2026-02-02T11:24:55Z</time>
      </trkpt>
      <trkpt lat="45.96122" lon="6.55804">
        <ele>2415</ele>
        <time>2026-02-02T11:24:56Z</time>
      </trkpt>
      <trkpt lat="45.96123" lon="6.55805">
        <ele>2415</ele>
        <time>2026-02-02T11:24:57Z</time>
      </trkpt>
      <trkpt lat="45.96123" lon="6.55806">
        <ele>2415</ele>
        <time>2026-02-02T11:24:58Z</time>
      </trkpt>
      <trkpt lat="45.96122" lon="6.55806">
        <ele>2415</ele>
        <time>2026-02-02T11:24:59Z</time>
      </trkpt>
      <trkpt lat="45.96122" lon="6.55807">
        <ele>2414.9</ele>
        <time>2026-02-02T11:25:00Z</time>
      </trkpt>
      <trkpt lat="45.96122" lon="6.55807">
        <ele>2414.9</ele>
        <time>2026-02-02T11:25:01Z</time>
      </trkpt>
      <trkpt lat="45.96122" lon="6.55807">
        <ele>2414.9</ele>
        <time>2026-02-02T11:25:02Z</time>
      </trkpt>
      <trkpt lat="45.96122" lon="6.55807">
        <ele>2414.9</ele>
        <time>2026-02-02T11:25:03Z</time>
      </trkpt>
      <trkpt lat="45.96121" lon="6.55807">
        <ele>2414.9</ele>
        <time>2026-02-02T11:25:04Z</time>
      </trkpt>
      <trkpt lat="45.96121" lon="6.55807">
        <ele>2414.9</ele>
        <time>2026-02-02T11:25:05Z</time>
      </trkpt>
      <trkpt lat="45.96121" lon="6.55807">
        <ele>2414.9</ele>
        <time>2026-02-02T11:25:06Z</time>
      </trkpt>
      <trkpt lat="45.96121" lon="6.55807">
        <ele>2414.9</ele>
        <time>2026-02-02T11:25:07Z</time>
      </trkpt>
      <trkpt lat="45.96121" lon="6.55807">
        <ele>2414.9</ele>
        <time>2026-02-02T11:25:08Z</time>
      </trkpt>
      <trkpt lat="45.96121" lon="6.55807">
        <ele>2414.9</ele>
        <time>2026-02-02T11:25:09Z</time>
      </trkpt>
      <trkpt lat="45.96121" lon="6.55807">
        <ele>2414.9</ele>
        <time>2026-02-02T11:25:10Z</time>
      </trkpt>
      <trkpt lat="45.96121" lon="6.55807">
        <ele>2414.9</ele>
        <time>2026-02-02T11:25:11Z</time>
      </trkpt>
      <trkpt lat="45.96121" lon="6.55807">
        <ele>2414.9</ele>
        <time>2026-02-02T11:25:12Z</time>
      </trkpt>
      <trkpt lat="45.96122" lon="6.55807">
        <ele>2414.9</ele>
        <time>2026-02-02T11:25:13Z</time>
      </trkpt>
      <trkpt lat="45.96122" lon="6.55807">
        <ele>2414.9</ele>
        <time>2026-02-02T11:25:14Z</time>
      </trkpt>
      <trkpt lat="45.96122" lon="6.55807">
        <ele>2414.9</ele>
        <time>2026-02-02T11:25:15Z</time>
      </trkpt>
      <trkpt lat="45.96122" lon="6.55807">
        <ele>2414.9</ele>
        <time>2026-02-02T11:25:16Z</time>
      </trkpt>
      <trkpt lat="45.96123" lon="6.55807">
        <ele>2414.9</ele>
        <time>2026-02-02T11:25:17Z</time>
      </trkpt>
      <trkpt lat="45.96123" lon="6.55807">
        <ele>2414.9</ele>
        <time>2026-02-02T11:25:18Z</time>
      </trkpt>
      <trkpt lat="45.96123" lon="6.55807">
        <ele>2414.9</ele>
        <time>2026-02-02T11:25:19Z</time>
      </trkpt>
      <trkpt lat="45.96124" lon="6.55808">
        <ele>2414.4</ele>
        <time>2026-02-02T11:25:20Z</time>
      </trkpt>
      <trkpt lat="45.96127" lon="6.5581">
        <ele>2413.9</ele>
        <time>2026-02-02T11:25:22Z</time>
      </trkpt>
      <trkpt lat="45.96128" lon="6.55812">
        <ele>2413.8</ele>
        <time>2026-02-02T11:25:23Z</time>
      </trkpt>
      <trkpt lat="45.96128" lon="6.55814">
        <ele>2413.8</ele>
        <time>2026-02-02T11:25:24Z</time>
      </trkpt>
      <trkpt lat="45.96129" lon="6.55815">
        <ele>2413.8</ele>
        <time>2026-02-02T11:25:25Z</time>
      </trkpt>
      <trkpt lat="45.96129" lon="6.55816">
        <ele>2413.7</ele>
        <time>2026-02-02T11:25:26Z</time>
      </trkpt>
      <trkpt lat="45.9613" lon="6.55817">
        <ele>2413.2</ele>
        <time>2026-02-02T11:25:27Z</time>
      </trkpt>
      <trkpt lat="45.96131" lon="6.55818">
        <ele>2413.2</ele>
        <time>2026-02-02T11:25:28Z</time>
      </trkpt>
      <trkpt lat="45.96131" lon="6.55819">
        <ele>2413.2</ele>
        <time>2026-02-02T11:25:29Z</time>
      </trkpt>
      <trkpt lat="45.96132" lon="6.55819">
        <ele>2413.2</ele>
        <time>2026-02-02T11:25:30Z</time>
      </trkpt>
      <trkpt lat="45.96133" lon="6.5582">
        <ele>2412.6</ele>
        <time>2026-02-02T11:25:31Z</time>
      </trkpt>
      <trkpt lat="45.96134" lon="6.55821">
        <ele>2412.6</ele>
        <time>2026-02-02T11:25:32Z</time>
      </trkpt>
      <trkpt lat="45.96135" lon="6.55823">
        <ele>2412.6</ele>
        <time>2026-02-02T11:25:33Z</time>
      </trkpt>
      <trkpt lat="45.96136" lon="6.55824">
        <ele>2412</ele>
        <time>2026-02-02T11:25:34Z</time>
      </trkpt>
      <trkpt lat="45.96137" lon="6.55826">
        <ele>2412</ele>
        <time>2026-02-02T11:25:35Z</time>
      </trkpt>
      <trkpt lat="45.96137" lon="6.55827">
        <ele>2412</ele>
        <time>2026-02-02T11:25:36Z</time>
      </trkpt>
      <trkpt lat="45.96137" lon="6.55829">
        <ele>2411.9</ele>
        <time>2026-02-02T11:25:37Z</time>
      </trkpt>
      <trkpt lat="45.96138" lon="6.55831">
        <ele>2411.9</ele>
        <time>2026-02-02T11:25:38Z</time>
      </trkpt>
      <trkpt lat="45.96138" lon="6.55832">
        <ele>2411.9</ele>
        <time>2026-02-02T11:25:39Z</time>
      </trkpt>
      <trkpt lat="45.96138" lon="6.55833">
        <ele>2411.8</ele>
        <time>2026-02-02T11:25:40Z</time>
      </trkpt>
      <trkpt lat="45.96137" lon="6.55831">
        <ele>2411.9</ele>
        <time>2026-02-02T11:25:41Z</time>
      </trkpt>
      <trkpt lat="45.96137" lon="6.55831">
        <ele>2411.9</ele>
        <time>2026-02-02T11:25:42Z</time>
      </trkpt>
      <trkpt lat="45.96137" lon="6.55831">
        <ele>2411.9</ele>
        <time>2026-02-02T11:25:43Z</time>
      </trkpt>
      <trkpt lat="45.96136" lon="6.55831">
        <ele>2411.9</ele>
        <time>2026-02-02T11:25:44Z</time>
      </trkpt>
      <trkpt lat="45.96135" lon="6.5583">
        <ele>2412.5</ele>
        <time>2026-02-02T11:25:45Z</time>
      </trkpt>
      <trkpt lat="45.96134" lon="6.55829">
        <ele>2412.5</ele>
        <time>2026-02-02T11:25:46Z</time>
      </trkpt>
      <trkpt lat="45.96133" lon="6.55829">
        <ele>2412.5</ele>
        <time>2026-02-02T11:25:47Z</time>
      </trkpt>
      <trkpt lat="45.96133" lon="6.55829">
        <ele>2412.5</ele>
        <time>2026-02-02T11:25:48Z</time>
      </trkpt>
      <trkpt lat="45.96132" lon="6.55829">
        <ele>2413</ele>
        <time>2026-02-02T11:25:49Z</time>
      </trkpt>
      <trkpt lat="45.96132" lon="6.5583">
        <ele>2413</ele>
        <time>2026-02-02T11:25:50Z</time>
      </trkpt>
      <trkpt lat="45.96132" lon="6.55831">
        <ele>2413</ele>
        <time>2026-02-02T11:25:51Z</time>
      </trkpt>
      <trkpt lat="45.96132" lon="6.55831">
        <ele>2413</ele>
        <time>2026-02-02T11:25:52Z</time>
      </trkpt>
      <trkpt lat="45.96132" lon="6.55831">
        <ele>2412.5</ele>
        <time>2026-02-02T11:25:53Z</time>
      </trkpt>
      <trkpt lat="45.96132" lon="6.55831">
        <ele>2412.5</ele>
        <time>2026-02-02T11:25:54Z</time>
      </trkpt>
      <trkpt lat="45.96132" lon="6.55831">
        <ele>2412.5</ele>
        <time>2026-02-02T11:25:55Z</time>
      </trkpt>
      <trkpt lat="45.96132" lon="6.55831">
        <ele>2412.5</ele>
        <time>2026-02-02T11:25:56Z</time>
      </trkpt>
      <trkpt lat="45.96132" lon="6.55831">
        <ele>2412.5</ele>
        <time>2026-02-02T11:25:57Z</time>
      </trkpt>
      <trkpt lat="45.96133" lon="6.55831">
        <ele>2412.5</ele>
        <time>2026-02-02T11:25:58Z</time>
      </trkpt>
      <trkpt lat="45.96133" lon="6.55831">
        <ele>2412.5</ele>
        <time>2026-02-02T11:25:59Z</time>
      </trkpt>
      <trkpt lat="45.96133" lon="6.55831">
        <ele>2412.5</ele>
        <time>2026-02-02T11:26:00Z</time>
      </trkpt>
      <trkpt lat="45.96133" lon="6.55831">
        <ele>2412.5</ele>
        <time>2026-02-02T11:26:01Z</time>
      </trkpt>
      <trkpt lat="45.96133" lon="6.55831">
        <ele>2412.5</ele>
        <time>2026-02-02T11:26:02Z</time>
      </trkpt>
      <trkpt lat="45.96133" lon="6.55831">
        <ele>2412.5</ele>
        <time>2026-02-02T11:26:03Z</time>
      </trkpt>
      <trkpt lat="45.96133" lon="6.55831">
        <ele>2412.5</ele>
        <time>2026-02-02T11:26:04Z</time>
      </trkpt>
      <trkpt lat="45.96133" lon="6.55831">
        <ele>2412.5</ele>
        <time>2026-02-02T11:26:05Z</time>
      </trkpt>
      <trkpt lat="45.96133" lon="6.55831">
        <ele>2412.5</ele>
        <time>2026-02-02T11:26:06Z</time>
      </trkpt>
      <trkpt lat="45.96132" lon="6.55831">
        <ele>2412.5</ele>
        <time>2026-02-02T11:26:07Z</time>
      </trkpt>
      <trkpt lat="45.96133" lon="6.55832">
        <ele>2412.5</ele>
        <time>2026-02-02T11:26:08Z</time>
      </trkpt>
      <trkpt lat="45.96133" lon="6.55833">
        <ele>2412.3</ele>
        <time>2026-02-02T11:26:09Z</time>
      </trkpt>
      <trkpt lat="45.96133" lon="6.55834">
        <ele>2412.3</ele>
        <time>2026-02-02T11:26:10Z</time>
      </trkpt>
      <trkpt lat="45.96133" lon="6.55836">
        <ele>2412.3</ele>
        <time>2026-02-02T11:26:11Z</time>
      </trkpt>
      <trkpt lat="45.96134" lon="6.55836">
        <ele>2412.3</ele>
        <time>2026-02-02T11:26:12Z</time>
      </trkpt>
      <trkpt lat="45.96134" lon="6.55838">
        <ele>2412.1</ele>
        <time>2026-02-02T11:26:13Z</time>
      </trkpt>
      <trkpt lat="45.96135" lon="6.55839">
        <ele>2412.1</ele>
        <time>2026-02-02T11:26:14Z</time>
      </trkpt>
      <trkpt lat="45.96135" lon="6.55841">
        <ele>2412.1</ele>
        <time>2026-02-02T11:26:15Z</time>
      </trkpt>
      <trkpt lat="45.96136" lon="6.55842">
        <ele>2411.2</ele>
        <time>2026-02-02T11:26:16Z</time>
      </trkpt>
      <trkpt lat="45.96136" lon="6.55843">
        <ele>2411.2</ele>
        <time>2026-02-02T11:26:17Z</time>
      </trkpt>
      <trkpt lat="45.96137" lon="6.55845">
        <ele>2411.2</ele>
        <time>2026-02-02T11:26:18Z</time>
      </trkpt>
      <trkpt lat="45.96138" lon="6.55846">
        <ele>2410.8</ele>
        <time>2026-02-02T11:26:19Z</time>
      </trkpt>
      <trkpt lat="45.96138" lon="6.55847">
        <ele>2410.3</ele>
        <time>2026-02-02T11:26:20Z</time>
      </trkpt>
      <trkpt lat="45.96139" lon="6.55849">
        <ele>2410.3</ele>
        <time>2026-02-02T11:26:21Z</time>
      </trkpt>
      <trkpt lat="45.9614" lon="6.55849">
        <ele>2410.3</ele>
        <time>2026-02-02T11:26:22Z</time>
      </trkpt>
      <trkpt lat="45.96141" lon="6.5585">
        <ele>2409.8</ele>
        <time>2026-02-02T11:26:23Z</time>
      </trkpt>
      <trkpt lat="45.96142" lon="6.55851">
        <ele>2409.3</ele>
        <time>2026-02-02T11:26:24Z</time>
      </trkpt>
      <trkpt lat="45.96142" lon="6.55852">
        <ele>2409.3</ele>
        <time>2026-02-02T11:26:25Z</time>
      </trkpt>
      <trkpt lat="45.96143" lon="6.55853">
        <ele>2409.3</ele>
        <time>2026-02-02T11:26:26Z</time>
      </trkpt>
      <trkpt lat="45.96144" lon="6.55853">
        <ele>2409.3</ele>
        <time>2026-02-02T11:26:27Z</time>
      </trkpt>
      <trkpt lat="45.96144" lon="6.55854">
        <ele>2408.2</ele>
        <time>2026-02-02T11:26:28Z</time>
      </trkpt>
      <trkpt lat="45.96145" lon="6.55855">
        <ele>2408.2</ele>
        <time>2026-02-02T11:26:29Z</time>
      </trkpt>
      <trkpt lat="45.96146" lon="6.55856">
        <ele>2408.2</ele>
        <time>2026-02-02T11:26:30Z</time>
      </trkpt>
      <trkpt lat="45.96147" lon="6.55856">
        <ele>2408.2</ele>
        <time>2026-02-02T11:26:31Z</time>
      </trkpt>
      <trkpt lat="45.96148" lon="6.55857">
        <ele>2407.8</ele>
        <time>2026-02-02T11:26:32Z</time>
      </trkpt>
      <trkpt lat="45.96149" lon="6.55857">
        <ele>2407.8</ele>
        <time>2026-02-02T11:26:33Z</time>
      </trkpt>
      <trkpt lat="45.9615" lon="6.55858">
        <ele>2407.8</ele>
        <time>2026-02-02T11:26:34Z</time>
      </trkpt>
      <trkpt lat="45.96151" lon="6.55859">
        <ele>2406.5</ele>
        <time>2026-02-02T11:26:35Z</time>
      </trkpt>
      <trkpt lat="45.96152" lon="6.55859">
        <ele>2406.5</ele>
        <time>2026-02-02T11:26:36Z</time>
      </trkpt>
      <trkpt lat="45.96153" lon="6.5586">
        <ele>2406.5</ele>
        <time>2026-02-02T11:26:37Z</time>
      </trkpt>
      <trkpt lat="45.96154" lon="6.55861">
        <ele>2406</ele>
        <time>2026-02-02T11:26:38Z</time>
      </trkpt>
      <trkpt lat="45.96154" lon="6.55861">
        <ele>2406</ele>
        <time>2026-02-02T11:26:39Z</time>
      </trkpt>
      <trkpt lat="45.96155" lon="6.55861">
        <ele>2406</ele>
        <time>2026-02-02T11:26:40Z</time>
      </trkpt>
      <trkpt lat="45.96155" lon="6.55862">
        <ele>2406</ele>
        <time>2026-02-02T11:26:41Z</time>
      </trkpt>
      <trkpt lat="45.96156" lon="6.55862">
        <ele>2406</ele>
        <time>2026-02-02T11:26:42Z</time>
      </trkpt>
      <trkpt lat="45.96157" lon="6.55863">
        <ele>2404.6</ele>
        <time>2026-02-02T11:26:43Z</time>
      </trkpt>
      <trkpt lat="45.96158" lon="6.55863">
        <ele>2404.6</ele>
        <time>2026-02-02T11:26:44Z</time>
      </trkpt>
      <trkpt lat="45.96158" lon="6.55863">
        <ele>2404.6</ele>
        <time>2026-02-02T11:26:45Z</time>
      </trkpt>
      <trkpt lat="45.96159" lon="6.55864">
        <ele>2404.6</ele>
        <time>2026-02-02T11:26:46Z</time>
      </trkpt>
      <trkpt lat="45.9616" lon="6.55864">
        <ele>2403.9</ele>
        <time>2026-02-02T11:26:47Z</time>
      </trkpt>
      <trkpt lat="45.96161" lon="6.55864">
        <ele>2403.9</ele>
        <time>2026-02-02T11:26:48Z</time>
      </trkpt>
      <trkpt lat="45.96162" lon="6.55864">
        <ele>2403.9</ele>
        <time>2026-02-02T11:26:49Z</time>
      </trkpt>
      <trkpt lat="45.96162" lon="6.55864">
        <ele>2403.9</ele>
        <time>2026-02-02T11:26:50Z</time>
      </trkpt>
      <trkpt lat="45.96163" lon="6.55864">
        <ele>2403.3</ele>
        <time>2026-02-02T11:26:51Z</time>
      </trkpt>
      <trkpt lat="45.96163" lon="6.55865">
        <ele>2403.3</ele>
        <time>2026-02-02T11:26:52Z</time>
      </trkpt>
      <trkpt lat="45.96164" lon="6.55865">
        <ele>2403.3</ele>
        <time>2026-02-02T11:26:53Z</time>
      </trkpt>
      <trkpt lat="45.96164" lon="6.55866">
        <ele>2403.3</ele>
        <time>2026-02-02T11:26:54Z</time>
      </trkpt>
      <trkpt lat="45.96164" lon="6.55866">
        <ele>2403.3</ele>
        <time>2026-02-02T11:26:55Z</time>
      </trkpt>
      <trkpt lat="45.96165" lon="6.55866">
        <ele>2403.3</ele>
        <time>2026-02-02T11:26:56Z</time>
      </trkpt>
      <trkpt lat="45.96165" lon="6.55867">
        <ele>2402.5</ele>
        <time>2026-02-02T11:26:57Z</time>
      </trkpt>
      <trkpt lat="45.96166" lon="6.55867">
        <ele>2401.6</ele>
        <time>2026-02-02T11:26:58Z</time>
      </trkpt>
      <trkpt lat="45.96166" lon="6.55868">
        <ele>2401.6</ele>
        <time>2026-02-02T11:27:00Z</time>
      </trkpt>
      <trkpt lat="45.96166" lon="6.55868">
        <ele>2401.6</ele>
        <time>2026-02-02T11:27:01Z</time>
      </trkpt>
      <trkpt lat="45.96166" lon="6.55869">
        <ele>2401.6</ele>
        <time>2026-02-02T11:27:02Z</time>
      </trkpt>
      <trkpt lat="45.96166" lon="6.55869">
        <ele>2401.6</ele>
        <time>2026-02-02T11:27:03Z</time>
      </trkpt>
      <trkpt lat="45.96166" lon="6.5587">
        <ele>2401.6</ele>
        <time>2026-02-02T11:27:04Z</time>
      </trkpt>
      <trkpt lat="45.96167" lon="6.55871">
        <ele>2401.6</ele>
        <time>2026-02-02T11:27:05Z</time>
      </trkpt>
      <trkpt lat="45.96167" lon="6.55871">
        <ele>2400.5</ele>
        <time>2026-02-02T11:27:06Z</time>
      </trkpt>
      <trkpt lat="45.96168" lon="6.55872">
        <ele>2400.5</ele>
        <time>2026-02-02T11:27:07Z</time>
      </trkpt>
      <trkpt lat="45.96168" lon="6.55872">
        <ele>2399.9</ele>
        <time>2026-02-02T11:27:09Z</time>
      </trkpt>
      <trkpt lat="45.96169" lon="6.55872">
        <ele>2399.9</ele>
        <time>2026-02-02T11:27:10Z</time>
      </trkpt>
      <trkpt lat="45.9617" lon="6.55873">
        <ele>2399.9</ele>
        <time>2026-02-02T11:27:11Z</time>
      </trkpt>
      <trkpt lat="45.9617" lon="6.55873">
        <ele>2399.9</ele>
        <time>2026-02-02T11:27:12Z</time>
      </trkpt>
      <trkpt lat="45.96171" lon="6.55874">
        <ele>2399.9</ele>
        <time>2026-02-02T11:27:13Z</time>
      </trkpt>
      <trkpt lat="45.96173" lon="6.55875">
        <ele>2399.4</ele>
        <time>2026-02-02T11:27:14Z</time>
      </trkpt>
      <trkpt lat="45.96174" lon="6.55875">
        <ele>2398.2</ele>
        <time>2026-02-02T11:27:15Z</time>
      </trkpt>
      <trkpt lat="45.96174" lon="6.55876">
        <ele>2397.7</ele>
        <time>2026-02-02T11:27:16Z</time>
      </trkpt>
      <trkpt lat="45.96175" lon="6.55877">
        <ele>2397.7</ele>
        <time>2026-02-02T11:27:17Z</time>
      </trkpt>
      <trkpt lat="45.96176" lon="6.55878">
        <ele>2397.7</ele>
        <time>2026-02-02T11:27:18Z</time>
      </trkpt>
      <trkpt lat="45.96177" lon="6.55879">
        <ele>2397.7</ele>
        <time>2026-02-02T11:27:19Z</time>
      </trkpt>
      <trkpt lat="45.96178" lon="6.5588">
        <ele>2396</ele>
        <time>2026-02-02T11:27:20Z</time>
      </trkpt>
      <trkpt lat="45.96178" lon="6.55881">
        <ele>2396</ele>
        <time>2026-02-02T11:27:21Z</time>
      </trkpt>
      <trkpt lat="45.96179" lon="6.55882">
        <ele>2396</ele>
        <time>2026-02-02T11:27:22Z</time>
      </trkpt>
      <trkpt lat="45.96179" lon="6.55883">
        <ele>2396</ele>
        <time>2026-02-02T11:27:23Z</time>
      </trkpt>
      <trkpt lat="45.9618" lon="6.55884">
        <ele>2393.8</ele>
        <time>2026-02-02T11:27:24Z</time>
      </trkpt>
      <trkpt lat="45.96181" lon="6.55885">
        <ele>2393.5</ele>
        <time>2026-02-02T11:27:25Z</time>
      </trkpt>
      <trkpt lat="45.96182" lon="6.55886">
        <ele>2393.5</ele>
        <time>2026-02-02T11:27:26Z</time>
      </trkpt>
      <trkpt lat="45.96183" lon="6.55887">
        <ele>2393.5</ele>
        <time>2026-02-02T11:27:27Z</time>
      </trkpt>
      <trkpt lat="45.96183" lon="6.55888">
        <ele>2393.2</ele>
        <time>2026-02-02T11:27:28Z</time>
      </trkpt>
      <trkpt lat="45.96183" lon="6.55889">
        <ele>2391.9</ele>
        <time>2026-02-02T11:27:29Z</time>
      </trkpt>
      <trkpt lat="45.96184" lon="6.55889">
        <ele>2391.9</ele>
        <time>2026-02-02T11:27:30Z</time>
      </trkpt>
      <trkpt lat="45.96184" lon="6.55889">
        <ele>2391.9</ele>
        <time>2026-02-02T11:27:31Z</time>
      </trkpt>
      <trkpt lat="45.96185" lon="6.55888">
        <ele>2391.9</ele>
        <time>2026-02-02T11:27:32Z</time>
      </trkpt>
      <trkpt lat="45.96184" lon="6.55888">
        <ele>2391.9</ele>
        <time>2026-02-02T11:27:33Z</time>
      </trkpt>
      <trkpt lat="45.96184" lon="6.55888">
        <ele>2391.9</ele>
        <time>2026-02-02T11:27:34Z</time>
      </trkpt>
      <trkpt lat="45.96184" lon="6.55887">
        <ele>2393.2</ele>
        <time>2026-02-02T11:27:35Z</time>
      </trkpt>
      <trkpt lat="45.96184" lon="6.55886">
        <ele>2393.2</ele>
        <time>2026-02-02T11:27:36Z</time>
      </trkpt>
      <trkpt lat="45.96183" lon="6.55885">
        <ele>2393.2</ele>
        <time>2026-02-02T11:27:37Z</time>
      </trkpt>
      <trkpt lat="45.96183" lon="6.55883">
        <ele>2395.2</ele>
        <time>2026-02-02T11:27:38Z</time>
      </trkpt>
      <trkpt lat="45.96182" lon="6.5588">
        <ele>2395.6</ele>
        <time>2026-02-02T11:27:39Z</time>
      </trkpt>
      <trkpt lat="45.96182" lon="6.55879">
        <ele>2396.8</ele>
        <time>2026-02-02T11:27:40Z</time>
      </trkpt>
      <trkpt lat="45.96182" lon="6.55879">
        <ele>2396.8</ele>
        <time>2026-02-02T11:27:41Z</time>
      </trkpt>
      <trkpt lat="45.96182" lon="6.55879">
        <ele>2396.8</ele>
        <time>2026-02-02T11:27:42Z</time>
      </trkpt>
      <trkpt lat="45.96182" lon="6.55879">
        <ele>2396.8</ele>
        <time>2026-02-02T11:27:43Z</time>
      </trkpt>
      <trkpt lat="45.96182" lon="6.55879">
        <ele>2396.8</ele>
        <time>2026-02-02T11:27:44Z</time>
      </trkpt>
      <trkpt lat="45.96183" lon="6.55879">
        <ele>2396.8</ele>
        <time>2026-02-02T11:27:45Z</time>
      </trkpt>
      <trkpt lat="45.96183" lon="6.55879">
        <ele>2396.8</ele>
        <time>2026-02-02T11:27:46Z</time>
      </trkpt>
      <trkpt lat="45.96183" lon="6.55879">
        <ele>2396.8</ele>
        <time>2026-02-02T11:27:47Z</time>
      </trkpt>
      <trkpt lat="45.96183" lon="6.55879">
        <ele>2396.8</ele>
        <time>2026-02-02T11:27:48Z</time>
      </trkpt>
      <trkpt lat="45.96182" lon="6.55879">
        <ele>2396.8</ele>
        <time>2026-02-02T11:27:49Z</time>
      </trkpt>
      <trkpt lat="45.96182" lon="6.55879">
        <ele>2396.8</ele>
        <time>2026-02-02T11:27:50Z</time>
      </trkpt>
      <trkpt lat="45.96182" lon="6.55879">
        <ele>2396.8</ele>
        <time>2026-02-02T11:27:51Z</time>
      </trkpt>
      <trkpt lat="45.96182" lon="6.55879">
        <ele>2396.8</ele>
        <time>2026-02-02T11:27:52Z</time>
      </trkpt>
      <trkpt lat="45.96183" lon="6.55878">
        <ele>2396.8</ele>
        <time>2026-02-02T11:27:53Z</time>
      </trkpt>
      <trkpt lat="45.96183" lon="6.55878">
        <ele>2396.8</ele>
        <time>2026-02-02T11:27:54Z</time>
      </trkpt>
      <trkpt lat="45.96183" lon="6.55878">
        <ele>2396.8</ele>
        <time>2026-02-02T11:27:55Z</time>
      </trkpt>
      <trkpt lat="45.96183" lon="6.55878">
        <ele>2396.8</ele>
        <time>2026-02-02T11:27:56Z</time>
      </trkpt>
      <trkpt lat="45.96183" lon="6.55878">
        <ele>2396.8</ele>
        <time>2026-02-02T11:27:57Z</time>
      </trkpt>
      <trkpt lat="45.96182" lon="6.55877">
        <ele>2396.8</ele>
        <time>2026-02-02T11:27:58Z</time>
      </trkpt>
      <trkpt lat="45.96182" lon="6.55877">
        <ele>2396.8</ele>
        <time>2026-02-02T11:27:59Z</time>
      </trkpt>
      <trkpt lat="45.96182" lon="6.55877">
        <ele>2396.8</ele>
        <time>2026-02-02T11:28:00Z</time>
      </trkpt>
      <trkpt lat="45.96182" lon="6.55877">
        <ele>2396.8</ele>
        <time>2026-02-02T11:28:01Z</time>
      </trkpt>
      <trkpt lat="45.96182" lon="6.55877">
        <ele>2396.8</ele>
        <time>2026-02-02T11:28:02Z</time>
      </trkpt>
      <trkpt lat="45.96182" lon="6.55877">
        <ele>2396.8</ele>
        <time>2026-02-02T11:28:03Z</time>
      </trkpt>
      <trkpt lat="45.96182" lon="6.55877">
        <ele>2396.8</ele>
        <time>2026-02-02T11:28:04Z</time>
      </trkpt>
      <trkpt lat="45.96182" lon="6.55877">
        <ele>2396.8</ele>
        <time>2026-02-02T11:28:05Z</time>
      </trkpt>
      <trkpt lat="45.96182" lon="6.55877">
        <ele>2396.8</ele>
        <time>2026-02-02T11:28:06Z</time>
      </trkpt>
      <trkpt lat="45.96182" lon="6.55877">
        <ele>2396.8</ele>
        <time>2026-02-02T11:28:07Z</time>
      </trkpt>
      <trkpt lat="45.96182" lon="6.55877">
        <ele>2396.8</ele>
        <time>2026-02-02T11:28:08Z</time>
      </trkpt>
      <trkpt lat="45.96182" lon="6.55877">
        <ele>2396.8</ele>
        <time>2026-02-02T11:28:09Z</time>
      </trkpt>
      <trkpt lat="45.96182" lon="6.55877">
        <ele>2396.8</ele>
        <time>2026-02-02T11:28:10Z</time>
      </trkpt>
      <trkpt lat="45.96182" lon="6.55877">
        <ele>2396.8</ele>
        <time>2026-02-02T11:28:11Z</time>
      </trkpt>
      <trkpt lat="45.96182" lon="6.55877">
        <ele>2396.8</ele>
        <time>2026-02-02T11:28:12Z</time>
      </trkpt>
      <trkpt lat="45.96182" lon="6.55877">
        <ele>2396.8</ele>
        <time>2026-02-02T11:28:13Z</time>
      </trkpt>
      <trkpt lat="45.96182" lon="6.55877">
        <ele>2396.8</ele>
        <time>2026-02-02T11:28:14Z</time>
      </trkpt>
      <trkpt lat="45.96182" lon="6.55877">
        <ele>2396.8</ele>
        <time>2026-02-02T11:28:15Z</time>
      </trkpt>
      <trkpt lat="45.96182" lon="6.55877">
        <ele>2396.8</ele>
        <time>2026-02-02T11:28:16Z</time>
      </trkpt>
      <trkpt lat="45.96182" lon="6.55877">
        <ele>2396.8</ele>
        <time>2026-02-02T11:28:17Z</time>
      </trkpt>
      <trkpt lat="45.96182" lon="6.55877">
        <ele>2396.8</ele>
        <time>2026-02-02T11:28:18Z</time>
      </trkpt>
      <trkpt lat="45.96182" lon="6.55877">
        <ele>2396.8</ele>
        <time>2026-02-02T11:28:19Z</time>
      </trkpt>
      <trkpt lat="45.96182" lon="6.55877">
        <ele>2396.8</ele>
        <time>2026-02-02T11:28:20Z</time>
      </trkpt>
      <trkpt lat="45.96182" lon="6.55877">
        <ele>2396.8</ele>
        <time>2026-02-02T11:28:21Z</time>
      </trkpt>
      <trkpt lat="45.96182" lon="6.55877">
        <ele>2396.8</ele>
        <time>2026-02-02T11:28:22Z</time>
      </trkpt>
      <trkpt lat="45.96182" lon="6.55877">
        <ele>2396.8</ele>
        <time>2026-02-02T11:28:23Z</time>
      </trkpt>
      <trkpt lat="45.96182" lon="6.55877">
        <ele>2396.8</ele>
        <time>2026-02-02T11:28:24Z</time>
      </trkpt>
      <trkpt lat="45.96182" lon="6.55877">
        <ele>2396.8</ele>
        <time>2026-02-02T11:28:25Z</time>
      </trkpt>
      <trkpt lat="45.96182" lon="6.55877">
        <ele>2396.8</ele>
        <time>2026-02-02T11:28:26Z</time>
      </trkpt>
      <trkpt lat="45.96182" lon="6.55877">
        <ele>2396.8</ele>
        <time>2026-02-02T11:28:27Z</time>
      </trkpt>
      <trkpt lat="45.96182" lon="6.55877">
        <ele>2396.8</ele>
        <time>2026-02-02T11:28:28Z</time>
      </trkpt>
      <trkpt lat="45.96182" lon="6.55877">
        <ele>2396.8</ele>
        <time>2026-02-02T11:28:29Z</time>
      </trkpt>
      <trkpt lat="45.96182" lon="6.55877">
        <ele>2396.8</ele>
        <time>2026-02-02T11:28:30Z</time>
      </trkpt>
      <trkpt lat="45.96182" lon="6.55877">
        <ele>2396.8</ele>
        <time>2026-02-02T11:28:31Z</time>
      </trkpt>
      <trkpt lat="45.96182" lon="6.55877">
        <ele>2396.8</ele>
        <time>2026-02-02T11:28:32Z</time>
      </trkpt>
      <trkpt lat="45.96183" lon="6.55876">
        <ele>2396.8</ele>
        <time>2026-02-02T11:28:33Z</time>
      </trkpt>
      <trkpt lat="45.96182" lon="6.55877">
        <ele>2396.8</ele>
        <time>2026-02-02T11:28:34Z</time>
      </trkpt>
      <trkpt lat="45.96182" lon="6.55877">
        <ele>2396.8</ele>
        <time>2026-02-02T11:28:35Z</time>
      </trkpt>
      <trkpt lat="45.96182" lon="6.55877">
        <ele>2396.8</ele>
        <time>2026-02-02T11:28:36Z</time>
      </trkpt>
      <trkpt lat="45.96182" lon="6.55876">
        <ele>2396.8</ele>
        <time>2026-02-02T11:28:37Z</time>
      </trkpt>
      <trkpt lat="45.96182" lon="6.55877">
        <ele>2396.8</ele>
        <time>2026-02-02T11:28:38Z</time>
      </trkpt>
      <trkpt lat="45.96182" lon="6.55878">
        <ele>2396.8</ele>
        <time>2026-02-02T11:28:39Z</time>
      </trkpt>
      <trkpt lat="45.96182" lon="6.55878">
        <ele>2396.8</ele>
        <time>2026-02-02T11:28:40Z</time>
      </trkpt>
      <trkpt lat="45.96182" lon="6.55878">
        <ele>2396.8</ele>
        <time>2026-02-02T11:28:41Z</time>
      </trkpt>
      <trkpt lat="45.96182" lon="6.55878">
        <ele>2396.8</ele>
        <time>2026-02-02T11:28:42Z</time>
      </trkpt>
      <trkpt lat="45.96182" lon="6.55878">
        <ele>2396.8</ele>
        <time>2026-02-02T11:28:43Z</time>
      </trkpt>
      <trkpt lat="45.96182" lon="6.55878">
        <ele>2396.8</ele>
        <time>2026-02-02T11:28:44Z</time>
      </trkpt>
      <trkpt lat="45.96182" lon="6.55878">
        <ele>2396.8</ele>
        <time>2026-02-02T11:28:45Z</time>
      </trkpt>
      <trkpt lat="45.96182" lon="6.55878">
        <ele>2396.8</ele>
        <time>2026-02-02T11:28:46Z</time>
      </trkpt>
      <trkpt lat="45.96182" lon="6.55878">
        <ele>2396.8</ele>
        <time>2026-02-02T11:28:47Z</time>
      </trkpt>
      <trkpt lat="45.96182" lon="6.55878">
        <ele>2396.8</ele>
        <time>2026-02-02T11:28:48Z</time>
      </trkpt>
      <trkpt lat="45.96182" lon="6.55878">
        <ele>2396.8</ele>
        <time>2026-02-02T11:28:49Z</time>
      </trkpt>
      <trkpt lat="45.96182" lon="6.55878">
        <ele>2396.8</ele>
        <time>2026-02-02T11:28:50Z</time>
      </trkpt>
      <trkpt lat="45.96182" lon="6.55878">
        <ele>2396.8</ele>
        <time>2026-02-02T11:28:51Z</time>
      </trkpt>
      <trkpt lat="45.96182" lon="6.55878">
        <ele>2396.7</ele>
        <time>2026-02-02T11:28:52Z</time>
      </trkpt>
      <trkpt lat="45.96182" lon="6.55878">
        <ele>2396.7</ele>
        <time>2026-02-02T11:28:53Z</time>
      </trkpt>
      <trkpt lat="45.96182" lon="6.55878">
        <ele>2396.7</ele>
        <time>2026-02-02T11:28:54Z</time>
      </trkpt>
      <trkpt lat="45.96182" lon="6.55878">
        <ele>2396.7</ele>
        <time>2026-02-02T11:28:55Z</time>
      </trkpt>
      <trkpt lat="45.96182" lon="6.55878">
        <ele>2396.7</ele>
        <time>2026-02-02T11:28:56Z</time>
      </trkpt>
      <trkpt lat="45.96182" lon="6.55878">
        <ele>2396.7</ele>
        <time>2026-02-02T11:28:57Z</time>
      </trkpt>
      <trkpt lat="45.96182" lon="6.55878">
        <ele>2396.6</ele>
        <time>2026-02-02T11:28:58Z</time>
      </trkpt>
      <trkpt lat="45.96182" lon="6.55878">
        <ele>2396.6</ele>
        <time>2026-02-02T11:28:59Z</time>
      </trkpt>
      <trkpt lat="45.96182" lon="6.55878">
        <ele>2396.6</ele>
        <time>2026-02-02T11:29:00Z</time>
      </trkpt>
      <trkpt lat="45.96182" lon="6.55878">
        <ele>2396.6</ele>
        <time>2026-02-02T11:29:01Z</time>
      </trkpt>
      <trkpt lat="45.96182" lon="6.55878">
        <ele>2396.6</ele>
        <time>2026-02-02T11:29:02Z</time>
      </trkpt>
      <trkpt lat="45.96182" lon="6.55878">
        <ele>2396.5</ele>
        <time>2026-02-02T11:29:03Z</time>
      </trkpt>
      <trkpt lat="45.96182" lon="6.55878">
        <ele>2396.5</ele>
        <time>2026-02-02T11:29:04Z</time>
      </trkpt>
      <trkpt lat="45.96181" lon="6.55877">
        <ele>2396.5</ele>
        <time>2026-02-02T11:29:05Z</time>
      </trkpt>
      <trkpt lat="45.96181" lon="6.55878">
        <ele>2396.5</ele>
        <time>2026-02-02T11:29:06Z</time>
      </trkpt>
      <trkpt lat="45.96182" lon="6.55878">
        <ele>2396.5</ele>
        <time>2026-02-02T11:29:07Z</time>
      </trkpt>
      <trkpt lat="45.96182" lon="6.55878">
        <ele>2396.5</ele>
        <time>2026-02-02T11:29:08Z</time>
      </trkpt>
      <trkpt lat="45.96182" lon="6.55878">
        <ele>2396.4</ele>
        <time>2026-02-02T11:29:09Z</time>
      </trkpt>
      <trkpt lat="45.96182" lon="6.55878">
        <ele>2396.4</ele>
        <time>2026-02-02T11:29:10Z</time>
      </trkpt>
      <trkpt lat="45.96182" lon="6.55879">
        <ele>2396.4</ele>
        <time>2026-02-02T11:29:11Z</time>
      </trkpt>
      <trkpt lat="45.96182" lon="6.55878">
        <ele>2396.4</ele>
        <time>2026-02-02T11:29:12Z</time>
      </trkpt>
      <trkpt lat="45.96182" lon="6.55878">
        <ele>2396.4</ele>
        <time>2026-02-02T11:29:13Z</time>
      </trkpt>
      <trkpt lat="45.96182" lon="6.55878">
        <ele>2396.4</ele>
        <time>2026-02-02T11:29:14Z</time>
      </trkpt>
      <trkpt lat="45.96182" lon="6.55878">
        <ele>2396.3</ele>
        <time>2026-02-02T11:29:15Z</time>
      </trkpt>
      <trkpt lat="45.96182" lon="6.55878">
        <ele>2396.3</ele>
        <time>2026-02-02T11:29:16Z</time>
      </trkpt>
      <trkpt lat="45.96182" lon="6.55878">
        <ele>2396.3</ele>
        <time>2026-02-02T11:29:17Z</time>
      </trkpt>
      <trkpt lat="45.96182" lon="6.55878">
        <ele>2396.3</ele>
        <time>2026-02-02T11:29:18Z</time>
      </trkpt>
      <trkpt lat="45.96182" lon="6.55878">
        <ele>2396.3</ele>
        <time>2026-02-02T11:29:19Z</time>
      </trkpt>
      <trkpt lat="45.96182" lon="6.55878">
        <ele>2396.2</ele>
        <time>2026-02-02T11:29:20Z</time>
      </trkpt>
      <trkpt lat="45.96182" lon="6.55878">
        <ele>2396.2</ele>
        <time>2026-02-02T11:29:21Z</time>
      </trkpt>
      <trkpt lat="45.96182" lon="6.55878">
        <ele>2396.2</ele>
        <time>2026-02-02T11:29:22Z</time>
      </trkpt>
      <trkpt lat="45.96182" lon="6.55879">
        <ele>2396.2</ele>
        <time>2026-02-02T11:29:23Z</time>
      </trkpt>
      <trkpt lat="45.96182" lon="6.55879">
        <ele>2396.2</ele>
        <time>2026-02-02T11:29:24Z</time>
      </trkpt>
      <trkpt lat="45.96182" lon="6.55879">
        <ele>2396.2</ele>
        <time>2026-02-02T11:29:25Z</time>
      </trkpt>
      <trkpt lat="45.96182" lon="6.55879">
        <ele>2396.1</ele>
        <time>2026-02-02T11:29:26Z</time>
      </trkpt>
      <trkpt lat="45.96182" lon="6.55879">
        <ele>2396.1</ele>
        <time>2026-02-02T11:29:27Z</time>
      </trkpt>
      <trkpt lat="45.96182" lon="6.55879">
        <ele>2396.1</ele>
        <time>2026-02-02T11:29:28Z</time>
      </trkpt>
      <trkpt lat="45.96182" lon="6.55879">
        <ele>2396.1</ele>
        <time>2026-02-02T11:29:29Z</time>
      </trkpt>
      <trkpt lat="45.96182" lon="6.55879">
        <ele>2396.1</ele>
        <time>2026-02-02T11:29:30Z</time>
      </trkpt>
      <trkpt lat="45.96182" lon="6.55879">
        <ele>2396</ele>
        <time>2026-02-02T11:29:31Z</time>
      </trkpt>
      <trkpt lat="45.96182" lon="6.55879">
        <ele>2396</ele>
        <time>2026-02-02T11:29:32Z</time>
      </trkpt>
      <trkpt lat="45.96182" lon="6.55879">
        <ele>2396</ele>
        <time>2026-02-02T11:29:33Z</time>
      </trkpt>
      <trkpt lat="45.96182" lon="6.55879">
        <ele>2396</ele>
        <time>2026-02-02T11:29:34Z</time>
      </trkpt>
      <trkpt lat="45.96182" lon="6.55879">
        <ele>2396</ele>
        <time>2026-02-02T11:29:35Z</time>
      </trkpt>
      <trkpt lat="45.96182" lon="6.55879">
        <ele>2396</ele>
        <time>2026-02-02T11:29:36Z</time>
      </trkpt>
      <trkpt lat="45.96182" lon="6.55879">
        <ele>2395.9</ele>
        <time>2026-02-02T11:29:37Z</time>
      </trkpt>
      <trkpt lat="45.96182" lon="6.55879">
        <ele>2395.9</ele>
        <time>2026-02-02T11:29:38Z</time>
      </trkpt>
      <trkpt lat="45.96182" lon="6.55879">
        <ele>2395.9</ele>
        <time>2026-02-02T11:29:39Z</time>
      </trkpt>
      <trkpt lat="45.96182" lon="6.55879">
        <ele>2395.9</ele>
        <time>2026-02-02T11:29:40Z</time>
      </trkpt>
      <trkpt lat="45.96182" lon="6.55878">
        <ele>2395.9</ele>
        <time>2026-02-02T11:29:41Z</time>
      </trkpt>
      <trkpt lat="45.96182" lon="6.55878">
        <ele>2395.8</ele>
        <time>2026-02-02T11:29:42Z</time>
      </trkpt>
      <trkpt lat="45.96183" lon="6.55878">
        <ele>2395.8</ele>
        <time>2026-02-02T11:29:43Z</time>
      </trkpt>
      <trkpt lat="45.96183" lon="6.55878">
        <ele>2395.8</ele>
        <time>2026-02-02T11:29:44Z</time>
      </trkpt>
      <trkpt lat="45.96183" lon="6.55878">
        <ele>2395.8</ele>
        <time>2026-02-02T11:29:45Z</time>
      </trkpt>
      <trkpt lat="45.96183" lon="6.55878">
        <ele>2395.8</ele>
        <time>2026-02-02T11:29:46Z</time>
      </trkpt>
      <trkpt lat="45.96183" lon="6.55878">
        <ele>2395.8</ele>
        <time>2026-02-02T11:29:47Z</time>
      </trkpt>
      <trkpt lat="45.96183" lon="6.55878">
        <ele>2395.7</ele>
        <time>2026-02-02T11:29:48Z</time>
      </trkpt>
      <trkpt lat="45.96183" lon="6.55878">
        <ele>2395.7</ele>
        <time>2026-02-02T11:29:49Z</time>
      </trkpt>
      <trkpt lat="45.96183" lon="6.55878">
        <ele>2395.7</ele>
        <time>2026-02-02T11:29:50Z</time>
      </trkpt>
      <trkpt lat="45.96183" lon="6.55878">
        <ele>2395.7</ele>
        <time>2026-02-02T11:29:51Z</time>
      </trkpt>
      <trkpt lat="45.96182" lon="6.55878">
        <ele>2395.7</ele>
        <time>2026-02-02T11:29:52Z</time>
      </trkpt>
      <trkpt lat="45.96182" lon="6.55878">
        <ele>2395.6</ele>
        <time>2026-02-02T11:29:53Z</time>
      </trkpt>
      <trkpt lat="45.96182" lon="6.55878">
        <ele>2395.6</ele>
        <time>2026-02-02T11:29:54Z</time>
      </trkpt>
      <trkpt lat="45.96182" lon="6.55878">
        <ele>2395.6</ele>
        <time>2026-02-02T11:29:55Z</time>
      </trkpt>
      <trkpt lat="45.96182" lon="6.55878">
        <ele>2395.6</ele>
        <time>2026-02-02T11:29:56Z</time>
      </trkpt>
      <trkpt lat="45.96182" lon="6.55878">
        <ele>2395.6</ele>
        <time>2026-02-02T11:29:57Z</time>
      </trkpt>
      <trkpt lat="45.96182" lon="6.55878">
        <ele>2395.6</ele>
        <time>2026-02-02T11:29:58Z</time>
      </trkpt>
      <trkpt lat="45.96182" lon="6.55878">
        <ele>2395.5</ele>
        <time>2026-02-02T11:29:59Z</time>
      </trkpt>
      <trkpt lat="45.96182" lon="6.55878">
        <ele>2395.5</ele>
        <time>2026-02-02T11:30:00Z</time>
      </trkpt>
      <trkpt lat="45.96182" lon="6.55878">
        <ele>2395.5</ele>
        <time>2026-02-02T11:30:01Z</time>
      </trkpt>
      <trkpt lat="45.96182" lon="6.55878">
        <ele>2395.5</ele>
        <time>2026-02-02T11:30:02Z</time>
      </trkpt>
      <trkpt lat="45.96182" lon="6.55878">
        <ele>2395.5</ele>
        <time>2026-02-02T11:30:03Z</time>
      </trkpt>
      <trkpt lat="45.96183" lon="6.55878">
        <ele>2395.5</ele>
        <time>2026-02-02T11:30:04Z</time>
      </trkpt>
      <trkpt lat="45.96183" lon="6.55878">
        <ele>2395.4</ele>
        <time>2026-02-02T11:30:05Z</time>
      </trkpt>
      <trkpt lat="45.96183" lon="6.55878">
        <ele>2395.4</ele>
        <time>2026-02-02T11:30:06Z</time>
      </trkpt>
      <trkpt lat="45.96183" lon="6.55878">
        <ele>2395.4</ele>
        <time>2026-02-02T11:30:07Z</time>
      </trkpt>
      <trkpt lat="45.96182" lon="6.55878">
        <ele>2395.4</ele>
        <time>2026-02-02T11:30:08Z</time>
      </trkpt>
      <trkpt lat="45.96182" lon="6.55878">
        <ele>2395.4</ele>
        <time>2026-02-02T11:30:09Z</time>
      </trkpt>
      <trkpt lat="45.96182" lon="6.55879">
        <ele>2395.3</ele>
        <time>2026-02-02T11:30:10Z</time>
      </trkpt>
      <trkpt lat="45.96182" lon="6.55879">
        <ele>2395.3</ele>
        <time>2026-02-02T11:30:11Z</time>
      </trkpt>
      <trkpt lat="45.96182" lon="6.55879">
        <ele>2395.3</ele>
        <time>2026-02-02T11:30:12Z</time>
      </trkpt>
      <trkpt lat="45.96182" lon="6.55879">
        <ele>2395.3</ele>
        <time>2026-02-02T11:30:13Z</time>
      </trkpt>
      <trkpt lat="45.96182" lon="6.55879">
        <ele>2395.3</ele>
        <time>2026-02-02T11:30:14Z</time>
      </trkpt>
      <trkpt lat="45.96183" lon="6.55877">
        <ele>2395.3</ele>
        <time>2026-02-02T11:30:15Z</time>
      </trkpt>
      <trkpt lat="45.96183" lon="6.55877">
        <ele>2395.2</ele>
        <time>2026-02-02T11:30:16Z</time>
      </trkpt>
      <trkpt lat="45.96183" lon="6.55877">
        <ele>2395.2</ele>
        <time>2026-02-02T11:30:17Z</time>
      </trkpt>
      <trkpt lat="45.96183" lon="6.55876">
        <ele>2395.2</ele>
        <time>2026-02-02T11:30:18Z</time>
      </trkpt>
      <trkpt lat="45.96183" lon="6.55877">
        <ele>2395.2</ele>
        <time>2026-02-02T11:30:19Z</time>
      </trkpt>
      <trkpt lat="45.96183" lon="6.55877">
        <ele>2395.2</ele>
        <time>2026-02-02T11:30:20Z</time>
      </trkpt>
      <trkpt lat="45.96183" lon="6.55877">
        <ele>2395.1</ele>
        <time>2026-02-02T11:30:21Z</time>
      </trkpt>
      <trkpt lat="45.96183" lon="6.55876">
        <ele>2395.1</ele>
        <time>2026-02-02T11:30:22Z</time>
      </trkpt>
      <trkpt lat="45.96183" lon="6.55876">
        <ele>2395.1</ele>
        <time>2026-02-02T11:30:23Z</time>
      </trkpt>
      <trkpt lat="45.96183" lon="6.55876">
        <ele>2395.1</ele>
        <time>2026-02-02T11:30:24Z</time>
      </trkpt>
      <trkpt lat="45.96183" lon="6.55876">
        <ele>2395.1</ele>
        <time>2026-02-02T11:30:25Z</time>
      </trkpt>
      <trkpt lat="45.96183" lon="6.55876">
        <ele>2395.1</ele>
        <time>2026-02-02T11:30:26Z</time>
      </trkpt>
      <trkpt lat="45.96183" lon="6.55876">
        <ele>2395</ele>
        <time>2026-02-02T11:30:27Z</time>
      </trkpt>
      <trkpt lat="45.96183" lon="6.55876">
        <ele>2395</ele>
        <time>2026-02-02T11:30:28Z</time>
      </trkpt>
      <trkpt lat="45.96183" lon="6.55876">
        <ele>2395</ele>
        <time>2026-02-02T11:30:29Z</time>
      </trkpt>
      <trkpt lat="45.96183" lon="6.55876">
        <ele>2395</ele>
        <time>2026-02-02T11:30:30Z</time>
      </trkpt>
      <trkpt lat="45.96183" lon="6.55876">
        <ele>2395</ele>
        <time>2026-02-02T11:30:31Z</time>
      </trkpt>
      <trkpt lat="45.96183" lon="6.55876">
        <ele>2395</ele>
        <time>2026-02-02T11:30:32Z</time>
      </trkpt>
      <trkpt lat="45.96183" lon="6.55876">
        <ele>2395</ele>
        <time>2026-02-02T11:30:33Z</time>
      </trkpt>
      <trkpt lat="45.96183" lon="6.55875">
        <ele>2395</ele>
        <time>2026-02-02T11:30:34Z</time>
      </trkpt>
      <trkpt lat="45.96183" lon="6.55875">
        <ele>2395</ele>
        <time>2026-02-02T11:30:35Z</time>
      </trkpt>
      <trkpt lat="45.96183" lon="6.55876">
        <ele>2395</ele>
        <time>2026-02-02T11:30:36Z</time>
      </trkpt>
      <trkpt lat="45.96183" lon="6.55876">
        <ele>2395</ele>
        <time>2026-02-02T11:30:37Z</time>
      </trkpt>
      <trkpt lat="45.96183" lon="6.55876">
        <ele>2395</ele>
        <time>2026-02-02T11:30:38Z</time>
      </trkpt>
      <trkpt lat="45.96183" lon="6.55876">
        <ele>2395</ele>
        <time>2026-02-02T11:30:39Z</time>
      </trkpt>
      <trkpt lat="45.96182" lon="6.55877">
        <ele>2395</ele>
        <time>2026-02-02T11:30:40Z</time>
      </trkpt>
      <trkpt lat="45.96182" lon="6.55877">
        <ele>2395</ele>
        <time>2026-02-02T11:30:41Z</time>
      </trkpt>
      <trkpt lat="45.96182" lon="6.55877">
        <ele>2395</ele>
        <time>2026-02-02T11:30:42Z</time>
      </trkpt>
      <trkpt lat="45.96182" lon="6.55877">
        <ele>2395</ele>
        <time>2026-02-02T11:30:43Z</time>
      </trkpt>
      <trkpt lat="45.96182" lon="6.55878">
        <ele>2395</ele>
        <time>2026-02-02T11:30:44Z</time>
      </trkpt>
      <trkpt lat="45.96182" lon="6.55878">
        <ele>2395</ele>
        <time>2026-02-02T11:30:45Z</time>
      </trkpt>
      <trkpt lat="45.96182" lon="6.55878">
        <ele>2395</ele>
        <time>2026-02-02T11:30:46Z</time>
      </trkpt>
      <trkpt lat="45.96182" lon="6.55878">
        <ele>2395</ele>
        <time>2026-02-02T11:30:47Z</time>
      </trkpt>
      <trkpt lat="45.96182" lon="6.55878">
        <ele>2395</ele>
        <time>2026-02-02T11:30:48Z</time>
      </trkpt>
      <trkpt lat="45.96182" lon="6.55878">
        <ele>2395</ele>
        <time>2026-02-02T11:30:49Z</time>
      </trkpt>
      <trkpt lat="45.96182" lon="6.55877">
        <ele>2395</ele>
        <time>2026-02-02T11:30:50Z</time>
      </trkpt>
      <trkpt lat="45.96182" lon="6.55877">
        <ele>2395</ele>
        <time>2026-02-02T11:30:51Z</time>
      </trkpt>
      <trkpt lat="45.96182" lon="6.55877">
        <ele>2395</ele>
        <time>2026-02-02T11:30:52Z</time>
      </trkpt>
      <trkpt lat="45.96182" lon="6.55877">
        <ele>2395</ele>
        <time>2026-02-02T11:30:53Z</time>
      </trkpt>
      <trkpt lat="45.96182" lon="6.55877">
        <ele>2395</ele>
        <time>2026-02-02T11:30:54Z</time>
      </trkpt>
      <trkpt lat="45.96182" lon="6.55877">
        <ele>2395</ele>
        <time>2026-02-02T11:30:55Z</time>
      </trkpt>
      <trkpt lat="45.96182" lon="6.55877">
        <ele>2395</ele>
        <time>2026-02-02T11:30:56Z</time>
      </trkpt>
      <trkpt lat="45.96182" lon="6.55877">
        <ele>2395</ele>
        <time>2026-02-02T11:30:57Z</time>
      </trkpt>
      <trkpt lat="45.96182" lon="6.55877">
        <ele>2395</ele>
        <time>2026-02-02T11:30:58Z</time>
      </trkpt>
      <trkpt lat="45.96182" lon="6.55877">
        <ele>2395</ele>
        <time>2026-02-02T11:30:59Z</time>
      </trkpt>
      <trkpt lat="45.96182" lon="6.55877">
        <ele>2395</ele>
        <time>2026-02-02T11:31:00Z</time>
      </trkpt>
      <trkpt lat="45.96182" lon="6.55877">
        <ele>2395</ele>
        <time>2026-02-02T11:31:01Z</time>
      </trkpt>
      <trkpt lat="45.96182" lon="6.55877">
        <ele>2395</ele>
        <time>2026-02-02T11:31:02Z</time>
      </trkpt>
      <trkpt lat="45.96182" lon="6.55877">
        <ele>2395</ele>
        <time>2026-02-02T11:31:03Z</time>
      </trkpt>
      <trkpt lat="45.96182" lon="6.55877">
        <ele>2395</ele>
        <time>2026-02-02T11:31:04Z</time>
      </trkpt>
      <trkpt lat="45.96182" lon="6.55877">
        <ele>2395</ele>
        <time>2026-02-02T11:31:05Z</time>
      </trkpt>
      <trkpt lat="45.96182" lon="6.55876">
        <ele>2395</ele>
        <time>2026-02-02T11:31:06Z</time>
      </trkpt>
      <trkpt lat="45.96182" lon="6.55876">
        <ele>2395</ele>
        <time>2026-02-02T11:31:07Z</time>
      </trkpt>
      <trkpt lat="45.96182" lon="6.55876">
        <ele>2395</ele>
        <time>2026-02-02T11:31:08Z</time>
      </trkpt>
      <trkpt lat="45.96182" lon="6.55876">
        <ele>2395</ele>
        <time>2026-02-02T11:31:09Z</time>
      </trkpt>
      <trkpt lat="45.96182" lon="6.55876">
        <ele>2395</ele>
        <time>2026-02-02T11:31:10Z</time>
      </trkpt>
      <trkpt lat="45.96182" lon="6.55876">
        <ele>2395</ele>
        <time>2026-02-02T11:31:11Z</time>
      </trkpt>
      <trkpt lat="45.96182" lon="6.55876">
        <ele>2395</ele>
        <time>2026-02-02T11:31:12Z</time>
      </trkpt>
      <trkpt lat="45.96183" lon="6.55876">
        <ele>2395</ele>
        <time>2026-02-02T11:31:13Z</time>
      </trkpt>
      <trkpt lat="45.96183" lon="6.55876">
        <ele>2395</ele>
        <time>2026-02-02T11:31:14Z</time>
      </trkpt>
      <trkpt lat="45.96183" lon="6.55876">
        <ele>2395</ele>
        <time>2026-02-02T11:31:15Z</time>
      </trkpt>
      <trkpt lat="45.96183" lon="6.55876">
        <ele>2395</ele>
        <time>2026-02-02T11:31:16Z</time>
      </trkpt>
      <trkpt lat="45.96183" lon="6.55876">
        <ele>2395</ele>
        <time>2026-02-02T11:31:17Z</time>
      </trkpt>
      <trkpt lat="45.96183" lon="6.55876">
        <ele>2395</ele>
        <time>2026-02-02T11:31:18Z</time>
      </trkpt>
      <trkpt lat="45.96183" lon="6.55876">
        <ele>2395</ele>
        <time>2026-02-02T11:31:19Z</time>
      </trkpt>
      <trkpt lat="45.96183" lon="6.55876">
        <ele>2395</ele>
        <time>2026-02-02T11:31:20Z</time>
      </trkpt>
      <trkpt lat="45.96183" lon="6.55876">
        <ele>2395</ele>
        <time>2026-02-02T11:31:21Z</time>
      </trkpt>
      <trkpt lat="45.96183" lon="6.55875">
        <ele>2395.6</ele>
        <time>2026-02-02T11:31:22Z</time>
      </trkpt>
      <trkpt lat="45.96184" lon="6.55875">
        <ele>2395.6</ele>
        <time>2026-02-02T11:31:23Z</time>
      </trkpt>
      <trkpt lat="45.96184" lon="6.55875">
        <ele>2395.6</ele>
        <time>2026-02-02T11:31:24Z</time>
      </trkpt>
      <trkpt lat="45.96184" lon="6.55875">
        <ele>2395.6</ele>
        <time>2026-02-02T11:31:25Z</time>
      </trkpt>
      <trkpt lat="45.96184" lon="6.55875">
        <ele>2395.6</ele>
        <time>2026-02-02T11:31:26Z</time>
      </trkpt>
      <trkpt lat="45.96184" lon="6.55875">
        <ele>2395.6</ele>
        <time>2026-02-02T11:31:27Z</time>
      </trkpt>
      <trkpt lat="45.96184" lon="6.55875">
        <ele>2395.6</ele>
        <time>2026-02-02T11:31:28Z</time>
      </trkpt>
      <trkpt lat="45.96184" lon="6.55875">
        <ele>2395.6</ele>
        <time>2026-02-02T11:31:29Z</time>
      </trkpt>
      <trkpt lat="45.96184" lon="6.55875">
        <ele>2395.6</ele>
        <time>2026-02-02T11:31:30Z</time>
      </trkpt>
      <trkpt lat="45.96184" lon="6.55875">
        <ele>2395.6</ele>
        <time>2026-02-02T11:31:31Z</time>
      </trkpt>
      <trkpt lat="45.96184" lon="6.55875">
        <ele>2395.6</ele>
        <time>2026-02-02T11:31:32Z</time>
      </trkpt>
      <trkpt lat="45.96183" lon="6.55875">
        <ele>2395.6</ele>
        <time>2026-02-02T11:31:33Z</time>
      </trkpt>
      <trkpt lat="45.96183" lon="6.55875">
        <ele>2395.6</ele>
        <time>2026-02-02T11:31:34Z</time>
      </trkpt>
      <trkpt lat="45.96183" lon="6.55875">
        <ele>2395.6</ele>
        <time>2026-02-02T11:31:35Z</time>
      </trkpt>
      <trkpt lat="45.96183" lon="6.55875">
        <ele>2395.6</ele>
        <time>2026-02-02T11:31:36Z</time>
      </trkpt>
      <trkpt lat="45.96183" lon="6.55875">
        <ele>2395.6</ele>
        <time>2026-02-02T11:31:37Z</time>
      </trkpt>
      <trkpt lat="45.96183" lon="6.55875">
        <ele>2395.6</ele>
        <time>2026-02-02T11:31:38Z</time>
      </trkpt>
      <trkpt lat="45.96183" lon="6.55875">
        <ele>2395.6</ele>
        <time>2026-02-02T11:31:39Z</time>
      </trkpt>
      <trkpt lat="45.96184" lon="6.55875">
        <ele>2395.6</ele>
        <time>2026-02-02T11:31:40Z</time>
      </trkpt>
      <trkpt lat="45.96184" lon="6.55876">
        <ele>2394.6</ele>
        <time>2026-02-02T11:31:41Z</time>
      </trkpt>
      <trkpt lat="45.96184" lon="6.55876">
        <ele>2394.6</ele>
        <time>2026-02-02T11:31:42Z</time>
      </trkpt>
      <trkpt lat="45.96184" lon="6.55876">
        <ele>2394.6</ele>
        <time>2026-02-02T11:31:43Z</time>
      </trkpt>
      <trkpt lat="45.96183" lon="6.55876">
        <ele>2394.6</ele>
        <time>2026-02-02T11:31:44Z</time>
      </trkpt>
      <trkpt lat="45.96183" lon="6.55876">
        <ele>2394.6</ele>
        <time>2026-02-02T11:31:45Z</time>
      </trkpt>
      <trkpt lat="45.96183" lon="6.55876">
        <ele>2394.6</ele>
        <time>2026-02-02T11:31:46Z</time>
      </trkpt>
      <trkpt lat="45.96184" lon="6.55876">
        <ele>2394.6</ele>
        <time>2026-02-02T11:31:47Z</time>
      </trkpt>
      <trkpt lat="45.96184" lon="6.55876">
        <ele>2394.6</ele>
        <time>2026-02-02T11:31:48Z</time>
      </trkpt>
      <trkpt lat="45.96184" lon="6.55876">
        <ele>2394.6</ele>
        <time>2026-02-02T11:31:49Z</time>
      </trkpt>
      <trkpt lat="45.96184" lon="6.55876">
        <ele>2394.6</ele>
        <time>2026-02-02T11:31:50Z</time>
      </trkpt>
      <trkpt lat="45.96184" lon="6.55876">
        <ele>2394.6</ele>
        <time>2026-02-02T11:31:51Z</time>
      </trkpt>
      <trkpt lat="45.96183" lon="6.55877">
        <ele>2394.6</ele>
        <time>2026-02-02T11:31:52Z</time>
      </trkpt>
      <trkpt lat="45.96183" lon="6.55877">
        <ele>2394.6</ele>
        <time>2026-02-02T11:31:53Z</time>
      </trkpt>
      <trkpt lat="45.96183" lon="6.55877">
        <ele>2394.6</ele>
        <time>2026-02-02T11:31:54Z</time>
      </trkpt>
      <trkpt lat="45.96183" lon="6.55877">
        <ele>2394.6</ele>
        <time>2026-02-02T11:31:55Z</time>
      </trkpt>
      <trkpt lat="45.96183" lon="6.55877">
        <ele>2394.6</ele>
        <time>2026-02-02T11:31:56Z</time>
      </trkpt>
      <trkpt lat="45.96183" lon="6.55877">
        <ele>2394.6</ele>
        <time>2026-02-02T11:31:57Z</time>
      </trkpt>
      <trkpt lat="45.96183" lon="6.55877">
        <ele>2394.6</ele>
        <time>2026-02-02T11:31:58Z</time>
      </trkpt>
      <trkpt lat="45.96183" lon="6.55877">
        <ele>2394.6</ele>
        <time>2026-02-02T11:31:59Z</time>
      </trkpt>
      <trkpt lat="45.96183" lon="6.55877">
        <ele>2394.6</ele>
        <time>2026-02-02T11:32:00Z</time>
      </trkpt>
      <trkpt lat="45.96183" lon="6.55877">
        <ele>2394.6</ele>
        <time>2026-02-02T11:32:01Z</time>
      </trkpt>
      <trkpt lat="45.96183" lon="6.55877">
        <ele>2394.6</ele>
        <time>2026-02-02T11:32:02Z</time>
      </trkpt>
      <trkpt lat="45.96183" lon="6.55877">
        <ele>2394.6</ele>
        <time>2026-02-02T11:32:03Z</time>
      </trkpt>
      <trkpt lat="45.96183" lon="6.55877">
        <ele>2395</ele>
        <time>2026-02-02T11:32:04Z</time>
      </trkpt>
      <trkpt lat="45.96183" lon="6.55877">
        <ele>2395</ele>
        <time>2026-02-02T11:32:05Z</time>
      </trkpt>
      <trkpt lat="45.96183" lon="6.55877">
        <ele>2395</ele>
        <time>2026-02-02T11:32:06Z</time>
      </trkpt>
      <trkpt lat="45.96183" lon="6.55877">
        <ele>2395</ele>
        <time>2026-02-02T11:32:07Z</time>
      </trkpt>
      <trkpt lat="45.96183" lon="6.55877">
        <ele>2395</ele>
        <time>2026-02-02T11:32:08Z</time>
      </trkpt>
      <trkpt lat="45.96183" lon="6.55877">
        <ele>2395</ele>
        <time>2026-02-02T11:32:09Z</time>
      </trkpt>
      <trkpt lat="45.96183" lon="6.55877">
        <ele>2395</ele>
        <time>2026-02-02T11:32:10Z</time>
      </trkpt>
      <trkpt lat="45.96183" lon="6.55878">
        <ele>2395</ele>
        <time>2026-02-02T11:32:11Z</time>
      </trkpt>
      <trkpt lat="45.96183" lon="6.55877">
        <ele>2395</ele>
        <time>2026-02-02T11:32:12Z</time>
      </trkpt>
      <trkpt lat="45.96183" lon="6.55878">
        <ele>2394.6</ele>
        <time>2026-02-02T11:32:13Z</time>
      </trkpt>
      <trkpt lat="45.96183" lon="6.55878">
        <ele>2394.6</ele>
        <time>2026-02-02T11:32:14Z</time>
      </trkpt>
      <trkpt lat="45.96184" lon="6.55878">
        <ele>2394.6</ele>
        <time>2026-02-02T11:32:15Z</time>
      </trkpt>
      <trkpt lat="45.96184" lon="6.55878">
        <ele>2394.6</ele>
        <time>2026-02-02T11:32:16Z</time>
      </trkpt>
      <trkpt lat="45.96183" lon="6.55877">
        <ele>2394.6</ele>
        <time>2026-02-02T11:32:17Z</time>
      </trkpt>
      <trkpt lat="45.96183" lon="6.55877">
        <ele>2394.6</ele>
        <time>2026-02-02T11:32:18Z</time>
      </trkpt>
      <trkpt lat="45.96183" lon="6.55877">
        <ele>2394.6</ele>
        <time>2026-02-02T11:32:19Z</time>
      </trkpt>
      <trkpt lat="45.96183" lon="6.55877">
        <ele>2394.6</ele>
        <time>2026-02-02T11:32:20Z</time>
      </trkpt>
      <trkpt lat="45.96183" lon="6.55877">
        <ele>2394.6</ele>
        <time>2026-02-02T11:32:21Z</time>
      </trkpt>
      <trkpt lat="45.96183" lon="6.55877">
        <ele>2394.6</ele>
        <time>2026-02-02T11:32:22Z</time>
      </trkpt>
      <trkpt lat="45.96183" lon="6.55877">
        <ele>2394.6</ele>
        <time>2026-02-02T11:32:23Z</time>
      </trkpt>
      <trkpt lat="45.96183" lon="6.55877">
        <ele>2394.6</ele>
        <time>2026-02-02T11:32:24Z</time>
      </trkpt>
      <trkpt lat="45.96183" lon="6.55877">
        <ele>2394.6</ele>
        <time>2026-02-02T11:32:25Z</time>
      </trkpt>
      <trkpt lat="45.96183" lon="6.55877">
        <ele>2394.6</ele>
        <time>2026-02-02T11:32:26Z</time>
      </trkpt>
      <trkpt lat="45.96183" lon="6.55877">
        <ele>2394.6</ele>
        <time>2026-02-02T11:32:27Z</time>
      </trkpt>
      <trkpt lat="45.96183" lon="6.55877">
        <ele>2394.6</ele>
        <time>2026-02-02T11:32:28Z</time>
      </trkpt>
      <trkpt lat="45.96183" lon="6.55878">
        <ele>2394.6</ele>
        <time>2026-02-02T11:32:29Z</time>
      </trkpt>
      <trkpt lat="45.96183" lon="6.55878">
        <ele>2394.6</ele>
        <time>2026-02-02T11:32:30Z</time>
      </trkpt>
      <trkpt lat="45.96183" lon="6.55878">
        <ele>2394.6</ele>
        <time>2026-02-02T11:32:31Z</time>
      </trkpt>
      <trkpt lat="45.96183" lon="6.55877">
        <ele>2394.6</ele>
        <time>2026-02-02T11:32:32Z</time>
      </trkpt>
      <trkpt lat="45.96183" lon="6.55877">
        <ele>2394.6</ele>
        <time>2026-02-02T11:32:33Z</time>
      </trkpt>
      <trkpt lat="45.96183" lon="6.55878">
        <ele>2394.6</ele>
        <time>2026-02-02T11:32:34Z</time>
      </trkpt>
      <trkpt lat="45.96183" lon="6.55877">
        <ele>2394.6</ele>
        <time>2026-02-02T11:32:35Z</time>
      </trkpt>
      <trkpt lat="45.96183" lon="6.55877">
        <ele>2394.6</ele>
        <time>2026-02-02T11:32:36Z</time>
      </trkpt>
      <trkpt lat="45.96183" lon="6.55877">
        <ele>2394.6</ele>
        <time>2026-02-02T11:32:37Z</time>
      </trkpt>
      <trkpt lat="45.96183" lon="6.55877">
        <ele>2394.6</ele>
        <time>2026-02-02T11:32:38Z</time>
      </trkpt>
      <trkpt lat="45.96182" lon="6.55879">
        <ele>2395</ele>
        <time>2026-02-02T11:32:40Z</time>
      </trkpt>
      <trkpt lat="45.96182" lon="6.55879">
        <ele>2395</ele>
        <time>2026-02-02T11:32:41Z</time>
      </trkpt>
      <trkpt lat="45.96182" lon="6.55879">
        <ele>2395</ele>
        <time>2026-02-02T11:32:42Z</time>
      </trkpt>
      <trkpt lat="45.96182" lon="6.55879">
        <ele>2395</ele>
        <time>2026-02-02T11:32:43Z</time>
      </trkpt>
      <trkpt lat="45.96182" lon="6.55879">
        <ele>2395</ele>
        <time>2026-02-02T11:32:44Z</time>
      </trkpt>
      <trkpt lat="45.96182" lon="6.55879">
        <ele>2395</ele>
        <time>2026-02-02T11:32:45Z</time>
      </trkpt>
      <trkpt lat="45.96182" lon="6.55879">
        <ele>2395</ele>
        <time>2026-02-02T11:32:46Z</time>
      </trkpt>
      <trkpt lat="45.96182" lon="6.55879">
        <ele>2395</ele>
        <time>2026-02-02T11:32:47Z</time>
      </trkpt>
      <trkpt lat="45.96183" lon="6.55877">
        <ele>2395</ele>
        <time>2026-02-02T11:32:48Z</time>
      </trkpt>
      <trkpt lat="45.96183" lon="6.55875">
        <ele>2396</ele>
        <time>2026-02-02T11:32:49Z</time>
      </trkpt>
      <trkpt lat="45.96183" lon="6.55874">
        <ele>2396</ele>
        <time>2026-02-02T11:32:50Z</time>
      </trkpt>
      <trkpt lat="45.96183" lon="6.55874">
        <ele>2395.6</ele>
        <time>2026-02-02T11:32:51Z</time>
      </trkpt>
      <trkpt lat="45.96183" lon="6.55874">
        <ele>2395.6</ele>
        <time>2026-02-02T11:32:52Z</time>
      </trkpt>
      <trkpt lat="45.96183" lon="6.55874">
        <ele>2395.6</ele>
        <time>2026-02-02T11:32:53Z</time>
      </trkpt>
      <trkpt lat="45.96183" lon="6.55874">
        <ele>2395.6</ele>
        <time>2026-02-02T11:32:54Z</time>
      </trkpt>
      <trkpt lat="45.96183" lon="6.55874">
        <ele>2395.6</ele>
        <time>2026-02-02T11:32:55Z</time>
      </trkpt>
      <trkpt lat="45.96183" lon="6.55873">
        <ele>2396</ele>
        <time>2026-02-02T11:32:56Z</time>
      </trkpt>
      <trkpt lat="45.96183" lon="6.55874">
        <ele>2395.6</ele>
        <time>2026-02-02T11:32:57Z</time>
      </trkpt>
      <trkpt lat="45.96184" lon="6.55873">
        <ele>2395.6</ele>
        <time>2026-02-02T11:32:58Z</time>
      </trkpt>
      <trkpt lat="45.96185" lon="6.55869">
        <ele>2396.4</ele>
        <time>2026-02-02T11:32:59Z</time>
      </trkpt>
      <trkpt lat="45.96185" lon="6.55868">
        <ele>2396.4</ele>
        <time>2026-02-02T11:33:00Z</time>
      </trkpt>
      <trkpt lat="45.96186" lon="6.55867">
        <ele>2396.4</ele>
        <time>2026-02-02T11:33:01Z</time>
      </trkpt>
      <trkpt lat="45.96186" lon="6.55867">
        <ele>2396.4</ele>
        <time>2026-02-02T11:33:02Z</time>
      </trkpt>
      <trkpt lat="45.96187" lon="6.55868">
        <ele>2395.9</ele>
        <time>2026-02-02T11:33:03Z</time>
      </trkpt>
      <trkpt lat="45.96187" lon="6.55869">
        <ele>2395.9</ele>
        <time>2026-02-02T11:33:04Z</time>
      </trkpt>
      <trkpt lat="45.96187" lon="6.5587">
        <ele>2395.9</ele>
        <time>2026-02-02T11:33:05Z</time>
      </trkpt>
      <trkpt lat="45.96188" lon="6.5587">
        <ele>2395.9</ele>
        <time>2026-02-02T11:33:06Z</time>
      </trkpt>
      <trkpt lat="45.96192" lon="6.55866">
        <ele>2395.7</ele>
        <time>2026-02-02T11:33:07Z</time>
      </trkpt>
      <trkpt lat="45.96192" lon="6.55866">
        <ele>2395.7</ele>
        <time>2026-02-02T11:33:08Z</time>
      </trkpt>
      <trkpt lat="45.96193" lon="6.55866">
        <ele>2395.7</ele>
        <time>2026-02-02T11:33:09Z</time>
      </trkpt>
      <trkpt lat="45.96193" lon="6.55866">
        <ele>2395.7</ele>
        <time>2026-02-02T11:33:10Z</time>
      </trkpt>
      <trkpt lat="45.96194" lon="6.55866">
        <ele>2395.7</ele>
        <time>2026-02-02T11:33:11Z</time>
      </trkpt>
      <trkpt lat="45.96194" lon="6.55863">
        <ele>2395.7</ele>
        <time>2026-02-02T11:33:12Z</time>
      </trkpt>
      <trkpt lat="45.96194" lon="6.55862">
        <ele>2396.1</ele>
        <time>2026-02-02T11:33:13Z</time>
      </trkpt>
      <trkpt lat="45.96195" lon="6.5586">
        <ele>2395.7</ele>
        <time>2026-02-02T11:33:14Z</time>
      </trkpt>
      <trkpt lat="45.96197" lon="6.55861">
        <ele>2395.7</ele>
        <time>2026-02-02T11:33:15Z</time>
      </trkpt>
      <trkpt lat="45.962" lon="6.55863">
        <ele>2395</ele>
        <time>2026-02-02T11:33:16Z</time>
      </trkpt>
      <trkpt lat="45.96202" lon="6.55863">
        <ele>2394.7</ele>
        <time>2026-02-02T11:33:17Z</time>
      </trkpt>
      <trkpt lat="45.96203" lon="6.55863">
        <ele>2394.7</ele>
        <time>2026-02-02T11:33:18Z</time>
      </trkpt>
      <trkpt lat="45.96205" lon="6.55863">
        <ele>2394.5</ele>
        <time>2026-02-02T11:33:19Z</time>
      </trkpt>
      <trkpt lat="45.96208" lon="6.55862">
        <ele>2394.5</ele>
        <time>2026-02-02T11:33:20Z</time>
      </trkpt>
      <trkpt lat="45.96209" lon="6.55861">
        <ele>2394.5</ele>
        <time>2026-02-02T11:33:21Z</time>
      </trkpt>
      <trkpt lat="45.96211" lon="6.55857">
        <ele>2394.4</ele>
        <time>2026-02-02T11:33:22Z</time>
      </trkpt>
      <trkpt lat="45.96212" lon="6.55857">
        <ele>2394.4</ele>
        <time>2026-02-02T11:33:23Z</time>
      </trkpt>
      <trkpt lat="45.96214" lon="6.55858">
        <ele>2394.1</ele>
        <time>2026-02-02T11:33:24Z</time>
      </trkpt>
      <trkpt lat="45.96213" lon="6.55857">
        <ele>2394.1</ele>
        <time>2026-02-02T11:33:25Z</time>
      </trkpt>
      <trkpt lat="45.96213" lon="6.55859">
        <ele>2394</ele>
        <time>2026-02-02T11:33:26Z</time>
      </trkpt>
      <trkpt lat="45.96213" lon="6.55858">
        <ele>2394.1</ele>
        <time>2026-02-02T11:33:27Z</time>
      </trkpt>
      <trkpt lat="45.96213" lon="6.55856">
        <ele>2394.1</ele>
        <time>2026-02-02T11:33:28Z</time>
      </trkpt>
      <trkpt lat="45.96213" lon="6.55855">
        <ele>2394.4</ele>
        <time>2026-02-02T11:33:29Z</time>
      </trkpt>
      <trkpt lat="45.96212" lon="6.55854">
        <ele>2394.4</ele>
        <time>2026-02-02T11:33:30Z</time>
      </trkpt>
      <trkpt lat="45.96213" lon="6.55854">
        <ele>2394.4</ele>
        <time>2026-02-02T11:33:31Z</time>
      </trkpt>
      <trkpt lat="45.96213" lon="6.55854">
        <ele>2394.4</ele>
        <time>2026-02-02T11:33:32Z</time>
      </trkpt>
      <trkpt lat="45.96213" lon="6.55853">
        <ele>2394.1</ele>
        <time>2026-02-02T11:33:33Z</time>
      </trkpt>
      <trkpt lat="45.96214" lon="6.55853">
        <ele>2394.1</ele>
        <time>2026-02-02T11:33:34Z</time>
      </trkpt>
      <trkpt lat="45.96214" lon="6.55849">
        <ele>2394.1</ele>
        <time>2026-02-02T11:33:35Z</time>
      </trkpt>
      <trkpt lat="45.96214" lon="6.55849">
        <ele>2394.1</ele>
        <time>2026-02-02T11:33:36Z</time>
      </trkpt>
      <trkpt lat="45.96215" lon="6.55849">
        <ele>2394.1</ele>
        <time>2026-02-02T11:33:37Z</time>
      </trkpt>
      <trkpt lat="45.96215" lon="6.55848">
        <ele>2394.1</ele>
        <time>2026-02-02T11:33:38Z</time>
      </trkpt>
      <trkpt lat="45.96215" lon="6.55848">
        <ele>2394.1</ele>
        <time>2026-02-02T11:33:39Z</time>
      </trkpt>
      <trkpt lat="45.96215" lon="6.55847">
        <ele>2394.1</ele>
        <time>2026-02-02T11:33:40Z</time>
      </trkpt>
      <trkpt lat="45.96215" lon="6.55846">
        <ele>2394.1</ele>
        <time>2026-02-02T11:33:41Z</time>
      </trkpt>
      <trkpt lat="45.96215" lon="6.55845">
        <ele>2394.1</ele>
        <time>2026-02-02T11:33:42Z</time>
      </trkpt>
      <trkpt lat="45.96216" lon="6.55845">
        <ele>2394.1</ele>
        <time>2026-02-02T11:33:43Z</time>
      </trkpt>
      <trkpt lat="45.96217" lon="6.55843">
        <ele>2393.8</ele>
        <time>2026-02-02T11:33:44Z</time>
      </trkpt>
      <trkpt lat="45.96217" lon="6.55842">
        <ele>2393.8</ele>
        <time>2026-02-02T11:33:45Z</time>
      </trkpt>
      <trkpt lat="45.96218" lon="6.55841">
        <ele>2393.7</ele>
        <time>2026-02-02T11:33:46Z</time>
      </trkpt>
      <trkpt lat="45.96219" lon="6.5584">
        <ele>2393.7</ele>
        <time>2026-02-02T11:33:47Z</time>
      </trkpt>
      <trkpt lat="45.96221" lon="6.55837">
        <ele>2393.4</ele>
        <time>2026-02-02T11:33:48Z</time>
      </trkpt>
      <trkpt lat="45.96223" lon="6.55831">
        <ele>2393</ele>
        <time>2026-02-02T11:33:49Z</time>
      </trkpt>
      <trkpt lat="45.96223" lon="6.55824">
        <ele>2393</ele>
        <time>2026-02-02T11:33:50Z</time>
      </trkpt>
      <trkpt lat="45.96221" lon="6.55818">
        <ele>2393.3</ele>
        <time>2026-02-02T11:33:51Z</time>
      </trkpt>
      <trkpt lat="45.96221" lon="6.55814">
        <ele>2393.3</ele>
        <time>2026-02-02T11:33:52Z</time>
      </trkpt>
      <trkpt lat="45.96222" lon="6.55813">
        <ele>2392.8</ele>
        <time>2026-02-02T11:33:53Z</time>
      </trkpt>
      <trkpt lat="45.96224" lon="6.55816">
        <ele>2392.9</ele>
        <time>2026-02-02T11:33:54Z</time>
      </trkpt>
      <trkpt lat="45.96224" lon="6.55815">
        <ele>2392.8</ele>
        <time>2026-02-02T11:33:55Z</time>
      </trkpt>
      <trkpt lat="45.96224" lon="6.55814">
        <ele>2392.8</ele>
        <time>2026-02-02T11:33:56Z</time>
      </trkpt>
      <trkpt lat="45.96225" lon="6.55812">
        <ele>2392.4</ele>
        <time>2026-02-02T11:33:57Z</time>
      </trkpt>
      <trkpt lat="45.96227" lon="6.55807">
        <ele>2392.4</ele>
        <time>2026-02-02T11:33:58Z</time>
      </trkpt>
      <trkpt lat="45.96228" lon="6.55804">
        <ele>2391.9</ele>
        <time>2026-02-02T11:33:59Z</time>
      </trkpt>
      <trkpt lat="45.96229" lon="6.558">
        <ele>2391.8</ele>
        <time>2026-02-02T11:34:00Z</time>
      </trkpt>
      <trkpt lat="45.96231" lon="6.55796">
        <ele>2391.7</ele>
        <time>2026-02-02T11:34:01Z</time>
      </trkpt>
      <trkpt lat="45.96231" lon="6.55795">
        <ele>2391.3</ele>
        <time>2026-02-02T11:34:02Z</time>
      </trkpt>
      <trkpt lat="45.96232" lon="6.55793">
        <ele>2391.1</ele>
        <time>2026-02-02T11:34:03Z</time>
      </trkpt>
      <trkpt lat="45.96234" lon="6.55796">
        <ele>2391</ele>
        <time>2026-02-02T11:34:04Z</time>
      </trkpt>
      <trkpt lat="45.96237" lon="6.558">
        <ele>2390.8</ele>
        <time>2026-02-02T11:34:05Z</time>
      </trkpt>
      <trkpt lat="45.96242" lon="6.55804">
        <ele>2390.6</ele>
        <time>2026-02-02T11:34:06Z</time>
      </trkpt>
      <trkpt lat="45.96248" lon="6.55805">
        <ele>2389.8</ele>
        <time>2026-02-02T11:34:07Z</time>
      </trkpt>
      <trkpt lat="45.96254" lon="6.55805">
        <ele>2388.9</ele>
        <time>2026-02-02T11:34:08Z</time>
      </trkpt>
      <trkpt lat="45.96261" lon="6.55803">
        <ele>2387.8</ele>
        <time>2026-02-02T11:34:09Z</time>
      </trkpt>
      <trkpt lat="45.96266" lon="6.55801">
        <ele>2386.9</ele>
        <time>2026-02-02T11:34:10Z</time>
      </trkpt>
      <trkpt lat="45.96272" lon="6.55801">
        <ele>2385.9</ele>
        <time>2026-02-02T11:34:11Z</time>
      </trkpt>
      <trkpt lat="45.96276" lon="6.55802">
        <ele>2384.5</ele>
        <time>2026-02-02T11:34:12Z</time>
      </trkpt>
      <trkpt lat="45.96279" lon="6.55804">
        <ele>2384.4</ele>
        <time>2026-02-02T11:34:13Z</time>
      </trkpt>
      <trkpt lat="45.96279" lon="6.55805">
        <ele>2384.4</ele>
        <time>2026-02-02T11:34:14Z</time>
      </trkpt>
      <trkpt lat="45.96279" lon="6.55805">
        <ele>2384.4</ele>
        <time>2026-02-02T11:34:15Z</time>
      </trkpt>
      <trkpt lat="45.96279" lon="6.55805">
        <ele>2384.4</ele>
        <time>2026-02-02T11:34:16Z</time>
      </trkpt>
      <trkpt lat="45.96279" lon="6.55805">
        <ele>2384.4</ele>
        <time>2026-02-02T11:34:17Z</time>
      </trkpt>
      <trkpt lat="45.9628" lon="6.55804">
        <ele>2384.4</ele>
        <time>2026-02-02T11:34:18Z</time>
      </trkpt>
      <trkpt lat="45.9628" lon="6.55804">
        <ele>2384.4</ele>
        <time>2026-02-02T11:34:19Z</time>
      </trkpt>
      <trkpt lat="45.96281" lon="6.55804">
        <ele>2384.4</ele>
        <time>2026-02-02T11:34:20Z</time>
      </trkpt>
      <trkpt lat="45.96281" lon="6.55804">
        <ele>2384.4</ele>
        <time>2026-02-02T11:34:21Z</time>
      </trkpt>
      <trkpt lat="45.96281" lon="6.55804">
        <ele>2384.4</ele>
        <time>2026-02-02T11:34:22Z</time>
      </trkpt>
      <trkpt lat="45.96281" lon="6.55804">
        <ele>2384.4</ele>
        <time>2026-02-02T11:34:23Z</time>
      </trkpt>
      <trkpt lat="45.96282" lon="6.55803">
        <ele>2383.7</ele>
        <time>2026-02-02T11:34:24Z</time>
      </trkpt>
      <trkpt lat="45.96282" lon="6.55802">
        <ele>2383.1</ele>
        <time>2026-02-02T11:34:25Z</time>
      </trkpt>
      <trkpt lat="45.96281" lon="6.558">
        <ele>2383.8</ele>
        <time>2026-02-02T11:34:26Z</time>
      </trkpt>
      <trkpt lat="45.96281" lon="6.55799">
        <ele>2383.8</ele>
        <time>2026-02-02T11:34:27Z</time>
      </trkpt>
      <trkpt lat="45.96279" lon="6.55795">
        <ele>2384</ele>
        <time>2026-02-02T11:34:28Z</time>
      </trkpt>
      <trkpt lat="45.96278" lon="6.55793">
        <ele>2383.4</ele>
        <time>2026-02-02T11:34:29Z</time>
      </trkpt>
      <trkpt lat="45.96275" lon="6.5579">
        <ele>2384.2</ele>
        <time>2026-02-02T11:34:30Z</time>
      </trkpt>
      <trkpt lat="45.96272" lon="6.55788">
        <ele>2384.4</ele>
        <time>2026-02-02T11:34:31Z</time>
      </trkpt>
      <trkpt lat="45.96269" lon="6.55787">
        <ele>2385.1</ele>
        <time>2026-02-02T11:34:32Z</time>
      </trkpt>
      <trkpt lat="45.96267" lon="6.55785">
        <ele>2385.1</ele>
        <time>2026-02-02T11:34:33Z</time>
      </trkpt>
      <trkpt lat="45.96266" lon="6.55785">
        <ele>2385.7</ele>
        <time>2026-02-02T11:34:34Z</time>
      </trkpt>
      <trkpt lat="45.96266" lon="6.55785">
        <ele>2385.3</ele>
        <time>2026-02-02T11:34:35Z</time>
      </trkpt>
      <trkpt lat="45.96265" lon="6.55784">
        <ele>2385.3</ele>
        <time>2026-02-02T11:34:36Z</time>
      </trkpt>
      <trkpt lat="45.96265" lon="6.55784">
        <ele>2385.3</ele>
        <time>2026-02-02T11:34:37Z</time>
      </trkpt>
      <trkpt lat="45.96265" lon="6.55784">
        <ele>2385.3</ele>
        <time>2026-02-02T11:34:38Z</time>
      </trkpt>
      <trkpt lat="45.96264" lon="6.55783">
        <ele>2385.3</ele>
        <time>2026-02-02T11:34:39Z</time>
      </trkpt>
      <trkpt lat="45.96264" lon="6.55783">
        <ele>2385.3</ele>
        <time>2026-02-02T11:34:40Z</time>
      </trkpt>
      <trkpt lat="45.96264" lon="6.55783">
        <ele>2385.9</ele>
        <time>2026-02-02T11:34:41Z</time>
      </trkpt>
      <trkpt lat="45.96263" lon="6.55782">
        <ele>2385.9</ele>
        <time>2026-02-02T11:34:42Z</time>
      </trkpt>
      <trkpt lat="45.96263" lon="6.55782">
        <ele>2385.9</ele>
        <time>2026-02-02T11:34:43Z</time>
      </trkpt>
      <trkpt lat="45.96263" lon="6.55782">
        <ele>2385.9</ele>
        <time>2026-02-02T11:34:44Z</time>
      </trkpt>
      <trkpt lat="45.96261" lon="6.55777">
        <ele>2385.1</ele>
        <time>2026-02-02T11:34:45Z</time>
      </trkpt>
      <trkpt lat="45.9626" lon="6.55775">
        <ele>2385.6</ele>
        <time>2026-02-02T11:34:46Z</time>
      </trkpt>
      <trkpt lat="45.96262" lon="6.55771">
        <ele>2384.7</ele>
        <time>2026-02-02T11:34:47Z</time>
      </trkpt>
      <trkpt lat="45.96263" lon="6.55766">
        <ele>2384.2</ele>
        <time>2026-02-02T11:34:48Z</time>
      </trkpt>
      <trkpt lat="45.96264" lon="6.5576">
        <ele>2383.7</ele>
        <time>2026-02-02T11:34:49Z</time>
      </trkpt>
      <trkpt lat="45.96264" lon="6.55754">
        <ele>2381.8</ele>
        <time>2026-02-02T11:34:50Z</time>
      </trkpt>
      <trkpt lat="45.96265" lon="6.55747">
        <ele>2381</ele>
        <time>2026-02-02T11:34:51Z</time>
      </trkpt>
      <trkpt lat="45.96266" lon="6.55742">
        <ele>2379.3</ele>
        <time>2026-02-02T11:34:52Z</time>
      </trkpt>
      <trkpt lat="45.96267" lon="6.55737">
        <ele>2377.8</ele>
        <time>2026-02-02T11:34:53Z</time>
      </trkpt>
      <trkpt lat="45.96271" lon="6.55735">
        <ele>2377.1</ele>
        <time>2026-02-02T11:34:54Z</time>
      </trkpt>
      <trkpt lat="45.96277" lon="6.55733">
        <ele>2374.9</ele>
        <time>2026-02-02T11:34:55Z</time>
      </trkpt>
      <trkpt lat="45.96282" lon="6.55725">
        <ele>2372.6</ele>
        <time>2026-02-02T11:34:56Z</time>
      </trkpt>
      <trkpt lat="45.96286" lon="6.55719">
        <ele>2370.4</ele>
        <time>2026-02-02T11:34:57Z</time>
      </trkpt>
      <trkpt lat="45.96289" lon="6.55715">
        <ele>2368.9</ele>
        <time>2026-02-02T11:34:58Z</time>
      </trkpt>
      <trkpt lat="45.96292" lon="6.55708">
        <ele>2366.7</ele>
        <time>2026-02-02T11:34:59Z</time>
      </trkpt>
      <trkpt lat="45.96292" lon="6.55701">
        <ele>2365.8</ele>
        <time>2026-02-02T11:35:00Z</time>
      </trkpt>
      <trkpt lat="45.96296" lon="6.55697">
        <ele>2364.4</ele>
        <time>2026-02-02T11:35:01Z</time>
      </trkpt>
      <trkpt lat="45.96302" lon="6.55692">
        <ele>2362.1</ele>
        <time>2026-02-02T11:35:02Z</time>
      </trkpt>
      <trkpt lat="45.96301" lon="6.55686">
        <ele>2360.7</ele>
        <time>2026-02-02T11:35:03Z</time>
      </trkpt>
      <trkpt lat="45.96298" lon="6.55679">
        <ele>2360.7</ele>
        <time>2026-02-02T11:35:04Z</time>
      </trkpt>
      <trkpt lat="45.963" lon="6.55671">
        <ele>2358.7</ele>
        <time>2026-02-02T11:35:05Z</time>
      </trkpt>
      <trkpt lat="45.96301" lon="6.55664">
        <ele>2357.5</ele>
        <time>2026-02-02T11:35:06Z</time>
      </trkpt>
      <trkpt lat="45.96302" lon="6.5566">
        <ele>2356.8</ele>
        <time>2026-02-02T11:35:07Z</time>
      </trkpt>
      <trkpt lat="45.96303" lon="6.55658">
        <ele>2356</ele>
        <time>2026-02-02T11:35:08Z</time>
      </trkpt>
      <trkpt lat="45.96303" lon="6.55658">
        <ele>2356</ele>
        <time>2026-02-02T11:35:09Z</time>
      </trkpt>
      <trkpt lat="45.96303" lon="6.55658">
        <ele>2356</ele>
        <time>2026-02-02T11:35:10Z</time>
      </trkpt>
      <trkpt lat="45.96303" lon="6.55659">
        <ele>2356</ele>
        <time>2026-02-02T11:35:11Z</time>
      </trkpt>
      <trkpt lat="45.96303" lon="6.55659">
        <ele>2356</ele>
        <time>2026-02-02T11:35:12Z</time>
      </trkpt>
      <trkpt lat="45.96303" lon="6.55659">
        <ele>2356</ele>
        <time>2026-02-02T11:35:13Z</time>
      </trkpt>
      <trkpt lat="45.96303" lon="6.55658">
        <ele>2356</ele>
        <time>2026-02-02T11:35:14Z</time>
      </trkpt>
      <trkpt lat="45.96304" lon="6.55657">
        <ele>2356</ele>
        <time>2026-02-02T11:35:15Z</time>
      </trkpt>
      <trkpt lat="45.96307" lon="6.55656">
        <ele>2354.4</ele>
        <time>2026-02-02T11:35:16Z</time>
      </trkpt>
      <trkpt lat="45.96309" lon="6.55656">
        <ele>2354</ele>
        <time>2026-02-02T11:35:17Z</time>
      </trkpt>
      <trkpt lat="45.96314" lon="6.55658">
        <ele>2351.7</ele>
        <time>2026-02-02T11:35:18Z</time>
      </trkpt>
      <trkpt lat="45.9632" lon="6.55652">
        <ele>2349.9</ele>
        <time>2026-02-02T11:35:19Z</time>
      </trkpt>
      <trkpt lat="45.96323" lon="6.55642">
        <ele>2346.7</ele>
        <time>2026-02-02T11:35:20Z</time>
      </trkpt>
      <trkpt lat="45.96328" lon="6.5564">
        <ele>2343.7</ele>
        <time>2026-02-02T11:35:21Z</time>
      </trkpt>
      <trkpt lat="45.96334" lon="6.55639">
        <ele>2339.1</ele>
        <time>2026-02-02T11:35:22Z</time>
      </trkpt>
      <trkpt lat="45.96333" lon="6.55628">
        <ele>2337.7</ele>
        <time>2026-02-02T11:35:23Z</time>
      </trkpt>
      <trkpt lat="45.9633" lon="6.5562">
        <ele>2338.4</ele>
        <time>2026-02-02T11:35:24Z</time>
      </trkpt>
      <trkpt lat="45.96329" lon="6.55611">
        <ele>2338.8</ele>
        <time>2026-02-02T11:35:25Z</time>
      </trkpt>
      <trkpt lat="45.96331" lon="6.55602">
        <ele>2335.7</ele>
        <time>2026-02-02T11:35:26Z</time>
      </trkpt>
      <trkpt lat="45.96333" lon="6.55592">
        <ele>2332.8</ele>
        <time>2026-02-02T11:35:27Z</time>
      </trkpt>
      <trkpt lat="45.96335" lon="6.55588">
        <ele>2332.3</ele>
        <time>2026-02-02T11:35:28Z</time>
      </trkpt>
      <trkpt lat="45.96336" lon="6.55588">
        <ele>2330.1</ele>
        <time>2026-02-02T11:35:29Z</time>
      </trkpt>
      <trkpt lat="45.96336" lon="6.55587">
        <ele>2330.1</ele>
        <time>2026-02-02T11:35:30Z</time>
      </trkpt>
      <trkpt lat="45.96336" lon="6.55587">
        <ele>2330.1</ele>
        <time>2026-02-02T11:35:31Z</time>
      </trkpt>
      <trkpt lat="45.96337" lon="6.55587">
        <ele>2330.1</ele>
        <time>2026-02-02T11:35:32Z</time>
      </trkpt>
      <trkpt lat="45.96337" lon="6.55587">
        <ele>2330.1</ele>
        <time>2026-02-02T11:35:33Z</time>
      </trkpt>
      <trkpt lat="45.96337" lon="6.55587">
        <ele>2330.1</ele>
        <time>2026-02-02T11:35:34Z</time>
      </trkpt>
      <trkpt lat="45.96337" lon="6.55587">
        <ele>2330.1</ele>
        <time>2026-02-02T11:35:35Z</time>
      </trkpt>
      <trkpt lat="45.96337" lon="6.55587">
        <ele>2330.1</ele>
        <time>2026-02-02T11:35:36Z</time>
      </trkpt>
      <trkpt lat="45.96337" lon="6.55587">
        <ele>2330.1</ele>
        <time>2026-02-02T11:35:37Z</time>
      </trkpt>
      <trkpt lat="45.96338" lon="6.55587">
        <ele>2330.1</ele>
        <time>2026-02-02T11:35:38Z</time>
      </trkpt>
      <trkpt lat="45.96338" lon="6.55587">
        <ele>2330.1</ele>
        <time>2026-02-02T11:35:39Z</time>
      </trkpt>
      <trkpt lat="45.96338" lon="6.55586">
        <ele>2330.1</ele>
        <time>2026-02-02T11:35:40Z</time>
      </trkpt>
      <trkpt lat="45.96338" lon="6.55586">
        <ele>2330.1</ele>
        <time>2026-02-02T11:35:41Z</time>
      </trkpt>
      <trkpt lat="45.96338" lon="6.55586">
        <ele>2328.4</ele>
        <time>2026-02-02T11:35:42Z</time>
      </trkpt>
      <trkpt lat="45.96338" lon="6.55586">
        <ele>2328.4</ele>
        <time>2026-02-02T11:35:43Z</time>
      </trkpt>
      <trkpt lat="45.96339" lon="6.55586">
        <ele>2328.4</ele>
        <time>2026-02-02T11:35:44Z</time>
      </trkpt>
      <trkpt lat="45.96341" lon="6.55584">
        <ele>2328.4</ele>
        <time>2026-02-02T11:35:45Z</time>
      </trkpt>
      <trkpt lat="45.96343" lon="6.5558">
        <ele>2326.4</ele>
        <time>2026-02-02T11:35:46Z</time>
      </trkpt>
      <trkpt lat="45.96345" lon="6.55575">
        <ele>2324.5</ele>
        <time>2026-02-02T11:35:47Z</time>
      </trkpt>
      <trkpt lat="45.96346" lon="6.55571">
        <ele>2324.2</ele>
        <time>2026-02-02T11:35:48Z</time>
      </trkpt>
      <trkpt lat="45.96347" lon="6.55569">
        <ele>2323.9</ele>
        <time>2026-02-02T11:35:49Z</time>
      </trkpt>
      <trkpt lat="45.96346" lon="6.5557">
        <ele>2323.9</ele>
        <time>2026-02-02T11:35:50Z</time>
      </trkpt>
      <trkpt lat="45.96346" lon="6.5557">
        <ele>2323.9</ele>
        <time>2026-02-02T11:35:51Z</time>
      </trkpt>
      <trkpt lat="45.96346" lon="6.55571">
        <ele>2323.9</ele>
        <time>2026-02-02T11:35:52Z</time>
      </trkpt>
      <trkpt lat="45.96346" lon="6.5557">
        <ele>2323.9</ele>
        <time>2026-02-02T11:35:53Z</time>
      </trkpt>
      <trkpt lat="45.96346" lon="6.5557">
        <ele>2323.9</ele>
        <time>2026-02-02T11:35:54Z</time>
      </trkpt>
      <trkpt lat="45.96346" lon="6.5557">
        <ele>2323.9</ele>
        <time>2026-02-02T11:35:55Z</time>
      </trkpt>
      <trkpt lat="45.96346" lon="6.5557">
        <ele>2323.9</ele>
        <time>2026-02-02T11:35:56Z</time>
      </trkpt>
      <trkpt lat="45.96346" lon="6.5557">
        <ele>2323.9</ele>
        <time>2026-02-02T11:35:57Z</time>
      </trkpt>
      <trkpt lat="45.96346" lon="6.5557">
        <ele>2323.9</ele>
        <time>2026-02-02T11:35:58Z</time>
      </trkpt>
      <trkpt lat="45.96346" lon="6.5557">
        <ele>2323.9</ele>
        <time>2026-02-02T11:35:59Z</time>
      </trkpt>
      <trkpt lat="45.96346" lon="6.5557">
        <ele>2323.9</ele>
        <time>2026-02-02T11:36:00Z</time>
      </trkpt>
      <trkpt lat="45.96346" lon="6.55569">
        <ele>2323.9</ele>
        <time>2026-02-02T11:36:01Z</time>
      </trkpt>
      <trkpt lat="45.96346" lon="6.55569">
        <ele>2323.9</ele>
        <time>2026-02-02T11:36:02Z</time>
      </trkpt>
      <trkpt lat="45.96346" lon="6.5557">
        <ele>2323.9</ele>
        <time>2026-02-02T11:36:03Z</time>
      </trkpt>
      <trkpt lat="45.96345" lon="6.55569">
        <ele>2323.9</ele>
        <time>2026-02-02T11:36:04Z</time>
      </trkpt>
      <trkpt lat="45.96344" lon="6.55569">
        <ele>2323.9</ele>
        <time>2026-02-02T11:36:05Z</time>
      </trkpt>
      <trkpt lat="45.96344" lon="6.55569">
        <ele>2323.9</ele>
        <time>2026-02-02T11:36:06Z</time>
      </trkpt>
      <trkpt lat="45.96344" lon="6.55569">
        <ele>2323.9</ele>
        <time>2026-02-02T11:36:07Z</time>
      </trkpt>
      <trkpt lat="45.96343" lon="6.55571">
        <ele>2325.3</ele>
        <time>2026-02-02T11:36:08Z</time>
      </trkpt>
      <trkpt lat="45.96345" lon="6.55572">
        <ele>2324.2</ele>
        <time>2026-02-02T11:36:09Z</time>
      </trkpt>
      <trkpt lat="45.96344" lon="6.55572">
        <ele>2324.2</ele>
        <time>2026-02-02T11:36:10Z</time>
      </trkpt>
      <trkpt lat="45.96344" lon="6.55572">
        <ele>2324.2</ele>
        <time>2026-02-02T11:36:11Z</time>
      </trkpt>
      <trkpt lat="45.96346" lon="6.5557">
        <ele>2323.9</ele>
        <time>2026-02-02T11:36:12Z</time>
      </trkpt>
      <trkpt lat="45.96344" lon="6.55571">
        <ele>2324.2</ele>
        <time>2026-02-02T11:36:13Z</time>
      </trkpt>
      <trkpt lat="45.96344" lon="6.55572">
        <ele>2324.2</ele>
        <time>2026-02-02T11:36:14Z</time>
      </trkpt>
      <trkpt lat="45.96345" lon="6.55569">
        <ele>2323.9</ele>
        <time>2026-02-02T11:36:15Z</time>
      </trkpt>
      <trkpt lat="45.96345" lon="6.55569">
        <ele>2323.9</ele>
        <time>2026-02-02T11:36:16Z</time>
      </trkpt>
      <trkpt lat="45.96345" lon="6.55569">
        <ele>2323.9</ele>
        <time>2026-02-02T11:36:17Z</time>
      </trkpt>
      <trkpt lat="45.96345" lon="6.55569">
        <ele>2323.9</ele>
        <time>2026-02-02T11:36:18Z</time>
      </trkpt>
      <trkpt lat="45.96345" lon="6.55569">
        <ele>2323.9</ele>
        <time>2026-02-02T11:36:19Z</time>
      </trkpt>
      <trkpt lat="45.96345" lon="6.55569">
        <ele>2323.9</ele>
        <time>2026-02-02T11:36:20Z</time>
      </trkpt>
      <trkpt lat="45.96345" lon="6.55569">
        <ele>2323.9</ele>
        <time>2026-02-02T11:36:21Z</time>
      </trkpt>
      <trkpt lat="45.96345" lon="6.55569">
        <ele>2323.9</ele>
        <time>2026-02-02T11:36:22Z</time>
      </trkpt>
      <trkpt lat="45.96345" lon="6.55569">
        <ele>2323.9</ele>
        <time>2026-02-02T11:36:23Z</time>
      </trkpt>
      <trkpt lat="45.96345" lon="6.55569">
        <ele>2323.9</ele>
        <time>2026-02-02T11:36:24Z</time>
      </trkpt>
      <trkpt lat="45.96345" lon="6.55569">
        <ele>2323.9</ele>
        <time>2026-02-02T11:36:25Z</time>
      </trkpt>
      <trkpt lat="45.96346" lon="6.55569">
        <ele>2323.9</ele>
        <time>2026-02-02T11:36:26Z</time>
      </trkpt>
      <trkpt lat="45.96346" lon="6.55568">
        <ele>2323.9</ele>
        <time>2026-02-02T11:36:27Z</time>
      </trkpt>
      <trkpt lat="45.96346" lon="6.55569">
        <ele>2323.9</ele>
        <time>2026-02-02T11:36:28Z</time>
      </trkpt>
      <trkpt lat="45.96346" lon="6.55569">
        <ele>2323.9</ele>
        <time>2026-02-02T11:36:29Z</time>
      </trkpt>
      <trkpt lat="45.96346" lon="6.55567">
        <ele>2323.9</ele>
        <time>2026-02-02T11:36:30Z</time>
      </trkpt>
      <trkpt lat="45.96346" lon="6.55567">
        <ele>2323.9</ele>
        <time>2026-02-02T11:36:31Z</time>
      </trkpt>
      <trkpt lat="45.96346" lon="6.55567">
        <ele>2323.9</ele>
        <time>2026-02-02T11:36:32Z</time>
      </trkpt>
      <trkpt lat="45.96346" lon="6.55567">
        <ele>2323.9</ele>
        <time>2026-02-02T11:36:33Z</time>
      </trkpt>
      <trkpt lat="45.96346" lon="6.55567">
        <ele>2323.9</ele>
        <time>2026-02-02T11:36:34Z</time>
      </trkpt>
      <trkpt lat="45.96346" lon="6.55567">
        <ele>2323.9</ele>
        <time>2026-02-02T11:36:35Z</time>
      </trkpt>
      <trkpt lat="45.96346" lon="6.55567">
        <ele>2323.9</ele>
        <time>2026-02-02T11:36:36Z</time>
      </trkpt>
      <trkpt lat="45.96346" lon="6.55567">
        <ele>2323.9</ele>
        <time>2026-02-02T11:36:37Z</time>
      </trkpt>
      <trkpt lat="45.96346" lon="6.55567">
        <ele>2323.9</ele>
        <time>2026-02-02T11:36:38Z</time>
      </trkpt>
      <trkpt lat="45.96346" lon="6.55567">
        <ele>2323.9</ele>
        <time>2026-02-02T11:36:39Z</time>
      </trkpt>
      <trkpt lat="45.96346" lon="6.55567">
        <ele>2323.9</ele>
        <time>2026-02-02T11:36:40Z</time>
      </trkpt>
      <trkpt lat="45.96346" lon="6.55568">
        <ele>2323.9</ele>
        <time>2026-02-02T11:36:41Z</time>
      </trkpt>
      <trkpt lat="45.96347" lon="6.55568">
        <ele>2323.9</ele>
        <time>2026-02-02T11:36:42Z</time>
      </trkpt>
      <trkpt lat="45.96349" lon="6.55568">
        <ele>2322.4</ele>
        <time>2026-02-02T11:36:43Z</time>
      </trkpt>
      <trkpt lat="45.96351" lon="6.55572">
        <ele>2321</ele>
        <time>2026-02-02T11:36:44Z</time>
      </trkpt>
      <trkpt lat="45.96352" lon="6.55576">
        <ele>2321.3</ele>
        <time>2026-02-02T11:36:45Z</time>
      </trkpt>
      <trkpt lat="45.96354" lon="6.5558">
        <ele>2319.7</ele>
        <time>2026-02-02T11:36:46Z</time>
      </trkpt>
      <trkpt lat="45.96356" lon="6.55585">
        <ele>2320</ele>
        <time>2026-02-02T11:36:47Z</time>
      </trkpt>
      <trkpt lat="45.96357" lon="6.55586">
        <ele>2318.1</ele>
        <time>2026-02-02T11:36:48Z</time>
      </trkpt>
      <trkpt lat="45.96357" lon="6.55586">
        <ele>2318.1</ele>
        <time>2026-02-02T11:36:49Z</time>
      </trkpt>
      <trkpt lat="45.96358" lon="6.55585">
        <ele>2318.1</ele>
        <time>2026-02-02T11:36:50Z</time>
      </trkpt>
      <trkpt lat="45.9636" lon="6.55582">
        <ele>2316</ele>
        <time>2026-02-02T11:36:51Z</time>
      </trkpt>
      <trkpt lat="45.96359" lon="6.55578">
        <ele>2315.9</ele>
        <time>2026-02-02T11:36:52Z</time>
      </trkpt>
      <trkpt lat="45.9636" lon="6.55572">
        <ele>2315.8</ele>
        <time>2026-02-02T11:36:53Z</time>
      </trkpt>
      <trkpt lat="45.96359" lon="6.5557">
        <ele>2315.7</ele>
        <time>2026-02-02T11:36:54Z</time>
      </trkpt>
      <trkpt lat="45.96361" lon="6.55566">
        <ele>2315.6</ele>
        <time>2026-02-02T11:36:55Z</time>
      </trkpt>
      <trkpt lat="45.96362" lon="6.55565">
        <ele>2315.6</ele>
        <time>2026-02-02T11:36:56Z</time>
      </trkpt>
      <trkpt lat="45.96365" lon="6.55564">
        <ele>2313.9</ele>
        <time>2026-02-02T11:36:57Z</time>
      </trkpt>
      <trkpt lat="45.96366" lon="6.55563">
        <ele>2312.3</ele>
        <time>2026-02-02T11:36:58Z</time>
      </trkpt>
      <trkpt lat="45.96367" lon="6.55563">
        <ele>2312.3</ele>
        <time>2026-02-02T11:36:59Z</time>
      </trkpt>
      <trkpt lat="45.9637" lon="6.5556">
        <ele>2310.7</ele>
        <time>2026-02-02T11:37:00Z</time>
      </trkpt>
      <trkpt lat="45.96373" lon="6.55557">
        <ele>2309.3</ele>
        <time>2026-02-02T11:37:01Z</time>
      </trkpt>
      <trkpt lat="45.96374" lon="6.55553">
        <ele>2308.1</ele>
        <time>2026-02-02T11:37:02Z</time>
      </trkpt>
      <trkpt lat="45.96374" lon="6.55547">
        <ele>2309.6</ele>
        <time>2026-02-02T11:37:03Z</time>
      </trkpt>
      <trkpt lat="45.96374" lon="6.55542">
        <ele>2309.7</ele>
        <time>2026-02-02T11:37:04Z</time>
      </trkpt>
      <trkpt lat="45.96375" lon="6.55534">
        <ele>2309</ele>
        <time>2026-02-02T11:37:05Z</time>
      </trkpt>
      <trkpt lat="45.96376" lon="6.55528">
        <ele>2309.3</ele>
        <time>2026-02-02T11:37:06Z</time>
      </trkpt>
      <trkpt lat="45.96379" lon="6.55526">
        <ele>2308.6</ele>
        <time>2026-02-02T11:37:07Z</time>
      </trkpt>
      <trkpt lat="45.96381" lon="6.55526">
        <ele>2307.5</ele>
        <time>2026-02-02T11:37:08Z</time>
      </trkpt>
      <trkpt lat="45.96387" lon="6.55526">
        <ele>2305.2</ele>
        <time>2026-02-02T11:37:09Z</time>
      </trkpt>
      <trkpt lat="45.96394" lon="6.55524">
        <ele>2302.7</ele>
        <time>2026-02-02T11:37:10Z</time>
      </trkpt>
      <trkpt lat="45.96397" lon="6.55519">
        <ele>2302.8</ele>
        <time>2026-02-02T11:37:11Z</time>
      </trkpt>
      <trkpt lat="45.96399" lon="6.55515">
        <ele>2302.5</ele>
        <time>2026-02-02T11:37:12Z</time>
      </trkpt>
      <trkpt lat="45.964" lon="6.55514">
        <ele>2302.5</ele>
        <time>2026-02-02T11:37:13Z</time>
      </trkpt>
      <trkpt lat="45.96402" lon="6.5551">
        <ele>2302.3</ele>
        <time>2026-02-02T11:37:14Z</time>
      </trkpt>
      <trkpt lat="45.96403" lon="6.55506">
        <ele>2302.8</ele>
        <time>2026-02-02T11:37:15Z</time>
      </trkpt>
      <trkpt lat="45.96403" lon="6.55506">
        <ele>2302.8</ele>
        <time>2026-02-02T11:37:16Z</time>
      </trkpt>
      <trkpt lat="45.96403" lon="6.55506">
        <ele>2302.8</ele>
        <time>2026-02-02T11:37:17Z</time>
      </trkpt>
      <trkpt lat="45.96404" lon="6.55506">
        <ele>2302.3</ele>
        <time>2026-02-02T11:37:18Z</time>
      </trkpt>
      <trkpt lat="45.96404" lon="6.55507">
        <ele>2302.3</ele>
        <time>2026-02-02T11:37:19Z</time>
      </trkpt>
      <trkpt lat="45.96404" lon="6.55507">
        <ele>2301.4</ele>
        <time>2026-02-02T11:37:20Z</time>
      </trkpt>
      <trkpt lat="45.96404" lon="6.55507">
        <ele>2301.4</ele>
        <time>2026-02-02T11:37:21Z</time>
      </trkpt>
      <trkpt lat="45.96404" lon="6.55508">
        <ele>2301.4</ele>
        <time>2026-02-02T11:37:22Z</time>
      </trkpt>
      <trkpt lat="45.96405" lon="6.55508">
        <ele>2301.4</ele>
        <time>2026-02-02T11:37:23Z</time>
      </trkpt>
      <trkpt lat="45.96405" lon="6.55509">
        <ele>2301.4</ele>
        <time>2026-02-02T11:37:24Z</time>
      </trkpt>
      <trkpt lat="45.96405" lon="6.55509">
        <ele>2301.4</ele>
        <time>2026-02-02T11:37:25Z</time>
      </trkpt>
      <trkpt lat="45.96405" lon="6.55509">
        <ele>2301.4</ele>
        <time>2026-02-02T11:37:26Z</time>
      </trkpt>
      <trkpt lat="45.96405" lon="6.5551">
        <ele>2301.4</ele>
        <time>2026-02-02T11:37:27Z</time>
      </trkpt>
      <trkpt lat="45.96406" lon="6.5551">
        <ele>2301.4</ele>
        <time>2026-02-02T11:37:28Z</time>
      </trkpt>
      <trkpt lat="45.96406" lon="6.5551">
        <ele>2301.4</ele>
        <time>2026-02-02T11:37:29Z</time>
      </trkpt>
      <trkpt lat="45.96406" lon="6.55511">
        <ele>2300.8</ele>
        <time>2026-02-02T11:37:30Z</time>
      </trkpt>
      <trkpt lat="45.96407" lon="6.55515">
        <ele>2299.2</ele>
        <time>2026-02-02T11:37:31Z</time>
      </trkpt>
      <trkpt lat="45.96408" lon="6.55515">
        <ele>2299.2</ele>
        <time>2026-02-02T11:37:32Z</time>
      </trkpt>
      <trkpt lat="45.96409" lon="6.55518">
        <ele>2299.2</ele>
        <time>2026-02-02T11:37:33Z</time>
      </trkpt>
      <trkpt lat="45.96409" lon="6.55519">
        <ele>2298.5</ele>
        <time>2026-02-02T11:37:34Z</time>
      </trkpt>
      <trkpt lat="45.96409" lon="6.5552">
        <ele>2298.5</ele>
        <time>2026-02-02T11:37:35Z</time>
      </trkpt>
      <trkpt lat="45.96409" lon="6.55523">
        <ele>2298.5</ele>
        <time>2026-02-02T11:37:36Z</time>
      </trkpt>
      <trkpt lat="45.96409" lon="6.55525">
        <ele>2297.7</ele>
        <time>2026-02-02T11:37:37Z</time>
      </trkpt>
      <trkpt lat="45.96409" lon="6.55525">
        <ele>2297.7</ele>
        <time>2026-02-02T11:37:38Z</time>
      </trkpt>
      <trkpt lat="45.96409" lon="6.55525">
        <ele>2297.7</ele>
        <time>2026-02-02T11:37:39Z</time>
      </trkpt>
      <trkpt lat="45.96412" lon="6.55525">
        <ele>2296.7</ele>
        <time>2026-02-02T11:37:40Z</time>
      </trkpt>
      <trkpt lat="45.96415" lon="6.55522">
        <ele>2296.4</ele>
        <time>2026-02-02T11:37:41Z</time>
      </trkpt>
      <trkpt lat="45.96418" lon="6.55519">
        <ele>2296.1</ele>
        <time>2026-02-02T11:37:42Z</time>
      </trkpt>
      <trkpt lat="45.96421" lon="6.55516">
        <ele>2294.9</ele>
        <time>2026-02-02T11:37:43Z</time>
      </trkpt>
      <trkpt lat="45.96423" lon="6.55513">
        <ele>2294.6</ele>
        <time>2026-02-02T11:37:44Z</time>
      </trkpt>
      <trkpt lat="45.96426" lon="6.55511">
        <ele>2293.5</ele>
        <time>2026-02-02T11:37:45Z</time>
      </trkpt>
      <trkpt lat="45.96429" lon="6.55508">
        <ele>2293.1</ele>
        <time>2026-02-02T11:37:46Z</time>
      </trkpt>
      <trkpt lat="45.96432" lon="6.55505">
        <ele>2292.5</ele>
        <time>2026-02-02T11:37:47Z</time>
      </trkpt>
      <trkpt lat="45.96435" lon="6.55503">
        <ele>2291.3</ele>
        <time>2026-02-02T11:37:48Z</time>
      </trkpt>
      <trkpt lat="45.96438" lon="6.55503">
        <ele>2290</ele>
        <time>2026-02-02T11:37:49Z</time>
      </trkpt>
      <trkpt lat="45.96441" lon="6.55502">
        <ele>2288.7</ele>
        <time>2026-02-02T11:37:50Z</time>
      </trkpt>
      <trkpt lat="45.96445" lon="6.55501">
        <ele>2287.7</ele>
        <time>2026-02-02T11:37:51Z</time>
      </trkpt>
      <trkpt lat="45.96447" lon="6.55501">
        <ele>2286.3</ele>
        <time>2026-02-02T11:37:52Z</time>
      </trkpt>
      <trkpt lat="45.96447" lon="6.55502">
        <ele>2286.3</ele>
        <time>2026-02-02T11:37:53Z</time>
      </trkpt>
      <trkpt lat="45.96447" lon="6.55502">
        <ele>2285.8</ele>
        <time>2026-02-02T11:37:54Z</time>
      </trkpt>
      <trkpt lat="45.96447" lon="6.55503">
        <ele>2285.8</ele>
        <time>2026-02-02T11:37:55Z</time>
      </trkpt>
      <trkpt lat="45.96447" lon="6.55503">
        <ele>2285.8</ele>
        <time>2026-02-02T11:37:56Z</time>
      </trkpt>
      <trkpt lat="45.96447" lon="6.55504">
        <ele>2285.8</ele>
        <time>2026-02-02T11:37:57Z</time>
      </trkpt>
      <trkpt lat="45.96447" lon="6.55504">
        <ele>2285.8</ele>
        <time>2026-02-02T11:37:58Z</time>
      </trkpt>
      <trkpt lat="45.96447" lon="6.55505">
        <ele>2285.8</ele>
        <time>2026-02-02T11:37:59Z</time>
      </trkpt>
      <trkpt lat="45.96448" lon="6.55505">
        <ele>2285.8</ele>
        <time>2026-02-02T11:38:00Z</time>
      </trkpt>
      <trkpt lat="45.96448" lon="6.55506">
        <ele>2285.8</ele>
        <time>2026-02-02T11:38:01Z</time>
      </trkpt>
      <trkpt lat="45.96448" lon="6.55506">
        <ele>2285.2</ele>
        <time>2026-02-02T11:38:02Z</time>
      </trkpt>
      <trkpt lat="45.96446" lon="6.55509">
        <ele>2285.2</ele>
        <time>2026-02-02T11:38:03Z</time>
      </trkpt>
      <trkpt lat="45.96443" lon="6.55511">
        <ele>2286</ele>
        <time>2026-02-02T11:38:04Z</time>
      </trkpt>
      <trkpt lat="45.96443" lon="6.55512">
        <ele>2286</ele>
        <time>2026-02-02T11:38:05Z</time>
      </trkpt>
      <trkpt lat="45.96444" lon="6.55512">
        <ele>2286</ele>
        <time>2026-02-02T11:38:06Z</time>
      </trkpt>
      <trkpt lat="45.96446" lon="6.55514">
        <ele>2284.5</ele>
        <time>2026-02-02T11:38:07Z</time>
      </trkpt>
      <trkpt lat="45.96449" lon="6.55514">
        <ele>2283.1</ele>
        <time>2026-02-02T11:38:08Z</time>
      </trkpt>
      <trkpt lat="45.9645" lon="6.55515">
        <ele>2283.1</ele>
        <time>2026-02-02T11:38:09Z</time>
      </trkpt>
      <trkpt lat="45.96451" lon="6.55516">
        <ele>2282.3</ele>
        <time>2026-02-02T11:38:10Z</time>
      </trkpt>
      <trkpt lat="45.96451" lon="6.55517">
        <ele>2282.3</ele>
        <time>2026-02-02T11:38:11Z</time>
      </trkpt>
      <trkpt lat="45.96452" lon="6.55518">
        <ele>2280.9</ele>
        <time>2026-02-02T11:38:12Z</time>
      </trkpt>
      <trkpt lat="45.96452" lon="6.55519">
        <ele>2280</ele>
        <time>2026-02-02T11:38:13Z</time>
      </trkpt>
      <trkpt lat="45.9645" lon="6.55522">
        <ele>2281.5</ele>
        <time>2026-02-02T11:38:14Z</time>
      </trkpt>
      <trkpt lat="45.96447" lon="6.55526">
        <ele>2282</ele>
        <time>2026-02-02T11:38:15Z</time>
      </trkpt>
      <trkpt lat="45.96447" lon="6.55527">
        <ele>2282</ele>
        <time>2026-02-02T11:38:16Z</time>
      </trkpt>
      <trkpt lat="45.96444" lon="6.55531">
        <ele>2282.5</ele>
        <time>2026-02-02T11:38:17Z</time>
      </trkpt>
      <trkpt lat="45.96443" lon="6.55532">
        <ele>2282.5</ele>
        <time>2026-02-02T11:38:18Z</time>
      </trkpt>
      <trkpt lat="45.96442" lon="6.55534">
        <ele>2283</ele>
        <time>2026-02-02T11:38:19Z</time>
      </trkpt>
      <trkpt lat="45.96442" lon="6.55535">
        <ele>2283</ele>
        <time>2026-02-02T11:38:20Z</time>
      </trkpt>
      <trkpt lat="45.96442" lon="6.55535">
        <ele>2283</ele>
        <time>2026-02-02T11:38:21Z</time>
      </trkpt>
      <trkpt lat="45.96442" lon="6.55536">
        <ele>2283</ele>
        <time>2026-02-02T11:38:22Z</time>
      </trkpt>
      <trkpt lat="45.96442" lon="6.55536">
        <ele>2283</ele>
        <time>2026-02-02T11:38:23Z</time>
      </trkpt>
      <trkpt lat="45.96442" lon="6.55537">
        <ele>2281.9</ele>
        <time>2026-02-02T11:38:24Z</time>
      </trkpt>
      <trkpt lat="45.96442" lon="6.55537">
        <ele>2281.9</ele>
        <time>2026-02-02T11:38:25Z</time>
      </trkpt>
      <trkpt lat="45.96441" lon="6.55541">
        <ele>2280.8</ele>
        <time>2026-02-02T11:38:26Z</time>
      </trkpt>
      <trkpt lat="45.9644" lon="6.55545">
        <ele>2281.2</ele>
        <time>2026-02-02T11:38:27Z</time>
      </trkpt>
      <trkpt lat="45.96439" lon="6.55549">
        <ele>2281.2</ele>
        <time>2026-02-02T11:38:28Z</time>
      </trkpt>
      <trkpt lat="45.96438" lon="6.55556">
        <ele>2279.1</ele>
        <time>2026-02-02T11:38:29Z</time>
      </trkpt>
      <trkpt lat="45.96437" lon="6.55565">
        <ele>2277.1</ele>
        <time>2026-02-02T11:38:30Z</time>
      </trkpt>
      <trkpt lat="45.96437" lon="6.55573">
        <ele>2275.4</ele>
        <time>2026-02-02T11:38:31Z</time>
      </trkpt>
      <trkpt lat="45.9644" lon="6.55574">
        <ele>2275.4</ele>
        <time>2026-02-02T11:38:32Z</time>
      </trkpt>
      <trkpt lat="45.9644" lon="6.55574">
        <ele>2273.9</ele>
        <time>2026-02-02T11:38:33Z</time>
      </trkpt>
      <trkpt lat="45.9644" lon="6.55573">
        <ele>2273.9</ele>
        <time>2026-02-02T11:38:34Z</time>
      </trkpt>
      <trkpt lat="45.96441" lon="6.55572">
        <ele>2273.9</ele>
        <time>2026-02-02T11:38:35Z</time>
      </trkpt>
      <trkpt lat="45.96441" lon="6.55571">
        <ele>2273.9</ele>
        <time>2026-02-02T11:38:36Z</time>
      </trkpt>
      <trkpt lat="45.96441" lon="6.5557">
        <ele>2274.7</ele>
        <time>2026-02-02T11:38:37Z</time>
      </trkpt>
      <trkpt lat="45.96445" lon="6.55567">
        <ele>2273.2</ele>
        <time>2026-02-02T11:38:38Z</time>
      </trkpt>
      <trkpt lat="45.96448" lon="6.55562">
        <ele>2272.6</ele>
        <time>2026-02-02T11:38:39Z</time>
      </trkpt>
      <trkpt lat="45.9645" lon="6.55558">
        <ele>2272.3</ele>
        <time>2026-02-02T11:38:40Z</time>
      </trkpt>
      <trkpt lat="45.96452" lon="6.55555">
        <ele>2272</ele>
        <time>2026-02-02T11:38:41Z</time>
      </trkpt>
      <trkpt lat="45.96454" lon="6.55552">
        <ele>2273</ele>
        <time>2026-02-02T11:38:42Z</time>
      </trkpt>
      <trkpt lat="45.96458" lon="6.55549">
        <ele>2270.6</ele>
        <time>2026-02-02T11:38:43Z</time>
      </trkpt>
      <trkpt lat="45.96459" lon="6.55548">
        <ele>2271.6</ele>
        <time>2026-02-02T11:38:44Z</time>
      </trkpt>
      <trkpt lat="45.96462" lon="6.55546">
        <ele>2270.4</ele>
        <time>2026-02-02T11:38:45Z</time>
      </trkpt>
      <trkpt lat="45.96463" lon="6.55546">
        <ele>2270.4</ele>
        <time>2026-02-02T11:38:46Z</time>
      </trkpt>
      <trkpt lat="45.96466" lon="6.55543">
        <ele>2270.2</ele>
        <time>2026-02-02T11:38:47Z</time>
      </trkpt>
      <trkpt lat="45.96467" lon="6.55543">
        <ele>2269</ele>
        <time>2026-02-02T11:38:48Z</time>
      </trkpt>
      <trkpt lat="45.96471" lon="6.55543">
        <ele>2267.7</ele>
        <time>2026-02-02T11:38:49Z</time>
      </trkpt>
      <trkpt lat="45.96472" lon="6.55544">
        <ele>2267.7</ele>
        <time>2026-02-02T11:38:50Z</time>
      </trkpt>
      <trkpt lat="45.96475" lon="6.55545">
        <ele>2266.4</ele>
        <time>2026-02-02T11:38:51Z</time>
      </trkpt>
      <trkpt lat="45.96476" lon="6.55545">
        <ele>2265.1</ele>
        <time>2026-02-02T11:38:52Z</time>
      </trkpt>
      <trkpt lat="45.96478" lon="6.55545">
        <ele>2264.2</ele>
        <time>2026-02-02T11:38:53Z</time>
      </trkpt>
      <trkpt lat="45.96479" lon="6.55545">
        <ele>2262.9</ele>
        <time>2026-02-02T11:38:54Z</time>
      </trkpt>
      <trkpt lat="45.96481" lon="6.55546">
        <ele>2262.9</ele>
        <time>2026-02-02T11:38:55Z</time>
      </trkpt>
      <trkpt lat="45.96483" lon="6.55547">
        <ele>2261.7</ele>
        <time>2026-02-02T11:38:56Z</time>
      </trkpt>
      <trkpt lat="45.96483" lon="6.55552">
        <ele>2260.7</ele>
        <time>2026-02-02T11:38:57Z</time>
      </trkpt>
      <trkpt lat="45.96483" lon="6.55554">
        <ele>2259.7</ele>
        <time>2026-02-02T11:38:58Z</time>
      </trkpt>
      <trkpt lat="45.96479" lon="6.55558">
        <ele>2259.8</ele>
        <time>2026-02-02T11:38:59Z</time>
      </trkpt>
      <trkpt lat="45.96477" lon="6.55562">
        <ele>2260</ele>
        <time>2026-02-02T11:39:00Z</time>
      </trkpt>
      <trkpt lat="45.96474" lon="6.55566">
        <ele>2260.4</ele>
        <time>2026-02-02T11:39:01Z</time>
      </trkpt>
      <trkpt lat="45.96472" lon="6.55571">
        <ele>2260.7</ele>
        <time>2026-02-02T11:39:02Z</time>
      </trkpt>
      <trkpt lat="45.9647" lon="6.55575">
        <ele>2259.9</ele>
        <time>2026-02-02T11:39:03Z</time>
      </trkpt>
      <trkpt lat="45.96469" lon="6.5558">
        <ele>2260.3</ele>
        <time>2026-02-02T11:39:04Z</time>
      </trkpt>
      <trkpt lat="45.96468" lon="6.55585">
        <ele>2259.6</ele>
        <time>2026-02-02T11:39:05Z</time>
      </trkpt>
      <trkpt lat="45.96467" lon="6.55591">
        <ele>2259</ele>
        <time>2026-02-02T11:39:06Z</time>
      </trkpt>
      <trkpt lat="45.96467" lon="6.55596">
        <ele>2258.4</ele>
        <time>2026-02-02T11:39:07Z</time>
      </trkpt>
      <trkpt lat="45.96468" lon="6.55601">
        <ele>2257.7</ele>
        <time>2026-02-02T11:39:08Z</time>
      </trkpt>
      <trkpt lat="45.9647" lon="6.55605">
        <ele>2256.2</ele>
        <time>2026-02-02T11:39:09Z</time>
      </trkpt>
      <trkpt lat="45.96472" lon="6.55611">
        <ele>2256.1</ele>
        <time>2026-02-02T11:39:10Z</time>
      </trkpt>
      <trkpt lat="45.96474" lon="6.55618">
        <ele>2254.7</ele>
        <time>2026-02-02T11:39:11Z</time>
      </trkpt>
      <trkpt lat="45.96477" lon="6.55626">
        <ele>2253.7</ele>
        <time>2026-02-02T11:39:12Z</time>
      </trkpt>
      <trkpt lat="45.9648" lon="6.55634">
        <ele>2253</ele>
        <time>2026-02-02T11:39:13Z</time>
      </trkpt>
      <trkpt lat="45.96484" lon="6.5564">
        <ele>2252.6</ele>
        <time>2026-02-02T11:39:14Z</time>
      </trkpt>
      <trkpt lat="45.96488" lon="6.55646">
        <ele>2250.7</ele>
        <time>2026-02-02T11:39:15Z</time>
      </trkpt>
      <trkpt lat="45.96494" lon="6.55652">
        <ele>2249.2</ele>
        <time>2026-02-02T11:39:16Z</time>
      </trkpt>
      <trkpt lat="45.965" lon="6.55659">
        <ele>2246.5</ele>
        <time>2026-02-02T11:39:17Z</time>
      </trkpt>
      <trkpt lat="45.96505" lon="6.55664">
        <ele>2243.8</ele>
        <time>2026-02-02T11:39:18Z</time>
      </trkpt>
      <trkpt lat="45.96511" lon="6.55668">
        <ele>2243.1</ele>
        <time>2026-02-02T11:39:19Z</time>
      </trkpt>
      <trkpt lat="45.96517" lon="6.5567">
        <ele>2239.5</ele>
        <time>2026-02-02T11:39:20Z</time>
      </trkpt>
      <trkpt lat="45.96523" lon="6.55673">
        <ele>2238</ele>
        <time>2026-02-02T11:39:21Z</time>
      </trkpt>
      <trkpt lat="45.96529" lon="6.55677">
        <ele>2235.4</ele>
        <time>2026-02-02T11:39:22Z</time>
      </trkpt>
      <trkpt lat="45.96535" lon="6.55681">
        <ele>2233</ele>
        <time>2026-02-02T11:39:23Z</time>
      </trkpt>
      <trkpt lat="45.96541" lon="6.55684">
        <ele>2229.5</ele>
        <time>2026-02-02T11:39:24Z</time>
      </trkpt>
      <trkpt lat="45.96548" lon="6.55688">
        <ele>2227.9</ele>
        <time>2026-02-02T11:39:25Z</time>
      </trkpt>
      <trkpt lat="45.96554" lon="6.55691">
        <ele>2226.3</ele>
        <time>2026-02-02T11:39:26Z</time>
      </trkpt>
      <trkpt lat="45.96561" lon="6.55693">
        <ele>2223.5</ele>
        <time>2026-02-02T11:39:27Z</time>
      </trkpt>
      <trkpt lat="45.96569" lon="6.55695">
        <ele>2219.6</ele>
        <time>2026-02-02T11:39:28Z</time>
      </trkpt>
      <trkpt lat="45.96575" lon="6.55696">
        <ele>2218.8</ele>
        <time>2026-02-02T11:39:29Z</time>
      </trkpt>
      <trkpt lat="45.96583" lon="6.55692">
        <ele>2213.5</ele>
        <time>2026-02-02T11:39:30Z</time>
      </trkpt>
      <trkpt lat="45.96591" lon="6.55686">
        <ele>2208.6</ele>
        <time>2026-02-02T11:39:31Z</time>
      </trkpt>
      <trkpt lat="45.96601" lon="6.55681">
        <ele>2203.4</ele>
        <time>2026-02-02T11:39:32Z</time>
      </trkpt>
      <trkpt lat="45.9661" lon="6.55681">
        <ele>2200</ele>
        <time>2026-02-02T11:39:33Z</time>
      </trkpt>
      <trkpt lat="45.96618" lon="6.55683">
        <ele>2198.9</ele>
        <time>2026-02-02T11:39:34Z</time>
      </trkpt>
      <trkpt lat="45.96622" lon="6.55687">
        <ele>2198.2</ele>
        <time>2026-02-02T11:39:35Z</time>
      </trkpt>
      <trkpt lat="45.96624" lon="6.55687">
        <ele>2198.2</ele>
        <time>2026-02-02T11:39:36Z</time>
      </trkpt>
      <trkpt lat="45.96625" lon="6.55687">
        <ele>2197.4</ele>
        <time>2026-02-02T11:39:37Z</time>
      </trkpt>
      <trkpt lat="45.96625" lon="6.55687">
        <ele>2197.4</ele>
        <time>2026-02-02T11:39:38Z</time>
      </trkpt>
      <trkpt lat="45.96625" lon="6.55687">
        <ele>2197.4</ele>
        <time>2026-02-02T11:39:39Z</time>
      </trkpt>
      <trkpt lat="45.96626" lon="6.55687">
        <ele>2197.4</ele>
        <time>2026-02-02T11:39:40Z</time>
      </trkpt>
      <trkpt lat="45.96626" lon="6.55687">
        <ele>2197.4</ele>
        <time>2026-02-02T11:39:41Z</time>
      </trkpt>
      <trkpt lat="45.96626" lon="6.55687">
        <ele>2197.4</ele>
        <time>2026-02-02T11:39:42Z</time>
      </trkpt>
      <trkpt lat="45.96626" lon="6.55687">
        <ele>2197.4</ele>
        <time>2026-02-02T11:39:43Z</time>
      </trkpt>
      <trkpt lat="45.96627" lon="6.55688">
        <ele>2197.4</ele>
        <time>2026-02-02T11:39:44Z</time>
      </trkpt>
      <trkpt lat="45.96627" lon="6.55688">
        <ele>2197.4</ele>
        <time>2026-02-02T11:39:45Z</time>
      </trkpt>
      <trkpt lat="45.96627" lon="6.55688">
        <ele>2197.4</ele>
        <time>2026-02-02T11:39:46Z</time>
      </trkpt>
      <trkpt lat="45.96627" lon="6.55688">
        <ele>2197.4</ele>
        <time>2026-02-02T11:39:47Z</time>
      </trkpt>
      <trkpt lat="45.96627" lon="6.55688">
        <ele>2197.4</ele>
        <time>2026-02-02T11:39:48Z</time>
      </trkpt>
      <trkpt lat="45.96627" lon="6.55688">
        <ele>2197.4</ele>
        <time>2026-02-02T11:39:49Z</time>
      </trkpt>
      <trkpt lat="45.96627" lon="6.55688">
        <ele>2197.4</ele>
        <time>2026-02-02T11:39:50Z</time>
      </trkpt>
      <trkpt lat="45.96627" lon="6.55688">
        <ele>2197.4</ele>
        <time>2026-02-02T11:39:51Z</time>
      </trkpt>
      <trkpt lat="45.96627" lon="6.55688">
        <ele>2197.4</ele>
        <time>2026-02-02T11:39:52Z</time>
      </trkpt>
      <trkpt lat="45.96626" lon="6.55689">
        <ele>2197.4</ele>
        <time>2026-02-02T11:39:53Z</time>
      </trkpt>
      <trkpt lat="45.96626" lon="6.55689">
        <ele>2197.4</ele>
        <time>2026-02-02T11:39:54Z</time>
      </trkpt>
      <trkpt lat="45.96626" lon="6.55689">
        <ele>2197.4</ele>
        <time>2026-02-02T11:39:55Z</time>
      </trkpt>
      <trkpt lat="45.96626" lon="6.55689">
        <ele>2197.4</ele>
        <time>2026-02-02T11:39:56Z</time>
      </trkpt>
      <trkpt lat="45.96626" lon="6.55689">
        <ele>2197.4</ele>
        <time>2026-02-02T11:39:57Z</time>
      </trkpt>
      <trkpt lat="45.96626" lon="6.55689">
        <ele>2197.4</ele>
        <time>2026-02-02T11:39:58Z</time>
      </trkpt>
      <trkpt lat="45.96626" lon="6.55689">
        <ele>2197.4</ele>
        <time>2026-02-02T11:39:59Z</time>
      </trkpt>
      <trkpt lat="45.96626" lon="6.55689">
        <ele>2197.4</ele>
        <time>2026-02-02T11:40:00Z</time>
      </trkpt>
      <trkpt lat="45.96626" lon="6.55689">
        <ele>2197.4</ele>
        <time>2026-02-02T11:40:01Z</time>
      </trkpt>
      <trkpt lat="45.96626" lon="6.55689">
        <ele>2197.4</ele>
        <time>2026-02-02T11:40:02Z</time>
      </trkpt>
      <trkpt lat="45.96626" lon="6.55689">
        <ele>2197.4</ele>
        <time>2026-02-02T11:40:03Z</time>
      </trkpt>
      <trkpt lat="45.96626" lon="6.55689">
        <ele>2197.4</ele>
        <time>2026-02-02T11:40:04Z</time>
      </trkpt>
      <trkpt lat="45.96626" lon="6.55689">
        <ele>2197.4</ele>
        <time>2026-02-02T11:40:05Z</time>
      </trkpt>
      <trkpt lat="45.96626" lon="6.55689">
        <ele>2197.4</ele>
        <time>2026-02-02T11:40:06Z</time>
      </trkpt>
      <trkpt lat="45.96625" lon="6.55687">
        <ele>2197.4</ele>
        <time>2026-02-02T11:40:07Z</time>
      </trkpt>
      <trkpt lat="45.96625" lon="6.55687">
        <ele>2197.4</ele>
        <time>2026-02-02T11:40:08Z</time>
      </trkpt>
      <trkpt lat="45.96625" lon="6.55687">
        <ele>2197.4</ele>
        <time>2026-02-02T11:40:09Z</time>
      </trkpt>
      <trkpt lat="45.96625" lon="6.55687">
        <ele>2197.4</ele>
        <time>2026-02-02T11:40:10Z</time>
      </trkpt>
      <trkpt lat="45.96624" lon="6.55686">
        <ele>2197</ele>
        <time>2026-02-02T11:40:11Z</time>
      </trkpt>
      <trkpt lat="45.96623" lon="6.55687">
        <ele>2198.2</ele>
        <time>2026-02-02T11:40:12Z</time>
      </trkpt>
      <trkpt lat="45.96624" lon="6.55689">
        <ele>2198.2</ele>
        <time>2026-02-02T11:40:13Z</time>
      </trkpt>
      <trkpt lat="45.96625" lon="6.55692">
        <ele>2198.8</ele>
        <time>2026-02-02T11:40:14Z</time>
      </trkpt>
      <trkpt lat="45.96624" lon="6.55692">
        <ele>2199.6</ele>
        <time>2026-02-02T11:40:15Z</time>
      </trkpt>
      <trkpt lat="45.96624" lon="6.55692">
        <ele>2199.6</ele>
        <time>2026-02-02T11:40:16Z</time>
      </trkpt>
      <trkpt lat="45.96624" lon="6.55692">
        <ele>2199.6</ele>
        <time>2026-02-02T11:40:17Z</time>
      </trkpt>
      <trkpt lat="45.96624" lon="6.55692">
        <ele>2199.6</ele>
        <time>2026-02-02T11:40:18Z</time>
      </trkpt>
      <trkpt lat="45.96624" lon="6.55692">
        <ele>2199.6</ele>
        <time>2026-02-02T11:40:19Z</time>
      </trkpt>
      <trkpt lat="45.96623" lon="6.55692">
        <ele>2199.6</ele>
        <time>2026-02-02T11:40:20Z</time>
      </trkpt>
      <trkpt lat="45.96622" lon="6.55692">
        <ele>2199.6</ele>
        <time>2026-02-02T11:40:21Z</time>
      </trkpt>
      <trkpt lat="45.96621" lon="6.55691">
        <ele>2199.1</ele>
        <time>2026-02-02T11:40:22Z</time>
      </trkpt>
      <trkpt lat="45.96621" lon="6.55689">
        <ele>2199.1</ele>
        <time>2026-02-02T11:40:23Z</time>
      </trkpt>
      <trkpt lat="45.96622" lon="6.55689">
        <ele>2199.1</ele>
        <time>2026-02-02T11:40:24Z</time>
      </trkpt>
      <trkpt lat="45.96622" lon="6.55689">
        <ele>2199.1</ele>
        <time>2026-02-02T11:40:25Z</time>
      </trkpt>
      <trkpt lat="45.96622" lon="6.55689">
        <ele>2199.1</ele>
        <time>2026-02-02T11:40:26Z</time>
      </trkpt>
      <trkpt lat="45.96622" lon="6.55689">
        <ele>2199.1</ele>
        <time>2026-02-02T11:40:27Z</time>
      </trkpt>
      <trkpt lat="45.96622" lon="6.55689">
        <ele>2199.1</ele>
        <time>2026-02-02T11:40:28Z</time>
      </trkpt>
      <trkpt lat="45.96621" lon="6.5569">
        <ele>2199.1</ele>
        <time>2026-02-02T11:40:29Z</time>
      </trkpt>
      <trkpt lat="45.96621" lon="6.5569">
        <ele>2199.1</ele>
        <time>2026-02-02T11:40:30Z</time>
      </trkpt>
      <trkpt lat="45.96622" lon="6.5569">
        <ele>2199.1</ele>
        <time>2026-02-02T11:40:31Z</time>
      </trkpt>
      <trkpt lat="45.96622" lon="6.5569">
        <ele>2198.2</ele>
        <time>2026-02-02T11:40:32Z</time>
      </trkpt>
      <trkpt lat="45.96622" lon="6.55689">
        <ele>2198.2</ele>
        <time>2026-02-02T11:40:33Z</time>
      </trkpt>
      <trkpt lat="45.96623" lon="6.55689">
        <ele>2198.2</ele>
        <time>2026-02-02T11:40:34Z</time>
      </trkpt>
      <trkpt lat="45.96625" lon="6.55689">
        <ele>2198.2</ele>
        <time>2026-02-02T11:40:35Z</time>
      </trkpt>
      <trkpt lat="45.96625" lon="6.55687">
        <ele>2197.4</ele>
        <time>2026-02-02T11:40:36Z</time>
      </trkpt>
      <trkpt lat="45.96626" lon="6.55687">
        <ele>2197.4</ele>
        <time>2026-02-02T11:40:37Z</time>
      </trkpt>
      <trkpt lat="45.96626" lon="6.55687">
        <ele>2197.4</ele>
        <time>2026-02-02T11:40:38Z</time>
      </trkpt>
      <trkpt lat="45.96626" lon="6.55687">
        <ele>2197.4</ele>
        <time>2026-02-02T11:40:39Z</time>
      </trkpt>
      <trkpt lat="45.96626" lon="6.55686">
        <ele>2197.4</ele>
        <time>2026-02-02T11:40:40Z</time>
      </trkpt>
      <trkpt lat="45.96626" lon="6.55686">
        <ele>2196.2</ele>
        <time>2026-02-02T11:40:41Z</time>
      </trkpt>
      <trkpt lat="45.96626" lon="6.55686">
        <ele>2196.2</ele>
        <time>2026-02-02T11:40:42Z</time>
      </trkpt>
      <trkpt lat="45.96626" lon="6.55686">
        <ele>2196.2</ele>
        <time>2026-02-02T11:40:43Z</time>
      </trkpt>
      <trkpt lat="45.96627" lon="6.55686">
        <ele>2196.2</ele>
        <time>2026-02-02T11:40:44Z</time>
      </trkpt>
      <trkpt lat="45.96627" lon="6.55686">
        <ele>2196.2</ele>
        <time>2026-02-02T11:40:45Z</time>
      </trkpt>
      <trkpt lat="45.96627" lon="6.55685">
        <ele>2196.2</ele>
        <time>2026-02-02T11:40:46Z</time>
      </trkpt>
      <trkpt lat="45.96627" lon="6.55685">
        <ele>2196.2</ele>
        <time>2026-02-02T11:40:47Z</time>
      </trkpt>
      <trkpt lat="45.96627" lon="6.55685">
        <ele>2196.2</ele>
        <time>2026-02-02T11:40:48Z</time>
      </trkpt>
      <trkpt lat="45.96627" lon="6.55685">
        <ele>2196.2</ele>
        <time>2026-02-02T11:40:49Z</time>
      </trkpt>
      <trkpt lat="45.96627" lon="6.55685">
        <ele>2196.2</ele>
        <time>2026-02-02T11:40:50Z</time>
      </trkpt>
      <trkpt lat="45.96628" lon="6.55685">
        <ele>2196.2</ele>
        <time>2026-02-02T11:40:51Z</time>
      </trkpt>
      <trkpt lat="45.96628" lon="6.55684">
        <ele>2195.3</ele>
        <time>2026-02-02T11:40:52Z</time>
      </trkpt>
      <trkpt lat="45.96628" lon="6.55684">
        <ele>2195.3</ele>
        <time>2026-02-02T11:40:53Z</time>
      </trkpt>
      <trkpt lat="45.96628" lon="6.55684">
        <ele>2195.3</ele>
        <time>2026-02-02T11:40:54Z</time>
      </trkpt>
      <trkpt lat="45.96628" lon="6.55684">
        <ele>2195.3</ele>
        <time>2026-02-02T11:40:55Z</time>
      </trkpt>
      <trkpt lat="45.96631" lon="6.55683">
        <ele>2194.5</ele>
        <time>2026-02-02T11:40:56Z</time>
      </trkpt>
      <trkpt lat="45.96634" lon="6.55682">
        <ele>2193.7</ele>
        <time>2026-02-02T11:40:57Z</time>
      </trkpt>
      <trkpt lat="45.96638" lon="6.55681">
        <ele>2191.6</ele>
        <time>2026-02-02T11:40:58Z</time>
      </trkpt>
      <trkpt lat="45.96641" lon="6.55683">
        <ele>2192.1</ele>
        <time>2026-02-02T11:40:59Z</time>
      </trkpt>
      <trkpt lat="45.96644" lon="6.55683">
        <ele>2190.7</ele>
        <time>2026-02-02T11:41:00Z</time>
      </trkpt>
      <trkpt lat="45.96647" lon="6.55683">
        <ele>2190</ele>
        <time>2026-02-02T11:41:01Z</time>
      </trkpt>
      <trkpt lat="45.96651" lon="6.55683">
        <ele>2189.3</ele>
        <time>2026-02-02T11:41:02Z</time>
      </trkpt>
      <trkpt lat="45.96654" lon="6.55683">
        <ele>2188.6</ele>
        <time>2026-02-02T11:41:03Z</time>
      </trkpt>
      <trkpt lat="45.96657" lon="6.55682">
        <ele>2188</ele>
        <time>2026-02-02T11:41:04Z</time>
      </trkpt>
      <trkpt lat="45.9666" lon="6.55682">
        <ele>2187.3</ele>
        <time>2026-02-02T11:41:05Z</time>
      </trkpt>
      <trkpt lat="45.96664" lon="6.55682">
        <ele>2184.2</ele>
        <time>2026-02-02T11:41:06Z</time>
      </trkpt>
      <trkpt lat="45.96667" lon="6.55682">
        <ele>2183.4</ele>
        <time>2026-02-02T11:41:07Z</time>
      </trkpt>
      <trkpt lat="45.96669" lon="6.55682">
        <ele>2183.4</ele>
        <time>2026-02-02T11:41:08Z</time>
      </trkpt>
      <trkpt lat="45.96669" lon="6.55681">
        <ele>2183.4</ele>
        <time>2026-02-02T11:41:09Z</time>
      </trkpt>
      <trkpt lat="45.96668" lon="6.55682">
        <ele>2183.4</ele>
        <time>2026-02-02T11:41:10Z</time>
      </trkpt>
      <trkpt lat="45.96668" lon="6.55684">
        <ele>2185.1</ele>
        <time>2026-02-02T11:41:11Z</time>
      </trkpt>
      <trkpt lat="45.96668" lon="6.55684">
        <ele>2185.1</ele>
        <time>2026-02-02T11:41:12Z</time>
      </trkpt>
      <trkpt lat="45.96669" lon="6.55685">
        <ele>2185.1</ele>
        <time>2026-02-02T11:41:13Z</time>
      </trkpt>
      <trkpt lat="45.96668" lon="6.55684">
        <ele>2185.1</ele>
        <time>2026-02-02T11:41:14Z</time>
      </trkpt>
      <trkpt lat="45.96669" lon="6.55683">
        <ele>2184.4</ele>
        <time>2026-02-02T11:41:15Z</time>
      </trkpt>
      <trkpt lat="45.96669" lon="6.55683">
        <ele>2185.1</ele>
        <time>2026-02-02T11:41:16Z</time>
      </trkpt>
      <trkpt lat="45.96669" lon="6.55683">
        <ele>2185.1</ele>
        <time>2026-02-02T11:41:17Z</time>
      </trkpt>
      <trkpt lat="45.96669" lon="6.55682">
        <ele>2185.1</ele>
        <time>2026-02-02T11:41:18Z</time>
      </trkpt>
      <trkpt lat="45.9667" lon="6.55682">
        <ele>2182.7</ele>
        <time>2026-02-02T11:41:19Z</time>
      </trkpt>
      <trkpt lat="45.96671" lon="6.55682">
        <ele>2182.7</ele>
        <time>2026-02-02T11:41:20Z</time>
      </trkpt>
      <trkpt lat="45.96672" lon="6.55682">
        <ele>2182.7</ele>
        <time>2026-02-02T11:41:21Z</time>
      </trkpt>
      <trkpt lat="45.96674" lon="6.55682">
        <ele>2183.8</ele>
        <time>2026-02-02T11:41:22Z</time>
      </trkpt>
      <trkpt lat="45.96678" lon="6.55683">
        <ele>2183.2</ele>
        <time>2026-02-02T11:41:23Z</time>
      </trkpt>
      <trkpt lat="45.96679" lon="6.55683">
        <ele>2182.7</ele>
        <time>2026-02-02T11:41:24Z</time>
      </trkpt>
      <trkpt lat="45.96683" lon="6.55684">
        <ele>2182.1</ele>
        <time>2026-02-02T11:41:25Z</time>
      </trkpt>
      <trkpt lat="45.96684" lon="6.55684">
        <ele>2182.1</ele>
        <time>2026-02-02T11:41:26Z</time>
      </trkpt>
      <trkpt lat="45.96688" lon="6.55684">
        <ele>2181</ele>
        <time>2026-02-02T11:41:27Z</time>
      </trkpt>
      <trkpt lat="45.9669" lon="6.55684">
        <ele>2181</ele>
        <time>2026-02-02T11:41:28Z</time>
      </trkpt>
      <trkpt lat="45.96694" lon="6.55684">
        <ele>2179.9</ele>
        <time>2026-02-02T11:41:29Z</time>
      </trkpt>
      <trkpt lat="45.96696" lon="6.55684">
        <ele>2179.9</ele>
        <time>2026-02-02T11:41:30Z</time>
      </trkpt>
      <trkpt lat="45.967" lon="6.55685">
        <ele>2179.1</ele>
        <time>2026-02-02T11:41:31Z</time>
      </trkpt>
      <trkpt lat="45.96705" lon="6.55684">
        <ele>2178.7</ele>
        <time>2026-02-02T11:41:32Z</time>
      </trkpt>
      <trkpt lat="45.96709" lon="6.55683">
        <ele>2178.2</ele>
        <time>2026-02-02T11:41:33Z</time>
      </trkpt>
      <trkpt lat="45.96713" lon="6.55682">
        <ele>2176.1</ele>
        <time>2026-02-02T11:41:34Z</time>
      </trkpt>
      <trkpt lat="45.96715" lon="6.55682">
        <ele>2175.9</ele>
        <time>2026-02-02T11:41:35Z</time>
      </trkpt>
      <trkpt lat="45.96715" lon="6.55681">
        <ele>2175.9</ele>
        <time>2026-02-02T11:41:36Z</time>
      </trkpt>
      <trkpt lat="45.96715" lon="6.55681">
        <ele>2175.9</ele>
        <time>2026-02-02T11:41:37Z</time>
      </trkpt>
      <trkpt lat="45.96715" lon="6.55681">
        <ele>2175.9</ele>
        <time>2026-02-02T11:41:38Z</time>
      </trkpt>
      <trkpt lat="45.96715" lon="6.55681">
        <ele>2175.9</ele>
        <time>2026-02-02T11:41:39Z</time>
      </trkpt>
      <trkpt lat="45.96715" lon="6.55681">
        <ele>2175.9</ele>
        <time>2026-02-02T11:41:40Z</time>
      </trkpt>
      <trkpt lat="45.96715" lon="6.55681">
        <ele>2175.9</ele>
        <time>2026-02-02T11:41:41Z</time>
      </trkpt>
      <trkpt lat="45.96715" lon="6.55681">
        <ele>2175.9</ele>
        <time>2026-02-02T11:41:42Z</time>
      </trkpt>
      <trkpt lat="45.96715" lon="6.55681">
        <ele>2175.9</ele>
        <time>2026-02-02T11:41:43Z</time>
      </trkpt>
      <trkpt lat="45.96715" lon="6.55681">
        <ele>2175.9</ele>
        <time>2026-02-02T11:41:44Z</time>
      </trkpt>
      <trkpt lat="45.96715" lon="6.55681">
        <ele>2175.9</ele>
        <time>2026-02-02T11:41:45Z</time>
      </trkpt>
      <trkpt lat="45.96715" lon="6.55681">
        <ele>2175.9</ele>
        <time>2026-02-02T11:41:46Z</time>
      </trkpt>
      <trkpt lat="45.96715" lon="6.55681">
        <ele>2175.9</ele>
        <time>2026-02-02T11:41:47Z</time>
      </trkpt>
      <trkpt lat="45.96715" lon="6.55681">
        <ele>2175.9</ele>
        <time>2026-02-02T11:41:48Z</time>
      </trkpt>
      <trkpt lat="45.96715" lon="6.55681">
        <ele>2175.9</ele>
        <time>2026-02-02T11:41:49Z</time>
      </trkpt>
      <trkpt lat="45.96715" lon="6.55681">
        <ele>2175.9</ele>
        <time>2026-02-02T11:41:50Z</time>
      </trkpt>
      <trkpt lat="45.96716" lon="6.55683">
        <ele>2177.7</ele>
        <time>2026-02-02T11:41:51Z</time>
      </trkpt>
      <trkpt lat="45.96718" lon="6.5568">
        <ele>2175.8</ele>
        <time>2026-02-02T11:41:52Z</time>
      </trkpt>
      <trkpt lat="45.96719" lon="6.55678">
        <ele>2174.1</ele>
        <time>2026-02-02T11:41:53Z</time>
      </trkpt>
      <trkpt lat="45.9672" lon="6.55675">
        <ele>2174</ele>
        <time>2026-02-02T11:41:54Z</time>
      </trkpt>
      <trkpt lat="45.96724" lon="6.55671">
        <ele>2172.2</ele>
        <time>2026-02-02T11:41:55Z</time>
      </trkpt>
      <trkpt lat="45.96727" lon="6.55667">
        <ele>2170.4</ele>
        <time>2026-02-02T11:41:56Z</time>
      </trkpt>
      <trkpt lat="45.9673" lon="6.55665">
        <ele>2170.5</ele>
        <time>2026-02-02T11:41:57Z</time>
      </trkpt>
      <trkpt lat="45.96733" lon="6.55661">
        <ele>2168.7</ele>
        <time>2026-02-02T11:41:58Z</time>
      </trkpt>
      <trkpt lat="45.96734" lon="6.55659">
        <ele>2166.7</ele>
        <time>2026-02-02T11:41:59Z</time>
      </trkpt>
      <trkpt lat="45.96736" lon="6.55657">
        <ele>2166.9</ele>
        <time>2026-02-02T11:42:00Z</time>
      </trkpt>
      <trkpt lat="45.9674" lon="6.55655">
        <ele>2165</ele>
        <time>2026-02-02T11:42:01Z</time>
      </trkpt>
      <trkpt lat="45.96746" lon="6.55653">
        <ele>2165.2</ele>
        <time>2026-02-02T11:42:02Z</time>
      </trkpt>
      <trkpt lat="45.96753" lon="6.55649">
        <ele>2163.1</ele>
        <time>2026-02-02T11:42:03Z</time>
      </trkpt>
      <trkpt lat="45.96758" lon="6.55645">
        <ele>2160.8</ele>
        <time>2026-02-02T11:42:04Z</time>
      </trkpt>
      <trkpt lat="45.96763" lon="6.5564">
        <ele>2158.6</ele>
        <time>2026-02-02T11:42:05Z</time>
      </trkpt>
      <trkpt lat="45.96767" lon="6.55638">
        <ele>2156.4</ele>
        <time>2026-02-02T11:42:06Z</time>
      </trkpt>
      <trkpt lat="45.9677" lon="6.55635">
        <ele>2156.2</ele>
        <time>2026-02-02T11:42:07Z</time>
      </trkpt>
      <trkpt lat="45.96772" lon="6.55633">
        <ele>2153.9</ele>
        <time>2026-02-02T11:42:08Z</time>
      </trkpt>
      <trkpt lat="45.96775" lon="6.5563">
        <ele>2151.6</ele>
        <time>2026-02-02T11:42:09Z</time>
      </trkpt>
      <trkpt lat="45.96777" lon="6.55628">
        <ele>2151.2</ele>
        <time>2026-02-02T11:42:10Z</time>
      </trkpt>
      <trkpt lat="45.96779" lon="6.55627">
        <ele>2151.2</ele>
        <time>2026-02-02T11:42:11Z</time>
      </trkpt>
      <trkpt lat="45.96779" lon="6.55627">
        <ele>2151.2</ele>
        <time>2026-02-02T11:42:12Z</time>
      </trkpt>
      <trkpt lat="45.96778" lon="6.55628">
        <ele>2151.2</ele>
        <time>2026-02-02T11:42:13Z</time>
      </trkpt>
      <trkpt lat="45.96779" lon="6.55626">
        <ele>2149.3</ele>
        <time>2026-02-02T11:42:14Z</time>
      </trkpt>
      <trkpt lat="45.96781" lon="6.55624">
        <ele>2148.9</ele>
        <time>2026-02-02T11:42:15Z</time>
      </trkpt>
      <trkpt lat="45.96781" lon="6.55624">
        <ele>2148.9</ele>
        <time>2026-02-02T11:42:16Z</time>
      </trkpt>
      <trkpt lat="45.96783" lon="6.55622">
        <ele>2148.4</ele>
        <time>2026-02-02T11:42:17Z</time>
      </trkpt>
      <trkpt lat="45.96784" lon="6.5562">
        <ele>2146.5</ele>
        <time>2026-02-02T11:42:18Z</time>
      </trkpt>
      <trkpt lat="45.96783" lon="6.55619">
        <ele>2146.5</ele>
        <time>2026-02-02T11:42:19Z</time>
      </trkpt>
      <trkpt lat="45.96781" lon="6.55621">
        <ele>2146.9</ele>
        <time>2026-02-02T11:42:20Z</time>
      </trkpt>
      <trkpt lat="45.96781" lon="6.5562">
        <ele>2146.9</ele>
        <time>2026-02-02T11:42:21Z</time>
      </trkpt>
      <trkpt lat="45.9678" lon="6.5562">
        <ele>2146.9</ele>
        <time>2026-02-02T11:42:22Z</time>
      </trkpt>
      <trkpt lat="45.9678" lon="6.55619">
        <ele>2146.9</ele>
        <time>2026-02-02T11:42:23Z</time>
      </trkpt>
      <trkpt lat="45.9678" lon="6.55618">
        <ele>2146.9</ele>
        <time>2026-02-02T11:42:24Z</time>
      </trkpt>
      <trkpt lat="45.9678" lon="6.55618">
        <ele>2145.3</ele>
        <time>2026-02-02T11:42:25Z</time>
      </trkpt>
      <trkpt lat="45.96779" lon="6.55617">
        <ele>2145.3</ele>
        <time>2026-02-02T11:42:26Z</time>
      </trkpt>
      <trkpt lat="45.96779" lon="6.55616">
        <ele>2145.3</ele>
        <time>2026-02-02T11:42:27Z</time>
      </trkpt>
      <trkpt lat="45.96782" lon="6.55614">
        <ele>2144.9</ele>
        <time>2026-02-02T11:42:28Z</time>
      </trkpt>
      <trkpt lat="45.96783" lon="6.55614">
        <ele>2144.5</ele>
        <time>2026-02-02T11:42:29Z</time>
      </trkpt>
      <trkpt lat="45.96786" lon="6.55612">
        <ele>2141.9</ele>
        <time>2026-02-02T11:42:30Z</time>
      </trkpt>
      <trkpt lat="45.9679" lon="6.55613">
        <ele>2141.3</ele>
        <time>2026-02-02T11:42:31Z</time>
      </trkpt>
      <trkpt lat="45.9679" lon="6.55612">
        <ele>2141.3</ele>
        <time>2026-02-02T11:42:32Z</time>
      </trkpt>
      <trkpt lat="45.9679" lon="6.55612">
        <ele>2141.3</ele>
        <time>2026-02-02T11:42:33Z</time>
      </trkpt>
      <trkpt lat="45.9679" lon="6.55612">
        <ele>2141.3</ele>
        <time>2026-02-02T11:42:34Z</time>
      </trkpt>
      <trkpt lat="45.96791" lon="6.55611">
        <ele>2141.3</ele>
        <time>2026-02-02T11:42:35Z</time>
      </trkpt>
      <trkpt lat="45.96791" lon="6.55611">
        <ele>2141.3</ele>
        <time>2026-02-02T11:42:36Z</time>
      </trkpt>
      <trkpt lat="45.96792" lon="6.55611">
        <ele>2140.7</ele>
        <time>2026-02-02T11:42:37Z</time>
      </trkpt>
      <trkpt lat="45.96792" lon="6.55611">
        <ele>2140.7</ele>
        <time>2026-02-02T11:42:38Z</time>
      </trkpt>
      <trkpt lat="45.96792" lon="6.55611">
        <ele>2140.7</ele>
        <time>2026-02-02T11:42:39Z</time>
      </trkpt>
      <trkpt lat="45.96792" lon="6.55611">
        <ele>2140.7</ele>
        <time>2026-02-02T11:42:40Z</time>
      </trkpt>
      <trkpt lat="45.96792" lon="6.55611">
        <ele>2140.7</ele>
        <time>2026-02-02T11:42:41Z</time>
      </trkpt>
      <trkpt lat="45.96793" lon="6.55611">
        <ele>2140.7</ele>
        <time>2026-02-02T11:42:42Z</time>
      </trkpt>
      <trkpt lat="45.96793" lon="6.55611">
        <ele>2140.7</ele>
        <time>2026-02-02T11:42:43Z</time>
      </trkpt>
      <trkpt lat="45.96793" lon="6.5561">
        <ele>2140.7</ele>
        <time>2026-02-02T11:42:44Z</time>
      </trkpt>
      <trkpt lat="45.96793" lon="6.5561">
        <ele>2140.7</ele>
        <time>2026-02-02T11:42:45Z</time>
      </trkpt>
      <trkpt lat="45.96793" lon="6.55609">
        <ele>2138.7</ele>
        <time>2026-02-02T11:42:46Z</time>
      </trkpt>
      <trkpt lat="45.96794" lon="6.55609">
        <ele>2138.7</ele>
        <time>2026-02-02T11:42:47Z</time>
      </trkpt>
      <trkpt lat="45.96795" lon="6.55608">
        <ele>2138</ele>
        <time>2026-02-02T11:42:48Z</time>
      </trkpt>
      <trkpt lat="45.96799" lon="6.55606">
        <ele>2137.2</ele>
        <time>2026-02-02T11:42:49Z</time>
      </trkpt>
      <trkpt lat="45.96801" lon="6.55606">
        <ele>2136.3</ele>
        <time>2026-02-02T11:42:50Z</time>
      </trkpt>
      <trkpt lat="45.96804" lon="6.55604">
        <ele>2133.3</ele>
        <time>2026-02-02T11:42:51Z</time>
      </trkpt>
      <trkpt lat="45.96807" lon="6.55603">
        <ele>2132.2</ele>
        <time>2026-02-02T11:42:52Z</time>
      </trkpt>
      <trkpt lat="45.9681" lon="6.55602">
        <ele>2131</ele>
        <time>2026-02-02T11:42:53Z</time>
      </trkpt>
      <trkpt lat="45.96814" lon="6.55601">
        <ele>2129.8</ele>
        <time>2026-02-02T11:42:54Z</time>
      </trkpt>
      <trkpt lat="45.96817" lon="6.55599">
        <ele>2126.8</ele>
        <time>2026-02-02T11:42:55Z</time>
      </trkpt>
      <trkpt lat="45.9682" lon="6.55598">
        <ele>2125.7</ele>
        <time>2026-02-02T11:42:56Z</time>
      </trkpt>
      <trkpt lat="45.96825" lon="6.55598">
        <ele>2123.3</ele>
        <time>2026-02-02T11:42:57Z</time>
      </trkpt>
      <trkpt lat="45.96829" lon="6.55597">
        <ele>2121.9</ele>
        <time>2026-02-02T11:42:58Z</time>
      </trkpt>
      <trkpt lat="45.96834" lon="6.55596">
        <ele>2118.7</ele>
        <time>2026-02-02T11:42:59Z</time>
      </trkpt>
      <trkpt lat="45.96839" lon="6.55596">
        <ele>2115.3</ele>
        <time>2026-02-02T11:43:00Z</time>
      </trkpt>
      <trkpt lat="45.96844" lon="6.55595">
        <ele>2112.2</ele>
        <time>2026-02-02T11:43:01Z</time>
      </trkpt>
      <trkpt lat="45.96848" lon="6.55595">
        <ele>2109.1</ele>
        <time>2026-02-02T11:43:02Z</time>
      </trkpt>
      <trkpt lat="45.96852" lon="6.55595">
        <ele>2107.3</ele>
        <time>2026-02-02T11:43:03Z</time>
      </trkpt>
      <trkpt lat="45.96856" lon="6.55596">
        <ele>2105.4</ele>
        <time>2026-02-02T11:43:04Z</time>
      </trkpt>
      <trkpt lat="45.9686" lon="6.55595">
        <ele>2103.4</ele>
        <time>2026-02-02T11:43:05Z</time>
      </trkpt>
      <trkpt lat="45.96864" lon="6.55596">
        <ele>2099.3</ele>
        <time>2026-02-02T11:43:06Z</time>
      </trkpt>
      <trkpt lat="45.96869" lon="6.55596">
        <ele>2099</ele>
        <time>2026-02-02T11:43:07Z</time>
      </trkpt>
      <trkpt lat="45.96872" lon="6.55596">
        <ele>2095.4</ele>
        <time>2026-02-02T11:43:08Z</time>
      </trkpt>
      <trkpt lat="45.96875" lon="6.55595">
        <ele>2093.4</ele>
        <time>2026-02-02T11:43:09Z</time>
      </trkpt>
      <trkpt lat="45.96878" lon="6.55595">
        <ele>2091.5</ele>
        <time>2026-02-02T11:43:10Z</time>
      </trkpt>
      <trkpt lat="45.96881" lon="6.55595">
        <ele>2087.5</ele>
        <time>2026-02-02T11:43:11Z</time>
      </trkpt>
      <trkpt lat="45.96882" lon="6.55594">
        <ele>2087.5</ele>
        <time>2026-02-02T11:43:12Z</time>
      </trkpt>
      <trkpt lat="45.96882" lon="6.55594">
        <ele>2087.5</ele>
        <time>2026-02-02T11:43:13Z</time>
      </trkpt>
      <trkpt lat="45.96882" lon="6.55594">
        <ele>2087.5</ele>
        <time>2026-02-02T11:43:14Z</time>
      </trkpt>
      <trkpt lat="45.96882" lon="6.55594">
        <ele>2087.5</ele>
        <time>2026-02-02T11:43:15Z</time>
      </trkpt>
      <trkpt lat="45.96881" lon="6.55593">
        <ele>2087.5</ele>
        <time>2026-02-02T11:43:16Z</time>
      </trkpt>
      <trkpt lat="45.96881" lon="6.55593">
        <ele>2087.5</ele>
        <time>2026-02-02T11:43:17Z</time>
      </trkpt>
      <trkpt lat="45.96881" lon="6.55593">
        <ele>2089.5</ele>
        <time>2026-02-02T11:43:18Z</time>
      </trkpt>
      <trkpt lat="45.96881" lon="6.55593">
        <ele>2089.5</ele>
        <time>2026-02-02T11:43:19Z</time>
      </trkpt>
      <trkpt lat="45.9688" lon="6.55592">
        <ele>2089.5</ele>
        <time>2026-02-02T11:43:20Z</time>
      </trkpt>
      <trkpt lat="45.9688" lon="6.55592">
        <ele>2089.5</ele>
        <time>2026-02-02T11:43:21Z</time>
      </trkpt>
      <trkpt lat="45.9688" lon="6.55592">
        <ele>2088.1</ele>
        <time>2026-02-02T11:43:22Z</time>
      </trkpt>
      <trkpt lat="45.9688" lon="6.55592">
        <ele>2088.1</ele>
        <time>2026-02-02T11:43:23Z</time>
      </trkpt>
      <trkpt lat="45.9688" lon="6.55591">
        <ele>2088.1</ele>
        <time>2026-02-02T11:43:24Z</time>
      </trkpt>
      <trkpt lat="45.96879" lon="6.55591">
        <ele>2088.1</ele>
        <time>2026-02-02T11:43:25Z</time>
      </trkpt>
      <trkpt lat="45.96879" lon="6.55591">
        <ele>2088.1</ele>
        <time>2026-02-02T11:43:26Z</time>
      </trkpt>
      <trkpt lat="45.96879" lon="6.55591">
        <ele>2088.1</ele>
        <time>2026-02-02T11:43:27Z</time>
      </trkpt>
      <trkpt lat="45.96875" lon="6.55589">
        <ele>2090</ele>
        <time>2026-02-02T11:43:28Z</time>
      </trkpt>
      <trkpt lat="45.96874" lon="6.55588">
        <ele>2092</ele>
        <time>2026-02-02T11:43:29Z</time>
      </trkpt>
      <trkpt lat="45.96871" lon="6.55588">
        <ele>2093.9</ele>
        <time>2026-02-02T11:43:30Z</time>
      </trkpt>
      <trkpt lat="45.96868" lon="6.55587">
        <ele>2094.3</ele>
        <time>2026-02-02T11:43:31Z</time>
      </trkpt>
      <trkpt lat="45.96865" lon="6.55585">
        <ele>2096.3</ele>
        <time>2026-02-02T11:43:32Z</time>
      </trkpt>
      <trkpt lat="45.96861" lon="6.55581">
        <ele>2096.8</ele>
        <time>2026-02-02T11:43:33Z</time>
      </trkpt>
      <trkpt lat="45.96857" lon="6.55577">
        <ele>2099.2</ele>
        <time>2026-02-02T11:43:34Z</time>
      </trkpt>
      <trkpt lat="45.96853" lon="6.55574">
        <ele>2099.5</ele>
        <time>2026-02-02T11:43:35Z</time>
      </trkpt>
      <trkpt lat="45.9685" lon="6.55571">
        <ele>2101.2</ele>
        <time>2026-02-02T11:43:36Z</time>
      </trkpt>
      <trkpt lat="45.96847" lon="6.5557">
        <ele>2101.1</ele>
        <time>2026-02-02T11:43:37Z</time>
      </trkpt>
      <trkpt lat="45.96845" lon="6.55569">
        <ele>2101.1</ele>
        <time>2026-02-02T11:43:38Z</time>
      </trkpt>
      <trkpt lat="45.96845" lon="6.55568">
        <ele>2102.6</ele>
        <time>2026-02-02T11:43:39Z</time>
      </trkpt>
      <trkpt lat="45.96844" lon="6.55566">
        <ele>2102.6</ele>
        <time>2026-02-02T11:43:40Z</time>
      </trkpt>
      <trkpt lat="45.96844" lon="6.55566">
        <ele>2100.9</ele>
        <time>2026-02-02T11:43:41Z</time>
      </trkpt>
      <trkpt lat="45.96844" lon="6.55566">
        <ele>2100.9</ele>
        <time>2026-02-02T11:43:42Z</time>
      </trkpt>
      <trkpt lat="45.96844" lon="6.55566">
        <ele>2100.9</ele>
        <time>2026-02-02T11:43:43Z</time>
      </trkpt>
      <trkpt lat="45.96844" lon="6.55566">
        <ele>2100.9</ele>
        <time>2026-02-02T11:43:44Z</time>
      </trkpt>
      <trkpt lat="45.96844" lon="6.55566">
        <ele>2100.9</ele>
        <time>2026-02-02T11:43:45Z</time>
      </trkpt>
      <trkpt lat="45.96844" lon="6.55566">
        <ele>2100.9</ele>
        <time>2026-02-02T11:43:46Z</time>
      </trkpt>
      <trkpt lat="45.96844" lon="6.55566">
        <ele>2100.9</ele>
        <time>2026-02-02T11:43:47Z</time>
      </trkpt>
      <trkpt lat="45.96843" lon="6.55565">
        <ele>2100.9</ele>
        <time>2026-02-02T11:43:48Z</time>
      </trkpt>
      <trkpt lat="45.96843" lon="6.55564">
        <ele>2100.9</ele>
        <time>2026-02-02T11:43:49Z</time>
      </trkpt>
      <trkpt lat="45.96843" lon="6.55562">
        <ele>2100.9</ele>
        <time>2026-02-02T11:43:50Z</time>
      </trkpt>
      <trkpt lat="45.96844" lon="6.5556">
        <ele>2099.2</ele>
        <time>2026-02-02T11:43:51Z</time>
      </trkpt>
      <trkpt lat="45.96843" lon="6.55558">
        <ele>2097.5</ele>
        <time>2026-02-02T11:43:52Z</time>
      </trkpt>
      <trkpt lat="45.96842" lon="6.55555">
        <ele>2097.5</ele>
        <time>2026-02-02T11:43:53Z</time>
      </trkpt>
      <trkpt lat="45.96844" lon="6.55551">
        <ele>2095.8</ele>
        <time>2026-02-02T11:43:54Z</time>
      </trkpt>
      <trkpt lat="45.96844" lon="6.55549">
        <ele>2094.3</ele>
        <time>2026-02-02T11:43:55Z</time>
      </trkpt>
      <trkpt lat="45.96843" lon="6.55542">
        <ele>2092.9</ele>
        <time>2026-02-02T11:43:56Z</time>
      </trkpt>
      <trkpt lat="45.96838" lon="6.55539">
        <ele>2094.7</ele>
        <time>2026-02-02T11:43:57Z</time>
      </trkpt>
      <trkpt lat="45.96833" lon="6.55538">
        <ele>2098.1</ele>
        <time>2026-02-02T11:43:58Z</time>
      </trkpt>
      <trkpt lat="45.9683" lon="6.55535">
        <ele>2098.5</ele>
        <time>2026-02-02T11:43:59Z</time>
      </trkpt>
      <trkpt lat="45.96827" lon="6.55532">
        <ele>2100</ele>
        <time>2026-02-02T11:44:00Z</time>
      </trkpt>
      <trkpt lat="45.96824" lon="6.55527">
        <ele>2098.9</ele>
        <time>2026-02-02T11:44:01Z</time>
      </trkpt>
      <trkpt lat="45.96821" lon="6.55522">
        <ele>2098.9</ele>
        <time>2026-02-02T11:44:02Z</time>
      </trkpt>
      <trkpt lat="45.9682" lon="6.55518">
        <ele>2097.8</ele>
        <time>2026-02-02T11:44:03Z</time>
      </trkpt>
      <trkpt lat="45.96819" lon="6.55513">
        <ele>2096.7</ele>
        <time>2026-02-02T11:44:04Z</time>
      </trkpt>
      <trkpt lat="45.96819" lon="6.55512">
        <ele>2096.7</ele>
        <time>2026-02-02T11:44:05Z</time>
      </trkpt>
      <trkpt lat="45.96818" lon="6.5551">
        <ele>2097</ele>
        <time>2026-02-02T11:44:06Z</time>
      </trkpt>
      <trkpt lat="45.96817" lon="6.55509">
        <ele>2097</ele>
        <time>2026-02-02T11:44:07Z</time>
      </trkpt>
      <trkpt lat="45.96817" lon="6.55508">
        <ele>2097</ele>
        <time>2026-02-02T11:44:08Z</time>
      </trkpt>
      <trkpt lat="45.96816" lon="6.55506">
        <ele>2097</ele>
        <time>2026-02-02T11:44:09Z</time>
      </trkpt>
      <trkpt lat="45.96815" lon="6.55504">
        <ele>2097.5</ele>
        <time>2026-02-02T11:44:10Z</time>
      </trkpt>
      <trkpt lat="45.96815" lon="6.55503">
        <ele>2097.5</ele>
        <time>2026-02-02T11:44:11Z</time>
      </trkpt>
      <trkpt lat="45.96814" lon="6.55502">
        <ele>2097.5</ele>
        <time>2026-02-02T11:44:12Z</time>
      </trkpt>
      <trkpt lat="45.96812" lon="6.55501">
        <ele>2098.1</ele>
        <time>2026-02-02T11:44:13Z</time>
      </trkpt>
      <trkpt lat="45.9681" lon="6.55498">
        <ele>2098.1</ele>
        <time>2026-02-02T11:44:14Z</time>
      </trkpt>
      <trkpt lat="45.96809" lon="6.55497">
        <ele>2098.8</ele>
        <time>2026-02-02T11:44:15Z</time>
      </trkpt>
      <trkpt lat="45.96808" lon="6.55496">
        <ele>2098.8</ele>
        <time>2026-02-02T11:44:16Z</time>
      </trkpt>
      <trkpt lat="45.96808" lon="6.55496">
        <ele>2098.8</ele>
        <time>2026-02-02T11:44:17Z</time>
      </trkpt>
      <trkpt lat="45.96808" lon="6.55496">
        <ele>2098.8</ele>
        <time>2026-02-02T11:44:18Z</time>
      </trkpt>
      <trkpt lat="45.96808" lon="6.55495">
        <ele>2098.8</ele>
        <time>2026-02-02T11:44:19Z</time>
      </trkpt>
      <trkpt lat="45.96809" lon="6.55496">
        <ele>2098.8</ele>
        <time>2026-02-02T11:44:20Z</time>
      </trkpt>
      <trkpt lat="45.96808" lon="6.55496">
        <ele>2098.8</ele>
        <time>2026-02-02T11:44:21Z</time>
      </trkpt>
      <trkpt lat="45.96808" lon="6.55496">
        <ele>2098.8</ele>
        <time>2026-02-02T11:44:22Z</time>
      </trkpt>
      <trkpt lat="45.96808" lon="6.55496">
        <ele>2098.8</ele>
        <time>2026-02-02T11:44:23Z</time>
      </trkpt>
      <trkpt lat="45.96807" lon="6.55497">
        <ele>2098.8</ele>
        <time>2026-02-02T11:44:24Z</time>
      </trkpt>
      <trkpt lat="45.96807" lon="6.55496">
        <ele>2098.8</ele>
        <time>2026-02-02T11:44:25Z</time>
      </trkpt>
      <trkpt lat="45.96806" lon="6.55494">
        <ele>2100.3</ele>
        <time>2026-02-02T11:44:26Z</time>
      </trkpt>
      <trkpt lat="45.96806" lon="6.55494">
        <ele>2100.3</ele>
        <time>2026-02-02T11:44:27Z</time>
      </trkpt>
      <trkpt lat="45.96806" lon="6.55494">
        <ele>2100.3</ele>
        <time>2026-02-02T11:44:28Z</time>
      </trkpt>
      <trkpt lat="45.96807" lon="6.55494">
        <ele>2098.8</ele>
        <time>2026-02-02T11:44:29Z</time>
      </trkpt>
      <trkpt lat="45.96808" lon="6.55494">
        <ele>2098.8</ele>
        <time>2026-02-02T11:44:30Z</time>
      </trkpt>
      <trkpt lat="45.96808" lon="6.55494">
        <ele>2098.8</ele>
        <time>2026-02-02T11:44:31Z</time>
      </trkpt>
      <trkpt lat="45.96809" lon="6.55494">
        <ele>2098.8</ele>
        <time>2026-02-02T11:44:32Z</time>
      </trkpt>
      <trkpt lat="45.96809" lon="6.55494">
        <ele>2098.8</ele>
        <time>2026-02-02T11:44:33Z</time>
      </trkpt>
      <trkpt lat="45.9681" lon="6.55494">
        <ele>2097.4</ele>
        <time>2026-02-02T11:44:34Z</time>
      </trkpt>
      <trkpt lat="45.9681" lon="6.55494">
        <ele>2097.4</ele>
        <time>2026-02-02T11:44:35Z</time>
      </trkpt>
      <trkpt lat="45.96814" lon="6.55494">
        <ele>2095.9</ele>
        <time>2026-02-02T11:44:36Z</time>
      </trkpt>
      <trkpt lat="45.96816" lon="6.55494">
        <ele>2094.6</ele>
        <time>2026-02-02T11:44:37Z</time>
      </trkpt>
      <trkpt lat="45.96818" lon="6.55495">
        <ele>2094.6</ele>
        <time>2026-02-02T11:44:38Z</time>
      </trkpt>
      <trkpt lat="45.96822" lon="6.55496">
        <ele>2092</ele>
        <time>2026-02-02T11:44:39Z</time>
      </trkpt>
      <trkpt lat="45.96826" lon="6.55498">
        <ele>2091.4</ele>
        <time>2026-02-02T11:44:40Z</time>
      </trkpt>
      <trkpt lat="45.96828" lon="6.55499">
        <ele>2089.8</ele>
        <time>2026-02-02T11:44:41Z</time>
      </trkpt>
      <trkpt lat="45.96832" lon="6.55501">
        <ele>2088.1</ele>
        <time>2026-02-02T11:44:42Z</time>
      </trkpt>
      <trkpt lat="45.96836" lon="6.55504">
        <ele>2087.3</ele>
        <time>2026-02-02T11:44:43Z</time>
      </trkpt>
      <trkpt lat="45.9684" lon="6.55506">
        <ele>2084</ele>
        <time>2026-02-02T11:44:44Z</time>
      </trkpt>
      <trkpt lat="45.96843" lon="6.55506">
        <ele>2082.6</ele>
        <time>2026-02-02T11:44:45Z</time>
      </trkpt>
      <trkpt lat="45.96845" lon="6.55502">
        <ele>2082.6</ele>
        <time>2026-02-02T11:44:46Z</time>
      </trkpt>
      <trkpt lat="45.96843" lon="6.55497">
        <ele>2081</ele>
        <time>2026-02-02T11:44:47Z</time>
      </trkpt>
      <trkpt lat="45.96839" lon="6.55494">
        <ele>2084</ele>
        <time>2026-02-02T11:44:48Z</time>
      </trkpt>
      <trkpt lat="45.96837" lon="6.5549">
        <ele>2083.3</ele>
        <time>2026-02-02T11:44:49Z</time>
      </trkpt>
      <trkpt lat="45.96835" lon="6.55487">
        <ele>2084.3</ele>
        <time>2026-02-02T11:44:50Z</time>
      </trkpt>
      <trkpt lat="45.96833" lon="6.55483">
        <ele>2085.4</ele>
        <time>2026-02-02T11:44:51Z</time>
      </trkpt>
      <trkpt lat="45.96832" lon="6.55481">
        <ele>2085.4</ele>
        <time>2026-02-02T11:44:52Z</time>
      </trkpt>
      <trkpt lat="45.96831" lon="6.5548">
        <ele>2084.8</ele>
        <time>2026-02-02T11:44:53Z</time>
      </trkpt>
      <trkpt lat="45.96832" lon="6.5548">
        <ele>2084.8</ele>
        <time>2026-02-02T11:44:54Z</time>
      </trkpt>
      <trkpt lat="45.96832" lon="6.55477">
        <ele>2084.8</ele>
        <time>2026-02-02T11:44:55Z</time>
      </trkpt>
      <trkpt lat="45.96833" lon="6.55477">
        <ele>2084.8</ele>
        <time>2026-02-02T11:44:56Z</time>
      </trkpt>
      <trkpt lat="45.96835" lon="6.55474">
        <ele>2082.4</ele>
        <time>2026-02-02T11:44:57Z</time>
      </trkpt>
      <trkpt lat="45.96838" lon="6.55477">
        <ele>2081.4</ele>
        <time>2026-02-02T11:44:58Z</time>
      </trkpt>
      <trkpt lat="45.96841" lon="6.55477">
        <ele>2079.9</ele>
        <time>2026-02-02T11:44:59Z</time>
      </trkpt>
      <trkpt lat="45.96844" lon="6.55475">
        <ele>2077.8</ele>
        <time>2026-02-02T11:45:00Z</time>
      </trkpt>
      <trkpt lat="45.96846" lon="6.55471">
        <ele>2075.9</ele>
        <time>2026-02-02T11:45:01Z</time>
      </trkpt>
      <trkpt lat="45.9685" lon="6.55471">
        <ele>2074.5</ele>
        <time>2026-02-02T11:45:02Z</time>
      </trkpt>
      <trkpt lat="45.96852" lon="6.55466">
        <ele>2072.5</ele>
        <time>2026-02-02T11:45:03Z</time>
      </trkpt>
      <trkpt lat="45.96856" lon="6.55459">
        <ele>2070.4</ele>
        <time>2026-02-02T11:45:04Z</time>
      </trkpt>
      <trkpt lat="45.9686" lon="6.55461">
        <ele>2067</ele>
        <time>2026-02-02T11:45:05Z</time>
      </trkpt>
      <trkpt lat="45.96862" lon="6.55462">
        <ele>2067</ele>
        <time>2026-02-02T11:45:06Z</time>
      </trkpt>
      <trkpt lat="45.96863" lon="6.55457">
        <ele>2065</ele>
        <time>2026-02-02T11:45:07Z</time>
      </trkpt>
      <trkpt lat="45.96861" lon="6.55453">
        <ele>2066.3</ele>
        <time>2026-02-02T11:45:08Z</time>
      </trkpt>
      <trkpt lat="45.9686" lon="6.55452">
        <ele>2066.3</ele>
        <time>2026-02-02T11:45:09Z</time>
      </trkpt>
      <trkpt lat="45.96858" lon="6.55452">
        <ele>2068</ele>
        <time>2026-02-02T11:45:10Z</time>
      </trkpt>
      <trkpt lat="45.96858" lon="6.55452">
        <ele>2068</ele>
        <time>2026-02-02T11:45:11Z</time>
      </trkpt>
      <trkpt lat="45.96858" lon="6.55451">
        <ele>2068</ele>
        <time>2026-02-02T11:45:12Z</time>
      </trkpt>
      <trkpt lat="45.96857" lon="6.55451">
        <ele>2069.7</ele>
        <time>2026-02-02T11:45:13Z</time>
      </trkpt>
      <trkpt lat="45.96858" lon="6.55451">
        <ele>2068</ele>
        <time>2026-02-02T11:45:14Z</time>
      </trkpt>
      <trkpt lat="45.96858" lon="6.55451">
        <ele>2068</ele>
        <time>2026-02-02T11:45:15Z</time>
      </trkpt>
      <trkpt lat="45.96859" lon="6.55451">
        <ele>2068</ele>
        <time>2026-02-02T11:45:16Z</time>
      </trkpt>
      <trkpt lat="45.96859" lon="6.55451">
        <ele>2068</ele>
        <time>2026-02-02T11:45:17Z</time>
      </trkpt>
      <trkpt lat="45.9686" lon="6.55451">
        <ele>2068</ele>
        <time>2026-02-02T11:45:18Z</time>
      </trkpt>
      <trkpt lat="45.9686" lon="6.55451">
        <ele>2068</ele>
        <time>2026-02-02T11:45:19Z</time>
      </trkpt>
      <trkpt lat="45.96861" lon="6.55451">
        <ele>2066.3</ele>
        <time>2026-02-02T11:45:20Z</time>
      </trkpt>
      <trkpt lat="45.96861" lon="6.55451">
        <ele>2066.3</ele>
        <time>2026-02-02T11:45:21Z</time>
      </trkpt>
      <trkpt lat="45.96861" lon="6.55451">
        <ele>2066.3</ele>
        <time>2026-02-02T11:45:22Z</time>
      </trkpt>
      <trkpt lat="45.96866" lon="6.55452">
        <ele>2064.7</ele>
        <time>2026-02-02T11:45:23Z</time>
      </trkpt>
      <trkpt lat="45.9687" lon="6.55454">
        <ele>2061.6</ele>
        <time>2026-02-02T11:45:24Z</time>
      </trkpt>
      <trkpt lat="45.96874" lon="6.55453">
        <ele>2060</ele>
        <time>2026-02-02T11:45:25Z</time>
      </trkpt>
      <trkpt lat="45.96874" lon="6.55449">
        <ele>2059.7</ele>
        <time>2026-02-02T11:45:26Z</time>
      </trkpt>
      <trkpt lat="45.96874" lon="6.55447">
        <ele>2059.7</ele>
        <time>2026-02-02T11:45:27Z</time>
      </trkpt>
      <trkpt lat="45.96875" lon="6.55446">
        <ele>2059.7</ele>
        <time>2026-02-02T11:45:28Z</time>
      </trkpt>
      <trkpt lat="45.96876" lon="6.55446">
        <ele>2057.8</ele>
        <time>2026-02-02T11:45:29Z</time>
      </trkpt>
      <trkpt lat="45.96877" lon="6.55445">
        <ele>2057.8</ele>
        <time>2026-02-02T11:45:30Z</time>
      </trkpt>
      <trkpt lat="45.96878" lon="6.55445">
        <ele>2057.8</ele>
        <time>2026-02-02T11:45:31Z</time>
      </trkpt>
      <trkpt lat="45.96881" lon="6.55444">
        <ele>2054.5</ele>
        <time>2026-02-02T11:45:32Z</time>
      </trkpt>
      <trkpt lat="45.96883" lon="6.55444">
        <ele>2054.5</ele>
        <time>2026-02-02T11:45:33Z</time>
      </trkpt>
      <trkpt lat="45.96885" lon="6.55446">
        <ele>2052.7</ele>
        <time>2026-02-02T11:45:34Z</time>
      </trkpt>
      <trkpt lat="45.96886" lon="6.55447">
        <ele>2053.1</ele>
        <time>2026-02-02T11:45:35Z</time>
      </trkpt>
      <trkpt lat="45.96887" lon="6.55447">
        <ele>2053.1</ele>
        <time>2026-02-02T11:45:36Z</time>
      </trkpt>
      <trkpt lat="45.96887" lon="6.55447">
        <ele>2051.3</ele>
        <time>2026-02-02T11:45:37Z</time>
      </trkpt>
      <trkpt lat="45.96888" lon="6.55447">
        <ele>2051.3</ele>
        <time>2026-02-02T11:45:38Z</time>
      </trkpt>
      <trkpt lat="45.96888" lon="6.55447">
        <ele>2051.3</ele>
        <time>2026-02-02T11:45:39Z</time>
      </trkpt>
      <trkpt lat="45.96889" lon="6.55447">
        <ele>2051.3</ele>
        <time>2026-02-02T11:45:40Z</time>
      </trkpt>
      <trkpt lat="45.96889" lon="6.55447">
        <ele>2051.3</ele>
        <time>2026-02-02T11:45:41Z</time>
      </trkpt>
      <trkpt lat="45.96889" lon="6.55447">
        <ele>2051.3</ele>
        <time>2026-02-02T11:45:42Z</time>
      </trkpt>
      <trkpt lat="45.9689" lon="6.55447">
        <ele>2051.3</ele>
        <time>2026-02-02T11:45:43Z</time>
      </trkpt>
      <trkpt lat="45.9689" lon="6.55443">
        <ele>2050.8</ele>
        <time>2026-02-02T11:45:44Z</time>
      </trkpt>
      <trkpt lat="45.96889" lon="6.55441">
        <ele>2050.4</ele>
        <time>2026-02-02T11:45:45Z</time>
      </trkpt>
      <trkpt lat="45.96887" lon="6.55437">
        <ele>2051.8</ele>
        <time>2026-02-02T11:45:46Z</time>
      </trkpt>
      <trkpt lat="45.96885" lon="6.55434">
        <ele>2051.8</ele>
        <time>2026-02-02T11:45:47Z</time>
      </trkpt>
      <trkpt lat="45.96885" lon="6.55434">
        <ele>2051.8</ele>
        <time>2026-02-02T11:45:48Z</time>
      </trkpt>
      <trkpt lat="45.96884" lon="6.55434">
        <ele>2053.7</ele>
        <time>2026-02-02T11:45:49Z</time>
      </trkpt>
      <trkpt lat="45.96883" lon="6.55434">
        <ele>2053.7</ele>
        <time>2026-02-02T11:45:50Z</time>
      </trkpt>
      <trkpt lat="45.96884" lon="6.55433">
        <ele>2053.3</ele>
        <time>2026-02-02T11:45:51Z</time>
      </trkpt>
      <trkpt lat="45.96884" lon="6.55433">
        <ele>2051.4</ele>
        <time>2026-02-02T11:45:52Z</time>
      </trkpt>
      <trkpt lat="45.96885" lon="6.55432">
        <ele>2051.4</ele>
        <time>2026-02-02T11:45:53Z</time>
      </trkpt>
      <trkpt lat="45.96885" lon="6.55432">
        <ele>2051.4</ele>
        <time>2026-02-02T11:45:54Z</time>
      </trkpt>
      <trkpt lat="45.96885" lon="6.55432">
        <ele>2051.4</ele>
        <time>2026-02-02T11:45:55Z</time>
      </trkpt>
      <trkpt lat="45.96886" lon="6.55432">
        <ele>2051.4</ele>
        <time>2026-02-02T11:45:56Z</time>
      </trkpt>
      <trkpt lat="45.96886" lon="6.55431">
        <ele>2051.4</ele>
        <time>2026-02-02T11:45:57Z</time>
      </trkpt>
      <trkpt lat="45.96886" lon="6.55431">
        <ele>2051.4</ele>
        <time>2026-02-02T11:45:58Z</time>
      </trkpt>
      <trkpt lat="45.96888" lon="6.55431">
        <ele>2049.4</ele>
        <time>2026-02-02T11:45:59Z</time>
      </trkpt>
      <trkpt lat="45.96889" lon="6.55431">
        <ele>2049.4</ele>
        <time>2026-02-02T11:46:00Z</time>
      </trkpt>
      <trkpt lat="45.96889" lon="6.5543">
        <ele>2049.4</ele>
        <time>2026-02-02T11:46:01Z</time>
      </trkpt>
      <trkpt lat="45.96889" lon="6.55427">
        <ele>2049</ele>
        <time>2026-02-02T11:46:02Z</time>
      </trkpt>
      <trkpt lat="45.96887" lon="6.55426">
        <ele>2049</ele>
        <time>2026-02-02T11:46:03Z</time>
      </trkpt>
      <trkpt lat="45.96886" lon="6.55426">
        <ele>2051</ele>
        <time>2026-02-02T11:46:04Z</time>
      </trkpt>
      <trkpt lat="45.96885" lon="6.55425">
        <ele>2051</ele>
        <time>2026-02-02T11:46:05Z</time>
      </trkpt>
      <trkpt lat="45.96885" lon="6.55425">
        <ele>2051</ele>
        <time>2026-02-02T11:46:06Z</time>
      </trkpt>
      <trkpt lat="45.96887" lon="6.55425">
        <ele>2051</ele>
        <time>2026-02-02T11:46:07Z</time>
      </trkpt>
      <trkpt lat="45.96888" lon="6.55424">
        <ele>2048.5</ele>
        <time>2026-02-02T11:46:08Z</time>
      </trkpt>
      <trkpt lat="45.96889" lon="6.55424">
        <ele>2048.5</ele>
        <time>2026-02-02T11:46:09Z</time>
      </trkpt>
      <trkpt lat="45.96889" lon="6.55424">
        <ele>2048.5</ele>
        <time>2026-02-02T11:46:10Z</time>
      </trkpt>
      <trkpt lat="45.96889" lon="6.55425">
        <ele>2049</ele>
        <time>2026-02-02T11:46:11Z</time>
      </trkpt>
      <trkpt lat="45.96889" lon="6.55425">
        <ele>2049</ele>
        <time>2026-02-02T11:46:12Z</time>
      </trkpt>
      <trkpt lat="45.96889" lon="6.55425">
        <ele>2049</ele>
        <time>2026-02-02T11:46:13Z</time>
      </trkpt>
      <trkpt lat="45.96889" lon="6.55425">
        <ele>2049</ele>
        <time>2026-02-02T11:46:14Z</time>
      </trkpt>
      <trkpt lat="45.96889" lon="6.55425">
        <ele>2049</ele>
        <time>2026-02-02T11:46:15Z</time>
      </trkpt>
      <trkpt lat="45.9689" lon="6.55423">
        <ele>2046.4</ele>
        <time>2026-02-02T11:46:16Z</time>
      </trkpt>
      <trkpt lat="45.96889" lon="6.55421">
        <ele>2048.5</ele>
        <time>2026-02-02T11:46:17Z</time>
      </trkpt>
      <trkpt lat="45.96888" lon="6.55419">
        <ele>2048.1</ele>
        <time>2026-02-02T11:46:18Z</time>
      </trkpt>
      <trkpt lat="45.96885" lon="6.55415">
        <ele>2049.8</ele>
        <time>2026-02-02T11:46:19Z</time>
      </trkpt>
      <trkpt lat="45.96884" lon="6.55413">
        <ele>2049.8</ele>
        <time>2026-02-02T11:46:20Z</time>
      </trkpt>
      <trkpt lat="45.9688" lon="6.55408">
        <ele>2053.6</ele>
        <time>2026-02-02T11:46:21Z</time>
      </trkpt>
      <trkpt lat="45.96875" lon="6.55401">
        <ele>2057</ele>
        <time>2026-02-02T11:46:22Z</time>
      </trkpt>
      <trkpt lat="45.96871" lon="6.55393">
        <ele>2058.9</ele>
        <time>2026-02-02T11:46:23Z</time>
      </trkpt>
      <trkpt lat="45.96868" lon="6.55383">
        <ele>2061.1</ele>
        <time>2026-02-02T11:46:24Z</time>
      </trkpt>
      <trkpt lat="45.96864" lon="6.55374">
        <ele>2063.6</ele>
        <time>2026-02-02T11:46:25Z</time>
      </trkpt>
      <trkpt lat="45.96861" lon="6.55365">
        <ele>2066.3</ele>
        <time>2026-02-02T11:46:26Z</time>
      </trkpt>
      <trkpt lat="45.96861" lon="6.55359">
        <ele>2067</ele>
        <time>2026-02-02T11:46:27Z</time>
      </trkpt>
      <trkpt lat="45.96861" lon="6.55357">
        <ele>2067</ele>
        <time>2026-02-02T11:46:28Z</time>
      </trkpt>
      <trkpt lat="45.96861" lon="6.55352">
        <ele>2067.4</ele>
        <time>2026-02-02T11:46:29Z</time>
      </trkpt>
      <trkpt lat="45.96861" lon="6.55351">
        <ele>2067.8</ele>
        <time>2026-02-02T11:46:30Z</time>
      </trkpt>
      <trkpt lat="45.96862" lon="6.55347">
        <ele>2068.2</ele>
        <time>2026-02-02T11:46:31Z</time>
      </trkpt>
      <trkpt lat="45.96863" lon="6.55345">
        <ele>2068.2</ele>
        <time>2026-02-02T11:46:32Z</time>
      </trkpt>
      <trkpt lat="45.96864" lon="6.55341">
        <ele>2066.4</ele>
        <time>2026-02-02T11:46:33Z</time>
      </trkpt>
      <trkpt lat="45.96865" lon="6.55336">
        <ele>2066.8</ele>
        <time>2026-02-02T11:46:34Z</time>
      </trkpt>
      <trkpt lat="45.96865" lon="6.55334">
        <ele>2067.3</ele>
        <time>2026-02-02T11:46:35Z</time>
      </trkpt>
      <trkpt lat="45.96866" lon="6.55332">
        <ele>2067.3</ele>
        <time>2026-02-02T11:46:36Z</time>
      </trkpt>
      <trkpt lat="45.96867" lon="6.55331">
        <ele>2065</ele>
        <time>2026-02-02T11:46:37Z</time>
      </trkpt>
      <trkpt lat="45.96867" lon="6.55332">
        <ele>2065</ele>
        <time>2026-02-02T11:46:38Z</time>
      </trkpt>
      <trkpt lat="45.96867" lon="6.55332">
        <ele>2065</ele>
        <time>2026-02-02T11:46:39Z</time>
      </trkpt>
      <trkpt lat="45.96867" lon="6.55332">
        <ele>2065</ele>
        <time>2026-02-02T11:46:40Z</time>
      </trkpt>
      <trkpt lat="45.96867" lon="6.55332">
        <ele>2065</ele>
        <time>2026-02-02T11:46:41Z</time>
      </trkpt>
      <trkpt lat="45.96867" lon="6.55332">
        <ele>2065</ele>
        <time>2026-02-02T11:46:42Z</time>
      </trkpt>
      <trkpt lat="45.96867" lon="6.55332">
        <ele>2065</ele>
        <time>2026-02-02T11:46:43Z</time>
      </trkpt>
      <trkpt lat="45.96867" lon="6.55332">
        <ele>2065</ele>
        <time>2026-02-02T11:46:44Z</time>
      </trkpt>
      <trkpt lat="45.96867" lon="6.55332">
        <ele>2065</ele>
        <time>2026-02-02T11:46:45Z</time>
      </trkpt>
      <trkpt lat="45.96867" lon="6.55332">
        <ele>2065</ele>
        <time>2026-02-02T11:46:46Z</time>
      </trkpt>
      <trkpt lat="45.96867" lon="6.55332">
        <ele>2065</ele>
        <time>2026-02-02T11:46:47Z</time>
      </trkpt>
      <trkpt lat="45.96867" lon="6.55332">
        <ele>2065</ele>
        <time>2026-02-02T11:46:48Z</time>
      </trkpt>
      <trkpt lat="45.96867" lon="6.55332">
        <ele>2065</ele>
        <time>2026-02-02T11:46:49Z</time>
      </trkpt>
      <trkpt lat="45.96867" lon="6.55332">
        <ele>2065</ele>
        <time>2026-02-02T11:46:50Z</time>
      </trkpt>
      <trkpt lat="45.96867" lon="6.55331">
        <ele>2065</ele>
        <time>2026-02-02T11:46:51Z</time>
      </trkpt>
      <trkpt lat="45.96868" lon="6.55329">
        <ele>2065.3</ele>
        <time>2026-02-02T11:46:52Z</time>
      </trkpt>
      <trkpt lat="45.96869" lon="6.55327">
        <ele>2065.3</ele>
        <time>2026-02-02T11:46:53Z</time>
      </trkpt>
      <trkpt lat="45.9687" lon="6.55326">
        <ele>2063.1</ele>
        <time>2026-02-02T11:46:54Z</time>
      </trkpt>
      <trkpt lat="45.96871" lon="6.55327">
        <ele>2063.1</ele>
        <time>2026-02-02T11:46:55Z</time>
      </trkpt>
      <trkpt lat="45.96872" lon="6.55327">
        <ele>2060.9</ele>
        <time>2026-02-02T11:46:56Z</time>
      </trkpt>
      <trkpt lat="45.96872" lon="6.55333">
        <ele>2060.6</ele>
        <time>2026-02-02T11:46:57Z</time>
      </trkpt>
      <trkpt lat="45.96873" lon="6.55337">
        <ele>2060.3</ele>
        <time>2026-02-02T11:46:58Z</time>
      </trkpt>
      <trkpt lat="45.96875" lon="6.55342">
        <ele>2060</ele>
        <time>2026-02-02T11:46:59Z</time>
      </trkpt>
      <trkpt lat="45.96876" lon="6.55344">
        <ele>2057.6</ele>
        <time>2026-02-02T11:47:00Z</time>
      </trkpt>
      <trkpt lat="45.96877" lon="6.5535">
        <ele>2057.2</ele>
        <time>2026-02-02T11:47:01Z</time>
      </trkpt>
      <trkpt lat="45.96878" lon="6.55355">
        <ele>2054.8</ele>
        <time>2026-02-02T11:47:02Z</time>
      </trkpt>
      <trkpt lat="45.9688" lon="6.5536">
        <ele>2054.5</ele>
        <time>2026-02-02T11:47:03Z</time>
      </trkpt>
      <trkpt lat="45.96882" lon="6.55366">
        <ele>2051.9</ele>
        <time>2026-02-02T11:47:04Z</time>
      </trkpt>
      <trkpt lat="45.96885" lon="6.55372">
        <ele>2049.4</ele>
        <time>2026-02-02T11:47:05Z</time>
      </trkpt>
      <trkpt lat="45.96889" lon="6.55375">
        <ele>2047</ele>
        <time>2026-02-02T11:47:06Z</time>
      </trkpt>
      <trkpt lat="45.96891" lon="6.55377">
        <ele>2044.7</ele>
        <time>2026-02-02T11:47:07Z</time>
      </trkpt>
      <trkpt lat="45.96892" lon="6.55377">
        <ele>2044.7</ele>
        <time>2026-02-02T11:47:08Z</time>
      </trkpt>
      <trkpt lat="45.96893" lon="6.55379">
        <ele>2044.6</ele>
        <time>2026-02-02T11:47:09Z</time>
      </trkpt>
      <trkpt lat="45.96893" lon="6.55379">
        <ele>2044.6</ele>
        <time>2026-02-02T11:47:10Z</time>
      </trkpt>
      <trkpt lat="45.96893" lon="6.55379">
        <ele>2044.6</ele>
        <time>2026-02-02T11:47:11Z</time>
      </trkpt>
      <trkpt lat="45.96893" lon="6.55379">
        <ele>2044.6</ele>
        <time>2026-02-02T11:47:12Z</time>
      </trkpt>
      <trkpt lat="45.96893" lon="6.55379">
        <ele>2044.6</ele>
        <time>2026-02-02T11:47:13Z</time>
      </trkpt>
      <trkpt lat="45.96892" lon="6.55378">
        <ele>2044.6</ele>
        <time>2026-02-02T11:47:14Z</time>
      </trkpt>
      <trkpt lat="45.96893" lon="6.55377">
        <ele>2044.7</ele>
        <time>2026-02-02T11:47:15Z</time>
      </trkpt>
      <trkpt lat="45.96895" lon="6.55374">
        <ele>2042.4</ele>
        <time>2026-02-02T11:47:16Z</time>
      </trkpt>
      <trkpt lat="45.96895" lon="6.55367">
        <ele>2042.7</ele>
        <time>2026-02-02T11:47:17Z</time>
      </trkpt>
      <trkpt lat="45.96893" lon="6.55358">
        <ele>2045.5</ele>
        <time>2026-02-02T11:47:18Z</time>
      </trkpt>
      <trkpt lat="45.96891" lon="6.55351">
        <ele>2046</ele>
        <time>2026-02-02T11:47:19Z</time>
      </trkpt>
      <trkpt lat="45.9689" lon="6.55345">
        <ele>2048.6</ele>
        <time>2026-02-02T11:47:20Z</time>
      </trkpt>
      <trkpt lat="45.9689" lon="6.5534">
        <ele>2048.8</ele>
        <time>2026-02-02T11:47:21Z</time>
      </trkpt>
      <trkpt lat="45.9689" lon="6.55333">
        <ele>2049.1</ele>
        <time>2026-02-02T11:47:22Z</time>
      </trkpt>
      <trkpt lat="45.96889" lon="6.55328">
        <ele>2049.2</ele>
        <time>2026-02-02T11:47:23Z</time>
      </trkpt>
      <trkpt lat="45.96888" lon="6.55324">
        <ele>2049.2</ele>
        <time>2026-02-02T11:47:24Z</time>
      </trkpt>
      <trkpt lat="45.96888" lon="6.55319">
        <ele>2049.2</ele>
        <time>2026-02-02T11:47:25Z</time>
      </trkpt>
      <trkpt lat="45.96887" lon="6.55314">
        <ele>2049.1</ele>
        <time>2026-02-02T11:47:26Z</time>
      </trkpt>
      <trkpt lat="45.96887" lon="6.55313">
        <ele>2049</ele>
        <time>2026-02-02T11:47:27Z</time>
      </trkpt>
      <trkpt lat="45.96889" lon="6.55311">
        <ele>2049</ele>
        <time>2026-02-02T11:47:28Z</time>
      </trkpt>
      <trkpt lat="45.96891" lon="6.5531">
        <ele>2046.3</ele>
        <time>2026-02-02T11:47:29Z</time>
      </trkpt>
      <trkpt lat="45.96892" lon="6.5531">
        <ele>2046.3</ele>
        <time>2026-02-02T11:47:30Z</time>
      </trkpt>
      <trkpt lat="45.96895" lon="6.55314">
        <ele>2043.8</ele>
        <time>2026-02-02T11:47:31Z</time>
      </trkpt>
      <trkpt lat="45.96897" lon="6.55318">
        <ele>2041.3</ele>
        <time>2026-02-02T11:47:32Z</time>
      </trkpt>
      <trkpt lat="45.96901" lon="6.55322">
        <ele>2039.1</ele>
        <time>2026-02-02T11:47:33Z</time>
      </trkpt>
      <trkpt lat="45.96903" lon="6.55326">
        <ele>2037</ele>
        <time>2026-02-02T11:47:34Z</time>
      </trkpt>
      <trkpt lat="45.96906" lon="6.55329">
        <ele>2034.8</ele>
        <time>2026-02-02T11:47:35Z</time>
      </trkpt>
      <trkpt lat="45.9691" lon="6.55331">
        <ele>2032.6</ele>
        <time>2026-02-02T11:47:36Z</time>
      </trkpt>
      <trkpt lat="45.96914" lon="6.55329">
        <ele>2030</ele>
        <time>2026-02-02T11:47:37Z</time>
      </trkpt>
      <trkpt lat="45.96913" lon="6.55321">
        <ele>2029.5</ele>
        <time>2026-02-02T11:47:38Z</time>
      </trkpt>
      <trkpt lat="45.96912" lon="6.55314">
        <ele>2029.2</ele>
        <time>2026-02-02T11:47:39Z</time>
      </trkpt>
      <trkpt lat="45.96912" lon="6.55306">
        <ele>2028.6</ele>
        <time>2026-02-02T11:47:40Z</time>
      </trkpt>
      <trkpt lat="45.96912" lon="6.55297">
        <ele>2028.1</ele>
        <time>2026-02-02T11:47:41Z</time>
      </trkpt>
      <trkpt lat="45.96912" lon="6.55289">
        <ele>2027.7</ele>
        <time>2026-02-02T11:47:42Z</time>
      </trkpt>
      <trkpt lat="45.96914" lon="6.55283">
        <ele>2024.8</ele>
        <time>2026-02-02T11:47:43Z</time>
      </trkpt>
      <trkpt lat="45.96916" lon="6.55278">
        <ele>2024.8</ele>
        <time>2026-02-02T11:47:44Z</time>
      </trkpt>
      <trkpt lat="45.96917" lon="6.55273">
        <ele>2022</ele>
        <time>2026-02-02T11:47:45Z</time>
      </trkpt>
      <trkpt lat="45.96918" lon="6.55272">
        <ele>2022</ele>
        <time>2026-02-02T11:47:46Z</time>
      </trkpt>
      <trkpt lat="45.9692" lon="6.55269">
        <ele>2022</ele>
        <time>2026-02-02T11:47:47Z</time>
      </trkpt>
      <trkpt lat="45.96922" lon="6.55265">
        <ele>2019.3</ele>
        <time>2026-02-02T11:47:48Z</time>
      </trkpt>
      <trkpt lat="45.96925" lon="6.5526">
        <ele>2016.7</ele>
        <time>2026-02-02T11:47:49Z</time>
      </trkpt>
      <trkpt lat="45.96927" lon="6.55256">
        <ele>2014.3</ele>
        <time>2026-02-02T11:47:50Z</time>
      </trkpt>
      <trkpt lat="45.9693" lon="6.55251">
        <ele>2011.9</ele>
        <time>2026-02-02T11:47:51Z</time>
      </trkpt>
      <trkpt lat="45.96932" lon="6.55247">
        <ele>2009.5</ele>
        <time>2026-02-02T11:47:52Z</time>
      </trkpt>
      <trkpt lat="45.96936" lon="6.55242">
        <ele>2006.8</ele>
        <time>2026-02-02T11:47:53Z</time>
      </trkpt>
      <trkpt lat="45.96939" lon="6.55238">
        <ele>2004.1</ele>
        <time>2026-02-02T11:47:54Z</time>
      </trkpt>
      <trkpt lat="45.96941" lon="6.55234">
        <ele>2001.3</ele>
        <time>2026-02-02T11:47:55Z</time>
      </trkpt>
      <trkpt lat="45.96944" lon="6.5523">
        <ele>1998.6</ele>
        <time>2026-02-02T11:47:56Z</time>
      </trkpt>
      <trkpt lat="45.96947" lon="6.55227">
        <ele>1996.1</ele>
        <time>2026-02-02T11:47:57Z</time>
      </trkpt>
      <trkpt lat="45.96949" lon="6.55222">
        <ele>1996.3</ele>
        <time>2026-02-02T11:47:58Z</time>
      </trkpt>
      <trkpt lat="45.9695" lon="6.55218">
        <ele>1994.1</ele>
        <time>2026-02-02T11:47:59Z</time>
      </trkpt>
      <trkpt lat="45.96952" lon="6.55215">
        <ele>1994.1</ele>
        <time>2026-02-02T11:48:00Z</time>
      </trkpt>
      <trkpt lat="45.96952" lon="6.55213">
        <ele>1994.3</ele>
        <time>2026-02-02T11:48:01Z</time>
      </trkpt>
      <trkpt lat="45.96953" lon="6.55211">
        <ele>1994.3</ele>
        <time>2026-02-02T11:48:02Z</time>
      </trkpt>
      <trkpt lat="45.96953" lon="6.5521">
        <ele>1992</ele>
        <time>2026-02-02T11:48:03Z</time>
      </trkpt>
      <trkpt lat="45.96952" lon="6.5521">
        <ele>1994.5</ele>
        <time>2026-02-02T11:48:04Z</time>
      </trkpt>
      <trkpt lat="45.96952" lon="6.5521">
        <ele>1994.5</ele>
        <time>2026-02-02T11:48:05Z</time>
      </trkpt>
      <trkpt lat="45.96952" lon="6.5521">
        <ele>1994.5</ele>
        <time>2026-02-02T11:48:06Z</time>
      </trkpt>
      <trkpt lat="45.96952" lon="6.55209">
        <ele>1994.5</ele>
        <time>2026-02-02T11:48:07Z</time>
      </trkpt>
      <trkpt lat="45.96951" lon="6.55209">
        <ele>1994.5</ele>
        <time>2026-02-02T11:48:08Z</time>
      </trkpt>
      <trkpt lat="45.96951" lon="6.55209">
        <ele>1994.5</ele>
        <time>2026-02-02T11:48:09Z</time>
      </trkpt>
      <trkpt lat="45.96951" lon="6.55209">
        <ele>1994.5</ele>
        <time>2026-02-02T11:48:10Z</time>
      </trkpt>
      <trkpt lat="45.9695" lon="6.55209">
        <ele>1994.5</ele>
        <time>2026-02-02T11:48:11Z</time>
      </trkpt>
      <trkpt lat="45.9695" lon="6.55208">
        <ele>1994.5</ele>
        <time>2026-02-02T11:48:12Z</time>
      </trkpt>
      <trkpt lat="45.9695" lon="6.55208">
        <ele>1997</ele>
        <time>2026-02-02T11:48:13Z</time>
      </trkpt>
      <trkpt lat="45.96949" lon="6.55208">
        <ele>1997</ele>
        <time>2026-02-02T11:48:14Z</time>
      </trkpt>
      <trkpt lat="45.96949" lon="6.55208">
        <ele>1997</ele>
        <time>2026-02-02T11:48:15Z</time>
      </trkpt>
      <trkpt lat="45.96949" lon="6.55208">
        <ele>1997</ele>
        <time>2026-02-02T11:48:16Z</time>
      </trkpt>
      <trkpt lat="45.96948" lon="6.55208">
        <ele>1997</ele>
        <time>2026-02-02T11:48:17Z</time>
      </trkpt>
      <trkpt lat="45.96948" lon="6.55207">
        <ele>1997</ele>
        <time>2026-02-02T11:48:18Z</time>
      </trkpt>
      <trkpt lat="45.96948" lon="6.55207">
        <ele>1997</ele>
        <time>2026-02-02T11:48:19Z</time>
      </trkpt>
      <trkpt lat="45.96948" lon="6.55207">
        <ele>1997</ele>
        <time>2026-02-02T11:48:20Z</time>
      </trkpt>
      <trkpt lat="45.96947" lon="6.55207">
        <ele>1997</ele>
        <time>2026-02-02T11:48:21Z</time>
      </trkpt>
      <trkpt lat="45.96947" lon="6.55207">
        <ele>1997</ele>
        <time>2026-02-02T11:48:22Z</time>
      </trkpt>
      <trkpt lat="45.96944" lon="6.55204">
        <ele>1999.9</ele>
        <time>2026-02-02T11:48:23Z</time>
      </trkpt>
      <trkpt lat="45.96939" lon="6.55201">
        <ele>2005.8</ele>
        <time>2026-02-02T11:48:24Z</time>
      </trkpt>
      <trkpt lat="45.96935" lon="6.55195">
        <ele>2011.3</ele>
        <time>2026-02-02T11:48:25Z</time>
      </trkpt>
      <trkpt lat="45.96936" lon="6.55196">
        <ele>2008.7</ele>
        <time>2026-02-02T11:48:26Z</time>
      </trkpt>
      <trkpt lat="45.96937" lon="6.55197">
        <ele>2008.7</ele>
        <time>2026-02-02T11:48:27Z</time>
      </trkpt>
      <trkpt lat="45.96938" lon="6.55198">
        <ele>2005.8</ele>
        <time>2026-02-02T11:48:28Z</time>
      </trkpt>
      <trkpt lat="45.96939" lon="6.55199">
        <ele>2005.8</ele>
        <time>2026-02-02T11:48:29Z</time>
      </trkpt>
      <trkpt lat="45.9694" lon="6.55199">
        <ele>2005.8</ele>
        <time>2026-02-02T11:48:30Z</time>
      </trkpt>
      <trkpt lat="45.96941" lon="6.552">
        <ele>2005.8</ele>
        <time>2026-02-02T11:48:31Z</time>
      </trkpt>
      <trkpt lat="45.96942" lon="6.55201">
        <ele>2002.9</ele>
        <time>2026-02-02T11:48:32Z</time>
      </trkpt>
      <trkpt lat="45.96944" lon="6.55207">
        <ele>1999.7</ele>
        <time>2026-02-02T11:48:33Z</time>
      </trkpt>
      <trkpt lat="45.96944" lon="6.55207">
        <ele>1999.7</ele>
        <time>2026-02-02T11:48:34Z</time>
      </trkpt>
      <trkpt lat="45.96944" lon="6.55207">
        <ele>1999.7</ele>
        <time>2026-02-02T11:48:35Z</time>
      </trkpt>
      <trkpt lat="45.96944" lon="6.55207">
        <ele>1999.7</ele>
        <time>2026-02-02T11:48:36Z</time>
      </trkpt>
      <trkpt lat="45.96944" lon="6.55207">
        <ele>1999.7</ele>
        <time>2026-02-02T11:48:37Z</time>
      </trkpt>
      <trkpt lat="45.96944" lon="6.55207">
        <ele>1999.7</ele>
        <time>2026-02-02T11:48:38Z</time>
      </trkpt>
      <trkpt lat="45.96944" lon="6.55207">
        <ele>1999.7</ele>
        <time>2026-02-02T11:48:39Z</time>
      </trkpt>
      <trkpt lat="45.96944" lon="6.55207">
        <ele>1999.7</ele>
        <time>2026-02-02T11:48:40Z</time>
      </trkpt>
      <trkpt lat="45.96944" lon="6.55207">
        <ele>1999.7</ele>
        <time>2026-02-02T11:48:41Z</time>
      </trkpt>
      <trkpt lat="45.96944" lon="6.55207">
        <ele>1999.7</ele>
        <time>2026-02-02T11:48:42Z</time>
      </trkpt>
      <trkpt lat="45.96944" lon="6.55207">
        <ele>1999.7</ele>
        <time>2026-02-02T11:48:43Z</time>
      </trkpt>
      <trkpt lat="45.96944" lon="6.55207">
        <ele>1999.7</ele>
        <time>2026-02-02T11:48:44Z</time>
      </trkpt>
      <trkpt lat="45.96944" lon="6.55207">
        <ele>1999.7</ele>
        <time>2026-02-02T11:48:45Z</time>
      </trkpt>
      <trkpt lat="45.96945" lon="6.55208">
        <ele>1999.7</ele>
        <time>2026-02-02T11:48:46Z</time>
      </trkpt>
      <trkpt lat="45.96945" lon="6.5521">
        <ele>1999.7</ele>
        <time>2026-02-02T11:48:47Z</time>
      </trkpt>
      <trkpt lat="45.96946" lon="6.55211">
        <ele>1999.4</ele>
        <time>2026-02-02T11:48:48Z</time>
      </trkpt>
      <trkpt lat="45.96947" lon="6.5521">
        <ele>1997</ele>
        <time>2026-02-02T11:48:49Z</time>
      </trkpt>
      <trkpt lat="45.96949" lon="6.55207">
        <ele>1997</ele>
        <time>2026-02-02T11:48:50Z</time>
      </trkpt>
      <trkpt lat="45.96951" lon="6.55202">
        <ele>1994.7</ele>
        <time>2026-02-02T11:48:51Z</time>
      </trkpt>
      <trkpt lat="45.96951" lon="6.552">
        <ele>1994.9</ele>
        <time>2026-02-02T11:48:52Z</time>
      </trkpt>
      <trkpt lat="45.96953" lon="6.55196">
        <ele>1992.6</ele>
        <time>2026-02-02T11:48:53Z</time>
      </trkpt>
      <trkpt lat="45.96955" lon="6.55191">
        <ele>1992.7</ele>
        <time>2026-02-02T11:48:54Z</time>
      </trkpt>
      <trkpt lat="45.96958" lon="6.55186">
        <ele>1990.6</ele>
        <time>2026-02-02T11:48:55Z</time>
      </trkpt>
      <trkpt lat="45.9696" lon="6.55184">
        <ele>1988.6</ele>
        <time>2026-02-02T11:48:56Z</time>
      </trkpt>
      <trkpt lat="45.96964" lon="6.5518">
        <ele>1986.6</ele>
        <time>2026-02-02T11:48:57Z</time>
      </trkpt>
      <trkpt lat="45.96966" lon="6.55179">
        <ele>1984.8</ele>
        <time>2026-02-02T11:48:58Z</time>
      </trkpt>
      <trkpt lat="45.96969" lon="6.55178">
        <ele>1982.9</ele>
        <time>2026-02-02T11:48:59Z</time>
      </trkpt>
      <trkpt lat="45.96973" lon="6.55178">
        <ele>1981</ele>
        <time>2026-02-02T11:49:00Z</time>
      </trkpt>
      <trkpt lat="45.96976" lon="6.55178">
        <ele>1979.1</ele>
        <time>2026-02-02T11:49:01Z</time>
      </trkpt>
      <trkpt lat="45.96978" lon="6.55177">
        <ele>1977.2</ele>
        <time>2026-02-02T11:49:02Z</time>
      </trkpt>
      <trkpt lat="45.96983" lon="6.55177">
        <ele>1973.6</ele>
        <time>2026-02-02T11:49:03Z</time>
      </trkpt>
      <trkpt lat="45.9699" lon="6.55176">
        <ele>1970.3</ele>
        <time>2026-02-02T11:49:04Z</time>
      </trkpt>
      <trkpt lat="45.96994" lon="6.55175">
        <ele>1968.5</ele>
        <time>2026-02-02T11:49:05Z</time>
      </trkpt>
      <trkpt lat="45.96998" lon="6.55173">
        <ele>1964.5</ele>
        <time>2026-02-02T11:49:06Z</time>
      </trkpt>
      <trkpt lat="45.97" lon="6.55172">
        <ele>1964.5</ele>
        <time>2026-02-02T11:49:07Z</time>
      </trkpt>
      <trkpt lat="45.97002" lon="6.5517">
        <ele>1962.2</ele>
        <time>2026-02-02T11:49:08Z</time>
      </trkpt>
      <trkpt lat="45.97006" lon="6.55167">
        <ele>1960.3</ele>
        <time>2026-02-02T11:49:09Z</time>
      </trkpt>
      <trkpt lat="45.97008" lon="6.55163">
        <ele>1958.2</ele>
        <time>2026-02-02T11:49:10Z</time>
      </trkpt>
      <trkpt lat="45.97011" lon="6.5516">
        <ele>1956.3</ele>
        <time>2026-02-02T11:49:11Z</time>
      </trkpt>
      <trkpt lat="45.97013" lon="6.55158">
        <ele>1954.5</ele>
        <time>2026-02-02T11:49:12Z</time>
      </trkpt>
      <trkpt lat="45.97015" lon="6.55155">
        <ele>1953.2</ele>
        <time>2026-02-02T11:49:13Z</time>
      </trkpt>
      <trkpt lat="45.97016" lon="6.55153">
        <ele>1952.8</ele>
        <time>2026-02-02T11:49:14Z</time>
      </trkpt>
      <trkpt lat="45.97018" lon="6.55149">
        <ele>1951.1</ele>
        <time>2026-02-02T11:49:15Z</time>
      </trkpt>
      <trkpt lat="45.97019" lon="6.55148">
        <ele>1951.1</ele>
        <time>2026-02-02T11:49:16Z</time>
      </trkpt>
      <trkpt lat="45.97021" lon="6.55143">
        <ele>1950.7</ele>
        <time>2026-02-02T11:49:17Z</time>
      </trkpt>
      <trkpt lat="45.97021" lon="6.55142">
        <ele>1950.7</ele>
        <time>2026-02-02T11:49:18Z</time>
      </trkpt>
      <trkpt lat="45.97022" lon="6.55137">
        <ele>1949.1</ele>
        <time>2026-02-02T11:49:19Z</time>
      </trkpt>
      <trkpt lat="45.97026" lon="6.55136">
        <ele>1947.5</ele>
        <time>2026-02-02T11:49:20Z</time>
      </trkpt>
      <trkpt lat="45.97031" lon="6.55135">
        <ele>1945.3</ele>
        <time>2026-02-02T11:49:21Z</time>
      </trkpt>
      <trkpt lat="45.97036" lon="6.55132">
        <ele>1943.1</ele>
        <time>2026-02-02T11:49:22Z</time>
      </trkpt>
      <trkpt lat="45.97042" lon="6.55128">
        <ele>1942</ele>
        <time>2026-02-02T11:49:23Z</time>
      </trkpt>
      <trkpt lat="45.9705" lon="6.55125">
        <ele>1939.2</ele>
        <time>2026-02-02T11:49:24Z</time>
      </trkpt>
      <trkpt lat="45.97057" lon="6.5512">
        <ele>1935.8</ele>
        <time>2026-02-02T11:49:25Z</time>
      </trkpt>
      <trkpt lat="45.97062" lon="6.55116">
        <ele>1934.5</ele>
        <time>2026-02-02T11:49:26Z</time>
      </trkpt>
      <trkpt lat="45.97066" lon="6.55115">
        <ele>1933.2</ele>
        <time>2026-02-02T11:49:27Z</time>
      </trkpt>
      <trkpt lat="45.97068" lon="6.55115">
        <ele>1932.3</ele>
        <time>2026-02-02T11:49:28Z</time>
      </trkpt>
      <trkpt lat="45.9707" lon="6.55114">
        <ele>1931.6</ele>
        <time>2026-02-02T11:49:29Z</time>
      </trkpt>
      <trkpt lat="45.97071" lon="6.55113">
        <ele>1931.6</ele>
        <time>2026-02-02T11:49:30Z</time>
      </trkpt>
      <trkpt lat="45.97071" lon="6.55113">
        <ele>1931.6</ele>
        <time>2026-02-02T11:49:31Z</time>
      </trkpt>
      <trkpt lat="45.97071" lon="6.55113">
        <ele>1931.6</ele>
        <time>2026-02-02T11:49:32Z</time>
      </trkpt>
      <trkpt lat="45.97071" lon="6.55113">
        <ele>1931.6</ele>
        <time>2026-02-02T11:49:33Z</time>
      </trkpt>
      <trkpt lat="45.97072" lon="6.55113">
        <ele>1931.6</ele>
        <time>2026-02-02T11:49:34Z</time>
      </trkpt>
      <trkpt lat="45.97072" lon="6.55113">
        <ele>1930.8</ele>
        <time>2026-02-02T11:49:35Z</time>
      </trkpt>
      <trkpt lat="45.97072" lon="6.55113">
        <ele>1930.8</ele>
        <time>2026-02-02T11:49:36Z</time>
      </trkpt>
      <trkpt lat="45.97072" lon="6.55113">
        <ele>1930.8</ele>
        <time>2026-02-02T11:49:37Z</time>
      </trkpt>
      <trkpt lat="45.97072" lon="6.55113">
        <ele>1930.8</ele>
        <time>2026-02-02T11:49:38Z</time>
      </trkpt>
      <trkpt lat="45.97072" lon="6.55113">
        <ele>1930.8</ele>
        <time>2026-02-02T11:49:39Z</time>
      </trkpt>
      <trkpt lat="45.97072" lon="6.55113">
        <ele>1930.8</ele>
        <time>2026-02-02T11:49:40Z</time>
      </trkpt>
      <trkpt lat="45.97072" lon="6.55113">
        <ele>1930.8</ele>
        <time>2026-02-02T11:49:41Z</time>
      </trkpt>
      <trkpt lat="45.97072" lon="6.55113">
        <ele>1930.8</ele>
        <time>2026-02-02T11:49:42Z</time>
      </trkpt>
      <trkpt lat="45.97072" lon="6.55113">
        <ele>1930.8</ele>
        <time>2026-02-02T11:49:43Z</time>
      </trkpt>
      <trkpt lat="45.97072" lon="6.55113">
        <ele>1930.8</ele>
        <time>2026-02-02T11:49:44Z</time>
      </trkpt>
      <trkpt lat="45.97072" lon="6.55113">
        <ele>1930.8</ele>
        <time>2026-02-02T11:49:45Z</time>
      </trkpt>
      <trkpt lat="45.97072" lon="6.55113">
        <ele>1930.8</ele>
        <time>2026-02-02T11:49:46Z</time>
      </trkpt>
      <trkpt lat="45.97072" lon="6.55113">
        <ele>1930.8</ele>
        <time>2026-02-02T11:49:47Z</time>
      </trkpt>
      <trkpt lat="45.97072" lon="6.55113">
        <ele>1930.8</ele>
        <time>2026-02-02T11:49:48Z</time>
      </trkpt>
      <trkpt lat="45.97072" lon="6.55113">
        <ele>1930.8</ele>
        <time>2026-02-02T11:49:49Z</time>
      </trkpt>
      <trkpt lat="45.97072" lon="6.55113">
        <ele>1930.8</ele>
        <time>2026-02-02T11:49:50Z</time>
      </trkpt>
      <trkpt lat="45.97072" lon="6.55113">
        <ele>1930.8</ele>
        <time>2026-02-02T11:49:51Z</time>
      </trkpt>
      <trkpt lat="45.97073" lon="6.55113">
        <ele>1930.8</ele>
        <time>2026-02-02T11:49:52Z</time>
      </trkpt>
      <trkpt lat="45.97074" lon="6.55113">
        <ele>1930.8</ele>
        <time>2026-02-02T11:49:53Z</time>
      </trkpt>
      <trkpt lat="45.97074" lon="6.55113">
        <ele>1930.8</ele>
        <time>2026-02-02T11:49:54Z</time>
      </trkpt>
      <trkpt lat="45.97078" lon="6.55113">
        <ele>1929.3</ele>
        <time>2026-02-02T11:49:55Z</time>
      </trkpt>
      <trkpt lat="45.97079" lon="6.55113">
        <ele>1929.3</ele>
        <time>2026-02-02T11:49:56Z</time>
      </trkpt>
      <trkpt lat="45.97081" lon="6.55112">
        <ele>1929.3</ele>
        <time>2026-02-02T11:49:57Z</time>
      </trkpt>
      <trkpt lat="45.97081" lon="6.55114">
        <ele>1929.3</ele>
        <time>2026-02-02T11:49:58Z</time>
      </trkpt>
      <trkpt lat="45.97082" lon="6.55116">
        <ele>1928.4</ele>
        <time>2026-02-02T11:49:59Z</time>
      </trkpt>
      <trkpt lat="45.97084" lon="6.55119">
        <ele>1928.7</ele>
        <time>2026-02-02T11:50:00Z</time>
      </trkpt>
      <trkpt lat="45.97084" lon="6.5512">
        <ele>1927.8</ele>
        <time>2026-02-02T11:50:01Z</time>
      </trkpt>
      <trkpt lat="45.97085" lon="6.55121">
        <ele>1928.1</ele>
        <time>2026-02-02T11:50:02Z</time>
      </trkpt>
      <trkpt lat="45.97087" lon="6.55121">
        <ele>1927.2</ele>
        <time>2026-02-02T11:50:03Z</time>
      </trkpt>
      <trkpt lat="45.9709" lon="6.55124">
        <ele>1926.4</ele>
        <time>2026-02-02T11:50:04Z</time>
      </trkpt>
      <trkpt lat="45.97092" lon="6.55125">
        <ele>1926.7</ele>
        <time>2026-02-02T11:50:05Z</time>
      </trkpt>
      <trkpt lat="45.97094" lon="6.55126">
        <ele>1926</ele>
        <time>2026-02-02T11:50:06Z</time>
      </trkpt>
      <trkpt lat="45.97094" lon="6.55126">
        <ele>1926</ele>
        <time>2026-02-02T11:50:07Z</time>
      </trkpt>
      <trkpt lat="45.97098" lon="6.55125">
        <ele>1925.3</ele>
        <time>2026-02-02T11:50:08Z</time>
      </trkpt>
      <trkpt lat="45.97099" lon="6.55124">
        <ele>1924.7</ele>
        <time>2026-02-02T11:50:09Z</time>
      </trkpt>
      <trkpt lat="45.97103" lon="6.55121">
        <ele>1923.6</ele>
        <time>2026-02-02T11:50:10Z</time>
      </trkpt>
      <trkpt lat="45.97108" lon="6.55114">
        <ele>1922.1</ele>
        <time>2026-02-02T11:50:11Z</time>
      </trkpt>
      <trkpt lat="45.97111" lon="6.55109">
        <ele>1920.1</ele>
        <time>2026-02-02T11:50:12Z</time>
      </trkpt>
      <trkpt lat="45.97115" lon="6.55111">
        <ele>1919.3</ele>
        <time>2026-02-02T11:50:13Z</time>
      </trkpt>
      <trkpt lat="45.97117" lon="6.55112">
        <ele>1919.7</ele>
        <time>2026-02-02T11:50:14Z</time>
      </trkpt>
      <trkpt lat="45.97118" lon="6.55113">
        <ele>1919</ele>
        <time>2026-02-02T11:50:15Z</time>
      </trkpt>
      <trkpt lat="45.97118" lon="6.55113">
        <ele>1919</ele>
        <time>2026-02-02T11:50:16Z</time>
      </trkpt>
      <trkpt lat="45.97119" lon="6.55113">
        <ele>1919</ele>
        <time>2026-02-02T11:50:17Z</time>
      </trkpt>
      <trkpt lat="45.97119" lon="6.55113">
        <ele>1919</ele>
        <time>2026-02-02T11:50:18Z</time>
      </trkpt>
      <trkpt lat="45.97119" lon="6.55113">
        <ele>1919</ele>
        <time>2026-02-02T11:50:19Z</time>
      </trkpt>
      <trkpt lat="45.9712" lon="6.55113">
        <ele>1919</ele>
        <time>2026-02-02T11:50:20Z</time>
      </trkpt>
      <trkpt lat="45.9712" lon="6.55113">
        <ele>1918.3</ele>
        <time>2026-02-02T11:50:21Z</time>
      </trkpt>
      <trkpt lat="45.9712" lon="6.55113">
        <ele>1918.3</ele>
        <time>2026-02-02T11:50:22Z</time>
      </trkpt>
      <trkpt lat="45.97121" lon="6.55113">
        <ele>1918.3</ele>
        <time>2026-02-02T11:50:23Z</time>
      </trkpt>
      <trkpt lat="45.97121" lon="6.55113">
        <ele>1918.3</ele>
        <time>2026-02-02T11:50:24Z</time>
      </trkpt>
      <trkpt lat="45.97124" lon="6.55112">
        <ele>1917.6</ele>
        <time>2026-02-02T11:50:25Z</time>
      </trkpt>
      <trkpt lat="45.97126" lon="6.55111">
        <ele>1916.5</ele>
        <time>2026-02-02T11:50:26Z</time>
      </trkpt>
      <trkpt lat="45.97126" lon="6.55111">
        <ele>1916.5</ele>
        <time>2026-02-02T11:50:27Z</time>
      </trkpt>
      <trkpt lat="45.97127" lon="6.55109">
        <ele>1916.5</ele>
        <time>2026-02-02T11:50:28Z</time>
      </trkpt>
      <trkpt lat="45.97127" lon="6.55109">
        <ele>1916.5</ele>
        <time>2026-02-02T11:50:29Z</time>
      </trkpt>
      <trkpt lat="45.97127" lon="6.5511">
        <ele>1916.5</ele>
        <time>2026-02-02T11:50:30Z</time>
      </trkpt>
      <trkpt lat="45.97127" lon="6.5511">
        <ele>1916.5</ele>
        <time>2026-02-02T11:50:31Z</time>
      </trkpt>
      <trkpt lat="45.97127" lon="6.5511">
        <ele>1916.5</ele>
        <time>2026-02-02T11:50:32Z</time>
      </trkpt>
      <trkpt lat="45.97127" lon="6.5511">
        <ele>1916.5</ele>
        <time>2026-02-02T11:50:33Z</time>
      </trkpt>
      <trkpt lat="45.97127" lon="6.5511">
        <ele>1916.5</ele>
        <time>2026-02-02T11:50:34Z</time>
      </trkpt>
      <trkpt lat="45.97127" lon="6.5511">
        <ele>1916.5</ele>
        <time>2026-02-02T11:50:35Z</time>
      </trkpt>
      <trkpt lat="45.97127" lon="6.5511">
        <ele>1916.5</ele>
        <time>2026-02-02T11:50:36Z</time>
      </trkpt>
      <trkpt lat="45.97127" lon="6.5511">
        <ele>1916.5</ele>
        <time>2026-02-02T11:50:37Z</time>
      </trkpt>
      <trkpt lat="45.97127" lon="6.5511">
        <ele>1916.5</ele>
        <time>2026-02-02T11:50:38Z</time>
      </trkpt>
      <trkpt lat="45.97127" lon="6.5511">
        <ele>1916.5</ele>
        <time>2026-02-02T11:50:39Z</time>
      </trkpt>
      <trkpt lat="45.97127" lon="6.5511">
        <ele>1916.5</ele>
        <time>2026-02-02T11:50:40Z</time>
      </trkpt>
      <trkpt lat="45.97128" lon="6.5511">
        <ele>1916.5</ele>
        <time>2026-02-02T11:50:41Z</time>
      </trkpt>
      <trkpt lat="45.97128" lon="6.5511">
        <ele>1916.5</ele>
        <time>2026-02-02T11:50:42Z</time>
      </trkpt>
      <trkpt lat="45.97129" lon="6.5511">
        <ele>1915.9</ele>
        <time>2026-02-02T11:50:43Z</time>
      </trkpt>
      <trkpt lat="45.97131" lon="6.55113">
        <ele>1916.3</ele>
        <time>2026-02-02T11:50:44Z</time>
      </trkpt>
      <trkpt lat="45.97132" lon="6.55115">
        <ele>1915.6</ele>
        <time>2026-02-02T11:50:45Z</time>
      </trkpt>
      <trkpt lat="45.97134" lon="6.55119">
        <ele>1915.9</ele>
        <time>2026-02-02T11:50:46Z</time>
      </trkpt>
      <trkpt lat="45.97137" lon="6.55123">
        <ele>1915.5</ele>
        <time>2026-02-02T11:50:47Z</time>
      </trkpt>
      <trkpt lat="45.9714" lon="6.55126">
        <ele>1915</ele>
        <time>2026-02-02T11:50:48Z</time>
      </trkpt>
      <trkpt lat="45.97145" lon="6.55128">
        <ele>1913.4</ele>
        <time>2026-02-02T11:50:49Z</time>
      </trkpt>
      <trkpt lat="45.97151" lon="6.5513">
        <ele>1912.2</ele>
        <time>2026-02-02T11:50:50Z</time>
      </trkpt>
      <trkpt lat="45.97155" lon="6.5513">
        <ele>1911.5</ele>
        <time>2026-02-02T11:50:51Z</time>
      </trkpt>
      <trkpt lat="45.97158" lon="6.5513">
        <ele>1910.8</ele>
        <time>2026-02-02T11:50:52Z</time>
      </trkpt>
      <trkpt lat="45.97162" lon="6.55131">
        <ele>1909.3</ele>
        <time>2026-02-02T11:50:53Z</time>
      </trkpt>
      <trkpt lat="45.97163" lon="6.55131">
        <ele>1909.3</ele>
        <time>2026-02-02T11:50:54Z</time>
      </trkpt>
      <trkpt lat="45.97164" lon="6.55131">
        <ele>1909.3</ele>
        <time>2026-02-02T11:50:55Z</time>
      </trkpt>
      <trkpt lat="45.97164" lon="6.55131">
        <ele>1909.3</ele>
        <time>2026-02-02T11:50:56Z</time>
      </trkpt>
      <trkpt lat="45.97165" lon="6.55132">
        <ele>1908.3</ele>
        <time>2026-02-02T11:50:57Z</time>
      </trkpt>
      <trkpt lat="45.97166" lon="6.55132">
        <ele>1908.3</ele>
        <time>2026-02-02T11:50:58Z</time>
      </trkpt>
      <trkpt lat="45.97167" lon="6.55132">
        <ele>1908.3</ele>
        <time>2026-02-02T11:50:59Z</time>
      </trkpt>
      <trkpt lat="45.97167" lon="6.55132">
        <ele>1908.3</ele>
        <time>2026-02-02T11:51:00Z</time>
      </trkpt>
      <trkpt lat="45.97168" lon="6.55133">
        <ele>1907.3</ele>
        <time>2026-02-02T11:51:01Z</time>
      </trkpt>
      <trkpt lat="45.97169" lon="6.55133">
        <ele>1907.6</ele>
        <time>2026-02-02T11:51:02Z</time>
      </trkpt>
      <trkpt lat="45.97172" lon="6.55134">
        <ele>1906.6</ele>
        <time>2026-02-02T11:51:03Z</time>
      </trkpt>
      <trkpt lat="45.97174" lon="6.55134">
        <ele>1905.7</ele>
        <time>2026-02-02T11:51:04Z</time>
      </trkpt>
      <trkpt lat="45.97177" lon="6.55135">
        <ele>1904.9</ele>
        <time>2026-02-02T11:51:05Z</time>
      </trkpt>
      <trkpt lat="45.9718" lon="6.55138">
        <ele>1904.4</ele>
        <time>2026-02-02T11:51:06Z</time>
      </trkpt>
      <trkpt lat="45.97184" lon="6.55142">
        <ele>1904</ele>
        <time>2026-02-02T11:51:07Z</time>
      </trkpt>
      <trkpt lat="45.97186" lon="6.55145">
        <ele>1903.1</ele>
        <time>2026-02-02T11:51:08Z</time>
      </trkpt>
      <trkpt lat="45.97188" lon="6.55148">
        <ele>1903.5</ele>
        <time>2026-02-02T11:51:09Z</time>
      </trkpt>
      <trkpt lat="45.97191" lon="6.55148">
        <ele>1902.5</ele>
        <time>2026-02-02T11:51:10Z</time>
      </trkpt>
      <trkpt lat="45.97192" lon="6.55148">
        <ele>1901.5</ele>
        <time>2026-02-02T11:51:11Z</time>
      </trkpt>
      <trkpt lat="45.97193" lon="6.55147">
        <ele>1901.5</ele>
        <time>2026-02-02T11:51:12Z</time>
      </trkpt>
      <trkpt lat="45.97194" lon="6.55147">
        <ele>1901.5</ele>
        <time>2026-02-02T11:51:13Z</time>
      </trkpt>
      <trkpt lat="45.97194" lon="6.55146">
        <ele>1901.5</ele>
        <time>2026-02-02T11:51:14Z</time>
      </trkpt>
      <trkpt lat="45.97194" lon="6.55146">
        <ele>1901.1</ele>
        <time>2026-02-02T11:51:15Z</time>
      </trkpt>
      <trkpt lat="45.97194" lon="6.55145">
        <ele>1900</ele>
        <time>2026-02-02T11:51:16Z</time>
      </trkpt>
      <trkpt lat="45.97195" lon="6.55145">
        <ele>1900</ele>
        <time>2026-02-02T11:51:17Z</time>
      </trkpt>
      <trkpt lat="45.97195" lon="6.55144">
        <ele>1900</ele>
        <time>2026-02-02T11:51:18Z</time>
      </trkpt>
      <trkpt lat="45.97195" lon="6.55144">
        <ele>1900</ele>
        <time>2026-02-02T11:51:19Z</time>
      </trkpt>
      <trkpt lat="45.97195" lon="6.55144">
        <ele>1900</ele>
        <time>2026-02-02T11:51:20Z</time>
      </trkpt>
      <trkpt lat="45.97195" lon="6.55143">
        <ele>1900</ele>
        <time>2026-02-02T11:51:21Z</time>
      </trkpt>
      <trkpt lat="45.97196" lon="6.55142">
        <ele>1900</ele>
        <time>2026-02-02T11:51:22Z</time>
      </trkpt>
      <trkpt lat="45.97196" lon="6.55142">
        <ele>1900</ele>
        <time>2026-02-02T11:51:23Z</time>
      </trkpt>
      <trkpt lat="45.97196" lon="6.55141">
        <ele>1899.6</ele>
        <time>2026-02-02T11:51:24Z</time>
      </trkpt>
      <trkpt lat="45.97196" lon="6.55141">
        <ele>1899.6</ele>
        <time>2026-02-02T11:51:25Z</time>
      </trkpt>
      <trkpt lat="45.97196" lon="6.55141">
        <ele>1899.6</ele>
        <time>2026-02-02T11:51:26Z</time>
      </trkpt>
      <trkpt lat="45.97196" lon="6.55141">
        <ele>1899.6</ele>
        <time>2026-02-02T11:51:27Z</time>
      </trkpt>
      <trkpt lat="45.97196" lon="6.55141">
        <ele>1899.6</ele>
        <time>2026-02-02T11:51:28Z</time>
      </trkpt>
      <trkpt lat="45.97196" lon="6.55141">
        <ele>1899.6</ele>
        <time>2026-02-02T11:51:29Z</time>
      </trkpt>
      <trkpt lat="45.97196" lon="6.55141">
        <ele>1899.6</ele>
        <time>2026-02-02T11:51:30Z</time>
      </trkpt>
      <trkpt lat="45.97196" lon="6.55141">
        <ele>1899.6</ele>
        <time>2026-02-02T11:51:31Z</time>
      </trkpt>
      <trkpt lat="45.97196" lon="6.55141">
        <ele>1899.6</ele>
        <time>2026-02-02T11:51:32Z</time>
      </trkpt>
      <trkpt lat="45.97196" lon="6.55141">
        <ele>1899.6</ele>
        <time>2026-02-02T11:51:33Z</time>
      </trkpt>
      <trkpt lat="45.97196" lon="6.55141">
        <ele>1899.6</ele>
        <time>2026-02-02T11:51:34Z</time>
      </trkpt>
      <trkpt lat="45.97196" lon="6.55141">
        <ele>1899.6</ele>
        <time>2026-02-02T11:51:35Z</time>
      </trkpt>
      <trkpt lat="45.97196" lon="6.55141">
        <ele>1899.6</ele>
        <time>2026-02-02T11:51:36Z</time>
      </trkpt>
      <trkpt lat="45.97197" lon="6.55141">
        <ele>1899.6</ele>
        <time>2026-02-02T11:51:37Z</time>
      </trkpt>
      <trkpt lat="45.97197" lon="6.55142">
        <ele>1900</ele>
        <time>2026-02-02T11:51:38Z</time>
      </trkpt>
      <trkpt lat="45.97197" lon="6.55143">
        <ele>1900</ele>
        <time>2026-02-02T11:51:39Z</time>
      </trkpt>
      <trkpt lat="45.97198" lon="6.55144">
        <ele>1898.9</ele>
        <time>2026-02-02T11:51:40Z</time>
      </trkpt>
      <trkpt lat="45.972" lon="6.55148">
        <ele>1899.4</ele>
        <time>2026-02-02T11:51:41Z</time>
      </trkpt>
      <trkpt lat="45.97201" lon="6.55149">
        <ele>1898.3</ele>
        <time>2026-02-02T11:51:42Z</time>
      </trkpt>
      <trkpt lat="45.97202" lon="6.55151">
        <ele>1898.7</ele>
        <time>2026-02-02T11:51:43Z</time>
      </trkpt>
      <trkpt lat="45.97202" lon="6.55152">
        <ele>1898.7</ele>
        <time>2026-02-02T11:51:44Z</time>
      </trkpt>
      <trkpt lat="45.97203" lon="6.55153">
        <ele>1898.7</ele>
        <time>2026-02-02T11:51:45Z</time>
      </trkpt>
      <trkpt lat="45.97203" lon="6.55158">
        <ele>1898.1</ele>
        <time>2026-02-02T11:51:46Z</time>
      </trkpt>
      <trkpt lat="45.97204" lon="6.5516">
        <ele>1898.5</ele>
        <time>2026-02-02T11:51:47Z</time>
      </trkpt>
      <trkpt lat="45.97206" lon="6.55167">
        <ele>1899.2</ele>
        <time>2026-02-02T11:51:48Z</time>
      </trkpt>
      <trkpt lat="45.97209" lon="6.55174">
        <ele>1897.4</ele>
        <time>2026-02-02T11:51:49Z</time>
      </trkpt>
      <trkpt lat="45.97212" lon="6.55176">
        <ele>1897.7</ele>
        <time>2026-02-02T11:51:50Z</time>
      </trkpt>
      <trkpt lat="45.97214" lon="6.55175">
        <ele>1896.3</ele>
        <time>2026-02-02T11:51:51Z</time>
      </trkpt>
      <trkpt lat="45.97215" lon="6.55176">
        <ele>1895.1</ele>
        <time>2026-02-02T11:51:52Z</time>
      </trkpt>
      <trkpt lat="45.97216" lon="6.55176">
        <ele>1895.4</ele>
        <time>2026-02-02T11:51:53Z</time>
      </trkpt>
      <trkpt lat="45.97217" lon="6.55176">
        <ele>1895.4</ele>
        <time>2026-02-02T11:51:54Z</time>
      </trkpt>
      <trkpt lat="45.97221" lon="6.55177">
        <ele>1894.1</ele>
        <time>2026-02-02T11:51:55Z</time>
      </trkpt>
      <trkpt lat="45.97223" lon="6.55176">
        <ele>1892.7</ele>
        <time>2026-02-02T11:51:56Z</time>
      </trkpt>
      <trkpt lat="45.97223" lon="6.55175">
        <ele>1892.4</ele>
        <time>2026-02-02T11:51:57Z</time>
      </trkpt>
      <trkpt lat="45.97223" lon="6.55175">
        <ele>1892.4</ele>
        <time>2026-02-02T11:51:58Z</time>
      </trkpt>
      <trkpt lat="45.97223" lon="6.55175">
        <ele>1892.4</ele>
        <time>2026-02-02T11:51:59Z</time>
      </trkpt>
      <trkpt lat="45.97223" lon="6.55174">
        <ele>1892.4</ele>
        <time>2026-02-02T11:52:00Z</time>
      </trkpt>
      <trkpt lat="45.97223" lon="6.55174">
        <ele>1892.4</ele>
        <time>2026-02-02T11:52:01Z</time>
      </trkpt>
      <trkpt lat="45.97223" lon="6.55173">
        <ele>1892.4</ele>
        <time>2026-02-02T11:52:02Z</time>
      </trkpt>
      <trkpt lat="45.97223" lon="6.55173">
        <ele>1892.4</ele>
        <time>2026-02-02T11:52:03Z</time>
      </trkpt>
      <trkpt lat="45.97222" lon="6.55168">
        <ele>1891.9</ele>
        <time>2026-02-02T11:52:04Z</time>
      </trkpt>
      <trkpt lat="45.9722" lon="6.55167">
        <ele>1892.9</ele>
        <time>2026-02-02T11:52:05Z</time>
      </trkpt>
      <trkpt lat="45.9722" lon="6.55168">
        <ele>1893.4</ele>
        <time>2026-02-02T11:52:06Z</time>
      </trkpt>
      <trkpt lat="45.97219" lon="6.55168">
        <ele>1893.4</ele>
        <time>2026-02-02T11:52:07Z</time>
      </trkpt>
      <trkpt lat="45.97219" lon="6.55167">
        <ele>1892.9</ele>
        <time>2026-02-02T11:52:08Z</time>
      </trkpt>
      <trkpt lat="45.97222" lon="6.55165">
        <ele>1891.5</ele>
        <time>2026-02-02T11:52:09Z</time>
      </trkpt>
      <trkpt lat="45.97223" lon="6.55165">
        <ele>1891.5</ele>
        <time>2026-02-02T11:52:10Z</time>
      </trkpt>
      <trkpt lat="45.97223" lon="6.55164">
        <ele>1891.5</ele>
        <time>2026-02-02T11:52:11Z</time>
      </trkpt>
      <trkpt lat="45.97223" lon="6.55164">
        <ele>1891.5</ele>
        <time>2026-02-02T11:52:12Z</time>
      </trkpt>
      <trkpt lat="45.97223" lon="6.55163">
        <ele>1891.5</ele>
        <time>2026-02-02T11:52:13Z</time>
      </trkpt>
      <trkpt lat="45.97223" lon="6.55163">
        <ele>1890.9</ele>
        <time>2026-02-02T11:52:14Z</time>
      </trkpt>
      <trkpt lat="45.97223" lon="6.55162">
        <ele>1890.9</ele>
        <time>2026-02-02T11:52:15Z</time>
      </trkpt>
      <trkpt lat="45.97223" lon="6.55161">
        <ele>1890.9</ele>
        <time>2026-02-02T11:52:16Z</time>
      </trkpt>
      <trkpt lat="45.97223" lon="6.55161">
        <ele>1890.9</ele>
        <time>2026-02-02T11:52:17Z</time>
      </trkpt>
      <trkpt lat="45.97223" lon="6.5516">
        <ele>1890.9</ele>
        <time>2026-02-02T11:52:18Z</time>
      </trkpt>
      <trkpt lat="45.97223" lon="6.5516">
        <ele>1890.9</ele>
        <time>2026-02-02T11:52:19Z</time>
      </trkpt>
      <trkpt lat="45.97221" lon="6.55154">
        <ele>1891.4</ele>
        <time>2026-02-02T11:52:20Z</time>
      </trkpt>
      <trkpt lat="45.9722" lon="6.55152">
        <ele>1891.4</ele>
        <time>2026-02-02T11:52:21Z</time>
      </trkpt>
      <trkpt lat="45.9722" lon="6.55146">
        <ele>1890.9</ele>
        <time>2026-02-02T11:52:22Z</time>
      </trkpt>
      <trkpt lat="45.97219" lon="6.55144">
        <ele>1890.3</ele>
        <time>2026-02-02T11:52:23Z</time>
      </trkpt>
      <trkpt lat="45.97219" lon="6.5514">
        <ele>1889.8</ele>
        <time>2026-02-02T11:52:24Z</time>
      </trkpt>
      <trkpt lat="45.97218" lon="6.55139">
        <ele>1891.2</ele>
        <time>2026-02-02T11:52:25Z</time>
      </trkpt>
      <trkpt lat="45.97218" lon="6.55138">
        <ele>1889.8</ele>
        <time>2026-02-02T11:52:26Z</time>
      </trkpt>
      <trkpt lat="45.97217" lon="6.55135">
        <ele>1890.7</ele>
        <time>2026-02-02T11:52:27Z</time>
      </trkpt>
      <trkpt lat="45.97216" lon="6.55132">
        <ele>1890.1</ele>
        <time>2026-02-02T11:52:28Z</time>
      </trkpt>
      <trkpt lat="45.97216" lon="6.55132">
        <ele>1890.1</ele>
        <time>2026-02-02T11:52:29Z</time>
      </trkpt>
      <trkpt lat="45.97216" lon="6.55132">
        <ele>1890.1</ele>
        <time>2026-02-02T11:52:30Z</time>
      </trkpt>
      <trkpt lat="45.97216" lon="6.55132">
        <ele>1890.1</ele>
        <time>2026-02-02T11:52:31Z</time>
      </trkpt>
      <trkpt lat="45.97216" lon="6.55132">
        <ele>1890.1</ele>
        <time>2026-02-02T11:52:32Z</time>
      </trkpt>
      <trkpt lat="45.97216" lon="6.55132">
        <ele>1890.1</ele>
        <time>2026-02-02T11:52:33Z</time>
      </trkpt>
      <trkpt lat="45.97216" lon="6.55132">
        <ele>1890.1</ele>
        <time>2026-02-02T11:52:34Z</time>
      </trkpt>
      <trkpt lat="45.97216" lon="6.55132">
        <ele>1890.1</ele>
        <time>2026-02-02T11:52:35Z</time>
      </trkpt>
      <trkpt lat="45.97216" lon="6.55132">
        <ele>1890.1</ele>
        <time>2026-02-02T11:52:36Z</time>
      </trkpt>
      <trkpt lat="45.97216" lon="6.55132">
        <ele>1890.1</ele>
        <time>2026-02-02T11:52:37Z</time>
      </trkpt>
      <trkpt lat="45.97217" lon="6.55131">
        <ele>1890.1</ele>
        <time>2026-02-02T11:52:38Z</time>
      </trkpt>
      <trkpt lat="45.97221" lon="6.55131">
        <ele>1888.6</ele>
        <time>2026-02-02T11:52:39Z</time>
      </trkpt>
      <trkpt lat="45.97225" lon="6.55134">
        <ele>1885.9</ele>
        <time>2026-02-02T11:52:40Z</time>
      </trkpt>
      <trkpt lat="45.97228" lon="6.55136">
        <ele>1884.2</ele>
        <time>2026-02-02T11:52:41Z</time>
      </trkpt>
      <trkpt lat="45.97229" lon="6.55136">
        <ele>1884.2</ele>
        <time>2026-02-02T11:52:42Z</time>
      </trkpt>
      <trkpt lat="45.97229" lon="6.55133">
        <ele>1883.6</ele>
        <time>2026-02-02T11:52:43Z</time>
      </trkpt>
      <trkpt lat="45.9723" lon="6.5513">
        <ele>1883.6</ele>
        <time>2026-02-02T11:52:44Z</time>
      </trkpt>
      <trkpt lat="45.97227" lon="6.55124">
        <ele>1884</ele>
        <time>2026-02-02T11:52:45Z</time>
      </trkpt>
      <trkpt lat="45.97226" lon="6.5512">
        <ele>1883.3</ele>
        <time>2026-02-02T11:52:46Z</time>
      </trkpt>
      <trkpt lat="45.9723" lon="6.55117">
        <ele>1881.6</ele>
        <time>2026-02-02T11:52:47Z</time>
      </trkpt>
      <trkpt lat="45.97232" lon="6.55117">
        <ele>1879.9</ele>
        <time>2026-02-02T11:52:48Z</time>
      </trkpt>
      <trkpt lat="45.97235" lon="6.55112">
        <ele>1877.4</ele>
        <time>2026-02-02T11:52:49Z</time>
      </trkpt>
      <trkpt lat="45.97237" lon="6.55105">
        <ele>1874</ele>
        <time>2026-02-02T11:52:50Z</time>
      </trkpt>
      <trkpt lat="45.97241" lon="6.55105">
        <ele>1872.5</ele>
        <time>2026-02-02T11:52:51Z</time>
      </trkpt>
      <trkpt lat="45.97246" lon="6.5511">
        <ele>1870</ele>
        <time>2026-02-02T11:52:52Z</time>
      </trkpt>
      <trkpt lat="45.97249" lon="6.55115">
        <ele>1869.1</ele>
        <time>2026-02-02T11:52:53Z</time>
      </trkpt>
      <trkpt lat="45.97251" lon="6.55117">
        <ele>1870</ele>
        <time>2026-02-02T11:52:54Z</time>
      </trkpt>
      <trkpt lat="45.97251" lon="6.55118">
        <ele>1868</ele>
        <time>2026-02-02T11:52:55Z</time>
      </trkpt>
      <trkpt lat="45.97254" lon="6.55121">
        <ele>1868.9</ele>
        <time>2026-02-02T11:52:56Z</time>
      </trkpt>
      <trkpt lat="45.97256" lon="6.55125">
        <ele>1867.7</ele>
        <time>2026-02-02T11:52:57Z</time>
      </trkpt>
      <trkpt lat="45.97259" lon="6.55128">
        <ele>1865.9</ele>
        <time>2026-02-02T11:52:58Z</time>
      </trkpt>
      <trkpt lat="45.97263" lon="6.55132">
        <ele>1865</ele>
        <time>2026-02-02T11:52:59Z</time>
      </trkpt>
      <trkpt lat="45.97266" lon="6.55137">
        <ele>1862.6</ele>
        <time>2026-02-02T11:53:00Z</time>
      </trkpt>
      <trkpt lat="45.9727" lon="6.55141">
        <ele>1861.7</ele>
        <time>2026-02-02T11:53:01Z</time>
      </trkpt>
      <trkpt lat="45.97274" lon="6.55143">
        <ele>1860.8</ele>
        <time>2026-02-02T11:53:02Z</time>
      </trkpt>
      <trkpt lat="45.97278" lon="6.55146">
        <ele>1858</ele>
        <time>2026-02-02T11:53:03Z</time>
      </trkpt>
      <trkpt lat="45.97282" lon="6.55151">
        <ele>1857.2</ele>
        <time>2026-02-02T11:53:04Z</time>
      </trkpt>
      <trkpt lat="45.97287" lon="6.55156">
        <ele>1855.1</ele>
        <time>2026-02-02T11:53:05Z</time>
      </trkpt>
      <trkpt lat="45.9729" lon="6.55161">
        <ele>1854.7</ele>
        <time>2026-02-02T11:53:06Z</time>
      </trkpt>
      <trkpt lat="45.97293" lon="6.55164">
        <ele>1854.4</ele>
        <time>2026-02-02T11:53:07Z</time>
      </trkpt>
      <trkpt lat="45.97294" lon="6.55166">
        <ele>1854.4</ele>
        <time>2026-02-02T11:53:08Z</time>
      </trkpt>
      <trkpt lat="45.97297" lon="6.55169">
        <ele>1854</ele>
        <time>2026-02-02T11:53:09Z</time>
      </trkpt>
      <trkpt lat="45.97302" lon="6.55173">
        <ele>1853.6</ele>
        <time>2026-02-02T11:53:10Z</time>
      </trkpt>
      <trkpt lat="45.97307" lon="6.55176">
        <ele>1851.6</ele>
        <time>2026-02-02T11:53:11Z</time>
      </trkpt>
      <trkpt lat="45.97313" lon="6.55178">
        <ele>1848.6</ele>
        <time>2026-02-02T11:53:12Z</time>
      </trkpt>
      <trkpt lat="45.9732" lon="6.55178">
        <ele>1844.4</ele>
        <time>2026-02-02T11:53:13Z</time>
      </trkpt>
      <trkpt lat="45.97327" lon="6.55177">
        <ele>1841.9</ele>
        <time>2026-02-02T11:53:14Z</time>
      </trkpt>
      <trkpt lat="45.97333" lon="6.55176">
        <ele>1839.2</ele>
        <time>2026-02-02T11:53:15Z</time>
      </trkpt>
      <trkpt lat="45.97338" lon="6.55173">
        <ele>1835.1</ele>
        <time>2026-02-02T11:53:16Z</time>
      </trkpt>
      <trkpt lat="45.97343" lon="6.55171">
        <ele>1832.4</ele>
        <time>2026-02-02T11:53:17Z</time>
      </trkpt>
      <trkpt lat="45.97346" lon="6.5517">
        <ele>1831.3</ele>
        <time>2026-02-02T11:53:18Z</time>
      </trkpt>
      <trkpt lat="45.97347" lon="6.5517">
        <ele>1830.3</ele>
        <time>2026-02-02T11:53:19Z</time>
      </trkpt>
      <trkpt lat="45.97349" lon="6.5517">
        <ele>1830.3</ele>
        <time>2026-02-02T11:53:20Z</time>
      </trkpt>
      <trkpt lat="45.9735" lon="6.5517">
        <ele>1829.4</ele>
        <time>2026-02-02T11:53:21Z</time>
      </trkpt>
      <trkpt lat="45.97353" lon="6.55169">
        <ele>1828.4</ele>
        <time>2026-02-02T11:53:22Z</time>
      </trkpt>
      <trkpt lat="45.97354" lon="6.55169">
        <ele>1828.4</ele>
        <time>2026-02-02T11:53:23Z</time>
      </trkpt>
      <trkpt lat="45.97358" lon="6.55169">
        <ele>1827.3</ele>
        <time>2026-02-02T11:53:24Z</time>
      </trkpt>
      <trkpt lat="45.97359" lon="6.55169">
        <ele>1826.2</ele>
        <time>2026-02-02T11:53:25Z</time>
      </trkpt>
      <trkpt lat="45.97363" lon="6.5517">
        <ele>1825.2</ele>
        <time>2026-02-02T11:53:26Z</time>
      </trkpt>
      <trkpt lat="45.97364" lon="6.55171">
        <ele>1825.2</ele>
        <time>2026-02-02T11:53:27Z</time>
      </trkpt>
      <trkpt lat="45.97367" lon="6.55171">
        <ele>1824.2</ele>
        <time>2026-02-02T11:53:28Z</time>
      </trkpt>
      <trkpt lat="45.9737" lon="6.55172">
        <ele>1824.9</ele>
        <time>2026-02-02T11:53:29Z</time>
      </trkpt>
      <trkpt lat="45.97374" lon="6.55174">
        <ele>1823.4</ele>
        <time>2026-02-02T11:53:30Z</time>
      </trkpt>
      <trkpt lat="45.97378" lon="6.55176">
        <ele>1824.1</ele>
        <time>2026-02-02T11:53:31Z</time>
      </trkpt>
      <trkpt lat="45.97382" lon="6.55178">
        <ele>1823.4</ele>
        <time>2026-02-02T11:53:32Z</time>
      </trkpt>
      <trkpt lat="45.97385" lon="6.55179">
        <ele>1822.7</ele>
        <time>2026-02-02T11:53:33Z</time>
      </trkpt>
      <trkpt lat="45.97389" lon="6.5518">
        <ele>1821.2</ele>
        <time>2026-02-02T11:53:34Z</time>
      </trkpt>
      <trkpt lat="45.97392" lon="6.5518">
        <ele>1820.4</ele>
        <time>2026-02-02T11:53:35Z</time>
      </trkpt>
      <trkpt lat="45.97394" lon="6.5518">
        <ele>1819.7</ele>
        <time>2026-02-02T11:53:36Z</time>
      </trkpt>
      <trkpt lat="45.97398" lon="6.5518">
        <ele>1820.7</ele>
        <time>2026-02-02T11:53:37Z</time>
      </trkpt>
      <trkpt lat="45.97399" lon="6.55181">
        <ele>1820.7</ele>
        <time>2026-02-02T11:53:38Z</time>
      </trkpt>
      <trkpt lat="45.97403" lon="6.55181">
        <ele>1819.4</ele>
        <time>2026-02-02T11:53:39Z</time>
      </trkpt>
      <trkpt lat="45.97405" lon="6.55181">
        <ele>1819.4</ele>
        <time>2026-02-02T11:53:40Z</time>
      </trkpt>
      <trkpt lat="45.97408" lon="6.55182">
        <ele>1818.5</ele>
        <time>2026-02-02T11:53:41Z</time>
      </trkpt>
      <trkpt lat="45.97411" lon="6.55183">
        <ele>1817.9</ele>
        <time>2026-02-02T11:53:42Z</time>
      </trkpt>
      <trkpt lat="45.97414" lon="6.55184">
        <ele>1817.3</ele>
        <time>2026-02-02T11:53:43Z</time>
      </trkpt>
      <trkpt lat="45.97417" lon="6.55185">
        <ele>1818.6</ele>
        <time>2026-02-02T11:53:44Z</time>
      </trkpt>
      <trkpt lat="45.97421" lon="6.55186">
        <ele>1817.4</ele>
        <time>2026-02-02T11:53:45Z</time>
      </trkpt>
      <trkpt lat="45.97424" lon="6.55187">
        <ele>1816.9</ele>
        <time>2026-02-02T11:53:46Z</time>
      </trkpt>
      <trkpt lat="45.97428" lon="6.55187">
        <ele>1816.4</ele>
        <time>2026-02-02T11:53:47Z</time>
      </trkpt>
      <trkpt lat="45.9743" lon="6.55187">
        <ele>1816.4</ele>
        <time>2026-02-02T11:53:48Z</time>
      </trkpt>
      <trkpt lat="45.97434" lon="6.55187">
        <ele>1815.6</ele>
        <time>2026-02-02T11:53:49Z</time>
      </trkpt>
      <trkpt lat="45.97435" lon="6.55187">
        <ele>1815.6</ele>
        <time>2026-02-02T11:53:50Z</time>
      </trkpt>
      <trkpt lat="45.97439" lon="6.55187">
        <ele>1814.7</ele>
        <time>2026-02-02T11:53:51Z</time>
      </trkpt>
      <trkpt lat="45.97441" lon="6.55186">
        <ele>1814.7</ele>
        <time>2026-02-02T11:53:52Z</time>
      </trkpt>
      <trkpt lat="45.97444" lon="6.55187">
        <ele>1814.4</ele>
        <time>2026-02-02T11:53:53Z</time>
      </trkpt>
      <trkpt lat="45.97445" lon="6.55188">
        <ele>1814.4</ele>
        <time>2026-02-02T11:53:54Z</time>
      </trkpt>
      <trkpt lat="45.97445" lon="6.55187">
        <ele>1814.4</ele>
        <time>2026-02-02T11:53:55Z</time>
      </trkpt>
      <trkpt lat="45.97445" lon="6.55187">
        <ele>1814.4</ele>
        <time>2026-02-02T11:53:56Z</time>
      </trkpt>
      <trkpt lat="45.97445" lon="6.55187">
        <ele>1814.4</ele>
        <time>2026-02-02T11:53:57Z</time>
      </trkpt>
      <trkpt lat="45.97445" lon="6.55187">
        <ele>1814.4</ele>
        <time>2026-02-02T11:53:58Z</time>
      </trkpt>
      <trkpt lat="45.97445" lon="6.55187">
        <ele>1814.4</ele>
        <time>2026-02-02T11:53:59Z</time>
      </trkpt>
      <trkpt lat="45.97445" lon="6.55187">
        <ele>1814.4</ele>
        <time>2026-02-02T11:54:00Z</time>
      </trkpt>
      <trkpt lat="45.97445" lon="6.55187">
        <ele>1814.4</ele>
        <time>2026-02-02T11:54:01Z</time>
      </trkpt>
      <trkpt lat="45.97445" lon="6.55187">
        <ele>1814.4</ele>
        <time>2026-02-02T11:54:02Z</time>
      </trkpt>
      <trkpt lat="45.97445" lon="6.55187">
        <ele>1814.4</ele>
        <time>2026-02-02T11:54:03Z</time>
      </trkpt>
      <trkpt lat="45.97445" lon="6.55188">
        <ele>1814.4</ele>
        <time>2026-02-02T11:54:04Z</time>
      </trkpt>
      <trkpt lat="45.97445" lon="6.55187">
        <ele>1814</ele>
        <time>2026-02-02T11:54:05Z</time>
      </trkpt>
      <trkpt lat="45.97447" lon="6.55187">
        <ele>1814</ele>
        <time>2026-02-02T11:54:06Z</time>
      </trkpt>
      <trkpt lat="45.97448" lon="6.55187">
        <ele>1813.7</ele>
        <time>2026-02-02T11:54:07Z</time>
      </trkpt>
      <trkpt lat="45.97449" lon="6.55187">
        <ele>1813.7</ele>
        <time>2026-02-02T11:54:08Z</time>
      </trkpt>
      <trkpt lat="45.97451" lon="6.55187">
        <ele>1813.7</ele>
        <time>2026-02-02T11:54:09Z</time>
      </trkpt>
      <trkpt lat="45.97451" lon="6.55188">
        <ele>1813.5</ele>
        <time>2026-02-02T11:54:10Z</time>
      </trkpt>
      <trkpt lat="45.97451" lon="6.55188">
        <ele>1813.5</ele>
        <time>2026-02-02T11:54:11Z</time>
      </trkpt>
      <trkpt lat="45.97451" lon="6.55188">
        <ele>1813.5</ele>
        <time>2026-02-02T11:54:12Z</time>
      </trkpt>
      <trkpt lat="45.97451" lon="6.55188">
        <ele>1813.5</ele>
        <time>2026-02-02T11:54:13Z</time>
      </trkpt>
      <trkpt lat="45.97451" lon="6.55189">
        <ele>1813.5</ele>
        <time>2026-02-02T11:54:14Z</time>
      </trkpt>
      <trkpt lat="45.97452" lon="6.55188">
        <ele>1813.5</ele>
        <time>2026-02-02T11:54:15Z</time>
      </trkpt>
      <trkpt lat="45.97452" lon="6.55188">
        <ele>1813.5</ele>
        <time>2026-02-02T11:54:16Z</time>
      </trkpt>
      <trkpt lat="45.97452" lon="6.55188">
        <ele>1813.5</ele>
        <time>2026-02-02T11:54:17Z</time>
      </trkpt>
      <trkpt lat="45.97452" lon="6.55188">
        <ele>1813.5</ele>
        <time>2026-02-02T11:54:18Z</time>
      </trkpt>
      <trkpt lat="45.97452" lon="6.55188">
        <ele>1813.5</ele>
        <time>2026-02-02T11:54:19Z</time>
      </trkpt>
      <trkpt lat="45.97452" lon="6.55188">
        <ele>1813.5</ele>
        <time>2026-02-02T11:54:20Z</time>
      </trkpt>
      <trkpt lat="45.97452" lon="6.55188">
        <ele>1813.5</ele>
        <time>2026-02-02T11:54:21Z</time>
      </trkpt>
      <trkpt lat="45.97452" lon="6.55188">
        <ele>1813.5</ele>
        <time>2026-02-02T11:54:22Z</time>
      </trkpt>
      <trkpt lat="45.97452" lon="6.55188">
        <ele>1813.5</ele>
        <time>2026-02-02T11:54:23Z</time>
      </trkpt>
      <trkpt lat="45.97452" lon="6.55188">
        <ele>1813.5</ele>
        <time>2026-02-02T11:54:24Z</time>
      </trkpt>
      <trkpt lat="45.97452" lon="6.55188">
        <ele>1813.5</ele>
        <time>2026-02-02T11:54:25Z</time>
      </trkpt>
      <trkpt lat="45.97452" lon="6.55188">
        <ele>1813.5</ele>
        <time>2026-02-02T11:54:26Z</time>
      </trkpt>
      <trkpt lat="45.97452" lon="6.55188">
        <ele>1813.5</ele>
        <time>2026-02-02T11:54:27Z</time>
      </trkpt>
      <trkpt lat="45.97452" lon="6.55188">
        <ele>1813.5</ele>
        <time>2026-02-02T11:54:28Z</time>
      </trkpt>
      <trkpt lat="45.97452" lon="6.55188">
        <ele>1813.5</ele>
        <time>2026-02-02T11:54:29Z</time>
      </trkpt>
      <trkpt lat="45.97452" lon="6.55188">
        <ele>1813.5</ele>
        <time>2026-02-02T11:54:30Z</time>
      </trkpt>
      <trkpt lat="45.97452" lon="6.55188">
        <ele>1813.5</ele>
        <time>2026-02-02T11:54:31Z</time>
      </trkpt>
      <trkpt lat="45.97452" lon="6.55188">
        <ele>1813.5</ele>
        <time>2026-02-02T11:54:32Z</time>
      </trkpt>
      <trkpt lat="45.97452" lon="6.55188">
        <ele>1813.5</ele>
        <time>2026-02-02T11:54:33Z</time>
      </trkpt>
      <trkpt lat="45.97452" lon="6.55189">
        <ele>1815.8</ele>
        <time>2026-02-02T11:54:34Z</time>
      </trkpt>
      <trkpt lat="45.97452" lon="6.55188">
        <ele>1813.5</ele>
        <time>2026-02-02T11:54:35Z</time>
      </trkpt>
      <trkpt lat="45.97452" lon="6.55188">
        <ele>1813.5</ele>
        <time>2026-02-02T11:54:36Z</time>
      </trkpt>
      <trkpt lat="45.97452" lon="6.55188">
        <ele>1813.5</ele>
        <time>2026-02-02T11:54:37Z</time>
      </trkpt>
      <trkpt lat="45.97452" lon="6.55188">
        <ele>1813.5</ele>
        <time>2026-02-02T11:54:38Z</time>
      </trkpt>
      <trkpt lat="45.97452" lon="6.55188">
        <ele>1813.5</ele>
        <time>2026-02-02T11:54:39Z</time>
      </trkpt>
      <trkpt lat="45.97452" lon="6.55189">
        <ele>1815.8</ele>
        <time>2026-02-02T11:54:40Z</time>
      </trkpt>
      <trkpt lat="45.97452" lon="6.55189">
        <ele>1815.8</ele>
        <time>2026-02-02T11:54:41Z</time>
      </trkpt>
      <trkpt lat="45.97452" lon="6.55189">
        <ele>1815.8</ele>
        <time>2026-02-02T11:54:42Z</time>
      </trkpt>
      <trkpt lat="45.97452" lon="6.55189">
        <ele>1815.8</ele>
        <time>2026-02-02T11:54:43Z</time>
      </trkpt>
      <trkpt lat="45.97452" lon="6.55189">
        <ele>1815.8</ele>
        <time>2026-02-02T11:54:44Z</time>
      </trkpt>
      <trkpt lat="45.97452" lon="6.55189">
        <ele>1815.8</ele>
        <time>2026-02-02T11:54:45Z</time>
      </trkpt>
      <trkpt lat="45.97452" lon="6.55189">
        <ele>1815.8</ele>
        <time>2026-02-02T11:54:46Z</time>
      </trkpt>
      <trkpt lat="45.97452" lon="6.55189">
        <ele>1815.8</ele>
        <time>2026-02-02T11:54:47Z</time>
      </trkpt>
      <trkpt lat="45.97452" lon="6.55189">
        <ele>1815.8</ele>
        <time>2026-02-02T11:54:48Z</time>
      </trkpt>
      <trkpt lat="45.97452" lon="6.55189">
        <ele>1815.8</ele>
        <time>2026-02-02T11:54:49Z</time>
      </trkpt>
      <trkpt lat="45.97452" lon="6.55189">
        <ele>1815.8</ele>
        <time>2026-02-02T11:54:50Z</time>
      </trkpt>
      <trkpt lat="45.97452" lon="6.55189">
        <ele>1815.8</ele>
        <time>2026-02-02T11:54:51Z</time>
      </trkpt>
      <trkpt lat="45.97452" lon="6.55189">
        <ele>1815.8</ele>
        <time>2026-02-02T11:54:52Z</time>
      </trkpt>
      <trkpt lat="45.97452" lon="6.55189">
        <ele>1815.8</ele>
        <time>2026-02-02T11:54:53Z</time>
      </trkpt>
      <trkpt lat="45.97452" lon="6.55189">
        <ele>1815.8</ele>
        <time>2026-02-02T11:54:54Z</time>
      </trkpt>
      <trkpt lat="45.97452" lon="6.55189">
        <ele>1815.8</ele>
        <time>2026-02-02T11:54:55Z</time>
      </trkpt>
      <trkpt lat="45.97452" lon="6.55189">
        <ele>1815.8</ele>
        <time>2026-02-02T11:54:56Z</time>
      </trkpt>
      <trkpt lat="45.97452" lon="6.55189">
        <ele>1815.8</ele>
        <time>2026-02-02T11:54:57Z</time>
      </trkpt>
      <trkpt lat="45.97452" lon="6.55189">
        <ele>1815.8</ele>
        <time>2026-02-02T11:54:58Z</time>
      </trkpt>
      <trkpt lat="45.97452" lon="6.55189">
        <ele>1815.8</ele>
        <time>2026-02-02T11:54:59Z</time>
      </trkpt>
      <trkpt lat="45.97452" lon="6.55189">
        <ele>1815.8</ele>
        <time>2026-02-02T11:55:00Z</time>
      </trkpt>
      <trkpt lat="45.97452" lon="6.55189">
        <ele>1815.8</ele>
        <time>2026-02-02T11:55:01Z</time>
      </trkpt>
      <trkpt lat="45.97453" lon="6.5519">
        <ele>1815.8</ele>
        <time>2026-02-02T11:55:02Z</time>
      </trkpt>
      <trkpt lat="45.97452" lon="6.5519">
        <ele>1815.8</ele>
        <time>2026-02-02T11:55:03Z</time>
      </trkpt>
      <trkpt lat="45.97452" lon="6.5519">
        <ele>1815.8</ele>
        <time>2026-02-02T11:55:04Z</time>
      </trkpt>
      <trkpt lat="45.97452" lon="6.5519">
        <ele>1815.8</ele>
        <time>2026-02-02T11:55:05Z</time>
      </trkpt>
      <trkpt lat="45.97452" lon="6.5519">
        <ele>1815.8</ele>
        <time>2026-02-02T11:55:06Z</time>
      </trkpt>
      <trkpt lat="45.97452" lon="6.5519">
        <ele>1815.8</ele>
        <time>2026-02-02T11:55:07Z</time>
      </trkpt>
      <trkpt lat="45.97452" lon="6.5519">
        <ele>1815.8</ele>
        <time>2026-02-02T11:55:08Z</time>
      </trkpt>
      <trkpt lat="45.97452" lon="6.5519">
        <ele>1815.8</ele>
        <time>2026-02-02T11:55:09Z</time>
      </trkpt>
      <trkpt lat="45.97452" lon="6.5519">
        <ele>1815.8</ele>
        <time>2026-02-02T11:55:10Z</time>
      </trkpt>
      <trkpt lat="45.97452" lon="6.5519">
        <ele>1815.8</ele>
        <time>2026-02-02T11:55:11Z</time>
      </trkpt>
      <trkpt lat="45.97452" lon="6.5519">
        <ele>1815.8</ele>
        <time>2026-02-02T11:55:12Z</time>
      </trkpt>
      <trkpt lat="45.97452" lon="6.5519">
        <ele>1815.8</ele>
        <time>2026-02-02T11:55:13Z</time>
      </trkpt>
      <trkpt lat="45.97452" lon="6.5519">
        <ele>1815.8</ele>
        <time>2026-02-02T11:55:14Z</time>
      </trkpt>
      <trkpt lat="45.97452" lon="6.5519">
        <ele>1815.8</ele>
        <time>2026-02-02T11:55:15Z</time>
      </trkpt>
      <trkpt lat="45.97452" lon="6.5519">
        <ele>1815.8</ele>
        <time>2026-02-02T11:55:16Z</time>
      </trkpt>
      <trkpt lat="45.97452" lon="6.5519">
        <ele>1815.8</ele>
        <time>2026-02-02T11:55:17Z</time>
      </trkpt>
      <trkpt lat="45.97452" lon="6.5519">
        <ele>1815.8</ele>
        <time>2026-02-02T11:55:18Z</time>
      </trkpt>
      <trkpt lat="45.97452" lon="6.5519">
        <ele>1815.8</ele>
        <time>2026-02-02T11:55:19Z</time>
      </trkpt>
      <trkpt lat="45.97452" lon="6.5519">
        <ele>1815.8</ele>
        <time>2026-02-02T11:55:20Z</time>
      </trkpt>
      <trkpt lat="45.97452" lon="6.5519">
        <ele>1815.8</ele>
        <time>2026-02-02T11:55:21Z</time>
      </trkpt>
      <trkpt lat="45.97452" lon="6.5519">
        <ele>1815.8</ele>
        <time>2026-02-02T11:55:22Z</time>
      </trkpt>
      <trkpt lat="45.97452" lon="6.5519">
        <ele>1815.8</ele>
        <time>2026-02-02T11:55:23Z</time>
      </trkpt>
      <trkpt lat="45.97452" lon="6.5519">
        <ele>1815.8</ele>
        <time>2026-02-02T11:55:24Z</time>
      </trkpt>
      <trkpt lat="45.97452" lon="6.5519">
        <ele>1815.8</ele>
        <time>2026-02-02T11:55:25Z</time>
      </trkpt>
      <trkpt lat="45.97452" lon="6.5519">
        <ele>1815.8</ele>
        <time>2026-02-02T11:55:26Z</time>
      </trkpt>
      <trkpt lat="45.97452" lon="6.5519">
        <ele>1815.8</ele>
        <time>2026-02-02T11:55:27Z</time>
      </trkpt>
      <trkpt lat="45.97452" lon="6.5519">
        <ele>1815.8</ele>
        <time>2026-02-02T11:55:28Z</time>
      </trkpt>
      <trkpt lat="45.97452" lon="6.5519">
        <ele>1815.8</ele>
        <time>2026-02-02T11:55:29Z</time>
      </trkpt>
      <trkpt lat="45.97452" lon="6.5519">
        <ele>1815.8</ele>
        <time>2026-02-02T11:55:30Z</time>
      </trkpt>
      <trkpt lat="45.97452" lon="6.5519">
        <ele>1815.8</ele>
        <time>2026-02-02T11:55:31Z</time>
      </trkpt>
      <trkpt lat="45.97452" lon="6.5519">
        <ele>1815.8</ele>
        <time>2026-02-02T11:55:32Z</time>
      </trkpt>
      <trkpt lat="45.97452" lon="6.5519">
        <ele>1815.8</ele>
        <time>2026-02-02T11:55:33Z</time>
      </trkpt>
      <trkpt lat="45.97452" lon="6.5519">
        <ele>1815.8</ele>
        <time>2026-02-02T11:55:34Z</time>
      </trkpt>
      <trkpt lat="45.97452" lon="6.5519">
        <ele>1815.8</ele>
        <time>2026-02-02T11:55:35Z</time>
      </trkpt>
      <trkpt lat="45.97452" lon="6.5519">
        <ele>1815.8</ele>
        <time>2026-02-02T11:55:36Z</time>
      </trkpt>
      <trkpt lat="45.97452" lon="6.5519">
        <ele>1815.8</ele>
        <time>2026-02-02T11:55:37Z</time>
      </trkpt>
      <trkpt lat="45.97452" lon="6.5519">
        <ele>1815.8</ele>
        <time>2026-02-02T11:55:38Z</time>
      </trkpt>
      <trkpt lat="45.97452" lon="6.55188">
        <ele>1813.5</ele>
        <time>2026-02-02T11:55:39Z</time>
      </trkpt>
      <trkpt lat="45.97452" lon="6.55188">
        <ele>1813.5</ele>
        <time>2026-02-02T11:55:40Z</time>
      </trkpt>
      <trkpt lat="45.97452" lon="6.55188">
        <ele>1813.5</ele>
        <time>2026-02-02T11:55:41Z</time>
      </trkpt>
      <trkpt lat="45.97452" lon="6.55188">
        <ele>1813.5</ele>
        <time>2026-02-02T11:55:42Z</time>
      </trkpt>
      <trkpt lat="45.97452" lon="6.55188">
        <ele>1813.5</ele>
        <time>2026-02-02T11:55:43Z</time>
      </trkpt>
      <trkpt lat="45.97452" lon="6.55188">
        <ele>1813.5</ele>
        <time>2026-02-02T11:55:44Z</time>
      </trkpt>
      <trkpt lat="45.97452" lon="6.55188">
        <ele>1813.5</ele>
        <time>2026-02-02T11:55:45Z</time>
      </trkpt>
      <trkpt lat="45.97452" lon="6.55188">
        <ele>1813.5</ele>
        <time>2026-02-02T11:55:46Z</time>
      </trkpt>
      <trkpt lat="45.97452" lon="6.55188">
        <ele>1813.5</ele>
        <time>2026-02-02T11:55:47Z</time>
      </trkpt>
      <trkpt lat="45.97452" lon="6.55188">
        <ele>1813.5</ele>
        <time>2026-02-02T11:55:48Z</time>
      </trkpt>
      <trkpt lat="45.97452" lon="6.55188">
        <ele>1813.5</ele>
        <time>2026-02-02T11:55:49Z</time>
      </trkpt>
      <trkpt lat="45.97452" lon="6.55188">
        <ele>1813.5</ele>
        <time>2026-02-02T11:55:50Z</time>
      </trkpt>
      <trkpt lat="45.97452" lon="6.55189">
        <ele>1813.5</ele>
        <time>2026-02-02T11:55:51Z</time>
      </trkpt>
      <trkpt lat="45.97452" lon="6.55189">
        <ele>1813.5</ele>
        <time>2026-02-02T11:55:52Z</time>
      </trkpt>
      <trkpt lat="45.97452" lon="6.55189">
        <ele>1813.5</ele>
        <time>2026-02-02T11:55:53Z</time>
      </trkpt>
      <trkpt lat="45.97452" lon="6.55189">
        <ele>1813.5</ele>
        <time>2026-02-02T11:55:54Z</time>
      </trkpt>
      <trkpt lat="45.97452" lon="6.55189">
        <ele>1813.5</ele>
        <time>2026-02-02T11:55:55Z</time>
      </trkpt>
      <trkpt lat="45.97452" lon="6.55189">
        <ele>1813.5</ele>
        <time>2026-02-02T11:55:56Z</time>
      </trkpt>
      <trkpt lat="45.97452" lon="6.55189">
        <ele>1813.5</ele>
        <time>2026-02-02T11:55:57Z</time>
      </trkpt>
      <trkpt lat="45.97452" lon="6.55189">
        <ele>1813.5</ele>
        <time>2026-02-02T11:55:58Z</time>
      </trkpt>
      <trkpt lat="45.97452" lon="6.55189">
        <ele>1813.5</ele>
        <time>2026-02-02T11:55:59Z</time>
      </trkpt>
      <trkpt lat="45.97452" lon="6.55189">
        <ele>1813.5</ele>
        <time>2026-02-02T11:56:00Z</time>
      </trkpt>
      <trkpt lat="45.97452" lon="6.55189">
        <ele>1813.5</ele>
        <time>2026-02-02T11:56:01Z</time>
      </trkpt>
      <trkpt lat="45.97452" lon="6.55189">
        <ele>1813.5</ele>
        <time>2026-02-02T11:56:02Z</time>
      </trkpt>
      <trkpt lat="45.97452" lon="6.55189">
        <ele>1813.5</ele>
        <time>2026-02-02T11:56:03Z</time>
      </trkpt>
      <trkpt lat="45.97452" lon="6.55189">
        <ele>1813.5</ele>
        <time>2026-02-02T11:56:04Z</time>
      </trkpt>
      <trkpt lat="45.97452" lon="6.55189">
        <ele>1813.5</ele>
        <time>2026-02-02T11:56:05Z</time>
      </trkpt>
      <trkpt lat="45.97452" lon="6.55189">
        <ele>1813.5</ele>
        <time>2026-02-02T11:56:06Z</time>
      </trkpt>
      <trkpt lat="45.97452" lon="6.55189">
        <ele>1813.5</ele>
        <time>2026-02-02T11:56:07Z</time>
      </trkpt>
      <trkpt lat="45.97452" lon="6.55189">
        <ele>1813.5</ele>
        <time>2026-02-02T11:56:08Z</time>
      </trkpt>
      <trkpt lat="45.97452" lon="6.55189">
        <ele>1813.5</ele>
        <time>2026-02-02T11:56:09Z</time>
      </trkpt>
      <trkpt lat="45.97452" lon="6.55189">
        <ele>1813.5</ele>
        <time>2026-02-02T11:56:10Z</time>
      </trkpt>
      <trkpt lat="45.97452" lon="6.55189">
        <ele>1813.5</ele>
        <time>2026-02-02T11:56:11Z</time>
      </trkpt>
      <trkpt lat="45.97452" lon="6.55189">
        <ele>1813.5</ele>
        <time>2026-02-02T11:56:12Z</time>
      </trkpt>
      <trkpt lat="45.97452" lon="6.55189">
        <ele>1813.5</ele>
        <time>2026-02-02T11:56:13Z</time>
      </trkpt>
      <trkpt lat="45.97452" lon="6.55189">
        <ele>1813.5</ele>
        <time>2026-02-02T11:56:14Z</time>
      </trkpt>
      <trkpt lat="45.97452" lon="6.55188">
        <ele>1813.5</ele>
        <time>2026-02-02T11:56:15Z</time>
      </trkpt>
      <trkpt lat="45.97452" lon="6.55189">
        <ele>1815.8</ele>
        <time>2026-02-02T11:56:16Z</time>
      </trkpt>
      <trkpt lat="45.97452" lon="6.55189">
        <ele>1815.8</ele>
        <time>2026-02-02T11:56:17Z</time>
      </trkpt>
      <trkpt lat="45.97452" lon="6.55189">
        <ele>1815.8</ele>
        <time>2026-02-02T11:56:18Z</time>
      </trkpt>
      <trkpt lat="45.97452" lon="6.55189">
        <ele>1815.8</ele>
        <time>2026-02-02T11:56:19Z</time>
      </trkpt>
      <trkpt lat="45.97452" lon="6.55189">
        <ele>1815.8</ele>
        <time>2026-02-02T11:56:20Z</time>
      </trkpt>
      <trkpt lat="45.97452" lon="6.55189">
        <ele>1815.8</ele>
        <time>2026-02-02T11:56:21Z</time>
      </trkpt>
      <trkpt lat="45.97452" lon="6.55189">
        <ele>1815.8</ele>
        <time>2026-02-02T11:56:22Z</time>
      </trkpt>
      <trkpt lat="45.97452" lon="6.55189">
        <ele>1815.8</ele>
        <time>2026-02-02T11:56:23Z</time>
      </trkpt>
      <trkpt lat="45.97452" lon="6.55189">
        <ele>1815.8</ele>
        <time>2026-02-02T11:56:24Z</time>
      </trkpt>
      <trkpt lat="45.97451" lon="6.5519">
        <ele>1815.8</ele>
        <time>2026-02-02T11:56:25Z</time>
      </trkpt>
      <trkpt lat="45.97451" lon="6.55189">
        <ele>1815.8</ele>
        <time>2026-02-02T11:56:26Z</time>
      </trkpt>
      <trkpt lat="45.97451" lon="6.5519">
        <ele>1815.8</ele>
        <time>2026-02-02T11:56:27Z</time>
      </trkpt>
      <trkpt lat="45.97451" lon="6.5519">
        <ele>1815.8</ele>
        <time>2026-02-02T11:56:28Z</time>
      </trkpt>
      <trkpt lat="45.97451" lon="6.5519">
        <ele>1815.8</ele>
        <time>2026-02-02T11:56:29Z</time>
      </trkpt>
      <trkpt lat="45.97451" lon="6.5519">
        <ele>1815.8</ele>
        <time>2026-02-02T11:56:30Z</time>
      </trkpt>
      <trkpt lat="45.97451" lon="6.5519">
        <ele>1815.8</ele>
        <time>2026-02-02T11:56:31Z</time>
      </trkpt>
      <trkpt lat="45.97451" lon="6.5519">
        <ele>1815.8</ele>
        <time>2026-02-02T11:56:32Z</time>
      </trkpt>
      <trkpt lat="45.97451" lon="6.5519">
        <ele>1816</ele>
        <time>2026-02-02T11:56:33Z</time>
      </trkpt>
      <trkpt lat="45.97451" lon="6.5519">
        <ele>1816</ele>
        <time>2026-02-02T11:56:34Z</time>
      </trkpt>
      <trkpt lat="45.97451" lon="6.5519">
        <ele>1816</ele>
        <time>2026-02-02T11:56:35Z</time>
      </trkpt>
      <trkpt lat="45.97451" lon="6.5519">
        <ele>1816</ele>
        <time>2026-02-02T11:56:36Z</time>
      </trkpt>
      <trkpt lat="45.9745" lon="6.5519">
        <ele>1816</ele>
        <time>2026-02-02T11:56:37Z</time>
      </trkpt>
      <trkpt lat="45.9745" lon="6.5519">
        <ele>1816</ele>
        <time>2026-02-02T11:56:38Z</time>
      </trkpt>
      <trkpt lat="45.9745" lon="6.5519">
        <ele>1816</ele>
        <time>2026-02-02T11:56:39Z</time>
      </trkpt>
      <trkpt lat="45.9745" lon="6.5519">
        <ele>1816</ele>
        <time>2026-02-02T11:56:40Z</time>
      </trkpt>
      <trkpt lat="45.9745" lon="6.5519">
        <ele>1816</ele>
        <time>2026-02-02T11:56:41Z</time>
      </trkpt>
      <trkpt lat="45.9745" lon="6.55189">
        <ele>1816</ele>
        <time>2026-02-02T11:56:42Z</time>
      </trkpt>
      <trkpt lat="45.9745" lon="6.55189">
        <ele>1816</ele>
        <time>2026-02-02T11:56:43Z</time>
      </trkpt>
      <trkpt lat="45.9745" lon="6.55189">
        <ele>1816</ele>
        <time>2026-02-02T11:56:44Z</time>
      </trkpt>
      <trkpt lat="45.9745" lon="6.55189">
        <ele>1816</ele>
        <time>2026-02-02T11:56:45Z</time>
      </trkpt>
      <trkpt lat="45.9745" lon="6.55188">
        <ele>1813.7</ele>
        <time>2026-02-02T11:56:46Z</time>
      </trkpt>
      <trkpt lat="45.9745" lon="6.55188">
        <ele>1813.7</ele>
        <time>2026-02-02T11:56:47Z</time>
      </trkpt>
      <trkpt lat="45.9745" lon="6.55188">
        <ele>1813.7</ele>
        <time>2026-02-02T11:56:48Z</time>
      </trkpt>
      <trkpt lat="45.9745" lon="6.55188">
        <ele>1813.7</ele>
        <time>2026-02-02T11:56:49Z</time>
      </trkpt>
      <trkpt lat="45.9745" lon="6.55188">
        <ele>1813.7</ele>
        <time>2026-02-02T11:56:50Z</time>
      </trkpt>
      <trkpt lat="45.9745" lon="6.55188">
        <ele>1813.7</ele>
        <time>2026-02-02T11:56:51Z</time>
      </trkpt>
      <trkpt lat="45.9745" lon="6.55188">
        <ele>1813.7</ele>
        <time>2026-02-02T11:56:52Z</time>
      </trkpt>
      <trkpt lat="45.9745" lon="6.55188">
        <ele>1813.7</ele>
        <time>2026-02-02T11:56:53Z</time>
      </trkpt>
      <trkpt lat="45.9745" lon="6.55188">
        <ele>1813.7</ele>
        <time>2026-02-02T11:56:54Z</time>
      </trkpt>
      <trkpt lat="45.9745" lon="6.55188">
        <ele>1813.7</ele>
        <time>2026-02-02T11:56:55Z</time>
      </trkpt>
      <trkpt lat="45.9745" lon="6.55188">
        <ele>1813.7</ele>
        <time>2026-02-02T11:56:56Z</time>
      </trkpt>
      <trkpt lat="45.9745" lon="6.55188">
        <ele>1813.7</ele>
        <time>2026-02-02T11:56:57Z</time>
      </trkpt>
      <trkpt lat="45.9745" lon="6.55188">
        <ele>1813.7</ele>
        <time>2026-02-02T11:56:58Z</time>
      </trkpt>
      <trkpt lat="45.9745" lon="6.55188">
        <ele>1813.7</ele>
        <time>2026-02-02T11:56:59Z</time>
      </trkpt>
      <trkpt lat="45.9745" lon="6.55188">
        <ele>1813.7</ele>
        <time>2026-02-02T11:57:00Z</time>
      </trkpt>
      <trkpt lat="45.9745" lon="6.55188">
        <ele>1813.7</ele>
        <time>2026-02-02T11:57:01Z</time>
      </trkpt>
      <trkpt lat="45.9745" lon="6.55188">
        <ele>1813.7</ele>
        <time>2026-02-02T11:57:02Z</time>
      </trkpt>
      <trkpt lat="45.9745" lon="6.55189">
        <ele>1816</ele>
        <time>2026-02-02T11:57:03Z</time>
      </trkpt>
      <trkpt lat="45.9745" lon="6.55189">
        <ele>1816</ele>
        <time>2026-02-02T11:57:04Z</time>
      </trkpt>
      <trkpt lat="45.9745" lon="6.55189">
        <ele>1816</ele>
        <time>2026-02-02T11:57:05Z</time>
      </trkpt>
      <trkpt lat="45.9745" lon="6.55189">
        <ele>1816</ele>
        <time>2026-02-02T11:57:06Z</time>
      </trkpt>
      <trkpt lat="45.9745" lon="6.55189">
        <ele>1816</ele>
        <time>2026-02-02T11:57:07Z</time>
      </trkpt>
      <trkpt lat="45.9745" lon="6.55189">
        <ele>1816</ele>
        <time>2026-02-02T11:57:08Z</time>
      </trkpt>
      <trkpt lat="45.9745" lon="6.55189">
        <ele>1816</ele>
        <time>2026-02-02T11:57:09Z</time>
      </trkpt>
      <trkpt lat="45.9745" lon="6.55189">
        <ele>1816</ele>
        <time>2026-02-02T11:57:10Z</time>
      </trkpt>
      <trkpt lat="45.9745" lon="6.55189">
        <ele>1816</ele>
        <time>2026-02-02T11:57:11Z</time>
      </trkpt>
      <trkpt lat="45.9745" lon="6.55189">
        <ele>1816</ele>
        <time>2026-02-02T11:57:12Z</time>
      </trkpt>
      <trkpt lat="45.9745" lon="6.55189">
        <ele>1816</ele>
        <time>2026-02-02T11:57:13Z</time>
      </trkpt>
      <trkpt lat="45.9745" lon="6.55189">
        <ele>1816</ele>
        <time>2026-02-02T11:57:14Z</time>
      </trkpt>
      <trkpt lat="45.9745" lon="6.55189">
        <ele>1816</ele>
        <time>2026-02-02T11:57:15Z</time>
      </trkpt>
      <trkpt lat="45.9745" lon="6.55189">
        <ele>1816</ele>
        <time>2026-02-02T11:57:16Z</time>
      </trkpt>
      <trkpt lat="45.9745" lon="6.55189">
        <ele>1816</ele>
        <time>2026-02-02T11:57:17Z</time>
      </trkpt>
      <trkpt lat="45.9745" lon="6.55189">
        <ele>1816</ele>
        <time>2026-02-02T11:57:18Z</time>
      </trkpt>
      <trkpt lat="45.9745" lon="6.55189">
        <ele>1816</ele>
        <time>2026-02-02T11:57:19Z</time>
      </trkpt>
      <trkpt lat="45.9745" lon="6.55189">
        <ele>1816</ele>
        <time>2026-02-02T11:57:20Z</time>
      </trkpt>
      <trkpt lat="45.9745" lon="6.55189">
        <ele>1816</ele>
        <time>2026-02-02T11:57:21Z</time>
      </trkpt>
      <trkpt lat="45.9745" lon="6.55189">
        <ele>1816</ele>
        <time>2026-02-02T11:57:22Z</time>
      </trkpt>
      <trkpt lat="45.9745" lon="6.55189">
        <ele>1816</ele>
        <time>2026-02-02T11:57:23Z</time>
      </trkpt>
      <trkpt lat="45.9745" lon="6.55189">
        <ele>1816</ele>
        <time>2026-02-02T11:57:24Z</time>
      </trkpt>
      <trkpt lat="45.9745" lon="6.55189">
        <ele>1816</ele>
        <time>2026-02-02T11:57:25Z</time>
      </trkpt>
      <trkpt lat="45.9745" lon="6.55189">
        <ele>1816</ele>
        <time>2026-02-02T11:57:26Z</time>
      </trkpt>
      <trkpt lat="45.9745" lon="6.55189">
        <ele>1816</ele>
        <time>2026-02-02T11:57:27Z</time>
      </trkpt>
      <trkpt lat="45.9745" lon="6.55189">
        <ele>1816</ele>
        <time>2026-02-02T11:57:28Z</time>
      </trkpt>
      <trkpt lat="45.9745" lon="6.55189">
        <ele>1816</ele>
        <time>2026-02-02T11:57:29Z</time>
      </trkpt>
      <trkpt lat="45.9745" lon="6.55189">
        <ele>1816</ele>
        <time>2026-02-02T11:57:30Z</time>
      </trkpt>
      <trkpt lat="45.9745" lon="6.55189">
        <ele>1816</ele>
        <time>2026-02-02T11:57:31Z</time>
      </trkpt>
      <trkpt lat="45.9745" lon="6.55189">
        <ele>1816</ele>
        <time>2026-02-02T11:57:32Z</time>
      </trkpt>
      <trkpt lat="45.9745" lon="6.55189">
        <ele>1816</ele>
        <time>2026-02-02T11:57:33Z</time>
      </trkpt>
      <trkpt lat="45.9745" lon="6.55189">
        <ele>1816</ele>
        <time>2026-02-02T11:57:34Z</time>
      </trkpt>
      <trkpt lat="45.9745" lon="6.55189">
        <ele>1816</ele>
        <time>2026-02-02T11:57:35Z</time>
      </trkpt>
      <trkpt lat="45.9745" lon="6.55189">
        <ele>1816</ele>
        <time>2026-02-02T11:57:36Z</time>
      </trkpt>
      <trkpt lat="45.9745" lon="6.55189">
        <ele>1816</ele>
        <time>2026-02-02T11:57:37Z</time>
      </trkpt>
      <trkpt lat="45.9745" lon="6.55189">
        <ele>1816</ele>
        <time>2026-02-02T11:57:38Z</time>
      </trkpt>
      <trkpt lat="45.9745" lon="6.55189">
        <ele>1816</ele>
        <time>2026-02-02T11:57:39Z</time>
      </trkpt>
      <trkpt lat="45.9745" lon="6.55189">
        <ele>1816</ele>
        <time>2026-02-02T11:57:40Z</time>
      </trkpt>
      <trkpt lat="45.9745" lon="6.55189">
        <ele>1816</ele>
        <time>2026-02-02T11:57:41Z</time>
      </trkpt>
      <trkpt lat="45.9745" lon="6.55189">
        <ele>1816</ele>
        <time>2026-02-02T11:57:42Z</time>
      </trkpt>
      <trkpt lat="45.9745" lon="6.55189">
        <ele>1816</ele>
        <time>2026-02-02T11:57:43Z</time>
      </trkpt>
      <trkpt lat="45.9745" lon="6.55189">
        <ele>1816</ele>
        <time>2026-02-02T11:57:44Z</time>
      </trkpt>
      <trkpt lat="45.9745" lon="6.55189">
        <ele>1816</ele>
        <time>2026-02-02T11:57:45Z</time>
      </trkpt>
      <trkpt lat="45.9745" lon="6.55189">
        <ele>1816</ele>
        <time>2026-02-02T11:57:46Z</time>
      </trkpt>
      <trkpt lat="45.9745" lon="6.55189">
        <ele>1816</ele>
        <time>2026-02-02T11:57:47Z</time>
      </trkpt>
      <trkpt lat="45.9745" lon="6.55189">
        <ele>1816</ele>
        <time>2026-02-02T11:57:48Z</time>
      </trkpt>
      <trkpt lat="45.9745" lon="6.55189">
        <ele>1816</ele>
        <time>2026-02-02T11:57:49Z</time>
      </trkpt>
      <trkpt lat="45.9745" lon="6.55189">
        <ele>1816</ele>
        <time>2026-02-02T11:57:50Z</time>
      </trkpt>
      <trkpt lat="45.9745" lon="6.55189">
        <ele>1816</ele>
        <time>2026-02-02T11:57:51Z</time>
      </trkpt>
      <trkpt lat="45.9745" lon="6.55189">
        <ele>1816</ele>
        <time>2026-02-02T11:57:52Z</time>
      </trkpt>
      <trkpt lat="45.9745" lon="6.55189">
        <ele>1816</ele>
        <time>2026-02-02T11:57:53Z</time>
      </trkpt>
      <trkpt lat="45.9745" lon="6.55189">
        <ele>1816</ele>
        <time>2026-02-02T11:57:54Z</time>
      </trkpt>
      <trkpt lat="45.9745" lon="6.55189">
        <ele>1816</ele>
        <time>2026-02-02T11:57:55Z</time>
      </trkpt>
      <trkpt lat="45.9745" lon="6.55189">
        <ele>1816</ele>
        <time>2026-02-02T11:57:56Z</time>
      </trkpt>
      <trkpt lat="45.9745" lon="6.55189">
        <ele>1816</ele>
        <time>2026-02-02T11:57:57Z</time>
      </trkpt>
      <trkpt lat="45.9745" lon="6.55189">
        <ele>1816</ele>
        <time>2026-02-02T11:57:58Z</time>
      </trkpt>
      <trkpt lat="45.9745" lon="6.55189">
        <ele>1816</ele>
        <time>2026-02-02T11:57:59Z</time>
      </trkpt>
      <trkpt lat="45.9745" lon="6.55189">
        <ele>1816</ele>
        <time>2026-02-02T11:58:00Z</time>
      </trkpt>
      <trkpt lat="45.9745" lon="6.55189">
        <ele>1816</ele>
        <time>2026-02-02T11:58:01Z</time>
      </trkpt>
      <trkpt lat="45.9745" lon="6.55189">
        <ele>1816</ele>
        <time>2026-02-02T11:58:02Z</time>
      </trkpt>
      <trkpt lat="45.9745" lon="6.55189">
        <ele>1816</ele>
        <time>2026-02-02T11:58:03Z</time>
      </trkpt>
      <trkpt lat="45.9745" lon="6.55189">
        <ele>1816</ele>
        <time>2026-02-02T11:58:04Z</time>
      </trkpt>
      <trkpt lat="45.9745" lon="6.55189">
        <ele>1816</ele>
        <time>2026-02-02T11:58:05Z</time>
      </trkpt>
      <trkpt lat="45.9745" lon="6.55189">
        <ele>1816</ele>
        <time>2026-02-02T11:58:06Z</time>
      </trkpt>
      <trkpt lat="45.9745" lon="6.55189">
        <ele>1816</ele>
        <time>2026-02-02T11:58:07Z</time>
      </trkpt>
      <trkpt lat="45.9745" lon="6.55189">
        <ele>1816</ele>
        <time>2026-02-02T11:58:08Z</time>
      </trkpt>
      <trkpt lat="45.9745" lon="6.55189">
        <ele>1816</ele>
        <time>2026-02-02T11:58:09Z</time>
      </trkpt>
      <trkpt lat="45.9745" lon="6.55189">
        <ele>1816</ele>
        <time>2026-02-02T11:58:10Z</time>
      </trkpt>
      <trkpt lat="45.9745" lon="6.55189">
        <ele>1816</ele>
        <time>2026-02-02T11:58:11Z</time>
      </trkpt>
      <trkpt lat="45.9745" lon="6.55189">
        <ele>1816</ele>
        <time>2026-02-02T11:58:12Z</time>
      </trkpt>
      <trkpt lat="45.9745" lon="6.55189">
        <ele>1816</ele>
        <time>2026-02-02T11:58:13Z</time>
      </trkpt>
      <trkpt lat="45.9745" lon="6.55189">
        <ele>1816</ele>
        <time>2026-02-02T11:58:14Z</time>
      </trkpt>
      <trkpt lat="45.9745" lon="6.55189">
        <ele>1816</ele>
        <time>2026-02-02T11:58:15Z</time>
      </trkpt>
      <trkpt lat="45.9745" lon="6.55189">
        <ele>1816</ele>
        <time>2026-02-02T11:58:16Z</time>
      </trkpt>
      <trkpt lat="45.9745" lon="6.55189">
        <ele>1816</ele>
        <time>2026-02-02T11:58:17Z</time>
      </trkpt>
      <trkpt lat="45.9745" lon="6.55189">
        <ele>1816</ele>
        <time>2026-02-02T11:58:18Z</time>
      </trkpt>
      <trkpt lat="45.9745" lon="6.55189">
        <ele>1816</ele>
        <time>2026-02-02T11:58:19Z</time>
      </trkpt>
      <trkpt lat="45.9745" lon="6.55189">
        <ele>1816</ele>
        <time>2026-02-02T11:58:20Z</time>
      </trkpt>
      <trkpt lat="45.9745" lon="6.55189">
        <ele>1816</ele>
        <time>2026-02-02T11:58:21Z</time>
      </trkpt>
      <trkpt lat="45.9745" lon="6.55189">
        <ele>1816</ele>
        <time>2026-02-02T11:58:22Z</time>
      </trkpt>
      <trkpt lat="45.9745" lon="6.55189">
        <ele>1816</ele>
        <time>2026-02-02T11:58:23Z</time>
      </trkpt>
      <trkpt lat="45.9745" lon="6.55189">
        <ele>1816</ele>
        <time>2026-02-02T11:58:24Z</time>
      </trkpt>
      <trkpt lat="45.9745" lon="6.55189">
        <ele>1816</ele>
        <time>2026-02-02T11:58:25Z</time>
      </trkpt>
      <trkpt lat="45.9745" lon="6.55188">
        <ele>1813.7</ele>
        <time>2026-02-02T11:58:26Z</time>
      </trkpt>
      <trkpt lat="45.97449" lon="6.55188">
        <ele>1813.7</ele>
        <time>2026-02-02T11:58:27Z</time>
      </trkpt>
      <trkpt lat="45.97449" lon="6.55188">
        <ele>1813.7</ele>
        <time>2026-02-02T11:58:28Z</time>
      </trkpt>
      <trkpt lat="45.97449" lon="6.55188">
        <ele>1813.7</ele>
        <time>2026-02-02T11:58:29Z</time>
      </trkpt>
      <trkpt lat="45.97449" lon="6.55188">
        <ele>1813.7</ele>
        <time>2026-02-02T11:58:30Z</time>
      </trkpt>
      <trkpt lat="45.97449" lon="6.55188">
        <ele>1813.7</ele>
        <time>2026-02-02T11:58:31Z</time>
      </trkpt>
      <trkpt lat="45.97448" lon="6.55188">
        <ele>1814</ele>
        <time>2026-02-02T11:58:32Z</time>
      </trkpt>
      <trkpt lat="45.97447" lon="6.55187">
        <ele>1814</ele>
        <time>2026-02-02T11:58:33Z</time>
      </trkpt>
      <trkpt lat="45.97448" lon="6.55187">
        <ele>1814</ele>
        <time>2026-02-02T11:58:34Z</time>
      </trkpt>
      <trkpt lat="45.97447" lon="6.55187">
        <ele>1814</ele>
        <time>2026-02-02T11:58:35Z</time>
      </trkpt>
      <trkpt lat="45.97448" lon="6.55187">
        <ele>1813.7</ele>
        <time>2026-02-02T11:58:36Z</time>
      </trkpt>
      <trkpt lat="45.97448" lon="6.55187">
        <ele>1814</ele>
        <time>2026-02-02T11:58:37Z</time>
      </trkpt>
      <trkpt lat="45.97447" lon="6.55187">
        <ele>1814</ele>
        <time>2026-02-02T11:58:38Z</time>
      </trkpt>
      <trkpt lat="45.97448" lon="6.55187">
        <ele>1814</ele>
        <time>2026-02-02T11:58:39Z</time>
      </trkpt>
      <trkpt lat="45.97448" lon="6.55187">
        <ele>1813.7</ele>
        <time>2026-02-02T11:58:40Z</time>
      </trkpt>
      <trkpt lat="45.97448" lon="6.55187">
        <ele>1814</ele>
        <time>2026-02-02T11:58:41Z</time>
      </trkpt>
      <trkpt lat="45.97448" lon="6.55187">
        <ele>1814</ele>
        <time>2026-02-02T11:58:42Z</time>
      </trkpt>
      <trkpt lat="45.97448" lon="6.55187">
        <ele>1814</ele>
        <time>2026-02-02T11:58:43Z</time>
      </trkpt>
      <trkpt lat="45.97448" lon="6.55187">
        <ele>1814</ele>
        <time>2026-02-02T11:58:44Z</time>
      </trkpt>
      <trkpt lat="45.97448" lon="6.55187">
        <ele>1814</ele>
        <time>2026-02-02T11:58:45Z</time>
      </trkpt>
      <trkpt lat="45.97448" lon="6.55187">
        <ele>1814</ele>
        <time>2026-02-02T11:58:46Z</time>
      </trkpt>
      <trkpt lat="45.97448" lon="6.55187">
        <ele>1814</ele>
        <time>2026-02-02T11:58:47Z</time>
      </trkpt>
      <trkpt lat="45.97448" lon="6.55187">
        <ele>1814</ele>
        <time>2026-02-02T11:58:48Z</time>
      </trkpt>
      <trkpt lat="45.97448" lon="6.55187">
        <ele>1814</ele>
        <time>2026-02-02T11:58:49Z</time>
      </trkpt>
      <trkpt lat="45.97448" lon="6.55187">
        <ele>1813.7</ele>
        <time>2026-02-02T11:58:50Z</time>
      </trkpt>
      <trkpt lat="45.97449" lon="6.55187">
        <ele>1813.7</ele>
        <time>2026-02-02T11:58:51Z</time>
      </trkpt>
      <trkpt lat="45.97449" lon="6.55187">
        <ele>1813.7</ele>
        <time>2026-02-02T11:58:52Z</time>
      </trkpt>
      <trkpt lat="45.97449" lon="6.55187">
        <ele>1813.7</ele>
        <time>2026-02-02T11:58:53Z</time>
      </trkpt>
      <trkpt lat="45.97449" lon="6.55187">
        <ele>1813.7</ele>
        <time>2026-02-02T11:58:54Z</time>
      </trkpt>
      <trkpt lat="45.97449" lon="6.55186">
        <ele>1813.7</ele>
        <time>2026-02-02T11:58:55Z</time>
      </trkpt>
      <trkpt lat="45.97449" lon="6.55187">
        <ele>1813.7</ele>
        <time>2026-02-02T11:58:56Z</time>
      </trkpt>
      <trkpt lat="45.97449" lon="6.55188">
        <ele>1813.7</ele>
        <time>2026-02-02T11:58:57Z</time>
      </trkpt>
      <trkpt lat="45.97449" lon="6.55188">
        <ele>1813.7</ele>
        <time>2026-02-02T11:58:58Z</time>
      </trkpt>
      <trkpt lat="45.97449" lon="6.55187">
        <ele>1813.7</ele>
        <time>2026-02-02T11:58:59Z</time>
      </trkpt>
      <trkpt lat="45.97449" lon="6.55187">
        <ele>1813.7</ele>
        <time>2026-02-02T11:59:00Z</time>
      </trkpt>
      <trkpt lat="45.97449" lon="6.55187">
        <ele>1813.7</ele>
        <time>2026-02-02T11:59:01Z</time>
      </trkpt>
      <trkpt lat="45.97449" lon="6.55187">
        <ele>1813.7</ele>
        <time>2026-02-02T11:59:02Z</time>
      </trkpt>
      <trkpt lat="45.97449" lon="6.55188">
        <ele>1813.7</ele>
        <time>2026-02-02T11:59:03Z</time>
      </trkpt>
      <trkpt lat="45.97449" lon="6.55188">
        <ele>1813.7</ele>
        <time>2026-02-02T11:59:04Z</time>
      </trkpt>
      <trkpt lat="45.97449" lon="6.55188">
        <ele>1813.7</ele>
        <time>2026-02-02T11:59:05Z</time>
      </trkpt>
      <trkpt lat="45.9745" lon="6.55188">
        <ele>1813.7</ele>
        <time>2026-02-02T11:59:06Z</time>
      </trkpt>
      <trkpt lat="45.9745" lon="6.55188">
        <ele>1813.7</ele>
        <time>2026-02-02T11:59:07Z</time>
      </trkpt>
      <trkpt lat="45.97449" lon="6.55188">
        <ele>1813.7</ele>
        <time>2026-02-02T11:59:08Z</time>
      </trkpt>
      <trkpt lat="45.9745" lon="6.55188">
        <ele>1813.7</ele>
        <time>2026-02-02T11:59:09Z</time>
      </trkpt>
      <trkpt lat="45.9745" lon="6.55188">
        <ele>1813.7</ele>
        <time>2026-02-02T11:59:10Z</time>
      </trkpt>
      <trkpt lat="45.9745" lon="6.55188">
        <ele>1813.7</ele>
        <time>2026-02-02T11:59:11Z</time>
      </trkpt>
      <trkpt lat="45.9745" lon="6.55188">
        <ele>1813.7</ele>
        <time>2026-02-02T11:59:12Z</time>
      </trkpt>
      <trkpt lat="45.9745" lon="6.55188">
        <ele>1813.7</ele>
        <time>2026-02-02T11:59:13Z</time>
      </trkpt>
      <trkpt lat="45.9745" lon="6.55188">
        <ele>1813.7</ele>
        <time>2026-02-02T11:59:14Z</time>
      </trkpt>
      <trkpt lat="45.9745" lon="6.55188">
        <ele>1813.7</ele>
        <time>2026-02-02T11:59:15Z</time>
      </trkpt>
      <trkpt lat="45.9745" lon="6.55188">
        <ele>1813.7</ele>
        <time>2026-02-02T11:59:16Z</time>
      </trkpt>
      <trkpt lat="45.9745" lon="6.55188">
        <ele>1813.7</ele>
        <time>2026-02-02T11:59:17Z</time>
      </trkpt>
      <trkpt lat="45.9745" lon="6.55188">
        <ele>1813.7</ele>
        <time>2026-02-02T11:59:18Z</time>
      </trkpt>
      <trkpt lat="45.9745" lon="6.55188">
        <ele>1813.7</ele>
        <time>2026-02-02T11:59:19Z</time>
      </trkpt>
      <trkpt lat="45.9745" lon="6.55188">
        <ele>1813.7</ele>
        <time>2026-02-02T11:59:20Z</time>
      </trkpt>
      <trkpt lat="45.9745" lon="6.55188">
        <ele>1813.7</ele>
        <time>2026-02-02T11:59:21Z</time>
      </trkpt>
      <trkpt lat="45.9745" lon="6.55188">
        <ele>1813.7</ele>
        <time>2026-02-02T11:59:22Z</time>
      </trkpt>
      <trkpt lat="45.9745" lon="6.55188">
        <ele>1813.7</ele>
        <time>2026-02-02T11:59:23Z</time>
      </trkpt>
      <trkpt lat="45.9745" lon="6.55188">
        <ele>1813.7</ele>
        <time>2026-02-02T11:59:24Z</time>
      </trkpt>
      <trkpt lat="45.9745" lon="6.55188">
        <ele>1813.7</ele>
        <time>2026-02-02T11:59:25Z</time>
      </trkpt>
      <trkpt lat="45.9745" lon="6.55187">
        <ele>1813.7</ele>
        <time>2026-02-02T11:59:26Z</time>
      </trkpt>
      <trkpt lat="45.9745" lon="6.55187">
        <ele>1813.7</ele>
        <time>2026-02-02T11:59:27Z</time>
      </trkpt>
      <trkpt lat="45.9745" lon="6.55187">
        <ele>1813.7</ele>
        <time>2026-02-02T11:59:28Z</time>
      </trkpt>
      <trkpt lat="45.9745" lon="6.55187">
        <ele>1813.7</ele>
        <time>2026-02-02T11:59:29Z</time>
      </trkpt>
      <trkpt lat="45.9745" lon="6.55187">
        <ele>1813.7</ele>
        <time>2026-02-02T11:59:30Z</time>
      </trkpt>
      <trkpt lat="45.9745" lon="6.55187">
        <ele>1813.7</ele>
        <time>2026-02-02T11:59:31Z</time>
      </trkpt>
      <trkpt lat="45.9745" lon="6.55187">
        <ele>1813.7</ele>
        <time>2026-02-02T11:59:32Z</time>
      </trkpt>
      <trkpt lat="45.9745" lon="6.55187">
        <ele>1813.7</ele>
        <time>2026-02-02T11:59:33Z</time>
      </trkpt>
      <trkpt lat="45.9745" lon="6.55187">
        <ele>1813.7</ele>
        <time>2026-02-02T11:59:34Z</time>
      </trkpt>
      <trkpt lat="45.9745" lon="6.55187">
        <ele>1813.7</ele>
        <time>2026-02-02T11:59:35Z</time>
      </trkpt>
      <trkpt lat="45.9745" lon="6.55187">
        <ele>1813.7</ele>
        <time>2026-02-02T11:59:36Z</time>
      </trkpt>
      <trkpt lat="45.9745" lon="6.55187">
        <ele>1813.7</ele>
        <time>2026-02-02T11:59:37Z</time>
      </trkpt>
      <trkpt lat="45.9745" lon="6.55187">
        <ele>1813.7</ele>
        <time>2026-02-02T11:59:38Z</time>
      </trkpt>
      <trkpt lat="45.9745" lon="6.55187">
        <ele>1813.7</ele>
        <time>2026-02-02T11:59:39Z</time>
      </trkpt>
      <trkpt lat="45.9745" lon="6.55187">
        <ele>1813.7</ele>
        <time>2026-02-02T11:59:40Z</time>
      </trkpt>
      <trkpt lat="45.9745" lon="6.55187">
        <ele>1813.7</ele>
        <time>2026-02-02T11:59:41Z</time>
      </trkpt>
      <trkpt lat="45.9745" lon="6.55187">
        <ele>1813.7</ele>
        <time>2026-02-02T11:59:42Z</time>
      </trkpt>
      <trkpt lat="45.9745" lon="6.55187">
        <ele>1813.7</ele>
        <time>2026-02-02T11:59:43Z</time>
      </trkpt>
      <trkpt lat="45.9745" lon="6.55188">
        <ele>1813.7</ele>
        <time>2026-02-02T11:59:44Z</time>
      </trkpt>
      <trkpt lat="45.9745" lon="6.55188">
        <ele>1813.7</ele>
        <time>2026-02-02T11:59:45Z</time>
      </trkpt>
      <trkpt lat="45.9745" lon="6.55188">
        <ele>1813.7</ele>
        <time>2026-02-02T11:59:46Z</time>
      </trkpt>
      <trkpt lat="45.9745" lon="6.55188">
        <ele>1813.7</ele>
        <time>2026-02-02T11:59:47Z</time>
      </trkpt>
      <trkpt lat="45.9745" lon="6.55188">
        <ele>1813.7</ele>
        <time>2026-02-02T11:59:48Z</time>
      </trkpt>
      <trkpt lat="45.9745" lon="6.55188">
        <ele>1813.7</ele>
        <time>2026-02-02T11:59:49Z</time>
      </trkpt>
      <trkpt lat="45.9745" lon="6.55188">
        <ele>1813.7</ele>
        <time>2026-02-02T11:59:50Z</time>
      </trkpt>
      <trkpt lat="45.9745" lon="6.55187">
        <ele>1813.7</ele>
        <time>2026-02-02T11:59:51Z</time>
      </trkpt>
      <trkpt lat="45.9745" lon="6.55187">
        <ele>1813.7</ele>
        <time>2026-02-02T11:59:52Z</time>
      </trkpt>
      <trkpt lat="45.9745" lon="6.55187">
        <ele>1813.7</ele>
        <time>2026-02-02T11:59:53Z</time>
      </trkpt>
      <trkpt lat="45.9745" lon="6.55187">
        <ele>1813.7</ele>
        <time>2026-02-02T11:59:54Z</time>
      </trkpt>
      <trkpt lat="45.9745" lon="6.55187">
        <ele>1813.7</ele>
        <time>2026-02-02T11:59:55Z</time>
      </trkpt>
      <trkpt lat="45.9745" lon="6.55187">
        <ele>1813.7</ele>
        <time>2026-02-02T11:59:56Z</time>
      </trkpt>
      <trkpt lat="45.9745" lon="6.55187">
        <ele>1813.7</ele>
        <time>2026-02-02T11:59:57Z</time>
      </trkpt>
      <trkpt lat="45.9745" lon="6.55187">
        <ele>1813.7</ele>
        <time>2026-02-02T11:59:58Z</time>
      </trkpt>
      <trkpt lat="45.9745" lon="6.55187">
        <ele>1813.7</ele>
        <time>2026-02-02T11:59:59Z</time>
      </trkpt>
      <trkpt lat="45.9745" lon="6.55187">
        <ele>1813.7</ele>
        <time>2026-02-02T12:00:00Z</time>
      </trkpt>
      <trkpt lat="45.9745" lon="6.55187">
        <ele>1813.7</ele>
        <time>2026-02-02T12:00:01Z</time>
      </trkpt>
      <trkpt lat="45.9745" lon="6.55187">
        <ele>1813.7</ele>
        <time>2026-02-02T12:00:02Z</time>
      </trkpt>
      <trkpt lat="45.9745" lon="6.55187">
        <ele>1813.7</ele>
        <time>2026-02-02T12:00:03Z</time>
      </trkpt>
      <trkpt lat="45.9745" lon="6.55188">
        <ele>1813.7</ele>
        <time>2026-02-02T12:00:04Z</time>
      </trkpt>
      <trkpt lat="45.9745" lon="6.55188">
        <ele>1813.7</ele>
        <time>2026-02-02T12:00:05Z</time>
      </trkpt>
      <trkpt lat="45.9745" lon="6.55188">
        <ele>1813.7</ele>
        <time>2026-02-02T12:00:06Z</time>
      </trkpt>
      <trkpt lat="45.9745" lon="6.55188">
        <ele>1813.7</ele>
        <time>2026-02-02T12:00:07Z</time>
      </trkpt>
      <trkpt lat="45.9745" lon="6.55188">
        <ele>1813.7</ele>
        <time>2026-02-02T12:00:08Z</time>
      </trkpt>
      <trkpt lat="45.9745" lon="6.55188">
        <ele>1813.7</ele>
        <time>2026-02-02T12:00:09Z</time>
      </trkpt>
      <trkpt lat="45.9745" lon="6.55188">
        <ele>1813.7</ele>
        <time>2026-02-02T12:00:10Z</time>
      </trkpt>
      <trkpt lat="45.9745" lon="6.55188">
        <ele>1813.7</ele>
        <time>2026-02-02T12:00:11Z</time>
      </trkpt>
      <trkpt lat="45.9745" lon="6.55188">
        <ele>1813.7</ele>
        <time>2026-02-02T12:00:12Z</time>
      </trkpt>
      <trkpt lat="45.9745" lon="6.55188">
        <ele>1813.7</ele>
        <time>2026-02-02T12:00:13Z</time>
      </trkpt>
      <trkpt lat="45.9745" lon="6.55188">
        <ele>1813.7</ele>
        <time>2026-02-02T12:00:14Z</time>
      </trkpt>
      <trkpt lat="45.9745" lon="6.55188">
        <ele>1813.7</ele>
        <time>2026-02-02T12:00:15Z</time>
      </trkpt>
      <trkpt lat="45.9745" lon="6.55188">
        <ele>1813.7</ele>
        <time>2026-02-02T12:00:16Z</time>
      </trkpt>
      <trkpt lat="45.9745" lon="6.55188">
        <ele>1813.7</ele>
        <time>2026-02-02T12:00:17Z</time>
      </trkpt>
      <trkpt lat="45.9745" lon="6.55188">
        <ele>1813.7</ele>
        <time>2026-02-02T12:00:18Z</time>
      </trkpt>
      <trkpt lat="45.9745" lon="6.55188">
        <ele>1813.7</ele>
        <time>2026-02-02T12:00:19Z</time>
      </trkpt>
      <trkpt lat="45.9745" lon="6.55188">
        <ele>1813.7</ele>
        <time>2026-02-02T12:00:20Z</time>
      </trkpt>
      <trkpt lat="45.9745" lon="6.55188">
        <ele>1813.7</ele>
        <time>2026-02-02T12:00:21Z</time>
      </trkpt>
      <trkpt lat="45.9745" lon="6.55188">
        <ele>1813.7</ele>
        <time>2026-02-02T12:00:22Z</time>
      </trkpt>
      <trkpt lat="45.9745" lon="6.55188">
        <ele>1813.7</ele>
        <time>2026-02-02T12:00:23Z</time>
      </trkpt>
      <trkpt lat="45.9745" lon="6.55188">
        <ele>1813.7</ele>
        <time>2026-02-02T12:00:24Z</time>
      </trkpt>
      <trkpt lat="45.9745" lon="6.55188">
        <ele>1813.7</ele>
        <time>2026-02-02T12:00:25Z</time>
      </trkpt>
      <trkpt lat="45.9745" lon="6.55188">
        <ele>1813.7</ele>
        <time>2026-02-02T12:00:26Z</time>
      </trkpt>
      <trkpt lat="45.9745" lon="6.55188">
        <ele>1813.7</ele>
        <time>2026-02-02T12:00:27Z</time>
      </trkpt>
      <trkpt lat="45.9745" lon="6.55188">
        <ele>1813.7</ele>
        <time>2026-02-02T12:00:28Z</time>
      </trkpt>
      <trkpt lat="45.9745" lon="6.55188">
        <ele>1813.7</ele>
        <time>2026-02-02T12:00:29Z</time>
      </trkpt>
      <trkpt lat="45.9745" lon="6.55188">
        <ele>1813.7</ele>
        <time>2026-02-02T12:00:30Z</time>
      </trkpt>
      <trkpt lat="45.9745" lon="6.55188">
        <ele>1813.7</ele>
        <time>2026-02-02T12:00:31Z</time>
      </trkpt>
      <trkpt lat="45.9745" lon="6.55188">
        <ele>1813.7</ele>
        <time>2026-02-02T12:00:32Z</time>
      </trkpt>
      <trkpt lat="45.9745" lon="6.55188">
        <ele>1813.7</ele>
        <time>2026-02-02T12:00:33Z</time>
      </trkpt>
      <trkpt lat="45.9745" lon="6.55188">
        <ele>1813.7</ele>
        <time>2026-02-02T12:00:34Z</time>
      </trkpt>
      <trkpt lat="45.9745" lon="6.55188">
        <ele>1813.7</ele>
        <time>2026-02-02T12:00:35Z</time>
      </trkpt>
      <trkpt lat="45.9745" lon="6.55188">
        <ele>1813.7</ele>
        <time>2026-02-02T12:00:36Z</time>
      </trkpt>
      <trkpt lat="45.9745" lon="6.55188">
        <ele>1813.7</ele>
        <time>2026-02-02T12:00:37Z</time>
      </trkpt>
      <trkpt lat="45.9745" lon="6.55188">
        <ele>1813.7</ele>
        <time>2026-02-02T12:00:38Z</time>
      </trkpt>
      <trkpt lat="45.9745" lon="6.55188">
        <ele>1813.7</ele>
        <time>2026-02-02T12:00:39Z</time>
      </trkpt>
      <trkpt lat="45.9745" lon="6.55188">
        <ele>1813.7</ele>
        <time>2026-02-02T12:00:40Z</time>
      </trkpt>
      <trkpt lat="45.9745" lon="6.55188">
        <ele>1813.7</ele>
        <time>2026-02-02T12:00:41Z</time>
      </trkpt>
      <trkpt lat="45.9745" lon="6.55188">
        <ele>1813.7</ele>
        <time>2026-02-02T12:00:42Z</time>
      </trkpt>
      <trkpt lat="45.9745" lon="6.55188">
        <ele>1813.7</ele>
        <time>2026-02-02T12:00:43Z</time>
      </trkpt>
      <trkpt lat="45.97449" lon="6.55188">
        <ele>1813.7</ele>
        <time>2026-02-02T12:00:44Z</time>
      </trkpt>
      <trkpt lat="45.9745" lon="6.55189">
        <ele>1813.7</ele>
        <time>2026-02-02T12:00:45Z</time>
      </trkpt>
      <trkpt lat="45.9745" lon="6.55189">
        <ele>1816</ele>
        <time>2026-02-02T12:00:46Z</time>
      </trkpt>
      <trkpt lat="45.9745" lon="6.55189">
        <ele>1816</ele>
        <time>2026-02-02T12:00:47Z</time>
      </trkpt>
      <trkpt lat="45.9745" lon="6.55189">
        <ele>1816</ele>
        <time>2026-02-02T12:00:48Z</time>
      </trkpt>
      <trkpt lat="45.9745" lon="6.55189">
        <ele>1816</ele>
        <time>2026-02-02T12:00:49Z</time>
      </trkpt>
      <trkpt lat="45.9745" lon="6.55189">
        <ele>1816</ele>
        <time>2026-02-02T12:00:50Z</time>
      </trkpt>
      <trkpt lat="45.9745" lon="6.55189">
        <ele>1816</ele>
        <time>2026-02-02T12:00:51Z</time>
      </trkpt>
      <trkpt lat="45.9745" lon="6.55189">
        <ele>1816</ele>
        <time>2026-02-02T12:00:52Z</time>
      </trkpt>
      <trkpt lat="45.9745" lon="6.55189">
        <ele>1816</ele>
        <time>2026-02-02T12:00:53Z</time>
      </trkpt>
      <trkpt lat="45.9745" lon="6.55189">
        <ele>1816</ele>
        <time>2026-02-02T12:00:54Z</time>
      </trkpt>
      <trkpt lat="45.9745" lon="6.5519">
        <ele>1816</ele>
        <time>2026-02-02T12:00:55Z</time>
      </trkpt>
      <trkpt lat="45.9745" lon="6.5519">
        <ele>1816</ele>
        <time>2026-02-02T12:00:56Z</time>
      </trkpt>
      <trkpt lat="45.9745" lon="6.5519">
        <ele>1816</ele>
        <time>2026-02-02T12:00:57Z</time>
      </trkpt>
      <trkpt lat="45.9745" lon="6.5519">
        <ele>1816</ele>
        <time>2026-02-02T12:00:58Z</time>
      </trkpt>
      <trkpt lat="45.9745" lon="6.5519">
        <ele>1816</ele>
        <time>2026-02-02T12:00:59Z</time>
      </trkpt>
      <trkpt lat="45.9745" lon="6.55189">
        <ele>1816</ele>
        <time>2026-02-02T12:01:00Z</time>
      </trkpt>
      <trkpt lat="45.9745" lon="6.55189">
        <ele>1816</ele>
        <time>2026-02-02T12:01:01Z</time>
      </trkpt>
      <trkpt lat="45.9745" lon="6.5519">
        <ele>1816</ele>
        <time>2026-02-02T12:01:02Z</time>
      </trkpt>
      <trkpt lat="45.9745" lon="6.5519">
        <ele>1816</ele>
        <time>2026-02-02T12:01:03Z</time>
      </trkpt>
      <trkpt lat="45.9745" lon="6.5519">
        <ele>1816</ele>
        <time>2026-02-02T12:01:04Z</time>
      </trkpt>
      <trkpt lat="45.9745" lon="6.5519">
        <ele>1816</ele>
        <time>2026-02-02T12:01:05Z</time>
      </trkpt>
      <trkpt lat="45.9745" lon="6.5519">
        <ele>1816</ele>
        <time>2026-02-02T12:01:06Z</time>
      </trkpt>
      <trkpt lat="45.9745" lon="6.55189">
        <ele>1816</ele>
        <time>2026-02-02T12:01:07Z</time>
      </trkpt>
      <trkpt lat="45.9745" lon="6.55189">
        <ele>1816</ele>
        <time>2026-02-02T12:01:08Z</time>
      </trkpt>
      <trkpt lat="45.9745" lon="6.55189">
        <ele>1816</ele>
        <time>2026-02-02T12:01:09Z</time>
      </trkpt>
      <trkpt lat="45.9745" lon="6.55189">
        <ele>1816</ele>
        <time>2026-02-02T12:01:10Z</time>
      </trkpt>
      <trkpt lat="45.9745" lon="6.55189">
        <ele>1816</ele>
        <time>2026-02-02T12:01:11Z</time>
      </trkpt>
      <trkpt lat="45.9745" lon="6.55189">
        <ele>1816</ele>
        <time>2026-02-02T12:01:12Z</time>
      </trkpt>
      <trkpt lat="45.9745" lon="6.55189">
        <ele>1816</ele>
        <time>2026-02-02T12:01:13Z</time>
      </trkpt>
      <trkpt lat="45.9745" lon="6.55189">
        <ele>1816</ele>
        <time>2026-02-02T12:01:14Z</time>
      </trkpt>
      <trkpt lat="45.9745" lon="6.55189">
        <ele>1816</ele>
        <time>2026-02-02T12:01:15Z</time>
      </trkpt>
      <trkpt lat="45.9745" lon="6.55189">
        <ele>1816</ele>
        <time>2026-02-02T12:01:16Z</time>
      </trkpt>
      <trkpt lat="45.9745" lon="6.55189">
        <ele>1816</ele>
        <time>2026-02-02T12:01:17Z</time>
      </trkpt>
      <trkpt lat="45.9745" lon="6.55189">
        <ele>1816</ele>
        <time>2026-02-02T12:01:18Z</time>
      </trkpt>
      <trkpt lat="45.9745" lon="6.55189">
        <ele>1816</ele>
        <time>2026-02-02T12:01:19Z</time>
      </trkpt>
      <trkpt lat="45.9745" lon="6.55189">
        <ele>1816</ele>
        <time>2026-02-02T12:01:20Z</time>
      </trkpt>
      <trkpt lat="45.9745" lon="6.55189">
        <ele>1816</ele>
        <time>2026-02-02T12:01:21Z</time>
      </trkpt>
      <trkpt lat="45.9745" lon="6.55189">
        <ele>1816</ele>
        <time>2026-02-02T12:01:22Z</time>
      </trkpt>
      <trkpt lat="45.9745" lon="6.55189">
        <ele>1816</ele>
        <time>2026-02-02T12:01:23Z</time>
      </trkpt>
      <trkpt lat="45.9745" lon="6.55189">
        <ele>1816</ele>
        <time>2026-02-02T12:01:24Z</time>
      </trkpt>
      <trkpt lat="45.9745" lon="6.55189">
        <ele>1816</ele>
        <time>2026-02-02T12:01:25Z</time>
      </trkpt>
      <trkpt lat="45.9745" lon="6.55189">
        <ele>1816</ele>
        <time>2026-02-02T12:01:26Z</time>
      </trkpt>
      <trkpt lat="45.9745" lon="6.55189">
        <ele>1816</ele>
        <time>2026-02-02T12:01:27Z</time>
      </trkpt>
      <trkpt lat="45.9745" lon="6.55189">
        <ele>1816</ele>
        <time>2026-02-02T12:01:28Z</time>
      </trkpt>
      <trkpt lat="45.9745" lon="6.55189">
        <ele>1816</ele>
        <time>2026-02-02T12:01:29Z</time>
      </trkpt>
      <trkpt lat="45.9745" lon="6.55188">
        <ele>1813.7</ele>
        <time>2026-02-02T12:01:30Z</time>
      </trkpt>
      <trkpt lat="45.9745" lon="6.55188">
        <ele>1813.7</ele>
        <time>2026-02-02T12:01:31Z</time>
      </trkpt>
      <trkpt lat="45.9745" lon="6.55188">
        <ele>1813.7</ele>
        <time>2026-02-02T12:01:32Z</time>
      </trkpt>
      <trkpt lat="45.9745" lon="6.55188">
        <ele>1813.7</ele>
        <time>2026-02-02T12:01:33Z</time>
      </trkpt>
      <trkpt lat="45.9745" lon="6.55188">
        <ele>1813.7</ele>
        <time>2026-02-02T12:01:34Z</time>
      </trkpt>
      <trkpt lat="45.9745" lon="6.55188">
        <ele>1813.7</ele>
        <time>2026-02-02T12:01:35Z</time>
      </trkpt>
      <trkpt lat="45.9745" lon="6.55188">
        <ele>1813.7</ele>
        <time>2026-02-02T12:01:36Z</time>
      </trkpt>
      <trkpt lat="45.9745" lon="6.55188">
        <ele>1813.7</ele>
        <time>2026-02-02T12:01:37Z</time>
      </trkpt>
      <trkpt lat="45.9745" lon="6.55188">
        <ele>1813.7</ele>
        <time>2026-02-02T12:01:38Z</time>
      </trkpt>
      <trkpt lat="45.9745" lon="6.55188">
        <ele>1813.7</ele>
        <time>2026-02-02T12:01:39Z</time>
      </trkpt>
      <trkpt lat="45.9745" lon="6.55187">
        <ele>1813.7</ele>
        <time>2026-02-02T12:01:40Z</time>
      </trkpt>
      <trkpt lat="45.9745" lon="6.55187">
        <ele>1813.7</ele>
        <time>2026-02-02T12:01:41Z</time>
      </trkpt>
      <trkpt lat="45.9745" lon="6.55187">
        <ele>1813.7</ele>
        <time>2026-02-02T12:01:42Z</time>
      </trkpt>
      <trkpt lat="45.9745" lon="6.55187">
        <ele>1813.7</ele>
        <time>2026-02-02T12:01:43Z</time>
      </trkpt>
      <trkpt lat="45.9745" lon="6.55187">
        <ele>1813.7</ele>
        <time>2026-02-02T12:01:44Z</time>
      </trkpt>
      <trkpt lat="45.9745" lon="6.55187">
        <ele>1813.7</ele>
        <time>2026-02-02T12:01:45Z</time>
      </trkpt>
      <trkpt lat="45.9745" lon="6.55187">
        <ele>1813.7</ele>
        <time>2026-02-02T12:01:46Z</time>
      </trkpt>
      <trkpt lat="45.9745" lon="6.55187">
        <ele>1813.7</ele>
        <time>2026-02-02T12:01:47Z</time>
      </trkpt>
      <trkpt lat="45.9745" lon="6.55187">
        <ele>1813.7</ele>
        <time>2026-02-02T12:01:48Z</time>
      </trkpt>
      <trkpt lat="45.9745" lon="6.55188">
        <ele>1813.7</ele>
        <time>2026-02-02T12:01:49Z</time>
      </trkpt>
      <trkpt lat="45.9745" lon="6.55188">
        <ele>1813.7</ele>
        <time>2026-02-02T12:01:50Z</time>
      </trkpt>
      <trkpt lat="45.9745" lon="6.55188">
        <ele>1813.7</ele>
        <time>2026-02-02T12:01:51Z</time>
      </trkpt>
      <trkpt lat="45.9745" lon="6.55188">
        <ele>1813.7</ele>
        <time>2026-02-02T12:01:52Z</time>
      </trkpt>
      <trkpt lat="45.9745" lon="6.55188">
        <ele>1813.7</ele>
        <time>2026-02-02T12:01:53Z</time>
      </trkpt>
      <trkpt lat="45.9745" lon="6.55188">
        <ele>1813.7</ele>
        <time>2026-02-02T12:01:54Z</time>
      </trkpt>
      <trkpt lat="45.9745" lon="6.55188">
        <ele>1813.7</ele>
        <time>2026-02-02T12:01:55Z</time>
      </trkpt>
      <trkpt lat="45.9745" lon="6.55188">
        <ele>1813.7</ele>
        <time>2026-02-02T12:01:56Z</time>
      </trkpt>
      <trkpt lat="45.9745" lon="6.55188">
        <ele>1813.7</ele>
        <time>2026-02-02T12:01:57Z</time>
      </trkpt>
      <trkpt lat="45.9745" lon="6.55188">
        <ele>1813.7</ele>
        <time>2026-02-02T12:01:58Z</time>
      </trkpt>
      <trkpt lat="45.9745" lon="6.55188">
        <ele>1813.7</ele>
        <time>2026-02-02T12:01:59Z</time>
      </trkpt>
      <trkpt lat="45.9745" lon="6.55188">
        <ele>1813.7</ele>
        <time>2026-02-02T12:02:00Z</time>
      </trkpt>
      <trkpt lat="45.9745" lon="6.55188">
        <ele>1813.7</ele>
        <time>2026-02-02T12:02:01Z</time>
      </trkpt>
      <trkpt lat="45.9745" lon="6.55188">
        <ele>1813.7</ele>
        <time>2026-02-02T12:02:02Z</time>
      </trkpt>
      <trkpt lat="45.9745" lon="6.55188">
        <ele>1813.7</ele>
        <time>2026-02-02T12:02:03Z</time>
      </trkpt>
      <trkpt lat="45.9745" lon="6.55188">
        <ele>1813.7</ele>
        <time>2026-02-02T12:02:04Z</time>
      </trkpt>
      <trkpt lat="45.9745" lon="6.55188">
        <ele>1813.7</ele>
        <time>2026-02-02T12:02:05Z</time>
      </trkpt>
      <trkpt lat="45.9745" lon="6.55188">
        <ele>1813.7</ele>
        <time>2026-02-02T12:02:06Z</time>
      </trkpt>
      <trkpt lat="45.9745" lon="6.55188">
        <ele>1813.7</ele>
        <time>2026-02-02T12:02:07Z</time>
      </trkpt>
      <trkpt lat="45.9745" lon="6.55188">
        <ele>1813.7</ele>
        <time>2026-02-02T12:02:08Z</time>
      </trkpt>
      <trkpt lat="45.9745" lon="6.55188">
        <ele>1813.7</ele>
        <time>2026-02-02T12:02:09Z</time>
      </trkpt>
      <trkpt lat="45.9745" lon="6.55188">
        <ele>1813.7</ele>
        <time>2026-02-02T12:02:10Z</time>
      </trkpt>
      <trkpt lat="45.9745" lon="6.55188">
        <ele>1813.7</ele>
        <time>2026-02-02T12:02:11Z</time>
      </trkpt>
      <trkpt lat="45.9745" lon="6.55188">
        <ele>1813.7</ele>
        <time>2026-02-02T12:02:12Z</time>
      </trkpt>
      <trkpt lat="45.9745" lon="6.55188">
        <ele>1813.7</ele>
        <time>2026-02-02T12:02:13Z</time>
      </trkpt>
      <trkpt lat="45.9745" lon="6.55188">
        <ele>1813.7</ele>
        <time>2026-02-02T12:02:14Z</time>
      </trkpt>
      <trkpt lat="45.9745" lon="6.55188">
        <ele>1813.7</ele>
        <time>2026-02-02T12:02:15Z</time>
      </trkpt>
      <trkpt lat="45.9745" lon="6.55188">
        <ele>1813.7</ele>
        <time>2026-02-02T12:02:16Z</time>
      </trkpt>
      <trkpt lat="45.9745" lon="6.55188">
        <ele>1813.7</ele>
        <time>2026-02-02T12:02:17Z</time>
      </trkpt>
      <trkpt lat="45.9745" lon="6.55188">
        <ele>1813.7</ele>
        <time>2026-02-02T12:02:18Z</time>
      </trkpt>
      <trkpt lat="45.9745" lon="6.55188">
        <ele>1813.7</ele>
        <time>2026-02-02T12:02:19Z</time>
      </trkpt>
      <trkpt lat="45.9745" lon="6.55188">
        <ele>1813.7</ele>
        <time>2026-02-02T12:02:20Z</time>
      </trkpt>
      <trkpt lat="45.9745" lon="6.55188">
        <ele>1813.7</ele>
        <time>2026-02-02T12:02:21Z</time>
      </trkpt>
      <trkpt lat="45.9745" lon="6.55188">
        <ele>1813.7</ele>
        <time>2026-02-02T12:02:22Z</time>
      </trkpt>
      <trkpt lat="45.9745" lon="6.55188">
        <ele>1813.7</ele>
        <time>2026-02-02T12:02:23Z</time>
      </trkpt>
      <trkpt lat="45.9745" lon="6.55188">
        <ele>1813.7</ele>
        <time>2026-02-02T12:02:24Z</time>
      </trkpt>
      <trkpt lat="45.9745" lon="6.55188">
        <ele>1813.7</ele>
        <time>2026-02-02T12:02:25Z</time>
      </trkpt>
      <trkpt lat="45.9745" lon="6.55188">
        <ele>1813.7</ele>
        <time>2026-02-02T12:02:26Z</time>
      </trkpt>
      <trkpt lat="45.9745" lon="6.55188">
        <ele>1813.7</ele>
        <time>2026-02-02T12:02:27Z</time>
      </trkpt>
      <trkpt lat="45.9745" lon="6.55188">
        <ele>1813.7</ele>
        <time>2026-02-02T12:02:28Z</time>
      </trkpt>
      <trkpt lat="45.9745" lon="6.55188">
        <ele>1813.7</ele>
        <time>2026-02-02T12:02:29Z</time>
      </trkpt>
      <trkpt lat="45.9745" lon="6.55188">
        <ele>1813.7</ele>
        <time>2026-02-02T12:02:30Z</time>
      </trkpt>
      <trkpt lat="45.9745" lon="6.55188">
        <ele>1813.7</ele>
        <time>2026-02-02T12:02:31Z</time>
      </trkpt>
      <trkpt lat="45.9745" lon="6.55188">
        <ele>1813.7</ele>
        <time>2026-02-02T12:02:32Z</time>
      </trkpt>
      <trkpt lat="45.9745" lon="6.55188">
        <ele>1813.7</ele>
        <time>2026-02-02T12:02:33Z</time>
      </trkpt>
      <trkpt lat="45.9745" lon="6.55188">
        <ele>1813.7</ele>
        <time>2026-02-02T12:02:34Z</time>
      </trkpt>
      <trkpt lat="45.9745" lon="6.55189">
        <ele>1816</ele>
        <time>2026-02-02T12:02:35Z</time>
      </trkpt>
      <trkpt lat="45.9745" lon="6.55189">
        <ele>1816</ele>
        <time>2026-02-02T12:02:36Z</time>
      </trkpt>
      <trkpt lat="45.9745" lon="6.55189">
        <ele>1816</ele>
        <time>2026-02-02T12:02:37Z</time>
      </trkpt>
      <trkpt lat="45.9745" lon="6.55189">
        <ele>1816</ele>
        <time>2026-02-02T12:02:38Z</time>
      </trkpt>
      <trkpt lat="45.97449" lon="6.55189">
        <ele>1816</ele>
        <time>2026-02-02T12:02:39Z</time>
      </trkpt>
      <trkpt lat="45.9745" lon="6.55189">
        <ele>1816</ele>
        <time>2026-02-02T12:02:40Z</time>
      </trkpt>
      <trkpt lat="45.9745" lon="6.55189">
        <ele>1816</ele>
        <time>2026-02-02T12:02:41Z</time>
      </trkpt>
      <trkpt lat="45.9745" lon="6.55189">
        <ele>1816</ele>
        <time>2026-02-02T12:02:42Z</time>
      </trkpt>
      <trkpt lat="45.9745" lon="6.5519">
        <ele>1816</ele>
        <time>2026-02-02T12:02:43Z</time>
      </trkpt>
      <trkpt lat="45.9745" lon="6.5519">
        <ele>1816</ele>
        <time>2026-02-02T12:02:44Z</time>
      </trkpt>
      <trkpt lat="45.9745" lon="6.5519">
        <ele>1816</ele>
        <time>2026-02-02T12:02:45Z</time>
      </trkpt>
      <trkpt lat="45.9745" lon="6.5519">
        <ele>1816</ele>
        <time>2026-02-02T12:02:46Z</time>
      </trkpt>
      <trkpt lat="45.9745" lon="6.55189">
        <ele>1816</ele>
        <time>2026-02-02T12:02:47Z</time>
      </trkpt>
      <trkpt lat="45.9745" lon="6.55189">
        <ele>1816</ele>
        <time>2026-02-02T12:02:48Z</time>
      </trkpt>
      <trkpt lat="45.9745" lon="6.55189">
        <ele>1816</ele>
        <time>2026-02-02T12:02:49Z</time>
      </trkpt>
      <trkpt lat="45.9745" lon="6.5519">
        <ele>1816</ele>
        <time>2026-02-02T12:02:50Z</time>
      </trkpt>
      <trkpt lat="45.9745" lon="6.5519">
        <ele>1816</ele>
        <time>2026-02-02T12:02:51Z</time>
      </trkpt>
      <trkpt lat="45.9745" lon="6.5519">
        <ele>1816</ele>
        <time>2026-02-02T12:02:52Z</time>
      </trkpt>
      <trkpt lat="45.9745" lon="6.5519">
        <ele>1816</ele>
        <time>2026-02-02T12:02:53Z</time>
      </trkpt>
      <trkpt lat="45.9745" lon="6.5519">
        <ele>1816</ele>
        <time>2026-02-02T12:02:54Z</time>
      </trkpt>
      <trkpt lat="45.9745" lon="6.5519">
        <ele>1816</ele>
        <time>2026-02-02T12:02:55Z</time>
      </trkpt>
      <trkpt lat="45.9745" lon="6.5519">
        <ele>1816</ele>
        <time>2026-02-02T12:02:56Z</time>
      </trkpt>
      <trkpt lat="45.9745" lon="6.5519">
        <ele>1816</ele>
        <time>2026-02-02T12:02:57Z</time>
      </trkpt>
      <trkpt lat="45.9745" lon="6.5519">
        <ele>1816</ele>
        <time>2026-02-02T12:02:58Z</time>
      </trkpt>
      <trkpt lat="45.9745" lon="6.5519">
        <ele>1816</ele>
        <time>2026-02-02T12:02:59Z</time>
      </trkpt>
      <trkpt lat="45.9745" lon="6.5519">
        <ele>1816</ele>
        <time>2026-02-02T12:03:00Z</time>
      </trkpt>
      <trkpt lat="45.9745" lon="6.5519">
        <ele>1816</ele>
        <time>2026-02-02T12:03:01Z</time>
      </trkpt>
      <trkpt lat="45.97451" lon="6.5519">
        <ele>1816</ele>
        <time>2026-02-02T12:03:02Z</time>
      </trkpt>
      <trkpt lat="45.97451" lon="6.5519">
        <ele>1815.8</ele>
        <time>2026-02-02T12:03:03Z</time>
      </trkpt>
      <trkpt lat="45.97452" lon="6.5519">
        <ele>1815.8</ele>
        <time>2026-02-02T12:03:04Z</time>
      </trkpt>
      <trkpt lat="45.97452" lon="6.5519">
        <ele>1815.8</ele>
        <time>2026-02-02T12:03:05Z</time>
      </trkpt>
      <trkpt lat="45.97452" lon="6.5519">
        <ele>1815.8</ele>
        <time>2026-02-02T12:03:06Z</time>
      </trkpt>
      <trkpt lat="45.97452" lon="6.5519">
        <ele>1815.8</ele>
        <time>2026-02-02T12:03:07Z</time>
      </trkpt>
      <trkpt lat="45.97452" lon="6.5519">
        <ele>1815.8</ele>
        <time>2026-02-02T12:03:08Z</time>
      </trkpt>
      <trkpt lat="45.97452" lon="6.5519">
        <ele>1815.8</ele>
        <time>2026-02-02T12:03:09Z</time>
      </trkpt>
      <trkpt lat="45.97452" lon="6.5519">
        <ele>1815.8</ele>
        <time>2026-02-02T12:03:10Z</time>
      </trkpt>
      <trkpt lat="45.97452" lon="6.55189">
        <ele>1815.8</ele>
        <time>2026-02-02T12:03:11Z</time>
      </trkpt>
      <trkpt lat="45.97452" lon="6.55189">
        <ele>1815.8</ele>
        <time>2026-02-02T12:03:12Z</time>
      </trkpt>
      <trkpt lat="45.97452" lon="6.55188">
        <ele>1813.5</ele>
        <time>2026-02-02T12:03:13Z</time>
      </trkpt>
      <trkpt lat="45.97452" lon="6.55189">
        <ele>1815.8</ele>
        <time>2026-02-02T12:03:14Z</time>
      </trkpt>
      <trkpt lat="45.97452" lon="6.55189">
        <ele>1815.8</ele>
        <time>2026-02-02T12:03:15Z</time>
      </trkpt>
      <trkpt lat="45.97452" lon="6.55189">
        <ele>1815.8</ele>
        <time>2026-02-02T12:03:16Z</time>
      </trkpt>
      <trkpt lat="45.97452" lon="6.55189">
        <ele>1815.8</ele>
        <time>2026-02-02T12:03:17Z</time>
      </trkpt>
      <trkpt lat="45.97452" lon="6.55189">
        <ele>1815.8</ele>
        <time>2026-02-02T12:03:18Z</time>
      </trkpt>
      <trkpt lat="45.97451" lon="6.55189">
        <ele>1813.5</ele>
        <time>2026-02-02T12:03:19Z</time>
      </trkpt>
      <trkpt lat="45.97451" lon="6.55188">
        <ele>1813.5</ele>
        <time>2026-02-02T12:03:20Z</time>
      </trkpt>
      <trkpt lat="45.97451" lon="6.55187">
        <ele>1813.5</ele>
        <time>2026-02-02T12:03:21Z</time>
      </trkpt>
      <trkpt lat="45.97451" lon="6.55187">
        <ele>1813.7</ele>
        <time>2026-02-02T12:03:22Z</time>
      </trkpt>
      <trkpt lat="45.97451" lon="6.55187">
        <ele>1813.7</ele>
        <time>2026-02-02T12:03:23Z</time>
      </trkpt>
      <trkpt lat="45.97451" lon="6.55187">
        <ele>1813.7</ele>
        <time>2026-02-02T12:03:24Z</time>
      </trkpt>
      <trkpt lat="45.97451" lon="6.55187">
        <ele>1813.7</ele>
        <time>2026-02-02T12:03:25Z</time>
      </trkpt>
      <trkpt lat="45.97451" lon="6.55187">
        <ele>1813.7</ele>
        <time>2026-02-02T12:03:26Z</time>
      </trkpt>
      <trkpt lat="45.97451" lon="6.55187">
        <ele>1813.7</ele>
        <time>2026-02-02T12:03:27Z</time>
      </trkpt>
      <trkpt lat="45.97451" lon="6.55187">
        <ele>1813.7</ele>
        <time>2026-02-02T12:03:28Z</time>
      </trkpt>
      <trkpt lat="45.97451" lon="6.55188">
        <ele>1813.5</ele>
        <time>2026-02-02T12:03:29Z</time>
      </trkpt>
      <trkpt lat="45.97451" lon="6.55188">
        <ele>1813.5</ele>
        <time>2026-02-02T12:03:30Z</time>
      </trkpt>
      <trkpt lat="45.97451" lon="6.55188">
        <ele>1813.5</ele>
        <time>2026-02-02T12:03:31Z</time>
      </trkpt>
      <trkpt lat="45.9745" lon="6.55188">
        <ele>1813.7</ele>
        <time>2026-02-02T12:03:32Z</time>
      </trkpt>
      <trkpt lat="45.9745" lon="6.55188">
        <ele>1813.7</ele>
        <time>2026-02-02T12:03:33Z</time>
      </trkpt>
      <trkpt lat="45.9745" lon="6.55189">
        <ele>1816</ele>
        <time>2026-02-02T12:03:34Z</time>
      </trkpt>
      <trkpt lat="45.9745" lon="6.55189">
        <ele>1816</ele>
        <time>2026-02-02T12:03:35Z</time>
      </trkpt>
      <trkpt lat="45.9745" lon="6.55189">
        <ele>1816</ele>
        <time>2026-02-02T12:03:36Z</time>
      </trkpt>
      <trkpt lat="45.9745" lon="6.55189">
        <ele>1816</ele>
        <time>2026-02-02T12:03:37Z</time>
      </trkpt>
      <trkpt lat="45.9745" lon="6.55189">
        <ele>1816</ele>
        <time>2026-02-02T12:03:38Z</time>
      </trkpt>
      <trkpt lat="45.9745" lon="6.55189">
        <ele>1816</ele>
        <time>2026-02-02T12:03:39Z</time>
      </trkpt>
      <trkpt lat="45.9745" lon="6.55189">
        <ele>1816</ele>
        <time>2026-02-02T12:03:40Z</time>
      </trkpt>
      <trkpt lat="45.9745" lon="6.55189">
        <ele>1816</ele>
        <time>2026-02-02T12:03:41Z</time>
      </trkpt>
      <trkpt lat="45.9745" lon="6.55189">
        <ele>1816</ele>
        <time>2026-02-02T12:03:42Z</time>
      </trkpt>
      <trkpt lat="45.97451" lon="6.55189">
        <ele>1816</ele>
        <time>2026-02-02T12:03:43Z</time>
      </trkpt>
      <trkpt lat="45.97451" lon="6.55189">
        <ele>1813.7</ele>
        <time>2026-02-02T12:03:44Z</time>
      </trkpt>
      <trkpt lat="45.97451" lon="6.55189">
        <ele>1813.7</ele>
        <time>2026-02-02T12:03:45Z</time>
      </trkpt>
      <trkpt lat="45.97451" lon="6.55189">
        <ele>1813.7</ele>
        <time>2026-02-02T12:03:46Z</time>
      </trkpt>
      <trkpt lat="45.97451" lon="6.55189">
        <ele>1813.7</ele>
        <time>2026-02-02T12:03:47Z</time>
      </trkpt>
      <trkpt lat="45.97451" lon="6.55189">
        <ele>1813.7</ele>
        <time>2026-02-02T12:03:48Z</time>
      </trkpt>
      <trkpt lat="45.97451" lon="6.55189">
        <ele>1813.7</ele>
        <time>2026-02-02T12:03:49Z</time>
      </trkpt>
      <trkpt lat="45.97451" lon="6.55189">
        <ele>1813.7</ele>
        <time>2026-02-02T12:03:50Z</time>
      </trkpt>
      <trkpt lat="45.97451" lon="6.5519">
        <ele>1816</ele>
        <time>2026-02-02T12:03:51Z</time>
      </trkpt>
      <trkpt lat="45.97451" lon="6.5519">
        <ele>1815.8</ele>
        <time>2026-02-02T12:03:52Z</time>
      </trkpt>
      <trkpt lat="45.97451" lon="6.5519">
        <ele>1815.8</ele>
        <time>2026-02-02T12:03:53Z</time>
      </trkpt>
      <trkpt lat="45.97451" lon="6.55189">
        <ele>1815.8</ele>
        <time>2026-02-02T12:03:54Z</time>
      </trkpt>
      <trkpt lat="45.97451" lon="6.55189">
        <ele>1815.8</ele>
        <time>2026-02-02T12:03:55Z</time>
      </trkpt>
      <trkpt lat="45.97452" lon="6.55189">
        <ele>1815.8</ele>
        <time>2026-02-02T12:03:56Z</time>
      </trkpt>
      <trkpt lat="45.97452" lon="6.55189">
        <ele>1815.8</ele>
        <time>2026-02-02T12:03:57Z</time>
      </trkpt>
      <trkpt lat="45.97452" lon="6.55189">
        <ele>1815.8</ele>
        <time>2026-02-02T12:03:58Z</time>
      </trkpt>
      <trkpt lat="45.97452" lon="6.55189">
        <ele>1815.8</ele>
        <time>2026-02-02T12:03:59Z</time>
      </trkpt>
      <trkpt lat="45.97452" lon="6.55189">
        <ele>1815.8</ele>
        <time>2026-02-02T12:04:00Z</time>
      </trkpt>
      <trkpt lat="45.97452" lon="6.55189">
        <ele>1815.8</ele>
        <time>2026-02-02T12:04:01Z</time>
      </trkpt>
      <trkpt lat="45.97451" lon="6.55188">
        <ele>1813.5</ele>
        <time>2026-02-02T12:04:02Z</time>
      </trkpt>
      <trkpt lat="45.97451" lon="6.55188">
        <ele>1813.5</ele>
        <time>2026-02-02T12:04:03Z</time>
      </trkpt>
      <trkpt lat="45.97451" lon="6.55188">
        <ele>1813.5</ele>
        <time>2026-02-02T12:04:04Z</time>
      </trkpt>
      <trkpt lat="45.97451" lon="6.55188">
        <ele>1813.5</ele>
        <time>2026-02-02T12:04:05Z</time>
      </trkpt>
      <trkpt lat="45.97451" lon="6.55188">
        <ele>1813.5</ele>
        <time>2026-02-02T12:04:06Z</time>
      </trkpt>
      <trkpt lat="45.97451" lon="6.55188">
        <ele>1813.5</ele>
        <time>2026-02-02T12:04:07Z</time>
      </trkpt>
      <trkpt lat="45.97451" lon="6.55188">
        <ele>1813.5</ele>
        <time>2026-02-02T12:04:08Z</time>
      </trkpt>
      <trkpt lat="45.97451" lon="6.55189">
        <ele>1815.8</ele>
        <time>2026-02-02T12:04:09Z</time>
      </trkpt>
      <trkpt lat="45.97451" lon="6.55188">
        <ele>1813.5</ele>
        <time>2026-02-02T12:04:10Z</time>
      </trkpt>
      <trkpt lat="45.97451" lon="6.55188">
        <ele>1813.5</ele>
        <time>2026-02-02T12:04:11Z</time>
      </trkpt>
      <trkpt lat="45.97451" lon="6.55188">
        <ele>1813.5</ele>
        <time>2026-02-02T12:04:12Z</time>
      </trkpt>
      <trkpt lat="45.97451" lon="6.55189">
        <ele>1815.8</ele>
        <time>2026-02-02T12:04:13Z</time>
      </trkpt>
      <trkpt lat="45.9745" lon="6.55189">
        <ele>1816</ele>
        <time>2026-02-02T12:04:14Z</time>
      </trkpt>
      <trkpt lat="45.9745" lon="6.55189">
        <ele>1816</ele>
        <time>2026-02-02T12:04:15Z</time>
      </trkpt>
      <trkpt lat="45.9745" lon="6.55189">
        <ele>1816</ele>
        <time>2026-02-02T12:04:16Z</time>
      </trkpt>
      <trkpt lat="45.9745" lon="6.55189">
        <ele>1816</ele>
        <time>2026-02-02T12:04:17Z</time>
      </trkpt>
      <trkpt lat="45.9745" lon="6.55189">
        <ele>1816</ele>
        <time>2026-02-02T12:04:18Z</time>
      </trkpt>
      <trkpt lat="45.9745" lon="6.55189">
        <ele>1816</ele>
        <time>2026-02-02T12:04:19Z</time>
      </trkpt>
      <trkpt lat="45.9745" lon="6.55189">
        <ele>1816</ele>
        <time>2026-02-02T12:04:20Z</time>
      </trkpt>
      <trkpt lat="45.9745" lon="6.55189">
        <ele>1816</ele>
        <time>2026-02-02T12:04:21Z</time>
      </trkpt>
      <trkpt lat="45.9745" lon="6.55189">
        <ele>1816</ele>
        <time>2026-02-02T12:04:22Z</time>
      </trkpt>
      <trkpt lat="45.9745" lon="6.55189">
        <ele>1816</ele>
        <time>2026-02-02T12:04:23Z</time>
      </trkpt>
      <trkpt lat="45.97451" lon="6.55188">
        <ele>1813.7</ele>
        <time>2026-02-02T12:04:24Z</time>
      </trkpt>
      <trkpt lat="45.9745" lon="6.55189">
        <ele>1816</ele>
        <time>2026-02-02T12:04:25Z</time>
      </trkpt>
      <trkpt lat="45.9745" lon="6.55189">
        <ele>1816</ele>
        <time>2026-02-02T12:04:26Z</time>
      </trkpt>
      <trkpt lat="45.9745" lon="6.55189">
        <ele>1816</ele>
        <time>2026-02-02T12:04:27Z</time>
      </trkpt>
      <trkpt lat="45.9745" lon="6.55189">
        <ele>1816</ele>
        <time>2026-02-02T12:04:28Z</time>
      </trkpt>
      <trkpt lat="45.9745" lon="6.55189">
        <ele>1816</ele>
        <time>2026-02-02T12:04:29Z</time>
      </trkpt>
      <trkpt lat="45.9745" lon="6.55189">
        <ele>1816</ele>
        <time>2026-02-02T12:04:30Z</time>
      </trkpt>
      <trkpt lat="45.9745" lon="6.55189">
        <ele>1816</ele>
        <time>2026-02-02T12:04:31Z</time>
      </trkpt>
      <trkpt lat="45.9745" lon="6.55189">
        <ele>1816</ele>
        <time>2026-02-02T12:04:32Z</time>
      </trkpt>
      <trkpt lat="45.9745" lon="6.55189">
        <ele>1816</ele>
        <time>2026-02-02T12:04:33Z</time>
      </trkpt>
      <trkpt lat="45.9745" lon="6.55189">
        <ele>1816</ele>
        <time>2026-02-02T12:04:34Z</time>
      </trkpt>
      <trkpt lat="45.9745" lon="6.55189">
        <ele>1816</ele>
        <time>2026-02-02T12:04:35Z</time>
      </trkpt>
      <trkpt lat="45.9745" lon="6.55189">
        <ele>1816</ele>
        <time>2026-02-02T12:04:36Z</time>
      </trkpt>
      <trkpt lat="45.9745" lon="6.55189">
        <ele>1816</ele>
        <time>2026-02-02T12:04:37Z</time>
      </trkpt>
      <trkpt lat="45.9745" lon="6.55189">
        <ele>1816</ele>
        <time>2026-02-02T12:04:38Z</time>
      </trkpt>
      <trkpt lat="45.9745" lon="6.55189">
        <ele>1816</ele>
        <time>2026-02-02T12:04:39Z</time>
      </trkpt>
      <trkpt lat="45.9745" lon="6.55189">
        <ele>1816</ele>
        <time>2026-02-02T12:04:40Z</time>
      </trkpt>
      <trkpt lat="45.9745" lon="6.55189">
        <ele>1816</ele>
        <time>2026-02-02T12:04:41Z</time>
      </trkpt>
      <trkpt lat="45.9745" lon="6.55189">
        <ele>1816</ele>
        <time>2026-02-02T12:04:42Z</time>
      </trkpt>
      <trkpt lat="45.9745" lon="6.55189">
        <ele>1816</ele>
        <time>2026-02-02T12:04:43Z</time>
      </trkpt>
      <trkpt lat="45.9745" lon="6.55189">
        <ele>1816</ele>
        <time>2026-02-02T12:04:44Z</time>
      </trkpt>
      <trkpt lat="45.9745" lon="6.55189">
        <ele>1816</ele>
        <time>2026-02-02T12:04:45Z</time>
      </trkpt>
      <trkpt lat="45.9745" lon="6.55189">
        <ele>1816</ele>
        <time>2026-02-02T12:04:46Z</time>
      </trkpt>
      <trkpt lat="45.9745" lon="6.55189">
        <ele>1816</ele>
        <time>2026-02-02T12:04:47Z</time>
      </trkpt>
      <trkpt lat="45.97449" lon="6.55189">
        <ele>1816</ele>
        <time>2026-02-02T12:04:48Z</time>
      </trkpt>
      <trkpt lat="45.97449" lon="6.55189">
        <ele>1816</ele>
        <time>2026-02-02T12:04:49Z</time>
      </trkpt>
      <trkpt lat="45.97449" lon="6.55189">
        <ele>1816</ele>
        <time>2026-02-02T12:04:50Z</time>
      </trkpt>
      <trkpt lat="45.97449" lon="6.55189">
        <ele>1816</ele>
        <time>2026-02-02T12:04:51Z</time>
      </trkpt>
      <trkpt lat="45.97449" lon="6.55189">
        <ele>1816</ele>
        <time>2026-02-02T12:04:52Z</time>
      </trkpt>
      <trkpt lat="45.97449" lon="6.55189">
        <ele>1816</ele>
        <time>2026-02-02T12:04:53Z</time>
      </trkpt>
      <trkpt lat="45.97449" lon="6.55189">
        <ele>1816</ele>
        <time>2026-02-02T12:04:54Z</time>
      </trkpt>
      <trkpt lat="45.97449" lon="6.55189">
        <ele>1816</ele>
        <time>2026-02-02T12:04:55Z</time>
      </trkpt>
      <trkpt lat="45.97449" lon="6.55189">
        <ele>1816</ele>
        <time>2026-02-02T12:04:56Z</time>
      </trkpt>
      <trkpt lat="45.97449" lon="6.55189">
        <ele>1816</ele>
        <time>2026-02-02T12:04:57Z</time>
      </trkpt>
      <trkpt lat="45.97449" lon="6.55189">
        <ele>1816</ele>
        <time>2026-02-02T12:04:58Z</time>
      </trkpt>
      <trkpt lat="45.9745" lon="6.5519">
        <ele>1816</ele>
        <time>2026-02-02T12:04:59Z</time>
      </trkpt>
      <trkpt lat="45.97451" lon="6.55189">
        <ele>1815.8</ele>
        <time>2026-02-02T12:05:00Z</time>
      </trkpt>
      <trkpt lat="45.97451" lon="6.55189">
        <ele>1815.8</ele>
        <time>2026-02-02T12:05:01Z</time>
      </trkpt>
      <trkpt lat="45.97452" lon="6.55188">
        <ele>1813.5</ele>
        <time>2026-02-02T12:05:02Z</time>
      </trkpt>
      <trkpt lat="45.97451" lon="6.55187">
        <ele>1813.5</ele>
        <time>2026-02-02T12:05:03Z</time>
      </trkpt>
      <trkpt lat="45.97451" lon="6.55187">
        <ele>1813.5</ele>
        <time>2026-02-02T12:05:04Z</time>
      </trkpt>
      <trkpt lat="45.97451" lon="6.55187">
        <ele>1813.5</ele>
        <time>2026-02-02T12:05:05Z</time>
      </trkpt>
      <trkpt lat="45.97451" lon="6.55187">
        <ele>1813.5</ele>
        <time>2026-02-02T12:05:06Z</time>
      </trkpt>
      <trkpt lat="45.97451" lon="6.55187">
        <ele>1813.5</ele>
        <time>2026-02-02T12:05:07Z</time>
      </trkpt>
      <trkpt lat="45.97451" lon="6.55187">
        <ele>1813.5</ele>
        <time>2026-02-02T12:05:08Z</time>
      </trkpt>
      <trkpt lat="45.97451" lon="6.55187">
        <ele>1813.5</ele>
        <time>2026-02-02T12:05:09Z</time>
      </trkpt>
      <trkpt lat="45.97451" lon="6.55187">
        <ele>1813.5</ele>
        <time>2026-02-02T12:05:10Z</time>
      </trkpt>
      <trkpt lat="45.97451" lon="6.55187">
        <ele>1813.5</ele>
        <time>2026-02-02T12:05:11Z</time>
      </trkpt>
      <trkpt lat="45.97451" lon="6.55187">
        <ele>1813.5</ele>
        <time>2026-02-02T12:05:12Z</time>
      </trkpt>
      <trkpt lat="45.97451" lon="6.55187">
        <ele>1813.5</ele>
        <time>2026-02-02T12:05:13Z</time>
      </trkpt>
      <trkpt lat="45.97451" lon="6.55187">
        <ele>1813.5</ele>
        <time>2026-02-02T12:05:14Z</time>
      </trkpt>
      <trkpt lat="45.97451" lon="6.55187">
        <ele>1813.5</ele>
        <time>2026-02-02T12:05:15Z</time>
      </trkpt>
      <trkpt lat="45.97451" lon="6.55187">
        <ele>1813.5</ele>
        <time>2026-02-02T12:05:16Z</time>
      </trkpt>
      <trkpt lat="45.97451" lon="6.55187">
        <ele>1813.5</ele>
        <time>2026-02-02T12:05:17Z</time>
      </trkpt>
      <trkpt lat="45.97451" lon="6.55187">
        <ele>1813.5</ele>
        <time>2026-02-02T12:05:18Z</time>
      </trkpt>
      <trkpt lat="45.97451" lon="6.55187">
        <ele>1813.5</ele>
        <time>2026-02-02T12:05:19Z</time>
      </trkpt>
      <trkpt lat="45.97451" lon="6.55187">
        <ele>1813.5</ele>
        <time>2026-02-02T12:05:20Z</time>
      </trkpt>
      <trkpt lat="45.97451" lon="6.55187">
        <ele>1813.5</ele>
        <time>2026-02-02T12:05:21Z</time>
      </trkpt>
      <trkpt lat="45.97451" lon="6.55187">
        <ele>1813.5</ele>
        <time>2026-02-02T12:05:22Z</time>
      </trkpt>
      <trkpt lat="45.97451" lon="6.55188">
        <ele>1813.7</ele>
        <time>2026-02-02T12:05:23Z</time>
      </trkpt>
      <trkpt lat="45.97451" lon="6.55188">
        <ele>1813.7</ele>
        <time>2026-02-02T12:05:24Z</time>
      </trkpt>
      <trkpt lat="45.97451" lon="6.55188">
        <ele>1813.7</ele>
        <time>2026-02-02T12:05:25Z</time>
      </trkpt>
      <trkpt lat="45.97451" lon="6.55188">
        <ele>1813.7</ele>
        <time>2026-02-02T12:05:26Z</time>
      </trkpt>
      <trkpt lat="45.97451" lon="6.55188">
        <ele>1813.7</ele>
        <time>2026-02-02T12:05:27Z</time>
      </trkpt>
      <trkpt lat="45.97451" lon="6.55188">
        <ele>1813.7</ele>
        <time>2026-02-02T12:05:28Z</time>
      </trkpt>
      <trkpt lat="45.97451" lon="6.55188">
        <ele>1813.5</ele>
        <time>2026-02-02T12:05:29Z</time>
      </trkpt>
      <trkpt lat="45.97451" lon="6.55188">
        <ele>1813.5</ele>
        <time>2026-02-02T12:05:30Z</time>
      </trkpt>
      <trkpt lat="45.97452" lon="6.55189">
        <ele>1815.8</ele>
        <time>2026-02-02T12:05:31Z</time>
      </trkpt>
      <trkpt lat="45.97451" lon="6.55189">
        <ele>1815.8</ele>
        <time>2026-02-02T12:05:32Z</time>
      </trkpt>
      <trkpt lat="45.97451" lon="6.55189">
        <ele>1815.8</ele>
        <time>2026-02-02T12:05:33Z</time>
      </trkpt>
      <trkpt lat="45.97451" lon="6.55189">
        <ele>1815.8</ele>
        <time>2026-02-02T12:05:34Z</time>
      </trkpt>
      <trkpt lat="45.97451" lon="6.55189">
        <ele>1815.8</ele>
        <time>2026-02-02T12:05:35Z</time>
      </trkpt>
      <trkpt lat="45.97451" lon="6.55189">
        <ele>1815.8</ele>
        <time>2026-02-02T12:05:36Z</time>
      </trkpt>
      <trkpt lat="45.97451" lon="6.55189">
        <ele>1815.8</ele>
        <time>2026-02-02T12:05:37Z</time>
      </trkpt>
      <trkpt lat="45.97451" lon="6.55189">
        <ele>1815.8</ele>
        <time>2026-02-02T12:05:38Z</time>
      </trkpt>
      <trkpt lat="45.97451" lon="6.55189">
        <ele>1815.8</ele>
        <time>2026-02-02T12:05:39Z</time>
      </trkpt>
      <trkpt lat="45.97451" lon="6.55189">
        <ele>1815.8</ele>
        <time>2026-02-02T12:05:40Z</time>
      </trkpt>
      <trkpt lat="45.97451" lon="6.55189">
        <ele>1815.8</ele>
        <time>2026-02-02T12:05:41Z</time>
      </trkpt>
      <trkpt lat="45.97451" lon="6.55189">
        <ele>1815.8</ele>
        <time>2026-02-02T12:05:42Z</time>
      </trkpt>
      <trkpt lat="45.97451" lon="6.55189">
        <ele>1815.8</ele>
        <time>2026-02-02T12:05:43Z</time>
      </trkpt>
      <trkpt lat="45.97451" lon="6.55189">
        <ele>1815.8</ele>
        <time>2026-02-02T12:05:44Z</time>
      </trkpt>
      <trkpt lat="45.97451" lon="6.55189">
        <ele>1815.8</ele>
        <time>2026-02-02T12:05:45Z</time>
      </trkpt>
      <trkpt lat="45.97451" lon="6.55189">
        <ele>1815.8</ele>
        <time>2026-02-02T12:05:46Z</time>
      </trkpt>
      <trkpt lat="45.97451" lon="6.55189">
        <ele>1815.8</ele>
        <time>2026-02-02T12:05:47Z</time>
      </trkpt>
      <trkpt lat="45.97451" lon="6.55189">
        <ele>1815.8</ele>
        <time>2026-02-02T12:05:48Z</time>
      </trkpt>
      <trkpt lat="45.97451" lon="6.55189">
        <ele>1815.8</ele>
        <time>2026-02-02T12:05:49Z</time>
      </trkpt>
      <trkpt lat="45.97451" lon="6.55189">
        <ele>1815.8</ele>
        <time>2026-02-02T12:05:50Z</time>
      </trkpt>
      <trkpt lat="45.97451" lon="6.55189">
        <ele>1815.8</ele>
        <time>2026-02-02T12:05:51Z</time>
      </trkpt>
      <trkpt lat="45.97451" lon="6.55189">
        <ele>1815.8</ele>
        <time>2026-02-02T12:05:52Z</time>
      </trkpt>
      <trkpt lat="45.97451" lon="6.55189">
        <ele>1815.8</ele>
        <time>2026-02-02T12:05:53Z</time>
      </trkpt>
      <trkpt lat="45.97451" lon="6.55189">
        <ele>1815.8</ele>
        <time>2026-02-02T12:05:54Z</time>
      </trkpt>
      <trkpt lat="45.97451" lon="6.55189">
        <ele>1815.8</ele>
        <time>2026-02-02T12:05:55Z</time>
      </trkpt>
      <trkpt lat="45.97451" lon="6.55189">
        <ele>1815.8</ele>
        <time>2026-02-02T12:05:56Z</time>
      </trkpt>
      <trkpt lat="45.97451" lon="6.55189">
        <ele>1815.8</ele>
        <time>2026-02-02T12:05:57Z</time>
      </trkpt>
      <trkpt lat="45.97451" lon="6.55189">
        <ele>1815.8</ele>
        <time>2026-02-02T12:05:58Z</time>
      </trkpt>
      <trkpt lat="45.97451" lon="6.55189">
        <ele>1815.8</ele>
        <time>2026-02-02T12:05:59Z</time>
      </trkpt>
      <trkpt lat="45.97451" lon="6.55189">
        <ele>1815.8</ele>
        <time>2026-02-02T12:06:00Z</time>
      </trkpt>
      <trkpt lat="45.97451" lon="6.55189">
        <ele>1815.8</ele>
        <time>2026-02-02T12:06:01Z</time>
      </trkpt>
      <trkpt lat="45.97451" lon="6.55189">
        <ele>1815.8</ele>
        <time>2026-02-02T12:06:02Z</time>
      </trkpt>
      <trkpt lat="45.97451" lon="6.55189">
        <ele>1815.8</ele>
        <time>2026-02-02T12:06:03Z</time>
      </trkpt>
      <trkpt lat="45.97451" lon="6.55189">
        <ele>1815.8</ele>
        <time>2026-02-02T12:06:04Z</time>
      </trkpt>
      <trkpt lat="45.97451" lon="6.55189">
        <ele>1815.8</ele>
        <time>2026-02-02T12:06:05Z</time>
      </trkpt>
      <trkpt lat="45.97451" lon="6.55189">
        <ele>1815.8</ele>
        <time>2026-02-02T12:06:06Z</time>
      </trkpt>
      <trkpt lat="45.97451" lon="6.55189">
        <ele>1816</ele>
        <time>2026-02-02T12:06:07Z</time>
      </trkpt>
      <trkpt lat="45.97451" lon="6.55189">
        <ele>1816</ele>
        <time>2026-02-02T12:06:08Z</time>
      </trkpt>
      <trkpt lat="45.97451" lon="6.55189">
        <ele>1816</ele>
        <time>2026-02-02T12:06:09Z</time>
      </trkpt>
      <trkpt lat="45.97451" lon="6.55189">
        <ele>1816</ele>
        <time>2026-02-02T12:06:10Z</time>
      </trkpt>
      <trkpt lat="45.97451" lon="6.55189">
        <ele>1816</ele>
        <time>2026-02-02T12:06:11Z</time>
      </trkpt>
      <trkpt lat="45.97451" lon="6.55189">
        <ele>1816</ele>
        <time>2026-02-02T12:06:12Z</time>
      </trkpt>
      <trkpt lat="45.97451" lon="6.55189">
        <ele>1816</ele>
        <time>2026-02-02T12:06:13Z</time>
      </trkpt>
      <trkpt lat="45.97451" lon="6.55188">
        <ele>1813.7</ele>
        <time>2026-02-02T12:06:14Z</time>
      </trkpt>
      <trkpt lat="45.97451" lon="6.55188">
        <ele>1813.7</ele>
        <time>2026-02-02T12:06:15Z</time>
      </trkpt>
      <trkpt lat="45.9745" lon="6.55188">
        <ele>1813.7</ele>
        <time>2026-02-02T12:06:16Z</time>
      </trkpt>
      <trkpt lat="45.9745" lon="6.55188">
        <ele>1813.7</ele>
        <time>2026-02-02T12:06:17Z</time>
      </trkpt>
      <trkpt lat="45.9745" lon="6.55188">
        <ele>1813.7</ele>
        <time>2026-02-02T12:06:18Z</time>
      </trkpt>
      <trkpt lat="45.9745" lon="6.55188">
        <ele>1813.7</ele>
        <time>2026-02-02T12:06:19Z</time>
      </trkpt>
      <trkpt lat="45.9745" lon="6.55188">
        <ele>1813.7</ele>
        <time>2026-02-02T12:06:20Z</time>
      </trkpt>
      <trkpt lat="45.9745" lon="6.55188">
        <ele>1813.7</ele>
        <time>2026-02-02T12:06:21Z</time>
      </trkpt>
      <trkpt lat="45.9745" lon="6.55188">
        <ele>1813.7</ele>
        <time>2026-02-02T12:06:22Z</time>
      </trkpt>
      <trkpt lat="45.9745" lon="6.55188">
        <ele>1813.7</ele>
        <time>2026-02-02T12:06:23Z</time>
      </trkpt>
      <trkpt lat="45.9745" lon="6.55188">
        <ele>1813.7</ele>
        <time>2026-02-02T12:06:24Z</time>
      </trkpt>
      <trkpt lat="45.9745" lon="6.55188">
        <ele>1813.7</ele>
        <time>2026-02-02T12:06:25Z</time>
      </trkpt>
      <trkpt lat="45.9745" lon="6.55188">
        <ele>1813.7</ele>
        <time>2026-02-02T12:06:26Z</time>
      </trkpt>
      <trkpt lat="45.9745" lon="6.55188">
        <ele>1813.7</ele>
        <time>2026-02-02T12:06:27Z</time>
      </trkpt>
      <trkpt lat="45.9745" lon="6.55188">
        <ele>1813.7</ele>
        <time>2026-02-02T12:06:28Z</time>
      </trkpt>
      <trkpt lat="45.9745" lon="6.55188">
        <ele>1813.7</ele>
        <time>2026-02-02T12:06:29Z</time>
      </trkpt>
      <trkpt lat="45.9745" lon="6.55188">
        <ele>1813.7</ele>
        <time>2026-02-02T12:06:30Z</time>
      </trkpt>
      <trkpt lat="45.9745" lon="6.55188">
        <ele>1813.7</ele>
        <time>2026-02-02T12:06:31Z</time>
      </trkpt>
      <trkpt lat="45.9745" lon="6.55188">
        <ele>1813.7</ele>
        <time>2026-02-02T12:06:32Z</time>
      </trkpt>
      <trkpt lat="45.9745" lon="6.55188">
        <ele>1813.7</ele>
        <time>2026-02-02T12:06:33Z</time>
      </trkpt>
      <trkpt lat="45.9745" lon="6.55189">
        <ele>1816</ele>
        <time>2026-02-02T12:06:34Z</time>
      </trkpt>
      <trkpt lat="45.9745" lon="6.5519">
        <ele>1816</ele>
        <time>2026-02-02T12:06:35Z</time>
      </trkpt>
      <trkpt lat="45.97451" lon="6.5519">
        <ele>1816</ele>
        <time>2026-02-02T12:06:36Z</time>
      </trkpt>
      <trkpt lat="45.97451" lon="6.5519">
        <ele>1815.8</ele>
        <time>2026-02-02T12:06:37Z</time>
      </trkpt>
      <trkpt lat="45.97451" lon="6.55189">
        <ele>1815.8</ele>
        <time>2026-02-02T12:06:38Z</time>
      </trkpt>
      <trkpt lat="45.97451" lon="6.55189">
        <ele>1815.8</ele>
        <time>2026-02-02T12:06:39Z</time>
      </trkpt>
      <trkpt lat="45.97451" lon="6.5519">
        <ele>1816</ele>
        <time>2026-02-02T12:06:40Z</time>
      </trkpt>
      <trkpt lat="45.97451" lon="6.5519">
        <ele>1816</ele>
        <time>2026-02-02T12:06:41Z</time>
      </trkpt>
      <trkpt lat="45.97451" lon="6.55191">
        <ele>1815.8</ele>
        <time>2026-02-02T12:06:42Z</time>
      </trkpt>
      <trkpt lat="45.97452" lon="6.55192">
        <ele>1815.8</ele>
        <time>2026-02-02T12:06:43Z</time>
      </trkpt>
      <trkpt lat="45.97452" lon="6.55192">
        <ele>1815.8</ele>
        <time>2026-02-02T12:06:44Z</time>
      </trkpt>
      <trkpt lat="45.97453" lon="6.55192">
        <ele>1815.8</ele>
        <time>2026-02-02T12:06:45Z</time>
      </trkpt>
      <trkpt lat="45.97453" lon="6.55192">
        <ele>1815.8</ele>
        <time>2026-02-02T12:06:46Z</time>
      </trkpt>
      <trkpt lat="45.97453" lon="6.55193">
        <ele>1815.8</ele>
        <time>2026-02-02T12:06:47Z</time>
      </trkpt>
      <trkpt lat="45.97454" lon="6.55193">
        <ele>1818.1</ele>
        <time>2026-02-02T12:06:48Z</time>
      </trkpt>
      <trkpt lat="45.97455" lon="6.55194">
        <ele>1818.1</ele>
        <time>2026-02-02T12:06:49Z</time>
      </trkpt>
      <trkpt lat="45.97455" lon="6.55194">
        <ele>1818.1</ele>
        <time>2026-02-02T12:06:50Z</time>
      </trkpt>
      <trkpt lat="45.97456" lon="6.55195">
        <ele>1818.1</ele>
        <time>2026-02-02T12:06:51Z</time>
      </trkpt>
      <trkpt lat="45.97457" lon="6.55196">
        <ele>1818</ele>
        <time>2026-02-02T12:06:52Z</time>
      </trkpt>
      <trkpt lat="45.97458" lon="6.55196">
        <ele>1818</ele>
        <time>2026-02-02T12:06:53Z</time>
      </trkpt>
      <trkpt lat="45.97459" lon="6.55197">
        <ele>1818</ele>
        <time>2026-02-02T12:06:54Z</time>
      </trkpt>
      <trkpt lat="45.97459" lon="6.55197">
        <ele>1818</ele>
        <time>2026-02-02T12:06:55Z</time>
      </trkpt>
      <trkpt lat="45.9746" lon="6.55197">
        <ele>1818</ele>
        <time>2026-02-02T12:06:56Z</time>
      </trkpt>
      <trkpt lat="45.9746" lon="6.55198">
        <ele>1820.6</ele>
        <time>2026-02-02T12:06:57Z</time>
      </trkpt>
      <trkpt lat="45.9746" lon="6.55198">
        <ele>1820.6</ele>
        <time>2026-02-02T12:06:58Z</time>
      </trkpt>
      <trkpt lat="45.97461" lon="6.55198">
        <ele>1820.6</ele>
        <time>2026-02-02T12:06:59Z</time>
      </trkpt>
      <trkpt lat="45.97462" lon="6.55198">
        <ele>1820.6</ele>
        <time>2026-02-02T12:07:00Z</time>
      </trkpt>
      <trkpt lat="45.97462" lon="6.55198">
        <ele>1820.6</ele>
        <time>2026-02-02T12:07:01Z</time>
      </trkpt>
      <trkpt lat="45.97462" lon="6.55198">
        <ele>1820.6</ele>
        <time>2026-02-02T12:07:02Z</time>
      </trkpt>
      <trkpt lat="45.97463" lon="6.55198">
        <ele>1820.6</ele>
        <time>2026-02-02T12:07:03Z</time>
      </trkpt>
      <trkpt lat="45.97464" lon="6.55198">
        <ele>1820.6</ele>
        <time>2026-02-02T12:07:04Z</time>
      </trkpt>
      <trkpt lat="45.97465" lon="6.55198">
        <ele>1820.6</ele>
        <time>2026-02-02T12:07:05Z</time>
      </trkpt>
      <trkpt lat="45.97465" lon="6.55198">
        <ele>1820.6</ele>
        <time>2026-02-02T12:07:06Z</time>
      </trkpt>
      <trkpt lat="45.97465" lon="6.55198">
        <ele>1820.6</ele>
        <time>2026-02-02T12:07:07Z</time>
      </trkpt>
      <trkpt lat="45.97466" lon="6.55199">
        <ele>1820.6</ele>
        <time>2026-02-02T12:07:08Z</time>
      </trkpt>
      <trkpt lat="45.97466" lon="6.55199">
        <ele>1820.6</ele>
        <time>2026-02-02T12:07:09Z</time>
      </trkpt>
      <trkpt lat="45.97467" lon="6.55199">
        <ele>1820.6</ele>
        <time>2026-02-02T12:07:10Z</time>
      </trkpt>
      <trkpt lat="45.97467" lon="6.55199">
        <ele>1820.6</ele>
        <time>2026-02-02T12:07:11Z</time>
      </trkpt>
      <trkpt lat="45.97468" lon="6.55199">
        <ele>1820.6</ele>
        <time>2026-02-02T12:07:12Z</time>
      </trkpt>
      <trkpt lat="45.97468" lon="6.55199">
        <ele>1820.6</ele>
        <time>2026-02-02T12:07:13Z</time>
      </trkpt>
      <trkpt lat="45.97469" lon="6.55199">
        <ele>1820.8</ele>
        <time>2026-02-02T12:07:14Z</time>
      </trkpt>
      <trkpt lat="45.9747" lon="6.55199">
        <ele>1820.8</ele>
        <time>2026-02-02T12:07:15Z</time>
      </trkpt>
      <trkpt lat="45.97471" lon="6.55199">
        <ele>1820.8</ele>
        <time>2026-02-02T12:07:16Z</time>
      </trkpt>
      <trkpt lat="45.97472" lon="6.55199">
        <ele>1820.9</ele>
        <time>2026-02-02T12:07:17Z</time>
      </trkpt>
      <trkpt lat="45.97473" lon="6.552">
        <ele>1820.9</ele>
        <time>2026-02-02T12:07:18Z</time>
      </trkpt>
      <trkpt lat="45.97474" lon="6.552">
        <ele>1820.9</ele>
        <time>2026-02-02T12:07:19Z</time>
      </trkpt>
      <trkpt lat="45.97474" lon="6.552">
        <ele>1820.9</ele>
        <time>2026-02-02T12:07:20Z</time>
      </trkpt>
      <trkpt lat="45.97474" lon="6.552">
        <ele>1820.9</ele>
        <time>2026-02-02T12:07:21Z</time>
      </trkpt>
      <trkpt lat="45.97474" lon="6.552">
        <ele>1820.9</ele>
        <time>2026-02-02T12:07:22Z</time>
      </trkpt>
      <trkpt lat="45.97475" lon="6.552">
        <ele>1821.1</ele>
        <time>2026-02-02T12:07:23Z</time>
      </trkpt>
      <trkpt lat="45.97475" lon="6.552">
        <ele>1821.1</ele>
        <time>2026-02-02T12:07:24Z</time>
      </trkpt>
      <trkpt lat="45.97475" lon="6.55201">
        <ele>1821.1</ele>
        <time>2026-02-02T12:07:25Z</time>
      </trkpt>
      <trkpt lat="45.97475" lon="6.552">
        <ele>1821.1</ele>
        <time>2026-02-02T12:07:26Z</time>
      </trkpt>
      <trkpt lat="45.97475" lon="6.552">
        <ele>1821.1</ele>
        <time>2026-02-02T12:07:27Z</time>
      </trkpt>
      <trkpt lat="45.97475" lon="6.552">
        <ele>1821.1</ele>
        <time>2026-02-02T12:07:28Z</time>
      </trkpt>
      <trkpt lat="45.97475" lon="6.552">
        <ele>1821.1</ele>
        <time>2026-02-02T12:07:29Z</time>
      </trkpt>
      <trkpt lat="45.97476" lon="6.55201">
        <ele>1821.1</ele>
        <time>2026-02-02T12:07:30Z</time>
      </trkpt>
      <trkpt lat="45.97476" lon="6.55201">
        <ele>1821.1</ele>
        <time>2026-02-02T12:07:31Z</time>
      </trkpt>
      <trkpt lat="45.97476" lon="6.55201">
        <ele>1821.1</ele>
        <time>2026-02-02T12:07:32Z</time>
      </trkpt>
      <trkpt lat="45.97477" lon="6.55201">
        <ele>1821.1</ele>
        <time>2026-02-02T12:07:33Z</time>
      </trkpt>
      <trkpt lat="45.97478" lon="6.55201">
        <ele>1821.3</ele>
        <time>2026-02-02T12:07:34Z</time>
      </trkpt>
      <trkpt lat="45.97479" lon="6.55201">
        <ele>1821.3</ele>
        <time>2026-02-02T12:07:35Z</time>
      </trkpt>
      <trkpt lat="45.9748" lon="6.55201">
        <ele>1821.3</ele>
        <time>2026-02-02T12:07:36Z</time>
      </trkpt>
      <trkpt lat="45.9748" lon="6.55201">
        <ele>1821.3</ele>
        <time>2026-02-02T12:07:37Z</time>
      </trkpt>
      <trkpt lat="45.97481" lon="6.55201">
        <ele>1821.6</ele>
        <time>2026-02-02T12:07:38Z</time>
      </trkpt>
      <trkpt lat="45.97481" lon="6.55201">
        <ele>1821.6</ele>
        <time>2026-02-02T12:07:39Z</time>
      </trkpt>
      <trkpt lat="45.97482" lon="6.55202">
        <ele>1824.2</ele>
        <time>2026-02-02T12:07:40Z</time>
      </trkpt>
      <trkpt lat="45.97482" lon="6.55202">
        <ele>1824.2</ele>
        <time>2026-02-02T12:07:41Z</time>
      </trkpt>
      <trkpt lat="45.97483" lon="6.55202">
        <ele>1824.2</ele>
        <time>2026-02-02T12:07:42Z</time>
      </trkpt>
      <trkpt lat="45.97485" lon="6.55202">
        <ele>1824.5</ele>
        <time>2026-02-02T12:07:43Z</time>
      </trkpt>
      <trkpt lat="45.97486" lon="6.55202">
        <ele>1824.5</ele>
        <time>2026-02-02T12:07:44Z</time>
      </trkpt>
      <trkpt lat="45.97487" lon="6.55202">
        <ele>1824.7</ele>
        <time>2026-02-02T12:07:45Z</time>
      </trkpt>
      <trkpt lat="45.97488" lon="6.55202">
        <ele>1824.7</ele>
        <time>2026-02-02T12:07:46Z</time>
      </trkpt>
      <trkpt lat="45.97489" lon="6.55202">
        <ele>1824.7</ele>
        <time>2026-02-02T12:07:47Z</time>
      </trkpt>
      <trkpt lat="45.97489" lon="6.55202">
        <ele>1824.7</ele>
        <time>2026-02-02T12:07:48Z</time>
      </trkpt>
      <trkpt lat="45.9749" lon="6.55202">
        <ele>1825</ele>
        <time>2026-02-02T12:07:49Z</time>
      </trkpt>
      <trkpt lat="45.97491" lon="6.55202">
        <ele>1825</ele>
        <time>2026-02-02T12:07:50Z</time>
      </trkpt>
      <trkpt lat="45.97491" lon="6.55202">
        <ele>1825</ele>
        <time>2026-02-02T12:07:51Z</time>
      </trkpt>
      <trkpt lat="45.97491" lon="6.55202">
        <ele>1825</ele>
        <time>2026-02-02T12:07:52Z</time>
      </trkpt>
      <trkpt lat="45.97491" lon="6.55203">
        <ele>1825</ele>
        <time>2026-02-02T12:07:53Z</time>
      </trkpt>
      <trkpt lat="45.97491" lon="6.55203">
        <ele>1825</ele>
        <time>2026-02-02T12:07:54Z</time>
      </trkpt>
      <trkpt lat="45.97491" lon="6.55203">
        <ele>1825</ele>
        <time>2026-02-02T12:07:56Z</time>
      </trkpt>
      <trkpt lat="45.97491" lon="6.55203">
        <ele>1825</ele>
        <time>2026-02-02T12:07:57Z</time>
      </trkpt>
      <trkpt lat="45.97491" lon="6.55203">
        <ele>1825</ele>
        <time>2026-02-02T12:07:58Z</time>
      </trkpt>
      <trkpt lat="45.9749" lon="6.55203">
        <ele>1825</ele>
        <time>2026-02-02T12:07:59Z</time>
      </trkpt>
      <trkpt lat="45.97489" lon="6.55204">
        <ele>1824.7</ele>
        <time>2026-02-02T12:08:00Z</time>
      </trkpt>
      <trkpt lat="45.97488" lon="6.55205">
        <ele>1824.7</ele>
        <time>2026-02-02T12:08:01Z</time>
      </trkpt>
      <trkpt lat="45.97487" lon="6.55206">
        <ele>1824.7</ele>
        <time>2026-02-02T12:08:02Z</time>
      </trkpt>
      <trkpt lat="45.97487" lon="6.55207">
        <ele>1827.3</ele>
        <time>2026-02-02T12:08:03Z</time>
      </trkpt>
      <trkpt lat="45.97486" lon="6.55207">
        <ele>1827.1</ele>
        <time>2026-02-02T12:08:04Z</time>
      </trkpt>
      <trkpt lat="45.97485" lon="6.55207">
        <ele>1827.1</ele>
        <time>2026-02-02T12:08:05Z</time>
      </trkpt>
      <trkpt lat="45.97484" lon="6.55207">
        <ele>1827.1</ele>
        <time>2026-02-02T12:08:06Z</time>
      </trkpt>
      <trkpt lat="45.97483" lon="6.55208">
        <ele>1826.8</ele>
        <time>2026-02-02T12:08:07Z</time>
      </trkpt>
      <trkpt lat="45.97483" lon="6.55208">
        <ele>1826.8</ele>
        <time>2026-02-02T12:08:08Z</time>
      </trkpt>
      <trkpt lat="45.97483" lon="6.55207">
        <ele>1826.8</ele>
        <time>2026-02-02T12:08:09Z</time>
      </trkpt>
      <trkpt lat="45.97482" lon="6.55208">
        <ele>1826.8</ele>
        <time>2026-02-02T12:08:10Z</time>
      </trkpt>
      <trkpt lat="45.97481" lon="6.55208">
        <ele>1826.8</ele>
        <time>2026-02-02T12:08:11Z</time>
      </trkpt>
      <trkpt lat="45.97481" lon="6.55209">
        <ele>1826.6</ele>
        <time>2026-02-02T12:08:12Z</time>
      </trkpt>
      <trkpt lat="45.9748" lon="6.55209">
        <ele>1826.6</ele>
        <time>2026-02-02T12:08:13Z</time>
      </trkpt>
      <trkpt lat="45.9748" lon="6.5521">
        <ele>1826.6</ele>
        <time>2026-02-02T12:08:14Z</time>
      </trkpt>
      <trkpt lat="45.97478" lon="6.5521">
        <ele>1829.1</ele>
        <time>2026-02-02T12:08:15Z</time>
      </trkpt>
      <trkpt lat="45.97477" lon="6.5521">
        <ele>1828.9</ele>
        <time>2026-02-02T12:08:16Z</time>
      </trkpt>
      <trkpt lat="45.97476" lon="6.55211">
        <ele>1828.9</ele>
        <time>2026-02-02T12:08:17Z</time>
      </trkpt>
      <trkpt lat="45.97475" lon="6.55211">
        <ele>1828.9</ele>
        <time>2026-02-02T12:08:18Z</time>
      </trkpt>
      <trkpt lat="45.97475" lon="6.55212">
        <ele>1828.9</ele>
        <time>2026-02-02T12:08:19Z</time>
      </trkpt>
      <trkpt lat="45.97474" lon="6.55212">
        <ele>1828.7</ele>
        <time>2026-02-02T12:08:20Z</time>
      </trkpt>
      <trkpt lat="45.97474" lon="6.55212">
        <ele>1828.7</ele>
        <time>2026-02-02T12:08:21Z</time>
      </trkpt>
      <trkpt lat="45.97473" lon="6.55213">
        <ele>1828.7</ele>
        <time>2026-02-02T12:08:22Z</time>
      </trkpt>
      <trkpt lat="45.97473" lon="6.55213">
        <ele>1828.7</ele>
        <time>2026-02-02T12:08:23Z</time>
      </trkpt>
      <trkpt lat="45.97473" lon="6.55213">
        <ele>1828.7</ele>
        <time>2026-02-02T12:08:24Z</time>
      </trkpt>
      <trkpt lat="45.97472" lon="6.55213">
        <ele>1828.7</ele>
        <time>2026-02-02T12:08:25Z</time>
      </trkpt>
      <trkpt lat="45.97472" lon="6.55213">
        <ele>1828.7</ele>
        <time>2026-02-02T12:08:26Z</time>
      </trkpt>
      <trkpt lat="45.97472" lon="6.55213">
        <ele>1828.7</ele>
        <time>2026-02-02T12:08:27Z</time>
      </trkpt>
      <trkpt lat="45.97472" lon="6.55212">
        <ele>1828.7</ele>
        <time>2026-02-02T12:08:28Z</time>
      </trkpt>
      <trkpt lat="45.97472" lon="6.55212">
        <ele>1828.7</ele>
        <time>2026-02-02T12:08:29Z</time>
      </trkpt>
      <trkpt lat="45.97472" lon="6.55212">
        <ele>1828.7</ele>
        <time>2026-02-02T12:08:30Z</time>
      </trkpt>
      <trkpt lat="45.97472" lon="6.55212">
        <ele>1828.7</ele>
        <time>2026-02-02T12:08:31Z</time>
      </trkpt>
      <trkpt lat="45.97472" lon="6.55212">
        <ele>1828.7</ele>
        <time>2026-02-02T12:08:32Z</time>
      </trkpt>
      <trkpt lat="45.97472" lon="6.55212">
        <ele>1828.7</ele>
        <time>2026-02-02T12:08:33Z</time>
      </trkpt>
      <trkpt lat="45.97472" lon="6.55212">
        <ele>1828.7</ele>
        <time>2026-02-02T12:08:34Z</time>
      </trkpt>
      <trkpt lat="45.97472" lon="6.55212">
        <ele>1828.7</ele>
        <time>2026-02-02T12:08:35Z</time>
      </trkpt>
      <trkpt lat="45.97472" lon="6.55212">
        <ele>1828.7</ele>
        <time>2026-02-02T12:08:36Z</time>
      </trkpt>
      <trkpt lat="45.97472" lon="6.55211">
        <ele>1828.6</ele>
        <time>2026-02-02T12:08:37Z</time>
      </trkpt>
      <trkpt lat="45.97472" lon="6.55211">
        <ele>1828.6</ele>
        <time>2026-02-02T12:08:38Z</time>
      </trkpt>
      <trkpt lat="45.97472" lon="6.55211">
        <ele>1828.7</ele>
        <time>2026-02-02T12:08:39Z</time>
      </trkpt>
      <trkpt lat="45.97472" lon="6.55212">
        <ele>1828.7</ele>
        <time>2026-02-02T12:08:40Z</time>
      </trkpt>
      <trkpt lat="45.97472" lon="6.55212">
        <ele>1828.7</ele>
        <time>2026-02-02T12:08:41Z</time>
      </trkpt>
      <trkpt lat="45.97472" lon="6.55212">
        <ele>1828.7</ele>
        <time>2026-02-02T12:08:42Z</time>
      </trkpt>
      <trkpt lat="45.97473" lon="6.55212">
        <ele>1828.7</ele>
        <time>2026-02-02T12:08:43Z</time>
      </trkpt>
      <trkpt lat="45.97473" lon="6.55212">
        <ele>1828.7</ele>
        <time>2026-02-02T12:08:44Z</time>
      </trkpt>
      <trkpt lat="45.97473" lon="6.55212">
        <ele>1828.7</ele>
        <time>2026-02-02T12:08:45Z</time>
      </trkpt>
      <trkpt lat="45.97473" lon="6.55212">
        <ele>1828.7</ele>
        <time>2026-02-02T12:08:46Z</time>
      </trkpt>
      <trkpt lat="45.97473" lon="6.55212">
        <ele>1828.7</ele>
        <time>2026-02-02T12:08:47Z</time>
      </trkpt>
      <trkpt lat="45.97474" lon="6.55213">
        <ele>1828.7</ele>
        <time>2026-02-02T12:08:48Z</time>
      </trkpt>
      <trkpt lat="45.97474" lon="6.55213">
        <ele>1828.7</ele>
        <time>2026-02-02T12:08:49Z</time>
      </trkpt>
      <trkpt lat="45.97474" lon="6.55213">
        <ele>1828.7</ele>
        <time>2026-02-02T12:08:50Z</time>
      </trkpt>
      <trkpt lat="45.97474" lon="6.55213">
        <ele>1828.7</ele>
        <time>2026-02-02T12:08:51Z</time>
      </trkpt>
      <trkpt lat="45.97474" lon="6.55213">
        <ele>1828.7</ele>
        <time>2026-02-02T12:08:52Z</time>
      </trkpt>
      <trkpt lat="45.97475" lon="6.55213">
        <ele>1828.7</ele>
        <time>2026-02-02T12:08:53Z</time>
      </trkpt>
      <trkpt lat="45.97475" lon="6.55213">
        <ele>1828.9</ele>
        <time>2026-02-02T12:08:54Z</time>
      </trkpt>
      <trkpt lat="45.97475" lon="6.55214">
        <ele>1828.9</ele>
        <time>2026-02-02T12:08:55Z</time>
      </trkpt>
      <trkpt lat="45.97477" lon="6.55215">
        <ele>1831.4</ele>
        <time>2026-02-02T12:08:56Z</time>
      </trkpt>
      <trkpt lat="45.97478" lon="6.55215">
        <ele>1831.6</ele>
        <time>2026-02-02T12:08:57Z</time>
      </trkpt>
      <trkpt lat="45.9748" lon="6.55215">
        <ele>1831.6</ele>
        <time>2026-02-02T12:08:58Z</time>
      </trkpt>
      <trkpt lat="45.97481" lon="6.55216">
        <ele>1831.8</ele>
        <time>2026-02-02T12:08:59Z</time>
      </trkpt>
      <trkpt lat="45.97483" lon="6.55216">
        <ele>1831.8</ele>
        <time>2026-02-02T12:09:00Z</time>
      </trkpt>
      <trkpt lat="45.97484" lon="6.55217">
        <ele>1832</ele>
        <time>2026-02-02T12:09:01Z</time>
      </trkpt>
      <trkpt lat="45.97484" lon="6.55217">
        <ele>1832</ele>
        <time>2026-02-02T12:09:02Z</time>
      </trkpt>
      <trkpt lat="45.97485" lon="6.55217">
        <ele>1832</ele>
        <time>2026-02-02T12:09:03Z</time>
      </trkpt>
      <trkpt lat="45.97486" lon="6.55217">
        <ele>1832</ele>
        <time>2026-02-02T12:09:04Z</time>
      </trkpt>
      <trkpt lat="45.97486" lon="6.55218">
        <ele>1832</ele>
        <time>2026-02-02T12:09:05Z</time>
      </trkpt>
      <trkpt lat="45.97487" lon="6.55218">
        <ele>1832.3</ele>
        <time>2026-02-02T12:09:06Z</time>
      </trkpt>
      <trkpt lat="45.97488" lon="6.55218">
        <ele>1832.3</ele>
        <time>2026-02-02T12:09:07Z</time>
      </trkpt>
      <trkpt lat="45.97488" lon="6.55218">
        <ele>1832.3</ele>
        <time>2026-02-02T12:09:08Z</time>
      </trkpt>
      <trkpt lat="45.97489" lon="6.55218">
        <ele>1832.3</ele>
        <time>2026-02-02T12:09:09Z</time>
      </trkpt>
      <trkpt lat="45.97489" lon="6.55218">
        <ele>1832.3</ele>
        <time>2026-02-02T12:09:10Z</time>
      </trkpt>
      <trkpt lat="45.9749" lon="6.55218">
        <ele>1832.6</ele>
        <time>2026-02-02T12:09:11Z</time>
      </trkpt>
      <trkpt lat="45.97491" lon="6.55219">
        <ele>1832.6</ele>
        <time>2026-02-02T12:09:12Z</time>
      </trkpt>
      <trkpt lat="45.97491" lon="6.55219">
        <ele>1834.9</ele>
        <time>2026-02-02T12:09:13Z</time>
      </trkpt>
      <trkpt lat="45.97492" lon="6.55219">
        <ele>1834.9</ele>
        <time>2026-02-02T12:09:14Z</time>
      </trkpt>
      <trkpt lat="45.97493" lon="6.5522">
        <ele>1835.3</ele>
        <time>2026-02-02T12:09:15Z</time>
      </trkpt>
      <trkpt lat="45.97493" lon="6.5522">
        <ele>1835.3</ele>
        <time>2026-02-02T12:09:16Z</time>
      </trkpt>
      <trkpt lat="45.97494" lon="6.5522">
        <ele>1835.3</ele>
        <time>2026-02-02T12:09:17Z</time>
      </trkpt>
      <trkpt lat="45.97494" lon="6.5522">
        <ele>1835.3</ele>
        <time>2026-02-02T12:09:18Z</time>
      </trkpt>
      <trkpt lat="45.97494" lon="6.5522">
        <ele>1835.3</ele>
        <time>2026-02-02T12:09:19Z</time>
      </trkpt>
      <trkpt lat="45.97494" lon="6.5522">
        <ele>1835.3</ele>
        <time>2026-02-02T12:09:20Z</time>
      </trkpt>
      <trkpt lat="45.97494" lon="6.55221">
        <ele>1835.3</ele>
        <time>2026-02-02T12:09:21Z</time>
      </trkpt>
      <trkpt lat="45.97494" lon="6.55221">
        <ele>1835.3</ele>
        <time>2026-02-02T12:09:22Z</time>
      </trkpt>
      <trkpt lat="45.97494" lon="6.55221">
        <ele>1835.3</ele>
        <time>2026-02-02T12:09:23Z</time>
      </trkpt>
      <trkpt lat="45.97494" lon="6.55221">
        <ele>1835.3</ele>
        <time>2026-02-02T12:09:24Z</time>
      </trkpt>
      <trkpt lat="45.97494" lon="6.55221">
        <ele>1835.3</ele>
        <time>2026-02-02T12:09:25Z</time>
      </trkpt>
      <trkpt lat="45.97494" lon="6.55221">
        <ele>1835.3</ele>
        <time>2026-02-02T12:09:26Z</time>
      </trkpt>
      <trkpt lat="45.97494" lon="6.55221">
        <ele>1835.3</ele>
        <time>2026-02-02T12:09:27Z</time>
      </trkpt>
      <trkpt lat="45.97494" lon="6.55221">
        <ele>1835.3</ele>
        <time>2026-02-02T12:09:28Z</time>
      </trkpt>
      <trkpt lat="45.97494" lon="6.5522">
        <ele>1835.3</ele>
        <time>2026-02-02T12:09:29Z</time>
      </trkpt>
      <trkpt lat="45.97494" lon="6.5522">
        <ele>1835.3</ele>
        <time>2026-02-02T12:09:30Z</time>
      </trkpt>
      <trkpt lat="45.97494" lon="6.5522">
        <ele>1835.3</ele>
        <time>2026-02-02T12:09:31Z</time>
      </trkpt>
      <trkpt lat="45.97494" lon="6.5522">
        <ele>1835.3</ele>
        <time>2026-02-02T12:09:32Z</time>
      </trkpt>
      <trkpt lat="45.97494" lon="6.5522">
        <ele>1835.3</ele>
        <time>2026-02-02T12:09:33Z</time>
      </trkpt>
      <trkpt lat="45.97494" lon="6.5522">
        <ele>1835.3</ele>
        <time>2026-02-02T12:09:34Z</time>
      </trkpt>
      <trkpt lat="45.97494" lon="6.55219">
        <ele>1835.3</ele>
        <time>2026-02-02T12:09:35Z</time>
      </trkpt>
      <trkpt lat="45.97494" lon="6.55219">
        <ele>1835.3</ele>
        <time>2026-02-02T12:09:36Z</time>
      </trkpt>
      <trkpt lat="45.97494" lon="6.55219">
        <ele>1835.3</ele>
        <time>2026-02-02T12:09:37Z</time>
      </trkpt>
      <trkpt lat="45.97494" lon="6.55219">
        <ele>1835.3</ele>
        <time>2026-02-02T12:09:38Z</time>
      </trkpt>
      <trkpt lat="45.97494" lon="6.55219">
        <ele>1835.3</ele>
        <time>2026-02-02T12:09:39Z</time>
      </trkpt>
      <trkpt lat="45.97494" lon="6.55219">
        <ele>1832.9</ele>
        <time>2026-02-02T12:09:40Z</time>
      </trkpt>
      <trkpt lat="45.97494" lon="6.55218">
        <ele>1832.9</ele>
        <time>2026-02-02T12:09:41Z</time>
      </trkpt>
      <trkpt lat="45.97493" lon="6.55218">
        <ele>1832.9</ele>
        <time>2026-02-02T12:09:42Z</time>
      </trkpt>
      <trkpt lat="45.97493" lon="6.55218">
        <ele>1832.9</ele>
        <time>2026-02-02T12:09:43Z</time>
      </trkpt>
      <trkpt lat="45.97493" lon="6.55218">
        <ele>1832.9</ele>
        <time>2026-02-02T12:09:44Z</time>
      </trkpt>
      <trkpt lat="45.97493" lon="6.55218">
        <ele>1832.9</ele>
        <time>2026-02-02T12:09:45Z</time>
      </trkpt>
      <trkpt lat="45.97493" lon="6.55218">
        <ele>1832.9</ele>
        <time>2026-02-02T12:09:46Z</time>
      </trkpt>
      <trkpt lat="45.97493" lon="6.55218">
        <ele>1832.9</ele>
        <time>2026-02-02T12:09:47Z</time>
      </trkpt>
      <trkpt lat="45.97493" lon="6.55218">
        <ele>1832.9</ele>
        <time>2026-02-02T12:09:48Z</time>
      </trkpt>
      <trkpt lat="45.97493" lon="6.55218">
        <ele>1832.9</ele>
        <time>2026-02-02T12:09:49Z</time>
      </trkpt>
      <trkpt lat="45.97493" lon="6.55217">
        <ele>1832.9</ele>
        <time>2026-02-02T12:09:50Z</time>
      </trkpt>
      <trkpt lat="45.97493" lon="6.55218">
        <ele>1832.9</ele>
        <time>2026-02-02T12:09:51Z</time>
      </trkpt>
      <trkpt lat="45.97493" lon="6.55217">
        <ele>1832.9</ele>
        <time>2026-02-02T12:09:52Z</time>
      </trkpt>
      <trkpt lat="45.97493" lon="6.55218">
        <ele>1832.9</ele>
        <time>2026-02-02T12:09:53Z</time>
      </trkpt>
      <trkpt lat="45.97493" lon="6.55218">
        <ele>1832.9</ele>
        <time>2026-02-02T12:09:54Z</time>
      </trkpt>
      <trkpt lat="45.97494" lon="6.55218">
        <ele>1832.9</ele>
        <time>2026-02-02T12:09:55Z</time>
      </trkpt>
      <trkpt lat="45.97495" lon="6.55218">
        <ele>1832.9</ele>
        <time>2026-02-02T12:09:56Z</time>
      </trkpt>
      <trkpt lat="45.97496" lon="6.55219">
        <ele>1835.3</ele>
        <time>2026-02-02T12:09:57Z</time>
      </trkpt>
      <trkpt lat="45.97497" lon="6.5522">
        <ele>1835.7</ele>
        <time>2026-02-02T12:09:58Z</time>
      </trkpt>
      <trkpt lat="45.97498" lon="6.5522">
        <ele>1835.7</ele>
        <time>2026-02-02T12:09:59Z</time>
      </trkpt>
      <trkpt lat="45.97499" lon="6.55221">
        <ele>1836.1</ele>
        <time>2026-02-02T12:10:00Z</time>
      </trkpt>
      <trkpt lat="45.975" lon="6.55221">
        <ele>1836.1</ele>
        <time>2026-02-02T12:10:01Z</time>
      </trkpt>
      <trkpt lat="45.97501" lon="6.55221">
        <ele>1836.1</ele>
        <time>2026-02-02T12:10:02Z</time>
      </trkpt>
      <trkpt lat="45.97502" lon="6.55222">
        <ele>1836.6</ele>
        <time>2026-02-02T12:10:03Z</time>
      </trkpt>
      <trkpt lat="45.97503" lon="6.55222">
        <ele>1836.6</ele>
        <time>2026-02-02T12:10:04Z</time>
      </trkpt>
      <trkpt lat="45.97504" lon="6.55222">
        <ele>1836.6</ele>
        <time>2026-02-02T12:10:05Z</time>
      </trkpt>
      <trkpt lat="45.97504" lon="6.55222">
        <ele>1836.6</ele>
        <time>2026-02-02T12:10:06Z</time>
      </trkpt>
      <trkpt lat="45.97505" lon="6.55223">
        <ele>1837.2</ele>
        <time>2026-02-02T12:10:07Z</time>
      </trkpt>
      <trkpt lat="45.97506" lon="6.55223">
        <ele>1839.5</ele>
        <time>2026-02-02T12:10:08Z</time>
      </trkpt>
      <trkpt lat="45.97507" lon="6.55224">
        <ele>1839.5</ele>
        <time>2026-02-02T12:10:09Z</time>
      </trkpt>
      <trkpt lat="45.97508" lon="6.55224">
        <ele>1840.1</ele>
        <time>2026-02-02T12:10:10Z</time>
      </trkpt>
      <trkpt lat="45.97509" lon="6.55224">
        <ele>1840.1</ele>
        <time>2026-02-02T12:10:11Z</time>
      </trkpt>
      <trkpt lat="45.97509" lon="6.55224">
        <ele>1840.1</ele>
        <time>2026-02-02T12:10:12Z</time>
      </trkpt>
      <trkpt lat="45.9751" lon="6.55224">
        <ele>1840.1</ele>
        <time>2026-02-02T12:10:13Z</time>
      </trkpt>
      <trkpt lat="45.9751" lon="6.55225">
        <ele>1840.1</ele>
        <time>2026-02-02T12:10:14Z</time>
      </trkpt>
      <trkpt lat="45.9751" lon="6.55225">
        <ele>1840.1</ele>
        <time>2026-02-02T12:10:15Z</time>
      </trkpt>
      <trkpt lat="45.97512" lon="6.55225">
        <ele>1840.8</ele>
        <time>2026-02-02T12:10:16Z</time>
      </trkpt>
      <trkpt lat="45.97513" lon="6.55225">
        <ele>1840.8</ele>
        <time>2026-02-02T12:10:17Z</time>
      </trkpt>
      <trkpt lat="45.97513" lon="6.55226">
        <ele>1840.8</ele>
        <time>2026-02-02T12:10:18Z</time>
      </trkpt>
      <trkpt lat="45.97515" lon="6.55226">
        <ele>1841.4</ele>
        <time>2026-02-02T12:10:19Z</time>
      </trkpt>
      <trkpt lat="45.97516" lon="6.55226">
        <ele>1841.4</ele>
        <time>2026-02-02T12:10:20Z</time>
      </trkpt>
      <trkpt lat="45.97517" lon="6.55227">
        <ele>1842.1</ele>
        <time>2026-02-02T12:10:21Z</time>
      </trkpt>
      <trkpt lat="45.97518" lon="6.55227">
        <ele>1842.1</ele>
        <time>2026-02-02T12:10:22Z</time>
      </trkpt>
      <trkpt lat="45.97519" lon="6.55227">
        <ele>1842.1</ele>
        <time>2026-02-02T12:10:23Z</time>
      </trkpt>
      <trkpt lat="45.9752" lon="6.55227">
        <ele>1842.9</ele>
        <time>2026-02-02T12:10:24Z</time>
      </trkpt>
      <trkpt lat="45.97521" lon="6.55227">
        <ele>1842.9</ele>
        <time>2026-02-02T12:10:25Z</time>
      </trkpt>
      <trkpt lat="45.97522" lon="6.55227">
        <ele>1842.9</ele>
        <time>2026-02-02T12:10:26Z</time>
      </trkpt>
      <trkpt lat="45.97523" lon="6.55227">
        <ele>1843.7</ele>
        <time>2026-02-02T12:10:27Z</time>
      </trkpt>
      <trkpt lat="45.97524" lon="6.55227">
        <ele>1843.7</ele>
        <time>2026-02-02T12:10:28Z</time>
      </trkpt>
      <trkpt lat="45.97524" lon="6.55227">
        <ele>1843.7</ele>
        <time>2026-02-02T12:10:29Z</time>
      </trkpt>
      <trkpt lat="45.97525" lon="6.55227">
        <ele>1843.7</ele>
        <time>2026-02-02T12:10:30Z</time>
      </trkpt>
      <trkpt lat="45.97525" lon="6.55226">
        <ele>1843.7</ele>
        <time>2026-02-02T12:10:31Z</time>
      </trkpt>
      <trkpt lat="45.97527" lon="6.55227">
        <ele>1844.6</ele>
        <time>2026-02-02T12:10:32Z</time>
      </trkpt>
      <trkpt lat="45.97527" lon="6.55227">
        <ele>1844.6</ele>
        <time>2026-02-02T12:10:33Z</time>
      </trkpt>
      <trkpt lat="45.97528" lon="6.55227">
        <ele>1844.6</ele>
        <time>2026-02-02T12:10:34Z</time>
      </trkpt>
      <trkpt lat="45.97528" lon="6.55227">
        <ele>1844.6</ele>
        <time>2026-02-02T12:10:35Z</time>
      </trkpt>
      <trkpt lat="45.97528" lon="6.55227">
        <ele>1844.6</ele>
        <time>2026-02-02T12:10:36Z</time>
      </trkpt>
      <trkpt lat="45.97528" lon="6.55227">
        <ele>1844.6</ele>
        <time>2026-02-02T12:10:37Z</time>
      </trkpt>
      <trkpt lat="45.97529" lon="6.55227">
        <ele>1845.4</ele>
        <time>2026-02-02T12:10:38Z</time>
      </trkpt>
      <trkpt lat="45.97529" lon="6.55227">
        <ele>1845.4</ele>
        <time>2026-02-02T12:10:39Z</time>
      </trkpt>
      <trkpt lat="45.97529" lon="6.55227">
        <ele>1845.4</ele>
        <time>2026-02-02T12:10:40Z</time>
      </trkpt>
      <trkpt lat="45.97529" lon="6.55227">
        <ele>1845.4</ele>
        <time>2026-02-02T12:10:41Z</time>
      </trkpt>
      <trkpt lat="45.97529" lon="6.55227">
        <ele>1845.4</ele>
        <time>2026-02-02T12:10:42Z</time>
      </trkpt>
      <trkpt lat="45.97529" lon="6.55227">
        <ele>1845.4</ele>
        <time>2026-02-02T12:10:43Z</time>
      </trkpt>
      <trkpt lat="45.97529" lon="6.55226">
        <ele>1845.4</ele>
        <time>2026-02-02T12:10:44Z</time>
      </trkpt>
      <trkpt lat="45.97529" lon="6.55226">
        <ele>1845.4</ele>
        <time>2026-02-02T12:10:45Z</time>
      </trkpt>
      <trkpt lat="45.97529" lon="6.55226">
        <ele>1845.4</ele>
        <time>2026-02-02T12:10:46Z</time>
      </trkpt>
      <trkpt lat="45.97529" lon="6.55226">
        <ele>1845.4</ele>
        <time>2026-02-02T12:10:47Z</time>
      </trkpt>
      <trkpt lat="45.97529" lon="6.55226">
        <ele>1845.4</ele>
        <time>2026-02-02T12:10:48Z</time>
      </trkpt>
      <trkpt lat="45.97529" lon="6.55226">
        <ele>1845.4</ele>
        <time>2026-02-02T12:10:49Z</time>
      </trkpt>
      <trkpt lat="45.97529" lon="6.55226">
        <ele>1845.4</ele>
        <time>2026-02-02T12:10:50Z</time>
      </trkpt>
      <trkpt lat="45.97529" lon="6.55226">
        <ele>1845.4</ele>
        <time>2026-02-02T12:10:51Z</time>
      </trkpt>
      <trkpt lat="45.97529" lon="6.55227">
        <ele>1845.4</ele>
        <time>2026-02-02T12:10:52Z</time>
      </trkpt>
      <trkpt lat="45.97529" lon="6.55227">
        <ele>1845.4</ele>
        <time>2026-02-02T12:10:53Z</time>
      </trkpt>
      <trkpt lat="45.97529" lon="6.55226">
        <ele>1845.4</ele>
        <time>2026-02-02T12:10:54Z</time>
      </trkpt>
      <trkpt lat="45.97529" lon="6.55225">
        <ele>1845.4</ele>
        <time>2026-02-02T12:10:55Z</time>
      </trkpt>
      <trkpt lat="45.9753" lon="6.55225">
        <ele>1845.4</ele>
        <time>2026-02-02T12:10:56Z</time>
      </trkpt>
      <trkpt lat="45.9753" lon="6.55226">
        <ele>1845.4</ele>
        <time>2026-02-02T12:10:57Z</time>
      </trkpt>
      <trkpt lat="45.9753" lon="6.55225">
        <ele>1845.4</ele>
        <time>2026-02-02T12:10:58Z</time>
      </trkpt>
      <trkpt lat="45.9753" lon="6.55225">
        <ele>1845.4</ele>
        <time>2026-02-02T12:10:59Z</time>
      </trkpt>
      <trkpt lat="45.97531" lon="6.55224">
        <ele>1845.4</ele>
        <time>2026-02-02T12:11:00Z</time>
      </trkpt>
      <trkpt lat="45.97532" lon="6.55224">
        <ele>1846.3</ele>
        <time>2026-02-02T12:11:01Z</time>
      </trkpt>
      <trkpt lat="45.97534" lon="6.55224">
        <ele>1846.3</ele>
        <time>2026-02-02T12:11:02Z</time>
      </trkpt>
      <trkpt lat="45.97535" lon="6.55224">
        <ele>1847.1</ele>
        <time>2026-02-02T12:11:03Z</time>
      </trkpt>
      <trkpt lat="45.97536" lon="6.55224">
        <ele>1847.1</ele>
        <time>2026-02-02T12:11:04Z</time>
      </trkpt>
      <trkpt lat="45.97537" lon="6.55225">
        <ele>1847.1</ele>
        <time>2026-02-02T12:11:05Z</time>
      </trkpt>
      <trkpt lat="45.97538" lon="6.55225">
        <ele>1847.9</ele>
        <time>2026-02-02T12:11:06Z</time>
      </trkpt>
      <trkpt lat="45.9754" lon="6.55226">
        <ele>1847.9</ele>
        <time>2026-02-02T12:11:07Z</time>
      </trkpt>
      <trkpt lat="45.97541" lon="6.55226">
        <ele>1848.6</ele>
        <time>2026-02-02T12:11:08Z</time>
      </trkpt>
      <trkpt lat="45.97541" lon="6.55227">
        <ele>1848.6</ele>
        <time>2026-02-02T12:11:09Z</time>
      </trkpt>
      <trkpt lat="45.97542" lon="6.55227">
        <ele>1850.7</ele>
        <time>2026-02-02T12:11:10Z</time>
      </trkpt>
      <trkpt lat="45.97543" lon="6.55228">
        <ele>1851.4</ele>
        <time>2026-02-02T12:11:11Z</time>
      </trkpt>
      <trkpt lat="45.97544" lon="6.55229">
        <ele>1851.4</ele>
        <time>2026-02-02T12:11:12Z</time>
      </trkpt>
      <trkpt lat="45.97545" lon="6.55229">
        <ele>1851.4</ele>
        <time>2026-02-02T12:11:13Z</time>
      </trkpt>
      <trkpt lat="45.97546" lon="6.5523">
        <ele>1851.4</ele>
        <time>2026-02-02T12:11:14Z</time>
      </trkpt>
      <trkpt lat="45.97546" lon="6.55231">
        <ele>1852.1</ele>
        <time>2026-02-02T12:11:15Z</time>
      </trkpt>
      <trkpt lat="45.97547" lon="6.55231">
        <ele>1852.1</ele>
        <time>2026-02-02T12:11:16Z</time>
      </trkpt>
      <trkpt lat="45.97548" lon="6.55231">
        <ele>1852.1</ele>
        <time>2026-02-02T12:11:17Z</time>
      </trkpt>
      <trkpt lat="45.97548" lon="6.55231">
        <ele>1852.1</ele>
        <time>2026-02-02T12:11:18Z</time>
      </trkpt>
      <trkpt lat="45.97548" lon="6.55231">
        <ele>1852.1</ele>
        <time>2026-02-02T12:11:19Z</time>
      </trkpt>
      <trkpt lat="45.97548" lon="6.55231">
        <ele>1852.1</ele>
        <time>2026-02-02T12:11:20Z</time>
      </trkpt>
      <trkpt lat="45.97549" lon="6.55231">
        <ele>1852.1</ele>
        <time>2026-02-02T12:11:21Z</time>
      </trkpt>
      <trkpt lat="45.97549" lon="6.55231">
        <ele>1852.1</ele>
        <time>2026-02-02T12:11:22Z</time>
      </trkpt>
      <trkpt lat="45.97549" lon="6.55231">
        <ele>1852.1</ele>
        <time>2026-02-02T12:11:23Z</time>
      </trkpt>
      <trkpt lat="45.97549" lon="6.55231">
        <ele>1852.1</ele>
        <time>2026-02-02T12:11:24Z</time>
      </trkpt>
      <trkpt lat="45.97548" lon="6.55231">
        <ele>1852.1</ele>
        <time>2026-02-02T12:11:25Z</time>
      </trkpt>
      <trkpt lat="45.97548" lon="6.55231">
        <ele>1852.1</ele>
        <time>2026-02-02T12:11:26Z</time>
      </trkpt>
      <trkpt lat="45.97548" lon="6.55231">
        <ele>1852.1</ele>
        <time>2026-02-02T12:11:27Z</time>
      </trkpt>
      <trkpt lat="45.97548" lon="6.55231">
        <ele>1852.1</ele>
        <time>2026-02-02T12:11:28Z</time>
      </trkpt>
      <trkpt lat="45.97548" lon="6.55231">
        <ele>1852.1</ele>
        <time>2026-02-02T12:11:29Z</time>
      </trkpt>
      <trkpt lat="45.97548" lon="6.55231">
        <ele>1852.1</ele>
        <time>2026-02-02T12:11:30Z</time>
      </trkpt>
      <trkpt lat="45.97548" lon="6.55231">
        <ele>1852.1</ele>
        <time>2026-02-02T12:11:31Z</time>
      </trkpt>
      <trkpt lat="45.97548" lon="6.55231">
        <ele>1852.1</ele>
        <time>2026-02-02T12:11:32Z</time>
      </trkpt>
      <trkpt lat="45.97548" lon="6.55231">
        <ele>1852.1</ele>
        <time>2026-02-02T12:11:33Z</time>
      </trkpt>
      <trkpt lat="45.97548" lon="6.55231">
        <ele>1852.1</ele>
        <time>2026-02-02T12:11:34Z</time>
      </trkpt>
      <trkpt lat="45.97548" lon="6.55231">
        <ele>1852.1</ele>
        <time>2026-02-02T12:11:35Z</time>
      </trkpt>
      <trkpt lat="45.97548" lon="6.55231">
        <ele>1852.1</ele>
        <time>2026-02-02T12:11:36Z</time>
      </trkpt>
      <trkpt lat="45.97548" lon="6.55231">
        <ele>1852.1</ele>
        <time>2026-02-02T12:11:37Z</time>
      </trkpt>
      <trkpt lat="45.97548" lon="6.55231">
        <ele>1852.1</ele>
        <time>2026-02-02T12:11:38Z</time>
      </trkpt>
      <trkpt lat="45.97548" lon="6.55231">
        <ele>1852.1</ele>
        <time>2026-02-02T12:11:39Z</time>
      </trkpt>
      <trkpt lat="45.97549" lon="6.55231">
        <ele>1852.1</ele>
        <time>2026-02-02T12:11:40Z</time>
      </trkpt>
      <trkpt lat="45.97549" lon="6.55231">
        <ele>1852.1</ele>
        <time>2026-02-02T12:11:41Z</time>
      </trkpt>
      <trkpt lat="45.97549" lon="6.55231">
        <ele>1852.1</ele>
        <time>2026-02-02T12:11:42Z</time>
      </trkpt>
      <trkpt lat="45.9755" lon="6.55231">
        <ele>1852.7</ele>
        <time>2026-02-02T12:11:43Z</time>
      </trkpt>
      <trkpt lat="45.9755" lon="6.55231">
        <ele>1852.7</ele>
        <time>2026-02-02T12:11:44Z</time>
      </trkpt>
      <trkpt lat="45.97551" lon="6.5523">
        <ele>1852.7</ele>
        <time>2026-02-02T12:11:45Z</time>
      </trkpt>
      <trkpt lat="45.97552" lon="6.5523">
        <ele>1852.7</ele>
        <time>2026-02-02T12:11:46Z</time>
      </trkpt>
      <trkpt lat="45.97553" lon="6.55229">
        <ele>1853.3</ele>
        <time>2026-02-02T12:11:47Z</time>
      </trkpt>
      <trkpt lat="45.97554" lon="6.55229">
        <ele>1853.3</ele>
        <time>2026-02-02T12:11:48Z</time>
      </trkpt>
      <trkpt lat="45.97555" lon="6.55228">
        <ele>1853.3</ele>
        <time>2026-02-02T12:11:49Z</time>
      </trkpt>
      <trkpt lat="45.97555" lon="6.55228">
        <ele>1853.9</ele>
        <time>2026-02-02T12:11:50Z</time>
      </trkpt>
      <trkpt lat="45.97556" lon="6.55228">
        <ele>1853.9</ele>
        <time>2026-02-02T12:11:51Z</time>
      </trkpt>
      <trkpt lat="45.97557" lon="6.55228">
        <ele>1853.9</ele>
        <time>2026-02-02T12:11:52Z</time>
      </trkpt>
      <trkpt lat="45.97558" lon="6.55228">
        <ele>1853.9</ele>
        <time>2026-02-02T12:11:53Z</time>
      </trkpt>
      <trkpt lat="45.97559" lon="6.55228">
        <ele>1854.3</ele>
        <time>2026-02-02T12:11:54Z</time>
      </trkpt>
      <trkpt lat="45.9756" lon="6.55228">
        <ele>1854.3</ele>
        <time>2026-02-02T12:11:55Z</time>
      </trkpt>
      <trkpt lat="45.9756" lon="6.55228">
        <ele>1854.3</ele>
        <time>2026-02-02T12:11:56Z</time>
      </trkpt>
      <trkpt lat="45.9756" lon="6.55228">
        <ele>1854.3</ele>
        <time>2026-02-02T12:11:57Z</time>
      </trkpt>
      <trkpt lat="45.97562" lon="6.55228">
        <ele>1854.7</ele>
        <time>2026-02-02T12:11:58Z</time>
      </trkpt>
      <trkpt lat="45.97563" lon="6.55228">
        <ele>1854.7</ele>
        <time>2026-02-02T12:11:59Z</time>
      </trkpt>
      <trkpt lat="45.97564" lon="6.55228">
        <ele>1854.7</ele>
        <time>2026-02-02T12:12:00Z</time>
      </trkpt>
      <trkpt lat="45.97565" lon="6.55228">
        <ele>1855</ele>
        <time>2026-02-02T12:12:01Z</time>
      </trkpt>
      <trkpt lat="45.97566" lon="6.55228">
        <ele>1855</ele>
        <time>2026-02-02T12:12:02Z</time>
      </trkpt>
      <trkpt lat="45.97567" lon="6.55229">
        <ele>1855.3</ele>
        <time>2026-02-02T12:12:03Z</time>
      </trkpt>
      <trkpt lat="45.97568" lon="6.55229">
        <ele>1855.3</ele>
        <time>2026-02-02T12:12:04Z</time>
      </trkpt>
      <trkpt lat="45.97569" lon="6.55229">
        <ele>1855.3</ele>
        <time>2026-02-02T12:12:05Z</time>
      </trkpt>
      <trkpt lat="45.9757" lon="6.55229">
        <ele>1855.3</ele>
        <time>2026-02-02T12:12:06Z</time>
      </trkpt>
      <trkpt lat="45.9757" lon="6.55229">
        <ele>1855.3</ele>
        <time>2026-02-02T12:12:07Z</time>
      </trkpt>
      <trkpt lat="45.9757" lon="6.55229">
        <ele>1855.3</ele>
        <time>2026-02-02T12:12:08Z</time>
      </trkpt>
      <trkpt lat="45.9757" lon="6.55229">
        <ele>1855.3</ele>
        <time>2026-02-02T12:12:09Z</time>
      </trkpt>
      <trkpt lat="45.9757" lon="6.5523">
        <ele>1855.3</ele>
        <time>2026-02-02T12:12:10Z</time>
      </trkpt>
      <trkpt lat="45.9757" lon="6.5523">
        <ele>1855.3</ele>
        <time>2026-02-02T12:12:11Z</time>
      </trkpt>
      <trkpt lat="45.9757" lon="6.5523">
        <ele>1855.3</ele>
        <time>2026-02-02T12:12:12Z</time>
      </trkpt>
      <trkpt lat="45.9757" lon="6.5523">
        <ele>1855.3</ele>
        <time>2026-02-02T12:12:13Z</time>
      </trkpt>
      <trkpt lat="45.9757" lon="6.5523">
        <ele>1855.3</ele>
        <time>2026-02-02T12:12:14Z</time>
      </trkpt>
      <trkpt lat="45.9757" lon="6.5523">
        <ele>1855.3</ele>
        <time>2026-02-02T12:12:16Z</time>
      </trkpt>
      <trkpt lat="45.9757" lon="6.5523">
        <ele>1855.3</ele>
        <time>2026-02-02T12:12:17Z</time>
      </trkpt>
      <trkpt lat="45.9757" lon="6.5523">
        <ele>1855.3</ele>
        <time>2026-02-02T12:12:18Z</time>
      </trkpt>
      <trkpt lat="45.9757" lon="6.5523">
        <ele>1855.3</ele>
        <time>2026-02-02T12:12:19Z</time>
      </trkpt>
      <trkpt lat="45.9757" lon="6.5523">
        <ele>1855.3</ele>
        <time>2026-02-02T12:12:20Z</time>
      </trkpt>
      <trkpt lat="45.9757" lon="6.5523">
        <ele>1855.3</ele>
        <time>2026-02-02T12:12:21Z</time>
      </trkpt>
      <trkpt lat="45.9757" lon="6.5523">
        <ele>1855.3</ele>
        <time>2026-02-02T12:12:22Z</time>
      </trkpt>
      <trkpt lat="45.9757" lon="6.5523">
        <ele>1855.3</ele>
        <time>2026-02-02T12:12:23Z</time>
      </trkpt>
      <trkpt lat="45.9757" lon="6.5523">
        <ele>1855.3</ele>
        <time>2026-02-02T12:12:24Z</time>
      </trkpt>
      <trkpt lat="45.9757" lon="6.5523">
        <ele>1855.3</ele>
        <time>2026-02-02T12:12:25Z</time>
      </trkpt>
      <trkpt lat="45.9757" lon="6.5523">
        <ele>1855.4</ele>
        <time>2026-02-02T12:12:26Z</time>
      </trkpt>
      <trkpt lat="45.97571" lon="6.5523">
        <ele>1855.4</ele>
        <time>2026-02-02T12:12:27Z</time>
      </trkpt>
      <trkpt lat="45.97572" lon="6.5523">
        <ele>1855.4</ele>
        <time>2026-02-02T12:12:29Z</time>
      </trkpt>
      <trkpt lat="45.97573" lon="6.5523">
        <ele>1855.6</ele>
        <time>2026-02-02T12:12:30Z</time>
      </trkpt>
      <trkpt lat="45.97574" lon="6.5523">
        <ele>1855.6</ele>
        <time>2026-02-02T12:12:31Z</time>
      </trkpt>
      <trkpt lat="45.97575" lon="6.5523">
        <ele>1855.6</ele>
        <time>2026-02-02T12:12:32Z</time>
      </trkpt>
      <trkpt lat="45.97576" lon="6.5523">
        <ele>1855.6</ele>
        <time>2026-02-02T12:12:33Z</time>
      </trkpt>
      <trkpt lat="45.97576" lon="6.55231">
        <ele>1855.6</ele>
        <time>2026-02-02T12:12:34Z</time>
      </trkpt>
      <trkpt lat="45.97576" lon="6.55231">
        <ele>1855.6</ele>
        <time>2026-02-02T12:12:35Z</time>
      </trkpt>
      <trkpt lat="45.97577" lon="6.55231">
        <ele>1855.6</ele>
        <time>2026-02-02T12:12:36Z</time>
      </trkpt>
      <trkpt lat="45.97577" lon="6.55231">
        <ele>1855.6</ele>
        <time>2026-02-02T12:12:37Z</time>
      </trkpt>
      <trkpt lat="45.97578" lon="6.55231">
        <ele>1855.6</ele>
        <time>2026-02-02T12:12:38Z</time>
      </trkpt>
      <trkpt lat="45.97578" lon="6.55231">
        <ele>1855.6</ele>
        <time>2026-02-02T12:12:39Z</time>
      </trkpt>
      <trkpt lat="45.97579" lon="6.55231">
        <ele>1855.6</ele>
        <time>2026-02-02T12:12:40Z</time>
      </trkpt>
      <trkpt lat="45.97579" lon="6.55231">
        <ele>1855.6</ele>
        <time>2026-02-02T12:12:41Z</time>
      </trkpt>
      <trkpt lat="45.9758" lon="6.55231">
        <ele>1855.6</ele>
        <time>2026-02-02T12:12:42Z</time>
      </trkpt>
      <trkpt lat="45.97581" lon="6.55231">
        <ele>1855.6</ele>
        <time>2026-02-02T12:12:43Z</time>
      </trkpt>
      <trkpt lat="45.97581" lon="6.55231">
        <ele>1855.6</ele>
        <time>2026-02-02T12:12:44Z</time>
      </trkpt>
      <trkpt lat="45.97583" lon="6.55231">
        <ele>1855.6</ele>
        <time>2026-02-02T12:12:45Z</time>
      </trkpt>
      <trkpt lat="45.97583" lon="6.55231">
        <ele>1855.6</ele>
        <time>2026-02-02T12:12:46Z</time>
      </trkpt>
      <trkpt lat="45.97584" lon="6.55231">
        <ele>1855.6</ele>
        <time>2026-02-02T12:12:47Z</time>
      </trkpt>
      <trkpt lat="45.97584" lon="6.55231">
        <ele>1855.6</ele>
        <time>2026-02-02T12:12:48Z</time>
      </trkpt>
      <trkpt lat="45.97585" lon="6.55231">
        <ele>1855.6</ele>
        <time>2026-02-02T12:12:49Z</time>
      </trkpt>
      <trkpt lat="45.97585" lon="6.55231">
        <ele>1855.6</ele>
        <time>2026-02-02T12:12:50Z</time>
      </trkpt>
      <trkpt lat="45.97585" lon="6.55231">
        <ele>1855.6</ele>
        <time>2026-02-02T12:12:51Z</time>
      </trkpt>
      <trkpt lat="45.97585" lon="6.55231">
        <ele>1855.6</ele>
        <time>2026-02-02T12:12:52Z</time>
      </trkpt>
      <trkpt lat="45.97585" lon="6.55231">
        <ele>1855.4</ele>
        <time>2026-02-02T12:12:53Z</time>
      </trkpt>
      <trkpt lat="45.97585" lon="6.55231">
        <ele>1855.4</ele>
        <time>2026-02-02T12:12:54Z</time>
      </trkpt>
      <trkpt lat="45.97585" lon="6.55231">
        <ele>1855.4</ele>
        <time>2026-02-02T12:12:55Z</time>
      </trkpt>
      <trkpt lat="45.97585" lon="6.55231">
        <ele>1855.4</ele>
        <time>2026-02-02T12:12:56Z</time>
      </trkpt>
      <trkpt lat="45.97586" lon="6.55231">
        <ele>1855.4</ele>
        <time>2026-02-02T12:12:57Z</time>
      </trkpt>
      <trkpt lat="45.97586" lon="6.5523">
        <ele>1855.4</ele>
        <time>2026-02-02T12:12:58Z</time>
      </trkpt>
      <trkpt lat="45.97586" lon="6.5523">
        <ele>1855.4</ele>
        <time>2026-02-02T12:12:59Z</time>
      </trkpt>
      <trkpt lat="45.97586" lon="6.5523">
        <ele>1855.4</ele>
        <time>2026-02-02T12:13:00Z</time>
      </trkpt>
      <trkpt lat="45.97586" lon="6.5523">
        <ele>1855.4</ele>
        <time>2026-02-02T12:13:01Z</time>
      </trkpt>
      <trkpt lat="45.97586" lon="6.5523">
        <ele>1855.4</ele>
        <time>2026-02-02T12:13:02Z</time>
      </trkpt>
      <trkpt lat="45.97586" lon="6.5523">
        <ele>1855.4</ele>
        <time>2026-02-02T12:13:03Z</time>
      </trkpt>
      <trkpt lat="45.97586" lon="6.5523">
        <ele>1855.4</ele>
        <time>2026-02-02T12:13:04Z</time>
      </trkpt>
      <trkpt lat="45.97587" lon="6.5523">
        <ele>1855.4</ele>
        <time>2026-02-02T12:13:05Z</time>
      </trkpt>
      <trkpt lat="45.97587" lon="6.5523">
        <ele>1855.4</ele>
        <time>2026-02-02T12:13:06Z</time>
      </trkpt>
      <trkpt lat="45.97587" lon="6.5523">
        <ele>1855.4</ele>
        <time>2026-02-02T12:13:07Z</time>
      </trkpt>
      <trkpt lat="45.97587" lon="6.5523">
        <ele>1855.4</ele>
        <time>2026-02-02T12:13:08Z</time>
      </trkpt>
      <trkpt lat="45.97587" lon="6.5523">
        <ele>1855.4</ele>
        <time>2026-02-02T12:13:09Z</time>
      </trkpt>
      <trkpt lat="45.97588" lon="6.5523">
        <ele>1855.3</ele>
        <time>2026-02-02T12:13:10Z</time>
      </trkpt>
      <trkpt lat="45.97589" lon="6.55231">
        <ele>1855.3</ele>
        <time>2026-02-02T12:13:11Z</time>
      </trkpt>
      <trkpt lat="45.9759" lon="6.55231">
        <ele>1855.3</ele>
        <time>2026-02-02T12:13:12Z</time>
      </trkpt>
      <trkpt lat="45.97591" lon="6.55231">
        <ele>1855.1</ele>
        <time>2026-02-02T12:13:13Z</time>
      </trkpt>
      <trkpt lat="45.97593" lon="6.55231">
        <ele>1855.1</ele>
        <time>2026-02-02T12:13:14Z</time>
      </trkpt>
      <trkpt lat="45.97593" lon="6.55231">
        <ele>1855.1</ele>
        <time>2026-02-02T12:13:15Z</time>
      </trkpt>
      <trkpt lat="45.97593" lon="6.55232">
        <ele>1856.9</ele>
        <time>2026-02-02T12:13:16Z</time>
      </trkpt>
      <trkpt lat="45.97593" lon="6.55232">
        <ele>1856.9</ele>
        <time>2026-02-02T12:13:17Z</time>
      </trkpt>
      <trkpt lat="45.97594" lon="6.55232">
        <ele>1856.9</ele>
        <time>2026-02-02T12:13:18Z</time>
      </trkpt>
      <trkpt lat="45.97594" lon="6.55232">
        <ele>1856.7</ele>
        <time>2026-02-02T12:13:19Z</time>
      </trkpt>
      <trkpt lat="45.97595" lon="6.55232">
        <ele>1856.7</ele>
        <time>2026-02-02T12:13:20Z</time>
      </trkpt>
      <trkpt lat="45.97596" lon="6.55232">
        <ele>1856.7</ele>
        <time>2026-02-02T12:13:21Z</time>
      </trkpt>
      <trkpt lat="45.97597" lon="6.55232">
        <ele>1856.7</ele>
        <time>2026-02-02T12:13:22Z</time>
      </trkpt>
      <trkpt lat="45.97598" lon="6.55232">
        <ele>1856.5</ele>
        <time>2026-02-02T12:13:23Z</time>
      </trkpt>
      <trkpt lat="45.97599" lon="6.55232">
        <ele>1856.5</ele>
        <time>2026-02-02T12:13:24Z</time>
      </trkpt>
      <trkpt lat="45.976" lon="6.55232">
        <ele>1856.5</ele>
        <time>2026-02-02T12:13:25Z</time>
      </trkpt>
      <trkpt lat="45.97601" lon="6.55232">
        <ele>1856.2</ele>
        <time>2026-02-02T12:13:26Z</time>
      </trkpt>
      <trkpt lat="45.97601" lon="6.55232">
        <ele>1856.2</ele>
        <time>2026-02-02T12:13:27Z</time>
      </trkpt>
      <trkpt lat="45.97602" lon="6.55232">
        <ele>1856.2</ele>
        <time>2026-02-02T12:13:28Z</time>
      </trkpt>
      <trkpt lat="45.97602" lon="6.55232">
        <ele>1856.2</ele>
        <time>2026-02-02T12:13:29Z</time>
      </trkpt>
      <trkpt lat="45.97602" lon="6.55232">
        <ele>1856.2</ele>
        <time>2026-02-02T12:13:30Z</time>
      </trkpt>
      <trkpt lat="45.97601" lon="6.55232">
        <ele>1856.2</ele>
        <time>2026-02-02T12:13:31Z</time>
      </trkpt>
      <trkpt lat="45.97601" lon="6.55232">
        <ele>1856.2</ele>
        <time>2026-02-02T12:13:32Z</time>
      </trkpt>
      <trkpt lat="45.97601" lon="6.55232">
        <ele>1856.2</ele>
        <time>2026-02-02T12:13:33Z</time>
      </trkpt>
      <trkpt lat="45.97601" lon="6.55232">
        <ele>1856.2</ele>
        <time>2026-02-02T12:13:34Z</time>
      </trkpt>
      <trkpt lat="45.97601" lon="6.55232">
        <ele>1856.2</ele>
        <time>2026-02-02T12:13:35Z</time>
      </trkpt>
      <trkpt lat="45.97601" lon="6.55232">
        <ele>1856.2</ele>
        <time>2026-02-02T12:13:36Z</time>
      </trkpt>
      <trkpt lat="45.97601" lon="6.55231">
        <ele>1854.6</ele>
        <time>2026-02-02T12:13:37Z</time>
      </trkpt>
      <trkpt lat="45.97601" lon="6.55231">
        <ele>1854.6</ele>
        <time>2026-02-02T12:13:38Z</time>
      </trkpt>
      <trkpt lat="45.97601" lon="6.55231">
        <ele>1854.6</ele>
        <time>2026-02-02T12:13:39Z</time>
      </trkpt>
      <trkpt lat="45.97601" lon="6.55231">
        <ele>1854.6</ele>
        <time>2026-02-02T12:13:40Z</time>
      </trkpt>
      <trkpt lat="45.97601" lon="6.55231">
        <ele>1854.6</ele>
        <time>2026-02-02T12:13:41Z</time>
      </trkpt>
      <trkpt lat="45.97601" lon="6.55231">
        <ele>1854.6</ele>
        <time>2026-02-02T12:13:42Z</time>
      </trkpt>
      <trkpt lat="45.97601" lon="6.55231">
        <ele>1854.6</ele>
        <time>2026-02-02T12:13:43Z</time>
      </trkpt>
      <trkpt lat="45.97601" lon="6.55231">
        <ele>1854.6</ele>
        <time>2026-02-02T12:13:44Z</time>
      </trkpt>
      <trkpt lat="45.97601" lon="6.55231">
        <ele>1854.6</ele>
        <time>2026-02-02T12:13:45Z</time>
      </trkpt>
      <trkpt lat="45.97602" lon="6.55231">
        <ele>1854.6</ele>
        <time>2026-02-02T12:13:46Z</time>
      </trkpt>
      <trkpt lat="45.97603" lon="6.55231">
        <ele>1854.6</ele>
        <time>2026-02-02T12:13:47Z</time>
      </trkpt>
      <trkpt lat="45.97603" lon="6.55231">
        <ele>1854.3</ele>
        <time>2026-02-02T12:13:48Z</time>
      </trkpt>
      <trkpt lat="45.97604" lon="6.55231">
        <ele>1854.3</ele>
        <time>2026-02-02T12:13:49Z</time>
      </trkpt>
      <trkpt lat="45.97605" lon="6.55231">
        <ele>1854.3</ele>
        <time>2026-02-02T12:13:50Z</time>
      </trkpt>
      <trkpt lat="45.97606" lon="6.55231">
        <ele>1854</ele>
        <time>2026-02-02T12:13:51Z</time>
      </trkpt>
      <trkpt lat="45.97607" lon="6.55231">
        <ele>1854</ele>
        <time>2026-02-02T12:13:52Z</time>
      </trkpt>
      <trkpt lat="45.97608" lon="6.55232">
        <ele>1855.6</ele>
        <time>2026-02-02T12:13:53Z</time>
      </trkpt>
      <trkpt lat="45.97609" lon="6.55232">
        <ele>1855.6</ele>
        <time>2026-02-02T12:13:54Z</time>
      </trkpt>
      <trkpt lat="45.97609" lon="6.55232">
        <ele>1855.3</ele>
        <time>2026-02-02T12:13:55Z</time>
      </trkpt>
      <trkpt lat="45.9761" lon="6.55233">
        <ele>1855.3</ele>
        <time>2026-02-02T12:13:56Z</time>
      </trkpt>
      <trkpt lat="45.97611" lon="6.55233">
        <ele>1855.3</ele>
        <time>2026-02-02T12:13:57Z</time>
      </trkpt>
      <trkpt lat="45.97612" lon="6.55234">
        <ele>1854.9</ele>
        <time>2026-02-02T12:13:58Z</time>
      </trkpt>
      <trkpt lat="45.97614" lon="6.55234">
        <ele>1854.9</ele>
        <time>2026-02-02T12:13:59Z</time>
      </trkpt>
      <trkpt lat="45.97614" lon="6.55234">
        <ele>1854.9</ele>
        <time>2026-02-02T12:14:00Z</time>
      </trkpt>
      <trkpt lat="45.97615" lon="6.55235">
        <ele>1854.9</ele>
        <time>2026-02-02T12:14:01Z</time>
      </trkpt>
      <trkpt lat="45.97616" lon="6.55235">
        <ele>1854.4</ele>
        <time>2026-02-02T12:14:02Z</time>
      </trkpt>
      <trkpt lat="45.97616" lon="6.55235">
        <ele>1854.4</ele>
        <time>2026-02-02T12:14:03Z</time>
      </trkpt>
      <trkpt lat="45.97617" lon="6.55235">
        <ele>1854.4</ele>
        <time>2026-02-02T12:14:04Z</time>
      </trkpt>
      <trkpt lat="45.97619" lon="6.55235">
        <ele>1854</ele>
        <time>2026-02-02T12:14:05Z</time>
      </trkpt>
      <trkpt lat="45.9762" lon="6.55235">
        <ele>1854</ele>
        <time>2026-02-02T12:14:06Z</time>
      </trkpt>
      <trkpt lat="45.97621" lon="6.55235">
        <ele>1854</ele>
        <time>2026-02-02T12:14:07Z</time>
      </trkpt>
      <trkpt lat="45.97622" lon="6.55236">
        <ele>1853.5</ele>
        <time>2026-02-02T12:14:08Z</time>
      </trkpt>
      <trkpt lat="45.97622" lon="6.55236">
        <ele>1853.5</ele>
        <time>2026-02-02T12:14:09Z</time>
      </trkpt>
      <trkpt lat="45.97622" lon="6.55236">
        <ele>1853.5</ele>
        <time>2026-02-02T12:14:10Z</time>
      </trkpt>
      <trkpt lat="45.97621" lon="6.55236">
        <ele>1855.1</ele>
        <time>2026-02-02T12:14:11Z</time>
      </trkpt>
      <trkpt lat="45.97621" lon="6.55236">
        <ele>1853.5</ele>
        <time>2026-02-02T12:14:12Z</time>
      </trkpt>
      <trkpt lat="45.97621" lon="6.55236">
        <ele>1853.5</ele>
        <time>2026-02-02T12:14:13Z</time>
      </trkpt>
      <trkpt lat="45.97621" lon="6.55236">
        <ele>1853.5</ele>
        <time>2026-02-02T12:14:14Z</time>
      </trkpt>
      <trkpt lat="45.97621" lon="6.55236">
        <ele>1853.5</ele>
        <time>2026-02-02T12:14:15Z</time>
      </trkpt>
      <trkpt lat="45.97621" lon="6.55235">
        <ele>1853.5</ele>
        <time>2026-02-02T12:14:16Z</time>
      </trkpt>
      <trkpt lat="45.97621" lon="6.55235">
        <ele>1853.5</ele>
        <time>2026-02-02T12:14:17Z</time>
      </trkpt>
      <trkpt lat="45.97621" lon="6.55235">
        <ele>1853.5</ele>
        <time>2026-02-02T12:14:18Z</time>
      </trkpt>
      <trkpt lat="45.97621" lon="6.55235">
        <ele>1853.5</ele>
        <time>2026-02-02T12:14:19Z</time>
      </trkpt>
      <trkpt lat="45.97621" lon="6.55235">
        <ele>1853.5</ele>
        <time>2026-02-02T12:14:20Z</time>
      </trkpt>
      <trkpt lat="45.97621" lon="6.55235">
        <ele>1853.5</ele>
        <time>2026-02-02T12:14:21Z</time>
      </trkpt>
      <trkpt lat="45.97621" lon="6.55235">
        <ele>1853.5</ele>
        <time>2026-02-02T12:14:22Z</time>
      </trkpt>
      <trkpt lat="45.97621" lon="6.55235">
        <ele>1853.5</ele>
        <time>2026-02-02T12:14:23Z</time>
      </trkpt>
      <trkpt lat="45.97621" lon="6.55235">
        <ele>1853.5</ele>
        <time>2026-02-02T12:14:24Z</time>
      </trkpt>
      <trkpt lat="45.97621" lon="6.55235">
        <ele>1853.5</ele>
        <time>2026-02-02T12:14:25Z</time>
      </trkpt>
      <trkpt lat="45.97621" lon="6.55235">
        <ele>1853.5</ele>
        <time>2026-02-02T12:14:26Z</time>
      </trkpt>
      <trkpt lat="45.97621" lon="6.55235">
        <ele>1853.5</ele>
        <time>2026-02-02T12:14:27Z</time>
      </trkpt>
      <trkpt lat="45.97621" lon="6.55236">
        <ele>1853.5</ele>
        <time>2026-02-02T12:14:28Z</time>
      </trkpt>
      <trkpt lat="45.97622" lon="6.55236">
        <ele>1853.5</ele>
        <time>2026-02-02T12:14:29Z</time>
      </trkpt>
      <trkpt lat="45.97623" lon="6.55236">
        <ele>1855.1</ele>
        <time>2026-02-02T12:14:30Z</time>
      </trkpt>
      <trkpt lat="45.97623" lon="6.55236">
        <ele>1855.1</ele>
        <time>2026-02-02T12:14:31Z</time>
      </trkpt>
      <trkpt lat="45.97624" lon="6.55235">
        <ele>1853.5</ele>
        <time>2026-02-02T12:14:32Z</time>
      </trkpt>
      <trkpt lat="45.97624" lon="6.55235">
        <ele>1853</ele>
        <time>2026-02-02T12:14:33Z</time>
      </trkpt>
      <trkpt lat="45.97625" lon="6.55236">
        <ele>1853</ele>
        <time>2026-02-02T12:14:34Z</time>
      </trkpt>
      <trkpt lat="45.97626" lon="6.55236">
        <ele>1853</ele>
        <time>2026-02-02T12:14:35Z</time>
      </trkpt>
      <trkpt lat="45.97627" lon="6.55236">
        <ele>1853</ele>
        <time>2026-02-02T12:14:36Z</time>
      </trkpt>
      <trkpt lat="45.97628" lon="6.55236">
        <ele>1852.4</ele>
        <time>2026-02-02T12:14:37Z</time>
      </trkpt>
      <trkpt lat="45.97629" lon="6.55236">
        <ele>1852.4</ele>
        <time>2026-02-02T12:14:38Z</time>
      </trkpt>
      <trkpt lat="45.9763" lon="6.55236">
        <ele>1853.2</ele>
        <time>2026-02-02T12:14:39Z</time>
      </trkpt>
      <trkpt lat="45.97631" lon="6.55236">
        <ele>1853.2</ele>
        <time>2026-02-02T12:14:40Z</time>
      </trkpt>
      <trkpt lat="45.97632" lon="6.55237">
        <ele>1853.2</ele>
        <time>2026-02-02T12:14:41Z</time>
      </trkpt>
      <trkpt lat="45.97632" lon="6.55237">
        <ele>1853.2</ele>
        <time>2026-02-02T12:14:42Z</time>
      </trkpt>
      <trkpt lat="45.97633" lon="6.55237">
        <ele>1852.3</ele>
        <time>2026-02-02T12:14:43Z</time>
      </trkpt>
      <trkpt lat="45.97634" lon="6.55238">
        <ele>1852.3</ele>
        <time>2026-02-02T12:14:44Z</time>
      </trkpt>
      <trkpt lat="45.97634" lon="6.55238">
        <ele>1852.3</ele>
        <time>2026-02-02T12:14:45Z</time>
      </trkpt>
      <trkpt lat="45.97634" lon="6.55238">
        <ele>1852.3</ele>
        <time>2026-02-02T12:14:46Z</time>
      </trkpt>
      <trkpt lat="45.97635" lon="6.55239">
        <ele>1852.3</ele>
        <time>2026-02-02T12:14:47Z</time>
      </trkpt>
      <trkpt lat="45.97635" lon="6.55239">
        <ele>1852.3</ele>
        <time>2026-02-02T12:14:48Z</time>
      </trkpt>
      <trkpt lat="45.97636" lon="6.5524">
        <ele>1851.4</ele>
        <time>2026-02-02T12:14:49Z</time>
      </trkpt>
      <trkpt lat="45.97637" lon="6.5524">
        <ele>1852.9</ele>
        <time>2026-02-02T12:14:50Z</time>
      </trkpt>
      <trkpt lat="45.97637" lon="6.55241">
        <ele>1852.9</ele>
        <time>2026-02-02T12:14:51Z</time>
      </trkpt>
      <trkpt lat="45.97638" lon="6.55241">
        <ele>1852.9</ele>
        <time>2026-02-02T12:14:52Z</time>
      </trkpt>
      <trkpt lat="45.97639" lon="6.55242">
        <ele>1851.9</ele>
        <time>2026-02-02T12:14:53Z</time>
      </trkpt>
      <trkpt lat="45.9764" lon="6.55243">
        <ele>1851.9</ele>
        <time>2026-02-02T12:14:54Z</time>
      </trkpt>
      <trkpt lat="45.9764" lon="6.55244">
        <ele>1851.9</ele>
        <time>2026-02-02T12:14:55Z</time>
      </trkpt>
      <trkpt lat="45.97641" lon="6.55244">
        <ele>1851.9</ele>
        <time>2026-02-02T12:14:56Z</time>
      </trkpt>
      <trkpt lat="45.97641" lon="6.55245">
        <ele>1853.4</ele>
        <time>2026-02-02T12:14:57Z</time>
      </trkpt>
      <trkpt lat="45.97642" lon="6.55246">
        <ele>1852.4</ele>
        <time>2026-02-02T12:14:58Z</time>
      </trkpt>
      <trkpt lat="45.97642" lon="6.55247">
        <ele>1852.4</ele>
        <time>2026-02-02T12:14:59Z</time>
      </trkpt>
      <trkpt lat="45.97643" lon="6.55248">
        <ele>1852.4</ele>
        <time>2026-02-02T12:15:00Z</time>
      </trkpt>
      <trkpt lat="45.97645" lon="6.5525">
        <ele>1852.8</ele>
        <time>2026-02-02T12:15:01Z</time>
      </trkpt>
      <trkpt lat="45.97646" lon="6.55251">
        <ele>1852.8</ele>
        <time>2026-02-02T12:15:02Z</time>
      </trkpt>
      <trkpt lat="45.97647" lon="6.55252">
        <ele>1852.8</ele>
        <time>2026-02-02T12:15:03Z</time>
      </trkpt>
      <trkpt lat="45.97648" lon="6.55253">
        <ele>1852.8</ele>
        <time>2026-02-02T12:15:04Z</time>
      </trkpt>
      <trkpt lat="45.97648" lon="6.55254">
        <ele>1853.1</ele>
        <time>2026-02-02T12:15:05Z</time>
      </trkpt>
      <trkpt lat="45.97648" lon="6.55254">
        <ele>1853.1</ele>
        <time>2026-02-02T12:15:06Z</time>
      </trkpt>
      <trkpt lat="45.97648" lon="6.55255">
        <ele>1853.1</ele>
        <time>2026-02-02T12:15:07Z</time>
      </trkpt>
      <trkpt lat="45.97648" lon="6.55254">
        <ele>1853.1</ele>
        <time>2026-02-02T12:15:08Z</time>
      </trkpt>
      <trkpt lat="45.97648" lon="6.55254">
        <ele>1853.1</ele>
        <time>2026-02-02T12:15:09Z</time>
      </trkpt>
      <trkpt lat="45.97648" lon="6.55253">
        <ele>1851.7</ele>
        <time>2026-02-02T12:15:10Z</time>
      </trkpt>
      <trkpt lat="45.97648" lon="6.55253">
        <ele>1852.8</ele>
        <time>2026-02-02T12:15:11Z</time>
      </trkpt>
      <trkpt lat="45.97647" lon="6.55252">
        <ele>1852.8</ele>
        <time>2026-02-02T12:15:12Z</time>
      </trkpt>
      <trkpt lat="45.97647" lon="6.55252">
        <ele>1852.8</ele>
        <time>2026-02-02T12:15:13Z</time>
      </trkpt>
      <trkpt lat="45.97647" lon="6.55252">
        <ele>1852.8</ele>
        <time>2026-02-02T12:15:14Z</time>
      </trkpt>
      <trkpt lat="45.97647" lon="6.55252">
        <ele>1852.8</ele>
        <time>2026-02-02T12:15:15Z</time>
      </trkpt>
      <trkpt lat="45.97647" lon="6.55252">
        <ele>1852.8</ele>
        <time>2026-02-02T12:15:16Z</time>
      </trkpt>
      <trkpt lat="45.97647" lon="6.55252">
        <ele>1852.8</ele>
        <time>2026-02-02T12:15:17Z</time>
      </trkpt>
      <trkpt lat="45.97647" lon="6.55252">
        <ele>1852.8</ele>
        <time>2026-02-02T12:15:18Z</time>
      </trkpt>
      <trkpt lat="45.97647" lon="6.55252">
        <ele>1852.8</ele>
        <time>2026-02-02T12:15:19Z</time>
      </trkpt>
      <trkpt lat="45.97647" lon="6.55252">
        <ele>1852.8</ele>
        <time>2026-02-02T12:15:20Z</time>
      </trkpt>
      <trkpt lat="45.97647" lon="6.55252">
        <ele>1852.8</ele>
        <time>2026-02-02T12:15:21Z</time>
      </trkpt>
      <trkpt lat="45.97647" lon="6.55252">
        <ele>1852.8</ele>
        <time>2026-02-02T12:15:22Z</time>
      </trkpt>
      <trkpt lat="45.97647" lon="6.55252">
        <ele>1852.8</ele>
        <time>2026-02-02T12:15:23Z</time>
      </trkpt>
      <trkpt lat="45.97647" lon="6.55252">
        <ele>1852.8</ele>
        <time>2026-02-02T12:15:24Z</time>
      </trkpt>
      <trkpt lat="45.97647" lon="6.55252">
        <ele>1852.8</ele>
        <time>2026-02-02T12:15:25Z</time>
      </trkpt>
      <trkpt lat="45.97647" lon="6.55252">
        <ele>1852.8</ele>
        <time>2026-02-02T12:15:26Z</time>
      </trkpt>
      <trkpt lat="45.97647" lon="6.55252">
        <ele>1852.8</ele>
        <time>2026-02-02T12:15:27Z</time>
      </trkpt>
      <trkpt lat="45.97647" lon="6.55252">
        <ele>1852.8</ele>
        <time>2026-02-02T12:15:28Z</time>
      </trkpt>
      <trkpt lat="45.97647" lon="6.55251">
        <ele>1852.8</ele>
        <time>2026-02-02T12:15:29Z</time>
      </trkpt>
      <trkpt lat="45.97647" lon="6.55251">
        <ele>1852.8</ele>
        <time>2026-02-02T12:15:30Z</time>
      </trkpt>
      <trkpt lat="45.97646" lon="6.55251">
        <ele>1852.8</ele>
        <time>2026-02-02T12:15:31Z</time>
      </trkpt>
      <trkpt lat="45.97646" lon="6.55251">
        <ele>1852.8</ele>
        <time>2026-02-02T12:15:32Z</time>
      </trkpt>
      <trkpt lat="45.97646" lon="6.55251">
        <ele>1852.8</ele>
        <time>2026-02-02T12:15:33Z</time>
      </trkpt>
      <trkpt lat="45.97646" lon="6.55251">
        <ele>1852.8</ele>
        <time>2026-02-02T12:15:34Z</time>
      </trkpt>
      <trkpt lat="45.97646" lon="6.55251">
        <ele>1852.8</ele>
        <time>2026-02-02T12:15:35Z</time>
      </trkpt>
      <trkpt lat="45.97645" lon="6.55252">
        <ele>1852.8</ele>
        <time>2026-02-02T12:15:37Z</time>
      </trkpt>
      <trkpt lat="45.97645" lon="6.55251">
        <ele>1852.8</ele>
        <time>2026-02-02T12:15:38Z</time>
      </trkpt>
      <trkpt lat="45.97645" lon="6.55251">
        <ele>1852.8</ele>
        <time>2026-02-02T12:15:39Z</time>
      </trkpt>
      <trkpt lat="45.97645" lon="6.55251">
        <ele>1853.8</ele>
        <time>2026-02-02T12:15:40Z</time>
      </trkpt>
      <trkpt lat="45.97645" lon="6.55251">
        <ele>1853.8</ele>
        <time>2026-02-02T12:15:41Z</time>
      </trkpt>
      <trkpt lat="45.97644" lon="6.55251">
        <ele>1853.8</ele>
        <time>2026-02-02T12:15:42Z</time>
      </trkpt>
      <trkpt lat="45.97644" lon="6.55251">
        <ele>1853.8</ele>
        <time>2026-02-02T12:15:43Z</time>
      </trkpt>
      <trkpt lat="45.97645" lon="6.55251">
        <ele>1853.8</ele>
        <time>2026-02-02T12:15:44Z</time>
      </trkpt>
      <trkpt lat="45.97644" lon="6.55251">
        <ele>1853.8</ele>
        <time>2026-02-02T12:15:45Z</time>
      </trkpt>
      <trkpt lat="45.97644" lon="6.55252">
        <ele>1853.8</ele>
        <time>2026-02-02T12:15:46Z</time>
      </trkpt>
      <trkpt lat="45.97644" lon="6.55252">
        <ele>1853.8</ele>
        <time>2026-02-02T12:15:47Z</time>
      </trkpt>
      <trkpt lat="45.97644" lon="6.55251">
        <ele>1853.8</ele>
        <time>2026-02-02T12:15:48Z</time>
      </trkpt>
      <trkpt lat="45.97644" lon="6.55251">
        <ele>1853.8</ele>
        <time>2026-02-02T12:15:49Z</time>
      </trkpt>
      <trkpt lat="45.97644" lon="6.55251">
        <ele>1853.8</ele>
        <time>2026-02-02T12:15:50Z</time>
      </trkpt>
      <trkpt lat="45.97643" lon="6.55251">
        <ele>1853.8</ele>
        <time>2026-02-02T12:15:51Z</time>
      </trkpt>
      <trkpt lat="45.97642" lon="6.55252">
        <ele>1853.8</ele>
        <time>2026-02-02T12:15:52Z</time>
      </trkpt>
      <trkpt lat="45.97641" lon="6.55253">
        <ele>1854.9</ele>
        <time>2026-02-02T12:15:53Z</time>
      </trkpt>
      <trkpt lat="45.9764" lon="6.55254">
        <ele>1856.3</ele>
        <time>2026-02-02T12:15:54Z</time>
      </trkpt>
      <trkpt lat="45.97639" lon="6.55255">
        <ele>1856.3</ele>
        <time>2026-02-02T12:15:55Z</time>
      </trkpt>
      <trkpt lat="45.97638" lon="6.55256">
        <ele>1857.3</ele>
        <time>2026-02-02T12:15:56Z</time>
      </trkpt>
      <trkpt lat="45.97637" lon="6.55256">
        <ele>1857.3</ele>
        <time>2026-02-02T12:15:57Z</time>
      </trkpt>
      <trkpt lat="45.97637" lon="6.55257">
        <ele>1857.3</ele>
        <time>2026-02-02T12:15:58Z</time>
      </trkpt>
      <trkpt lat="45.97636" lon="6.55258">
        <ele>1858.7</ele>
        <time>2026-02-02T12:15:59Z</time>
      </trkpt>
      <trkpt lat="45.97636" lon="6.55258">
        <ele>1859.6</ele>
        <time>2026-02-02T12:16:00Z</time>
      </trkpt>
      <trkpt lat="45.97635" lon="6.55259">
        <ele>1859.6</ele>
        <time>2026-02-02T12:16:01Z</time>
      </trkpt>
      <trkpt lat="45.97634" lon="6.55259">
        <ele>1859.6</ele>
        <time>2026-02-02T12:16:02Z</time>
      </trkpt>
      <trkpt lat="45.97633" lon="6.5526">
        <ele>1859.6</ele>
        <time>2026-02-02T12:16:03Z</time>
      </trkpt>
      <trkpt lat="45.97632" lon="6.55261">
        <ele>1860.5</ele>
        <time>2026-02-02T12:16:04Z</time>
      </trkpt>
      <trkpt lat="45.97632" lon="6.55262">
        <ele>1861.7</ele>
        <time>2026-02-02T12:16:05Z</time>
      </trkpt>
      <trkpt lat="45.97631" lon="6.55263">
        <ele>1861.7</ele>
        <time>2026-02-02T12:16:06Z</time>
      </trkpt>
      <trkpt lat="45.9763" lon="6.55264">
        <ele>1861.7</ele>
        <time>2026-02-02T12:16:07Z</time>
      </trkpt>
      <trkpt lat="45.97629" lon="6.55265">
        <ele>1862.6</ele>
        <time>2026-02-02T12:16:08Z</time>
      </trkpt>
      <trkpt lat="45.97629" lon="6.55265">
        <ele>1862.6</ele>
        <time>2026-02-02T12:16:09Z</time>
      </trkpt>
      <trkpt lat="45.97629" lon="6.55264">
        <ele>1862.6</ele>
        <time>2026-02-02T12:16:10Z</time>
      </trkpt>
      <trkpt lat="45.97629" lon="6.55265">
        <ele>1862.6</ele>
        <time>2026-02-02T12:16:11Z</time>
      </trkpt>
      <trkpt lat="45.97629" lon="6.55264">
        <ele>1862.6</ele>
        <time>2026-02-02T12:16:12Z</time>
      </trkpt>
      <trkpt lat="45.97629" lon="6.55264">
        <ele>1862.6</ele>
        <time>2026-02-02T12:16:13Z</time>
      </trkpt>
      <trkpt lat="45.9763" lon="6.55263">
        <ele>1862.6</ele>
        <time>2026-02-02T12:16:14Z</time>
      </trkpt>
      <trkpt lat="45.9763" lon="6.55263">
        <ele>1862.6</ele>
        <time>2026-02-02T12:16:15Z</time>
      </trkpt>
      <trkpt lat="45.9763" lon="6.55263">
        <ele>1862.6</ele>
        <time>2026-02-02T12:16:16Z</time>
      </trkpt>
      <trkpt lat="45.9763" lon="6.55263">
        <ele>1862.6</ele>
        <time>2026-02-02T12:16:17Z</time>
      </trkpt>
      <trkpt lat="45.9763" lon="6.55263">
        <ele>1861.7</ele>
        <time>2026-02-02T12:16:18Z</time>
      </trkpt>
      <trkpt lat="45.9763" lon="6.55262">
        <ele>1861.7</ele>
        <time>2026-02-02T12:16:19Z</time>
      </trkpt>
      <trkpt lat="45.97629" lon="6.55263">
        <ele>1862.6</ele>
        <time>2026-02-02T12:16:20Z</time>
      </trkpt>
      <trkpt lat="45.97628" lon="6.55264">
        <ele>1862.6</ele>
        <time>2026-02-02T12:16:21Z</time>
      </trkpt>
      <trkpt lat="45.97627" lon="6.55265">
        <ele>1862.6</ele>
        <time>2026-02-02T12:16:22Z</time>
      </trkpt>
      <trkpt lat="45.97626" lon="6.55266">
        <ele>1863.3</ele>
        <time>2026-02-02T12:16:23Z</time>
      </trkpt>
      <trkpt lat="45.97625" lon="6.55266">
        <ele>1864.4</ele>
        <time>2026-02-02T12:16:24Z</time>
      </trkpt>
      <trkpt lat="45.97624" lon="6.55267">
        <ele>1864.4</ele>
        <time>2026-02-02T12:16:25Z</time>
      </trkpt>
      <trkpt lat="45.97624" lon="6.55267">
        <ele>1865.1</ele>
        <time>2026-02-02T12:16:26Z</time>
      </trkpt>
      <trkpt lat="45.97623" lon="6.55268">
        <ele>1865.1</ele>
        <time>2026-02-02T12:16:27Z</time>
      </trkpt>
      <trkpt lat="45.97623" lon="6.55268">
        <ele>1865.1</ele>
        <time>2026-02-02T12:16:28Z</time>
      </trkpt>
      <trkpt lat="45.97622" lon="6.55269">
        <ele>1865.1</ele>
        <time>2026-02-02T12:16:29Z</time>
      </trkpt>
      <trkpt lat="45.97621" lon="6.55269">
        <ele>1865.1</ele>
        <time>2026-02-02T12:16:30Z</time>
      </trkpt>
      <trkpt lat="45.97621" lon="6.5527">
        <ele>1865.7</ele>
        <time>2026-02-02T12:16:32Z</time>
      </trkpt>
      <trkpt lat="45.9762" lon="6.55271">
        <ele>1866.8</ele>
        <time>2026-02-02T12:16:33Z</time>
      </trkpt>
      <trkpt lat="45.97619" lon="6.55272">
        <ele>1866.8</ele>
        <time>2026-02-02T12:16:34Z</time>
      </trkpt>
      <trkpt lat="45.97619" lon="6.55273">
        <ele>1866.8</ele>
        <time>2026-02-02T12:16:35Z</time>
      </trkpt>
      <trkpt lat="45.97618" lon="6.55274">
        <ele>1867.4</ele>
        <time>2026-02-02T12:16:36Z</time>
      </trkpt>
      <trkpt lat="45.97617" lon="6.55275">
        <ele>1868.5</ele>
        <time>2026-02-02T12:16:37Z</time>
      </trkpt>
      <trkpt lat="45.97616" lon="6.55276">
        <ele>1868.5</ele>
        <time>2026-02-02T12:16:39Z</time>
      </trkpt>
      <trkpt lat="45.97615" lon="6.55276">
        <ele>1868.5</ele>
        <time>2026-02-02T12:16:40Z</time>
      </trkpt>
      <trkpt lat="45.97614" lon="6.55277">
        <ele>1869.1</ele>
        <time>2026-02-02T12:16:41Z</time>
      </trkpt>
      <trkpt lat="45.97613" lon="6.55277">
        <ele>1869.1</ele>
        <time>2026-02-02T12:16:42Z</time>
      </trkpt>
      <trkpt lat="45.97613" lon="6.55278">
        <ele>1869.1</ele>
        <time>2026-02-02T12:16:43Z</time>
      </trkpt>
      <trkpt lat="45.97613" lon="6.55278">
        <ele>1869.1</ele>
        <time>2026-02-02T12:16:44Z</time>
      </trkpt>
      <trkpt lat="45.97613" lon="6.55278">
        <ele>1869.1</ele>
        <time>2026-02-02T12:16:45Z</time>
      </trkpt>
      <trkpt lat="45.97613" lon="6.55277">
        <ele>1869.1</ele>
        <time>2026-02-02T12:16:46Z</time>
      </trkpt>
      <trkpt lat="45.97614" lon="6.55277">
        <ele>1869.1</ele>
        <time>2026-02-02T12:16:47Z</time>
      </trkpt>
      <trkpt lat="45.97614" lon="6.55277">
        <ele>1869.1</ele>
        <time>2026-02-02T12:16:48Z</time>
      </trkpt>
      <trkpt lat="45.97614" lon="6.55277">
        <ele>1869.1</ele>
        <time>2026-02-02T12:16:49Z</time>
      </trkpt>
      <trkpt lat="45.97614" lon="6.55277">
        <ele>1869.1</ele>
        <time>2026-02-02T12:16:50Z</time>
      </trkpt>
      <trkpt lat="45.97614" lon="6.55277">
        <ele>1869.1</ele>
        <time>2026-02-02T12:16:51Z</time>
      </trkpt>
      <trkpt lat="45.97614" lon="6.55277">
        <ele>1869.1</ele>
        <time>2026-02-02T12:16:52Z</time>
      </trkpt>
      <trkpt lat="45.97614" lon="6.55277">
        <ele>1869.1</ele>
        <time>2026-02-02T12:16:53Z</time>
      </trkpt>
      <trkpt lat="45.97614" lon="6.55277">
        <ele>1869.1</ele>
        <time>2026-02-02T12:16:54Z</time>
      </trkpt>
      <trkpt lat="45.97614" lon="6.55277">
        <ele>1869.1</ele>
        <time>2026-02-02T12:16:55Z</time>
      </trkpt>
      <trkpt lat="45.97614" lon="6.55278">
        <ele>1869.1</ele>
        <time>2026-02-02T12:16:56Z</time>
      </trkpt>
      <trkpt lat="45.97613" lon="6.55278">
        <ele>1869.1</ele>
        <time>2026-02-02T12:16:57Z</time>
      </trkpt>
      <trkpt lat="45.97612" lon="6.55279">
        <ele>1870.7</ele>
        <time>2026-02-02T12:16:58Z</time>
      </trkpt>
      <trkpt lat="45.97611" lon="6.5528">
        <ele>1870.7</ele>
        <time>2026-02-02T12:16:59Z</time>
      </trkpt>
      <trkpt lat="45.9761" lon="6.55281">
        <ele>1870.7</ele>
        <time>2026-02-02T12:17:00Z</time>
      </trkpt>
      <trkpt lat="45.97609" lon="6.55282">
        <ele>1871.3</ele>
        <time>2026-02-02T12:17:01Z</time>
      </trkpt>
      <trkpt lat="45.97608" lon="6.55283">
        <ele>1871.3</ele>
        <time>2026-02-02T12:17:02Z</time>
      </trkpt>
      <trkpt lat="45.97607" lon="6.55284">
        <ele>1872.4</ele>
        <time>2026-02-02T12:17:03Z</time>
      </trkpt>
      <trkpt lat="45.97607" lon="6.55285">
        <ele>1872.4</ele>
        <time>2026-02-02T12:17:04Z</time>
      </trkpt>
      <trkpt lat="45.97606" lon="6.55286">
        <ele>1872.4</ele>
        <time>2026-02-02T12:17:05Z</time>
      </trkpt>
      <trkpt lat="45.97605" lon="6.55287">
        <ele>1872.9</ele>
        <time>2026-02-02T12:17:06Z</time>
      </trkpt>
      <trkpt lat="45.97605" lon="6.55287">
        <ele>1874</ele>
        <time>2026-02-02T12:17:07Z</time>
      </trkpt>
      <trkpt lat="45.97604" lon="6.55288">
        <ele>1874</ele>
        <time>2026-02-02T12:17:08Z</time>
      </trkpt>
      <trkpt lat="45.97604" lon="6.55289">
        <ele>1874</ele>
        <time>2026-02-02T12:17:09Z</time>
      </trkpt>
      <trkpt lat="45.97603" lon="6.55289">
        <ele>1874</ele>
        <time>2026-02-02T12:17:10Z</time>
      </trkpt>
      <trkpt lat="45.97603" lon="6.5529">
        <ele>1874.5</ele>
        <time>2026-02-02T12:17:11Z</time>
      </trkpt>
      <trkpt lat="45.97602" lon="6.55291">
        <ele>1874.5</ele>
        <time>2026-02-02T12:17:12Z</time>
      </trkpt>
      <trkpt lat="45.97602" lon="6.55292">
        <ele>1875.6</ele>
        <time>2026-02-02T12:17:13Z</time>
      </trkpt>
      <trkpt lat="45.97602" lon="6.55292">
        <ele>1875.6</ele>
        <time>2026-02-02T12:17:14Z</time>
      </trkpt>
      <trkpt lat="45.97602" lon="6.55291">
        <ele>1874.5</ele>
        <time>2026-02-02T12:17:15Z</time>
      </trkpt>
      <trkpt lat="45.97602" lon="6.55291">
        <ele>1874.5</ele>
        <time>2026-02-02T12:17:16Z</time>
      </trkpt>
      <trkpt lat="45.97602" lon="6.55291">
        <ele>1874.5</ele>
        <time>2026-02-02T12:17:17Z</time>
      </trkpt>
      <trkpt lat="45.97602" lon="6.5529">
        <ele>1874.5</ele>
        <time>2026-02-02T12:17:18Z</time>
      </trkpt>
      <trkpt lat="45.97602" lon="6.5529">
        <ele>1874.5</ele>
        <time>2026-02-02T12:17:19Z</time>
      </trkpt>
      <trkpt lat="45.97602" lon="6.5529">
        <ele>1874.5</ele>
        <time>2026-02-02T12:17:20Z</time>
      </trkpt>
      <trkpt lat="45.97602" lon="6.5529">
        <ele>1874.5</ele>
        <time>2026-02-02T12:17:21Z</time>
      </trkpt>
      <trkpt lat="45.97603" lon="6.5529">
        <ele>1874.5</ele>
        <time>2026-02-02T12:17:22Z</time>
      </trkpt>
      <trkpt lat="45.97603" lon="6.5529">
        <ele>1874</ele>
        <time>2026-02-02T12:17:23Z</time>
      </trkpt>
      <trkpt lat="45.97604" lon="6.5529">
        <ele>1874</ele>
        <time>2026-02-02T12:17:24Z</time>
      </trkpt>
      <trkpt lat="45.97605" lon="6.55289">
        <ele>1874</ele>
        <time>2026-02-02T12:17:25Z</time>
      </trkpt>
      <trkpt lat="45.97606" lon="6.5529">
        <ele>1873.5</ele>
        <time>2026-02-02T12:17:26Z</time>
      </trkpt>
      <trkpt lat="45.97608" lon="6.55291">
        <ele>1873.5</ele>
        <time>2026-02-02T12:17:27Z</time>
      </trkpt>
      <trkpt lat="45.97609" lon="6.55292">
        <ele>1874.7</ele>
        <time>2026-02-02T12:17:28Z</time>
      </trkpt>
      <trkpt lat="45.97611" lon="6.55294">
        <ele>1874.1</ele>
        <time>2026-02-02T12:17:30Z</time>
      </trkpt>
      <trkpt lat="45.97611" lon="6.55294">
        <ele>1874.1</ele>
        <time>2026-02-02T12:17:31Z</time>
      </trkpt>
      <trkpt lat="45.97612" lon="6.55295">
        <ele>1874.1</ele>
        <time>2026-02-02T12:17:32Z</time>
      </trkpt>
      <trkpt lat="45.97613" lon="6.55296">
        <ele>1873.5</ele>
        <time>2026-02-02T12:17:33Z</time>
      </trkpt>
      <trkpt lat="45.97613" lon="6.55297">
        <ele>1874.6</ele>
        <time>2026-02-02T12:17:34Z</time>
      </trkpt>
      <trkpt lat="45.97614" lon="6.55298">
        <ele>1874.6</ele>
        <time>2026-02-02T12:17:35Z</time>
      </trkpt>
      <trkpt lat="45.97615" lon="6.55299">
        <ele>1874</ele>
        <time>2026-02-02T12:17:36Z</time>
      </trkpt>
      <trkpt lat="45.97616" lon="6.553">
        <ele>1874</ele>
        <time>2026-02-02T12:17:37Z</time>
      </trkpt>
      <trkpt lat="45.97617" lon="6.55301">
        <ele>1875.1</ele>
        <time>2026-02-02T12:17:38Z</time>
      </trkpt>
      <trkpt lat="45.97617" lon="6.55302">
        <ele>1875.1</ele>
        <time>2026-02-02T12:17:39Z</time>
      </trkpt>
      <trkpt lat="45.97617" lon="6.55303">
        <ele>1875.1</ele>
        <time>2026-02-02T12:17:40Z</time>
      </trkpt>
      <trkpt lat="45.97618" lon="6.55305">
        <ele>1875.5</ele>
        <time>2026-02-02T12:17:41Z</time>
      </trkpt>
      <trkpt lat="45.97619" lon="6.55306">
        <ele>1875.5</ele>
        <time>2026-02-02T12:17:42Z</time>
      </trkpt>
      <trkpt lat="45.97619" lon="6.55307">
        <ele>1875.5</ele>
        <time>2026-02-02T12:17:44Z</time>
      </trkpt>
      <trkpt lat="45.97619" lon="6.55308">
        <ele>1875.5</ele>
        <time>2026-02-02T12:17:45Z</time>
      </trkpt>
      <trkpt lat="45.97619" lon="6.55307">
        <ele>1875.5</ele>
        <time>2026-02-02T12:17:46Z</time>
      </trkpt>
      <trkpt lat="45.97619" lon="6.55306">
        <ele>1875.5</ele>
        <time>2026-02-02T12:17:47Z</time>
      </trkpt>
      <trkpt lat="45.97619" lon="6.55305">
        <ele>1875.5</ele>
        <time>2026-02-02T12:17:48Z</time>
      </trkpt>
      <trkpt lat="45.97619" lon="6.55305">
        <ele>1875.5</ele>
        <time>2026-02-02T12:17:49Z</time>
      </trkpt>
      <trkpt lat="45.97619" lon="6.55305">
        <ele>1875.5</ele>
        <time>2026-02-02T12:17:50Z</time>
      </trkpt>
      <trkpt lat="45.97619" lon="6.55305">
        <ele>1875.5</ele>
        <time>2026-02-02T12:17:51Z</time>
      </trkpt>
      <trkpt lat="45.97619" lon="6.55305">
        <ele>1875.5</ele>
        <time>2026-02-02T12:17:52Z</time>
      </trkpt>
      <trkpt lat="45.97619" lon="6.55305">
        <ele>1875.5</ele>
        <time>2026-02-02T12:17:53Z</time>
      </trkpt>
      <trkpt lat="45.9762" lon="6.55306">
        <ele>1875.5</ele>
        <time>2026-02-02T12:17:54Z</time>
      </trkpt>
      <trkpt lat="45.9762" lon="6.55307">
        <ele>1875.5</ele>
        <time>2026-02-02T12:17:55Z</time>
      </trkpt>
      <trkpt lat="45.97621" lon="6.55309">
        <ele>1874.9</ele>
        <time>2026-02-02T12:17:56Z</time>
      </trkpt>
      <trkpt lat="45.97622" lon="6.55311">
        <ele>1875.9</ele>
        <time>2026-02-02T12:17:57Z</time>
      </trkpt>
      <trkpt lat="45.97622" lon="6.55313">
        <ele>1875.9</ele>
        <time>2026-02-02T12:17:58Z</time>
      </trkpt>
      <trkpt lat="45.97623" lon="6.55315">
        <ele>1876.9</ele>
        <time>2026-02-02T12:17:59Z</time>
      </trkpt>
      <trkpt lat="45.97623" lon="6.55316">
        <ele>1876.9</ele>
        <time>2026-02-02T12:18:00Z</time>
      </trkpt>
      <trkpt lat="45.97623" lon="6.55317">
        <ele>1876.9</ele>
        <time>2026-02-02T12:18:01Z</time>
      </trkpt>
      <trkpt lat="45.97624" lon="6.55317">
        <ele>1877.9</ele>
        <time>2026-02-02T12:18:02Z</time>
      </trkpt>
      <trkpt lat="45.97624" lon="6.55317">
        <ele>1877.1</ele>
        <time>2026-02-02T12:18:03Z</time>
      </trkpt>
      <trkpt lat="45.97624" lon="6.55317">
        <ele>1876.2</ele>
        <time>2026-02-02T12:18:04Z</time>
      </trkpt>
      <trkpt lat="45.97624" lon="6.55317">
        <ele>1876.9</ele>
        <time>2026-02-02T12:18:05Z</time>
      </trkpt>
      <trkpt lat="45.97624" lon="6.55316">
        <ele>1876.9</ele>
        <time>2026-02-02T12:18:06Z</time>
      </trkpt>
      <trkpt lat="45.97624" lon="6.55316">
        <ele>1876.9</ele>
        <time>2026-02-02T12:18:07Z</time>
      </trkpt>
      <trkpt lat="45.97624" lon="6.55316">
        <ele>1876.9</ele>
        <time>2026-02-02T12:18:08Z</time>
      </trkpt>
      <trkpt lat="45.97624" lon="6.55316">
        <ele>1876.9</ele>
        <time>2026-02-02T12:18:09Z</time>
      </trkpt>
      <trkpt lat="45.97624" lon="6.55316">
        <ele>1876.9</ele>
        <time>2026-02-02T12:18:10Z</time>
      </trkpt>
      <trkpt lat="45.97624" lon="6.55316">
        <ele>1876.9</ele>
        <time>2026-02-02T12:18:11Z</time>
      </trkpt>
      <trkpt lat="45.97623" lon="6.55316">
        <ele>1876.9</ele>
        <time>2026-02-02T12:18:12Z</time>
      </trkpt>
      <trkpt lat="45.97623" lon="6.55316">
        <ele>1876.9</ele>
        <time>2026-02-02T12:18:13Z</time>
      </trkpt>
      <trkpt lat="45.97623" lon="6.55315">
        <ele>1876.9</ele>
        <time>2026-02-02T12:18:14Z</time>
      </trkpt>
      <trkpt lat="45.97623" lon="6.55315">
        <ele>1876.9</ele>
        <time>2026-02-02T12:18:15Z</time>
      </trkpt>
      <trkpt lat="45.97623" lon="6.55315">
        <ele>1876.9</ele>
        <time>2026-02-02T12:18:16Z</time>
      </trkpt>
      <trkpt lat="45.97623" lon="6.55315">
        <ele>1876.9</ele>
        <time>2026-02-02T12:18:17Z</time>
      </trkpt>
      <trkpt lat="45.97623" lon="6.55315">
        <ele>1876.9</ele>
        <time>2026-02-02T12:18:18Z</time>
      </trkpt>
      <trkpt lat="45.97623" lon="6.55316">
        <ele>1876.9</ele>
        <time>2026-02-02T12:18:19Z</time>
      </trkpt>
      <trkpt lat="45.97624" lon="6.55316">
        <ele>1876.9</ele>
        <time>2026-02-02T12:18:21Z</time>
      </trkpt>
      <trkpt lat="45.97624" lon="6.55316">
        <ele>1876.2</ele>
        <time>2026-02-02T12:18:22Z</time>
      </trkpt>
      <trkpt lat="45.97624" lon="6.55316">
        <ele>1876.2</ele>
        <time>2026-02-02T12:18:23Z</time>
      </trkpt>
      <trkpt lat="45.97624" lon="6.55315">
        <ele>1876.2</ele>
        <time>2026-02-02T12:18:24Z</time>
      </trkpt>
      <trkpt lat="45.97624" lon="6.55315">
        <ele>1876.9</ele>
        <time>2026-02-02T12:18:25Z</time>
      </trkpt>
      <trkpt lat="45.97624" lon="6.55315">
        <ele>1876.9</ele>
        <time>2026-02-02T12:18:26Z</time>
      </trkpt>
      <trkpt lat="45.97624" lon="6.55314">
        <ele>1876.9</ele>
        <time>2026-02-02T12:18:27Z</time>
      </trkpt>
      <trkpt lat="45.97624" lon="6.55314">
        <ele>1876.9</ele>
        <time>2026-02-02T12:18:28Z</time>
      </trkpt>
      <trkpt lat="45.97624" lon="6.55314">
        <ele>1876.9</ele>
        <time>2026-02-02T12:18:29Z</time>
      </trkpt>
      <trkpt lat="45.97624" lon="6.55314">
        <ele>1876.9</ele>
        <time>2026-02-02T12:18:30Z</time>
      </trkpt>
      <trkpt lat="45.97624" lon="6.55314">
        <ele>1876.9</ele>
        <time>2026-02-02T12:18:31Z</time>
      </trkpt>
      <trkpt lat="45.97624" lon="6.55314">
        <ele>1876.9</ele>
        <time>2026-02-02T12:18:32Z</time>
      </trkpt>
      <trkpt lat="45.97624" lon="6.55314">
        <ele>1876.9</ele>
        <time>2026-02-02T12:18:33Z</time>
      </trkpt>
      <trkpt lat="45.97624" lon="6.55314">
        <ele>1876.9</ele>
        <time>2026-02-02T12:18:34Z</time>
      </trkpt>
      <trkpt lat="45.97624" lon="6.55314">
        <ele>1876.9</ele>
        <time>2026-02-02T12:18:35Z</time>
      </trkpt>
      <trkpt lat="45.97624" lon="6.55314">
        <ele>1876.9</ele>
        <time>2026-02-02T12:18:36Z</time>
      </trkpt>
      <trkpt lat="45.97624" lon="6.55314">
        <ele>1876.9</ele>
        <time>2026-02-02T12:18:37Z</time>
      </trkpt>
      <trkpt lat="45.97623" lon="6.55314">
        <ele>1876.9</ele>
        <time>2026-02-02T12:18:38Z</time>
      </trkpt>
      <trkpt lat="45.97623" lon="6.55314">
        <ele>1876.9</ele>
        <time>2026-02-02T12:18:39Z</time>
      </trkpt>
      <trkpt lat="45.97621" lon="6.55315">
        <ele>1876.9</ele>
        <time>2026-02-02T12:18:40Z</time>
      </trkpt>
      <trkpt lat="45.9762" lon="6.55315">
        <ele>1877.6</ele>
        <time>2026-02-02T12:18:41Z</time>
      </trkpt>
      <trkpt lat="45.97618" lon="6.55316">
        <ele>1877.6</ele>
        <time>2026-02-02T12:18:42Z</time>
      </trkpt>
      <trkpt lat="45.97617" lon="6.55316">
        <ele>1878.2</ele>
        <time>2026-02-02T12:18:43Z</time>
      </trkpt>
      <trkpt lat="45.97616" lon="6.55317">
        <ele>1878.2</ele>
        <time>2026-02-02T12:18:44Z</time>
      </trkpt>
      <trkpt lat="45.97615" lon="6.55317">
        <ele>1878.2</ele>
        <time>2026-02-02T12:18:45Z</time>
      </trkpt>
      <trkpt lat="45.97614" lon="6.55317">
        <ele>1878.9</ele>
        <time>2026-02-02T12:18:46Z</time>
      </trkpt>
      <trkpt lat="45.97613" lon="6.55317">
        <ele>1878.9</ele>
        <time>2026-02-02T12:18:47Z</time>
      </trkpt>
      <trkpt lat="45.97612" lon="6.55317">
        <ele>1880</ele>
        <time>2026-02-02T12:18:48Z</time>
      </trkpt>
      <trkpt lat="45.97611" lon="6.55318">
        <ele>1880.7</ele>
        <time>2026-02-02T12:18:49Z</time>
      </trkpt>
      <trkpt lat="45.9761" lon="6.55318">
        <ele>1880.7</ele>
        <time>2026-02-02T12:18:50Z</time>
      </trkpt>
      <trkpt lat="45.97609" lon="6.55319">
        <ele>1880.7</ele>
        <time>2026-02-02T12:18:51Z</time>
      </trkpt>
      <trkpt lat="45.97609" lon="6.5532">
        <ele>1881.4</ele>
        <time>2026-02-02T12:18:52Z</time>
      </trkpt>
      <trkpt lat="45.97608" lon="6.55321">
        <ele>1881.4</ele>
        <time>2026-02-02T12:18:53Z</time>
      </trkpt>
      <trkpt lat="45.97607" lon="6.55322">
        <ele>1882.7</ele>
        <time>2026-02-02T12:18:54Z</time>
      </trkpt>
      <trkpt lat="45.97607" lon="6.55322">
        <ele>1882.7</ele>
        <time>2026-02-02T12:18:55Z</time>
      </trkpt>
      <trkpt lat="45.97606" lon="6.55322">
        <ele>1882.7</ele>
        <time>2026-02-02T12:18:56Z</time>
      </trkpt>
      <trkpt lat="45.97605" lon="6.55322">
        <ele>1883.4</ele>
        <time>2026-02-02T12:18:57Z</time>
      </trkpt>
      <trkpt lat="45.97605" lon="6.55322">
        <ele>1883.4</ele>
        <time>2026-02-02T12:18:58Z</time>
      </trkpt>
      <trkpt lat="45.97604" lon="6.55323">
        <ele>1883.4</ele>
        <time>2026-02-02T12:18:59Z</time>
      </trkpt>
      <trkpt lat="45.97604" lon="6.55323">
        <ele>1883.4</ele>
        <time>2026-02-02T12:19:00Z</time>
      </trkpt>
      <trkpt lat="45.97603" lon="6.55323">
        <ele>1883.4</ele>
        <time>2026-02-02T12:19:01Z</time>
      </trkpt>
      <trkpt lat="45.97603" lon="6.55323">
        <ele>1883.4</ele>
        <time>2026-02-02T12:19:02Z</time>
      </trkpt>
      <trkpt lat="45.97604" lon="6.55322">
        <ele>1883.4</ele>
        <time>2026-02-02T12:19:03Z</time>
      </trkpt>
      <trkpt lat="45.97604" lon="6.55322">
        <ele>1883.4</ele>
        <time>2026-02-02T12:19:04Z</time>
      </trkpt>
      <trkpt lat="45.97604" lon="6.55322">
        <ele>1883.4</ele>
        <time>2026-02-02T12:19:05Z</time>
      </trkpt>
      <trkpt lat="45.97604" lon="6.55322">
        <ele>1883.4</ele>
        <time>2026-02-02T12:19:06Z</time>
      </trkpt>
      <trkpt lat="45.97604" lon="6.55322">
        <ele>1883.4</ele>
        <time>2026-02-02T12:19:07Z</time>
      </trkpt>
      <trkpt lat="45.97604" lon="6.55322">
        <ele>1883.4</ele>
        <time>2026-02-02T12:19:08Z</time>
      </trkpt>
      <trkpt lat="45.97604" lon="6.55322">
        <ele>1883.4</ele>
        <time>2026-02-02T12:19:09Z</time>
      </trkpt>
      <trkpt lat="45.97604" lon="6.55322">
        <ele>1883.4</ele>
        <time>2026-02-02T12:19:10Z</time>
      </trkpt>
      <trkpt lat="45.97604" lon="6.55322">
        <ele>1883.4</ele>
        <time>2026-02-02T12:19:11Z</time>
      </trkpt>
      <trkpt lat="45.97604" lon="6.55323">
        <ele>1883.4</ele>
        <time>2026-02-02T12:19:12Z</time>
      </trkpt>
      <trkpt lat="45.97604" lon="6.55323">
        <ele>1883.4</ele>
        <time>2026-02-02T12:19:13Z</time>
      </trkpt>
      <trkpt lat="45.97605" lon="6.55323">
        <ele>1883.4</ele>
        <time>2026-02-02T12:19:14Z</time>
      </trkpt>
      <trkpt lat="45.97605" lon="6.55323">
        <ele>1883.4</ele>
        <time>2026-02-02T12:19:16Z</time>
      </trkpt>
      <trkpt lat="45.97605" lon="6.55323">
        <ele>1883.4</ele>
        <time>2026-02-02T12:19:17Z</time>
      </trkpt>
      <trkpt lat="45.97604" lon="6.55323">
        <ele>1883.4</ele>
        <time>2026-02-02T12:19:18Z</time>
      </trkpt>
      <trkpt lat="45.97603" lon="6.55323">
        <ele>1883.4</ele>
        <time>2026-02-02T12:19:19Z</time>
      </trkpt>
      <trkpt lat="45.97602" lon="6.55324">
        <ele>1884</ele>
        <time>2026-02-02T12:19:20Z</time>
      </trkpt>
      <trkpt lat="45.97602" lon="6.55324">
        <ele>1884</ele>
        <time>2026-02-02T12:19:21Z</time>
      </trkpt>
      <trkpt lat="45.97601" lon="6.55324">
        <ele>1884</ele>
        <time>2026-02-02T12:19:22Z</time>
      </trkpt>
      <trkpt lat="45.976" lon="6.55325">
        <ele>1884</ele>
        <time>2026-02-02T12:19:23Z</time>
      </trkpt>
      <trkpt lat="45.976" lon="6.55325">
        <ele>1884</ele>
        <time>2026-02-02T12:19:24Z</time>
      </trkpt>
      <trkpt lat="45.976" lon="6.55325">
        <ele>1884.6</ele>
        <time>2026-02-02T12:19:25Z</time>
      </trkpt>
      <trkpt lat="45.976" lon="6.55325">
        <ele>1884.6</ele>
        <time>2026-02-02T12:19:26Z</time>
      </trkpt>
      <trkpt lat="45.976" lon="6.55325">
        <ele>1884.6</ele>
        <time>2026-02-02T12:19:27Z</time>
      </trkpt>
      <trkpt lat="45.976" lon="6.55324">
        <ele>1884</ele>
        <time>2026-02-02T12:19:28Z</time>
      </trkpt>
      <trkpt lat="45.976" lon="6.55324">
        <ele>1884</ele>
        <time>2026-02-02T12:19:29Z</time>
      </trkpt>
      <trkpt lat="45.976" lon="6.55324">
        <ele>1884</ele>
        <time>2026-02-02T12:19:30Z</time>
      </trkpt>
      <trkpt lat="45.976" lon="6.55324">
        <ele>1884</ele>
        <time>2026-02-02T12:19:31Z</time>
      </trkpt>
      <trkpt lat="45.976" lon="6.55324">
        <ele>1884</ele>
        <time>2026-02-02T12:19:32Z</time>
      </trkpt>
      <trkpt lat="45.976" lon="6.55324">
        <ele>1884</ele>
        <time>2026-02-02T12:19:33Z</time>
      </trkpt>
      <trkpt lat="45.976" lon="6.55324">
        <ele>1884</ele>
        <time>2026-02-02T12:19:34Z</time>
      </trkpt>
      <trkpt lat="45.976" lon="6.55324">
        <ele>1884</ele>
        <time>2026-02-02T12:19:35Z</time>
      </trkpt>
      <trkpt lat="45.976" lon="6.55324">
        <ele>1884</ele>
        <time>2026-02-02T12:19:36Z</time>
      </trkpt>
      <trkpt lat="45.976" lon="6.55324">
        <ele>1884</ele>
        <time>2026-02-02T12:19:37Z</time>
      </trkpt>
      <trkpt lat="45.976" lon="6.55324">
        <ele>1884</ele>
        <time>2026-02-02T12:19:38Z</time>
      </trkpt>
      <trkpt lat="45.976" lon="6.55324">
        <ele>1884</ele>
        <time>2026-02-02T12:19:39Z</time>
      </trkpt>
      <trkpt lat="45.976" lon="6.55324">
        <ele>1884</ele>
        <time>2026-02-02T12:19:40Z</time>
      </trkpt>
      <trkpt lat="45.976" lon="6.55324">
        <ele>1884</ele>
        <time>2026-02-02T12:19:41Z</time>
      </trkpt>
      <trkpt lat="45.976" lon="6.55324">
        <ele>1884</ele>
        <time>2026-02-02T12:19:42Z</time>
      </trkpt>
      <trkpt lat="45.976" lon="6.55324">
        <ele>1884</ele>
        <time>2026-02-02T12:19:43Z</time>
      </trkpt>
      <trkpt lat="45.976" lon="6.55324">
        <ele>1884</ele>
        <time>2026-02-02T12:19:44Z</time>
      </trkpt>
      <trkpt lat="45.976" lon="6.55325">
        <ele>1884.6</ele>
        <time>2026-02-02T12:19:45Z</time>
      </trkpt>
      <trkpt lat="45.97599" lon="6.55325">
        <ele>1884.6</ele>
        <time>2026-02-02T12:19:46Z</time>
      </trkpt>
      <trkpt lat="45.97599" lon="6.55325">
        <ele>1884.6</ele>
        <time>2026-02-02T12:19:47Z</time>
      </trkpt>
      <trkpt lat="45.97598" lon="6.55325">
        <ele>1884.6</ele>
        <time>2026-02-02T12:19:48Z</time>
      </trkpt>
      <trkpt lat="45.97598" lon="6.55326">
        <ele>1884.6</ele>
        <time>2026-02-02T12:19:49Z</time>
      </trkpt>
      <trkpt lat="45.97597" lon="6.55326">
        <ele>1886.6</ele>
        <time>2026-02-02T12:19:50Z</time>
      </trkpt>
      <trkpt lat="45.97596" lon="6.55327">
        <ele>1886.6</ele>
        <time>2026-02-02T12:19:51Z</time>
      </trkpt>
      <trkpt lat="45.97595" lon="6.55327">
        <ele>1886.6</ele>
        <time>2026-02-02T12:19:52Z</time>
      </trkpt>
      <trkpt lat="45.97595" lon="6.55328">
        <ele>1886.6</ele>
        <time>2026-02-02T12:19:53Z</time>
      </trkpt>
      <trkpt lat="45.97594" lon="6.55328">
        <ele>1887.2</ele>
        <time>2026-02-02T12:19:54Z</time>
      </trkpt>
      <trkpt lat="45.97593" lon="6.55329">
        <ele>1887.2</ele>
        <time>2026-02-02T12:19:55Z</time>
      </trkpt>
      <trkpt lat="45.97592" lon="6.55329">
        <ele>1887.2</ele>
        <time>2026-02-02T12:19:56Z</time>
      </trkpt>
      <trkpt lat="45.97592" lon="6.5533">
        <ele>1887.2</ele>
        <time>2026-02-02T12:19:57Z</time>
      </trkpt>
      <trkpt lat="45.97591" lon="6.5533">
        <ele>1888.8</ele>
        <time>2026-02-02T12:19:58Z</time>
      </trkpt>
      <trkpt lat="45.97591" lon="6.55331">
        <ele>1888.8</ele>
        <time>2026-02-02T12:19:59Z</time>
      </trkpt>
      <trkpt lat="45.97592" lon="6.55331">
        <ele>1888.8</ele>
        <time>2026-02-02T12:20:00Z</time>
      </trkpt>
      <trkpt lat="45.97592" lon="6.55332">
        <ele>1888.8</ele>
        <time>2026-02-02T12:20:01Z</time>
      </trkpt>
      <trkpt lat="45.97592" lon="6.55332">
        <ele>1888.8</ele>
        <time>2026-02-02T12:20:02Z</time>
      </trkpt>
      <trkpt lat="45.97592" lon="6.55332">
        <ele>1888.8</ele>
        <time>2026-02-02T12:20:03Z</time>
      </trkpt>
      <trkpt lat="45.97593" lon="6.55332">
        <ele>1888.8</ele>
        <time>2026-02-02T12:20:04Z</time>
      </trkpt>
      <trkpt lat="45.97593" lon="6.55332">
        <ele>1888.8</ele>
        <time>2026-02-02T12:20:05Z</time>
      </trkpt>
      <trkpt lat="45.97593" lon="6.55332">
        <ele>1888.8</ele>
        <time>2026-02-02T12:20:06Z</time>
      </trkpt>
      <trkpt lat="45.97593" lon="6.55332">
        <ele>1888.8</ele>
        <time>2026-02-02T12:20:07Z</time>
      </trkpt>
      <trkpt lat="45.97594" lon="6.55332">
        <ele>1888.8</ele>
        <time>2026-02-02T12:20:08Z</time>
      </trkpt>
      <trkpt lat="45.97594" lon="6.55332">
        <ele>1888.8</ele>
        <time>2026-02-02T12:20:09Z</time>
      </trkpt>
      <trkpt lat="45.97594" lon="6.55332">
        <ele>1888.2</ele>
        <time>2026-02-02T12:20:10Z</time>
      </trkpt>
      <trkpt lat="45.97594" lon="6.55333">
        <ele>1888.2</ele>
        <time>2026-02-02T12:20:11Z</time>
      </trkpt>
      <trkpt lat="45.97595" lon="6.55333">
        <ele>1888.2</ele>
        <time>2026-02-02T12:20:12Z</time>
      </trkpt>
      <trkpt lat="45.97595" lon="6.55333">
        <ele>1888.2</ele>
        <time>2026-02-02T12:20:13Z</time>
      </trkpt>
      <trkpt lat="45.97596" lon="6.55333">
        <ele>1888.2</ele>
        <time>2026-02-02T12:20:14Z</time>
      </trkpt>
      <trkpt lat="45.97597" lon="6.55333">
        <ele>1887.7</ele>
        <time>2026-02-02T12:20:15Z</time>
      </trkpt>
      <trkpt lat="45.97598" lon="6.55334">
        <ele>1887.7</ele>
        <time>2026-02-02T12:20:16Z</time>
      </trkpt>
      <trkpt lat="45.97599" lon="6.55334">
        <ele>1887.7</ele>
        <time>2026-02-02T12:20:17Z</time>
      </trkpt>
      <trkpt lat="45.97599" lon="6.55335">
        <ele>1889.3</ele>
        <time>2026-02-02T12:20:18Z</time>
      </trkpt>
      <trkpt lat="45.976" lon="6.55335">
        <ele>1889.3</ele>
        <time>2026-02-02T12:20:19Z</time>
      </trkpt>
      <trkpt lat="45.976" lon="6.55336">
        <ele>1888.7</ele>
        <time>2026-02-02T12:20:20Z</time>
      </trkpt>
      <trkpt lat="45.97601" lon="6.55336">
        <ele>1888.7</ele>
        <time>2026-02-02T12:20:21Z</time>
      </trkpt>
      <trkpt lat="45.97601" lon="6.55336">
        <ele>1888.7</ele>
        <time>2026-02-02T12:20:22Z</time>
      </trkpt>
      <trkpt lat="45.97602" lon="6.55337">
        <ele>1888.7</ele>
        <time>2026-02-02T12:20:23Z</time>
      </trkpt>
      <trkpt lat="45.97603" lon="6.55337">
        <ele>1888.7</ele>
        <time>2026-02-02T12:20:24Z</time>
      </trkpt>
      <trkpt lat="45.97603" lon="6.55338">
        <ele>1887.9</ele>
        <time>2026-02-02T12:20:25Z</time>
      </trkpt>
      <trkpt lat="45.97603" lon="6.55338">
        <ele>1887.9</ele>
        <time>2026-02-02T12:20:26Z</time>
      </trkpt>
      <trkpt lat="45.97604" lon="6.55339">
        <ele>1889.5</ele>
        <time>2026-02-02T12:20:27Z</time>
      </trkpt>
      <trkpt lat="45.97605" lon="6.5534">
        <ele>1889.5</ele>
        <time>2026-02-02T12:20:28Z</time>
      </trkpt>
      <trkpt lat="45.97606" lon="6.55341">
        <ele>1889.5</ele>
        <time>2026-02-02T12:20:29Z</time>
      </trkpt>
      <trkpt lat="45.97606" lon="6.55342">
        <ele>1888.7</ele>
        <time>2026-02-02T12:20:30Z</time>
      </trkpt>
      <trkpt lat="45.97607" lon="6.55342">
        <ele>1888.7</ele>
        <time>2026-02-02T12:20:31Z</time>
      </trkpt>
      <trkpt lat="45.97607" lon="6.55343">
        <ele>1888.7</ele>
        <time>2026-02-02T12:20:32Z</time>
      </trkpt>
      <trkpt lat="45.97607" lon="6.55343">
        <ele>1890.2</ele>
        <time>2026-02-02T12:20:33Z</time>
      </trkpt>
      <trkpt lat="45.97607" lon="6.55344">
        <ele>1890.2</ele>
        <time>2026-02-02T12:20:34Z</time>
      </trkpt>
      <trkpt lat="45.97606" lon="6.55344">
        <ele>1891.1</ele>
        <time>2026-02-02T12:20:35Z</time>
      </trkpt>
      <trkpt lat="45.97605" lon="6.55345">
        <ele>1891.1</ele>
        <time>2026-02-02T12:20:36Z</time>
      </trkpt>
      <trkpt lat="45.97604" lon="6.55345">
        <ele>1891.1</ele>
        <time>2026-02-02T12:20:37Z</time>
      </trkpt>
      <trkpt lat="45.97603" lon="6.55344">
        <ele>1891.1</ele>
        <time>2026-02-02T12:20:38Z</time>
      </trkpt>
      <trkpt lat="45.97603" lon="6.55343">
        <ele>1889.5</ele>
        <time>2026-02-02T12:20:40Z</time>
      </trkpt>
      <trkpt lat="45.97603" lon="6.55343">
        <ele>1889.5</ele>
        <time>2026-02-02T12:20:41Z</time>
      </trkpt>
      <trkpt lat="45.97604" lon="6.55343">
        <ele>1889.5</ele>
        <time>2026-02-02T12:20:42Z</time>
      </trkpt>
      <trkpt lat="45.97604" lon="6.55343">
        <ele>1889.5</ele>
        <time>2026-02-02T12:20:43Z</time>
      </trkpt>
      <trkpt lat="45.97604" lon="6.55343">
        <ele>1889.5</ele>
        <time>2026-02-02T12:20:44Z</time>
      </trkpt>
      <trkpt lat="45.97604" lon="6.55343">
        <ele>1889.5</ele>
        <time>2026-02-02T12:20:45Z</time>
      </trkpt>
      <trkpt lat="45.97604" lon="6.55343">
        <ele>1889.5</ele>
        <time>2026-02-02T12:20:46Z</time>
      </trkpt>
      <trkpt lat="45.97605" lon="6.55343">
        <ele>1889.5</ele>
        <time>2026-02-02T12:20:47Z</time>
      </trkpt>
      <trkpt lat="45.97605" lon="6.55343">
        <ele>1889.5</ele>
        <time>2026-02-02T12:20:48Z</time>
      </trkpt>
      <trkpt lat="45.97605" lon="6.55343">
        <ele>1889.5</ele>
        <time>2026-02-02T12:20:49Z</time>
      </trkpt>
      <trkpt lat="45.97605" lon="6.55343">
        <ele>1889.5</ele>
        <time>2026-02-02T12:20:50Z</time>
      </trkpt>
      <trkpt lat="45.97605" lon="6.55343">
        <ele>1889.5</ele>
        <time>2026-02-02T12:20:51Z</time>
      </trkpt>
      <trkpt lat="45.97605" lon="6.55343">
        <ele>1891.1</ele>
        <time>2026-02-02T12:20:52Z</time>
      </trkpt>
      <trkpt lat="45.97605" lon="6.55343">
        <ele>1891.1</ele>
        <time>2026-02-02T12:20:53Z</time>
      </trkpt>
      <trkpt lat="45.97605" lon="6.55343">
        <ele>1891.1</ele>
        <time>2026-02-02T12:20:54Z</time>
      </trkpt>
      <trkpt lat="45.97605" lon="6.55343">
        <ele>1891.1</ele>
        <time>2026-02-02T12:20:55Z</time>
      </trkpt>
      <trkpt lat="45.97605" lon="6.55343">
        <ele>1891.1</ele>
        <time>2026-02-02T12:20:56Z</time>
      </trkpt>
      <trkpt lat="45.97605" lon="6.55343">
        <ele>1891.1</ele>
        <time>2026-02-02T12:20:57Z</time>
      </trkpt>
      <trkpt lat="45.97605" lon="6.55343">
        <ele>1891.1</ele>
        <time>2026-02-02T12:20:58Z</time>
      </trkpt>
      <trkpt lat="45.97605" lon="6.55343">
        <ele>1891.1</ele>
        <time>2026-02-02T12:20:59Z</time>
      </trkpt>
      <trkpt lat="45.97605" lon="6.55343">
        <ele>1891.1</ele>
        <time>2026-02-02T12:21:00Z</time>
      </trkpt>
      <trkpt lat="45.97605" lon="6.55343">
        <ele>1891.1</ele>
        <time>2026-02-02T12:21:01Z</time>
      </trkpt>
      <trkpt lat="45.97605" lon="6.55343">
        <ele>1891.1</ele>
        <time>2026-02-02T12:21:02Z</time>
      </trkpt>
      <trkpt lat="45.97605" lon="6.55343">
        <ele>1891.1</ele>
        <time>2026-02-02T12:21:03Z</time>
      </trkpt>
      <trkpt lat="45.97605" lon="6.55343">
        <ele>1891.1</ele>
        <time>2026-02-02T12:21:04Z</time>
      </trkpt>
      <trkpt lat="45.97605" lon="6.55343">
        <ele>1891.1</ele>
        <time>2026-02-02T12:21:05Z</time>
      </trkpt>
      <trkpt lat="45.97604" lon="6.55343">
        <ele>1891.1</ele>
        <time>2026-02-02T12:21:06Z</time>
      </trkpt>
      <trkpt lat="45.97604" lon="6.55343">
        <ele>1889.5</ele>
        <time>2026-02-02T12:21:07Z</time>
      </trkpt>
      <trkpt lat="45.97603" lon="6.55344">
        <ele>1892</ele>
        <time>2026-02-02T12:21:08Z</time>
      </trkpt>
      <trkpt lat="45.97602" lon="6.55344">
        <ele>1892</ele>
        <time>2026-02-02T12:21:09Z</time>
      </trkpt>
      <trkpt lat="45.97601" lon="6.55345">
        <ele>1892</ele>
        <time>2026-02-02T12:21:10Z</time>
      </trkpt>
      <trkpt lat="45.976" lon="6.55345">
        <ele>1892.7</ele>
        <time>2026-02-02T12:21:11Z</time>
      </trkpt>
      <trkpt lat="45.97599" lon="6.55345">
        <ele>1892.7</ele>
        <time>2026-02-02T12:21:12Z</time>
      </trkpt>
      <trkpt lat="45.97598" lon="6.55346">
        <ele>1892.7</ele>
        <time>2026-02-02T12:21:13Z</time>
      </trkpt>
      <trkpt lat="45.97597" lon="6.55346">
        <ele>1892.7</ele>
        <time>2026-02-02T12:21:14Z</time>
      </trkpt>
      <trkpt lat="45.97597" lon="6.55347">
        <ele>1893.4</ele>
        <time>2026-02-02T12:21:15Z</time>
      </trkpt>
      <trkpt lat="45.97596" lon="6.55347">
        <ele>1893.4</ele>
        <time>2026-02-02T12:21:16Z</time>
      </trkpt>
      <trkpt lat="45.97595" lon="6.55347">
        <ele>1893.4</ele>
        <time>2026-02-02T12:21:17Z</time>
      </trkpt>
      <trkpt lat="45.97595" lon="6.55347">
        <ele>1893.4</ele>
        <time>2026-02-02T12:21:18Z</time>
      </trkpt>
      <trkpt lat="45.97594" lon="6.55347">
        <ele>1895</ele>
        <time>2026-02-02T12:21:19Z</time>
      </trkpt>
      <trkpt lat="45.97594" lon="6.55348">
        <ele>1895</ele>
        <time>2026-02-02T12:21:20Z</time>
      </trkpt>
      <trkpt lat="45.97593" lon="6.55348">
        <ele>1895.7</ele>
        <time>2026-02-02T12:21:21Z</time>
      </trkpt>
      <trkpt lat="45.97593" lon="6.55348">
        <ele>1895.7</ele>
        <time>2026-02-02T12:21:22Z</time>
      </trkpt>
      <trkpt lat="45.97592" lon="6.55349">
        <ele>1895.7</ele>
        <time>2026-02-02T12:21:23Z</time>
      </trkpt>
      <trkpt lat="45.97591" lon="6.5535">
        <ele>1895.7</ele>
        <time>2026-02-02T12:21:24Z</time>
      </trkpt>
      <trkpt lat="45.97591" lon="6.5535">
        <ele>1896.4</ele>
        <time>2026-02-02T12:21:25Z</time>
      </trkpt>
      <trkpt lat="45.9759" lon="6.55351">
        <ele>1896.4</ele>
        <time>2026-02-02T12:21:26Z</time>
      </trkpt>
      <trkpt lat="45.9759" lon="6.55351">
        <ele>1896.4</ele>
        <time>2026-02-02T12:21:27Z</time>
      </trkpt>
      <trkpt lat="45.97589" lon="6.55351">
        <ele>1896.4</ele>
        <time>2026-02-02T12:21:28Z</time>
      </trkpt>
      <trkpt lat="45.97589" lon="6.55352">
        <ele>1896.4</ele>
        <time>2026-02-02T12:21:29Z</time>
      </trkpt>
      <trkpt lat="45.97588" lon="6.55352">
        <ele>1898</ele>
        <time>2026-02-02T12:21:30Z</time>
      </trkpt>
      <trkpt lat="45.97587" lon="6.55352">
        <ele>1898.8</ele>
        <time>2026-02-02T12:21:31Z</time>
      </trkpt>
      <trkpt lat="45.97587" lon="6.55353">
        <ele>1898.8</ele>
        <time>2026-02-02T12:21:32Z</time>
      </trkpt>
      <trkpt lat="45.97586" lon="6.55353">
        <ele>1898.8</ele>
        <time>2026-02-02T12:21:33Z</time>
      </trkpt>
      <trkpt lat="45.97586" lon="6.55353">
        <ele>1898.8</ele>
        <time>2026-02-02T12:21:35Z</time>
      </trkpt>
      <trkpt lat="45.97586" lon="6.55353">
        <ele>1898.8</ele>
        <time>2026-02-02T12:21:36Z</time>
      </trkpt>
      <trkpt lat="45.97587" lon="6.55353">
        <ele>1898.8</ele>
        <time>2026-02-02T12:21:37Z</time>
      </trkpt>
      <trkpt lat="45.97587" lon="6.55353">
        <ele>1898.8</ele>
        <time>2026-02-02T12:21:38Z</time>
      </trkpt>
      <trkpt lat="45.97587" lon="6.55353">
        <ele>1898.8</ele>
        <time>2026-02-02T12:21:39Z</time>
      </trkpt>
      <trkpt lat="45.97587" lon="6.55353">
        <ele>1898.8</ele>
        <time>2026-02-02T12:21:40Z</time>
      </trkpt>
      <trkpt lat="45.97587" lon="6.55353">
        <ele>1898.8</ele>
        <time>2026-02-02T12:21:41Z</time>
      </trkpt>
      <trkpt lat="45.97587" lon="6.55353">
        <ele>1898.8</ele>
        <time>2026-02-02T12:21:42Z</time>
      </trkpt>
      <trkpt lat="45.97587" lon="6.55353">
        <ele>1898.8</ele>
        <time>2026-02-02T12:21:43Z</time>
      </trkpt>
      <trkpt lat="45.97587" lon="6.55354">
        <ele>1898.8</ele>
        <time>2026-02-02T12:21:44Z</time>
      </trkpt>
      <trkpt lat="45.97587" lon="6.55354">
        <ele>1898.8</ele>
        <time>2026-02-02T12:21:45Z</time>
      </trkpt>
      <trkpt lat="45.97587" lon="6.55354">
        <ele>1898.8</ele>
        <time>2026-02-02T12:21:46Z</time>
      </trkpt>
      <trkpt lat="45.97587" lon="6.55354">
        <ele>1898.8</ele>
        <time>2026-02-02T12:21:47Z</time>
      </trkpt>
      <trkpt lat="45.97587" lon="6.55353">
        <ele>1898.8</ele>
        <time>2026-02-02T12:21:48Z</time>
      </trkpt>
      <trkpt lat="45.97587" lon="6.55353">
        <ele>1898.8</ele>
        <time>2026-02-02T12:21:49Z</time>
      </trkpt>
      <trkpt lat="45.97587" lon="6.55354">
        <ele>1898.8</ele>
        <time>2026-02-02T12:21:50Z</time>
      </trkpt>
      <trkpt lat="45.97588" lon="6.55354">
        <ele>1898.8</ele>
        <time>2026-02-02T12:21:51Z</time>
      </trkpt>
      <trkpt lat="45.97588" lon="6.55355">
        <ele>1898</ele>
        <time>2026-02-02T12:21:52Z</time>
      </trkpt>
      <trkpt lat="45.97589" lon="6.55355">
        <ele>1898</ele>
        <time>2026-02-02T12:21:53Z</time>
      </trkpt>
      <trkpt lat="45.97589" lon="6.55356">
        <ele>1898</ele>
        <time>2026-02-02T12:21:54Z</time>
      </trkpt>
      <trkpt lat="45.9759" lon="6.55356">
        <ele>1899.7</ele>
        <time>2026-02-02T12:21:55Z</time>
      </trkpt>
      <trkpt lat="45.9759" lon="6.55357">
        <ele>1899.7</ele>
        <time>2026-02-02T12:21:56Z</time>
      </trkpt>
      <trkpt lat="45.9759" lon="6.55356">
        <ele>1899.7</ele>
        <time>2026-02-02T12:21:57Z</time>
      </trkpt>
      <trkpt lat="45.9759" lon="6.55356">
        <ele>1898</ele>
        <time>2026-02-02T12:21:58Z</time>
      </trkpt>
      <trkpt lat="45.9759" lon="6.55356">
        <ele>1898</ele>
        <time>2026-02-02T12:21:59Z</time>
      </trkpt>
      <trkpt lat="45.9759" lon="6.55356">
        <ele>1898</ele>
        <time>2026-02-02T12:22:00Z</time>
      </trkpt>
      <trkpt lat="45.9759" lon="6.55356">
        <ele>1898</ele>
        <time>2026-02-02T12:22:01Z</time>
      </trkpt>
      <trkpt lat="45.9759" lon="6.55356">
        <ele>1899.7</ele>
        <time>2026-02-02T12:22:03Z</time>
      </trkpt>
      <trkpt lat="45.9759" lon="6.55356">
        <ele>1899.7</ele>
        <time>2026-02-02T12:22:04Z</time>
      </trkpt>
      <trkpt lat="45.9759" lon="6.55356">
        <ele>1898</ele>
        <time>2026-02-02T12:22:05Z</time>
      </trkpt>
      <trkpt lat="45.9759" lon="6.55355">
        <ele>1898</ele>
        <time>2026-02-02T12:22:06Z</time>
      </trkpt>
      <trkpt lat="45.9759" lon="6.55355">
        <ele>1898</ele>
        <time>2026-02-02T12:22:07Z</time>
      </trkpt>
      <trkpt lat="45.9759" lon="6.55355">
        <ele>1898</ele>
        <time>2026-02-02T12:22:08Z</time>
      </trkpt>
      <trkpt lat="45.9759" lon="6.55355">
        <ele>1898</ele>
        <time>2026-02-02T12:22:09Z</time>
      </trkpt>
      <trkpt lat="45.9759" lon="6.55355">
        <ele>1898</ele>
        <time>2026-02-02T12:22:10Z</time>
      </trkpt>
      <trkpt lat="45.9759" lon="6.55355">
        <ele>1898</ele>
        <time>2026-02-02T12:22:11Z</time>
      </trkpt>
      <trkpt lat="45.9759" lon="6.55355">
        <ele>1898</ele>
        <time>2026-02-02T12:22:12Z</time>
      </trkpt>
      <trkpt lat="45.97591" lon="6.55355">
        <ele>1898</ele>
        <time>2026-02-02T12:22:13Z</time>
      </trkpt>
      <trkpt lat="45.97591" lon="6.55356">
        <ele>1897.3</ele>
        <time>2026-02-02T12:22:14Z</time>
      </trkpt>
      <trkpt lat="45.97592" lon="6.55357">
        <ele>1898.9</ele>
        <time>2026-02-02T12:22:16Z</time>
      </trkpt>
      <trkpt lat="45.97592" lon="6.55358">
        <ele>1898.9</ele>
        <time>2026-02-02T12:22:17Z</time>
      </trkpt>
      <trkpt lat="45.97593" lon="6.55359">
        <ele>1898.9</ele>
        <time>2026-02-02T12:22:18Z</time>
      </trkpt>
      <trkpt lat="45.97594" lon="6.5536">
        <ele>1898.9</ele>
        <time>2026-02-02T12:22:19Z</time>
      </trkpt>
      <trkpt lat="45.97595" lon="6.55361">
        <ele>1899.8</ele>
        <time>2026-02-02T12:22:20Z</time>
      </trkpt>
      <trkpt lat="45.97595" lon="6.55361">
        <ele>1899.8</ele>
        <time>2026-02-02T12:22:21Z</time>
      </trkpt>
      <trkpt lat="45.97596" lon="6.55362">
        <ele>1899.8</ele>
        <time>2026-02-02T12:22:22Z</time>
      </trkpt>
      <trkpt lat="45.97596" lon="6.55363">
        <ele>1899.8</ele>
        <time>2026-02-02T12:22:23Z</time>
      </trkpt>
      <trkpt lat="45.97597" lon="6.55364">
        <ele>1899.1</ele>
        <time>2026-02-02T12:22:24Z</time>
      </trkpt>
      <trkpt lat="45.97598" lon="6.55364">
        <ele>1899.1</ele>
        <time>2026-02-02T12:22:25Z</time>
      </trkpt>
      <trkpt lat="45.97598" lon="6.55365">
        <ele>1900.7</ele>
        <time>2026-02-02T12:22:26Z</time>
      </trkpt>
      <trkpt lat="45.97599" lon="6.55365">
        <ele>1900.7</ele>
        <time>2026-02-02T12:22:27Z</time>
      </trkpt>
      <trkpt lat="45.976" lon="6.55366">
        <ele>1900.7</ele>
        <time>2026-02-02T12:22:28Z</time>
      </trkpt>
      <trkpt lat="45.976" lon="6.55367">
        <ele>1899.7</ele>
        <time>2026-02-02T12:22:29Z</time>
      </trkpt>
      <trkpt lat="45.97601" lon="6.55368">
        <ele>1899.7</ele>
        <time>2026-02-02T12:22:30Z</time>
      </trkpt>
      <trkpt lat="45.97601" lon="6.55368">
        <ele>1899.7</ele>
        <time>2026-02-02T12:22:31Z</time>
      </trkpt>
      <trkpt lat="45.97602" lon="6.55369">
        <ele>1901.3</ele>
        <time>2026-02-02T12:22:32Z</time>
      </trkpt>
      <trkpt lat="45.97602" lon="6.5537">
        <ele>1901.3</ele>
        <time>2026-02-02T12:22:33Z</time>
      </trkpt>
      <trkpt lat="45.97603" lon="6.5537">
        <ele>1901.3</ele>
        <time>2026-02-02T12:22:34Z</time>
      </trkpt>
      <trkpt lat="45.97604" lon="6.55371">
        <ele>1900.2</ele>
        <time>2026-02-02T12:22:35Z</time>
      </trkpt>
      <trkpt lat="45.97604" lon="6.55372">
        <ele>1900.2</ele>
        <time>2026-02-02T12:22:36Z</time>
      </trkpt>
      <trkpt lat="45.97605" lon="6.55373">
        <ele>1901.8</ele>
        <time>2026-02-02T12:22:37Z</time>
      </trkpt>
      <trkpt lat="45.97605" lon="6.55374">
        <ele>1901.8</ele>
        <time>2026-02-02T12:22:38Z</time>
      </trkpt>
      <trkpt lat="45.97605" lon="6.55375">
        <ele>1901.8</ele>
        <time>2026-02-02T12:22:39Z</time>
      </trkpt>
      <trkpt lat="45.97604" lon="6.55375">
        <ele>1901.8</ele>
        <time>2026-02-02T12:22:40Z</time>
      </trkpt>
      <trkpt lat="45.97604" lon="6.55376">
        <ele>1901.8</ele>
        <time>2026-02-02T12:22:41Z</time>
      </trkpt>
      <trkpt lat="45.97603" lon="6.55376">
        <ele>1902.9</ele>
        <time>2026-02-02T12:22:42Z</time>
      </trkpt>
      <trkpt lat="45.97602" lon="6.55375">
        <ele>1902.9</ele>
        <time>2026-02-02T12:22:43Z</time>
      </trkpt>
      <trkpt lat="45.97601" lon="6.55374">
        <ele>1902.9</ele>
        <time>2026-02-02T12:22:44Z</time>
      </trkpt>
      <trkpt lat="45.976" lon="6.55373">
        <ele>1903.9</ele>
        <time>2026-02-02T12:22:45Z</time>
      </trkpt>
      <trkpt lat="45.97599" lon="6.55373">
        <ele>1902.3</ele>
        <time>2026-02-02T12:22:46Z</time>
      </trkpt>
      <trkpt lat="45.97599" lon="6.55373">
        <ele>1902.3</ele>
        <time>2026-02-02T12:22:47Z</time>
      </trkpt>
      <trkpt lat="45.97599" lon="6.55372">
        <ele>1902.3</ele>
        <time>2026-02-02T12:22:48Z</time>
      </trkpt>
      <trkpt lat="45.97599" lon="6.55372">
        <ele>1902.3</ele>
        <time>2026-02-02T12:22:49Z</time>
      </trkpt>
      <trkpt lat="45.97599" lon="6.55372">
        <ele>1902.3</ele>
        <time>2026-02-02T12:22:50Z</time>
      </trkpt>
      <trkpt lat="45.976" lon="6.55372">
        <ele>1902.3</ele>
        <time>2026-02-02T12:22:51Z</time>
      </trkpt>
      <trkpt lat="45.976" lon="6.55372">
        <ele>1902.3</ele>
        <time>2026-02-02T12:22:52Z</time>
      </trkpt>
      <trkpt lat="45.976" lon="6.55372">
        <ele>1902.3</ele>
        <time>2026-02-02T12:22:53Z</time>
      </trkpt>
      <trkpt lat="45.976" lon="6.55372">
        <ele>1902.3</ele>
        <time>2026-02-02T12:22:54Z</time>
      </trkpt>
      <trkpt lat="45.976" lon="6.55372">
        <ele>1902.3</ele>
        <time>2026-02-02T12:22:55Z</time>
      </trkpt>
      <trkpt lat="45.976" lon="6.55372">
        <ele>1902.3</ele>
        <time>2026-02-02T12:22:56Z</time>
      </trkpt>
      <trkpt lat="45.976" lon="6.55372">
        <ele>1902.3</ele>
        <time>2026-02-02T12:22:57Z</time>
      </trkpt>
      <trkpt lat="45.976" lon="6.55372">
        <ele>1902.3</ele>
        <time>2026-02-02T12:22:58Z</time>
      </trkpt>
      <trkpt lat="45.976" lon="6.55372">
        <ele>1902.3</ele>
        <time>2026-02-02T12:22:59Z</time>
      </trkpt>
      <trkpt lat="45.976" lon="6.55372">
        <ele>1902.3</ele>
        <time>2026-02-02T12:23:00Z</time>
      </trkpt>
      <trkpt lat="45.976" lon="6.55372">
        <ele>1902.3</ele>
        <time>2026-02-02T12:23:01Z</time>
      </trkpt>
      <trkpt lat="45.976" lon="6.55373">
        <ele>1902.3</ele>
        <time>2026-02-02T12:23:02Z</time>
      </trkpt>
      <trkpt lat="45.976" lon="6.55373">
        <ele>1902.3</ele>
        <time>2026-02-02T12:23:03Z</time>
      </trkpt>
      <trkpt lat="45.97599" lon="6.55373">
        <ele>1903.9</ele>
        <time>2026-02-02T12:23:04Z</time>
      </trkpt>
      <trkpt lat="45.97599" lon="6.55373">
        <ele>1903.9</ele>
        <time>2026-02-02T12:23:05Z</time>
      </trkpt>
      <trkpt lat="45.97599" lon="6.55374">
        <ele>1903.9</ele>
        <time>2026-02-02T12:23:06Z</time>
      </trkpt>
      <trkpt lat="45.97597" lon="6.55374">
        <ele>1903.9</ele>
        <time>2026-02-02T12:23:07Z</time>
      </trkpt>
      <trkpt lat="45.97597" lon="6.55375">
        <ele>1904.8</ele>
        <time>2026-02-02T12:23:08Z</time>
      </trkpt>
      <trkpt lat="45.97596" lon="6.55376">
        <ele>1904.8</ele>
        <time>2026-02-02T12:23:09Z</time>
      </trkpt>
      <trkpt lat="45.97593" lon="6.55376">
        <ele>1905.6</ele>
        <time>2026-02-02T12:23:11Z</time>
      </trkpt>
      <trkpt lat="45.97592" lon="6.55377">
        <ele>1905.6</ele>
        <time>2026-02-02T12:23:12Z</time>
      </trkpt>
      <trkpt lat="45.97591" lon="6.55377">
        <ele>1906.4</ele>
        <time>2026-02-02T12:23:13Z</time>
      </trkpt>
      <trkpt lat="45.9759" lon="6.55378">
        <ele>1908.2</ele>
        <time>2026-02-02T12:23:14Z</time>
      </trkpt>
      <trkpt lat="45.97588" lon="6.55378">
        <ele>1908.2</ele>
        <time>2026-02-02T12:23:15Z</time>
      </trkpt>
      <trkpt lat="45.97588" lon="6.55379">
        <ele>1909.1</ele>
        <time>2026-02-02T12:23:16Z</time>
      </trkpt>
      <trkpt lat="45.97587" lon="6.5538">
        <ele>1909.1</ele>
        <time>2026-02-02T12:23:17Z</time>
      </trkpt>
      <trkpt lat="45.97588" lon="6.5538">
        <ele>1909.1</ele>
        <time>2026-02-02T12:23:18Z</time>
      </trkpt>
      <trkpt lat="45.97588" lon="6.5538">
        <ele>1908.2</ele>
        <time>2026-02-02T12:23:19Z</time>
      </trkpt>
      <trkpt lat="45.97588" lon="6.5538">
        <ele>1908.2</ele>
        <time>2026-02-02T12:23:20Z</time>
      </trkpt>
      <trkpt lat="45.97588" lon="6.5538">
        <ele>1909.1</ele>
        <time>2026-02-02T12:23:21Z</time>
      </trkpt>
      <trkpt lat="45.97588" lon="6.5538">
        <ele>1908.2</ele>
        <time>2026-02-02T12:23:22Z</time>
      </trkpt>
      <trkpt lat="45.97589" lon="6.5538">
        <ele>1908.2</ele>
        <time>2026-02-02T12:23:23Z</time>
      </trkpt>
      <trkpt lat="45.97589" lon="6.5538">
        <ele>1908.2</ele>
        <time>2026-02-02T12:23:24Z</time>
      </trkpt>
      <trkpt lat="45.9759" lon="6.55381">
        <ele>1908.2</ele>
        <time>2026-02-02T12:23:25Z</time>
      </trkpt>
      <trkpt lat="45.97592" lon="6.55382">
        <ele>1909.1</ele>
        <time>2026-02-02T12:23:26Z</time>
      </trkpt>
      <trkpt lat="45.97592" lon="6.55382">
        <ele>1909.1</ele>
        <time>2026-02-02T12:23:27Z</time>
      </trkpt>
      <trkpt lat="45.97593" lon="6.55383">
        <ele>1909.1</ele>
        <time>2026-02-02T12:23:28Z</time>
      </trkpt>
      <trkpt lat="45.97593" lon="6.55384">
        <ele>1909.1</ele>
        <time>2026-02-02T12:23:29Z</time>
      </trkpt>
      <trkpt lat="45.97594" lon="6.55385">
        <ele>1909.1</ele>
        <time>2026-02-02T12:23:30Z</time>
      </trkpt>
      <trkpt lat="45.97594" lon="6.55385">
        <ele>1908.2</ele>
        <time>2026-02-02T12:23:31Z</time>
      </trkpt>
      <trkpt lat="45.97595" lon="6.55386">
        <ele>1908.2</ele>
        <time>2026-02-02T12:23:32Z</time>
      </trkpt>
      <trkpt lat="45.97595" lon="6.55387">
        <ele>1909.9</ele>
        <time>2026-02-02T12:23:33Z</time>
      </trkpt>
      <trkpt lat="45.97596" lon="6.55388">
        <ele>1909.9</ele>
        <time>2026-02-02T12:23:34Z</time>
      </trkpt>
      <trkpt lat="45.97596" lon="6.55388">
        <ele>1909.9</ele>
        <time>2026-02-02T12:23:35Z</time>
      </trkpt>
      <trkpt lat="45.97596" lon="6.55389">
        <ele>1909.9</ele>
        <time>2026-02-02T12:23:36Z</time>
      </trkpt>
      <trkpt lat="45.97596" lon="6.5539">
        <ele>1909.9</ele>
        <time>2026-02-02T12:23:37Z</time>
      </trkpt>
      <trkpt lat="45.97595" lon="6.5539">
        <ele>1909.9</ele>
        <time>2026-02-02T12:23:38Z</time>
      </trkpt>
      <trkpt lat="45.97595" lon="6.55391">
        <ele>1911.5</ele>
        <time>2026-02-02T12:23:39Z</time>
      </trkpt>
      <trkpt lat="45.97594" lon="6.55391">
        <ele>1911.5</ele>
        <time>2026-02-02T12:23:40Z</time>
      </trkpt>
      <trkpt lat="45.97594" lon="6.5539">
        <ele>1909.9</ele>
        <time>2026-02-02T12:23:41Z</time>
      </trkpt>
      <trkpt lat="45.97594" lon="6.55388">
        <ele>1909.9</ele>
        <time>2026-02-02T12:23:42Z</time>
      </trkpt>
      <trkpt lat="45.97595" lon="6.55388">
        <ele>1909.9</ele>
        <time>2026-02-02T12:23:43Z</time>
      </trkpt>
      <trkpt lat="45.97595" lon="6.55388">
        <ele>1909.9</ele>
        <time>2026-02-02T12:23:44Z</time>
      </trkpt>
      <trkpt lat="45.97595" lon="6.55387">
        <ele>1909.9</ele>
        <time>2026-02-02T12:23:45Z</time>
      </trkpt>
      <trkpt lat="45.97595" lon="6.55387">
        <ele>1909.9</ele>
        <time>2026-02-02T12:23:46Z</time>
      </trkpt>
      <trkpt lat="45.97595" lon="6.55387">
        <ele>1909.9</ele>
        <time>2026-02-02T12:23:47Z</time>
      </trkpt>
      <trkpt lat="45.97595" lon="6.55387">
        <ele>1909.9</ele>
        <time>2026-02-02T12:23:48Z</time>
      </trkpt>
      <trkpt lat="45.97595" lon="6.55387">
        <ele>1909.9</ele>
        <time>2026-02-02T12:23:49Z</time>
      </trkpt>
      <trkpt lat="45.97595" lon="6.55387">
        <ele>1909.9</ele>
        <time>2026-02-02T12:23:50Z</time>
      </trkpt>
      <trkpt lat="45.97595" lon="6.55387">
        <ele>1909.9</ele>
        <time>2026-02-02T12:23:51Z</time>
      </trkpt>
      <trkpt lat="45.97595" lon="6.55387">
        <ele>1909.9</ele>
        <time>2026-02-02T12:23:52Z</time>
      </trkpt>
      <trkpt lat="45.97595" lon="6.55387">
        <ele>1909.9</ele>
        <time>2026-02-02T12:23:53Z</time>
      </trkpt>
      <trkpt lat="45.97595" lon="6.55387">
        <ele>1909.9</ele>
        <time>2026-02-02T12:23:54Z</time>
      </trkpt>
      <trkpt lat="45.97595" lon="6.55388">
        <ele>1909.9</ele>
        <time>2026-02-02T12:23:55Z</time>
      </trkpt>
      <trkpt lat="45.97594" lon="6.55389">
        <ele>1910.8</ele>
        <time>2026-02-02T12:23:56Z</time>
      </trkpt>
      <trkpt lat="45.97593" lon="6.55389">
        <ele>1910.8</ele>
        <time>2026-02-02T12:23:57Z</time>
      </trkpt>
      <trkpt lat="45.97591" lon="6.55389">
        <ele>1910.8</ele>
        <time>2026-02-02T12:23:58Z</time>
      </trkpt>
      <trkpt lat="45.9759" lon="6.55388">
        <ele>1911.7</ele>
        <time>2026-02-02T12:23:59Z</time>
      </trkpt>
      <trkpt lat="45.97588" lon="6.55388">
        <ele>1911.7</ele>
        <time>2026-02-02T12:24:00Z</time>
      </trkpt>
      <trkpt lat="45.97587" lon="6.55388">
        <ele>1912.7</ele>
        <time>2026-02-02T12:24:01Z</time>
      </trkpt>
      <trkpt lat="45.97586" lon="6.55387">
        <ele>1912.7</ele>
        <time>2026-02-02T12:24:02Z</time>
      </trkpt>
      <trkpt lat="45.97585" lon="6.55387">
        <ele>1912.7</ele>
        <time>2026-02-02T12:24:03Z</time>
      </trkpt>
      <trkpt lat="45.97584" lon="6.55387">
        <ele>1913.6</ele>
        <time>2026-02-02T12:24:04Z</time>
      </trkpt>
      <trkpt lat="45.97583" lon="6.55388">
        <ele>1913.6</ele>
        <time>2026-02-02T12:24:05Z</time>
      </trkpt>
      <trkpt lat="45.97583" lon="6.55388">
        <ele>1913.6</ele>
        <time>2026-02-02T12:24:06Z</time>
      </trkpt>
      <trkpt lat="45.97583" lon="6.55388">
        <ele>1913.6</ele>
        <time>2026-02-02T12:24:07Z</time>
      </trkpt>
      <trkpt lat="45.97582" lon="6.55389">
        <ele>1914.5</ele>
        <time>2026-02-02T12:24:08Z</time>
      </trkpt>
      <trkpt lat="45.97581" lon="6.55389">
        <ele>1914.5</ele>
        <time>2026-02-02T12:24:09Z</time>
      </trkpt>
      <trkpt lat="45.9758" lon="6.5539">
        <ele>1914.5</ele>
        <time>2026-02-02T12:24:10Z</time>
      </trkpt>
      <trkpt lat="45.97579" lon="6.55391">
        <ele>1916.3</ele>
        <time>2026-02-02T12:24:11Z</time>
      </trkpt>
      <trkpt lat="45.97578" lon="6.55391">
        <ele>1917.1</ele>
        <time>2026-02-02T12:24:12Z</time>
      </trkpt>
      <trkpt lat="45.97577" lon="6.55392">
        <ele>1917.1</ele>
        <time>2026-02-02T12:24:13Z</time>
      </trkpt>
      <trkpt lat="45.97576" lon="6.55392">
        <ele>1917.1</ele>
        <time>2026-02-02T12:24:14Z</time>
      </trkpt>
      <trkpt lat="45.97575" lon="6.55393">
        <ele>1917.7</ele>
        <time>2026-02-02T12:24:16Z</time>
      </trkpt>
      <trkpt lat="45.97574" lon="6.55393">
        <ele>1917.7</ele>
        <time>2026-02-02T12:24:17Z</time>
      </trkpt>
      <trkpt lat="45.97573" lon="6.55393">
        <ele>1918.3</ele>
        <time>2026-02-02T12:24:18Z</time>
      </trkpt>
      <trkpt lat="45.97572" lon="6.55394">
        <ele>1918.3</ele>
        <time>2026-02-02T12:24:19Z</time>
      </trkpt>
      <trkpt lat="45.97571" lon="6.55394">
        <ele>1918.3</ele>
        <time>2026-02-02T12:24:20Z</time>
      </trkpt>
      <trkpt lat="45.9757" lon="6.55394">
        <ele>1918.8</ele>
        <time>2026-02-02T12:24:21Z</time>
      </trkpt>
      <trkpt lat="45.97569" lon="6.55394">
        <ele>1918.8</ele>
        <time>2026-02-02T12:24:22Z</time>
      </trkpt>
      <trkpt lat="45.97568" lon="6.55394">
        <ele>1918.8</ele>
        <time>2026-02-02T12:24:23Z</time>
      </trkpt>
      <trkpt lat="45.97567" lon="6.55394">
        <ele>1918.8</ele>
        <time>2026-02-02T12:24:24Z</time>
      </trkpt>
      <trkpt lat="45.97568" lon="6.55394">
        <ele>1918.8</ele>
        <time>2026-02-02T12:24:25Z</time>
      </trkpt>
      <trkpt lat="45.97567" lon="6.55394">
        <ele>1918.8</ele>
        <time>2026-02-02T12:24:26Z</time>
      </trkpt>
      <trkpt lat="45.97567" lon="6.55395">
        <ele>1919.3</ele>
        <time>2026-02-02T12:24:27Z</time>
      </trkpt>
      <trkpt lat="45.97566" lon="6.55395">
        <ele>1921.1</ele>
        <time>2026-02-02T12:24:28Z</time>
      </trkpt>
      <trkpt lat="45.97565" lon="6.55395">
        <ele>1921.1</ele>
        <time>2026-02-02T12:24:29Z</time>
      </trkpt>
      <trkpt lat="45.97565" lon="6.55395">
        <ele>1921.1</ele>
        <time>2026-02-02T12:24:30Z</time>
      </trkpt>
      <trkpt lat="45.97565" lon="6.55396">
        <ele>1921.1</ele>
        <time>2026-02-02T12:24:31Z</time>
      </trkpt>
      <trkpt lat="45.97565" lon="6.55396">
        <ele>1921.1</ele>
        <time>2026-02-02T12:24:32Z</time>
      </trkpt>
      <trkpt lat="45.97566" lon="6.55396">
        <ele>1921.1</ele>
        <time>2026-02-02T12:24:33Z</time>
      </trkpt>
      <trkpt lat="45.97566" lon="6.55396">
        <ele>1921.1</ele>
        <time>2026-02-02T12:24:34Z</time>
      </trkpt>
      <trkpt lat="45.97566" lon="6.55396">
        <ele>1921.1</ele>
        <time>2026-02-02T12:24:35Z</time>
      </trkpt>
      <trkpt lat="45.97566" lon="6.55395">
        <ele>1921.1</ele>
        <time>2026-02-02T12:24:36Z</time>
      </trkpt>
      <trkpt lat="45.97566" lon="6.55395">
        <ele>1919.3</ele>
        <time>2026-02-02T12:24:37Z</time>
      </trkpt>
      <trkpt lat="45.97567" lon="6.55394">
        <ele>1919.3</ele>
        <time>2026-02-02T12:24:38Z</time>
      </trkpt>
      <trkpt lat="45.97566" lon="6.55394">
        <ele>1919.3</ele>
        <time>2026-02-02T12:24:39Z</time>
      </trkpt>
      <trkpt lat="45.97566" lon="6.55394">
        <ele>1919.3</ele>
        <time>2026-02-02T12:24:40Z</time>
      </trkpt>
      <trkpt lat="45.97566" lon="6.55394">
        <ele>1919.3</ele>
        <time>2026-02-02T12:24:41Z</time>
      </trkpt>
      <trkpt lat="45.97566" lon="6.55394">
        <ele>1919.3</ele>
        <time>2026-02-02T12:24:42Z</time>
      </trkpt>
      <trkpt lat="45.97566" lon="6.55394">
        <ele>1919.3</ele>
        <time>2026-02-02T12:24:43Z</time>
      </trkpt>
      <trkpt lat="45.97566" lon="6.55394">
        <ele>1919.3</ele>
        <time>2026-02-02T12:24:44Z</time>
      </trkpt>
      <trkpt lat="45.97566" lon="6.55394">
        <ele>1919.3</ele>
        <time>2026-02-02T12:24:45Z</time>
      </trkpt>
      <trkpt lat="45.97566" lon="6.55394">
        <ele>1919.3</ele>
        <time>2026-02-02T12:24:46Z</time>
      </trkpt>
      <trkpt lat="45.97566" lon="6.55394">
        <ele>1919.3</ele>
        <time>2026-02-02T12:24:47Z</time>
      </trkpt>
      <trkpt lat="45.97566" lon="6.55394">
        <ele>1919.3</ele>
        <time>2026-02-02T12:24:48Z</time>
      </trkpt>
      <trkpt lat="45.97566" lon="6.55394">
        <ele>1919.3</ele>
        <time>2026-02-02T12:24:49Z</time>
      </trkpt>
      <trkpt lat="45.97566" lon="6.55394">
        <ele>1919.3</ele>
        <time>2026-02-02T12:24:50Z</time>
      </trkpt>
      <trkpt lat="45.97566" lon="6.55394">
        <ele>1919.3</ele>
        <time>2026-02-02T12:24:51Z</time>
      </trkpt>
      <trkpt lat="45.97566" lon="6.55395">
        <ele>1919.3</ele>
        <time>2026-02-02T12:24:52Z</time>
      </trkpt>
      <trkpt lat="45.97567" lon="6.55395">
        <ele>1921.1</ele>
        <time>2026-02-02T12:24:53Z</time>
      </trkpt>
      <trkpt lat="45.97566" lon="6.55395">
        <ele>1921.1</ele>
        <time>2026-02-02T12:24:54Z</time>
      </trkpt>
      <trkpt lat="45.97566" lon="6.55395">
        <ele>1921.1</ele>
        <time>2026-02-02T12:24:55Z</time>
      </trkpt>
      <trkpt lat="45.97567" lon="6.55396">
        <ele>1921.1</ele>
        <time>2026-02-02T12:24:56Z</time>
      </trkpt>
      <trkpt lat="45.97568" lon="6.55396">
        <ele>1920.6</ele>
        <time>2026-02-02T12:24:57Z</time>
      </trkpt>
      <trkpt lat="45.97568" lon="6.55397">
        <ele>1920.6</ele>
        <time>2026-02-02T12:24:58Z</time>
      </trkpt>
      <trkpt lat="45.97569" lon="6.55398">
        <ele>1920.6</ele>
        <time>2026-02-02T12:24:59Z</time>
      </trkpt>
      <trkpt lat="45.9757" lon="6.55399">
        <ele>1922.3</ele>
        <time>2026-02-02T12:25:00Z</time>
      </trkpt>
      <trkpt lat="45.97571" lon="6.554">
        <ele>1921.7</ele>
        <time>2026-02-02T12:25:01Z</time>
      </trkpt>
      <trkpt lat="45.97571" lon="6.55401">
        <ele>1921.7</ele>
        <time>2026-02-02T12:25:02Z</time>
      </trkpt>
      <trkpt lat="45.97571" lon="6.55403">
        <ele>1921.7</ele>
        <time>2026-02-02T12:25:03Z</time>
      </trkpt>
      <trkpt lat="45.97572" lon="6.55404">
        <ele>1923.3</ele>
        <time>2026-02-02T12:25:04Z</time>
      </trkpt>
      <trkpt lat="45.97572" lon="6.55405">
        <ele>1923.3</ele>
        <time>2026-02-02T12:25:05Z</time>
      </trkpt>
      <trkpt lat="45.97573" lon="6.55406">
        <ele>1923.3</ele>
        <time>2026-02-02T12:25:06Z</time>
      </trkpt>
      <trkpt lat="45.97574" lon="6.55407">
        <ele>1922.7</ele>
        <time>2026-02-02T12:25:07Z</time>
      </trkpt>
      <trkpt lat="45.97574" lon="6.55407">
        <ele>1922.7</ele>
        <time>2026-02-02T12:25:08Z</time>
      </trkpt>
      <trkpt lat="45.97575" lon="6.55408">
        <ele>1924.3</ele>
        <time>2026-02-02T12:25:09Z</time>
      </trkpt>
      <trkpt lat="45.97576" lon="6.55408">
        <ele>1924.3</ele>
        <time>2026-02-02T12:25:10Z</time>
      </trkpt>
      <trkpt lat="45.97577" lon="6.55409">
        <ele>1923.6</ele>
        <time>2026-02-02T12:25:11Z</time>
      </trkpt>
      <trkpt lat="45.97577" lon="6.55409">
        <ele>1923.6</ele>
        <time>2026-02-02T12:25:12Z</time>
      </trkpt>
      <trkpt lat="45.97578" lon="6.5541">
        <ele>1923.6</ele>
        <time>2026-02-02T12:25:13Z</time>
      </trkpt>
      <trkpt lat="45.97579" lon="6.55411">
        <ele>1923.6</ele>
        <time>2026-02-02T12:25:14Z</time>
      </trkpt>
      <trkpt lat="45.97579" lon="6.55412">
        <ele>1922.7</ele>
        <time>2026-02-02T12:25:15Z</time>
      </trkpt>
      <trkpt lat="45.9758" lon="6.55412">
        <ele>1924.3</ele>
        <time>2026-02-02T12:25:16Z</time>
      </trkpt>
      <trkpt lat="45.97579" lon="6.55413">
        <ele>1924.3</ele>
        <time>2026-02-02T12:25:17Z</time>
      </trkpt>
      <trkpt lat="45.97579" lon="6.55414">
        <ele>1925.2</ele>
        <time>2026-02-02T12:25:18Z</time>
      </trkpt>
      <trkpt lat="45.97578" lon="6.55413">
        <ele>1925.2</ele>
        <time>2026-02-02T12:25:19Z</time>
      </trkpt>
      <trkpt lat="45.97577" lon="6.55414">
        <ele>1925.2</ele>
        <time>2026-02-02T12:25:21Z</time>
      </trkpt>
      <trkpt lat="45.97576" lon="6.55413">
        <ele>1925.9</ele>
        <time>2026-02-02T12:25:22Z</time>
      </trkpt>
      <trkpt lat="45.97575" lon="6.55413">
        <ele>1925.9</ele>
        <time>2026-02-02T12:25:23Z</time>
      </trkpt>
      <trkpt lat="45.97574" lon="6.55413">
        <ele>1925.9</ele>
        <time>2026-02-02T12:25:24Z</time>
      </trkpt>
      <trkpt lat="45.97573" lon="6.55413">
        <ele>1926.6</ele>
        <time>2026-02-02T12:25:25Z</time>
      </trkpt>
      <trkpt lat="45.97572" lon="6.55413">
        <ele>1926.6</ele>
        <time>2026-02-02T12:25:26Z</time>
      </trkpt>
      <trkpt lat="45.97572" lon="6.55413">
        <ele>1926.6</ele>
        <time>2026-02-02T12:25:27Z</time>
      </trkpt>
      <trkpt lat="45.97572" lon="6.55412">
        <ele>1926.6</ele>
        <time>2026-02-02T12:25:28Z</time>
      </trkpt>
      <trkpt lat="45.97573" lon="6.55412">
        <ele>1926.6</ele>
        <time>2026-02-02T12:25:29Z</time>
      </trkpt>
      <trkpt lat="45.97573" lon="6.55412">
        <ele>1925.9</ele>
        <time>2026-02-02T12:25:30Z</time>
      </trkpt>
      <trkpt lat="45.97573" lon="6.55412">
        <ele>1925.9</ele>
        <time>2026-02-02T12:25:31Z</time>
      </trkpt>
      <trkpt lat="45.97574" lon="6.55412">
        <ele>1925.9</ele>
        <time>2026-02-02T12:25:32Z</time>
      </trkpt>
      <trkpt lat="45.97574" lon="6.55412">
        <ele>1925.9</ele>
        <time>2026-02-02T12:25:33Z</time>
      </trkpt>
      <trkpt lat="45.97573" lon="6.55412">
        <ele>1925.9</ele>
        <time>2026-02-02T12:25:34Z</time>
      </trkpt>
      <trkpt lat="45.97573" lon="6.55413">
        <ele>1926.6</ele>
        <time>2026-02-02T12:25:35Z</time>
      </trkpt>
      <trkpt lat="45.97571" lon="6.55414">
        <ele>1926.6</ele>
        <time>2026-02-02T12:25:36Z</time>
      </trkpt>
      <trkpt lat="45.9757" lon="6.55414">
        <ele>1927.1</ele>
        <time>2026-02-02T12:25:37Z</time>
      </trkpt>
      <trkpt lat="45.97569" lon="6.55414">
        <ele>1927.1</ele>
        <time>2026-02-02T12:25:38Z</time>
      </trkpt>
      <trkpt lat="45.97568" lon="6.55415">
        <ele>1927.1</ele>
        <time>2026-02-02T12:25:39Z</time>
      </trkpt>
      <trkpt lat="45.97567" lon="6.55415">
        <ele>1927.1</ele>
        <time>2026-02-02T12:25:40Z</time>
      </trkpt>
      <trkpt lat="45.97566" lon="6.55415">
        <ele>1927.7</ele>
        <time>2026-02-02T12:25:41Z</time>
      </trkpt>
      <trkpt lat="45.97564" lon="6.55416">
        <ele>1928.4</ele>
        <time>2026-02-02T12:25:42Z</time>
      </trkpt>
      <trkpt lat="45.97562" lon="6.55416">
        <ele>1930.1</ele>
        <time>2026-02-02T12:25:44Z</time>
      </trkpt>
      <trkpt lat="45.97562" lon="6.55417">
        <ele>1930.1</ele>
        <time>2026-02-02T12:25:45Z</time>
      </trkpt>
      <trkpt lat="45.97561" lon="6.55417">
        <ele>1930.7</ele>
        <time>2026-02-02T12:25:46Z</time>
      </trkpt>
      <trkpt lat="45.97559" lon="6.55417">
        <ele>1930.7</ele>
        <time>2026-02-02T12:25:47Z</time>
      </trkpt>
      <trkpt lat="45.97559" lon="6.55417">
        <ele>1930.7</ele>
        <time>2026-02-02T12:25:48Z</time>
      </trkpt>
      <trkpt lat="45.97558" lon="6.55417">
        <ele>1931.4</ele>
        <time>2026-02-02T12:25:49Z</time>
      </trkpt>
      <trkpt lat="45.97558" lon="6.55417">
        <ele>1931.4</ele>
        <time>2026-02-02T12:25:50Z</time>
      </trkpt>
      <trkpt lat="45.97557" lon="6.55418">
        <ele>1931.4</ele>
        <time>2026-02-02T12:25:51Z</time>
      </trkpt>
      <trkpt lat="45.97556" lon="6.55418">
        <ele>1931.4</ele>
        <time>2026-02-02T12:25:52Z</time>
      </trkpt>
      <trkpt lat="45.97555" lon="6.55418">
        <ele>1931.4</ele>
        <time>2026-02-02T12:25:53Z</time>
      </trkpt>
      <trkpt lat="45.97555" lon="6.55418">
        <ele>1932</ele>
        <time>2026-02-02T12:25:54Z</time>
      </trkpt>
      <trkpt lat="45.97555" lon="6.55418">
        <ele>1932</ele>
        <time>2026-02-02T12:25:55Z</time>
      </trkpt>
      <trkpt lat="45.97554" lon="6.55419">
        <ele>1932</ele>
        <time>2026-02-02T12:25:56Z</time>
      </trkpt>
      <trkpt lat="45.97555" lon="6.55419">
        <ele>1932</ele>
        <time>2026-02-02T12:25:57Z</time>
      </trkpt>
      <trkpt lat="45.97555" lon="6.5542">
        <ele>1932</ele>
        <time>2026-02-02T12:25:58Z</time>
      </trkpt>
      <trkpt lat="45.97556" lon="6.5542">
        <ele>1931.4</ele>
        <time>2026-02-02T12:25:59Z</time>
      </trkpt>
      <trkpt lat="45.97556" lon="6.5542">
        <ele>1931.4</ele>
        <time>2026-02-02T12:26:00Z</time>
      </trkpt>
      <trkpt lat="45.97556" lon="6.5542">
        <ele>1931.4</ele>
        <time>2026-02-02T12:26:01Z</time>
      </trkpt>
      <trkpt lat="45.97556" lon="6.55419">
        <ele>1931.4</ele>
        <time>2026-02-02T12:26:02Z</time>
      </trkpt>
      <trkpt lat="45.97557" lon="6.5542">
        <ele>1931.4</ele>
        <time>2026-02-02T12:26:03Z</time>
      </trkpt>
      <trkpt lat="45.97557" lon="6.55419">
        <ele>1931.4</ele>
        <time>2026-02-02T12:26:04Z</time>
      </trkpt>
      <trkpt lat="45.97557" lon="6.55419">
        <ele>1931.4</ele>
        <time>2026-02-02T12:26:05Z</time>
      </trkpt>
      <trkpt lat="45.97557" lon="6.55419">
        <ele>1931.4</ele>
        <time>2026-02-02T12:26:06Z</time>
      </trkpt>
      <trkpt lat="45.97557" lon="6.55419">
        <ele>1931.4</ele>
        <time>2026-02-02T12:26:07Z</time>
      </trkpt>
      <trkpt lat="45.97557" lon="6.55419">
        <ele>1931.4</ele>
        <time>2026-02-02T12:26:08Z</time>
      </trkpt>
      <trkpt lat="45.97557" lon="6.55419">
        <ele>1931.4</ele>
        <time>2026-02-02T12:26:09Z</time>
      </trkpt>
      <trkpt lat="45.97557" lon="6.55419">
        <ele>1931.4</ele>
        <time>2026-02-02T12:26:10Z</time>
      </trkpt>
      <trkpt lat="45.97557" lon="6.55419">
        <ele>1931.4</ele>
        <time>2026-02-02T12:26:11Z</time>
      </trkpt>
      <trkpt lat="45.97557" lon="6.55419">
        <ele>1931.4</ele>
        <time>2026-02-02T12:26:12Z</time>
      </trkpt>
      <trkpt lat="45.97557" lon="6.55419">
        <ele>1931.4</ele>
        <time>2026-02-02T12:26:13Z</time>
      </trkpt>
      <trkpt lat="45.97557" lon="6.55419">
        <ele>1931.4</ele>
        <time>2026-02-02T12:26:14Z</time>
      </trkpt>
      <trkpt lat="45.97558" lon="6.55419">
        <ele>1931.4</ele>
        <time>2026-02-02T12:26:15Z</time>
      </trkpt>
      <trkpt lat="45.97558" lon="6.5542">
        <ele>1930.7</ele>
        <time>2026-02-02T12:26:16Z</time>
      </trkpt>
      <trkpt lat="45.9756" lon="6.55421">
        <ele>1932.5</ele>
        <time>2026-02-02T12:26:17Z</time>
      </trkpt>
      <trkpt lat="45.9756" lon="6.55422">
        <ele>1932.5</ele>
        <time>2026-02-02T12:26:18Z</time>
      </trkpt>
      <trkpt lat="45.97561" lon="6.55423">
        <ele>1932.5</ele>
        <time>2026-02-02T12:26:19Z</time>
      </trkpt>
      <trkpt lat="45.97562" lon="6.55424">
        <ele>1931.8</ele>
        <time>2026-02-02T12:26:20Z</time>
      </trkpt>
      <trkpt lat="45.97562" lon="6.55425">
        <ele>1933.5</ele>
        <time>2026-02-02T12:26:21Z</time>
      </trkpt>
      <trkpt lat="45.97563" lon="6.55426">
        <ele>1933.5</ele>
        <time>2026-02-02T12:26:22Z</time>
      </trkpt>
      <trkpt lat="45.97564" lon="6.55427">
        <ele>1933.5</ele>
        <time>2026-02-02T12:26:23Z</time>
      </trkpt>
      <trkpt lat="45.97564" lon="6.55428">
        <ele>1932.8</ele>
        <time>2026-02-02T12:26:24Z</time>
      </trkpt>
      <trkpt lat="45.97565" lon="6.55429">
        <ele>1934.5</ele>
        <time>2026-02-02T12:26:25Z</time>
      </trkpt>
      <trkpt lat="45.97566" lon="6.5543">
        <ele>1934.5</ele>
        <time>2026-02-02T12:26:26Z</time>
      </trkpt>
      <trkpt lat="45.97566" lon="6.55431">
        <ele>1934.5</ele>
        <time>2026-02-02T12:26:27Z</time>
      </trkpt>
      <trkpt lat="45.97567" lon="6.55432">
        <ele>1934.5</ele>
        <time>2026-02-02T12:26:28Z</time>
      </trkpt>
      <trkpt lat="45.97567" lon="6.55433">
        <ele>1933.8</ele>
        <time>2026-02-02T12:26:29Z</time>
      </trkpt>
      <trkpt lat="45.97567" lon="6.55433">
        <ele>1935.3</ele>
        <time>2026-02-02T12:26:30Z</time>
      </trkpt>
      <trkpt lat="45.97568" lon="6.55434">
        <ele>1935.3</ele>
        <time>2026-02-02T12:26:31Z</time>
      </trkpt>
      <trkpt lat="45.97568" lon="6.55434">
        <ele>1935.3</ele>
        <time>2026-02-02T12:26:32Z</time>
      </trkpt>
      <trkpt lat="45.97569" lon="6.55435">
        <ele>1935.3</ele>
        <time>2026-02-02T12:26:33Z</time>
      </trkpt>
      <trkpt lat="45.97569" lon="6.55435">
        <ele>1935.3</ele>
        <time>2026-02-02T12:26:34Z</time>
      </trkpt>
      <trkpt lat="45.97569" lon="6.55435">
        <ele>1935.3</ele>
        <time>2026-02-02T12:26:35Z</time>
      </trkpt>
      <trkpt lat="45.97569" lon="6.55435">
        <ele>1935.3</ele>
        <time>2026-02-02T12:26:36Z</time>
      </trkpt>
      <trkpt lat="45.97569" lon="6.55434">
        <ele>1935.3</ele>
        <time>2026-02-02T12:26:37Z</time>
      </trkpt>
      <trkpt lat="45.97569" lon="6.55434">
        <ele>1935.3</ele>
        <time>2026-02-02T12:26:38Z</time>
      </trkpt>
      <trkpt lat="45.97569" lon="6.55434">
        <ele>1935.3</ele>
        <time>2026-02-02T12:26:39Z</time>
      </trkpt>
      <trkpt lat="45.97569" lon="6.55434">
        <ele>1935.3</ele>
        <time>2026-02-02T12:26:40Z</time>
      </trkpt>
      <trkpt lat="45.97569" lon="6.55434">
        <ele>1935.3</ele>
        <time>2026-02-02T12:26:41Z</time>
      </trkpt>
      <trkpt lat="45.97569" lon="6.55434">
        <ele>1935.3</ele>
        <time>2026-02-02T12:26:42Z</time>
      </trkpt>
      <trkpt lat="45.97569" lon="6.55434">
        <ele>1935.3</ele>
        <time>2026-02-02T12:26:43Z</time>
      </trkpt>
      <trkpt lat="45.97569" lon="6.55434">
        <ele>1935.3</ele>
        <time>2026-02-02T12:26:44Z</time>
      </trkpt>
      <trkpt lat="45.97569" lon="6.55434">
        <ele>1935.3</ele>
        <time>2026-02-02T12:26:45Z</time>
      </trkpt>
      <trkpt lat="45.97569" lon="6.55434">
        <ele>1935.3</ele>
        <time>2026-02-02T12:26:46Z</time>
      </trkpt>
      <trkpt lat="45.97569" lon="6.55434">
        <ele>1935.3</ele>
        <time>2026-02-02T12:26:47Z</time>
      </trkpt>
      <trkpt lat="45.97569" lon="6.55434">
        <ele>1935.3</ele>
        <time>2026-02-02T12:26:48Z</time>
      </trkpt>
      <trkpt lat="45.97569" lon="6.55434">
        <ele>1935.3</ele>
        <time>2026-02-02T12:26:49Z</time>
      </trkpt>
      <trkpt lat="45.97569" lon="6.55434">
        <ele>1935.3</ele>
        <time>2026-02-02T12:26:50Z</time>
      </trkpt>
      <trkpt lat="45.97569" lon="6.55434">
        <ele>1935.3</ele>
        <time>2026-02-02T12:26:51Z</time>
      </trkpt>
      <trkpt lat="45.97569" lon="6.55434">
        <ele>1935.3</ele>
        <time>2026-02-02T12:26:52Z</time>
      </trkpt>
      <trkpt lat="45.97569" lon="6.55434">
        <ele>1935.3</ele>
        <time>2026-02-02T12:26:53Z</time>
      </trkpt>
      <trkpt lat="45.97569" lon="6.55434">
        <ele>1935.3</ele>
        <time>2026-02-02T12:26:54Z</time>
      </trkpt>
      <trkpt lat="45.97569" lon="6.55434">
        <ele>1935.3</ele>
        <time>2026-02-02T12:26:55Z</time>
      </trkpt>
      <trkpt lat="45.97569" lon="6.55433">
        <ele>1935.3</ele>
        <time>2026-02-02T12:26:56Z</time>
      </trkpt>
      <trkpt lat="45.97569" lon="6.55434">
        <ele>1935.3</ele>
        <time>2026-02-02T12:26:57Z</time>
      </trkpt>
      <trkpt lat="45.9757" lon="6.55435">
        <ele>1935.3</ele>
        <time>2026-02-02T12:26:58Z</time>
      </trkpt>
      <trkpt lat="45.97571" lon="6.55436">
        <ele>1934.5</ele>
        <time>2026-02-02T12:26:59Z</time>
      </trkpt>
      <trkpt lat="45.97572" lon="6.55437">
        <ele>1934.5</ele>
        <time>2026-02-02T12:27:00Z</time>
      </trkpt>
      <trkpt lat="45.97573" lon="6.55438">
        <ele>1935.9</ele>
        <time>2026-02-02T12:27:01Z</time>
      </trkpt>
      <trkpt lat="45.97573" lon="6.55438">
        <ele>1935.1</ele>
        <time>2026-02-02T12:27:02Z</time>
      </trkpt>
      <trkpt lat="45.97574" lon="6.55439">
        <ele>1935.1</ele>
        <time>2026-02-02T12:27:03Z</time>
      </trkpt>
      <trkpt lat="45.97575" lon="6.5544">
        <ele>1935.1</ele>
        <time>2026-02-02T12:27:04Z</time>
      </trkpt>
      <trkpt lat="45.97576" lon="6.55442">
        <ele>1935.1</ele>
        <time>2026-02-02T12:27:05Z</time>
      </trkpt>
      <trkpt lat="45.97577" lon="6.55443">
        <ele>1935.5</ele>
        <time>2026-02-02T12:27:06Z</time>
      </trkpt>
      <trkpt lat="45.97577" lon="6.55444">
        <ele>1935.5</ele>
        <time>2026-02-02T12:27:07Z</time>
      </trkpt>
      <trkpt lat="45.97577" lon="6.55445">
        <ele>1935.5</ele>
        <time>2026-02-02T12:27:08Z</time>
      </trkpt>
      <trkpt lat="45.97577" lon="6.55446">
        <ele>1935.5</ele>
        <time>2026-02-02T12:27:09Z</time>
      </trkpt>
      <trkpt lat="45.97577" lon="6.55446">
        <ele>1936.7</ele>
        <time>2026-02-02T12:27:10Z</time>
      </trkpt>
      <trkpt lat="45.97577" lon="6.55447">
        <ele>1936.7</ele>
        <time>2026-02-02T12:27:11Z</time>
      </trkpt>
      <trkpt lat="45.97576" lon="6.55448">
        <ele>1936.7</ele>
        <time>2026-02-02T12:27:12Z</time>
      </trkpt>
      <trkpt lat="45.97576" lon="6.55449">
        <ele>1937.7</ele>
        <time>2026-02-02T12:27:13Z</time>
      </trkpt>
      <trkpt lat="45.97574" lon="6.55449">
        <ele>1937.7</ele>
        <time>2026-02-02T12:27:14Z</time>
      </trkpt>
      <trkpt lat="45.97572" lon="6.55448">
        <ele>1938.6</ele>
        <time>2026-02-02T12:27:15Z</time>
      </trkpt>
      <trkpt lat="45.97571" lon="6.55447">
        <ele>1938.6</ele>
        <time>2026-02-02T12:27:16Z</time>
      </trkpt>
      <trkpt lat="45.9757" lon="6.55446">
        <ele>1938.6</ele>
        <time>2026-02-02T12:27:17Z</time>
      </trkpt>
      <trkpt lat="45.97569" lon="6.55445">
        <ele>1938.1</ele>
        <time>2026-02-02T12:27:18Z</time>
      </trkpt>
      <trkpt lat="45.97568" lon="6.55445">
        <ele>1938.1</ele>
        <time>2026-02-02T12:27:19Z</time>
      </trkpt>
      <trkpt lat="45.97567" lon="6.55444">
        <ele>1938.1</ele>
        <time>2026-02-02T12:27:20Z</time>
      </trkpt>
      <trkpt lat="45.97567" lon="6.55444">
        <ele>1938.9</ele>
        <time>2026-02-02T12:27:21Z</time>
      </trkpt>
      <trkpt lat="45.97566" lon="6.55444">
        <ele>1938.9</ele>
        <time>2026-02-02T12:27:22Z</time>
      </trkpt>
      <trkpt lat="45.97565" lon="6.55444">
        <ele>1938.9</ele>
        <time>2026-02-02T12:27:23Z</time>
      </trkpt>
      <trkpt lat="45.97565" lon="6.55444">
        <ele>1938.9</ele>
        <time>2026-02-02T12:27:24Z</time>
      </trkpt>
      <trkpt lat="45.97564" lon="6.55444">
        <ele>1939.8</ele>
        <time>2026-02-02T12:27:25Z</time>
      </trkpt>
      <trkpt lat="45.97563" lon="6.55444">
        <ele>1939.8</ele>
        <time>2026-02-02T12:27:26Z</time>
      </trkpt>
      <trkpt lat="45.97562" lon="6.55444">
        <ele>1939.8</ele>
        <time>2026-02-02T12:27:27Z</time>
      </trkpt>
      <trkpt lat="45.97562" lon="6.55444">
        <ele>1939.8</ele>
        <time>2026-02-02T12:27:28Z</time>
      </trkpt>
      <trkpt lat="45.97562" lon="6.55444">
        <ele>1939.8</ele>
        <time>2026-02-02T12:27:29Z</time>
      </trkpt>
      <trkpt lat="45.97563" lon="6.55444">
        <ele>1939.8</ele>
        <time>2026-02-02T12:27:30Z</time>
      </trkpt>
      <trkpt lat="45.97563" lon="6.55444">
        <ele>1939.8</ele>
        <time>2026-02-02T12:27:31Z</time>
      </trkpt>
      <trkpt lat="45.97563" lon="6.55445">
        <ele>1939.8</ele>
        <time>2026-02-02T12:27:32Z</time>
      </trkpt>
      <trkpt lat="45.97563" lon="6.55445">
        <ele>1939.8</ele>
        <time>2026-02-02T12:27:33Z</time>
      </trkpt>
      <trkpt lat="45.97563" lon="6.55445">
        <ele>1939.8</ele>
        <time>2026-02-02T12:27:34Z</time>
      </trkpt>
      <trkpt lat="45.97563" lon="6.55445">
        <ele>1939.8</ele>
        <time>2026-02-02T12:27:35Z</time>
      </trkpt>
      <trkpt lat="45.97563" lon="6.55445">
        <ele>1939.8</ele>
        <time>2026-02-02T12:27:36Z</time>
      </trkpt>
      <trkpt lat="45.97563" lon="6.55445">
        <ele>1939.8</ele>
        <time>2026-02-02T12:27:37Z</time>
      </trkpt>
      <trkpt lat="45.97563" lon="6.55445">
        <ele>1939.8</ele>
        <time>2026-02-02T12:27:38Z</time>
      </trkpt>
      <trkpt lat="45.97563" lon="6.55445">
        <ele>1939.8</ele>
        <time>2026-02-02T12:27:39Z</time>
      </trkpt>
      <trkpt lat="45.97563" lon="6.55445">
        <ele>1939.8</ele>
        <time>2026-02-02T12:27:40Z</time>
      </trkpt>
      <trkpt lat="45.97563" lon="6.55445">
        <ele>1939.8</ele>
        <time>2026-02-02T12:27:41Z</time>
      </trkpt>
      <trkpt lat="45.97563" lon="6.55445">
        <ele>1939.8</ele>
        <time>2026-02-02T12:27:42Z</time>
      </trkpt>
      <trkpt lat="45.97563" lon="6.55445">
        <ele>1939.8</ele>
        <time>2026-02-02T12:27:43Z</time>
      </trkpt>
      <trkpt lat="45.97562" lon="6.55445">
        <ele>1939.8</ele>
        <time>2026-02-02T12:27:44Z</time>
      </trkpt>
      <trkpt lat="45.97561" lon="6.55445">
        <ele>1940.7</ele>
        <time>2026-02-02T12:27:45Z</time>
      </trkpt>
      <trkpt lat="45.97559" lon="6.55445">
        <ele>1940.7</ele>
        <time>2026-02-02T12:27:46Z</time>
      </trkpt>
      <trkpt lat="45.97558" lon="6.55445">
        <ele>1941.6</ele>
        <time>2026-02-02T12:27:47Z</time>
      </trkpt>
      <trkpt lat="45.97556" lon="6.55445">
        <ele>1941.6</ele>
        <time>2026-02-02T12:27:48Z</time>
      </trkpt>
      <trkpt lat="45.97555" lon="6.55445">
        <ele>1941.6</ele>
        <time>2026-02-02T12:27:49Z</time>
      </trkpt>
      <trkpt lat="45.97554" lon="6.55445">
        <ele>1942.5</ele>
        <time>2026-02-02T12:27:50Z</time>
      </trkpt>
      <trkpt lat="45.97553" lon="6.55444">
        <ele>1942.5</ele>
        <time>2026-02-02T12:27:51Z</time>
      </trkpt>
      <trkpt lat="45.97552" lon="6.55444">
        <ele>1943.3</ele>
        <time>2026-02-02T12:27:52Z</time>
      </trkpt>
      <trkpt lat="45.97551" lon="6.55444">
        <ele>1943.3</ele>
        <time>2026-02-02T12:27:53Z</time>
      </trkpt>
      <trkpt lat="45.97549" lon="6.55444">
        <ele>1943.3</ele>
        <time>2026-02-02T12:27:54Z</time>
      </trkpt>
      <trkpt lat="45.97548" lon="6.55444">
        <ele>1944.1</ele>
        <time>2026-02-02T12:27:55Z</time>
      </trkpt>
      <trkpt lat="45.97548" lon="6.55445">
        <ele>1944.1</ele>
        <time>2026-02-02T12:27:56Z</time>
      </trkpt>
      <trkpt lat="45.97547" lon="6.55445">
        <ele>1944.1</ele>
        <time>2026-02-02T12:27:57Z</time>
      </trkpt>
      <trkpt lat="45.97546" lon="6.55445">
        <ele>1944.9</ele>
        <time>2026-02-02T12:27:58Z</time>
      </trkpt>
      <trkpt lat="45.97545" lon="6.55446">
        <ele>1944.9</ele>
        <time>2026-02-02T12:27:59Z</time>
      </trkpt>
      <trkpt lat="45.97543" lon="6.55446">
        <ele>1944.9</ele>
        <time>2026-02-02T12:28:00Z</time>
      </trkpt>
      <trkpt lat="45.97542" lon="6.55446">
        <ele>1945.6</ele>
        <time>2026-02-02T12:28:01Z</time>
      </trkpt>
      <trkpt lat="45.97541" lon="6.55446">
        <ele>1945.6</ele>
        <time>2026-02-02T12:28:02Z</time>
      </trkpt>
      <trkpt lat="45.9754" lon="6.55446">
        <ele>1946.3</ele>
        <time>2026-02-02T12:28:03Z</time>
      </trkpt>
      <trkpt lat="45.97539" lon="6.55446">
        <ele>1946.3</ele>
        <time>2026-02-02T12:28:04Z</time>
      </trkpt>
      <trkpt lat="45.97538" lon="6.55446">
        <ele>1946.3</ele>
        <time>2026-02-02T12:28:05Z</time>
      </trkpt>
      <trkpt lat="45.97538" lon="6.55446">
        <ele>1946.3</ele>
        <time>2026-02-02T12:28:06Z</time>
      </trkpt>
      <trkpt lat="45.97537" lon="6.55446">
        <ele>1947</ele>
        <time>2026-02-02T12:28:07Z</time>
      </trkpt>
      <trkpt lat="45.97536" lon="6.55446">
        <ele>1947</ele>
        <time>2026-02-02T12:28:08Z</time>
      </trkpt>
      <trkpt lat="45.97536" lon="6.55446">
        <ele>1947</ele>
        <time>2026-02-02T12:28:10Z</time>
      </trkpt>
      <trkpt lat="45.97536" lon="6.55445">
        <ele>1947</ele>
        <time>2026-02-02T12:28:11Z</time>
      </trkpt>
      <trkpt lat="45.97537" lon="6.55445">
        <ele>1947</ele>
        <time>2026-02-02T12:28:12Z</time>
      </trkpt>
      <trkpt lat="45.97538" lon="6.55445">
        <ele>1946.3</ele>
        <time>2026-02-02T12:28:13Z</time>
      </trkpt>
      <trkpt lat="45.97538" lon="6.55446">
        <ele>1946.3</ele>
        <time>2026-02-02T12:28:14Z</time>
      </trkpt>
      <trkpt lat="45.97539" lon="6.55446">
        <ele>1946.3</ele>
        <time>2026-02-02T12:28:15Z</time>
      </trkpt>
      <trkpt lat="45.97539" lon="6.55446">
        <ele>1946.3</ele>
        <time>2026-02-02T12:28:16Z</time>
      </trkpt>
      <trkpt lat="45.97539" lon="6.55446">
        <ele>1946.3</ele>
        <time>2026-02-02T12:28:17Z</time>
      </trkpt>
      <trkpt lat="45.97539" lon="6.55446">
        <ele>1948.1</ele>
        <time>2026-02-02T12:28:18Z</time>
      </trkpt>
      <trkpt lat="45.9754" lon="6.55446">
        <ele>1948.1</ele>
        <time>2026-02-02T12:28:20Z</time>
      </trkpt>
      <trkpt lat="45.9754" lon="6.55446">
        <ele>1948.1</ele>
        <time>2026-02-02T12:28:21Z</time>
      </trkpt>
      <trkpt lat="45.9754" lon="6.55446">
        <ele>1948.1</ele>
        <time>2026-02-02T12:28:22Z</time>
      </trkpt>
      <trkpt lat="45.9754" lon="6.55447">
        <ele>1948.1</ele>
        <time>2026-02-02T12:28:23Z</time>
      </trkpt>
      <trkpt lat="45.9754" lon="6.55447">
        <ele>1948.1</ele>
        <time>2026-02-02T12:28:24Z</time>
      </trkpt>
      <trkpt lat="45.97538" lon="6.55447">
        <ele>1948.1</ele>
        <time>2026-02-02T12:28:25Z</time>
      </trkpt>
      <trkpt lat="45.97537" lon="6.55447">
        <ele>1948.8</ele>
        <time>2026-02-02T12:28:26Z</time>
      </trkpt>
      <trkpt lat="45.97536" lon="6.55448">
        <ele>1948.8</ele>
        <time>2026-02-02T12:28:27Z</time>
      </trkpt>
      <trkpt lat="45.97535" lon="6.55449">
        <ele>1948.8</ele>
        <time>2026-02-02T12:28:28Z</time>
      </trkpt>
      <trkpt lat="45.97535" lon="6.5545">
        <ele>1948.8</ele>
        <time>2026-02-02T12:28:29Z</time>
      </trkpt>
      <trkpt lat="45.97536" lon="6.55451">
        <ele>1950.6</ele>
        <time>2026-02-02T12:28:30Z</time>
      </trkpt>
      <trkpt lat="45.97536" lon="6.55451">
        <ele>1950.6</ele>
        <time>2026-02-02T12:28:31Z</time>
      </trkpt>
      <trkpt lat="45.97536" lon="6.55451">
        <ele>1950.6</ele>
        <time>2026-02-02T12:28:32Z</time>
      </trkpt>
      <trkpt lat="45.97537" lon="6.55452">
        <ele>1950.6</ele>
        <time>2026-02-02T12:28:33Z</time>
      </trkpt>
      <trkpt lat="45.97538" lon="6.55453">
        <ele>1949.8</ele>
        <time>2026-02-02T12:28:34Z</time>
      </trkpt>
      <trkpt lat="45.9754" lon="6.55454">
        <ele>1949.8</ele>
        <time>2026-02-02T12:28:35Z</time>
      </trkpt>
      <trkpt lat="45.97541" lon="6.55454">
        <ele>1949.1</ele>
        <time>2026-02-02T12:28:36Z</time>
      </trkpt>
      <trkpt lat="45.97541" lon="6.55455">
        <ele>1950.8</ele>
        <time>2026-02-02T12:28:37Z</time>
      </trkpt>
      <trkpt lat="45.97542" lon="6.55455">
        <ele>1950.8</ele>
        <time>2026-02-02T12:28:38Z</time>
      </trkpt>
      <trkpt lat="45.97543" lon="6.55455">
        <ele>1950.8</ele>
        <time>2026-02-02T12:28:39Z</time>
      </trkpt>
      <trkpt lat="45.97544" lon="6.55456">
        <ele>1950</ele>
        <time>2026-02-02T12:28:40Z</time>
      </trkpt>
      <trkpt lat="45.97545" lon="6.55457">
        <ele>1950</ele>
        <time>2026-02-02T12:28:41Z</time>
      </trkpt>
      <trkpt lat="45.97545" lon="6.55457">
        <ele>1950</ele>
        <time>2026-02-02T12:28:42Z</time>
      </trkpt>
      <trkpt lat="45.97546" lon="6.55458">
        <ele>1949.1</ele>
        <time>2026-02-02T12:28:43Z</time>
      </trkpt>
      <trkpt lat="45.97547" lon="6.55458">
        <ele>1949.1</ele>
        <time>2026-02-02T12:28:44Z</time>
      </trkpt>
      <trkpt lat="45.97548" lon="6.55458">
        <ele>1949.1</ele>
        <time>2026-02-02T12:28:45Z</time>
      </trkpt>
      <trkpt lat="45.97549" lon="6.55459">
        <ele>1949.1</ele>
        <time>2026-02-02T12:28:46Z</time>
      </trkpt>
      <trkpt lat="45.97549" lon="6.5546">
        <ele>1949.8</ele>
        <time>2026-02-02T12:28:47Z</time>
      </trkpt>
      <trkpt lat="45.9755" lon="6.5546">
        <ele>1949.8</ele>
        <time>2026-02-02T12:28:48Z</time>
      </trkpt>
      <trkpt lat="45.97551" lon="6.55461">
        <ele>1949.8</ele>
        <time>2026-02-02T12:28:49Z</time>
      </trkpt>
      <trkpt lat="45.97551" lon="6.55462">
        <ele>1949.8</ele>
        <time>2026-02-02T12:28:50Z</time>
      </trkpt>
      <trkpt lat="45.97552" lon="6.55463">
        <ele>1951.5</ele>
        <time>2026-02-02T12:28:51Z</time>
      </trkpt>
      <trkpt lat="45.97553" lon="6.55464">
        <ele>1950.4</ele>
        <time>2026-02-02T12:28:52Z</time>
      </trkpt>
      <trkpt lat="45.97553" lon="6.55465">
        <ele>1950.4</ele>
        <time>2026-02-02T12:28:53Z</time>
      </trkpt>
      <trkpt lat="45.97553" lon="6.55464">
        <ele>1950.4</ele>
        <time>2026-02-02T12:28:54Z</time>
      </trkpt>
      <trkpt lat="45.97553" lon="6.55464">
        <ele>1950.4</ele>
        <time>2026-02-02T12:28:55Z</time>
      </trkpt>
      <trkpt lat="45.97552" lon="6.55464">
        <ele>1950.4</ele>
        <time>2026-02-02T12:28:56Z</time>
      </trkpt>
      <trkpt lat="45.97552" lon="6.55464">
        <ele>1950.4</ele>
        <time>2026-02-02T12:28:57Z</time>
      </trkpt>
      <trkpt lat="45.97552" lon="6.55464">
        <ele>1951.5</ele>
        <time>2026-02-02T12:28:58Z</time>
      </trkpt>
      <trkpt lat="45.97552" lon="6.55463">
        <ele>1951.5</ele>
        <time>2026-02-02T12:28:59Z</time>
      </trkpt>
      <trkpt lat="45.97552" lon="6.55463">
        <ele>1951.5</ele>
        <time>2026-02-02T12:29:00Z</time>
      </trkpt>
      <trkpt lat="45.97552" lon="6.55463">
        <ele>1949.8</ele>
        <time>2026-02-02T12:29:01Z</time>
      </trkpt>
      <trkpt lat="45.97552" lon="6.55463">
        <ele>1949.8</ele>
        <time>2026-02-02T12:29:02Z</time>
      </trkpt>
      <trkpt lat="45.97552" lon="6.55463">
        <ele>1949.8</ele>
        <time>2026-02-02T12:29:03Z</time>
      </trkpt>
      <trkpt lat="45.97552" lon="6.55463">
        <ele>1949.8</ele>
        <time>2026-02-02T12:29:04Z</time>
      </trkpt>
      <trkpt lat="45.97552" lon="6.55463">
        <ele>1949.8</ele>
        <time>2026-02-02T12:29:05Z</time>
      </trkpt>
      <trkpt lat="45.97552" lon="6.55463">
        <ele>1948.7</ele>
        <time>2026-02-02T12:29:06Z</time>
      </trkpt>
      <trkpt lat="45.97552" lon="6.55463">
        <ele>1948.7</ele>
        <time>2026-02-02T12:29:07Z</time>
      </trkpt>
      <trkpt lat="45.97553" lon="6.55463">
        <ele>1950.4</ele>
        <time>2026-02-02T12:29:08Z</time>
      </trkpt>
      <trkpt lat="45.97553" lon="6.55464">
        <ele>1950.4</ele>
        <time>2026-02-02T12:29:09Z</time>
      </trkpt>
      <trkpt lat="45.97554" lon="6.55464">
        <ele>1950.4</ele>
        <time>2026-02-02T12:29:10Z</time>
      </trkpt>
      <trkpt lat="45.97554" lon="6.55465">
        <ele>1950.4</ele>
        <time>2026-02-02T12:29:11Z</time>
      </trkpt>
      <trkpt lat="45.97555" lon="6.55466">
        <ele>1949.3</ele>
        <time>2026-02-02T12:29:12Z</time>
      </trkpt>
      <trkpt lat="45.97556" lon="6.55467">
        <ele>1949.3</ele>
        <time>2026-02-02T12:29:13Z</time>
      </trkpt>
      <trkpt lat="45.97557" lon="6.55468">
        <ele>1950.9</ele>
        <time>2026-02-02T12:29:14Z</time>
      </trkpt>
      <trkpt lat="45.97558" lon="6.55469">
        <ele>1949.8</ele>
        <time>2026-02-02T12:29:15Z</time>
      </trkpt>
      <trkpt lat="45.97559" lon="6.5547">
        <ele>1949.8</ele>
        <time>2026-02-02T12:29:16Z</time>
      </trkpt>
      <trkpt lat="45.9756" lon="6.55471">
        <ele>1949.8</ele>
        <time>2026-02-02T12:29:17Z</time>
      </trkpt>
      <trkpt lat="45.9756" lon="6.55472">
        <ele>1949.8</ele>
        <time>2026-02-02T12:29:18Z</time>
      </trkpt>
      <trkpt lat="45.97561" lon="6.55473">
        <ele>1951.4</ele>
        <time>2026-02-02T12:29:19Z</time>
      </trkpt>
      <trkpt lat="45.97562" lon="6.55474">
        <ele>1950.2</ele>
        <time>2026-02-02T12:29:20Z</time>
      </trkpt>
      <trkpt lat="45.97562" lon="6.55475">
        <ele>1950.2</ele>
        <time>2026-02-02T12:29:21Z</time>
      </trkpt>
      <trkpt lat="45.97563" lon="6.55476">
        <ele>1951.8</ele>
        <time>2026-02-02T12:29:22Z</time>
      </trkpt>
      <trkpt lat="45.97564" lon="6.55478">
        <ele>1951.8</ele>
        <time>2026-02-02T12:29:23Z</time>
      </trkpt>
      <trkpt lat="45.97564" lon="6.5548">
        <ele>1950.5</ele>
        <time>2026-02-02T12:29:25Z</time>
      </trkpt>
      <trkpt lat="45.97565" lon="6.55481">
        <ele>1952</ele>
        <time>2026-02-02T12:29:26Z</time>
      </trkpt>
      <trkpt lat="45.97565" lon="6.55482">
        <ele>1952</ele>
        <time>2026-02-02T12:29:27Z</time>
      </trkpt>
      <trkpt lat="45.97565" lon="6.55484">
        <ele>1952</ele>
        <time>2026-02-02T12:29:28Z</time>
      </trkpt>
      <trkpt lat="45.97565" lon="6.55484">
        <ele>1952</ele>
        <time>2026-02-02T12:29:29Z</time>
      </trkpt>
      <trkpt lat="45.97565" lon="6.55484">
        <ele>1952</ele>
        <time>2026-02-02T12:29:30Z</time>
      </trkpt>
      <trkpt lat="45.97566" lon="6.55485">
        <ele>1952</ele>
        <time>2026-02-02T12:29:31Z</time>
      </trkpt>
      <trkpt lat="45.97565" lon="6.55484">
        <ele>1952</ele>
        <time>2026-02-02T12:29:32Z</time>
      </trkpt>
      <trkpt lat="45.97565" lon="6.55485">
        <ele>1952</ele>
        <time>2026-02-02T12:29:33Z</time>
      </trkpt>
      <trkpt lat="45.97565" lon="6.55485">
        <ele>1953.3</ele>
        <time>2026-02-02T12:29:34Z</time>
      </trkpt>
      <trkpt lat="45.97565" lon="6.55485">
        <ele>1952</ele>
        <time>2026-02-02T12:29:35Z</time>
      </trkpt>
      <trkpt lat="45.97565" lon="6.55484">
        <ele>1952</ele>
        <time>2026-02-02T12:29:36Z</time>
      </trkpt>
      <trkpt lat="45.97565" lon="6.55484">
        <ele>1952</ele>
        <time>2026-02-02T12:29:37Z</time>
      </trkpt>
      <trkpt lat="45.97565" lon="6.55484">
        <ele>1952</ele>
        <time>2026-02-02T12:29:38Z</time>
      </trkpt>
      <trkpt lat="45.97565" lon="6.55483">
        <ele>1952</ele>
        <time>2026-02-02T12:29:39Z</time>
      </trkpt>
      <trkpt lat="45.97565" lon="6.55483">
        <ele>1952</ele>
        <time>2026-02-02T12:29:40Z</time>
      </trkpt>
      <trkpt lat="45.97565" lon="6.55483">
        <ele>1952</ele>
        <time>2026-02-02T12:29:41Z</time>
      </trkpt>
      <trkpt lat="45.97565" lon="6.55483">
        <ele>1952</ele>
        <time>2026-02-02T12:29:42Z</time>
      </trkpt>
      <trkpt lat="45.97565" lon="6.55482">
        <ele>1952</ele>
        <time>2026-02-02T12:29:43Z</time>
      </trkpt>
      <trkpt lat="45.97565" lon="6.55482">
        <ele>1952</ele>
        <time>2026-02-02T12:29:44Z</time>
      </trkpt>
      <trkpt lat="45.97565" lon="6.55482">
        <ele>1952</ele>
        <time>2026-02-02T12:29:45Z</time>
      </trkpt>
      <trkpt lat="45.97565" lon="6.55482">
        <ele>1952</ele>
        <time>2026-02-02T12:29:46Z</time>
      </trkpt>
      <trkpt lat="45.97565" lon="6.55482">
        <ele>1952</ele>
        <time>2026-02-02T12:29:47Z</time>
      </trkpt>
      <trkpt lat="45.97565" lon="6.55482">
        <ele>1952</ele>
        <time>2026-02-02T12:29:48Z</time>
      </trkpt>
      <trkpt lat="45.97565" lon="6.55482">
        <ele>1952</ele>
        <time>2026-02-02T12:29:49Z</time>
      </trkpt>
      <trkpt lat="45.97565" lon="6.55482">
        <ele>1952</ele>
        <time>2026-02-02T12:29:50Z</time>
      </trkpt>
      <trkpt lat="45.97565" lon="6.55482">
        <ele>1952</ele>
        <time>2026-02-02T12:29:51Z</time>
      </trkpt>
      <trkpt lat="45.97564" lon="6.55483">
        <ele>1952</ele>
        <time>2026-02-02T12:29:52Z</time>
      </trkpt>
      <trkpt lat="45.97563" lon="6.55484">
        <ele>1953.2</ele>
        <time>2026-02-02T12:29:53Z</time>
      </trkpt>
      <trkpt lat="45.97562" lon="6.55484">
        <ele>1953.2</ele>
        <time>2026-02-02T12:29:54Z</time>
      </trkpt>
      <trkpt lat="45.97561" lon="6.55483">
        <ele>1954.5</ele>
        <time>2026-02-02T12:29:55Z</time>
      </trkpt>
      <trkpt lat="45.97559" lon="6.55481">
        <ele>1954.5</ele>
        <time>2026-02-02T12:29:56Z</time>
      </trkpt>
      <trkpt lat="45.97557" lon="6.55481">
        <ele>1955.8</ele>
        <time>2026-02-02T12:29:57Z</time>
      </trkpt>
      <trkpt lat="45.97556" lon="6.55481">
        <ele>1955.8</ele>
        <time>2026-02-02T12:29:59Z</time>
      </trkpt>
      <trkpt lat="45.97555" lon="6.55481">
        <ele>1957.1</ele>
        <time>2026-02-02T12:30:00Z</time>
      </trkpt>
      <trkpt lat="45.97553" lon="6.55481">
        <ele>1957.1</ele>
        <time>2026-02-02T12:30:01Z</time>
      </trkpt>
      <trkpt lat="45.97553" lon="6.55482">
        <ele>1957.1</ele>
        <time>2026-02-02T12:30:02Z</time>
      </trkpt>
      <trkpt lat="45.97552" lon="6.55482">
        <ele>1958.3</ele>
        <time>2026-02-02T12:30:03Z</time>
      </trkpt>
      <trkpt lat="45.97551" lon="6.55482">
        <ele>1958.3</ele>
        <time>2026-02-02T12:30:04Z</time>
      </trkpt>
      <trkpt lat="45.9755" lon="6.55482">
        <ele>1958.3</ele>
        <time>2026-02-02T12:30:05Z</time>
      </trkpt>
      <trkpt lat="45.9755" lon="6.55482">
        <ele>1958.3</ele>
        <time>2026-02-02T12:30:06Z</time>
      </trkpt>
      <trkpt lat="45.97549" lon="6.55482">
        <ele>1958.3</ele>
        <time>2026-02-02T12:30:07Z</time>
      </trkpt>
      <trkpt lat="45.97549" lon="6.55483">
        <ele>1959.5</ele>
        <time>2026-02-02T12:30:08Z</time>
      </trkpt>
      <trkpt lat="45.97548" lon="6.55483">
        <ele>1959.5</ele>
        <time>2026-02-02T12:30:09Z</time>
      </trkpt>
      <trkpt lat="45.97546" lon="6.55484">
        <ele>1959.5</ele>
        <time>2026-02-02T12:30:10Z</time>
      </trkpt>
      <trkpt lat="45.97544" lon="6.55484">
        <ele>1960.7</ele>
        <time>2026-02-02T12:30:11Z</time>
      </trkpt>
      <trkpt lat="45.97544" lon="6.55484">
        <ele>1960.7</ele>
        <time>2026-02-02T12:30:12Z</time>
      </trkpt>
      <trkpt lat="45.97543" lon="6.55484">
        <ele>1961.8</ele>
        <time>2026-02-02T12:30:13Z</time>
      </trkpt>
      <trkpt lat="45.97542" lon="6.55484">
        <ele>1961.8</ele>
        <time>2026-02-02T12:30:14Z</time>
      </trkpt>
      <trkpt lat="45.97541" lon="6.55484">
        <ele>1961.8</ele>
        <time>2026-02-02T12:30:15Z</time>
      </trkpt>
      <trkpt lat="45.97541" lon="6.55484">
        <ele>1961.8</ele>
        <time>2026-02-02T12:30:16Z</time>
      </trkpt>
      <trkpt lat="45.9754" lon="6.55484">
        <ele>1961.8</ele>
        <time>2026-02-02T12:30:17Z</time>
      </trkpt>
      <trkpt lat="45.9754" lon="6.55483">
        <ele>1961.8</ele>
        <time>2026-02-02T12:30:18Z</time>
      </trkpt>
      <trkpt lat="45.97541" lon="6.55483">
        <ele>1961.8</ele>
        <time>2026-02-02T12:30:19Z</time>
      </trkpt>
      <trkpt lat="45.97541" lon="6.55483">
        <ele>1961.8</ele>
        <time>2026-02-02T12:30:20Z</time>
      </trkpt>
      <trkpt lat="45.97541" lon="6.55483">
        <ele>1961.8</ele>
        <time>2026-02-02T12:30:21Z</time>
      </trkpt>
      <trkpt lat="45.97542" lon="6.55483">
        <ele>1961.8</ele>
        <time>2026-02-02T12:30:22Z</time>
      </trkpt>
      <trkpt lat="45.97542" lon="6.55483">
        <ele>1961.8</ele>
        <time>2026-02-02T12:30:23Z</time>
      </trkpt>
      <trkpt lat="45.97542" lon="6.55483">
        <ele>1961.8</ele>
        <time>2026-02-02T12:30:24Z</time>
      </trkpt>
      <trkpt lat="45.97542" lon="6.55483">
        <ele>1961.8</ele>
        <time>2026-02-02T12:30:25Z</time>
      </trkpt>
      <trkpt lat="45.97542" lon="6.55483">
        <ele>1961.8</ele>
        <time>2026-02-02T12:30:26Z</time>
      </trkpt>
      <trkpt lat="45.97542" lon="6.55483">
        <ele>1961.8</ele>
        <time>2026-02-02T12:30:27Z</time>
      </trkpt>
      <trkpt lat="45.97542" lon="6.55483">
        <ele>1961.8</ele>
        <time>2026-02-02T12:30:28Z</time>
      </trkpt>
      <trkpt lat="45.97542" lon="6.55483">
        <ele>1961.8</ele>
        <time>2026-02-02T12:30:29Z</time>
      </trkpt>
      <trkpt lat="45.97542" lon="6.55483">
        <ele>1961.8</ele>
        <time>2026-02-02T12:30:30Z</time>
      </trkpt>
      <trkpt lat="45.97542" lon="6.55483">
        <ele>1961.8</ele>
        <time>2026-02-02T12:30:31Z</time>
      </trkpt>
      <trkpt lat="45.97542" lon="6.55483">
        <ele>1961.8</ele>
        <time>2026-02-02T12:30:32Z</time>
      </trkpt>
      <trkpt lat="45.97542" lon="6.55483">
        <ele>1961.8</ele>
        <time>2026-02-02T12:30:33Z</time>
      </trkpt>
      <trkpt lat="45.97542" lon="6.55483">
        <ele>1961.8</ele>
        <time>2026-02-02T12:30:34Z</time>
      </trkpt>
      <trkpt lat="45.97543" lon="6.55484">
        <ele>1961.8</ele>
        <time>2026-02-02T12:30:35Z</time>
      </trkpt>
      <trkpt lat="45.97543" lon="6.55484">
        <ele>1961.8</ele>
        <time>2026-02-02T12:30:36Z</time>
      </trkpt>
      <trkpt lat="45.97543" lon="6.55484">
        <ele>1961.8</ele>
        <time>2026-02-02T12:30:37Z</time>
      </trkpt>
      <trkpt lat="45.97543" lon="6.55484">
        <ele>1961.8</ele>
        <time>2026-02-02T12:30:38Z</time>
      </trkpt>
      <trkpt lat="45.97543" lon="6.55484">
        <ele>1961.8</ele>
        <time>2026-02-02T12:30:39Z</time>
      </trkpt>
      <trkpt lat="45.97543" lon="6.55484">
        <ele>1961.8</ele>
        <time>2026-02-02T12:30:40Z</time>
      </trkpt>
      <trkpt lat="45.97541" lon="6.55484">
        <ele>1961.8</ele>
        <time>2026-02-02T12:30:41Z</time>
      </trkpt>
      <trkpt lat="45.97541" lon="6.55484">
        <ele>1961.8</ele>
        <time>2026-02-02T12:30:42Z</time>
      </trkpt>
      <trkpt lat="45.9754" lon="6.55484">
        <ele>1962.8</ele>
        <time>2026-02-02T12:30:43Z</time>
      </trkpt>
      <trkpt lat="45.97538" lon="6.55484">
        <ele>1962.8</ele>
        <time>2026-02-02T12:30:44Z</time>
      </trkpt>
      <trkpt lat="45.97537" lon="6.55484">
        <ele>1962.8</ele>
        <time>2026-02-02T12:30:45Z</time>
      </trkpt>
      <trkpt lat="45.97537" lon="6.55484">
        <ele>1963.8</ele>
        <time>2026-02-02T12:30:46Z</time>
      </trkpt>
      <trkpt lat="45.97536" lon="6.55483">
        <ele>1963.8</ele>
        <time>2026-02-02T12:30:47Z</time>
      </trkpt>
      <trkpt lat="45.97535" lon="6.55483">
        <ele>1963.8</ele>
        <time>2026-02-02T12:30:48Z</time>
      </trkpt>
      <trkpt lat="45.97533" lon="6.55482">
        <ele>1964.9</ele>
        <time>2026-02-02T12:30:49Z</time>
      </trkpt>
      <trkpt lat="45.97532" lon="6.55483">
        <ele>1964.9</ele>
        <time>2026-02-02T12:30:50Z</time>
      </trkpt>
      <trkpt lat="45.97532" lon="6.55484">
        <ele>1964.9</ele>
        <time>2026-02-02T12:30:51Z</time>
      </trkpt>
      <trkpt lat="45.97532" lon="6.55485">
        <ele>1966.7</ele>
        <time>2026-02-02T12:30:52Z</time>
      </trkpt>
      <trkpt lat="45.97533" lon="6.55486">
        <ele>1966.7</ele>
        <time>2026-02-02T12:30:53Z</time>
      </trkpt>
      <trkpt lat="45.97534" lon="6.55486">
        <ele>1966.7</ele>
        <time>2026-02-02T12:30:54Z</time>
      </trkpt>
      <trkpt lat="45.97534" lon="6.55487">
        <ele>1965.6</ele>
        <time>2026-02-02T12:30:55Z</time>
      </trkpt>
      <trkpt lat="45.97535" lon="6.55488">
        <ele>1965.6</ele>
        <time>2026-02-02T12:30:56Z</time>
      </trkpt>
      <trkpt lat="45.97537" lon="6.55488">
        <ele>1965.6</ele>
        <time>2026-02-02T12:30:57Z</time>
      </trkpt>
      <trkpt lat="45.97537" lon="6.55489">
        <ele>1964.5</ele>
        <time>2026-02-02T12:30:58Z</time>
      </trkpt>
      <trkpt lat="45.97538" lon="6.55489">
        <ele>1966.1</ele>
        <time>2026-02-02T12:30:59Z</time>
      </trkpt>
      <trkpt lat="45.97539" lon="6.5549">
        <ele>1966.1</ele>
        <time>2026-02-02T12:31:00Z</time>
      </trkpt>
      <trkpt lat="45.9754" lon="6.5549">
        <ele>1966.1</ele>
        <time>2026-02-02T12:31:01Z</time>
      </trkpt>
      <trkpt lat="45.9754" lon="6.55491">
        <ele>1965</ele>
        <time>2026-02-02T12:31:02Z</time>
      </trkpt>
      <trkpt lat="45.97541" lon="6.55491">
        <ele>1965</ele>
        <time>2026-02-02T12:31:03Z</time>
      </trkpt>
      <trkpt lat="45.97541" lon="6.55491">
        <ele>1965</ele>
        <time>2026-02-02T12:31:04Z</time>
      </trkpt>
      <trkpt lat="45.97542" lon="6.55491">
        <ele>1965</ele>
        <time>2026-02-02T12:31:05Z</time>
      </trkpt>
      <trkpt lat="45.97543" lon="6.55492">
        <ele>1965</ele>
        <time>2026-02-02T12:31:06Z</time>
      </trkpt>
      <trkpt lat="45.97543" lon="6.55492">
        <ele>1963.8</ele>
        <time>2026-02-02T12:31:07Z</time>
      </trkpt>
      <trkpt lat="45.97544" lon="6.55492">
        <ele>1963.8</ele>
        <time>2026-02-02T12:31:08Z</time>
      </trkpt>
      <trkpt lat="45.97545" lon="6.55492">
        <ele>1963.8</ele>
        <time>2026-02-02T12:31:09Z</time>
      </trkpt>
      <trkpt lat="45.97546" lon="6.55493">
        <ele>1963.8</ele>
        <time>2026-02-02T12:31:10Z</time>
      </trkpt>
      <trkpt lat="45.97546" lon="6.55493">
        <ele>1963.8</ele>
        <time>2026-02-02T12:31:11Z</time>
      </trkpt>
      <trkpt lat="45.97546" lon="6.55493">
        <ele>1963.8</ele>
        <time>2026-02-02T12:31:12Z</time>
      </trkpt>
      <trkpt lat="45.97546" lon="6.55493">
        <ele>1965.3</ele>
        <time>2026-02-02T12:31:13Z</time>
      </trkpt>
      <trkpt lat="45.97546" lon="6.55493">
        <ele>1965.3</ele>
        <time>2026-02-02T12:31:14Z</time>
      </trkpt>
      <trkpt lat="45.97546" lon="6.55494">
        <ele>1965.3</ele>
        <time>2026-02-02T12:31:15Z</time>
      </trkpt>
      <trkpt lat="45.97546" lon="6.55494">
        <ele>1965.3</ele>
        <time>2026-02-02T12:31:16Z</time>
      </trkpt>
      <trkpt lat="45.97546" lon="6.55494">
        <ele>1965.3</ele>
        <time>2026-02-02T12:31:17Z</time>
      </trkpt>
      <trkpt lat="45.97545" lon="6.55494">
        <ele>1965.3</ele>
        <time>2026-02-02T12:31:18Z</time>
      </trkpt>
      <trkpt lat="45.97545" lon="6.55494">
        <ele>1965.3</ele>
        <time>2026-02-02T12:31:19Z</time>
      </trkpt>
      <trkpt lat="45.97546" lon="6.55494">
        <ele>1965.3</ele>
        <time>2026-02-02T12:31:20Z</time>
      </trkpt>
      <trkpt lat="45.97545" lon="6.55494">
        <ele>1965.3</ele>
        <time>2026-02-02T12:31:22Z</time>
      </trkpt>
      <trkpt lat="45.97545" lon="6.55494">
        <ele>1965.3</ele>
        <time>2026-02-02T12:31:23Z</time>
      </trkpt>
      <trkpt lat="45.97545" lon="6.55494">
        <ele>1965.3</ele>
        <time>2026-02-02T12:31:24Z</time>
      </trkpt>
      <trkpt lat="45.97546" lon="6.55494">
        <ele>1965.3</ele>
        <time>2026-02-02T12:31:25Z</time>
      </trkpt>
      <trkpt lat="45.97546" lon="6.55494">
        <ele>1965.3</ele>
        <time>2026-02-02T12:31:26Z</time>
      </trkpt>
      <trkpt lat="45.97546" lon="6.55494">
        <ele>1965.3</ele>
        <time>2026-02-02T12:31:27Z</time>
      </trkpt>
      <trkpt lat="45.97547" lon="6.55496">
        <ele>1964</ele>
        <time>2026-02-02T12:31:28Z</time>
      </trkpt>
      <trkpt lat="45.97548" lon="6.55497">
        <ele>1964</ele>
        <time>2026-02-02T12:31:29Z</time>
      </trkpt>
      <trkpt lat="45.97549" lon="6.55498">
        <ele>1965.5</ele>
        <time>2026-02-02T12:31:30Z</time>
      </trkpt>
      <trkpt lat="45.97549" lon="6.55501">
        <ele>1964.1</ele>
        <time>2026-02-02T12:31:31Z</time>
      </trkpt>
      <trkpt lat="45.9755" lon="6.55502">
        <ele>1964.1</ele>
        <time>2026-02-02T12:31:32Z</time>
      </trkpt>
      <trkpt lat="45.9755" lon="6.55503">
        <ele>1965.6</ele>
        <time>2026-02-02T12:31:33Z</time>
      </trkpt>
      <trkpt lat="45.9755" lon="6.55505">
        <ele>1965.6</ele>
        <time>2026-02-02T12:31:35Z</time>
      </trkpt>
      <trkpt lat="45.97551" lon="6.55506">
        <ele>1965.6</ele>
        <time>2026-02-02T12:31:36Z</time>
      </trkpt>
      <trkpt lat="45.97551" lon="6.55507">
        <ele>1967.1</ele>
        <time>2026-02-02T12:31:37Z</time>
      </trkpt>
      <trkpt lat="45.97552" lon="6.55508">
        <ele>1967.1</ele>
        <time>2026-02-02T12:31:38Z</time>
      </trkpt>
      <trkpt lat="45.97552" lon="6.55509">
        <ele>1967.1</ele>
        <time>2026-02-02T12:31:39Z</time>
      </trkpt>
      <trkpt lat="45.97551" lon="6.55509">
        <ele>1967.1</ele>
        <time>2026-02-02T12:31:40Z</time>
      </trkpt>
      <trkpt lat="45.97551" lon="6.55508">
        <ele>1967.1</ele>
        <time>2026-02-02T12:31:41Z</time>
      </trkpt>
      <trkpt lat="45.9755" lon="6.55508">
        <ele>1967.1</ele>
        <time>2026-02-02T12:31:42Z</time>
      </trkpt>
      <trkpt lat="45.97549" lon="6.55508">
        <ele>1968.5</ele>
        <time>2026-02-02T12:31:44Z</time>
      </trkpt>
      <trkpt lat="45.97548" lon="6.55507">
        <ele>1968.5</ele>
        <time>2026-02-02T12:31:45Z</time>
      </trkpt>
      <trkpt lat="45.97547" lon="6.55506">
        <ele>1968.5</ele>
        <time>2026-02-02T12:31:46Z</time>
      </trkpt>
      <trkpt lat="45.97546" lon="6.55505">
        <ele>1968.4</ele>
        <time>2026-02-02T12:31:47Z</time>
      </trkpt>
      <trkpt lat="45.97545" lon="6.55505">
        <ele>1968.4</ele>
        <time>2026-02-02T12:31:48Z</time>
      </trkpt>
      <trkpt lat="45.97544" lon="6.55504">
        <ele>1968.4</ele>
        <time>2026-02-02T12:31:49Z</time>
      </trkpt>
      <trkpt lat="45.97544" lon="6.55504">
        <ele>1968.4</ele>
        <time>2026-02-02T12:31:50Z</time>
      </trkpt>
      <trkpt lat="45.97543" lon="6.55504">
        <ele>1969.7</ele>
        <time>2026-02-02T12:31:51Z</time>
      </trkpt>
      <trkpt lat="45.97543" lon="6.55504">
        <ele>1969.7</ele>
        <time>2026-02-02T12:31:52Z</time>
      </trkpt>
      <trkpt lat="45.97544" lon="6.55505">
        <ele>1968.4</ele>
        <time>2026-02-02T12:31:54Z</time>
      </trkpt>
      <trkpt lat="45.97544" lon="6.55505">
        <ele>1968.4</ele>
        <time>2026-02-02T12:31:55Z</time>
      </trkpt>
      <trkpt lat="45.97544" lon="6.55505">
        <ele>1968.4</ele>
        <time>2026-02-02T12:31:56Z</time>
      </trkpt>
      <trkpt lat="45.97544" lon="6.55505">
        <ele>1968.4</ele>
        <time>2026-02-02T12:31:57Z</time>
      </trkpt>
      <trkpt lat="45.97544" lon="6.55505">
        <ele>1968.4</ele>
        <time>2026-02-02T12:31:58Z</time>
      </trkpt>
      <trkpt lat="45.97544" lon="6.55505">
        <ele>1968.4</ele>
        <time>2026-02-02T12:31:59Z</time>
      </trkpt>
      <trkpt lat="45.97544" lon="6.55505">
        <ele>1968.4</ele>
        <time>2026-02-02T12:32:00Z</time>
      </trkpt>
      <trkpt lat="45.97544" lon="6.55505">
        <ele>1968.4</ele>
        <time>2026-02-02T12:32:01Z</time>
      </trkpt>
      <trkpt lat="45.97544" lon="6.55505">
        <ele>1968.4</ele>
        <time>2026-02-02T12:32:02Z</time>
      </trkpt>
      <trkpt lat="45.97544" lon="6.55505">
        <ele>1968.4</ele>
        <time>2026-02-02T12:32:03Z</time>
      </trkpt>
      <trkpt lat="45.97544" lon="6.55505">
        <ele>1968.4</ele>
        <time>2026-02-02T12:32:05Z</time>
      </trkpt>
      <trkpt lat="45.97544" lon="6.55505">
        <ele>1968.4</ele>
        <time>2026-02-02T12:32:06Z</time>
      </trkpt>
      <trkpt lat="45.97544" lon="6.55505">
        <ele>1968.4</ele>
        <time>2026-02-02T12:32:07Z</time>
      </trkpt>
      <trkpt lat="45.97544" lon="6.55505">
        <ele>1968.4</ele>
        <time>2026-02-02T12:32:08Z</time>
      </trkpt>
      <trkpt lat="45.97543" lon="6.55505">
        <ele>1969.7</ele>
        <time>2026-02-02T12:32:09Z</time>
      </trkpt>
      <trkpt lat="45.97542" lon="6.55505">
        <ele>1969.7</ele>
        <time>2026-02-02T12:32:10Z</time>
      </trkpt>
      <trkpt lat="45.97541" lon="6.55505">
        <ele>1969.7</ele>
        <time>2026-02-02T12:32:11Z</time>
      </trkpt>
      <trkpt lat="45.9754" lon="6.55506">
        <ele>1970.9</ele>
        <time>2026-02-02T12:32:12Z</time>
      </trkpt>
      <trkpt lat="45.97539" lon="6.55506">
        <ele>1972.5</ele>
        <time>2026-02-02T12:32:13Z</time>
      </trkpt>
      <trkpt lat="45.97538" lon="6.55507">
        <ele>1972.5</ele>
        <time>2026-02-02T12:32:14Z</time>
      </trkpt>
      <trkpt lat="45.97537" lon="6.55507">
        <ele>1973.7</ele>
        <time>2026-02-02T12:32:15Z</time>
      </trkpt>
      <trkpt lat="45.97536" lon="6.55508">
        <ele>1973.7</ele>
        <time>2026-02-02T12:32:16Z</time>
      </trkpt>
      <trkpt lat="45.97535" lon="6.55508">
        <ele>1973.7</ele>
        <time>2026-02-02T12:32:17Z</time>
      </trkpt>
      <trkpt lat="45.97534" lon="6.55508">
        <ele>1975</ele>
        <time>2026-02-02T12:32:18Z</time>
      </trkpt>
      <trkpt lat="45.97533" lon="6.55507">
        <ele>1975</ele>
        <time>2026-02-02T12:32:19Z</time>
      </trkpt>
      <trkpt lat="45.97532" lon="6.55507">
        <ele>1975</ele>
        <time>2026-02-02T12:32:20Z</time>
      </trkpt>
      <trkpt lat="45.97532" lon="6.55508">
        <ele>1975</ele>
        <time>2026-02-02T12:32:21Z</time>
      </trkpt>
      <trkpt lat="45.97532" lon="6.55508">
        <ele>1975</ele>
        <time>2026-02-02T12:32:22Z</time>
      </trkpt>
      <trkpt lat="45.97532" lon="6.55509">
        <ele>1975</ele>
        <time>2026-02-02T12:32:23Z</time>
      </trkpt>
      <trkpt lat="45.97533" lon="6.55509">
        <ele>1975</ele>
        <time>2026-02-02T12:32:24Z</time>
      </trkpt>
      <trkpt lat="45.97534" lon="6.55509">
        <ele>1975</ele>
        <time>2026-02-02T12:32:25Z</time>
      </trkpt>
      <trkpt lat="45.97535" lon="6.55509">
        <ele>1973.7</ele>
        <time>2026-02-02T12:32:27Z</time>
      </trkpt>
      <trkpt lat="45.97537" lon="6.55509">
        <ele>1973.7</ele>
        <time>2026-02-02T12:32:28Z</time>
      </trkpt>
      <trkpt lat="45.97538" lon="6.5551">
        <ele>1972.5</ele>
        <time>2026-02-02T12:32:29Z</time>
      </trkpt>
      <trkpt lat="45.97538" lon="6.5551">
        <ele>1972.5</ele>
        <time>2026-02-02T12:32:30Z</time>
      </trkpt>
      <trkpt lat="45.97539" lon="6.55511">
        <ele>1974.1</ele>
        <time>2026-02-02T12:32:31Z</time>
      </trkpt>
      <trkpt lat="45.97539" lon="6.55511">
        <ele>1974.1</ele>
        <time>2026-02-02T12:32:32Z</time>
      </trkpt>
      <trkpt lat="45.97539" lon="6.55511">
        <ele>1974.1</ele>
        <time>2026-02-02T12:32:33Z</time>
      </trkpt>
      <trkpt lat="45.97539" lon="6.55511">
        <ele>1974.1</ele>
        <time>2026-02-02T12:32:34Z</time>
      </trkpt>
      <trkpt lat="45.97539" lon="6.55511">
        <ele>1974.1</ele>
        <time>2026-02-02T12:32:35Z</time>
      </trkpt>
      <trkpt lat="45.97539" lon="6.55511">
        <ele>1974.1</ele>
        <time>2026-02-02T12:32:36Z</time>
      </trkpt>
      <trkpt lat="45.97539" lon="6.55511">
        <ele>1974.1</ele>
        <time>2026-02-02T12:32:37Z</time>
      </trkpt>
      <trkpt lat="45.97539" lon="6.55511">
        <ele>1974.1</ele>
        <time>2026-02-02T12:32:38Z</time>
      </trkpt>
      <trkpt lat="45.97539" lon="6.55511">
        <ele>1974.1</ele>
        <time>2026-02-02T12:32:39Z</time>
      </trkpt>
      <trkpt lat="45.97539" lon="6.55511">
        <ele>1974.1</ele>
        <time>2026-02-02T12:32:40Z</time>
      </trkpt>
      <trkpt lat="45.97538" lon="6.55511">
        <ele>1974.1</ele>
        <time>2026-02-02T12:32:41Z</time>
      </trkpt>
      <trkpt lat="45.97538" lon="6.55511">
        <ele>1974.1</ele>
        <time>2026-02-02T12:32:42Z</time>
      </trkpt>
      <trkpt lat="45.97538" lon="6.55511">
        <ele>1974.1</ele>
        <time>2026-02-02T12:32:43Z</time>
      </trkpt>
      <trkpt lat="45.97538" lon="6.55511">
        <ele>1974.1</ele>
        <time>2026-02-02T12:32:44Z</time>
      </trkpt>
      <trkpt lat="45.97538" lon="6.55511">
        <ele>1974.1</ele>
        <time>2026-02-02T12:32:45Z</time>
      </trkpt>
      <trkpt lat="45.97538" lon="6.55511">
        <ele>1974.1</ele>
        <time>2026-02-02T12:32:46Z</time>
      </trkpt>
      <trkpt lat="45.97538" lon="6.55511">
        <ele>1974.1</ele>
        <time>2026-02-02T12:32:47Z</time>
      </trkpt>
      <trkpt lat="45.97538" lon="6.55512">
        <ele>1974.1</ele>
        <time>2026-02-02T12:32:48Z</time>
      </trkpt>
      <trkpt lat="45.97539" lon="6.55513">
        <ele>1974.1</ele>
        <time>2026-02-02T12:32:49Z</time>
      </trkpt>
      <trkpt lat="45.97539" lon="6.55514">
        <ele>1974.1</ele>
        <time>2026-02-02T12:32:50Z</time>
      </trkpt>
      <trkpt lat="45.9754" lon="6.55516">
        <ele>1975.8</ele>
        <time>2026-02-02T12:32:51Z</time>
      </trkpt>
      <trkpt lat="45.9754" lon="6.55518">
        <ele>1974.4</ele>
        <time>2026-02-02T12:32:52Z</time>
      </trkpt>
      <trkpt lat="45.97541" lon="6.5552">
        <ele>1976</ele>
        <time>2026-02-02T12:32:53Z</time>
      </trkpt>
      <trkpt lat="45.97541" lon="6.55521">
        <ele>1976</ele>
        <time>2026-02-02T12:32:54Z</time>
      </trkpt>
      <trkpt lat="45.97542" lon="6.55522">
        <ele>1976</ele>
        <time>2026-02-02T12:32:55Z</time>
      </trkpt>
      <trkpt lat="45.97542" lon="6.55522">
        <ele>1976</ele>
        <time>2026-02-02T12:32:56Z</time>
      </trkpt>
      <trkpt lat="45.97543" lon="6.55522">
        <ele>1976</ele>
        <time>2026-02-02T12:32:57Z</time>
      </trkpt>
      <trkpt lat="45.97543" lon="6.55523">
        <ele>1976</ele>
        <time>2026-02-02T12:32:58Z</time>
      </trkpt>
      <trkpt lat="45.97544" lon="6.55523">
        <ele>1976.1</ele>
        <time>2026-02-02T12:32:59Z</time>
      </trkpt>
      <trkpt lat="45.97544" lon="6.55524">
        <ele>1976.1</ele>
        <time>2026-02-02T12:33:00Z</time>
      </trkpt>
      <trkpt lat="45.97545" lon="6.55526">
        <ele>1976.1</ele>
        <time>2026-02-02T12:33:01Z</time>
      </trkpt>
      <trkpt lat="45.97545" lon="6.55527">
        <ele>1976.1</ele>
        <time>2026-02-02T12:33:02Z</time>
      </trkpt>
      <trkpt lat="45.97546" lon="6.55527">
        <ele>1976.1</ele>
        <time>2026-02-02T12:33:03Z</time>
      </trkpt>
      <trkpt lat="45.97546" lon="6.55528">
        <ele>1976</ele>
        <time>2026-02-02T12:33:04Z</time>
      </trkpt>
      <trkpt lat="45.97547" lon="6.55529">
        <ele>1976</ele>
        <time>2026-02-02T12:33:05Z</time>
      </trkpt>
      <trkpt lat="45.97548" lon="6.5553">
        <ele>1976</ele>
        <time>2026-02-02T12:33:06Z</time>
      </trkpt>
      <trkpt lat="45.97548" lon="6.55531">
        <ele>1976</ele>
        <time>2026-02-02T12:33:07Z</time>
      </trkpt>
      <trkpt lat="45.97548" lon="6.55532">
        <ele>1976</ele>
        <time>2026-02-02T12:33:08Z</time>
      </trkpt>
      <trkpt lat="45.97549" lon="6.55532">
        <ele>1977.4</ele>
        <time>2026-02-02T12:33:09Z</time>
      </trkpt>
      <trkpt lat="45.97549" lon="6.55532">
        <ele>1977.4</ele>
        <time>2026-02-02T12:33:10Z</time>
      </trkpt>
      <trkpt lat="45.97548" lon="6.55532">
        <ele>1976</ele>
        <time>2026-02-02T12:33:11Z</time>
      </trkpt>
      <trkpt lat="45.97548" lon="6.55531">
        <ele>1976</ele>
        <time>2026-02-02T12:33:12Z</time>
      </trkpt>
      <trkpt lat="45.97548" lon="6.55531">
        <ele>1976</ele>
        <time>2026-02-02T12:33:13Z</time>
      </trkpt>
      <trkpt lat="45.97548" lon="6.55531">
        <ele>1976</ele>
        <time>2026-02-02T12:33:14Z</time>
      </trkpt>
      <trkpt lat="45.97548" lon="6.55531">
        <ele>1976</ele>
        <time>2026-02-02T12:33:15Z</time>
      </trkpt>
      <trkpt lat="45.97548" lon="6.55531">
        <ele>1976</ele>
        <time>2026-02-02T12:33:16Z</time>
      </trkpt>
      <trkpt lat="45.97548" lon="6.55531">
        <ele>1976</ele>
        <time>2026-02-02T12:33:17Z</time>
      </trkpt>
      <trkpt lat="45.97548" lon="6.55531">
        <ele>1976</ele>
        <time>2026-02-02T12:33:18Z</time>
      </trkpt>
      <trkpt lat="45.97548" lon="6.55531">
        <ele>1976</ele>
        <time>2026-02-02T12:33:19Z</time>
      </trkpt>
      <trkpt lat="45.97548" lon="6.55531">
        <ele>1976</ele>
        <time>2026-02-02T12:33:20Z</time>
      </trkpt>
      <trkpt lat="45.97548" lon="6.55531">
        <ele>1976</ele>
        <time>2026-02-02T12:33:21Z</time>
      </trkpt>
      <trkpt lat="45.97548" lon="6.55531">
        <ele>1976</ele>
        <time>2026-02-02T12:33:22Z</time>
      </trkpt>
      <trkpt lat="45.97548" lon="6.55531">
        <ele>1976</ele>
        <time>2026-02-02T12:33:23Z</time>
      </trkpt>
      <trkpt lat="45.97548" lon="6.55531">
        <ele>1976</ele>
        <time>2026-02-02T12:33:24Z</time>
      </trkpt>
      <trkpt lat="45.97548" lon="6.55531">
        <ele>1976</ele>
        <time>2026-02-02T12:33:25Z</time>
      </trkpt>
      <trkpt lat="45.97548" lon="6.55531">
        <ele>1976</ele>
        <time>2026-02-02T12:33:26Z</time>
      </trkpt>
      <trkpt lat="45.97548" lon="6.55532">
        <ele>1977.4</ele>
        <time>2026-02-02T12:33:27Z</time>
      </trkpt>
      <trkpt lat="45.97549" lon="6.55534">
        <ele>1977.4</ele>
        <time>2026-02-02T12:33:28Z</time>
      </trkpt>
      <trkpt lat="45.97549" lon="6.55534">
        <ele>1977.4</ele>
        <time>2026-02-02T12:33:29Z</time>
      </trkpt>
      <trkpt lat="45.9755" lon="6.55536">
        <ele>1975.8</ele>
        <time>2026-02-02T12:33:30Z</time>
      </trkpt>
      <trkpt lat="45.9755" lon="6.55537">
        <ele>1977.1</ele>
        <time>2026-02-02T12:33:31Z</time>
      </trkpt>
      <trkpt lat="45.97549" lon="6.55538">
        <ele>1978.7</ele>
        <time>2026-02-02T12:33:33Z</time>
      </trkpt>
      <trkpt lat="45.97548" lon="6.55538">
        <ele>1978.7</ele>
        <time>2026-02-02T12:33:34Z</time>
      </trkpt>
      <trkpt lat="45.97548" lon="6.55538">
        <ele>1978.7</ele>
        <time>2026-02-02T12:33:35Z</time>
      </trkpt>
      <trkpt lat="45.97547" lon="6.55538">
        <ele>1978.7</ele>
        <time>2026-02-02T12:33:36Z</time>
      </trkpt>
      <trkpt lat="45.97546" lon="6.55537">
        <ele>1980.3</ele>
        <time>2026-02-02T12:33:37Z</time>
      </trkpt>
      <trkpt lat="45.97545" lon="6.55537">
        <ele>1980.3</ele>
        <time>2026-02-02T12:33:38Z</time>
      </trkpt>
      <trkpt lat="45.97544" lon="6.55536">
        <ele>1979</ele>
        <time>2026-02-02T12:33:39Z</time>
      </trkpt>
      <trkpt lat="45.97543" lon="6.55535">
        <ele>1980.5</ele>
        <time>2026-02-02T12:33:40Z</time>
      </trkpt>
      <trkpt lat="45.97542" lon="6.55535">
        <ele>1980.5</ele>
        <time>2026-02-02T12:33:41Z</time>
      </trkpt>
      <trkpt lat="45.97541" lon="6.55534">
        <ele>1980.5</ele>
        <time>2026-02-02T12:33:42Z</time>
      </trkpt>
      <trkpt lat="45.97541" lon="6.55534">
        <ele>1980.5</ele>
        <time>2026-02-02T12:33:43Z</time>
      </trkpt>
      <trkpt lat="45.97541" lon="6.55534">
        <ele>1980.5</ele>
        <time>2026-02-02T12:33:44Z</time>
      </trkpt>
      <trkpt lat="45.9754" lon="6.55534">
        <ele>1981.9</ele>
        <time>2026-02-02T12:33:45Z</time>
      </trkpt>
      <trkpt lat="45.97539" lon="6.55534">
        <ele>1981.9</ele>
        <time>2026-02-02T12:33:46Z</time>
      </trkpt>
      <trkpt lat="45.97538" lon="6.55534">
        <ele>1981.9</ele>
        <time>2026-02-02T12:33:47Z</time>
      </trkpt>
      <trkpt lat="45.97538" lon="6.55534">
        <ele>1981.9</ele>
        <time>2026-02-02T12:33:48Z</time>
      </trkpt>
      <trkpt lat="45.97538" lon="6.55534">
        <ele>1981.9</ele>
        <time>2026-02-02T12:33:49Z</time>
      </trkpt>
      <trkpt lat="45.97538" lon="6.55534">
        <ele>1981.9</ele>
        <time>2026-02-02T12:33:50Z</time>
      </trkpt>
      <trkpt lat="45.97539" lon="6.55534">
        <ele>1981.9</ele>
        <time>2026-02-02T12:33:51Z</time>
      </trkpt>
      <trkpt lat="45.97539" lon="6.55534">
        <ele>1981.9</ele>
        <time>2026-02-02T12:33:52Z</time>
      </trkpt>
      <trkpt lat="45.97539" lon="6.55534">
        <ele>1981.9</ele>
        <time>2026-02-02T12:33:54Z</time>
      </trkpt>
      <trkpt lat="45.97539" lon="6.55534">
        <ele>1981.9</ele>
        <time>2026-02-02T12:33:55Z</time>
      </trkpt>
      <trkpt lat="45.97539" lon="6.55534">
        <ele>1981.9</ele>
        <time>2026-02-02T12:33:56Z</time>
      </trkpt>
      <trkpt lat="45.97539" lon="6.55534">
        <ele>1981.9</ele>
        <time>2026-02-02T12:33:57Z</time>
      </trkpt>
      <trkpt lat="45.97538" lon="6.55534">
        <ele>1981.9</ele>
        <time>2026-02-02T12:33:58Z</time>
      </trkpt>
      <trkpt lat="45.97538" lon="6.55534">
        <ele>1981.9</ele>
        <time>2026-02-02T12:33:59Z</time>
      </trkpt>
      <trkpt lat="45.97538" lon="6.55534">
        <ele>1981.9</ele>
        <time>2026-02-02T12:34:00Z</time>
      </trkpt>
      <trkpt lat="45.97538" lon="6.55534">
        <ele>1981.9</ele>
        <time>2026-02-02T12:34:01Z</time>
      </trkpt>
      <trkpt lat="45.97538" lon="6.55534">
        <ele>1981.9</ele>
        <time>2026-02-02T12:34:02Z</time>
      </trkpt>
      <trkpt lat="45.97539" lon="6.55534">
        <ele>1981.9</ele>
        <time>2026-02-02T12:34:03Z</time>
      </trkpt>
      <trkpt lat="45.97539" lon="6.55534">
        <ele>1981.9</ele>
        <time>2026-02-02T12:34:04Z</time>
      </trkpt>
      <trkpt lat="45.97539" lon="6.55534">
        <ele>1981.9</ele>
        <time>2026-02-02T12:34:05Z</time>
      </trkpt>
      <trkpt lat="45.97539" lon="6.55534">
        <ele>1981.9</ele>
        <time>2026-02-02T12:34:06Z</time>
      </trkpt>
      <trkpt lat="45.97539" lon="6.55534">
        <ele>1981.9</ele>
        <time>2026-02-02T12:34:07Z</time>
      </trkpt>
      <trkpt lat="45.97539" lon="6.55534">
        <ele>1981.9</ele>
        <time>2026-02-02T12:34:08Z</time>
      </trkpt>
      <trkpt lat="45.97538" lon="6.55534">
        <ele>1981.9</ele>
        <time>2026-02-02T12:34:09Z</time>
      </trkpt>
      <trkpt lat="45.97537" lon="6.55533">
        <ele>1983.4</ele>
        <time>2026-02-02T12:34:10Z</time>
      </trkpt>
      <trkpt lat="45.97536" lon="6.55533">
        <ele>1983.4</ele>
        <time>2026-02-02T12:34:11Z</time>
      </trkpt>
      <trkpt lat="45.97536" lon="6.55534">
        <ele>1983.4</ele>
        <time>2026-02-02T12:34:12Z</time>
      </trkpt>
      <trkpt lat="45.97535" lon="6.55534">
        <ele>1983.4</ele>
        <time>2026-02-02T12:34:13Z</time>
      </trkpt>
      <trkpt lat="45.97533" lon="6.55533">
        <ele>1984.9</ele>
        <time>2026-02-02T12:34:14Z</time>
      </trkpt>
      <trkpt lat="45.97532" lon="6.55532">
        <ele>1984.9</ele>
        <time>2026-02-02T12:34:15Z</time>
      </trkpt>
      <trkpt lat="45.97531" lon="6.55532">
        <ele>1986.6</ele>
        <time>2026-02-02T12:34:16Z</time>
      </trkpt>
      <trkpt lat="45.9753" lon="6.55532">
        <ele>1985</ele>
        <time>2026-02-02T12:34:17Z</time>
      </trkpt>
      <trkpt lat="45.9753" lon="6.55531">
        <ele>1985</ele>
        <time>2026-02-02T12:34:18Z</time>
      </trkpt>
      <trkpt lat="45.97529" lon="6.55531">
        <ele>1985</ele>
        <time>2026-02-02T12:34:19Z</time>
      </trkpt>
      <trkpt lat="45.97528" lon="6.55531">
        <ele>1986.6</ele>
        <time>2026-02-02T12:34:20Z</time>
      </trkpt>
      <trkpt lat="45.97527" lon="6.55531">
        <ele>1986.6</ele>
        <time>2026-02-02T12:34:21Z</time>
      </trkpt>
      <trkpt lat="45.97526" lon="6.5553">
        <ele>1986.6</ele>
        <time>2026-02-02T12:34:22Z</time>
      </trkpt>
      <trkpt lat="45.97525" lon="6.5553">
        <ele>1988.3</ele>
        <time>2026-02-02T12:34:23Z</time>
      </trkpt>
      <trkpt lat="45.97524" lon="6.5553">
        <ele>1988.3</ele>
        <time>2026-02-02T12:34:24Z</time>
      </trkpt>
      <trkpt lat="45.97523" lon="6.5553">
        <ele>1988.3</ele>
        <time>2026-02-02T12:34:25Z</time>
      </trkpt>
      <trkpt lat="45.97522" lon="6.5553">
        <ele>1988.3</ele>
        <time>2026-02-02T12:34:26Z</time>
      </trkpt>
      <trkpt lat="45.97522" lon="6.55529">
        <ele>1989.9</ele>
        <time>2026-02-02T12:34:27Z</time>
      </trkpt>
      <trkpt lat="45.97521" lon="6.55529">
        <ele>1989.9</ele>
        <time>2026-02-02T12:34:28Z</time>
      </trkpt>
      <trkpt lat="45.9752" lon="6.55529">
        <ele>1989.9</ele>
        <time>2026-02-02T12:34:29Z</time>
      </trkpt>
      <trkpt lat="45.97519" lon="6.55529">
        <ele>1991.4</ele>
        <time>2026-02-02T12:34:30Z</time>
      </trkpt>
      <trkpt lat="45.97518" lon="6.55529">
        <ele>1991.4</ele>
        <time>2026-02-02T12:34:31Z</time>
      </trkpt>
      <trkpt lat="45.97517" lon="6.55529">
        <ele>1991.4</ele>
        <time>2026-02-02T12:34:32Z</time>
      </trkpt>
      <trkpt lat="45.97516" lon="6.55529">
        <ele>1992.8</ele>
        <time>2026-02-02T12:34:33Z</time>
      </trkpt>
      <trkpt lat="45.97515" lon="6.55529">
        <ele>1992.8</ele>
        <time>2026-02-02T12:34:34Z</time>
      </trkpt>
      <trkpt lat="45.97514" lon="6.55529">
        <ele>1992.8</ele>
        <time>2026-02-02T12:34:35Z</time>
      </trkpt>
      <trkpt lat="45.97513" lon="6.55529">
        <ele>1994</ele>
        <time>2026-02-02T12:34:36Z</time>
      </trkpt>
      <trkpt lat="45.97512" lon="6.55529">
        <ele>1994</ele>
        <time>2026-02-02T12:34:37Z</time>
      </trkpt>
      <trkpt lat="45.97511" lon="6.55529">
        <ele>1994</ele>
        <time>2026-02-02T12:34:38Z</time>
      </trkpt>
      <trkpt lat="45.97511" lon="6.55529">
        <ele>1994</ele>
        <time>2026-02-02T12:34:39Z</time>
      </trkpt>
      <trkpt lat="45.97511" lon="6.5553">
        <ele>1994</ele>
        <time>2026-02-02T12:34:40Z</time>
      </trkpt>
      <trkpt lat="45.97511" lon="6.55531">
        <ele>1994</ele>
        <time>2026-02-02T12:34:41Z</time>
      </trkpt>
      <trkpt lat="45.97512" lon="6.55532">
        <ele>1995.9</ele>
        <time>2026-02-02T12:34:42Z</time>
      </trkpt>
      <trkpt lat="45.97513" lon="6.55532">
        <ele>1994</ele>
        <time>2026-02-02T12:34:43Z</time>
      </trkpt>
      <trkpt lat="45.97513" lon="6.55531">
        <ele>1994</ele>
        <time>2026-02-02T12:34:44Z</time>
      </trkpt>
      <trkpt lat="45.97514" lon="6.55531">
        <ele>1992.8</ele>
        <time>2026-02-02T12:34:45Z</time>
      </trkpt>
      <trkpt lat="45.97515" lon="6.55532">
        <ele>1992.8</ele>
        <time>2026-02-02T12:34:46Z</time>
      </trkpt>
      <trkpt lat="45.97515" lon="6.55532">
        <ele>1994.6</ele>
        <time>2026-02-02T12:34:47Z</time>
      </trkpt>
      <trkpt lat="45.97516" lon="6.55532">
        <ele>1994.6</ele>
        <time>2026-02-02T12:34:48Z</time>
      </trkpt>
      <trkpt lat="45.97516" lon="6.55532">
        <ele>1994.6</ele>
        <time>2026-02-02T12:34:49Z</time>
      </trkpt>
      <trkpt lat="45.97516" lon="6.55532">
        <ele>1993.2</ele>
        <time>2026-02-02T12:34:50Z</time>
      </trkpt>
      <trkpt lat="45.97517" lon="6.55532">
        <ele>1993.2</ele>
        <time>2026-02-02T12:34:51Z</time>
      </trkpt>
      <trkpt lat="45.97517" lon="6.55532">
        <ele>1993.2</ele>
        <time>2026-02-02T12:34:52Z</time>
      </trkpt>
      <trkpt lat="45.97517" lon="6.55532">
        <ele>1993.2</ele>
        <time>2026-02-02T12:34:53Z</time>
      </trkpt>
      <trkpt lat="45.97517" lon="6.55532">
        <ele>1993.2</ele>
        <time>2026-02-02T12:34:54Z</time>
      </trkpt>
      <trkpt lat="45.97517" lon="6.55532">
        <ele>1993.2</ele>
        <time>2026-02-02T12:34:55Z</time>
      </trkpt>
      <trkpt lat="45.97517" lon="6.55532">
        <ele>1993.2</ele>
        <time>2026-02-02T12:34:56Z</time>
      </trkpt>
      <trkpt lat="45.97517" lon="6.55532">
        <ele>1993.2</ele>
        <time>2026-02-02T12:34:57Z</time>
      </trkpt>
      <trkpt lat="45.97517" lon="6.55532">
        <ele>1993.2</ele>
        <time>2026-02-02T12:34:58Z</time>
      </trkpt>
      <trkpt lat="45.97517" lon="6.55532">
        <ele>1993.2</ele>
        <time>2026-02-02T12:34:59Z</time>
      </trkpt>
      <trkpt lat="45.97517" lon="6.55532">
        <ele>1993.2</ele>
        <time>2026-02-02T12:35:00Z</time>
      </trkpt>
      <trkpt lat="45.97517" lon="6.55532">
        <ele>1993.2</ele>
        <time>2026-02-02T12:35:01Z</time>
      </trkpt>
      <trkpt lat="45.97517" lon="6.55532">
        <ele>1993.2</ele>
        <time>2026-02-02T12:35:02Z</time>
      </trkpt>
      <trkpt lat="45.97517" lon="6.55532">
        <ele>1993.2</ele>
        <time>2026-02-02T12:35:03Z</time>
      </trkpt>
      <trkpt lat="45.97517" lon="6.55532">
        <ele>1993.2</ele>
        <time>2026-02-02T12:35:04Z</time>
      </trkpt>
      <trkpt lat="45.97517" lon="6.55532">
        <ele>1993.2</ele>
        <time>2026-02-02T12:35:05Z</time>
      </trkpt>
      <trkpt lat="45.97517" lon="6.55532">
        <ele>1993.2</ele>
        <time>2026-02-02T12:35:06Z</time>
      </trkpt>
      <trkpt lat="45.97517" lon="6.55532">
        <ele>1993.2</ele>
        <time>2026-02-02T12:35:07Z</time>
      </trkpt>
      <trkpt lat="45.97517" lon="6.55532">
        <ele>1993.2</ele>
        <time>2026-02-02T12:35:08Z</time>
      </trkpt>
      <trkpt lat="45.97517" lon="6.55532">
        <ele>1993.2</ele>
        <time>2026-02-02T12:35:09Z</time>
      </trkpt>
      <trkpt lat="45.97517" lon="6.55532">
        <ele>1993.2</ele>
        <time>2026-02-02T12:35:10Z</time>
      </trkpt>
      <trkpt lat="45.97517" lon="6.55533">
        <ele>1993.2</ele>
        <time>2026-02-02T12:35:11Z</time>
      </trkpt>
      <trkpt lat="45.97518" lon="6.55534">
        <ele>1993.2</ele>
        <time>2026-02-02T12:35:12Z</time>
      </trkpt>
      <trkpt lat="45.97518" lon="6.55534">
        <ele>1993.2</ele>
        <time>2026-02-02T12:35:13Z</time>
      </trkpt>
      <trkpt lat="45.97519" lon="6.55535">
        <ele>1993.2</ele>
        <time>2026-02-02T12:35:14Z</time>
      </trkpt>
      <trkpt lat="45.97519" lon="6.55536">
        <ele>1994.9</ele>
        <time>2026-02-02T12:35:15Z</time>
      </trkpt>
      <trkpt lat="45.9752" lon="6.55537">
        <ele>1993.3</ele>
        <time>2026-02-02T12:35:16Z</time>
      </trkpt>
      <trkpt lat="45.97521" lon="6.55537">
        <ele>1993.3</ele>
        <time>2026-02-02T12:35:17Z</time>
      </trkpt>
      <trkpt lat="45.97522" lon="6.55538">
        <ele>1993.3</ele>
        <time>2026-02-02T12:35:18Z</time>
      </trkpt>
      <trkpt lat="45.97522" lon="6.55539">
        <ele>1993.3</ele>
        <time>2026-02-02T12:35:19Z</time>
      </trkpt>
      <trkpt lat="45.97523" lon="6.5554">
        <ele>1991.6</ele>
        <time>2026-02-02T12:35:20Z</time>
      </trkpt>
      <trkpt lat="45.97524" lon="6.55541">
        <ele>1993.2</ele>
        <time>2026-02-02T12:35:21Z</time>
      </trkpt>
      <trkpt lat="45.97525" lon="6.55542">
        <ele>1993.2</ele>
        <time>2026-02-02T12:35:22Z</time>
      </trkpt>
      <trkpt lat="45.97525" lon="6.55543">
        <ele>1993.2</ele>
        <time>2026-02-02T12:35:23Z</time>
      </trkpt>
      <trkpt lat="45.97526" lon="6.55544">
        <ele>1991.3</ele>
        <time>2026-02-02T12:35:24Z</time>
      </trkpt>
      <trkpt lat="45.97526" lon="6.55545">
        <ele>1992.9</ele>
        <time>2026-02-02T12:35:25Z</time>
      </trkpt>
      <trkpt lat="45.97527" lon="6.55547">
        <ele>1992.9</ele>
        <time>2026-02-02T12:35:26Z</time>
      </trkpt>
      <trkpt lat="45.97527" lon="6.55548">
        <ele>1992.9</ele>
        <time>2026-02-02T12:35:27Z</time>
      </trkpt>
      <trkpt lat="45.97527" lon="6.55548">
        <ele>1992.9</ele>
        <time>2026-02-02T12:35:28Z</time>
      </trkpt>
      <trkpt lat="45.97526" lon="6.55548">
        <ele>1992.9</ele>
        <time>2026-02-02T12:35:29Z</time>
      </trkpt>
      <trkpt lat="45.97526" lon="6.55547">
        <ele>1992.9</ele>
        <time>2026-02-02T12:35:30Z</time>
      </trkpt>
      <trkpt lat="45.97526" lon="6.55548">
        <ele>1992.9</ele>
        <time>2026-02-02T12:35:31Z</time>
      </trkpt>
      <trkpt lat="45.97525" lon="6.55548">
        <ele>1994.7</ele>
        <time>2026-02-02T12:35:32Z</time>
      </trkpt>
      <trkpt lat="45.97525" lon="6.55548">
        <ele>1994.7</ele>
        <time>2026-02-02T12:35:33Z</time>
      </trkpt>
      <trkpt lat="45.97524" lon="6.55547">
        <ele>1994.7</ele>
        <time>2026-02-02T12:35:34Z</time>
      </trkpt>
      <trkpt lat="45.97522" lon="6.55546">
        <ele>1994.7</ele>
        <time>2026-02-02T12:35:35Z</time>
      </trkpt>
      <trkpt lat="45.97522" lon="6.55544">
        <ele>1994.9</ele>
        <time>2026-02-02T12:35:36Z</time>
      </trkpt>
      <trkpt lat="45.97521" lon="6.55543">
        <ele>1994.9</ele>
        <time>2026-02-02T12:35:37Z</time>
      </trkpt>
      <trkpt lat="45.9752" lon="6.55542">
        <ele>1994.9</ele>
        <time>2026-02-02T12:35:38Z</time>
      </trkpt>
      <trkpt lat="45.97519" lon="6.55542">
        <ele>1996.5</ele>
        <time>2026-02-02T12:35:39Z</time>
      </trkpt>
      <trkpt lat="45.97518" lon="6.55541">
        <ele>1996.5</ele>
        <time>2026-02-02T12:35:40Z</time>
      </trkpt>
      <trkpt lat="45.97517" lon="6.55541">
        <ele>1996.5</ele>
        <time>2026-02-02T12:35:41Z</time>
      </trkpt>
      <trkpt lat="45.97516" lon="6.5554">
        <ele>1996.3</ele>
        <time>2026-02-02T12:35:42Z</time>
      </trkpt>
      <trkpt lat="45.97516" lon="6.55541">
        <ele>1998</ele>
        <time>2026-02-02T12:35:43Z</time>
      </trkpt>
      <trkpt lat="45.97515" lon="6.55541">
        <ele>1998</ele>
        <time>2026-02-02T12:35:44Z</time>
      </trkpt>
      <trkpt lat="45.97515" lon="6.55541">
        <ele>1998</ele>
        <time>2026-02-02T12:35:45Z</time>
      </trkpt>
      <trkpt lat="45.97515" lon="6.55542">
        <ele>1998</ele>
        <time>2026-02-02T12:35:46Z</time>
      </trkpt>
      <trkpt lat="45.97515" lon="6.55542">
        <ele>1998</ele>
        <time>2026-02-02T12:35:47Z</time>
      </trkpt>
      <trkpt lat="45.97516" lon="6.55542">
        <ele>1998</ele>
        <time>2026-02-02T12:35:48Z</time>
      </trkpt>
      <trkpt lat="45.97516" lon="6.55542">
        <ele>1998</ele>
        <time>2026-02-02T12:35:49Z</time>
      </trkpt>
      <trkpt lat="45.97516" lon="6.55543">
        <ele>1998</ele>
        <time>2026-02-02T12:35:50Z</time>
      </trkpt>
      <trkpt lat="45.97516" lon="6.55543">
        <ele>1998</ele>
        <time>2026-02-02T12:35:51Z</time>
      </trkpt>
      <trkpt lat="45.97516" lon="6.55543">
        <ele>1998</ele>
        <time>2026-02-02T12:35:52Z</time>
      </trkpt>
      <trkpt lat="45.97516" lon="6.55543">
        <ele>1998</ele>
        <time>2026-02-02T12:35:53Z</time>
      </trkpt>
      <trkpt lat="45.97516" lon="6.55543">
        <ele>1998</ele>
        <time>2026-02-02T12:35:54Z</time>
      </trkpt>
      <trkpt lat="45.97516" lon="6.55543">
        <ele>1998</ele>
        <time>2026-02-02T12:35:55Z</time>
      </trkpt>
      <trkpt lat="45.97516" lon="6.55543">
        <ele>1998</ele>
        <time>2026-02-02T12:35:56Z</time>
      </trkpt>
      <trkpt lat="45.97516" lon="6.55543">
        <ele>1998</ele>
        <time>2026-02-02T12:35:57Z</time>
      </trkpt>
      <trkpt lat="45.97516" lon="6.55543">
        <ele>1998</ele>
        <time>2026-02-02T12:35:58Z</time>
      </trkpt>
      <trkpt lat="45.97516" lon="6.55543">
        <ele>1998</ele>
        <time>2026-02-02T12:35:59Z</time>
      </trkpt>
      <trkpt lat="45.97516" lon="6.55543">
        <ele>1998</ele>
        <time>2026-02-02T12:36:00Z</time>
      </trkpt>
      <trkpt lat="45.97516" lon="6.55543">
        <ele>1998</ele>
        <time>2026-02-02T12:36:01Z</time>
      </trkpt>
      <trkpt lat="45.97516" lon="6.55543">
        <ele>1998</ele>
        <time>2026-02-02T12:36:02Z</time>
      </trkpt>
      <trkpt lat="45.97516" lon="6.55543">
        <ele>1996.5</ele>
        <time>2026-02-02T12:36:03Z</time>
      </trkpt>
      <trkpt lat="45.97516" lon="6.55543">
        <ele>1998</ele>
        <time>2026-02-02T12:36:04Z</time>
      </trkpt>
      <trkpt lat="45.97515" lon="6.55543">
        <ele>1998</ele>
        <time>2026-02-02T12:36:05Z</time>
      </trkpt>
      <trkpt lat="45.97514" lon="6.55542">
        <ele>1998</ele>
        <time>2026-02-02T12:36:06Z</time>
      </trkpt>
      <trkpt lat="45.97514" lon="6.55542">
        <ele>1998</ele>
        <time>2026-02-02T12:36:07Z</time>
      </trkpt>
      <trkpt lat="45.97513" lon="6.55541">
        <ele>1999.4</ele>
        <time>2026-02-02T12:36:08Z</time>
      </trkpt>
      <trkpt lat="45.97512" lon="6.55541">
        <ele>1999.4</ele>
        <time>2026-02-02T12:36:09Z</time>
      </trkpt>
      <trkpt lat="45.97511" lon="6.55541">
        <ele>1999.4</ele>
        <time>2026-02-02T12:36:10Z</time>
      </trkpt>
      <trkpt lat="45.9751" lon="6.5554">
        <ele>1999</ele>
        <time>2026-02-02T12:36:11Z</time>
      </trkpt>
      <trkpt lat="45.97509" lon="6.5554">
        <ele>1999</ele>
        <time>2026-02-02T12:36:12Z</time>
      </trkpt>
      <trkpt lat="45.97508" lon="6.5554">
        <ele>1999</ele>
        <time>2026-02-02T12:36:13Z</time>
      </trkpt>
      <trkpt lat="45.97508" lon="6.5554">
        <ele>1999</ele>
        <time>2026-02-02T12:36:14Z</time>
      </trkpt>
      <trkpt lat="45.97507" lon="6.5554">
        <ele>2000.4</ele>
        <time>2026-02-02T12:36:15Z</time>
      </trkpt>
      <trkpt lat="45.97506" lon="6.5554">
        <ele>2000.4</ele>
        <time>2026-02-02T12:36:16Z</time>
      </trkpt>
      <trkpt lat="45.97505" lon="6.55541">
        <ele>2002.2</ele>
        <time>2026-02-02T12:36:17Z</time>
      </trkpt>
      <trkpt lat="45.97503" lon="6.55542">
        <ele>2003.6</ele>
        <time>2026-02-02T12:36:19Z</time>
      </trkpt>
      <trkpt lat="45.97503" lon="6.55543">
        <ele>2003.6</ele>
        <time>2026-02-02T12:36:20Z</time>
      </trkpt>
      <trkpt lat="45.97504" lon="6.55544">
        <ele>2003.6</ele>
        <time>2026-02-02T12:36:21Z</time>
      </trkpt>
      <trkpt lat="45.97505" lon="6.55545">
        <ele>2003.9</ele>
        <time>2026-02-02T12:36:22Z</time>
      </trkpt>
      <trkpt lat="45.97506" lon="6.55546">
        <ele>2003.9</ele>
        <time>2026-02-02T12:36:23Z</time>
      </trkpt>
      <trkpt lat="45.97507" lon="6.55546">
        <ele>2003.9</ele>
        <time>2026-02-02T12:36:24Z</time>
      </trkpt>
      <trkpt lat="45.97508" lon="6.55546">
        <ele>2002.5</ele>
        <time>2026-02-02T12:36:25Z</time>
      </trkpt>
      <trkpt lat="45.97509" lon="6.55547">
        <ele>2002.5</ele>
        <time>2026-02-02T12:36:26Z</time>
      </trkpt>
      <trkpt lat="45.97509" lon="6.55548">
        <ele>2002.5</ele>
        <time>2026-02-02T12:36:27Z</time>
      </trkpt>
      <trkpt lat="45.9751" lon="6.55548">
        <ele>2002.5</ele>
        <time>2026-02-02T12:36:28Z</time>
      </trkpt>
      <trkpt lat="45.97511" lon="6.55549">
        <ele>2001.1</ele>
        <time>2026-02-02T12:36:29Z</time>
      </trkpt>
      <trkpt lat="45.97512" lon="6.55549">
        <ele>2002.9</ele>
        <time>2026-02-02T12:36:30Z</time>
      </trkpt>
      <trkpt lat="45.97513" lon="6.5555">
        <ele>2002.9</ele>
        <time>2026-02-02T12:36:31Z</time>
      </trkpt>
      <trkpt lat="45.97513" lon="6.55551">
        <ele>2002.9</ele>
        <time>2026-02-02T12:36:32Z</time>
      </trkpt>
      <trkpt lat="45.97514" lon="6.55551">
        <ele>2001.5</ele>
        <time>2026-02-02T12:36:33Z</time>
      </trkpt>
      <trkpt lat="45.97514" lon="6.55551">
        <ele>2001.5</ele>
        <time>2026-02-02T12:36:34Z</time>
      </trkpt>
      <trkpt lat="45.97514" lon="6.55551">
        <ele>2001.5</ele>
        <time>2026-02-02T12:36:35Z</time>
      </trkpt>
      <trkpt lat="45.97514" lon="6.55551">
        <ele>2001.5</ele>
        <time>2026-02-02T12:36:36Z</time>
      </trkpt>
      <trkpt lat="45.97514" lon="6.55551">
        <ele>2001.5</ele>
        <time>2026-02-02T12:36:37Z</time>
      </trkpt>
      <trkpt lat="45.97514" lon="6.55551">
        <ele>2001.5</ele>
        <time>2026-02-02T12:36:39Z</time>
      </trkpt>
      <trkpt lat="45.97514" lon="6.55551">
        <ele>2001.5</ele>
        <time>2026-02-02T12:36:40Z</time>
      </trkpt>
      <trkpt lat="45.97514" lon="6.55551">
        <ele>2001.5</ele>
        <time>2026-02-02T12:36:41Z</time>
      </trkpt>
      <trkpt lat="45.97514" lon="6.55551">
        <ele>2001.5</ele>
        <time>2026-02-02T12:36:42Z</time>
      </trkpt>
      <trkpt lat="45.97514" lon="6.55551">
        <ele>2001.5</ele>
        <time>2026-02-02T12:36:43Z</time>
      </trkpt>
      <trkpt lat="45.97514" lon="6.55551">
        <ele>2001.5</ele>
        <time>2026-02-02T12:36:44Z</time>
      </trkpt>
      <trkpt lat="45.97515" lon="6.55551">
        <ele>2001.5</ele>
        <time>2026-02-02T12:36:45Z</time>
      </trkpt>
      <trkpt lat="45.97516" lon="6.55552">
        <ele>2001.5</ele>
        <time>2026-02-02T12:36:46Z</time>
      </trkpt>
      <trkpt lat="45.97517" lon="6.55553">
        <ele>1999.9</ele>
        <time>2026-02-02T12:36:47Z</time>
      </trkpt>
      <trkpt lat="45.97517" lon="6.55554">
        <ele>2001.7</ele>
        <time>2026-02-02T12:36:48Z</time>
      </trkpt>
      <trkpt lat="45.97518" lon="6.55555">
        <ele>2001.7</ele>
        <time>2026-02-02T12:36:49Z</time>
      </trkpt>
      <trkpt lat="45.97519" lon="6.55556">
        <ele>2001.7</ele>
        <time>2026-02-02T12:36:50Z</time>
      </trkpt>
      <trkpt lat="45.9752" lon="6.55557">
        <ele>2000</ele>
        <time>2026-02-02T12:36:51Z</time>
      </trkpt>
      <trkpt lat="45.97521" lon="6.55558">
        <ele>2001.8</ele>
        <time>2026-02-02T12:36:52Z</time>
      </trkpt>
      <trkpt lat="45.97522" lon="6.55559">
        <ele>2001.8</ele>
        <time>2026-02-02T12:36:53Z</time>
      </trkpt>
      <trkpt lat="45.97523" lon="6.5556">
        <ele>1999.9</ele>
        <time>2026-02-02T12:36:54Z</time>
      </trkpt>
      <trkpt lat="45.97523" lon="6.55561">
        <ele>1999.9</ele>
        <time>2026-02-02T12:36:55Z</time>
      </trkpt>
      <trkpt lat="45.97524" lon="6.55562">
        <ele>2001.6</ele>
        <time>2026-02-02T12:36:56Z</time>
      </trkpt>
      <trkpt lat="45.97524" lon="6.55563">
        <ele>2001.6</ele>
        <time>2026-02-02T12:36:57Z</time>
      </trkpt>
      <trkpt lat="45.97525" lon="6.55564">
        <ele>2001.6</ele>
        <time>2026-02-02T12:36:58Z</time>
      </trkpt>
      <trkpt lat="45.97525" lon="6.55564">
        <ele>2001.6</ele>
        <time>2026-02-02T12:36:59Z</time>
      </trkpt>
      <trkpt lat="45.97525" lon="6.55565">
        <ele>2001.6</ele>
        <time>2026-02-02T12:37:00Z</time>
      </trkpt>
      <trkpt lat="45.97525" lon="6.55565">
        <ele>2001.6</ele>
        <time>2026-02-02T12:37:01Z</time>
      </trkpt>
      <trkpt lat="45.97524" lon="6.55565">
        <ele>2001.6</ele>
        <time>2026-02-02T12:37:02Z</time>
      </trkpt>
      <trkpt lat="45.97523" lon="6.55565">
        <ele>2001.6</ele>
        <time>2026-02-02T12:37:03Z</time>
      </trkpt>
      <trkpt lat="45.97522" lon="6.55564">
        <ele>2001.6</ele>
        <time>2026-02-02T12:37:04Z</time>
      </trkpt>
      <trkpt lat="45.97522" lon="6.55564">
        <ele>2003.5</ele>
        <time>2026-02-02T12:37:05Z</time>
      </trkpt>
      <trkpt lat="45.97521" lon="6.55563">
        <ele>2003.5</ele>
        <time>2026-02-02T12:37:06Z</time>
      </trkpt>
      <trkpt lat="45.9752" lon="6.55562">
        <ele>2001.8</ele>
        <time>2026-02-02T12:37:07Z</time>
      </trkpt>
      <trkpt lat="45.97519" lon="6.55561">
        <ele>2003.5</ele>
        <time>2026-02-02T12:37:08Z</time>
      </trkpt>
      <trkpt lat="45.97518" lon="6.5556">
        <ele>2003.5</ele>
        <time>2026-02-02T12:37:09Z</time>
      </trkpt>
      <trkpt lat="45.97517" lon="6.5556">
        <ele>2003.5</ele>
        <time>2026-02-02T12:37:10Z</time>
      </trkpt>
      <trkpt lat="45.97517" lon="6.55561">
        <ele>2003.5</ele>
        <time>2026-02-02T12:37:11Z</time>
      </trkpt>
      <trkpt lat="45.97516" lon="6.5556">
        <ele>2005.1</ele>
        <time>2026-02-02T12:37:12Z</time>
      </trkpt>
      <trkpt lat="45.97515" lon="6.5556">
        <ele>2005.1</ele>
        <time>2026-02-02T12:37:13Z</time>
      </trkpt>
      <trkpt lat="45.97515" lon="6.5556">
        <ele>2005.1</ele>
        <time>2026-02-02T12:37:14Z</time>
      </trkpt>
      <trkpt lat="45.97515" lon="6.5556">
        <ele>2005.1</ele>
        <time>2026-02-02T12:37:15Z</time>
      </trkpt>
      <trkpt lat="45.97515" lon="6.5556">
        <ele>2005.1</ele>
        <time>2026-02-02T12:37:16Z</time>
      </trkpt>
      <trkpt lat="45.97516" lon="6.55561">
        <ele>2005.1</ele>
        <time>2026-02-02T12:37:17Z</time>
      </trkpt>
      <trkpt lat="45.97516" lon="6.55561">
        <ele>2005.1</ele>
        <time>2026-02-02T12:37:18Z</time>
      </trkpt>
      <trkpt lat="45.97516" lon="6.55561">
        <ele>2005.1</ele>
        <time>2026-02-02T12:37:19Z</time>
      </trkpt>
      <trkpt lat="45.97517" lon="6.55561">
        <ele>2003.5</ele>
        <time>2026-02-02T12:37:20Z</time>
      </trkpt>
      <trkpt lat="45.97517" lon="6.55561">
        <ele>2003.5</ele>
        <time>2026-02-02T12:37:21Z</time>
      </trkpt>
      <trkpt lat="45.97517" lon="6.55561">
        <ele>2003.5</ele>
        <time>2026-02-02T12:37:22Z</time>
      </trkpt>
      <trkpt lat="45.97517" lon="6.55561">
        <ele>2003.5</ele>
        <time>2026-02-02T12:37:23Z</time>
      </trkpt>
      <trkpt lat="45.97517" lon="6.55561">
        <ele>2003.5</ele>
        <time>2026-02-02T12:37:24Z</time>
      </trkpt>
      <trkpt lat="45.97517" lon="6.55561">
        <ele>2003.5</ele>
        <time>2026-02-02T12:37:25Z</time>
      </trkpt>
      <trkpt lat="45.97517" lon="6.55561">
        <ele>2003.5</ele>
        <time>2026-02-02T12:37:26Z</time>
      </trkpt>
      <trkpt lat="45.97517" lon="6.55561">
        <ele>2003.5</ele>
        <time>2026-02-02T12:37:27Z</time>
      </trkpt>
      <trkpt lat="45.97517" lon="6.55561">
        <ele>2003.5</ele>
        <time>2026-02-02T12:37:28Z</time>
      </trkpt>
      <trkpt lat="45.97517" lon="6.55561">
        <ele>2003.5</ele>
        <time>2026-02-02T12:37:29Z</time>
      </trkpt>
      <trkpt lat="45.97516" lon="6.55561">
        <ele>2005.1</ele>
        <time>2026-02-02T12:37:30Z</time>
      </trkpt>
      <trkpt lat="45.97515" lon="6.55561">
        <ele>2005.1</ele>
        <time>2026-02-02T12:37:31Z</time>
      </trkpt>
      <trkpt lat="45.97513" lon="6.55561">
        <ele>2006.6</ele>
        <time>2026-02-02T12:37:32Z</time>
      </trkpt>
      <trkpt lat="45.97512" lon="6.55561">
        <ele>2006.6</ele>
        <time>2026-02-02T12:37:33Z</time>
      </trkpt>
      <trkpt lat="45.9751" lon="6.55561">
        <ele>2008</ele>
        <time>2026-02-02T12:37:34Z</time>
      </trkpt>
      <trkpt lat="45.97509" lon="6.55561">
        <ele>2008</ele>
        <time>2026-02-02T12:37:35Z</time>
      </trkpt>
      <trkpt lat="45.97507" lon="6.5556">
        <ele>2009.5</ele>
        <time>2026-02-02T12:37:37Z</time>
      </trkpt>
      <trkpt lat="45.97506" lon="6.5556">
        <ele>2009.5</ele>
        <time>2026-02-02T12:37:38Z</time>
      </trkpt>
      <trkpt lat="45.97505" lon="6.55559">
        <ele>2009.5</ele>
        <time>2026-02-02T12:37:39Z</time>
      </trkpt>
      <trkpt lat="45.97505" lon="6.55559">
        <ele>2009.5</ele>
        <time>2026-02-02T12:37:40Z</time>
      </trkpt>
      <trkpt lat="45.97504" lon="6.55559">
        <ele>2011.1</ele>
        <time>2026-02-02T12:37:41Z</time>
      </trkpt>
      <trkpt lat="45.97503" lon="6.55559">
        <ele>2011.1</ele>
        <time>2026-02-02T12:37:42Z</time>
      </trkpt>
      <trkpt lat="45.97502" lon="6.55558">
        <ele>2011.1</ele>
        <time>2026-02-02T12:37:43Z</time>
      </trkpt>
      <trkpt lat="45.97501" lon="6.55558">
        <ele>2012.7</ele>
        <time>2026-02-02T12:37:44Z</time>
      </trkpt>
      <trkpt lat="45.975" lon="6.55558">
        <ele>2012.7</ele>
        <time>2026-02-02T12:37:45Z</time>
      </trkpt>
      <trkpt lat="45.97499" lon="6.55558">
        <ele>2012.7</ele>
        <time>2026-02-02T12:37:46Z</time>
      </trkpt>
      <trkpt lat="45.97499" lon="6.55559">
        <ele>2012.7</ele>
        <time>2026-02-02T12:37:47Z</time>
      </trkpt>
      <trkpt lat="45.97498" lon="6.55559">
        <ele>2014.2</ele>
        <time>2026-02-02T12:37:48Z</time>
      </trkpt>
      <trkpt lat="45.97497" lon="6.5556">
        <ele>2014.2</ele>
        <time>2026-02-02T12:37:49Z</time>
      </trkpt>
      <trkpt lat="45.97497" lon="6.5556">
        <ele>2014.2</ele>
        <time>2026-02-02T12:37:50Z</time>
      </trkpt>
      <trkpt lat="45.97496" lon="6.5556">
        <ele>2014.2</ele>
        <time>2026-02-02T12:37:51Z</time>
      </trkpt>
      <trkpt lat="45.97496" lon="6.5556">
        <ele>2014.2</ele>
        <time>2026-02-02T12:37:52Z</time>
      </trkpt>
      <trkpt lat="45.97497" lon="6.5556">
        <ele>2014.2</ele>
        <time>2026-02-02T12:37:53Z</time>
      </trkpt>
      <trkpt lat="45.97497" lon="6.5556">
        <ele>2014.2</ele>
        <time>2026-02-02T12:37:54Z</time>
      </trkpt>
      <trkpt lat="45.97497" lon="6.5556">
        <ele>2014.2</ele>
        <time>2026-02-02T12:37:55Z</time>
      </trkpt>
      <trkpt lat="45.97497" lon="6.5556">
        <ele>2014.2</ele>
        <time>2026-02-02T12:37:56Z</time>
      </trkpt>
      <trkpt lat="45.97497" lon="6.5556">
        <ele>2014.2</ele>
        <time>2026-02-02T12:37:57Z</time>
      </trkpt>
      <trkpt lat="45.97497" lon="6.5556">
        <ele>2014.2</ele>
        <time>2026-02-02T12:37:58Z</time>
      </trkpt>
      <trkpt lat="45.97497" lon="6.5556">
        <ele>2014.2</ele>
        <time>2026-02-02T12:37:59Z</time>
      </trkpt>
      <trkpt lat="45.97497" lon="6.5556">
        <ele>2014.2</ele>
        <time>2026-02-02T12:38:00Z</time>
      </trkpt>
      <trkpt lat="45.97497" lon="6.5556">
        <ele>2014.2</ele>
        <time>2026-02-02T12:38:01Z</time>
      </trkpt>
      <trkpt lat="45.97497" lon="6.5556">
        <ele>2014.2</ele>
        <time>2026-02-02T12:38:02Z</time>
      </trkpt>
      <trkpt lat="45.97498" lon="6.5556">
        <ele>2014.2</ele>
        <time>2026-02-02T12:38:03Z</time>
      </trkpt>
      <trkpt lat="45.97498" lon="6.5556">
        <ele>2014.2</ele>
        <time>2026-02-02T12:38:04Z</time>
      </trkpt>
      <trkpt lat="45.97497" lon="6.5556">
        <ele>2014.2</ele>
        <time>2026-02-02T12:38:05Z</time>
      </trkpt>
      <trkpt lat="45.97496" lon="6.5556">
        <ele>2014.2</ele>
        <time>2026-02-02T12:38:06Z</time>
      </trkpt>
      <trkpt lat="45.97495" lon="6.5556">
        <ele>2015.6</ele>
        <time>2026-02-02T12:38:07Z</time>
      </trkpt>
      <trkpt lat="45.97494" lon="6.5556">
        <ele>2015.6</ele>
        <time>2026-02-02T12:38:08Z</time>
      </trkpt>
      <trkpt lat="45.97493" lon="6.5556">
        <ele>2015.6</ele>
        <time>2026-02-02T12:38:09Z</time>
      </trkpt>
      <trkpt lat="45.97492" lon="6.5556">
        <ele>2016.8</ele>
        <time>2026-02-02T12:38:10Z</time>
      </trkpt>
      <trkpt lat="45.97491" lon="6.55561">
        <ele>2016.8</ele>
        <time>2026-02-02T12:38:11Z</time>
      </trkpt>
      <trkpt lat="45.9749" lon="6.55561">
        <ele>2016.8</ele>
        <time>2026-02-02T12:38:12Z</time>
      </trkpt>
      <trkpt lat="45.97489" lon="6.55561">
        <ele>2017.9</ele>
        <time>2026-02-02T12:38:13Z</time>
      </trkpt>
      <trkpt lat="45.97488" lon="6.55561">
        <ele>2017.9</ele>
        <time>2026-02-02T12:38:14Z</time>
      </trkpt>
      <trkpt lat="45.97488" lon="6.55561">
        <ele>2017.9</ele>
        <time>2026-02-02T12:38:15Z</time>
      </trkpt>
      <trkpt lat="45.97487" lon="6.5556">
        <ele>2017.9</ele>
        <time>2026-02-02T12:38:16Z</time>
      </trkpt>
      <trkpt lat="45.97486" lon="6.5556">
        <ele>2019</ele>
        <time>2026-02-02T12:38:17Z</time>
      </trkpt>
      <trkpt lat="45.97485" lon="6.5556">
        <ele>2019</ele>
        <time>2026-02-02T12:38:18Z</time>
      </trkpt>
      <trkpt lat="45.97484" lon="6.5556">
        <ele>2019</ele>
        <time>2026-02-02T12:38:19Z</time>
      </trkpt>
      <trkpt lat="45.97483" lon="6.5556">
        <ele>2020</ele>
        <time>2026-02-02T12:38:20Z</time>
      </trkpt>
      <trkpt lat="45.97482" lon="6.5556">
        <ele>2020</ele>
        <time>2026-02-02T12:38:21Z</time>
      </trkpt>
      <trkpt lat="45.97481" lon="6.55559">
        <ele>2020</ele>
        <time>2026-02-02T12:38:22Z</time>
      </trkpt>
      <trkpt lat="45.9748" lon="6.55559">
        <ele>2021.1</ele>
        <time>2026-02-02T12:38:23Z</time>
      </trkpt>
      <trkpt lat="45.97479" lon="6.55559">
        <ele>2021.1</ele>
        <time>2026-02-02T12:38:24Z</time>
      </trkpt>
      <trkpt lat="45.97478" lon="6.55558">
        <ele>2021.1</ele>
        <time>2026-02-02T12:38:25Z</time>
      </trkpt>
      <trkpt lat="45.97478" lon="6.55558">
        <ele>2022.2</ele>
        <time>2026-02-02T12:38:26Z</time>
      </trkpt>
      <trkpt lat="45.97477" lon="6.55558">
        <ele>2022.2</ele>
        <time>2026-02-02T12:38:27Z</time>
      </trkpt>
      <trkpt lat="45.97477" lon="6.55558">
        <ele>2022.2</ele>
        <time>2026-02-02T12:38:28Z</time>
      </trkpt>
      <trkpt lat="45.97476" lon="6.55558">
        <ele>2022.2</ele>
        <time>2026-02-02T12:38:29Z</time>
      </trkpt>
      <trkpt lat="45.97475" lon="6.55558">
        <ele>2022.2</ele>
        <time>2026-02-02T12:38:30Z</time>
      </trkpt>
      <trkpt lat="45.97473" lon="6.55559">
        <ele>2023.3</ele>
        <time>2026-02-02T12:38:31Z</time>
      </trkpt>
      <trkpt lat="45.97472" lon="6.55559">
        <ele>2023.3</ele>
        <time>2026-02-02T12:38:32Z</time>
      </trkpt>
      <trkpt lat="45.97471" lon="6.55559">
        <ele>2024.4</ele>
        <time>2026-02-02T12:38:33Z</time>
      </trkpt>
      <trkpt lat="45.9747" lon="6.55559">
        <ele>2024.4</ele>
        <time>2026-02-02T12:38:34Z</time>
      </trkpt>
      <trkpt lat="45.9747" lon="6.5556">
        <ele>2024.4</ele>
        <time>2026-02-02T12:38:35Z</time>
      </trkpt>
      <trkpt lat="45.97469" lon="6.5556">
        <ele>2024.4</ele>
        <time>2026-02-02T12:38:36Z</time>
      </trkpt>
      <trkpt lat="45.97468" lon="6.5556">
        <ele>2025.3</ele>
        <time>2026-02-02T12:38:37Z</time>
      </trkpt>
      <trkpt lat="45.97468" lon="6.5556">
        <ele>2025.3</ele>
        <time>2026-02-02T12:38:38Z</time>
      </trkpt>
      <trkpt lat="45.97468" lon="6.5556">
        <ele>2025.3</ele>
        <time>2026-02-02T12:38:39Z</time>
      </trkpt>
      <trkpt lat="45.97467" lon="6.5556">
        <ele>2025.3</ele>
        <time>2026-02-02T12:38:40Z</time>
      </trkpt>
      <trkpt lat="45.97467" lon="6.5556">
        <ele>2025.3</ele>
        <time>2026-02-02T12:38:41Z</time>
      </trkpt>
      <trkpt lat="45.97467" lon="6.5556">
        <ele>2025.3</ele>
        <time>2026-02-02T12:38:42Z</time>
      </trkpt>
      <trkpt lat="45.97466" lon="6.5556">
        <ele>2025.3</ele>
        <time>2026-02-02T12:38:43Z</time>
      </trkpt>
      <trkpt lat="45.97466" lon="6.5556">
        <ele>2025.3</ele>
        <time>2026-02-02T12:38:44Z</time>
      </trkpt>
      <trkpt lat="45.97466" lon="6.5556">
        <ele>2026.2</ele>
        <time>2026-02-02T12:38:45Z</time>
      </trkpt>
      <trkpt lat="45.97465" lon="6.5556">
        <ele>2026.2</ele>
        <time>2026-02-02T12:38:46Z</time>
      </trkpt>
      <trkpt lat="45.97465" lon="6.5556">
        <ele>2026.2</ele>
        <time>2026-02-02T12:38:47Z</time>
      </trkpt>
      <trkpt lat="45.97465" lon="6.5556">
        <ele>2026.2</ele>
        <time>2026-02-02T12:38:48Z</time>
      </trkpt>
      <trkpt lat="45.97464" lon="6.5556">
        <ele>2026.2</ele>
        <time>2026-02-02T12:38:49Z</time>
      </trkpt>
      <trkpt lat="45.97463" lon="6.5556">
        <ele>2027.1</ele>
        <time>2026-02-02T12:38:51Z</time>
      </trkpt>
      <trkpt lat="45.97462" lon="6.55559">
        <ele>2027.1</ele>
        <time>2026-02-02T12:38:52Z</time>
      </trkpt>
      <trkpt lat="45.97461" lon="6.55559">
        <ele>2027.1</ele>
        <time>2026-02-02T12:38:53Z</time>
      </trkpt>
      <trkpt lat="45.9746" lon="6.55559">
        <ele>2027.1</ele>
        <time>2026-02-02T12:38:54Z</time>
      </trkpt>
      <trkpt lat="45.97459" lon="6.55559">
        <ele>2027.8</ele>
        <time>2026-02-02T12:38:55Z</time>
      </trkpt>
      <trkpt lat="45.97458" lon="6.55558">
        <ele>2027.8</ele>
        <time>2026-02-02T12:38:56Z</time>
      </trkpt>
      <trkpt lat="45.97457" lon="6.55558">
        <ele>2027.8</ele>
        <time>2026-02-02T12:38:57Z</time>
      </trkpt>
      <trkpt lat="45.97456" lon="6.55559">
        <ele>2028.6</ele>
        <time>2026-02-02T12:38:58Z</time>
      </trkpt>
      <trkpt lat="45.97456" lon="6.55559">
        <ele>2028.6</ele>
        <time>2026-02-02T12:38:59Z</time>
      </trkpt>
      <trkpt lat="45.97455" lon="6.55559">
        <ele>2028.6</ele>
        <time>2026-02-02T12:39:00Z</time>
      </trkpt>
      <trkpt lat="45.97454" lon="6.55559">
        <ele>2028.6</ele>
        <time>2026-02-02T12:39:01Z</time>
      </trkpt>
      <trkpt lat="45.97453" lon="6.55559">
        <ele>2029.3</ele>
        <time>2026-02-02T12:39:02Z</time>
      </trkpt>
      <trkpt lat="45.97452" lon="6.5556">
        <ele>2029.3</ele>
        <time>2026-02-02T12:39:03Z</time>
      </trkpt>
      <trkpt lat="45.97451" lon="6.5556">
        <ele>2029.3</ele>
        <time>2026-02-02T12:39:04Z</time>
      </trkpt>
      <trkpt lat="45.9745" lon="6.55561">
        <ele>2030</ele>
        <time>2026-02-02T12:39:05Z</time>
      </trkpt>
      <trkpt lat="45.9745" lon="6.55561">
        <ele>2030</ele>
        <time>2026-02-02T12:39:06Z</time>
      </trkpt>
      <trkpt lat="45.97449" lon="6.55562">
        <ele>2030</ele>
        <time>2026-02-02T12:39:07Z</time>
      </trkpt>
      <trkpt lat="45.97449" lon="6.55562">
        <ele>2030</ele>
        <time>2026-02-02T12:39:08Z</time>
      </trkpt>
      <trkpt lat="45.97448" lon="6.55562">
        <ele>2030</ele>
        <time>2026-02-02T12:39:09Z</time>
      </trkpt>
      <trkpt lat="45.97448" lon="6.55562">
        <ele>2032.1</ele>
        <time>2026-02-02T12:39:10Z</time>
      </trkpt>
      <trkpt lat="45.97449" lon="6.55563">
        <ele>2032.1</ele>
        <time>2026-02-02T12:39:11Z</time>
      </trkpt>
      <trkpt lat="45.97449" lon="6.55563">
        <ele>2032.1</ele>
        <time>2026-02-02T12:39:12Z</time>
      </trkpt>
      <trkpt lat="45.9745" lon="6.55563">
        <ele>2032.1</ele>
        <time>2026-02-02T12:39:13Z</time>
      </trkpt>
      <trkpt lat="45.9745" lon="6.55563">
        <ele>2032.1</ele>
        <time>2026-02-02T12:39:14Z</time>
      </trkpt>
      <trkpt lat="45.97451" lon="6.55563">
        <ele>2032.1</ele>
        <time>2026-02-02T12:39:15Z</time>
      </trkpt>
      <trkpt lat="45.97451" lon="6.55563">
        <ele>2032.1</ele>
        <time>2026-02-02T12:39:16Z</time>
      </trkpt>
      <trkpt lat="45.97451" lon="6.55563">
        <ele>2032.1</ele>
        <time>2026-02-02T12:39:17Z</time>
      </trkpt>
      <trkpt lat="45.97451" lon="6.55563">
        <ele>2032.1</ele>
        <time>2026-02-02T12:39:18Z</time>
      </trkpt>
      <trkpt lat="45.97451" lon="6.55563">
        <ele>2032.1</ele>
        <time>2026-02-02T12:39:19Z</time>
      </trkpt>
      <trkpt lat="45.97451" lon="6.55562">
        <ele>2032.1</ele>
        <time>2026-02-02T12:39:20Z</time>
      </trkpt>
      <trkpt lat="45.97451" lon="6.55562">
        <ele>2032.1</ele>
        <time>2026-02-02T12:39:21Z</time>
      </trkpt>
      <trkpt lat="45.97451" lon="6.55563">
        <ele>2032.1</ele>
        <time>2026-02-02T12:39:22Z</time>
      </trkpt>
      <trkpt lat="45.97451" lon="6.55563">
        <ele>2032.1</ele>
        <time>2026-02-02T12:39:23Z</time>
      </trkpt>
      <trkpt lat="45.97451" lon="6.55563">
        <ele>2032.1</ele>
        <time>2026-02-02T12:39:24Z</time>
      </trkpt>
      <trkpt lat="45.97451" lon="6.55563">
        <ele>2032.1</ele>
        <time>2026-02-02T12:39:25Z</time>
      </trkpt>
      <trkpt lat="45.97451" lon="6.55563">
        <ele>2032.1</ele>
        <time>2026-02-02T12:39:26Z</time>
      </trkpt>
      <trkpt lat="45.97451" lon="6.55563">
        <ele>2032.1</ele>
        <time>2026-02-02T12:39:27Z</time>
      </trkpt>
      <trkpt lat="45.97451" lon="6.55563">
        <ele>2032.1</ele>
        <time>2026-02-02T12:39:28Z</time>
      </trkpt>
      <trkpt lat="45.97451" lon="6.55563">
        <ele>2031.4</ele>
        <time>2026-02-02T12:39:29Z</time>
      </trkpt>
      <trkpt lat="45.97451" lon="6.55563">
        <ele>2031.4</ele>
        <time>2026-02-02T12:39:30Z</time>
      </trkpt>
      <trkpt lat="45.97452" lon="6.55563">
        <ele>2031.4</ele>
        <time>2026-02-02T12:39:31Z</time>
      </trkpt>
      <trkpt lat="45.97453" lon="6.55563">
        <ele>2031.4</ele>
        <time>2026-02-02T12:39:32Z</time>
      </trkpt>
      <trkpt lat="45.97455" lon="6.55563">
        <ele>2030.7</ele>
        <time>2026-02-02T12:39:33Z</time>
      </trkpt>
      <trkpt lat="45.97457" lon="6.55563">
        <ele>2029.9</ele>
        <time>2026-02-02T12:39:34Z</time>
      </trkpt>
      <trkpt lat="45.97458" lon="6.55564">
        <ele>2029.9</ele>
        <time>2026-02-02T12:39:35Z</time>
      </trkpt>
      <trkpt lat="45.97458" lon="6.55566">
        <ele>2029.9</ele>
        <time>2026-02-02T12:39:36Z</time>
      </trkpt>
      <trkpt lat="45.97459" lon="6.55567">
        <ele>2031.9</ele>
        <time>2026-02-02T12:39:37Z</time>
      </trkpt>
      <trkpt lat="45.97459" lon="6.55568">
        <ele>2031.9</ele>
        <time>2026-02-02T12:39:38Z</time>
      </trkpt>
      <trkpt lat="45.9746" lon="6.55569">
        <ele>2031.1</ele>
        <time>2026-02-02T12:39:39Z</time>
      </trkpt>
      <trkpt lat="45.97461" lon="6.5557">
        <ele>2031.1</ele>
        <time>2026-02-02T12:39:40Z</time>
      </trkpt>
      <trkpt lat="45.97461" lon="6.55571">
        <ele>2033</ele>
        <time>2026-02-02T12:39:41Z</time>
      </trkpt>
      <trkpt lat="45.97462" lon="6.55572">
        <ele>2033</ele>
        <time>2026-02-02T12:39:42Z</time>
      </trkpt>
      <trkpt lat="45.97463" lon="6.55572">
        <ele>2033</ele>
        <time>2026-02-02T12:39:43Z</time>
      </trkpt>
      <trkpt lat="45.97464" lon="6.55572">
        <ele>2032.2</ele>
        <time>2026-02-02T12:39:44Z</time>
      </trkpt>
      <trkpt lat="45.97465" lon="6.55573">
        <ele>2032.2</ele>
        <time>2026-02-02T12:39:45Z</time>
      </trkpt>
      <trkpt lat="45.97466" lon="6.55573">
        <ele>2031.3</ele>
        <time>2026-02-02T12:39:46Z</time>
      </trkpt>
      <trkpt lat="45.97467" lon="6.55574">
        <ele>2031.3</ele>
        <time>2026-02-02T12:39:47Z</time>
      </trkpt>
      <trkpt lat="45.97468" lon="6.55575">
        <ele>2033</ele>
        <time>2026-02-02T12:39:48Z</time>
      </trkpt>
      <trkpt lat="45.97469" lon="6.55576">
        <ele>2033</ele>
        <time>2026-02-02T12:39:49Z</time>
      </trkpt>
      <trkpt lat="45.97469" lon="6.55577">
        <ele>2032.1</ele>
        <time>2026-02-02T12:39:50Z</time>
      </trkpt>
      <trkpt lat="45.9747" lon="6.55578">
        <ele>2032.1</ele>
        <time>2026-02-02T12:39:51Z</time>
      </trkpt>
      <trkpt lat="45.9747" lon="6.55579">
        <ele>2033.8</ele>
        <time>2026-02-02T12:39:52Z</time>
      </trkpt>
      <trkpt lat="45.9747" lon="6.5558">
        <ele>2033.8</ele>
        <time>2026-02-02T12:39:53Z</time>
      </trkpt>
      <trkpt lat="45.9747" lon="6.55581">
        <ele>2033.8</ele>
        <time>2026-02-02T12:39:54Z</time>
      </trkpt>
      <trkpt lat="45.9747" lon="6.55581">
        <ele>2033.8</ele>
        <time>2026-02-02T12:39:55Z</time>
      </trkpt>
      <trkpt lat="45.9747" lon="6.55581">
        <ele>2033.8</ele>
        <time>2026-02-02T12:39:56Z</time>
      </trkpt>
      <trkpt lat="45.9747" lon="6.55581">
        <ele>2033.8</ele>
        <time>2026-02-02T12:39:57Z</time>
      </trkpt>
      <trkpt lat="45.9747" lon="6.55581">
        <ele>2033.8</ele>
        <time>2026-02-02T12:39:58Z</time>
      </trkpt>
      <trkpt lat="45.9747" lon="6.55581">
        <ele>2033.8</ele>
        <time>2026-02-02T12:39:59Z</time>
      </trkpt>
      <trkpt lat="45.97471" lon="6.55581">
        <ele>2033.8</ele>
        <time>2026-02-02T12:40:00Z</time>
      </trkpt>
      <trkpt lat="45.97471" lon="6.55581">
        <ele>2033.8</ele>
        <time>2026-02-02T12:40:01Z</time>
      </trkpt>
      <trkpt lat="45.97471" lon="6.55582">
        <ele>2033.8</ele>
        <time>2026-02-02T12:40:02Z</time>
      </trkpt>
      <trkpt lat="45.97471" lon="6.55582">
        <ele>2033.8</ele>
        <time>2026-02-02T12:40:03Z</time>
      </trkpt>
      <trkpt lat="45.97471" lon="6.55582">
        <ele>2033.8</ele>
        <time>2026-02-02T12:40:04Z</time>
      </trkpt>
      <trkpt lat="45.97471" lon="6.55582">
        <ele>2033.8</ele>
        <time>2026-02-02T12:40:05Z</time>
      </trkpt>
      <trkpt lat="45.97471" lon="6.55582">
        <ele>2033.8</ele>
        <time>2026-02-02T12:40:06Z</time>
      </trkpt>
      <trkpt lat="45.97471" lon="6.55582">
        <ele>2033.8</ele>
        <time>2026-02-02T12:40:07Z</time>
      </trkpt>
      <trkpt lat="45.97471" lon="6.55582">
        <ele>2033.8</ele>
        <time>2026-02-02T12:40:08Z</time>
      </trkpt>
      <trkpt lat="45.97471" lon="6.55582">
        <ele>2033.8</ele>
        <time>2026-02-02T12:40:09Z</time>
      </trkpt>
      <trkpt lat="45.97472" lon="6.55582">
        <ele>2033.8</ele>
        <time>2026-02-02T12:40:10Z</time>
      </trkpt>
      <trkpt lat="45.97472" lon="6.55582">
        <ele>2033.8</ele>
        <time>2026-02-02T12:40:11Z</time>
      </trkpt>
      <trkpt lat="45.97472" lon="6.55583">
        <ele>2032.7</ele>
        <time>2026-02-02T12:40:12Z</time>
      </trkpt>
      <trkpt lat="45.97472" lon="6.55583">
        <ele>2032.7</ele>
        <time>2026-02-02T12:40:13Z</time>
      </trkpt>
      <trkpt lat="45.97472" lon="6.55583">
        <ele>2032.7</ele>
        <time>2026-02-02T12:40:14Z</time>
      </trkpt>
      <trkpt lat="45.97472" lon="6.55583">
        <ele>2032.7</ele>
        <time>2026-02-02T12:40:15Z</time>
      </trkpt>
      <trkpt lat="45.97472" lon="6.55583">
        <ele>2032.7</ele>
        <time>2026-02-02T12:40:16Z</time>
      </trkpt>
      <trkpt lat="45.97472" lon="6.55583">
        <ele>2032.7</ele>
        <time>2026-02-02T12:40:17Z</time>
      </trkpt>
      <trkpt lat="45.97472" lon="6.55583">
        <ele>2032.7</ele>
        <time>2026-02-02T12:40:18Z</time>
      </trkpt>
      <trkpt lat="45.97472" lon="6.55583">
        <ele>2032.7</ele>
        <time>2026-02-02T12:40:19Z</time>
      </trkpt>
      <trkpt lat="45.97473" lon="6.55583">
        <ele>2034.3</ele>
        <time>2026-02-02T12:40:20Z</time>
      </trkpt>
      <trkpt lat="45.97473" lon="6.55584">
        <ele>2034.3</ele>
        <time>2026-02-02T12:40:21Z</time>
      </trkpt>
      <trkpt lat="45.97473" lon="6.55584">
        <ele>2034.3</ele>
        <time>2026-02-02T12:40:22Z</time>
      </trkpt>
      <trkpt lat="45.97473" lon="6.55584">
        <ele>2034.3</ele>
        <time>2026-02-02T12:40:23Z</time>
      </trkpt>
      <trkpt lat="45.97473" lon="6.55584">
        <ele>2034.3</ele>
        <time>2026-02-02T12:40:24Z</time>
      </trkpt>
      <trkpt lat="45.97473" lon="6.55584">
        <ele>2034.3</ele>
        <time>2026-02-02T12:40:25Z</time>
      </trkpt>
      <trkpt lat="45.97473" lon="6.55584">
        <ele>2034.3</ele>
        <time>2026-02-02T12:40:26Z</time>
      </trkpt>
      <trkpt lat="45.97474" lon="6.55585">
        <ele>2034.3</ele>
        <time>2026-02-02T12:40:27Z</time>
      </trkpt>
      <trkpt lat="45.97475" lon="6.55586">
        <ele>2033.2</ele>
        <time>2026-02-02T12:40:28Z</time>
      </trkpt>
      <trkpt lat="45.97476" lon="6.55587">
        <ele>2033.2</ele>
        <time>2026-02-02T12:40:29Z</time>
      </trkpt>
      <trkpt lat="45.97477" lon="6.55588">
        <ele>2034.7</ele>
        <time>2026-02-02T12:40:30Z</time>
      </trkpt>
      <trkpt lat="45.97478" lon="6.55588">
        <ele>2033.5</ele>
        <time>2026-02-02T12:40:31Z</time>
      </trkpt>
      <trkpt lat="45.97479" lon="6.55589">
        <ele>2033.5</ele>
        <time>2026-02-02T12:40:32Z</time>
      </trkpt>
      <trkpt lat="45.9748" lon="6.5559">
        <ele>2033.5</ele>
        <time>2026-02-02T12:40:33Z</time>
      </trkpt>
      <trkpt lat="45.9748" lon="6.55591">
        <ele>2033.5</ele>
        <time>2026-02-02T12:40:34Z</time>
      </trkpt>
      <trkpt lat="45.97481" lon="6.55591">
        <ele>2032.3</ele>
        <time>2026-02-02T12:40:35Z</time>
      </trkpt>
      <trkpt lat="45.97482" lon="6.55592">
        <ele>2033.8</ele>
        <time>2026-02-02T12:40:36Z</time>
      </trkpt>
      <trkpt lat="45.97483" lon="6.55593">
        <ele>2033.8</ele>
        <time>2026-02-02T12:40:37Z</time>
      </trkpt>
      <trkpt lat="45.97483" lon="6.55594">
        <ele>2033.8</ele>
        <time>2026-02-02T12:40:38Z</time>
      </trkpt>
      <trkpt lat="45.97484" lon="6.55594">
        <ele>2032.6</ele>
        <time>2026-02-02T12:40:39Z</time>
      </trkpt>
      <trkpt lat="45.97485" lon="6.55595">
        <ele>2032.6</ele>
        <time>2026-02-02T12:40:40Z</time>
      </trkpt>
      <trkpt lat="45.97485" lon="6.55595">
        <ele>2032.6</ele>
        <time>2026-02-02T12:40:41Z</time>
      </trkpt>
      <trkpt lat="45.97486" lon="6.55596">
        <ele>2032.6</ele>
        <time>2026-02-02T12:40:42Z</time>
      </trkpt>
      <trkpt lat="45.97487" lon="6.55597">
        <ele>2032.9</ele>
        <time>2026-02-02T12:40:43Z</time>
      </trkpt>
      <trkpt lat="45.97487" lon="6.55597">
        <ele>2032.9</ele>
        <time>2026-02-02T12:40:44Z</time>
      </trkpt>
      <trkpt lat="45.97488" lon="6.55598">
        <ele>2032.9</ele>
        <time>2026-02-02T12:40:45Z</time>
      </trkpt>
      <trkpt lat="45.97488" lon="6.55598">
        <ele>2032.9</ele>
        <time>2026-02-02T12:40:46Z</time>
      </trkpt>
      <trkpt lat="45.97488" lon="6.55599">
        <ele>2032.9</ele>
        <time>2026-02-02T12:40:47Z</time>
      </trkpt>
      <trkpt lat="45.97488" lon="6.55599">
        <ele>2032.9</ele>
        <time>2026-02-02T12:40:48Z</time>
      </trkpt>
      <trkpt lat="45.97488" lon="6.55599">
        <ele>2032.9</ele>
        <time>2026-02-02T12:40:49Z</time>
      </trkpt>
      <trkpt lat="45.97487" lon="6.55599">
        <ele>2032.9</ele>
        <time>2026-02-02T12:40:50Z</time>
      </trkpt>
      <trkpt lat="45.97487" lon="6.55599">
        <ele>2032.9</ele>
        <time>2026-02-02T12:40:51Z</time>
      </trkpt>
      <trkpt lat="45.97486" lon="6.55599">
        <ele>2034.1</ele>
        <time>2026-02-02T12:40:52Z</time>
      </trkpt>
      <trkpt lat="45.97486" lon="6.55599">
        <ele>2034.1</ele>
        <time>2026-02-02T12:40:53Z</time>
      </trkpt>
      <trkpt lat="45.97485" lon="6.55599">
        <ele>2034.1</ele>
        <time>2026-02-02T12:40:54Z</time>
      </trkpt>
      <trkpt lat="45.97485" lon="6.55599">
        <ele>2034.1</ele>
        <time>2026-02-02T12:40:55Z</time>
      </trkpt>
      <trkpt lat="45.97483" lon="6.55599">
        <ele>2035.3</ele>
        <time>2026-02-02T12:40:56Z</time>
      </trkpt>
      <trkpt lat="45.97482" lon="6.55599">
        <ele>2035.3</ele>
        <time>2026-02-02T12:40:57Z</time>
      </trkpt>
      <trkpt lat="45.97481" lon="6.55599">
        <ele>2035.3</ele>
        <time>2026-02-02T12:40:58Z</time>
      </trkpt>
      <trkpt lat="45.9748" lon="6.55599">
        <ele>2036.5</ele>
        <time>2026-02-02T12:40:59Z</time>
      </trkpt>
      <trkpt lat="45.97479" lon="6.55599">
        <ele>2036.5</ele>
        <time>2026-02-02T12:41:00Z</time>
      </trkpt>
      <trkpt lat="45.97478" lon="6.55598">
        <ele>2036.5</ele>
        <time>2026-02-02T12:41:01Z</time>
      </trkpt>
      <trkpt lat="45.97477" lon="6.55599">
        <ele>2037.7</ele>
        <time>2026-02-02T12:41:02Z</time>
      </trkpt>
      <trkpt lat="45.97477" lon="6.55599">
        <ele>2037.7</ele>
        <time>2026-02-02T12:41:03Z</time>
      </trkpt>
      <trkpt lat="45.97477" lon="6.55598">
        <ele>2037.7</ele>
        <time>2026-02-02T12:41:04Z</time>
      </trkpt>
      <trkpt lat="45.97477" lon="6.55598">
        <ele>2037.7</ele>
        <time>2026-02-02T12:41:05Z</time>
      </trkpt>
      <trkpt lat="45.97478" lon="6.55598">
        <ele>2036.5</ele>
        <time>2026-02-02T12:41:06Z</time>
      </trkpt>
      <trkpt lat="45.97478" lon="6.55598">
        <ele>2036.5</ele>
        <time>2026-02-02T12:41:07Z</time>
      </trkpt>
      <trkpt lat="45.97478" lon="6.55598">
        <ele>2036.5</ele>
        <time>2026-02-02T12:41:08Z</time>
      </trkpt>
      <trkpt lat="45.97478" lon="6.55598">
        <ele>2036.5</ele>
        <time>2026-02-02T12:41:09Z</time>
      </trkpt>
      <trkpt lat="45.97478" lon="6.55598">
        <ele>2036.5</ele>
        <time>2026-02-02T12:41:10Z</time>
      </trkpt>
      <trkpt lat="45.97478" lon="6.55598">
        <ele>2036.5</ele>
        <time>2026-02-02T12:41:11Z</time>
      </trkpt>
      <trkpt lat="45.97478" lon="6.55598">
        <ele>2036.5</ele>
        <time>2026-02-02T12:41:12Z</time>
      </trkpt>
      <trkpt lat="45.97478" lon="6.55598">
        <ele>2036.5</ele>
        <time>2026-02-02T12:41:13Z</time>
      </trkpt>
      <trkpt lat="45.97479" lon="6.55598">
        <ele>2036.5</ele>
        <time>2026-02-02T12:41:14Z</time>
      </trkpt>
      <trkpt lat="45.97479" lon="6.55599">
        <ele>2036.5</ele>
        <time>2026-02-02T12:41:15Z</time>
      </trkpt>
      <trkpt lat="45.97479" lon="6.55599">
        <ele>2036.5</ele>
        <time>2026-02-02T12:41:16Z</time>
      </trkpt>
      <trkpt lat="45.97478" lon="6.55599">
        <ele>2036.5</ele>
        <time>2026-02-02T12:41:17Z</time>
      </trkpt>
      <trkpt lat="45.97478" lon="6.55599">
        <ele>2037.7</ele>
        <time>2026-02-02T12:41:18Z</time>
      </trkpt>
      <trkpt lat="45.97476" lon="6.55598">
        <ele>2037.7</ele>
        <time>2026-02-02T12:41:19Z</time>
      </trkpt>
      <trkpt lat="45.97475" lon="6.55598">
        <ele>2037.7</ele>
        <time>2026-02-02T12:41:20Z</time>
      </trkpt>
      <trkpt lat="45.97474" lon="6.55599">
        <ele>2038.9</ele>
        <time>2026-02-02T12:41:21Z</time>
      </trkpt>
      <trkpt lat="45.97473" lon="6.55599">
        <ele>2038.9</ele>
        <time>2026-02-02T12:41:22Z</time>
      </trkpt>
      <trkpt lat="45.97472" lon="6.55599">
        <ele>2038.9</ele>
        <time>2026-02-02T12:41:23Z</time>
      </trkpt>
      <trkpt lat="45.97472" lon="6.556">
        <ele>2040</ele>
        <time>2026-02-02T12:41:24Z</time>
      </trkpt>
      <trkpt lat="45.97469" lon="6.556">
        <ele>2040</ele>
        <time>2026-02-02T12:41:25Z</time>
      </trkpt>
      <trkpt lat="45.97469" lon="6.556">
        <ele>2041.1</ele>
        <time>2026-02-02T12:41:26Z</time>
      </trkpt>
      <trkpt lat="45.97468" lon="6.556">
        <ele>2041.1</ele>
        <time>2026-02-02T12:41:27Z</time>
      </trkpt>
      <trkpt lat="45.97467" lon="6.556">
        <ele>2041.1</ele>
        <time>2026-02-02T12:41:28Z</time>
      </trkpt>
      <trkpt lat="45.97466" lon="6.55601">
        <ele>2042.6</ele>
        <time>2026-02-02T12:41:29Z</time>
      </trkpt>
      <trkpt lat="45.97465" lon="6.55601">
        <ele>2043.6</ele>
        <time>2026-02-02T12:41:30Z</time>
      </trkpt>
      <trkpt lat="45.97463" lon="6.55601">
        <ele>2043.6</ele>
        <time>2026-02-02T12:41:31Z</time>
      </trkpt>
      <trkpt lat="45.97462" lon="6.55601">
        <ele>2044.5</ele>
        <time>2026-02-02T12:41:32Z</time>
      </trkpt>
      <trkpt lat="45.97461" lon="6.55601">
        <ele>2044.5</ele>
        <time>2026-02-02T12:41:33Z</time>
      </trkpt>
      <trkpt lat="45.9746" lon="6.55601">
        <ele>2045.4</ele>
        <time>2026-02-02T12:41:34Z</time>
      </trkpt>
      <trkpt lat="45.97459" lon="6.55601">
        <ele>2045.4</ele>
        <time>2026-02-02T12:41:35Z</time>
      </trkpt>
      <trkpt lat="45.97459" lon="6.55601">
        <ele>2045.4</ele>
        <time>2026-02-02T12:41:36Z</time>
      </trkpt>
      <trkpt lat="45.97458" lon="6.55601">
        <ele>2045.4</ele>
        <time>2026-02-02T12:41:37Z</time>
      </trkpt>
      <trkpt lat="45.97458" lon="6.55601">
        <ele>2045.4</ele>
        <time>2026-02-02T12:41:38Z</time>
      </trkpt>
      <trkpt lat="45.97457" lon="6.55601">
        <ele>2045.4</ele>
        <time>2026-02-02T12:41:39Z</time>
      </trkpt>
      <trkpt lat="45.97456" lon="6.55601">
        <ele>2046.2</ele>
        <time>2026-02-02T12:41:40Z</time>
      </trkpt>
      <trkpt lat="45.97456" lon="6.55601">
        <ele>2046.2</ele>
        <time>2026-02-02T12:41:41Z</time>
      </trkpt>
      <trkpt lat="45.97455" lon="6.55601">
        <ele>2046.2</ele>
        <time>2026-02-02T12:41:42Z</time>
      </trkpt>
      <trkpt lat="45.97454" lon="6.55601">
        <ele>2046.2</ele>
        <time>2026-02-02T12:41:43Z</time>
      </trkpt>
      <trkpt lat="45.97454" lon="6.55601">
        <ele>2046.2</ele>
        <time>2026-02-02T12:41:44Z</time>
      </trkpt>
      <trkpt lat="45.97455" lon="6.55602">
        <ele>2046.2</ele>
        <time>2026-02-02T12:41:45Z</time>
      </trkpt>
      <trkpt lat="45.97455" lon="6.55602">
        <ele>2046.2</ele>
        <time>2026-02-02T12:41:46Z</time>
      </trkpt>
      <trkpt lat="45.97456" lon="6.55603">
        <ele>2046.2</ele>
        <time>2026-02-02T12:41:47Z</time>
      </trkpt>
      <trkpt lat="45.97456" lon="6.55603">
        <ele>2046.2</ele>
        <time>2026-02-02T12:41:48Z</time>
      </trkpt>
      <trkpt lat="45.97457" lon="6.55603">
        <ele>2046.2</ele>
        <time>2026-02-02T12:41:49Z</time>
      </trkpt>
      <trkpt lat="45.97457" lon="6.55603">
        <ele>2046.2</ele>
        <time>2026-02-02T12:41:50Z</time>
      </trkpt>
      <trkpt lat="45.97457" lon="6.55603">
        <ele>2046.2</ele>
        <time>2026-02-02T12:41:51Z</time>
      </trkpt>
      <trkpt lat="45.97457" lon="6.55603">
        <ele>2045.4</ele>
        <time>2026-02-02T12:41:52Z</time>
      </trkpt>
      <trkpt lat="45.97457" lon="6.55603">
        <ele>2045.4</ele>
        <time>2026-02-02T12:41:53Z</time>
      </trkpt>
      <trkpt lat="45.97457" lon="6.55603">
        <ele>2045.4</ele>
        <time>2026-02-02T12:41:54Z</time>
      </trkpt>
      <trkpt lat="45.97457" lon="6.55603">
        <ele>2046.2</ele>
        <time>2026-02-02T12:41:55Z</time>
      </trkpt>
      <trkpt lat="45.97457" lon="6.55603">
        <ele>2045.4</ele>
        <time>2026-02-02T12:41:56Z</time>
      </trkpt>
      <trkpt lat="45.97457" lon="6.55603">
        <ele>2045.4</ele>
        <time>2026-02-02T12:41:57Z</time>
      </trkpt>
      <trkpt lat="45.97457" lon="6.55603">
        <ele>2045.4</ele>
        <time>2026-02-02T12:41:58Z</time>
      </trkpt>
      <trkpt lat="45.97457" lon="6.55603">
        <ele>2046.2</ele>
        <time>2026-02-02T12:41:59Z</time>
      </trkpt>
      <trkpt lat="45.97457" lon="6.55603">
        <ele>2045.4</ele>
        <time>2026-02-02T12:42:00Z</time>
      </trkpt>
      <trkpt lat="45.97457" lon="6.55603">
        <ele>2045.4</ele>
        <time>2026-02-02T12:42:01Z</time>
      </trkpt>
      <trkpt lat="45.97457" lon="6.55603">
        <ele>2045.4</ele>
        <time>2026-02-02T12:42:02Z</time>
      </trkpt>
      <trkpt lat="45.97457" lon="6.55604">
        <ele>2045.4</ele>
        <time>2026-02-02T12:42:03Z</time>
      </trkpt>
      <trkpt lat="45.97458" lon="6.55604">
        <ele>2045.4</ele>
        <time>2026-02-02T12:42:04Z</time>
      </trkpt>
      <trkpt lat="45.97458" lon="6.55604">
        <ele>2045.4</ele>
        <time>2026-02-02T12:42:05Z</time>
      </trkpt>
      <trkpt lat="45.97459" lon="6.55605">
        <ele>2045.4</ele>
        <time>2026-02-02T12:42:06Z</time>
      </trkpt>
      <trkpt lat="45.9746" lon="6.55605">
        <ele>2047</ele>
        <time>2026-02-02T12:42:07Z</time>
      </trkpt>
      <trkpt lat="45.97461" lon="6.55606">
        <ele>2046.2</ele>
        <time>2026-02-02T12:42:08Z</time>
      </trkpt>
      <trkpt lat="45.97462" lon="6.55606">
        <ele>2046.2</ele>
        <time>2026-02-02T12:42:09Z</time>
      </trkpt>
      <trkpt lat="45.97462" lon="6.55607">
        <ele>2046.2</ele>
        <time>2026-02-02T12:42:10Z</time>
      </trkpt>
      <trkpt lat="45.97463" lon="6.55608">
        <ele>2045.2</ele>
        <time>2026-02-02T12:42:11Z</time>
      </trkpt>
      <trkpt lat="45.97464" lon="6.55609">
        <ele>2045.2</ele>
        <time>2026-02-02T12:42:12Z</time>
      </trkpt>
      <trkpt lat="45.97464" lon="6.5561">
        <ele>2046.8</ele>
        <time>2026-02-02T12:42:13Z</time>
      </trkpt>
      <trkpt lat="45.97464" lon="6.55611">
        <ele>2046.8</ele>
        <time>2026-02-02T12:42:14Z</time>
      </trkpt>
      <trkpt lat="45.97465" lon="6.55612">
        <ele>2046.8</ele>
        <time>2026-02-02T12:42:15Z</time>
      </trkpt>
      <trkpt lat="45.97465" lon="6.55612">
        <ele>2046.8</ele>
        <time>2026-02-02T12:42:16Z</time>
      </trkpt>
      <trkpt lat="45.97466" lon="6.55613">
        <ele>2045.8</ele>
        <time>2026-02-02T12:42:17Z</time>
      </trkpt>
      <trkpt lat="45.97466" lon="6.55614">
        <ele>2047.3</ele>
        <time>2026-02-02T12:42:18Z</time>
      </trkpt>
      <trkpt lat="45.97467" lon="6.55615">
        <ele>2047.3</ele>
        <time>2026-02-02T12:42:19Z</time>
      </trkpt>
      <trkpt lat="45.97467" lon="6.55616">
        <ele>2047.3</ele>
        <time>2026-02-02T12:42:20Z</time>
      </trkpt>
      <trkpt lat="45.97468" lon="6.55617">
        <ele>2047.3</ele>
        <time>2026-02-02T12:42:21Z</time>
      </trkpt>
      <trkpt lat="45.97468" lon="6.55617">
        <ele>2047.3</ele>
        <time>2026-02-02T12:42:22Z</time>
      </trkpt>
      <trkpt lat="45.97468" lon="6.55617">
        <ele>2047.3</ele>
        <time>2026-02-02T12:42:23Z</time>
      </trkpt>
      <trkpt lat="45.97467" lon="6.55617">
        <ele>2047.3</ele>
        <time>2026-02-02T12:42:24Z</time>
      </trkpt>
      <trkpt lat="45.97467" lon="6.55617">
        <ele>2047.3</ele>
        <time>2026-02-02T12:42:25Z</time>
      </trkpt>
      <trkpt lat="45.97467" lon="6.55617">
        <ele>2047.3</ele>
        <time>2026-02-02T12:42:26Z</time>
      </trkpt>
      <trkpt lat="45.97467" lon="6.55617">
        <ele>2047.3</ele>
        <time>2026-02-02T12:42:27Z</time>
      </trkpt>
      <trkpt lat="45.97467" lon="6.55617">
        <ele>2047.3</ele>
        <time>2026-02-02T12:42:28Z</time>
      </trkpt>
      <trkpt lat="45.97467" lon="6.55617">
        <ele>2047.3</ele>
        <time>2026-02-02T12:42:29Z</time>
      </trkpt>
      <trkpt lat="45.97467" lon="6.55617">
        <ele>2047.3</ele>
        <time>2026-02-02T12:42:30Z</time>
      </trkpt>
      <trkpt lat="45.97467" lon="6.55617">
        <ele>2047.3</ele>
        <time>2026-02-02T12:42:31Z</time>
      </trkpt>
      <trkpt lat="45.97467" lon="6.55617">
        <ele>2047.3</ele>
        <time>2026-02-02T12:42:32Z</time>
      </trkpt>
      <trkpt lat="45.97467" lon="6.55617">
        <ele>2047.3</ele>
        <time>2026-02-02T12:42:33Z</time>
      </trkpt>
      <trkpt lat="45.97467" lon="6.55617">
        <ele>2047.3</ele>
        <time>2026-02-02T12:42:34Z</time>
      </trkpt>
      <trkpt lat="45.97467" lon="6.55617">
        <ele>2047.3</ele>
        <time>2026-02-02T12:42:35Z</time>
      </trkpt>
      <trkpt lat="45.97467" lon="6.55617">
        <ele>2047.3</ele>
        <time>2026-02-02T12:42:36Z</time>
      </trkpt>
      <trkpt lat="45.97467" lon="6.55617">
        <ele>2047.3</ele>
        <time>2026-02-02T12:42:37Z</time>
      </trkpt>
      <trkpt lat="45.97467" lon="6.55617">
        <ele>2047.3</ele>
        <time>2026-02-02T12:42:38Z</time>
      </trkpt>
      <trkpt lat="45.97467" lon="6.55617">
        <ele>2047.3</ele>
        <time>2026-02-02T12:42:39Z</time>
      </trkpt>
      <trkpt lat="45.97467" lon="6.55617">
        <ele>2047.3</ele>
        <time>2026-02-02T12:42:40Z</time>
      </trkpt>
      <trkpt lat="45.97467" lon="6.55617">
        <ele>2047.3</ele>
        <time>2026-02-02T12:42:41Z</time>
      </trkpt>
      <trkpt lat="45.97467" lon="6.55617">
        <ele>2047.3</ele>
        <time>2026-02-02T12:42:42Z</time>
      </trkpt>
      <trkpt lat="45.97467" lon="6.55617">
        <ele>2047.3</ele>
        <time>2026-02-02T12:42:43Z</time>
      </trkpt>
      <trkpt lat="45.97468" lon="6.55617">
        <ele>2047.3</ele>
        <time>2026-02-02T12:42:44Z</time>
      </trkpt>
      <trkpt lat="45.97468" lon="6.55618">
        <ele>2048.7</ele>
        <time>2026-02-02T12:42:45Z</time>
      </trkpt>
      <trkpt lat="45.97469" lon="6.55619">
        <ele>2048.7</ele>
        <time>2026-02-02T12:42:46Z</time>
      </trkpt>
      <trkpt lat="45.97469" lon="6.5562">
        <ele>2047.5</ele>
        <time>2026-02-02T12:42:47Z</time>
      </trkpt>
      <trkpt lat="45.97469" lon="6.55619">
        <ele>2048.7</ele>
        <time>2026-02-02T12:42:48Z</time>
      </trkpt>
      <trkpt lat="45.97469" lon="6.5562">
        <ele>2047.5</ele>
        <time>2026-02-02T12:42:49Z</time>
      </trkpt>
      <trkpt lat="45.9747" lon="6.55621">
        <ele>2047.5</ele>
        <time>2026-02-02T12:42:50Z</time>
      </trkpt>
      <trkpt lat="45.97471" lon="6.55622">
        <ele>2047.5</ele>
        <time>2026-02-02T12:42:51Z</time>
      </trkpt>
      <trkpt lat="45.97472" lon="6.55623">
        <ele>2047.6</ele>
        <time>2026-02-02T12:42:52Z</time>
      </trkpt>
      <trkpt lat="45.97473" lon="6.55623">
        <ele>2047.6</ele>
        <time>2026-02-02T12:42:53Z</time>
      </trkpt>
      <trkpt lat="45.97474" lon="6.55624">
        <ele>2047.6</ele>
        <time>2026-02-02T12:42:54Z</time>
      </trkpt>
      <trkpt lat="45.97475" lon="6.55625">
        <ele>2047.6</ele>
        <time>2026-02-02T12:42:55Z</time>
      </trkpt>
      <trkpt lat="45.97475" lon="6.55626">
        <ele>2047.6</ele>
        <time>2026-02-02T12:42:56Z</time>
      </trkpt>
      <trkpt lat="45.97476" lon="6.55627">
        <ele>2047.6</ele>
        <time>2026-02-02T12:42:57Z</time>
      </trkpt>
      <trkpt lat="45.97476" lon="6.55628">
        <ele>2047.6</ele>
        <time>2026-02-02T12:42:58Z</time>
      </trkpt>
      <trkpt lat="45.97477" lon="6.5563">
        <ele>2047.6</ele>
        <time>2026-02-02T12:42:59Z</time>
      </trkpt>
      <trkpt lat="45.97477" lon="6.55631">
        <ele>2048.9</ele>
        <time>2026-02-02T12:43:00Z</time>
      </trkpt>
      <trkpt lat="45.97477" lon="6.55632">
        <ele>2048.9</ele>
        <time>2026-02-02T12:43:01Z</time>
      </trkpt>
      <trkpt lat="45.97478" lon="6.55633">
        <ele>2048.9</ele>
        <time>2026-02-02T12:43:02Z</time>
      </trkpt>
      <trkpt lat="45.97478" lon="6.55635">
        <ele>2047.7</ele>
        <time>2026-02-02T12:43:03Z</time>
      </trkpt>
      <trkpt lat="45.97479" lon="6.55636">
        <ele>2049</ele>
        <time>2026-02-02T12:43:04Z</time>
      </trkpt>
      <trkpt lat="45.97479" lon="6.55637">
        <ele>2049</ele>
        <time>2026-02-02T12:43:05Z</time>
      </trkpt>
      <trkpt lat="45.9748" lon="6.55638">
        <ele>2049</ele>
        <time>2026-02-02T12:43:06Z</time>
      </trkpt>
      <trkpt lat="45.9748" lon="6.5564">
        <ele>2050.5</ele>
        <time>2026-02-02T12:43:07Z</time>
      </trkpt>
      <trkpt lat="45.9748" lon="6.55641">
        <ele>2050.5</ele>
        <time>2026-02-02T12:43:08Z</time>
      </trkpt>
      <trkpt lat="45.97481" lon="6.55642">
        <ele>2049.4</ele>
        <time>2026-02-02T12:43:09Z</time>
      </trkpt>
      <trkpt lat="45.97482" lon="6.55643">
        <ele>2049.4</ele>
        <time>2026-02-02T12:43:10Z</time>
      </trkpt>
      <trkpt lat="45.97482" lon="6.55643">
        <ele>2049.4</ele>
        <time>2026-02-02T12:43:11Z</time>
      </trkpt>
      <trkpt lat="45.97482" lon="6.55643">
        <ele>2049.4</ele>
        <time>2026-02-02T12:43:12Z</time>
      </trkpt>
      <trkpt lat="45.97482" lon="6.55643">
        <ele>2049.4</ele>
        <time>2026-02-02T12:43:13Z</time>
      </trkpt>
      <trkpt lat="45.97482" lon="6.55642">
        <ele>2049.4</ele>
        <time>2026-02-02T12:43:14Z</time>
      </trkpt>
      <trkpt lat="45.97482" lon="6.55642">
        <ele>2049.4</ele>
        <time>2026-02-02T12:43:15Z</time>
      </trkpt>
      <trkpt lat="45.97482" lon="6.55642">
        <ele>2049.4</ele>
        <time>2026-02-02T12:43:16Z</time>
      </trkpt>
      <trkpt lat="45.97482" lon="6.55642">
        <ele>2049.4</ele>
        <time>2026-02-02T12:43:17Z</time>
      </trkpt>
      <trkpt lat="45.97482" lon="6.55642">
        <ele>2049.4</ele>
        <time>2026-02-02T12:43:18Z</time>
      </trkpt>
      <trkpt lat="45.97482" lon="6.55642">
        <ele>2049.4</ele>
        <time>2026-02-02T12:43:19Z</time>
      </trkpt>
      <trkpt lat="45.97482" lon="6.55641">
        <ele>2049.4</ele>
        <time>2026-02-02T12:43:20Z</time>
      </trkpt>
      <trkpt lat="45.97482" lon="6.55641">
        <ele>2049.4</ele>
        <time>2026-02-02T12:43:21Z</time>
      </trkpt>
      <trkpt lat="45.97482" lon="6.55641">
        <ele>2049.4</ele>
        <time>2026-02-02T12:43:22Z</time>
      </trkpt>
      <trkpt lat="45.97482" lon="6.55641">
        <ele>2049.4</ele>
        <time>2026-02-02T12:43:23Z</time>
      </trkpt>
      <trkpt lat="45.97482" lon="6.55641">
        <ele>2049.4</ele>
        <time>2026-02-02T12:43:24Z</time>
      </trkpt>
      <trkpt lat="45.97482" lon="6.55641">
        <ele>2049.4</ele>
        <time>2026-02-02T12:43:25Z</time>
      </trkpt>
      <trkpt lat="45.97482" lon="6.55641">
        <ele>2049.4</ele>
        <time>2026-02-02T12:43:26Z</time>
      </trkpt>
      <trkpt lat="45.97482" lon="6.55641">
        <ele>2049.4</ele>
        <time>2026-02-02T12:43:27Z</time>
      </trkpt>
      <trkpt lat="45.97482" lon="6.55641">
        <ele>2049.4</ele>
        <time>2026-02-02T12:43:28Z</time>
      </trkpt>
      <trkpt lat="45.97482" lon="6.55641">
        <ele>2049.4</ele>
        <time>2026-02-02T12:43:29Z</time>
      </trkpt>
      <trkpt lat="45.97482" lon="6.55641">
        <ele>2049.4</ele>
        <time>2026-02-02T12:43:30Z</time>
      </trkpt>
      <trkpt lat="45.97482" lon="6.5564">
        <ele>2049.4</ele>
        <time>2026-02-02T12:43:31Z</time>
      </trkpt>
      <trkpt lat="45.97482" lon="6.5564">
        <ele>2049.4</ele>
        <time>2026-02-02T12:43:32Z</time>
      </trkpt>
      <trkpt lat="45.97482" lon="6.55639">
        <ele>2049.4</ele>
        <time>2026-02-02T12:43:33Z</time>
      </trkpt>
      <trkpt lat="45.97482" lon="6.55639">
        <ele>2049.4</ele>
        <time>2026-02-02T12:43:34Z</time>
      </trkpt>
      <trkpt lat="45.97481" lon="6.5564">
        <ele>2049.4</ele>
        <time>2026-02-02T12:43:35Z</time>
      </trkpt>
      <trkpt lat="45.97481" lon="6.5564">
        <ele>2050.5</ele>
        <time>2026-02-02T12:43:36Z</time>
      </trkpt>
      <trkpt lat="45.97479" lon="6.55639">
        <ele>2049</ele>
        <time>2026-02-02T12:43:37Z</time>
      </trkpt>
      <trkpt lat="45.97478" lon="6.55639">
        <ele>2049</ele>
        <time>2026-02-02T12:43:38Z</time>
      </trkpt>
      <trkpt lat="45.97477" lon="6.5564">
        <ele>2051.6</ele>
        <time>2026-02-02T12:43:39Z</time>
      </trkpt>
      <trkpt lat="45.97476" lon="6.5564">
        <ele>2051.6</ele>
        <time>2026-02-02T12:43:40Z</time>
      </trkpt>
      <trkpt lat="45.97475" lon="6.5564">
        <ele>2052.8</ele>
        <time>2026-02-02T12:43:41Z</time>
      </trkpt>
      <trkpt lat="45.97474" lon="6.55641">
        <ele>2052.8</ele>
        <time>2026-02-02T12:43:42Z</time>
      </trkpt>
      <trkpt lat="45.97472" lon="6.55641">
        <ele>2052.8</ele>
        <time>2026-02-02T12:43:43Z</time>
      </trkpt>
      <trkpt lat="45.97471" lon="6.55642">
        <ele>2053.9</ele>
        <time>2026-02-02T12:43:44Z</time>
      </trkpt>
      <trkpt lat="45.9747" lon="6.55642">
        <ele>2053.9</ele>
        <time>2026-02-02T12:43:45Z</time>
      </trkpt>
      <trkpt lat="45.9747" lon="6.55642">
        <ele>2053.9</ele>
        <time>2026-02-02T12:43:46Z</time>
      </trkpt>
      <trkpt lat="45.97469" lon="6.55643">
        <ele>2053.9</ele>
        <time>2026-02-02T12:43:47Z</time>
      </trkpt>
      <trkpt lat="45.97468" lon="6.55643">
        <ele>2054.9</ele>
        <time>2026-02-02T12:43:48Z</time>
      </trkpt>
      <trkpt lat="45.97467" lon="6.55643">
        <ele>2054.9</ele>
        <time>2026-02-02T12:43:49Z</time>
      </trkpt>
      <trkpt lat="45.97467" lon="6.55644">
        <ele>2056.3</ele>
        <time>2026-02-02T12:43:50Z</time>
      </trkpt>
      <trkpt lat="45.97466" lon="6.55644">
        <ele>2056.3</ele>
        <time>2026-02-02T12:43:51Z</time>
      </trkpt>
      <trkpt lat="45.97465" lon="6.55644">
        <ele>2057.3</ele>
        <time>2026-02-02T12:43:52Z</time>
      </trkpt>
      <trkpt lat="45.97465" lon="6.55645">
        <ele>2057.3</ele>
        <time>2026-02-02T12:43:53Z</time>
      </trkpt>
      <trkpt lat="45.97465" lon="6.55645">
        <ele>2057.3</ele>
        <time>2026-02-02T12:43:54Z</time>
      </trkpt>
      <trkpt lat="45.97465" lon="6.55646">
        <ele>2057.3</ele>
        <time>2026-02-02T12:43:55Z</time>
      </trkpt>
      <trkpt lat="45.97465" lon="6.55646">
        <ele>2057.3</ele>
        <time>2026-02-02T12:43:56Z</time>
      </trkpt>
      <trkpt lat="45.97466" lon="6.55645">
        <ele>2056.3</ele>
        <time>2026-02-02T12:43:57Z</time>
      </trkpt>
      <trkpt lat="45.97466" lon="6.55645">
        <ele>2056.3</ele>
        <time>2026-02-02T12:43:58Z</time>
      </trkpt>
      <trkpt lat="45.97466" lon="6.55645">
        <ele>2056.3</ele>
        <time>2026-02-02T12:43:59Z</time>
      </trkpt>
      <trkpt lat="45.97466" lon="6.55645">
        <ele>2056.3</ele>
        <time>2026-02-02T12:44:00Z</time>
      </trkpt>
      <trkpt lat="45.97466" lon="6.55644">
        <ele>2056.3</ele>
        <time>2026-02-02T12:44:01Z</time>
      </trkpt>
      <trkpt lat="45.97466" lon="6.55644">
        <ele>2056.3</ele>
        <time>2026-02-02T12:44:02Z</time>
      </trkpt>
      <trkpt lat="45.97466" lon="6.55644">
        <ele>2056.3</ele>
        <time>2026-02-02T12:44:03Z</time>
      </trkpt>
      <trkpt lat="45.97466" lon="6.55644">
        <ele>2056.3</ele>
        <time>2026-02-02T12:44:04Z</time>
      </trkpt>
      <trkpt lat="45.97466" lon="6.55644">
        <ele>2056.3</ele>
        <time>2026-02-02T12:44:05Z</time>
      </trkpt>
      <trkpt lat="45.97466" lon="6.55644">
        <ele>2056.3</ele>
        <time>2026-02-02T12:44:06Z</time>
      </trkpt>
      <trkpt lat="45.97466" lon="6.55644">
        <ele>2056.3</ele>
        <time>2026-02-02T12:44:07Z</time>
      </trkpt>
      <trkpt lat="45.97466" lon="6.55644">
        <ele>2056.3</ele>
        <time>2026-02-02T12:44:08Z</time>
      </trkpt>
      <trkpt lat="45.97466" lon="6.55644">
        <ele>2056.3</ele>
        <time>2026-02-02T12:44:09Z</time>
      </trkpt>
      <trkpt lat="45.97466" lon="6.55644">
        <ele>2056.3</ele>
        <time>2026-02-02T12:44:10Z</time>
      </trkpt>
      <trkpt lat="45.97466" lon="6.55644">
        <ele>2056.3</ele>
        <time>2026-02-02T12:44:11Z</time>
      </trkpt>
      <trkpt lat="45.97466" lon="6.55644">
        <ele>2056.3</ele>
        <time>2026-02-02T12:44:12Z</time>
      </trkpt>
      <trkpt lat="45.97466" lon="6.55645">
        <ele>2056.3</ele>
        <time>2026-02-02T12:44:13Z</time>
      </trkpt>
      <trkpt lat="45.97466" lon="6.55645">
        <ele>2056.3</ele>
        <time>2026-02-02T12:44:14Z</time>
      </trkpt>
      <trkpt lat="45.97466" lon="6.55645">
        <ele>2056.3</ele>
        <time>2026-02-02T12:44:15Z</time>
      </trkpt>
      <trkpt lat="45.97466" lon="6.55645">
        <ele>2056.3</ele>
        <time>2026-02-02T12:44:16Z</time>
      </trkpt>
      <trkpt lat="45.97466" lon="6.55645">
        <ele>2056.3</ele>
        <time>2026-02-02T12:44:17Z</time>
      </trkpt>
      <trkpt lat="45.97466" lon="6.55645">
        <ele>2056.3</ele>
        <time>2026-02-02T12:44:18Z</time>
      </trkpt>
      <trkpt lat="45.97466" lon="6.55645">
        <ele>2056.3</ele>
        <time>2026-02-02T12:44:19Z</time>
      </trkpt>
      <trkpt lat="45.97466" lon="6.55645">
        <ele>2056.3</ele>
        <time>2026-02-02T12:44:20Z</time>
      </trkpt>
      <trkpt lat="45.97466" lon="6.55645">
        <ele>2056.3</ele>
        <time>2026-02-02T12:44:21Z</time>
      </trkpt>
      <trkpt lat="45.97466" lon="6.55645">
        <ele>2056.3</ele>
        <time>2026-02-02T12:44:22Z</time>
      </trkpt>
      <trkpt lat="45.97466" lon="6.55645">
        <ele>2056.3</ele>
        <time>2026-02-02T12:44:23Z</time>
      </trkpt>
      <trkpt lat="45.97466" lon="6.55645">
        <ele>2056.3</ele>
        <time>2026-02-02T12:44:24Z</time>
      </trkpt>
      <trkpt lat="45.97466" lon="6.55645">
        <ele>2056.3</ele>
        <time>2026-02-02T12:44:25Z</time>
      </trkpt>
      <trkpt lat="45.97466" lon="6.55645">
        <ele>2056.3</ele>
        <time>2026-02-02T12:44:26Z</time>
      </trkpt>
      <trkpt lat="45.97466" lon="6.55645">
        <ele>2056.3</ele>
        <time>2026-02-02T12:44:27Z</time>
      </trkpt>
      <trkpt lat="45.97466" lon="6.55645">
        <ele>2056.3</ele>
        <time>2026-02-02T12:44:28Z</time>
      </trkpt>
      <trkpt lat="45.97466" lon="6.55645">
        <ele>2056.3</ele>
        <time>2026-02-02T12:44:29Z</time>
      </trkpt>
      <trkpt lat="45.97466" lon="6.55645">
        <ele>2056.3</ele>
        <time>2026-02-02T12:44:30Z</time>
      </trkpt>
      <trkpt lat="45.97467" lon="6.55644">
        <ele>2056.3</ele>
        <time>2026-02-02T12:44:31Z</time>
      </trkpt>
      <trkpt lat="45.97467" lon="6.55644">
        <ele>2056.3</ele>
        <time>2026-02-02T12:44:32Z</time>
      </trkpt>
      <trkpt lat="45.97467" lon="6.55644">
        <ele>2056.3</ele>
        <time>2026-02-02T12:44:33Z</time>
      </trkpt>
      <trkpt lat="45.97467" lon="6.55644">
        <ele>2056.3</ele>
        <time>2026-02-02T12:44:34Z</time>
      </trkpt>
      <trkpt lat="45.97467" lon="6.55644">
        <ele>2056.3</ele>
        <time>2026-02-02T12:44:35Z</time>
      </trkpt>
      <trkpt lat="45.97467" lon="6.55644">
        <ele>2056.3</ele>
        <time>2026-02-02T12:44:36Z</time>
      </trkpt>
      <trkpt lat="45.97467" lon="6.55644">
        <ele>2056.3</ele>
        <time>2026-02-02T12:44:37Z</time>
      </trkpt>
      <trkpt lat="45.97467" lon="6.55644">
        <ele>2056.3</ele>
        <time>2026-02-02T12:44:38Z</time>
      </trkpt>
      <trkpt lat="45.97467" lon="6.55644">
        <ele>2056.3</ele>
        <time>2026-02-02T12:44:39Z</time>
      </trkpt>
      <trkpt lat="45.97467" lon="6.55644">
        <ele>2056.3</ele>
        <time>2026-02-02T12:44:40Z</time>
      </trkpt>
      <trkpt lat="45.97467" lon="6.55644">
        <ele>2056.3</ele>
        <time>2026-02-02T12:44:41Z</time>
      </trkpt>
      <trkpt lat="45.97467" lon="6.55644">
        <ele>2056.3</ele>
        <time>2026-02-02T12:44:42Z</time>
      </trkpt>
      <trkpt lat="45.97467" lon="6.55644">
        <ele>2056.3</ele>
        <time>2026-02-02T12:44:43Z</time>
      </trkpt>
      <trkpt lat="45.97467" lon="6.55644">
        <ele>2056.3</ele>
        <time>2026-02-02T12:44:44Z</time>
      </trkpt>
      <trkpt lat="45.97468" lon="6.55644">
        <ele>2056.3</ele>
        <time>2026-02-02T12:44:45Z</time>
      </trkpt>
      <trkpt lat="45.97467" lon="6.55644">
        <ele>2056.3</ele>
        <time>2026-02-02T12:44:47Z</time>
      </trkpt>
      <trkpt lat="45.97467" lon="6.55644">
        <ele>2056.3</ele>
        <time>2026-02-02T12:44:49Z</time>
      </trkpt>
      <trkpt lat="45.97468" lon="6.55645">
        <ele>2056.3</ele>
        <time>2026-02-02T12:44:51Z</time>
      </trkpt>
      <trkpt lat="45.97468" lon="6.55644">
        <ele>2056.3</ele>
        <time>2026-02-02T12:44:53Z</time>
      </trkpt>
      <trkpt lat="45.97469" lon="6.55644">
        <ele>2056.3</ele>
        <time>2026-02-02T12:44:54Z</time>
      </trkpt>
      <trkpt lat="45.97469" lon="6.55644">
        <ele>2056.3</ele>
        <time>2026-02-02T12:44:55Z</time>
      </trkpt>
      <trkpt lat="45.97468" lon="6.55644">
        <ele>2056.3</ele>
        <time>2026-02-02T12:44:56Z</time>
      </trkpt>
      <trkpt lat="45.97468" lon="6.55644">
        <ele>2056.3</ele>
        <time>2026-02-02T12:44:57Z</time>
      </trkpt>
      <trkpt lat="45.97468" lon="6.55644">
        <ele>2056.3</ele>
        <time>2026-02-02T12:44:58Z</time>
      </trkpt>
      <trkpt lat="45.97468" lon="6.55644">
        <ele>2056.3</ele>
        <time>2026-02-02T12:44:59Z</time>
      </trkpt>
      <trkpt lat="45.97468" lon="6.55644">
        <ele>2056.3</ele>
        <time>2026-02-02T12:45:00Z</time>
      </trkpt>
      <trkpt lat="45.97468" lon="6.55644">
        <ele>2056.3</ele>
        <time>2026-02-02T12:45:01Z</time>
      </trkpt>
      <trkpt lat="45.97468" lon="6.55644">
        <ele>2056.3</ele>
        <time>2026-02-02T12:45:02Z</time>
      </trkpt>
      <trkpt lat="45.97468" lon="6.55644">
        <ele>2056.3</ele>
        <time>2026-02-02T12:45:03Z</time>
      </trkpt>
      <trkpt lat="45.97468" lon="6.55644">
        <ele>2056.3</ele>
        <time>2026-02-02T12:45:04Z</time>
      </trkpt>
      <trkpt lat="45.97468" lon="6.55644">
        <ele>2056.3</ele>
        <time>2026-02-02T12:45:05Z</time>
      </trkpt>
      <trkpt lat="45.97468" lon="6.55644">
        <ele>2056.3</ele>
        <time>2026-02-02T12:45:07Z</time>
      </trkpt>
      <trkpt lat="45.97468" lon="6.55644">
        <ele>2056.3</ele>
        <time>2026-02-02T12:45:09Z</time>
      </trkpt>
      <trkpt lat="45.97468" lon="6.55644">
        <ele>2056.3</ele>
        <time>2026-02-02T12:45:10Z</time>
      </trkpt>
      <trkpt lat="45.97468" lon="6.55644">
        <ele>2056.3</ele>
        <time>2026-02-02T12:45:11Z</time>
      </trkpt>
      <trkpt lat="45.97468" lon="6.55644">
        <ele>2056.3</ele>
        <time>2026-02-02T12:45:12Z</time>
      </trkpt>
      <trkpt lat="45.97468" lon="6.55644">
        <ele>2056.3</ele>
        <time>2026-02-02T12:45:13Z</time>
      </trkpt>
      <trkpt lat="45.97468" lon="6.55644">
        <ele>2056.3</ele>
        <time>2026-02-02T12:45:14Z</time>
      </trkpt>
      <trkpt lat="45.97468" lon="6.55644">
        <ele>2056.3</ele>
        <time>2026-02-02T12:45:15Z</time>
      </trkpt>
      <trkpt lat="45.97468" lon="6.55644">
        <ele>2056.3</ele>
        <time>2026-02-02T12:45:16Z</time>
      </trkpt>
      <trkpt lat="45.97468" lon="6.55644">
        <ele>2056.3</ele>
        <time>2026-02-02T12:45:17Z</time>
      </trkpt>
      <trkpt lat="45.97468" lon="6.55644">
        <ele>2056.3</ele>
        <time>2026-02-02T12:45:18Z</time>
      </trkpt>
      <trkpt lat="45.97468" lon="6.55644">
        <ele>2056.3</ele>
        <time>2026-02-02T12:45:19Z</time>
      </trkpt>
      <trkpt lat="45.97468" lon="6.55644">
        <ele>2056.3</ele>
        <time>2026-02-02T12:45:20Z</time>
      </trkpt>
      <trkpt lat="45.97468" lon="6.55644">
        <ele>2056.3</ele>
        <time>2026-02-02T12:45:21Z</time>
      </trkpt>
      <trkpt lat="45.97468" lon="6.55644">
        <ele>2056.3</ele>
        <time>2026-02-02T12:45:22Z</time>
      </trkpt>
      <trkpt lat="45.97468" lon="6.55644">
        <ele>2056.3</ele>
        <time>2026-02-02T12:45:23Z</time>
      </trkpt>
      <trkpt lat="45.97468" lon="6.55644">
        <ele>2056.3</ele>
        <time>2026-02-02T12:45:24Z</time>
      </trkpt>
      <trkpt lat="45.97468" lon="6.55644">
        <ele>2056.3</ele>
        <time>2026-02-02T12:45:25Z</time>
      </trkpt>
      <trkpt lat="45.97468" lon="6.55644">
        <ele>2056.3</ele>
        <time>2026-02-02T12:45:26Z</time>
      </trkpt>
      <trkpt lat="45.97468" lon="6.55644">
        <ele>2056.3</ele>
        <time>2026-02-02T12:45:27Z</time>
      </trkpt>
      <trkpt lat="45.97468" lon="6.55644">
        <ele>2056.3</ele>
        <time>2026-02-02T12:45:28Z</time>
      </trkpt>
      <trkpt lat="45.97468" lon="6.55644">
        <ele>2056.3</ele>
        <time>2026-02-02T12:45:29Z</time>
      </trkpt>
      <trkpt lat="45.97468" lon="6.55644">
        <ele>2056.3</ele>
        <time>2026-02-02T12:45:30Z</time>
      </trkpt>
      <trkpt lat="45.97468" lon="6.55644">
        <ele>2056.3</ele>
        <time>2026-02-02T12:45:31Z</time>
      </trkpt>
      <trkpt lat="45.97468" lon="6.55644">
        <ele>2056.3</ele>
        <time>2026-02-02T12:45:32Z</time>
      </trkpt>
      <trkpt lat="45.97468" lon="6.55644">
        <ele>2056.3</ele>
        <time>2026-02-02T12:45:33Z</time>
      </trkpt>
      <trkpt lat="45.97468" lon="6.55644">
        <ele>2056.3</ele>
        <time>2026-02-02T12:45:34Z</time>
      </trkpt>
      <trkpt lat="45.97468" lon="6.55644">
        <ele>2056.3</ele>
        <time>2026-02-02T12:45:35Z</time>
      </trkpt>
      <trkpt lat="45.97468" lon="6.55644">
        <ele>2056.3</ele>
        <time>2026-02-02T12:45:36Z</time>
      </trkpt>
      <trkpt lat="45.97468" lon="6.55644">
        <ele>2056.3</ele>
        <time>2026-02-02T12:45:37Z</time>
      </trkpt>
      <trkpt lat="45.97468" lon="6.55644">
        <ele>2056.3</ele>
        <time>2026-02-02T12:45:38Z</time>
      </trkpt>
      <trkpt lat="45.97468" lon="6.55644">
        <ele>2056.3</ele>
        <time>2026-02-02T12:45:39Z</time>
      </trkpt>
      <trkpt lat="45.97468" lon="6.55644">
        <ele>2056.3</ele>
        <time>2026-02-02T12:45:40Z</time>
      </trkpt>
      <trkpt lat="45.97468" lon="6.55645">
        <ele>2056.3</ele>
        <time>2026-02-02T12:45:41Z</time>
      </trkpt>
      <trkpt lat="45.97468" lon="6.55644">
        <ele>2056.3</ele>
        <time>2026-02-02T12:45:42Z</time>
      </trkpt>
      <trkpt lat="45.97468" lon="6.55645">
        <ele>2056.3</ele>
        <time>2026-02-02T12:45:43Z</time>
      </trkpt>
      <trkpt lat="45.97468" lon="6.55645">
        <ele>2056.3</ele>
        <time>2026-02-02T12:45:44Z</time>
      </trkpt>
      <trkpt lat="45.97468" lon="6.55645">
        <ele>2056.3</ele>
        <time>2026-02-02T12:45:45Z</time>
      </trkpt>
      <trkpt lat="45.97468" lon="6.55645">
        <ele>2056.3</ele>
        <time>2026-02-02T12:45:46Z</time>
      </trkpt>
      <trkpt lat="45.97468" lon="6.55645">
        <ele>2056.3</ele>
        <time>2026-02-02T12:45:47Z</time>
      </trkpt>
      <trkpt lat="45.97468" lon="6.55645">
        <ele>2056.3</ele>
        <time>2026-02-02T12:45:48Z</time>
      </trkpt>
      <trkpt lat="45.97468" lon="6.55645">
        <ele>2056.3</ele>
        <time>2026-02-02T12:45:49Z</time>
      </trkpt>
      <trkpt lat="45.97468" lon="6.55645">
        <ele>2056.3</ele>
        <time>2026-02-02T12:45:50Z</time>
      </trkpt>
      <trkpt lat="45.97468" lon="6.55646">
        <ele>2056.3</ele>
        <time>2026-02-02T12:45:51Z</time>
      </trkpt>
      <trkpt lat="45.97468" lon="6.55647">
        <ele>2056.3</ele>
        <time>2026-02-02T12:45:52Z</time>
      </trkpt>
      <trkpt lat="45.97468" lon="6.55651">
        <ele>2057.7</ele>
        <time>2026-02-02T12:45:54Z</time>
      </trkpt>
      <trkpt lat="45.97469" lon="6.55653">
        <ele>2058.2</ele>
        <time>2026-02-02T12:45:55Z</time>
      </trkpt>
      <trkpt lat="45.9747" lon="6.55655">
        <ele>2058.2</ele>
        <time>2026-02-02T12:45:56Z</time>
      </trkpt>
      <trkpt lat="45.9747" lon="6.55656">
        <ele>2058.2</ele>
        <time>2026-02-02T12:45:57Z</time>
      </trkpt>
      <trkpt lat="45.97471" lon="6.55657">
        <ele>2059.6</ele>
        <time>2026-02-02T12:45:58Z</time>
      </trkpt>
      <trkpt lat="45.97472" lon="6.55659">
        <ele>2058.6</ele>
        <time>2026-02-02T12:45:59Z</time>
      </trkpt>
      <trkpt lat="45.97473" lon="6.55661">
        <ele>2060</ele>
        <time>2026-02-02T12:46:00Z</time>
      </trkpt>
      <trkpt lat="45.97473" lon="6.55662">
        <ele>2060</ele>
        <time>2026-02-02T12:46:01Z</time>
      </trkpt>
      <trkpt lat="45.97473" lon="6.55664">
        <ele>2060</ele>
        <time>2026-02-02T12:46:02Z</time>
      </trkpt>
      <trkpt lat="45.97474" lon="6.55665">
        <ele>2061.5</ele>
        <time>2026-02-02T12:46:03Z</time>
      </trkpt>
      <trkpt lat="45.97475" lon="6.55666">
        <ele>2061.5</ele>
        <time>2026-02-02T12:46:04Z</time>
      </trkpt>
      <trkpt lat="45.97475" lon="6.55668">
        <ele>2060.4</ele>
        <time>2026-02-02T12:46:05Z</time>
      </trkpt>
      <trkpt lat="45.97476" lon="6.55668">
        <ele>2060.4</ele>
        <time>2026-02-02T12:46:06Z</time>
      </trkpt>
      <trkpt lat="45.97476" lon="6.55669">
        <ele>2060.4</ele>
        <time>2026-02-02T12:46:07Z</time>
      </trkpt>
      <trkpt lat="45.97477" lon="6.5567">
        <ele>2061.8</ele>
        <time>2026-02-02T12:46:08Z</time>
      </trkpt>
      <trkpt lat="45.97477" lon="6.55671">
        <ele>2061.8</ele>
        <time>2026-02-02T12:46:09Z</time>
      </trkpt>
      <trkpt lat="45.97477" lon="6.55672">
        <ele>2061.8</ele>
        <time>2026-02-02T12:46:10Z</time>
      </trkpt>
      <trkpt lat="45.97478" lon="6.55674">
        <ele>2062.1</ele>
        <time>2026-02-02T12:46:11Z</time>
      </trkpt>
      <trkpt lat="45.97478" lon="6.55675">
        <ele>2062.1</ele>
        <time>2026-02-02T12:46:12Z</time>
      </trkpt>
      <trkpt lat="45.97479" lon="6.55675">
        <ele>2062.1</ele>
        <time>2026-02-02T12:46:13Z</time>
      </trkpt>
      <trkpt lat="45.9748" lon="6.55677">
        <ele>2062.1</ele>
        <time>2026-02-02T12:46:14Z</time>
      </trkpt>
      <trkpt lat="45.9748" lon="6.55678">
        <ele>2062.1</ele>
        <time>2026-02-02T12:46:15Z</time>
      </trkpt>
      <trkpt lat="45.97481" lon="6.55679">
        <ele>2062.4</ele>
        <time>2026-02-02T12:46:17Z</time>
      </trkpt>
      <trkpt lat="45.97481" lon="6.5568">
        <ele>2062.4</ele>
        <time>2026-02-02T12:46:18Z</time>
      </trkpt>
      <trkpt lat="45.97481" lon="6.5568">
        <ele>2062.4</ele>
        <time>2026-02-02T12:46:19Z</time>
      </trkpt>
      <trkpt lat="45.97481" lon="6.5568">
        <ele>2062.4</ele>
        <time>2026-02-02T12:46:20Z</time>
      </trkpt>
      <trkpt lat="45.97482" lon="6.55681">
        <ele>2062.4</ele>
        <time>2026-02-02T12:46:21Z</time>
      </trkpt>
      <trkpt lat="45.97482" lon="6.55682">
        <ele>2062.4</ele>
        <time>2026-02-02T12:46:22Z</time>
      </trkpt>
      <trkpt lat="45.97483" lon="6.55683">
        <ele>2063.8</ele>
        <time>2026-02-02T12:46:23Z</time>
      </trkpt>
      <trkpt lat="45.97483" lon="6.55683">
        <ele>2063.8</ele>
        <time>2026-02-02T12:46:24Z</time>
      </trkpt>
      <trkpt lat="45.97483" lon="6.55683">
        <ele>2063.8</ele>
        <time>2026-02-02T12:46:25Z</time>
      </trkpt>
      <trkpt lat="45.97483" lon="6.55684">
        <ele>2063.8</ele>
        <time>2026-02-02T12:46:26Z</time>
      </trkpt>
      <trkpt lat="45.97483" lon="6.55684">
        <ele>2063.8</ele>
        <time>2026-02-02T12:46:27Z</time>
      </trkpt>
      <trkpt lat="45.97484" lon="6.55684">
        <ele>2062.8</ele>
        <time>2026-02-02T12:46:28Z</time>
      </trkpt>
      <trkpt lat="45.97484" lon="6.55685">
        <ele>2062.8</ele>
        <time>2026-02-02T12:46:29Z</time>
      </trkpt>
      <trkpt lat="45.97484" lon="6.55685">
        <ele>2062.8</ele>
        <time>2026-02-02T12:46:30Z</time>
      </trkpt>
      <trkpt lat="45.97484" lon="6.55685">
        <ele>2062.8</ele>
        <time>2026-02-02T12:46:31Z</time>
      </trkpt>
      <trkpt lat="45.97484" lon="6.55686">
        <ele>2062.8</ele>
        <time>2026-02-02T12:46:32Z</time>
      </trkpt>
      <trkpt lat="45.97484" lon="6.55686">
        <ele>2062.8</ele>
        <time>2026-02-02T12:46:33Z</time>
      </trkpt>
      <trkpt lat="45.97485" lon="6.55687">
        <ele>2064.1</ele>
        <time>2026-02-02T12:46:34Z</time>
      </trkpt>
      <trkpt lat="45.97485" lon="6.55687">
        <ele>2064.1</ele>
        <time>2026-02-02T12:46:35Z</time>
      </trkpt>
      <trkpt lat="45.97485" lon="6.55687">
        <ele>2064.1</ele>
        <time>2026-02-02T12:46:36Z</time>
      </trkpt>
      <trkpt lat="45.97485" lon="6.55688">
        <ele>2064.1</ele>
        <time>2026-02-02T12:46:37Z</time>
      </trkpt>
      <trkpt lat="45.97485" lon="6.55688">
        <ele>2064.1</ele>
        <time>2026-02-02T12:46:38Z</time>
      </trkpt>
      <trkpt lat="45.97486" lon="6.5569">
        <ele>2064.1</ele>
        <time>2026-02-02T12:46:39Z</time>
      </trkpt>
      <trkpt lat="45.97486" lon="6.55692">
        <ele>2065.5</ele>
        <time>2026-02-02T12:46:40Z</time>
      </trkpt>
      <trkpt lat="45.97487" lon="6.55693">
        <ele>2064.5</ele>
        <time>2026-02-02T12:46:41Z</time>
      </trkpt>
      <trkpt lat="45.97487" lon="6.55695">
        <ele>2064.5</ele>
        <time>2026-02-02T12:46:42Z</time>
      </trkpt>
      <trkpt lat="45.97487" lon="6.55697">
        <ele>2065.9</ele>
        <time>2026-02-02T12:46:43Z</time>
      </trkpt>
      <trkpt lat="45.97487" lon="6.55698">
        <ele>2065.9</ele>
        <time>2026-02-02T12:46:44Z</time>
      </trkpt>
      <trkpt lat="45.97487" lon="6.55699">
        <ele>2065.9</ele>
        <time>2026-02-02T12:46:45Z</time>
      </trkpt>
      <trkpt lat="45.97487" lon="6.557">
        <ele>2067.2</ele>
        <time>2026-02-02T12:46:46Z</time>
      </trkpt>
      <trkpt lat="45.97487" lon="6.55701">
        <ele>2067.2</ele>
        <time>2026-02-02T12:46:47Z</time>
      </trkpt>
      <trkpt lat="45.97487" lon="6.55701">
        <ele>2067.2</ele>
        <time>2026-02-02T12:46:48Z</time>
      </trkpt>
      <trkpt lat="45.97487" lon="6.55703">
        <ele>2067.2</ele>
        <time>2026-02-02T12:46:49Z</time>
      </trkpt>
      <trkpt lat="45.97487" lon="6.55704">
        <ele>2068.5</ele>
        <time>2026-02-02T12:46:50Z</time>
      </trkpt>
      <trkpt lat="45.97487" lon="6.55705">
        <ele>2068.5</ele>
        <time>2026-02-02T12:46:51Z</time>
      </trkpt>
      <trkpt lat="45.97487" lon="6.55706">
        <ele>2068.5</ele>
        <time>2026-02-02T12:46:52Z</time>
      </trkpt>
      <trkpt lat="45.97487" lon="6.55706">
        <ele>2068.5</ele>
        <time>2026-02-02T12:46:53Z</time>
      </trkpt>
      <trkpt lat="45.97487" lon="6.55707">
        <ele>2068.5</ele>
        <time>2026-02-02T12:46:54Z</time>
      </trkpt>
      <trkpt lat="45.97487" lon="6.55707">
        <ele>2068.5</ele>
        <time>2026-02-02T12:46:55Z</time>
      </trkpt>
      <trkpt lat="45.97487" lon="6.55708">
        <ele>2069.7</ele>
        <time>2026-02-02T12:46:56Z</time>
      </trkpt>
      <trkpt lat="45.97487" lon="6.55709">
        <ele>2069.7</ele>
        <time>2026-02-02T12:46:57Z</time>
      </trkpt>
      <trkpt lat="45.97487" lon="6.55709">
        <ele>2069.7</ele>
        <time>2026-02-02T12:46:58Z</time>
      </trkpt>
      <trkpt lat="45.97487" lon="6.5571">
        <ele>2069.7</ele>
        <time>2026-02-02T12:46:59Z</time>
      </trkpt>
      <trkpt lat="45.97487" lon="6.55711">
        <ele>2069.7</ele>
        <time>2026-02-02T12:47:00Z</time>
      </trkpt>
      <trkpt lat="45.97487" lon="6.55711">
        <ele>2069.7</ele>
        <time>2026-02-02T12:47:01Z</time>
      </trkpt>
      <trkpt lat="45.97487" lon="6.55712">
        <ele>2069.7</ele>
        <time>2026-02-02T12:47:02Z</time>
      </trkpt>
      <trkpt lat="45.97487" lon="6.55712">
        <ele>2070.8</ele>
        <time>2026-02-02T12:47:03Z</time>
      </trkpt>
      <trkpt lat="45.97487" lon="6.55713">
        <ele>2070.8</ele>
        <time>2026-02-02T12:47:04Z</time>
      </trkpt>
      <trkpt lat="45.97487" lon="6.55713">
        <ele>2070.8</ele>
        <time>2026-02-02T12:47:05Z</time>
      </trkpt>
      <trkpt lat="45.97487" lon="6.55713">
        <ele>2070.8</ele>
        <time>2026-02-02T12:47:06Z</time>
      </trkpt>
      <trkpt lat="45.97488" lon="6.55713">
        <ele>2070.8</ele>
        <time>2026-02-02T12:47:07Z</time>
      </trkpt>
      <trkpt lat="45.97488" lon="6.55713">
        <ele>2070.8</ele>
        <time>2026-02-02T12:47:08Z</time>
      </trkpt>
      <trkpt lat="45.97488" lon="6.55713">
        <ele>2070.8</ele>
        <time>2026-02-02T12:47:09Z</time>
      </trkpt>
      <trkpt lat="45.97488" lon="6.55713">
        <ele>2070.8</ele>
        <time>2026-02-02T12:47:10Z</time>
      </trkpt>
      <trkpt lat="45.97488" lon="6.55713">
        <ele>2070.8</ele>
        <time>2026-02-02T12:47:11Z</time>
      </trkpt>
      <trkpt lat="45.97488" lon="6.55713">
        <ele>2070.8</ele>
        <time>2026-02-02T12:47:12Z</time>
      </trkpt>
      <trkpt lat="45.97488" lon="6.55713">
        <ele>2070.8</ele>
        <time>2026-02-02T12:47:13Z</time>
      </trkpt>
      <trkpt lat="45.97487" lon="6.55713">
        <ele>2070.8</ele>
        <time>2026-02-02T12:47:14Z</time>
      </trkpt>
      <trkpt lat="45.97487" lon="6.55714">
        <ele>2070.8</ele>
        <time>2026-02-02T12:47:15Z</time>
      </trkpt>
      <trkpt lat="45.97487" lon="6.55714">
        <ele>2070.8</ele>
        <time>2026-02-02T12:47:16Z</time>
      </trkpt>
      <trkpt lat="45.97487" lon="6.55714">
        <ele>2070.8</ele>
        <time>2026-02-02T12:47:17Z</time>
      </trkpt>
      <trkpt lat="45.97487" lon="6.55714">
        <ele>2070.8</ele>
        <time>2026-02-02T12:47:18Z</time>
      </trkpt>
      <trkpt lat="45.97487" lon="6.55714">
        <ele>2070.8</ele>
        <time>2026-02-02T12:47:19Z</time>
      </trkpt>
      <trkpt lat="45.97487" lon="6.55714">
        <ele>2070.8</ele>
        <time>2026-02-02T12:47:20Z</time>
      </trkpt>
      <trkpt lat="45.97487" lon="6.55714">
        <ele>2070.8</ele>
        <time>2026-02-02T12:47:21Z</time>
      </trkpt>
      <trkpt lat="45.97487" lon="6.55714">
        <ele>2070.8</ele>
        <time>2026-02-02T12:47:22Z</time>
      </trkpt>
      <trkpt lat="45.97488" lon="6.55714">
        <ele>2070.8</ele>
        <time>2026-02-02T12:47:23Z</time>
      </trkpt>
      <trkpt lat="45.97488" lon="6.55714">
        <ele>2070.8</ele>
        <time>2026-02-02T12:47:24Z</time>
      </trkpt>
      <trkpt lat="45.97488" lon="6.55714">
        <ele>2070.8</ele>
        <time>2026-02-02T12:47:25Z</time>
      </trkpt>
      <trkpt lat="45.97488" lon="6.55714">
        <ele>2070.8</ele>
        <time>2026-02-02T12:47:26Z</time>
      </trkpt>
      <trkpt lat="45.97488" lon="6.55714">
        <ele>2070.8</ele>
        <time>2026-02-02T12:47:27Z</time>
      </trkpt>
      <trkpt lat="45.97488" lon="6.55714">
        <ele>2070.8</ele>
        <time>2026-02-02T12:47:28Z</time>
      </trkpt>
      <trkpt lat="45.97488" lon="6.55714">
        <ele>2070.8</ele>
        <time>2026-02-02T12:47:29Z</time>
      </trkpt>
      <trkpt lat="45.97488" lon="6.55714">
        <ele>2070.8</ele>
        <time>2026-02-02T12:47:30Z</time>
      </trkpt>
      <trkpt lat="45.97488" lon="6.55714">
        <ele>2070.8</ele>
        <time>2026-02-02T12:47:31Z</time>
      </trkpt>
      <trkpt lat="45.97488" lon="6.55714">
        <ele>2070.8</ele>
        <time>2026-02-02T12:47:32Z</time>
      </trkpt>
      <trkpt lat="45.97488" lon="6.55714">
        <ele>2070.8</ele>
        <time>2026-02-02T12:47:33Z</time>
      </trkpt>
      <trkpt lat="45.97488" lon="6.55715">
        <ele>2070.8</ele>
        <time>2026-02-02T12:47:34Z</time>
      </trkpt>
      <trkpt lat="45.97488" lon="6.55715">
        <ele>2070.8</ele>
        <time>2026-02-02T12:47:35Z</time>
      </trkpt>
      <trkpt lat="45.97488" lon="6.55715">
        <ele>2070.8</ele>
        <time>2026-02-02T12:47:36Z</time>
      </trkpt>
      <trkpt lat="45.97488" lon="6.55715">
        <ele>2070.8</ele>
        <time>2026-02-02T12:47:37Z</time>
      </trkpt>
      <trkpt lat="45.97488" lon="6.55715">
        <ele>2070.8</ele>
        <time>2026-02-02T12:47:38Z</time>
      </trkpt>
      <trkpt lat="45.97488" lon="6.55715">
        <ele>2070.8</ele>
        <time>2026-02-02T12:47:39Z</time>
      </trkpt>
      <trkpt lat="45.97489" lon="6.55715">
        <ele>2070.8</ele>
        <time>2026-02-02T12:47:40Z</time>
      </trkpt>
      <trkpt lat="45.97489" lon="6.55715">
        <ele>2070.8</ele>
        <time>2026-02-02T12:47:41Z</time>
      </trkpt>
      <trkpt lat="45.97489" lon="6.55715">
        <ele>2070.8</ele>
        <time>2026-02-02T12:47:42Z</time>
      </trkpt>
      <trkpt lat="45.97489" lon="6.55715">
        <ele>2070.8</ele>
        <time>2026-02-02T12:47:43Z</time>
      </trkpt>
      <trkpt lat="45.97489" lon="6.55715">
        <ele>2070.8</ele>
        <time>2026-02-02T12:47:45Z</time>
      </trkpt>
      <trkpt lat="45.97489" lon="6.55715">
        <ele>2070.8</ele>
        <time>2026-02-02T12:47:46Z</time>
      </trkpt>
      <trkpt lat="45.97489" lon="6.55715">
        <ele>2070.8</ele>
        <time>2026-02-02T12:47:47Z</time>
      </trkpt>
      <trkpt lat="45.97489" lon="6.55715">
        <ele>2070.8</ele>
        <time>2026-02-02T12:47:48Z</time>
      </trkpt>
      <trkpt lat="45.97489" lon="6.55715">
        <ele>2070.8</ele>
        <time>2026-02-02T12:47:49Z</time>
      </trkpt>
      <trkpt lat="45.97489" lon="6.55715">
        <ele>2070.8</ele>
        <time>2026-02-02T12:47:50Z</time>
      </trkpt>
      <trkpt lat="45.97488" lon="6.55715">
        <ele>2070.8</ele>
        <time>2026-02-02T12:47:51Z</time>
      </trkpt>
      <trkpt lat="45.97488" lon="6.55715">
        <ele>2070.8</ele>
        <time>2026-02-02T12:47:52Z</time>
      </trkpt>
      <trkpt lat="45.97488" lon="6.55716">
        <ele>2070.8</ele>
        <time>2026-02-02T12:47:53Z</time>
      </trkpt>
      <trkpt lat="45.97489" lon="6.55717">
        <ele>2071.9</ele>
        <time>2026-02-02T12:47:54Z</time>
      </trkpt>
      <trkpt lat="45.97489" lon="6.55718">
        <ele>2071.9</ele>
        <time>2026-02-02T12:47:55Z</time>
      </trkpt>
      <trkpt lat="45.97489" lon="6.55719">
        <ele>2071.9</ele>
        <time>2026-02-02T12:47:56Z</time>
      </trkpt>
      <trkpt lat="45.97489" lon="6.55721">
        <ele>2073</ele>
        <time>2026-02-02T12:47:57Z</time>
      </trkpt>
      <trkpt lat="45.97489" lon="6.55722">
        <ele>2073</ele>
        <time>2026-02-02T12:47:58Z</time>
      </trkpt>
      <trkpt lat="45.97489" lon="6.55722">
        <ele>2073</ele>
        <time>2026-02-02T12:47:59Z</time>
      </trkpt>
      <trkpt lat="45.97489" lon="6.55721">
        <ele>2073</ele>
        <time>2026-02-02T12:48:00Z</time>
      </trkpt>
      <trkpt lat="45.97489" lon="6.55721">
        <ele>2073</ele>
        <time>2026-02-02T12:48:01Z</time>
      </trkpt>
      <trkpt lat="45.97489" lon="6.5572">
        <ele>2071.9</ele>
        <time>2026-02-02T12:48:02Z</time>
      </trkpt>
      <trkpt lat="45.97489" lon="6.5572">
        <ele>2071.9</ele>
        <time>2026-02-02T12:48:03Z</time>
      </trkpt>
      <trkpt lat="45.97489" lon="6.55719">
        <ele>2071.9</ele>
        <time>2026-02-02T12:48:04Z</time>
      </trkpt>
      <trkpt lat="45.97489" lon="6.55719">
        <ele>2071.9</ele>
        <time>2026-02-02T12:48:05Z</time>
      </trkpt>
      <trkpt lat="45.97489" lon="6.55719">
        <ele>2071.9</ele>
        <time>2026-02-02T12:48:06Z</time>
      </trkpt>
      <trkpt lat="45.97489" lon="6.55718">
        <ele>2071.9</ele>
        <time>2026-02-02T12:48:07Z</time>
      </trkpt>
      <trkpt lat="45.97489" lon="6.55718">
        <ele>2071.9</ele>
        <time>2026-02-02T12:48:08Z</time>
      </trkpt>
      <trkpt lat="45.97489" lon="6.55717">
        <ele>2071.9</ele>
        <time>2026-02-02T12:48:09Z</time>
      </trkpt>
      <trkpt lat="45.97489" lon="6.55717">
        <ele>2071.9</ele>
        <time>2026-02-02T12:48:10Z</time>
      </trkpt>
      <trkpt lat="45.97489" lon="6.55716">
        <ele>2070.8</ele>
        <time>2026-02-02T12:48:11Z</time>
      </trkpt>
      <trkpt lat="45.97489" lon="6.55716">
        <ele>2070.8</ele>
        <time>2026-02-02T12:48:13Z</time>
      </trkpt>
      <trkpt lat="45.97489" lon="6.55715">
        <ele>2070.8</ele>
        <time>2026-02-02T12:48:14Z</time>
      </trkpt>
      <trkpt lat="45.97489" lon="6.55711">
        <ele>2069.7</ele>
        <time>2026-02-02T12:48:15Z</time>
      </trkpt>
      <trkpt lat="45.97489" lon="6.55709">
        <ele>2069.7</ele>
        <time>2026-02-02T12:48:16Z</time>
      </trkpt>
      <trkpt lat="45.97488" lon="6.55707">
        <ele>2068.5</ele>
        <time>2026-02-02T12:48:17Z</time>
      </trkpt>
      <trkpt lat="45.97488" lon="6.55706">
        <ele>2068.5</ele>
        <time>2026-02-02T12:48:18Z</time>
      </trkpt>
      <trkpt lat="45.97488" lon="6.55705">
        <ele>2068.5</ele>
        <time>2026-02-02T12:48:19Z</time>
      </trkpt>
      <trkpt lat="45.97488" lon="6.55706">
        <ele>2068.5</ele>
        <time>2026-02-02T12:48:20Z</time>
      </trkpt>
      <trkpt lat="45.97489" lon="6.55706">
        <ele>2068.5</ele>
        <time>2026-02-02T12:48:21Z</time>
      </trkpt>
      <trkpt lat="45.97489" lon="6.55706">
        <ele>2068.5</ele>
        <time>2026-02-02T12:48:22Z</time>
      </trkpt>
      <trkpt lat="45.97489" lon="6.55707">
        <ele>2068.5</ele>
        <time>2026-02-02T12:48:23Z</time>
      </trkpt>
      <trkpt lat="45.97489" lon="6.55707">
        <ele>2068.5</ele>
        <time>2026-02-02T12:48:24Z</time>
      </trkpt>
      <trkpt lat="45.97489" lon="6.55707">
        <ele>2068.5</ele>
        <time>2026-02-02T12:48:25Z</time>
      </trkpt>
      <trkpt lat="45.97489" lon="6.55707">
        <ele>2068.5</ele>
        <time>2026-02-02T12:48:26Z</time>
      </trkpt>
      <trkpt lat="45.97489" lon="6.55707">
        <ele>2068.5</ele>
        <time>2026-02-02T12:48:27Z</time>
      </trkpt>
      <trkpt lat="45.97489" lon="6.55707">
        <ele>2068.5</ele>
        <time>2026-02-02T12:48:28Z</time>
      </trkpt>
      <trkpt lat="45.97489" lon="6.55707">
        <ele>2068.5</ele>
        <time>2026-02-02T12:48:29Z</time>
      </trkpt>
      <trkpt lat="45.97489" lon="6.55707">
        <ele>2068.5</ele>
        <time>2026-02-02T12:48:30Z</time>
      </trkpt>
      <trkpt lat="45.97489" lon="6.55707">
        <ele>2068.5</ele>
        <time>2026-02-02T12:48:31Z</time>
      </trkpt>
      <trkpt lat="45.97489" lon="6.55707">
        <ele>2068.5</ele>
        <time>2026-02-02T12:48:32Z</time>
      </trkpt>
      <trkpt lat="45.97489" lon="6.55707">
        <ele>2068.5</ele>
        <time>2026-02-02T12:48:34Z</time>
      </trkpt>
      <trkpt lat="45.97489" lon="6.55707">
        <ele>2068.5</ele>
        <time>2026-02-02T12:48:35Z</time>
      </trkpt>
      <trkpt lat="45.97489" lon="6.55707">
        <ele>2068.5</ele>
        <time>2026-02-02T12:48:36Z</time>
      </trkpt>
      <trkpt lat="45.97489" lon="6.55707">
        <ele>2068.5</ele>
        <time>2026-02-02T12:48:37Z</time>
      </trkpt>
      <trkpt lat="45.9749" lon="6.55707">
        <ele>2068.5</ele>
        <time>2026-02-02T12:48:38Z</time>
      </trkpt>
      <trkpt lat="45.9749" lon="6.55707">
        <ele>2068.5</ele>
        <time>2026-02-02T12:48:39Z</time>
      </trkpt>
      <trkpt lat="45.9749" lon="6.55707">
        <ele>2068.5</ele>
        <time>2026-02-02T12:48:40Z</time>
      </trkpt>
      <trkpt lat="45.9749" lon="6.55707">
        <ele>2067.4</ele>
        <time>2026-02-02T12:48:41Z</time>
      </trkpt>
      <trkpt lat="45.9749" lon="6.55707">
        <ele>2067.4</ele>
        <time>2026-02-02T12:48:42Z</time>
      </trkpt>
      <trkpt lat="45.9749" lon="6.55706">
        <ele>2067.4</ele>
        <time>2026-02-02T12:48:43Z</time>
      </trkpt>
      <trkpt lat="45.97491" lon="6.55706">
        <ele>2067.4</ele>
        <time>2026-02-02T12:48:44Z</time>
      </trkpt>
      <trkpt lat="45.9749" lon="6.55706">
        <ele>2067.4</ele>
        <time>2026-02-02T12:48:45Z</time>
      </trkpt>
      <trkpt lat="45.9749" lon="6.55706">
        <ele>2067.4</ele>
        <time>2026-02-02T12:48:46Z</time>
      </trkpt>
      <trkpt lat="45.9749" lon="6.55706">
        <ele>2067.4</ele>
        <time>2026-02-02T12:48:47Z</time>
      </trkpt>
      <trkpt lat="45.9749" lon="6.55706">
        <ele>2067.4</ele>
        <time>2026-02-02T12:48:48Z</time>
      </trkpt>
      <trkpt lat="45.9749" lon="6.55706">
        <ele>2067.4</ele>
        <time>2026-02-02T12:48:49Z</time>
      </trkpt>
      <trkpt lat="45.9749" lon="6.55706">
        <ele>2067.4</ele>
        <time>2026-02-02T12:48:50Z</time>
      </trkpt>
      <trkpt lat="45.9749" lon="6.55706">
        <ele>2067.4</ele>
        <time>2026-02-02T12:48:51Z</time>
      </trkpt>
      <trkpt lat="45.9749" lon="6.55706">
        <ele>2067.4</ele>
        <time>2026-02-02T12:48:52Z</time>
      </trkpt>
      <trkpt lat="45.9749" lon="6.55706">
        <ele>2067.4</ele>
        <time>2026-02-02T12:48:53Z</time>
      </trkpt>
      <trkpt lat="45.9749" lon="6.55706">
        <ele>2067.4</ele>
        <time>2026-02-02T12:48:54Z</time>
      </trkpt>
      <trkpt lat="45.9749" lon="6.55706">
        <ele>2067.4</ele>
        <time>2026-02-02T12:48:55Z</time>
      </trkpt>
      <trkpt lat="45.9749" lon="6.55706">
        <ele>2067.4</ele>
        <time>2026-02-02T12:48:56Z</time>
      </trkpt>
      <trkpt lat="45.9749" lon="6.55706">
        <ele>2067.4</ele>
        <time>2026-02-02T12:48:57Z</time>
      </trkpt>
      <trkpt lat="45.9749" lon="6.55706">
        <ele>2067.4</ele>
        <time>2026-02-02T12:48:58Z</time>
      </trkpt>
      <trkpt lat="45.97491" lon="6.55706">
        <ele>2067.4</ele>
        <time>2026-02-02T12:48:59Z</time>
      </trkpt>
      <trkpt lat="45.97491" lon="6.55706">
        <ele>2067.4</ele>
        <time>2026-02-02T12:49:00Z</time>
      </trkpt>
      <trkpt lat="45.97491" lon="6.55706">
        <ele>2067.4</ele>
        <time>2026-02-02T12:49:01Z</time>
      </trkpt>
      <trkpt lat="45.97491" lon="6.55706">
        <ele>2067.4</ele>
        <time>2026-02-02T12:49:02Z</time>
      </trkpt>
      <trkpt lat="45.97491" lon="6.55706">
        <ele>2067.4</ele>
        <time>2026-02-02T12:49:03Z</time>
      </trkpt>
      <trkpt lat="45.97491" lon="6.55706">
        <ele>2067.4</ele>
        <time>2026-02-02T12:49:04Z</time>
      </trkpt>
      <trkpt lat="45.97491" lon="6.55706">
        <ele>2067.4</ele>
        <time>2026-02-02T12:49:05Z</time>
      </trkpt>
      <trkpt lat="45.97491" lon="6.55706">
        <ele>2067.4</ele>
        <time>2026-02-02T12:49:06Z</time>
      </trkpt>
      <trkpt lat="45.97491" lon="6.55706">
        <ele>2067.4</ele>
        <time>2026-02-02T12:49:07Z</time>
      </trkpt>
      <trkpt lat="45.97491" lon="6.55706">
        <ele>2067.4</ele>
        <time>2026-02-02T12:49:08Z</time>
      </trkpt>
      <trkpt lat="45.97491" lon="6.55706">
        <ele>2067.4</ele>
        <time>2026-02-02T12:49:09Z</time>
      </trkpt>
      <trkpt lat="45.97491" lon="6.55706">
        <ele>2067.4</ele>
        <time>2026-02-02T12:49:10Z</time>
      </trkpt>
      <trkpt lat="45.97491" lon="6.55706">
        <ele>2067.4</ele>
        <time>2026-02-02T12:49:11Z</time>
      </trkpt>
      <trkpt lat="45.97491" lon="6.55706">
        <ele>2067.4</ele>
        <time>2026-02-02T12:49:12Z</time>
      </trkpt>
      <trkpt lat="45.97491" lon="6.55706">
        <ele>2067.4</ele>
        <time>2026-02-02T12:49:13Z</time>
      </trkpt>
      <trkpt lat="45.97491" lon="6.55706">
        <ele>2067.4</ele>
        <time>2026-02-02T12:49:14Z</time>
      </trkpt>
      <trkpt lat="45.97491" lon="6.55706">
        <ele>2067.4</ele>
        <time>2026-02-02T12:49:15Z</time>
      </trkpt>
      <trkpt lat="45.97491" lon="6.55706">
        <ele>2067.4</ele>
        <time>2026-02-02T12:49:16Z</time>
      </trkpt>
      <trkpt lat="45.97491" lon="6.55706">
        <ele>2067.4</ele>
        <time>2026-02-02T12:49:17Z</time>
      </trkpt>
      <trkpt lat="45.97491" lon="6.55706">
        <ele>2067.4</ele>
        <time>2026-02-02T12:49:18Z</time>
      </trkpt>
      <trkpt lat="45.97491" lon="6.55706">
        <ele>2067.4</ele>
        <time>2026-02-02T12:49:19Z</time>
      </trkpt>
      <trkpt lat="45.97491" lon="6.55706">
        <ele>2067.4</ele>
        <time>2026-02-02T12:49:20Z</time>
      </trkpt>
      <trkpt lat="45.97491" lon="6.55706">
        <ele>2067.4</ele>
        <time>2026-02-02T12:49:21Z</time>
      </trkpt>
      <trkpt lat="45.97491" lon="6.55706">
        <ele>2067.4</ele>
        <time>2026-02-02T12:49:22Z</time>
      </trkpt>
      <trkpt lat="45.97491" lon="6.55706">
        <ele>2067.4</ele>
        <time>2026-02-02T12:49:23Z</time>
      </trkpt>
      <trkpt lat="45.97491" lon="6.55706">
        <ele>2067.4</ele>
        <time>2026-02-02T12:49:24Z</time>
      </trkpt>
      <trkpt lat="45.97491" lon="6.55706">
        <ele>2067.4</ele>
        <time>2026-02-02T12:49:25Z</time>
      </trkpt>
      <trkpt lat="45.97491" lon="6.55706">
        <ele>2067.4</ele>
        <time>2026-02-02T12:49:26Z</time>
      </trkpt>
      <trkpt lat="45.97491" lon="6.55706">
        <ele>2067.4</ele>
        <time>2026-02-02T12:49:27Z</time>
      </trkpt>
      <trkpt lat="45.97491" lon="6.55706">
        <ele>2067.4</ele>
        <time>2026-02-02T12:49:28Z</time>
      </trkpt>
      <trkpt lat="45.97491" lon="6.55706">
        <ele>2067.4</ele>
        <time>2026-02-02T12:49:29Z</time>
      </trkpt>
      <trkpt lat="45.97491" lon="6.55706">
        <ele>2067.4</ele>
        <time>2026-02-02T12:49:30Z</time>
      </trkpt>
      <trkpt lat="45.97491" lon="6.55706">
        <ele>2067.4</ele>
        <time>2026-02-02T12:49:31Z</time>
      </trkpt>
      <trkpt lat="45.97491" lon="6.55706">
        <ele>2067.4</ele>
        <time>2026-02-02T12:49:32Z</time>
      </trkpt>
      <trkpt lat="45.97491" lon="6.55706">
        <ele>2067.4</ele>
        <time>2026-02-02T12:49:33Z</time>
      </trkpt>
      <trkpt lat="45.97491" lon="6.55706">
        <ele>2067.4</ele>
        <time>2026-02-02T12:49:34Z</time>
      </trkpt>
      <trkpt lat="45.97491" lon="6.55706">
        <ele>2067.4</ele>
        <time>2026-02-02T12:49:35Z</time>
      </trkpt>
      <trkpt lat="45.97491" lon="6.55706">
        <ele>2067.4</ele>
        <time>2026-02-02T12:49:36Z</time>
      </trkpt>
      <trkpt lat="45.97491" lon="6.55706">
        <ele>2067.4</ele>
        <time>2026-02-02T12:49:37Z</time>
      </trkpt>
      <trkpt lat="45.97491" lon="6.55706">
        <ele>2067.4</ele>
        <time>2026-02-02T12:49:38Z</time>
      </trkpt>
      <trkpt lat="45.97491" lon="6.55706">
        <ele>2067.4</ele>
        <time>2026-02-02T12:49:39Z</time>
      </trkpt>
      <trkpt lat="45.97491" lon="6.55706">
        <ele>2067.4</ele>
        <time>2026-02-02T12:49:40Z</time>
      </trkpt>
      <trkpt lat="45.97491" lon="6.55706">
        <ele>2067.4</ele>
        <time>2026-02-02T12:49:41Z</time>
      </trkpt>
      <trkpt lat="45.97491" lon="6.55706">
        <ele>2067.4</ele>
        <time>2026-02-02T12:49:42Z</time>
      </trkpt>
      <trkpt lat="45.97491" lon="6.55706">
        <ele>2067.4</ele>
        <time>2026-02-02T12:49:43Z</time>
      </trkpt>
      <trkpt lat="45.97491" lon="6.55706">
        <ele>2067.4</ele>
        <time>2026-02-02T12:49:44Z</time>
      </trkpt>
      <trkpt lat="45.97491" lon="6.55706">
        <ele>2067.4</ele>
        <time>2026-02-02T12:49:45Z</time>
      </trkpt>
      <trkpt lat="45.97491" lon="6.55706">
        <ele>2067.4</ele>
        <time>2026-02-02T12:49:46Z</time>
      </trkpt>
      <trkpt lat="45.97491" lon="6.55706">
        <ele>2067.4</ele>
        <time>2026-02-02T12:49:47Z</time>
      </trkpt>
      <trkpt lat="45.97491" lon="6.55706">
        <ele>2067.4</ele>
        <time>2026-02-02T12:49:48Z</time>
      </trkpt>
      <trkpt lat="45.97491" lon="6.55706">
        <ele>2067.4</ele>
        <time>2026-02-02T12:49:49Z</time>
      </trkpt>
      <trkpt lat="45.97491" lon="6.55706">
        <ele>2067.4</ele>
        <time>2026-02-02T12:49:50Z</time>
      </trkpt>
      <trkpt lat="45.97491" lon="6.55706">
        <ele>2067.4</ele>
        <time>2026-02-02T12:49:51Z</time>
      </trkpt>
      <trkpt lat="45.97491" lon="6.55706">
        <ele>2067.4</ele>
        <time>2026-02-02T12:49:52Z</time>
      </trkpt>
      <trkpt lat="45.97491" lon="6.55706">
        <ele>2067.4</ele>
        <time>2026-02-02T12:49:53Z</time>
      </trkpt>
      <trkpt lat="45.97491" lon="6.55706">
        <ele>2067.4</ele>
        <time>2026-02-02T12:49:54Z</time>
      </trkpt>
      <trkpt lat="45.97491" lon="6.55706">
        <ele>2067.4</ele>
        <time>2026-02-02T12:49:55Z</time>
      </trkpt>
      <trkpt lat="45.97491" lon="6.55706">
        <ele>2067.4</ele>
        <time>2026-02-02T12:49:56Z</time>
      </trkpt>
      <trkpt lat="45.97491" lon="6.55706">
        <ele>2067.4</ele>
        <time>2026-02-02T12:49:57Z</time>
      </trkpt>
      <trkpt lat="45.97491" lon="6.55706">
        <ele>2067.4</ele>
        <time>2026-02-02T12:49:58Z</time>
      </trkpt>
      <trkpt lat="45.97491" lon="6.55706">
        <ele>2067.4</ele>
        <time>2026-02-02T12:49:59Z</time>
      </trkpt>
      <trkpt lat="45.97491" lon="6.55706">
        <ele>2067.4</ele>
        <time>2026-02-02T12:50:00Z</time>
      </trkpt>
      <trkpt lat="45.97491" lon="6.55706">
        <ele>2067.4</ele>
        <time>2026-02-02T12:50:01Z</time>
      </trkpt>
      <trkpt lat="45.97491" lon="6.55706">
        <ele>2067.4</ele>
        <time>2026-02-02T12:50:02Z</time>
      </trkpt>
      <trkpt lat="45.97491" lon="6.55706">
        <ele>2067.4</ele>
        <time>2026-02-02T12:50:03Z</time>
      </trkpt>
      <trkpt lat="45.97491" lon="6.55706">
        <ele>2067.4</ele>
        <time>2026-02-02T12:50:04Z</time>
      </trkpt>
      <trkpt lat="45.97491" lon="6.55706">
        <ele>2067.4</ele>
        <time>2026-02-02T12:50:05Z</time>
      </trkpt>
      <trkpt lat="45.9749" lon="6.55706">
        <ele>2067.4</ele>
        <time>2026-02-02T12:50:06Z</time>
      </trkpt>
      <trkpt lat="45.9749" lon="6.55706">
        <ele>2067.4</ele>
        <time>2026-02-02T12:50:07Z</time>
      </trkpt>
      <trkpt lat="45.9749" lon="6.55706">
        <ele>2067.4</ele>
        <time>2026-02-02T12:50:08Z</time>
      </trkpt>
      <trkpt lat="45.9749" lon="6.55706">
        <ele>2067.4</ele>
        <time>2026-02-02T12:50:09Z</time>
      </trkpt>
      <trkpt lat="45.9749" lon="6.55706">
        <ele>2067.4</ele>
        <time>2026-02-02T12:50:10Z</time>
      </trkpt>
      <trkpt lat="45.9749" lon="6.55706">
        <ele>2067.4</ele>
        <time>2026-02-02T12:50:11Z</time>
      </trkpt>
      <trkpt lat="45.9749" lon="6.55706">
        <ele>2067.4</ele>
        <time>2026-02-02T12:50:12Z</time>
      </trkpt>
      <trkpt lat="45.9749" lon="6.55706">
        <ele>2067.4</ele>
        <time>2026-02-02T12:50:13Z</time>
      </trkpt>
      <trkpt lat="45.9749" lon="6.55706">
        <ele>2067.4</ele>
        <time>2026-02-02T12:50:14Z</time>
      </trkpt>
      <trkpt lat="45.9749" lon="6.55706">
        <ele>2067.4</ele>
        <time>2026-02-02T12:50:15Z</time>
      </trkpt>
      <trkpt lat="45.9749" lon="6.55706">
        <ele>2067.4</ele>
        <time>2026-02-02T12:50:16Z</time>
      </trkpt>
      <trkpt lat="45.9749" lon="6.55706">
        <ele>2068.5</ele>
        <time>2026-02-02T12:50:17Z</time>
      </trkpt>
      <trkpt lat="45.9749" lon="6.55706">
        <ele>2068.5</ele>
        <time>2026-02-02T12:50:18Z</time>
      </trkpt>
      <trkpt lat="45.9749" lon="6.55706">
        <ele>2068.5</ele>
        <time>2026-02-02T12:50:19Z</time>
      </trkpt>
      <trkpt lat="45.9749" lon="6.55706">
        <ele>2068.5</ele>
        <time>2026-02-02T12:50:20Z</time>
      </trkpt>
      <trkpt lat="45.9749" lon="6.55706">
        <ele>2068.5</ele>
        <time>2026-02-02T12:50:21Z</time>
      </trkpt>
      <trkpt lat="45.9749" lon="6.55706">
        <ele>2068.5</ele>
        <time>2026-02-02T12:50:22Z</time>
      </trkpt>
      <trkpt lat="45.97489" lon="6.55705">
        <ele>2068.5</ele>
        <time>2026-02-02T12:50:23Z</time>
      </trkpt>
      <trkpt lat="45.97489" lon="6.55705">
        <ele>2068.5</ele>
        <time>2026-02-02T12:50:24Z</time>
      </trkpt>
      <trkpt lat="45.97489" lon="6.55705">
        <ele>2068.5</ele>
        <time>2026-02-02T12:50:25Z</time>
      </trkpt>
      <trkpt lat="45.97489" lon="6.55705">
        <ele>2068.5</ele>
        <time>2026-02-02T12:50:26Z</time>
      </trkpt>
      <trkpt lat="45.97489" lon="6.55705">
        <ele>2068.5</ele>
        <time>2026-02-02T12:50:27Z</time>
      </trkpt>
      <trkpt lat="45.97489" lon="6.55705">
        <ele>2068.5</ele>
        <time>2026-02-02T12:50:28Z</time>
      </trkpt>
      <trkpt lat="45.97489" lon="6.55705">
        <ele>2068.5</ele>
        <time>2026-02-02T12:50:29Z</time>
      </trkpt>
      <trkpt lat="45.97489" lon="6.55705">
        <ele>2068.5</ele>
        <time>2026-02-02T12:50:30Z</time>
      </trkpt>
      <trkpt lat="45.97489" lon="6.55705">
        <ele>2068.5</ele>
        <time>2026-02-02T12:50:31Z</time>
      </trkpt>
      <trkpt lat="45.9749" lon="6.55705">
        <ele>2068.5</ele>
        <time>2026-02-02T12:50:32Z</time>
      </trkpt>
      <trkpt lat="45.97489" lon="6.55705">
        <ele>2068.5</ele>
        <time>2026-02-02T12:50:33Z</time>
      </trkpt>
      <trkpt lat="45.97489" lon="6.55705">
        <ele>2068.5</ele>
        <time>2026-02-02T12:50:34Z</time>
      </trkpt>
      <trkpt lat="45.97489" lon="6.55705">
        <ele>2068.5</ele>
        <time>2026-02-02T12:50:35Z</time>
      </trkpt>
      <trkpt lat="45.97489" lon="6.55705">
        <ele>2068.5</ele>
        <time>2026-02-02T12:50:36Z</time>
      </trkpt>
      <trkpt lat="45.97489" lon="6.55705">
        <ele>2068.5</ele>
        <time>2026-02-02T12:50:37Z</time>
      </trkpt>
      <trkpt lat="45.97489" lon="6.55705">
        <ele>2068.5</ele>
        <time>2026-02-02T12:50:38Z</time>
      </trkpt>
      <trkpt lat="45.97489" lon="6.55705">
        <ele>2068.5</ele>
        <time>2026-02-02T12:50:39Z</time>
      </trkpt>
      <trkpt lat="45.97489" lon="6.55705">
        <ele>2068.5</ele>
        <time>2026-02-02T12:50:40Z</time>
      </trkpt>
      <trkpt lat="45.9749" lon="6.55705">
        <ele>2068.5</ele>
        <time>2026-02-02T12:50:41Z</time>
      </trkpt>
      <trkpt lat="45.9749" lon="6.55705">
        <ele>2068.5</ele>
        <time>2026-02-02T12:50:42Z</time>
      </trkpt>
      <trkpt lat="45.97489" lon="6.55705">
        <ele>2068.5</ele>
        <time>2026-02-02T12:50:43Z</time>
      </trkpt>
      <trkpt lat="45.97489" lon="6.55705">
        <ele>2068.5</ele>
        <time>2026-02-02T12:50:44Z</time>
      </trkpt>
      <trkpt lat="45.97489" lon="6.55705">
        <ele>2068.5</ele>
        <time>2026-02-02T12:50:45Z</time>
      </trkpt>
      <trkpt lat="45.97489" lon="6.55705">
        <ele>2068.5</ele>
        <time>2026-02-02T12:50:46Z</time>
      </trkpt>
      <trkpt lat="45.97489" lon="6.55705">
        <ele>2068.5</ele>
        <time>2026-02-02T12:50:47Z</time>
      </trkpt>
      <trkpt lat="45.97489" lon="6.55705">
        <ele>2068.5</ele>
        <time>2026-02-02T12:50:48Z</time>
      </trkpt>
      <trkpt lat="45.97489" lon="6.55705">
        <ele>2068.5</ele>
        <time>2026-02-02T12:50:49Z</time>
      </trkpt>
      <trkpt lat="45.97489" lon="6.55705">
        <ele>2068.5</ele>
        <time>2026-02-02T12:50:50Z</time>
      </trkpt>
      <trkpt lat="45.97489" lon="6.55705">
        <ele>2068.5</ele>
        <time>2026-02-02T12:50:51Z</time>
      </trkpt>
      <trkpt lat="45.97489" lon="6.55705">
        <ele>2068.5</ele>
        <time>2026-02-02T12:50:52Z</time>
      </trkpt>
      <trkpt lat="45.97489" lon="6.55705">
        <ele>2068.5</ele>
        <time>2026-02-02T12:50:53Z</time>
      </trkpt>
      <trkpt lat="45.9749" lon="6.55706">
        <ele>2068.5</ele>
        <time>2026-02-02T12:50:54Z</time>
      </trkpt>
      <trkpt lat="45.97489" lon="6.55706">
        <ele>2068.5</ele>
        <time>2026-02-02T12:50:55Z</time>
      </trkpt>
      <trkpt lat="45.97489" lon="6.55706">
        <ele>2068.5</ele>
        <time>2026-02-02T12:50:56Z</time>
      </trkpt>
      <trkpt lat="45.97489" lon="6.55706">
        <ele>2068.5</ele>
        <time>2026-02-02T12:50:57Z</time>
      </trkpt>
      <trkpt lat="45.97489" lon="6.55706">
        <ele>2068.5</ele>
        <time>2026-02-02T12:50:58Z</time>
      </trkpt>
      <trkpt lat="45.9749" lon="6.55706">
        <ele>2067.4</ele>
        <time>2026-02-02T12:50:59Z</time>
      </trkpt>
      <trkpt lat="45.9749" lon="6.55706">
        <ele>2067.4</ele>
        <time>2026-02-02T12:51:00Z</time>
      </trkpt>
      <trkpt lat="45.9749" lon="6.55706">
        <ele>2067.4</ele>
        <time>2026-02-02T12:51:01Z</time>
      </trkpt>
      <trkpt lat="45.9749" lon="6.55706">
        <ele>2067.4</ele>
        <time>2026-02-02T12:51:02Z</time>
      </trkpt>
      <trkpt lat="45.9749" lon="6.55706">
        <ele>2067.4</ele>
        <time>2026-02-02T12:51:03Z</time>
      </trkpt>
      <trkpt lat="45.9749" lon="6.55706">
        <ele>2067.4</ele>
        <time>2026-02-02T12:51:04Z</time>
      </trkpt>
      <trkpt lat="45.9749" lon="6.55706">
        <ele>2067.4</ele>
        <time>2026-02-02T12:51:05Z</time>
      </trkpt>
      <trkpt lat="45.9749" lon="6.55706">
        <ele>2067.4</ele>
        <time>2026-02-02T12:51:06Z</time>
      </trkpt>
      <trkpt lat="45.9749" lon="6.55707">
        <ele>2067.4</ele>
        <time>2026-02-02T12:51:07Z</time>
      </trkpt>
      <trkpt lat="45.9749" lon="6.55707">
        <ele>2067.4</ele>
        <time>2026-02-02T12:51:08Z</time>
      </trkpt>
      <trkpt lat="45.9749" lon="6.55707">
        <ele>2067.4</ele>
        <time>2026-02-02T12:51:09Z</time>
      </trkpt>
      <trkpt lat="45.9749" lon="6.55707">
        <ele>2067.4</ele>
        <time>2026-02-02T12:51:10Z</time>
      </trkpt>
      <trkpt lat="45.9749" lon="6.55707">
        <ele>2067.4</ele>
        <time>2026-02-02T12:51:11Z</time>
      </trkpt>
      <trkpt lat="45.9749" lon="6.55707">
        <ele>2067.4</ele>
        <time>2026-02-02T12:51:12Z</time>
      </trkpt>
      <trkpt lat="45.9749" lon="6.55707">
        <ele>2067.4</ele>
        <time>2026-02-02T12:51:13Z</time>
      </trkpt>
      <trkpt lat="45.9749" lon="6.55707">
        <ele>2067.4</ele>
        <time>2026-02-02T12:51:14Z</time>
      </trkpt>
      <trkpt lat="45.9749" lon="6.55707">
        <ele>2067.4</ele>
        <time>2026-02-02T12:51:15Z</time>
      </trkpt>
      <trkpt lat="45.9749" lon="6.55707">
        <ele>2067.4</ele>
        <time>2026-02-02T12:51:16Z</time>
      </trkpt>
      <trkpt lat="45.9749" lon="6.55707">
        <ele>2067.4</ele>
        <time>2026-02-02T12:51:17Z</time>
      </trkpt>
      <trkpt lat="45.9749" lon="6.55707">
        <ele>2067.4</ele>
        <time>2026-02-02T12:51:18Z</time>
      </trkpt>
      <trkpt lat="45.9749" lon="6.55707">
        <ele>2067.4</ele>
        <time>2026-02-02T12:51:19Z</time>
      </trkpt>
      <trkpt lat="45.9749" lon="6.55707">
        <ele>2067.4</ele>
        <time>2026-02-02T12:51:20Z</time>
      </trkpt>
      <trkpt lat="45.9749" lon="6.55707">
        <ele>2067.4</ele>
        <time>2026-02-02T12:51:21Z</time>
      </trkpt>
      <trkpt lat="45.97491" lon="6.55707">
        <ele>2067.4</ele>
        <time>2026-02-02T12:51:22Z</time>
      </trkpt>
      <trkpt lat="45.97491" lon="6.55707">
        <ele>2067.4</ele>
        <time>2026-02-02T12:51:23Z</time>
      </trkpt>
      <trkpt lat="45.97491" lon="6.55707">
        <ele>2067.4</ele>
        <time>2026-02-02T12:51:24Z</time>
      </trkpt>
      <trkpt lat="45.97491" lon="6.55707">
        <ele>2067.4</ele>
        <time>2026-02-02T12:51:25Z</time>
      </trkpt>
      <trkpt lat="45.97491" lon="6.55706">
        <ele>2067.4</ele>
        <time>2026-02-02T12:51:26Z</time>
      </trkpt>
      <trkpt lat="45.97491" lon="6.55706">
        <ele>2067.4</ele>
        <time>2026-02-02T12:51:27Z</time>
      </trkpt>
      <trkpt lat="45.97491" lon="6.55706">
        <ele>2067.4</ele>
        <time>2026-02-02T12:51:28Z</time>
      </trkpt>
      <trkpt lat="45.97491" lon="6.55706">
        <ele>2067.4</ele>
        <time>2026-02-02T12:51:29Z</time>
      </trkpt>
      <trkpt lat="45.97491" lon="6.55706">
        <ele>2067.4</ele>
        <time>2026-02-02T12:51:30Z</time>
      </trkpt>
      <trkpt lat="45.97491" lon="6.55706">
        <ele>2067.4</ele>
        <time>2026-02-02T12:51:31Z</time>
      </trkpt>
      <trkpt lat="45.97491" lon="6.55706">
        <ele>2067.4</ele>
        <time>2026-02-02T12:51:32Z</time>
      </trkpt>
      <trkpt lat="45.97491" lon="6.55706">
        <ele>2067.4</ele>
        <time>2026-02-02T12:51:33Z</time>
      </trkpt>
      <trkpt lat="45.97491" lon="6.55706">
        <ele>2067.4</ele>
        <time>2026-02-02T12:51:34Z</time>
      </trkpt>
      <trkpt lat="45.97491" lon="6.55706">
        <ele>2067.4</ele>
        <time>2026-02-02T12:51:35Z</time>
      </trkpt>
      <trkpt lat="45.97492" lon="6.55706">
        <ele>2067.4</ele>
        <time>2026-02-02T12:51:36Z</time>
      </trkpt>
      <trkpt lat="45.97492" lon="6.55706">
        <ele>2067.4</ele>
        <time>2026-02-02T12:51:37Z</time>
      </trkpt>
      <trkpt lat="45.97492" lon="6.55706">
        <ele>2067.4</ele>
        <time>2026-02-02T12:51:38Z</time>
      </trkpt>
      <trkpt lat="45.97492" lon="6.55706">
        <ele>2067.4</ele>
        <time>2026-02-02T12:51:39Z</time>
      </trkpt>
      <trkpt lat="45.97492" lon="6.55706">
        <ele>2067.4</ele>
        <time>2026-02-02T12:51:40Z</time>
      </trkpt>
      <trkpt lat="45.97492" lon="6.55706">
        <ele>2067.4</ele>
        <time>2026-02-02T12:51:41Z</time>
      </trkpt>
      <trkpt lat="45.97492" lon="6.55706">
        <ele>2067.4</ele>
        <time>2026-02-02T12:51:42Z</time>
      </trkpt>
      <trkpt lat="45.97492" lon="6.55706">
        <ele>2067.4</ele>
        <time>2026-02-02T12:51:43Z</time>
      </trkpt>
      <trkpt lat="45.97492" lon="6.55706">
        <ele>2067.4</ele>
        <time>2026-02-02T12:51:44Z</time>
      </trkpt>
      <trkpt lat="45.97492" lon="6.55706">
        <ele>2067.4</ele>
        <time>2026-02-02T12:51:45Z</time>
      </trkpt>
      <trkpt lat="45.97492" lon="6.55706">
        <ele>2067.4</ele>
        <time>2026-02-02T12:51:46Z</time>
      </trkpt>
      <trkpt lat="45.97492" lon="6.55706">
        <ele>2067.4</ele>
        <time>2026-02-02T12:51:47Z</time>
      </trkpt>
      <trkpt lat="45.97492" lon="6.55706">
        <ele>2067.4</ele>
        <time>2026-02-02T12:51:48Z</time>
      </trkpt>
      <trkpt lat="45.97492" lon="6.55706">
        <ele>2067.4</ele>
        <time>2026-02-02T12:51:49Z</time>
      </trkpt>
      <trkpt lat="45.97492" lon="6.55706">
        <ele>2067.4</ele>
        <time>2026-02-02T12:51:50Z</time>
      </trkpt>
      <trkpt lat="45.97492" lon="6.55706">
        <ele>2067.4</ele>
        <time>2026-02-02T12:51:51Z</time>
      </trkpt>
      <trkpt lat="45.97492" lon="6.55706">
        <ele>2067.4</ele>
        <time>2026-02-02T12:51:52Z</time>
      </trkpt>
      <trkpt lat="45.97492" lon="6.55706">
        <ele>2067.4</ele>
        <time>2026-02-02T12:51:53Z</time>
      </trkpt>
      <trkpt lat="45.97492" lon="6.55706">
        <ele>2067.4</ele>
        <time>2026-02-02T12:51:54Z</time>
      </trkpt>
      <trkpt lat="45.97492" lon="6.55706">
        <ele>2067.4</ele>
        <time>2026-02-02T12:51:55Z</time>
      </trkpt>
      <trkpt lat="45.97492" lon="6.55706">
        <ele>2067.4</ele>
        <time>2026-02-02T12:51:56Z</time>
      </trkpt>
      <trkpt lat="45.97492" lon="6.55706">
        <ele>2067.4</ele>
        <time>2026-02-02T12:51:57Z</time>
      </trkpt>
      <trkpt lat="45.97492" lon="6.55706">
        <ele>2067.4</ele>
        <time>2026-02-02T12:51:58Z</time>
      </trkpt>
      <trkpt lat="45.97492" lon="6.55706">
        <ele>2067.4</ele>
        <time>2026-02-02T12:51:59Z</time>
      </trkpt>
      <trkpt lat="45.97492" lon="6.55706">
        <ele>2067.4</ele>
        <time>2026-02-02T12:52:00Z</time>
      </trkpt>
      <trkpt lat="45.97492" lon="6.55706">
        <ele>2067.4</ele>
        <time>2026-02-02T12:52:01Z</time>
      </trkpt>
      <trkpt lat="45.97491" lon="6.55706">
        <ele>2067.4</ele>
        <time>2026-02-02T12:52:02Z</time>
      </trkpt>
      <trkpt lat="45.97491" lon="6.55706">
        <ele>2067.4</ele>
        <time>2026-02-02T12:52:03Z</time>
      </trkpt>
      <trkpt lat="45.97491" lon="6.55706">
        <ele>2067.4</ele>
        <time>2026-02-02T12:52:04Z</time>
      </trkpt>
      <trkpt lat="45.97491" lon="6.55706">
        <ele>2067.4</ele>
        <time>2026-02-02T12:52:05Z</time>
      </trkpt>
      <trkpt lat="45.97491" lon="6.55706">
        <ele>2067.4</ele>
        <time>2026-02-02T12:52:06Z</time>
      </trkpt>
      <trkpt lat="45.97491" lon="6.55706">
        <ele>2067.4</ele>
        <time>2026-02-02T12:52:07Z</time>
      </trkpt>
      <trkpt lat="45.97491" lon="6.55706">
        <ele>2067.4</ele>
        <time>2026-02-02T12:52:08Z</time>
      </trkpt>
      <trkpt lat="45.97491" lon="6.55706">
        <ele>2067.4</ele>
        <time>2026-02-02T12:52:09Z</time>
      </trkpt>
      <trkpt lat="45.97491" lon="6.55707">
        <ele>2067.4</ele>
        <time>2026-02-02T12:52:10Z</time>
      </trkpt>
      <trkpt lat="45.97491" lon="6.55707">
        <ele>2067.4</ele>
        <time>2026-02-02T12:52:11Z</time>
      </trkpt>
      <trkpt lat="45.97491" lon="6.55706">
        <ele>2067.4</ele>
        <time>2026-02-02T12:52:12Z</time>
      </trkpt>
      <trkpt lat="45.97491" lon="6.55706">
        <ele>2067.4</ele>
        <time>2026-02-02T12:52:13Z</time>
      </trkpt>
      <trkpt lat="45.97491" lon="6.55706">
        <ele>2067.4</ele>
        <time>2026-02-02T12:52:14Z</time>
      </trkpt>
      <trkpt lat="45.97491" lon="6.55706">
        <ele>2067.4</ele>
        <time>2026-02-02T12:52:15Z</time>
      </trkpt>
      <trkpt lat="45.97491" lon="6.55706">
        <ele>2067.4</ele>
        <time>2026-02-02T12:52:16Z</time>
      </trkpt>
      <trkpt lat="45.97491" lon="6.55707">
        <ele>2067.4</ele>
        <time>2026-02-02T12:52:17Z</time>
      </trkpt>
      <trkpt lat="45.97491" lon="6.55707">
        <ele>2067.4</ele>
        <time>2026-02-02T12:52:18Z</time>
      </trkpt>
      <trkpt lat="45.97491" lon="6.55708">
        <ele>2067.4</ele>
        <time>2026-02-02T12:52:19Z</time>
      </trkpt>
      <trkpt lat="45.97492" lon="6.55709">
        <ele>2068.6</ele>
        <time>2026-02-02T12:52:20Z</time>
      </trkpt>
      <trkpt lat="45.97492" lon="6.5571">
        <ele>2068.6</ele>
        <time>2026-02-02T12:52:21Z</time>
      </trkpt>
      <trkpt lat="45.97493" lon="6.55711">
        <ele>2068.6</ele>
        <time>2026-02-02T12:52:22Z</time>
      </trkpt>
      <trkpt lat="45.97493" lon="6.55712">
        <ele>2067.4</ele>
        <time>2026-02-02T12:52:23Z</time>
      </trkpt>
      <trkpt lat="45.97493" lon="6.55713">
        <ele>2068.5</ele>
        <time>2026-02-02T12:52:24Z</time>
      </trkpt>
      <trkpt lat="45.97493" lon="6.55714">
        <ele>2068.5</ele>
        <time>2026-02-02T12:52:25Z</time>
      </trkpt>
      <trkpt lat="45.97493" lon="6.55715">
        <ele>2068.5</ele>
        <time>2026-02-02T12:52:26Z</time>
      </trkpt>
      <trkpt lat="45.97493" lon="6.55716">
        <ele>2068.5</ele>
        <time>2026-02-02T12:52:27Z</time>
      </trkpt>
      <trkpt lat="45.97493" lon="6.55717">
        <ele>2069.5</ele>
        <time>2026-02-02T12:52:28Z</time>
      </trkpt>
      <trkpt lat="45.97493" lon="6.55718">
        <ele>2069.5</ele>
        <time>2026-02-02T12:52:29Z</time>
      </trkpt>
      <trkpt lat="45.97494" lon="6.55719">
        <ele>2069.5</ele>
        <time>2026-02-02T12:52:30Z</time>
      </trkpt>
      <trkpt lat="45.97494" lon="6.5572">
        <ele>2069.5</ele>
        <time>2026-02-02T12:52:31Z</time>
      </trkpt>
      <trkpt lat="45.97494" lon="6.55721">
        <ele>2069.5</ele>
        <time>2026-02-02T12:52:32Z</time>
      </trkpt>
      <trkpt lat="45.97495" lon="6.55721">
        <ele>2069.5</ele>
        <time>2026-02-02T12:52:33Z</time>
      </trkpt>
      <trkpt lat="45.97495" lon="6.55722">
        <ele>2070.5</ele>
        <time>2026-02-02T12:52:34Z</time>
      </trkpt>
      <trkpt lat="45.97495" lon="6.55722">
        <ele>2070.5</ele>
        <time>2026-02-02T12:52:35Z</time>
      </trkpt>
      <trkpt lat="45.97494" lon="6.55722">
        <ele>2070.5</ele>
        <time>2026-02-02T12:52:36Z</time>
      </trkpt>
      <trkpt lat="45.97494" lon="6.55724">
        <ele>2070.5</ele>
        <time>2026-02-02T12:52:37Z</time>
      </trkpt>
      <trkpt lat="45.97495" lon="6.55729">
        <ele>2071.5</ele>
        <time>2026-02-02T12:52:38Z</time>
      </trkpt>
      <trkpt lat="45.97495" lon="6.55731">
        <ele>2072.4</ele>
        <time>2026-02-02T12:52:39Z</time>
      </trkpt>
      <trkpt lat="45.97496" lon="6.55737">
        <ele>2071.8</ele>
        <time>2026-02-02T12:52:40Z</time>
      </trkpt>
      <trkpt lat="45.97498" lon="6.55744">
        <ele>2073.4</ele>
        <time>2026-02-02T12:52:41Z</time>
      </trkpt>
      <trkpt lat="45.97498" lon="6.55752">
        <ele>2075</ele>
        <time>2026-02-02T12:52:42Z</time>
      </trkpt>
      <trkpt lat="45.975" lon="6.5576">
        <ele>2074.5</ele>
        <time>2026-02-02T12:52:43Z</time>
      </trkpt>
      <trkpt lat="45.97501" lon="6.55767">
        <ele>2075.1</ele>
        <time>2026-02-02T12:52:44Z</time>
      </trkpt>
      <trkpt lat="45.97503" lon="6.55773">
        <ele>2074.7</ele>
        <time>2026-02-02T12:52:45Z</time>
      </trkpt>
      <trkpt lat="45.97505" lon="6.55777">
        <ele>2073.6</ele>
        <time>2026-02-02T12:52:46Z</time>
      </trkpt>
      <trkpt lat="45.97507" lon="6.5578">
        <ele>2073.6</ele>
        <time>2026-02-02T12:52:47Z</time>
      </trkpt>
      <trkpt lat="45.97509" lon="6.55784">
        <ele>2072.8</ele>
        <time>2026-02-02T12:52:48Z</time>
      </trkpt>
      <trkpt lat="45.9751" lon="6.55785">
        <ele>2072.8</ele>
        <time>2026-02-02T12:52:49Z</time>
      </trkpt>
      <trkpt lat="45.97513" lon="6.55788">
        <ele>2072.1</ele>
        <time>2026-02-02T12:52:50Z</time>
      </trkpt>
      <trkpt lat="45.97513" lon="6.55789">
        <ele>2072.1</ele>
        <time>2026-02-02T12:52:51Z</time>
      </trkpt>
      <trkpt lat="45.97514" lon="6.5579">
        <ele>2071.4</ele>
        <time>2026-02-02T12:52:52Z</time>
      </trkpt>
      <trkpt lat="45.97513" lon="6.55791">
        <ele>2073</ele>
        <time>2026-02-02T12:52:53Z</time>
      </trkpt>
      <trkpt lat="45.97514" lon="6.55792">
        <ele>2071.4</ele>
        <time>2026-02-02T12:52:54Z</time>
      </trkpt>
      <trkpt lat="45.97514" lon="6.55793">
        <ele>2071.4</ele>
        <time>2026-02-02T12:52:55Z</time>
      </trkpt>
      <trkpt lat="45.97514" lon="6.55793">
        <ele>2071.4</ele>
        <time>2026-02-02T12:52:56Z</time>
      </trkpt>
      <trkpt lat="45.97514" lon="6.55794">
        <ele>2072.4</ele>
        <time>2026-02-02T12:52:57Z</time>
      </trkpt>
      <trkpt lat="45.97515" lon="6.55795">
        <ele>2072.4</ele>
        <time>2026-02-02T12:52:58Z</time>
      </trkpt>
      <trkpt lat="45.97514" lon="6.55795">
        <ele>2072.4</ele>
        <time>2026-02-02T12:52:59Z</time>
      </trkpt>
      <trkpt lat="45.97514" lon="6.55795">
        <ele>2072.4</ele>
        <time>2026-02-02T12:53:00Z</time>
      </trkpt>
      <trkpt lat="45.97514" lon="6.55797">
        <ele>2072.4</ele>
        <time>2026-02-02T12:53:01Z</time>
      </trkpt>
      <trkpt lat="45.97515" lon="6.55797">
        <ele>2072.4</ele>
        <time>2026-02-02T12:53:02Z</time>
      </trkpt>
      <trkpt lat="45.97515" lon="6.55798">
        <ele>2073.3</ele>
        <time>2026-02-02T12:53:03Z</time>
      </trkpt>
      <trkpt lat="45.97516" lon="6.55799">
        <ele>2073.3</ele>
        <time>2026-02-02T12:53:04Z</time>
      </trkpt>
      <trkpt lat="45.97517" lon="6.558">
        <ele>2071.6</ele>
        <time>2026-02-02T12:53:05Z</time>
      </trkpt>
      <trkpt lat="45.97517" lon="6.55801">
        <ele>2071.6</ele>
        <time>2026-02-02T12:53:06Z</time>
      </trkpt>
      <trkpt lat="45.97517" lon="6.55802">
        <ele>2071.6</ele>
        <time>2026-02-02T12:53:07Z</time>
      </trkpt>
      <trkpt lat="45.97517" lon="6.55803">
        <ele>2072.6</ele>
        <time>2026-02-02T12:53:08Z</time>
      </trkpt>
      <trkpt lat="45.97517" lon="6.55805">
        <ele>2072.6</ele>
        <time>2026-02-02T12:53:09Z</time>
      </trkpt>
      <trkpt lat="45.97518" lon="6.55806">
        <ele>2072.6</ele>
        <time>2026-02-02T12:53:10Z</time>
      </trkpt>
      <trkpt lat="45.97518" lon="6.55808">
        <ele>2073.6</ele>
        <time>2026-02-02T12:53:11Z</time>
      </trkpt>
      <trkpt lat="45.97519" lon="6.55809">
        <ele>2073.6</ele>
        <time>2026-02-02T12:53:12Z</time>
      </trkpt>
      <trkpt lat="45.97521" lon="6.55812">
        <ele>2072.7</ele>
        <time>2026-02-02T12:53:13Z</time>
      </trkpt>
      <trkpt lat="45.97521" lon="6.55814">
        <ele>2072.7</ele>
        <time>2026-02-02T12:53:14Z</time>
      </trkpt>
      <trkpt lat="45.97523" lon="6.55818">
        <ele>2071.8</ele>
        <time>2026-02-02T12:53:15Z</time>
      </trkpt>
      <trkpt lat="45.97523" lon="6.55819">
        <ele>2071.8</ele>
        <time>2026-02-02T12:53:16Z</time>
      </trkpt>
      <trkpt lat="45.97525" lon="6.55823">
        <ele>2073</ele>
        <time>2026-02-02T12:53:17Z</time>
      </trkpt>
      <trkpt lat="45.97526" lon="6.55828">
        <ele>2073.3</ele>
        <time>2026-02-02T12:53:18Z</time>
      </trkpt>
      <trkpt lat="45.97526" lon="6.5583">
        <ele>2073.3</ele>
        <time>2026-02-02T12:53:19Z</time>
      </trkpt>
      <trkpt lat="45.97527" lon="6.55834">
        <ele>2074.5</ele>
        <time>2026-02-02T12:53:20Z</time>
      </trkpt>
      <trkpt lat="45.97528" lon="6.55836">
        <ele>2074.5</ele>
        <time>2026-02-02T12:53:21Z</time>
      </trkpt>
      <trkpt lat="45.9753" lon="6.5584">
        <ele>2073.7</ele>
        <time>2026-02-02T12:53:22Z</time>
      </trkpt>
      <trkpt lat="45.97531" lon="6.55841">
        <ele>2074.8</ele>
        <time>2026-02-02T12:53:23Z</time>
      </trkpt>
      <trkpt lat="45.97533" lon="6.55845">
        <ele>2072.8</ele>
        <time>2026-02-02T12:53:24Z</time>
      </trkpt>
      <trkpt lat="45.97534" lon="6.55848">
        <ele>2073.9</ele>
        <time>2026-02-02T12:53:25Z</time>
      </trkpt>
      <trkpt lat="45.97534" lon="6.55849">
        <ele>2073.9</ele>
        <time>2026-02-02T12:53:26Z</time>
      </trkpt>
      <trkpt lat="45.97534" lon="6.55849">
        <ele>2073.9</ele>
        <time>2026-02-02T12:53:27Z</time>
      </trkpt>
      <trkpt lat="45.97534" lon="6.55849">
        <ele>2073.9</ele>
        <time>2026-02-02T12:53:28Z</time>
      </trkpt>
      <trkpt lat="45.97534" lon="6.55849">
        <ele>2073.9</ele>
        <time>2026-02-02T12:53:29Z</time>
      </trkpt>
      <trkpt lat="45.97534" lon="6.55848">
        <ele>2073.9</ele>
        <time>2026-02-02T12:53:30Z</time>
      </trkpt>
      <trkpt lat="45.97534" lon="6.55848">
        <ele>2073.9</ele>
        <time>2026-02-02T12:53:31Z</time>
      </trkpt>
      <trkpt lat="45.97536" lon="6.55847">
        <ele>2072</ele>
        <time>2026-02-02T12:53:32Z</time>
      </trkpt>
      <trkpt lat="45.97539" lon="6.55848">
        <ele>2070.2</ele>
        <time>2026-02-02T12:53:33Z</time>
      </trkpt>
      <trkpt lat="45.97543" lon="6.5585">
        <ele>2069.4</ele>
        <time>2026-02-02T12:53:34Z</time>
      </trkpt>
      <trkpt lat="45.97548" lon="6.55853">
        <ele>2065.6</ele>
        <time>2026-02-02T12:53:35Z</time>
      </trkpt>
      <trkpt lat="45.97553" lon="6.55854">
        <ele>2062.6</ele>
        <time>2026-02-02T12:53:36Z</time>
      </trkpt>
      <trkpt lat="45.97559" lon="6.55856">
        <ele>2058.7</ele>
        <time>2026-02-02T12:53:37Z</time>
      </trkpt>
      <trkpt lat="45.97565" lon="6.55859">
        <ele>2055.8</ele>
        <time>2026-02-02T12:53:38Z</time>
      </trkpt>
      <trkpt lat="45.9757" lon="6.55864">
        <ele>2055</ele>
        <time>2026-02-02T12:53:39Z</time>
      </trkpt>
      <trkpt lat="45.97575" lon="6.55867">
        <ele>2052.6</ele>
        <time>2026-02-02T12:53:40Z</time>
      </trkpt>
      <trkpt lat="45.97579" lon="6.55871">
        <ele>2049.2</ele>
        <time>2026-02-02T12:53:41Z</time>
      </trkpt>
      <trkpt lat="45.97581" lon="6.55874">
        <ele>2049.9</ele>
        <time>2026-02-02T12:53:42Z</time>
      </trkpt>
      <trkpt lat="45.97582" lon="6.55876">
        <ele>2048.8</ele>
        <time>2026-02-02T12:53:43Z</time>
      </trkpt>
      <trkpt lat="45.97582" lon="6.55876">
        <ele>2048.8</ele>
        <time>2026-02-02T12:53:44Z</time>
      </trkpt>
      <trkpt lat="45.97583" lon="6.55876">
        <ele>2048.8</ele>
        <time>2026-02-02T12:53:45Z</time>
      </trkpt>
      <trkpt lat="45.97583" lon="6.55877">
        <ele>2048.8</ele>
        <time>2026-02-02T12:53:46Z</time>
      </trkpt>
      <trkpt lat="45.97583" lon="6.55877">
        <ele>2048.8</ele>
        <time>2026-02-02T12:53:47Z</time>
      </trkpt>
      <trkpt lat="45.97584" lon="6.55878">
        <ele>2048.8</ele>
        <time>2026-02-02T12:53:48Z</time>
      </trkpt>
      <trkpt lat="45.97584" lon="6.55878">
        <ele>2048.8</ele>
        <time>2026-02-02T12:53:49Z</time>
      </trkpt>
      <trkpt lat="45.97586" lon="6.55879">
        <ele>2046.9</ele>
        <time>2026-02-02T12:53:50Z</time>
      </trkpt>
      <trkpt lat="45.97589" lon="6.55881">
        <ele>2045.9</ele>
        <time>2026-02-02T12:53:51Z</time>
      </trkpt>
      <trkpt lat="45.97591" lon="6.55883">
        <ele>2045.9</ele>
        <time>2026-02-02T12:53:52Z</time>
      </trkpt>
      <trkpt lat="45.97592" lon="6.55883">
        <ele>2044.3</ele>
        <time>2026-02-02T12:53:53Z</time>
      </trkpt>
      <trkpt lat="45.97593" lon="6.55883">
        <ele>2044.3</ele>
        <time>2026-02-02T12:53:54Z</time>
      </trkpt>
      <trkpt lat="45.97595" lon="6.55883">
        <ele>2042.9</ele>
        <time>2026-02-02T12:53:55Z</time>
      </trkpt>
      <trkpt lat="45.97596" lon="6.55885">
        <ele>2044.1</ele>
        <time>2026-02-02T12:53:56Z</time>
      </trkpt>
      <trkpt lat="45.97597" lon="6.55886">
        <ele>2042.8</ele>
        <time>2026-02-02T12:53:57Z</time>
      </trkpt>
      <trkpt lat="45.97597" lon="6.55886">
        <ele>2042.8</ele>
        <time>2026-02-02T12:53:58Z</time>
      </trkpt>
      <trkpt lat="45.97598" lon="6.55887">
        <ele>2042.8</ele>
        <time>2026-02-02T12:53:59Z</time>
      </trkpt>
      <trkpt lat="45.97598" lon="6.55888">
        <ele>2042.8</ele>
        <time>2026-02-02T12:54:00Z</time>
      </trkpt>
      <trkpt lat="45.97599" lon="6.55889">
        <ele>2043.6</ele>
        <time>2026-02-02T12:54:01Z</time>
      </trkpt>
      <trkpt lat="45.976" lon="6.5589">
        <ele>2043.6</ele>
        <time>2026-02-02T12:54:02Z</time>
      </trkpt>
      <trkpt lat="45.976" lon="6.55891">
        <ele>2042.2</ele>
        <time>2026-02-02T12:54:03Z</time>
      </trkpt>
      <trkpt lat="45.97601" lon="6.55892">
        <ele>2042.2</ele>
        <time>2026-02-02T12:54:04Z</time>
      </trkpt>
      <trkpt lat="45.97601" lon="6.55893">
        <ele>2043.1</ele>
        <time>2026-02-02T12:54:05Z</time>
      </trkpt>
      <trkpt lat="45.97603" lon="6.55894">
        <ele>2041.6</ele>
        <time>2026-02-02T12:54:06Z</time>
      </trkpt>
      <trkpt lat="45.97605" lon="6.55894">
        <ele>2041.6</ele>
        <time>2026-02-02T12:54:07Z</time>
      </trkpt>
      <trkpt lat="45.97606" lon="6.55894">
        <ele>2040</ele>
        <time>2026-02-02T12:54:08Z</time>
      </trkpt>
      <trkpt lat="45.97609" lon="6.55894">
        <ele>2038.3</ele>
        <time>2026-02-02T12:54:09Z</time>
      </trkpt>
      <trkpt lat="45.97611" lon="6.55895">
        <ele>2038.3</ele>
        <time>2026-02-02T12:54:10Z</time>
      </trkpt>
      <trkpt lat="45.97612" lon="6.55896">
        <ele>2036.7</ele>
        <time>2026-02-02T12:54:11Z</time>
      </trkpt>
      <trkpt lat="45.97613" lon="6.55896">
        <ele>2036.7</ele>
        <time>2026-02-02T12:54:12Z</time>
      </trkpt>
      <trkpt lat="45.97615" lon="6.55897">
        <ele>2037.6</ele>
        <time>2026-02-02T12:54:13Z</time>
      </trkpt>
      <trkpt lat="45.97617" lon="6.55898">
        <ele>2036.1</ele>
        <time>2026-02-02T12:54:14Z</time>
      </trkpt>
      <trkpt lat="45.97618" lon="6.55899">
        <ele>2036.1</ele>
        <time>2026-02-02T12:54:15Z</time>
      </trkpt>
      <trkpt lat="45.97618" lon="6.559">
        <ele>2034.8</ele>
        <time>2026-02-02T12:54:16Z</time>
      </trkpt>
      <trkpt lat="45.97618" lon="6.559">
        <ele>2034.8</ele>
        <time>2026-02-02T12:54:17Z</time>
      </trkpt>
      <trkpt lat="45.97619" lon="6.55902">
        <ele>2035.6</ele>
        <time>2026-02-02T12:54:18Z</time>
      </trkpt>
      <trkpt lat="45.97619" lon="6.55903">
        <ele>2035.6</ele>
        <time>2026-02-02T12:54:19Z</time>
      </trkpt>
      <trkpt lat="45.9762" lon="6.55903">
        <ele>2035.6</ele>
        <time>2026-02-02T12:54:20Z</time>
      </trkpt>
      <trkpt lat="45.97621" lon="6.55904">
        <ele>2035.6</ele>
        <time>2026-02-02T12:54:21Z</time>
      </trkpt>
      <trkpt lat="45.97622" lon="6.55904">
        <ele>2034.3</ele>
        <time>2026-02-02T12:54:22Z</time>
      </trkpt>
      <trkpt lat="45.97623" lon="6.55905">
        <ele>2034.3</ele>
        <time>2026-02-02T12:54:23Z</time>
      </trkpt>
      <trkpt lat="45.97625" lon="6.55906">
        <ele>2034</ele>
        <time>2026-02-02T12:54:24Z</time>
      </trkpt>
      <trkpt lat="45.97627" lon="6.5591">
        <ele>2033.6</ele>
        <time>2026-02-02T12:54:25Z</time>
      </trkpt>
      <trkpt lat="45.97629" lon="6.55912">
        <ele>2033.6</ele>
        <time>2026-02-02T12:54:26Z</time>
      </trkpt>
      <trkpt lat="45.97631" lon="6.55916">
        <ele>2033.3</ele>
        <time>2026-02-02T12:54:27Z</time>
      </trkpt>
      <trkpt lat="45.97632" lon="6.55917">
        <ele>2033.3</ele>
        <time>2026-02-02T12:54:28Z</time>
      </trkpt>
      <trkpt lat="45.97632" lon="6.55916">
        <ele>2033.3</ele>
        <time>2026-02-02T12:54:29Z</time>
      </trkpt>
      <trkpt lat="45.97632" lon="6.55916">
        <ele>2033.3</ele>
        <time>2026-02-02T12:54:30Z</time>
      </trkpt>
      <trkpt lat="45.97632" lon="6.55916">
        <ele>2033.3</ele>
        <time>2026-02-02T12:54:31Z</time>
      </trkpt>
      <trkpt lat="45.97632" lon="6.55916">
        <ele>2033.3</ele>
        <time>2026-02-02T12:54:32Z</time>
      </trkpt>
      <trkpt lat="45.97632" lon="6.55916">
        <ele>2033.3</ele>
        <time>2026-02-02T12:54:33Z</time>
      </trkpt>
      <trkpt lat="45.97632" lon="6.55916">
        <ele>2033.3</ele>
        <time>2026-02-02T12:54:34Z</time>
      </trkpt>
      <trkpt lat="45.97632" lon="6.55916">
        <ele>2033.3</ele>
        <time>2026-02-02T12:54:35Z</time>
      </trkpt>
      <trkpt lat="45.97632" lon="6.55916">
        <ele>2033.3</ele>
        <time>2026-02-02T12:54:36Z</time>
      </trkpt>
      <trkpt lat="45.97633" lon="6.55915">
        <ele>2033.3</ele>
        <time>2026-02-02T12:54:37Z</time>
      </trkpt>
      <trkpt lat="45.97635" lon="6.55915">
        <ele>2031.9</ele>
        <time>2026-02-02T12:54:38Z</time>
      </trkpt>
      <trkpt lat="45.9764" lon="6.55916">
        <ele>2029</ele>
        <time>2026-02-02T12:54:39Z</time>
      </trkpt>
      <trkpt lat="45.97645" lon="6.55919">
        <ele>2028.6</ele>
        <time>2026-02-02T12:54:40Z</time>
      </trkpt>
      <trkpt lat="45.97649" lon="6.55922">
        <ele>2025.9</ele>
        <time>2026-02-02T12:54:41Z</time>
      </trkpt>
      <trkpt lat="45.97652" lon="6.55925">
        <ele>2025.8</ele>
        <time>2026-02-02T12:54:42Z</time>
      </trkpt>
      <trkpt lat="45.97656" lon="6.55927">
        <ele>2025.7</ele>
        <time>2026-02-02T12:54:43Z</time>
      </trkpt>
      <trkpt lat="45.97658" lon="6.5593">
        <ele>2024.5</ele>
        <time>2026-02-02T12:54:44Z</time>
      </trkpt>
      <trkpt lat="45.97662" lon="6.55933">
        <ele>2024.3</ele>
        <time>2026-02-02T12:54:45Z</time>
      </trkpt>
      <trkpt lat="45.97664" lon="6.55935">
        <ele>2023</ele>
        <time>2026-02-02T12:54:46Z</time>
      </trkpt>
      <trkpt lat="45.97665" lon="6.55936">
        <ele>2024.1</ele>
        <time>2026-02-02T12:54:47Z</time>
      </trkpt>
      <trkpt lat="45.97666" lon="6.55936">
        <ele>2022.7</ele>
        <time>2026-02-02T12:54:48Z</time>
      </trkpt>
      <trkpt lat="45.97666" lon="6.55936">
        <ele>2022.7</ele>
        <time>2026-02-02T12:54:49Z</time>
      </trkpt>
      <trkpt lat="45.97666" lon="6.55936">
        <ele>2022.7</ele>
        <time>2026-02-02T12:54:50Z</time>
      </trkpt>
      <trkpt lat="45.97666" lon="6.55936">
        <ele>2022.7</ele>
        <time>2026-02-02T12:54:51Z</time>
      </trkpt>
      <trkpt lat="45.97667" lon="6.55936">
        <ele>2022.7</ele>
        <time>2026-02-02T12:54:52Z</time>
      </trkpt>
      <trkpt lat="45.97667" lon="6.55937">
        <ele>2022.7</ele>
        <time>2026-02-02T12:54:53Z</time>
      </trkpt>
      <trkpt lat="45.97667" lon="6.55937">
        <ele>2022.7</ele>
        <time>2026-02-02T12:54:54Z</time>
      </trkpt>
      <trkpt lat="45.97667" lon="6.55937">
        <ele>2022.7</ele>
        <time>2026-02-02T12:54:55Z</time>
      </trkpt>
      <trkpt lat="45.97667" lon="6.55937">
        <ele>2022.7</ele>
        <time>2026-02-02T12:54:56Z</time>
      </trkpt>
      <trkpt lat="45.97668" lon="6.55937">
        <ele>2022.7</ele>
        <time>2026-02-02T12:54:57Z</time>
      </trkpt>
      <trkpt lat="45.97668" lon="6.55937">
        <ele>2022.7</ele>
        <time>2026-02-02T12:54:58Z</time>
      </trkpt>
      <trkpt lat="45.97673" lon="6.55938">
        <ele>2019.9</ele>
        <time>2026-02-02T12:54:59Z</time>
      </trkpt>
      <trkpt lat="45.97678" lon="6.55941">
        <ele>2018.6</ele>
        <time>2026-02-02T12:55:00Z</time>
      </trkpt>
      <trkpt lat="45.97684" lon="6.55946">
        <ele>2017.4</ele>
        <time>2026-02-02T12:55:01Z</time>
      </trkpt>
      <trkpt lat="45.97689" lon="6.55949">
        <ele>2017.1</ele>
        <time>2026-02-02T12:55:02Z</time>
      </trkpt>
      <trkpt lat="45.97693" lon="6.55954">
        <ele>2015.3</ele>
        <time>2026-02-02T12:55:03Z</time>
      </trkpt>
      <trkpt lat="45.97698" lon="6.55958">
        <ele>2015</ele>
        <time>2026-02-02T12:55:04Z</time>
      </trkpt>
      <trkpt lat="45.97701" lon="6.55962">
        <ele>2014.9</ele>
        <time>2026-02-02T12:55:05Z</time>
      </trkpt>
      <trkpt lat="45.97704" lon="6.55966">
        <ele>2014.9</ele>
        <time>2026-02-02T12:55:06Z</time>
      </trkpt>
      <trkpt lat="45.97706" lon="6.55969">
        <ele>2013.6</ele>
        <time>2026-02-02T12:55:07Z</time>
      </trkpt>
      <trkpt lat="45.97707" lon="6.5597">
        <ele>2013.6</ele>
        <time>2026-02-02T12:55:08Z</time>
      </trkpt>
      <trkpt lat="45.97708" lon="6.55972">
        <ele>2013.8</ele>
        <time>2026-02-02T12:55:09Z</time>
      </trkpt>
      <trkpt lat="45.97708" lon="6.55974">
        <ele>2015.2</ele>
        <time>2026-02-02T12:55:10Z</time>
      </trkpt>
      <trkpt lat="45.97709" lon="6.55976">
        <ele>2015.2</ele>
        <time>2026-02-02T12:55:11Z</time>
      </trkpt>
      <trkpt lat="45.97713" lon="6.55979">
        <ele>2015.2</ele>
        <time>2026-02-02T12:55:12Z</time>
      </trkpt>
      <trkpt lat="45.97717" lon="6.55983">
        <ele>2013.8</ele>
        <time>2026-02-02T12:55:13Z</time>
      </trkpt>
      <trkpt lat="45.97722" lon="6.55987">
        <ele>2013.8</ele>
        <time>2026-02-02T12:55:14Z</time>
      </trkpt>
      <trkpt lat="45.97727" lon="6.55991">
        <ele>2011</ele>
        <time>2026-02-02T12:55:15Z</time>
      </trkpt>
      <trkpt lat="45.97732" lon="6.55992">
        <ele>2009.8</ele>
        <time>2026-02-02T12:55:16Z</time>
      </trkpt>
      <trkpt lat="45.97737" lon="6.55992">
        <ele>2008.5</ele>
        <time>2026-02-02T12:55:17Z</time>
      </trkpt>
      <trkpt lat="45.97742" lon="6.55992">
        <ele>2006.1</ele>
        <time>2026-02-02T12:55:18Z</time>
      </trkpt>
      <trkpt lat="45.97746" lon="6.55992">
        <ele>2004.9</ele>
        <time>2026-02-02T12:55:19Z</time>
      </trkpt>
      <trkpt lat="45.97749" lon="6.55992">
        <ele>2002.4</ele>
        <time>2026-02-02T12:55:20Z</time>
      </trkpt>
      <trkpt lat="45.97753" lon="6.55993">
        <ele>2001.1</ele>
        <time>2026-02-02T12:55:21Z</time>
      </trkpt>
      <trkpt lat="45.97756" lon="6.55993">
        <ele>1999.9</ele>
        <time>2026-02-02T12:55:22Z</time>
      </trkpt>
      <trkpt lat="45.97759" lon="6.55993">
        <ele>1998.8</ele>
        <time>2026-02-02T12:55:23Z</time>
      </trkpt>
      <trkpt lat="45.97763" lon="6.55993">
        <ele>1997.8</ele>
        <time>2026-02-02T12:55:24Z</time>
      </trkpt>
      <trkpt lat="45.97764" lon="6.55993">
        <ele>1997.8</ele>
        <time>2026-02-02T12:55:25Z</time>
      </trkpt>
      <trkpt lat="45.97766" lon="6.55995">
        <ele>1996.9</ele>
        <time>2026-02-02T12:55:26Z</time>
      </trkpt>
      <trkpt lat="45.97766" lon="6.55995">
        <ele>1998.4</ele>
        <time>2026-02-02T12:55:27Z</time>
      </trkpt>
      <trkpt lat="45.97767" lon="6.55996">
        <ele>1997.5</ele>
        <time>2026-02-02T12:55:28Z</time>
      </trkpt>
      <trkpt lat="45.97767" lon="6.55996">
        <ele>1998.4</ele>
        <time>2026-02-02T12:55:29Z</time>
      </trkpt>
      <trkpt lat="45.97767" lon="6.55996">
        <ele>1998.4</ele>
        <time>2026-02-02T12:55:30Z</time>
      </trkpt>
      <trkpt lat="45.97767" lon="6.55996">
        <ele>1998.4</ele>
        <time>2026-02-02T12:55:31Z</time>
      </trkpt>
      <trkpt lat="45.97767" lon="6.55996">
        <ele>1998.4</ele>
        <time>2026-02-02T12:55:32Z</time>
      </trkpt>
      <trkpt lat="45.97767" lon="6.55996">
        <ele>1998.4</ele>
        <time>2026-02-02T12:55:33Z</time>
      </trkpt>
      <trkpt lat="45.97767" lon="6.55996">
        <ele>1998.4</ele>
        <time>2026-02-02T12:55:34Z</time>
      </trkpt>
      <trkpt lat="45.97767" lon="6.55996">
        <ele>1998.4</ele>
        <time>2026-02-02T12:55:35Z</time>
      </trkpt>
      <trkpt lat="45.97767" lon="6.55996">
        <ele>1998.4</ele>
        <time>2026-02-02T12:55:36Z</time>
      </trkpt>
      <trkpt lat="45.97767" lon="6.55996">
        <ele>1998.4</ele>
        <time>2026-02-02T12:55:37Z</time>
      </trkpt>
      <trkpt lat="45.97767" lon="6.55996">
        <ele>1998.4</ele>
        <time>2026-02-02T12:55:38Z</time>
      </trkpt>
      <trkpt lat="45.97767" lon="6.55996">
        <ele>1998.4</ele>
        <time>2026-02-02T12:55:39Z</time>
      </trkpt>
      <trkpt lat="45.97767" lon="6.55996">
        <ele>1998.4</ele>
        <time>2026-02-02T12:55:40Z</time>
      </trkpt>
      <trkpt lat="45.97767" lon="6.55996">
        <ele>1998.4</ele>
        <time>2026-02-02T12:55:41Z</time>
      </trkpt>
      <trkpt lat="45.97767" lon="6.55996">
        <ele>1998.4</ele>
        <time>2026-02-02T12:55:42Z</time>
      </trkpt>
      <trkpt lat="45.97767" lon="6.55996">
        <ele>1998.4</ele>
        <time>2026-02-02T12:55:43Z</time>
      </trkpt>
      <trkpt lat="45.97767" lon="6.55996">
        <ele>1998.4</ele>
        <time>2026-02-02T12:55:44Z</time>
      </trkpt>
      <trkpt lat="45.97767" lon="6.55996">
        <ele>1998.4</ele>
        <time>2026-02-02T12:55:45Z</time>
      </trkpt>
      <trkpt lat="45.97767" lon="6.55996">
        <ele>1998.4</ele>
        <time>2026-02-02T12:55:46Z</time>
      </trkpt>
      <trkpt lat="45.97767" lon="6.55996">
        <ele>1998.4</ele>
        <time>2026-02-02T12:55:47Z</time>
      </trkpt>
      <trkpt lat="45.97767" lon="6.55996">
        <ele>1998.4</ele>
        <time>2026-02-02T12:55:48Z</time>
      </trkpt>
      <trkpt lat="45.97767" lon="6.55996">
        <ele>1998.4</ele>
        <time>2026-02-02T12:55:49Z</time>
      </trkpt>
      <trkpt lat="45.97767" lon="6.55996">
        <ele>1998.4</ele>
        <time>2026-02-02T12:55:50Z</time>
      </trkpt>
      <trkpt lat="45.97767" lon="6.55996">
        <ele>1998.4</ele>
        <time>2026-02-02T12:55:51Z</time>
      </trkpt>
      <trkpt lat="45.97767" lon="6.55996">
        <ele>1998.4</ele>
        <time>2026-02-02T12:55:52Z</time>
      </trkpt>
      <trkpt lat="45.97767" lon="6.55996">
        <ele>1998.4</ele>
        <time>2026-02-02T12:55:53Z</time>
      </trkpt>
      <trkpt lat="45.97767" lon="6.55996">
        <ele>1998.4</ele>
        <time>2026-02-02T12:55:54Z</time>
      </trkpt>
      <trkpt lat="45.97767" lon="6.55996">
        <ele>1998.4</ele>
        <time>2026-02-02T12:55:55Z</time>
      </trkpt>
      <trkpt lat="45.97767" lon="6.55996">
        <ele>1998.4</ele>
        <time>2026-02-02T12:55:56Z</time>
      </trkpt>
      <trkpt lat="45.97767" lon="6.55996">
        <ele>1998.4</ele>
        <time>2026-02-02T12:55:57Z</time>
      </trkpt>
      <trkpt lat="45.97767" lon="6.55996">
        <ele>1998.4</ele>
        <time>2026-02-02T12:55:58Z</time>
      </trkpt>
      <trkpt lat="45.97767" lon="6.55996">
        <ele>1998.4</ele>
        <time>2026-02-02T12:55:59Z</time>
      </trkpt>
      <trkpt lat="45.97767" lon="6.55996">
        <ele>1998.4</ele>
        <time>2026-02-02T12:56:00Z</time>
      </trkpt>
      <trkpt lat="45.97767" lon="6.55996">
        <ele>1998.4</ele>
        <time>2026-02-02T12:56:01Z</time>
      </trkpt>
      <trkpt lat="45.97767" lon="6.55996">
        <ele>1998.4</ele>
        <time>2026-02-02T12:56:02Z</time>
      </trkpt>
      <trkpt lat="45.97767" lon="6.55996">
        <ele>1998.4</ele>
        <time>2026-02-02T12:56:03Z</time>
      </trkpt>
      <trkpt lat="45.97767" lon="6.55996">
        <ele>1998.4</ele>
        <time>2026-02-02T12:56:04Z</time>
      </trkpt>
      <trkpt lat="45.97767" lon="6.55996">
        <ele>1998.4</ele>
        <time>2026-02-02T12:56:05Z</time>
      </trkpt>
      <trkpt lat="45.97767" lon="6.55996">
        <ele>1998.4</ele>
        <time>2026-02-02T12:56:06Z</time>
      </trkpt>
      <trkpt lat="45.97767" lon="6.55996">
        <ele>1998.4</ele>
        <time>2026-02-02T12:56:07Z</time>
      </trkpt>
      <trkpt lat="45.97767" lon="6.55996">
        <ele>1998.4</ele>
        <time>2026-02-02T12:56:08Z</time>
      </trkpt>
      <trkpt lat="45.97766" lon="6.55995">
        <ele>1996.9</ele>
        <time>2026-02-02T12:56:09Z</time>
      </trkpt>
      <trkpt lat="45.97766" lon="6.55995">
        <ele>1996.9</ele>
        <time>2026-02-02T12:56:10Z</time>
      </trkpt>
      <trkpt lat="45.97766" lon="6.55995">
        <ele>1996.9</ele>
        <time>2026-02-02T12:56:11Z</time>
      </trkpt>
      <trkpt lat="45.97766" lon="6.55995">
        <ele>1996.9</ele>
        <time>2026-02-02T12:56:12Z</time>
      </trkpt>
      <trkpt lat="45.97766" lon="6.55995">
        <ele>1996.9</ele>
        <time>2026-02-02T12:56:13Z</time>
      </trkpt>
      <trkpt lat="45.97766" lon="6.55995">
        <ele>1996.9</ele>
        <time>2026-02-02T12:56:14Z</time>
      </trkpt>
      <trkpt lat="45.97766" lon="6.55995">
        <ele>1996.9</ele>
        <time>2026-02-02T12:56:15Z</time>
      </trkpt>
      <trkpt lat="45.97766" lon="6.55995">
        <ele>1996.9</ele>
        <time>2026-02-02T12:56:16Z</time>
      </trkpt>
      <trkpt lat="45.97766" lon="6.55995">
        <ele>1996.9</ele>
        <time>2026-02-02T12:56:17Z</time>
      </trkpt>
      <trkpt lat="45.97766" lon="6.55995">
        <ele>1996.9</ele>
        <time>2026-02-02T12:56:18Z</time>
      </trkpt>
      <trkpt lat="45.97766" lon="6.55995">
        <ele>1996.9</ele>
        <time>2026-02-02T12:56:19Z</time>
      </trkpt>
      <trkpt lat="45.97766" lon="6.55995">
        <ele>1996.9</ele>
        <time>2026-02-02T12:56:20Z</time>
      </trkpt>
      <trkpt lat="45.97766" lon="6.55995">
        <ele>1996.9</ele>
        <time>2026-02-02T12:56:21Z</time>
      </trkpt>
      <trkpt lat="45.97766" lon="6.55995">
        <ele>1996.9</ele>
        <time>2026-02-02T12:56:22Z</time>
      </trkpt>
      <trkpt lat="45.97766" lon="6.55995">
        <ele>1996.9</ele>
        <time>2026-02-02T12:56:23Z</time>
      </trkpt>
      <trkpt lat="45.97768" lon="6.55996">
        <ele>1997.5</ele>
        <time>2026-02-02T12:56:24Z</time>
      </trkpt>
      <trkpt lat="45.97768" lon="6.55996">
        <ele>1997.5</ele>
        <time>2026-02-02T12:56:25Z</time>
      </trkpt>
      <trkpt lat="45.97768" lon="6.55996">
        <ele>1997.5</ele>
        <time>2026-02-02T12:56:26Z</time>
      </trkpt>
      <trkpt lat="45.97768" lon="6.55996">
        <ele>1997.5</ele>
        <time>2026-02-02T12:56:27Z</time>
      </trkpt>
      <trkpt lat="45.97768" lon="6.55996">
        <ele>1997.5</ele>
        <time>2026-02-02T12:56:28Z</time>
      </trkpt>
      <trkpt lat="45.97768" lon="6.55996">
        <ele>1997.5</ele>
        <time>2026-02-02T12:56:29Z</time>
      </trkpt>
      <trkpt lat="45.97768" lon="6.55996">
        <ele>1997.5</ele>
        <time>2026-02-02T12:56:30Z</time>
      </trkpt>
      <trkpt lat="45.97768" lon="6.55996">
        <ele>1997.5</ele>
        <time>2026-02-02T12:56:31Z</time>
      </trkpt>
      <trkpt lat="45.97768" lon="6.55996">
        <ele>1997.5</ele>
        <time>2026-02-02T12:56:32Z</time>
      </trkpt>
      <trkpt lat="45.97768" lon="6.55996">
        <ele>1997.5</ele>
        <time>2026-02-02T12:56:33Z</time>
      </trkpt>
      <trkpt lat="45.97768" lon="6.55996">
        <ele>1997.5</ele>
        <time>2026-02-02T12:56:34Z</time>
      </trkpt>
      <trkpt lat="45.97768" lon="6.55996">
        <ele>1997.5</ele>
        <time>2026-02-02T12:56:35Z</time>
      </trkpt>
      <trkpt lat="45.97768" lon="6.55996">
        <ele>1997.5</ele>
        <time>2026-02-02T12:56:36Z</time>
      </trkpt>
      <trkpt lat="45.97768" lon="6.55996">
        <ele>1997.5</ele>
        <time>2026-02-02T12:56:37Z</time>
      </trkpt>
      <trkpt lat="45.97768" lon="6.55996">
        <ele>1997.5</ele>
        <time>2026-02-02T12:56:38Z</time>
      </trkpt>
      <trkpt lat="45.97768" lon="6.55996">
        <ele>1997.5</ele>
        <time>2026-02-02T12:56:39Z</time>
      </trkpt>
      <trkpt lat="45.97768" lon="6.55996">
        <ele>1997.5</ele>
        <time>2026-02-02T12:56:40Z</time>
      </trkpt>
      <trkpt lat="45.97768" lon="6.55996">
        <ele>1997.5</ele>
        <time>2026-02-02T12:56:41Z</time>
      </trkpt>
      <trkpt lat="45.97768" lon="6.55996">
        <ele>1997.5</ele>
        <time>2026-02-02T12:56:42Z</time>
      </trkpt>
      <trkpt lat="45.97768" lon="6.55996">
        <ele>1997.5</ele>
        <time>2026-02-02T12:56:43Z</time>
      </trkpt>
      <trkpt lat="45.97768" lon="6.55996">
        <ele>1997.5</ele>
        <time>2026-02-02T12:56:44Z</time>
      </trkpt>
      <trkpt lat="45.97768" lon="6.55996">
        <ele>1997.5</ele>
        <time>2026-02-02T12:56:45Z</time>
      </trkpt>
      <trkpt lat="45.97768" lon="6.55996">
        <ele>1997.5</ele>
        <time>2026-02-02T12:56:46Z</time>
      </trkpt>
      <trkpt lat="45.97768" lon="6.55996">
        <ele>1997.5</ele>
        <time>2026-02-02T12:56:47Z</time>
      </trkpt>
      <trkpt lat="45.97768" lon="6.55996">
        <ele>1997.5</ele>
        <time>2026-02-02T12:56:48Z</time>
      </trkpt>
      <trkpt lat="45.97768" lon="6.55996">
        <ele>1997.5</ele>
        <time>2026-02-02T12:56:49Z</time>
      </trkpt>
      <trkpt lat="45.97768" lon="6.55996">
        <ele>1997.5</ele>
        <time>2026-02-02T12:56:50Z</time>
      </trkpt>
      <trkpt lat="45.97768" lon="6.55996">
        <ele>1997.5</ele>
        <time>2026-02-02T12:56:51Z</time>
      </trkpt>
      <trkpt lat="45.97768" lon="6.55996">
        <ele>1997.5</ele>
        <time>2026-02-02T12:56:52Z</time>
      </trkpt>
      <trkpt lat="45.97768" lon="6.55996">
        <ele>1997.5</ele>
        <time>2026-02-02T12:56:53Z</time>
      </trkpt>
      <trkpt lat="45.97768" lon="6.55996">
        <ele>1997.5</ele>
        <time>2026-02-02T12:56:54Z</time>
      </trkpt>
      <trkpt lat="45.97768" lon="6.55996">
        <ele>1997.5</ele>
        <time>2026-02-02T12:56:55Z</time>
      </trkpt>
      <trkpt lat="45.97768" lon="6.55996">
        <ele>1997.5</ele>
        <time>2026-02-02T12:56:56Z</time>
      </trkpt>
      <trkpt lat="45.97768" lon="6.55996">
        <ele>1997.5</ele>
        <time>2026-02-02T12:56:57Z</time>
      </trkpt>
      <trkpt lat="45.97768" lon="6.55996">
        <ele>1997.5</ele>
        <time>2026-02-02T12:56:58Z</time>
      </trkpt>
      <trkpt lat="45.97768" lon="6.55996">
        <ele>1997.5</ele>
        <time>2026-02-02T12:56:59Z</time>
      </trkpt>
      <trkpt lat="45.97768" lon="6.55996">
        <ele>1997.5</ele>
        <time>2026-02-02T12:57:00Z</time>
      </trkpt>
      <trkpt lat="45.97768" lon="6.55995">
        <ele>1996</ele>
        <time>2026-02-02T12:57:01Z</time>
      </trkpt>
      <trkpt lat="45.97768" lon="6.55995">
        <ele>1996</ele>
        <time>2026-02-02T12:57:02Z</time>
      </trkpt>
      <trkpt lat="45.97768" lon="6.55994">
        <ele>1996</ele>
        <time>2026-02-02T12:57:03Z</time>
      </trkpt>
      <trkpt lat="45.97768" lon="6.55994">
        <ele>1996</ele>
        <time>2026-02-02T12:57:04Z</time>
      </trkpt>
      <trkpt lat="45.97768" lon="6.55994">
        <ele>1996</ele>
        <time>2026-02-02T12:57:05Z</time>
      </trkpt>
      <trkpt lat="45.97767" lon="6.55995">
        <ele>1996</ele>
        <time>2026-02-02T12:57:06Z</time>
      </trkpt>
      <trkpt lat="45.97768" lon="6.55994">
        <ele>1996</ele>
        <time>2026-02-02T12:57:07Z</time>
      </trkpt>
      <trkpt lat="45.97768" lon="6.55994">
        <ele>1996</ele>
        <time>2026-02-02T12:57:08Z</time>
      </trkpt>
      <trkpt lat="45.97769" lon="6.55994">
        <ele>1996</ele>
        <time>2026-02-02T12:57:09Z</time>
      </trkpt>
      <trkpt lat="45.97774" lon="6.55993">
        <ele>1994.2</ele>
        <time>2026-02-02T12:57:10Z</time>
      </trkpt>
      <trkpt lat="45.97775" lon="6.55993">
        <ele>1994.2</ele>
        <time>2026-02-02T12:57:11Z</time>
      </trkpt>
      <trkpt lat="45.97778" lon="6.55993">
        <ele>1993.3</ele>
        <time>2026-02-02T12:57:12Z</time>
      </trkpt>
      <trkpt lat="45.97781" lon="6.55992">
        <ele>1992.5</ele>
        <time>2026-02-02T12:57:13Z</time>
      </trkpt>
      <trkpt lat="45.97785" lon="6.55992">
        <ele>1991.3</ele>
        <time>2026-02-02T12:57:14Z</time>
      </trkpt>
      <trkpt lat="45.97787" lon="6.55992">
        <ele>1991.3</ele>
        <time>2026-02-02T12:57:15Z</time>
      </trkpt>
      <trkpt lat="45.9779" lon="6.55991">
        <ele>1990.8</ele>
        <time>2026-02-02T12:57:16Z</time>
      </trkpt>
      <trkpt lat="45.97793" lon="6.55991">
        <ele>1990.4</ele>
        <time>2026-02-02T12:57:17Z</time>
      </trkpt>
      <trkpt lat="45.97796" lon="6.55991">
        <ele>1990.1</ele>
        <time>2026-02-02T12:57:18Z</time>
      </trkpt>
      <trkpt lat="45.97799" lon="6.55993">
        <ele>1989.8</ele>
        <time>2026-02-02T12:57:19Z</time>
      </trkpt>
      <trkpt lat="45.97803" lon="6.55994">
        <ele>1989.3</ele>
        <time>2026-02-02T12:57:20Z</time>
      </trkpt>
      <trkpt lat="45.97807" lon="6.55994">
        <ele>1989.1</ele>
        <time>2026-02-02T12:57:21Z</time>
      </trkpt>
      <trkpt lat="45.97811" lon="6.55993">
        <ele>1989</ele>
        <time>2026-02-02T12:57:22Z</time>
      </trkpt>
      <trkpt lat="45.97814" lon="6.55993">
        <ele>1989</ele>
        <time>2026-02-02T12:57:23Z</time>
      </trkpt>
      <trkpt lat="45.97816" lon="6.55993">
        <ele>1989</ele>
        <time>2026-02-02T12:57:24Z</time>
      </trkpt>
      <trkpt lat="45.97818" lon="6.55993">
        <ele>1989</ele>
        <time>2026-02-02T12:57:25Z</time>
      </trkpt>
      <trkpt lat="45.97822" lon="6.55993">
        <ele>1989.3</ele>
        <time>2026-02-02T12:57:26Z</time>
      </trkpt>
      <trkpt lat="45.97823" lon="6.55993">
        <ele>1989.3</ele>
        <time>2026-02-02T12:57:27Z</time>
      </trkpt>
      <trkpt lat="45.97827" lon="6.5599">
        <ele>1987.5</ele>
        <time>2026-02-02T12:57:28Z</time>
      </trkpt>
      <trkpt lat="45.97828" lon="6.5599">
        <ele>1987.7</ele>
        <time>2026-02-02T12:57:29Z</time>
      </trkpt>
      <trkpt lat="45.9783" lon="6.55988">
        <ele>1987.8</ele>
        <time>2026-02-02T12:57:30Z</time>
      </trkpt>
      <trkpt lat="45.97835" lon="6.55986">
        <ele>1986.1</ele>
        <time>2026-02-02T12:57:31Z</time>
      </trkpt>
      <trkpt lat="45.97838" lon="6.55986">
        <ele>1986.2</ele>
        <time>2026-02-02T12:57:32Z</time>
      </trkpt>
      <trkpt lat="45.97841" lon="6.55987">
        <ele>1986.4</ele>
        <time>2026-02-02T12:57:33Z</time>
      </trkpt>
      <trkpt lat="45.97845" lon="6.55986">
        <ele>1986.7</ele>
        <time>2026-02-02T12:57:34Z</time>
      </trkpt>
      <trkpt lat="45.9785" lon="6.55984">
        <ele>1986.9</ele>
        <time>2026-02-02T12:57:35Z</time>
      </trkpt>
      <trkpt lat="45.97854" lon="6.55982">
        <ele>1985.1</ele>
        <time>2026-02-02T12:57:36Z</time>
      </trkpt>
      <trkpt lat="45.97858" lon="6.55979">
        <ele>1985.1</ele>
        <time>2026-02-02T12:57:37Z</time>
      </trkpt>
      <trkpt lat="45.97862" lon="6.55975">
        <ele>1983</ele>
        <time>2026-02-02T12:57:38Z</time>
      </trkpt>
      <trkpt lat="45.97865" lon="6.55971">
        <ele>1980.8</ele>
        <time>2026-02-02T12:57:39Z</time>
      </trkpt>
      <trkpt lat="45.97865" lon="6.5597">
        <ele>1980.8</ele>
        <time>2026-02-02T12:57:40Z</time>
      </trkpt>
      <trkpt lat="45.97868" lon="6.55966">
        <ele>1978.5</ele>
        <time>2026-02-02T12:57:41Z</time>
      </trkpt>
      <trkpt lat="45.97868" lon="6.55965">
        <ele>1976.3</ele>
        <time>2026-02-02T12:57:42Z</time>
      </trkpt>
      <trkpt lat="45.97872" lon="6.55963">
        <ele>1976.2</ele>
        <time>2026-02-02T12:57:43Z</time>
      </trkpt>
      <trkpt lat="45.97873" lon="6.55962">
        <ele>1976.2</ele>
        <time>2026-02-02T12:57:44Z</time>
      </trkpt>
      <trkpt lat="45.97876" lon="6.5596">
        <ele>1974</ele>
        <time>2026-02-02T12:57:45Z</time>
      </trkpt>
      <trkpt lat="45.97878" lon="6.55959">
        <ele>1973.9</ele>
        <time>2026-02-02T12:57:46Z</time>
      </trkpt>
      <trkpt lat="45.97881" lon="6.55958">
        <ele>1973.8</ele>
        <time>2026-02-02T12:57:47Z</time>
      </trkpt>
      <trkpt lat="45.97885" lon="6.55955">
        <ele>1971.6</ele>
        <time>2026-02-02T12:57:48Z</time>
      </trkpt>
      <trkpt lat="45.97886" lon="6.55954">
        <ele>1971.4</ele>
        <time>2026-02-02T12:57:49Z</time>
      </trkpt>
      <trkpt lat="45.9789" lon="6.55952">
        <ele>1969.2</ele>
        <time>2026-02-02T12:57:50Z</time>
      </trkpt>
      <trkpt lat="45.97892" lon="6.55951">
        <ele>1969.2</ele>
        <time>2026-02-02T12:57:51Z</time>
      </trkpt>
      <trkpt lat="45.97895" lon="6.55949">
        <ele>1968.9</ele>
        <time>2026-02-02T12:57:52Z</time>
      </trkpt>
      <trkpt lat="45.97897" lon="6.55948">
        <ele>1966.6</ele>
        <time>2026-02-02T12:57:53Z</time>
      </trkpt>
      <trkpt lat="45.97898" lon="6.55947">
        <ele>1966.6</ele>
        <time>2026-02-02T12:57:54Z</time>
      </trkpt>
      <trkpt lat="45.97899" lon="6.55947">
        <ele>1966.3</ele>
        <time>2026-02-02T12:57:55Z</time>
      </trkpt>
      <trkpt lat="45.97899" lon="6.55947">
        <ele>1966.3</ele>
        <time>2026-02-02T12:57:56Z</time>
      </trkpt>
      <trkpt lat="45.97899" lon="6.55947">
        <ele>1966.3</ele>
        <time>2026-02-02T12:57:57Z</time>
      </trkpt>
      <trkpt lat="45.979" lon="6.55947">
        <ele>1966.3</ele>
        <time>2026-02-02T12:57:58Z</time>
      </trkpt>
      <trkpt lat="45.979" lon="6.55947">
        <ele>1966.3</ele>
        <time>2026-02-02T12:57:59Z</time>
      </trkpt>
      <trkpt lat="45.979" lon="6.55946">
        <ele>1966.3</ele>
        <time>2026-02-02T12:58:00Z</time>
      </trkpt>
      <trkpt lat="45.97901" lon="6.55946">
        <ele>1966</ele>
        <time>2026-02-02T12:58:01Z</time>
      </trkpt>
      <trkpt lat="45.97903" lon="6.55945">
        <ele>1966</ele>
        <time>2026-02-02T12:58:02Z</time>
      </trkpt>
      <trkpt lat="45.97904" lon="6.55945">
        <ele>1965.6</ele>
        <time>2026-02-02T12:58:03Z</time>
      </trkpt>
      <trkpt lat="45.97906" lon="6.55943">
        <ele>1963.8</ele>
        <time>2026-02-02T12:58:04Z</time>
      </trkpt>
      <trkpt lat="45.97908" lon="6.55942">
        <ele>1963.4</ele>
        <time>2026-02-02T12:58:05Z</time>
      </trkpt>
      <trkpt lat="45.97911" lon="6.55941">
        <ele>1962.9</ele>
        <time>2026-02-02T12:58:06Z</time>
      </trkpt>
      <trkpt lat="45.97912" lon="6.55941">
        <ele>1962.9</ele>
        <time>2026-02-02T12:58:07Z</time>
      </trkpt>
      <trkpt lat="45.97915" lon="6.5594">
        <ele>1962.2</ele>
        <time>2026-02-02T12:58:08Z</time>
      </trkpt>
      <trkpt lat="45.97916" lon="6.5594">
        <ele>1961.5</ele>
        <time>2026-02-02T12:58:09Z</time>
      </trkpt>
      <trkpt lat="45.97919" lon="6.5594">
        <ele>1960.6</ele>
        <time>2026-02-02T12:58:10Z</time>
      </trkpt>
      <trkpt lat="45.9792" lon="6.5594">
        <ele>1960.6</ele>
        <time>2026-02-02T12:58:11Z</time>
      </trkpt>
      <trkpt lat="45.97921" lon="6.5594">
        <ele>1960.6</ele>
        <time>2026-02-02T12:58:12Z</time>
      </trkpt>
      <trkpt lat="45.97923" lon="6.5594">
        <ele>1959.7</ele>
        <time>2026-02-02T12:58:13Z</time>
      </trkpt>
      <trkpt lat="45.97923" lon="6.5594">
        <ele>1959.7</ele>
        <time>2026-02-02T12:58:14Z</time>
      </trkpt>
      <trkpt lat="45.97923" lon="6.5594">
        <ele>1959.7</ele>
        <time>2026-02-02T12:58:15Z</time>
      </trkpt>
      <trkpt lat="45.97923" lon="6.5594">
        <ele>1959.7</ele>
        <time>2026-02-02T12:58:16Z</time>
      </trkpt>
      <trkpt lat="45.97923" lon="6.55939">
        <ele>1958</ele>
        <time>2026-02-02T12:58:17Z</time>
      </trkpt>
      <trkpt lat="45.97923" lon="6.55939">
        <ele>1958</ele>
        <time>2026-02-02T12:58:18Z</time>
      </trkpt>
      <trkpt lat="45.97923" lon="6.55939">
        <ele>1958</ele>
        <time>2026-02-02T12:58:19Z</time>
      </trkpt>
      <trkpt lat="45.97923" lon="6.55939">
        <ele>1958</ele>
        <time>2026-02-02T12:58:20Z</time>
      </trkpt>
      <trkpt lat="45.97923" lon="6.55939">
        <ele>1958</ele>
        <time>2026-02-02T12:58:21Z</time>
      </trkpt>
      <trkpt lat="45.97923" lon="6.55939">
        <ele>1958</ele>
        <time>2026-02-02T12:58:22Z</time>
      </trkpt>
      <trkpt lat="45.97923" lon="6.55938">
        <ele>1958</ele>
        <time>2026-02-02T12:58:23Z</time>
      </trkpt>
      <trkpt lat="45.97923" lon="6.55938">
        <ele>1958</ele>
        <time>2026-02-02T12:58:24Z</time>
      </trkpt>
      <trkpt lat="45.97923" lon="6.55938">
        <ele>1958</ele>
        <time>2026-02-02T12:58:25Z</time>
      </trkpt>
      <trkpt lat="45.97923" lon="6.55938">
        <ele>1958</ele>
        <time>2026-02-02T12:58:26Z</time>
      </trkpt>
      <trkpt lat="45.97923" lon="6.55938">
        <ele>1958</ele>
        <time>2026-02-02T12:58:27Z</time>
      </trkpt>
      <trkpt lat="45.97923" lon="6.55938">
        <ele>1958</ele>
        <time>2026-02-02T12:58:28Z</time>
      </trkpt>
      <trkpt lat="45.97923" lon="6.55937">
        <ele>1958</ele>
        <time>2026-02-02T12:58:29Z</time>
      </trkpt>
      <trkpt lat="45.97922" lon="6.55937">
        <ele>1958</ele>
        <time>2026-02-02T12:58:30Z</time>
      </trkpt>
      <trkpt lat="45.97922" lon="6.55937">
        <ele>1958</ele>
        <time>2026-02-02T12:58:31Z</time>
      </trkpt>
      <trkpt lat="45.97922" lon="6.55937">
        <ele>1958</ele>
        <time>2026-02-02T12:58:32Z</time>
      </trkpt>
      <trkpt lat="45.97922" lon="6.55937">
        <ele>1958</ele>
        <time>2026-02-02T12:58:33Z</time>
      </trkpt>
      <trkpt lat="45.97922" lon="6.55937">
        <ele>1958</ele>
        <time>2026-02-02T12:58:34Z</time>
      </trkpt>
      <trkpt lat="45.97922" lon="6.55937">
        <ele>1958</ele>
        <time>2026-02-02T12:58:35Z</time>
      </trkpt>
      <trkpt lat="45.97922" lon="6.55936">
        <ele>1958</ele>
        <time>2026-02-02T12:58:36Z</time>
      </trkpt>
      <trkpt lat="45.97922" lon="6.55936">
        <ele>1958</ele>
        <time>2026-02-02T12:58:37Z</time>
      </trkpt>
      <trkpt lat="45.97922" lon="6.55936">
        <ele>1958</ele>
        <time>2026-02-02T12:58:38Z</time>
      </trkpt>
      <trkpt lat="45.97922" lon="6.55936">
        <ele>1958.9</ele>
        <time>2026-02-02T12:58:39Z</time>
      </trkpt>
      <trkpt lat="45.97922" lon="6.55936">
        <ele>1958.9</ele>
        <time>2026-02-02T12:58:40Z</time>
      </trkpt>
      <trkpt lat="45.97922" lon="6.55936">
        <ele>1958.9</ele>
        <time>2026-02-02T12:58:41Z</time>
      </trkpt>
      <trkpt lat="45.97922" lon="6.55935">
        <ele>1958.9</ele>
        <time>2026-02-02T12:58:42Z</time>
      </trkpt>
      <trkpt lat="45.97922" lon="6.55935">
        <ele>1957.1</ele>
        <time>2026-02-02T12:58:43Z</time>
      </trkpt>
      <trkpt lat="45.97922" lon="6.55935">
        <ele>1957.1</ele>
        <time>2026-02-02T12:58:44Z</time>
      </trkpt>
      <trkpt lat="45.97922" lon="6.55935">
        <ele>1957.1</ele>
        <time>2026-02-02T12:58:45Z</time>
      </trkpt>
      <trkpt lat="45.97919" lon="6.55932">
        <ele>1957.9</ele>
        <time>2026-02-02T12:58:46Z</time>
      </trkpt>
      <trkpt lat="45.97916" lon="6.55931">
        <ele>1956.8</ele>
        <time>2026-02-02T12:58:47Z</time>
      </trkpt>
      <trkpt lat="45.97912" lon="6.5593">
        <ele>1957.3</ele>
        <time>2026-02-02T12:58:48Z</time>
      </trkpt>
      <trkpt lat="45.97911" lon="6.55929">
        <ele>1957.3</ele>
        <time>2026-02-02T12:58:49Z</time>
      </trkpt>
      <trkpt lat="45.97907" lon="6.55928">
        <ele>1958.2</ele>
        <time>2026-02-02T12:58:50Z</time>
      </trkpt>
      <trkpt lat="45.97906" lon="6.55927">
        <ele>1958.2</ele>
        <time>2026-02-02T12:58:51Z</time>
      </trkpt>
      <trkpt lat="45.97903" lon="6.55926">
        <ele>1956.4</ele>
        <time>2026-02-02T12:58:52Z</time>
      </trkpt>
      <trkpt lat="45.97899" lon="6.55925">
        <ele>1956.7</ele>
        <time>2026-02-02T12:58:53Z</time>
      </trkpt>
      <trkpt lat="45.97898" lon="6.55924">
        <ele>1956.7</ele>
        <time>2026-02-02T12:58:54Z</time>
      </trkpt>
      <trkpt lat="45.97897" lon="6.55924">
        <ele>1957</ele>
        <time>2026-02-02T12:58:55Z</time>
      </trkpt>
      <trkpt lat="45.97896" lon="6.55924">
        <ele>1957</ele>
        <time>2026-02-02T12:58:56Z</time>
      </trkpt>
      <trkpt lat="45.97895" lon="6.55924">
        <ele>1957</ele>
        <time>2026-02-02T12:58:57Z</time>
      </trkpt>
      <trkpt lat="45.97895" lon="6.55925">
        <ele>1957.3</ele>
        <time>2026-02-02T12:58:58Z</time>
      </trkpt>
      <trkpt lat="45.97894" lon="6.55923">
        <ele>1957.3</ele>
        <time>2026-02-02T12:58:59Z</time>
      </trkpt>
      <trkpt lat="45.97894" lon="6.5592">
        <ele>1955.1</ele>
        <time>2026-02-02T12:59:00Z</time>
      </trkpt>
      <trkpt lat="45.97894" lon="6.55917">
        <ele>1952.9</ele>
        <time>2026-02-02T12:59:01Z</time>
      </trkpt>
      <trkpt lat="45.97894" lon="6.55915">
        <ele>1952.9</ele>
        <time>2026-02-02T12:59:02Z</time>
      </trkpt>
      <trkpt lat="45.9789" lon="6.55914">
        <ele>1953.1</ele>
        <time>2026-02-02T12:59:03Z</time>
      </trkpt>
      <trkpt lat="45.97889" lon="6.55914">
        <ele>1951</ele>
        <time>2026-02-02T12:59:04Z</time>
      </trkpt>
      <trkpt lat="45.97885" lon="6.55914">
        <ele>1953.5</ele>
        <time>2026-02-02T12:59:05Z</time>
      </trkpt>
      <trkpt lat="45.9788" lon="6.55914">
        <ele>1951.4</ele>
        <time>2026-02-02T12:59:06Z</time>
      </trkpt>
      <trkpt lat="45.97875" lon="6.55914">
        <ele>1951.5</ele>
        <time>2026-02-02T12:59:07Z</time>
      </trkpt>
      <trkpt lat="45.97871" lon="6.55914">
        <ele>1953.9</ele>
        <time>2026-02-02T12:59:08Z</time>
      </trkpt>
      <trkpt lat="45.97869" lon="6.55913">
        <ele>1951.7</ele>
        <time>2026-02-02T12:59:09Z</time>
      </trkpt>
      <trkpt lat="45.97869" lon="6.55913">
        <ele>1951.7</ele>
        <time>2026-02-02T12:59:10Z</time>
      </trkpt>
      <trkpt lat="45.97868" lon="6.55913">
        <ele>1951.7</ele>
        <time>2026-02-02T12:59:11Z</time>
      </trkpt>
      <trkpt lat="45.97868" lon="6.55913">
        <ele>1951.8</ele>
        <time>2026-02-02T12:59:12Z</time>
      </trkpt>
      <trkpt lat="45.97868" lon="6.55912">
        <ele>1951.8</ele>
        <time>2026-02-02T12:59:13Z</time>
      </trkpt>
      <trkpt lat="45.97868" lon="6.55912">
        <ele>1951.8</ele>
        <time>2026-02-02T12:59:14Z</time>
      </trkpt>
      <trkpt lat="45.97868" lon="6.55912">
        <ele>1951.8</ele>
        <time>2026-02-02T12:59:15Z</time>
      </trkpt>
      <trkpt lat="45.97867" lon="6.55912">
        <ele>1951.8</ele>
        <time>2026-02-02T12:59:16Z</time>
      </trkpt>
      <trkpt lat="45.97867" lon="6.55912">
        <ele>1951.8</ele>
        <time>2026-02-02T12:59:17Z</time>
      </trkpt>
      <trkpt lat="45.97867" lon="6.55912">
        <ele>1951.8</ele>
        <time>2026-02-02T12:59:18Z</time>
      </trkpt>
      <trkpt lat="45.97864" lon="6.55911">
        <ele>1951.9</ele>
        <time>2026-02-02T12:59:19Z</time>
      </trkpt>
      <trkpt lat="45.97862" lon="6.55911">
        <ele>1952.1</ele>
        <time>2026-02-02T12:59:20Z</time>
      </trkpt>
      <trkpt lat="45.97861" lon="6.55912">
        <ele>1952.1</ele>
        <time>2026-02-02T12:59:21Z</time>
      </trkpt>
      <trkpt lat="45.9786" lon="6.55912">
        <ele>1952.1</ele>
        <time>2026-02-02T12:59:22Z</time>
      </trkpt>
      <trkpt lat="45.97857" lon="6.55912">
        <ele>1952.4</ele>
        <time>2026-02-02T12:59:23Z</time>
      </trkpt>
      <trkpt lat="45.97855" lon="6.55912">
        <ele>1952.6</ele>
        <time>2026-02-02T12:59:24Z</time>
      </trkpt>
      <trkpt lat="45.97853" lon="6.55911">
        <ele>1952.7</ele>
        <time>2026-02-02T12:59:25Z</time>
      </trkpt>
      <trkpt lat="45.97849" lon="6.55911">
        <ele>1952.9</ele>
        <time>2026-02-02T12:59:26Z</time>
      </trkpt>
      <trkpt lat="45.97846" lon="6.5591">
        <ele>1953</ele>
        <time>2026-02-02T12:59:27Z</time>
      </trkpt>
      <trkpt lat="45.97842" lon="6.55907">
        <ele>1951.2</ele>
        <time>2026-02-02T12:59:28Z</time>
      </trkpt>
      <trkpt lat="45.9784" lon="6.55904">
        <ele>1949.7</ele>
        <time>2026-02-02T12:59:29Z</time>
      </trkpt>
      <trkpt lat="45.97839" lon="6.55902">
        <ele>1949.7</ele>
        <time>2026-02-02T12:59:30Z</time>
      </trkpt>
      <trkpt lat="45.97839" lon="6.55902">
        <ele>1949.7</ele>
        <time>2026-02-02T12:59:31Z</time>
      </trkpt>
      <trkpt lat="45.97839" lon="6.55902">
        <ele>1949.7</ele>
        <time>2026-02-02T12:59:32Z</time>
      </trkpt>
      <trkpt lat="45.97839" lon="6.55902">
        <ele>1949.7</ele>
        <time>2026-02-02T12:59:33Z</time>
      </trkpt>
      <trkpt lat="45.97839" lon="6.55902">
        <ele>1949.7</ele>
        <time>2026-02-02T12:59:34Z</time>
      </trkpt>
      <trkpt lat="45.97839" lon="6.55902">
        <ele>1949.7</ele>
        <time>2026-02-02T12:59:35Z</time>
      </trkpt>
      <trkpt lat="45.97839" lon="6.55902">
        <ele>1949.7</ele>
        <time>2026-02-02T12:59:36Z</time>
      </trkpt>
      <trkpt lat="45.97839" lon="6.55901">
        <ele>1948</ele>
        <time>2026-02-02T12:59:37Z</time>
      </trkpt>
      <trkpt lat="45.97839" lon="6.55901">
        <ele>1948</ele>
        <time>2026-02-02T12:59:38Z</time>
      </trkpt>
      <trkpt lat="45.97839" lon="6.55901">
        <ele>1948</ele>
        <time>2026-02-02T12:59:39Z</time>
      </trkpt>
      <trkpt lat="45.97839" lon="6.55901">
        <ele>1948</ele>
        <time>2026-02-02T12:59:40Z</time>
      </trkpt>
      <trkpt lat="45.97839" lon="6.55901">
        <ele>1948</ele>
        <time>2026-02-02T12:59:41Z</time>
      </trkpt>
      <trkpt lat="45.97839" lon="6.559">
        <ele>1948</ele>
        <time>2026-02-02T12:59:42Z</time>
      </trkpt>
      <trkpt lat="45.97838" lon="6.55896">
        <ele>1946.7</ele>
        <time>2026-02-02T12:59:43Z</time>
      </trkpt>
      <trkpt lat="45.97837" lon="6.55895">
        <ele>1946.7</ele>
        <time>2026-02-02T12:59:44Z</time>
      </trkpt>
      <trkpt lat="45.97835" lon="6.55892">
        <ele>1945.4</ele>
        <time>2026-02-02T12:59:45Z</time>
      </trkpt>
      <trkpt lat="45.97833" lon="6.5589">
        <ele>1945.9</ele>
        <time>2026-02-02T12:59:46Z</time>
      </trkpt>
      <trkpt lat="45.9783" lon="6.55887">
        <ele>1944.1</ele>
        <time>2026-02-02T12:59:47Z</time>
      </trkpt>
      <trkpt lat="45.97831" lon="6.5588">
        <ele>1941</ele>
        <time>2026-02-02T12:59:48Z</time>
      </trkpt>
      <trkpt lat="45.97833" lon="6.55875">
        <ele>1936.4</ele>
        <time>2026-02-02T12:59:49Z</time>
      </trkpt>
      <trkpt lat="45.97835" lon="6.55872">
        <ele>1936.4</ele>
        <time>2026-02-02T12:59:50Z</time>
      </trkpt>
      <trkpt lat="45.97833" lon="6.55868">
        <ele>1934.4</ele>
        <time>2026-02-02T12:59:51Z</time>
      </trkpt>
      <trkpt lat="45.97829" lon="6.55865">
        <ele>1933.8</ele>
        <time>2026-02-02T12:59:52Z</time>
      </trkpt>
      <trkpt lat="45.97826" lon="6.55865">
        <ele>1934.5</ele>
        <time>2026-02-02T12:59:53Z</time>
      </trkpt>
      <trkpt lat="45.97822" lon="6.55863">
        <ele>1935.2</ele>
        <time>2026-02-02T12:59:54Z</time>
      </trkpt>
      <trkpt lat="45.97818" lon="6.55859">
        <ele>1934</ele>
        <time>2026-02-02T12:59:55Z</time>
      </trkpt>
      <trkpt lat="45.97815" lon="6.55855">
        <ele>1933.1</ele>
        <time>2026-02-02T12:59:56Z</time>
      </trkpt>
      <trkpt lat="45.97813" lon="6.55851">
        <ele>1932.3</ele>
        <time>2026-02-02T12:59:57Z</time>
      </trkpt>
      <trkpt lat="45.97812" lon="6.55849">
        <ele>1930.6</ele>
        <time>2026-02-02T12:59:58Z</time>
      </trkpt>
      <trkpt lat="45.97812" lon="6.55847">
        <ele>1931.6</ele>
        <time>2026-02-02T12:59:59Z</time>
      </trkpt>
      <trkpt lat="45.9781" lon="6.55843">
        <ele>1929.9</ele>
        <time>2026-02-02T13:00:00Z</time>
      </trkpt>
      <trkpt lat="45.97809" lon="6.55841">
        <ele>1928.1</ele>
        <time>2026-02-02T13:00:01Z</time>
      </trkpt>
      <trkpt lat="45.97808" lon="6.55836">
        <ele>1927.4</ele>
        <time>2026-02-02T13:00:02Z</time>
      </trkpt>
      <trkpt lat="45.97809" lon="6.55831">
        <ele>1924.4</ele>
        <time>2026-02-02T13:00:03Z</time>
      </trkpt>
      <trkpt lat="45.97814" lon="6.55827">
        <ele>1921.3</ele>
        <time>2026-02-02T13:00:04Z</time>
      </trkpt>
      <trkpt lat="45.97821" lon="6.55825">
        <ele>1918.2</ele>
        <time>2026-02-02T13:00:05Z</time>
      </trkpt>
      <trkpt lat="45.97827" lon="6.55822">
        <ele>1914.5</ele>
        <time>2026-02-02T13:00:06Z</time>
      </trkpt>
      <trkpt lat="45.97834" lon="6.55819">
        <ele>1911</ele>
        <time>2026-02-02T13:00:07Z</time>
      </trkpt>
      <trkpt lat="45.97839" lon="6.5582">
        <ele>1911.1</ele>
        <time>2026-02-02T13:00:08Z</time>
      </trkpt>
      <trkpt lat="45.97843" lon="6.5582">
        <ele>1910.5</ele>
        <time>2026-02-02T13:00:09Z</time>
      </trkpt>
      <trkpt lat="45.97847" lon="6.5582">
        <ele>1909.9</ele>
        <time>2026-02-02T13:00:10Z</time>
      </trkpt>
      <trkpt lat="45.97851" lon="6.55819">
        <ele>1907.3</ele>
        <time>2026-02-02T13:00:11Z</time>
      </trkpt>
      <trkpt lat="45.97857" lon="6.55818">
        <ele>1906.2</ele>
        <time>2026-02-02T13:00:12Z</time>
      </trkpt>
      <trkpt lat="45.97861" lon="6.55819">
        <ele>1905.6</ele>
        <time>2026-02-02T13:00:13Z</time>
      </trkpt>
      <trkpt lat="45.97865" lon="6.55818">
        <ele>1905.1</ele>
        <time>2026-02-02T13:00:14Z</time>
      </trkpt>
      <trkpt lat="45.97867" lon="6.55814">
        <ele>1902.9</ele>
        <time>2026-02-02T13:00:15Z</time>
      </trkpt>
      <trkpt lat="45.97867" lon="6.55808">
        <ele>1901.1</ele>
        <time>2026-02-02T13:00:16Z</time>
      </trkpt>
      <trkpt lat="45.97866" lon="6.55802">
        <ele>1897.6</ele>
        <time>2026-02-02T13:00:17Z</time>
      </trkpt>
      <trkpt lat="45.97868" lon="6.55799">
        <ele>1897.6</ele>
        <time>2026-02-02T13:00:18Z</time>
      </trkpt>
      <trkpt lat="45.97869" lon="6.55793">
        <ele>1893.3</ele>
        <time>2026-02-02T13:00:19Z</time>
      </trkpt>
      <trkpt lat="45.97867" lon="6.55788">
        <ele>1891.9</ele>
        <time>2026-02-02T13:00:20Z</time>
      </trkpt>
      <trkpt lat="45.97868" lon="6.55783">
        <ele>1889.9</ele>
        <time>2026-02-02T13:00:21Z</time>
      </trkpt>
      <trkpt lat="45.97871" lon="6.5578">
        <ele>1887.3</ele>
        <time>2026-02-02T13:00:22Z</time>
      </trkpt>
      <trkpt lat="45.97873" lon="6.55775">
        <ele>1884.7</ele>
        <time>2026-02-02T13:00:23Z</time>
      </trkpt>
      <trkpt lat="45.97871" lon="6.55769">
        <ele>1882.9</ele>
        <time>2026-02-02T13:00:24Z</time>
      </trkpt>
      <trkpt lat="45.97868" lon="6.55764">
        <ele>1882.7</ele>
        <time>2026-02-02T13:00:25Z</time>
      </trkpt>
      <trkpt lat="45.97865" lon="6.55758">
        <ele>1880.4</ele>
        <time>2026-02-02T13:00:26Z</time>
      </trkpt>
      <trkpt lat="45.97863" lon="6.55753">
        <ele>1878.7</ele>
        <time>2026-02-02T13:00:27Z</time>
      </trkpt>
      <trkpt lat="45.97862" lon="6.55746">
        <ele>1876.4</ele>
        <time>2026-02-02T13:00:28Z</time>
      </trkpt>
      <trkpt lat="45.97865" lon="6.55743">
        <ele>1875.2</ele>
        <time>2026-02-02T13:00:29Z</time>
      </trkpt>
      <trkpt lat="45.97869" lon="6.55743">
        <ele>1873.3</ele>
        <time>2026-02-02T13:00:30Z</time>
      </trkpt>
      <trkpt lat="45.97872" lon="6.55744">
        <ele>1872.4</ele>
        <time>2026-02-02T13:00:31Z</time>
      </trkpt>
      <trkpt lat="45.97873" lon="6.5574">
        <ele>1870.6</ele>
        <time>2026-02-02T13:00:32Z</time>
      </trkpt>
      <trkpt lat="45.97874" lon="6.55734">
        <ele>1867.1</ele>
        <time>2026-02-02T13:00:33Z</time>
      </trkpt>
      <trkpt lat="45.97873" lon="6.55726">
        <ele>1865.5</ele>
        <time>2026-02-02T13:00:34Z</time>
      </trkpt>
      <trkpt lat="45.97875" lon="6.55723">
        <ele>1862.9</ele>
        <time>2026-02-02T13:00:35Z</time>
      </trkpt>
      <trkpt lat="45.97876" lon="6.55717">
        <ele>1861.3</ele>
        <time>2026-02-02T13:00:36Z</time>
      </trkpt>
      <trkpt lat="45.97875" lon="6.55717">
        <ele>1861.3</ele>
        <time>2026-02-02T13:00:37Z</time>
      </trkpt>
      <trkpt lat="45.97873" lon="6.55718">
        <ele>1862.3</ele>
        <time>2026-02-02T13:00:38Z</time>
      </trkpt>
      <trkpt lat="45.97872" lon="6.55721">
        <ele>1862.3</ele>
        <time>2026-02-02T13:00:39Z</time>
      </trkpt>
      <trkpt lat="45.97872" lon="6.55721">
        <ele>1862.3</ele>
        <time>2026-02-02T13:00:40Z</time>
      </trkpt>
      <trkpt lat="45.97872" lon="6.55721">
        <ele>1862.3</ele>
        <time>2026-02-02T13:00:41Z</time>
      </trkpt>
      <trkpt lat="45.97873" lon="6.55721">
        <ele>1863.9</ele>
        <time>2026-02-02T13:00:42Z</time>
      </trkpt>
      <trkpt lat="45.97874" lon="6.55722">
        <ele>1862.9</ele>
        <time>2026-02-02T13:00:43Z</time>
      </trkpt>
      <trkpt lat="45.97875" lon="6.5572">
        <ele>1861.3</ele>
        <time>2026-02-02T13:00:44Z</time>
      </trkpt>
      <trkpt lat="45.97875" lon="6.5572">
        <ele>1861.3</ele>
        <time>2026-02-02T13:00:45Z</time>
      </trkpt>
      <trkpt lat="45.97875" lon="6.55719">
        <ele>1861.3</ele>
        <time>2026-02-02T13:00:46Z</time>
      </trkpt>
      <trkpt lat="45.97875" lon="6.55718">
        <ele>1861.3</ele>
        <time>2026-02-02T13:00:47Z</time>
      </trkpt>
      <trkpt lat="45.97875" lon="6.55718">
        <ele>1861.3</ele>
        <time>2026-02-02T13:00:48Z</time>
      </trkpt>
      <trkpt lat="45.97876" lon="6.55717">
        <ele>1861.3</ele>
        <time>2026-02-02T13:00:49Z</time>
      </trkpt>
      <trkpt lat="45.97876" lon="6.55716">
        <ele>1859.8</ele>
        <time>2026-02-02T13:00:50Z</time>
      </trkpt>
      <trkpt lat="45.97876" lon="6.55716">
        <ele>1859.8</ele>
        <time>2026-02-02T13:00:51Z</time>
      </trkpt>
      <trkpt lat="45.97876" lon="6.55715">
        <ele>1859.8</ele>
        <time>2026-02-02T13:00:52Z</time>
      </trkpt>
      <trkpt lat="45.97879" lon="6.5571">
        <ele>1857.1</ele>
        <time>2026-02-02T13:00:53Z</time>
      </trkpt>
      <trkpt lat="45.97883" lon="6.55708">
        <ele>1856</ele>
        <time>2026-02-02T13:00:54Z</time>
      </trkpt>
      <trkpt lat="45.97886" lon="6.55707">
        <ele>1853.1</ele>
        <time>2026-02-02T13:00:55Z</time>
      </trkpt>
      <trkpt lat="45.97887" lon="6.55703">
        <ele>1850.1</ele>
        <time>2026-02-02T13:00:56Z</time>
      </trkpt>
      <trkpt lat="45.97888" lon="6.55694">
        <ele>1846.3</ele>
        <time>2026-02-02T13:00:57Z</time>
      </trkpt>
      <trkpt lat="45.97893" lon="6.55694">
        <ele>1843.8</ele>
        <time>2026-02-02T13:00:58Z</time>
      </trkpt>
      <trkpt lat="45.97894" lon="6.55695">
        <ele>1843.8</ele>
        <time>2026-02-02T13:00:59Z</time>
      </trkpt>
      <trkpt lat="45.97897" lon="6.55693">
        <ele>1842.6</ele>
        <time>2026-02-02T13:01:00Z</time>
      </trkpt>
      <trkpt lat="45.97902" lon="6.55694">
        <ele>1840.2</ele>
        <time>2026-02-02T13:01:01Z</time>
      </trkpt>
      <trkpt lat="45.97906" lon="6.55696">
        <ele>1841</ele>
        <time>2026-02-02T13:01:02Z</time>
      </trkpt>
      <trkpt lat="45.97911" lon="6.55696">
        <ele>1838.7</ele>
        <time>2026-02-02T13:01:03Z</time>
      </trkpt>
      <trkpt lat="45.97915" lon="6.55696">
        <ele>1837.5</ele>
        <time>2026-02-02T13:01:04Z</time>
      </trkpt>
      <trkpt lat="45.97921" lon="6.55694">
        <ele>1832.9</ele>
        <time>2026-02-02T13:01:05Z</time>
      </trkpt>
      <trkpt lat="45.9793" lon="6.55691">
        <ele>1829.3</ele>
        <time>2026-02-02T13:01:06Z</time>
      </trkpt>
      <trkpt lat="45.97938" lon="6.55689">
        <ele>1824.3</ele>
        <time>2026-02-02T13:01:07Z</time>
      </trkpt>
      <trkpt lat="45.97945" lon="6.55689">
        <ele>1821.8</ele>
        <time>2026-02-02T13:01:08Z</time>
      </trkpt>
      <trkpt lat="45.9795" lon="6.5569">
        <ele>1819.4</ele>
        <time>2026-02-02T13:01:09Z</time>
      </trkpt>
      <trkpt lat="45.97954" lon="6.55692">
        <ele>1820.2</ele>
        <time>2026-02-02T13:01:10Z</time>
      </trkpt>
      <trkpt lat="45.97958" lon="6.55693">
        <ele>1819.2</ele>
        <time>2026-02-02T13:01:11Z</time>
      </trkpt>
      <trkpt lat="45.9796" lon="6.55694">
        <ele>1818.2</ele>
        <time>2026-02-02T13:01:12Z</time>
      </trkpt>
      <trkpt lat="45.97962" lon="6.55696">
        <ele>1819.2</ele>
        <time>2026-02-02T13:01:13Z</time>
      </trkpt>
      <trkpt lat="45.97964" lon="6.55696">
        <ele>1819.2</ele>
        <time>2026-02-02T13:01:14Z</time>
      </trkpt>
      <trkpt lat="45.97965" lon="6.55695">
        <ele>1818</ele>
        <time>2026-02-02T13:01:15Z</time>
      </trkpt>
      <trkpt lat="45.97966" lon="6.55696">
        <ele>1818</ele>
        <time>2026-02-02T13:01:16Z</time>
      </trkpt>
      <trkpt lat="45.97966" lon="6.55696">
        <ele>1818</ele>
        <time>2026-02-02T13:01:17Z</time>
      </trkpt>
      <trkpt lat="45.97966" lon="6.55696">
        <ele>1818</ele>
        <time>2026-02-02T13:01:18Z</time>
      </trkpt>
      <trkpt lat="45.97966" lon="6.55696">
        <ele>1818</ele>
        <time>2026-02-02T13:01:19Z</time>
      </trkpt>
      <trkpt lat="45.97966" lon="6.55696">
        <ele>1818</ele>
        <time>2026-02-02T13:01:20Z</time>
      </trkpt>
      <trkpt lat="45.97966" lon="6.55696">
        <ele>1818</ele>
        <time>2026-02-02T13:01:21Z</time>
      </trkpt>
      <trkpt lat="45.97966" lon="6.55697">
        <ele>1818</ele>
        <time>2026-02-02T13:01:22Z</time>
      </trkpt>
      <trkpt lat="45.97966" lon="6.55697">
        <ele>1818</ele>
        <time>2026-02-02T13:01:23Z</time>
      </trkpt>
      <trkpt lat="45.97966" lon="6.55697">
        <ele>1818</ele>
        <time>2026-02-02T13:01:24Z</time>
      </trkpt>
      <trkpt lat="45.97966" lon="6.55697">
        <ele>1818</ele>
        <time>2026-02-02T13:01:25Z</time>
      </trkpt>
      <trkpt lat="45.97966" lon="6.55697">
        <ele>1818</ele>
        <time>2026-02-02T13:01:26Z</time>
      </trkpt>
      <trkpt lat="45.97966" lon="6.55697">
        <ele>1818</ele>
        <time>2026-02-02T13:01:27Z</time>
      </trkpt>
      <trkpt lat="45.97966" lon="6.55697">
        <ele>1818</ele>
        <time>2026-02-02T13:01:28Z</time>
      </trkpt>
      <trkpt lat="45.97966" lon="6.55697">
        <ele>1818</ele>
        <time>2026-02-02T13:01:29Z</time>
      </trkpt>
      <trkpt lat="45.97966" lon="6.55697">
        <ele>1818</ele>
        <time>2026-02-02T13:01:30Z</time>
      </trkpt>
      <trkpt lat="45.97966" lon="6.55697">
        <ele>1818</ele>
        <time>2026-02-02T13:01:31Z</time>
      </trkpt>
      <trkpt lat="45.97966" lon="6.55697">
        <ele>1818</ele>
        <time>2026-02-02T13:01:32Z</time>
      </trkpt>
      <trkpt lat="45.97966" lon="6.55697">
        <ele>1818</ele>
        <time>2026-02-02T13:01:33Z</time>
      </trkpt>
      <trkpt lat="45.97966" lon="6.55697">
        <ele>1818</ele>
        <time>2026-02-02T13:01:34Z</time>
      </trkpt>
      <trkpt lat="45.97966" lon="6.55697">
        <ele>1818</ele>
        <time>2026-02-02T13:01:35Z</time>
      </trkpt>
      <trkpt lat="45.97966" lon="6.55697">
        <ele>1818</ele>
        <time>2026-02-02T13:01:36Z</time>
      </trkpt>
      <trkpt lat="45.97966" lon="6.55697">
        <ele>1818</ele>
        <time>2026-02-02T13:01:37Z</time>
      </trkpt>
      <trkpt lat="45.97966" lon="6.55697">
        <ele>1818</ele>
        <time>2026-02-02T13:01:38Z</time>
      </trkpt>
      <trkpt lat="45.97966" lon="6.55697">
        <ele>1818</ele>
        <time>2026-02-02T13:01:39Z</time>
      </trkpt>
      <trkpt lat="45.97966" lon="6.55697">
        <ele>1818</ele>
        <time>2026-02-02T13:01:40Z</time>
      </trkpt>
      <trkpt lat="45.97966" lon="6.55697">
        <ele>1818</ele>
        <time>2026-02-02T13:01:41Z</time>
      </trkpt>
      <trkpt lat="45.97966" lon="6.55697">
        <ele>1818</ele>
        <time>2026-02-02T13:01:42Z</time>
      </trkpt>
      <trkpt lat="45.97966" lon="6.55697">
        <ele>1818</ele>
        <time>2026-02-02T13:01:43Z</time>
      </trkpt>
      <trkpt lat="45.97966" lon="6.55697">
        <ele>1818</ele>
        <time>2026-02-02T13:01:44Z</time>
      </trkpt>
      <trkpt lat="45.97966" lon="6.55697">
        <ele>1818</ele>
        <time>2026-02-02T13:01:45Z</time>
      </trkpt>
      <trkpt lat="45.97966" lon="6.55697">
        <ele>1818</ele>
        <time>2026-02-02T13:01:46Z</time>
      </trkpt>
      <trkpt lat="45.97966" lon="6.55697">
        <ele>1818</ele>
        <time>2026-02-02T13:01:47Z</time>
      </trkpt>
      <trkpt lat="45.97966" lon="6.55697">
        <ele>1818</ele>
        <time>2026-02-02T13:01:48Z</time>
      </trkpt>
      <trkpt lat="45.97966" lon="6.55696">
        <ele>1818</ele>
        <time>2026-02-02T13:01:49Z</time>
      </trkpt>
      <trkpt lat="45.97966" lon="6.55696">
        <ele>1818</ele>
        <time>2026-02-02T13:01:50Z</time>
      </trkpt>
      <trkpt lat="45.97966" lon="6.55696">
        <ele>1818</ele>
        <time>2026-02-02T13:01:51Z</time>
      </trkpt>
      <trkpt lat="45.97966" lon="6.55696">
        <ele>1818</ele>
        <time>2026-02-02T13:01:52Z</time>
      </trkpt>
      <trkpt lat="45.97966" lon="6.55696">
        <ele>1818</ele>
        <time>2026-02-02T13:01:53Z</time>
      </trkpt>
      <trkpt lat="45.97966" lon="6.55696">
        <ele>1818</ele>
        <time>2026-02-02T13:01:54Z</time>
      </trkpt>
      <trkpt lat="45.97966" lon="6.55696">
        <ele>1818</ele>
        <time>2026-02-02T13:01:55Z</time>
      </trkpt>
      <trkpt lat="45.97966" lon="6.55696">
        <ele>1818</ele>
        <time>2026-02-02T13:01:56Z</time>
      </trkpt>
      <trkpt lat="45.97966" lon="6.55696">
        <ele>1818</ele>
        <time>2026-02-02T13:01:57Z</time>
      </trkpt>
      <trkpt lat="45.97966" lon="6.55696">
        <ele>1818</ele>
        <time>2026-02-02T13:01:58Z</time>
      </trkpt>
      <trkpt lat="45.97966" lon="6.55696">
        <ele>1818</ele>
        <time>2026-02-02T13:01:59Z</time>
      </trkpt>
      <trkpt lat="45.97966" lon="6.55696">
        <ele>1818</ele>
        <time>2026-02-02T13:02:00Z</time>
      </trkpt>
      <trkpt lat="45.97966" lon="6.55697">
        <ele>1818</ele>
        <time>2026-02-02T13:02:01Z</time>
      </trkpt>
      <trkpt lat="45.97966" lon="6.55697">
        <ele>1818</ele>
        <time>2026-02-02T13:02:02Z</time>
      </trkpt>
      <trkpt lat="45.97966" lon="6.55697">
        <ele>1818</ele>
        <time>2026-02-02T13:02:03Z</time>
      </trkpt>
      <trkpt lat="45.97966" lon="6.55697">
        <ele>1818</ele>
        <time>2026-02-02T13:02:04Z</time>
      </trkpt>
      <trkpt lat="45.97965" lon="6.55697">
        <ele>1818</ele>
        <time>2026-02-02T13:02:05Z</time>
      </trkpt>
      <trkpt lat="45.97965" lon="6.55697">
        <ele>1818</ele>
        <time>2026-02-02T13:02:06Z</time>
      </trkpt>
      <trkpt lat="45.97965" lon="6.55698">
        <ele>1818</ele>
        <time>2026-02-02T13:02:07Z</time>
      </trkpt>
      <trkpt lat="45.97965" lon="6.55698">
        <ele>1818</ele>
        <time>2026-02-02T13:02:08Z</time>
      </trkpt>
      <trkpt lat="45.97965" lon="6.55698">
        <ele>1818</ele>
        <time>2026-02-02T13:02:09Z</time>
      </trkpt>
      <trkpt lat="45.97964" lon="6.55697">
        <ele>1818</ele>
        <time>2026-02-02T13:02:10Z</time>
      </trkpt>
      <trkpt lat="45.97965" lon="6.55697">
        <ele>1818</ele>
        <time>2026-02-02T13:02:11Z</time>
      </trkpt>
      <trkpt lat="45.97965" lon="6.55694">
        <ele>1816</ele>
        <time>2026-02-02T13:02:12Z</time>
      </trkpt>
      <trkpt lat="45.97963" lon="6.55691">
        <ele>1817.1</ele>
        <time>2026-02-02T13:02:13Z</time>
      </trkpt>
      <trkpt lat="45.97961" lon="6.55687">
        <ele>1815.2</ele>
        <time>2026-02-02T13:02:14Z</time>
      </trkpt>
      <trkpt lat="45.9796" lon="6.55684">
        <ele>1814.4</ele>
        <time>2026-02-02T13:02:15Z</time>
      </trkpt>
      <trkpt lat="45.97958" lon="6.5568">
        <ele>1812.7</ele>
        <time>2026-02-02T13:02:16Z</time>
      </trkpt>
      <trkpt lat="45.97957" lon="6.55679">
        <ele>1813.7</ele>
        <time>2026-02-02T13:02:17Z</time>
      </trkpt>
      <trkpt lat="45.97956" lon="6.55674">
        <ele>1812.1</ele>
        <time>2026-02-02T13:02:18Z</time>
      </trkpt>
      <trkpt lat="45.97955" lon="6.55672">
        <ele>1810.4</ele>
        <time>2026-02-02T13:02:19Z</time>
      </trkpt>
      <trkpt lat="45.97958" lon="6.5567">
        <ele>1809.4</ele>
        <time>2026-02-02T13:02:20Z</time>
      </trkpt>
      <trkpt lat="45.9796" lon="6.55671">
        <ele>1809.4</ele>
        <time>2026-02-02T13:02:21Z</time>
      </trkpt>
      <trkpt lat="45.97962" lon="6.55672">
        <ele>1808.3</ele>
        <time>2026-02-02T13:02:22Z</time>
      </trkpt>
      <trkpt lat="45.97963" lon="6.55672">
        <ele>1808.3</ele>
        <time>2026-02-02T13:02:23Z</time>
      </trkpt>
      <trkpt lat="45.97967" lon="6.55671">
        <ele>1806</ele>
        <time>2026-02-02T13:02:24Z</time>
      </trkpt>
      <trkpt lat="45.97968" lon="6.55668">
        <ele>1804.3</ele>
        <time>2026-02-02T13:02:25Z</time>
      </trkpt>
      <trkpt lat="45.97966" lon="6.55664">
        <ele>1803.8</ele>
        <time>2026-02-02T13:02:26Z</time>
      </trkpt>
      <trkpt lat="45.97966" lon="6.55663">
        <ele>1803.8</ele>
        <time>2026-02-02T13:02:27Z</time>
      </trkpt>
      <trkpt lat="45.97966" lon="6.55663">
        <ele>1803.8</ele>
        <time>2026-02-02T13:02:28Z</time>
      </trkpt>
      <trkpt lat="45.97965" lon="6.55663">
        <ele>1803.8</ele>
        <time>2026-02-02T13:02:29Z</time>
      </trkpt>
      <trkpt lat="45.97966" lon="6.55662">
        <ele>1803.8</ele>
        <time>2026-02-02T13:02:30Z</time>
      </trkpt>
      <trkpt lat="45.97966" lon="6.55659">
        <ele>1802.1</ele>
        <time>2026-02-02T13:02:31Z</time>
      </trkpt>
      <trkpt lat="45.97965" lon="6.55654">
        <ele>1800.4</ele>
        <time>2026-02-02T13:02:32Z</time>
      </trkpt>
      <trkpt lat="45.97965" lon="6.55653">
        <ele>1800.4</ele>
        <time>2026-02-02T13:02:33Z</time>
      </trkpt>
      <trkpt lat="45.97968" lon="6.55649">
        <ele>1797.6</ele>
        <time>2026-02-02T13:02:34Z</time>
      </trkpt>
      <trkpt lat="45.9797" lon="6.55648">
        <ele>1796.4</ele>
        <time>2026-02-02T13:02:35Z</time>
      </trkpt>
      <trkpt lat="45.97975" lon="6.55651">
        <ele>1795.3</ele>
        <time>2026-02-02T13:02:36Z</time>
      </trkpt>
      <trkpt lat="45.9798" lon="6.55654">
        <ele>1794.8</ele>
        <time>2026-02-02T13:02:37Z</time>
      </trkpt>
      <trkpt lat="45.97985" lon="6.55657">
        <ele>1794.4</ele>
        <time>2026-02-02T13:02:38Z</time>
      </trkpt>
      <trkpt lat="45.97992" lon="6.55659">
        <ele>1792.4</ele>
        <time>2026-02-02T13:02:39Z</time>
      </trkpt>
      <trkpt lat="45.98" lon="6.5566">
        <ele>1789.1</ele>
        <time>2026-02-02T13:02:40Z</time>
      </trkpt>
      <trkpt lat="45.98008" lon="6.55662">
        <ele>1788.4</ele>
        <time>2026-02-02T13:02:41Z</time>
      </trkpt>
      <trkpt lat="45.98015" lon="6.55665">
        <ele>1785.6</ele>
        <time>2026-02-02T13:02:42Z</time>
      </trkpt>
      <trkpt lat="45.98019" lon="6.55667">
        <ele>1786.3</ele>
        <time>2026-02-02T13:02:43Z</time>
      </trkpt>
      <trkpt lat="45.98023" lon="6.55668">
        <ele>1785.3</ele>
        <time>2026-02-02T13:02:44Z</time>
      </trkpt>
      <trkpt lat="45.98028" lon="6.55669">
        <ele>1783.3</ele>
        <time>2026-02-02T13:02:45Z</time>
      </trkpt>
      <trkpt lat="45.98032" lon="6.5567">
        <ele>1783.8</ele>
        <time>2026-02-02T13:02:46Z</time>
      </trkpt>
      <trkpt lat="45.98036" lon="6.55671">
        <ele>1782</ele>
        <time>2026-02-02T13:02:47Z</time>
      </trkpt>
      <trkpt lat="45.9804" lon="6.5567">
        <ele>1781.2</ele>
        <time>2026-02-02T13:02:48Z</time>
      </trkpt>
      <trkpt lat="45.98043" lon="6.55671">
        <ele>1780.4</ele>
        <time>2026-02-02T13:02:49Z</time>
      </trkpt>
      <trkpt lat="45.98047" lon="6.55671">
        <ele>1779.7</ele>
        <time>2026-02-02T13:02:50Z</time>
      </trkpt>
      <trkpt lat="45.98051" lon="6.55674">
        <ele>1778</ele>
        <time>2026-02-02T13:02:51Z</time>
      </trkpt>
      <trkpt lat="45.98055" lon="6.55676">
        <ele>1778.6</ele>
        <time>2026-02-02T13:02:52Z</time>
      </trkpt>
      <trkpt lat="45.98059" lon="6.55678">
        <ele>1779.2</ele>
        <time>2026-02-02T13:02:53Z</time>
      </trkpt>
      <trkpt lat="45.98062" lon="6.55682">
        <ele>1777.6</ele>
        <time>2026-02-02T13:02:54Z</time>
      </trkpt>
      <trkpt lat="45.98065" lon="6.55685">
        <ele>1779.1</ele>
        <time>2026-02-02T13:02:55Z</time>
      </trkpt>
      <trkpt lat="45.98067" lon="6.55688">
        <ele>1779.9</ele>
        <time>2026-02-02T13:02:56Z</time>
      </trkpt>
      <trkpt lat="45.98069" lon="6.55689">
        <ele>1779.1</ele>
        <time>2026-02-02T13:02:57Z</time>
      </trkpt>
      <trkpt lat="45.9807" lon="6.5569">
        <ele>1779.1</ele>
        <time>2026-02-02T13:02:58Z</time>
      </trkpt>
      <trkpt lat="45.98073" lon="6.55693">
        <ele>1780.1</ele>
        <time>2026-02-02T13:02:59Z</time>
      </trkpt>
      <trkpt lat="45.98074" lon="6.55694">
        <ele>1780.1</ele>
        <time>2026-02-02T13:03:00Z</time>
      </trkpt>
      <trkpt lat="45.98079" lon="6.55697">
        <ele>1780.4</ele>
        <time>2026-02-02T13:03:01Z</time>
      </trkpt>
      <trkpt lat="45.98086" lon="6.55699">
        <ele>1779.7</ele>
        <time>2026-02-02T13:03:02Z</time>
      </trkpt>
      <trkpt lat="45.98093" lon="6.55698">
        <ele>1776.3</ele>
        <time>2026-02-02T13:03:03Z</time>
      </trkpt>
      <trkpt lat="45.98098" lon="6.55691">
        <ele>1771.4</ele>
        <time>2026-02-02T13:03:04Z</time>
      </trkpt>
      <trkpt lat="45.98101" lon="6.5568">
        <ele>1767.4</ele>
        <time>2026-02-02T13:03:05Z</time>
      </trkpt>
      <trkpt lat="45.98103" lon="6.55673">
        <ele>1764.3</ele>
        <time>2026-02-02T13:03:06Z</time>
      </trkpt>
      <trkpt lat="45.98104" lon="6.55665">
        <ele>1762.7</ele>
        <time>2026-02-02T13:03:07Z</time>
      </trkpt>
      <trkpt lat="45.98105" lon="6.55659">
        <ele>1758.6</ele>
        <time>2026-02-02T13:03:08Z</time>
      </trkpt>
      <trkpt lat="45.98108" lon="6.55654">
        <ele>1755.8</ele>
        <time>2026-02-02T13:03:09Z</time>
      </trkpt>
      <trkpt lat="45.9811" lon="6.55651">
        <ele>1752.9</ele>
        <time>2026-02-02T13:03:10Z</time>
      </trkpt>
      <trkpt lat="45.98111" lon="6.5565">
        <ele>1752.9</ele>
        <time>2026-02-02T13:03:11Z</time>
      </trkpt>
      <trkpt lat="45.98114" lon="6.55649">
        <ele>1751.8</ele>
        <time>2026-02-02T13:03:12Z</time>
      </trkpt>
      <trkpt lat="45.98117" lon="6.55648">
        <ele>1748.9</ele>
        <time>2026-02-02T13:03:13Z</time>
      </trkpt>
      <trkpt lat="45.98121" lon="6.55646">
        <ele>1748</ele>
        <time>2026-02-02T13:03:14Z</time>
      </trkpt>
      <trkpt lat="45.98126" lon="6.55643">
        <ele>1744.3</ele>
        <time>2026-02-02T13:03:15Z</time>
      </trkpt>
      <trkpt lat="45.98129" lon="6.55642">
        <ele>1743.3</ele>
        <time>2026-02-02T13:03:16Z</time>
      </trkpt>
      <trkpt lat="45.98133" lon="6.55642">
        <ele>1742.3</ele>
        <time>2026-02-02T13:03:17Z</time>
      </trkpt>
      <trkpt lat="45.98134" lon="6.55642">
        <ele>1741.3</ele>
        <time>2026-02-02T13:03:18Z</time>
      </trkpt>
      <trkpt lat="45.98135" lon="6.55641">
        <ele>1741.3</ele>
        <time>2026-02-02T13:03:19Z</time>
      </trkpt>
      <trkpt lat="45.98135" lon="6.55642">
        <ele>1741.3</ele>
        <time>2026-02-02T13:03:20Z</time>
      </trkpt>
      <trkpt lat="45.98135" lon="6.55642">
        <ele>1741.3</ele>
        <time>2026-02-02T13:03:21Z</time>
      </trkpt>
      <trkpt lat="45.98135" lon="6.55642">
        <ele>1741.3</ele>
        <time>2026-02-02T13:03:22Z</time>
      </trkpt>
      <trkpt lat="45.98134" lon="6.55642">
        <ele>1741.3</ele>
        <time>2026-02-02T13:03:23Z</time>
      </trkpt>
      <trkpt lat="45.98134" lon="6.55642">
        <ele>1741.3</ele>
        <time>2026-02-02T13:03:24Z</time>
      </trkpt>
      <trkpt lat="45.98134" lon="6.55642">
        <ele>1741.3</ele>
        <time>2026-02-02T13:03:25Z</time>
      </trkpt>
      <trkpt lat="45.98134" lon="6.55642">
        <ele>1741.3</ele>
        <time>2026-02-02T13:03:26Z</time>
      </trkpt>
      <trkpt lat="45.98135" lon="6.55642">
        <ele>1741.3</ele>
        <time>2026-02-02T13:03:27Z</time>
      </trkpt>
      <trkpt lat="45.98135" lon="6.55641">
        <ele>1741.3</ele>
        <time>2026-02-02T13:03:28Z</time>
      </trkpt>
      <trkpt lat="45.98136" lon="6.55641">
        <ele>1741.3</ele>
        <time>2026-02-02T13:03:29Z</time>
      </trkpt>
      <trkpt lat="45.98138" lon="6.55641">
        <ele>1740.2</ele>
        <time>2026-02-02T13:03:30Z</time>
      </trkpt>
      <trkpt lat="45.98139" lon="6.55641">
        <ele>1740.2</ele>
        <time>2026-02-02T13:03:31Z</time>
      </trkpt>
      <trkpt lat="45.9814" lon="6.55642">
        <ele>1739.1</ele>
        <time>2026-02-02T13:03:32Z</time>
      </trkpt>
      <trkpt lat="45.98144" lon="6.55643">
        <ele>1738.1</ele>
        <time>2026-02-02T13:03:33Z</time>
      </trkpt>
      <trkpt lat="45.98145" lon="6.55644">
        <ele>1739.9</ele>
        <time>2026-02-02T13:03:34Z</time>
      </trkpt>
      <trkpt lat="45.98148" lon="6.55645">
        <ele>1738.8</ele>
        <time>2026-02-02T13:03:35Z</time>
      </trkpt>
      <trkpt lat="45.98153" lon="6.55647">
        <ele>1736.6</ele>
        <time>2026-02-02T13:03:36Z</time>
      </trkpt>
      <trkpt lat="45.98157" lon="6.5565">
        <ele>1737.3</ele>
        <time>2026-02-02T13:03:37Z</time>
      </trkpt>
      <trkpt lat="45.98159" lon="6.55653">
        <ele>1737.8</ele>
        <time>2026-02-02T13:03:38Z</time>
      </trkpt>
      <trkpt lat="45.98161" lon="6.55657">
        <ele>1738.3</ele>
        <time>2026-02-02T13:03:39Z</time>
      </trkpt>
      <trkpt lat="45.98161" lon="6.55658">
        <ele>1738.3</ele>
        <time>2026-02-02T13:03:40Z</time>
      </trkpt>
      <trkpt lat="45.98161" lon="6.55659">
        <ele>1738.3</ele>
        <time>2026-02-02T13:03:41Z</time>
      </trkpt>
      <trkpt lat="45.98162" lon="6.55659">
        <ele>1738.3</ele>
        <time>2026-02-02T13:03:42Z</time>
      </trkpt>
      <trkpt lat="45.98162" lon="6.5566">
        <ele>1738.3</ele>
        <time>2026-02-02T13:03:43Z</time>
      </trkpt>
      <trkpt lat="45.98163" lon="6.5566">
        <ele>1738.3</ele>
        <time>2026-02-02T13:03:44Z</time>
      </trkpt>
      <trkpt lat="45.98163" lon="6.55661">
        <ele>1738.3</ele>
        <time>2026-02-02T13:03:45Z</time>
      </trkpt>
      <trkpt lat="45.98163" lon="6.55662">
        <ele>1739.9</ele>
        <time>2026-02-02T13:03:46Z</time>
      </trkpt>
      <trkpt lat="45.98164" lon="6.55663">
        <ele>1738.6</ele>
        <time>2026-02-02T13:03:47Z</time>
      </trkpt>
      <trkpt lat="45.98164" lon="6.55663">
        <ele>1738.6</ele>
        <time>2026-02-02T13:03:48Z</time>
      </trkpt>
      <trkpt lat="45.98165" lon="6.55663">
        <ele>1738.6</ele>
        <time>2026-02-02T13:03:49Z</time>
      </trkpt>
      <trkpt lat="45.98165" lon="6.55664">
        <ele>1738.6</ele>
        <time>2026-02-02T13:03:50Z</time>
      </trkpt>
      <trkpt lat="45.98166" lon="6.55664">
        <ele>1738.6</ele>
        <time>2026-02-02T13:03:51Z</time>
      </trkpt>
      <trkpt lat="45.98166" lon="6.55664">
        <ele>1738.6</ele>
        <time>2026-02-02T13:03:52Z</time>
      </trkpt>
      <trkpt lat="45.98167" lon="6.55666">
        <ele>1738.8</ele>
        <time>2026-02-02T13:03:53Z</time>
      </trkpt>
      <trkpt lat="45.98168" lon="6.55668">
        <ele>1738.8</ele>
        <time>2026-02-02T13:03:54Z</time>
      </trkpt>
      <trkpt lat="45.98168" lon="6.5567">
        <ele>1740.4</ele>
        <time>2026-02-02T13:03:55Z</time>
      </trkpt>
      <trkpt lat="45.98168" lon="6.55671">
        <ele>1740.4</ele>
        <time>2026-02-02T13:03:56Z</time>
      </trkpt>
      <trkpt lat="45.98168" lon="6.55672">
        <ele>1740.4</ele>
        <time>2026-02-02T13:03:57Z</time>
      </trkpt>
      <trkpt lat="45.98168" lon="6.55672">
        <ele>1740.4</ele>
        <time>2026-02-02T13:03:58Z</time>
      </trkpt>
      <trkpt lat="45.98168" lon="6.55673">
        <ele>1740.4</ele>
        <time>2026-02-02T13:03:59Z</time>
      </trkpt>
      <trkpt lat="45.98168" lon="6.55673">
        <ele>1740.4</ele>
        <time>2026-02-02T13:04:00Z</time>
      </trkpt>
      <trkpt lat="45.98169" lon="6.55673">
        <ele>1740.4</ele>
        <time>2026-02-02T13:04:01Z</time>
      </trkpt>
      <trkpt lat="45.98169" lon="6.55673">
        <ele>1740.4</ele>
        <time>2026-02-02T13:04:02Z</time>
      </trkpt>
      <trkpt lat="45.98169" lon="6.55673">
        <ele>1740.4</ele>
        <time>2026-02-02T13:04:03Z</time>
      </trkpt>
      <trkpt lat="45.98169" lon="6.55673">
        <ele>1740.4</ele>
        <time>2026-02-02T13:04:04Z</time>
      </trkpt>
      <trkpt lat="45.98169" lon="6.55673">
        <ele>1740.4</ele>
        <time>2026-02-02T13:04:05Z</time>
      </trkpt>
      <trkpt lat="45.98169" lon="6.55673">
        <ele>1740.4</ele>
        <time>2026-02-02T13:04:06Z</time>
      </trkpt>
      <trkpt lat="45.98169" lon="6.55673">
        <ele>1740.4</ele>
        <time>2026-02-02T13:04:07Z</time>
      </trkpt>
      <trkpt lat="45.98169" lon="6.55673">
        <ele>1740.4</ele>
        <time>2026-02-02T13:04:08Z</time>
      </trkpt>
      <trkpt lat="45.98169" lon="6.55673">
        <ele>1740.4</ele>
        <time>2026-02-02T13:04:09Z</time>
      </trkpt>
      <trkpt lat="45.98169" lon="6.55673">
        <ele>1740.4</ele>
        <time>2026-02-02T13:04:10Z</time>
      </trkpt>
      <trkpt lat="45.98169" lon="6.55673">
        <ele>1740.4</ele>
        <time>2026-02-02T13:04:11Z</time>
      </trkpt>
      <trkpt lat="45.98169" lon="6.55673">
        <ele>1740.4</ele>
        <time>2026-02-02T13:04:12Z</time>
      </trkpt>
      <trkpt lat="45.98168" lon="6.55674">
        <ele>1741.9</ele>
        <time>2026-02-02T13:04:13Z</time>
      </trkpt>
      <trkpt lat="45.98167" lon="6.55673">
        <ele>1740.4</ele>
        <time>2026-02-02T13:04:14Z</time>
      </trkpt>
      <trkpt lat="45.98168" lon="6.55674">
        <ele>1741.9</ele>
        <time>2026-02-02T13:04:15Z</time>
      </trkpt>
      <trkpt lat="45.98168" lon="6.55675">
        <ele>1741.9</ele>
        <time>2026-02-02T13:04:16Z</time>
      </trkpt>
      <trkpt lat="45.98168" lon="6.55675">
        <ele>1741.9</ele>
        <time>2026-02-02T13:04:17Z</time>
      </trkpt>
      <trkpt lat="45.98168" lon="6.55676">
        <ele>1741.9</ele>
        <time>2026-02-02T13:04:18Z</time>
      </trkpt>
      <trkpt lat="45.98168" lon="6.55677">
        <ele>1741.9</ele>
        <time>2026-02-02T13:04:19Z</time>
      </trkpt>
      <trkpt lat="45.98169" lon="6.55678">
        <ele>1743.4</ele>
        <time>2026-02-02T13:04:20Z</time>
      </trkpt>
      <trkpt lat="45.9817" lon="6.55679">
        <ele>1741.2</ele>
        <time>2026-02-02T13:04:21Z</time>
      </trkpt>
      <trkpt lat="45.98171" lon="6.55681">
        <ele>1741.2</ele>
        <time>2026-02-02T13:04:22Z</time>
      </trkpt>
      <trkpt lat="45.98172" lon="6.55682">
        <ele>1742.8</ele>
        <time>2026-02-02T13:04:23Z</time>
      </trkpt>
      <trkpt lat="45.98173" lon="6.55685">
        <ele>1741.5</ele>
        <time>2026-02-02T13:04:24Z</time>
      </trkpt>
      <trkpt lat="45.98174" lon="6.55685">
        <ele>1741.5</ele>
        <time>2026-02-02T13:04:25Z</time>
      </trkpt>
      <trkpt lat="45.98175" lon="6.55687">
        <ele>1743.2</ele>
        <time>2026-02-02T13:04:26Z</time>
      </trkpt>
      <trkpt lat="45.98177" lon="6.55688">
        <ele>1742</ele>
        <time>2026-02-02T13:04:27Z</time>
      </trkpt>
      <trkpt lat="45.98178" lon="6.5569">
        <ele>1742</ele>
        <time>2026-02-02T13:04:28Z</time>
      </trkpt>
      <trkpt lat="45.98182" lon="6.55693">
        <ele>1741.6</ele>
        <time>2026-02-02T13:04:29Z</time>
      </trkpt>
      <trkpt lat="45.98186" lon="6.55698">
        <ele>1742.4</ele>
        <time>2026-02-02T13:04:30Z</time>
      </trkpt>
      <trkpt lat="45.98191" lon="6.55702">
        <ele>1741.7</ele>
        <time>2026-02-02T13:04:31Z</time>
      </trkpt>
      <trkpt lat="45.98194" lon="6.55705">
        <ele>1742.2</ele>
        <time>2026-02-02T13:04:32Z</time>
      </trkpt>
      <trkpt lat="45.98197" lon="6.55707">
        <ele>1741</ele>
        <time>2026-02-02T13:04:33Z</time>
      </trkpt>
      <trkpt lat="45.98201" lon="6.55711">
        <ele>1741.5</ele>
        <time>2026-02-02T13:04:34Z</time>
      </trkpt>
      <trkpt lat="45.98202" lon="6.55712">
        <ele>1741.5</ele>
        <time>2026-02-02T13:04:35Z</time>
      </trkpt>
      <trkpt lat="45.98205" lon="6.55715">
        <ele>1741.9</ele>
        <time>2026-02-02T13:04:36Z</time>
      </trkpt>
      <trkpt lat="45.98208" lon="6.55718">
        <ele>1742.4</ele>
        <time>2026-02-02T13:04:37Z</time>
      </trkpt>
      <trkpt lat="45.98212" lon="6.55721">
        <ele>1741.6</ele>
        <time>2026-02-02T13:04:38Z</time>
      </trkpt>
      <trkpt lat="45.98217" lon="6.55724">
        <ele>1740.5</ele>
        <time>2026-02-02T13:04:39Z</time>
      </trkpt>
      <trkpt lat="45.98221" lon="6.55726">
        <ele>1739.8</ele>
        <time>2026-02-02T13:04:40Z</time>
      </trkpt>
      <trkpt lat="45.98225" lon="6.55729">
        <ele>1738.8</ele>
        <time>2026-02-02T13:04:41Z</time>
      </trkpt>
      <trkpt lat="45.98229" lon="6.55731">
        <ele>1738.5</ele>
        <time>2026-02-02T13:04:42Z</time>
      </trkpt>
      <trkpt lat="45.98234" lon="6.55732">
        <ele>1737.8</ele>
        <time>2026-02-02T13:04:43Z</time>
      </trkpt>
      <trkpt lat="45.9824" lon="6.55733">
        <ele>1736.6</ele>
        <time>2026-02-02T13:04:44Z</time>
      </trkpt>
      <trkpt lat="45.98246" lon="6.55734">
        <ele>1737.2</ele>
        <time>2026-02-02T13:04:45Z</time>
      </trkpt>
      <trkpt lat="45.98251" lon="6.55735">
        <ele>1737.1</ele>
        <time>2026-02-02T13:04:46Z</time>
      </trkpt>
      <trkpt lat="45.98257" lon="6.55734">
        <ele>1737.6</ele>
        <time>2026-02-02T13:04:47Z</time>
      </trkpt>
      <trkpt lat="45.98261" lon="6.55731">
        <ele>1736.8</ele>
        <time>2026-02-02T13:04:48Z</time>
      </trkpt>
      <trkpt lat="45.98265" lon="6.55725">
        <ele>1736.1</ele>
        <time>2026-02-02T13:04:49Z</time>
      </trkpt>
      <trkpt lat="45.98267" lon="6.55719">
        <ele>1734.3</ele>
        <time>2026-02-02T13:04:50Z</time>
      </trkpt>
      <trkpt lat="45.9827" lon="6.55713">
        <ele>1733.8</ele>
        <time>2026-02-02T13:04:51Z</time>
      </trkpt>
      <trkpt lat="45.98274" lon="6.55707">
        <ele>1732.3</ele>
        <time>2026-02-02T13:04:52Z</time>
      </trkpt>
      <trkpt lat="45.98277" lon="6.55702">
        <ele>1732.7</ele>
        <time>2026-02-02T13:04:53Z</time>
      </trkpt>
      <trkpt lat="45.9828" lon="6.55696">
        <ele>1732.1</ele>
        <time>2026-02-02T13:04:54Z</time>
      </trkpt>
      <trkpt lat="45.98284" lon="6.5569">
        <ele>1730.1</ele>
        <time>2026-02-02T13:04:55Z</time>
      </trkpt>
      <trkpt lat="45.98288" lon="6.55685">
        <ele>1729.6</ele>
        <time>2026-02-02T13:04:56Z</time>
      </trkpt>
      <trkpt lat="45.98293" lon="6.55681">
        <ele>1729.9</ele>
        <time>2026-02-02T13:04:57Z</time>
      </trkpt>
      <trkpt lat="45.98296" lon="6.55676">
        <ele>1729.4</ele>
        <time>2026-02-02T13:04:58Z</time>
      </trkpt>
      <trkpt lat="45.98299" lon="6.55672">
        <ele>1729</ele>
        <time>2026-02-02T13:04:59Z</time>
      </trkpt>
      <trkpt lat="45.98301" lon="6.55669">
        <ele>1728.5</ele>
        <time>2026-02-02T13:05:00Z</time>
      </trkpt>
      <trkpt lat="45.98303" lon="6.55665">
        <ele>1727</ele>
        <time>2026-02-02T13:05:01Z</time>
      </trkpt>
      <trkpt lat="45.98305" lon="6.55662">
        <ele>1727.8</ele>
        <time>2026-02-02T13:05:02Z</time>
      </trkpt>
      <trkpt lat="45.98307" lon="6.55657">
        <ele>1727.1</ele>
        <time>2026-02-02T13:05:03Z</time>
      </trkpt>
      <trkpt lat="45.98308" lon="6.55655">
        <ele>1725.4</ele>
        <time>2026-02-02T13:05:04Z</time>
      </trkpt>
      <trkpt lat="45.9831" lon="6.5565">
        <ele>1724.5</ele>
        <time>2026-02-02T13:05:05Z</time>
      </trkpt>
      <trkpt lat="45.98312" lon="6.55646">
        <ele>1722.7</ele>
        <time>2026-02-02T13:05:06Z</time>
      </trkpt>
      <trkpt lat="45.98313" lon="6.5564">
        <ele>1721.7</ele>
        <time>2026-02-02T13:05:07Z</time>
      </trkpt>
      <trkpt lat="45.98315" lon="6.55635">
        <ele>1720</ele>
        <time>2026-02-02T13:05:08Z</time>
      </trkpt>
      <trkpt lat="45.98317" lon="6.5563">
        <ele>1717.4</ele>
        <time>2026-02-02T13:05:09Z</time>
      </trkpt>
      <trkpt lat="45.98319" lon="6.55625">
        <ele>1716.5</ele>
        <time>2026-02-02T13:05:10Z</time>
      </trkpt>
      <trkpt lat="45.98322" lon="6.55619">
        <ele>1714.9</ele>
        <time>2026-02-02T13:05:11Z</time>
      </trkpt>
      <trkpt lat="45.98324" lon="6.55615">
        <ele>1713.9</ele>
        <time>2026-02-02T13:05:12Z</time>
      </trkpt>
      <trkpt lat="45.98325" lon="6.5561">
        <ele>1712.9</ele>
        <time>2026-02-02T13:05:13Z</time>
      </trkpt>
      <trkpt lat="45.98326" lon="6.55605">
        <ele>1709.6</ele>
        <time>2026-02-02T13:05:14Z</time>
      </trkpt>
      <trkpt lat="45.98327" lon="6.55601">
        <ele>1709.6</ele>
        <time>2026-02-02T13:05:15Z</time>
      </trkpt>
      <trkpt lat="45.98329" lon="6.55596">
        <ele>1708.7</ele>
        <time>2026-02-02T13:05:16Z</time>
      </trkpt>
      <trkpt lat="45.9833" lon="6.55591">
        <ele>1705.8</ele>
        <time>2026-02-02T13:05:17Z</time>
      </trkpt>
      <trkpt lat="45.9833" lon="6.5559">
        <ele>1705.8</ele>
        <time>2026-02-02T13:05:18Z</time>
      </trkpt>
      <trkpt lat="45.98331" lon="6.55588">
        <ele>1706.5</ele>
        <time>2026-02-02T13:05:19Z</time>
      </trkpt>
      <trkpt lat="45.98331" lon="6.55587">
        <ele>1705.1</ele>
        <time>2026-02-02T13:05:20Z</time>
      </trkpt>
      <trkpt lat="45.98332" lon="6.55588">
        <ele>1705.1</ele>
        <time>2026-02-02T13:05:21Z</time>
      </trkpt>
      <trkpt lat="45.98331" lon="6.55587">
        <ele>1705.1</ele>
        <time>2026-02-02T13:05:22Z</time>
      </trkpt>
      <trkpt lat="45.98332" lon="6.55586">
        <ele>1705.1</ele>
        <time>2026-02-02T13:05:23Z</time>
      </trkpt>
      <trkpt lat="45.98331" lon="6.55586">
        <ele>1705.1</ele>
        <time>2026-02-02T13:05:24Z</time>
      </trkpt>
      <trkpt lat="45.98331" lon="6.55586">
        <ele>1705.1</ele>
        <time>2026-02-02T13:05:25Z</time>
      </trkpt>
      <trkpt lat="45.98331" lon="6.55586">
        <ele>1705.1</ele>
        <time>2026-02-02T13:05:26Z</time>
      </trkpt>
      <trkpt lat="45.98332" lon="6.55586">
        <ele>1705.1</ele>
        <time>2026-02-02T13:05:27Z</time>
      </trkpt>
      <trkpt lat="45.98332" lon="6.55586">
        <ele>1705.1</ele>
        <time>2026-02-02T13:05:28Z</time>
      </trkpt>
      <trkpt lat="45.98332" lon="6.55586">
        <ele>1705.1</ele>
        <time>2026-02-02T13:05:29Z</time>
      </trkpt>
      <trkpt lat="45.98332" lon="6.55586">
        <ele>1705.1</ele>
        <time>2026-02-02T13:05:30Z</time>
      </trkpt>
      <trkpt lat="45.98332" lon="6.55586">
        <ele>1705.1</ele>
        <time>2026-02-02T13:05:31Z</time>
      </trkpt>
      <trkpt lat="45.98332" lon="6.55586">
        <ele>1705.1</ele>
        <time>2026-02-02T13:05:32Z</time>
      </trkpt>
      <trkpt lat="45.98332" lon="6.55586">
        <ele>1705.1</ele>
        <time>2026-02-02T13:05:33Z</time>
      </trkpt>
      <trkpt lat="45.98332" lon="6.55586">
        <ele>1705.1</ele>
        <time>2026-02-02T13:05:34Z</time>
      </trkpt>
      <trkpt lat="45.98331" lon="6.55587">
        <ele>1705.1</ele>
        <time>2026-02-02T13:05:35Z</time>
      </trkpt>
      <trkpt lat="45.98331" lon="6.55587">
        <ele>1705.1</ele>
        <time>2026-02-02T13:05:36Z</time>
      </trkpt>
      <trkpt lat="45.98331" lon="6.55587">
        <ele>1705.1</ele>
        <time>2026-02-02T13:05:37Z</time>
      </trkpt>
      <trkpt lat="45.98331" lon="6.55587">
        <ele>1705.1</ele>
        <time>2026-02-02T13:05:38Z</time>
      </trkpt>
      <trkpt lat="45.98331" lon="6.55587">
        <ele>1705.1</ele>
        <time>2026-02-02T13:05:39Z</time>
      </trkpt>
      <trkpt lat="45.98331" lon="6.55586">
        <ele>1705.1</ele>
        <time>2026-02-02T13:05:40Z</time>
      </trkpt>
      <trkpt lat="45.98331" lon="6.55586">
        <ele>1705.1</ele>
        <time>2026-02-02T13:05:41Z</time>
      </trkpt>
      <trkpt lat="45.98331" lon="6.55586">
        <ele>1705.1</ele>
        <time>2026-02-02T13:05:42Z</time>
      </trkpt>
      <trkpt lat="45.98332" lon="6.55586">
        <ele>1705.1</ele>
        <time>2026-02-02T13:05:43Z</time>
      </trkpt>
      <trkpt lat="45.98332" lon="6.55585">
        <ele>1705.1</ele>
        <time>2026-02-02T13:05:44Z</time>
      </trkpt>
      <trkpt lat="45.98332" lon="6.55586">
        <ele>1705.1</ele>
        <time>2026-02-02T13:05:45Z</time>
      </trkpt>
      <trkpt lat="45.98332" lon="6.55585">
        <ele>1705.1</ele>
        <time>2026-02-02T13:05:46Z</time>
      </trkpt>
      <trkpt lat="45.98332" lon="6.55585">
        <ele>1705.1</ele>
        <time>2026-02-02T13:05:47Z</time>
      </trkpt>
      <trkpt lat="45.98332" lon="6.55585">
        <ele>1705.1</ele>
        <time>2026-02-02T13:05:48Z</time>
      </trkpt>
      <trkpt lat="45.98332" lon="6.55585">
        <ele>1705.1</ele>
        <time>2026-02-02T13:05:49Z</time>
      </trkpt>
      <trkpt lat="45.98332" lon="6.55585">
        <ele>1705.1</ele>
        <time>2026-02-02T13:05:50Z</time>
      </trkpt>
      <trkpt lat="45.98332" lon="6.55586">
        <ele>1705.1</ele>
        <time>2026-02-02T13:05:51Z</time>
      </trkpt>
      <trkpt lat="45.98332" lon="6.55586">
        <ele>1705.1</ele>
        <time>2026-02-02T13:05:52Z</time>
      </trkpt>
      <trkpt lat="45.98332" lon="6.55586">
        <ele>1705.1</ele>
        <time>2026-02-02T13:05:53Z</time>
      </trkpt>
      <trkpt lat="45.98332" lon="6.55586">
        <ele>1705.1</ele>
        <time>2026-02-02T13:05:54Z</time>
      </trkpt>
      <trkpt lat="45.98332" lon="6.55586">
        <ele>1705.1</ele>
        <time>2026-02-02T13:05:55Z</time>
      </trkpt>
      <trkpt lat="45.98332" lon="6.55586">
        <ele>1705.1</ele>
        <time>2026-02-02T13:05:56Z</time>
      </trkpt>
      <trkpt lat="45.98332" lon="6.55586">
        <ele>1705.1</ele>
        <time>2026-02-02T13:05:57Z</time>
      </trkpt>
      <trkpt lat="45.98332" lon="6.55586">
        <ele>1705.1</ele>
        <time>2026-02-02T13:05:58Z</time>
      </trkpt>
      <trkpt lat="45.98332" lon="6.55586">
        <ele>1705.1</ele>
        <time>2026-02-02T13:05:59Z</time>
      </trkpt>
      <trkpt lat="45.98332" lon="6.55586">
        <ele>1705.1</ele>
        <time>2026-02-02T13:06:00Z</time>
      </trkpt>
      <trkpt lat="45.98331" lon="6.55587">
        <ele>1705.1</ele>
        <time>2026-02-02T13:06:01Z</time>
      </trkpt>
      <trkpt lat="45.98331" lon="6.55586">
        <ele>1705.1</ele>
        <time>2026-02-02T13:06:02Z</time>
      </trkpt>
      <trkpt lat="45.98331" lon="6.55586">
        <ele>1705.1</ele>
        <time>2026-02-02T13:06:03Z</time>
      </trkpt>
      <trkpt lat="45.98331" lon="6.55586">
        <ele>1705.1</ele>
        <time>2026-02-02T13:06:04Z</time>
      </trkpt>
      <trkpt lat="45.98331" lon="6.55586">
        <ele>1705.1</ele>
        <time>2026-02-02T13:06:05Z</time>
      </trkpt>
      <trkpt lat="45.98331" lon="6.55586">
        <ele>1705.1</ele>
        <time>2026-02-02T13:06:06Z</time>
      </trkpt>
      <trkpt lat="45.9833" lon="6.55586">
        <ele>1704.4</ele>
        <time>2026-02-02T13:06:07Z</time>
      </trkpt>
      <trkpt lat="45.9833" lon="6.55586">
        <ele>1704.4</ele>
        <time>2026-02-02T13:06:08Z</time>
      </trkpt>
      <trkpt lat="45.9833" lon="6.55585">
        <ele>1704.4</ele>
        <time>2026-02-02T13:06:09Z</time>
      </trkpt>
      <trkpt lat="45.9833" lon="6.55585">
        <ele>1704.4</ele>
        <time>2026-02-02T13:06:10Z</time>
      </trkpt>
      <trkpt lat="45.9833" lon="6.55585">
        <ele>1704.4</ele>
        <time>2026-02-02T13:06:11Z</time>
      </trkpt>
      <trkpt lat="45.9833" lon="6.55585">
        <ele>1704.4</ele>
        <time>2026-02-02T13:06:12Z</time>
      </trkpt>
      <trkpt lat="45.98331" lon="6.55585">
        <ele>1705.1</ele>
        <time>2026-02-02T13:06:13Z</time>
      </trkpt>
      <trkpt lat="45.98331" lon="6.55585">
        <ele>1705.1</ele>
        <time>2026-02-02T13:06:14Z</time>
      </trkpt>
      <trkpt lat="45.98331" lon="6.55585">
        <ele>1705.1</ele>
        <time>2026-02-02T13:06:15Z</time>
      </trkpt>
      <trkpt lat="45.98331" lon="6.55585">
        <ele>1705.1</ele>
        <time>2026-02-02T13:06:16Z</time>
      </trkpt>
      <trkpt lat="45.98331" lon="6.55585">
        <ele>1705.1</ele>
        <time>2026-02-02T13:06:17Z</time>
      </trkpt>
      <trkpt lat="45.98331" lon="6.55585">
        <ele>1705.1</ele>
        <time>2026-02-02T13:06:18Z</time>
      </trkpt>
      <trkpt lat="45.98331" lon="6.55585">
        <ele>1705.1</ele>
        <time>2026-02-02T13:06:19Z</time>
      </trkpt>
      <trkpt lat="45.98331" lon="6.55585">
        <ele>1705.1</ele>
        <time>2026-02-02T13:06:20Z</time>
      </trkpt>
      <trkpt lat="45.98331" lon="6.55585">
        <ele>1705.1</ele>
        <time>2026-02-02T13:06:21Z</time>
      </trkpt>
      <trkpt lat="45.98331" lon="6.55585">
        <ele>1705.1</ele>
        <time>2026-02-02T13:06:22Z</time>
      </trkpt>
      <trkpt lat="45.98331" lon="6.55585">
        <ele>1705.1</ele>
        <time>2026-02-02T13:06:23Z</time>
      </trkpt>
      <trkpt lat="45.9833" lon="6.55586">
        <ele>1704.4</ele>
        <time>2026-02-02T13:06:24Z</time>
      </trkpt>
      <trkpt lat="45.98329" lon="6.55586">
        <ele>1704.4</ele>
        <time>2026-02-02T13:06:25Z</time>
      </trkpt>
      <trkpt lat="45.98329" lon="6.55586">
        <ele>1704.4</ele>
        <time>2026-02-02T13:06:26Z</time>
      </trkpt>
      <trkpt lat="45.98329" lon="6.55586">
        <ele>1704.4</ele>
        <time>2026-02-02T13:06:27Z</time>
      </trkpt>
      <trkpt lat="45.98329" lon="6.55586">
        <ele>1704.4</ele>
        <time>2026-02-02T13:06:28Z</time>
      </trkpt>
      <trkpt lat="45.98329" lon="6.55586">
        <ele>1704.4</ele>
        <time>2026-02-02T13:06:29Z</time>
      </trkpt>
      <trkpt lat="45.98329" lon="6.55586">
        <ele>1704.4</ele>
        <time>2026-02-02T13:06:30Z</time>
      </trkpt>
      <trkpt lat="45.98329" lon="6.55586">
        <ele>1704.4</ele>
        <time>2026-02-02T13:06:31Z</time>
      </trkpt>
      <trkpt lat="45.98329" lon="6.55586">
        <ele>1704.4</ele>
        <time>2026-02-02T13:06:32Z</time>
      </trkpt>
      <trkpt lat="45.98329" lon="6.55586">
        <ele>1704.4</ele>
        <time>2026-02-02T13:06:33Z</time>
      </trkpt>
      <trkpt lat="45.98329" lon="6.55586">
        <ele>1704.4</ele>
        <time>2026-02-02T13:06:34Z</time>
      </trkpt>
      <trkpt lat="45.98329" lon="6.55586">
        <ele>1704.4</ele>
        <time>2026-02-02T13:06:35Z</time>
      </trkpt>
      <trkpt lat="45.98329" lon="6.55586">
        <ele>1704.4</ele>
        <time>2026-02-02T13:06:36Z</time>
      </trkpt>
      <trkpt lat="45.98329" lon="6.55586">
        <ele>1704.4</ele>
        <time>2026-02-02T13:06:37Z</time>
      </trkpt>
      <trkpt lat="45.98329" lon="6.55586">
        <ele>1704.4</ele>
        <time>2026-02-02T13:06:38Z</time>
      </trkpt>
      <trkpt lat="45.98329" lon="6.55586">
        <ele>1704.4</ele>
        <time>2026-02-02T13:06:39Z</time>
      </trkpt>
      <trkpt lat="45.98329" lon="6.55586">
        <ele>1704.4</ele>
        <time>2026-02-02T13:06:40Z</time>
      </trkpt>
      <trkpt lat="45.98329" lon="6.55586">
        <ele>1704.4</ele>
        <time>2026-02-02T13:06:41Z</time>
      </trkpt>
      <trkpt lat="45.9833" lon="6.55587">
        <ele>1704.4</ele>
        <time>2026-02-02T13:06:42Z</time>
      </trkpt>
      <trkpt lat="45.9833" lon="6.55587">
        <ele>1704.4</ele>
        <time>2026-02-02T13:06:43Z</time>
      </trkpt>
      <trkpt lat="45.9833" lon="6.55587">
        <ele>1704.4</ele>
        <time>2026-02-02T13:06:44Z</time>
      </trkpt>
      <trkpt lat="45.9833" lon="6.55587">
        <ele>1704.4</ele>
        <time>2026-02-02T13:06:45Z</time>
      </trkpt>
      <trkpt lat="45.9833" lon="6.55587">
        <ele>1704.4</ele>
        <time>2026-02-02T13:06:46Z</time>
      </trkpt>
      <trkpt lat="45.9833" lon="6.55587">
        <ele>1704.4</ele>
        <time>2026-02-02T13:06:47Z</time>
      </trkpt>
      <trkpt lat="45.98331" lon="6.55588">
        <ele>1705.8</ele>
        <time>2026-02-02T13:06:48Z</time>
      </trkpt>
      <trkpt lat="45.98331" lon="6.55588">
        <ele>1705.8</ele>
        <time>2026-02-02T13:06:49Z</time>
      </trkpt>
      <trkpt lat="45.98331" lon="6.55588">
        <ele>1705.8</ele>
        <time>2026-02-02T13:06:50Z</time>
      </trkpt>
      <trkpt lat="45.98331" lon="6.55588">
        <ele>1705.8</ele>
        <time>2026-02-02T13:06:51Z</time>
      </trkpt>
      <trkpt lat="45.98331" lon="6.55588">
        <ele>1705.8</ele>
        <time>2026-02-02T13:06:52Z</time>
      </trkpt>
      <trkpt lat="45.98331" lon="6.55588">
        <ele>1705.8</ele>
        <time>2026-02-02T13:06:53Z</time>
      </trkpt>
      <trkpt lat="45.98331" lon="6.55588">
        <ele>1705.8</ele>
        <time>2026-02-02T13:06:54Z</time>
      </trkpt>
      <trkpt lat="45.98331" lon="6.55588">
        <ele>1705.8</ele>
        <time>2026-02-02T13:06:55Z</time>
      </trkpt>
      <trkpt lat="45.98331" lon="6.55588">
        <ele>1705.8</ele>
        <time>2026-02-02T13:06:56Z</time>
      </trkpt>
      <trkpt lat="45.98331" lon="6.55588">
        <ele>1705.8</ele>
        <time>2026-02-02T13:06:57Z</time>
      </trkpt>
      <trkpt lat="45.98331" lon="6.55588">
        <ele>1705.8</ele>
        <time>2026-02-02T13:06:58Z</time>
      </trkpt>
      <trkpt lat="45.98331" lon="6.55588">
        <ele>1706.5</ele>
        <time>2026-02-02T13:06:59Z</time>
      </trkpt>
      <trkpt lat="45.98331" lon="6.55588">
        <ele>1706.5</ele>
        <time>2026-02-02T13:07:00Z</time>
      </trkpt>
      <trkpt lat="45.98331" lon="6.55588">
        <ele>1706.5</ele>
        <time>2026-02-02T13:07:01Z</time>
      </trkpt>
      <trkpt lat="45.98331" lon="6.55588">
        <ele>1706.5</ele>
        <time>2026-02-02T13:07:02Z</time>
      </trkpt>
      <trkpt lat="45.98331" lon="6.55588">
        <ele>1706.5</ele>
        <time>2026-02-02T13:07:03Z</time>
      </trkpt>
      <trkpt lat="45.9833" lon="6.55589">
        <ele>1705.8</ele>
        <time>2026-02-02T13:07:04Z</time>
      </trkpt>
      <trkpt lat="45.9833" lon="6.55589">
        <ele>1705.8</ele>
        <time>2026-02-02T13:07:05Z</time>
      </trkpt>
      <trkpt lat="45.9833" lon="6.55589">
        <ele>1705.8</ele>
        <time>2026-02-02T13:07:06Z</time>
      </trkpt>
      <trkpt lat="45.9833" lon="6.55589">
        <ele>1705.8</ele>
        <time>2026-02-02T13:07:07Z</time>
      </trkpt>
      <trkpt lat="45.9833" lon="6.55589">
        <ele>1705.8</ele>
        <time>2026-02-02T13:07:08Z</time>
      </trkpt>
      <trkpt lat="45.9833" lon="6.55589">
        <ele>1705.8</ele>
        <time>2026-02-02T13:07:09Z</time>
      </trkpt>
      <trkpt lat="45.98331" lon="6.55589">
        <ele>1706.5</ele>
        <time>2026-02-02T13:07:10Z</time>
      </trkpt>
      <trkpt lat="45.98331" lon="6.55588">
        <ele>1705.8</ele>
        <time>2026-02-02T13:07:11Z</time>
      </trkpt>
      <trkpt lat="45.98331" lon="6.55588">
        <ele>1705.8</ele>
        <time>2026-02-02T13:07:12Z</time>
      </trkpt>
      <trkpt lat="45.98331" lon="6.55589">
        <ele>1706.5</ele>
        <time>2026-02-02T13:07:13Z</time>
      </trkpt>
      <trkpt lat="45.98331" lon="6.55589">
        <ele>1706.5</ele>
        <time>2026-02-02T13:07:14Z</time>
      </trkpt>
      <trkpt lat="45.98331" lon="6.55589">
        <ele>1706.5</ele>
        <time>2026-02-02T13:07:15Z</time>
      </trkpt>
      <trkpt lat="45.98331" lon="6.55589">
        <ele>1706.5</ele>
        <time>2026-02-02T13:07:16Z</time>
      </trkpt>
      <trkpt lat="45.98331" lon="6.55589">
        <ele>1706.5</ele>
        <time>2026-02-02T13:07:17Z</time>
      </trkpt>
      <trkpt lat="45.98331" lon="6.55589">
        <ele>1706.5</ele>
        <time>2026-02-02T13:07:18Z</time>
      </trkpt>
      <trkpt lat="45.98331" lon="6.55589">
        <ele>1706.5</ele>
        <time>2026-02-02T13:07:19Z</time>
      </trkpt>
      <trkpt lat="45.98331" lon="6.55589">
        <ele>1706.5</ele>
        <time>2026-02-02T13:07:20Z</time>
      </trkpt>
      <trkpt lat="45.98331" lon="6.55589">
        <ele>1706.5</ele>
        <time>2026-02-02T13:07:21Z</time>
      </trkpt>
      <trkpt lat="45.98331" lon="6.55589">
        <ele>1706.5</ele>
        <time>2026-02-02T13:07:22Z</time>
      </trkpt>
      <trkpt lat="45.98331" lon="6.55589">
        <ele>1706.5</ele>
        <time>2026-02-02T13:07:23Z</time>
      </trkpt>
      <trkpt lat="45.98331" lon="6.55589">
        <ele>1706.5</ele>
        <time>2026-02-02T13:07:24Z</time>
      </trkpt>
      <trkpt lat="45.98331" lon="6.55589">
        <ele>1706.5</ele>
        <time>2026-02-02T13:07:25Z</time>
      </trkpt>
      <trkpt lat="45.98331" lon="6.55589">
        <ele>1706.5</ele>
        <time>2026-02-02T13:07:26Z</time>
      </trkpt>
      <trkpt lat="45.98331" lon="6.55589">
        <ele>1706.5</ele>
        <time>2026-02-02T13:07:27Z</time>
      </trkpt>
      <trkpt lat="45.98331" lon="6.55589">
        <ele>1706.5</ele>
        <time>2026-02-02T13:07:28Z</time>
      </trkpt>
      <trkpt lat="45.98331" lon="6.55589">
        <ele>1706.5</ele>
        <time>2026-02-02T13:07:29Z</time>
      </trkpt>
      <trkpt lat="45.98331" lon="6.55589">
        <ele>1706.5</ele>
        <time>2026-02-02T13:07:30Z</time>
      </trkpt>
      <trkpt lat="45.98331" lon="6.55589">
        <ele>1706.5</ele>
        <time>2026-02-02T13:07:31Z</time>
      </trkpt>
      <trkpt lat="45.98331" lon="6.55589">
        <ele>1706.5</ele>
        <time>2026-02-02T13:07:32Z</time>
      </trkpt>
      <trkpt lat="45.98331" lon="6.55589">
        <ele>1706.5</ele>
        <time>2026-02-02T13:07:33Z</time>
      </trkpt>
      <trkpt lat="45.98331" lon="6.55589">
        <ele>1706.5</ele>
        <time>2026-02-02T13:07:34Z</time>
      </trkpt>
      <trkpt lat="45.98331" lon="6.55589">
        <ele>1706.5</ele>
        <time>2026-02-02T13:07:35Z</time>
      </trkpt>
      <trkpt lat="45.98331" lon="6.55589">
        <ele>1706.5</ele>
        <time>2026-02-02T13:07:36Z</time>
      </trkpt>
      <trkpt lat="45.98331" lon="6.55589">
        <ele>1706.5</ele>
        <time>2026-02-02T13:07:37Z</time>
      </trkpt>
      <trkpt lat="45.98331" lon="6.55589">
        <ele>1706.5</ele>
        <time>2026-02-02T13:07:38Z</time>
      </trkpt>
      <trkpt lat="45.98331" lon="6.55589">
        <ele>1706.5</ele>
        <time>2026-02-02T13:07:39Z</time>
      </trkpt>
      <trkpt lat="45.98331" lon="6.55589">
        <ele>1706.5</ele>
        <time>2026-02-02T13:07:40Z</time>
      </trkpt>
      <trkpt lat="45.98331" lon="6.55589">
        <ele>1706.5</ele>
        <time>2026-02-02T13:07:41Z</time>
      </trkpt>
      <trkpt lat="45.98331" lon="6.55589">
        <ele>1706.5</ele>
        <time>2026-02-02T13:07:42Z</time>
      </trkpt>
      <trkpt lat="45.98331" lon="6.55589">
        <ele>1706.5</ele>
        <time>2026-02-02T13:07:43Z</time>
      </trkpt>
      <trkpt lat="45.98331" lon="6.55589">
        <ele>1706.5</ele>
        <time>2026-02-02T13:07:44Z</time>
      </trkpt>
      <trkpt lat="45.98331" lon="6.55589">
        <ele>1706.5</ele>
        <time>2026-02-02T13:07:45Z</time>
      </trkpt>
      <trkpt lat="45.98331" lon="6.55589">
        <ele>1706.5</ele>
        <time>2026-02-02T13:07:46Z</time>
      </trkpt>
      <trkpt lat="45.98331" lon="6.55589">
        <ele>1706.5</ele>
        <time>2026-02-02T13:07:47Z</time>
      </trkpt>
      <trkpt lat="45.98331" lon="6.55589">
        <ele>1706.5</ele>
        <time>2026-02-02T13:07:48Z</time>
      </trkpt>
      <trkpt lat="45.98331" lon="6.55589">
        <ele>1706.5</ele>
        <time>2026-02-02T13:07:49Z</time>
      </trkpt>
      <trkpt lat="45.98331" lon="6.55589">
        <ele>1706.5</ele>
        <time>2026-02-02T13:07:50Z</time>
      </trkpt>
      <trkpt lat="45.98331" lon="6.55589">
        <ele>1706.5</ele>
        <time>2026-02-02T13:07:51Z</time>
      </trkpt>
      <trkpt lat="45.98331" lon="6.55589">
        <ele>1706.5</ele>
        <time>2026-02-02T13:07:52Z</time>
      </trkpt>
      <trkpt lat="45.98331" lon="6.55589">
        <ele>1706.5</ele>
        <time>2026-02-02T13:07:53Z</time>
      </trkpt>
      <trkpt lat="45.98331" lon="6.55589">
        <ele>1706.5</ele>
        <time>2026-02-02T13:07:54Z</time>
      </trkpt>
      <trkpt lat="45.98331" lon="6.55589">
        <ele>1706.5</ele>
        <time>2026-02-02T13:07:55Z</time>
      </trkpt>
      <trkpt lat="45.98331" lon="6.55589">
        <ele>1706.5</ele>
        <time>2026-02-02T13:07:56Z</time>
      </trkpt>
      <trkpt lat="45.98331" lon="6.55589">
        <ele>1706.5</ele>
        <time>2026-02-02T13:07:57Z</time>
      </trkpt>
      <trkpt lat="45.98331" lon="6.55589">
        <ele>1706.5</ele>
        <time>2026-02-02T13:07:58Z</time>
      </trkpt>
      <trkpt lat="45.98331" lon="6.55589">
        <ele>1706.5</ele>
        <time>2026-02-02T13:07:59Z</time>
      </trkpt>
      <trkpt lat="45.98331" lon="6.55589">
        <ele>1706.5</ele>
        <time>2026-02-02T13:08:00Z</time>
      </trkpt>
      <trkpt lat="45.98331" lon="6.55589">
        <ele>1706.5</ele>
        <time>2026-02-02T13:08:01Z</time>
      </trkpt>
      <trkpt lat="45.98331" lon="6.55589">
        <ele>1706.5</ele>
        <time>2026-02-02T13:08:02Z</time>
      </trkpt>
      <trkpt lat="45.98331" lon="6.55589">
        <ele>1706.5</ele>
        <time>2026-02-02T13:08:03Z</time>
      </trkpt>
      <trkpt lat="45.98331" lon="6.55589">
        <ele>1706.5</ele>
        <time>2026-02-02T13:08:04Z</time>
      </trkpt>
      <trkpt lat="45.98331" lon="6.55589">
        <ele>1706.5</ele>
        <time>2026-02-02T13:08:05Z</time>
      </trkpt>
      <trkpt lat="45.98331" lon="6.55589">
        <ele>1706.5</ele>
        <time>2026-02-02T13:08:06Z</time>
      </trkpt>
      <trkpt lat="45.98331" lon="6.55589">
        <ele>1706.5</ele>
        <time>2026-02-02T13:08:07Z</time>
      </trkpt>
      <trkpt lat="45.98331" lon="6.55589">
        <ele>1706.5</ele>
        <time>2026-02-02T13:08:08Z</time>
      </trkpt>
      <trkpt lat="45.98331" lon="6.55589">
        <ele>1706.5</ele>
        <time>2026-02-02T13:08:09Z</time>
      </trkpt>
      <trkpt lat="45.98331" lon="6.55589">
        <ele>1706.5</ele>
        <time>2026-02-02T13:08:10Z</time>
      </trkpt>
      <trkpt lat="45.98331" lon="6.55589">
        <ele>1706.5</ele>
        <time>2026-02-02T13:08:11Z</time>
      </trkpt>
      <trkpt lat="45.98331" lon="6.55589">
        <ele>1706.5</ele>
        <time>2026-02-02T13:08:12Z</time>
      </trkpt>
      <trkpt lat="45.98331" lon="6.55589">
        <ele>1706.5</ele>
        <time>2026-02-02T13:08:13Z</time>
      </trkpt>
      <trkpt lat="45.98331" lon="6.55589">
        <ele>1706.5</ele>
        <time>2026-02-02T13:08:14Z</time>
      </trkpt>
      <trkpt lat="45.98331" lon="6.55589">
        <ele>1706.5</ele>
        <time>2026-02-02T13:08:15Z</time>
      </trkpt>
      <trkpt lat="45.98331" lon="6.55589">
        <ele>1706.5</ele>
        <time>2026-02-02T13:08:16Z</time>
      </trkpt>
      <trkpt lat="45.98331" lon="6.55589">
        <ele>1706.5</ele>
        <time>2026-02-02T13:08:17Z</time>
      </trkpt>
      <trkpt lat="45.98331" lon="6.55589">
        <ele>1706.5</ele>
        <time>2026-02-02T13:08:18Z</time>
      </trkpt>
      <trkpt lat="45.98331" lon="6.55589">
        <ele>1706.5</ele>
        <time>2026-02-02T13:08:19Z</time>
      </trkpt>
      <trkpt lat="45.98331" lon="6.55589">
        <ele>1706.5</ele>
        <time>2026-02-02T13:08:20Z</time>
      </trkpt>
      <trkpt lat="45.98331" lon="6.55589">
        <ele>1706.5</ele>
        <time>2026-02-02T13:08:21Z</time>
      </trkpt>
      <trkpt lat="45.98331" lon="6.55589">
        <ele>1705.8</ele>
        <time>2026-02-02T13:08:22Z</time>
      </trkpt>
      <trkpt lat="45.98331" lon="6.55588">
        <ele>1706.5</ele>
        <time>2026-02-02T13:08:23Z</time>
      </trkpt>
      <trkpt lat="45.98331" lon="6.55588">
        <ele>1706.5</ele>
        <time>2026-02-02T13:08:24Z</time>
      </trkpt>
      <trkpt lat="45.98331" lon="6.55587">
        <ele>1705.1</ele>
        <time>2026-02-02T13:08:25Z</time>
      </trkpt>
      <trkpt lat="45.98331" lon="6.55587">
        <ele>1705.1</ele>
        <time>2026-02-02T13:08:26Z</time>
      </trkpt>
      <trkpt lat="45.98331" lon="6.55587">
        <ele>1705.1</ele>
        <time>2026-02-02T13:08:27Z</time>
      </trkpt>
      <trkpt lat="45.98331" lon="6.55588">
        <ele>1706.5</ele>
        <time>2026-02-02T13:08:28Z</time>
      </trkpt>
      <trkpt lat="45.98331" lon="6.55588">
        <ele>1706.5</ele>
        <time>2026-02-02T13:08:29Z</time>
      </trkpt>
      <trkpt lat="45.98331" lon="6.55588">
        <ele>1706.5</ele>
        <time>2026-02-02T13:08:30Z</time>
      </trkpt>
      <trkpt lat="45.98331" lon="6.55588">
        <ele>1706.5</ele>
        <time>2026-02-02T13:08:31Z</time>
      </trkpt>
      <trkpt lat="45.98331" lon="6.55588">
        <ele>1706.5</ele>
        <time>2026-02-02T13:08:32Z</time>
      </trkpt>
      <trkpt lat="45.98331" lon="6.55588">
        <ele>1706.5</ele>
        <time>2026-02-02T13:08:33Z</time>
      </trkpt>
      <trkpt lat="45.98331" lon="6.55588">
        <ele>1706.5</ele>
        <time>2026-02-02T13:08:34Z</time>
      </trkpt>
      <trkpt lat="45.9833" lon="6.55588">
        <ele>1705.8</ele>
        <time>2026-02-02T13:08:35Z</time>
      </trkpt>
      <trkpt lat="45.9833" lon="6.55588">
        <ele>1705.8</ele>
        <time>2026-02-02T13:08:36Z</time>
      </trkpt>
      <trkpt lat="45.9833" lon="6.55588">
        <ele>1705.8</ele>
        <time>2026-02-02T13:08:37Z</time>
      </trkpt>
      <trkpt lat="45.9833" lon="6.55588">
        <ele>1705.8</ele>
        <time>2026-02-02T13:08:38Z</time>
      </trkpt>
      <trkpt lat="45.9833" lon="6.55588">
        <ele>1705.8</ele>
        <time>2026-02-02T13:08:39Z</time>
      </trkpt>
      <trkpt lat="45.9833" lon="6.55588">
        <ele>1705.8</ele>
        <time>2026-02-02T13:08:40Z</time>
      </trkpt>
      <trkpt lat="45.9833" lon="6.55588">
        <ele>1705.8</ele>
        <time>2026-02-02T13:08:41Z</time>
      </trkpt>
      <trkpt lat="45.9833" lon="6.55589">
        <ele>1705.8</ele>
        <time>2026-02-02T13:08:42Z</time>
      </trkpt>
      <trkpt lat="45.9833" lon="6.55589">
        <ele>1705.8</ele>
        <time>2026-02-02T13:08:43Z</time>
      </trkpt>
      <trkpt lat="45.9833" lon="6.55589">
        <ele>1705.8</ele>
        <time>2026-02-02T13:08:44Z</time>
      </trkpt>
      <trkpt lat="45.98331" lon="6.55589">
        <ele>1705.8</ele>
        <time>2026-02-02T13:08:45Z</time>
      </trkpt>
      <trkpt lat="45.98331" lon="6.55589">
        <ele>1705.8</ele>
        <time>2026-02-02T13:08:46Z</time>
      </trkpt>
      <trkpt lat="45.98331" lon="6.55589">
        <ele>1705.8</ele>
        <time>2026-02-02T13:08:47Z</time>
      </trkpt>
      <trkpt lat="45.98331" lon="6.55589">
        <ele>1705.8</ele>
        <time>2026-02-02T13:08:48Z</time>
      </trkpt>
      <trkpt lat="45.98331" lon="6.55589">
        <ele>1705.8</ele>
        <time>2026-02-02T13:08:49Z</time>
      </trkpt>
      <trkpt lat="45.9833" lon="6.5559">
        <ele>1705.8</ele>
        <time>2026-02-02T13:08:50Z</time>
      </trkpt>
      <trkpt lat="45.9833" lon="6.5559">
        <ele>1705.8</ele>
        <time>2026-02-02T13:08:51Z</time>
      </trkpt>
      <trkpt lat="45.9833" lon="6.5559">
        <ele>1705.8</ele>
        <time>2026-02-02T13:08:52Z</time>
      </trkpt>
      <trkpt lat="45.9833" lon="6.5559">
        <ele>1705.8</ele>
        <time>2026-02-02T13:08:53Z</time>
      </trkpt>
      <trkpt lat="45.98329" lon="6.55591">
        <ele>1705.8</ele>
        <time>2026-02-02T13:08:54Z</time>
      </trkpt>
      <trkpt lat="45.98329" lon="6.55591">
        <ele>1705.8</ele>
        <time>2026-02-02T13:08:55Z</time>
      </trkpt>
      <trkpt lat="45.98329" lon="6.55591">
        <ele>1705.8</ele>
        <time>2026-02-02T13:08:56Z</time>
      </trkpt>
      <trkpt lat="45.98329" lon="6.55591">
        <ele>1705.8</ele>
        <time>2026-02-02T13:08:57Z</time>
      </trkpt>
      <trkpt lat="45.98329" lon="6.55591">
        <ele>1705.8</ele>
        <time>2026-02-02T13:08:58Z</time>
      </trkpt>
      <trkpt lat="45.98329" lon="6.55591">
        <ele>1705.8</ele>
        <time>2026-02-02T13:08:59Z</time>
      </trkpt>
      <trkpt lat="45.98329" lon="6.55591">
        <ele>1705.8</ele>
        <time>2026-02-02T13:09:00Z</time>
      </trkpt>
      <trkpt lat="45.98329" lon="6.55591">
        <ele>1705.8</ele>
        <time>2026-02-02T13:09:01Z</time>
      </trkpt>
      <trkpt lat="45.9833" lon="6.55591">
        <ele>1705.8</ele>
        <time>2026-02-02T13:09:02Z</time>
      </trkpt>
      <trkpt lat="45.9833" lon="6.55591">
        <ele>1705.8</ele>
        <time>2026-02-02T13:09:03Z</time>
      </trkpt>
      <trkpt lat="45.9833" lon="6.55591">
        <ele>1705.8</ele>
        <time>2026-02-02T13:09:04Z</time>
      </trkpt>
      <trkpt lat="45.9833" lon="6.55591">
        <ele>1705.8</ele>
        <time>2026-02-02T13:09:05Z</time>
      </trkpt>
      <trkpt lat="45.9833" lon="6.55591">
        <ele>1705.8</ele>
        <time>2026-02-02T13:09:06Z</time>
      </trkpt>
      <trkpt lat="45.9833" lon="6.55591">
        <ele>1705.8</ele>
        <time>2026-02-02T13:09:07Z</time>
      </trkpt>
      <trkpt lat="45.9833" lon="6.55591">
        <ele>1705.8</ele>
        <time>2026-02-02T13:09:08Z</time>
      </trkpt>
      <trkpt lat="45.9833" lon="6.55591">
        <ele>1705.8</ele>
        <time>2026-02-02T13:09:09Z</time>
      </trkpt>
      <trkpt lat="45.9833" lon="6.5559">
        <ele>1705.8</ele>
        <time>2026-02-02T13:09:10Z</time>
      </trkpt>
      <trkpt lat="45.9833" lon="6.5559">
        <ele>1705.8</ele>
        <time>2026-02-02T13:09:11Z</time>
      </trkpt>
      <trkpt lat="45.9833" lon="6.5559">
        <ele>1705.8</ele>
        <time>2026-02-02T13:09:12Z</time>
      </trkpt>
      <trkpt lat="45.9833" lon="6.5559">
        <ele>1705.8</ele>
        <time>2026-02-02T13:09:13Z</time>
      </trkpt>
      <trkpt lat="45.9833" lon="6.5559">
        <ele>1705.8</ele>
        <time>2026-02-02T13:09:14Z</time>
      </trkpt>
      <trkpt lat="45.9833" lon="6.5559">
        <ele>1705.8</ele>
        <time>2026-02-02T13:09:15Z</time>
      </trkpt>
      <trkpt lat="45.9833" lon="6.5559">
        <ele>1705.8</ele>
        <time>2026-02-02T13:09:16Z</time>
      </trkpt>
      <trkpt lat="45.9833" lon="6.5559">
        <ele>1705.8</ele>
        <time>2026-02-02T13:09:17Z</time>
      </trkpt>
      <trkpt lat="45.9833" lon="6.5559">
        <ele>1705.8</ele>
        <time>2026-02-02T13:09:18Z</time>
      </trkpt>
      <trkpt lat="45.9833" lon="6.5559">
        <ele>1705.8</ele>
        <time>2026-02-02T13:09:19Z</time>
      </trkpt>
      <trkpt lat="45.9833" lon="6.5559">
        <ele>1705.8</ele>
        <time>2026-02-02T13:09:20Z</time>
      </trkpt>
      <trkpt lat="45.9833" lon="6.5559">
        <ele>1705.8</ele>
        <time>2026-02-02T13:09:21Z</time>
      </trkpt>
      <trkpt lat="45.9833" lon="6.5559">
        <ele>1705.8</ele>
        <time>2026-02-02T13:09:22Z</time>
      </trkpt>
      <trkpt lat="45.9833" lon="6.5559">
        <ele>1705.8</ele>
        <time>2026-02-02T13:09:23Z</time>
      </trkpt>
      <trkpt lat="45.9833" lon="6.5559">
        <ele>1705.8</ele>
        <time>2026-02-02T13:09:24Z</time>
      </trkpt>
      <trkpt lat="45.9833" lon="6.5559">
        <ele>1705.8</ele>
        <time>2026-02-02T13:09:25Z</time>
      </trkpt>
      <trkpt lat="45.9833" lon="6.5559">
        <ele>1705.8</ele>
        <time>2026-02-02T13:09:26Z</time>
      </trkpt>
      <trkpt lat="45.9833" lon="6.5559">
        <ele>1705.8</ele>
        <time>2026-02-02T13:09:27Z</time>
      </trkpt>
      <trkpt lat="45.9833" lon="6.5559">
        <ele>1705.8</ele>
        <time>2026-02-02T13:09:28Z</time>
      </trkpt>
      <trkpt lat="45.9833" lon="6.5559">
        <ele>1705.8</ele>
        <time>2026-02-02T13:09:29Z</time>
      </trkpt>
      <trkpt lat="45.9833" lon="6.55591">
        <ele>1705.8</ele>
        <time>2026-02-02T13:09:30Z</time>
      </trkpt>
      <trkpt lat="45.9833" lon="6.55591">
        <ele>1705.8</ele>
        <time>2026-02-02T13:09:31Z</time>
      </trkpt>
      <trkpt lat="45.9833" lon="6.55591">
        <ele>1705.8</ele>
        <time>2026-02-02T13:09:32Z</time>
      </trkpt>
      <trkpt lat="45.9833" lon="6.55591">
        <ele>1705.8</ele>
        <time>2026-02-02T13:09:33Z</time>
      </trkpt>
      <trkpt lat="45.9833" lon="6.55591">
        <ele>1705.8</ele>
        <time>2026-02-02T13:09:34Z</time>
      </trkpt>
      <trkpt lat="45.9833" lon="6.55591">
        <ele>1705.8</ele>
        <time>2026-02-02T13:09:35Z</time>
      </trkpt>
      <trkpt lat="45.9833" lon="6.55591">
        <ele>1705.8</ele>
        <time>2026-02-02T13:09:36Z</time>
      </trkpt>
      <trkpt lat="45.9833" lon="6.55591">
        <ele>1705.8</ele>
        <time>2026-02-02T13:09:37Z</time>
      </trkpt>
      <trkpt lat="45.9833" lon="6.55591">
        <ele>1705.8</ele>
        <time>2026-02-02T13:09:38Z</time>
      </trkpt>
      <trkpt lat="45.9833" lon="6.55591">
        <ele>1705.8</ele>
        <time>2026-02-02T13:09:39Z</time>
      </trkpt>
      <trkpt lat="45.9833" lon="6.5559">
        <ele>1705.8</ele>
        <time>2026-02-02T13:09:40Z</time>
      </trkpt>
      <trkpt lat="45.9833" lon="6.55588">
        <ele>1705.8</ele>
        <time>2026-02-02T13:09:41Z</time>
      </trkpt>
      <trkpt lat="45.9833" lon="6.55588">
        <ele>1705.8</ele>
        <time>2026-02-02T13:09:42Z</time>
      </trkpt>
      <trkpt lat="45.9833" lon="6.55588">
        <ele>1705.8</ele>
        <time>2026-02-02T13:09:43Z</time>
      </trkpt>
      <trkpt lat="45.9833" lon="6.55588">
        <ele>1705.8</ele>
        <time>2026-02-02T13:09:44Z</time>
      </trkpt>
      <trkpt lat="45.9833" lon="6.55588">
        <ele>1705.8</ele>
        <time>2026-02-02T13:09:45Z</time>
      </trkpt>
      <trkpt lat="45.9833" lon="6.55588">
        <ele>1705.8</ele>
        <time>2026-02-02T13:09:46Z</time>
      </trkpt>
      <trkpt lat="45.9833" lon="6.55588">
        <ele>1705.8</ele>
        <time>2026-02-02T13:09:47Z</time>
      </trkpt>
      <trkpt lat="45.9833" lon="6.55588">
        <ele>1705.8</ele>
        <time>2026-02-02T13:09:48Z</time>
      </trkpt>
      <trkpt lat="45.9833" lon="6.55588">
        <ele>1705.8</ele>
        <time>2026-02-02T13:09:49Z</time>
      </trkpt>
      <trkpt lat="45.9833" lon="6.55588">
        <ele>1705.8</ele>
        <time>2026-02-02T13:09:50Z</time>
      </trkpt>
      <trkpt lat="45.9833" lon="6.55588">
        <ele>1705.8</ele>
        <time>2026-02-02T13:09:51Z</time>
      </trkpt>
      <trkpt lat="45.9833" lon="6.55588">
        <ele>1705.8</ele>
        <time>2026-02-02T13:09:52Z</time>
      </trkpt>
      <trkpt lat="45.9833" lon="6.55588">
        <ele>1705.8</ele>
        <time>2026-02-02T13:09:53Z</time>
      </trkpt>
      <trkpt lat="45.9833" lon="6.55588">
        <ele>1705.8</ele>
        <time>2026-02-02T13:09:54Z</time>
      </trkpt>
      <trkpt lat="45.9833" lon="6.55588">
        <ele>1705.8</ele>
        <time>2026-02-02T13:09:55Z</time>
      </trkpt>
      <trkpt lat="45.9833" lon="6.55588">
        <ele>1705.8</ele>
        <time>2026-02-02T13:09:56Z</time>
      </trkpt>
      <trkpt lat="45.9833" lon="6.55588">
        <ele>1705.8</ele>
        <time>2026-02-02T13:09:57Z</time>
      </trkpt>
      <trkpt lat="45.98329" lon="6.55589">
        <ele>1705.8</ele>
        <time>2026-02-02T13:09:58Z</time>
      </trkpt>
      <trkpt lat="45.98329" lon="6.55589">
        <ele>1705.8</ele>
        <time>2026-02-02T13:09:59Z</time>
      </trkpt>
      <trkpt lat="45.98329" lon="6.55589">
        <ele>1705.8</ele>
        <time>2026-02-02T13:10:00Z</time>
      </trkpt>
      <trkpt lat="45.98329" lon="6.55589">
        <ele>1705.8</ele>
        <time>2026-02-02T13:10:01Z</time>
      </trkpt>
      <trkpt lat="45.98329" lon="6.55589">
        <ele>1705.8</ele>
        <time>2026-02-02T13:10:02Z</time>
      </trkpt>
      <trkpt lat="45.98329" lon="6.55589">
        <ele>1705.8</ele>
        <time>2026-02-02T13:10:03Z</time>
      </trkpt>
      <trkpt lat="45.98329" lon="6.55589">
        <ele>1705.8</ele>
        <time>2026-02-02T13:10:04Z</time>
      </trkpt>
      <trkpt lat="45.98329" lon="6.55589">
        <ele>1705.8</ele>
        <time>2026-02-02T13:10:05Z</time>
      </trkpt>
      <trkpt lat="45.9833" lon="6.55589">
        <ele>1705.8</ele>
        <time>2026-02-02T13:10:06Z</time>
      </trkpt>
      <trkpt lat="45.9833" lon="6.55589">
        <ele>1705.8</ele>
        <time>2026-02-02T13:10:07Z</time>
      </trkpt>
      <trkpt lat="45.9833" lon="6.55589">
        <ele>1705.8</ele>
        <time>2026-02-02T13:10:08Z</time>
      </trkpt>
      <trkpt lat="45.9833" lon="6.55589">
        <ele>1705.8</ele>
        <time>2026-02-02T13:10:09Z</time>
      </trkpt>
      <trkpt lat="45.9833" lon="6.55589">
        <ele>1705.8</ele>
        <time>2026-02-02T13:10:10Z</time>
      </trkpt>
      <trkpt lat="45.9833" lon="6.55589">
        <ele>1705.8</ele>
        <time>2026-02-02T13:10:11Z</time>
      </trkpt>
      <trkpt lat="45.9833" lon="6.55588">
        <ele>1705.8</ele>
        <time>2026-02-02T13:10:12Z</time>
      </trkpt>
      <trkpt lat="45.9833" lon="6.55589">
        <ele>1705.8</ele>
        <time>2026-02-02T13:10:13Z</time>
      </trkpt>
      <trkpt lat="45.9833" lon="6.55589">
        <ele>1705.8</ele>
        <time>2026-02-02T13:10:14Z</time>
      </trkpt>
      <trkpt lat="45.9833" lon="6.55589">
        <ele>1705.8</ele>
        <time>2026-02-02T13:10:15Z</time>
      </trkpt>
      <trkpt lat="45.9833" lon="6.55589">
        <ele>1705.8</ele>
        <time>2026-02-02T13:10:16Z</time>
      </trkpt>
      <trkpt lat="45.9833" lon="6.55589">
        <ele>1705.8</ele>
        <time>2026-02-02T13:10:17Z</time>
      </trkpt>
      <trkpt lat="45.9833" lon="6.55589">
        <ele>1705.8</ele>
        <time>2026-02-02T13:10:18Z</time>
      </trkpt>
      <trkpt lat="45.9833" lon="6.55589">
        <ele>1705.8</ele>
        <time>2026-02-02T13:10:19Z</time>
      </trkpt>
      <trkpt lat="45.9833" lon="6.55589">
        <ele>1705.8</ele>
        <time>2026-02-02T13:10:20Z</time>
      </trkpt>
      <trkpt lat="45.98331" lon="6.5559">
        <ele>1706.5</ele>
        <time>2026-02-02T13:10:21Z</time>
      </trkpt>
      <trkpt lat="45.98331" lon="6.5559">
        <ele>1706.5</ele>
        <time>2026-02-02T13:10:22Z</time>
      </trkpt>
      <trkpt lat="45.98331" lon="6.5559">
        <ele>1706.5</ele>
        <time>2026-02-02T13:10:23Z</time>
      </trkpt>
      <trkpt lat="45.98331" lon="6.5559">
        <ele>1706.5</ele>
        <time>2026-02-02T13:10:24Z</time>
      </trkpt>
      <trkpt lat="45.98331" lon="6.5559">
        <ele>1706.5</ele>
        <time>2026-02-02T13:10:25Z</time>
      </trkpt>
      <trkpt lat="45.98331" lon="6.5559">
        <ele>1706.5</ele>
        <time>2026-02-02T13:10:26Z</time>
      </trkpt>
      <trkpt lat="45.98331" lon="6.5559">
        <ele>1706.5</ele>
        <time>2026-02-02T13:10:27Z</time>
      </trkpt>
      <trkpt lat="45.98331" lon="6.5559">
        <ele>1706.5</ele>
        <time>2026-02-02T13:10:28Z</time>
      </trkpt>
      <trkpt lat="45.98331" lon="6.5559">
        <ele>1706.5</ele>
        <time>2026-02-02T13:10:29Z</time>
      </trkpt>
      <trkpt lat="45.98331" lon="6.5559">
        <ele>1706.5</ele>
        <time>2026-02-02T13:10:30Z</time>
      </trkpt>
      <trkpt lat="45.98331" lon="6.5559">
        <ele>1706.5</ele>
        <time>2026-02-02T13:10:31Z</time>
      </trkpt>
      <trkpt lat="45.98331" lon="6.5559">
        <ele>1706.5</ele>
        <time>2026-02-02T13:10:32Z</time>
      </trkpt>
      <trkpt lat="45.98331" lon="6.5559">
        <ele>1706.5</ele>
        <time>2026-02-02T13:10:33Z</time>
      </trkpt>
      <trkpt lat="45.98331" lon="6.5559">
        <ele>1706.5</ele>
        <time>2026-02-02T13:10:34Z</time>
      </trkpt>
      <trkpt lat="45.98331" lon="6.5559">
        <ele>1706.5</ele>
        <time>2026-02-02T13:10:35Z</time>
      </trkpt>
      <trkpt lat="45.98331" lon="6.5559">
        <ele>1706.5</ele>
        <time>2026-02-02T13:10:36Z</time>
      </trkpt>
      <trkpt lat="45.98331" lon="6.5559">
        <ele>1706.5</ele>
        <time>2026-02-02T13:10:37Z</time>
      </trkpt>
      <trkpt lat="45.98331" lon="6.5559">
        <ele>1706.5</ele>
        <time>2026-02-02T13:10:38Z</time>
      </trkpt>
      <trkpt lat="45.98331" lon="6.5559">
        <ele>1706.5</ele>
        <time>2026-02-02T13:10:39Z</time>
      </trkpt>
      <trkpt lat="45.98331" lon="6.5559">
        <ele>1706.5</ele>
        <time>2026-02-02T13:10:40Z</time>
      </trkpt>
      <trkpt lat="45.98331" lon="6.5559">
        <ele>1706.5</ele>
        <time>2026-02-02T13:10:41Z</time>
      </trkpt>
      <trkpt lat="45.98331" lon="6.5559">
        <ele>1706.5</ele>
        <time>2026-02-02T13:10:42Z</time>
      </trkpt>
      <trkpt lat="45.98331" lon="6.5559">
        <ele>1706.5</ele>
        <time>2026-02-02T13:10:43Z</time>
      </trkpt>
      <trkpt lat="45.98331" lon="6.55591">
        <ele>1706.5</ele>
        <time>2026-02-02T13:10:44Z</time>
      </trkpt>
      <trkpt lat="45.98331" lon="6.55591">
        <ele>1705.8</ele>
        <time>2026-02-02T13:10:45Z</time>
      </trkpt>
      <trkpt lat="45.98331" lon="6.55591">
        <ele>1705.8</ele>
        <time>2026-02-02T13:10:46Z</time>
      </trkpt>
      <trkpt lat="45.98331" lon="6.55591">
        <ele>1705.8</ele>
        <time>2026-02-02T13:10:47Z</time>
      </trkpt>
      <trkpt lat="45.98331" lon="6.55591">
        <ele>1706.5</ele>
        <time>2026-02-02T13:10:48Z</time>
      </trkpt>
      <trkpt lat="45.98331" lon="6.55591">
        <ele>1706.5</ele>
        <time>2026-02-02T13:10:49Z</time>
      </trkpt>
      <trkpt lat="45.98331" lon="6.55591">
        <ele>1705.8</ele>
        <time>2026-02-02T13:10:50Z</time>
      </trkpt>
      <trkpt lat="45.98331" lon="6.5559">
        <ele>1706.5</ele>
        <time>2026-02-02T13:10:51Z</time>
      </trkpt>
      <trkpt lat="45.98331" lon="6.5559">
        <ele>1706.5</ele>
        <time>2026-02-02T13:10:52Z</time>
      </trkpt>
      <trkpt lat="45.98331" lon="6.5559">
        <ele>1706.5</ele>
        <time>2026-02-02T13:10:53Z</time>
      </trkpt>
      <trkpt lat="45.9833" lon="6.55589">
        <ele>1705.8</ele>
        <time>2026-02-02T13:10:54Z</time>
      </trkpt>
      <trkpt lat="45.9833" lon="6.55589">
        <ele>1705.8</ele>
        <time>2026-02-02T13:10:55Z</time>
      </trkpt>
      <trkpt lat="45.9833" lon="6.55589">
        <ele>1705.8</ele>
        <time>2026-02-02T13:10:56Z</time>
      </trkpt>
      <trkpt lat="45.9833" lon="6.55589">
        <ele>1705.8</ele>
        <time>2026-02-02T13:10:57Z</time>
      </trkpt>
      <trkpt lat="45.9833" lon="6.5559">
        <ele>1705.8</ele>
        <time>2026-02-02T13:10:58Z</time>
      </trkpt>
      <trkpt lat="45.9833" lon="6.5559">
        <ele>1705.8</ele>
        <time>2026-02-02T13:10:59Z</time>
      </trkpt>
      <trkpt lat="45.9833" lon="6.5559">
        <ele>1705.8</ele>
        <time>2026-02-02T13:11:00Z</time>
      </trkpt>
      <trkpt lat="45.9833" lon="6.5559">
        <ele>1705.8</ele>
        <time>2026-02-02T13:11:01Z</time>
      </trkpt>
      <trkpt lat="45.9833" lon="6.5559">
        <ele>1705.8</ele>
        <time>2026-02-02T13:11:02Z</time>
      </trkpt>
      <trkpt lat="45.9833" lon="6.5559">
        <ele>1705.8</ele>
        <time>2026-02-02T13:11:03Z</time>
      </trkpt>
      <trkpt lat="45.9833" lon="6.5559">
        <ele>1705.8</ele>
        <time>2026-02-02T13:11:04Z</time>
      </trkpt>
      <trkpt lat="45.9833" lon="6.5559">
        <ele>1705.8</ele>
        <time>2026-02-02T13:11:05Z</time>
      </trkpt>
      <trkpt lat="45.9833" lon="6.5559">
        <ele>1705.8</ele>
        <time>2026-02-02T13:11:06Z</time>
      </trkpt>
      <trkpt lat="45.9833" lon="6.5559">
        <ele>1705.8</ele>
        <time>2026-02-02T13:11:07Z</time>
      </trkpt>
      <trkpt lat="45.9833" lon="6.5559">
        <ele>1705.8</ele>
        <time>2026-02-02T13:11:08Z</time>
      </trkpt>
      <trkpt lat="45.9833" lon="6.5559">
        <ele>1705.8</ele>
        <time>2026-02-02T13:11:09Z</time>
      </trkpt>
      <trkpt lat="45.9833" lon="6.5559">
        <ele>1705.8</ele>
        <time>2026-02-02T13:11:10Z</time>
      </trkpt>
      <trkpt lat="45.9833" lon="6.5559">
        <ele>1705.8</ele>
        <time>2026-02-02T13:11:11Z</time>
      </trkpt>
      <trkpt lat="45.9833" lon="6.5559">
        <ele>1705.8</ele>
        <time>2026-02-02T13:11:12Z</time>
      </trkpt>
      <trkpt lat="45.9833" lon="6.5559">
        <ele>1705.8</ele>
        <time>2026-02-02T13:11:13Z</time>
      </trkpt>
      <trkpt lat="45.9833" lon="6.5559">
        <ele>1705.8</ele>
        <time>2026-02-02T13:11:14Z</time>
      </trkpt>
      <trkpt lat="45.9833" lon="6.5559">
        <ele>1705.8</ele>
        <time>2026-02-02T13:11:15Z</time>
      </trkpt>
      <trkpt lat="45.9833" lon="6.5559">
        <ele>1705.8</ele>
        <time>2026-02-02T13:11:16Z</time>
      </trkpt>
      <trkpt lat="45.9833" lon="6.5559">
        <ele>1705.8</ele>
        <time>2026-02-02T13:11:17Z</time>
      </trkpt>
      <trkpt lat="45.9833" lon="6.5559">
        <ele>1705.8</ele>
        <time>2026-02-02T13:11:18Z</time>
      </trkpt>
      <trkpt lat="45.9833" lon="6.5559">
        <ele>1705.8</ele>
        <time>2026-02-02T13:11:19Z</time>
      </trkpt>
      <trkpt lat="45.9833" lon="6.5559">
        <ele>1705.8</ele>
        <time>2026-02-02T13:11:20Z</time>
      </trkpt>
      <trkpt lat="45.9833" lon="6.5559">
        <ele>1705.8</ele>
        <time>2026-02-02T13:11:21Z</time>
      </trkpt>
      <trkpt lat="45.9833" lon="6.5559">
        <ele>1705.8</ele>
        <time>2026-02-02T13:11:22Z</time>
      </trkpt>
      <trkpt lat="45.9833" lon="6.5559">
        <ele>1705.8</ele>
        <time>2026-02-02T13:11:23Z</time>
      </trkpt>
      <trkpt lat="45.9833" lon="6.5559">
        <ele>1705.8</ele>
        <time>2026-02-02T13:11:24Z</time>
      </trkpt>
      <trkpt lat="45.9833" lon="6.5559">
        <ele>1705.8</ele>
        <time>2026-02-02T13:11:25Z</time>
      </trkpt>
      <trkpt lat="45.9833" lon="6.5559">
        <ele>1705.8</ele>
        <time>2026-02-02T13:11:26Z</time>
      </trkpt>
      <trkpt lat="45.9833" lon="6.55591">
        <ele>1705.8</ele>
        <time>2026-02-02T13:11:27Z</time>
      </trkpt>
      <trkpt lat="45.9833" lon="6.55591">
        <ele>1705.8</ele>
        <time>2026-02-02T13:11:28Z</time>
      </trkpt>
      <trkpt lat="45.98331" lon="6.55591">
        <ele>1706.5</ele>
        <time>2026-02-02T13:11:29Z</time>
      </trkpt>
      <trkpt lat="45.98331" lon="6.55591">
        <ele>1706.5</ele>
        <time>2026-02-02T13:11:30Z</time>
      </trkpt>
      <trkpt lat="45.98331" lon="6.55591">
        <ele>1706.5</ele>
        <time>2026-02-02T13:11:31Z</time>
      </trkpt>
      <trkpt lat="45.98331" lon="6.55591">
        <ele>1706.5</ele>
        <time>2026-02-02T13:11:32Z</time>
      </trkpt>
      <trkpt lat="45.98331" lon="6.55591">
        <ele>1706.5</ele>
        <time>2026-02-02T13:11:33Z</time>
      </trkpt>
      <trkpt lat="45.98331" lon="6.55591">
        <ele>1706.5</ele>
        <time>2026-02-02T13:11:34Z</time>
      </trkpt>
      <trkpt lat="45.98331" lon="6.55591">
        <ele>1706.5</ele>
        <time>2026-02-02T13:11:35Z</time>
      </trkpt>
      <trkpt lat="45.98331" lon="6.55591">
        <ele>1706.5</ele>
        <time>2026-02-02T13:11:36Z</time>
      </trkpt>
      <trkpt lat="45.98331" lon="6.55591">
        <ele>1706.5</ele>
        <time>2026-02-02T13:11:37Z</time>
      </trkpt>
      <trkpt lat="45.98331" lon="6.55591">
        <ele>1706.5</ele>
        <time>2026-02-02T13:11:38Z</time>
      </trkpt>
      <trkpt lat="45.98331" lon="6.55591">
        <ele>1706.5</ele>
        <time>2026-02-02T13:11:39Z</time>
      </trkpt>
      <trkpt lat="45.98331" lon="6.55591">
        <ele>1706.5</ele>
        <time>2026-02-02T13:11:40Z</time>
      </trkpt>
      <trkpt lat="45.98331" lon="6.55591">
        <ele>1706.5</ele>
        <time>2026-02-02T13:11:41Z</time>
      </trkpt>
      <trkpt lat="45.98331" lon="6.55591">
        <ele>1706.5</ele>
        <time>2026-02-02T13:11:42Z</time>
      </trkpt>
      <trkpt lat="45.98331" lon="6.55591">
        <ele>1706.5</ele>
        <time>2026-02-02T13:11:43Z</time>
      </trkpt>
      <trkpt lat="45.98331" lon="6.55591">
        <ele>1706.5</ele>
        <time>2026-02-02T13:11:44Z</time>
      </trkpt>
      <trkpt lat="45.98331" lon="6.55591">
        <ele>1706.5</ele>
        <time>2026-02-02T13:11:45Z</time>
      </trkpt>
      <trkpt lat="45.9833" lon="6.55591">
        <ele>1705.8</ele>
        <time>2026-02-02T13:11:46Z</time>
      </trkpt>
      <trkpt lat="45.9833" lon="6.55591">
        <ele>1705.8</ele>
        <time>2026-02-02T13:11:47Z</time>
      </trkpt>
      <trkpt lat="45.9833" lon="6.55591">
        <ele>1705.8</ele>
        <time>2026-02-02T13:11:48Z</time>
      </trkpt>
      <trkpt lat="45.9833" lon="6.55591">
        <ele>1705.8</ele>
        <time>2026-02-02T13:11:49Z</time>
      </trkpt>
      <trkpt lat="45.9833" lon="6.5559">
        <ele>1705.8</ele>
        <time>2026-02-02T13:11:50Z</time>
      </trkpt>
      <trkpt lat="45.9833" lon="6.55591">
        <ele>1705.8</ele>
        <time>2026-02-02T13:11:51Z</time>
      </trkpt>
      <trkpt lat="45.9833" lon="6.55591">
        <ele>1705.8</ele>
        <time>2026-02-02T13:11:52Z</time>
      </trkpt>
      <trkpt lat="45.9833" lon="6.55591">
        <ele>1705.8</ele>
        <time>2026-02-02T13:11:53Z</time>
      </trkpt>
      <trkpt lat="45.9833" lon="6.55591">
        <ele>1705.8</ele>
        <time>2026-02-02T13:11:54Z</time>
      </trkpt>
      <trkpt lat="45.9833" lon="6.55591">
        <ele>1705.8</ele>
        <time>2026-02-02T13:11:55Z</time>
      </trkpt>
      <trkpt lat="45.9833" lon="6.55591">
        <ele>1705.8</ele>
        <time>2026-02-02T13:11:56Z</time>
      </trkpt>
      <trkpt lat="45.9833" lon="6.55591">
        <ele>1705.8</ele>
        <time>2026-02-02T13:11:57Z</time>
      </trkpt>
      <trkpt lat="45.9833" lon="6.55591">
        <ele>1705.8</ele>
        <time>2026-02-02T13:11:58Z</time>
      </trkpt>
      <trkpt lat="45.9833" lon="6.55591">
        <ele>1705.8</ele>
        <time>2026-02-02T13:11:59Z</time>
      </trkpt>
      <trkpt lat="45.9833" lon="6.5559">
        <ele>1705.8</ele>
        <time>2026-02-02T13:12:00Z</time>
      </trkpt>
      <trkpt lat="45.9833" lon="6.5559">
        <ele>1705.8</ele>
        <time>2026-02-02T13:12:01Z</time>
      </trkpt>
      <trkpt lat="45.9833" lon="6.5559">
        <ele>1705.8</ele>
        <time>2026-02-02T13:12:02Z</time>
      </trkpt>
      <trkpt lat="45.9833" lon="6.5559">
        <ele>1705.8</ele>
        <time>2026-02-02T13:12:03Z</time>
      </trkpt>
      <trkpt lat="45.9833" lon="6.5559">
        <ele>1705.8</ele>
        <time>2026-02-02T13:12:04Z</time>
      </trkpt>
      <trkpt lat="45.98331" lon="6.55591">
        <ele>1705.8</ele>
        <time>2026-02-02T13:12:05Z</time>
      </trkpt>
      <trkpt lat="45.9833" lon="6.55591">
        <ele>1705.8</ele>
        <time>2026-02-02T13:12:06Z</time>
      </trkpt>
      <trkpt lat="45.9833" lon="6.55591">
        <ele>1705.8</ele>
        <time>2026-02-02T13:12:07Z</time>
      </trkpt>
      <trkpt lat="45.9833" lon="6.55591">
        <ele>1705.8</ele>
        <time>2026-02-02T13:12:08Z</time>
      </trkpt>
      <trkpt lat="45.9833" lon="6.55591">
        <ele>1705.8</ele>
        <time>2026-02-02T13:12:09Z</time>
      </trkpt>
      <trkpt lat="45.9833" lon="6.5559">
        <ele>1705.8</ele>
        <time>2026-02-02T13:12:10Z</time>
      </trkpt>
      <trkpt lat="45.9833" lon="6.5559">
        <ele>1705.8</ele>
        <time>2026-02-02T13:12:11Z</time>
      </trkpt>
      <trkpt lat="45.9833" lon="6.5559">
        <ele>1705.8</ele>
        <time>2026-02-02T13:12:12Z</time>
      </trkpt>
      <trkpt lat="45.9833" lon="6.5559">
        <ele>1705.8</ele>
        <time>2026-02-02T13:12:13Z</time>
      </trkpt>
      <trkpt lat="45.9833" lon="6.5559">
        <ele>1705.8</ele>
        <time>2026-02-02T13:12:14Z</time>
      </trkpt>
      <trkpt lat="45.9833" lon="6.5559">
        <ele>1705.8</ele>
        <time>2026-02-02T13:12:15Z</time>
      </trkpt>
      <trkpt lat="45.98329" lon="6.55589">
        <ele>1705.8</ele>
        <time>2026-02-02T13:12:16Z</time>
      </trkpt>
      <trkpt lat="45.98329" lon="6.55589">
        <ele>1705.8</ele>
        <time>2026-02-02T13:12:17Z</time>
      </trkpt>
      <trkpt lat="45.98329" lon="6.55589">
        <ele>1705.8</ele>
        <time>2026-02-02T13:12:18Z</time>
      </trkpt>
      <trkpt lat="45.98329" lon="6.55589">
        <ele>1705.8</ele>
        <time>2026-02-02T13:12:19Z</time>
      </trkpt>
      <trkpt lat="45.98329" lon="6.55589">
        <ele>1705.8</ele>
        <time>2026-02-02T13:12:20Z</time>
      </trkpt>
      <trkpt lat="45.98329" lon="6.5559">
        <ele>1705.8</ele>
        <time>2026-02-02T13:12:21Z</time>
      </trkpt>
      <trkpt lat="45.9833" lon="6.5559">
        <ele>1705.8</ele>
        <time>2026-02-02T13:12:22Z</time>
      </trkpt>
      <trkpt lat="45.9833" lon="6.5559">
        <ele>1705.8</ele>
        <time>2026-02-02T13:12:23Z</time>
      </trkpt>
      <trkpt lat="45.9833" lon="6.5559">
        <ele>1705.8</ele>
        <time>2026-02-02T13:12:24Z</time>
      </trkpt>
      <trkpt lat="45.9833" lon="6.5559">
        <ele>1705.8</ele>
        <time>2026-02-02T13:12:25Z</time>
      </trkpt>
      <trkpt lat="45.9833" lon="6.5559">
        <ele>1705.8</ele>
        <time>2026-02-02T13:12:26Z</time>
      </trkpt>
      <trkpt lat="45.9833" lon="6.5559">
        <ele>1705.8</ele>
        <time>2026-02-02T13:12:27Z</time>
      </trkpt>
      <trkpt lat="45.9833" lon="6.5559">
        <ele>1705.8</ele>
        <time>2026-02-02T13:12:28Z</time>
      </trkpt>
      <trkpt lat="45.9833" lon="6.5559">
        <ele>1705.8</ele>
        <time>2026-02-02T13:12:29Z</time>
      </trkpt>
      <trkpt lat="45.9833" lon="6.5559">
        <ele>1705.8</ele>
        <time>2026-02-02T13:12:30Z</time>
      </trkpt>
      <trkpt lat="45.9833" lon="6.5559">
        <ele>1705.8</ele>
        <time>2026-02-02T13:12:31Z</time>
      </trkpt>
      <trkpt lat="45.9833" lon="6.5559">
        <ele>1705.8</ele>
        <time>2026-02-02T13:12:32Z</time>
      </trkpt>
      <trkpt lat="45.9833" lon="6.5559">
        <ele>1705.8</ele>
        <time>2026-02-02T13:12:33Z</time>
      </trkpt>
      <trkpt lat="45.9833" lon="6.5559">
        <ele>1705.8</ele>
        <time>2026-02-02T13:12:34Z</time>
      </trkpt>
      <trkpt lat="45.9833" lon="6.5559">
        <ele>1705.8</ele>
        <time>2026-02-02T13:12:35Z</time>
      </trkpt>
      <trkpt lat="45.9833" lon="6.5559">
        <ele>1705.8</ele>
        <time>2026-02-02T13:12:36Z</time>
      </trkpt>
      <trkpt lat="45.9833" lon="6.5559">
        <ele>1705.8</ele>
        <time>2026-02-02T13:12:37Z</time>
      </trkpt>
      <trkpt lat="45.9833" lon="6.5559">
        <ele>1705.8</ele>
        <time>2026-02-02T13:12:38Z</time>
      </trkpt>
      <trkpt lat="45.9833" lon="6.5559">
        <ele>1705.8</ele>
        <time>2026-02-02T13:12:39Z</time>
      </trkpt>
      <trkpt lat="45.9833" lon="6.5559">
        <ele>1705.8</ele>
        <time>2026-02-02T13:12:40Z</time>
      </trkpt>
      <trkpt lat="45.9833" lon="6.5559">
        <ele>1705.8</ele>
        <time>2026-02-02T13:12:41Z</time>
      </trkpt>
      <trkpt lat="45.9833" lon="6.5559">
        <ele>1705.8</ele>
        <time>2026-02-02T13:12:42Z</time>
      </trkpt>
      <trkpt lat="45.98329" lon="6.55591">
        <ele>1705.8</ele>
        <time>2026-02-02T13:12:43Z</time>
      </trkpt>
      <trkpt lat="45.98329" lon="6.55591">
        <ele>1705.8</ele>
        <time>2026-02-02T13:12:44Z</time>
      </trkpt>
      <trkpt lat="45.98329" lon="6.55591">
        <ele>1705.8</ele>
        <time>2026-02-02T13:12:45Z</time>
      </trkpt>
      <trkpt lat="45.98329" lon="6.5559">
        <ele>1705.8</ele>
        <time>2026-02-02T13:12:46Z</time>
      </trkpt>
      <trkpt lat="45.98329" lon="6.5559">
        <ele>1705.8</ele>
        <time>2026-02-02T13:12:47Z</time>
      </trkpt>
      <trkpt lat="45.98329" lon="6.5559">
        <ele>1705.8</ele>
        <time>2026-02-02T13:12:48Z</time>
      </trkpt>
      <trkpt lat="45.98329" lon="6.5559">
        <ele>1705.8</ele>
        <time>2026-02-02T13:12:49Z</time>
      </trkpt>
      <trkpt lat="45.98329" lon="6.5559">
        <ele>1705.8</ele>
        <time>2026-02-02T13:12:50Z</time>
      </trkpt>
      <trkpt lat="45.98329" lon="6.5559">
        <ele>1705.8</ele>
        <time>2026-02-02T13:12:51Z</time>
      </trkpt>
      <trkpt lat="45.98329" lon="6.5559">
        <ele>1705.8</ele>
        <time>2026-02-02T13:12:52Z</time>
      </trkpt>
      <trkpt lat="45.98329" lon="6.5559">
        <ele>1705.8</ele>
        <time>2026-02-02T13:12:53Z</time>
      </trkpt>
      <trkpt lat="45.98329" lon="6.5559">
        <ele>1705.8</ele>
        <time>2026-02-02T13:12:54Z</time>
      </trkpt>
      <trkpt lat="45.9833" lon="6.5559">
        <ele>1705.8</ele>
        <time>2026-02-02T13:12:55Z</time>
      </trkpt>
      <trkpt lat="45.9833" lon="6.5559">
        <ele>1705.8</ele>
        <time>2026-02-02T13:12:56Z</time>
      </trkpt>
      <trkpt lat="45.9833" lon="6.5559">
        <ele>1705.8</ele>
        <time>2026-02-02T13:12:57Z</time>
      </trkpt>
      <trkpt lat="45.9833" lon="6.5559">
        <ele>1705.8</ele>
        <time>2026-02-02T13:12:58Z</time>
      </trkpt>
      <trkpt lat="45.9833" lon="6.5559">
        <ele>1705.8</ele>
        <time>2026-02-02T13:12:59Z</time>
      </trkpt>
      <trkpt lat="45.9833" lon="6.55589">
        <ele>1705.8</ele>
        <time>2026-02-02T13:13:00Z</time>
      </trkpt>
      <trkpt lat="45.9833" lon="6.55589">
        <ele>1705.8</ele>
        <time>2026-02-02T13:13:01Z</time>
      </trkpt>
      <trkpt lat="45.9833" lon="6.55589">
        <ele>1705.8</ele>
        <time>2026-02-02T13:13:02Z</time>
      </trkpt>
      <trkpt lat="45.9833" lon="6.55589">
        <ele>1705.8</ele>
        <time>2026-02-02T13:13:03Z</time>
      </trkpt>
      <trkpt lat="45.9833" lon="6.55589">
        <ele>1705.8</ele>
        <time>2026-02-02T13:13:04Z</time>
      </trkpt>
      <trkpt lat="45.9833" lon="6.55589">
        <ele>1705.8</ele>
        <time>2026-02-02T13:13:05Z</time>
      </trkpt>
      <trkpt lat="45.9833" lon="6.55589">
        <ele>1705.8</ele>
        <time>2026-02-02T13:13:06Z</time>
      </trkpt>
      <trkpt lat="45.9833" lon="6.55589">
        <ele>1705.8</ele>
        <time>2026-02-02T13:13:07Z</time>
      </trkpt>
      <trkpt lat="45.9833" lon="6.55589">
        <ele>1705.8</ele>
        <time>2026-02-02T13:13:08Z</time>
      </trkpt>
      <trkpt lat="45.9833" lon="6.55589">
        <ele>1705.8</ele>
        <time>2026-02-02T13:13:09Z</time>
      </trkpt>
      <trkpt lat="45.9833" lon="6.55589">
        <ele>1705.8</ele>
        <time>2026-02-02T13:13:10Z</time>
      </trkpt>
      <trkpt lat="45.98329" lon="6.55589">
        <ele>1705.8</ele>
        <time>2026-02-02T13:13:11Z</time>
      </trkpt>
      <trkpt lat="45.9833" lon="6.55589">
        <ele>1705.8</ele>
        <time>2026-02-02T13:13:12Z</time>
      </trkpt>
      <trkpt lat="45.9833" lon="6.5559">
        <ele>1705.8</ele>
        <time>2026-02-02T13:13:13Z</time>
      </trkpt>
      <trkpt lat="45.9833" lon="6.5559">
        <ele>1705.8</ele>
        <time>2026-02-02T13:13:14Z</time>
      </trkpt>
      <trkpt lat="45.9833" lon="6.5559">
        <ele>1705.8</ele>
        <time>2026-02-02T13:13:15Z</time>
      </trkpt>
      <trkpt lat="45.9833" lon="6.5559">
        <ele>1705.8</ele>
        <time>2026-02-02T13:13:16Z</time>
      </trkpt>
      <trkpt lat="45.9833" lon="6.5559">
        <ele>1705.8</ele>
        <time>2026-02-02T13:13:17Z</time>
      </trkpt>
      <trkpt lat="45.9833" lon="6.5559">
        <ele>1705.8</ele>
        <time>2026-02-02T13:13:18Z</time>
      </trkpt>
      <trkpt lat="45.9833" lon="6.5559">
        <ele>1705.8</ele>
        <time>2026-02-02T13:13:19Z</time>
      </trkpt>
      <trkpt lat="45.9833" lon="6.5559">
        <ele>1705.8</ele>
        <time>2026-02-02T13:13:20Z</time>
      </trkpt>
      <trkpt lat="45.9833" lon="6.5559">
        <ele>1705.8</ele>
        <time>2026-02-02T13:13:21Z</time>
      </trkpt>
      <trkpt lat="45.9833" lon="6.5559">
        <ele>1705.8</ele>
        <time>2026-02-02T13:13:22Z</time>
      </trkpt>
      <trkpt lat="45.9833" lon="6.5559">
        <ele>1705.8</ele>
        <time>2026-02-02T13:13:23Z</time>
      </trkpt>
      <trkpt lat="45.9833" lon="6.5559">
        <ele>1705.8</ele>
        <time>2026-02-02T13:13:24Z</time>
      </trkpt>
      <trkpt lat="45.9833" lon="6.5559">
        <ele>1705.8</ele>
        <time>2026-02-02T13:13:25Z</time>
      </trkpt>
      <trkpt lat="45.9833" lon="6.5559">
        <ele>1705.8</ele>
        <time>2026-02-02T13:13:26Z</time>
      </trkpt>
      <trkpt lat="45.9833" lon="6.5559">
        <ele>1705.8</ele>
        <time>2026-02-02T13:13:27Z</time>
      </trkpt>
      <trkpt lat="45.9833" lon="6.5559">
        <ele>1705.8</ele>
        <time>2026-02-02T13:13:28Z</time>
      </trkpt>
      <trkpt lat="45.9833" lon="6.5559">
        <ele>1705.8</ele>
        <time>2026-02-02T13:13:29Z</time>
      </trkpt>
      <trkpt lat="45.9833" lon="6.5559">
        <ele>1705.8</ele>
        <time>2026-02-02T13:13:30Z</time>
      </trkpt>
      <trkpt lat="45.9833" lon="6.5559">
        <ele>1705.8</ele>
        <time>2026-02-02T13:13:31Z</time>
      </trkpt>
      <trkpt lat="45.9833" lon="6.5559">
        <ele>1705.8</ele>
        <time>2026-02-02T13:13:32Z</time>
      </trkpt>
      <trkpt lat="45.9833" lon="6.5559">
        <ele>1705.8</ele>
        <time>2026-02-02T13:13:33Z</time>
      </trkpt>
      <trkpt lat="45.9833" lon="6.5559">
        <ele>1705.8</ele>
        <time>2026-02-02T13:13:34Z</time>
      </trkpt>
      <trkpt lat="45.9833" lon="6.5559">
        <ele>1705.8</ele>
        <time>2026-02-02T13:13:35Z</time>
      </trkpt>
      <trkpt lat="45.9833" lon="6.5559">
        <ele>1705.8</ele>
        <time>2026-02-02T13:13:36Z</time>
      </trkpt>
      <trkpt lat="45.9833" lon="6.5559">
        <ele>1705.8</ele>
        <time>2026-02-02T13:13:37Z</time>
      </trkpt>
      <trkpt lat="45.9833" lon="6.55589">
        <ele>1705.8</ele>
        <time>2026-02-02T13:13:38Z</time>
      </trkpt>
      <trkpt lat="45.9833" lon="6.55589">
        <ele>1705.8</ele>
        <time>2026-02-02T13:13:39Z</time>
      </trkpt>
      <trkpt lat="45.9833" lon="6.55589">
        <ele>1705.8</ele>
        <time>2026-02-02T13:13:40Z</time>
      </trkpt>
      <trkpt lat="45.9833" lon="6.55589">
        <ele>1705.8</ele>
        <time>2026-02-02T13:13:41Z</time>
      </trkpt>
      <trkpt lat="45.9833" lon="6.55589">
        <ele>1705.8</ele>
        <time>2026-02-02T13:13:42Z</time>
      </trkpt>
      <trkpt lat="45.9833" lon="6.55589">
        <ele>1705.8</ele>
        <time>2026-02-02T13:13:43Z</time>
      </trkpt>
      <trkpt lat="45.9833" lon="6.55589">
        <ele>1705.8</ele>
        <time>2026-02-02T13:13:44Z</time>
      </trkpt>
      <trkpt lat="45.9833" lon="6.55589">
        <ele>1705.8</ele>
        <time>2026-02-02T13:13:45Z</time>
      </trkpt>
      <trkpt lat="45.9833" lon="6.55589">
        <ele>1705.8</ele>
        <time>2026-02-02T13:13:46Z</time>
      </trkpt>
      <trkpt lat="45.9833" lon="6.55589">
        <ele>1705.8</ele>
        <time>2026-02-02T13:13:47Z</time>
      </trkpt>
      <trkpt lat="45.9833" lon="6.55589">
        <ele>1705.8</ele>
        <time>2026-02-02T13:13:48Z</time>
      </trkpt>
      <trkpt lat="45.9833" lon="6.55589">
        <ele>1705.8</ele>
        <time>2026-02-02T13:13:49Z</time>
      </trkpt>
      <trkpt lat="45.9833" lon="6.55589">
        <ele>1705.8</ele>
        <time>2026-02-02T13:13:50Z</time>
      </trkpt>
      <trkpt lat="45.9833" lon="6.55589">
        <ele>1705.8</ele>
        <time>2026-02-02T13:13:51Z</time>
      </trkpt>
      <trkpt lat="45.9833" lon="6.55589">
        <ele>1705.8</ele>
        <time>2026-02-02T13:13:52Z</time>
      </trkpt>
      <trkpt lat="45.9833" lon="6.55589">
        <ele>1705.8</ele>
        <time>2026-02-02T13:13:53Z</time>
      </trkpt>
      <trkpt lat="45.9833" lon="6.55589">
        <ele>1705.8</ele>
        <time>2026-02-02T13:13:54Z</time>
      </trkpt>
      <trkpt lat="45.9833" lon="6.55589">
        <ele>1705.8</ele>
        <time>2026-02-02T13:13:55Z</time>
      </trkpt>
      <trkpt lat="45.9833" lon="6.55589">
        <ele>1705.8</ele>
        <time>2026-02-02T13:13:56Z</time>
      </trkpt>
      <trkpt lat="45.9833" lon="6.55589">
        <ele>1705.8</ele>
        <time>2026-02-02T13:13:57Z</time>
      </trkpt>
      <trkpt lat="45.9833" lon="6.55589">
        <ele>1705.8</ele>
        <time>2026-02-02T13:13:58Z</time>
      </trkpt>
      <trkpt lat="45.9833" lon="6.55589">
        <ele>1705.8</ele>
        <time>2026-02-02T13:13:59Z</time>
      </trkpt>
      <trkpt lat="45.9833" lon="6.55589">
        <ele>1705.8</ele>
        <time>2026-02-02T13:14:00Z</time>
      </trkpt>
      <trkpt lat="45.9833" lon="6.55589">
        <ele>1705.8</ele>
        <time>2026-02-02T13:14:01Z</time>
      </trkpt>
      <trkpt lat="45.9833" lon="6.55589">
        <ele>1705.8</ele>
        <time>2026-02-02T13:14:02Z</time>
      </trkpt>
      <trkpt lat="45.9833" lon="6.55589">
        <ele>1705.8</ele>
        <time>2026-02-02T13:14:03Z</time>
      </trkpt>
      <trkpt lat="45.9833" lon="6.55589">
        <ele>1705.8</ele>
        <time>2026-02-02T13:14:04Z</time>
      </trkpt>
      <trkpt lat="45.9833" lon="6.55589">
        <ele>1705.8</ele>
        <time>2026-02-02T13:14:05Z</time>
      </trkpt>
      <trkpt lat="45.9833" lon="6.55589">
        <ele>1705.8</ele>
        <time>2026-02-02T13:14:06Z</time>
      </trkpt>
      <trkpt lat="45.9833" lon="6.55589">
        <ele>1705.8</ele>
        <time>2026-02-02T13:14:07Z</time>
      </trkpt>
      <trkpt lat="45.9833" lon="6.55589">
        <ele>1705.8</ele>
        <time>2026-02-02T13:14:08Z</time>
      </trkpt>
      <trkpt lat="45.9833" lon="6.55589">
        <ele>1705.8</ele>
        <time>2026-02-02T13:14:09Z</time>
      </trkpt>
      <trkpt lat="45.9833" lon="6.55589">
        <ele>1705.8</ele>
        <time>2026-02-02T13:14:10Z</time>
      </trkpt>
      <trkpt lat="45.9833" lon="6.55589">
        <ele>1705.8</ele>
        <time>2026-02-02T13:14:11Z</time>
      </trkpt>
      <trkpt lat="45.9833" lon="6.55589">
        <ele>1705.8</ele>
        <time>2026-02-02T13:14:12Z</time>
      </trkpt>
      <trkpt lat="45.9833" lon="6.55589">
        <ele>1705.8</ele>
        <time>2026-02-02T13:14:13Z</time>
      </trkpt>
      <trkpt lat="45.9833" lon="6.55589">
        <ele>1705.8</ele>
        <time>2026-02-02T13:14:14Z</time>
      </trkpt>
      <trkpt lat="45.9833" lon="6.55589">
        <ele>1705.8</ele>
        <time>2026-02-02T13:14:15Z</time>
      </trkpt>
      <trkpt lat="45.9833" lon="6.55589">
        <ele>1705.8</ele>
        <time>2026-02-02T13:14:16Z</time>
      </trkpt>
      <trkpt lat="45.9833" lon="6.55589">
        <ele>1705.8</ele>
        <time>2026-02-02T13:14:17Z</time>
      </trkpt>
      <trkpt lat="45.98331" lon="6.5559">
        <ele>1705.8</ele>
        <time>2026-02-02T13:14:18Z</time>
      </trkpt>
      <trkpt lat="45.98331" lon="6.5559">
        <ele>1705.8</ele>
        <time>2026-02-02T13:14:19Z</time>
      </trkpt>
      <trkpt lat="45.98331" lon="6.5559">
        <ele>1705.8</ele>
        <time>2026-02-02T13:14:20Z</time>
      </trkpt>
      <trkpt lat="45.98331" lon="6.5559">
        <ele>1705.8</ele>
        <time>2026-02-02T13:14:21Z</time>
      </trkpt>
      <trkpt lat="45.98331" lon="6.5559">
        <ele>1705.8</ele>
        <time>2026-02-02T13:14:22Z</time>
      </trkpt>
      <trkpt lat="45.98331" lon="6.5559">
        <ele>1705.8</ele>
        <time>2026-02-02T13:14:23Z</time>
      </trkpt>
      <trkpt lat="45.98331" lon="6.5559">
        <ele>1705.8</ele>
        <time>2026-02-02T13:14:24Z</time>
      </trkpt>
      <trkpt lat="45.98331" lon="6.5559">
        <ele>1705.8</ele>
        <time>2026-02-02T13:14:25Z</time>
      </trkpt>
      <trkpt lat="45.98331" lon="6.5559">
        <ele>1705.8</ele>
        <time>2026-02-02T13:14:26Z</time>
      </trkpt>
      <trkpt lat="45.98331" lon="6.5559">
        <ele>1705.8</ele>
        <time>2026-02-02T13:14:27Z</time>
      </trkpt>
      <trkpt lat="45.98331" lon="6.5559">
        <ele>1705.8</ele>
        <time>2026-02-02T13:14:28Z</time>
      </trkpt>
      <trkpt lat="45.98331" lon="6.5559">
        <ele>1705.8</ele>
        <time>2026-02-02T13:14:29Z</time>
      </trkpt>
      <trkpt lat="45.98331" lon="6.5559">
        <ele>1705.8</ele>
        <time>2026-02-02T13:14:30Z</time>
      </trkpt>
      <trkpt lat="45.98331" lon="6.5559">
        <ele>1705.8</ele>
        <time>2026-02-02T13:14:31Z</time>
      </trkpt>
      <trkpt lat="45.98331" lon="6.5559">
        <ele>1705.8</ele>
        <time>2026-02-02T13:14:32Z</time>
      </trkpt>
      <trkpt lat="45.98331" lon="6.5559">
        <ele>1705.8</ele>
        <time>2026-02-02T13:14:33Z</time>
      </trkpt>
      <trkpt lat="45.98331" lon="6.5559">
        <ele>1705.8</ele>
        <time>2026-02-02T13:14:34Z</time>
      </trkpt>
      <trkpt lat="45.98331" lon="6.5559">
        <ele>1705.8</ele>
        <time>2026-02-02T13:14:35Z</time>
      </trkpt>
      <trkpt lat="45.98331" lon="6.5559">
        <ele>1705.8</ele>
        <time>2026-02-02T13:14:36Z</time>
      </trkpt>
      <trkpt lat="45.98331" lon="6.5559">
        <ele>1705.8</ele>
        <time>2026-02-02T13:14:37Z</time>
      </trkpt>
      <trkpt lat="45.98331" lon="6.5559">
        <ele>1705.8</ele>
        <time>2026-02-02T13:14:38Z</time>
      </trkpt>
      <trkpt lat="45.98331" lon="6.5559">
        <ele>1705.8</ele>
        <time>2026-02-02T13:14:39Z</time>
      </trkpt>
      <trkpt lat="45.98331" lon="6.5559">
        <ele>1705.8</ele>
        <time>2026-02-02T13:14:40Z</time>
      </trkpt>
      <trkpt lat="45.98331" lon="6.5559">
        <ele>1705.8</ele>
        <time>2026-02-02T13:14:41Z</time>
      </trkpt>
      <trkpt lat="45.98331" lon="6.5559">
        <ele>1705.8</ele>
        <time>2026-02-02T13:14:42Z</time>
      </trkpt>
      <trkpt lat="45.98331" lon="6.5559">
        <ele>1705.8</ele>
        <time>2026-02-02T13:14:43Z</time>
      </trkpt>
      <trkpt lat="45.98331" lon="6.5559">
        <ele>1705.8</ele>
        <time>2026-02-02T13:14:44Z</time>
      </trkpt>
      <trkpt lat="45.98331" lon="6.5559">
        <ele>1705.8</ele>
        <time>2026-02-02T13:14:45Z</time>
      </trkpt>
      <trkpt lat="45.98331" lon="6.5559">
        <ele>1705.8</ele>
        <time>2026-02-02T13:14:46Z</time>
      </trkpt>
      <trkpt lat="45.98331" lon="6.5559">
        <ele>1705.8</ele>
        <time>2026-02-02T13:14:47Z</time>
      </trkpt>
      <trkpt lat="45.98331" lon="6.5559">
        <ele>1705.8</ele>
        <time>2026-02-02T13:14:48Z</time>
      </trkpt>
      <trkpt lat="45.98331" lon="6.5559">
        <ele>1705.8</ele>
        <time>2026-02-02T13:14:49Z</time>
      </trkpt>
      <trkpt lat="45.98331" lon="6.5559">
        <ele>1705.8</ele>
        <time>2026-02-02T13:14:50Z</time>
      </trkpt>
      <trkpt lat="45.98331" lon="6.5559">
        <ele>1705.8</ele>
        <time>2026-02-02T13:14:51Z</time>
      </trkpt>
      <trkpt lat="45.98331" lon="6.5559">
        <ele>1705.8</ele>
        <time>2026-02-02T13:14:52Z</time>
      </trkpt>
      <trkpt lat="45.98331" lon="6.5559">
        <ele>1705.8</ele>
        <time>2026-02-02T13:14:53Z</time>
      </trkpt>
      <trkpt lat="45.98331" lon="6.5559">
        <ele>1705.8</ele>
        <time>2026-02-02T13:14:54Z</time>
      </trkpt>
      <trkpt lat="45.98331" lon="6.5559">
        <ele>1705.8</ele>
        <time>2026-02-02T13:14:55Z</time>
      </trkpt>
      <trkpt lat="45.98331" lon="6.5559">
        <ele>1705.8</ele>
        <time>2026-02-02T13:14:56Z</time>
      </trkpt>
      <trkpt lat="45.98331" lon="6.5559">
        <ele>1705.8</ele>
        <time>2026-02-02T13:14:57Z</time>
      </trkpt>
      <trkpt lat="45.98331" lon="6.5559">
        <ele>1705.8</ele>
        <time>2026-02-02T13:14:58Z</time>
      </trkpt>
      <trkpt lat="45.98331" lon="6.5559">
        <ele>1705.8</ele>
        <time>2026-02-02T13:14:59Z</time>
      </trkpt>
      <trkpt lat="45.98331" lon="6.5559">
        <ele>1705.8</ele>
        <time>2026-02-02T13:15:00Z</time>
      </trkpt>
      <trkpt lat="45.98331" lon="6.5559">
        <ele>1705.8</ele>
        <time>2026-02-02T13:15:01Z</time>
      </trkpt>
      <trkpt lat="45.98331" lon="6.5559">
        <ele>1705.8</ele>
        <time>2026-02-02T13:15:02Z</time>
      </trkpt>
      <trkpt lat="45.98331" lon="6.5559">
        <ele>1705.8</ele>
        <time>2026-02-02T13:15:03Z</time>
      </trkpt>
      <trkpt lat="45.98331" lon="6.5559">
        <ele>1705.8</ele>
        <time>2026-02-02T13:15:04Z</time>
      </trkpt>
      <trkpt lat="45.98331" lon="6.5559">
        <ele>1705.8</ele>
        <time>2026-02-02T13:15:05Z</time>
      </trkpt>
      <trkpt lat="45.9833" lon="6.5559">
        <ele>1705.8</ele>
        <time>2026-02-02T13:15:06Z</time>
      </trkpt>
      <trkpt lat="45.9833" lon="6.5559">
        <ele>1705.8</ele>
        <time>2026-02-02T13:15:07Z</time>
      </trkpt>
      <trkpt lat="45.9833" lon="6.5559">
        <ele>1705.8</ele>
        <time>2026-02-02T13:15:08Z</time>
      </trkpt>
      <trkpt lat="45.9833" lon="6.5559">
        <ele>1705.8</ele>
        <time>2026-02-02T13:15:09Z</time>
      </trkpt>
      <trkpt lat="45.9833" lon="6.5559">
        <ele>1705.8</ele>
        <time>2026-02-02T13:15:10Z</time>
      </trkpt>
      <trkpt lat="45.9833" lon="6.5559">
        <ele>1705.8</ele>
        <time>2026-02-02T13:15:11Z</time>
      </trkpt>
      <trkpt lat="45.9833" lon="6.55589">
        <ele>1705.8</ele>
        <time>2026-02-02T13:15:12Z</time>
      </trkpt>
      <trkpt lat="45.9833" lon="6.55589">
        <ele>1705.8</ele>
        <time>2026-02-02T13:15:13Z</time>
      </trkpt>
      <trkpt lat="45.9833" lon="6.55589">
        <ele>1705.8</ele>
        <time>2026-02-02T13:15:14Z</time>
      </trkpt>
      <trkpt lat="45.9833" lon="6.55589">
        <ele>1705.8</ele>
        <time>2026-02-02T13:15:15Z</time>
      </trkpt>
      <trkpt lat="45.9833" lon="6.55589">
        <ele>1705.8</ele>
        <time>2026-02-02T13:15:16Z</time>
      </trkpt>
      <trkpt lat="45.9833" lon="6.55589">
        <ele>1705.8</ele>
        <time>2026-02-02T13:15:17Z</time>
      </trkpt>
      <trkpt lat="45.9833" lon="6.55589">
        <ele>1705.8</ele>
        <time>2026-02-02T13:15:18Z</time>
      </trkpt>
      <trkpt lat="45.9833" lon="6.55589">
        <ele>1705.8</ele>
        <time>2026-02-02T13:15:19Z</time>
      </trkpt>
      <trkpt lat="45.9833" lon="6.55589">
        <ele>1705.8</ele>
        <time>2026-02-02T13:15:20Z</time>
      </trkpt>
      <trkpt lat="45.9833" lon="6.55589">
        <ele>1705.8</ele>
        <time>2026-02-02T13:15:21Z</time>
      </trkpt>
      <trkpt lat="45.9833" lon="6.55589">
        <ele>1705.8</ele>
        <time>2026-02-02T13:15:22Z</time>
      </trkpt>
      <trkpt lat="45.9833" lon="6.55589">
        <ele>1705.8</ele>
        <time>2026-02-02T13:15:23Z</time>
      </trkpt>
      <trkpt lat="45.9833" lon="6.55589">
        <ele>1705.8</ele>
        <time>2026-02-02T13:15:24Z</time>
      </trkpt>
      <trkpt lat="45.9833" lon="6.55589">
        <ele>1705.8</ele>
        <time>2026-02-02T13:15:25Z</time>
      </trkpt>
      <trkpt lat="45.9833" lon="6.55589">
        <ele>1705.8</ele>
        <time>2026-02-02T13:15:26Z</time>
      </trkpt>
      <trkpt lat="45.9833" lon="6.55589">
        <ele>1705.8</ele>
        <time>2026-02-02T13:15:27Z</time>
      </trkpt>
      <trkpt lat="45.9833" lon="6.55589">
        <ele>1705.8</ele>
        <time>2026-02-02T13:15:28Z</time>
      </trkpt>
      <trkpt lat="45.9833" lon="6.55589">
        <ele>1705.8</ele>
        <time>2026-02-02T13:15:29Z</time>
      </trkpt>
      <trkpt lat="45.9833" lon="6.55589">
        <ele>1705.8</ele>
        <time>2026-02-02T13:15:30Z</time>
      </trkpt>
      <trkpt lat="45.9833" lon="6.55589">
        <ele>1705.8</ele>
        <time>2026-02-02T13:15:31Z</time>
      </trkpt>
      <trkpt lat="45.9833" lon="6.55589">
        <ele>1705.8</ele>
        <time>2026-02-02T13:15:32Z</time>
      </trkpt>
      <trkpt lat="45.9833" lon="6.55589">
        <ele>1705.8</ele>
        <time>2026-02-02T13:15:33Z</time>
      </trkpt>
      <trkpt lat="45.9833" lon="6.55589">
        <ele>1705.8</ele>
        <time>2026-02-02T13:15:34Z</time>
      </trkpt>
      <trkpt lat="45.9833" lon="6.55589">
        <ele>1705.8</ele>
        <time>2026-02-02T13:15:35Z</time>
      </trkpt>
      <trkpt lat="45.9833" lon="6.55589">
        <ele>1705.8</ele>
        <time>2026-02-02T13:15:36Z</time>
      </trkpt>
      <trkpt lat="45.9833" lon="6.55589">
        <ele>1705.8</ele>
        <time>2026-02-02T13:15:37Z</time>
      </trkpt>
      <trkpt lat="45.9833" lon="6.55589">
        <ele>1705.8</ele>
        <time>2026-02-02T13:15:38Z</time>
      </trkpt>
      <trkpt lat="45.9833" lon="6.55589">
        <ele>1705.8</ele>
        <time>2026-02-02T13:15:39Z</time>
      </trkpt>
      <trkpt lat="45.9833" lon="6.55589">
        <ele>1705.8</ele>
        <time>2026-02-02T13:15:40Z</time>
      </trkpt>
      <trkpt lat="45.9833" lon="6.55589">
        <ele>1705.8</ele>
        <time>2026-02-02T13:15:41Z</time>
      </trkpt>
      <trkpt lat="45.9833" lon="6.55589">
        <ele>1705.8</ele>
        <time>2026-02-02T13:15:42Z</time>
      </trkpt>
      <trkpt lat="45.9833" lon="6.55589">
        <ele>1705.8</ele>
        <time>2026-02-02T13:15:43Z</time>
      </trkpt>
      <trkpt lat="45.9833" lon="6.55589">
        <ele>1705.8</ele>
        <time>2026-02-02T13:15:44Z</time>
      </trkpt>
      <trkpt lat="45.9833" lon="6.55589">
        <ele>1705.8</ele>
        <time>2026-02-02T13:15:45Z</time>
      </trkpt>
      <trkpt lat="45.9833" lon="6.55589">
        <ele>1705.8</ele>
        <time>2026-02-02T13:15:46Z</time>
      </trkpt>
      <trkpt lat="45.9833" lon="6.55589">
        <ele>1705.8</ele>
        <time>2026-02-02T13:15:47Z</time>
      </trkpt>
      <trkpt lat="45.9833" lon="6.55589">
        <ele>1705.8</ele>
        <time>2026-02-02T13:15:48Z</time>
      </trkpt>
      <trkpt lat="45.9833" lon="6.55589">
        <ele>1705.8</ele>
        <time>2026-02-02T13:15:49Z</time>
      </trkpt>
      <trkpt lat="45.9833" lon="6.5559">
        <ele>1705.8</ele>
        <time>2026-02-02T13:15:50Z</time>
      </trkpt>
      <trkpt lat="45.9833" lon="6.5559">
        <ele>1705.8</ele>
        <time>2026-02-02T13:15:51Z</time>
      </trkpt>
      <trkpt lat="45.9833" lon="6.5559">
        <ele>1705.8</ele>
        <time>2026-02-02T13:15:52Z</time>
      </trkpt>
      <trkpt lat="45.9833" lon="6.5559">
        <ele>1705.8</ele>
        <time>2026-02-02T13:15:53Z</time>
      </trkpt>
      <trkpt lat="45.98329" lon="6.55589">
        <ele>1705.8</ele>
        <time>2026-02-02T13:15:54Z</time>
      </trkpt>
      <trkpt lat="45.98329" lon="6.55589">
        <ele>1705.8</ele>
        <time>2026-02-02T13:15:55Z</time>
      </trkpt>
      <trkpt lat="45.98329" lon="6.55589">
        <ele>1705.8</ele>
        <time>2026-02-02T13:15:56Z</time>
      </trkpt>
      <trkpt lat="45.98329" lon="6.55589">
        <ele>1705.8</ele>
        <time>2026-02-02T13:15:57Z</time>
      </trkpt>
      <trkpt lat="45.98329" lon="6.55589">
        <ele>1705.8</ele>
        <time>2026-02-02T13:15:58Z</time>
      </trkpt>
      <trkpt lat="45.98329" lon="6.55589">
        <ele>1705.8</ele>
        <time>2026-02-02T13:15:59Z</time>
      </trkpt>
      <trkpt lat="45.98328" lon="6.5559">
        <ele>1705.8</ele>
        <time>2026-02-02T13:16:00Z</time>
      </trkpt>
      <trkpt lat="45.98328" lon="6.5559">
        <ele>1705.8</ele>
        <time>2026-02-02T13:16:01Z</time>
      </trkpt>
      <trkpt lat="45.98328" lon="6.5559">
        <ele>1705.8</ele>
        <time>2026-02-02T13:16:02Z</time>
      </trkpt>
      <trkpt lat="45.98328" lon="6.5559">
        <ele>1705.8</ele>
        <time>2026-02-02T13:16:03Z</time>
      </trkpt>
      <trkpt lat="45.98328" lon="6.5559">
        <ele>1705.8</ele>
        <time>2026-02-02T13:16:04Z</time>
      </trkpt>
      <trkpt lat="45.98328" lon="6.5559">
        <ele>1705.8</ele>
        <time>2026-02-02T13:16:05Z</time>
      </trkpt>
      <trkpt lat="45.98328" lon="6.5559">
        <ele>1705.8</ele>
        <time>2026-02-02T13:16:06Z</time>
      </trkpt>
      <trkpt lat="45.98328" lon="6.5559">
        <ele>1705.8</ele>
        <time>2026-02-02T13:16:07Z</time>
      </trkpt>
      <trkpt lat="45.98328" lon="6.5559">
        <ele>1705.8</ele>
        <time>2026-02-02T13:16:08Z</time>
      </trkpt>
      <trkpt lat="45.98328" lon="6.5559">
        <ele>1705.8</ele>
        <time>2026-02-02T13:16:09Z</time>
      </trkpt>
      <trkpt lat="45.98328" lon="6.5559">
        <ele>1705.8</ele>
        <time>2026-02-02T13:16:10Z</time>
      </trkpt>
      <trkpt lat="45.98328" lon="6.5559">
        <ele>1705.8</ele>
        <time>2026-02-02T13:16:11Z</time>
      </trkpt>
      <trkpt lat="45.98328" lon="6.5559">
        <ele>1705.8</ele>
        <time>2026-02-02T13:16:12Z</time>
      </trkpt>
      <trkpt lat="45.98328" lon="6.5559">
        <ele>1705.8</ele>
        <time>2026-02-02T13:16:13Z</time>
      </trkpt>
      <trkpt lat="45.98328" lon="6.5559">
        <ele>1705.8</ele>
        <time>2026-02-02T13:16:14Z</time>
      </trkpt>
      <trkpt lat="45.98328" lon="6.5559">
        <ele>1705.8</ele>
        <time>2026-02-02T13:16:15Z</time>
      </trkpt>
      <trkpt lat="45.98328" lon="6.5559">
        <ele>1705.8</ele>
        <time>2026-02-02T13:16:16Z</time>
      </trkpt>
      <trkpt lat="45.98328" lon="6.5559">
        <ele>1705.8</ele>
        <time>2026-02-02T13:16:17Z</time>
      </trkpt>
      <trkpt lat="45.98328" lon="6.5559">
        <ele>1705.8</ele>
        <time>2026-02-02T13:16:18Z</time>
      </trkpt>
      <trkpt lat="45.98328" lon="6.5559">
        <ele>1705.8</ele>
        <time>2026-02-02T13:16:19Z</time>
      </trkpt>
      <trkpt lat="45.98328" lon="6.5559">
        <ele>1705.8</ele>
        <time>2026-02-02T13:16:20Z</time>
      </trkpt>
      <trkpt lat="45.98328" lon="6.5559">
        <ele>1705.8</ele>
        <time>2026-02-02T13:16:21Z</time>
      </trkpt>
      <trkpt lat="45.98328" lon="6.5559">
        <ele>1705.8</ele>
        <time>2026-02-02T13:16:22Z</time>
      </trkpt>
      <trkpt lat="45.98328" lon="6.5559">
        <ele>1705.8</ele>
        <time>2026-02-02T13:16:23Z</time>
      </trkpt>
      <trkpt lat="45.98328" lon="6.5559">
        <ele>1705.8</ele>
        <time>2026-02-02T13:16:24Z</time>
      </trkpt>
      <trkpt lat="45.98328" lon="6.5559">
        <ele>1705.8</ele>
        <time>2026-02-02T13:16:25Z</time>
      </trkpt>
      <trkpt lat="45.98328" lon="6.5559">
        <ele>1705.8</ele>
        <time>2026-02-02T13:16:26Z</time>
      </trkpt>
      <trkpt lat="45.98328" lon="6.5559">
        <ele>1705.8</ele>
        <time>2026-02-02T13:16:27Z</time>
      </trkpt>
      <trkpt lat="45.98328" lon="6.5559">
        <ele>1705.8</ele>
        <time>2026-02-02T13:16:28Z</time>
      </trkpt>
      <trkpt lat="45.98328" lon="6.5559">
        <ele>1705.8</ele>
        <time>2026-02-02T13:16:29Z</time>
      </trkpt>
      <trkpt lat="45.98328" lon="6.5559">
        <ele>1705.8</ele>
        <time>2026-02-02T13:16:30Z</time>
      </trkpt>
      <trkpt lat="45.98328" lon="6.5559">
        <ele>1705.8</ele>
        <time>2026-02-02T13:16:31Z</time>
      </trkpt>
      <trkpt lat="45.98328" lon="6.5559">
        <ele>1705.8</ele>
        <time>2026-02-02T13:16:32Z</time>
      </trkpt>
      <trkpt lat="45.98328" lon="6.5559">
        <ele>1705.8</ele>
        <time>2026-02-02T13:16:33Z</time>
      </trkpt>
      <trkpt lat="45.98328" lon="6.5559">
        <ele>1705.8</ele>
        <time>2026-02-02T13:16:34Z</time>
      </trkpt>
      <trkpt lat="45.98328" lon="6.5559">
        <ele>1705.8</ele>
        <time>2026-02-02T13:16:35Z</time>
      </trkpt>
      <trkpt lat="45.98328" lon="6.5559">
        <ele>1705.8</ele>
        <time>2026-02-02T13:16:36Z</time>
      </trkpt>
      <trkpt lat="45.98328" lon="6.5559">
        <ele>1705.8</ele>
        <time>2026-02-02T13:16:37Z</time>
      </trkpt>
      <trkpt lat="45.98328" lon="6.5559">
        <ele>1705.8</ele>
        <time>2026-02-02T13:16:38Z</time>
      </trkpt>
      <trkpt lat="45.98328" lon="6.5559">
        <ele>1705.8</ele>
        <time>2026-02-02T13:16:39Z</time>
      </trkpt>
      <trkpt lat="45.98328" lon="6.5559">
        <ele>1705.8</ele>
        <time>2026-02-02T13:16:40Z</time>
      </trkpt>
      <trkpt lat="45.98327" lon="6.55589">
        <ele>1705.1</ele>
        <time>2026-02-02T13:16:41Z</time>
      </trkpt>
      <trkpt lat="45.98327" lon="6.55589">
        <ele>1705.1</ele>
        <time>2026-02-02T13:16:42Z</time>
      </trkpt>
      <trkpt lat="45.98327" lon="6.55589">
        <ele>1705.1</ele>
        <time>2026-02-02T13:16:43Z</time>
      </trkpt>
      <trkpt lat="45.98327" lon="6.55589">
        <ele>1705.1</ele>
        <time>2026-02-02T13:16:44Z</time>
      </trkpt>
      <trkpt lat="45.98327" lon="6.55589">
        <ele>1705.1</ele>
        <time>2026-02-02T13:16:45Z</time>
      </trkpt>
      <trkpt lat="45.98327" lon="6.55589">
        <ele>1705.1</ele>
        <time>2026-02-02T13:16:46Z</time>
      </trkpt>
      <trkpt lat="45.98327" lon="6.55589">
        <ele>1705.1</ele>
        <time>2026-02-02T13:16:47Z</time>
      </trkpt>
      <trkpt lat="45.98327" lon="6.55589">
        <ele>1705.1</ele>
        <time>2026-02-02T13:16:48Z</time>
      </trkpt>
      <trkpt lat="45.98327" lon="6.55589">
        <ele>1705.1</ele>
        <time>2026-02-02T13:16:49Z</time>
      </trkpt>
      <trkpt lat="45.98327" lon="6.55589">
        <ele>1705.1</ele>
        <time>2026-02-02T13:16:50Z</time>
      </trkpt>
      <trkpt lat="45.98327" lon="6.55589">
        <ele>1705.1</ele>
        <time>2026-02-02T13:16:51Z</time>
      </trkpt>
      <trkpt lat="45.98327" lon="6.55589">
        <ele>1705.1</ele>
        <time>2026-02-02T13:16:52Z</time>
      </trkpt>
      <trkpt lat="45.98327" lon="6.55589">
        <ele>1705.1</ele>
        <time>2026-02-02T13:16:53Z</time>
      </trkpt>
      <trkpt lat="45.98327" lon="6.55589">
        <ele>1705.1</ele>
        <time>2026-02-02T13:16:54Z</time>
      </trkpt>
      <trkpt lat="45.98327" lon="6.55589">
        <ele>1705.1</ele>
        <time>2026-02-02T13:16:55Z</time>
      </trkpt>
      <trkpt lat="45.98328" lon="6.55589">
        <ele>1705.8</ele>
        <time>2026-02-02T13:16:56Z</time>
      </trkpt>
      <trkpt lat="45.98329" lon="6.55589">
        <ele>1705.8</ele>
        <time>2026-02-02T13:16:57Z</time>
      </trkpt>
      <trkpt lat="45.98328" lon="6.55589">
        <ele>1705.8</ele>
        <time>2026-02-02T13:16:58Z</time>
      </trkpt>
      <trkpt lat="45.98328" lon="6.5559">
        <ele>1705.8</ele>
        <time>2026-02-02T13:16:59Z</time>
      </trkpt>
      <trkpt lat="45.98328" lon="6.5559">
        <ele>1705.1</ele>
        <time>2026-02-02T13:17:00Z</time>
      </trkpt>
      <trkpt lat="45.98328" lon="6.5559">
        <ele>1705.1</ele>
        <time>2026-02-02T13:17:01Z</time>
      </trkpt>
      <trkpt lat="45.98328" lon="6.5559">
        <ele>1705.1</ele>
        <time>2026-02-02T13:17:02Z</time>
      </trkpt>
      <trkpt lat="45.98328" lon="6.5559">
        <ele>1705.1</ele>
        <time>2026-02-02T13:17:03Z</time>
      </trkpt>
      <trkpt lat="45.98328" lon="6.5559">
        <ele>1705.1</ele>
        <time>2026-02-02T13:17:04Z</time>
      </trkpt>
      <trkpt lat="45.98328" lon="6.5559">
        <ele>1705.1</ele>
        <time>2026-02-02T13:17:05Z</time>
      </trkpt>
      <trkpt lat="45.98328" lon="6.5559">
        <ele>1705.1</ele>
        <time>2026-02-02T13:17:06Z</time>
      </trkpt>
      <trkpt lat="45.98328" lon="6.5559">
        <ele>1705.1</ele>
        <time>2026-02-02T13:17:07Z</time>
      </trkpt>
      <trkpt lat="45.98328" lon="6.5559">
        <ele>1705.1</ele>
        <time>2026-02-02T13:17:08Z</time>
      </trkpt>
      <trkpt lat="45.98328" lon="6.5559">
        <ele>1705.1</ele>
        <time>2026-02-02T13:17:09Z</time>
      </trkpt>
      <trkpt lat="45.98328" lon="6.5559">
        <ele>1705.1</ele>
        <time>2026-02-02T13:17:10Z</time>
      </trkpt>
      <trkpt lat="45.98328" lon="6.55589">
        <ele>1705.8</ele>
        <time>2026-02-02T13:17:11Z</time>
      </trkpt>
      <trkpt lat="45.98328" lon="6.55589">
        <ele>1705.8</ele>
        <time>2026-02-02T13:17:12Z</time>
      </trkpt>
      <trkpt lat="45.98328" lon="6.55589">
        <ele>1705.8</ele>
        <time>2026-02-02T13:17:13Z</time>
      </trkpt>
      <trkpt lat="45.98328" lon="6.55589">
        <ele>1705.8</ele>
        <time>2026-02-02T13:17:14Z</time>
      </trkpt>
      <trkpt lat="45.98328" lon="6.55589">
        <ele>1705.8</ele>
        <time>2026-02-02T13:17:15Z</time>
      </trkpt>
      <trkpt lat="45.98328" lon="6.55589">
        <ele>1705.8</ele>
        <time>2026-02-02T13:17:16Z</time>
      </trkpt>
      <trkpt lat="45.98328" lon="6.55589">
        <ele>1705.8</ele>
        <time>2026-02-02T13:17:17Z</time>
      </trkpt>
      <trkpt lat="45.98328" lon="6.55589">
        <ele>1705.8</ele>
        <time>2026-02-02T13:17:18Z</time>
      </trkpt>
      <trkpt lat="45.98328" lon="6.55589">
        <ele>1705.8</ele>
        <time>2026-02-02T13:17:19Z</time>
      </trkpt>
      <trkpt lat="45.98328" lon="6.55589">
        <ele>1705.8</ele>
        <time>2026-02-02T13:17:20Z</time>
      </trkpt>
      <trkpt lat="45.98328" lon="6.55589">
        <ele>1705.8</ele>
        <time>2026-02-02T13:17:21Z</time>
      </trkpt>
      <trkpt lat="45.98328" lon="6.55589">
        <ele>1705.8</ele>
        <time>2026-02-02T13:17:22Z</time>
      </trkpt>
      <trkpt lat="45.98328" lon="6.55589">
        <ele>1705.8</ele>
        <time>2026-02-02T13:17:23Z</time>
      </trkpt>
      <trkpt lat="45.98328" lon="6.55589">
        <ele>1705.8</ele>
        <time>2026-02-02T13:17:24Z</time>
      </trkpt>
      <trkpt lat="45.98328" lon="6.55589">
        <ele>1705.8</ele>
        <time>2026-02-02T13:17:25Z</time>
      </trkpt>
      <trkpt lat="45.98328" lon="6.55589">
        <ele>1705.8</ele>
        <time>2026-02-02T13:17:26Z</time>
      </trkpt>
      <trkpt lat="45.98328" lon="6.55589">
        <ele>1705.8</ele>
        <time>2026-02-02T13:17:27Z</time>
      </trkpt>
      <trkpt lat="45.98328" lon="6.55589">
        <ele>1705.8</ele>
        <time>2026-02-02T13:17:28Z</time>
      </trkpt>
      <trkpt lat="45.98328" lon="6.55589">
        <ele>1705.8</ele>
        <time>2026-02-02T13:17:29Z</time>
      </trkpt>
      <trkpt lat="45.98328" lon="6.55589">
        <ele>1705.8</ele>
        <time>2026-02-02T13:17:30Z</time>
      </trkpt>
      <trkpt lat="45.98328" lon="6.55589">
        <ele>1705.8</ele>
        <time>2026-02-02T13:17:31Z</time>
      </trkpt>
      <trkpt lat="45.98328" lon="6.55589">
        <ele>1705.8</ele>
        <time>2026-02-02T13:17:32Z</time>
      </trkpt>
      <trkpt lat="45.98328" lon="6.55589">
        <ele>1705.8</ele>
        <time>2026-02-02T13:17:33Z</time>
      </trkpt>
      <trkpt lat="45.98328" lon="6.55589">
        <ele>1705.8</ele>
        <time>2026-02-02T13:17:34Z</time>
      </trkpt>
      <trkpt lat="45.98329" lon="6.55589">
        <ele>1705.8</ele>
        <time>2026-02-02T13:17:35Z</time>
      </trkpt>
      <trkpt lat="45.98329" lon="6.55589">
        <ele>1705.8</ele>
        <time>2026-02-02T13:17:36Z</time>
      </trkpt>
      <trkpt lat="45.98329" lon="6.55589">
        <ele>1705.8</ele>
        <time>2026-02-02T13:17:37Z</time>
      </trkpt>
      <trkpt lat="45.98329" lon="6.55589">
        <ele>1705.8</ele>
        <time>2026-02-02T13:17:38Z</time>
      </trkpt>
      <trkpt lat="45.98329" lon="6.55589">
        <ele>1705.8</ele>
        <time>2026-02-02T13:17:39Z</time>
      </trkpt>
      <trkpt lat="45.9833" lon="6.55589">
        <ele>1705.8</ele>
        <time>2026-02-02T13:17:40Z</time>
      </trkpt>
      <trkpt lat="45.9833" lon="6.55589">
        <ele>1705.8</ele>
        <time>2026-02-02T13:17:41Z</time>
      </trkpt>
      <trkpt lat="45.9833" lon="6.55589">
        <ele>1705.8</ele>
        <time>2026-02-02T13:17:42Z</time>
      </trkpt>
      <trkpt lat="45.9833" lon="6.55589">
        <ele>1705.8</ele>
        <time>2026-02-02T13:17:43Z</time>
      </trkpt>
      <trkpt lat="45.9833" lon="6.55589">
        <ele>1705.8</ele>
        <time>2026-02-02T13:17:44Z</time>
      </trkpt>
      <trkpt lat="45.9833" lon="6.55589">
        <ele>1705.8</ele>
        <time>2026-02-02T13:17:45Z</time>
      </trkpt>
      <trkpt lat="45.9833" lon="6.55589">
        <ele>1705.8</ele>
        <time>2026-02-02T13:17:46Z</time>
      </trkpt>
      <trkpt lat="45.9833" lon="6.55589">
        <ele>1705.8</ele>
        <time>2026-02-02T13:17:47Z</time>
      </trkpt>
      <trkpt lat="45.9833" lon="6.55589">
        <ele>1705.8</ele>
        <time>2026-02-02T13:17:48Z</time>
      </trkpt>
      <trkpt lat="45.9833" lon="6.55589">
        <ele>1705.8</ele>
        <time>2026-02-02T13:17:49Z</time>
      </trkpt>
      <trkpt lat="45.9833" lon="6.55589">
        <ele>1705.8</ele>
        <time>2026-02-02T13:17:50Z</time>
      </trkpt>
      <trkpt lat="45.9833" lon="6.55589">
        <ele>1705.8</ele>
        <time>2026-02-02T13:17:51Z</time>
      </trkpt>
      <trkpt lat="45.9833" lon="6.55589">
        <ele>1705.8</ele>
        <time>2026-02-02T13:17:52Z</time>
      </trkpt>
      <trkpt lat="45.9833" lon="6.55589">
        <ele>1705.8</ele>
        <time>2026-02-02T13:17:53Z</time>
      </trkpt>
      <trkpt lat="45.9833" lon="6.55589">
        <ele>1705.8</ele>
        <time>2026-02-02T13:17:54Z</time>
      </trkpt>
      <trkpt lat="45.9833" lon="6.55589">
        <ele>1705.8</ele>
        <time>2026-02-02T13:17:55Z</time>
      </trkpt>
      <trkpt lat="45.9833" lon="6.55589">
        <ele>1705.8</ele>
        <time>2026-02-02T13:17:56Z</time>
      </trkpt>
      <trkpt lat="45.9833" lon="6.55589">
        <ele>1705.8</ele>
        <time>2026-02-02T13:17:57Z</time>
      </trkpt>
      <trkpt lat="45.9833" lon="6.55589">
        <ele>1705.8</ele>
        <time>2026-02-02T13:17:58Z</time>
      </trkpt>
      <trkpt lat="45.9833" lon="6.55589">
        <ele>1705.8</ele>
        <time>2026-02-02T13:17:59Z</time>
      </trkpt>
      <trkpt lat="45.9833" lon="6.55589">
        <ele>1705.8</ele>
        <time>2026-02-02T13:18:00Z</time>
      </trkpt>
      <trkpt lat="45.9833" lon="6.55589">
        <ele>1705.8</ele>
        <time>2026-02-02T13:18:01Z</time>
      </trkpt>
      <trkpt lat="45.9833" lon="6.55589">
        <ele>1705.8</ele>
        <time>2026-02-02T13:18:02Z</time>
      </trkpt>
      <trkpt lat="45.9833" lon="6.55589">
        <ele>1705.8</ele>
        <time>2026-02-02T13:18:03Z</time>
      </trkpt>
      <trkpt lat="45.9833" lon="6.55589">
        <ele>1705.8</ele>
        <time>2026-02-02T13:18:04Z</time>
      </trkpt>
      <trkpt lat="45.9833" lon="6.55589">
        <ele>1705.8</ele>
        <time>2026-02-02T13:18:05Z</time>
      </trkpt>
      <trkpt lat="45.9833" lon="6.55589">
        <ele>1705.8</ele>
        <time>2026-02-02T13:18:06Z</time>
      </trkpt>
      <trkpt lat="45.9833" lon="6.55589">
        <ele>1705.8</ele>
        <time>2026-02-02T13:18:07Z</time>
      </trkpt>
      <trkpt lat="45.9833" lon="6.55589">
        <ele>1705.8</ele>
        <time>2026-02-02T13:18:08Z</time>
      </trkpt>
      <trkpt lat="45.9833" lon="6.55589">
        <ele>1705.8</ele>
        <time>2026-02-02T13:18:09Z</time>
      </trkpt>
      <trkpt lat="45.9833" lon="6.55589">
        <ele>1705.8</ele>
        <time>2026-02-02T13:18:10Z</time>
      </trkpt>
      <trkpt lat="45.9833" lon="6.55589">
        <ele>1705.8</ele>
        <time>2026-02-02T13:18:11Z</time>
      </trkpt>
      <trkpt lat="45.9833" lon="6.55589">
        <ele>1705.8</ele>
        <time>2026-02-02T13:18:12Z</time>
      </trkpt>
      <trkpt lat="45.9833" lon="6.55589">
        <ele>1705.8</ele>
        <time>2026-02-02T13:18:13Z</time>
      </trkpt>
      <trkpt lat="45.9833" lon="6.55589">
        <ele>1705.8</ele>
        <time>2026-02-02T13:18:14Z</time>
      </trkpt>
      <trkpt lat="45.9833" lon="6.55589">
        <ele>1705.8</ele>
        <time>2026-02-02T13:18:15Z</time>
      </trkpt>
      <trkpt lat="45.9833" lon="6.55589">
        <ele>1705.8</ele>
        <time>2026-02-02T13:18:16Z</time>
      </trkpt>
      <trkpt lat="45.9833" lon="6.55589">
        <ele>1705.8</ele>
        <time>2026-02-02T13:18:17Z</time>
      </trkpt>
      <trkpt lat="45.9833" lon="6.55589">
        <ele>1705.8</ele>
        <time>2026-02-02T13:18:18Z</time>
      </trkpt>
      <trkpt lat="45.9833" lon="6.55589">
        <ele>1705.8</ele>
        <time>2026-02-02T13:18:19Z</time>
      </trkpt>
      <trkpt lat="45.9833" lon="6.55589">
        <ele>1705.8</ele>
        <time>2026-02-02T13:18:20Z</time>
      </trkpt>
      <trkpt lat="45.9833" lon="6.55589">
        <ele>1705.8</ele>
        <time>2026-02-02T13:18:21Z</time>
      </trkpt>
      <trkpt lat="45.9833" lon="6.55589">
        <ele>1705.8</ele>
        <time>2026-02-02T13:18:22Z</time>
      </trkpt>
      <trkpt lat="45.9833" lon="6.55589">
        <ele>1705.8</ele>
        <time>2026-02-02T13:18:23Z</time>
      </trkpt>
      <trkpt lat="45.9833" lon="6.55589">
        <ele>1705.8</ele>
        <time>2026-02-02T13:18:24Z</time>
      </trkpt>
      <trkpt lat="45.9833" lon="6.55589">
        <ele>1705.8</ele>
        <time>2026-02-02T13:18:25Z</time>
      </trkpt>
      <trkpt lat="45.9833" lon="6.55589">
        <ele>1705.8</ele>
        <time>2026-02-02T13:18:26Z</time>
      </trkpt>
      <trkpt lat="45.9833" lon="6.55589">
        <ele>1705.8</ele>
        <time>2026-02-02T13:18:27Z</time>
      </trkpt>
      <trkpt lat="45.9833" lon="6.55589">
        <ele>1705.8</ele>
        <time>2026-02-02T13:18:28Z</time>
      </trkpt>
      <trkpt lat="45.9833" lon="6.55589">
        <ele>1705.8</ele>
        <time>2026-02-02T13:18:29Z</time>
      </trkpt>
      <trkpt lat="45.9833" lon="6.55589">
        <ele>1705.8</ele>
        <time>2026-02-02T13:18:30Z</time>
      </trkpt>
      <trkpt lat="45.9833" lon="6.55589">
        <ele>1705.8</ele>
        <time>2026-02-02T13:18:31Z</time>
      </trkpt>
      <trkpt lat="45.9833" lon="6.55589">
        <ele>1705.8</ele>
        <time>2026-02-02T13:18:32Z</time>
      </trkpt>
      <trkpt lat="45.9833" lon="6.55589">
        <ele>1705.8</ele>
        <time>2026-02-02T13:18:33Z</time>
      </trkpt>
      <trkpt lat="45.9833" lon="6.55589">
        <ele>1705.8</ele>
        <time>2026-02-02T13:18:34Z</time>
      </trkpt>
      <trkpt lat="45.9833" lon="6.55589">
        <ele>1705.8</ele>
        <time>2026-02-02T13:18:35Z</time>
      </trkpt>
      <trkpt lat="45.9833" lon="6.55589">
        <ele>1705.8</ele>
        <time>2026-02-02T13:18:36Z</time>
      </trkpt>
      <trkpt lat="45.9833" lon="6.55588">
        <ele>1705.8</ele>
        <time>2026-02-02T13:18:37Z</time>
      </trkpt>
      <trkpt lat="45.9833" lon="6.55587">
        <ele>1704.4</ele>
        <time>2026-02-02T13:18:38Z</time>
      </trkpt>
      <trkpt lat="45.98331" lon="6.55587">
        <ele>1705.1</ele>
        <time>2026-02-02T13:18:39Z</time>
      </trkpt>
      <trkpt lat="45.98331" lon="6.55587">
        <ele>1705.1</ele>
        <time>2026-02-02T13:18:40Z</time>
      </trkpt>
      <trkpt lat="45.98331" lon="6.55587">
        <ele>1705.1</ele>
        <time>2026-02-02T13:18:41Z</time>
      </trkpt>
      <trkpt lat="45.98331" lon="6.55587">
        <ele>1705.1</ele>
        <time>2026-02-02T13:18:42Z</time>
      </trkpt>
      <trkpt lat="45.98331" lon="6.55588">
        <ele>1706.5</ele>
        <time>2026-02-02T13:18:43Z</time>
      </trkpt>
      <trkpt lat="45.98332" lon="6.55588">
        <ele>1706.5</ele>
        <time>2026-02-02T13:18:44Z</time>
      </trkpt>
      <trkpt lat="45.98332" lon="6.55588">
        <ele>1706.5</ele>
        <time>2026-02-02T13:18:45Z</time>
      </trkpt>
      <trkpt lat="45.98332" lon="6.55588">
        <ele>1706.5</ele>
        <time>2026-02-02T13:18:46Z</time>
      </trkpt>
      <trkpt lat="45.98332" lon="6.55588">
        <ele>1706.5</ele>
        <time>2026-02-02T13:18:47Z</time>
      </trkpt>
      <trkpt lat="45.98332" lon="6.55588">
        <ele>1706.5</ele>
        <time>2026-02-02T13:18:48Z</time>
      </trkpt>
      <trkpt lat="45.98332" lon="6.55588">
        <ele>1706.5</ele>
        <time>2026-02-02T13:18:49Z</time>
      </trkpt>
      <trkpt lat="45.98332" lon="6.55588">
        <ele>1706.5</ele>
        <time>2026-02-02T13:18:50Z</time>
      </trkpt>
      <trkpt lat="45.98332" lon="6.55588">
        <ele>1706.5</ele>
        <time>2026-02-02T13:18:51Z</time>
      </trkpt>
      <trkpt lat="45.98332" lon="6.55588">
        <ele>1706.5</ele>
        <time>2026-02-02T13:18:52Z</time>
      </trkpt>
      <trkpt lat="45.98332" lon="6.55588">
        <ele>1706.5</ele>
        <time>2026-02-02T13:18:53Z</time>
      </trkpt>
      <trkpt lat="45.98332" lon="6.55588">
        <ele>1706.5</ele>
        <time>2026-02-02T13:18:54Z</time>
      </trkpt>
      <trkpt lat="45.98332" lon="6.55588">
        <ele>1706.5</ele>
        <time>2026-02-02T13:18:55Z</time>
      </trkpt>
      <trkpt lat="45.98332" lon="6.55588">
        <ele>1706.5</ele>
        <time>2026-02-02T13:18:56Z</time>
      </trkpt>
      <trkpt lat="45.98332" lon="6.55588">
        <ele>1706.5</ele>
        <time>2026-02-02T13:18:57Z</time>
      </trkpt>
      <trkpt lat="45.98332" lon="6.55588">
        <ele>1706.5</ele>
        <time>2026-02-02T13:18:58Z</time>
      </trkpt>
      <trkpt lat="45.98332" lon="6.55588">
        <ele>1706.5</ele>
        <time>2026-02-02T13:18:59Z</time>
      </trkpt>
      <trkpt lat="45.98332" lon="6.55588">
        <ele>1705.1</ele>
        <time>2026-02-02T13:19:00Z</time>
      </trkpt>
      <trkpt lat="45.98333" lon="6.55587">
        <ele>1705.1</ele>
        <time>2026-02-02T13:19:01Z</time>
      </trkpt>
      <trkpt lat="45.98333" lon="6.55588">
        <ele>1705.1</ele>
        <time>2026-02-02T13:19:02Z</time>
      </trkpt>
      <trkpt lat="45.98333" lon="6.55588">
        <ele>1706.5</ele>
        <time>2026-02-02T13:19:03Z</time>
      </trkpt>
      <trkpt lat="45.98333" lon="6.55588">
        <ele>1706.5</ele>
        <time>2026-02-02T13:19:04Z</time>
      </trkpt>
      <trkpt lat="45.98333" lon="6.55587">
        <ele>1705.1</ele>
        <time>2026-02-02T13:19:05Z</time>
      </trkpt>
      <trkpt lat="45.98333" lon="6.55587">
        <ele>1705.1</ele>
        <time>2026-02-02T13:19:06Z</time>
      </trkpt>
      <trkpt lat="45.98333" lon="6.55587">
        <ele>1705.1</ele>
        <time>2026-02-02T13:19:07Z</time>
      </trkpt>
      <trkpt lat="45.98333" lon="6.55588">
        <ele>1705.1</ele>
        <time>2026-02-02T13:19:08Z</time>
      </trkpt>
      <trkpt lat="45.98333" lon="6.55588">
        <ele>1705.1</ele>
        <time>2026-02-02T13:19:09Z</time>
      </trkpt>
      <trkpt lat="45.98333" lon="6.55588">
        <ele>1705.1</ele>
        <time>2026-02-02T13:19:10Z</time>
      </trkpt>
      <trkpt lat="45.98334" lon="6.55587">
        <ele>1705.9</ele>
        <time>2026-02-02T13:19:11Z</time>
      </trkpt>
      <trkpt lat="45.98334" lon="6.55587">
        <ele>1705.9</ele>
        <time>2026-02-02T13:19:12Z</time>
      </trkpt>
      <trkpt lat="45.98335" lon="6.55587">
        <ele>1705.9</ele>
        <time>2026-02-02T13:19:13Z</time>
      </trkpt>
      <trkpt lat="45.98335" lon="6.55586">
        <ele>1705.9</ele>
        <time>2026-02-02T13:19:14Z</time>
      </trkpt>
      <trkpt lat="45.98336" lon="6.55585">
        <ele>1705.9</ele>
        <time>2026-02-02T13:19:15Z</time>
      </trkpt>
      <trkpt lat="45.98336" lon="6.55585">
        <ele>1705.9</ele>
        <time>2026-02-02T13:19:16Z</time>
      </trkpt>
      <trkpt lat="45.98337" lon="6.55585">
        <ele>1706.6</ele>
        <time>2026-02-02T13:19:17Z</time>
      </trkpt>
      <trkpt lat="45.98338" lon="6.55585">
        <ele>1706.6</ele>
        <time>2026-02-02T13:19:18Z</time>
      </trkpt>
      <trkpt lat="45.98339" lon="6.55584">
        <ele>1706.6</ele>
        <time>2026-02-02T13:19:19Z</time>
      </trkpt>
      <trkpt lat="45.98339" lon="6.55584">
        <ele>1706.6</ele>
        <time>2026-02-02T13:19:20Z</time>
      </trkpt>
      <trkpt lat="45.9834" lon="6.55584">
        <ele>1707.3</ele>
        <time>2026-02-02T13:19:21Z</time>
      </trkpt>
      <trkpt lat="45.9834" lon="6.55583">
        <ele>1705.9</ele>
        <time>2026-02-02T13:19:22Z</time>
      </trkpt>
      <trkpt lat="45.9834" lon="6.55583">
        <ele>1705.9</ele>
        <time>2026-02-02T13:19:23Z</time>
      </trkpt>
      <trkpt lat="45.9834" lon="6.55583">
        <ele>1705.9</ele>
        <time>2026-02-02T13:19:24Z</time>
      </trkpt>
      <trkpt lat="45.98342" lon="6.55582">
        <ele>1705.9</ele>
        <time>2026-02-02T13:19:25Z</time>
      </trkpt>
      <trkpt lat="45.98343" lon="6.55582">
        <ele>1706.5</ele>
        <time>2026-02-02T13:19:26Z</time>
      </trkpt>
      <trkpt lat="45.98344" lon="6.55582">
        <ele>1706.5</ele>
        <time>2026-02-02T13:19:27Z</time>
      </trkpt>
      <trkpt lat="45.98345" lon="6.55582">
        <ele>1706.5</ele>
        <time>2026-02-02T13:19:28Z</time>
      </trkpt>
      <trkpt lat="45.98345" lon="6.55581">
        <ele>1706.5</ele>
        <time>2026-02-02T13:19:29Z</time>
      </trkpt>
      <trkpt lat="45.98346" lon="6.5558">
        <ele>1707</ele>
        <time>2026-02-02T13:19:30Z</time>
      </trkpt>
      <trkpt lat="45.98347" lon="6.55579">
        <ele>1707</ele>
        <time>2026-02-02T13:19:31Z</time>
      </trkpt>
      <trkpt lat="45.98347" lon="6.55579">
        <ele>1707</ele>
        <time>2026-02-02T13:19:32Z</time>
      </trkpt>
      <trkpt lat="45.98347" lon="6.55579">
        <ele>1705.6</ele>
        <time>2026-02-02T13:19:33Z</time>
      </trkpt>
      <trkpt lat="45.98347" lon="6.55579">
        <ele>1705.6</ele>
        <time>2026-02-02T13:19:34Z</time>
      </trkpt>
      <trkpt lat="45.98348" lon="6.55578">
        <ele>1705.6</ele>
        <time>2026-02-02T13:19:35Z</time>
      </trkpt>
      <trkpt lat="45.98348" lon="6.55578">
        <ele>1705.6</ele>
        <time>2026-02-02T13:19:36Z</time>
      </trkpt>
      <trkpt lat="45.98349" lon="6.55578">
        <ele>1706.2</ele>
        <time>2026-02-02T13:19:37Z</time>
      </trkpt>
      <trkpt lat="45.9835" lon="6.55577">
        <ele>1706.2</ele>
        <time>2026-02-02T13:19:38Z</time>
      </trkpt>
      <trkpt lat="45.98351" lon="6.55576">
        <ele>1706.2</ele>
        <time>2026-02-02T13:19:39Z</time>
      </trkpt>
      <trkpt lat="45.98352" lon="6.55575">
        <ele>1706.7</ele>
        <time>2026-02-02T13:19:40Z</time>
      </trkpt>
      <trkpt lat="45.98352" lon="6.55576">
        <ele>1706.7</ele>
        <time>2026-02-02T13:19:41Z</time>
      </trkpt>
      <trkpt lat="45.98351" lon="6.55575">
        <ele>1706.2</ele>
        <time>2026-02-02T13:19:42Z</time>
      </trkpt>
      <trkpt lat="45.9835" lon="6.55576">
        <ele>1706.2</ele>
        <time>2026-02-02T13:19:43Z</time>
      </trkpt>
      <trkpt lat="45.9835" lon="6.55576">
        <ele>1706.2</ele>
        <time>2026-02-02T13:19:44Z</time>
      </trkpt>
      <trkpt lat="45.9835" lon="6.55576">
        <ele>1706.2</ele>
        <time>2026-02-02T13:19:45Z</time>
      </trkpt>
      <trkpt lat="45.9835" lon="6.55576">
        <ele>1706.2</ele>
        <time>2026-02-02T13:19:46Z</time>
      </trkpt>
      <trkpt lat="45.9835" lon="6.55576">
        <ele>1706.2</ele>
        <time>2026-02-02T13:19:47Z</time>
      </trkpt>
      <trkpt lat="45.9835" lon="6.55576">
        <ele>1706.2</ele>
        <time>2026-02-02T13:19:48Z</time>
      </trkpt>
      <trkpt lat="45.9835" lon="6.55576">
        <ele>1706.2</ele>
        <time>2026-02-02T13:19:49Z</time>
      </trkpt>
      <trkpt lat="45.9835" lon="6.55576">
        <ele>1706.2</ele>
        <time>2026-02-02T13:19:50Z</time>
      </trkpt>
      <trkpt lat="45.9835" lon="6.55576">
        <ele>1706.2</ele>
        <time>2026-02-02T13:19:51Z</time>
      </trkpt>
      <trkpt lat="45.9835" lon="6.55576">
        <ele>1706.2</ele>
        <time>2026-02-02T13:19:52Z</time>
      </trkpt>
      <trkpt lat="45.9835" lon="6.55576">
        <ele>1706.2</ele>
        <time>2026-02-02T13:19:53Z</time>
      </trkpt>
      <trkpt lat="45.98351" lon="6.55574">
        <ele>1704.8</ele>
        <time>2026-02-02T13:19:54Z</time>
      </trkpt>
      <trkpt lat="45.98352" lon="6.55574">
        <ele>1705.3</ele>
        <time>2026-02-02T13:19:55Z</time>
      </trkpt>
      <trkpt lat="45.98352" lon="6.55574">
        <ele>1705.3</ele>
        <time>2026-02-02T13:19:56Z</time>
      </trkpt>
      <trkpt lat="45.98351" lon="6.55574">
        <ele>1704.8</ele>
        <time>2026-02-02T13:19:57Z</time>
      </trkpt>
      <trkpt lat="45.98351" lon="6.55573">
        <ele>1704.8</ele>
        <time>2026-02-02T13:19:58Z</time>
      </trkpt>
      <trkpt lat="45.98352" lon="6.55572">
        <ele>1705.3</ele>
        <time>2026-02-02T13:19:59Z</time>
      </trkpt>
      <trkpt lat="45.98353" lon="6.55572">
        <ele>1705.3</ele>
        <time>2026-02-02T13:20:00Z</time>
      </trkpt>
      <trkpt lat="45.98354" lon="6.55572">
        <ele>1705.3</ele>
        <time>2026-02-02T13:20:01Z</time>
      </trkpt>
      <trkpt lat="45.98354" lon="6.55571">
        <ele>1705.3</ele>
        <time>2026-02-02T13:20:02Z</time>
      </trkpt>
      <trkpt lat="45.98355" lon="6.55571">
        <ele>1705.9</ele>
        <time>2026-02-02T13:20:03Z</time>
      </trkpt>
      <trkpt lat="45.98356" lon="6.5557">
        <ele>1704.5</ele>
        <time>2026-02-02T13:20:04Z</time>
      </trkpt>
      <trkpt lat="45.98356" lon="6.55568">
        <ele>1704.5</ele>
        <time>2026-02-02T13:20:05Z</time>
      </trkpt>
      <trkpt lat="45.98357" lon="6.55569">
        <ele>1704.5</ele>
        <time>2026-02-02T13:20:06Z</time>
      </trkpt>
      <trkpt lat="45.98357" lon="6.55568">
        <ele>1704.5</ele>
        <time>2026-02-02T13:20:07Z</time>
      </trkpt>
      <trkpt lat="45.98357" lon="6.55568">
        <ele>1704.5</ele>
        <time>2026-02-02T13:20:08Z</time>
      </trkpt>
      <trkpt lat="45.98358" lon="6.55567">
        <ele>1705.1</ele>
        <time>2026-02-02T13:20:09Z</time>
      </trkpt>
      <trkpt lat="45.98359" lon="6.55567">
        <ele>1705.1</ele>
        <time>2026-02-02T13:20:10Z</time>
      </trkpt>
      <trkpt lat="45.98359" lon="6.55566">
        <ele>1703.6</ele>
        <time>2026-02-02T13:20:11Z</time>
      </trkpt>
      <trkpt lat="45.9836" lon="6.55566">
        <ele>1703.6</ele>
        <time>2026-02-02T13:20:12Z</time>
      </trkpt>
      <trkpt lat="45.9836" lon="6.55566">
        <ele>1703.6</ele>
        <time>2026-02-02T13:20:13Z</time>
      </trkpt>
      <trkpt lat="45.9836" lon="6.55566">
        <ele>1704.2</ele>
        <time>2026-02-02T13:20:14Z</time>
      </trkpt>
      <trkpt lat="45.9836" lon="6.55566">
        <ele>1705.7</ele>
        <time>2026-02-02T13:20:15Z</time>
      </trkpt>
      <trkpt lat="45.9836" lon="6.55566">
        <ele>1705.7</ele>
        <time>2026-02-02T13:20:16Z</time>
      </trkpt>
      <trkpt lat="45.9836" lon="6.55566">
        <ele>1705.7</ele>
        <time>2026-02-02T13:20:17Z</time>
      </trkpt>
      <trkpt lat="45.98361" lon="6.55566">
        <ele>1705.7</ele>
        <time>2026-02-02T13:20:18Z</time>
      </trkpt>
      <trkpt lat="45.98361" lon="6.55566">
        <ele>1705.7</ele>
        <time>2026-02-02T13:20:19Z</time>
      </trkpt>
      <trkpt lat="45.98361" lon="6.55566">
        <ele>1705.7</ele>
        <time>2026-02-02T13:20:20Z</time>
      </trkpt>
      <trkpt lat="45.98361" lon="6.55567">
        <ele>1705.7</ele>
        <time>2026-02-02T13:20:21Z</time>
      </trkpt>
      <trkpt lat="45.98361" lon="6.55567">
        <ele>1705.7</ele>
        <time>2026-02-02T13:20:22Z</time>
      </trkpt>
      <trkpt lat="45.98361" lon="6.55567">
        <ele>1705.7</ele>
        <time>2026-02-02T13:20:23Z</time>
      </trkpt>
      <trkpt lat="45.98361" lon="6.55567">
        <ele>1705.7</ele>
        <time>2026-02-02T13:20:24Z</time>
      </trkpt>
      <trkpt lat="45.98361" lon="6.55567">
        <ele>1705.7</ele>
        <time>2026-02-02T13:20:25Z</time>
      </trkpt>
      <trkpt lat="45.98361" lon="6.55567">
        <ele>1705.7</ele>
        <time>2026-02-02T13:20:26Z</time>
      </trkpt>
      <trkpt lat="45.98361" lon="6.55567">
        <ele>1705.7</ele>
        <time>2026-02-02T13:20:27Z</time>
      </trkpt>
      <trkpt lat="45.98361" lon="6.55567">
        <ele>1705.7</ele>
        <time>2026-02-02T13:20:28Z</time>
      </trkpt>
      <trkpt lat="45.98361" lon="6.55569">
        <ele>1705.7</ele>
        <time>2026-02-02T13:20:29Z</time>
      </trkpt>
      <trkpt lat="45.98361" lon="6.5557">
        <ele>1705.7</ele>
        <time>2026-02-02T13:20:30Z</time>
      </trkpt>
      <trkpt lat="45.98361" lon="6.55572">
        <ele>1707.1</ele>
        <time>2026-02-02T13:20:31Z</time>
      </trkpt>
      <trkpt lat="45.98361" lon="6.55572">
        <ele>1707.1</ele>
        <time>2026-02-02T13:20:32Z</time>
      </trkpt>
      <trkpt lat="45.98361" lon="6.55574">
        <ele>1707.1</ele>
        <time>2026-02-02T13:20:33Z</time>
      </trkpt>
      <trkpt lat="45.98361" lon="6.55575">
        <ele>1708.5</ele>
        <time>2026-02-02T13:20:34Z</time>
      </trkpt>
      <trkpt lat="45.98361" lon="6.55575">
        <ele>1708.5</ele>
        <time>2026-02-02T13:20:35Z</time>
      </trkpt>
      <trkpt lat="45.98361" lon="6.55575">
        <ele>1708.5</ele>
        <time>2026-02-02T13:20:36Z</time>
      </trkpt>
      <trkpt lat="45.98361" lon="6.55575">
        <ele>1708.5</ele>
        <time>2026-02-02T13:20:37Z</time>
      </trkpt>
      <trkpt lat="45.98361" lon="6.55575">
        <ele>1707.1</ele>
        <time>2026-02-02T13:20:38Z</time>
      </trkpt>
      <trkpt lat="45.98362" lon="6.55574">
        <ele>1707.1</ele>
        <time>2026-02-02T13:20:39Z</time>
      </trkpt>
      <trkpt lat="45.98362" lon="6.55574">
        <ele>1707.1</ele>
        <time>2026-02-02T13:20:40Z</time>
      </trkpt>
      <trkpt lat="45.98363" lon="6.55573">
        <ele>1707.1</ele>
        <time>2026-02-02T13:20:41Z</time>
      </trkpt>
      <trkpt lat="45.98363" lon="6.55573">
        <ele>1707.1</ele>
        <time>2026-02-02T13:20:42Z</time>
      </trkpt>
      <trkpt lat="45.98364" lon="6.55572">
        <ele>1707.6</ele>
        <time>2026-02-02T13:20:43Z</time>
      </trkpt>
      <trkpt lat="45.98365" lon="6.55572">
        <ele>1707.6</ele>
        <time>2026-02-02T13:20:44Z</time>
      </trkpt>
      <trkpt lat="45.98365" lon="6.55572">
        <ele>1707.6</ele>
        <time>2026-02-02T13:20:45Z</time>
      </trkpt>
      <trkpt lat="45.98365" lon="6.55571">
        <ele>1707.6</ele>
        <time>2026-02-02T13:20:46Z</time>
      </trkpt>
      <trkpt lat="45.98366" lon="6.55571">
        <ele>1707.6</ele>
        <time>2026-02-02T13:20:47Z</time>
      </trkpt>
      <trkpt lat="45.98366" lon="6.55571">
        <ele>1707.6</ele>
        <time>2026-02-02T13:20:48Z</time>
      </trkpt>
      <trkpt lat="45.98367" lon="6.5557">
        <ele>1706.7</ele>
        <time>2026-02-02T13:20:49Z</time>
      </trkpt>
      <trkpt lat="45.98367" lon="6.5557">
        <ele>1706.7</ele>
        <time>2026-02-02T13:20:50Z</time>
      </trkpt>
      <trkpt lat="45.98368" lon="6.5557">
        <ele>1706.7</ele>
        <time>2026-02-02T13:20:51Z</time>
      </trkpt>
      <trkpt lat="45.98368" lon="6.5557">
        <ele>1706.7</ele>
        <time>2026-02-02T13:20:52Z</time>
      </trkpt>
      <trkpt lat="45.98368" lon="6.5557">
        <ele>1706.7</ele>
        <time>2026-02-02T13:20:53Z</time>
      </trkpt>
      <trkpt lat="45.98368" lon="6.55571">
        <ele>1706.7</ele>
        <time>2026-02-02T13:20:54Z</time>
      </trkpt>
      <trkpt lat="45.98368" lon="6.55571">
        <ele>1708.1</ele>
        <time>2026-02-02T13:20:55Z</time>
      </trkpt>
      <trkpt lat="45.98368" lon="6.55571">
        <ele>1708.1</ele>
        <time>2026-02-02T13:20:56Z</time>
      </trkpt>
      <trkpt lat="45.98369" lon="6.55571">
        <ele>1708.1</ele>
        <time>2026-02-02T13:20:58Z</time>
      </trkpt>
      <trkpt lat="45.98369" lon="6.55571">
        <ele>1708.1</ele>
        <time>2026-02-02T13:20:59Z</time>
      </trkpt>
      <trkpt lat="45.98369" lon="6.55571">
        <ele>1708.1</ele>
        <time>2026-02-02T13:21:00Z</time>
      </trkpt>
      <trkpt lat="45.98369" lon="6.55571">
        <ele>1708.1</ele>
        <time>2026-02-02T13:21:01Z</time>
      </trkpt>
      <trkpt lat="45.98369" lon="6.55571">
        <ele>1708.1</ele>
        <time>2026-02-02T13:21:02Z</time>
      </trkpt>
      <trkpt lat="45.98369" lon="6.55571">
        <ele>1708.1</ele>
        <time>2026-02-02T13:21:03Z</time>
      </trkpt>
      <trkpt lat="45.98369" lon="6.55571">
        <ele>1708.1</ele>
        <time>2026-02-02T13:21:04Z</time>
      </trkpt>
      <trkpt lat="45.98369" lon="6.55571">
        <ele>1708.1</ele>
        <time>2026-02-02T13:21:05Z</time>
      </trkpt>
      <trkpt lat="45.98369" lon="6.55571">
        <ele>1708.1</ele>
        <time>2026-02-02T13:21:06Z</time>
      </trkpt>
      <trkpt lat="45.98368" lon="6.55571">
        <ele>1708.1</ele>
        <time>2026-02-02T13:21:07Z</time>
      </trkpt>
      <trkpt lat="45.98368" lon="6.55571">
        <ele>1708.1</ele>
        <time>2026-02-02T13:21:08Z</time>
      </trkpt>
      <trkpt lat="45.98369" lon="6.55571">
        <ele>1708.1</ele>
        <time>2026-02-02T13:21:09Z</time>
      </trkpt>
      <trkpt lat="45.98369" lon="6.5557">
        <ele>1706.7</ele>
        <time>2026-02-02T13:21:11Z</time>
      </trkpt>
      <trkpt lat="45.9837" lon="6.5557">
        <ele>1707.1</ele>
        <time>2026-02-02T13:21:12Z</time>
      </trkpt>
      <trkpt lat="45.9837" lon="6.55569">
        <ele>1707.1</ele>
        <time>2026-02-02T13:21:13Z</time>
      </trkpt>
      <trkpt lat="45.98371" lon="6.55569">
        <ele>1707.1</ele>
        <time>2026-02-02T13:21:14Z</time>
      </trkpt>
      <trkpt lat="45.98371" lon="6.55568">
        <ele>1707.1</ele>
        <time>2026-02-02T13:21:15Z</time>
      </trkpt>
      <trkpt lat="45.98372" lon="6.55568">
        <ele>1707.1</ele>
        <time>2026-02-02T13:21:16Z</time>
      </trkpt>
      <trkpt lat="45.98372" lon="6.55567">
        <ele>1707.1</ele>
        <time>2026-02-02T13:21:17Z</time>
      </trkpt>
      <trkpt lat="45.98373" lon="6.55566">
        <ele>1707.5</ele>
        <time>2026-02-02T13:21:18Z</time>
      </trkpt>
      <trkpt lat="45.98374" lon="6.55566">
        <ele>1706.1</ele>
        <time>2026-02-02T13:21:19Z</time>
      </trkpt>
      <trkpt lat="45.98374" lon="6.55566">
        <ele>1706.1</ele>
        <time>2026-02-02T13:21:20Z</time>
      </trkpt>
      <trkpt lat="45.98375" lon="6.55566">
        <ele>1706.1</ele>
        <time>2026-02-02T13:21:21Z</time>
      </trkpt>
      <trkpt lat="45.98375" lon="6.55566">
        <ele>1706.1</ele>
        <time>2026-02-02T13:21:22Z</time>
      </trkpt>
      <trkpt lat="45.98375" lon="6.55566">
        <ele>1707.9</ele>
        <time>2026-02-02T13:21:23Z</time>
      </trkpt>
      <trkpt lat="45.98375" lon="6.55567">
        <ele>1707.9</ele>
        <time>2026-02-02T13:21:24Z</time>
      </trkpt>
      <trkpt lat="45.98376" lon="6.55568">
        <ele>1707.9</ele>
        <time>2026-02-02T13:21:25Z</time>
      </trkpt>
      <trkpt lat="45.98376" lon="6.55569">
        <ele>1707.9</ele>
        <time>2026-02-02T13:21:26Z</time>
      </trkpt>
      <trkpt lat="45.98376" lon="6.55571">
        <ele>1709.3</ele>
        <time>2026-02-02T13:21:27Z</time>
      </trkpt>
      <trkpt lat="45.98375" lon="6.55572">
        <ele>1708.9</ele>
        <time>2026-02-02T13:21:28Z</time>
      </trkpt>
      <trkpt lat="45.98374" lon="6.55573">
        <ele>1708.9</ele>
        <time>2026-02-02T13:21:29Z</time>
      </trkpt>
      <trkpt lat="45.98374" lon="6.55573">
        <ele>1708.9</ele>
        <time>2026-02-02T13:21:30Z</time>
      </trkpt>
      <trkpt lat="45.98374" lon="6.55574">
        <ele>1708.9</ele>
        <time>2026-02-02T13:21:31Z</time>
      </trkpt>
      <trkpt lat="45.98374" lon="6.55574">
        <ele>1708.9</ele>
        <time>2026-02-02T13:21:32Z</time>
      </trkpt>
      <trkpt lat="45.98374" lon="6.55574">
        <ele>1708.9</ele>
        <time>2026-02-02T13:21:33Z</time>
      </trkpt>
      <trkpt lat="45.98374" lon="6.55574">
        <ele>1708.9</ele>
        <time>2026-02-02T13:21:34Z</time>
      </trkpt>
      <trkpt lat="45.98374" lon="6.55575">
        <ele>1708.9</ele>
        <time>2026-02-02T13:21:35Z</time>
      </trkpt>
      <trkpt lat="45.98374" lon="6.55575">
        <ele>1708.9</ele>
        <time>2026-02-02T13:21:36Z</time>
      </trkpt>
      <trkpt lat="45.98374" lon="6.55575">
        <ele>1710.3</ele>
        <time>2026-02-02T13:21:37Z</time>
      </trkpt>
      <trkpt lat="45.98374" lon="6.55575">
        <ele>1710.3</ele>
        <time>2026-02-02T13:21:38Z</time>
      </trkpt>
      <trkpt lat="45.98374" lon="6.55575">
        <ele>1710.3</ele>
        <time>2026-02-02T13:21:39Z</time>
      </trkpt>
      <trkpt lat="45.98374" lon="6.55576">
        <ele>1710.3</ele>
        <time>2026-02-02T13:21:40Z</time>
      </trkpt>
      <trkpt lat="45.98375" lon="6.55576">
        <ele>1710.3</ele>
        <time>2026-02-02T13:21:41Z</time>
      </trkpt>
      <trkpt lat="45.98375" lon="6.55576">
        <ele>1710.3</ele>
        <time>2026-02-02T13:21:42Z</time>
      </trkpt>
      <trkpt lat="45.98375" lon="6.55576">
        <ele>1710.3</ele>
        <time>2026-02-02T13:21:43Z</time>
      </trkpt>
      <trkpt lat="45.98375" lon="6.55576">
        <ele>1710.3</ele>
        <time>2026-02-02T13:21:44Z</time>
      </trkpt>
      <trkpt lat="45.98375" lon="6.55577">
        <ele>1710.3</ele>
        <time>2026-02-02T13:21:45Z</time>
      </trkpt>
      <trkpt lat="45.98375" lon="6.55577">
        <ele>1710.3</ele>
        <time>2026-02-02T13:21:46Z</time>
      </trkpt>
      <trkpt lat="45.98375" lon="6.55577">
        <ele>1710.3</ele>
        <time>2026-02-02T13:21:47Z</time>
      </trkpt>
      <trkpt lat="45.98375" lon="6.55577">
        <ele>1710.3</ele>
        <time>2026-02-02T13:21:48Z</time>
      </trkpt>
      <trkpt lat="45.98375" lon="6.55577">
        <ele>1710.3</ele>
        <time>2026-02-02T13:21:49Z</time>
      </trkpt>
      <trkpt lat="45.98375" lon="6.55578">
        <ele>1710.3</ele>
        <time>2026-02-02T13:21:50Z</time>
      </trkpt>
      <trkpt lat="45.98375" lon="6.55578">
        <ele>1710.3</ele>
        <time>2026-02-02T13:21:51Z</time>
      </trkpt>
      <trkpt lat="45.98375" lon="6.55578">
        <ele>1710.3</ele>
        <time>2026-02-02T13:21:52Z</time>
      </trkpt>
      <trkpt lat="45.98375" lon="6.55578">
        <ele>1710.3</ele>
        <time>2026-02-02T13:21:53Z</time>
      </trkpt>
      <trkpt lat="45.98375" lon="6.5558">
        <ele>1711.6</ele>
        <time>2026-02-02T13:21:54Z</time>
      </trkpt>
      <trkpt lat="45.98375" lon="6.55581">
        <ele>1711.6</ele>
        <time>2026-02-02T13:21:55Z</time>
      </trkpt>
      <trkpt lat="45.98375" lon="6.55582">
        <ele>1712</ele>
        <time>2026-02-02T13:21:56Z</time>
      </trkpt>
      <trkpt lat="45.98375" lon="6.55584">
        <ele>1713.4</ele>
        <time>2026-02-02T13:21:57Z</time>
      </trkpt>
      <trkpt lat="45.98375" lon="6.55584">
        <ele>1713.4</ele>
        <time>2026-02-02T13:21:58Z</time>
      </trkpt>
      <trkpt lat="45.98375" lon="6.55585">
        <ele>1713.4</ele>
        <time>2026-02-02T13:21:59Z</time>
      </trkpt>
      <trkpt lat="45.98375" lon="6.55586">
        <ele>1713</ele>
        <time>2026-02-02T13:22:00Z</time>
      </trkpt>
      <trkpt lat="45.98374" lon="6.55588">
        <ele>1713</ele>
        <time>2026-02-02T13:22:01Z</time>
      </trkpt>
      <trkpt lat="45.98374" lon="6.55589">
        <ele>1714.4</ele>
        <time>2026-02-02T13:22:02Z</time>
      </trkpt>
      <trkpt lat="45.98373" lon="6.5559">
        <ele>1714.4</ele>
        <time>2026-02-02T13:22:03Z</time>
      </trkpt>
      <trkpt lat="45.98372" lon="6.55593">
        <ele>1715.4</ele>
        <time>2026-02-02T13:22:04Z</time>
      </trkpt>
      <trkpt lat="45.98372" lon="6.55594">
        <ele>1715.4</ele>
        <time>2026-02-02T13:22:05Z</time>
      </trkpt>
      <trkpt lat="45.98371" lon="6.55595">
        <ele>1715.4</ele>
        <time>2026-02-02T13:22:06Z</time>
      </trkpt>
      <trkpt lat="45.98371" lon="6.55597">
        <ele>1717</ele>
        <time>2026-02-02T13:22:07Z</time>
      </trkpt>
      <trkpt lat="45.98371" lon="6.55597">
        <ele>1717</ele>
        <time>2026-02-02T13:22:08Z</time>
      </trkpt>
      <trkpt lat="45.9837" lon="6.55598">
        <ele>1717</ele>
        <time>2026-02-02T13:22:09Z</time>
      </trkpt>
      <trkpt lat="45.9837" lon="6.55599">
        <ele>1717</ele>
        <time>2026-02-02T13:22:10Z</time>
      </trkpt>
      <trkpt lat="45.9837" lon="6.556">
        <ele>1717</ele>
        <time>2026-02-02T13:22:11Z</time>
      </trkpt>
      <trkpt lat="45.9837" lon="6.55601">
        <ele>1718.6</ele>
        <time>2026-02-02T13:22:12Z</time>
      </trkpt>
      <trkpt lat="45.98369" lon="6.55602">
        <ele>1718.2</ele>
        <time>2026-02-02T13:22:13Z</time>
      </trkpt>
      <trkpt lat="45.98369" lon="6.55604">
        <ele>1718.2</ele>
        <time>2026-02-02T13:22:14Z</time>
      </trkpt>
      <trkpt lat="45.98369" lon="6.55605">
        <ele>1718.2</ele>
        <time>2026-02-02T13:22:15Z</time>
      </trkpt>
      <trkpt lat="45.98369" lon="6.55606">
        <ele>1719.9</ele>
        <time>2026-02-02T13:22:16Z</time>
      </trkpt>
      <trkpt lat="45.98369" lon="6.55608">
        <ele>1719.9</ele>
        <time>2026-02-02T13:22:17Z</time>
      </trkpt>
      <trkpt lat="45.98368" lon="6.5561">
        <ele>1721.7</ele>
        <time>2026-02-02T13:22:18Z</time>
      </trkpt>
      <trkpt lat="45.98368" lon="6.5561">
        <ele>1721.7</ele>
        <time>2026-02-02T13:22:19Z</time>
      </trkpt>
      <trkpt lat="45.98368" lon="6.55612">
        <ele>1721.7</ele>
        <time>2026-02-02T13:22:20Z</time>
      </trkpt>
      <trkpt lat="45.98368" lon="6.55613">
        <ele>1721.7</ele>
        <time>2026-02-02T13:22:21Z</time>
      </trkpt>
      <trkpt lat="45.98367" lon="6.55613">
        <ele>1721.7</ele>
        <time>2026-02-02T13:22:22Z</time>
      </trkpt>
      <trkpt lat="45.98367" lon="6.55614">
        <ele>1723.5</ele>
        <time>2026-02-02T13:22:23Z</time>
      </trkpt>
      <trkpt lat="45.98367" lon="6.55615">
        <ele>1723.5</ele>
        <time>2026-02-02T13:22:24Z</time>
      </trkpt>
      <trkpt lat="45.98366" lon="6.55614">
        <ele>1722.9</ele>
        <time>2026-02-02T13:22:25Z</time>
      </trkpt>
      <trkpt lat="45.98366" lon="6.55614">
        <ele>1722.9</ele>
        <time>2026-02-02T13:22:26Z</time>
      </trkpt>
      <trkpt lat="45.98366" lon="6.55613">
        <ele>1721.2</ele>
        <time>2026-02-02T13:22:27Z</time>
      </trkpt>
      <trkpt lat="45.98366" lon="6.55613">
        <ele>1721.2</ele>
        <time>2026-02-02T13:22:28Z</time>
      </trkpt>
      <trkpt lat="45.98366" lon="6.55613">
        <ele>1721.2</ele>
        <time>2026-02-02T13:22:29Z</time>
      </trkpt>
      <trkpt lat="45.98366" lon="6.55613">
        <ele>1721.2</ele>
        <time>2026-02-02T13:22:30Z</time>
      </trkpt>
      <trkpt lat="45.98366" lon="6.55613">
        <ele>1721.2</ele>
        <time>2026-02-02T13:22:31Z</time>
      </trkpt>
      <trkpt lat="45.98366" lon="6.55613">
        <ele>1721.2</ele>
        <time>2026-02-02T13:22:32Z</time>
      </trkpt>
      <trkpt lat="45.98366" lon="6.55613">
        <ele>1721.2</ele>
        <time>2026-02-02T13:22:33Z</time>
      </trkpt>
      <trkpt lat="45.98366" lon="6.55613">
        <ele>1721.2</ele>
        <time>2026-02-02T13:22:34Z</time>
      </trkpt>
      <trkpt lat="45.98366" lon="6.55613">
        <ele>1721.2</ele>
        <time>2026-02-02T13:22:35Z</time>
      </trkpt>
      <trkpt lat="45.98366" lon="6.55613">
        <ele>1721.2</ele>
        <time>2026-02-02T13:22:36Z</time>
      </trkpt>
      <trkpt lat="45.98366" lon="6.55613">
        <ele>1721.2</ele>
        <time>2026-02-02T13:22:37Z</time>
      </trkpt>
      <trkpt lat="45.98366" lon="6.55613">
        <ele>1721.2</ele>
        <time>2026-02-02T13:22:38Z</time>
      </trkpt>
      <trkpt lat="45.98366" lon="6.55613">
        <ele>1721.2</ele>
        <time>2026-02-02T13:22:39Z</time>
      </trkpt>
      <trkpt lat="45.98366" lon="6.55613">
        <ele>1721.2</ele>
        <time>2026-02-02T13:22:40Z</time>
      </trkpt>
      <trkpt lat="45.98366" lon="6.55613">
        <ele>1721.2</ele>
        <time>2026-02-02T13:22:41Z</time>
      </trkpt>
      <trkpt lat="45.98366" lon="6.55613">
        <ele>1721.2</ele>
        <time>2026-02-02T13:22:42Z</time>
      </trkpt>
      <trkpt lat="45.98366" lon="6.55613">
        <ele>1721.2</ele>
        <time>2026-02-02T13:22:43Z</time>
      </trkpt>
      <trkpt lat="45.98366" lon="6.55613">
        <ele>1721.2</ele>
        <time>2026-02-02T13:22:44Z</time>
      </trkpt>
      <trkpt lat="45.98366" lon="6.55613">
        <ele>1721.2</ele>
        <time>2026-02-02T13:22:45Z</time>
      </trkpt>
      <trkpt lat="45.98366" lon="6.55613">
        <ele>1721.2</ele>
        <time>2026-02-02T13:22:46Z</time>
      </trkpt>
      <trkpt lat="45.98366" lon="6.55613">
        <ele>1721.2</ele>
        <time>2026-02-02T13:22:47Z</time>
      </trkpt>
      <trkpt lat="45.98366" lon="6.55613">
        <ele>1721.2</ele>
        <time>2026-02-02T13:22:48Z</time>
      </trkpt>
      <trkpt lat="45.98366" lon="6.55613">
        <ele>1721.2</ele>
        <time>2026-02-02T13:22:49Z</time>
      </trkpt>
      <trkpt lat="45.98366" lon="6.55613">
        <ele>1721.2</ele>
        <time>2026-02-02T13:22:50Z</time>
      </trkpt>
      <trkpt lat="45.98366" lon="6.55614">
        <ele>1722.9</ele>
        <time>2026-02-02T13:22:51Z</time>
      </trkpt>
      <trkpt lat="45.98366" lon="6.55615">
        <ele>1722.9</ele>
        <time>2026-02-02T13:22:52Z</time>
      </trkpt>
      <trkpt lat="45.98366" lon="6.55615">
        <ele>1722.9</ele>
        <time>2026-02-02T13:22:53Z</time>
      </trkpt>
      <trkpt lat="45.98367" lon="6.55618">
        <ele>1723.5</ele>
        <time>2026-02-02T13:22:54Z</time>
      </trkpt>
      <trkpt lat="45.98367" lon="6.5562">
        <ele>1725.2</ele>
        <time>2026-02-02T13:22:55Z</time>
      </trkpt>
      <trkpt lat="45.98367" lon="6.55621">
        <ele>1725.2</ele>
        <time>2026-02-02T13:22:56Z</time>
      </trkpt>
      <trkpt lat="45.98367" lon="6.55621">
        <ele>1725.2</ele>
        <time>2026-02-02T13:22:57Z</time>
      </trkpt>
      <trkpt lat="45.98366" lon="6.55622">
        <ele>1724.6</ele>
        <time>2026-02-02T13:22:58Z</time>
      </trkpt>
      <trkpt lat="45.98366" lon="6.55623">
        <ele>1726.2</ele>
        <time>2026-02-02T13:22:59Z</time>
      </trkpt>
      <trkpt lat="45.98366" lon="6.55625">
        <ele>1726.2</ele>
        <time>2026-02-02T13:23:00Z</time>
      </trkpt>
      <trkpt lat="45.98367" lon="6.55625">
        <ele>1726.9</ele>
        <time>2026-02-02T13:23:01Z</time>
      </trkpt>
      <trkpt lat="45.98368" lon="6.55625">
        <ele>1726.9</ele>
        <time>2026-02-02T13:23:02Z</time>
      </trkpt>
      <trkpt lat="45.98369" lon="6.55624">
        <ele>1726.9</ele>
        <time>2026-02-02T13:23:03Z</time>
      </trkpt>
      <trkpt lat="45.9837" lon="6.55623">
        <ele>1727.5</ele>
        <time>2026-02-02T13:23:04Z</time>
      </trkpt>
      <trkpt lat="45.9837" lon="6.55622">
        <ele>1725.8</ele>
        <time>2026-02-02T13:23:05Z</time>
      </trkpt>
      <trkpt lat="45.98371" lon="6.5562">
        <ele>1725.8</ele>
        <time>2026-02-02T13:23:06Z</time>
      </trkpt>
      <trkpt lat="45.98372" lon="6.55619">
        <ele>1725.8</ele>
        <time>2026-02-02T13:23:07Z</time>
      </trkpt>
      <trkpt lat="45.98373" lon="6.55618">
        <ele>1726.3</ele>
        <time>2026-02-02T13:23:08Z</time>
      </trkpt>
      <trkpt lat="45.98373" lon="6.55617">
        <ele>1724.5</ele>
        <time>2026-02-02T13:23:09Z</time>
      </trkpt>
      <trkpt lat="45.98374" lon="6.55616">
        <ele>1724.5</ele>
        <time>2026-02-02T13:23:10Z</time>
      </trkpt>
      <trkpt lat="45.98375" lon="6.55616">
        <ele>1724.5</ele>
        <time>2026-02-02T13:23:11Z</time>
      </trkpt>
      <trkpt lat="45.98375" lon="6.55614">
        <ele>1725</ele>
        <time>2026-02-02T13:23:12Z</time>
      </trkpt>
      <trkpt lat="45.98376" lon="6.55613">
        <ele>1723.1</ele>
        <time>2026-02-02T13:23:13Z</time>
      </trkpt>
      <trkpt lat="45.98376" lon="6.55613">
        <ele>1723.1</ele>
        <time>2026-02-02T13:23:14Z</time>
      </trkpt>
      <trkpt lat="45.98377" lon="6.55611">
        <ele>1723.1</ele>
        <time>2026-02-02T13:23:15Z</time>
      </trkpt>
      <trkpt lat="45.98377" lon="6.5561">
        <ele>1723.1</ele>
        <time>2026-02-02T13:23:16Z</time>
      </trkpt>
      <trkpt lat="45.98378" lon="6.55609">
        <ele>1721.3</ele>
        <time>2026-02-02T13:23:17Z</time>
      </trkpt>
      <trkpt lat="45.98378" lon="6.55607">
        <ele>1721.3</ele>
        <time>2026-02-02T13:23:18Z</time>
      </trkpt>
      <trkpt lat="45.98379" lon="6.55606">
        <ele>1721.8</ele>
        <time>2026-02-02T13:23:19Z</time>
      </trkpt>
      <trkpt lat="45.9838" lon="6.55605">
        <ele>1719.9</ele>
        <time>2026-02-02T13:23:20Z</time>
      </trkpt>
      <trkpt lat="45.9838" lon="6.55603">
        <ele>1719.9</ele>
        <time>2026-02-02T13:23:21Z</time>
      </trkpt>
      <trkpt lat="45.98381" lon="6.55602">
        <ele>1719.9</ele>
        <time>2026-02-02T13:23:22Z</time>
      </trkpt>
      <trkpt lat="45.98382" lon="6.55602">
        <ele>1720.4</ele>
        <time>2026-02-02T13:23:23Z</time>
      </trkpt>
      <trkpt lat="45.98382" lon="6.55602">
        <ele>1720.4</ele>
        <time>2026-02-02T13:23:24Z</time>
      </trkpt>
      <trkpt lat="45.98382" lon="6.55602">
        <ele>1720.4</ele>
        <time>2026-02-02T13:23:25Z</time>
      </trkpt>
      <trkpt lat="45.98382" lon="6.55602">
        <ele>1720.4</ele>
        <time>2026-02-02T13:23:26Z</time>
      </trkpt>
      <trkpt lat="45.98382" lon="6.55602">
        <ele>1720.4</ele>
        <time>2026-02-02T13:23:27Z</time>
      </trkpt>
      <trkpt lat="45.98382" lon="6.55602">
        <ele>1720.4</ele>
        <time>2026-02-02T13:23:28Z</time>
      </trkpt>
      <trkpt lat="45.98382" lon="6.55602">
        <ele>1720.4</ele>
        <time>2026-02-02T13:23:29Z</time>
      </trkpt>
      <trkpt lat="45.98382" lon="6.55602">
        <ele>1720.4</ele>
        <time>2026-02-02T13:23:30Z</time>
      </trkpt>
      <trkpt lat="45.98382" lon="6.55602">
        <ele>1720.4</ele>
        <time>2026-02-02T13:23:31Z</time>
      </trkpt>
      <trkpt lat="45.98382" lon="6.55602">
        <ele>1720.4</ele>
        <time>2026-02-02T13:23:32Z</time>
      </trkpt>
      <trkpt lat="45.98382" lon="6.55602">
        <ele>1720.4</ele>
        <time>2026-02-02T13:23:33Z</time>
      </trkpt>
      <trkpt lat="45.98382" lon="6.55602">
        <ele>1720.4</ele>
        <time>2026-02-02T13:23:34Z</time>
      </trkpt>
      <trkpt lat="45.98382" lon="6.55602">
        <ele>1720.4</ele>
        <time>2026-02-02T13:23:35Z</time>
      </trkpt>
      <trkpt lat="45.98382" lon="6.55602">
        <ele>1720.4</ele>
        <time>2026-02-02T13:23:36Z</time>
      </trkpt>
      <trkpt lat="45.98382" lon="6.55602">
        <ele>1720.4</ele>
        <time>2026-02-02T13:23:37Z</time>
      </trkpt>
      <trkpt lat="45.98382" lon="6.55602">
        <ele>1720.4</ele>
        <time>2026-02-02T13:23:38Z</time>
      </trkpt>
      <trkpt lat="45.98382" lon="6.55602">
        <ele>1720.4</ele>
        <time>2026-02-02T13:23:39Z</time>
      </trkpt>
      <trkpt lat="45.98382" lon="6.55602">
        <ele>1720.4</ele>
        <time>2026-02-02T13:23:40Z</time>
      </trkpt>
      <trkpt lat="45.98382" lon="6.55602">
        <ele>1720.4</ele>
        <time>2026-02-02T13:23:41Z</time>
      </trkpt>
      <trkpt lat="45.98383" lon="6.55601">
        <ele>1720.4</ele>
        <time>2026-02-02T13:23:42Z</time>
      </trkpt>
      <trkpt lat="45.98384" lon="6.55601">
        <ele>1720.4</ele>
        <time>2026-02-02T13:23:43Z</time>
      </trkpt>
      <trkpt lat="45.98385" lon="6.556">
        <ele>1719.2</ele>
        <time>2026-02-02T13:23:45Z</time>
      </trkpt>
      <trkpt lat="45.98387" lon="6.55599">
        <ele>1719.2</ele>
        <time>2026-02-02T13:23:46Z</time>
      </trkpt>
      <trkpt lat="45.98388" lon="6.55599">
        <ele>1719.7</ele>
        <time>2026-02-02T13:23:47Z</time>
      </trkpt>
      <trkpt lat="45.98389" lon="6.55599">
        <ele>1719.7</ele>
        <time>2026-02-02T13:23:48Z</time>
      </trkpt>
      <trkpt lat="45.98389" lon="6.55599">
        <ele>1719.7</ele>
        <time>2026-02-02T13:23:49Z</time>
      </trkpt>
      <trkpt lat="45.9839" lon="6.55598">
        <ele>1719.7</ele>
        <time>2026-02-02T13:23:50Z</time>
      </trkpt>
      <trkpt lat="45.98391" lon="6.55598">
        <ele>1720.2</ele>
        <time>2026-02-02T13:23:51Z</time>
      </trkpt>
      <trkpt lat="45.98392" lon="6.55598">
        <ele>1720.2</ele>
        <time>2026-02-02T13:23:52Z</time>
      </trkpt>
      <trkpt lat="45.98392" lon="6.55598">
        <ele>1720.2</ele>
        <time>2026-02-02T13:23:53Z</time>
      </trkpt>
      <trkpt lat="45.98393" lon="6.55598">
        <ele>1720.2</ele>
        <time>2026-02-02T13:23:54Z</time>
      </trkpt>
      <trkpt lat="45.98394" lon="6.55598">
        <ele>1720.7</ele>
        <time>2026-02-02T13:23:55Z</time>
      </trkpt>
      <trkpt lat="45.98395" lon="6.55598">
        <ele>1720.7</ele>
        <time>2026-02-02T13:23:56Z</time>
      </trkpt>
      <trkpt lat="45.98395" lon="6.55598">
        <ele>1720.7</ele>
        <time>2026-02-02T13:23:57Z</time>
      </trkpt>
      <trkpt lat="45.98396" lon="6.55597">
        <ele>1720.7</ele>
        <time>2026-02-02T13:23:58Z</time>
      </trkpt>
      <trkpt lat="45.98396" lon="6.55597">
        <ele>1720.7</ele>
        <time>2026-02-02T13:23:59Z</time>
      </trkpt>
      <trkpt lat="45.98395" lon="6.55597">
        <ele>1720.7</ele>
        <time>2026-02-02T13:24:00Z</time>
      </trkpt>
      <trkpt lat="45.98395" lon="6.55598">
        <ele>1720.7</ele>
        <time>2026-02-02T13:24:01Z</time>
      </trkpt>
      <trkpt lat="45.98395" lon="6.55598">
        <ele>1720.7</ele>
        <time>2026-02-02T13:24:02Z</time>
      </trkpt>
      <trkpt lat="45.98395" lon="6.55598">
        <ele>1720.7</ele>
        <time>2026-02-02T13:24:03Z</time>
      </trkpt>
      <trkpt lat="45.98394" lon="6.55598">
        <ele>1720.7</ele>
        <time>2026-02-02T13:24:04Z</time>
      </trkpt>
      <trkpt lat="45.98394" lon="6.55598">
        <ele>1720.7</ele>
        <time>2026-02-02T13:24:05Z</time>
      </trkpt>
      <trkpt lat="45.98394" lon="6.55598">
        <ele>1720.7</ele>
        <time>2026-02-02T13:24:06Z</time>
      </trkpt>
      <trkpt lat="45.98394" lon="6.55598">
        <ele>1720.7</ele>
        <time>2026-02-02T13:24:07Z</time>
      </trkpt>
      <trkpt lat="45.98394" lon="6.55598">
        <ele>1720.7</ele>
        <time>2026-02-02T13:24:08Z</time>
      </trkpt>
      <trkpt lat="45.98395" lon="6.55598">
        <ele>1720.7</ele>
        <time>2026-02-02T13:24:09Z</time>
      </trkpt>
      <trkpt lat="45.98396" lon="6.55598">
        <ele>1720.7</ele>
        <time>2026-02-02T13:24:10Z</time>
      </trkpt>
      <trkpt lat="45.98397" lon="6.55598">
        <ele>1721.2</ele>
        <time>2026-02-02T13:24:11Z</time>
      </trkpt>
      <trkpt lat="45.98398" lon="6.55599">
        <ele>1721.2</ele>
        <time>2026-02-02T13:24:12Z</time>
      </trkpt>
      <trkpt lat="45.98399" lon="6.55599">
        <ele>1721.2</ele>
        <time>2026-02-02T13:24:13Z</time>
      </trkpt>
      <trkpt lat="45.984" lon="6.556">
        <ele>1721.6</ele>
        <time>2026-02-02T13:24:14Z</time>
      </trkpt>
      <trkpt lat="45.98401" lon="6.556">
        <ele>1721.6</ele>
        <time>2026-02-02T13:24:15Z</time>
      </trkpt>
      <trkpt lat="45.98401" lon="6.55601">
        <ele>1721.6</ele>
        <time>2026-02-02T13:24:16Z</time>
      </trkpt>
      <trkpt lat="45.98401" lon="6.55601">
        <ele>1723.4</ele>
        <time>2026-02-02T13:24:17Z</time>
      </trkpt>
      <trkpt lat="45.98401" lon="6.55601">
        <ele>1723.4</ele>
        <time>2026-02-02T13:24:18Z</time>
      </trkpt>
      <trkpt lat="45.98402" lon="6.55602">
        <ele>1723.4</ele>
        <time>2026-02-02T13:24:19Z</time>
      </trkpt>
      <trkpt lat="45.98402" lon="6.55603">
        <ele>1723.4</ele>
        <time>2026-02-02T13:24:20Z</time>
      </trkpt>
      <trkpt lat="45.98402" lon="6.55604">
        <ele>1723.4</ele>
        <time>2026-02-02T13:24:21Z</time>
      </trkpt>
      <trkpt lat="45.98401" lon="6.55605">
        <ele>1725.4</ele>
        <time>2026-02-02T13:24:22Z</time>
      </trkpt>
      <trkpt lat="45.98401" lon="6.55606">
        <ele>1725.4</ele>
        <time>2026-02-02T13:24:23Z</time>
      </trkpt>
      <trkpt lat="45.984" lon="6.55606">
        <ele>1725.4</ele>
        <time>2026-02-02T13:24:24Z</time>
      </trkpt>
      <trkpt lat="45.98399" lon="6.55607">
        <ele>1725.4</ele>
        <time>2026-02-02T13:24:25Z</time>
      </trkpt>
      <trkpt lat="45.98399" lon="6.55607">
        <ele>1724.9</ele>
        <time>2026-02-02T13:24:26Z</time>
      </trkpt>
      <trkpt lat="45.98398" lon="6.55607">
        <ele>1724.9</ele>
        <time>2026-02-02T13:24:27Z</time>
      </trkpt>
      <trkpt lat="45.98398" lon="6.55607">
        <ele>1724.9</ele>
        <time>2026-02-02T13:24:28Z</time>
      </trkpt>
      <trkpt lat="45.98398" lon="6.55606">
        <ele>1724.9</ele>
        <time>2026-02-02T13:24:29Z</time>
      </trkpt>
      <trkpt lat="45.98398" lon="6.55606">
        <ele>1724.9</ele>
        <time>2026-02-02T13:24:31Z</time>
      </trkpt>
      <trkpt lat="45.98398" lon="6.55606">
        <ele>1724.9</ele>
        <time>2026-02-02T13:24:32Z</time>
      </trkpt>
      <trkpt lat="45.98398" lon="6.55606">
        <ele>1724.9</ele>
        <time>2026-02-02T13:24:33Z</time>
      </trkpt>
      <trkpt lat="45.98398" lon="6.55606">
        <ele>1724.9</ele>
        <time>2026-02-02T13:24:34Z</time>
      </trkpt>
      <trkpt lat="45.98398" lon="6.55606">
        <ele>1724.9</ele>
        <time>2026-02-02T13:24:35Z</time>
      </trkpt>
      <trkpt lat="45.98398" lon="6.55606">
        <ele>1724.9</ele>
        <time>2026-02-02T13:24:36Z</time>
      </trkpt>
      <trkpt lat="45.98398" lon="6.55606">
        <ele>1724.9</ele>
        <time>2026-02-02T13:24:37Z</time>
      </trkpt>
      <trkpt lat="45.98398" lon="6.55606">
        <ele>1724.9</ele>
        <time>2026-02-02T13:24:38Z</time>
      </trkpt>
      <trkpt lat="45.98398" lon="6.55606">
        <ele>1724.9</ele>
        <time>2026-02-02T13:24:39Z</time>
      </trkpt>
      <trkpt lat="45.98398" lon="6.55606">
        <ele>1724.9</ele>
        <time>2026-02-02T13:24:40Z</time>
      </trkpt>
      <trkpt lat="45.98398" lon="6.55606">
        <ele>1724.9</ele>
        <time>2026-02-02T13:24:41Z</time>
      </trkpt>
      <trkpt lat="45.98398" lon="6.55606">
        <ele>1724.9</ele>
        <time>2026-02-02T13:24:42Z</time>
      </trkpt>
      <trkpt lat="45.98398" lon="6.55606">
        <ele>1724.9</ele>
        <time>2026-02-02T13:24:43Z</time>
      </trkpt>
      <trkpt lat="45.98397" lon="6.55607">
        <ele>1724.9</ele>
        <time>2026-02-02T13:24:44Z</time>
      </trkpt>
      <trkpt lat="45.98397" lon="6.55608">
        <ele>1724.9</ele>
        <time>2026-02-02T13:24:45Z</time>
      </trkpt>
      <trkpt lat="45.98396" lon="6.55608">
        <ele>1724.4</ele>
        <time>2026-02-02T13:24:46Z</time>
      </trkpt>
      <trkpt lat="45.98395" lon="6.55609">
        <ele>1726.4</ele>
        <time>2026-02-02T13:24:47Z</time>
      </trkpt>
      <trkpt lat="45.98395" lon="6.55609">
        <ele>1724.4</ele>
        <time>2026-02-02T13:24:48Z</time>
      </trkpt>
      <trkpt lat="45.98394" lon="6.5561">
        <ele>1726.4</ele>
        <time>2026-02-02T13:24:49Z</time>
      </trkpt>
      <trkpt lat="45.98393" lon="6.55611">
        <ele>1725.8</ele>
        <time>2026-02-02T13:24:50Z</time>
      </trkpt>
      <trkpt lat="45.98392" lon="6.55612">
        <ele>1725.8</ele>
        <time>2026-02-02T13:24:51Z</time>
      </trkpt>
      <trkpt lat="45.98391" lon="6.55613">
        <ele>1725.8</ele>
        <time>2026-02-02T13:24:52Z</time>
      </trkpt>
      <trkpt lat="45.9839" lon="6.55614">
        <ele>1727.8</ele>
        <time>2026-02-02T13:24:53Z</time>
      </trkpt>
      <trkpt lat="45.9839" lon="6.55615">
        <ele>1727.2</ele>
        <time>2026-02-02T13:24:54Z</time>
      </trkpt>
      <trkpt lat="45.98389" lon="6.55617">
        <ele>1727.2</ele>
        <time>2026-02-02T13:24:55Z</time>
      </trkpt>
      <trkpt lat="45.98389" lon="6.55618">
        <ele>1727.2</ele>
        <time>2026-02-02T13:24:56Z</time>
      </trkpt>
      <trkpt lat="45.98389" lon="6.55618">
        <ele>1729.1</ele>
        <time>2026-02-02T13:24:57Z</time>
      </trkpt>
      <trkpt lat="45.98389" lon="6.55619">
        <ele>1729.1</ele>
        <time>2026-02-02T13:24:58Z</time>
      </trkpt>
      <trkpt lat="45.98389" lon="6.5562">
        <ele>1729.1</ele>
        <time>2026-02-02T13:24:59Z</time>
      </trkpt>
      <trkpt lat="45.98388" lon="6.55621">
        <ele>1729.1</ele>
        <time>2026-02-02T13:25:00Z</time>
      </trkpt>
      <trkpt lat="45.98388" lon="6.55622">
        <ele>1731</ele>
        <time>2026-02-02T13:25:01Z</time>
      </trkpt>
      <trkpt lat="45.98388" lon="6.55624">
        <ele>1731</ele>
        <time>2026-02-02T13:25:02Z</time>
      </trkpt>
      <trkpt lat="45.98388" lon="6.55625">
        <ele>1731</ele>
        <time>2026-02-02T13:25:03Z</time>
      </trkpt>
      <trkpt lat="45.98388" lon="6.55627">
        <ele>1732.8</ele>
        <time>2026-02-02T13:25:04Z</time>
      </trkpt>
      <trkpt lat="45.98388" lon="6.55628">
        <ele>1732.8</ele>
        <time>2026-02-02T13:25:05Z</time>
      </trkpt>
      <trkpt lat="45.98388" lon="6.55629">
        <ele>1732.8</ele>
        <time>2026-02-02T13:25:06Z</time>
      </trkpt>
      <trkpt lat="45.98388" lon="6.55631">
        <ele>1734.7</ele>
        <time>2026-02-02T13:25:07Z</time>
      </trkpt>
      <trkpt lat="45.98388" lon="6.55632">
        <ele>1734.7</ele>
        <time>2026-02-02T13:25:08Z</time>
      </trkpt>
      <trkpt lat="45.98389" lon="6.55633">
        <ele>1734.7</ele>
        <time>2026-02-02T13:25:09Z</time>
      </trkpt>
      <trkpt lat="45.98389" lon="6.55633">
        <ele>1734.7</ele>
        <time>2026-02-02T13:25:10Z</time>
      </trkpt>
      <trkpt lat="45.98389" lon="6.55633">
        <ele>1734.7</ele>
        <time>2026-02-02T13:25:11Z</time>
      </trkpt>
      <trkpt lat="45.98389" lon="6.55633">
        <ele>1734.7</ele>
        <time>2026-02-02T13:25:12Z</time>
      </trkpt>
      <trkpt lat="45.98389" lon="6.55633">
        <ele>1734.7</ele>
        <time>2026-02-02T13:25:13Z</time>
      </trkpt>
      <trkpt lat="45.98389" lon="6.55633">
        <ele>1734.7</ele>
        <time>2026-02-02T13:25:14Z</time>
      </trkpt>
      <trkpt lat="45.98389" lon="6.55633">
        <ele>1734.7</ele>
        <time>2026-02-02T13:25:15Z</time>
      </trkpt>
      <trkpt lat="45.98389" lon="6.55633">
        <ele>1734.7</ele>
        <time>2026-02-02T13:25:16Z</time>
      </trkpt>
      <trkpt lat="45.98389" lon="6.55633">
        <ele>1734.7</ele>
        <time>2026-02-02T13:25:17Z</time>
      </trkpt>
      <trkpt lat="45.98389" lon="6.55633">
        <ele>1734.7</ele>
        <time>2026-02-02T13:25:18Z</time>
      </trkpt>
      <trkpt lat="45.98389" lon="6.55632">
        <ele>1734.7</ele>
        <time>2026-02-02T13:25:19Z</time>
      </trkpt>
      <trkpt lat="45.98389" lon="6.55632">
        <ele>1734.7</ele>
        <time>2026-02-02T13:25:20Z</time>
      </trkpt>
      <trkpt lat="45.98389" lon="6.55632">
        <ele>1734.7</ele>
        <time>2026-02-02T13:25:21Z</time>
      </trkpt>
      <trkpt lat="45.98389" lon="6.55632">
        <ele>1734.7</ele>
        <time>2026-02-02T13:25:22Z</time>
      </trkpt>
      <trkpt lat="45.98389" lon="6.55633">
        <ele>1734.7</ele>
        <time>2026-02-02T13:25:23Z</time>
      </trkpt>
      <trkpt lat="45.98389" lon="6.55633">
        <ele>1734.7</ele>
        <time>2026-02-02T13:25:24Z</time>
      </trkpt>
      <trkpt lat="45.98389" lon="6.55633">
        <ele>1734.7</ele>
        <time>2026-02-02T13:25:25Z</time>
      </trkpt>
      <trkpt lat="45.98389" lon="6.55633">
        <ele>1734.7</ele>
        <time>2026-02-02T13:25:26Z</time>
      </trkpt>
      <trkpt lat="45.98389" lon="6.55632">
        <ele>1734.7</ele>
        <time>2026-02-02T13:25:27Z</time>
      </trkpt>
      <trkpt lat="45.98389" lon="6.55632">
        <ele>1734.7</ele>
        <time>2026-02-02T13:25:28Z</time>
      </trkpt>
      <trkpt lat="45.98389" lon="6.55632">
        <ele>1734.7</ele>
        <time>2026-02-02T13:25:29Z</time>
      </trkpt>
      <trkpt lat="45.98389" lon="6.55632">
        <ele>1734.7</ele>
        <time>2026-02-02T13:25:30Z</time>
      </trkpt>
      <trkpt lat="45.98389" lon="6.55632">
        <ele>1734.7</ele>
        <time>2026-02-02T13:25:31Z</time>
      </trkpt>
      <trkpt lat="45.98389" lon="6.55632">
        <ele>1734.7</ele>
        <time>2026-02-02T13:25:32Z</time>
      </trkpt>
      <trkpt lat="45.98389" lon="6.55633">
        <ele>1734.7</ele>
        <time>2026-02-02T13:25:33Z</time>
      </trkpt>
      <trkpt lat="45.98389" lon="6.55633">
        <ele>1734.7</ele>
        <time>2026-02-02T13:25:34Z</time>
      </trkpt>
      <trkpt lat="45.98389" lon="6.55634">
        <ele>1734.7</ele>
        <time>2026-02-02T13:25:35Z</time>
      </trkpt>
      <trkpt lat="45.9839" lon="6.55635">
        <ele>1736.7</ele>
        <time>2026-02-02T13:25:36Z</time>
      </trkpt>
      <trkpt lat="45.9839" lon="6.55635">
        <ele>1736.7</ele>
        <time>2026-02-02T13:25:38Z</time>
      </trkpt>
      <trkpt lat="45.9839" lon="6.55635">
        <ele>1737.3</ele>
        <time>2026-02-02T13:25:39Z</time>
      </trkpt>
      <trkpt lat="45.98391" lon="6.55635">
        <ele>1735.3</ele>
        <time>2026-02-02T13:25:40Z</time>
      </trkpt>
      <trkpt lat="45.98391" lon="6.55635">
        <ele>1735.3</ele>
        <time>2026-02-02T13:25:41Z</time>
      </trkpt>
      <trkpt lat="45.98392" lon="6.55634">
        <ele>1735.3</ele>
        <time>2026-02-02T13:25:42Z</time>
      </trkpt>
      <trkpt lat="45.98392" lon="6.55634">
        <ele>1735.3</ele>
        <time>2026-02-02T13:25:43Z</time>
      </trkpt>
      <trkpt lat="45.98393" lon="6.55633">
        <ele>1735.9</ele>
        <time>2026-02-02T13:25:44Z</time>
      </trkpt>
      <trkpt lat="45.98394" lon="6.55633">
        <ele>1735.9</ele>
        <time>2026-02-02T13:25:45Z</time>
      </trkpt>
      <trkpt lat="45.98395" lon="6.55632">
        <ele>1735.9</ele>
        <time>2026-02-02T13:25:46Z</time>
      </trkpt>
      <trkpt lat="45.98397" lon="6.55633">
        <ele>1736.4</ele>
        <time>2026-02-02T13:25:47Z</time>
      </trkpt>
      <trkpt lat="45.98398" lon="6.55633">
        <ele>1736.4</ele>
        <time>2026-02-02T13:25:48Z</time>
      </trkpt>
      <trkpt lat="45.98399" lon="6.55634">
        <ele>1736.4</ele>
        <time>2026-02-02T13:25:49Z</time>
      </trkpt>
      <trkpt lat="45.984" lon="6.55635">
        <ele>1739</ele>
        <time>2026-02-02T13:25:50Z</time>
      </trkpt>
      <trkpt lat="45.984" lon="6.55636">
        <ele>1739</ele>
        <time>2026-02-02T13:25:51Z</time>
      </trkpt>
      <trkpt lat="45.98401" lon="6.55636">
        <ele>1739</ele>
        <time>2026-02-02T13:25:52Z</time>
      </trkpt>
      <trkpt lat="45.98401" lon="6.55636">
        <ele>1739</ele>
        <time>2026-02-02T13:25:53Z</time>
      </trkpt>
      <trkpt lat="45.98401" lon="6.55636">
        <ele>1739</ele>
        <time>2026-02-02T13:25:54Z</time>
      </trkpt>
      <trkpt lat="45.98401" lon="6.55636">
        <ele>1739</ele>
        <time>2026-02-02T13:25:55Z</time>
      </trkpt>
      <trkpt lat="45.98401" lon="6.55636">
        <ele>1739</ele>
        <time>2026-02-02T13:25:56Z</time>
      </trkpt>
      <trkpt lat="45.98401" lon="6.55636">
        <ele>1739</ele>
        <time>2026-02-02T13:25:57Z</time>
      </trkpt>
      <trkpt lat="45.98401" lon="6.55636">
        <ele>1739</ele>
        <time>2026-02-02T13:25:58Z</time>
      </trkpt>
      <trkpt lat="45.98401" lon="6.55636">
        <ele>1739</ele>
        <time>2026-02-02T13:25:59Z</time>
      </trkpt>
      <trkpt lat="45.98401" lon="6.55636">
        <ele>1739</ele>
        <time>2026-02-02T13:26:00Z</time>
      </trkpt>
      <trkpt lat="45.98401" lon="6.55636">
        <ele>1739</ele>
        <time>2026-02-02T13:26:01Z</time>
      </trkpt>
      <trkpt lat="45.98401" lon="6.55636">
        <ele>1739</ele>
        <time>2026-02-02T13:26:03Z</time>
      </trkpt>
      <trkpt lat="45.98401" lon="6.55636">
        <ele>1739</ele>
        <time>2026-02-02T13:26:04Z</time>
      </trkpt>
      <trkpt lat="45.98401" lon="6.55636">
        <ele>1739</ele>
        <time>2026-02-02T13:26:05Z</time>
      </trkpt>
      <trkpt lat="45.98401" lon="6.55636">
        <ele>1739</ele>
        <time>2026-02-02T13:26:06Z</time>
      </trkpt>
      <trkpt lat="45.98401" lon="6.55636">
        <ele>1739</ele>
        <time>2026-02-02T13:26:07Z</time>
      </trkpt>
      <trkpt lat="45.98401" lon="6.55636">
        <ele>1739</ele>
        <time>2026-02-02T13:26:08Z</time>
      </trkpt>
      <trkpt lat="45.98401" lon="6.55636">
        <ele>1739</ele>
        <time>2026-02-02T13:26:09Z</time>
      </trkpt>
      <trkpt lat="45.98401" lon="6.55636">
        <ele>1739</ele>
        <time>2026-02-02T13:26:10Z</time>
      </trkpt>
      <trkpt lat="45.98401" lon="6.55636">
        <ele>1739</ele>
        <time>2026-02-02T13:26:11Z</time>
      </trkpt>
      <trkpt lat="45.98401" lon="6.55636">
        <ele>1739</ele>
        <time>2026-02-02T13:26:12Z</time>
      </trkpt>
      <trkpt lat="45.98401" lon="6.55636">
        <ele>1739</ele>
        <time>2026-02-02T13:26:13Z</time>
      </trkpt>
      <trkpt lat="45.98401" lon="6.55636">
        <ele>1739</ele>
        <time>2026-02-02T13:26:14Z</time>
      </trkpt>
      <trkpt lat="45.98401" lon="6.55636">
        <ele>1739</ele>
        <time>2026-02-02T13:26:15Z</time>
      </trkpt>
      <trkpt lat="45.98401" lon="6.55636">
        <ele>1739</ele>
        <time>2026-02-02T13:26:16Z</time>
      </trkpt>
      <trkpt lat="45.98401" lon="6.55636">
        <ele>1739</ele>
        <time>2026-02-02T13:26:17Z</time>
      </trkpt>
      <trkpt lat="45.98401" lon="6.55636">
        <ele>1739</ele>
        <time>2026-02-02T13:26:18Z</time>
      </trkpt>
      <trkpt lat="45.98401" lon="6.55636">
        <ele>1739</ele>
        <time>2026-02-02T13:26:19Z</time>
      </trkpt>
      <trkpt lat="45.98402" lon="6.55636">
        <ele>1739</ele>
        <time>2026-02-02T13:26:20Z</time>
      </trkpt>
      <trkpt lat="45.98403" lon="6.55637">
        <ele>1739.5</ele>
        <time>2026-02-02T13:26:21Z</time>
      </trkpt>
      <trkpt lat="45.98404" lon="6.55637">
        <ele>1739.5</ele>
        <time>2026-02-02T13:26:22Z</time>
      </trkpt>
      <trkpt lat="45.98405" lon="6.55636">
        <ele>1739.5</ele>
        <time>2026-02-02T13:26:23Z</time>
      </trkpt>
      <trkpt lat="45.98406" lon="6.55637">
        <ele>1740</ele>
        <time>2026-02-02T13:26:24Z</time>
      </trkpt>
      <trkpt lat="45.98406" lon="6.55637">
        <ele>1740</ele>
        <time>2026-02-02T13:26:25Z</time>
      </trkpt>
      <trkpt lat="45.98407" lon="6.55637">
        <ele>1740</ele>
        <time>2026-02-02T13:26:26Z</time>
      </trkpt>
      <trkpt lat="45.98409" lon="6.55638">
        <ele>1740.5</ele>
        <time>2026-02-02T13:26:27Z</time>
      </trkpt>
      <trkpt lat="45.9841" lon="6.55638">
        <ele>1740.5</ele>
        <time>2026-02-02T13:26:28Z</time>
      </trkpt>
      <trkpt lat="45.9841" lon="6.55639">
        <ele>1740.5</ele>
        <time>2026-02-02T13:26:29Z</time>
      </trkpt>
      <trkpt lat="45.98411" lon="6.55639">
        <ele>1741</ele>
        <time>2026-02-02T13:26:30Z</time>
      </trkpt>
      <trkpt lat="45.98413" lon="6.5564">
        <ele>1743.1</ele>
        <time>2026-02-02T13:26:31Z</time>
      </trkpt>
      <trkpt lat="45.98414" lon="6.55641">
        <ele>1743.1</ele>
        <time>2026-02-02T13:26:32Z</time>
      </trkpt>
      <trkpt lat="45.98414" lon="6.55641">
        <ele>1743.1</ele>
        <time>2026-02-02T13:26:33Z</time>
      </trkpt>
      <trkpt lat="45.98415" lon="6.5564">
        <ele>1743.7</ele>
        <time>2026-02-02T13:26:34Z</time>
      </trkpt>
      <trkpt lat="45.98415" lon="6.55639">
        <ele>1743.7</ele>
        <time>2026-02-02T13:26:35Z</time>
      </trkpt>
      <trkpt lat="45.98415" lon="6.55639">
        <ele>1741.6</ele>
        <time>2026-02-02T13:26:36Z</time>
      </trkpt>
      <trkpt lat="45.98416" lon="6.55638">
        <ele>1741.6</ele>
        <time>2026-02-02T13:26:37Z</time>
      </trkpt>
      <trkpt lat="45.98418" lon="6.55637">
        <ele>1742.1</ele>
        <time>2026-02-02T13:26:38Z</time>
      </trkpt>
      <trkpt lat="45.98418" lon="6.55637">
        <ele>1742.1</ele>
        <time>2026-02-02T13:26:39Z</time>
      </trkpt>
      <trkpt lat="45.98419" lon="6.55637">
        <ele>1742.1</ele>
        <time>2026-02-02T13:26:41Z</time>
      </trkpt>
      <trkpt lat="45.9842" lon="6.55636">
        <ele>1742.1</ele>
        <time>2026-02-02T13:26:42Z</time>
      </trkpt>
      <trkpt lat="45.98422" lon="6.55636">
        <ele>1742.6</ele>
        <time>2026-02-02T13:26:43Z</time>
      </trkpt>
      <trkpt lat="45.98422" lon="6.55636">
        <ele>1742.6</ele>
        <time>2026-02-02T13:26:44Z</time>
      </trkpt>
      <trkpt lat="45.98423" lon="6.55636">
        <ele>1742.6</ele>
        <time>2026-02-02T13:26:45Z</time>
      </trkpt>
      <trkpt lat="45.98423" lon="6.55636">
        <ele>1743.1</ele>
        <time>2026-02-02T13:26:46Z</time>
      </trkpt>
      <trkpt lat="45.98424" lon="6.55636">
        <ele>1743.1</ele>
        <time>2026-02-02T13:26:47Z</time>
      </trkpt>
      <trkpt lat="45.98425" lon="6.55636">
        <ele>1743.1</ele>
        <time>2026-02-02T13:26:48Z</time>
      </trkpt>
      <trkpt lat="45.98426" lon="6.55636">
        <ele>1743.1</ele>
        <time>2026-02-02T13:26:49Z</time>
      </trkpt>
      <trkpt lat="45.98426" lon="6.55637">
        <ele>1743.1</ele>
        <time>2026-02-02T13:26:50Z</time>
      </trkpt>
      <trkpt lat="45.98426" lon="6.55637">
        <ele>1743.1</ele>
        <time>2026-02-02T13:26:51Z</time>
      </trkpt>
      <trkpt lat="45.98426" lon="6.55637">
        <ele>1743.1</ele>
        <time>2026-02-02T13:26:52Z</time>
      </trkpt>
      <trkpt lat="45.98426" lon="6.55637">
        <ele>1743.1</ele>
        <time>2026-02-02T13:26:53Z</time>
      </trkpt>
      <trkpt lat="45.98426" lon="6.55637">
        <ele>1743.5</ele>
        <time>2026-02-02T13:26:54Z</time>
      </trkpt>
      <trkpt lat="45.98426" lon="6.55638">
        <ele>1743.5</ele>
        <time>2026-02-02T13:26:55Z</time>
      </trkpt>
      <trkpt lat="45.98426" lon="6.55638">
        <ele>1743.5</ele>
        <time>2026-02-02T13:26:56Z</time>
      </trkpt>
      <trkpt lat="45.98426" lon="6.55638">
        <ele>1743.5</ele>
        <time>2026-02-02T13:26:57Z</time>
      </trkpt>
      <trkpt lat="45.98426" lon="6.55638">
        <ele>1743.5</ele>
        <time>2026-02-02T13:26:58Z</time>
      </trkpt>
      <trkpt lat="45.98426" lon="6.55638">
        <ele>1743.5</ele>
        <time>2026-02-02T13:26:59Z</time>
      </trkpt>
      <trkpt lat="45.98426" lon="6.55638">
        <ele>1743.5</ele>
        <time>2026-02-02T13:27:00Z</time>
      </trkpt>
      <trkpt lat="45.98426" lon="6.55638">
        <ele>1743.5</ele>
        <time>2026-02-02T13:27:01Z</time>
      </trkpt>
      <trkpt lat="45.98426" lon="6.55638">
        <ele>1743.5</ele>
        <time>2026-02-02T13:27:02Z</time>
      </trkpt>
      <trkpt lat="45.98426" lon="6.55638">
        <ele>1743.5</ele>
        <time>2026-02-02T13:27:03Z</time>
      </trkpt>
      <trkpt lat="45.98426" lon="6.55638">
        <ele>1743.5</ele>
        <time>2026-02-02T13:27:04Z</time>
      </trkpt>
      <trkpt lat="45.98426" lon="6.55638">
        <ele>1743.5</ele>
        <time>2026-02-02T13:27:05Z</time>
      </trkpt>
      <trkpt lat="45.98426" lon="6.55638">
        <ele>1743.5</ele>
        <time>2026-02-02T13:27:06Z</time>
      </trkpt>
      <trkpt lat="45.98426" lon="6.55638">
        <ele>1743.5</ele>
        <time>2026-02-02T13:27:07Z</time>
      </trkpt>
      <trkpt lat="45.98426" lon="6.55638">
        <ele>1743.1</ele>
        <time>2026-02-02T13:27:08Z</time>
      </trkpt>
      <trkpt lat="45.98426" lon="6.55639">
        <ele>1743.5</ele>
        <time>2026-02-02T13:27:09Z</time>
      </trkpt>
      <trkpt lat="45.98427" lon="6.55639">
        <ele>1743.5</ele>
        <time>2026-02-02T13:27:10Z</time>
      </trkpt>
      <trkpt lat="45.98427" lon="6.55639">
        <ele>1745.6</ele>
        <time>2026-02-02T13:27:11Z</time>
      </trkpt>
      <trkpt lat="45.98428" lon="6.5564">
        <ele>1745.6</ele>
        <time>2026-02-02T13:27:12Z</time>
      </trkpt>
      <trkpt lat="45.98428" lon="6.55639">
        <ele>1743.5</ele>
        <time>2026-02-02T13:27:13Z</time>
      </trkpt>
      <trkpt lat="45.98428" lon="6.55639">
        <ele>1743.5</ele>
        <time>2026-02-02T13:27:14Z</time>
      </trkpt>
      <trkpt lat="45.98429" lon="6.55639">
        <ele>1745.6</ele>
        <time>2026-02-02T13:27:15Z</time>
      </trkpt>
      <trkpt lat="45.9843" lon="6.55641">
        <ele>1746</ele>
        <time>2026-02-02T13:27:16Z</time>
      </trkpt>
      <trkpt lat="45.9843" lon="6.55641">
        <ele>1746</ele>
        <time>2026-02-02T13:27:17Z</time>
      </trkpt>
      <trkpt lat="45.98431" lon="6.55642">
        <ele>1746</ele>
        <time>2026-02-02T13:27:18Z</time>
      </trkpt>
      <trkpt lat="45.98432" lon="6.55643">
        <ele>1746</ele>
        <time>2026-02-02T13:27:19Z</time>
      </trkpt>
      <trkpt lat="45.98432" lon="6.55644">
        <ele>1748.6</ele>
        <time>2026-02-02T13:27:20Z</time>
      </trkpt>
      <trkpt lat="45.98433" lon="6.55644">
        <ele>1748.6</ele>
        <time>2026-02-02T13:27:21Z</time>
      </trkpt>
      <trkpt lat="45.98433" lon="6.55645">
        <ele>1748.6</ele>
        <time>2026-02-02T13:27:22Z</time>
      </trkpt>
      <trkpt lat="45.98434" lon="6.55645">
        <ele>1748.6</ele>
        <time>2026-02-02T13:27:23Z</time>
      </trkpt>
      <trkpt lat="45.98434" lon="6.55646">
        <ele>1748.6</ele>
        <time>2026-02-02T13:27:24Z</time>
      </trkpt>
      <trkpt lat="45.98435" lon="6.55646">
        <ele>1748.6</ele>
        <time>2026-02-02T13:27:25Z</time>
      </trkpt>
      <trkpt lat="45.98435" lon="6.55646">
        <ele>1749</ele>
        <time>2026-02-02T13:27:26Z</time>
      </trkpt>
      <trkpt lat="45.98437" lon="6.55648">
        <ele>1751.3</ele>
        <time>2026-02-02T13:27:27Z</time>
      </trkpt>
      <trkpt lat="45.98438" lon="6.55649">
        <ele>1751.8</ele>
        <time>2026-02-02T13:27:28Z</time>
      </trkpt>
      <trkpt lat="45.9844" lon="6.5565">
        <ele>1751.8</ele>
        <time>2026-02-02T13:27:29Z</time>
      </trkpt>
      <trkpt lat="45.9844" lon="6.5565">
        <ele>1751.8</ele>
        <time>2026-02-02T13:27:30Z</time>
      </trkpt>
      <trkpt lat="45.98441" lon="6.5565">
        <ele>1751.8</ele>
        <time>2026-02-02T13:27:31Z</time>
      </trkpt>
      <trkpt lat="45.98441" lon="6.5565">
        <ele>1751.8</ele>
        <time>2026-02-02T13:27:32Z</time>
      </trkpt>
      <trkpt lat="45.98441" lon="6.55651">
        <ele>1751.8</ele>
        <time>2026-02-02T13:27:33Z</time>
      </trkpt>
      <trkpt lat="45.9844" lon="6.55651">
        <ele>1751.8</ele>
        <time>2026-02-02T13:27:34Z</time>
      </trkpt>
      <trkpt lat="45.98439" lon="6.55651">
        <ele>1751.8</ele>
        <time>2026-02-02T13:27:35Z</time>
      </trkpt>
      <trkpt lat="45.98439" lon="6.5565">
        <ele>1751.8</ele>
        <time>2026-02-02T13:27:36Z</time>
      </trkpt>
      <trkpt lat="45.98439" lon="6.55649">
        <ele>1751.8</ele>
        <time>2026-02-02T13:27:37Z</time>
      </trkpt>
      <trkpt lat="45.98438" lon="6.55649">
        <ele>1751.8</ele>
        <time>2026-02-02T13:27:38Z</time>
      </trkpt>
      <trkpt lat="45.98438" lon="6.55649">
        <ele>1751.8</ele>
        <time>2026-02-02T13:27:39Z</time>
      </trkpt>
      <trkpt lat="45.98438" lon="6.55649">
        <ele>1751.8</ele>
        <time>2026-02-02T13:27:40Z</time>
      </trkpt>
      <trkpt lat="45.98438" lon="6.55649">
        <ele>1751.8</ele>
        <time>2026-02-02T13:27:41Z</time>
      </trkpt>
      <trkpt lat="45.98437" lon="6.5565">
        <ele>1751.3</ele>
        <time>2026-02-02T13:27:42Z</time>
      </trkpt>
      <trkpt lat="45.98436" lon="6.55651">
        <ele>1751.3</ele>
        <time>2026-02-02T13:27:43Z</time>
      </trkpt>
      <trkpt lat="45.98436" lon="6.55651">
        <ele>1751.3</ele>
        <time>2026-02-02T13:27:44Z</time>
      </trkpt>
      <trkpt lat="45.98435" lon="6.55651">
        <ele>1751.3</ele>
        <time>2026-02-02T13:27:45Z</time>
      </trkpt>
      <trkpt lat="45.98435" lon="6.55652">
        <ele>1753.3</ele>
        <time>2026-02-02T13:27:46Z</time>
      </trkpt>
      <trkpt lat="45.98434" lon="6.55653">
        <ele>1753.3</ele>
        <time>2026-02-02T13:27:47Z</time>
      </trkpt>
      <trkpt lat="45.98434" lon="6.55653">
        <ele>1753.3</ele>
        <time>2026-02-02T13:27:48Z</time>
      </trkpt>
      <trkpt lat="45.98434" lon="6.55653">
        <ele>1753.3</ele>
        <time>2026-02-02T13:27:49Z</time>
      </trkpt>
      <trkpt lat="45.98434" lon="6.55653">
        <ele>1753.3</ele>
        <time>2026-02-02T13:27:51Z</time>
      </trkpt>
      <trkpt lat="45.98434" lon="6.55653">
        <ele>1753.3</ele>
        <time>2026-02-02T13:27:52Z</time>
      </trkpt>
      <trkpt lat="45.98433" lon="6.55653">
        <ele>1753.3</ele>
        <time>2026-02-02T13:27:53Z</time>
      </trkpt>
      <trkpt lat="45.98433" lon="6.55654">
        <ele>1753.3</ele>
        <time>2026-02-02T13:27:54Z</time>
      </trkpt>
      <trkpt lat="45.98433" lon="6.55654">
        <ele>1753.3</ele>
        <time>2026-02-02T13:27:55Z</time>
      </trkpt>
      <trkpt lat="45.98434" lon="6.55654">
        <ele>1753.3</ele>
        <time>2026-02-02T13:27:56Z</time>
      </trkpt>
      <trkpt lat="45.98434" lon="6.55654">
        <ele>1753.3</ele>
        <time>2026-02-02T13:27:57Z</time>
      </trkpt>
      <trkpt lat="45.98434" lon="6.55654">
        <ele>1753.3</ele>
        <time>2026-02-02T13:27:58Z</time>
      </trkpt>
      <trkpt lat="45.98433" lon="6.55655">
        <ele>1753.3</ele>
        <time>2026-02-02T13:27:59Z</time>
      </trkpt>
      <trkpt lat="45.98433" lon="6.55656">
        <ele>1753.3</ele>
        <time>2026-02-02T13:28:00Z</time>
      </trkpt>
      <trkpt lat="45.98432" lon="6.55657">
        <ele>1755.7</ele>
        <time>2026-02-02T13:28:01Z</time>
      </trkpt>
      <trkpt lat="45.98432" lon="6.55658">
        <ele>1755.2</ele>
        <time>2026-02-02T13:28:02Z</time>
      </trkpt>
      <trkpt lat="45.98431" lon="6.55658">
        <ele>1755.2</ele>
        <time>2026-02-02T13:28:03Z</time>
      </trkpt>
      <trkpt lat="45.98431" lon="6.55659">
        <ele>1755.2</ele>
        <time>2026-02-02T13:28:04Z</time>
      </trkpt>
      <trkpt lat="45.9843" lon="6.5566">
        <ele>1755.2</ele>
        <time>2026-02-02T13:28:05Z</time>
      </trkpt>
      <trkpt lat="45.9843" lon="6.5566">
        <ele>1755.2</ele>
        <time>2026-02-02T13:28:06Z</time>
      </trkpt>
      <trkpt lat="45.9843" lon="6.5566">
        <ele>1755.2</ele>
        <time>2026-02-02T13:28:07Z</time>
      </trkpt>
      <trkpt lat="45.98431" lon="6.55659">
        <ele>1755.2</ele>
        <time>2026-02-02T13:28:08Z</time>
      </trkpt>
      <trkpt lat="45.98431" lon="6.55659">
        <ele>1755.2</ele>
        <time>2026-02-02T13:28:09Z</time>
      </trkpt>
      <trkpt lat="45.98431" lon="6.55659">
        <ele>1755.2</ele>
        <time>2026-02-02T13:28:10Z</time>
      </trkpt>
      <trkpt lat="45.9843" lon="6.5566">
        <ele>1755.2</ele>
        <time>2026-02-02T13:28:11Z</time>
      </trkpt>
      <trkpt lat="45.9843" lon="6.55661">
        <ele>1757.6</ele>
        <time>2026-02-02T13:28:12Z</time>
      </trkpt>
      <trkpt lat="45.9843" lon="6.55662">
        <ele>1757.6</ele>
        <time>2026-02-02T13:28:13Z</time>
      </trkpt>
      <trkpt lat="45.98429" lon="6.55662">
        <ele>1757.6</ele>
        <time>2026-02-02T13:28:14Z</time>
      </trkpt>
      <trkpt lat="45.98429" lon="6.55663">
        <ele>1757.2</ele>
        <time>2026-02-02T13:28:15Z</time>
      </trkpt>
      <trkpt lat="45.98429" lon="6.55664">
        <ele>1757.2</ele>
        <time>2026-02-02T13:28:16Z</time>
      </trkpt>
      <trkpt lat="45.98429" lon="6.55664">
        <ele>1757.2</ele>
        <time>2026-02-02T13:28:17Z</time>
      </trkpt>
      <trkpt lat="45.98429" lon="6.55665">
        <ele>1757.6</ele>
        <time>2026-02-02T13:28:18Z</time>
      </trkpt>
      <trkpt lat="45.9843" lon="6.55665">
        <ele>1757.6</ele>
        <time>2026-02-02T13:28:19Z</time>
      </trkpt>
      <trkpt lat="45.9843" lon="6.55665">
        <ele>1760.1</ele>
        <time>2026-02-02T13:28:20Z</time>
      </trkpt>
      <trkpt lat="45.98431" lon="6.55665">
        <ele>1757.6</ele>
        <time>2026-02-02T13:28:21Z</time>
      </trkpt>
      <trkpt lat="45.98431" lon="6.55665">
        <ele>1757.6</ele>
        <time>2026-02-02T13:28:22Z</time>
      </trkpt>
      <trkpt lat="45.98431" lon="6.55665">
        <ele>1757.6</ele>
        <time>2026-02-02T13:28:23Z</time>
      </trkpt>
      <trkpt lat="45.98431" lon="6.55665">
        <ele>1757.6</ele>
        <time>2026-02-02T13:28:24Z</time>
      </trkpt>
      <trkpt lat="45.98431" lon="6.55665">
        <ele>1757.6</ele>
        <time>2026-02-02T13:28:25Z</time>
      </trkpt>
      <trkpt lat="45.98431" lon="6.55665">
        <ele>1757.6</ele>
        <time>2026-02-02T13:28:26Z</time>
      </trkpt>
      <trkpt lat="45.98431" lon="6.55665">
        <ele>1757.6</ele>
        <time>2026-02-02T13:28:27Z</time>
      </trkpt>
      <trkpt lat="45.98431" lon="6.55665">
        <ele>1757.6</ele>
        <time>2026-02-02T13:28:28Z</time>
      </trkpt>
      <trkpt lat="45.98431" lon="6.55665">
        <ele>1757.6</ele>
        <time>2026-02-02T13:28:29Z</time>
      </trkpt>
      <trkpt lat="45.98431" lon="6.55665">
        <ele>1757.6</ele>
        <time>2026-02-02T13:28:30Z</time>
      </trkpt>
      <trkpt lat="45.98431" lon="6.55665">
        <ele>1757.6</ele>
        <time>2026-02-02T13:28:31Z</time>
      </trkpt>
      <trkpt lat="45.98431" lon="6.55665">
        <ele>1757.6</ele>
        <time>2026-02-02T13:28:32Z</time>
      </trkpt>
      <trkpt lat="45.98431" lon="6.55665">
        <ele>1757.6</ele>
        <time>2026-02-02T13:28:33Z</time>
      </trkpt>
      <trkpt lat="45.98431" lon="6.55665">
        <ele>1760.1</ele>
        <time>2026-02-02T13:28:34Z</time>
      </trkpt>
      <trkpt lat="45.98431" lon="6.55666">
        <ele>1760.1</ele>
        <time>2026-02-02T13:28:35Z</time>
      </trkpt>
      <trkpt lat="45.98432" lon="6.55666">
        <ele>1760.1</ele>
        <time>2026-02-02T13:28:36Z</time>
      </trkpt>
      <trkpt lat="45.98432" lon="6.55666">
        <ele>1760.6</ele>
        <time>2026-02-02T13:28:37Z</time>
      </trkpt>
      <trkpt lat="45.98433" lon="6.55666">
        <ele>1760.6</ele>
        <time>2026-02-02T13:28:38Z</time>
      </trkpt>
      <trkpt lat="45.98434" lon="6.55667">
        <ele>1760.6</ele>
        <time>2026-02-02T13:28:39Z</time>
      </trkpt>
      <trkpt lat="45.98435" lon="6.55667">
        <ele>1760.6</ele>
        <time>2026-02-02T13:28:40Z</time>
      </trkpt>
      <trkpt lat="45.98436" lon="6.55667">
        <ele>1761.1</ele>
        <time>2026-02-02T13:28:41Z</time>
      </trkpt>
      <trkpt lat="45.98436" lon="6.55667">
        <ele>1761.1</ele>
        <time>2026-02-02T13:28:42Z</time>
      </trkpt>
      <trkpt lat="45.98437" lon="6.55667">
        <ele>1761.1</ele>
        <time>2026-02-02T13:28:43Z</time>
      </trkpt>
      <trkpt lat="45.98437" lon="6.55667">
        <ele>1761.1</ele>
        <time>2026-02-02T13:28:44Z</time>
      </trkpt>
      <trkpt lat="45.98438" lon="6.55667">
        <ele>1761.8</ele>
        <time>2026-02-02T13:28:45Z</time>
      </trkpt>
      <trkpt lat="45.98438" lon="6.55668">
        <ele>1761.8</ele>
        <time>2026-02-02T13:28:46Z</time>
      </trkpt>
      <trkpt lat="45.98438" lon="6.55668">
        <ele>1761.8</ele>
        <time>2026-02-02T13:28:47Z</time>
      </trkpt>
      <trkpt lat="45.98439" lon="6.55668">
        <ele>1761.8</ele>
        <time>2026-02-02T13:28:48Z</time>
      </trkpt>
      <trkpt lat="45.98438" lon="6.55668">
        <ele>1761.8</ele>
        <time>2026-02-02T13:28:49Z</time>
      </trkpt>
      <trkpt lat="45.98439" lon="6.55668">
        <ele>1761.8</ele>
        <time>2026-02-02T13:28:50Z</time>
      </trkpt>
      <trkpt lat="45.98439" lon="6.55668">
        <ele>1761.8</ele>
        <time>2026-02-02T13:28:51Z</time>
      </trkpt>
      <trkpt lat="45.98439" lon="6.55668">
        <ele>1761.8</ele>
        <time>2026-02-02T13:28:52Z</time>
      </trkpt>
      <trkpt lat="45.98439" lon="6.55668">
        <ele>1761.8</ele>
        <time>2026-02-02T13:28:53Z</time>
      </trkpt>
      <trkpt lat="45.98438" lon="6.55668">
        <ele>1761.8</ele>
        <time>2026-02-02T13:28:54Z</time>
      </trkpt>
      <trkpt lat="45.98438" lon="6.55667">
        <ele>1761.8</ele>
        <time>2026-02-02T13:28:55Z</time>
      </trkpt>
      <trkpt lat="45.98438" lon="6.55667">
        <ele>1761.8</ele>
        <time>2026-02-02T13:28:56Z</time>
      </trkpt>
      <trkpt lat="45.98438" lon="6.55667">
        <ele>1761.8</ele>
        <time>2026-02-02T13:28:57Z</time>
      </trkpt>
      <trkpt lat="45.98438" lon="6.55667">
        <ele>1761.8</ele>
        <time>2026-02-02T13:28:58Z</time>
      </trkpt>
      <trkpt lat="45.98438" lon="6.55667">
        <ele>1761.8</ele>
        <time>2026-02-02T13:28:59Z</time>
      </trkpt>
      <trkpt lat="45.98438" lon="6.55667">
        <ele>1761.8</ele>
        <time>2026-02-02T13:29:00Z</time>
      </trkpt>
      <trkpt lat="45.98438" lon="6.55667">
        <ele>1761.8</ele>
        <time>2026-02-02T13:29:01Z</time>
      </trkpt>
      <trkpt lat="45.98438" lon="6.55667">
        <ele>1761.8</ele>
        <time>2026-02-02T13:29:02Z</time>
      </trkpt>
      <trkpt lat="45.98438" lon="6.55667">
        <ele>1761.8</ele>
        <time>2026-02-02T13:29:03Z</time>
      </trkpt>
      <trkpt lat="45.98438" lon="6.55666">
        <ele>1761.8</ele>
        <time>2026-02-02T13:29:04Z</time>
      </trkpt>
      <trkpt lat="45.98438" lon="6.55666">
        <ele>1761.1</ele>
        <time>2026-02-02T13:29:05Z</time>
      </trkpt>
      <trkpt lat="45.98438" lon="6.55666">
        <ele>1761.1</ele>
        <time>2026-02-02T13:29:06Z</time>
      </trkpt>
      <trkpt lat="45.98438" lon="6.55666">
        <ele>1761.8</ele>
        <time>2026-02-02T13:29:07Z</time>
      </trkpt>
      <trkpt lat="45.98438" lon="6.55666">
        <ele>1761.1</ele>
        <time>2026-02-02T13:29:08Z</time>
      </trkpt>
      <trkpt lat="45.98438" lon="6.55666">
        <ele>1761.1</ele>
        <time>2026-02-02T13:29:09Z</time>
      </trkpt>
      <trkpt lat="45.98438" lon="6.55666">
        <ele>1761.1</ele>
        <time>2026-02-02T13:29:10Z</time>
      </trkpt>
      <trkpt lat="45.98438" lon="6.55666">
        <ele>1761.1</ele>
        <time>2026-02-02T13:29:11Z</time>
      </trkpt>
      <trkpt lat="45.98438" lon="6.55666">
        <ele>1761.1</ele>
        <time>2026-02-02T13:29:12Z</time>
      </trkpt>
      <trkpt lat="45.98438" lon="6.55666">
        <ele>1761.1</ele>
        <time>2026-02-02T13:29:13Z</time>
      </trkpt>
      <trkpt lat="45.98438" lon="6.55666">
        <ele>1761.1</ele>
        <time>2026-02-02T13:29:14Z</time>
      </trkpt>
      <trkpt lat="45.98438" lon="6.55666">
        <ele>1761.1</ele>
        <time>2026-02-02T13:29:15Z</time>
      </trkpt>
      <trkpt lat="45.98438" lon="6.55666">
        <ele>1761.1</ele>
        <time>2026-02-02T13:29:16Z</time>
      </trkpt>
      <trkpt lat="45.98438" lon="6.55666">
        <ele>1761.1</ele>
        <time>2026-02-02T13:29:17Z</time>
      </trkpt>
      <trkpt lat="45.98438" lon="6.55666">
        <ele>1761.1</ele>
        <time>2026-02-02T13:29:18Z</time>
      </trkpt>
      <trkpt lat="45.98438" lon="6.55666">
        <ele>1761.1</ele>
        <time>2026-02-02T13:29:19Z</time>
      </trkpt>
      <trkpt lat="45.98438" lon="6.55666">
        <ele>1761.1</ele>
        <time>2026-02-02T13:29:20Z</time>
      </trkpt>
      <trkpt lat="45.98438" lon="6.55666">
        <ele>1761.1</ele>
        <time>2026-02-02T13:29:21Z</time>
      </trkpt>
      <trkpt lat="45.98438" lon="6.55666">
        <ele>1761.1</ele>
        <time>2026-02-02T13:29:22Z</time>
      </trkpt>
      <trkpt lat="45.98438" lon="6.55666">
        <ele>1761.1</ele>
        <time>2026-02-02T13:29:23Z</time>
      </trkpt>
      <trkpt lat="45.98438" lon="6.55666">
        <ele>1761.1</ele>
        <time>2026-02-02T13:29:24Z</time>
      </trkpt>
      <trkpt lat="45.98438" lon="6.55666">
        <ele>1761.1</ele>
        <time>2026-02-02T13:29:25Z</time>
      </trkpt>
      <trkpt lat="45.98438" lon="6.55666">
        <ele>1761.1</ele>
        <time>2026-02-02T13:29:26Z</time>
      </trkpt>
      <trkpt lat="45.98438" lon="6.55666">
        <ele>1761.1</ele>
        <time>2026-02-02T13:29:27Z</time>
      </trkpt>
      <trkpt lat="45.98438" lon="6.55666">
        <ele>1761.1</ele>
        <time>2026-02-02T13:29:28Z</time>
      </trkpt>
      <trkpt lat="45.98438" lon="6.55666">
        <ele>1761.1</ele>
        <time>2026-02-02T13:29:29Z</time>
      </trkpt>
      <trkpt lat="45.98438" lon="6.55666">
        <ele>1761.1</ele>
        <time>2026-02-02T13:29:30Z</time>
      </trkpt>
      <trkpt lat="45.98438" lon="6.55666">
        <ele>1761.1</ele>
        <time>2026-02-02T13:29:31Z</time>
      </trkpt>
      <trkpt lat="45.98438" lon="6.55666">
        <ele>1761.1</ele>
        <time>2026-02-02T13:29:32Z</time>
      </trkpt>
      <trkpt lat="45.98438" lon="6.55666">
        <ele>1761.1</ele>
        <time>2026-02-02T13:29:33Z</time>
      </trkpt>
      <trkpt lat="45.98438" lon="6.55666">
        <ele>1761.1</ele>
        <time>2026-02-02T13:29:34Z</time>
      </trkpt>
      <trkpt lat="45.98438" lon="6.55666">
        <ele>1761.1</ele>
        <time>2026-02-02T13:29:35Z</time>
      </trkpt>
      <trkpt lat="45.98438" lon="6.55666">
        <ele>1761.1</ele>
        <time>2026-02-02T13:29:36Z</time>
      </trkpt>
      <trkpt lat="45.98438" lon="6.55667">
        <ele>1761.8</ele>
        <time>2026-02-02T13:29:37Z</time>
      </trkpt>
      <trkpt lat="45.98439" lon="6.55668">
        <ele>1761.8</ele>
        <time>2026-02-02T13:29:38Z</time>
      </trkpt>
      <trkpt lat="45.9844" lon="6.55668">
        <ele>1761.8</ele>
        <time>2026-02-02T13:29:39Z</time>
      </trkpt>
      <trkpt lat="45.9844" lon="6.55669">
        <ele>1761.8</ele>
        <time>2026-02-02T13:29:40Z</time>
      </trkpt>
      <trkpt lat="45.98441" lon="6.55669">
        <ele>1761.8</ele>
        <time>2026-02-02T13:29:41Z</time>
      </trkpt>
      <trkpt lat="45.98441" lon="6.55669">
        <ele>1764.3</ele>
        <time>2026-02-02T13:29:42Z</time>
      </trkpt>
      <trkpt lat="45.98442" lon="6.5567">
        <ele>1765</ele>
        <time>2026-02-02T13:29:43Z</time>
      </trkpt>
      <trkpt lat="45.98442" lon="6.5567">
        <ele>1765</ele>
        <time>2026-02-02T13:29:44Z</time>
      </trkpt>
      <trkpt lat="45.98442" lon="6.5567">
        <ele>1765</ele>
        <time>2026-02-02T13:29:45Z</time>
      </trkpt>
      <trkpt lat="45.98442" lon="6.55671">
        <ele>1765</ele>
        <time>2026-02-02T13:29:46Z</time>
      </trkpt>
      <trkpt lat="45.98441" lon="6.55672">
        <ele>1765</ele>
        <time>2026-02-02T13:29:47Z</time>
      </trkpt>
      <trkpt lat="45.98441" lon="6.55672">
        <ele>1765</ele>
        <time>2026-02-02T13:29:48Z</time>
      </trkpt>
      <trkpt lat="45.98441" lon="6.55672">
        <ele>1764.3</ele>
        <time>2026-02-02T13:29:49Z</time>
      </trkpt>
      <trkpt lat="45.9844" lon="6.55673">
        <ele>1764.3</ele>
        <time>2026-02-02T13:29:50Z</time>
      </trkpt>
      <trkpt lat="45.98439" lon="6.55673">
        <ele>1764.3</ele>
        <time>2026-02-02T13:29:51Z</time>
      </trkpt>
      <trkpt lat="45.98438" lon="6.55674">
        <ele>1764.3</ele>
        <time>2026-02-02T13:29:52Z</time>
      </trkpt>
      <trkpt lat="45.98437" lon="6.55674">
        <ele>1766</ele>
        <time>2026-02-02T13:29:53Z</time>
      </trkpt>
      <trkpt lat="45.98438" lon="6.55674">
        <ele>1766</ele>
        <time>2026-02-02T13:29:54Z</time>
      </trkpt>
      <trkpt lat="45.98438" lon="6.55674">
        <ele>1766</ele>
        <time>2026-02-02T13:29:56Z</time>
      </trkpt>
      <trkpt lat="45.98438" lon="6.55674">
        <ele>1766</ele>
        <time>2026-02-02T13:29:57Z</time>
      </trkpt>
      <trkpt lat="45.98438" lon="6.55674">
        <ele>1766</ele>
        <time>2026-02-02T13:29:58Z</time>
      </trkpt>
      <trkpt lat="45.98438" lon="6.55674">
        <ele>1766</ele>
        <time>2026-02-02T13:29:59Z</time>
      </trkpt>
      <trkpt lat="45.98438" lon="6.55674">
        <ele>1766</ele>
        <time>2026-02-02T13:30:00Z</time>
      </trkpt>
      <trkpt lat="45.98438" lon="6.55674">
        <ele>1766</ele>
        <time>2026-02-02T13:30:01Z</time>
      </trkpt>
      <trkpt lat="45.98438" lon="6.55674">
        <ele>1766.7</ele>
        <time>2026-02-02T13:30:02Z</time>
      </trkpt>
      <trkpt lat="45.98438" lon="6.55674">
        <ele>1764.3</ele>
        <time>2026-02-02T13:30:03Z</time>
      </trkpt>
      <trkpt lat="45.98438" lon="6.55673">
        <ele>1764.3</ele>
        <time>2026-02-02T13:30:04Z</time>
      </trkpt>
      <trkpt lat="45.98438" lon="6.55673">
        <ele>1764.3</ele>
        <time>2026-02-02T13:30:05Z</time>
      </trkpt>
      <trkpt lat="45.98438" lon="6.55673">
        <ele>1764.3</ele>
        <time>2026-02-02T13:30:06Z</time>
      </trkpt>
      <trkpt lat="45.98438" lon="6.55673">
        <ele>1764.3</ele>
        <time>2026-02-02T13:30:07Z</time>
      </trkpt>
      <trkpt lat="45.98438" lon="6.55673">
        <ele>1764.3</ele>
        <time>2026-02-02T13:30:08Z</time>
      </trkpt>
      <trkpt lat="45.98439" lon="6.55673">
        <ele>1764.3</ele>
        <time>2026-02-02T13:30:09Z</time>
      </trkpt>
      <trkpt lat="45.98439" lon="6.55673">
        <ele>1764.3</ele>
        <time>2026-02-02T13:30:10Z</time>
      </trkpt>
      <trkpt lat="45.98439" lon="6.55673">
        <ele>1764.3</ele>
        <time>2026-02-02T13:30:11Z</time>
      </trkpt>
      <trkpt lat="45.98439" lon="6.55673">
        <ele>1764.3</ele>
        <time>2026-02-02T13:30:12Z</time>
      </trkpt>
      <trkpt lat="45.98439" lon="6.55673">
        <ele>1764.3</ele>
        <time>2026-02-02T13:30:13Z</time>
      </trkpt>
      <trkpt lat="45.98438" lon="6.55673">
        <ele>1764.3</ele>
        <time>2026-02-02T13:30:14Z</time>
      </trkpt>
      <trkpt lat="45.98438" lon="6.55673">
        <ele>1764.3</ele>
        <time>2026-02-02T13:30:15Z</time>
      </trkpt>
      <trkpt lat="45.98438" lon="6.55673">
        <ele>1764.3</ele>
        <time>2026-02-02T13:30:16Z</time>
      </trkpt>
      <trkpt lat="45.98438" lon="6.55673">
        <ele>1763.6</ele>
        <time>2026-02-02T13:30:17Z</time>
      </trkpt>
      <trkpt lat="45.98438" lon="6.55674">
        <ele>1766</ele>
        <time>2026-02-02T13:30:18Z</time>
      </trkpt>
      <trkpt lat="45.98437" lon="6.55675">
        <ele>1766</ele>
        <time>2026-02-02T13:30:19Z</time>
      </trkpt>
      <trkpt lat="45.98437" lon="6.55676">
        <ele>1766</ele>
        <time>2026-02-02T13:30:20Z</time>
      </trkpt>
      <trkpt lat="45.98436" lon="6.55677">
        <ele>1766</ele>
        <time>2026-02-02T13:30:21Z</time>
      </trkpt>
      <trkpt lat="45.98436" lon="6.55679">
        <ele>1768.5</ele>
        <time>2026-02-02T13:30:22Z</time>
      </trkpt>
      <trkpt lat="45.98435" lon="6.55679">
        <ele>1767.9</ele>
        <time>2026-02-02T13:30:23Z</time>
      </trkpt>
      <trkpt lat="45.98434" lon="6.5568">
        <ele>1767.9</ele>
        <time>2026-02-02T13:30:24Z</time>
      </trkpt>
      <trkpt lat="45.98434" lon="6.5568">
        <ele>1767.9</ele>
        <time>2026-02-02T13:30:25Z</time>
      </trkpt>
      <trkpt lat="45.98433" lon="6.55681">
        <ele>1767.9</ele>
        <time>2026-02-02T13:30:26Z</time>
      </trkpt>
      <trkpt lat="45.98433" lon="6.55682">
        <ele>1770.4</ele>
        <time>2026-02-02T13:30:27Z</time>
      </trkpt>
      <trkpt lat="45.98432" lon="6.55683">
        <ele>1770.4</ele>
        <time>2026-02-02T13:30:28Z</time>
      </trkpt>
      <trkpt lat="45.98432" lon="6.55684">
        <ele>1769.8</ele>
        <time>2026-02-02T13:30:29Z</time>
      </trkpt>
      <trkpt lat="45.98431" lon="6.55685">
        <ele>1769.8</ele>
        <time>2026-02-02T13:30:30Z</time>
      </trkpt>
      <trkpt lat="45.98431" lon="6.55686">
        <ele>1769.8</ele>
        <time>2026-02-02T13:30:31Z</time>
      </trkpt>
      <trkpt lat="45.9843" lon="6.55687">
        <ele>1772.5</ele>
        <time>2026-02-02T13:30:32Z</time>
      </trkpt>
      <trkpt lat="45.9843" lon="6.55688">
        <ele>1772.5</ele>
        <time>2026-02-02T13:30:33Z</time>
      </trkpt>
      <trkpt lat="45.98429" lon="6.55689">
        <ele>1772.5</ele>
        <time>2026-02-02T13:30:34Z</time>
      </trkpt>
      <trkpt lat="45.98428" lon="6.5569">
        <ele>1771.9</ele>
        <time>2026-02-02T13:30:35Z</time>
      </trkpt>
      <trkpt lat="45.98428" lon="6.55691">
        <ele>1771.9</ele>
        <time>2026-02-02T13:30:36Z</time>
      </trkpt>
      <trkpt lat="45.98427" lon="6.55691">
        <ele>1774.6</ele>
        <time>2026-02-02T13:30:37Z</time>
      </trkpt>
      <trkpt lat="45.98426" lon="6.55692">
        <ele>1774.6</ele>
        <time>2026-02-02T13:30:38Z</time>
      </trkpt>
      <trkpt lat="45.98425" lon="6.55693">
        <ele>1774</ele>
        <time>2026-02-02T13:30:39Z</time>
      </trkpt>
      <trkpt lat="45.98425" lon="6.55694">
        <ele>1774</ele>
        <time>2026-02-02T13:30:40Z</time>
      </trkpt>
      <trkpt lat="45.98424" lon="6.55694">
        <ele>1774</ele>
        <time>2026-02-02T13:30:41Z</time>
      </trkpt>
      <trkpt lat="45.98423" lon="6.55695">
        <ele>1776.8</ele>
        <time>2026-02-02T13:30:42Z</time>
      </trkpt>
      <trkpt lat="45.98423" lon="6.55695">
        <ele>1776.1</ele>
        <time>2026-02-02T13:30:43Z</time>
      </trkpt>
      <trkpt lat="45.98423" lon="6.55695">
        <ele>1773.3</ele>
        <time>2026-02-02T13:30:44Z</time>
      </trkpt>
      <trkpt lat="45.98423" lon="6.55694">
        <ele>1773.3</ele>
        <time>2026-02-02T13:30:45Z</time>
      </trkpt>
      <trkpt lat="45.98423" lon="6.55694">
        <ele>1773.3</ele>
        <time>2026-02-02T13:30:46Z</time>
      </trkpt>
      <trkpt lat="45.98423" lon="6.55693">
        <ele>1773.3</ele>
        <time>2026-02-02T13:30:47Z</time>
      </trkpt>
      <trkpt lat="45.98423" lon="6.55693">
        <ele>1773.3</ele>
        <time>2026-02-02T13:30:48Z</time>
      </trkpt>
      <trkpt lat="45.98423" lon="6.55693">
        <ele>1773.3</ele>
        <time>2026-02-02T13:30:49Z</time>
      </trkpt>
      <trkpt lat="45.98423" lon="6.55693">
        <ele>1773.3</ele>
        <time>2026-02-02T13:30:50Z</time>
      </trkpt>
      <trkpt lat="45.98423" lon="6.55693">
        <ele>1773.3</ele>
        <time>2026-02-02T13:30:51Z</time>
      </trkpt>
      <trkpt lat="45.98423" lon="6.55693">
        <ele>1773.3</ele>
        <time>2026-02-02T13:30:52Z</time>
      </trkpt>
      <trkpt lat="45.98423" lon="6.55693">
        <ele>1773.3</ele>
        <time>2026-02-02T13:30:53Z</time>
      </trkpt>
      <trkpt lat="45.98423" lon="6.55693">
        <ele>1773.3</ele>
        <time>2026-02-02T13:30:54Z</time>
      </trkpt>
      <trkpt lat="45.98423" lon="6.55693">
        <ele>1773.3</ele>
        <time>2026-02-02T13:30:55Z</time>
      </trkpt>
      <trkpt lat="45.98422" lon="6.55693">
        <ele>1773.3</ele>
        <time>2026-02-02T13:30:56Z</time>
      </trkpt>
      <trkpt lat="45.98422" lon="6.55693">
        <ele>1773.3</ele>
        <time>2026-02-02T13:30:57Z</time>
      </trkpt>
      <trkpt lat="45.98422" lon="6.55693">
        <ele>1773.3</ele>
        <time>2026-02-02T13:30:58Z</time>
      </trkpt>
      <trkpt lat="45.98422" lon="6.55693">
        <ele>1773.3</ele>
        <time>2026-02-02T13:30:59Z</time>
      </trkpt>
      <trkpt lat="45.98422" lon="6.55694">
        <ele>1773.3</ele>
        <time>2026-02-02T13:31:00Z</time>
      </trkpt>
      <trkpt lat="45.98422" lon="6.55694">
        <ele>1773.3</ele>
        <time>2026-02-02T13:31:01Z</time>
      </trkpt>
      <trkpt lat="45.98422" lon="6.55694">
        <ele>1773.3</ele>
        <time>2026-02-02T13:31:02Z</time>
      </trkpt>
      <trkpt lat="45.98422" lon="6.55693">
        <ele>1773.3</ele>
        <time>2026-02-02T13:31:03Z</time>
      </trkpt>
      <trkpt lat="45.98421" lon="6.55693">
        <ele>1773.3</ele>
        <time>2026-02-02T13:31:04Z</time>
      </trkpt>
      <trkpt lat="45.98421" lon="6.55693">
        <ele>1773.3</ele>
        <time>2026-02-02T13:31:05Z</time>
      </trkpt>
      <trkpt lat="45.98421" lon="6.55693">
        <ele>1773.3</ele>
        <time>2026-02-02T13:31:06Z</time>
      </trkpt>
      <trkpt lat="45.98422" lon="6.55693">
        <ele>1773.3</ele>
        <time>2026-02-02T13:31:07Z</time>
      </trkpt>
      <trkpt lat="45.98422" lon="6.55693">
        <ele>1773.3</ele>
        <time>2026-02-02T13:31:08Z</time>
      </trkpt>
      <trkpt lat="45.98421" lon="6.55693">
        <ele>1773.3</ele>
        <time>2026-02-02T13:31:09Z</time>
      </trkpt>
      <trkpt lat="45.98421" lon="6.55694">
        <ele>1773.3</ele>
        <time>2026-02-02T13:31:10Z</time>
      </trkpt>
      <trkpt lat="45.98421" lon="6.55694">
        <ele>1773.3</ele>
        <time>2026-02-02T13:31:11Z</time>
      </trkpt>
      <trkpt lat="45.98421" lon="6.55694">
        <ele>1773.3</ele>
        <time>2026-02-02T13:31:12Z</time>
      </trkpt>
      <trkpt lat="45.9842" lon="6.55695">
        <ele>1773.3</ele>
        <time>2026-02-02T13:31:13Z</time>
      </trkpt>
      <trkpt lat="45.98419" lon="6.55696">
        <ele>1775.4</ele>
        <time>2026-02-02T13:31:14Z</time>
      </trkpt>
      <trkpt lat="45.98419" lon="6.55697">
        <ele>1775.4</ele>
        <time>2026-02-02T13:31:15Z</time>
      </trkpt>
      <trkpt lat="45.98418" lon="6.55698">
        <ele>1775.4</ele>
        <time>2026-02-02T13:31:16Z</time>
      </trkpt>
      <trkpt lat="45.98418" lon="6.55699">
        <ele>1775.4</ele>
        <time>2026-02-02T13:31:17Z</time>
      </trkpt>
      <trkpt lat="45.98418" lon="6.557">
        <ele>1778.2</ele>
        <time>2026-02-02T13:31:18Z</time>
      </trkpt>
      <trkpt lat="45.98418" lon="6.55701">
        <ele>1778.2</ele>
        <time>2026-02-02T13:31:19Z</time>
      </trkpt>
      <trkpt lat="45.98419" lon="6.55701">
        <ele>1778.2</ele>
        <time>2026-02-02T13:31:20Z</time>
      </trkpt>
      <trkpt lat="45.98419" lon="6.55701">
        <ele>1778.2</ele>
        <time>2026-02-02T13:31:21Z</time>
      </trkpt>
      <trkpt lat="45.9842" lon="6.55701">
        <ele>1779</ele>
        <time>2026-02-02T13:31:22Z</time>
      </trkpt>
      <trkpt lat="45.98421" lon="6.55701">
        <ele>1779</ele>
        <time>2026-02-02T13:31:23Z</time>
      </trkpt>
      <trkpt lat="45.98421" lon="6.557">
        <ele>1779</ele>
        <time>2026-02-02T13:31:24Z</time>
      </trkpt>
      <trkpt lat="45.98421" lon="6.557">
        <ele>1779</ele>
        <time>2026-02-02T13:31:25Z</time>
      </trkpt>
      <trkpt lat="45.98422" lon="6.557">
        <ele>1779</ele>
        <time>2026-02-02T13:31:26Z</time>
      </trkpt>
      <trkpt lat="45.98423" lon="6.557">
        <ele>1779</ele>
        <time>2026-02-02T13:31:27Z</time>
      </trkpt>
      <trkpt lat="45.98424" lon="6.557">
        <ele>1779.7</ele>
        <time>2026-02-02T13:31:28Z</time>
      </trkpt>
      <trkpt lat="45.98424" lon="6.557">
        <ele>1779.7</ele>
        <time>2026-02-02T13:31:29Z</time>
      </trkpt>
      <trkpt lat="45.98425" lon="6.55699">
        <ele>1779.7</ele>
        <time>2026-02-02T13:31:30Z</time>
      </trkpt>
      <trkpt lat="45.98425" lon="6.55699">
        <ele>1779.7</ele>
        <time>2026-02-02T13:31:31Z</time>
      </trkpt>
      <trkpt lat="45.98426" lon="6.557">
        <ele>1780.3</ele>
        <time>2026-02-02T13:31:32Z</time>
      </trkpt>
      <trkpt lat="45.98427" lon="6.557">
        <ele>1780.3</ele>
        <time>2026-02-02T13:31:33Z</time>
      </trkpt>
      <trkpt lat="45.98428" lon="6.557">
        <ele>1780.3</ele>
        <time>2026-02-02T13:31:34Z</time>
      </trkpt>
      <trkpt lat="45.9843" lon="6.557">
        <ele>1780.9</ele>
        <time>2026-02-02T13:31:35Z</time>
      </trkpt>
      <trkpt lat="45.98431" lon="6.557">
        <ele>1780.9</ele>
        <time>2026-02-02T13:31:36Z</time>
      </trkpt>
      <trkpt lat="45.98431" lon="6.55701">
        <ele>1780.9</ele>
        <time>2026-02-02T13:31:37Z</time>
      </trkpt>
      <trkpt lat="45.98431" lon="6.55701">
        <ele>1780.9</ele>
        <time>2026-02-02T13:31:38Z</time>
      </trkpt>
      <trkpt lat="45.98431" lon="6.55701">
        <ele>1780.9</ele>
        <time>2026-02-02T13:31:39Z</time>
      </trkpt>
      <trkpt lat="45.98431" lon="6.55701">
        <ele>1780.9</ele>
        <time>2026-02-02T13:31:40Z</time>
      </trkpt>
      <trkpt lat="45.98431" lon="6.55701">
        <ele>1780.9</ele>
        <time>2026-02-02T13:31:41Z</time>
      </trkpt>
      <trkpt lat="45.98431" lon="6.55701">
        <ele>1780.9</ele>
        <time>2026-02-02T13:31:42Z</time>
      </trkpt>
      <trkpt lat="45.98431" lon="6.55702">
        <ele>1780.9</ele>
        <time>2026-02-02T13:31:43Z</time>
      </trkpt>
      <trkpt lat="45.98431" lon="6.55702">
        <ele>1780.9</ele>
        <time>2026-02-02T13:31:44Z</time>
      </trkpt>
      <trkpt lat="45.98431" lon="6.55702">
        <ele>1780.9</ele>
        <time>2026-02-02T13:31:45Z</time>
      </trkpt>
      <trkpt lat="45.98431" lon="6.55702">
        <ele>1780.9</ele>
        <time>2026-02-02T13:31:46Z</time>
      </trkpt>
      <trkpt lat="45.98431" lon="6.55702">
        <ele>1780.9</ele>
        <time>2026-02-02T13:31:47Z</time>
      </trkpt>
      <trkpt lat="45.98431" lon="6.55702">
        <ele>1780.9</ele>
        <time>2026-02-02T13:31:48Z</time>
      </trkpt>
      <trkpt lat="45.98431" lon="6.55702">
        <ele>1780.9</ele>
        <time>2026-02-02T13:31:49Z</time>
      </trkpt>
      <trkpt lat="45.98431" lon="6.55702">
        <ele>1780.9</ele>
        <time>2026-02-02T13:31:50Z</time>
      </trkpt>
      <trkpt lat="45.98431" lon="6.55702">
        <ele>1780.9</ele>
        <time>2026-02-02T13:31:51Z</time>
      </trkpt>
      <trkpt lat="45.98431" lon="6.55702">
        <ele>1780.9</ele>
        <time>2026-02-02T13:31:52Z</time>
      </trkpt>
      <trkpt lat="45.98431" lon="6.55702">
        <ele>1780.9</ele>
        <time>2026-02-02T13:31:53Z</time>
      </trkpt>
      <trkpt lat="45.98431" lon="6.55702">
        <ele>1780.9</ele>
        <time>2026-02-02T13:31:54Z</time>
      </trkpt>
      <trkpt lat="45.98431" lon="6.55702">
        <ele>1780.9</ele>
        <time>2026-02-02T13:31:55Z</time>
      </trkpt>
      <trkpt lat="45.98431" lon="6.55702">
        <ele>1780.9</ele>
        <time>2026-02-02T13:31:56Z</time>
      </trkpt>
      <trkpt lat="45.98431" lon="6.55702">
        <ele>1780.9</ele>
        <time>2026-02-02T13:31:57Z</time>
      </trkpt>
      <trkpt lat="45.98431" lon="6.55702">
        <ele>1780.9</ele>
        <time>2026-02-02T13:31:58Z</time>
      </trkpt>
      <trkpt lat="45.98431" lon="6.55701">
        <ele>1780.9</ele>
        <time>2026-02-02T13:31:59Z</time>
      </trkpt>
      <trkpt lat="45.98431" lon="6.55701">
        <ele>1780.9</ele>
        <time>2026-02-02T13:32:00Z</time>
      </trkpt>
      <trkpt lat="45.98431" lon="6.55701">
        <ele>1780.9</ele>
        <time>2026-02-02T13:32:01Z</time>
      </trkpt>
      <trkpt lat="45.98432" lon="6.55701">
        <ele>1781.4</ele>
        <time>2026-02-02T13:32:02Z</time>
      </trkpt>
      <trkpt lat="45.98433" lon="6.55701">
        <ele>1781.4</ele>
        <time>2026-02-02T13:32:03Z</time>
      </trkpt>
      <trkpt lat="45.98434" lon="6.55701">
        <ele>1781.4</ele>
        <time>2026-02-02T13:32:04Z</time>
      </trkpt>
      <trkpt lat="45.98434" lon="6.55701">
        <ele>1781.4</ele>
        <time>2026-02-02T13:32:05Z</time>
      </trkpt>
      <trkpt lat="45.98435" lon="6.55702">
        <ele>1781.4</ele>
        <time>2026-02-02T13:32:06Z</time>
      </trkpt>
      <trkpt lat="45.98435" lon="6.55702">
        <ele>1782</ele>
        <time>2026-02-02T13:32:07Z</time>
      </trkpt>
      <trkpt lat="45.98436" lon="6.55703">
        <ele>1782</ele>
        <time>2026-02-02T13:32:08Z</time>
      </trkpt>
      <trkpt lat="45.98437" lon="6.55703">
        <ele>1782</ele>
        <time>2026-02-02T13:32:09Z</time>
      </trkpt>
      <trkpt lat="45.98437" lon="6.55703">
        <ele>1782</ele>
        <time>2026-02-02T13:32:10Z</time>
      </trkpt>
      <trkpt lat="45.98437" lon="6.55703">
        <ele>1782</ele>
        <time>2026-02-02T13:32:11Z</time>
      </trkpt>
      <trkpt lat="45.98438" lon="6.55703">
        <ele>1782</ele>
        <time>2026-02-02T13:32:12Z</time>
      </trkpt>
      <trkpt lat="45.98438" lon="6.55703">
        <ele>1782.7</ele>
        <time>2026-02-02T13:32:13Z</time>
      </trkpt>
      <trkpt lat="45.98439" lon="6.55704">
        <ele>1782.7</ele>
        <time>2026-02-02T13:32:14Z</time>
      </trkpt>
      <trkpt lat="45.98439" lon="6.55704">
        <ele>1785.4</ele>
        <time>2026-02-02T13:32:15Z</time>
      </trkpt>
      <trkpt lat="45.98439" lon="6.55704">
        <ele>1785.4</ele>
        <time>2026-02-02T13:32:16Z</time>
      </trkpt>
      <trkpt lat="45.9844" lon="6.55704">
        <ele>1785.4</ele>
        <time>2026-02-02T13:32:17Z</time>
      </trkpt>
      <trkpt lat="45.9844" lon="6.55704">
        <ele>1785.4</ele>
        <time>2026-02-02T13:32:18Z</time>
      </trkpt>
      <trkpt lat="45.98441" lon="6.55704">
        <ele>1786.1</ele>
        <time>2026-02-02T13:32:19Z</time>
      </trkpt>
      <trkpt lat="45.98442" lon="6.55705">
        <ele>1786.1</ele>
        <time>2026-02-02T13:32:20Z</time>
      </trkpt>
      <trkpt lat="45.98443" lon="6.55705">
        <ele>1786.1</ele>
        <time>2026-02-02T13:32:21Z</time>
      </trkpt>
      <trkpt lat="45.98444" lon="6.55706">
        <ele>1786.1</ele>
        <time>2026-02-02T13:32:22Z</time>
      </trkpt>
      <trkpt lat="45.98445" lon="6.55707">
        <ele>1786.9</ele>
        <time>2026-02-02T13:32:23Z</time>
      </trkpt>
      <trkpt lat="45.98445" lon="6.55707">
        <ele>1786.9</ele>
        <time>2026-02-02T13:32:24Z</time>
      </trkpt>
      <trkpt lat="45.98446" lon="6.55708">
        <ele>1789.4</ele>
        <time>2026-02-02T13:32:25Z</time>
      </trkpt>
      <trkpt lat="45.98447" lon="6.55709">
        <ele>1789.4</ele>
        <time>2026-02-02T13:32:26Z</time>
      </trkpt>
      <trkpt lat="45.98448" lon="6.5571">
        <ele>1790.1</ele>
        <time>2026-02-02T13:32:27Z</time>
      </trkpt>
      <trkpt lat="45.98448" lon="6.5571">
        <ele>1790.1</ele>
        <time>2026-02-02T13:32:28Z</time>
      </trkpt>
      <trkpt lat="45.98447" lon="6.5571">
        <ele>1790.1</ele>
        <time>2026-02-02T13:32:29Z</time>
      </trkpt>
      <trkpt lat="45.98447" lon="6.5571">
        <ele>1790.1</ele>
        <time>2026-02-02T13:32:30Z</time>
      </trkpt>
      <trkpt lat="45.98447" lon="6.5571">
        <ele>1790.1</ele>
        <time>2026-02-02T13:32:31Z</time>
      </trkpt>
      <trkpt lat="45.98447" lon="6.5571">
        <ele>1790.1</ele>
        <time>2026-02-02T13:32:32Z</time>
      </trkpt>
      <trkpt lat="45.98447" lon="6.5571">
        <ele>1790.1</ele>
        <time>2026-02-02T13:32:33Z</time>
      </trkpt>
      <trkpt lat="45.98447" lon="6.5571">
        <ele>1790.1</ele>
        <time>2026-02-02T13:32:34Z</time>
      </trkpt>
      <trkpt lat="45.98447" lon="6.5571">
        <ele>1789.4</ele>
        <time>2026-02-02T13:32:35Z</time>
      </trkpt>
      <trkpt lat="45.98447" lon="6.5571">
        <ele>1789.4</ele>
        <time>2026-02-02T13:32:36Z</time>
      </trkpt>
      <trkpt lat="45.98447" lon="6.5571">
        <ele>1789.4</ele>
        <time>2026-02-02T13:32:37Z</time>
      </trkpt>
      <trkpt lat="45.98447" lon="6.5571">
        <ele>1789.4</ele>
        <time>2026-02-02T13:32:38Z</time>
      </trkpt>
      <trkpt lat="45.98447" lon="6.5571">
        <ele>1789.4</ele>
        <time>2026-02-02T13:32:39Z</time>
      </trkpt>
      <trkpt lat="45.98447" lon="6.5571">
        <ele>1789.4</ele>
        <time>2026-02-02T13:32:40Z</time>
      </trkpt>
      <trkpt lat="45.98447" lon="6.5571">
        <ele>1789.4</ele>
        <time>2026-02-02T13:32:41Z</time>
      </trkpt>
      <trkpt lat="45.98447" lon="6.5571">
        <ele>1789.4</ele>
        <time>2026-02-02T13:32:42Z</time>
      </trkpt>
      <trkpt lat="45.98447" lon="6.5571">
        <ele>1789.4</ele>
        <time>2026-02-02T13:32:43Z</time>
      </trkpt>
      <trkpt lat="45.98447" lon="6.5571">
        <ele>1789.4</ele>
        <time>2026-02-02T13:32:44Z</time>
      </trkpt>
      <trkpt lat="45.98447" lon="6.55711">
        <ele>1790.1</ele>
        <time>2026-02-02T13:32:45Z</time>
      </trkpt>
      <trkpt lat="45.98447" lon="6.55711">
        <ele>1790.1</ele>
        <time>2026-02-02T13:32:46Z</time>
      </trkpt>
      <trkpt lat="45.98448" lon="6.55712">
        <ele>1790.1</ele>
        <time>2026-02-02T13:32:47Z</time>
      </trkpt>
      <trkpt lat="45.98449" lon="6.55713">
        <ele>1792.5</ele>
        <time>2026-02-02T13:32:48Z</time>
      </trkpt>
      <trkpt lat="45.98449" lon="6.55713">
        <ele>1792.5</ele>
        <time>2026-02-02T13:32:49Z</time>
      </trkpt>
      <trkpt lat="45.9845" lon="6.55714">
        <ele>1792.5</ele>
        <time>2026-02-02T13:32:50Z</time>
      </trkpt>
      <trkpt lat="45.9845" lon="6.55714">
        <ele>1792.5</ele>
        <time>2026-02-02T13:32:51Z</time>
      </trkpt>
      <trkpt lat="45.9845" lon="6.55715">
        <ele>1793.1</ele>
        <time>2026-02-02T13:32:52Z</time>
      </trkpt>
      <trkpt lat="45.98451" lon="6.55716">
        <ele>1793.1</ele>
        <time>2026-02-02T13:32:53Z</time>
      </trkpt>
      <trkpt lat="45.98451" lon="6.55716">
        <ele>1793.1</ele>
        <time>2026-02-02T13:32:54Z</time>
      </trkpt>
      <trkpt lat="45.98451" lon="6.55717">
        <ele>1795.4</ele>
        <time>2026-02-02T13:32:55Z</time>
      </trkpt>
      <trkpt lat="45.9845" lon="6.55717">
        <ele>1794.8</ele>
        <time>2026-02-02T13:32:56Z</time>
      </trkpt>
      <trkpt lat="45.98449" lon="6.55717">
        <ele>1794.8</ele>
        <time>2026-02-02T13:32:57Z</time>
      </trkpt>
      <trkpt lat="45.98448" lon="6.55718">
        <ele>1794.8</ele>
        <time>2026-02-02T13:32:58Z</time>
      </trkpt>
      <trkpt lat="45.98448" lon="6.55718">
        <ele>1794.8</ele>
        <time>2026-02-02T13:32:59Z</time>
      </trkpt>
      <trkpt lat="45.98447" lon="6.55718">
        <ele>1794.1</ele>
        <time>2026-02-02T13:33:00Z</time>
      </trkpt>
      <trkpt lat="45.98446" lon="6.55718">
        <ele>1794.1</ele>
        <time>2026-02-02T13:33:01Z</time>
      </trkpt>
      <trkpt lat="45.98445" lon="6.55718">
        <ele>1794.1</ele>
        <time>2026-02-02T13:33:02Z</time>
      </trkpt>
      <trkpt lat="45.98445" lon="6.55719">
        <ele>1794.1</ele>
        <time>2026-02-02T13:33:03Z</time>
      </trkpt>
      <trkpt lat="45.98444" lon="6.55719">
        <ele>1794.1</ele>
        <time>2026-02-02T13:33:04Z</time>
      </trkpt>
      <trkpt lat="45.98444" lon="6.5572">
        <ele>1793.4</ele>
        <time>2026-02-02T13:33:05Z</time>
      </trkpt>
      <trkpt lat="45.98443" lon="6.55721">
        <ele>1793.4</ele>
        <time>2026-02-02T13:33:06Z</time>
      </trkpt>
      <trkpt lat="45.98443" lon="6.55721">
        <ele>1795.7</ele>
        <time>2026-02-02T13:33:07Z</time>
      </trkpt>
      <trkpt lat="45.98443" lon="6.55721">
        <ele>1795.7</ele>
        <time>2026-02-02T13:33:08Z</time>
      </trkpt>
      <trkpt lat="45.98443" lon="6.55721">
        <ele>1793.4</ele>
        <time>2026-02-02T13:33:09Z</time>
      </trkpt>
      <trkpt lat="45.98443" lon="6.55721">
        <ele>1793.4</ele>
        <time>2026-02-02T13:33:10Z</time>
      </trkpt>
      <trkpt lat="45.98443" lon="6.55721">
        <ele>1793.4</ele>
        <time>2026-02-02T13:33:11Z</time>
      </trkpt>
      <trkpt lat="45.98443" lon="6.55721">
        <ele>1793.4</ele>
        <time>2026-02-02T13:33:12Z</time>
      </trkpt>
      <trkpt lat="45.98443" lon="6.55721">
        <ele>1795.7</ele>
        <time>2026-02-02T13:33:13Z</time>
      </trkpt>
      <trkpt lat="45.98443" lon="6.55721">
        <ele>1795.7</ele>
        <time>2026-02-02T13:33:14Z</time>
      </trkpt>
      <trkpt lat="45.98443" lon="6.55721">
        <ele>1795.7</ele>
        <time>2026-02-02T13:33:15Z</time>
      </trkpt>
      <trkpt lat="45.98443" lon="6.55721">
        <ele>1795.7</ele>
        <time>2026-02-02T13:33:16Z</time>
      </trkpt>
      <trkpt lat="45.98443" lon="6.55721">
        <ele>1795.7</ele>
        <time>2026-02-02T13:33:17Z</time>
      </trkpt>
      <trkpt lat="45.98443" lon="6.55721">
        <ele>1795.7</ele>
        <time>2026-02-02T13:33:18Z</time>
      </trkpt>
      <trkpt lat="45.98443" lon="6.55721">
        <ele>1795.7</ele>
        <time>2026-02-02T13:33:19Z</time>
      </trkpt>
      <trkpt lat="45.98443" lon="6.55721">
        <ele>1795.7</ele>
        <time>2026-02-02T13:33:20Z</time>
      </trkpt>
      <trkpt lat="45.98443" lon="6.55721">
        <ele>1795.7</ele>
        <time>2026-02-02T13:33:21Z</time>
      </trkpt>
      <trkpt lat="45.98443" lon="6.55721">
        <ele>1795.7</ele>
        <time>2026-02-02T13:33:22Z</time>
      </trkpt>
      <trkpt lat="45.98443" lon="6.55721">
        <ele>1795.7</ele>
        <time>2026-02-02T13:33:23Z</time>
      </trkpt>
      <trkpt lat="45.98443" lon="6.55721">
        <ele>1795.7</ele>
        <time>2026-02-02T13:33:24Z</time>
      </trkpt>
      <trkpt lat="45.98443" lon="6.55722">
        <ele>1795.7</ele>
        <time>2026-02-02T13:33:25Z</time>
      </trkpt>
      <trkpt lat="45.98443" lon="6.55722">
        <ele>1795.7</ele>
        <time>2026-02-02T13:33:26Z</time>
      </trkpt>
      <trkpt lat="45.98443" lon="6.55722">
        <ele>1795.7</ele>
        <time>2026-02-02T13:33:27Z</time>
      </trkpt>
      <trkpt lat="45.98443" lon="6.55722">
        <ele>1795.7</ele>
        <time>2026-02-02T13:33:28Z</time>
      </trkpt>
      <trkpt lat="45.98443" lon="6.55722">
        <ele>1795.7</ele>
        <time>2026-02-02T13:33:29Z</time>
      </trkpt>
      <trkpt lat="45.98443" lon="6.55721">
        <ele>1795.7</ele>
        <time>2026-02-02T13:33:30Z</time>
      </trkpt>
      <trkpt lat="45.98443" lon="6.55722">
        <ele>1795.7</ele>
        <time>2026-02-02T13:33:31Z</time>
      </trkpt>
      <trkpt lat="45.98443" lon="6.55722">
        <ele>1795.7</ele>
        <time>2026-02-02T13:33:32Z</time>
      </trkpt>
      <trkpt lat="45.98442" lon="6.55722">
        <ele>1795.7</ele>
        <time>2026-02-02T13:33:33Z</time>
      </trkpt>
      <trkpt lat="45.98442" lon="6.55722">
        <ele>1795.7</ele>
        <time>2026-02-02T13:33:34Z</time>
      </trkpt>
      <trkpt lat="45.98441" lon="6.55723">
        <ele>1795</ele>
        <time>2026-02-02T13:33:35Z</time>
      </trkpt>
      <trkpt lat="45.9844" lon="6.55723">
        <ele>1795</ele>
        <time>2026-02-02T13:33:36Z</time>
      </trkpt>
      <trkpt lat="45.98439" lon="6.55724">
        <ele>1795</ele>
        <time>2026-02-02T13:33:37Z</time>
      </trkpt>
      <trkpt lat="45.98438" lon="6.55725">
        <ele>1794.4</ele>
        <time>2026-02-02T13:33:38Z</time>
      </trkpt>
      <trkpt lat="45.98437" lon="6.55725">
        <ele>1794.4</ele>
        <time>2026-02-02T13:33:39Z</time>
      </trkpt>
      <trkpt lat="45.98437" lon="6.55725">
        <ele>1796.7</ele>
        <time>2026-02-02T13:33:40Z</time>
      </trkpt>
      <trkpt lat="45.98436" lon="6.55725">
        <ele>1796.7</ele>
        <time>2026-02-02T13:33:41Z</time>
      </trkpt>
      <trkpt lat="45.98436" lon="6.55726">
        <ele>1796.7</ele>
        <time>2026-02-02T13:33:42Z</time>
      </trkpt>
      <trkpt lat="45.98435" lon="6.55726">
        <ele>1796.2</ele>
        <time>2026-02-02T13:33:43Z</time>
      </trkpt>
      <trkpt lat="45.98435" lon="6.55726">
        <ele>1796.2</ele>
        <time>2026-02-02T13:33:44Z</time>
      </trkpt>
      <trkpt lat="45.98434" lon="6.55726">
        <ele>1796.2</ele>
        <time>2026-02-02T13:33:45Z</time>
      </trkpt>
      <trkpt lat="45.98434" lon="6.55727">
        <ele>1796.2</ele>
        <time>2026-02-02T13:33:46Z</time>
      </trkpt>
      <trkpt lat="45.98433" lon="6.55727">
        <ele>1796.2</ele>
        <time>2026-02-02T13:33:47Z</time>
      </trkpt>
      <trkpt lat="45.98433" lon="6.55728">
        <ele>1796.2</ele>
        <time>2026-02-02T13:33:48Z</time>
      </trkpt>
      <trkpt lat="45.98432" lon="6.55728">
        <ele>1795.7</ele>
        <time>2026-02-02T13:33:49Z</time>
      </trkpt>
      <trkpt lat="45.98431" lon="6.55729">
        <ele>1795.7</ele>
        <time>2026-02-02T13:33:50Z</time>
      </trkpt>
      <trkpt lat="45.98431" lon="6.5573">
        <ele>1798</ele>
        <time>2026-02-02T13:33:51Z</time>
      </trkpt>
      <trkpt lat="45.9843" lon="6.55731">
        <ele>1798</ele>
        <time>2026-02-02T13:33:52Z</time>
      </trkpt>
      <trkpt lat="45.9843" lon="6.55732">
        <ele>1798</ele>
        <time>2026-02-02T13:33:53Z</time>
      </trkpt>
      <trkpt lat="45.98429" lon="6.55732">
        <ele>1798</ele>
        <time>2026-02-02T13:33:54Z</time>
      </trkpt>
      <trkpt lat="45.98429" lon="6.55733">
        <ele>1797.5</ele>
        <time>2026-02-02T13:33:55Z</time>
      </trkpt>
      <trkpt lat="45.98428" lon="6.55734">
        <ele>1799.8</ele>
        <time>2026-02-02T13:33:56Z</time>
      </trkpt>
      <trkpt lat="45.98428" lon="6.55734">
        <ele>1799.8</ele>
        <time>2026-02-02T13:33:57Z</time>
      </trkpt>
      <trkpt lat="45.98428" lon="6.55733">
        <ele>1797.5</ele>
        <time>2026-02-02T13:33:58Z</time>
      </trkpt>
      <trkpt lat="45.98429" lon="6.55733">
        <ele>1797.5</ele>
        <time>2026-02-02T13:33:59Z</time>
      </trkpt>
      <trkpt lat="45.98429" lon="6.55733">
        <ele>1797.5</ele>
        <time>2026-02-02T13:34:00Z</time>
      </trkpt>
      <trkpt lat="45.98429" lon="6.55733">
        <ele>1797.5</ele>
        <time>2026-02-02T13:34:01Z</time>
      </trkpt>
      <trkpt lat="45.98429" lon="6.55733">
        <ele>1797.5</ele>
        <time>2026-02-02T13:34:02Z</time>
      </trkpt>
      <trkpt lat="45.98429" lon="6.55733">
        <ele>1797.5</ele>
        <time>2026-02-02T13:34:04Z</time>
      </trkpt>
      <trkpt lat="45.98429" lon="6.55734">
        <ele>1797.5</ele>
        <time>2026-02-02T13:34:05Z</time>
      </trkpt>
      <trkpt lat="45.98429" lon="6.55734">
        <ele>1797.5</ele>
        <time>2026-02-02T13:34:06Z</time>
      </trkpt>
      <trkpt lat="45.98429" lon="6.55734">
        <ele>1797.5</ele>
        <time>2026-02-02T13:34:07Z</time>
      </trkpt>
      <trkpt lat="45.98429" lon="6.55734">
        <ele>1797.5</ele>
        <time>2026-02-02T13:34:08Z</time>
      </trkpt>
      <trkpt lat="45.98429" lon="6.55734">
        <ele>1797.5</ele>
        <time>2026-02-02T13:34:09Z</time>
      </trkpt>
      <trkpt lat="45.98429" lon="6.55733">
        <ele>1797.5</ele>
        <time>2026-02-02T13:34:10Z</time>
      </trkpt>
      <trkpt lat="45.98429" lon="6.55733">
        <ele>1797.5</ele>
        <time>2026-02-02T13:34:11Z</time>
      </trkpt>
      <trkpt lat="45.98429" lon="6.55734">
        <ele>1799.8</ele>
        <time>2026-02-02T13:34:12Z</time>
      </trkpt>
      <trkpt lat="45.98429" lon="6.55734">
        <ele>1799.8</ele>
        <time>2026-02-02T13:34:13Z</time>
      </trkpt>
      <trkpt lat="45.98429" lon="6.55734">
        <ele>1799.8</ele>
        <time>2026-02-02T13:34:14Z</time>
      </trkpt>
      <trkpt lat="45.98429" lon="6.55734">
        <ele>1799.8</ele>
        <time>2026-02-02T13:34:15Z</time>
      </trkpt>
      <trkpt lat="45.98429" lon="6.55734">
        <ele>1800.3</ele>
        <time>2026-02-02T13:34:16Z</time>
      </trkpt>
      <trkpt lat="45.98429" lon="6.55734">
        <ele>1800.3</ele>
        <time>2026-02-02T13:34:17Z</time>
      </trkpt>
      <trkpt lat="45.9843" lon="6.55734">
        <ele>1800.3</ele>
        <time>2026-02-02T13:34:18Z</time>
      </trkpt>
      <trkpt lat="45.98431" lon="6.55734">
        <ele>1800.3</ele>
        <time>2026-02-02T13:34:19Z</time>
      </trkpt>
      <trkpt lat="45.98431" lon="6.55735">
        <ele>1800.3</ele>
        <time>2026-02-02T13:34:20Z</time>
      </trkpt>
      <trkpt lat="45.98432" lon="6.55736">
        <ele>1800.3</ele>
        <time>2026-02-02T13:34:21Z</time>
      </trkpt>
      <trkpt lat="45.98432" lon="6.55736">
        <ele>1800.9</ele>
        <time>2026-02-02T13:34:22Z</time>
      </trkpt>
      <trkpt lat="45.98434" lon="6.55737">
        <ele>1800.9</ele>
        <time>2026-02-02T13:34:23Z</time>
      </trkpt>
      <trkpt lat="45.98435" lon="6.55737">
        <ele>1800.9</ele>
        <time>2026-02-02T13:34:24Z</time>
      </trkpt>
      <trkpt lat="45.98436" lon="6.55738">
        <ele>1801.4</ele>
        <time>2026-02-02T13:34:25Z</time>
      </trkpt>
      <trkpt lat="45.98436" lon="6.55738">
        <ele>1803.8</ele>
        <time>2026-02-02T13:34:26Z</time>
      </trkpt>
      <trkpt lat="45.98438" lon="6.55739">
        <ele>1804.4</ele>
        <time>2026-02-02T13:34:27Z</time>
      </trkpt>
      <trkpt lat="45.98439" lon="6.55739">
        <ele>1804.4</ele>
        <time>2026-02-02T13:34:28Z</time>
      </trkpt>
      <trkpt lat="45.98441" lon="6.5574">
        <ele>1804.4</ele>
        <time>2026-02-02T13:34:29Z</time>
      </trkpt>
      <trkpt lat="45.98441" lon="6.5574">
        <ele>1805.1</ele>
        <time>2026-02-02T13:34:30Z</time>
      </trkpt>
      <trkpt lat="45.98442" lon="6.5574">
        <ele>1805.1</ele>
        <time>2026-02-02T13:34:31Z</time>
      </trkpt>
      <trkpt lat="45.98443" lon="6.5574">
        <ele>1805.1</ele>
        <time>2026-02-02T13:34:32Z</time>
      </trkpt>
      <trkpt lat="45.98444" lon="6.55741">
        <ele>1805.1</ele>
        <time>2026-02-02T13:34:33Z</time>
      </trkpt>
      <trkpt lat="45.98444" lon="6.55742">
        <ele>1805.8</ele>
        <time>2026-02-02T13:34:34Z</time>
      </trkpt>
      <trkpt lat="45.98445" lon="6.55742">
        <ele>1805.8</ele>
        <time>2026-02-02T13:34:35Z</time>
      </trkpt>
      <trkpt lat="45.98445" lon="6.55742">
        <ele>1805.8</ele>
        <time>2026-02-02T13:34:36Z</time>
      </trkpt>
      <trkpt lat="45.98446" lon="6.55742">
        <ele>1808.2</ele>
        <time>2026-02-02T13:34:37Z</time>
      </trkpt>
      <trkpt lat="45.98446" lon="6.55742">
        <ele>1805.8</ele>
        <time>2026-02-02T13:34:38Z</time>
      </trkpt>
      <trkpt lat="45.98446" lon="6.55742">
        <ele>1805.8</ele>
        <time>2026-02-02T13:34:39Z</time>
      </trkpt>
      <trkpt lat="45.98446" lon="6.55742">
        <ele>1805.8</ele>
        <time>2026-02-02T13:34:40Z</time>
      </trkpt>
      <trkpt lat="45.98446" lon="6.55742">
        <ele>1805.8</ele>
        <time>2026-02-02T13:34:41Z</time>
      </trkpt>
      <trkpt lat="45.98446" lon="6.55742">
        <ele>1805.8</ele>
        <time>2026-02-02T13:34:42Z</time>
      </trkpt>
      <trkpt lat="45.98446" lon="6.55742">
        <ele>1805.8</ele>
        <time>2026-02-02T13:34:43Z</time>
      </trkpt>
      <trkpt lat="45.98446" lon="6.55742">
        <ele>1805.8</ele>
        <time>2026-02-02T13:34:44Z</time>
      </trkpt>
      <trkpt lat="45.98446" lon="6.55742">
        <ele>1805.8</ele>
        <time>2026-02-02T13:34:45Z</time>
      </trkpt>
      <trkpt lat="45.98446" lon="6.55742">
        <ele>1805.8</ele>
        <time>2026-02-02T13:34:46Z</time>
      </trkpt>
      <trkpt lat="45.98446" lon="6.55742">
        <ele>1805.8</ele>
        <time>2026-02-02T13:34:47Z</time>
      </trkpt>
      <trkpt lat="45.98446" lon="6.55742">
        <ele>1805.8</ele>
        <time>2026-02-02T13:34:48Z</time>
      </trkpt>
      <trkpt lat="45.98446" lon="6.55742">
        <ele>1805.8</ele>
        <time>2026-02-02T13:34:49Z</time>
      </trkpt>
      <trkpt lat="45.98446" lon="6.55742">
        <ele>1805.8</ele>
        <time>2026-02-02T13:34:50Z</time>
      </trkpt>
      <trkpt lat="45.98446" lon="6.55742">
        <ele>1805.8</ele>
        <time>2026-02-02T13:34:51Z</time>
      </trkpt>
      <trkpt lat="45.98447" lon="6.55742">
        <ele>1808.9</ele>
        <time>2026-02-02T13:34:52Z</time>
      </trkpt>
      <trkpt lat="45.98448" lon="6.55742">
        <ele>1808.9</ele>
        <time>2026-02-02T13:34:53Z</time>
      </trkpt>
      <trkpt lat="45.98449" lon="6.55743">
        <ele>1808.9</ele>
        <time>2026-02-02T13:34:54Z</time>
      </trkpt>
      <trkpt lat="45.9845" lon="6.55743">
        <ele>1808.9</ele>
        <time>2026-02-02T13:34:55Z</time>
      </trkpt>
      <trkpt lat="45.9845" lon="6.55743">
        <ele>1809.5</ele>
        <time>2026-02-02T13:34:56Z</time>
      </trkpt>
      <trkpt lat="45.98451" lon="6.55744">
        <ele>1809.5</ele>
        <time>2026-02-02T13:34:57Z</time>
      </trkpt>
      <trkpt lat="45.98451" lon="6.55744">
        <ele>1809.5</ele>
        <time>2026-02-02T13:34:58Z</time>
      </trkpt>
      <trkpt lat="45.98452" lon="6.55745">
        <ele>1809.5</ele>
        <time>2026-02-02T13:34:59Z</time>
      </trkpt>
      <trkpt lat="45.98452" lon="6.55745">
        <ele>1809.5</ele>
        <time>2026-02-02T13:35:00Z</time>
      </trkpt>
      <trkpt lat="45.98453" lon="6.55746">
        <ele>1809.5</ele>
        <time>2026-02-02T13:35:01Z</time>
      </trkpt>
      <trkpt lat="45.98453" lon="6.55746">
        <ele>1809.5</ele>
        <time>2026-02-02T13:35:02Z</time>
      </trkpt>
      <trkpt lat="45.98452" lon="6.55746">
        <ele>1809.5</ele>
        <time>2026-02-02T13:35:03Z</time>
      </trkpt>
      <trkpt lat="45.98452" lon="6.55746">
        <ele>1809.5</ele>
        <time>2026-02-02T13:35:04Z</time>
      </trkpt>
      <trkpt lat="45.98452" lon="6.55746">
        <ele>1809.5</ele>
        <time>2026-02-02T13:35:05Z</time>
      </trkpt>
      <trkpt lat="45.98452" lon="6.55746">
        <ele>1809.5</ele>
        <time>2026-02-02T13:35:06Z</time>
      </trkpt>
      <trkpt lat="45.98452" lon="6.55745">
        <ele>1809.5</ele>
        <time>2026-02-02T13:35:07Z</time>
      </trkpt>
      <trkpt lat="45.98452" lon="6.55745">
        <ele>1809.5</ele>
        <time>2026-02-02T13:35:08Z</time>
      </trkpt>
      <trkpt lat="45.98452" lon="6.55746">
        <ele>1809.5</ele>
        <time>2026-02-02T13:35:09Z</time>
      </trkpt>
      <trkpt lat="45.98451" lon="6.55746">
        <ele>1809.5</ele>
        <time>2026-02-02T13:35:10Z</time>
      </trkpt>
      <trkpt lat="45.9845" lon="6.55746">
        <ele>1809.5</ele>
        <time>2026-02-02T13:35:11Z</time>
      </trkpt>
      <trkpt lat="45.9845" lon="6.55746">
        <ele>1809.5</ele>
        <time>2026-02-02T13:35:12Z</time>
      </trkpt>
      <trkpt lat="45.98449" lon="6.55746">
        <ele>1808.9</ele>
        <time>2026-02-02T13:35:13Z</time>
      </trkpt>
      <trkpt lat="45.98448" lon="6.55747">
        <ele>1811.3</ele>
        <time>2026-02-02T13:35:14Z</time>
      </trkpt>
      <trkpt lat="45.98448" lon="6.55747">
        <ele>1811.3</ele>
        <time>2026-02-02T13:35:15Z</time>
      </trkpt>
      <trkpt lat="45.98447" lon="6.55746">
        <ele>1808.9</ele>
        <time>2026-02-02T13:35:16Z</time>
      </trkpt>
      <trkpt lat="45.98446" lon="6.55746">
        <ele>1808.2</ele>
        <time>2026-02-02T13:35:17Z</time>
      </trkpt>
      <trkpt lat="45.98446" lon="6.55746">
        <ele>1808.2</ele>
        <time>2026-02-02T13:35:18Z</time>
      </trkpt>
      <trkpt lat="45.98446" lon="6.55746">
        <ele>1808.2</ele>
        <time>2026-02-02T13:35:19Z</time>
      </trkpt>
      <trkpt lat="45.98446" lon="6.55746">
        <ele>1808.2</ele>
        <time>2026-02-02T13:35:20Z</time>
      </trkpt>
      <trkpt lat="45.98446" lon="6.55746">
        <ele>1808.2</ele>
        <time>2026-02-02T13:35:21Z</time>
      </trkpt>
      <trkpt lat="45.98446" lon="6.55746">
        <ele>1808.2</ele>
        <time>2026-02-02T13:35:22Z</time>
      </trkpt>
      <trkpt lat="45.98446" lon="6.55745">
        <ele>1808.2</ele>
        <time>2026-02-02T13:35:23Z</time>
      </trkpt>
      <trkpt lat="45.98446" lon="6.55745">
        <ele>1808.2</ele>
        <time>2026-02-02T13:35:24Z</time>
      </trkpt>
      <trkpt lat="45.98446" lon="6.55745">
        <ele>1808.2</ele>
        <time>2026-02-02T13:35:25Z</time>
      </trkpt>
      <trkpt lat="45.98446" lon="6.55745">
        <ele>1808.2</ele>
        <time>2026-02-02T13:35:26Z</time>
      </trkpt>
      <trkpt lat="45.98446" lon="6.55745">
        <ele>1808.2</ele>
        <time>2026-02-02T13:35:27Z</time>
      </trkpt>
      <trkpt lat="45.98446" lon="6.55745">
        <ele>1808.2</ele>
        <time>2026-02-02T13:35:28Z</time>
      </trkpt>
      <trkpt lat="45.98446" lon="6.55745">
        <ele>1808.2</ele>
        <time>2026-02-02T13:35:29Z</time>
      </trkpt>
      <trkpt lat="45.98446" lon="6.55745">
        <ele>1808.2</ele>
        <time>2026-02-02T13:35:30Z</time>
      </trkpt>
      <trkpt lat="45.98446" lon="6.55745">
        <ele>1808.2</ele>
        <time>2026-02-02T13:35:31Z</time>
      </trkpt>
      <trkpt lat="45.98446" lon="6.55745">
        <ele>1808.2</ele>
        <time>2026-02-02T13:35:32Z</time>
      </trkpt>
      <trkpt lat="45.98446" lon="6.55745">
        <ele>1808.2</ele>
        <time>2026-02-02T13:35:33Z</time>
      </trkpt>
      <trkpt lat="45.98446" lon="6.55745">
        <ele>1808.2</ele>
        <time>2026-02-02T13:35:34Z</time>
      </trkpt>
      <trkpt lat="45.98446" lon="6.55745">
        <ele>1808.2</ele>
        <time>2026-02-02T13:35:35Z</time>
      </trkpt>
      <trkpt lat="45.98446" lon="6.55745">
        <ele>1808.2</ele>
        <time>2026-02-02T13:35:36Z</time>
      </trkpt>
      <trkpt lat="45.98446" lon="6.55745">
        <ele>1808.2</ele>
        <time>2026-02-02T13:35:37Z</time>
      </trkpt>
      <trkpt lat="45.98446" lon="6.55745">
        <ele>1808.2</ele>
        <time>2026-02-02T13:35:38Z</time>
      </trkpt>
      <trkpt lat="45.98446" lon="6.55745">
        <ele>1808.2</ele>
        <time>2026-02-02T13:35:39Z</time>
      </trkpt>
      <trkpt lat="45.98446" lon="6.55745">
        <ele>1808.2</ele>
        <time>2026-02-02T13:35:40Z</time>
      </trkpt>
      <trkpt lat="45.98446" lon="6.55745">
        <ele>1808.2</ele>
        <time>2026-02-02T13:35:41Z</time>
      </trkpt>
      <trkpt lat="45.98446" lon="6.55745">
        <ele>1808.2</ele>
        <time>2026-02-02T13:35:42Z</time>
      </trkpt>
      <trkpt lat="45.98446" lon="6.55745">
        <ele>1808.2</ele>
        <time>2026-02-02T13:35:43Z</time>
      </trkpt>
      <trkpt lat="45.98446" lon="6.55745">
        <ele>1808.2</ele>
        <time>2026-02-02T13:35:44Z</time>
      </trkpt>
      <trkpt lat="45.98446" lon="6.55745">
        <ele>1808.2</ele>
        <time>2026-02-02T13:35:45Z</time>
      </trkpt>
      <trkpt lat="45.98446" lon="6.55745">
        <ele>1808.2</ele>
        <time>2026-02-02T13:35:46Z</time>
      </trkpt>
      <trkpt lat="45.98446" lon="6.55746">
        <ele>1808.2</ele>
        <time>2026-02-02T13:35:47Z</time>
      </trkpt>
      <trkpt lat="45.98446" lon="6.55747">
        <ele>1810.6</ele>
        <time>2026-02-02T13:35:48Z</time>
      </trkpt>
      <trkpt lat="45.98445" lon="6.55747">
        <ele>1810.6</ele>
        <time>2026-02-02T13:35:49Z</time>
      </trkpt>
      <trkpt lat="45.98444" lon="6.55748">
        <ele>1810.6</ele>
        <time>2026-02-02T13:35:50Z</time>
      </trkpt>
      <trkpt lat="45.98444" lon="6.55749">
        <ele>1810.6</ele>
        <time>2026-02-02T13:35:51Z</time>
      </trkpt>
      <trkpt lat="45.98443" lon="6.55749">
        <ele>1809.9</ele>
        <time>2026-02-02T13:35:52Z</time>
      </trkpt>
      <trkpt lat="45.98443" lon="6.5575">
        <ele>1809.9</ele>
        <time>2026-02-02T13:35:53Z</time>
      </trkpt>
      <trkpt lat="45.98441" lon="6.5575">
        <ele>1809.9</ele>
        <time>2026-02-02T13:35:54Z</time>
      </trkpt>
      <trkpt lat="45.9844" lon="6.5575">
        <ele>1809.2</ele>
        <time>2026-02-02T13:35:55Z</time>
      </trkpt>
      <trkpt lat="45.9844" lon="6.5575">
        <ele>1809.2</ele>
        <time>2026-02-02T13:35:56Z</time>
      </trkpt>
      <trkpt lat="45.98439" lon="6.5575">
        <ele>1809.2</ele>
        <time>2026-02-02T13:35:57Z</time>
      </trkpt>
      <trkpt lat="45.98438" lon="6.55751">
        <ele>1809.2</ele>
        <time>2026-02-02T13:35:58Z</time>
      </trkpt>
      <trkpt lat="45.98437" lon="6.55751">
        <ele>1810.9</ele>
        <time>2026-02-02T13:35:59Z</time>
      </trkpt>
      <trkpt lat="45.98437" lon="6.55752">
        <ele>1810.9</ele>
        <time>2026-02-02T13:36:00Z</time>
      </trkpt>
      <trkpt lat="45.98437" lon="6.55753">
        <ele>1810.9</ele>
        <time>2026-02-02T13:36:01Z</time>
      </trkpt>
      <trkpt lat="45.98437" lon="6.55754">
        <ele>1810.9</ele>
        <time>2026-02-02T13:36:02Z</time>
      </trkpt>
      <trkpt lat="45.98436" lon="6.55755">
        <ele>1813</ele>
        <time>2026-02-02T13:36:03Z</time>
      </trkpt>
      <trkpt lat="45.98436" lon="6.55756">
        <ele>1813</ele>
        <time>2026-02-02T13:36:04Z</time>
      </trkpt>
      <trkpt lat="45.98435" lon="6.55757">
        <ele>1813</ele>
        <time>2026-02-02T13:36:05Z</time>
      </trkpt>
      <trkpt lat="45.98435" lon="6.55758">
        <ele>1812.4</ele>
        <time>2026-02-02T13:36:06Z</time>
      </trkpt>
      <trkpt lat="45.98435" lon="6.55759">
        <ele>1812.4</ele>
        <time>2026-02-02T13:36:07Z</time>
      </trkpt>
      <trkpt lat="45.98434" lon="6.5576">
        <ele>1814.3</ele>
        <time>2026-02-02T13:36:08Z</time>
      </trkpt>
      <trkpt lat="45.98434" lon="6.5576">
        <ele>1814.3</ele>
        <time>2026-02-02T13:36:09Z</time>
      </trkpt>
      <trkpt lat="45.98434" lon="6.55761">
        <ele>1814.3</ele>
        <time>2026-02-02T13:36:10Z</time>
      </trkpt>
      <trkpt lat="45.98433" lon="6.55761">
        <ele>1814.3</ele>
        <time>2026-02-02T13:36:11Z</time>
      </trkpt>
      <trkpt lat="45.98433" lon="6.55761">
        <ele>1814.3</ele>
        <time>2026-02-02T13:36:12Z</time>
      </trkpt>
      <trkpt lat="45.98433" lon="6.55761">
        <ele>1814.3</ele>
        <time>2026-02-02T13:36:13Z</time>
      </trkpt>
      <trkpt lat="45.98433" lon="6.55761">
        <ele>1814.3</ele>
        <time>2026-02-02T13:36:14Z</time>
      </trkpt>
      <trkpt lat="45.98433" lon="6.55761">
        <ele>1814.3</ele>
        <time>2026-02-02T13:36:15Z</time>
      </trkpt>
      <trkpt lat="45.98432" lon="6.55763">
        <ele>1814.3</ele>
        <time>2026-02-02T13:36:16Z</time>
      </trkpt>
      <trkpt lat="45.98432" lon="6.55764">
        <ele>1815.5</ele>
        <time>2026-02-02T13:36:17Z</time>
      </trkpt>
      <trkpt lat="45.98431" lon="6.55765">
        <ele>1815.5</ele>
        <time>2026-02-02T13:36:18Z</time>
      </trkpt>
      <trkpt lat="45.98431" lon="6.55766">
        <ele>1815.5</ele>
        <time>2026-02-02T13:36:19Z</time>
      </trkpt>
      <trkpt lat="45.98432" lon="6.55767">
        <ele>1815.5</ele>
        <time>2026-02-02T13:36:20Z</time>
      </trkpt>
      <trkpt lat="45.98432" lon="6.55767">
        <ele>1816.2</ele>
        <time>2026-02-02T13:36:21Z</time>
      </trkpt>
      <trkpt lat="45.98433" lon="6.55767">
        <ele>1816.2</ele>
        <time>2026-02-02T13:36:22Z</time>
      </trkpt>
      <trkpt lat="45.98433" lon="6.55767">
        <ele>1816.2</ele>
        <time>2026-02-02T13:36:23Z</time>
      </trkpt>
      <trkpt lat="45.98433" lon="6.55767">
        <ele>1816.2</ele>
        <time>2026-02-02T13:36:24Z</time>
      </trkpt>
      <trkpt lat="45.98433" lon="6.55767">
        <ele>1816.2</ele>
        <time>2026-02-02T13:36:25Z</time>
      </trkpt>
      <trkpt lat="45.98433" lon="6.55767">
        <ele>1816.2</ele>
        <time>2026-02-02T13:36:26Z</time>
      </trkpt>
      <trkpt lat="45.98433" lon="6.55767">
        <ele>1816.2</ele>
        <time>2026-02-02T13:36:27Z</time>
      </trkpt>
      <trkpt lat="45.98433" lon="6.55767">
        <ele>1816.2</ele>
        <time>2026-02-02T13:36:28Z</time>
      </trkpt>
      <trkpt lat="45.98433" lon="6.55767">
        <ele>1816.2</ele>
        <time>2026-02-02T13:36:29Z</time>
      </trkpt>
      <trkpt lat="45.98433" lon="6.55767">
        <ele>1816.2</ele>
        <time>2026-02-02T13:36:30Z</time>
      </trkpt>
      <trkpt lat="45.98433" lon="6.55767">
        <ele>1816.2</ele>
        <time>2026-02-02T13:36:31Z</time>
      </trkpt>
      <trkpt lat="45.98433" lon="6.55767">
        <ele>1816.2</ele>
        <time>2026-02-02T13:36:32Z</time>
      </trkpt>
      <trkpt lat="45.98433" lon="6.55767">
        <ele>1816.2</ele>
        <time>2026-02-02T13:36:33Z</time>
      </trkpt>
      <trkpt lat="45.98433" lon="6.55767">
        <ele>1816.2</ele>
        <time>2026-02-02T13:36:34Z</time>
      </trkpt>
      <trkpt lat="45.98433" lon="6.55767">
        <ele>1816.2</ele>
        <time>2026-02-02T13:36:35Z</time>
      </trkpt>
      <trkpt lat="45.98433" lon="6.55767">
        <ele>1816.2</ele>
        <time>2026-02-02T13:36:36Z</time>
      </trkpt>
      <trkpt lat="45.98433" lon="6.55767">
        <ele>1816.2</ele>
        <time>2026-02-02T13:36:37Z</time>
      </trkpt>
      <trkpt lat="45.98433" lon="6.55767">
        <ele>1816.2</ele>
        <time>2026-02-02T13:36:38Z</time>
      </trkpt>
      <trkpt lat="45.98433" lon="6.55767">
        <ele>1816.2</ele>
        <time>2026-02-02T13:36:39Z</time>
      </trkpt>
      <trkpt lat="45.98433" lon="6.55767">
        <ele>1816.2</ele>
        <time>2026-02-02T13:36:40Z</time>
      </trkpt>
      <trkpt lat="45.98433" lon="6.55767">
        <ele>1816.2</ele>
        <time>2026-02-02T13:36:41Z</time>
      </trkpt>
      <trkpt lat="45.98433" lon="6.55767">
        <ele>1816.2</ele>
        <time>2026-02-02T13:36:42Z</time>
      </trkpt>
      <trkpt lat="45.98433" lon="6.55767">
        <ele>1816.2</ele>
        <time>2026-02-02T13:36:43Z</time>
      </trkpt>
      <trkpt lat="45.98434" lon="6.55767">
        <ele>1816.2</ele>
        <time>2026-02-02T13:36:44Z</time>
      </trkpt>
      <trkpt lat="45.98435" lon="6.55767">
        <ele>1816.2</ele>
        <time>2026-02-02T13:36:45Z</time>
      </trkpt>
      <trkpt lat="45.98435" lon="6.55767">
        <ele>1816.9</ele>
        <time>2026-02-02T13:36:46Z</time>
      </trkpt>
      <trkpt lat="45.98436" lon="6.55767">
        <ele>1816.9</ele>
        <time>2026-02-02T13:36:47Z</time>
      </trkpt>
      <trkpt lat="45.98437" lon="6.55767">
        <ele>1816.9</ele>
        <time>2026-02-02T13:36:48Z</time>
      </trkpt>
      <trkpt lat="45.98438" lon="6.55767">
        <ele>1816.9</ele>
        <time>2026-02-02T13:36:49Z</time>
      </trkpt>
      <trkpt lat="45.98439" lon="6.55767">
        <ele>1817.6</ele>
        <time>2026-02-02T13:36:50Z</time>
      </trkpt>
      <trkpt lat="45.9844" lon="6.55768">
        <ele>1817.6</ele>
        <time>2026-02-02T13:36:51Z</time>
      </trkpt>
      <trkpt lat="45.98442" lon="6.55768">
        <ele>1818.4</ele>
        <time>2026-02-02T13:36:52Z</time>
      </trkpt>
      <trkpt lat="45.98443" lon="6.55767">
        <ele>1818.4</ele>
        <time>2026-02-02T13:36:53Z</time>
      </trkpt>
      <trkpt lat="45.98443" lon="6.55767">
        <ele>1818.4</ele>
        <time>2026-02-02T13:36:54Z</time>
      </trkpt>
      <trkpt lat="45.98443" lon="6.55767">
        <ele>1818.4</ele>
        <time>2026-02-02T13:36:55Z</time>
      </trkpt>
      <trkpt lat="45.98444" lon="6.55767">
        <ele>1818.4</ele>
        <time>2026-02-02T13:36:56Z</time>
      </trkpt>
      <trkpt lat="45.98444" lon="6.55767">
        <ele>1819.1</ele>
        <time>2026-02-02T13:36:57Z</time>
      </trkpt>
      <trkpt lat="45.98445" lon="6.55767">
        <ele>1819.1</ele>
        <time>2026-02-02T13:36:58Z</time>
      </trkpt>
      <trkpt lat="45.98445" lon="6.55767">
        <ele>1819.1</ele>
        <time>2026-02-02T13:36:59Z</time>
      </trkpt>
      <trkpt lat="45.98446" lon="6.55767">
        <ele>1819.1</ele>
        <time>2026-02-02T13:37:00Z</time>
      </trkpt>
      <trkpt lat="45.98446" lon="6.55768">
        <ele>1819.1</ele>
        <time>2026-02-02T13:37:01Z</time>
      </trkpt>
      <trkpt lat="45.98446" lon="6.55768">
        <ele>1819.1</ele>
        <time>2026-02-02T13:37:02Z</time>
      </trkpt>
      <trkpt lat="45.98446" lon="6.55768">
        <ele>1821.1</ele>
        <time>2026-02-02T13:37:03Z</time>
      </trkpt>
      <trkpt lat="45.98445" lon="6.55769">
        <ele>1821.1</ele>
        <time>2026-02-02T13:37:04Z</time>
      </trkpt>
      <trkpt lat="45.98444" lon="6.5577">
        <ele>1821.1</ele>
        <time>2026-02-02T13:37:05Z</time>
      </trkpt>
      <trkpt lat="45.98443" lon="6.5577">
        <ele>1820.3</ele>
        <time>2026-02-02T13:37:06Z</time>
      </trkpt>
      <trkpt lat="45.98442" lon="6.5577">
        <ele>1820.3</ele>
        <time>2026-02-02T13:37:07Z</time>
      </trkpt>
      <trkpt lat="45.98441" lon="6.5577">
        <ele>1820.3</ele>
        <time>2026-02-02T13:37:08Z</time>
      </trkpt>
      <trkpt lat="45.9844" lon="6.5577">
        <ele>1819.5</ele>
        <time>2026-02-02T13:37:09Z</time>
      </trkpt>
      <trkpt lat="45.98439" lon="6.5577">
        <ele>1819.5</ele>
        <time>2026-02-02T13:37:10Z</time>
      </trkpt>
      <trkpt lat="45.98439" lon="6.55771">
        <ele>1819.5</ele>
        <time>2026-02-02T13:37:11Z</time>
      </trkpt>
      <trkpt lat="45.98438" lon="6.55771">
        <ele>1819.5</ele>
        <time>2026-02-02T13:37:12Z</time>
      </trkpt>
      <trkpt lat="45.98438" lon="6.55772">
        <ele>1818.7</ele>
        <time>2026-02-02T13:37:13Z</time>
      </trkpt>
      <trkpt lat="45.98438" lon="6.55771">
        <ele>1818.7</ele>
        <time>2026-02-02T13:37:14Z</time>
      </trkpt>
      <trkpt lat="45.98438" lon="6.55771">
        <ele>1818.7</ele>
        <time>2026-02-02T13:37:15Z</time>
      </trkpt>
      <trkpt lat="45.98438" lon="6.55771">
        <ele>1819.5</ele>
        <time>2026-02-02T13:37:16Z</time>
      </trkpt>
      <trkpt lat="45.98438" lon="6.55771">
        <ele>1819.5</ele>
        <time>2026-02-02T13:37:17Z</time>
      </trkpt>
      <trkpt lat="45.98438" lon="6.55771">
        <ele>1819.5</ele>
        <time>2026-02-02T13:37:18Z</time>
      </trkpt>
      <trkpt lat="45.98438" lon="6.55771">
        <ele>1819.5</ele>
        <time>2026-02-02T13:37:19Z</time>
      </trkpt>
      <trkpt lat="45.98438" lon="6.55771">
        <ele>1819.5</ele>
        <time>2026-02-02T13:37:20Z</time>
      </trkpt>
      <trkpt lat="45.98438" lon="6.55771">
        <ele>1819.5</ele>
        <time>2026-02-02T13:37:21Z</time>
      </trkpt>
      <trkpt lat="45.98438" lon="6.55771">
        <ele>1819.5</ele>
        <time>2026-02-02T13:37:22Z</time>
      </trkpt>
      <trkpt lat="45.98438" lon="6.55771">
        <ele>1819.5</ele>
        <time>2026-02-02T13:37:23Z</time>
      </trkpt>
      <trkpt lat="45.98438" lon="6.55771">
        <ele>1819.5</ele>
        <time>2026-02-02T13:37:24Z</time>
      </trkpt>
      <trkpt lat="45.98438" lon="6.55771">
        <ele>1819.5</ele>
        <time>2026-02-02T13:37:25Z</time>
      </trkpt>
      <trkpt lat="45.98438" lon="6.55771">
        <ele>1819.5</ele>
        <time>2026-02-02T13:37:26Z</time>
      </trkpt>
      <trkpt lat="45.98438" lon="6.55771">
        <ele>1819.5</ele>
        <time>2026-02-02T13:37:27Z</time>
      </trkpt>
      <trkpt lat="45.98438" lon="6.55771">
        <ele>1819.5</ele>
        <time>2026-02-02T13:37:28Z</time>
      </trkpt>
      <trkpt lat="45.98438" lon="6.55771">
        <ele>1819.5</ele>
        <time>2026-02-02T13:37:29Z</time>
      </trkpt>
      <trkpt lat="45.98438" lon="6.55771">
        <ele>1819.5</ele>
        <time>2026-02-02T13:37:30Z</time>
      </trkpt>
      <trkpt lat="45.98438" lon="6.55771">
        <ele>1819.5</ele>
        <time>2026-02-02T13:37:31Z</time>
      </trkpt>
      <trkpt lat="45.98438" lon="6.55771">
        <ele>1819.5</ele>
        <time>2026-02-02T13:37:32Z</time>
      </trkpt>
      <trkpt lat="45.98438" lon="6.55771">
        <ele>1819.5</ele>
        <time>2026-02-02T13:37:33Z</time>
      </trkpt>
      <trkpt lat="45.98438" lon="6.55771">
        <ele>1819.5</ele>
        <time>2026-02-02T13:37:34Z</time>
      </trkpt>
      <trkpt lat="45.98438" lon="6.55771">
        <ele>1819.5</ele>
        <time>2026-02-02T13:37:35Z</time>
      </trkpt>
      <trkpt lat="45.98438" lon="6.55772">
        <ele>1819.5</ele>
        <time>2026-02-02T13:37:36Z</time>
      </trkpt>
      <trkpt lat="45.98438" lon="6.55773">
        <ele>1820.7</ele>
        <time>2026-02-02T13:37:37Z</time>
      </trkpt>
      <trkpt lat="45.98437" lon="6.55774">
        <ele>1820.7</ele>
        <time>2026-02-02T13:37:38Z</time>
      </trkpt>
      <trkpt lat="45.98436" lon="6.55774">
        <ele>1820.7</ele>
        <time>2026-02-02T13:37:39Z</time>
      </trkpt>
      <trkpt lat="45.98435" lon="6.55775">
        <ele>1819.9</ele>
        <time>2026-02-02T13:37:40Z</time>
      </trkpt>
      <trkpt lat="45.98434" lon="6.55775">
        <ele>1819.9</ele>
        <time>2026-02-02T13:37:41Z</time>
      </trkpt>
      <trkpt lat="45.98433" lon="6.55775">
        <ele>1819.9</ele>
        <time>2026-02-02T13:37:42Z</time>
      </trkpt>
      <trkpt lat="45.98433" lon="6.55775">
        <ele>1819.9</ele>
        <time>2026-02-02T13:37:43Z</time>
      </trkpt>
      <trkpt lat="45.98433" lon="6.55776">
        <ele>1819.9</ele>
        <time>2026-02-02T13:37:44Z</time>
      </trkpt>
      <trkpt lat="45.98432" lon="6.55777">
        <ele>1822</ele>
        <time>2026-02-02T13:37:45Z</time>
      </trkpt>
      <trkpt lat="45.98432" lon="6.55779">
        <ele>1821.2</ele>
        <time>2026-02-02T13:37:46Z</time>
      </trkpt>
      <trkpt lat="45.98432" lon="6.5578">
        <ele>1821.2</ele>
        <time>2026-02-02T13:37:47Z</time>
      </trkpt>
      <trkpt lat="45.98432" lon="6.55781">
        <ele>1823.2</ele>
        <time>2026-02-02T13:37:48Z</time>
      </trkpt>
      <trkpt lat="45.98432" lon="6.55781">
        <ele>1824.1</ele>
        <time>2026-02-02T13:37:49Z</time>
      </trkpt>
      <trkpt lat="45.98433" lon="6.55781">
        <ele>1824.1</ele>
        <time>2026-02-02T13:37:50Z</time>
      </trkpt>
      <trkpt lat="45.98434" lon="6.5578">
        <ele>1822</ele>
        <time>2026-02-02T13:37:51Z</time>
      </trkpt>
      <trkpt lat="45.98435" lon="6.5578">
        <ele>1822</ele>
        <time>2026-02-02T13:37:52Z</time>
      </trkpt>
      <trkpt lat="45.98435" lon="6.5578">
        <ele>1822</ele>
        <time>2026-02-02T13:37:53Z</time>
      </trkpt>
      <trkpt lat="45.98435" lon="6.55779">
        <ele>1822.7</ele>
        <time>2026-02-02T13:37:54Z</time>
      </trkpt>
      <trkpt lat="45.98436" lon="6.5578">
        <ele>1822.7</ele>
        <time>2026-02-02T13:37:55Z</time>
      </trkpt>
      <trkpt lat="45.98436" lon="6.5578">
        <ele>1822.7</ele>
        <time>2026-02-02T13:37:56Z</time>
      </trkpt>
      <trkpt lat="45.98437" lon="6.5578">
        <ele>1822.7</ele>
        <time>2026-02-02T13:37:57Z</time>
      </trkpt>
      <trkpt lat="45.98437" lon="6.5578">
        <ele>1822.7</ele>
        <time>2026-02-02T13:37:58Z</time>
      </trkpt>
      <trkpt lat="45.98438" lon="6.5578">
        <ele>1823.6</ele>
        <time>2026-02-02T13:37:59Z</time>
      </trkpt>
      <trkpt lat="45.9844" lon="6.55781">
        <ele>1825.7</ele>
        <time>2026-02-02T13:38:00Z</time>
      </trkpt>
      <trkpt lat="45.98441" lon="6.55781">
        <ele>1826.6</ele>
        <time>2026-02-02T13:38:01Z</time>
      </trkpt>
      <trkpt lat="45.98442" lon="6.55782">
        <ele>1826.6</ele>
        <time>2026-02-02T13:38:02Z</time>
      </trkpt>
      <trkpt lat="45.98442" lon="6.55783">
        <ele>1826.6</ele>
        <time>2026-02-02T13:38:03Z</time>
      </trkpt>
      <trkpt lat="45.98442" lon="6.55783">
        <ele>1826.6</ele>
        <time>2026-02-02T13:38:04Z</time>
      </trkpt>
      <trkpt lat="45.98441" lon="6.55783">
        <ele>1826.6</ele>
        <time>2026-02-02T13:38:05Z</time>
      </trkpt>
      <trkpt lat="45.98441" lon="6.55783">
        <ele>1826.6</ele>
        <time>2026-02-02T13:38:06Z</time>
      </trkpt>
      <trkpt lat="45.98441" lon="6.55783">
        <ele>1826.6</ele>
        <time>2026-02-02T13:38:07Z</time>
      </trkpt>
      <trkpt lat="45.98441" lon="6.55783">
        <ele>1825.7</ele>
        <time>2026-02-02T13:38:08Z</time>
      </trkpt>
      <trkpt lat="45.98441" lon="6.55783">
        <ele>1825.7</ele>
        <time>2026-02-02T13:38:09Z</time>
      </trkpt>
      <trkpt lat="45.98441" lon="6.55782">
        <ele>1825.7</ele>
        <time>2026-02-02T13:38:10Z</time>
      </trkpt>
      <trkpt lat="45.9844" lon="6.55782">
        <ele>1825.7</ele>
        <time>2026-02-02T13:38:11Z</time>
      </trkpt>
      <trkpt lat="45.9844" lon="6.55782">
        <ele>1825.7</ele>
        <time>2026-02-02T13:38:12Z</time>
      </trkpt>
      <trkpt lat="45.9844" lon="6.55782">
        <ele>1825.7</ele>
        <time>2026-02-02T13:38:13Z</time>
      </trkpt>
      <trkpt lat="45.9844" lon="6.55782">
        <ele>1825.7</ele>
        <time>2026-02-02T13:38:14Z</time>
      </trkpt>
      <trkpt lat="45.9844" lon="6.55782">
        <ele>1825.7</ele>
        <time>2026-02-02T13:38:15Z</time>
      </trkpt>
      <trkpt lat="45.9844" lon="6.55782">
        <ele>1825.7</ele>
        <time>2026-02-02T13:38:16Z</time>
      </trkpt>
      <trkpt lat="45.9844" lon="6.55782">
        <ele>1825.7</ele>
        <time>2026-02-02T13:38:17Z</time>
      </trkpt>
      <trkpt lat="45.9844" lon="6.55782">
        <ele>1825.7</ele>
        <time>2026-02-02T13:38:18Z</time>
      </trkpt>
      <trkpt lat="45.9844" lon="6.55782">
        <ele>1825.7</ele>
        <time>2026-02-02T13:38:19Z</time>
      </trkpt>
      <trkpt lat="45.9844" lon="6.55782">
        <ele>1825.7</ele>
        <time>2026-02-02T13:38:20Z</time>
      </trkpt>
      <trkpt lat="45.9844" lon="6.55782">
        <ele>1825.7</ele>
        <time>2026-02-02T13:38:21Z</time>
      </trkpt>
      <trkpt lat="45.9844" lon="6.55782">
        <ele>1825.7</ele>
        <time>2026-02-02T13:38:22Z</time>
      </trkpt>
      <trkpt lat="45.98441" lon="6.55782">
        <ele>1826.6</ele>
        <time>2026-02-02T13:38:23Z</time>
      </trkpt>
      <trkpt lat="45.98441" lon="6.55783">
        <ele>1826.6</ele>
        <time>2026-02-02T13:38:24Z</time>
      </trkpt>
      <trkpt lat="45.98441" lon="6.55782">
        <ele>1825.7</ele>
        <time>2026-02-02T13:38:25Z</time>
      </trkpt>
      <trkpt lat="45.98441" lon="6.55783">
        <ele>1825.7</ele>
        <time>2026-02-02T13:38:26Z</time>
      </trkpt>
      <trkpt lat="45.98441" lon="6.55784">
        <ele>1825.7</ele>
        <time>2026-02-02T13:38:27Z</time>
      </trkpt>
      <trkpt lat="45.98441" lon="6.55783">
        <ele>1825.7</ele>
        <time>2026-02-02T13:38:28Z</time>
      </trkpt>
      <trkpt lat="45.98441" lon="6.55783">
        <ele>1825.7</ele>
        <time>2026-02-02T13:38:29Z</time>
      </trkpt>
      <trkpt lat="45.9844" lon="6.55784">
        <ele>1825.7</ele>
        <time>2026-02-02T13:38:30Z</time>
      </trkpt>
      <trkpt lat="45.9844" lon="6.55785">
        <ele>1827.9</ele>
        <time>2026-02-02T13:38:31Z</time>
      </trkpt>
      <trkpt lat="45.98439" lon="6.55786">
        <ele>1827.9</ele>
        <time>2026-02-02T13:38:32Z</time>
      </trkpt>
      <trkpt lat="45.98438" lon="6.55786">
        <ele>1827.9</ele>
        <time>2026-02-02T13:38:33Z</time>
      </trkpt>
      <trkpt lat="45.98438" lon="6.55787">
        <ele>1827</ele>
        <time>2026-02-02T13:38:34Z</time>
      </trkpt>
      <trkpt lat="45.98437" lon="6.55787">
        <ele>1827</ele>
        <time>2026-02-02T13:38:35Z</time>
      </trkpt>
      <trkpt lat="45.98436" lon="6.55788">
        <ele>1827</ele>
        <time>2026-02-02T13:38:36Z</time>
      </trkpt>
      <trkpt lat="45.98436" lon="6.55789">
        <ele>1827</ele>
        <time>2026-02-02T13:38:37Z</time>
      </trkpt>
      <trkpt lat="45.98435" lon="6.5579">
        <ele>1829.1</ele>
        <time>2026-02-02T13:38:38Z</time>
      </trkpt>
      <trkpt lat="45.98434" lon="6.55791">
        <ele>1828.2</ele>
        <time>2026-02-02T13:38:39Z</time>
      </trkpt>
      <trkpt lat="45.98434" lon="6.55792">
        <ele>1828.2</ele>
        <time>2026-02-02T13:38:40Z</time>
      </trkpt>
      <trkpt lat="45.98433" lon="6.55793">
        <ele>1828.2</ele>
        <time>2026-02-02T13:38:41Z</time>
      </trkpt>
      <trkpt lat="45.98432" lon="6.55793">
        <ele>1828.2</ele>
        <time>2026-02-02T13:38:42Z</time>
      </trkpt>
      <trkpt lat="45.98432" lon="6.55794">
        <ele>1829.4</ele>
        <time>2026-02-02T13:38:43Z</time>
      </trkpt>
      <trkpt lat="45.98431" lon="6.55795">
        <ele>1829.4</ele>
        <time>2026-02-02T13:38:44Z</time>
      </trkpt>
      <trkpt lat="45.9843" lon="6.55796">
        <ele>1829.4</ele>
        <time>2026-02-02T13:38:45Z</time>
      </trkpt>
      <trkpt lat="45.98429" lon="6.55797">
        <ele>1829.4</ele>
        <time>2026-02-02T13:38:46Z</time>
      </trkpt>
      <trkpt lat="45.98429" lon="6.55798">
        <ele>1830.4</ele>
        <time>2026-02-02T13:38:47Z</time>
      </trkpt>
      <trkpt lat="45.98428" lon="6.55799">
        <ele>1830.4</ele>
        <time>2026-02-02T13:38:48Z</time>
      </trkpt>
      <trkpt lat="45.98428" lon="6.55799">
        <ele>1830.4</ele>
        <time>2026-02-02T13:38:49Z</time>
      </trkpt>
      <trkpt lat="45.98427" lon="6.558">
        <ele>1830.4</ele>
        <time>2026-02-02T13:38:50Z</time>
      </trkpt>
      <trkpt lat="45.98427" lon="6.55801">
        <ele>1830.4</ele>
        <time>2026-02-02T13:38:51Z</time>
      </trkpt>
      <trkpt lat="45.98427" lon="6.55802">
        <ele>1830.4</ele>
        <time>2026-02-02T13:38:52Z</time>
      </trkpt>
      <trkpt lat="45.98427" lon="6.55802">
        <ele>1830.4</ele>
        <time>2026-02-02T13:38:53Z</time>
      </trkpt>
      <trkpt lat="45.98427" lon="6.55802">
        <ele>1830.4</ele>
        <time>2026-02-02T13:38:54Z</time>
      </trkpt>
      <trkpt lat="45.98428" lon="6.55801">
        <ele>1830.4</ele>
        <time>2026-02-02T13:38:55Z</time>
      </trkpt>
      <trkpt lat="45.98428" lon="6.558">
        <ele>1830.4</ele>
        <time>2026-02-02T13:38:56Z</time>
      </trkpt>
      <trkpt lat="45.98428" lon="6.558">
        <ele>1830.4</ele>
        <time>2026-02-02T13:38:57Z</time>
      </trkpt>
      <trkpt lat="45.98428" lon="6.558">
        <ele>1830.4</ele>
        <time>2026-02-02T13:38:58Z</time>
      </trkpt>
      <trkpt lat="45.98428" lon="6.55799">
        <ele>1830.4</ele>
        <time>2026-02-02T13:38:59Z</time>
      </trkpt>
      <trkpt lat="45.98428" lon="6.55799">
        <ele>1830.4</ele>
        <time>2026-02-02T13:39:00Z</time>
      </trkpt>
      <trkpt lat="45.98428" lon="6.55799">
        <ele>1830.4</ele>
        <time>2026-02-02T13:39:01Z</time>
      </trkpt>
      <trkpt lat="45.98428" lon="6.55799">
        <ele>1830.4</ele>
        <time>2026-02-02T13:39:02Z</time>
      </trkpt>
      <trkpt lat="45.98428" lon="6.55799">
        <ele>1830.4</ele>
        <time>2026-02-02T13:39:03Z</time>
      </trkpt>
      <trkpt lat="45.98428" lon="6.55799">
        <ele>1830.4</ele>
        <time>2026-02-02T13:39:04Z</time>
      </trkpt>
      <trkpt lat="45.98428" lon="6.55799">
        <ele>1830.4</ele>
        <time>2026-02-02T13:39:05Z</time>
      </trkpt>
      <trkpt lat="45.98428" lon="6.55799">
        <ele>1830.4</ele>
        <time>2026-02-02T13:39:06Z</time>
      </trkpt>
      <trkpt lat="45.98428" lon="6.55799">
        <ele>1830.4</ele>
        <time>2026-02-02T13:39:07Z</time>
      </trkpt>
      <trkpt lat="45.98428" lon="6.55799">
        <ele>1830.4</ele>
        <time>2026-02-02T13:39:08Z</time>
      </trkpt>
      <trkpt lat="45.98428" lon="6.55799">
        <ele>1830.4</ele>
        <time>2026-02-02T13:39:09Z</time>
      </trkpt>
      <trkpt lat="45.98428" lon="6.55799">
        <ele>1830.4</ele>
        <time>2026-02-02T13:39:10Z</time>
      </trkpt>
      <trkpt lat="45.98428" lon="6.55799">
        <ele>1830.4</ele>
        <time>2026-02-02T13:39:11Z</time>
      </trkpt>
      <trkpt lat="45.98428" lon="6.55799">
        <ele>1830.4</ele>
        <time>2026-02-02T13:39:12Z</time>
      </trkpt>
      <trkpt lat="45.98429" lon="6.55799">
        <ele>1830.4</ele>
        <time>2026-02-02T13:39:13Z</time>
      </trkpt>
      <trkpt lat="45.98429" lon="6.55799">
        <ele>1831.4</ele>
        <time>2026-02-02T13:39:14Z</time>
      </trkpt>
      <trkpt lat="45.9843" lon="6.55799">
        <ele>1831.4</ele>
        <time>2026-02-02T13:39:15Z</time>
      </trkpt>
      <trkpt lat="45.98431" lon="6.55799">
        <ele>1831.4</ele>
        <time>2026-02-02T13:39:16Z</time>
      </trkpt>
      <trkpt lat="45.98431" lon="6.55799">
        <ele>1831.4</ele>
        <time>2026-02-02T13:39:17Z</time>
      </trkpt>
      <trkpt lat="45.98432" lon="6.55799">
        <ele>1831.4</ele>
        <time>2026-02-02T13:39:18Z</time>
      </trkpt>
      <trkpt lat="45.98433" lon="6.55799">
        <ele>1832.3</ele>
        <time>2026-02-02T13:39:19Z</time>
      </trkpt>
      <trkpt lat="45.98434" lon="6.55799">
        <ele>1832.3</ele>
        <time>2026-02-02T13:39:20Z</time>
      </trkpt>
      <trkpt lat="45.98435" lon="6.55798">
        <ele>1832.3</ele>
        <time>2026-02-02T13:39:21Z</time>
      </trkpt>
      <trkpt lat="45.98436" lon="6.55798">
        <ele>1831.1</ele>
        <time>2026-02-02T13:39:22Z</time>
      </trkpt>
      <trkpt lat="45.98438" lon="6.55798">
        <ele>1831.1</ele>
        <time>2026-02-02T13:39:23Z</time>
      </trkpt>
      <trkpt lat="45.98438" lon="6.55798">
        <ele>1832.1</ele>
        <time>2026-02-02T13:39:24Z</time>
      </trkpt>
      <trkpt lat="45.98438" lon="6.55797">
        <ele>1832.1</ele>
        <time>2026-02-02T13:39:25Z</time>
      </trkpt>
      <trkpt lat="45.98438" lon="6.55797">
        <ele>1832.1</ele>
        <time>2026-02-02T13:39:26Z</time>
      </trkpt>
      <trkpt lat="45.98438" lon="6.55797">
        <ele>1832.1</ele>
        <time>2026-02-02T13:39:27Z</time>
      </trkpt>
      <trkpt lat="45.98439" lon="6.55797">
        <ele>1832.1</ele>
        <time>2026-02-02T13:39:28Z</time>
      </trkpt>
      <trkpt lat="45.98439" lon="6.55797">
        <ele>1832.1</ele>
        <time>2026-02-02T13:39:29Z</time>
      </trkpt>
      <trkpt lat="45.9844" lon="6.55797">
        <ele>1832.1</ele>
        <time>2026-02-02T13:39:30Z</time>
      </trkpt>
      <trkpt lat="45.9844" lon="6.55797">
        <ele>1832.1</ele>
        <time>2026-02-02T13:39:31Z</time>
      </trkpt>
      <trkpt lat="45.98442" lon="6.55796">
        <ele>1833</ele>
        <time>2026-02-02T13:39:32Z</time>
      </trkpt>
      <trkpt lat="45.98443" lon="6.55797">
        <ele>1833</ele>
        <time>2026-02-02T13:39:33Z</time>
      </trkpt>
      <trkpt lat="45.98443" lon="6.55797">
        <ele>1833</ele>
        <time>2026-02-02T13:39:34Z</time>
      </trkpt>
      <trkpt lat="45.98444" lon="6.55797">
        <ele>1834</ele>
        <time>2026-02-02T13:39:35Z</time>
      </trkpt>
      <trkpt lat="45.98445" lon="6.55797">
        <ele>1834</ele>
        <time>2026-02-02T13:39:36Z</time>
      </trkpt>
      <trkpt lat="45.98445" lon="6.55797">
        <ele>1834</ele>
        <time>2026-02-02T13:39:37Z</time>
      </trkpt>
      <trkpt lat="45.98445" lon="6.55797">
        <ele>1834</ele>
        <time>2026-02-02T13:39:38Z</time>
      </trkpt>
      <trkpt lat="45.98445" lon="6.55797">
        <ele>1834</ele>
        <time>2026-02-02T13:39:39Z</time>
      </trkpt>
      <trkpt lat="45.98445" lon="6.55797">
        <ele>1834</ele>
        <time>2026-02-02T13:39:40Z</time>
      </trkpt>
      <trkpt lat="45.98445" lon="6.55797">
        <ele>1834</ele>
        <time>2026-02-02T13:39:41Z</time>
      </trkpt>
      <trkpt lat="45.98445" lon="6.55797">
        <ele>1834</ele>
        <time>2026-02-02T13:39:42Z</time>
      </trkpt>
      <trkpt lat="45.98445" lon="6.55797">
        <ele>1834</ele>
        <time>2026-02-02T13:39:43Z</time>
      </trkpt>
      <trkpt lat="45.98445" lon="6.55797">
        <ele>1834</ele>
        <time>2026-02-02T13:39:44Z</time>
      </trkpt>
      <trkpt lat="45.98446" lon="6.55797">
        <ele>1834</ele>
        <time>2026-02-02T13:39:45Z</time>
      </trkpt>
      <trkpt lat="45.98446" lon="6.55797">
        <ele>1834</ele>
        <time>2026-02-02T13:39:46Z</time>
      </trkpt>
      <trkpt lat="45.98446" lon="6.55798">
        <ele>1834</ele>
        <time>2026-02-02T13:39:47Z</time>
      </trkpt>
      <trkpt lat="45.98446" lon="6.55798">
        <ele>1834</ele>
        <time>2026-02-02T13:39:48Z</time>
      </trkpt>
      <trkpt lat="45.98446" lon="6.55798">
        <ele>1834</ele>
        <time>2026-02-02T13:39:49Z</time>
      </trkpt>
      <trkpt lat="45.98446" lon="6.55798">
        <ele>1834</ele>
        <time>2026-02-02T13:39:50Z</time>
      </trkpt>
      <trkpt lat="45.98446" lon="6.55798">
        <ele>1834</ele>
        <time>2026-02-02T13:39:51Z</time>
      </trkpt>
      <trkpt lat="45.98446" lon="6.55798">
        <ele>1834</ele>
        <time>2026-02-02T13:39:52Z</time>
      </trkpt>
      <trkpt lat="45.98446" lon="6.55798">
        <ele>1834</ele>
        <time>2026-02-02T13:39:53Z</time>
      </trkpt>
      <trkpt lat="45.98446" lon="6.55798">
        <ele>1834</ele>
        <time>2026-02-02T13:39:54Z</time>
      </trkpt>
      <trkpt lat="45.98446" lon="6.55797">
        <ele>1834</ele>
        <time>2026-02-02T13:39:55Z</time>
      </trkpt>
      <trkpt lat="45.98446" lon="6.55797">
        <ele>1834</ele>
        <time>2026-02-02T13:39:56Z</time>
      </trkpt>
      <trkpt lat="45.98446" lon="6.55797">
        <ele>1834</ele>
        <time>2026-02-02T13:39:57Z</time>
      </trkpt>
      <trkpt lat="45.98447" lon="6.55797">
        <ele>1834</ele>
        <time>2026-02-02T13:39:58Z</time>
      </trkpt>
      <trkpt lat="45.98447" lon="6.55797">
        <ele>1834.9</ele>
        <time>2026-02-02T13:39:59Z</time>
      </trkpt>
      <trkpt lat="45.98447" lon="6.55797">
        <ele>1834</ele>
        <time>2026-02-02T13:40:00Z</time>
      </trkpt>
      <trkpt lat="45.98447" lon="6.55797">
        <ele>1834.9</ele>
        <time>2026-02-02T13:40:01Z</time>
      </trkpt>
      <trkpt lat="45.98448" lon="6.55797">
        <ele>1834.9</ele>
        <time>2026-02-02T13:40:02Z</time>
      </trkpt>
      <trkpt lat="45.98449" lon="6.55797">
        <ele>1834.9</ele>
        <time>2026-02-02T13:40:03Z</time>
      </trkpt>
      <trkpt lat="45.98449" lon="6.55797">
        <ele>1834.9</ele>
        <time>2026-02-02T13:40:04Z</time>
      </trkpt>
      <trkpt lat="45.9845" lon="6.55797">
        <ele>1835.7</ele>
        <time>2026-02-02T13:40:05Z</time>
      </trkpt>
      <trkpt lat="45.98451" lon="6.55797">
        <ele>1835.7</ele>
        <time>2026-02-02T13:40:06Z</time>
      </trkpt>
      <trkpt lat="45.98451" lon="6.55797">
        <ele>1835.7</ele>
        <time>2026-02-02T13:40:07Z</time>
      </trkpt>
      <trkpt lat="45.98452" lon="6.55797">
        <ele>1835.7</ele>
        <time>2026-02-02T13:40:08Z</time>
      </trkpt>
      <trkpt lat="45.98452" lon="6.55797">
        <ele>1835.7</ele>
        <time>2026-02-02T13:40:09Z</time>
      </trkpt>
      <trkpt lat="45.98453" lon="6.55798">
        <ele>1835.7</ele>
        <time>2026-02-02T13:40:10Z</time>
      </trkpt>
      <trkpt lat="45.98453" lon="6.55798">
        <ele>1836.3</ele>
        <time>2026-02-02T13:40:11Z</time>
      </trkpt>
      <trkpt lat="45.98454" lon="6.55798">
        <ele>1838.4</ele>
        <time>2026-02-02T13:40:12Z</time>
      </trkpt>
      <trkpt lat="45.98454" lon="6.55798">
        <ele>1838.4</ele>
        <time>2026-02-02T13:40:13Z</time>
      </trkpt>
      <trkpt lat="45.98455" lon="6.55799">
        <ele>1838.4</ele>
        <time>2026-02-02T13:40:14Z</time>
      </trkpt>
      <trkpt lat="45.98456" lon="6.55799">
        <ele>1839</ele>
        <time>2026-02-02T13:40:15Z</time>
      </trkpt>
      <trkpt lat="45.98457" lon="6.55799">
        <ele>1839</ele>
        <time>2026-02-02T13:40:16Z</time>
      </trkpt>
      <trkpt lat="45.98457" lon="6.55799">
        <ele>1839</ele>
        <time>2026-02-02T13:40:17Z</time>
      </trkpt>
      <trkpt lat="45.98458" lon="6.55799">
        <ele>1839</ele>
        <time>2026-02-02T13:40:18Z</time>
      </trkpt>
      <trkpt lat="45.98458" lon="6.55799">
        <ele>1839</ele>
        <time>2026-02-02T13:40:19Z</time>
      </trkpt>
      <trkpt lat="45.98459" lon="6.558">
        <ele>1839</ele>
        <time>2026-02-02T13:40:20Z</time>
      </trkpt>
      <trkpt lat="45.98459" lon="6.558">
        <ele>1839.6</ele>
        <time>2026-02-02T13:40:21Z</time>
      </trkpt>
      <trkpt lat="45.9846" lon="6.558">
        <ele>1839.6</ele>
        <time>2026-02-02T13:40:22Z</time>
      </trkpt>
      <trkpt lat="45.9846" lon="6.558">
        <ele>1839.6</ele>
        <time>2026-02-02T13:40:23Z</time>
      </trkpt>
      <trkpt lat="45.9846" lon="6.558">
        <ele>1839.6</ele>
        <time>2026-02-02T13:40:24Z</time>
      </trkpt>
      <trkpt lat="45.98461" lon="6.558">
        <ele>1839.6</ele>
        <time>2026-02-02T13:40:25Z</time>
      </trkpt>
      <trkpt lat="45.98461" lon="6.558">
        <ele>1839.6</ele>
        <time>2026-02-02T13:40:26Z</time>
      </trkpt>
      <trkpt lat="45.98461" lon="6.558">
        <ele>1839.6</ele>
        <time>2026-02-02T13:40:27Z</time>
      </trkpt>
      <trkpt lat="45.98461" lon="6.558">
        <ele>1839.6</ele>
        <time>2026-02-02T13:40:28Z</time>
      </trkpt>
      <trkpt lat="45.98461" lon="6.558">
        <ele>1839.6</ele>
        <time>2026-02-02T13:40:29Z</time>
      </trkpt>
      <trkpt lat="45.98461" lon="6.558">
        <ele>1839.6</ele>
        <time>2026-02-02T13:40:30Z</time>
      </trkpt>
      <trkpt lat="45.98461" lon="6.558">
        <ele>1839.6</ele>
        <time>2026-02-02T13:40:31Z</time>
      </trkpt>
      <trkpt lat="45.98461" lon="6.558">
        <ele>1839.6</ele>
        <time>2026-02-02T13:40:32Z</time>
      </trkpt>
      <trkpt lat="45.98461" lon="6.558">
        <ele>1839.6</ele>
        <time>2026-02-02T13:40:33Z</time>
      </trkpt>
      <trkpt lat="45.98461" lon="6.558">
        <ele>1839.6</ele>
        <time>2026-02-02T13:40:34Z</time>
      </trkpt>
      <trkpt lat="45.98461" lon="6.558">
        <ele>1839.6</ele>
        <time>2026-02-02T13:40:35Z</time>
      </trkpt>
      <trkpt lat="45.98461" lon="6.558">
        <ele>1839.6</ele>
        <time>2026-02-02T13:40:36Z</time>
      </trkpt>
      <trkpt lat="45.98461" lon="6.558">
        <ele>1839.6</ele>
        <time>2026-02-02T13:40:37Z</time>
      </trkpt>
      <trkpt lat="45.98462" lon="6.558">
        <ele>1839.6</ele>
        <time>2026-02-02T13:40:38Z</time>
      </trkpt>
      <trkpt lat="45.98462" lon="6.558">
        <ele>1840.1</ele>
        <time>2026-02-02T13:40:39Z</time>
      </trkpt>
      <trkpt lat="45.98463" lon="6.55801">
        <ele>1840.1</ele>
        <time>2026-02-02T13:40:40Z</time>
      </trkpt>
      <trkpt lat="45.98463" lon="6.55801">
        <ele>1840.1</ele>
        <time>2026-02-02T13:40:41Z</time>
      </trkpt>
      <trkpt lat="45.98464" lon="6.55802">
        <ele>1840.1</ele>
        <time>2026-02-02T13:40:42Z</time>
      </trkpt>
      <trkpt lat="45.98465" lon="6.55802">
        <ele>1840.7</ele>
        <time>2026-02-02T13:40:43Z</time>
      </trkpt>
      <trkpt lat="45.98466" lon="6.55802">
        <ele>1842.7</ele>
        <time>2026-02-02T13:40:44Z</time>
      </trkpt>
      <trkpt lat="45.98467" lon="6.55803">
        <ele>1842.7</ele>
        <time>2026-02-02T13:40:45Z</time>
      </trkpt>
      <trkpt lat="45.98468" lon="6.55803">
        <ele>1842.7</ele>
        <time>2026-02-02T13:40:46Z</time>
      </trkpt>
      <trkpt lat="45.98469" lon="6.55803">
        <ele>1843.2</ele>
        <time>2026-02-02T13:40:47Z</time>
      </trkpt>
      <trkpt lat="45.9847" lon="6.55803">
        <ele>1843.2</ele>
        <time>2026-02-02T13:40:48Z</time>
      </trkpt>
      <trkpt lat="45.98471" lon="6.55804">
        <ele>1843.7</ele>
        <time>2026-02-02T13:40:49Z</time>
      </trkpt>
      <trkpt lat="45.98472" lon="6.55805">
        <ele>1843.7</ele>
        <time>2026-02-02T13:40:50Z</time>
      </trkpt>
      <trkpt lat="45.98474" lon="6.55805">
        <ele>1843.7</ele>
        <time>2026-02-02T13:40:51Z</time>
      </trkpt>
      <trkpt lat="45.98474" lon="6.55806">
        <ele>1844.1</ele>
        <time>2026-02-02T13:40:52Z</time>
      </trkpt>
      <trkpt lat="45.98474" lon="6.55806">
        <ele>1844.1</ele>
        <time>2026-02-02T13:40:53Z</time>
      </trkpt>
      <trkpt lat="45.98474" lon="6.55806">
        <ele>1844.1</ele>
        <time>2026-02-02T13:40:54Z</time>
      </trkpt>
      <trkpt lat="45.98474" lon="6.55806">
        <ele>1844.1</ele>
        <time>2026-02-02T13:40:55Z</time>
      </trkpt>
      <trkpt lat="45.98474" lon="6.55806">
        <ele>1844.1</ele>
        <time>2026-02-02T13:40:56Z</time>
      </trkpt>
      <trkpt lat="45.98474" lon="6.55806">
        <ele>1844.1</ele>
        <time>2026-02-02T13:40:57Z</time>
      </trkpt>
      <trkpt lat="45.98474" lon="6.55806">
        <ele>1844.1</ele>
        <time>2026-02-02T13:40:58Z</time>
      </trkpt>
      <trkpt lat="45.98475" lon="6.55807">
        <ele>1845.9</ele>
        <time>2026-02-02T13:40:59Z</time>
      </trkpt>
      <trkpt lat="45.98475" lon="6.55807">
        <ele>1845.9</ele>
        <time>2026-02-02T13:41:00Z</time>
      </trkpt>
      <trkpt lat="45.98476" lon="6.55807">
        <ele>1845.9</ele>
        <time>2026-02-02T13:41:01Z</time>
      </trkpt>
      <trkpt lat="45.98476" lon="6.55808">
        <ele>1845.9</ele>
        <time>2026-02-02T13:41:02Z</time>
      </trkpt>
      <trkpt lat="45.98477" lon="6.55808">
        <ele>1846.3</ele>
        <time>2026-02-02T13:41:03Z</time>
      </trkpt>
      <trkpt lat="45.98477" lon="6.55809">
        <ele>1846.3</ele>
        <time>2026-02-02T13:41:04Z</time>
      </trkpt>
      <trkpt lat="45.98478" lon="6.55809">
        <ele>1846.3</ele>
        <time>2026-02-02T13:41:05Z</time>
      </trkpt>
      <trkpt lat="45.98479" lon="6.5581">
        <ele>1846.3</ele>
        <time>2026-02-02T13:41:06Z</time>
      </trkpt>
      <trkpt lat="45.9848" lon="6.5581">
        <ele>1846.3</ele>
        <time>2026-02-02T13:41:07Z</time>
      </trkpt>
      <trkpt lat="45.9848" lon="6.5581">
        <ele>1846.5</ele>
        <time>2026-02-02T13:41:08Z</time>
      </trkpt>
      <trkpt lat="45.9848" lon="6.55811">
        <ele>1846.5</ele>
        <time>2026-02-02T13:41:09Z</time>
      </trkpt>
      <trkpt lat="45.9848" lon="6.55811">
        <ele>1846.5</ele>
        <time>2026-02-02T13:41:10Z</time>
      </trkpt>
      <trkpt lat="45.98481" lon="6.55811">
        <ele>1846.5</ele>
        <time>2026-02-02T13:41:11Z</time>
      </trkpt>
      <trkpt lat="45.98481" lon="6.55811">
        <ele>1848.3</ele>
        <time>2026-02-02T13:41:12Z</time>
      </trkpt>
      <trkpt lat="45.98481" lon="6.55811">
        <ele>1848.3</ele>
        <time>2026-02-02T13:41:13Z</time>
      </trkpt>
      <trkpt lat="45.98481" lon="6.55812">
        <ele>1848.3</ele>
        <time>2026-02-02T13:41:14Z</time>
      </trkpt>
      <trkpt lat="45.98481" lon="6.55812">
        <ele>1848.3</ele>
        <time>2026-02-02T13:41:15Z</time>
      </trkpt>
      <trkpt lat="45.98481" lon="6.55812">
        <ele>1848.3</ele>
        <time>2026-02-02T13:41:16Z</time>
      </trkpt>
      <trkpt lat="45.98481" lon="6.55813">
        <ele>1848.3</ele>
        <time>2026-02-02T13:41:17Z</time>
      </trkpt>
      <trkpt lat="45.98482" lon="6.55814">
        <ele>1848.3</ele>
        <time>2026-02-02T13:41:18Z</time>
      </trkpt>
      <trkpt lat="45.98482" lon="6.55814">
        <ele>1848.3</ele>
        <time>2026-02-02T13:41:19Z</time>
      </trkpt>
      <trkpt lat="45.98483" lon="6.55815">
        <ele>1848.5</ele>
        <time>2026-02-02T13:41:20Z</time>
      </trkpt>
      <trkpt lat="45.98483" lon="6.55815">
        <ele>1850.2</ele>
        <time>2026-02-02T13:41:21Z</time>
      </trkpt>
      <trkpt lat="45.98484" lon="6.55816">
        <ele>1850.2</ele>
        <time>2026-02-02T13:41:22Z</time>
      </trkpt>
      <trkpt lat="45.98484" lon="6.55816">
        <ele>1850.2</ele>
        <time>2026-02-02T13:41:23Z</time>
      </trkpt>
      <trkpt lat="45.98485" lon="6.55816">
        <ele>1850.2</ele>
        <time>2026-02-02T13:41:24Z</time>
      </trkpt>
      <trkpt lat="45.98485" lon="6.55816">
        <ele>1850.2</ele>
        <time>2026-02-02T13:41:25Z</time>
      </trkpt>
      <trkpt lat="45.98485" lon="6.55816">
        <ele>1850.2</ele>
        <time>2026-02-02T13:41:26Z</time>
      </trkpt>
      <trkpt lat="45.98485" lon="6.55816">
        <ele>1850.2</ele>
        <time>2026-02-02T13:41:27Z</time>
      </trkpt>
      <trkpt lat="45.98485" lon="6.55816">
        <ele>1850.2</ele>
        <time>2026-02-02T13:41:28Z</time>
      </trkpt>
      <trkpt lat="45.98486" lon="6.55817">
        <ele>1850.2</ele>
        <time>2026-02-02T13:41:29Z</time>
      </trkpt>
      <trkpt lat="45.98486" lon="6.55817">
        <ele>1850.4</ele>
        <time>2026-02-02T13:41:30Z</time>
      </trkpt>
      <trkpt lat="45.98486" lon="6.55817">
        <ele>1850.4</ele>
        <time>2026-02-02T13:41:31Z</time>
      </trkpt>
      <trkpt lat="45.98487" lon="6.55817">
        <ele>1850.4</ele>
        <time>2026-02-02T13:41:32Z</time>
      </trkpt>
      <trkpt lat="45.98487" lon="6.55818">
        <ele>1850.4</ele>
        <time>2026-02-02T13:41:33Z</time>
      </trkpt>
      <trkpt lat="45.98488" lon="6.55819">
        <ele>1850.4</ele>
        <time>2026-02-02T13:41:34Z</time>
      </trkpt>
      <trkpt lat="45.98489" lon="6.55819">
        <ele>1850.6</ele>
        <time>2026-02-02T13:41:35Z</time>
      </trkpt>
      <trkpt lat="45.9849" lon="6.5582">
        <ele>1852.3</ele>
        <time>2026-02-02T13:41:36Z</time>
      </trkpt>
      <trkpt lat="45.9849" lon="6.5582">
        <ele>1852.3</ele>
        <time>2026-02-02T13:41:37Z</time>
      </trkpt>
      <trkpt lat="45.98491" lon="6.55822">
        <ele>1852.3</ele>
        <time>2026-02-02T13:41:38Z</time>
      </trkpt>
      <trkpt lat="45.98491" lon="6.55822">
        <ele>1852.3</ele>
        <time>2026-02-02T13:41:39Z</time>
      </trkpt>
      <trkpt lat="45.98492" lon="6.55823">
        <ele>1852.5</ele>
        <time>2026-02-02T13:41:40Z</time>
      </trkpt>
      <trkpt lat="45.98493" lon="6.55824">
        <ele>1852.5</ele>
        <time>2026-02-02T13:41:41Z</time>
      </trkpt>
      <trkpt lat="45.98494" lon="6.55824">
        <ele>1854.3</ele>
        <time>2026-02-02T13:41:42Z</time>
      </trkpt>
      <trkpt lat="45.98494" lon="6.55825">
        <ele>1854.3</ele>
        <time>2026-02-02T13:41:43Z</time>
      </trkpt>
      <trkpt lat="45.98495" lon="6.55825">
        <ele>1854.6</ele>
        <time>2026-02-02T13:41:44Z</time>
      </trkpt>
      <trkpt lat="45.98496" lon="6.55826">
        <ele>1854.6</ele>
        <time>2026-02-02T13:41:45Z</time>
      </trkpt>
      <trkpt lat="45.98497" lon="6.55827">
        <ele>1854.6</ele>
        <time>2026-02-02T13:41:46Z</time>
      </trkpt>
      <trkpt lat="45.98498" lon="6.55828">
        <ele>1856.8</ele>
        <time>2026-02-02T13:41:47Z</time>
      </trkpt>
      <trkpt lat="45.98498" lon="6.55828">
        <ele>1856.8</ele>
        <time>2026-02-02T13:41:48Z</time>
      </trkpt>
      <trkpt lat="45.98498" lon="6.55829">
        <ele>1856.8</ele>
        <time>2026-02-02T13:41:49Z</time>
      </trkpt>
      <trkpt lat="45.98498" lon="6.55829">
        <ele>1856.8</ele>
        <time>2026-02-02T13:41:50Z</time>
      </trkpt>
      <trkpt lat="45.98498" lon="6.55829">
        <ele>1856.8</ele>
        <time>2026-02-02T13:41:51Z</time>
      </trkpt>
      <trkpt lat="45.98498" lon="6.5583">
        <ele>1856.8</ele>
        <time>2026-02-02T13:41:52Z</time>
      </trkpt>
      <trkpt lat="45.98498" lon="6.5583">
        <ele>1856.8</ele>
        <time>2026-02-02T13:41:53Z</time>
      </trkpt>
      <trkpt lat="45.98498" lon="6.5583">
        <ele>1856.8</ele>
        <time>2026-02-02T13:41:54Z</time>
      </trkpt>
      <trkpt lat="45.98498" lon="6.5583">
        <ele>1856.8</ele>
        <time>2026-02-02T13:41:55Z</time>
      </trkpt>
      <trkpt lat="45.98498" lon="6.5583">
        <ele>1856.8</ele>
        <time>2026-02-02T13:41:56Z</time>
      </trkpt>
      <trkpt lat="45.98498" lon="6.5583">
        <ele>1856.8</ele>
        <time>2026-02-02T13:41:57Z</time>
      </trkpt>
      <trkpt lat="45.98498" lon="6.5583">
        <ele>1856.8</ele>
        <time>2026-02-02T13:41:58Z</time>
      </trkpt>
      <trkpt lat="45.98499" lon="6.55831">
        <ele>1856.8</ele>
        <time>2026-02-02T13:41:59Z</time>
      </trkpt>
      <trkpt lat="45.98499" lon="6.55831">
        <ele>1856.8</ele>
        <time>2026-02-02T13:42:00Z</time>
      </trkpt>
      <trkpt lat="45.985" lon="6.55832">
        <ele>1856.8</ele>
        <time>2026-02-02T13:42:01Z</time>
      </trkpt>
      <trkpt lat="45.98501" lon="6.55833">
        <ele>1859.2</ele>
        <time>2026-02-02T13:42:02Z</time>
      </trkpt>
      <trkpt lat="45.98501" lon="6.55835">
        <ele>1859.2</ele>
        <time>2026-02-02T13:42:03Z</time>
      </trkpt>
      <trkpt lat="45.98502" lon="6.55836">
        <ele>1859.2</ele>
        <time>2026-02-02T13:42:04Z</time>
      </trkpt>
      <trkpt lat="45.98503" lon="6.55838">
        <ele>1861.1</ele>
        <time>2026-02-02T13:42:05Z</time>
      </trkpt>
      <trkpt lat="45.98503" lon="6.55838">
        <ele>1861.1</ele>
        <time>2026-02-02T13:42:06Z</time>
      </trkpt>
      <trkpt lat="45.98504" lon="6.55838">
        <ele>1861.1</ele>
        <time>2026-02-02T13:42:07Z</time>
      </trkpt>
      <trkpt lat="45.98504" lon="6.55838">
        <ele>1861.5</ele>
        <time>2026-02-02T13:42:08Z</time>
      </trkpt>
      <trkpt lat="45.98504" lon="6.55839">
        <ele>1861.5</ele>
        <time>2026-02-02T13:42:09Z</time>
      </trkpt>
      <trkpt lat="45.98505" lon="6.55839">
        <ele>1861.5</ele>
        <time>2026-02-02T13:42:10Z</time>
      </trkpt>
      <trkpt lat="45.98505" lon="6.5584">
        <ele>1861.5</ele>
        <time>2026-02-02T13:42:11Z</time>
      </trkpt>
      <trkpt lat="45.98506" lon="6.5584">
        <ele>1861.5</ele>
        <time>2026-02-02T13:42:12Z</time>
      </trkpt>
      <trkpt lat="45.98506" lon="6.55841">
        <ele>1861.5</ele>
        <time>2026-02-02T13:42:13Z</time>
      </trkpt>
      <trkpt lat="45.98506" lon="6.55841">
        <ele>1863.3</ele>
        <time>2026-02-02T13:42:14Z</time>
      </trkpt>
      <trkpt lat="45.98506" lon="6.55841">
        <ele>1861.5</ele>
        <time>2026-02-02T13:42:15Z</time>
      </trkpt>
      <trkpt lat="45.98506" lon="6.55841">
        <ele>1861.5</ele>
        <time>2026-02-02T13:42:16Z</time>
      </trkpt>
      <trkpt lat="45.98506" lon="6.55841">
        <ele>1861.5</ele>
        <time>2026-02-02T13:42:17Z</time>
      </trkpt>
      <trkpt lat="45.98506" lon="6.5584">
        <ele>1861.5</ele>
        <time>2026-02-02T13:42:18Z</time>
      </trkpt>
      <trkpt lat="45.98506" lon="6.5584">
        <ele>1861.5</ele>
        <time>2026-02-02T13:42:19Z</time>
      </trkpt>
      <trkpt lat="45.98506" lon="6.5584">
        <ele>1861.5</ele>
        <time>2026-02-02T13:42:20Z</time>
      </trkpt>
      <trkpt lat="45.98506" lon="6.5584">
        <ele>1861.5</ele>
        <time>2026-02-02T13:42:21Z</time>
      </trkpt>
      <trkpt lat="45.98506" lon="6.5584">
        <ele>1861.5</ele>
        <time>2026-02-02T13:42:22Z</time>
      </trkpt>
      <trkpt lat="45.98506" lon="6.5584">
        <ele>1861.5</ele>
        <time>2026-02-02T13:42:23Z</time>
      </trkpt>
      <trkpt lat="45.98506" lon="6.5584">
        <ele>1861.5</ele>
        <time>2026-02-02T13:42:24Z</time>
      </trkpt>
      <trkpt lat="45.98507" lon="6.5584">
        <ele>1862</ele>
        <time>2026-02-02T13:42:25Z</time>
      </trkpt>
      <trkpt lat="45.98507" lon="6.5584">
        <ele>1862</ele>
        <time>2026-02-02T13:42:26Z</time>
      </trkpt>
      <trkpt lat="45.98508" lon="6.55841">
        <ele>1863.8</ele>
        <time>2026-02-02T13:42:27Z</time>
      </trkpt>
      <trkpt lat="45.98509" lon="6.55842">
        <ele>1863.8</ele>
        <time>2026-02-02T13:42:28Z</time>
      </trkpt>
      <trkpt lat="45.98511" lon="6.55843">
        <ele>1864.2</ele>
        <time>2026-02-02T13:42:29Z</time>
      </trkpt>
      <trkpt lat="45.98512" lon="6.55843">
        <ele>1864.2</ele>
        <time>2026-02-02T13:42:30Z</time>
      </trkpt>
      <trkpt lat="45.98513" lon="6.55844">
        <ele>1864.6</ele>
        <time>2026-02-02T13:42:31Z</time>
      </trkpt>
      <trkpt lat="45.98514" lon="6.55844">
        <ele>1864.6</ele>
        <time>2026-02-02T13:42:32Z</time>
      </trkpt>
      <trkpt lat="45.98514" lon="6.55845">
        <ele>1864.6</ele>
        <time>2026-02-02T13:42:33Z</time>
      </trkpt>
      <trkpt lat="45.98516" lon="6.55845">
        <ele>1865</ele>
        <time>2026-02-02T13:42:34Z</time>
      </trkpt>
      <trkpt lat="45.98516" lon="6.55845">
        <ele>1865</ele>
        <time>2026-02-02T13:42:35Z</time>
      </trkpt>
      <trkpt lat="45.98516" lon="6.55845">
        <ele>1865</ele>
        <time>2026-02-02T13:42:36Z</time>
      </trkpt>
      <trkpt lat="45.98516" lon="6.55845">
        <ele>1865</ele>
        <time>2026-02-02T13:42:37Z</time>
      </trkpt>
      <trkpt lat="45.98517" lon="6.55844">
        <ele>1865</ele>
        <time>2026-02-02T13:42:38Z</time>
      </trkpt>
      <trkpt lat="45.98518" lon="6.55843">
        <ele>1865</ele>
        <time>2026-02-02T13:42:39Z</time>
      </trkpt>
      <trkpt lat="45.98518" lon="6.55843">
        <ele>1865</ele>
        <time>2026-02-02T13:42:40Z</time>
      </trkpt>
      <trkpt lat="45.98518" lon="6.55843">
        <ele>1865</ele>
        <time>2026-02-02T13:42:41Z</time>
      </trkpt>
      <trkpt lat="45.98518" lon="6.55842">
        <ele>1865</ele>
        <time>2026-02-02T13:42:42Z</time>
      </trkpt>
      <trkpt lat="45.98518" lon="6.55842">
        <ele>1865</ele>
        <time>2026-02-02T13:42:43Z</time>
      </trkpt>
      <trkpt lat="45.98518" lon="6.55842">
        <ele>1865</ele>
        <time>2026-02-02T13:42:44Z</time>
      </trkpt>
      <trkpt lat="45.98518" lon="6.55842">
        <ele>1865</ele>
        <time>2026-02-02T13:42:45Z</time>
      </trkpt>
      <trkpt lat="45.98518" lon="6.55842">
        <ele>1865</ele>
        <time>2026-02-02T13:42:46Z</time>
      </trkpt>
      <trkpt lat="45.98518" lon="6.55842">
        <ele>1865</ele>
        <time>2026-02-02T13:42:47Z</time>
      </trkpt>
      <trkpt lat="45.98519" lon="6.55842">
        <ele>1865.4</ele>
        <time>2026-02-02T13:42:48Z</time>
      </trkpt>
      <trkpt lat="45.98519" lon="6.55842">
        <ele>1865.4</ele>
        <time>2026-02-02T13:42:49Z</time>
      </trkpt>
      <trkpt lat="45.98519" lon="6.55842">
        <ele>1865.4</ele>
        <time>2026-02-02T13:42:50Z</time>
      </trkpt>
      <trkpt lat="45.98519" lon="6.55842">
        <ele>1865.4</ele>
        <time>2026-02-02T13:42:51Z</time>
      </trkpt>
      <trkpt lat="45.98519" lon="6.55842">
        <ele>1865.4</ele>
        <time>2026-02-02T13:42:52Z</time>
      </trkpt>
      <trkpt lat="45.98519" lon="6.55842">
        <ele>1865.4</ele>
        <time>2026-02-02T13:42:53Z</time>
      </trkpt>
      <trkpt lat="45.98519" lon="6.55842">
        <ele>1865.4</ele>
        <time>2026-02-02T13:42:54Z</time>
      </trkpt>
      <trkpt lat="45.98519" lon="6.55842">
        <ele>1865.4</ele>
        <time>2026-02-02T13:42:55Z</time>
      </trkpt>
      <trkpt lat="45.98519" lon="6.55842">
        <ele>1865.4</ele>
        <time>2026-02-02T13:42:56Z</time>
      </trkpt>
      <trkpt lat="45.98519" lon="6.55842">
        <ele>1865.4</ele>
        <time>2026-02-02T13:42:57Z</time>
      </trkpt>
      <trkpt lat="45.98519" lon="6.55841">
        <ele>1865.4</ele>
        <time>2026-02-02T13:42:58Z</time>
      </trkpt>
      <trkpt lat="45.9852" lon="6.55841">
        <ele>1865.4</ele>
        <time>2026-02-02T13:42:59Z</time>
      </trkpt>
      <trkpt lat="45.98521" lon="6.55841">
        <ele>1863.6</ele>
        <time>2026-02-02T13:43:00Z</time>
      </trkpt>
      <trkpt lat="45.98522" lon="6.55841">
        <ele>1864.1</ele>
        <time>2026-02-02T13:43:01Z</time>
      </trkpt>
      <trkpt lat="45.98522" lon="6.5584">
        <ele>1864.1</ele>
        <time>2026-02-02T13:43:02Z</time>
      </trkpt>
      <trkpt lat="45.98523" lon="6.5584">
        <ele>1864.1</ele>
        <time>2026-02-02T13:43:03Z</time>
      </trkpt>
      <trkpt lat="45.98523" lon="6.55839">
        <ele>1864.1</ele>
        <time>2026-02-02T13:43:04Z</time>
      </trkpt>
      <trkpt lat="45.98523" lon="6.55839">
        <ele>1864.1</ele>
        <time>2026-02-02T13:43:05Z</time>
      </trkpt>
      <trkpt lat="45.98523" lon="6.55839">
        <ele>1864.1</ele>
        <time>2026-02-02T13:43:06Z</time>
      </trkpt>
      <trkpt lat="45.98524" lon="6.55838">
        <ele>1864.1</ele>
        <time>2026-02-02T13:43:07Z</time>
      </trkpt>
      <trkpt lat="45.98524" lon="6.55837">
        <ele>1864.1</ele>
        <time>2026-02-02T13:43:08Z</time>
      </trkpt>
      <trkpt lat="45.98524" lon="6.55837">
        <ele>1864.1</ele>
        <time>2026-02-02T13:43:09Z</time>
      </trkpt>
      <trkpt lat="45.98525" lon="6.55837">
        <ele>1864.7</ele>
        <time>2026-02-02T13:43:10Z</time>
      </trkpt>
      <trkpt lat="45.98525" lon="6.55837">
        <ele>1864.7</ele>
        <time>2026-02-02T13:43:11Z</time>
      </trkpt>
      <trkpt lat="45.98525" lon="6.55837">
        <ele>1864.7</ele>
        <time>2026-02-02T13:43:12Z</time>
      </trkpt>
      <trkpt lat="45.98525" lon="6.55837">
        <ele>1864.7</ele>
        <time>2026-02-02T13:43:13Z</time>
      </trkpt>
      <trkpt lat="45.98525" lon="6.55837">
        <ele>1864.7</ele>
        <time>2026-02-02T13:43:14Z</time>
      </trkpt>
      <trkpt lat="45.98525" lon="6.55837">
        <ele>1864.7</ele>
        <time>2026-02-02T13:43:15Z</time>
      </trkpt>
      <trkpt lat="45.98525" lon="6.55837">
        <ele>1864.7</ele>
        <time>2026-02-02T13:43:16Z</time>
      </trkpt>
      <trkpt lat="45.98525" lon="6.55837">
        <ele>1864.7</ele>
        <time>2026-02-02T13:43:17Z</time>
      </trkpt>
      <trkpt lat="45.98525" lon="6.55837">
        <ele>1864.7</ele>
        <time>2026-02-02T13:43:18Z</time>
      </trkpt>
      <trkpt lat="45.98525" lon="6.55838">
        <ele>1864.7</ele>
        <time>2026-02-02T13:43:19Z</time>
      </trkpt>
      <trkpt lat="45.98524" lon="6.55841">
        <ele>1865.9</ele>
        <time>2026-02-02T13:43:20Z</time>
      </trkpt>
      <trkpt lat="45.98524" lon="6.55843">
        <ele>1865.9</ele>
        <time>2026-02-02T13:43:21Z</time>
      </trkpt>
      <trkpt lat="45.98524" lon="6.55845">
        <ele>1865.9</ele>
        <time>2026-02-02T13:43:23Z</time>
      </trkpt>
      <trkpt lat="45.98523" lon="6.55847">
        <ele>1867.5</ele>
        <time>2026-02-02T13:43:24Z</time>
      </trkpt>
      <trkpt lat="45.98523" lon="6.55849">
        <ele>1867.5</ele>
        <time>2026-02-02T13:43:25Z</time>
      </trkpt>
      <trkpt lat="45.98523" lon="6.5585">
        <ele>1869.1</ele>
        <time>2026-02-02T13:43:26Z</time>
      </trkpt>
      <trkpt lat="45.98523" lon="6.5585">
        <ele>1869.1</ele>
        <time>2026-02-02T13:43:27Z</time>
      </trkpt>
      <trkpt lat="45.98523" lon="6.5585">
        <ele>1869.1</ele>
        <time>2026-02-02T13:43:28Z</time>
      </trkpt>
      <trkpt lat="45.98524" lon="6.5585">
        <ele>1869.1</ele>
        <time>2026-02-02T13:43:29Z</time>
      </trkpt>
      <trkpt lat="45.98524" lon="6.5585">
        <ele>1869.1</ele>
        <time>2026-02-02T13:43:30Z</time>
      </trkpt>
      <trkpt lat="45.98524" lon="6.55849">
        <ele>1868</ele>
        <time>2026-02-02T13:43:31Z</time>
      </trkpt>
      <trkpt lat="45.98525" lon="6.55849">
        <ele>1868</ele>
        <time>2026-02-02T13:43:32Z</time>
      </trkpt>
      <trkpt lat="45.98525" lon="6.55849">
        <ele>1868</ele>
        <time>2026-02-02T13:43:33Z</time>
      </trkpt>
      <trkpt lat="45.98525" lon="6.55849">
        <ele>1868</ele>
        <time>2026-02-02T13:43:35Z</time>
      </trkpt>
      <trkpt lat="45.98525" lon="6.55848">
        <ele>1868</ele>
        <time>2026-02-02T13:43:36Z</time>
      </trkpt>
      <trkpt lat="45.98525" lon="6.55848">
        <ele>1868</ele>
        <time>2026-02-02T13:43:37Z</time>
      </trkpt>
      <trkpt lat="45.98525" lon="6.55848">
        <ele>1868</ele>
        <time>2026-02-02T13:43:38Z</time>
      </trkpt>
      <trkpt lat="45.98525" lon="6.55848">
        <ele>1868</ele>
        <time>2026-02-02T13:43:39Z</time>
      </trkpt>
      <trkpt lat="45.98525" lon="6.55848">
        <ele>1868</ele>
        <time>2026-02-02T13:43:40Z</time>
      </trkpt>
      <trkpt lat="45.98525" lon="6.55848">
        <ele>1868</ele>
        <time>2026-02-02T13:43:41Z</time>
      </trkpt>
      <trkpt lat="45.98525" lon="6.55848">
        <ele>1868</ele>
        <time>2026-02-02T13:43:42Z</time>
      </trkpt>
      <trkpt lat="45.98525" lon="6.55848">
        <ele>1868</ele>
        <time>2026-02-02T13:43:43Z</time>
      </trkpt>
      <trkpt lat="45.98525" lon="6.55848">
        <ele>1868</ele>
        <time>2026-02-02T13:43:44Z</time>
      </trkpt>
      <trkpt lat="45.98525" lon="6.55848">
        <ele>1868</ele>
        <time>2026-02-02T13:43:45Z</time>
      </trkpt>
      <trkpt lat="45.98525" lon="6.55848">
        <ele>1868</ele>
        <time>2026-02-02T13:43:46Z</time>
      </trkpt>
      <trkpt lat="45.98525" lon="6.55848">
        <ele>1868</ele>
        <time>2026-02-02T13:43:47Z</time>
      </trkpt>
      <trkpt lat="45.98525" lon="6.55848">
        <ele>1868</ele>
        <time>2026-02-02T13:43:48Z</time>
      </trkpt>
      <trkpt lat="45.98525" lon="6.55847">
        <ele>1868</ele>
        <time>2026-02-02T13:43:49Z</time>
      </trkpt>
      <trkpt lat="45.98525" lon="6.55847">
        <ele>1868</ele>
        <time>2026-02-02T13:43:50Z</time>
      </trkpt>
      <trkpt lat="45.98525" lon="6.55847">
        <ele>1868</ele>
        <time>2026-02-02T13:43:51Z</time>
      </trkpt>
      <trkpt lat="45.98525" lon="6.55847">
        <ele>1868</ele>
        <time>2026-02-02T13:43:52Z</time>
      </trkpt>
      <trkpt lat="45.98525" lon="6.55847">
        <ele>1868</ele>
        <time>2026-02-02T13:43:53Z</time>
      </trkpt>
      <trkpt lat="45.98525" lon="6.55847">
        <ele>1868</ele>
        <time>2026-02-02T13:43:54Z</time>
      </trkpt>
      <trkpt lat="45.98525" lon="6.55847">
        <ele>1868</ele>
        <time>2026-02-02T13:43:55Z</time>
      </trkpt>
      <trkpt lat="45.98525" lon="6.55847">
        <ele>1868</ele>
        <time>2026-02-02T13:43:56Z</time>
      </trkpt>
      <trkpt lat="45.98525" lon="6.55847">
        <ele>1868</ele>
        <time>2026-02-02T13:43:57Z</time>
      </trkpt>
      <trkpt lat="45.98525" lon="6.55847">
        <ele>1868</ele>
        <time>2026-02-02T13:43:58Z</time>
      </trkpt>
      <trkpt lat="45.98525" lon="6.55847">
        <ele>1868</ele>
        <time>2026-02-02T13:43:59Z</time>
      </trkpt>
      <trkpt lat="45.98525" lon="6.55847">
        <ele>1868</ele>
        <time>2026-02-02T13:44:00Z</time>
      </trkpt>
      <trkpt lat="45.98525" lon="6.55847">
        <ele>1868</ele>
        <time>2026-02-02T13:44:01Z</time>
      </trkpt>
      <trkpt lat="45.98525" lon="6.55847">
        <ele>1868</ele>
        <time>2026-02-02T13:44:02Z</time>
      </trkpt>
      <trkpt lat="45.98525" lon="6.55847">
        <ele>1868</ele>
        <time>2026-02-02T13:44:03Z</time>
      </trkpt>
      <trkpt lat="45.98525" lon="6.55847">
        <ele>1868</ele>
        <time>2026-02-02T13:44:04Z</time>
      </trkpt>
      <trkpt lat="45.98525" lon="6.55847">
        <ele>1868</ele>
        <time>2026-02-02T13:44:05Z</time>
      </trkpt>
      <trkpt lat="45.98525" lon="6.55847">
        <ele>1868</ele>
        <time>2026-02-02T13:44:06Z</time>
      </trkpt>
      <trkpt lat="45.98525" lon="6.55846">
        <ele>1868</ele>
        <time>2026-02-02T13:44:07Z</time>
      </trkpt>
      <trkpt lat="45.98526" lon="6.55846">
        <ele>1868</ele>
        <time>2026-02-02T13:44:08Z</time>
      </trkpt>
      <trkpt lat="45.98527" lon="6.55846">
        <ele>1868</ele>
        <time>2026-02-02T13:44:09Z</time>
      </trkpt>
      <trkpt lat="45.98527" lon="6.55846">
        <ele>1868</ele>
        <time>2026-02-02T13:44:10Z</time>
      </trkpt>
      <trkpt lat="45.98528" lon="6.55847">
        <ele>1868.6</ele>
        <time>2026-02-02T13:44:11Z</time>
      </trkpt>
      <trkpt lat="45.98528" lon="6.55847">
        <ele>1868.6</ele>
        <time>2026-02-02T13:44:12Z</time>
      </trkpt>
      <trkpt lat="45.98529" lon="6.55847">
        <ele>1868.6</ele>
        <time>2026-02-02T13:44:13Z</time>
      </trkpt>
      <trkpt lat="45.9853" lon="6.55846">
        <ele>1868.6</ele>
        <time>2026-02-02T13:44:14Z</time>
      </trkpt>
      <trkpt lat="45.9853" lon="6.55846">
        <ele>1868.6</ele>
        <time>2026-02-02T13:44:15Z</time>
      </trkpt>
      <trkpt lat="45.98531" lon="6.55845">
        <ele>1869.2</ele>
        <time>2026-02-02T13:44:16Z</time>
      </trkpt>
      <trkpt lat="45.98531" lon="6.55845">
        <ele>1869.2</ele>
        <time>2026-02-02T13:44:17Z</time>
      </trkpt>
      <trkpt lat="45.98532" lon="6.55845">
        <ele>1869.2</ele>
        <time>2026-02-02T13:44:18Z</time>
      </trkpt>
      <trkpt lat="45.98532" lon="6.55845">
        <ele>1869.2</ele>
        <time>2026-02-02T13:44:19Z</time>
      </trkpt>
      <trkpt lat="45.98533" lon="6.55845">
        <ele>1869.2</ele>
        <time>2026-02-02T13:44:20Z</time>
      </trkpt>
      <trkpt lat="45.98534" lon="6.55845">
        <ele>1869.8</ele>
        <time>2026-02-02T13:44:21Z</time>
      </trkpt>
      <trkpt lat="45.98534" lon="6.55846">
        <ele>1869.8</ele>
        <time>2026-02-02T13:44:22Z</time>
      </trkpt>
      <trkpt lat="45.98535" lon="6.55846">
        <ele>1869.8</ele>
        <time>2026-02-02T13:44:23Z</time>
      </trkpt>
      <trkpt lat="45.98536" lon="6.55846">
        <ele>1869.8</ele>
        <time>2026-02-02T13:44:24Z</time>
      </trkpt>
      <trkpt lat="45.98537" lon="6.55846">
        <ele>1870.4</ele>
        <time>2026-02-02T13:44:25Z</time>
      </trkpt>
      <trkpt lat="45.98537" lon="6.55846">
        <ele>1870.4</ele>
        <time>2026-02-02T13:44:26Z</time>
      </trkpt>
      <trkpt lat="45.98537" lon="6.55845">
        <ele>1870.4</ele>
        <time>2026-02-02T13:44:27Z</time>
      </trkpt>
      <trkpt lat="45.98537" lon="6.55846">
        <ele>1870.4</ele>
        <time>2026-02-02T13:44:28Z</time>
      </trkpt>
      <trkpt lat="45.98537" lon="6.55846">
        <ele>1870.4</ele>
        <time>2026-02-02T13:44:29Z</time>
      </trkpt>
      <trkpt lat="45.98537" lon="6.55846">
        <ele>1870.4</ele>
        <time>2026-02-02T13:44:30Z</time>
      </trkpt>
      <trkpt lat="45.98537" lon="6.55846">
        <ele>1870.4</ele>
        <time>2026-02-02T13:44:31Z</time>
      </trkpt>
      <trkpt lat="45.98537" lon="6.55845">
        <ele>1868.8</ele>
        <time>2026-02-02T13:44:33Z</time>
      </trkpt>
      <trkpt lat="45.98537" lon="6.55845">
        <ele>1868.8</ele>
        <time>2026-02-02T13:44:34Z</time>
      </trkpt>
      <trkpt lat="45.98537" lon="6.55845">
        <ele>1868.8</ele>
        <time>2026-02-02T13:44:35Z</time>
      </trkpt>
      <trkpt lat="45.98537" lon="6.55845">
        <ele>1868.8</ele>
        <time>2026-02-02T13:44:36Z</time>
      </trkpt>
      <trkpt lat="45.98537" lon="6.55845">
        <ele>1868.8</ele>
        <time>2026-02-02T13:44:37Z</time>
      </trkpt>
      <trkpt lat="45.98537" lon="6.55845">
        <ele>1868.8</ele>
        <time>2026-02-02T13:44:38Z</time>
      </trkpt>
      <trkpt lat="45.98537" lon="6.55845">
        <ele>1868.8</ele>
        <time>2026-02-02T13:44:39Z</time>
      </trkpt>
      <trkpt lat="45.98537" lon="6.55845">
        <ele>1868.8</ele>
        <time>2026-02-02T13:44:40Z</time>
      </trkpt>
      <trkpt lat="45.98537" lon="6.55845">
        <ele>1868.8</ele>
        <time>2026-02-02T13:44:41Z</time>
      </trkpt>
      <trkpt lat="45.98537" lon="6.55845">
        <ele>1868.8</ele>
        <time>2026-02-02T13:44:42Z</time>
      </trkpt>
      <trkpt lat="45.98538" lon="6.55845">
        <ele>1868.8</ele>
        <time>2026-02-02T13:44:43Z</time>
      </trkpt>
      <trkpt lat="45.98538" lon="6.55845">
        <ele>1870.4</ele>
        <time>2026-02-02T13:44:44Z</time>
      </trkpt>
      <trkpt lat="45.98538" lon="6.55846">
        <ele>1870.4</ele>
        <time>2026-02-02T13:44:45Z</time>
      </trkpt>
      <trkpt lat="45.98538" lon="6.55845">
        <ele>1868.8</ele>
        <time>2026-02-02T13:44:46Z</time>
      </trkpt>
      <trkpt lat="45.98539" lon="6.55845">
        <ele>1868.8</ele>
        <time>2026-02-02T13:44:47Z</time>
      </trkpt>
      <trkpt lat="45.9854" lon="6.55845">
        <ele>1869.4</ele>
        <time>2026-02-02T13:44:48Z</time>
      </trkpt>
      <trkpt lat="45.9854" lon="6.55845">
        <ele>1870.9</ele>
        <time>2026-02-02T13:44:49Z</time>
      </trkpt>
      <trkpt lat="45.98541" lon="6.55845">
        <ele>1870.9</ele>
        <time>2026-02-02T13:44:50Z</time>
      </trkpt>
      <trkpt lat="45.98542" lon="6.55845">
        <ele>1869.4</ele>
        <time>2026-02-02T13:44:51Z</time>
      </trkpt>
      <trkpt lat="45.98543" lon="6.55845">
        <ele>1870.1</ele>
        <time>2026-02-02T13:44:52Z</time>
      </trkpt>
      <trkpt lat="45.98544" lon="6.55845">
        <ele>1870.1</ele>
        <time>2026-02-02T13:44:53Z</time>
      </trkpt>
      <trkpt lat="45.98544" lon="6.55845">
        <ele>1870.1</ele>
        <time>2026-02-02T13:44:54Z</time>
      </trkpt>
      <trkpt lat="45.98546" lon="6.55845">
        <ele>1870.8</ele>
        <time>2026-02-02T13:44:55Z</time>
      </trkpt>
      <trkpt lat="45.98547" lon="6.55845">
        <ele>1870.8</ele>
        <time>2026-02-02T13:44:56Z</time>
      </trkpt>
      <trkpt lat="45.98548" lon="6.55845">
        <ele>1871.5</ele>
        <time>2026-02-02T13:44:57Z</time>
      </trkpt>
      <trkpt lat="45.98549" lon="6.55845">
        <ele>1871.5</ele>
        <time>2026-02-02T13:44:58Z</time>
      </trkpt>
      <trkpt lat="45.98549" lon="6.55844">
        <ele>1871.5</ele>
        <time>2026-02-02T13:44:59Z</time>
      </trkpt>
      <trkpt lat="45.98549" lon="6.55844">
        <ele>1871.5</ele>
        <time>2026-02-02T13:45:00Z</time>
      </trkpt>
      <trkpt lat="45.98549" lon="6.55844">
        <ele>1871.5</ele>
        <time>2026-02-02T13:45:01Z</time>
      </trkpt>
      <trkpt lat="45.9855" lon="6.55843">
        <ele>1871.5</ele>
        <time>2026-02-02T13:45:02Z</time>
      </trkpt>
      <trkpt lat="45.9855" lon="6.55843">
        <ele>1871.5</ele>
        <time>2026-02-02T13:45:03Z</time>
      </trkpt>
      <trkpt lat="45.98551" lon="6.55843">
        <ele>1871.5</ele>
        <time>2026-02-02T13:45:04Z</time>
      </trkpt>
      <trkpt lat="45.98552" lon="6.55842">
        <ele>1872.3</ele>
        <time>2026-02-02T13:45:05Z</time>
      </trkpt>
      <trkpt lat="45.98552" lon="6.55842">
        <ele>1872.3</ele>
        <time>2026-02-02T13:45:06Z</time>
      </trkpt>
      <trkpt lat="45.98553" lon="6.55841">
        <ele>1872.3</ele>
        <time>2026-02-02T13:45:07Z</time>
      </trkpt>
      <trkpt lat="45.98554" lon="6.55841">
        <ele>1872.3</ele>
        <time>2026-02-02T13:45:08Z</time>
      </trkpt>
      <trkpt lat="45.98554" lon="6.55841">
        <ele>1870.8</ele>
        <time>2026-02-02T13:45:09Z</time>
      </trkpt>
      <trkpt lat="45.98555" lon="6.5584">
        <ele>1871.6</ele>
        <time>2026-02-02T13:45:10Z</time>
      </trkpt>
      <trkpt lat="45.98556" lon="6.5584">
        <ele>1871.6</ele>
        <time>2026-02-02T13:45:11Z</time>
      </trkpt>
      <trkpt lat="45.98556" lon="6.5584">
        <ele>1871.6</ele>
        <time>2026-02-02T13:45:12Z</time>
      </trkpt>
      <trkpt lat="45.98557" lon="6.55841">
        <ele>1873.2</ele>
        <time>2026-02-02T13:45:13Z</time>
      </trkpt>
      <trkpt lat="45.98557" lon="6.55842">
        <ele>1873.2</ele>
        <time>2026-02-02T13:45:14Z</time>
      </trkpt>
      <trkpt lat="45.98557" lon="6.55843">
        <ele>1873.2</ele>
        <time>2026-02-02T13:45:15Z</time>
      </trkpt>
      <trkpt lat="45.98557" lon="6.55843">
        <ele>1873.2</ele>
        <time>2026-02-02T13:45:16Z</time>
      </trkpt>
      <trkpt lat="45.98557" lon="6.55843">
        <ele>1873.2</ele>
        <time>2026-02-02T13:45:17Z</time>
      </trkpt>
      <trkpt lat="45.98557" lon="6.55843">
        <ele>1873.2</ele>
        <time>2026-02-02T13:45:18Z</time>
      </trkpt>
      <trkpt lat="45.98557" lon="6.55843">
        <ele>1873.2</ele>
        <time>2026-02-02T13:45:19Z</time>
      </trkpt>
      <trkpt lat="45.98557" lon="6.55843">
        <ele>1873.2</ele>
        <time>2026-02-02T13:45:20Z</time>
      </trkpt>
      <trkpt lat="45.98557" lon="6.55843">
        <ele>1874</ele>
        <time>2026-02-02T13:45:21Z</time>
      </trkpt>
      <trkpt lat="45.98557" lon="6.55843">
        <ele>1874</ele>
        <time>2026-02-02T13:45:22Z</time>
      </trkpt>
      <trkpt lat="45.98557" lon="6.55843">
        <ele>1874</ele>
        <time>2026-02-02T13:45:23Z</time>
      </trkpt>
      <trkpt lat="45.98557" lon="6.55843">
        <ele>1874</ele>
        <time>2026-02-02T13:45:24Z</time>
      </trkpt>
      <trkpt lat="45.98557" lon="6.55843">
        <ele>1874</ele>
        <time>2026-02-02T13:45:25Z</time>
      </trkpt>
      <trkpt lat="45.98557" lon="6.55843">
        <ele>1874</ele>
        <time>2026-02-02T13:45:26Z</time>
      </trkpt>
      <trkpt lat="45.98557" lon="6.55843">
        <ele>1874</ele>
        <time>2026-02-02T13:45:27Z</time>
      </trkpt>
      <trkpt lat="45.98557" lon="6.55843">
        <ele>1874</ele>
        <time>2026-02-02T13:45:28Z</time>
      </trkpt>
      <trkpt lat="45.98557" lon="6.55843">
        <ele>1874</ele>
        <time>2026-02-02T13:45:29Z</time>
      </trkpt>
      <trkpt lat="45.98557" lon="6.55842">
        <ele>1874</ele>
        <time>2026-02-02T13:45:30Z</time>
      </trkpt>
      <trkpt lat="45.98557" lon="6.55842">
        <ele>1874</ele>
        <time>2026-02-02T13:45:31Z</time>
      </trkpt>
      <trkpt lat="45.98557" lon="6.55842">
        <ele>1874</ele>
        <time>2026-02-02T13:45:32Z</time>
      </trkpt>
      <trkpt lat="45.98557" lon="6.55842">
        <ele>1874</ele>
        <time>2026-02-02T13:45:33Z</time>
      </trkpt>
      <trkpt lat="45.98557" lon="6.55842">
        <ele>1874</ele>
        <time>2026-02-02T13:45:34Z</time>
      </trkpt>
      <trkpt lat="45.98557" lon="6.55842">
        <ele>1874</ele>
        <time>2026-02-02T13:45:35Z</time>
      </trkpt>
      <trkpt lat="45.98557" lon="6.55842">
        <ele>1874</ele>
        <time>2026-02-02T13:45:36Z</time>
      </trkpt>
      <trkpt lat="45.98557" lon="6.55842">
        <ele>1874</ele>
        <time>2026-02-02T13:45:37Z</time>
      </trkpt>
      <trkpt lat="45.98557" lon="6.55842">
        <ele>1874</ele>
        <time>2026-02-02T13:45:38Z</time>
      </trkpt>
      <trkpt lat="45.98557" lon="6.55842">
        <ele>1874</ele>
        <time>2026-02-02T13:45:39Z</time>
      </trkpt>
      <trkpt lat="45.98557" lon="6.55842">
        <ele>1874</ele>
        <time>2026-02-02T13:45:40Z</time>
      </trkpt>
      <trkpt lat="45.98557" lon="6.55842">
        <ele>1874</ele>
        <time>2026-02-02T13:45:41Z</time>
      </trkpt>
      <trkpt lat="45.98557" lon="6.55842">
        <ele>1874</ele>
        <time>2026-02-02T13:45:42Z</time>
      </trkpt>
      <trkpt lat="45.98557" lon="6.55842">
        <ele>1874</ele>
        <time>2026-02-02T13:45:43Z</time>
      </trkpt>
      <trkpt lat="45.98557" lon="6.55843">
        <ele>1873.2</ele>
        <time>2026-02-02T13:45:44Z</time>
      </trkpt>
      <trkpt lat="45.98557" lon="6.55843">
        <ele>1873.2</ele>
        <time>2026-02-02T13:45:45Z</time>
      </trkpt>
      <trkpt lat="45.98557" lon="6.55843">
        <ele>1874</ele>
        <time>2026-02-02T13:45:46Z</time>
      </trkpt>
      <trkpt lat="45.98557" lon="6.55844">
        <ele>1874</ele>
        <time>2026-02-02T13:45:47Z</time>
      </trkpt>
      <trkpt lat="45.98557" lon="6.55845">
        <ele>1874.6</ele>
        <time>2026-02-02T13:45:48Z</time>
      </trkpt>
      <trkpt lat="45.98556" lon="6.55847">
        <ele>1874.6</ele>
        <time>2026-02-02T13:45:49Z</time>
      </trkpt>
      <trkpt lat="45.98555" lon="6.55849">
        <ele>1874.6</ele>
        <time>2026-02-02T13:45:50Z</time>
      </trkpt>
      <trkpt lat="45.98555" lon="6.55851">
        <ele>1876</ele>
        <time>2026-02-02T13:45:51Z</time>
      </trkpt>
      <trkpt lat="45.98555" lon="6.55852">
        <ele>1876</ele>
        <time>2026-02-02T13:45:52Z</time>
      </trkpt>
      <trkpt lat="45.98554" lon="6.55854">
        <ele>1875.2</ele>
        <time>2026-02-02T13:45:53Z</time>
      </trkpt>
      <trkpt lat="45.98553" lon="6.55856">
        <ele>1876.5</ele>
        <time>2026-02-02T13:45:54Z</time>
      </trkpt>
      <trkpt lat="45.98553" lon="6.55857">
        <ele>1876.5</ele>
        <time>2026-02-02T13:45:55Z</time>
      </trkpt>
      <trkpt lat="45.98552" lon="6.55858">
        <ele>1876.5</ele>
        <time>2026-02-02T13:45:56Z</time>
      </trkpt>
      <trkpt lat="45.98552" lon="6.55859">
        <ele>1878</ele>
        <time>2026-02-02T13:45:57Z</time>
      </trkpt>
      <trkpt lat="45.98551" lon="6.55859">
        <ele>1878</ele>
        <time>2026-02-02T13:45:58Z</time>
      </trkpt>
      <trkpt lat="45.98551" lon="6.5586">
        <ele>1877.2</ele>
        <time>2026-02-02T13:45:59Z</time>
      </trkpt>
      <trkpt lat="45.9855" lon="6.55861">
        <ele>1877.2</ele>
        <time>2026-02-02T13:46:00Z</time>
      </trkpt>
      <trkpt lat="45.98549" lon="6.55862">
        <ele>1877.2</ele>
        <time>2026-02-02T13:46:01Z</time>
      </trkpt>
      <trkpt lat="45.98549" lon="6.55863">
        <ele>1878.8</ele>
        <time>2026-02-02T13:46:02Z</time>
      </trkpt>
      <trkpt lat="45.98548" lon="6.55864">
        <ele>1878.1</ele>
        <time>2026-02-02T13:46:03Z</time>
      </trkpt>
      <trkpt lat="45.98548" lon="6.55865">
        <ele>1878.1</ele>
        <time>2026-02-02T13:46:04Z</time>
      </trkpt>
      <trkpt lat="45.98548" lon="6.55866">
        <ele>1878.1</ele>
        <time>2026-02-02T13:46:05Z</time>
      </trkpt>
      <trkpt lat="45.98547" lon="6.55867">
        <ele>1879.7</ele>
        <time>2026-02-02T13:46:06Z</time>
      </trkpt>
      <trkpt lat="45.98547" lon="6.55868">
        <ele>1879.7</ele>
        <time>2026-02-02T13:46:07Z</time>
      </trkpt>
      <trkpt lat="45.98547" lon="6.5587">
        <ele>1879.7</ele>
        <time>2026-02-02T13:46:08Z</time>
      </trkpt>
      <trkpt lat="45.98547" lon="6.55871">
        <ele>1879.7</ele>
        <time>2026-02-02T13:46:09Z</time>
      </trkpt>
      <trkpt lat="45.98546" lon="6.55872">
        <ele>1881.3</ele>
        <time>2026-02-02T13:46:10Z</time>
      </trkpt>
      <trkpt lat="45.98546" lon="6.55873">
        <ele>1881.3</ele>
        <time>2026-02-02T13:46:11Z</time>
      </trkpt>
      <trkpt lat="45.98546" lon="6.55874">
        <ele>1881.3</ele>
        <time>2026-02-02T13:46:12Z</time>
      </trkpt>
      <trkpt lat="45.98546" lon="6.55875">
        <ele>1881.3</ele>
        <time>2026-02-02T13:46:13Z</time>
      </trkpt>
      <trkpt lat="45.98546" lon="6.55875">
        <ele>1881.3</ele>
        <time>2026-02-02T13:46:14Z</time>
      </trkpt>
      <trkpt lat="45.98546" lon="6.55875">
        <ele>1883</ele>
        <time>2026-02-02T13:46:15Z</time>
      </trkpt>
      <trkpt lat="45.98546" lon="6.55875">
        <ele>1883</ele>
        <time>2026-02-02T13:46:16Z</time>
      </trkpt>
      <trkpt lat="45.98546" lon="6.55876">
        <ele>1883</ele>
        <time>2026-02-02T13:46:17Z</time>
      </trkpt>
      <trkpt lat="45.98546" lon="6.55876">
        <ele>1883</ele>
        <time>2026-02-02T13:46:18Z</time>
      </trkpt>
      <trkpt lat="45.98546" lon="6.55876">
        <ele>1883</ele>
        <time>2026-02-02T13:46:19Z</time>
      </trkpt>
      <trkpt lat="45.98546" lon="6.55876">
        <ele>1883</ele>
        <time>2026-02-02T13:46:20Z</time>
      </trkpt>
      <trkpt lat="45.98545" lon="6.55876">
        <ele>1883</ele>
        <time>2026-02-02T13:46:21Z</time>
      </trkpt>
      <trkpt lat="45.98545" lon="6.55876">
        <ele>1883</ele>
        <time>2026-02-02T13:46:22Z</time>
      </trkpt>
      <trkpt lat="45.98545" lon="6.55877">
        <ele>1883</ele>
        <time>2026-02-02T13:46:23Z</time>
      </trkpt>
      <trkpt lat="45.98545" lon="6.55877">
        <ele>1883</ele>
        <time>2026-02-02T13:46:24Z</time>
      </trkpt>
      <trkpt lat="45.98545" lon="6.55877">
        <ele>1883</ele>
        <time>2026-02-02T13:46:25Z</time>
      </trkpt>
      <trkpt lat="45.98545" lon="6.55877">
        <ele>1883</ele>
        <time>2026-02-02T13:46:26Z</time>
      </trkpt>
      <trkpt lat="45.98545" lon="6.55877">
        <ele>1882.5</ele>
        <time>2026-02-02T13:46:27Z</time>
      </trkpt>
      <trkpt lat="45.98545" lon="6.55877">
        <ele>1882.5</ele>
        <time>2026-02-02T13:46:28Z</time>
      </trkpt>
      <trkpt lat="45.98545" lon="6.55878">
        <ele>1882.5</ele>
        <time>2026-02-02T13:46:29Z</time>
      </trkpt>
      <trkpt lat="45.98545" lon="6.55878">
        <ele>1882.5</ele>
        <time>2026-02-02T13:46:30Z</time>
      </trkpt>
      <trkpt lat="45.98545" lon="6.55878">
        <ele>1882.5</ele>
        <time>2026-02-02T13:46:31Z</time>
      </trkpt>
      <trkpt lat="45.98545" lon="6.55878">
        <ele>1882.5</ele>
        <time>2026-02-02T13:46:32Z</time>
      </trkpt>
      <trkpt lat="45.98545" lon="6.55878">
        <ele>1882.5</ele>
        <time>2026-02-02T13:46:33Z</time>
      </trkpt>
      <trkpt lat="45.98545" lon="6.55878">
        <ele>1882.5</ele>
        <time>2026-02-02T13:46:34Z</time>
      </trkpt>
      <trkpt lat="45.98545" lon="6.55878">
        <ele>1882.5</ele>
        <time>2026-02-02T13:46:35Z</time>
      </trkpt>
      <trkpt lat="45.98545" lon="6.55879">
        <ele>1882.5</ele>
        <time>2026-02-02T13:46:36Z</time>
      </trkpt>
      <trkpt lat="45.98545" lon="6.55879">
        <ele>1882.5</ele>
        <time>2026-02-02T13:46:37Z</time>
      </trkpt>
      <trkpt lat="45.98545" lon="6.55879">
        <ele>1882.5</ele>
        <time>2026-02-02T13:46:38Z</time>
      </trkpt>
      <trkpt lat="45.98545" lon="6.55879">
        <ele>1882.5</ele>
        <time>2026-02-02T13:46:39Z</time>
      </trkpt>
      <trkpt lat="45.98545" lon="6.55879">
        <ele>1882.5</ele>
        <time>2026-02-02T13:46:40Z</time>
      </trkpt>
      <trkpt lat="45.98544" lon="6.55881">
        <ele>1884.1</ele>
        <time>2026-02-02T13:46:41Z</time>
      </trkpt>
      <trkpt lat="45.98544" lon="6.55881">
        <ele>1884.1</ele>
        <time>2026-02-02T13:46:42Z</time>
      </trkpt>
      <trkpt lat="45.98544" lon="6.55883">
        <ele>1884.1</ele>
        <time>2026-02-02T13:46:43Z</time>
      </trkpt>
      <trkpt lat="45.98544" lon="6.55884">
        <ele>1884.1</ele>
        <time>2026-02-02T13:46:44Z</time>
      </trkpt>
      <trkpt lat="45.98545" lon="6.55884">
        <ele>1884.1</ele>
        <time>2026-02-02T13:46:45Z</time>
      </trkpt>
      <trkpt lat="45.98544" lon="6.55886">
        <ele>1886.8</ele>
        <time>2026-02-02T13:46:46Z</time>
      </trkpt>
      <trkpt lat="45.98542" lon="6.55887">
        <ele>1886.3</ele>
        <time>2026-02-02T13:46:47Z</time>
      </trkpt>
      <trkpt lat="45.98542" lon="6.55888">
        <ele>1886.3</ele>
        <time>2026-02-02T13:46:48Z</time>
      </trkpt>
      <trkpt lat="45.98541" lon="6.55889">
        <ele>1887.9</ele>
        <time>2026-02-02T13:46:49Z</time>
      </trkpt>
      <trkpt lat="45.98541" lon="6.55889">
        <ele>1887.9</ele>
        <time>2026-02-02T13:46:50Z</time>
      </trkpt>
      <trkpt lat="45.98541" lon="6.5589">
        <ele>1887.9</ele>
        <time>2026-02-02T13:46:51Z</time>
      </trkpt>
      <trkpt lat="45.9854" lon="6.55892">
        <ele>1887.9</ele>
        <time>2026-02-02T13:46:52Z</time>
      </trkpt>
      <trkpt lat="45.9854" lon="6.55893">
        <ele>1889.4</ele>
        <time>2026-02-02T13:46:53Z</time>
      </trkpt>
      <trkpt lat="45.9854" lon="6.55894">
        <ele>1889.4</ele>
        <time>2026-02-02T13:46:54Z</time>
      </trkpt>
      <trkpt lat="45.9854" lon="6.55895">
        <ele>1889.4</ele>
        <time>2026-02-02T13:46:55Z</time>
      </trkpt>
      <trkpt lat="45.98539" lon="6.55896">
        <ele>1889.4</ele>
        <time>2026-02-02T13:46:56Z</time>
      </trkpt>
      <trkpt lat="45.98539" lon="6.55897">
        <ele>1890.4</ele>
        <time>2026-02-02T13:46:57Z</time>
      </trkpt>
      <trkpt lat="45.98539" lon="6.55898">
        <ele>1890.4</ele>
        <time>2026-02-02T13:46:58Z</time>
      </trkpt>
      <trkpt lat="45.98539" lon="6.55899">
        <ele>1890.4</ele>
        <time>2026-02-02T13:46:59Z</time>
      </trkpt>
      <trkpt lat="45.98539" lon="6.559">
        <ele>1890.4</ele>
        <time>2026-02-02T13:47:00Z</time>
      </trkpt>
      <trkpt lat="45.98538" lon="6.55901">
        <ele>1890.4</ele>
        <time>2026-02-02T13:47:01Z</time>
      </trkpt>
      <trkpt lat="45.98538" lon="6.55901">
        <ele>1891.9</ele>
        <time>2026-02-02T13:47:02Z</time>
      </trkpt>
      <trkpt lat="45.98538" lon="6.55901">
        <ele>1891.9</ele>
        <time>2026-02-02T13:47:03Z</time>
      </trkpt>
      <trkpt lat="45.98538" lon="6.55901">
        <ele>1891.9</ele>
        <time>2026-02-02T13:47:04Z</time>
      </trkpt>
      <trkpt lat="45.98538" lon="6.55901">
        <ele>1890.4</ele>
        <time>2026-02-02T13:47:05Z</time>
      </trkpt>
      <trkpt lat="45.98539" lon="6.559">
        <ele>1890.4</ele>
        <time>2026-02-02T13:47:06Z</time>
      </trkpt>
      <trkpt lat="45.98539" lon="6.559">
        <ele>1890.4</ele>
        <time>2026-02-02T13:47:07Z</time>
      </trkpt>
      <trkpt lat="45.98539" lon="6.559">
        <ele>1890.4</ele>
        <time>2026-02-02T13:47:08Z</time>
      </trkpt>
      <trkpt lat="45.98539" lon="6.559">
        <ele>1890.4</ele>
        <time>2026-02-02T13:47:09Z</time>
      </trkpt>
      <trkpt lat="45.98539" lon="6.559">
        <ele>1890.4</ele>
        <time>2026-02-02T13:47:10Z</time>
      </trkpt>
      <trkpt lat="45.98539" lon="6.559">
        <ele>1890.4</ele>
        <time>2026-02-02T13:47:11Z</time>
      </trkpt>
      <trkpt lat="45.98539" lon="6.559">
        <ele>1890.4</ele>
        <time>2026-02-02T13:47:12Z</time>
      </trkpt>
      <trkpt lat="45.98539" lon="6.559">
        <ele>1890.4</ele>
        <time>2026-02-02T13:47:14Z</time>
      </trkpt>
      <trkpt lat="45.98539" lon="6.55901">
        <ele>1890.4</ele>
        <time>2026-02-02T13:47:15Z</time>
      </trkpt>
      <trkpt lat="45.98539" lon="6.55901">
        <ele>1890.4</ele>
        <time>2026-02-02T13:47:16Z</time>
      </trkpt>
      <trkpt lat="45.98539" lon="6.55901">
        <ele>1890.4</ele>
        <time>2026-02-02T13:47:17Z</time>
      </trkpt>
      <trkpt lat="45.98539" lon="6.559">
        <ele>1890.4</ele>
        <time>2026-02-02T13:47:18Z</time>
      </trkpt>
      <trkpt lat="45.98539" lon="6.559">
        <ele>1890.4</ele>
        <time>2026-02-02T13:47:19Z</time>
      </trkpt>
      <trkpt lat="45.98539" lon="6.55901">
        <ele>1890.4</ele>
        <time>2026-02-02T13:47:20Z</time>
      </trkpt>
      <trkpt lat="45.98539" lon="6.55901">
        <ele>1890.4</ele>
        <time>2026-02-02T13:47:21Z</time>
      </trkpt>
      <trkpt lat="45.98539" lon="6.55901">
        <ele>1890.4</ele>
        <time>2026-02-02T13:47:22Z</time>
      </trkpt>
      <trkpt lat="45.98539" lon="6.55901">
        <ele>1890.4</ele>
        <time>2026-02-02T13:47:23Z</time>
      </trkpt>
      <trkpt lat="45.98539" lon="6.55901">
        <ele>1890.4</ele>
        <time>2026-02-02T13:47:24Z</time>
      </trkpt>
      <trkpt lat="45.98539" lon="6.55901">
        <ele>1890.4</ele>
        <time>2026-02-02T13:47:25Z</time>
      </trkpt>
      <trkpt lat="45.98539" lon="6.55901">
        <ele>1891.9</ele>
        <time>2026-02-02T13:47:26Z</time>
      </trkpt>
      <trkpt lat="45.98539" lon="6.55902">
        <ele>1891.9</ele>
        <time>2026-02-02T13:47:27Z</time>
      </trkpt>
      <trkpt lat="45.98538" lon="6.55903">
        <ele>1891.9</ele>
        <time>2026-02-02T13:47:28Z</time>
      </trkpt>
      <trkpt lat="45.98538" lon="6.55903">
        <ele>1891.9</ele>
        <time>2026-02-02T13:47:29Z</time>
      </trkpt>
      <trkpt lat="45.98537" lon="6.55904">
        <ele>1891.9</ele>
        <time>2026-02-02T13:47:30Z</time>
      </trkpt>
      <trkpt lat="45.98537" lon="6.55905">
        <ele>1891.9</ele>
        <time>2026-02-02T13:47:31Z</time>
      </trkpt>
      <trkpt lat="45.98536" lon="6.55905">
        <ele>1893.1</ele>
        <time>2026-02-02T13:47:32Z</time>
      </trkpt>
      <trkpt lat="45.98535" lon="6.55906">
        <ele>1893.1</ele>
        <time>2026-02-02T13:47:33Z</time>
      </trkpt>
      <trkpt lat="45.98535" lon="6.55907">
        <ele>1893.1</ele>
        <time>2026-02-02T13:47:34Z</time>
      </trkpt>
      <trkpt lat="45.98534" lon="6.55907">
        <ele>1893.1</ele>
        <time>2026-02-02T13:47:35Z</time>
      </trkpt>
      <trkpt lat="45.98534" lon="6.55908">
        <ele>1893.1</ele>
        <time>2026-02-02T13:47:36Z</time>
      </trkpt>
      <trkpt lat="45.98533" lon="6.5591">
        <ele>1894.3</ele>
        <time>2026-02-02T13:47:37Z</time>
      </trkpt>
      <trkpt lat="45.98533" lon="6.55911">
        <ele>1894.3</ele>
        <time>2026-02-02T13:47:38Z</time>
      </trkpt>
      <trkpt lat="45.98532" lon="6.55912">
        <ele>1894.3</ele>
        <time>2026-02-02T13:47:39Z</time>
      </trkpt>
      <trkpt lat="45.98532" lon="6.55914">
        <ele>1894.3</ele>
        <time>2026-02-02T13:47:40Z</time>
      </trkpt>
      <trkpt lat="45.98531" lon="6.55915">
        <ele>1896</ele>
        <time>2026-02-02T13:47:41Z</time>
      </trkpt>
      <trkpt lat="45.98531" lon="6.55916">
        <ele>1896</ele>
        <time>2026-02-02T13:47:42Z</time>
      </trkpt>
      <trkpt lat="45.98532" lon="6.55916">
        <ele>1896</ele>
        <time>2026-02-02T13:47:43Z</time>
      </trkpt>
      <trkpt lat="45.98533" lon="6.55917">
        <ele>1896</ele>
        <time>2026-02-02T13:47:44Z</time>
      </trkpt>
      <trkpt lat="45.98533" lon="6.55917">
        <ele>1896</ele>
        <time>2026-02-02T13:47:45Z</time>
      </trkpt>
      <trkpt lat="45.98534" lon="6.55916">
        <ele>1896.4</ele>
        <time>2026-02-02T13:47:46Z</time>
      </trkpt>
      <trkpt lat="45.98534" lon="6.55915">
        <ele>1896.4</ele>
        <time>2026-02-02T13:47:47Z</time>
      </trkpt>
      <trkpt lat="45.98535" lon="6.55915">
        <ele>1896.4</ele>
        <time>2026-02-02T13:47:48Z</time>
      </trkpt>
      <trkpt lat="45.98536" lon="6.55915">
        <ele>1896.4</ele>
        <time>2026-02-02T13:47:49Z</time>
      </trkpt>
      <trkpt lat="45.98536" lon="6.55914">
        <ele>1896.4</ele>
        <time>2026-02-02T13:47:50Z</time>
      </trkpt>
      <trkpt lat="45.98536" lon="6.55914">
        <ele>1896.4</ele>
        <time>2026-02-02T13:47:51Z</time>
      </trkpt>
      <trkpt lat="45.98536" lon="6.55915">
        <ele>1896.4</ele>
        <time>2026-02-02T13:47:52Z</time>
      </trkpt>
      <trkpt lat="45.98536" lon="6.55915">
        <ele>1896.4</ele>
        <time>2026-02-02T13:47:53Z</time>
      </trkpt>
      <trkpt lat="45.98535" lon="6.55915">
        <ele>1896.4</ele>
        <time>2026-02-02T13:47:54Z</time>
      </trkpt>
      <trkpt lat="45.98535" lon="6.55915">
        <ele>1896.4</ele>
        <time>2026-02-02T13:47:55Z</time>
      </trkpt>
      <trkpt lat="45.98535" lon="6.55915">
        <ele>1896.4</ele>
        <time>2026-02-02T13:47:56Z</time>
      </trkpt>
      <trkpt lat="45.98536" lon="6.55915">
        <ele>1896.4</ele>
        <time>2026-02-02T13:47:57Z</time>
      </trkpt>
      <trkpt lat="45.98536" lon="6.55915">
        <ele>1896.4</ele>
        <time>2026-02-02T13:47:58Z</time>
      </trkpt>
      <trkpt lat="45.98536" lon="6.55915">
        <ele>1896.4</ele>
        <time>2026-02-02T13:47:59Z</time>
      </trkpt>
      <trkpt lat="45.98535" lon="6.55915">
        <ele>1896.4</ele>
        <time>2026-02-02T13:48:00Z</time>
      </trkpt>
      <trkpt lat="45.98536" lon="6.55915">
        <ele>1896.4</ele>
        <time>2026-02-02T13:48:01Z</time>
      </trkpt>
      <trkpt lat="45.98536" lon="6.55915">
        <ele>1896.4</ele>
        <time>2026-02-02T13:48:02Z</time>
      </trkpt>
      <trkpt lat="45.98536" lon="6.55914">
        <ele>1896.4</ele>
        <time>2026-02-02T13:48:03Z</time>
      </trkpt>
      <trkpt lat="45.98536" lon="6.55914">
        <ele>1896.4</ele>
        <time>2026-02-02T13:48:04Z</time>
      </trkpt>
      <trkpt lat="45.98536" lon="6.55915">
        <ele>1896.4</ele>
        <time>2026-02-02T13:48:05Z</time>
      </trkpt>
      <trkpt lat="45.98537" lon="6.55915">
        <ele>1896.7</ele>
        <time>2026-02-02T13:48:06Z</time>
      </trkpt>
      <trkpt lat="45.98537" lon="6.55915">
        <ele>1896.7</ele>
        <time>2026-02-02T13:48:07Z</time>
      </trkpt>
      <trkpt lat="45.98538" lon="6.55915">
        <ele>1896.7</ele>
        <time>2026-02-02T13:48:08Z</time>
      </trkpt>
      <trkpt lat="45.98539" lon="6.55915">
        <ele>1896.7</ele>
        <time>2026-02-02T13:48:09Z</time>
      </trkpt>
      <trkpt lat="45.9854" lon="6.55916">
        <ele>1897.1</ele>
        <time>2026-02-02T13:48:10Z</time>
      </trkpt>
      <trkpt lat="45.98541" lon="6.55916">
        <ele>1897.1</ele>
        <time>2026-02-02T13:48:11Z</time>
      </trkpt>
      <trkpt lat="45.98541" lon="6.55916">
        <ele>1897.1</ele>
        <time>2026-02-02T13:48:12Z</time>
      </trkpt>
      <trkpt lat="45.98542" lon="6.55916">
        <ele>1897.1</ele>
        <time>2026-02-02T13:48:13Z</time>
      </trkpt>
      <trkpt lat="45.98542" lon="6.55917">
        <ele>1897.1</ele>
        <time>2026-02-02T13:48:14Z</time>
      </trkpt>
      <trkpt lat="45.98543" lon="6.55918">
        <ele>1897.5</ele>
        <time>2026-02-02T13:48:15Z</time>
      </trkpt>
      <trkpt lat="45.98544" lon="6.55918">
        <ele>1897.5</ele>
        <time>2026-02-02T13:48:16Z</time>
      </trkpt>
      <trkpt lat="45.98545" lon="6.55918">
        <ele>1897.5</ele>
        <time>2026-02-02T13:48:17Z</time>
      </trkpt>
      <trkpt lat="45.98546" lon="6.55918">
        <ele>1899.6</ele>
        <time>2026-02-02T13:48:18Z</time>
      </trkpt>
      <trkpt lat="45.98546" lon="6.55918">
        <ele>1899.6</ele>
        <time>2026-02-02T13:48:19Z</time>
      </trkpt>
      <trkpt lat="45.98546" lon="6.55918">
        <ele>1897.9</ele>
        <time>2026-02-02T13:48:20Z</time>
      </trkpt>
      <trkpt lat="45.98547" lon="6.55918">
        <ele>1897.9</ele>
        <time>2026-02-02T13:48:21Z</time>
      </trkpt>
      <trkpt lat="45.98547" lon="6.55918">
        <ele>1897.9</ele>
        <time>2026-02-02T13:48:22Z</time>
      </trkpt>
      <trkpt lat="45.98547" lon="6.55918">
        <ele>1897.9</ele>
        <time>2026-02-02T13:48:23Z</time>
      </trkpt>
      <trkpt lat="45.98546" lon="6.55917">
        <ele>1897.9</ele>
        <time>2026-02-02T13:48:24Z</time>
      </trkpt>
      <trkpt lat="45.98546" lon="6.55917">
        <ele>1897.9</ele>
        <time>2026-02-02T13:48:25Z</time>
      </trkpt>
      <trkpt lat="45.98546" lon="6.55917">
        <ele>1897.9</ele>
        <time>2026-02-02T13:48:26Z</time>
      </trkpt>
      <trkpt lat="45.98546" lon="6.55917">
        <ele>1897.9</ele>
        <time>2026-02-02T13:48:27Z</time>
      </trkpt>
      <trkpt lat="45.98547" lon="6.55917">
        <ele>1897.9</ele>
        <time>2026-02-02T13:48:28Z</time>
      </trkpt>
      <trkpt lat="45.98547" lon="6.55917">
        <ele>1897.9</ele>
        <time>2026-02-02T13:48:29Z</time>
      </trkpt>
      <trkpt lat="45.98547" lon="6.55917">
        <ele>1897.9</ele>
        <time>2026-02-02T13:48:30Z</time>
      </trkpt>
      <trkpt lat="45.98547" lon="6.55917">
        <ele>1897.9</ele>
        <time>2026-02-02T13:48:31Z</time>
      </trkpt>
      <trkpt lat="45.98547" lon="6.55917">
        <ele>1897.9</ele>
        <time>2026-02-02T13:48:32Z</time>
      </trkpt>
      <trkpt lat="45.98547" lon="6.55917">
        <ele>1897.9</ele>
        <time>2026-02-02T13:48:33Z</time>
      </trkpt>
      <trkpt lat="45.98547" lon="6.55917">
        <ele>1897.9</ele>
        <time>2026-02-02T13:48:34Z</time>
      </trkpt>
      <trkpt lat="45.98547" lon="6.55917">
        <ele>1897.9</ele>
        <time>2026-02-02T13:48:35Z</time>
      </trkpt>
      <trkpt lat="45.98547" lon="6.55917">
        <ele>1897.9</ele>
        <time>2026-02-02T13:48:36Z</time>
      </trkpt>
      <trkpt lat="45.98547" lon="6.55916">
        <ele>1897.9</ele>
        <time>2026-02-02T13:48:37Z</time>
      </trkpt>
      <trkpt lat="45.98547" lon="6.55916">
        <ele>1897.9</ele>
        <time>2026-02-02T13:48:38Z</time>
      </trkpt>
      <trkpt lat="45.98547" lon="6.55917">
        <ele>1897.9</ele>
        <time>2026-02-02T13:48:39Z</time>
      </trkpt>
      <trkpt lat="45.98546" lon="6.55917">
        <ele>1897.9</ele>
        <time>2026-02-02T13:48:40Z</time>
      </trkpt>
      <trkpt lat="45.98546" lon="6.55917">
        <ele>1897.9</ele>
        <time>2026-02-02T13:48:41Z</time>
      </trkpt>
      <trkpt lat="45.98546" lon="6.55918">
        <ele>1897.9</ele>
        <time>2026-02-02T13:48:42Z</time>
      </trkpt>
      <trkpt lat="45.98545" lon="6.55919">
        <ele>1899.6</ele>
        <time>2026-02-02T13:48:43Z</time>
      </trkpt>
      <trkpt lat="45.98545" lon="6.5592">
        <ele>1899.2</ele>
        <time>2026-02-02T13:48:44Z</time>
      </trkpt>
      <trkpt lat="45.98545" lon="6.5592">
        <ele>1899.2</ele>
        <time>2026-02-02T13:48:45Z</time>
      </trkpt>
      <trkpt lat="45.98545" lon="6.5592">
        <ele>1899.2</ele>
        <time>2026-02-02T13:48:46Z</time>
      </trkpt>
      <trkpt lat="45.98545" lon="6.5592">
        <ele>1899.2</ele>
        <time>2026-02-02T13:48:47Z</time>
      </trkpt>
      <trkpt lat="45.98545" lon="6.5592">
        <ele>1899.2</ele>
        <time>2026-02-02T13:48:48Z</time>
      </trkpt>
      <trkpt lat="45.98545" lon="6.5592">
        <ele>1899.2</ele>
        <time>2026-02-02T13:48:49Z</time>
      </trkpt>
      <trkpt lat="45.98544" lon="6.5592">
        <ele>1899.2</ele>
        <time>2026-02-02T13:48:50Z</time>
      </trkpt>
      <trkpt lat="45.98544" lon="6.5592">
        <ele>1899.2</ele>
        <time>2026-02-02T13:48:51Z</time>
      </trkpt>
      <trkpt lat="45.98544" lon="6.5592">
        <ele>1899.2</ele>
        <time>2026-02-02T13:48:52Z</time>
      </trkpt>
      <trkpt lat="45.98544" lon="6.5592">
        <ele>1899.2</ele>
        <time>2026-02-02T13:48:53Z</time>
      </trkpt>
      <trkpt lat="45.98544" lon="6.5592">
        <ele>1899.2</ele>
        <time>2026-02-02T13:48:54Z</time>
      </trkpt>
      <trkpt lat="45.98544" lon="6.5592">
        <ele>1899.2</ele>
        <time>2026-02-02T13:48:55Z</time>
      </trkpt>
      <trkpt lat="45.98544" lon="6.5592">
        <ele>1899.2</ele>
        <time>2026-02-02T13:48:56Z</time>
      </trkpt>
      <trkpt lat="45.98544" lon="6.5592">
        <ele>1899.2</ele>
        <time>2026-02-02T13:48:57Z</time>
      </trkpt>
      <trkpt lat="45.98544" lon="6.5592">
        <ele>1899.2</ele>
        <time>2026-02-02T13:48:58Z</time>
      </trkpt>
      <trkpt lat="45.98544" lon="6.5592">
        <ele>1899.2</ele>
        <time>2026-02-02T13:49:00Z</time>
      </trkpt>
      <trkpt lat="45.98544" lon="6.5592">
        <ele>1899.2</ele>
        <time>2026-02-02T13:49:01Z</time>
      </trkpt>
      <trkpt lat="45.98544" lon="6.5592">
        <ele>1899.2</ele>
        <time>2026-02-02T13:49:02Z</time>
      </trkpt>
      <trkpt lat="45.98544" lon="6.5592">
        <ele>1899.2</ele>
        <time>2026-02-02T13:49:04Z</time>
      </trkpt>
      <trkpt lat="45.98544" lon="6.5592">
        <ele>1899.2</ele>
        <time>2026-02-02T13:49:05Z</time>
      </trkpt>
      <trkpt lat="45.98544" lon="6.5592">
        <ele>1899.2</ele>
        <time>2026-02-02T13:49:06Z</time>
      </trkpt>
      <trkpt lat="45.98544" lon="6.55919">
        <ele>1899.2</ele>
        <time>2026-02-02T13:49:07Z</time>
      </trkpt>
      <trkpt lat="45.98544" lon="6.55919">
        <ele>1899.2</ele>
        <time>2026-02-02T13:49:08Z</time>
      </trkpt>
      <trkpt lat="45.98544" lon="6.55919">
        <ele>1899.2</ele>
        <time>2026-02-02T13:49:09Z</time>
      </trkpt>
      <trkpt lat="45.98544" lon="6.55919">
        <ele>1899.2</ele>
        <time>2026-02-02T13:49:10Z</time>
      </trkpt>
      <trkpt lat="45.98544" lon="6.55919">
        <ele>1899.2</ele>
        <time>2026-02-02T13:49:11Z</time>
      </trkpt>
      <trkpt lat="45.98544" lon="6.55919">
        <ele>1899.2</ele>
        <time>2026-02-02T13:49:12Z</time>
      </trkpt>
      <trkpt lat="45.98544" lon="6.55919">
        <ele>1899.2</ele>
        <time>2026-02-02T13:49:13Z</time>
      </trkpt>
      <trkpt lat="45.98544" lon="6.55919">
        <ele>1899.2</ele>
        <time>2026-02-02T13:49:14Z</time>
      </trkpt>
      <trkpt lat="45.98544" lon="6.55919">
        <ele>1899.2</ele>
        <time>2026-02-02T13:49:15Z</time>
      </trkpt>
      <trkpt lat="45.98544" lon="6.55919">
        <ele>1899.2</ele>
        <time>2026-02-02T13:49:16Z</time>
      </trkpt>
      <trkpt lat="45.98544" lon="6.55919">
        <ele>1899.2</ele>
        <time>2026-02-02T13:49:17Z</time>
      </trkpt>
      <trkpt lat="45.98544" lon="6.55919">
        <ele>1899.2</ele>
        <time>2026-02-02T13:49:18Z</time>
      </trkpt>
      <trkpt lat="45.98544" lon="6.5592">
        <ele>1899.2</ele>
        <time>2026-02-02T13:49:19Z</time>
      </trkpt>
      <trkpt lat="45.98544" lon="6.5592">
        <ele>1899.2</ele>
        <time>2026-02-02T13:49:20Z</time>
      </trkpt>
      <trkpt lat="45.98544" lon="6.55921">
        <ele>1899.2</ele>
        <time>2026-02-02T13:49:21Z</time>
      </trkpt>
      <trkpt lat="45.98544" lon="6.55922">
        <ele>1899.2</ele>
        <time>2026-02-02T13:49:22Z</time>
      </trkpt>
      <trkpt lat="45.98544" lon="6.55923">
        <ele>1900.8</ele>
        <time>2026-02-02T13:49:23Z</time>
      </trkpt>
      <trkpt lat="45.98544" lon="6.55925">
        <ele>1900.8</ele>
        <time>2026-02-02T13:49:24Z</time>
      </trkpt>
      <trkpt lat="45.98544" lon="6.55926">
        <ele>1900.8</ele>
        <time>2026-02-02T13:49:25Z</time>
      </trkpt>
      <trkpt lat="45.98544" lon="6.55927">
        <ele>1902.5</ele>
        <time>2026-02-02T13:49:26Z</time>
      </trkpt>
      <trkpt lat="45.98544" lon="6.55929">
        <ele>1902.5</ele>
        <time>2026-02-02T13:49:27Z</time>
      </trkpt>
      <trkpt lat="45.98543" lon="6.55931">
        <ele>1904.1</ele>
        <time>2026-02-02T13:49:28Z</time>
      </trkpt>
      <trkpt lat="45.98543" lon="6.55932">
        <ele>1904.1</ele>
        <time>2026-02-02T13:49:29Z</time>
      </trkpt>
      <trkpt lat="45.98542" lon="6.55934">
        <ele>1903.7</ele>
        <time>2026-02-02T13:49:30Z</time>
      </trkpt>
      <trkpt lat="45.98541" lon="6.55935">
        <ele>1903.7</ele>
        <time>2026-02-02T13:49:31Z</time>
      </trkpt>
      <trkpt lat="45.9854" lon="6.55936">
        <ele>1905.3</ele>
        <time>2026-02-02T13:49:32Z</time>
      </trkpt>
      <trkpt lat="45.98539" lon="6.55937">
        <ele>1905</ele>
        <time>2026-02-02T13:49:33Z</time>
      </trkpt>
      <trkpt lat="45.98538" lon="6.55938">
        <ele>1905</ele>
        <time>2026-02-02T13:49:34Z</time>
      </trkpt>
      <trkpt lat="45.98537" lon="6.55939">
        <ele>1905</ele>
        <time>2026-02-02T13:49:35Z</time>
      </trkpt>
      <trkpt lat="45.98537" lon="6.5594">
        <ele>1905</ele>
        <time>2026-02-02T13:49:36Z</time>
      </trkpt>
      <trkpt lat="45.98537" lon="6.5594">
        <ele>1906.6</ele>
        <time>2026-02-02T13:49:37Z</time>
      </trkpt>
      <trkpt lat="45.98536" lon="6.55941">
        <ele>1906.3</ele>
        <time>2026-02-02T13:49:38Z</time>
      </trkpt>
      <trkpt lat="45.98536" lon="6.55942">
        <ele>1906.3</ele>
        <time>2026-02-02T13:49:39Z</time>
      </trkpt>
      <trkpt lat="45.98536" lon="6.55943">
        <ele>1906.3</ele>
        <time>2026-02-02T13:49:40Z</time>
      </trkpt>
      <trkpt lat="45.98536" lon="6.55943">
        <ele>1906.3</ele>
        <time>2026-02-02T13:49:41Z</time>
      </trkpt>
      <trkpt lat="45.98535" lon="6.55944">
        <ele>1906.3</ele>
        <time>2026-02-02T13:49:42Z</time>
      </trkpt>
      <trkpt lat="45.98535" lon="6.55944">
        <ele>1907.9</ele>
        <time>2026-02-02T13:49:43Z</time>
      </trkpt>
      <trkpt lat="45.98535" lon="6.55945">
        <ele>1907.9</ele>
        <time>2026-02-02T13:49:44Z</time>
      </trkpt>
      <trkpt lat="45.98534" lon="6.55945">
        <ele>1907.9</ele>
        <time>2026-02-02T13:49:45Z</time>
      </trkpt>
      <trkpt lat="45.98534" lon="6.55945">
        <ele>1907.9</ele>
        <time>2026-02-02T13:49:46Z</time>
      </trkpt>
      <trkpt lat="45.98534" lon="6.55945">
        <ele>1907.9</ele>
        <time>2026-02-02T13:49:47Z</time>
      </trkpt>
      <trkpt lat="45.98534" lon="6.55945">
        <ele>1907.9</ele>
        <time>2026-02-02T13:49:48Z</time>
      </trkpt>
      <trkpt lat="45.98534" lon="6.55945">
        <ele>1907.9</ele>
        <time>2026-02-02T13:49:49Z</time>
      </trkpt>
      <trkpt lat="45.98534" lon="6.55945">
        <ele>1907.9</ele>
        <time>2026-02-02T13:49:50Z</time>
      </trkpt>
      <trkpt lat="45.98534" lon="6.55945">
        <ele>1907.9</ele>
        <time>2026-02-02T13:49:51Z</time>
      </trkpt>
      <trkpt lat="45.98534" lon="6.55945">
        <ele>1907.9</ele>
        <time>2026-02-02T13:49:52Z</time>
      </trkpt>
      <trkpt lat="45.98534" lon="6.55945">
        <ele>1907.9</ele>
        <time>2026-02-02T13:49:53Z</time>
      </trkpt>
      <trkpt lat="45.98534" lon="6.55945">
        <ele>1907.9</ele>
        <time>2026-02-02T13:49:54Z</time>
      </trkpt>
      <trkpt lat="45.98534" lon="6.55945">
        <ele>1907.9</ele>
        <time>2026-02-02T13:49:56Z</time>
      </trkpt>
      <trkpt lat="45.98534" lon="6.55945">
        <ele>1907.9</ele>
        <time>2026-02-02T13:49:57Z</time>
      </trkpt>
      <trkpt lat="45.98534" lon="6.55945">
        <ele>1907.9</ele>
        <time>2026-02-02T13:49:58Z</time>
      </trkpt>
      <trkpt lat="45.98534" lon="6.55945">
        <ele>1907.9</ele>
        <time>2026-02-02T13:49:59Z</time>
      </trkpt>
      <trkpt lat="45.98534" lon="6.55945">
        <ele>1907.9</ele>
        <time>2026-02-02T13:50:00Z</time>
      </trkpt>
      <trkpt lat="45.98534" lon="6.55945">
        <ele>1907.9</ele>
        <time>2026-02-02T13:50:01Z</time>
      </trkpt>
      <trkpt lat="45.98533" lon="6.55945">
        <ele>1907.9</ele>
        <time>2026-02-02T13:50:02Z</time>
      </trkpt>
      <trkpt lat="45.98534" lon="6.55944">
        <ele>1906.3</ele>
        <time>2026-02-02T13:50:03Z</time>
      </trkpt>
      <trkpt lat="45.98534" lon="6.55943">
        <ele>1906.3</ele>
        <time>2026-02-02T13:50:04Z</time>
      </trkpt>
      <trkpt lat="45.98533" lon="6.55944">
        <ele>1907.9</ele>
        <time>2026-02-02T13:50:05Z</time>
      </trkpt>
      <trkpt lat="45.98533" lon="6.55945">
        <ele>1907.9</ele>
        <time>2026-02-02T13:50:06Z</time>
      </trkpt>
      <trkpt lat="45.98533" lon="6.55946">
        <ele>1907.6</ele>
        <time>2026-02-02T13:50:07Z</time>
      </trkpt>
      <trkpt lat="45.98533" lon="6.55945">
        <ele>1907.6</ele>
        <time>2026-02-02T13:50:08Z</time>
      </trkpt>
      <trkpt lat="45.98532" lon="6.55946">
        <ele>1907.6</ele>
        <time>2026-02-02T13:50:09Z</time>
      </trkpt>
      <trkpt lat="45.98531" lon="6.55947">
        <ele>1907.6</ele>
        <time>2026-02-02T13:50:10Z</time>
      </trkpt>
      <trkpt lat="45.9853" lon="6.55948">
        <ele>1907.6</ele>
        <time>2026-02-02T13:50:11Z</time>
      </trkpt>
      <trkpt lat="45.9853" lon="6.55949">
        <ele>1909</ele>
        <time>2026-02-02T13:50:12Z</time>
      </trkpt>
      <trkpt lat="45.98531" lon="6.5595">
        <ele>1909.3</ele>
        <time>2026-02-02T13:50:13Z</time>
      </trkpt>
      <trkpt lat="45.98531" lon="6.5595">
        <ele>1909.3</ele>
        <time>2026-02-02T13:50:14Z</time>
      </trkpt>
      <trkpt lat="45.98532" lon="6.5595">
        <ele>1909.3</ele>
        <time>2026-02-02T13:50:15Z</time>
      </trkpt>
      <trkpt lat="45.98533" lon="6.55951">
        <ele>1909.3</ele>
        <time>2026-02-02T13:50:16Z</time>
      </trkpt>
      <trkpt lat="45.98535" lon="6.55952">
        <ele>1909.6</ele>
        <time>2026-02-02T13:50:17Z</time>
      </trkpt>
      <trkpt lat="45.98535" lon="6.55952">
        <ele>1909.6</ele>
        <time>2026-02-02T13:50:18Z</time>
      </trkpt>
      <trkpt lat="45.98536" lon="6.55952">
        <ele>1909.6</ele>
        <time>2026-02-02T13:50:19Z</time>
      </trkpt>
      <trkpt lat="45.98536" lon="6.55951">
        <ele>1909.6</ele>
        <time>2026-02-02T13:50:20Z</time>
      </trkpt>
      <trkpt lat="45.98536" lon="6.55951">
        <ele>1909.6</ele>
        <time>2026-02-02T13:50:21Z</time>
      </trkpt>
      <trkpt lat="45.98537" lon="6.55951">
        <ele>1909.9</ele>
        <time>2026-02-02T13:50:22Z</time>
      </trkpt>
      <trkpt lat="45.98537" lon="6.55951">
        <ele>1909.9</ele>
        <time>2026-02-02T13:50:23Z</time>
      </trkpt>
      <trkpt lat="45.98537" lon="6.55951">
        <ele>1909.9</ele>
        <time>2026-02-02T13:50:24Z</time>
      </trkpt>
      <trkpt lat="45.98538" lon="6.55952">
        <ele>1909.9</ele>
        <time>2026-02-02T13:50:25Z</time>
      </trkpt>
      <trkpt lat="45.98539" lon="6.55952">
        <ele>1909.9</ele>
        <time>2026-02-02T13:50:26Z</time>
      </trkpt>
      <trkpt lat="45.9854" lon="6.55952">
        <ele>1910.2</ele>
        <time>2026-02-02T13:50:27Z</time>
      </trkpt>
      <trkpt lat="45.98541" lon="6.55951">
        <ele>1910.2</ele>
        <time>2026-02-02T13:50:29Z</time>
      </trkpt>
      <trkpt lat="45.98541" lon="6.55951">
        <ele>1910.2</ele>
        <time>2026-02-02T13:50:30Z</time>
      </trkpt>
      <trkpt lat="45.98542" lon="6.55951">
        <ele>1910.2</ele>
        <time>2026-02-02T13:50:31Z</time>
      </trkpt>
      <trkpt lat="45.98542" lon="6.55951">
        <ele>1910.2</ele>
        <time>2026-02-02T13:50:32Z</time>
      </trkpt>
      <trkpt lat="45.98542" lon="6.55951">
        <ele>1910.2</ele>
        <time>2026-02-02T13:50:33Z</time>
      </trkpt>
      <trkpt lat="45.98542" lon="6.55951">
        <ele>1910.2</ele>
        <time>2026-02-02T13:50:34Z</time>
      </trkpt>
      <trkpt lat="45.98542" lon="6.5595">
        <ele>1910.2</ele>
        <time>2026-02-02T13:50:35Z</time>
      </trkpt>
      <trkpt lat="45.98542" lon="6.5595">
        <ele>1910.2</ele>
        <time>2026-02-02T13:50:36Z</time>
      </trkpt>
      <trkpt lat="45.98542" lon="6.5595">
        <ele>1910.5</ele>
        <time>2026-02-02T13:50:37Z</time>
      </trkpt>
      <trkpt lat="45.98542" lon="6.5595">
        <ele>1910.5</ele>
        <time>2026-02-02T13:50:38Z</time>
      </trkpt>
      <trkpt lat="45.98542" lon="6.5595">
        <ele>1910.5</ele>
        <time>2026-02-02T13:50:39Z</time>
      </trkpt>
      <trkpt lat="45.98543" lon="6.5595">
        <ele>1910.5</ele>
        <time>2026-02-02T13:50:40Z</time>
      </trkpt>
      <trkpt lat="45.98543" lon="6.5595">
        <ele>1910.5</ele>
        <time>2026-02-02T13:50:41Z</time>
      </trkpt>
      <trkpt lat="45.98543" lon="6.5595">
        <ele>1910.5</ele>
        <time>2026-02-02T13:50:42Z</time>
      </trkpt>
      <trkpt lat="45.98543" lon="6.5595">
        <ele>1910.5</ele>
        <time>2026-02-02T13:50:43Z</time>
      </trkpt>
      <trkpt lat="45.98543" lon="6.5595">
        <ele>1910.5</ele>
        <time>2026-02-02T13:50:44Z</time>
      </trkpt>
      <trkpt lat="45.98543" lon="6.5595">
        <ele>1910.5</ele>
        <time>2026-02-02T13:50:45Z</time>
      </trkpt>
      <trkpt lat="45.98543" lon="6.5595">
        <ele>1910.5</ele>
        <time>2026-02-02T13:50:46Z</time>
      </trkpt>
      <trkpt lat="45.98543" lon="6.5595">
        <ele>1910.5</ele>
        <time>2026-02-02T13:50:47Z</time>
      </trkpt>
      <trkpt lat="45.98543" lon="6.5595">
        <ele>1910.5</ele>
        <time>2026-02-02T13:50:48Z</time>
      </trkpt>
      <trkpt lat="45.98543" lon="6.5595">
        <ele>1910.5</ele>
        <time>2026-02-02T13:50:49Z</time>
      </trkpt>
      <trkpt lat="45.98543" lon="6.5595">
        <ele>1910.5</ele>
        <time>2026-02-02T13:50:50Z</time>
      </trkpt>
      <trkpt lat="45.98543" lon="6.5595">
        <ele>1910.5</ele>
        <time>2026-02-02T13:50:51Z</time>
      </trkpt>
      <trkpt lat="45.98543" lon="6.5595">
        <ele>1910.5</ele>
        <time>2026-02-02T13:50:52Z</time>
      </trkpt>
      <trkpt lat="45.98543" lon="6.5595">
        <ele>1910.5</ele>
        <time>2026-02-02T13:50:53Z</time>
      </trkpt>
      <trkpt lat="45.98543" lon="6.55951">
        <ele>1910.5</ele>
        <time>2026-02-02T13:50:54Z</time>
      </trkpt>
      <trkpt lat="45.98543" lon="6.55951">
        <ele>1910.5</ele>
        <time>2026-02-02T13:50:55Z</time>
      </trkpt>
      <trkpt lat="45.98544" lon="6.55951">
        <ele>1910.5</ele>
        <time>2026-02-02T13:50:56Z</time>
      </trkpt>
      <trkpt lat="45.98545" lon="6.55951">
        <ele>1910.5</ele>
        <time>2026-02-02T13:50:57Z</time>
      </trkpt>
      <trkpt lat="45.98545" lon="6.55951">
        <ele>1910.5</ele>
        <time>2026-02-02T13:50:58Z</time>
      </trkpt>
      <trkpt lat="45.98545" lon="6.5595">
        <ele>1910.5</ele>
        <time>2026-02-02T13:50:59Z</time>
      </trkpt>
      <trkpt lat="45.98545" lon="6.5595">
        <ele>1910.9</ele>
        <time>2026-02-02T13:51:00Z</time>
      </trkpt>
      <trkpt lat="45.98546" lon="6.5595">
        <ele>1910.9</ele>
        <time>2026-02-02T13:51:01Z</time>
      </trkpt>
      <trkpt lat="45.98546" lon="6.5595">
        <ele>1910.9</ele>
        <time>2026-02-02T13:51:02Z</time>
      </trkpt>
      <trkpt lat="45.98547" lon="6.5595">
        <ele>1910.9</ele>
        <time>2026-02-02T13:51:03Z</time>
      </trkpt>
      <trkpt lat="45.98547" lon="6.5595">
        <ele>1910.9</ele>
        <time>2026-02-02T13:51:04Z</time>
      </trkpt>
      <trkpt lat="45.98548" lon="6.5595">
        <ele>1910.9</ele>
        <time>2026-02-02T13:51:05Z</time>
      </trkpt>
      <trkpt lat="45.98548" lon="6.55949">
        <ele>1911.3</ele>
        <time>2026-02-02T13:51:06Z</time>
      </trkpt>
      <trkpt lat="45.98549" lon="6.55949">
        <ele>1911.3</ele>
        <time>2026-02-02T13:51:07Z</time>
      </trkpt>
      <trkpt lat="45.98549" lon="6.55948">
        <ele>1911.3</ele>
        <time>2026-02-02T13:51:08Z</time>
      </trkpt>
      <trkpt lat="45.9855" lon="6.55948">
        <ele>1909.7</ele>
        <time>2026-02-02T13:51:09Z</time>
      </trkpt>
      <trkpt lat="45.98551" lon="6.55947">
        <ele>1909.7</ele>
        <time>2026-02-02T13:51:10Z</time>
      </trkpt>
      <trkpt lat="45.98552" lon="6.55947">
        <ele>1910.1</ele>
        <time>2026-02-02T13:51:11Z</time>
      </trkpt>
      <trkpt lat="45.98553" lon="6.55946">
        <ele>1910.1</ele>
        <time>2026-02-02T13:51:12Z</time>
      </trkpt>
      <trkpt lat="45.98553" lon="6.55946">
        <ele>1910.1</ele>
        <time>2026-02-02T13:51:13Z</time>
      </trkpt>
      <trkpt lat="45.98554" lon="6.55945">
        <ele>1910.1</ele>
        <time>2026-02-02T13:51:14Z</time>
      </trkpt>
      <trkpt lat="45.98554" lon="6.55945">
        <ele>1910.1</ele>
        <time>2026-02-02T13:51:15Z</time>
      </trkpt>
      <trkpt lat="45.98555" lon="6.55945">
        <ele>1910.6</ele>
        <time>2026-02-02T13:51:16Z</time>
      </trkpt>
      <trkpt lat="45.98555" lon="6.55945">
        <ele>1910.6</ele>
        <time>2026-02-02T13:51:17Z</time>
      </trkpt>
      <trkpt lat="45.98555" lon="6.55944">
        <ele>1910.6</ele>
        <time>2026-02-02T13:51:18Z</time>
      </trkpt>
      <trkpt lat="45.98556" lon="6.55944">
        <ele>1910.6</ele>
        <time>2026-02-02T13:51:19Z</time>
      </trkpt>
      <trkpt lat="45.98556" lon="6.55944">
        <ele>1910.6</ele>
        <time>2026-02-02T13:51:20Z</time>
      </trkpt>
      <trkpt lat="45.98556" lon="6.55944">
        <ele>1910.6</ele>
        <time>2026-02-02T13:51:21Z</time>
      </trkpt>
      <trkpt lat="45.98556" lon="6.55944">
        <ele>1910.6</ele>
        <time>2026-02-02T13:51:22Z</time>
      </trkpt>
      <trkpt lat="45.98556" lon="6.55944">
        <ele>1910.6</ele>
        <time>2026-02-02T13:51:23Z</time>
      </trkpt>
      <trkpt lat="45.98555" lon="6.55944">
        <ele>1910.6</ele>
        <time>2026-02-02T13:51:24Z</time>
      </trkpt>
      <trkpt lat="45.98555" lon="6.55944">
        <ele>1910.6</ele>
        <time>2026-02-02T13:51:25Z</time>
      </trkpt>
      <trkpt lat="45.98555" lon="6.55944">
        <ele>1910.6</ele>
        <time>2026-02-02T13:51:26Z</time>
      </trkpt>
      <trkpt lat="45.98555" lon="6.55944">
        <ele>1910.6</ele>
        <time>2026-02-02T13:51:27Z</time>
      </trkpt>
      <trkpt lat="45.98555" lon="6.55944">
        <ele>1910.6</ele>
        <time>2026-02-02T13:51:28Z</time>
      </trkpt>
      <trkpt lat="45.98555" lon="6.55944">
        <ele>1909</ele>
        <time>2026-02-02T13:51:29Z</time>
      </trkpt>
      <trkpt lat="45.98555" lon="6.55944">
        <ele>1909</ele>
        <time>2026-02-02T13:51:30Z</time>
      </trkpt>
      <trkpt lat="45.98555" lon="6.55944">
        <ele>1909</ele>
        <time>2026-02-02T13:51:31Z</time>
      </trkpt>
      <trkpt lat="45.98555" lon="6.55944">
        <ele>1909</ele>
        <time>2026-02-02T13:51:32Z</time>
      </trkpt>
      <trkpt lat="45.98555" lon="6.55944">
        <ele>1910.6</ele>
        <time>2026-02-02T13:51:33Z</time>
      </trkpt>
      <trkpt lat="45.98555" lon="6.55944">
        <ele>1910.6</ele>
        <time>2026-02-02T13:51:34Z</time>
      </trkpt>
      <trkpt lat="45.98556" lon="6.55944">
        <ele>1909</ele>
        <time>2026-02-02T13:51:35Z</time>
      </trkpt>
      <trkpt lat="45.98556" lon="6.55944">
        <ele>1910.6</ele>
        <time>2026-02-02T13:51:36Z</time>
      </trkpt>
      <trkpt lat="45.98557" lon="6.55944">
        <ele>1910.6</ele>
        <time>2026-02-02T13:51:37Z</time>
      </trkpt>
      <trkpt lat="45.98557" lon="6.55944">
        <ele>1911.1</ele>
        <time>2026-02-02T13:51:38Z</time>
      </trkpt>
      <trkpt lat="45.98558" lon="6.55944">
        <ele>1911.1</ele>
        <time>2026-02-02T13:51:39Z</time>
      </trkpt>
      <trkpt lat="45.98559" lon="6.55944">
        <ele>1911.1</ele>
        <time>2026-02-02T13:51:40Z</time>
      </trkpt>
      <trkpt lat="45.9856" lon="6.55944">
        <ele>1911.1</ele>
        <time>2026-02-02T13:51:41Z</time>
      </trkpt>
      <trkpt lat="45.9856" lon="6.55944">
        <ele>1911.1</ele>
        <time>2026-02-02T13:51:42Z</time>
      </trkpt>
      <trkpt lat="45.9856" lon="6.55944">
        <ele>1911.6</ele>
        <time>2026-02-02T13:51:43Z</time>
      </trkpt>
      <trkpt lat="45.98561" lon="6.55944">
        <ele>1910</ele>
        <time>2026-02-02T13:51:44Z</time>
      </trkpt>
      <trkpt lat="45.98562" lon="6.55943">
        <ele>1910</ele>
        <time>2026-02-02T13:51:45Z</time>
      </trkpt>
      <trkpt lat="45.98563" lon="6.55943">
        <ele>1910</ele>
        <time>2026-02-02T13:51:46Z</time>
      </trkpt>
      <trkpt lat="45.98564" lon="6.55943">
        <ele>1910.5</ele>
        <time>2026-02-02T13:51:47Z</time>
      </trkpt>
      <trkpt lat="45.98565" lon="6.55942">
        <ele>1910.5</ele>
        <time>2026-02-02T13:51:48Z</time>
      </trkpt>
      <trkpt lat="45.98565" lon="6.55942">
        <ele>1910.5</ele>
        <time>2026-02-02T13:51:49Z</time>
      </trkpt>
      <trkpt lat="45.98566" lon="6.55942">
        <ele>1910.5</ele>
        <time>2026-02-02T13:51:50Z</time>
      </trkpt>
      <trkpt lat="45.98567" lon="6.55942">
        <ele>1911.1</ele>
        <time>2026-02-02T13:51:51Z</time>
      </trkpt>
      <trkpt lat="45.98567" lon="6.55942">
        <ele>1911.1</ele>
        <time>2026-02-02T13:51:52Z</time>
      </trkpt>
      <trkpt lat="45.98568" lon="6.55942">
        <ele>1911.1</ele>
        <time>2026-02-02T13:51:53Z</time>
      </trkpt>
      <trkpt lat="45.98569" lon="6.55942">
        <ele>1911.6</ele>
        <time>2026-02-02T13:51:54Z</time>
      </trkpt>
      <trkpt lat="45.9857" lon="6.55942">
        <ele>1911.6</ele>
        <time>2026-02-02T13:51:55Z</time>
      </trkpt>
      <trkpt lat="45.9857" lon="6.55942">
        <ele>1911.6</ele>
        <time>2026-02-02T13:51:56Z</time>
      </trkpt>
      <trkpt lat="45.98571" lon="6.55941">
        <ele>1911.6</ele>
        <time>2026-02-02T13:51:57Z</time>
      </trkpt>
      <trkpt lat="45.98572" lon="6.55941">
        <ele>1911.6</ele>
        <time>2026-02-02T13:51:58Z</time>
      </trkpt>
      <trkpt lat="45.98572" lon="6.55941">
        <ele>1911.6</ele>
        <time>2026-02-02T13:51:59Z</time>
      </trkpt>
      <trkpt lat="45.98572" lon="6.55941">
        <ele>1911.6</ele>
        <time>2026-02-02T13:52:00Z</time>
      </trkpt>
      <trkpt lat="45.98572" lon="6.55941">
        <ele>1912.2</ele>
        <time>2026-02-02T13:52:01Z</time>
      </trkpt>
      <trkpt lat="45.98573" lon="6.55941">
        <ele>1912.2</ele>
        <time>2026-02-02T13:52:02Z</time>
      </trkpt>
      <trkpt lat="45.98573" lon="6.55941">
        <ele>1912.2</ele>
        <time>2026-02-02T13:52:03Z</time>
      </trkpt>
      <trkpt lat="45.98573" lon="6.5594">
        <ele>1912.2</ele>
        <time>2026-02-02T13:52:04Z</time>
      </trkpt>
      <trkpt lat="45.98573" lon="6.5594">
        <ele>1912.2</ele>
        <time>2026-02-02T13:52:05Z</time>
      </trkpt>
      <trkpt lat="45.98573" lon="6.5594">
        <ele>1912.2</ele>
        <time>2026-02-02T13:52:06Z</time>
      </trkpt>
      <trkpt lat="45.98573" lon="6.5594">
        <ele>1912.2</ele>
        <time>2026-02-02T13:52:07Z</time>
      </trkpt>
      <trkpt lat="45.98573" lon="6.5594">
        <ele>1912.2</ele>
        <time>2026-02-02T13:52:08Z</time>
      </trkpt>
      <trkpt lat="45.98573" lon="6.5594">
        <ele>1912.2</ele>
        <time>2026-02-02T13:52:09Z</time>
      </trkpt>
      <trkpt lat="45.98573" lon="6.5594">
        <ele>1912.2</ele>
        <time>2026-02-02T13:52:10Z</time>
      </trkpt>
      <trkpt lat="45.98573" lon="6.5594">
        <ele>1912.2</ele>
        <time>2026-02-02T13:52:11Z</time>
      </trkpt>
      <trkpt lat="45.98573" lon="6.5594">
        <ele>1912.2</ele>
        <time>2026-02-02T13:52:12Z</time>
      </trkpt>
      <trkpt lat="45.98573" lon="6.5594">
        <ele>1910.6</ele>
        <time>2026-02-02T13:52:13Z</time>
      </trkpt>
      <trkpt lat="45.98574" lon="6.55939">
        <ele>1910.6</ele>
        <time>2026-02-02T13:52:14Z</time>
      </trkpt>
      <trkpt lat="45.98574" lon="6.55939">
        <ele>1910.6</ele>
        <time>2026-02-02T13:52:15Z</time>
      </trkpt>
      <trkpt lat="45.98575" lon="6.55939">
        <ele>1910.6</ele>
        <time>2026-02-02T13:52:16Z</time>
      </trkpt>
      <trkpt lat="45.98575" lon="6.55939">
        <ele>1911.2</ele>
        <time>2026-02-02T13:52:17Z</time>
      </trkpt>
      <trkpt lat="45.98576" lon="6.55939">
        <ele>1911.2</ele>
        <time>2026-02-02T13:52:18Z</time>
      </trkpt>
      <trkpt lat="45.98577" lon="6.55938">
        <ele>1911.2</ele>
        <time>2026-02-02T13:52:19Z</time>
      </trkpt>
      <trkpt lat="45.98578" lon="6.55938">
        <ele>1911.2</ele>
        <time>2026-02-02T13:52:20Z</time>
      </trkpt>
      <trkpt lat="45.98579" lon="6.55938">
        <ele>1911.8</ele>
        <time>2026-02-02T13:52:21Z</time>
      </trkpt>
      <trkpt lat="45.98579" lon="6.55938">
        <ele>1911.8</ele>
        <time>2026-02-02T13:52:22Z</time>
      </trkpt>
      <trkpt lat="45.9858" lon="6.55938">
        <ele>1911.8</ele>
        <time>2026-02-02T13:52:23Z</time>
      </trkpt>
      <trkpt lat="45.9858" lon="6.55938">
        <ele>1911.8</ele>
        <time>2026-02-02T13:52:24Z</time>
      </trkpt>
      <trkpt lat="45.98581" lon="6.55938">
        <ele>1912.4</ele>
        <time>2026-02-02T13:52:25Z</time>
      </trkpt>
      <trkpt lat="45.98582" lon="6.55938">
        <ele>1912.4</ele>
        <time>2026-02-02T13:52:26Z</time>
      </trkpt>
      <trkpt lat="45.98583" lon="6.55938">
        <ele>1912.4</ele>
        <time>2026-02-02T13:52:27Z</time>
      </trkpt>
      <trkpt lat="45.98584" lon="6.55938">
        <ele>1912.4</ele>
        <time>2026-02-02T13:52:28Z</time>
      </trkpt>
      <trkpt lat="45.98585" lon="6.55938">
        <ele>1913.1</ele>
        <time>2026-02-02T13:52:29Z</time>
      </trkpt>
      <trkpt lat="45.98586" lon="6.55938">
        <ele>1913.1</ele>
        <time>2026-02-02T13:52:30Z</time>
      </trkpt>
      <trkpt lat="45.98586" lon="6.55938">
        <ele>1913.1</ele>
        <time>2026-02-02T13:52:31Z</time>
      </trkpt>
      <trkpt lat="45.98587" lon="6.55938">
        <ele>1913.8</ele>
        <time>2026-02-02T13:52:32Z</time>
      </trkpt>
      <trkpt lat="45.98588" lon="6.55938">
        <ele>1913.8</ele>
        <time>2026-02-02T13:52:33Z</time>
      </trkpt>
      <trkpt lat="45.98588" lon="6.55938">
        <ele>1913.8</ele>
        <time>2026-02-02T13:52:34Z</time>
      </trkpt>
      <trkpt lat="45.98589" lon="6.55938">
        <ele>1913.8</ele>
        <time>2026-02-02T13:52:35Z</time>
      </trkpt>
      <trkpt lat="45.98588" lon="6.55939">
        <ele>1913.8</ele>
        <time>2026-02-02T13:52:36Z</time>
      </trkpt>
      <trkpt lat="45.98588" lon="6.55939">
        <ele>1913.8</ele>
        <time>2026-02-02T13:52:37Z</time>
      </trkpt>
      <trkpt lat="45.98588" lon="6.55939">
        <ele>1913.8</ele>
        <time>2026-02-02T13:52:38Z</time>
      </trkpt>
      <trkpt lat="45.98588" lon="6.55939">
        <ele>1913.8</ele>
        <time>2026-02-02T13:52:39Z</time>
      </trkpt>
      <trkpt lat="45.98588" lon="6.55939">
        <ele>1913.8</ele>
        <time>2026-02-02T13:52:40Z</time>
      </trkpt>
      <trkpt lat="45.98588" lon="6.55939">
        <ele>1913.8</ele>
        <time>2026-02-02T13:52:41Z</time>
      </trkpt>
      <trkpt lat="45.98588" lon="6.55939">
        <ele>1913.8</ele>
        <time>2026-02-02T13:52:42Z</time>
      </trkpt>
      <trkpt lat="45.98588" lon="6.55939">
        <ele>1913.8</ele>
        <time>2026-02-02T13:52:43Z</time>
      </trkpt>
      <trkpt lat="45.98588" lon="6.55939">
        <ele>1913.8</ele>
        <time>2026-02-02T13:52:44Z</time>
      </trkpt>
      <trkpt lat="45.98588" lon="6.55939">
        <ele>1913.8</ele>
        <time>2026-02-02T13:52:45Z</time>
      </trkpt>
      <trkpt lat="45.98588" lon="6.55938">
        <ele>1913.8</ele>
        <time>2026-02-02T13:52:46Z</time>
      </trkpt>
      <trkpt lat="45.98588" lon="6.55938">
        <ele>1913.8</ele>
        <time>2026-02-02T13:52:47Z</time>
      </trkpt>
      <trkpt lat="45.98588" lon="6.55938">
        <ele>1913.8</ele>
        <time>2026-02-02T13:52:48Z</time>
      </trkpt>
      <trkpt lat="45.98588" lon="6.55938">
        <ele>1913.8</ele>
        <time>2026-02-02T13:52:49Z</time>
      </trkpt>
      <trkpt lat="45.98588" lon="6.55938">
        <ele>1913.8</ele>
        <time>2026-02-02T13:52:50Z</time>
      </trkpt>
      <trkpt lat="45.98588" lon="6.55938">
        <ele>1913.8</ele>
        <time>2026-02-02T13:52:51Z</time>
      </trkpt>
      <trkpt lat="45.98588" lon="6.55938">
        <ele>1913.8</ele>
        <time>2026-02-02T13:52:52Z</time>
      </trkpt>
      <trkpt lat="45.98588" lon="6.55938">
        <ele>1913.8</ele>
        <time>2026-02-02T13:52:53Z</time>
      </trkpt>
      <trkpt lat="45.98588" lon="6.55938">
        <ele>1913.8</ele>
        <time>2026-02-02T13:52:54Z</time>
      </trkpt>
      <trkpt lat="45.98588" lon="6.55938">
        <ele>1913.8</ele>
        <time>2026-02-02T13:52:55Z</time>
      </trkpt>
      <trkpt lat="45.98588" lon="6.55938">
        <ele>1913.8</ele>
        <time>2026-02-02T13:52:56Z</time>
      </trkpt>
      <trkpt lat="45.98588" lon="6.55938">
        <ele>1913.8</ele>
        <time>2026-02-02T13:52:57Z</time>
      </trkpt>
      <trkpt lat="45.98588" lon="6.55938">
        <ele>1913.8</ele>
        <time>2026-02-02T13:52:58Z</time>
      </trkpt>
      <trkpt lat="45.98588" lon="6.55938">
        <ele>1913.8</ele>
        <time>2026-02-02T13:52:59Z</time>
      </trkpt>
      <trkpt lat="45.98588" lon="6.55938">
        <ele>1913.8</ele>
        <time>2026-02-02T13:53:00Z</time>
      </trkpt>
      <trkpt lat="45.98588" lon="6.55938">
        <ele>1913.8</ele>
        <time>2026-02-02T13:53:01Z</time>
      </trkpt>
      <trkpt lat="45.98588" lon="6.55938">
        <ele>1913.8</ele>
        <time>2026-02-02T13:53:02Z</time>
      </trkpt>
      <trkpt lat="45.98588" lon="6.55938">
        <ele>1913.8</ele>
        <time>2026-02-02T13:53:03Z</time>
      </trkpt>
      <trkpt lat="45.98588" lon="6.55938">
        <ele>1913.8</ele>
        <time>2026-02-02T13:53:04Z</time>
      </trkpt>
      <trkpt lat="45.98588" lon="6.55938">
        <ele>1913.8</ele>
        <time>2026-02-02T13:53:05Z</time>
      </trkpt>
      <trkpt lat="45.98588" lon="6.55938">
        <ele>1913.8</ele>
        <time>2026-02-02T13:53:06Z</time>
      </trkpt>
      <trkpt lat="45.98588" lon="6.55938">
        <ele>1913.8</ele>
        <time>2026-02-02T13:53:07Z</time>
      </trkpt>
      <trkpt lat="45.98588" lon="6.55938">
        <ele>1913.8</ele>
        <time>2026-02-02T13:53:08Z</time>
      </trkpt>
      <trkpt lat="45.98589" lon="6.55938">
        <ele>1913.8</ele>
        <time>2026-02-02T13:53:09Z</time>
      </trkpt>
      <trkpt lat="45.9859" lon="6.55938">
        <ele>1913.8</ele>
        <time>2026-02-02T13:53:10Z</time>
      </trkpt>
      <trkpt lat="45.98591" lon="6.55938">
        <ele>1914.4</ele>
        <time>2026-02-02T13:53:11Z</time>
      </trkpt>
      <trkpt lat="45.98591" lon="6.55938">
        <ele>1914.4</ele>
        <time>2026-02-02T13:53:12Z</time>
      </trkpt>
      <trkpt lat="45.98592" lon="6.55939">
        <ele>1914.4</ele>
        <time>2026-02-02T13:53:13Z</time>
      </trkpt>
      <trkpt lat="45.98593" lon="6.55939">
        <ele>1914.4</ele>
        <time>2026-02-02T13:53:14Z</time>
      </trkpt>
      <trkpt lat="45.98593" lon="6.5594">
        <ele>1914.4</ele>
        <time>2026-02-02T13:53:15Z</time>
      </trkpt>
      <trkpt lat="45.98593" lon="6.5594">
        <ele>1916.4</ele>
        <time>2026-02-02T13:53:16Z</time>
      </trkpt>
      <trkpt lat="45.98594" lon="6.5594">
        <ele>1916.4</ele>
        <time>2026-02-02T13:53:17Z</time>
      </trkpt>
      <trkpt lat="45.98594" lon="6.5594">
        <ele>1916.4</ele>
        <time>2026-02-02T13:53:18Z</time>
      </trkpt>
      <trkpt lat="45.98595" lon="6.5594">
        <ele>1916.4</ele>
        <time>2026-02-02T13:53:19Z</time>
      </trkpt>
      <trkpt lat="45.98595" lon="6.5594">
        <ele>1916.4</ele>
        <time>2026-02-02T13:53:20Z</time>
      </trkpt>
      <trkpt lat="45.98596" lon="6.5594">
        <ele>1917</ele>
        <time>2026-02-02T13:53:21Z</time>
      </trkpt>
      <trkpt lat="45.98597" lon="6.5594">
        <ele>1917</ele>
        <time>2026-02-02T13:53:22Z</time>
      </trkpt>
      <trkpt lat="45.98597" lon="6.5594">
        <ele>1917</ele>
        <time>2026-02-02T13:53:23Z</time>
      </trkpt>
      <trkpt lat="45.98598" lon="6.5594">
        <ele>1917</ele>
        <time>2026-02-02T13:53:24Z</time>
      </trkpt>
      <trkpt lat="45.98598" lon="6.5594">
        <ele>1917</ele>
        <time>2026-02-02T13:53:25Z</time>
      </trkpt>
      <trkpt lat="45.98599" lon="6.55941">
        <ele>1917</ele>
        <time>2026-02-02T13:53:26Z</time>
      </trkpt>
      <trkpt lat="45.986" lon="6.55941">
        <ele>1917.6</ele>
        <time>2026-02-02T13:53:27Z</time>
      </trkpt>
      <trkpt lat="45.98601" lon="6.55941">
        <ele>1917.6</ele>
        <time>2026-02-02T13:53:28Z</time>
      </trkpt>
      <trkpt lat="45.98601" lon="6.55941">
        <ele>1917.6</ele>
        <time>2026-02-02T13:53:29Z</time>
      </trkpt>
      <trkpt lat="45.98602" lon="6.55941">
        <ele>1918.2</ele>
        <time>2026-02-02T13:53:30Z</time>
      </trkpt>
      <trkpt lat="45.98603" lon="6.55941">
        <ele>1918.2</ele>
        <time>2026-02-02T13:53:31Z</time>
      </trkpt>
      <trkpt lat="45.98603" lon="6.55941">
        <ele>1918.2</ele>
        <time>2026-02-02T13:53:32Z</time>
      </trkpt>
      <trkpt lat="45.98603" lon="6.55941">
        <ele>1918.2</ele>
        <time>2026-02-02T13:53:33Z</time>
      </trkpt>
      <trkpt lat="45.98603" lon="6.55941">
        <ele>1918.2</ele>
        <time>2026-02-02T13:53:34Z</time>
      </trkpt>
      <trkpt lat="45.98603" lon="6.55942">
        <ele>1918.2</ele>
        <time>2026-02-02T13:53:35Z</time>
      </trkpt>
      <trkpt lat="45.98603" lon="6.55942">
        <ele>1918.2</ele>
        <time>2026-02-02T13:53:36Z</time>
      </trkpt>
      <trkpt lat="45.98603" lon="6.55942">
        <ele>1918.2</ele>
        <time>2026-02-02T13:53:37Z</time>
      </trkpt>
      <trkpt lat="45.98604" lon="6.55942">
        <ele>1918.2</ele>
        <time>2026-02-02T13:53:38Z</time>
      </trkpt>
      <trkpt lat="45.98604" lon="6.55942">
        <ele>1918.2</ele>
        <time>2026-02-02T13:53:39Z</time>
      </trkpt>
      <trkpt lat="45.98604" lon="6.55942">
        <ele>1918.2</ele>
        <time>2026-02-02T13:53:40Z</time>
      </trkpt>
      <trkpt lat="45.98604" lon="6.55942">
        <ele>1918.2</ele>
        <time>2026-02-02T13:53:41Z</time>
      </trkpt>
      <trkpt lat="45.98604" lon="6.55942">
        <ele>1918.2</ele>
        <time>2026-02-02T13:53:42Z</time>
      </trkpt>
      <trkpt lat="45.98604" lon="6.55942">
        <ele>1918.2</ele>
        <time>2026-02-02T13:53:43Z</time>
      </trkpt>
      <trkpt lat="45.98604" lon="6.55942">
        <ele>1918.2</ele>
        <time>2026-02-02T13:53:44Z</time>
      </trkpt>
      <trkpt lat="45.98604" lon="6.55942">
        <ele>1918.2</ele>
        <time>2026-02-02T13:53:45Z</time>
      </trkpt>
      <trkpt lat="45.98604" lon="6.55942">
        <ele>1918.2</ele>
        <time>2026-02-02T13:53:46Z</time>
      </trkpt>
      <trkpt lat="45.98604" lon="6.55942">
        <ele>1918.2</ele>
        <time>2026-02-02T13:53:47Z</time>
      </trkpt>
      <trkpt lat="45.98604" lon="6.55942">
        <ele>1918.2</ele>
        <time>2026-02-02T13:53:48Z</time>
      </trkpt>
      <trkpt lat="45.98604" lon="6.55942">
        <ele>1918.2</ele>
        <time>2026-02-02T13:53:49Z</time>
      </trkpt>
      <trkpt lat="45.98604" lon="6.55941">
        <ele>1918.2</ele>
        <time>2026-02-02T13:53:50Z</time>
      </trkpt>
      <trkpt lat="45.98605" lon="6.55942">
        <ele>1918.2</ele>
        <time>2026-02-02T13:53:51Z</time>
      </trkpt>
      <trkpt lat="45.98605" lon="6.55942">
        <ele>1918.8</ele>
        <time>2026-02-02T13:53:52Z</time>
      </trkpt>
      <trkpt lat="45.98605" lon="6.55942">
        <ele>1918.8</ele>
        <time>2026-02-02T13:53:53Z</time>
      </trkpt>
      <trkpt lat="45.98605" lon="6.55942">
        <ele>1918.2</ele>
        <time>2026-02-02T13:53:54Z</time>
      </trkpt>
      <trkpt lat="45.98605" lon="6.55942">
        <ele>1918.8</ele>
        <time>2026-02-02T13:53:55Z</time>
      </trkpt>
      <trkpt lat="45.98606" lon="6.55941">
        <ele>1918.8</ele>
        <time>2026-02-02T13:53:56Z</time>
      </trkpt>
      <trkpt lat="45.98606" lon="6.55941">
        <ele>1918.8</ele>
        <time>2026-02-02T13:53:57Z</time>
      </trkpt>
      <trkpt lat="45.98607" lon="6.55941">
        <ele>1918.8</ele>
        <time>2026-02-02T13:53:58Z</time>
      </trkpt>
      <trkpt lat="45.98607" lon="6.55941">
        <ele>1918.8</ele>
        <time>2026-02-02T13:53:59Z</time>
      </trkpt>
      <trkpt lat="45.98608" lon="6.55941">
        <ele>1919.4</ele>
        <time>2026-02-02T13:54:00Z</time>
      </trkpt>
      <trkpt lat="45.98609" lon="6.55941">
        <ele>1919.4</ele>
        <time>2026-02-02T13:54:01Z</time>
      </trkpt>
      <trkpt lat="45.9861" lon="6.5594">
        <ele>1919.4</ele>
        <time>2026-02-02T13:54:02Z</time>
      </trkpt>
      <trkpt lat="45.98611" lon="6.5594">
        <ele>1919.4</ele>
        <time>2026-02-02T13:54:03Z</time>
      </trkpt>
      <trkpt lat="45.98612" lon="6.55941">
        <ele>1920</ele>
        <time>2026-02-02T13:54:04Z</time>
      </trkpt>
      <trkpt lat="45.98613" lon="6.55941">
        <ele>1920</ele>
        <time>2026-02-02T13:54:05Z</time>
      </trkpt>
      <trkpt lat="45.98613" lon="6.55941">
        <ele>1920</ele>
        <time>2026-02-02T13:54:06Z</time>
      </trkpt>
      <trkpt lat="45.98614" lon="6.55941">
        <ele>1920.6</ele>
        <time>2026-02-02T13:54:07Z</time>
      </trkpt>
      <trkpt lat="45.98615" lon="6.55941">
        <ele>1920.6</ele>
        <time>2026-02-02T13:54:08Z</time>
      </trkpt>
      <trkpt lat="45.98616" lon="6.55941">
        <ele>1920.6</ele>
        <time>2026-02-02T13:54:09Z</time>
      </trkpt>
      <trkpt lat="45.98617" lon="6.55941">
        <ele>1920.6</ele>
        <time>2026-02-02T13:54:10Z</time>
      </trkpt>
      <trkpt lat="45.98618" lon="6.55941">
        <ele>1921.1</ele>
        <time>2026-02-02T13:54:12Z</time>
      </trkpt>
      <trkpt lat="45.98619" lon="6.55941">
        <ele>1921.1</ele>
        <time>2026-02-02T13:54:13Z</time>
      </trkpt>
      <trkpt lat="45.98619" lon="6.55942">
        <ele>1921.1</ele>
        <time>2026-02-02T13:54:14Z</time>
      </trkpt>
      <trkpt lat="45.98619" lon="6.55942">
        <ele>1921.1</ele>
        <time>2026-02-02T13:54:15Z</time>
      </trkpt>
      <trkpt lat="45.98619" lon="6.55942">
        <ele>1921.1</ele>
        <time>2026-02-02T13:54:16Z</time>
      </trkpt>
      <trkpt lat="45.98619" lon="6.55942">
        <ele>1921.1</ele>
        <time>2026-02-02T13:54:17Z</time>
      </trkpt>
      <trkpt lat="45.98619" lon="6.55942">
        <ele>1921.1</ele>
        <time>2026-02-02T13:54:18Z</time>
      </trkpt>
      <trkpt lat="45.98619" lon="6.55942">
        <ele>1921.1</ele>
        <time>2026-02-02T13:54:19Z</time>
      </trkpt>
      <trkpt lat="45.98619" lon="6.55942">
        <ele>1921.1</ele>
        <time>2026-02-02T13:54:20Z</time>
      </trkpt>
      <trkpt lat="45.98619" lon="6.55942">
        <ele>1921.1</ele>
        <time>2026-02-02T13:54:21Z</time>
      </trkpt>
      <trkpt lat="45.98619" lon="6.55942">
        <ele>1921.1</ele>
        <time>2026-02-02T13:54:22Z</time>
      </trkpt>
      <trkpt lat="45.98619" lon="6.55942">
        <ele>1921.1</ele>
        <time>2026-02-02T13:54:23Z</time>
      </trkpt>
      <trkpt lat="45.98619" lon="6.55942">
        <ele>1921.1</ele>
        <time>2026-02-02T13:54:24Z</time>
      </trkpt>
      <trkpt lat="45.98619" lon="6.55942">
        <ele>1921.1</ele>
        <time>2026-02-02T13:54:25Z</time>
      </trkpt>
      <trkpt lat="45.98619" lon="6.55942">
        <ele>1921.1</ele>
        <time>2026-02-02T13:54:26Z</time>
      </trkpt>
      <trkpt lat="45.98619" lon="6.55942">
        <ele>1921.1</ele>
        <time>2026-02-02T13:54:27Z</time>
      </trkpt>
      <trkpt lat="45.98619" lon="6.55942">
        <ele>1921.1</ele>
        <time>2026-02-02T13:54:28Z</time>
      </trkpt>
      <trkpt lat="45.98619" lon="6.55942">
        <ele>1921.1</ele>
        <time>2026-02-02T13:54:29Z</time>
      </trkpt>
      <trkpt lat="45.98619" lon="6.55942">
        <ele>1921.1</ele>
        <time>2026-02-02T13:54:30Z</time>
      </trkpt>
      <trkpt lat="45.98619" lon="6.55942">
        <ele>1921.1</ele>
        <time>2026-02-02T13:54:31Z</time>
      </trkpt>
      <trkpt lat="45.98619" lon="6.55942">
        <ele>1921.1</ele>
        <time>2026-02-02T13:54:32Z</time>
      </trkpt>
      <trkpt lat="45.98619" lon="6.55942">
        <ele>1921.1</ele>
        <time>2026-02-02T13:54:33Z</time>
      </trkpt>
      <trkpt lat="45.98619" lon="6.55942">
        <ele>1921.1</ele>
        <time>2026-02-02T13:54:34Z</time>
      </trkpt>
      <trkpt lat="45.98619" lon="6.55942">
        <ele>1921.1</ele>
        <time>2026-02-02T13:54:35Z</time>
      </trkpt>
      <trkpt lat="45.98619" lon="6.55942">
        <ele>1921.1</ele>
        <time>2026-02-02T13:54:36Z</time>
      </trkpt>
      <trkpt lat="45.98619" lon="6.55942">
        <ele>1921.1</ele>
        <time>2026-02-02T13:54:37Z</time>
      </trkpt>
      <trkpt lat="45.98619" lon="6.55942">
        <ele>1921.1</ele>
        <time>2026-02-02T13:54:38Z</time>
      </trkpt>
      <trkpt lat="45.98619" lon="6.55942">
        <ele>1921.1</ele>
        <time>2026-02-02T13:54:39Z</time>
      </trkpt>
      <trkpt lat="45.98619" lon="6.55942">
        <ele>1921.1</ele>
        <time>2026-02-02T13:54:40Z</time>
      </trkpt>
      <trkpt lat="45.9862" lon="6.55942">
        <ele>1921.1</ele>
        <time>2026-02-02T13:54:41Z</time>
      </trkpt>
      <trkpt lat="45.9862" lon="6.55943">
        <ele>1921.6</ele>
        <time>2026-02-02T13:54:42Z</time>
      </trkpt>
      <trkpt lat="45.98622" lon="6.55943">
        <ele>1921.6</ele>
        <time>2026-02-02T13:54:43Z</time>
      </trkpt>
      <trkpt lat="45.98623" lon="6.55943">
        <ele>1921.6</ele>
        <time>2026-02-02T13:54:44Z</time>
      </trkpt>
      <trkpt lat="45.98623" lon="6.55943">
        <ele>1922.1</ele>
        <time>2026-02-02T13:54:45Z</time>
      </trkpt>
      <trkpt lat="45.98624" lon="6.55942">
        <ele>1922.1</ele>
        <time>2026-02-02T13:54:46Z</time>
      </trkpt>
      <trkpt lat="45.98624" lon="6.55942">
        <ele>1922.1</ele>
        <time>2026-02-02T13:54:47Z</time>
      </trkpt>
      <trkpt lat="45.98625" lon="6.55942">
        <ele>1922.1</ele>
        <time>2026-02-02T13:54:48Z</time>
      </trkpt>
      <trkpt lat="45.98626" lon="6.55942">
        <ele>1922.5</ele>
        <time>2026-02-02T13:54:49Z</time>
      </trkpt>
      <trkpt lat="45.98626" lon="6.55942">
        <ele>1922.5</ele>
        <time>2026-02-02T13:54:50Z</time>
      </trkpt>
      <trkpt lat="45.98627" lon="6.55942">
        <ele>1922.5</ele>
        <time>2026-02-02T13:54:51Z</time>
      </trkpt>
      <trkpt lat="45.98627" lon="6.55942">
        <ele>1922.5</ele>
        <time>2026-02-02T13:54:52Z</time>
      </trkpt>
      <trkpt lat="45.98628" lon="6.55943">
        <ele>1922.5</ele>
        <time>2026-02-02T13:54:53Z</time>
      </trkpt>
      <trkpt lat="45.98628" lon="6.55943">
        <ele>1922.5</ele>
        <time>2026-02-02T13:54:54Z</time>
      </trkpt>
      <trkpt lat="45.98629" lon="6.55943">
        <ele>1922.9</ele>
        <time>2026-02-02T13:54:55Z</time>
      </trkpt>
      <trkpt lat="45.98629" lon="6.55943">
        <ele>1922.9</ele>
        <time>2026-02-02T13:54:56Z</time>
      </trkpt>
      <trkpt lat="45.9863" lon="6.55943">
        <ele>1922.9</ele>
        <time>2026-02-02T13:54:57Z</time>
      </trkpt>
      <trkpt lat="45.9863" lon="6.55943">
        <ele>1922.9</ele>
        <time>2026-02-02T13:54:58Z</time>
      </trkpt>
      <trkpt lat="45.9863" lon="6.55943">
        <ele>1922.9</ele>
        <time>2026-02-02T13:54:59Z</time>
      </trkpt>
      <trkpt lat="45.98631" lon="6.55943">
        <ele>1922.9</ele>
        <time>2026-02-02T13:55:00Z</time>
      </trkpt>
      <trkpt lat="45.98632" lon="6.55944">
        <ele>1923.3</ele>
        <time>2026-02-02T13:55:01Z</time>
      </trkpt>
      <trkpt lat="45.98633" lon="6.55944">
        <ele>1924.6</ele>
        <time>2026-02-02T13:55:02Z</time>
      </trkpt>
      <trkpt lat="45.98634" lon="6.55945">
        <ele>1924.6</ele>
        <time>2026-02-02T13:55:03Z</time>
      </trkpt>
      <trkpt lat="45.98634" lon="6.55945">
        <ele>1924.6</ele>
        <time>2026-02-02T13:55:04Z</time>
      </trkpt>
      <trkpt lat="45.98635" lon="6.55945">
        <ele>1925</ele>
        <time>2026-02-02T13:55:05Z</time>
      </trkpt>
      <trkpt lat="45.98636" lon="6.55945">
        <ele>1925</ele>
        <time>2026-02-02T13:55:06Z</time>
      </trkpt>
      <trkpt lat="45.98635" lon="6.55945">
        <ele>1925</ele>
        <time>2026-02-02T13:55:07Z</time>
      </trkpt>
      <trkpt lat="45.98635" lon="6.55945">
        <ele>1925</ele>
        <time>2026-02-02T13:55:08Z</time>
      </trkpt>
      <trkpt lat="45.98635" lon="6.55945">
        <ele>1925</ele>
        <time>2026-02-02T13:55:09Z</time>
      </trkpt>
      <trkpt lat="45.98635" lon="6.55945">
        <ele>1925</ele>
        <time>2026-02-02T13:55:10Z</time>
      </trkpt>
      <trkpt lat="45.98635" lon="6.55944">
        <ele>1925</ele>
        <time>2026-02-02T13:55:11Z</time>
      </trkpt>
      <trkpt lat="45.98635" lon="6.55944">
        <ele>1925</ele>
        <time>2026-02-02T13:55:12Z</time>
      </trkpt>
      <trkpt lat="45.98635" lon="6.55944">
        <ele>1925</ele>
        <time>2026-02-02T13:55:13Z</time>
      </trkpt>
      <trkpt lat="45.98635" lon="6.55944">
        <ele>1925</ele>
        <time>2026-02-02T13:55:14Z</time>
      </trkpt>
      <trkpt lat="45.98635" lon="6.55944">
        <ele>1925</ele>
        <time>2026-02-02T13:55:15Z</time>
      </trkpt>
      <trkpt lat="45.98635" lon="6.55944">
        <ele>1925</ele>
        <time>2026-02-02T13:55:16Z</time>
      </trkpt>
      <trkpt lat="45.98635" lon="6.55944">
        <ele>1925</ele>
        <time>2026-02-02T13:55:17Z</time>
      </trkpt>
      <trkpt lat="45.98635" lon="6.55944">
        <ele>1925</ele>
        <time>2026-02-02T13:55:18Z</time>
      </trkpt>
      <trkpt lat="45.98635" lon="6.55944">
        <ele>1925</ele>
        <time>2026-02-02T13:55:19Z</time>
      </trkpt>
      <trkpt lat="45.98635" lon="6.55944">
        <ele>1925</ele>
        <time>2026-02-02T13:55:20Z</time>
      </trkpt>
      <trkpt lat="45.98635" lon="6.55944">
        <ele>1925</ele>
        <time>2026-02-02T13:55:21Z</time>
      </trkpt>
      <trkpt lat="45.98635" lon="6.55944">
        <ele>1925</ele>
        <time>2026-02-02T13:55:22Z</time>
      </trkpt>
      <trkpt lat="45.98635" lon="6.55944">
        <ele>1925</ele>
        <time>2026-02-02T13:55:23Z</time>
      </trkpt>
      <trkpt lat="45.98635" lon="6.55944">
        <ele>1925</ele>
        <time>2026-02-02T13:55:24Z</time>
      </trkpt>
      <trkpt lat="45.98635" lon="6.55944">
        <ele>1925</ele>
        <time>2026-02-02T13:55:25Z</time>
      </trkpt>
      <trkpt lat="45.98635" lon="6.55944">
        <ele>1925</ele>
        <time>2026-02-02T13:55:26Z</time>
      </trkpt>
      <trkpt lat="45.98635" lon="6.55944">
        <ele>1925</ele>
        <time>2026-02-02T13:55:27Z</time>
      </trkpt>
      <trkpt lat="45.98636" lon="6.55944">
        <ele>1925</ele>
        <time>2026-02-02T13:55:28Z</time>
      </trkpt>
      <trkpt lat="45.98636" lon="6.55944">
        <ele>1925</ele>
        <time>2026-02-02T13:55:29Z</time>
      </trkpt>
      <trkpt lat="45.98637" lon="6.55944">
        <ele>1925</ele>
        <time>2026-02-02T13:55:30Z</time>
      </trkpt>
      <trkpt lat="45.98637" lon="6.55944">
        <ele>1923.7</ele>
        <time>2026-02-02T13:55:31Z</time>
      </trkpt>
      <trkpt lat="45.98638" lon="6.55944">
        <ele>1925.3</ele>
        <time>2026-02-02T13:55:32Z</time>
      </trkpt>
      <trkpt lat="45.98638" lon="6.55944">
        <ele>1925</ele>
        <time>2026-02-02T13:55:33Z</time>
      </trkpt>
      <trkpt lat="45.98638" lon="6.55944">
        <ele>1924</ele>
        <time>2026-02-02T13:55:34Z</time>
      </trkpt>
      <trkpt lat="45.98639" lon="6.55944">
        <ele>1924</ele>
        <time>2026-02-02T13:55:35Z</time>
      </trkpt>
      <trkpt lat="45.9864" lon="6.55944">
        <ele>1924</ele>
        <time>2026-02-02T13:55:36Z</time>
      </trkpt>
      <trkpt lat="45.98641" lon="6.55944">
        <ele>1924.3</ele>
        <time>2026-02-02T13:55:37Z</time>
      </trkpt>
      <trkpt lat="45.98642" lon="6.55944">
        <ele>1924.3</ele>
        <time>2026-02-02T13:55:38Z</time>
      </trkpt>
      <trkpt lat="45.98642" lon="6.55943">
        <ele>1924.3</ele>
        <time>2026-02-02T13:55:39Z</time>
      </trkpt>
      <trkpt lat="45.98643" lon="6.55943">
        <ele>1924.3</ele>
        <time>2026-02-02T13:55:40Z</time>
      </trkpt>
      <trkpt lat="45.98644" lon="6.55943">
        <ele>1924.3</ele>
        <time>2026-02-02T13:55:41Z</time>
      </trkpt>
      <trkpt lat="45.98645" lon="6.55943">
        <ele>1924.6</ele>
        <time>2026-02-02T13:55:42Z</time>
      </trkpt>
      <trkpt lat="45.98645" lon="6.55943">
        <ele>1924.6</ele>
        <time>2026-02-02T13:55:43Z</time>
      </trkpt>
      <trkpt lat="45.98647" lon="6.55943">
        <ele>1924.7</ele>
        <time>2026-02-02T13:55:45Z</time>
      </trkpt>
      <trkpt lat="45.98648" lon="6.55943">
        <ele>1924.7</ele>
        <time>2026-02-02T13:55:46Z</time>
      </trkpt>
      <trkpt lat="45.98648" lon="6.55943">
        <ele>1924.7</ele>
        <time>2026-02-02T13:55:47Z</time>
      </trkpt>
      <trkpt lat="45.9865" lon="6.55943">
        <ele>1924.7</ele>
        <time>2026-02-02T13:55:48Z</time>
      </trkpt>
      <trkpt lat="45.9865" lon="6.55943">
        <ele>1924.9</ele>
        <time>2026-02-02T13:55:49Z</time>
      </trkpt>
      <trkpt lat="45.9865" lon="6.55943">
        <ele>1924.9</ele>
        <time>2026-02-02T13:55:50Z</time>
      </trkpt>
      <trkpt lat="45.9865" lon="6.55943">
        <ele>1924.9</ele>
        <time>2026-02-02T13:55:51Z</time>
      </trkpt>
      <trkpt lat="45.9865" lon="6.55943">
        <ele>1924.9</ele>
        <time>2026-02-02T13:55:52Z</time>
      </trkpt>
      <trkpt lat="45.9865" lon="6.55943">
        <ele>1924.9</ele>
        <time>2026-02-02T13:55:53Z</time>
      </trkpt>
      <trkpt lat="45.9865" lon="6.55944">
        <ele>1924.9</ele>
        <time>2026-02-02T13:55:54Z</time>
      </trkpt>
      <trkpt lat="45.9865" lon="6.55943">
        <ele>1924.9</ele>
        <time>2026-02-02T13:55:55Z</time>
      </trkpt>
      <trkpt lat="45.9865" lon="6.55943">
        <ele>1924.9</ele>
        <time>2026-02-02T13:55:56Z</time>
      </trkpt>
      <trkpt lat="45.9865" lon="6.55943">
        <ele>1924.9</ele>
        <time>2026-02-02T13:55:57Z</time>
      </trkpt>
      <trkpt lat="45.9865" lon="6.55943">
        <ele>1924.9</ele>
        <time>2026-02-02T13:55:58Z</time>
      </trkpt>
      <trkpt lat="45.9865" lon="6.55944">
        <ele>1924.9</ele>
        <time>2026-02-02T13:55:59Z</time>
      </trkpt>
      <trkpt lat="45.9865" lon="6.55944">
        <ele>1924.9</ele>
        <time>2026-02-02T13:56:00Z</time>
      </trkpt>
      <trkpt lat="45.9865" lon="6.55944">
        <ele>1924.9</ele>
        <time>2026-02-02T13:56:01Z</time>
      </trkpt>
      <trkpt lat="45.98651" lon="6.55944">
        <ele>1924.9</ele>
        <time>2026-02-02T13:56:02Z</time>
      </trkpt>
      <trkpt lat="45.98651" lon="6.55944">
        <ele>1924.9</ele>
        <time>2026-02-02T13:56:03Z</time>
      </trkpt>
      <trkpt lat="45.98652" lon="6.55944">
        <ele>1924.9</ele>
        <time>2026-02-02T13:56:04Z</time>
      </trkpt>
      <trkpt lat="45.98652" lon="6.55944">
        <ele>1924.9</ele>
        <time>2026-02-02T13:56:05Z</time>
      </trkpt>
      <trkpt lat="45.98653" lon="6.55944">
        <ele>1925</ele>
        <time>2026-02-02T13:56:06Z</time>
      </trkpt>
      <trkpt lat="45.98654" lon="6.55944">
        <ele>1925</ele>
        <time>2026-02-02T13:56:07Z</time>
      </trkpt>
      <trkpt lat="45.98655" lon="6.55944">
        <ele>1925</ele>
        <time>2026-02-02T13:56:08Z</time>
      </trkpt>
      <trkpt lat="45.98656" lon="6.55943">
        <ele>1925.1</ele>
        <time>2026-02-02T13:56:09Z</time>
      </trkpt>
      <trkpt lat="45.98657" lon="6.55943">
        <ele>1925.1</ele>
        <time>2026-02-02T13:56:10Z</time>
      </trkpt>
      <trkpt lat="45.98658" lon="6.55943">
        <ele>1925.1</ele>
        <time>2026-02-02T13:56:11Z</time>
      </trkpt>
      <trkpt lat="45.98659" lon="6.55944">
        <ele>1925.2</ele>
        <time>2026-02-02T13:56:12Z</time>
      </trkpt>
      <trkpt lat="45.9866" lon="6.55944">
        <ele>1925.2</ele>
        <time>2026-02-02T13:56:13Z</time>
      </trkpt>
      <trkpt lat="45.98662" lon="6.55944">
        <ele>1926.4</ele>
        <time>2026-02-02T13:56:14Z</time>
      </trkpt>
      <trkpt lat="45.98663" lon="6.55944">
        <ele>1926.4</ele>
        <time>2026-02-02T13:56:15Z</time>
      </trkpt>
      <trkpt lat="45.98664" lon="6.55945">
        <ele>1926.4</ele>
        <time>2026-02-02T13:56:16Z</time>
      </trkpt>
      <trkpt lat="45.98665" lon="6.55946">
        <ele>1926.4</ele>
        <time>2026-02-02T13:56:17Z</time>
      </trkpt>
      <trkpt lat="45.98665" lon="6.55946">
        <ele>1926.4</ele>
        <time>2026-02-02T13:56:18Z</time>
      </trkpt>
      <trkpt lat="45.98666" lon="6.55947">
        <ele>1926.4</ele>
        <time>2026-02-02T13:56:19Z</time>
      </trkpt>
      <trkpt lat="45.98667" lon="6.55947">
        <ele>1926.4</ele>
        <time>2026-02-02T13:56:21Z</time>
      </trkpt>
      <trkpt lat="45.98668" lon="6.55948">
        <ele>1926.2</ele>
        <time>2026-02-02T13:56:22Z</time>
      </trkpt>
      <trkpt lat="45.98668" lon="6.55948">
        <ele>1926.2</ele>
        <time>2026-02-02T13:56:23Z</time>
      </trkpt>
      <trkpt lat="45.98668" lon="6.55948">
        <ele>1926.2</ele>
        <time>2026-02-02T13:56:24Z</time>
      </trkpt>
      <trkpt lat="45.98667" lon="6.55948">
        <ele>1926.4</ele>
        <time>2026-02-02T13:56:25Z</time>
      </trkpt>
      <trkpt lat="45.98667" lon="6.55948">
        <ele>1926.4</ele>
        <time>2026-02-02T13:56:26Z</time>
      </trkpt>
      <trkpt lat="45.98667" lon="6.55948">
        <ele>1926.4</ele>
        <time>2026-02-02T13:56:27Z</time>
      </trkpt>
      <trkpt lat="45.98667" lon="6.55947">
        <ele>1926.4</ele>
        <time>2026-02-02T13:56:28Z</time>
      </trkpt>
      <trkpt lat="45.98667" lon="6.55947">
        <ele>1926.4</ele>
        <time>2026-02-02T13:56:29Z</time>
      </trkpt>
      <trkpt lat="45.98667" lon="6.55947">
        <ele>1926.4</ele>
        <time>2026-02-02T13:56:30Z</time>
      </trkpt>
      <trkpt lat="45.98667" lon="6.55948">
        <ele>1926.4</ele>
        <time>2026-02-02T13:56:31Z</time>
      </trkpt>
      <trkpt lat="45.98667" lon="6.55948">
        <ele>1926.4</ele>
        <time>2026-02-02T13:56:32Z</time>
      </trkpt>
      <trkpt lat="45.98667" lon="6.55948">
        <ele>1926.4</ele>
        <time>2026-02-02T13:56:33Z</time>
      </trkpt>
      <trkpt lat="45.98667" lon="6.55948">
        <ele>1926.4</ele>
        <time>2026-02-02T13:56:34Z</time>
      </trkpt>
      <trkpt lat="45.98667" lon="6.55948">
        <ele>1926.4</ele>
        <time>2026-02-02T13:56:35Z</time>
      </trkpt>
      <trkpt lat="45.98667" lon="6.55948">
        <ele>1926.4</ele>
        <time>2026-02-02T13:56:36Z</time>
      </trkpt>
      <trkpt lat="45.98667" lon="6.55948">
        <ele>1926.4</ele>
        <time>2026-02-02T13:56:37Z</time>
      </trkpt>
      <trkpt lat="45.98668" lon="6.55948">
        <ele>1926.4</ele>
        <time>2026-02-02T13:56:38Z</time>
      </trkpt>
      <trkpt lat="45.98668" lon="6.55948">
        <ele>1926.2</ele>
        <time>2026-02-02T13:56:39Z</time>
      </trkpt>
      <trkpt lat="45.98669" lon="6.55948">
        <ele>1926.2</ele>
        <time>2026-02-02T13:56:40Z</time>
      </trkpt>
      <trkpt lat="45.98669" lon="6.55948">
        <ele>1926.2</ele>
        <time>2026-02-02T13:56:41Z</time>
      </trkpt>
      <trkpt lat="45.9867" lon="6.55948">
        <ele>1926.2</ele>
        <time>2026-02-02T13:56:42Z</time>
      </trkpt>
      <trkpt lat="45.9867" lon="6.55949">
        <ele>1927.4</ele>
        <time>2026-02-02T13:56:43Z</time>
      </trkpt>
      <trkpt lat="45.98671" lon="6.55949">
        <ele>1927.2</ele>
        <time>2026-02-02T13:56:44Z</time>
      </trkpt>
      <trkpt lat="45.98671" lon="6.55949">
        <ele>1927.2</ele>
        <time>2026-02-02T13:56:45Z</time>
      </trkpt>
      <trkpt lat="45.98672" lon="6.5595">
        <ele>1927.2</ele>
        <time>2026-02-02T13:56:46Z</time>
      </trkpt>
      <trkpt lat="45.98672" lon="6.5595">
        <ele>1927.2</ele>
        <time>2026-02-02T13:56:47Z</time>
      </trkpt>
      <trkpt lat="45.98673" lon="6.55951">
        <ele>1927.2</ele>
        <time>2026-02-02T13:56:48Z</time>
      </trkpt>
      <trkpt lat="45.98673" lon="6.55951">
        <ele>1927.4</ele>
        <time>2026-02-02T13:56:49Z</time>
      </trkpt>
      <trkpt lat="45.98674" lon="6.55951">
        <ele>1927.4</ele>
        <time>2026-02-02T13:56:50Z</time>
      </trkpt>
      <trkpt lat="45.98674" lon="6.55951">
        <ele>1927.6</ele>
        <time>2026-02-02T13:56:51Z</time>
      </trkpt>
      <trkpt lat="45.98675" lon="6.55951">
        <ele>1927.8</ele>
        <time>2026-02-02T13:56:52Z</time>
      </trkpt>
      <trkpt lat="45.98675" lon="6.55951">
        <ele>1928</ele>
        <time>2026-02-02T13:56:53Z</time>
      </trkpt>
      <trkpt lat="45.98676" lon="6.55951">
        <ele>1928.2</ele>
        <time>2026-02-02T13:56:54Z</time>
      </trkpt>
      <trkpt lat="45.98677" lon="6.55951">
        <ele>1928.2</ele>
        <time>2026-02-02T13:56:55Z</time>
      </trkpt>
      <trkpt lat="45.98678" lon="6.55951">
        <ele>1928.4</ele>
        <time>2026-02-02T13:56:56Z</time>
      </trkpt>
      <trkpt lat="45.98679" lon="6.55952">
        <ele>1928.6</ele>
        <time>2026-02-02T13:56:57Z</time>
      </trkpt>
      <trkpt lat="45.98679" lon="6.55953">
        <ele>1930.1</ele>
        <time>2026-02-02T13:56:58Z</time>
      </trkpt>
      <trkpt lat="45.9868" lon="6.55953">
        <ele>1930</ele>
        <time>2026-02-02T13:56:59Z</time>
      </trkpt>
      <trkpt lat="45.9868" lon="6.55954">
        <ele>1930.2</ele>
        <time>2026-02-02T13:57:00Z</time>
      </trkpt>
      <trkpt lat="45.9868" lon="6.55954">
        <ele>1930.4</ele>
        <time>2026-02-02T13:57:01Z</time>
      </trkpt>
      <trkpt lat="45.9868" lon="6.55954">
        <ele>1930.6</ele>
        <time>2026-02-02T13:57:02Z</time>
      </trkpt>
      <trkpt lat="45.9868" lon="6.55954">
        <ele>1930.8</ele>
        <time>2026-02-02T13:57:03Z</time>
      </trkpt>
      <trkpt lat="45.9868" lon="6.55954">
        <ele>1931</ele>
        <time>2026-02-02T13:57:04Z</time>
      </trkpt>
      <trkpt lat="45.98681" lon="6.55954">
        <ele>1931.2</ele>
        <time>2026-02-02T13:57:05Z</time>
      </trkpt>
      <trkpt lat="45.98681" lon="6.55955">
        <ele>1931.4</ele>
        <time>2026-02-02T13:57:06Z</time>
      </trkpt>
      <trkpt lat="45.98681" lon="6.55955">
        <ele>1931.7</ele>
        <time>2026-02-02T13:57:07Z</time>
      </trkpt>
      <trkpt lat="45.98681" lon="6.55956">
        <ele>1931.9</ele>
        <time>2026-02-02T13:57:08Z</time>
      </trkpt>
      <trkpt lat="45.98682" lon="6.55956">
        <ele>1932.1</ele>
        <time>2026-02-02T13:57:09Z</time>
      </trkpt>
      <trkpt lat="45.98682" lon="6.55956">
        <ele>1932.3</ele>
        <time>2026-02-02T13:57:10Z</time>
      </trkpt>
      <trkpt lat="45.98682" lon="6.55956">
        <ele>1932.5</ele>
        <time>2026-02-02T13:57:11Z</time>
      </trkpt>
      <trkpt lat="45.98682" lon="6.55956">
        <ele>1932.7</ele>
        <time>2026-02-02T13:57:12Z</time>
      </trkpt>
      <trkpt lat="45.98683" lon="6.55956">
        <ele>1932.5</ele>
        <time>2026-02-02T13:57:13Z</time>
      </trkpt>
      <trkpt lat="45.98683" lon="6.55957">
        <ele>1932.7</ele>
        <time>2026-02-02T13:57:14Z</time>
      </trkpt>
      <trkpt lat="45.98682" lon="6.55956">
        <ele>1933.3</ele>
        <time>2026-02-02T13:57:15Z</time>
      </trkpt>
      <trkpt lat="45.98682" lon="6.55956">
        <ele>1933.5</ele>
        <time>2026-02-02T13:57:16Z</time>
      </trkpt>
      <trkpt lat="45.98682" lon="6.55956">
        <ele>1933.7</ele>
        <time>2026-02-02T13:57:17Z</time>
      </trkpt>
      <trkpt lat="45.98682" lon="6.55956">
        <ele>1933.9</ele>
        <time>2026-02-02T13:57:18Z</time>
      </trkpt>
      <trkpt lat="45.98682" lon="6.55955">
        <ele>1934.1</ele>
        <time>2026-02-02T13:57:19Z</time>
      </trkpt>
      <trkpt lat="45.98682" lon="6.55955">
        <ele>1934.4</ele>
        <time>2026-02-02T13:57:20Z</time>
      </trkpt>
      <trkpt lat="45.98683" lon="6.55955">
        <ele>1934.2</ele>
        <time>2026-02-02T13:57:21Z</time>
      </trkpt>
      <trkpt lat="45.98682" lon="6.55955">
        <ele>1934.8</ele>
        <time>2026-02-02T13:57:22Z</time>
      </trkpt>
      <trkpt lat="45.98682" lon="6.55955">
        <ele>1935</ele>
        <time>2026-02-02T13:57:23Z</time>
      </trkpt>
      <trkpt lat="45.98682" lon="6.55955">
        <ele>1935.2</ele>
        <time>2026-02-02T13:57:24Z</time>
      </trkpt>
      <trkpt lat="45.98682" lon="6.55955">
        <ele>1935.4</ele>
        <time>2026-02-02T13:57:25Z</time>
      </trkpt>
      <trkpt lat="45.98682" lon="6.55955">
        <ele>1935.6</ele>
        <time>2026-02-02T13:57:26Z</time>
      </trkpt>
      <trkpt lat="45.98682" lon="6.55955">
        <ele>1935.8</ele>
        <time>2026-02-02T13:57:27Z</time>
      </trkpt>
      <trkpt lat="45.98682" lon="6.55955">
        <ele>1936</ele>
        <time>2026-02-02T13:57:28Z</time>
      </trkpt>
      <trkpt lat="45.98681" lon="6.55955">
        <ele>1936.2</ele>
        <time>2026-02-02T13:57:29Z</time>
      </trkpt>
      <trkpt lat="45.98681" lon="6.55955">
        <ele>1936.4</ele>
        <time>2026-02-02T13:57:30Z</time>
      </trkpt>
      <trkpt lat="45.98681" lon="6.55955">
        <ele>1936.6</ele>
        <time>2026-02-02T13:57:31Z</time>
      </trkpt>
      <trkpt lat="45.98681" lon="6.55955">
        <ele>1936.9</ele>
        <time>2026-02-02T13:57:32Z</time>
      </trkpt>
      <trkpt lat="45.98681" lon="6.55955">
        <ele>1937.1</ele>
        <time>2026-02-02T13:57:33Z</time>
      </trkpt>
      <trkpt lat="45.98681" lon="6.55955">
        <ele>1937.3</ele>
        <time>2026-02-02T13:57:34Z</time>
      </trkpt>
      <trkpt lat="45.98681" lon="6.55955">
        <ele>1937.5</ele>
        <time>2026-02-02T13:57:35Z</time>
      </trkpt>
      <trkpt lat="45.98681" lon="6.55955">
        <ele>1937.7</ele>
        <time>2026-02-02T13:57:36Z</time>
      </trkpt>
      <trkpt lat="45.98681" lon="6.55955">
        <ele>1937.9</ele>
        <time>2026-02-02T13:57:37Z</time>
      </trkpt>
      <trkpt lat="45.98681" lon="6.55955">
        <ele>1938.1</ele>
        <time>2026-02-02T13:57:38Z</time>
      </trkpt>
      <trkpt lat="45.98681" lon="6.55955">
        <ele>1938.3</ele>
        <time>2026-02-02T13:57:39Z</time>
      </trkpt>
      <trkpt lat="45.98681" lon="6.55957">
        <ele>1939.8</ele>
        <time>2026-02-02T13:57:41Z</time>
      </trkpt>
      <trkpt lat="45.98681" lon="6.55958">
        <ele>1940</ele>
        <time>2026-02-02T13:57:42Z</time>
      </trkpt>
      <trkpt lat="45.9868" lon="6.55959">
        <ele>1940.2</ele>
        <time>2026-02-02T13:57:43Z</time>
      </trkpt>
      <trkpt lat="45.98679" lon="6.5596">
        <ele>1940.7</ele>
        <time>2026-02-02T13:57:44Z</time>
      </trkpt>
      <trkpt lat="45.98678" lon="6.55961">
        <ele>1940.9</ele>
        <time>2026-02-02T13:57:45Z</time>
      </trkpt>
      <trkpt lat="45.98678" lon="6.55962">
        <ele>1942.4</ele>
        <time>2026-02-02T13:57:46Z</time>
      </trkpt>
      <trkpt lat="45.98677" lon="6.55963">
        <ele>1942.6</ele>
        <time>2026-02-02T13:57:47Z</time>
      </trkpt>
      <trkpt lat="45.98677" lon="6.55964">
        <ele>1942.8</ele>
        <time>2026-02-02T13:57:48Z</time>
      </trkpt>
      <trkpt lat="45.98677" lon="6.55965">
        <ele>1943</ele>
        <time>2026-02-02T13:57:49Z</time>
      </trkpt>
      <trkpt lat="45.98677" lon="6.55966">
        <ele>1944.5</ele>
        <time>2026-02-02T13:57:50Z</time>
      </trkpt>
      <trkpt lat="45.98677" lon="6.55967">
        <ele>1944.8</ele>
        <time>2026-02-02T13:57:51Z</time>
      </trkpt>
      <trkpt lat="45.98677" lon="6.55968">
        <ele>1945</ele>
        <time>2026-02-02T13:57:52Z</time>
      </trkpt>
      <trkpt lat="45.98677" lon="6.55969">
        <ele>1945.2</ele>
        <time>2026-02-02T13:57:53Z</time>
      </trkpt>
      <trkpt lat="45.98676" lon="6.5597">
        <ele>1946.9</ele>
        <time>2026-02-02T13:57:54Z</time>
      </trkpt>
      <trkpt lat="45.98674" lon="6.55971">
        <ele>1947.1</ele>
        <time>2026-02-02T13:57:55Z</time>
      </trkpt>
      <trkpt lat="45.98673" lon="6.55972">
        <ele>1947.6</ele>
        <time>2026-02-02T13:57:56Z</time>
      </trkpt>
      <trkpt lat="45.98672" lon="6.55972">
        <ele>1947.8</ele>
        <time>2026-02-02T13:57:57Z</time>
      </trkpt>
      <trkpt lat="45.98671" lon="6.55972">
        <ele>1948.1</ele>
        <time>2026-02-02T13:57:58Z</time>
      </trkpt>
      <trkpt lat="45.9867" lon="6.55973">
        <ele>1948.5</ele>
        <time>2026-02-02T13:57:59Z</time>
      </trkpt>
      <trkpt lat="45.98669" lon="6.55973">
        <ele>1948.7</ele>
        <time>2026-02-02T13:58:00Z</time>
      </trkpt>
      <trkpt lat="45.98669" lon="6.55974">
        <ele>1948.9</ele>
        <time>2026-02-02T13:58:01Z</time>
      </trkpt>
      <trkpt lat="45.98669" lon="6.55975">
        <ele>1950.4</ele>
        <time>2026-02-02T13:58:02Z</time>
      </trkpt>
      <trkpt lat="45.98669" lon="6.55975">
        <ele>1950.6</ele>
        <time>2026-02-02T13:58:03Z</time>
      </trkpt>
      <trkpt lat="45.98668" lon="6.55976">
        <ele>1950.8</ele>
        <time>2026-02-02T13:58:04Z</time>
      </trkpt>
      <trkpt lat="45.98668" lon="6.55977">
        <ele>1951</ele>
        <time>2026-02-02T13:58:05Z</time>
      </trkpt>
      <trkpt lat="45.98667" lon="6.55978">
        <ele>1951.4</ele>
        <time>2026-02-02T13:58:06Z</time>
      </trkpt>
      <trkpt lat="45.98666" lon="6.55979">
        <ele>1952.8</ele>
        <time>2026-02-02T13:58:07Z</time>
      </trkpt>
      <trkpt lat="45.98666" lon="6.5598">
        <ele>1953</ele>
        <time>2026-02-02T13:58:08Z</time>
      </trkpt>
      <trkpt lat="45.98666" lon="6.55981">
        <ele>1953.2</ele>
        <time>2026-02-02T13:58:09Z</time>
      </trkpt>
      <trkpt lat="45.98666" lon="6.55982">
        <ele>1953.4</ele>
        <time>2026-02-02T13:58:10Z</time>
      </trkpt>
      <trkpt lat="45.98666" lon="6.55982">
        <ele>1953.6</ele>
        <time>2026-02-02T13:58:11Z</time>
      </trkpt>
      <trkpt lat="45.98666" lon="6.55983">
        <ele>1955</ele>
        <time>2026-02-02T13:58:12Z</time>
      </trkpt>
      <trkpt lat="45.98666" lon="6.55983">
        <ele>1955.2</ele>
        <time>2026-02-02T13:58:13Z</time>
      </trkpt>
      <trkpt lat="45.98666" lon="6.55983">
        <ele>1955.4</ele>
        <time>2026-02-02T13:58:14Z</time>
      </trkpt>
      <trkpt lat="45.98666" lon="6.55983">
        <ele>1955.6</ele>
        <time>2026-02-02T13:58:15Z</time>
      </trkpt>
      <trkpt lat="45.98666" lon="6.55983">
        <ele>1955.8</ele>
        <time>2026-02-02T13:58:16Z</time>
      </trkpt>
      <trkpt lat="45.98666" lon="6.55984">
        <ele>1956</ele>
        <time>2026-02-02T13:58:17Z</time>
      </trkpt>
      <trkpt lat="45.98666" lon="6.55984">
        <ele>1956.2</ele>
        <time>2026-02-02T13:58:18Z</time>
      </trkpt>
      <trkpt lat="45.98665" lon="6.55984">
        <ele>1956.4</ele>
        <time>2026-02-02T13:58:19Z</time>
      </trkpt>
      <trkpt lat="45.98665" lon="6.55984">
        <ele>1956.6</ele>
        <time>2026-02-02T13:58:20Z</time>
      </trkpt>
      <trkpt lat="45.98665" lon="6.55984">
        <ele>1956.8</ele>
        <time>2026-02-02T13:58:21Z</time>
      </trkpt>
      <trkpt lat="45.98665" lon="6.55984">
        <ele>1957</ele>
        <time>2026-02-02T13:58:22Z</time>
      </trkpt>
      <trkpt lat="45.98665" lon="6.55985">
        <ele>1957.3</ele>
        <time>2026-02-02T13:58:23Z</time>
      </trkpt>
      <trkpt lat="45.98665" lon="6.55985">
        <ele>1957.5</ele>
        <time>2026-02-02T13:58:24Z</time>
      </trkpt>
      <trkpt lat="45.98665" lon="6.55985">
        <ele>1957.7</ele>
        <time>2026-02-02T13:58:25Z</time>
      </trkpt>
      <trkpt lat="45.98665" lon="6.55985">
        <ele>1957.9</ele>
        <time>2026-02-02T13:58:26Z</time>
      </trkpt>
      <trkpt lat="45.98665" lon="6.55985">
        <ele>1958.1</ele>
        <time>2026-02-02T13:58:27Z</time>
      </trkpt>
      <trkpt lat="45.98665" lon="6.55986">
        <ele>1958.3</ele>
        <time>2026-02-02T13:58:28Z</time>
      </trkpt>
      <trkpt lat="45.98665" lon="6.55986">
        <ele>1958.5</ele>
        <time>2026-02-02T13:58:29Z</time>
      </trkpt>
      <trkpt lat="45.98665" lon="6.55986">
        <ele>1958.7</ele>
        <time>2026-02-02T13:58:30Z</time>
      </trkpt>
      <trkpt lat="45.98664" lon="6.55986">
        <ele>1958.7</ele>
        <time>2026-02-02T13:58:31Z</time>
      </trkpt>
      <trkpt lat="45.98664" lon="6.55986">
        <ele>1958.7</ele>
        <time>2026-02-02T13:58:32Z</time>
      </trkpt>
      <trkpt lat="45.98664" lon="6.55986">
        <ele>1958.7</ele>
        <time>2026-02-02T13:58:33Z</time>
      </trkpt>
      <trkpt lat="45.98663" lon="6.55987">
        <ele>1959.8</ele>
        <time>2026-02-02T13:58:34Z</time>
      </trkpt>
      <trkpt lat="45.98663" lon="6.55988">
        <ele>1959.8</ele>
        <time>2026-02-02T13:58:35Z</time>
      </trkpt>
      <trkpt lat="45.98662" lon="6.55989">
        <ele>1959.8</ele>
        <time>2026-02-02T13:58:36Z</time>
      </trkpt>
      <trkpt lat="45.98661" lon="6.55991">
        <ele>1959.9</ele>
        <time>2026-02-02T13:58:37Z</time>
      </trkpt>
      <trkpt lat="45.9866" lon="6.55992">
        <ele>1961.1</ele>
        <time>2026-02-02T13:58:38Z</time>
      </trkpt>
      <trkpt lat="45.98659" lon="6.55993">
        <ele>1961.1</ele>
        <time>2026-02-02T13:58:39Z</time>
      </trkpt>
      <trkpt lat="45.98659" lon="6.55994">
        <ele>1961.1</ele>
        <time>2026-02-02T13:58:40Z</time>
      </trkpt>
      <trkpt lat="45.98658" lon="6.55995">
        <ele>1961.2</ele>
        <time>2026-02-02T13:58:41Z</time>
      </trkpt>
      <trkpt lat="45.98658" lon="6.55996">
        <ele>1962.5</ele>
        <time>2026-02-02T13:58:42Z</time>
      </trkpt>
      <trkpt lat="45.98658" lon="6.55997">
        <ele>1962.5</ele>
        <time>2026-02-02T13:58:43Z</time>
      </trkpt>
      <trkpt lat="45.98657" lon="6.55999">
        <ele>1962.5</ele>
        <time>2026-02-02T13:58:44Z</time>
      </trkpt>
      <trkpt lat="45.98657" lon="6.56">
        <ele>1962.5</ele>
        <time>2026-02-02T13:58:45Z</time>
      </trkpt>
      <trkpt lat="45.98657" lon="6.56001">
        <ele>1963.8</ele>
        <time>2026-02-02T13:58:46Z</time>
      </trkpt>
      <trkpt lat="45.98656" lon="6.56003">
        <ele>1963.8</ele>
        <time>2026-02-02T13:58:47Z</time>
      </trkpt>
      <trkpt lat="45.98656" lon="6.56003">
        <ele>1963.8</ele>
        <time>2026-02-02T13:58:48Z</time>
      </trkpt>
      <trkpt lat="45.98655" lon="6.56004">
        <ele>1965.2</ele>
        <time>2026-02-02T13:58:49Z</time>
      </trkpt>
      <trkpt lat="45.98655" lon="6.56005">
        <ele>1965.2</ele>
        <time>2026-02-02T13:58:50Z</time>
      </trkpt>
      <trkpt lat="45.98654" lon="6.56006">
        <ele>1965.2</ele>
        <time>2026-02-02T13:58:51Z</time>
      </trkpt>
      <trkpt lat="45.98654" lon="6.56006">
        <ele>1965.2</ele>
        <time>2026-02-02T13:58:52Z</time>
      </trkpt>
      <trkpt lat="45.98653" lon="6.56007">
        <ele>1965.2</ele>
        <time>2026-02-02T13:58:53Z</time>
      </trkpt>
      <trkpt lat="45.98653" lon="6.56008">
        <ele>1966.6</ele>
        <time>2026-02-02T13:58:54Z</time>
      </trkpt>
      <trkpt lat="45.98652" lon="6.56009">
        <ele>1966.7</ele>
        <time>2026-02-02T13:58:55Z</time>
      </trkpt>
      <trkpt lat="45.98653" lon="6.56008">
        <ele>1965.3</ele>
        <time>2026-02-02T13:58:56Z</time>
      </trkpt>
      <trkpt lat="45.98653" lon="6.56008">
        <ele>1965.2</ele>
        <time>2026-02-02T13:58:57Z</time>
      </trkpt>
      <trkpt lat="45.98653" lon="6.56007">
        <ele>1965.2</ele>
        <time>2026-02-02T13:58:58Z</time>
      </trkpt>
      <trkpt lat="45.98654" lon="6.56007">
        <ele>1965.2</ele>
        <time>2026-02-02T13:58:59Z</time>
      </trkpt>
      <trkpt lat="45.98654" lon="6.56007">
        <ele>1965.2</ele>
        <time>2026-02-02T13:59:00Z</time>
      </trkpt>
      <trkpt lat="45.98654" lon="6.56007">
        <ele>1965.2</ele>
        <time>2026-02-02T13:59:01Z</time>
      </trkpt>
      <trkpt lat="45.98654" lon="6.56007">
        <ele>1965.2</ele>
        <time>2026-02-02T13:59:02Z</time>
      </trkpt>
      <trkpt lat="45.98654" lon="6.56007">
        <ele>1965.2</ele>
        <time>2026-02-02T13:59:03Z</time>
      </trkpt>
      <trkpt lat="45.98654" lon="6.56007">
        <ele>1965.2</ele>
        <time>2026-02-02T13:59:04Z</time>
      </trkpt>
      <trkpt lat="45.98654" lon="6.56007">
        <ele>1965.2</ele>
        <time>2026-02-02T13:59:05Z</time>
      </trkpt>
      <trkpt lat="45.98654" lon="6.56007">
        <ele>1965.2</ele>
        <time>2026-02-02T13:59:06Z</time>
      </trkpt>
      <trkpt lat="45.98654" lon="6.56007">
        <ele>1965.2</ele>
        <time>2026-02-02T13:59:07Z</time>
      </trkpt>
      <trkpt lat="45.98654" lon="6.56007">
        <ele>1965.2</ele>
        <time>2026-02-02T13:59:08Z</time>
      </trkpt>
      <trkpt lat="45.98654" lon="6.56007">
        <ele>1965.2</ele>
        <time>2026-02-02T13:59:09Z</time>
      </trkpt>
      <trkpt lat="45.98654" lon="6.56007">
        <ele>1965.2</ele>
        <time>2026-02-02T13:59:10Z</time>
      </trkpt>
      <trkpt lat="45.98654" lon="6.56007">
        <ele>1965.2</ele>
        <time>2026-02-02T13:59:11Z</time>
      </trkpt>
      <trkpt lat="45.98654" lon="6.56007">
        <ele>1965.2</ele>
        <time>2026-02-02T13:59:12Z</time>
      </trkpt>
      <trkpt lat="45.98654" lon="6.56007">
        <ele>1965.2</ele>
        <time>2026-02-02T13:59:13Z</time>
      </trkpt>
      <trkpt lat="45.98654" lon="6.56007">
        <ele>1965.2</ele>
        <time>2026-02-02T13:59:14Z</time>
      </trkpt>
      <trkpt lat="45.98653" lon="6.56008">
        <ele>1965.2</ele>
        <time>2026-02-02T13:59:15Z</time>
      </trkpt>
      <trkpt lat="45.98653" lon="6.56009">
        <ele>1966.6</ele>
        <time>2026-02-02T13:59:16Z</time>
      </trkpt>
      <trkpt lat="45.98652" lon="6.5601">
        <ele>1966.7</ele>
        <time>2026-02-02T13:59:17Z</time>
      </trkpt>
      <trkpt lat="45.98652" lon="6.56011">
        <ele>1966.7</ele>
        <time>2026-02-02T13:59:18Z</time>
      </trkpt>
      <trkpt lat="45.98651" lon="6.56012">
        <ele>1966.7</ele>
        <time>2026-02-02T13:59:19Z</time>
      </trkpt>
      <trkpt lat="45.98651" lon="6.56012">
        <ele>1966.7</ele>
        <time>2026-02-02T13:59:20Z</time>
      </trkpt>
      <trkpt lat="45.9865" lon="6.56013">
        <ele>1968.1</ele>
        <time>2026-02-02T13:59:21Z</time>
      </trkpt>
      <trkpt lat="45.9865" lon="6.56015">
        <ele>1968.2</ele>
        <time>2026-02-02T13:59:22Z</time>
      </trkpt>
      <trkpt lat="45.98649" lon="6.56016">
        <ele>1968.2</ele>
        <time>2026-02-02T13:59:23Z</time>
      </trkpt>
      <trkpt lat="45.98649" lon="6.56017">
        <ele>1969.5</ele>
        <time>2026-02-02T13:59:24Z</time>
      </trkpt>
      <trkpt lat="45.98648" lon="6.56019">
        <ele>1969.5</ele>
        <time>2026-02-02T13:59:25Z</time>
      </trkpt>
      <trkpt lat="45.98648" lon="6.5602">
        <ele>1969.5</ele>
        <time>2026-02-02T13:59:26Z</time>
      </trkpt>
      <trkpt lat="45.98648" lon="6.56021">
        <ele>1969.5</ele>
        <time>2026-02-02T13:59:27Z</time>
      </trkpt>
      <trkpt lat="45.98648" lon="6.56022">
        <ele>1970.9</ele>
        <time>2026-02-02T13:59:28Z</time>
      </trkpt>
      <trkpt lat="45.98647" lon="6.56024">
        <ele>1970.9</ele>
        <time>2026-02-02T13:59:29Z</time>
      </trkpt>
      <trkpt lat="45.98647" lon="6.56025">
        <ele>1970.9</ele>
        <time>2026-02-02T13:59:30Z</time>
      </trkpt>
      <trkpt lat="45.98646" lon="6.56026">
        <ele>1972.3</ele>
        <time>2026-02-02T13:59:31Z</time>
      </trkpt>
      <trkpt lat="45.98646" lon="6.56027">
        <ele>1972.3</ele>
        <time>2026-02-02T13:59:32Z</time>
      </trkpt>
      <trkpt lat="45.98646" lon="6.56028">
        <ele>1972.3</ele>
        <time>2026-02-02T13:59:33Z</time>
      </trkpt>
      <trkpt lat="45.98645" lon="6.5603">
        <ele>1973.6</ele>
        <time>2026-02-02T13:59:34Z</time>
      </trkpt>
      <trkpt lat="45.98645" lon="6.56031">
        <ele>1973.6</ele>
        <time>2026-02-02T13:59:35Z</time>
      </trkpt>
      <trkpt lat="45.98644" lon="6.56032">
        <ele>1973.6</ele>
        <time>2026-02-02T13:59:36Z</time>
      </trkpt>
      <trkpt lat="45.98644" lon="6.56033">
        <ele>1973.6</ele>
        <time>2026-02-02T13:59:37Z</time>
      </trkpt>
      <trkpt lat="45.98643" lon="6.56034">
        <ele>1975</ele>
        <time>2026-02-02T13:59:38Z</time>
      </trkpt>
      <trkpt lat="45.98643" lon="6.56035">
        <ele>1975</ele>
        <time>2026-02-02T13:59:39Z</time>
      </trkpt>
      <trkpt lat="45.98643" lon="6.56034">
        <ele>1975</ele>
        <time>2026-02-02T13:59:40Z</time>
      </trkpt>
      <trkpt lat="45.98643" lon="6.56034">
        <ele>1975</ele>
        <time>2026-02-02T13:59:41Z</time>
      </trkpt>
      <trkpt lat="45.98643" lon="6.56034">
        <ele>1973.7</ele>
        <time>2026-02-02T13:59:42Z</time>
      </trkpt>
      <trkpt lat="45.98643" lon="6.56034">
        <ele>1973.7</ele>
        <time>2026-02-02T13:59:43Z</time>
      </trkpt>
      <trkpt lat="45.98644" lon="6.56034">
        <ele>1973.6</ele>
        <time>2026-02-02T13:59:44Z</time>
      </trkpt>
      <trkpt lat="45.98644" lon="6.56034">
        <ele>1973.7</ele>
        <time>2026-02-02T13:59:45Z</time>
      </trkpt>
      <trkpt lat="45.98644" lon="6.56034">
        <ele>1973.6</ele>
        <time>2026-02-02T13:59:46Z</time>
      </trkpt>
      <trkpt lat="45.98644" lon="6.56034">
        <ele>1973.6</ele>
        <time>2026-02-02T13:59:47Z</time>
      </trkpt>
      <trkpt lat="45.98644" lon="6.56034">
        <ele>1973.6</ele>
        <time>2026-02-02T13:59:48Z</time>
      </trkpt>
      <trkpt lat="45.98644" lon="6.56034">
        <ele>1973.6</ele>
        <time>2026-02-02T13:59:49Z</time>
      </trkpt>
      <trkpt lat="45.98644" lon="6.56034">
        <ele>1973.6</ele>
        <time>2026-02-02T13:59:50Z</time>
      </trkpt>
      <trkpt lat="45.98644" lon="6.56034">
        <ele>1973.6</ele>
        <time>2026-02-02T13:59:51Z</time>
      </trkpt>
      <trkpt lat="45.98644" lon="6.56034">
        <ele>1973.6</ele>
        <time>2026-02-02T13:59:52Z</time>
      </trkpt>
      <trkpt lat="45.98644" lon="6.56034">
        <ele>1973.6</ele>
        <time>2026-02-02T13:59:53Z</time>
      </trkpt>
      <trkpt lat="45.98644" lon="6.56034">
        <ele>1973.6</ele>
        <time>2026-02-02T13:59:54Z</time>
      </trkpt>
      <trkpt lat="45.98644" lon="6.56034">
        <ele>1973.6</ele>
        <time>2026-02-02T13:59:55Z</time>
      </trkpt>
      <trkpt lat="45.98644" lon="6.56034">
        <ele>1973.6</ele>
        <time>2026-02-02T13:59:56Z</time>
      </trkpt>
      <trkpt lat="45.98644" lon="6.56034">
        <ele>1973.6</ele>
        <time>2026-02-02T13:59:57Z</time>
      </trkpt>
      <trkpt lat="45.98644" lon="6.56034">
        <ele>1973.6</ele>
        <time>2026-02-02T13:59:58Z</time>
      </trkpt>
      <trkpt lat="45.98644" lon="6.56035">
        <ele>1974.8</ele>
        <time>2026-02-02T13:59:59Z</time>
      </trkpt>
      <trkpt lat="45.98643" lon="6.56035">
        <ele>1975</ele>
        <time>2026-02-02T14:00:00Z</time>
      </trkpt>
      <trkpt lat="45.98643" lon="6.56036">
        <ele>1975</ele>
        <time>2026-02-02T14:00:01Z</time>
      </trkpt>
      <trkpt lat="45.98642" lon="6.56037">
        <ele>1975</ele>
        <time>2026-02-02T14:00:02Z</time>
      </trkpt>
      <trkpt lat="45.98642" lon="6.56037">
        <ele>1975</ele>
        <time>2026-02-02T14:00:03Z</time>
      </trkpt>
      <trkpt lat="45.98642" lon="6.56038">
        <ele>1975</ele>
        <time>2026-02-02T14:00:04Z</time>
      </trkpt>
      <trkpt lat="45.98641" lon="6.56039">
        <ele>1976.3</ele>
        <time>2026-02-02T14:00:05Z</time>
      </trkpt>
      <trkpt lat="45.9864" lon="6.5604">
        <ele>1976.4</ele>
        <time>2026-02-02T14:00:06Z</time>
      </trkpt>
      <trkpt lat="45.98639" lon="6.56041">
        <ele>1976.4</ele>
        <time>2026-02-02T14:00:07Z</time>
      </trkpt>
      <trkpt lat="45.98638" lon="6.56042">
        <ele>1976.4</ele>
        <time>2026-02-02T14:00:08Z</time>
      </trkpt>
      <trkpt lat="45.98638" lon="6.56043">
        <ele>1977.9</ele>
        <time>2026-02-02T14:00:09Z</time>
      </trkpt>
      <trkpt lat="45.98637" lon="6.56044">
        <ele>1977.9</ele>
        <time>2026-02-02T14:00:10Z</time>
      </trkpt>
      <trkpt lat="45.98636" lon="6.56045">
        <ele>1977.9</ele>
        <time>2026-02-02T14:00:11Z</time>
      </trkpt>
      <trkpt lat="45.98636" lon="6.56046">
        <ele>1977.9</ele>
        <time>2026-02-02T14:00:12Z</time>
      </trkpt>
      <trkpt lat="45.98635" lon="6.56047">
        <ele>1979.3</ele>
        <time>2026-02-02T14:00:13Z</time>
      </trkpt>
      <trkpt lat="45.98634" lon="6.56048">
        <ele>1979.4</ele>
        <time>2026-02-02T14:00:14Z</time>
      </trkpt>
      <trkpt lat="45.98634" lon="6.56049">
        <ele>1979.4</ele>
        <time>2026-02-02T14:00:15Z</time>
      </trkpt>
      <trkpt lat="45.98634" lon="6.5605">
        <ele>1979.4</ele>
        <time>2026-02-02T14:00:16Z</time>
      </trkpt>
      <trkpt lat="45.98633" lon="6.56051">
        <ele>1981</ele>
        <time>2026-02-02T14:00:17Z</time>
      </trkpt>
      <trkpt lat="45.98633" lon="6.56053">
        <ele>1981</ele>
        <time>2026-02-02T14:00:18Z</time>
      </trkpt>
      <trkpt lat="45.98632" lon="6.56054">
        <ele>1981</ele>
        <time>2026-02-02T14:00:19Z</time>
      </trkpt>
      <trkpt lat="45.98632" lon="6.56055">
        <ele>1981</ele>
        <time>2026-02-02T14:00:20Z</time>
      </trkpt>
      <trkpt lat="45.98631" lon="6.56057">
        <ele>1982.6</ele>
        <time>2026-02-02T14:00:21Z</time>
      </trkpt>
      <trkpt lat="45.98631" lon="6.56057">
        <ele>1982.6</ele>
        <time>2026-02-02T14:00:22Z</time>
      </trkpt>
      <trkpt lat="45.98631" lon="6.56058">
        <ele>1982.6</ele>
        <time>2026-02-02T14:00:23Z</time>
      </trkpt>
      <trkpt lat="45.98631" lon="6.56057">
        <ele>1982.6</ele>
        <time>2026-02-02T14:00:24Z</time>
      </trkpt>
      <trkpt lat="45.98631" lon="6.56057">
        <ele>1982.6</ele>
        <time>2026-02-02T14:00:25Z</time>
      </trkpt>
      <trkpt lat="45.98632" lon="6.56056">
        <ele>1982.6</ele>
        <time>2026-02-02T14:00:26Z</time>
      </trkpt>
      <trkpt lat="45.98632" lon="6.56056">
        <ele>1982.6</ele>
        <time>2026-02-02T14:00:27Z</time>
      </trkpt>
      <trkpt lat="45.98632" lon="6.56056">
        <ele>1982.6</ele>
        <time>2026-02-02T14:00:28Z</time>
      </trkpt>
      <trkpt lat="45.98632" lon="6.56056">
        <ele>1982.6</ele>
        <time>2026-02-02T14:00:29Z</time>
      </trkpt>
      <trkpt lat="45.98631" lon="6.56056">
        <ele>1982.6</ele>
        <time>2026-02-02T14:00:30Z</time>
      </trkpt>
      <trkpt lat="45.98631" lon="6.56056">
        <ele>1982.6</ele>
        <time>2026-02-02T14:00:31Z</time>
      </trkpt>
      <trkpt lat="45.98631" lon="6.56056">
        <ele>1982.6</ele>
        <time>2026-02-02T14:00:32Z</time>
      </trkpt>
      <trkpt lat="45.98631" lon="6.56056">
        <ele>1982.6</ele>
        <time>2026-02-02T14:00:33Z</time>
      </trkpt>
      <trkpt lat="45.98631" lon="6.56056">
        <ele>1982.6</ele>
        <time>2026-02-02T14:00:34Z</time>
      </trkpt>
      <trkpt lat="45.98631" lon="6.56056">
        <ele>1982.6</ele>
        <time>2026-02-02T14:00:35Z</time>
      </trkpt>
      <trkpt lat="45.98631" lon="6.56056">
        <ele>1982.6</ele>
        <time>2026-02-02T14:00:36Z</time>
      </trkpt>
      <trkpt lat="45.98631" lon="6.56056">
        <ele>1982.6</ele>
        <time>2026-02-02T14:00:37Z</time>
      </trkpt>
      <trkpt lat="45.98631" lon="6.56055">
        <ele>1981</ele>
        <time>2026-02-02T14:00:38Z</time>
      </trkpt>
      <trkpt lat="45.98631" lon="6.56055">
        <ele>1981</ele>
        <time>2026-02-02T14:00:39Z</time>
      </trkpt>
      <trkpt lat="45.98631" lon="6.56055">
        <ele>1981</ele>
        <time>2026-02-02T14:00:40Z</time>
      </trkpt>
      <trkpt lat="45.98631" lon="6.56055">
        <ele>1981</ele>
        <time>2026-02-02T14:00:41Z</time>
      </trkpt>
      <trkpt lat="45.98631" lon="6.56055">
        <ele>1981</ele>
        <time>2026-02-02T14:00:42Z</time>
      </trkpt>
      <trkpt lat="45.98631" lon="6.56055">
        <ele>1981</ele>
        <time>2026-02-02T14:00:43Z</time>
      </trkpt>
      <trkpt lat="45.98631" lon="6.56055">
        <ele>1981</ele>
        <time>2026-02-02T14:00:44Z</time>
      </trkpt>
      <trkpt lat="45.98631" lon="6.56055">
        <ele>1981</ele>
        <time>2026-02-02T14:00:45Z</time>
      </trkpt>
      <trkpt lat="45.98631" lon="6.56055">
        <ele>1981</ele>
        <time>2026-02-02T14:00:46Z</time>
      </trkpt>
      <trkpt lat="45.98631" lon="6.56055">
        <ele>1981</ele>
        <time>2026-02-02T14:00:47Z</time>
      </trkpt>
      <trkpt lat="45.98631" lon="6.56055">
        <ele>1981</ele>
        <time>2026-02-02T14:00:48Z</time>
      </trkpt>
      <trkpt lat="45.98631" lon="6.56055">
        <ele>1981</ele>
        <time>2026-02-02T14:00:49Z</time>
      </trkpt>
      <trkpt lat="45.98631" lon="6.56055">
        <ele>1981</ele>
        <time>2026-02-02T14:00:50Z</time>
      </trkpt>
      <trkpt lat="45.98631" lon="6.56055">
        <ele>1981</ele>
        <time>2026-02-02T14:00:51Z</time>
      </trkpt>
      <trkpt lat="45.98631" lon="6.56055">
        <ele>1981</ele>
        <time>2026-02-02T14:00:52Z</time>
      </trkpt>
      <trkpt lat="45.98631" lon="6.56055">
        <ele>1981</ele>
        <time>2026-02-02T14:00:53Z</time>
      </trkpt>
      <trkpt lat="45.98631" lon="6.56055">
        <ele>1981</ele>
        <time>2026-02-02T14:00:54Z</time>
      </trkpt>
      <trkpt lat="45.98631" lon="6.56055">
        <ele>1981</ele>
        <time>2026-02-02T14:00:55Z</time>
      </trkpt>
      <trkpt lat="45.98631" lon="6.56055">
        <ele>1981</ele>
        <time>2026-02-02T14:00:56Z</time>
      </trkpt>
      <trkpt lat="45.98631" lon="6.56055">
        <ele>1981</ele>
        <time>2026-02-02T14:00:57Z</time>
      </trkpt>
      <trkpt lat="45.98631" lon="6.56055">
        <ele>1981</ele>
        <time>2026-02-02T14:00:58Z</time>
      </trkpt>
      <trkpt lat="45.98631" lon="6.56055">
        <ele>1981</ele>
        <time>2026-02-02T14:00:59Z</time>
      </trkpt>
      <trkpt lat="45.98631" lon="6.56055">
        <ele>1981</ele>
        <time>2026-02-02T14:01:00Z</time>
      </trkpt>
      <trkpt lat="45.98631" lon="6.56055">
        <ele>1981</ele>
        <time>2026-02-02T14:01:01Z</time>
      </trkpt>
      <trkpt lat="45.98631" lon="6.56055">
        <ele>1981</ele>
        <time>2026-02-02T14:01:02Z</time>
      </trkpt>
      <trkpt lat="45.98631" lon="6.56055">
        <ele>1981</ele>
        <time>2026-02-02T14:01:03Z</time>
      </trkpt>
      <trkpt lat="45.98631" lon="6.56055">
        <ele>1981</ele>
        <time>2026-02-02T14:01:04Z</time>
      </trkpt>
      <trkpt lat="45.98631" lon="6.56055">
        <ele>1981</ele>
        <time>2026-02-02T14:01:05Z</time>
      </trkpt>
      <trkpt lat="45.98631" lon="6.56055">
        <ele>1981</ele>
        <time>2026-02-02T14:01:06Z</time>
      </trkpt>
      <trkpt lat="45.98631" lon="6.56055">
        <ele>1981</ele>
        <time>2026-02-02T14:01:07Z</time>
      </trkpt>
      <trkpt lat="45.98631" lon="6.56055">
        <ele>1981</ele>
        <time>2026-02-02T14:01:08Z</time>
      </trkpt>
      <trkpt lat="45.98631" lon="6.56055">
        <ele>1981</ele>
        <time>2026-02-02T14:01:09Z</time>
      </trkpt>
      <trkpt lat="45.98632" lon="6.56054">
        <ele>1981</ele>
        <time>2026-02-02T14:01:10Z</time>
      </trkpt>
      <trkpt lat="45.98632" lon="6.56054">
        <ele>1981</ele>
        <time>2026-02-02T14:01:11Z</time>
      </trkpt>
      <trkpt lat="45.98632" lon="6.56054">
        <ele>1981</ele>
        <time>2026-02-02T14:01:12Z</time>
      </trkpt>
      <trkpt lat="45.98632" lon="6.56054">
        <ele>1981</ele>
        <time>2026-02-02T14:01:13Z</time>
      </trkpt>
      <trkpt lat="45.98632" lon="6.56054">
        <ele>1981</ele>
        <time>2026-02-02T14:01:14Z</time>
      </trkpt>
      <trkpt lat="45.98632" lon="6.56054">
        <ele>1981</ele>
        <time>2026-02-02T14:01:15Z</time>
      </trkpt>
      <trkpt lat="45.98632" lon="6.56054">
        <ele>1981</ele>
        <time>2026-02-02T14:01:16Z</time>
      </trkpt>
      <trkpt lat="45.98632" lon="6.56054">
        <ele>1981</ele>
        <time>2026-02-02T14:01:17Z</time>
      </trkpt>
      <trkpt lat="45.98631" lon="6.56054">
        <ele>1981</ele>
        <time>2026-02-02T14:01:18Z</time>
      </trkpt>
      <trkpt lat="45.98631" lon="6.56055">
        <ele>1981</ele>
        <time>2026-02-02T14:01:19Z</time>
      </trkpt>
      <trkpt lat="45.98631" lon="6.56056">
        <ele>1982.6</ele>
        <time>2026-02-02T14:01:20Z</time>
      </trkpt>
      <trkpt lat="45.98631" lon="6.56056">
        <ele>1982.6</ele>
        <time>2026-02-02T14:01:21Z</time>
      </trkpt>
      <trkpt lat="45.9863" lon="6.56058">
        <ele>1982.6</ele>
        <time>2026-02-02T14:01:22Z</time>
      </trkpt>
      <trkpt lat="45.9863" lon="6.56059">
        <ele>1982.6</ele>
        <time>2026-02-02T14:01:23Z</time>
      </trkpt>
      <trkpt lat="45.98629" lon="6.5606">
        <ele>1982.6</ele>
        <time>2026-02-02T14:01:24Z</time>
      </trkpt>
      <trkpt lat="45.98628" lon="6.56061">
        <ele>1984.2</ele>
        <time>2026-02-02T14:01:25Z</time>
      </trkpt>
      <trkpt lat="45.98628" lon="6.56061">
        <ele>1984.2</ele>
        <time>2026-02-02T14:01:26Z</time>
      </trkpt>
      <trkpt lat="45.98627" lon="6.56062">
        <ele>1984.2</ele>
        <time>2026-02-02T14:01:27Z</time>
      </trkpt>
      <trkpt lat="45.98627" lon="6.56063">
        <ele>1984.2</ele>
        <time>2026-02-02T14:01:28Z</time>
      </trkpt>
      <trkpt lat="45.98626" lon="6.56064">
        <ele>1984.2</ele>
        <time>2026-02-02T14:01:29Z</time>
      </trkpt>
      <trkpt lat="45.98626" lon="6.56065">
        <ele>1985.8</ele>
        <time>2026-02-02T14:01:30Z</time>
      </trkpt>
      <trkpt lat="45.98625" lon="6.56066">
        <ele>1985.8</ele>
        <time>2026-02-02T14:01:31Z</time>
      </trkpt>
      <trkpt lat="45.98625" lon="6.56067">
        <ele>1985.8</ele>
        <time>2026-02-02T14:01:32Z</time>
      </trkpt>
      <trkpt lat="45.98625" lon="6.56067">
        <ele>1985.8</ele>
        <time>2026-02-02T14:01:33Z</time>
      </trkpt>
      <trkpt lat="45.98624" lon="6.56068">
        <ele>1985.8</ele>
        <time>2026-02-02T14:01:34Z</time>
      </trkpt>
      <trkpt lat="45.98624" lon="6.56069">
        <ele>1987.2</ele>
        <time>2026-02-02T14:01:35Z</time>
      </trkpt>
      <trkpt lat="45.98623" lon="6.5607">
        <ele>1987.2</ele>
        <time>2026-02-02T14:01:36Z</time>
      </trkpt>
      <trkpt lat="45.98623" lon="6.56071">
        <ele>1987.2</ele>
        <time>2026-02-02T14:01:37Z</time>
      </trkpt>
      <trkpt lat="45.98622" lon="6.56072">
        <ele>1987.2</ele>
        <time>2026-02-02T14:01:38Z</time>
      </trkpt>
      <trkpt lat="45.98622" lon="6.56072">
        <ele>1987.2</ele>
        <time>2026-02-02T14:01:39Z</time>
      </trkpt>
      <trkpt lat="45.98621" lon="6.56073">
        <ele>1988.6</ele>
        <time>2026-02-02T14:01:40Z</time>
      </trkpt>
      <trkpt lat="45.98621" lon="6.56074">
        <ele>1988.6</ele>
        <time>2026-02-02T14:01:41Z</time>
      </trkpt>
      <trkpt lat="45.9862" lon="6.56075">
        <ele>1988.7</ele>
        <time>2026-02-02T14:01:42Z</time>
      </trkpt>
      <trkpt lat="45.98619" lon="6.56076">
        <ele>1988.7</ele>
        <time>2026-02-02T14:01:43Z</time>
      </trkpt>
      <trkpt lat="45.98619" lon="6.56076">
        <ele>1988.7</ele>
        <time>2026-02-02T14:01:44Z</time>
      </trkpt>
      <trkpt lat="45.98619" lon="6.56077">
        <ele>1990.1</ele>
        <time>2026-02-02T14:01:45Z</time>
      </trkpt>
      <trkpt lat="45.98618" lon="6.56078">
        <ele>1990.1</ele>
        <time>2026-02-02T14:01:46Z</time>
      </trkpt>
      <trkpt lat="45.98618" lon="6.56078">
        <ele>1990.1</ele>
        <time>2026-02-02T14:01:47Z</time>
      </trkpt>
      <trkpt lat="45.98618" lon="6.56078">
        <ele>1990.1</ele>
        <time>2026-02-02T14:01:48Z</time>
      </trkpt>
      <trkpt lat="45.98618" lon="6.56078">
        <ele>1990.1</ele>
        <time>2026-02-02T14:01:49Z</time>
      </trkpt>
      <trkpt lat="45.98618" lon="6.56078">
        <ele>1990.1</ele>
        <time>2026-02-02T14:01:50Z</time>
      </trkpt>
      <trkpt lat="45.98618" lon="6.56079">
        <ele>1990.1</ele>
        <time>2026-02-02T14:01:51Z</time>
      </trkpt>
      <trkpt lat="45.98618" lon="6.56079">
        <ele>1990.1</ele>
        <time>2026-02-02T14:01:52Z</time>
      </trkpt>
      <trkpt lat="45.98618" lon="6.56078">
        <ele>1990.1</ele>
        <time>2026-02-02T14:01:53Z</time>
      </trkpt>
      <trkpt lat="45.98619" lon="6.56078">
        <ele>1990.1</ele>
        <time>2026-02-02T14:01:54Z</time>
      </trkpt>
      <trkpt lat="45.98619" lon="6.56078">
        <ele>1990.1</ele>
        <time>2026-02-02T14:01:55Z</time>
      </trkpt>
      <trkpt lat="45.98619" lon="6.56077">
        <ele>1990.1</ele>
        <time>2026-02-02T14:01:56Z</time>
      </trkpt>
      <trkpt lat="45.98619" lon="6.56077">
        <ele>1990.1</ele>
        <time>2026-02-02T14:01:57Z</time>
      </trkpt>
      <trkpt lat="45.9862" lon="6.56077">
        <ele>1990.1</ele>
        <time>2026-02-02T14:01:58Z</time>
      </trkpt>
      <trkpt lat="45.9862" lon="6.56077">
        <ele>1990.1</ele>
        <time>2026-02-02T14:01:59Z</time>
      </trkpt>
      <trkpt lat="45.9862" lon="6.56077">
        <ele>1990.1</ele>
        <time>2026-02-02T14:02:00Z</time>
      </trkpt>
      <trkpt lat="45.9862" lon="6.56077">
        <ele>1990.1</ele>
        <time>2026-02-02T14:02:01Z</time>
      </trkpt>
      <trkpt lat="45.9862" lon="6.56077">
        <ele>1990.1</ele>
        <time>2026-02-02T14:02:02Z</time>
      </trkpt>
      <trkpt lat="45.9862" lon="6.56077">
        <ele>1990.1</ele>
        <time>2026-02-02T14:02:03Z</time>
      </trkpt>
      <trkpt lat="45.9862" lon="6.56077">
        <ele>1990.1</ele>
        <time>2026-02-02T14:02:04Z</time>
      </trkpt>
      <trkpt lat="45.9862" lon="6.56077">
        <ele>1990.1</ele>
        <time>2026-02-02T14:02:05Z</time>
      </trkpt>
      <trkpt lat="45.9862" lon="6.56077">
        <ele>1990.1</ele>
        <time>2026-02-02T14:02:06Z</time>
      </trkpt>
      <trkpt lat="45.9862" lon="6.56077">
        <ele>1990.1</ele>
        <time>2026-02-02T14:02:07Z</time>
      </trkpt>
      <trkpt lat="45.9862" lon="6.56077">
        <ele>1990.1</ele>
        <time>2026-02-02T14:02:08Z</time>
      </trkpt>
      <trkpt lat="45.98619" lon="6.56077">
        <ele>1990.1</ele>
        <time>2026-02-02T14:02:09Z</time>
      </trkpt>
      <trkpt lat="45.98619" lon="6.56078">
        <ele>1990.1</ele>
        <time>2026-02-02T14:02:10Z</time>
      </trkpt>
      <trkpt lat="45.98619" lon="6.56078">
        <ele>1990.1</ele>
        <time>2026-02-02T14:02:11Z</time>
      </trkpt>
      <trkpt lat="45.98619" lon="6.56079">
        <ele>1990.1</ele>
        <time>2026-02-02T14:02:12Z</time>
      </trkpt>
      <trkpt lat="45.98618" lon="6.5608">
        <ele>1990.1</ele>
        <time>2026-02-02T14:02:13Z</time>
      </trkpt>
      <trkpt lat="45.98618" lon="6.56081">
        <ele>1990.1</ele>
        <time>2026-02-02T14:02:14Z</time>
      </trkpt>
      <trkpt lat="45.98617" lon="6.56082">
        <ele>1991.5</ele>
        <time>2026-02-02T14:02:15Z</time>
      </trkpt>
      <trkpt lat="45.98618" lon="6.56082">
        <ele>1991.5</ele>
        <time>2026-02-02T14:02:16Z</time>
      </trkpt>
      <trkpt lat="45.98618" lon="6.56082">
        <ele>1991.5</ele>
        <time>2026-02-02T14:02:17Z</time>
      </trkpt>
      <trkpt lat="45.98618" lon="6.56082">
        <ele>1991.5</ele>
        <time>2026-02-02T14:02:18Z</time>
      </trkpt>
      <trkpt lat="45.98618" lon="6.56081">
        <ele>1991.5</ele>
        <time>2026-02-02T14:02:19Z</time>
      </trkpt>
      <trkpt lat="45.98618" lon="6.56081">
        <ele>1990.1</ele>
        <time>2026-02-02T14:02:20Z</time>
      </trkpt>
      <trkpt lat="45.98618" lon="6.56081">
        <ele>1990.1</ele>
        <time>2026-02-02T14:02:21Z</time>
      </trkpt>
      <trkpt lat="45.98618" lon="6.56081">
        <ele>1990.1</ele>
        <time>2026-02-02T14:02:22Z</time>
      </trkpt>
      <trkpt lat="45.98618" lon="6.56081">
        <ele>1991.5</ele>
        <time>2026-02-02T14:02:23Z</time>
      </trkpt>
      <trkpt lat="45.98618" lon="6.56082">
        <ele>1991.5</ele>
        <time>2026-02-02T14:02:24Z</time>
      </trkpt>
      <trkpt lat="45.98618" lon="6.56083">
        <ele>1991.5</ele>
        <time>2026-02-02T14:02:25Z</time>
      </trkpt>
      <trkpt lat="45.98619" lon="6.56084">
        <ele>1991.5</ele>
        <time>2026-02-02T14:02:26Z</time>
      </trkpt>
      <trkpt lat="45.9862" lon="6.56085">
        <ele>1991.5</ele>
        <time>2026-02-02T14:02:27Z</time>
      </trkpt>
      <trkpt lat="45.9862" lon="6.56085">
        <ele>1991.5</ele>
        <time>2026-02-02T14:02:28Z</time>
      </trkpt>
      <trkpt lat="45.98621" lon="6.56086">
        <ele>1992.9</ele>
        <time>2026-02-02T14:02:29Z</time>
      </trkpt>
      <trkpt lat="45.98622" lon="6.56086">
        <ele>1992.9</ele>
        <time>2026-02-02T14:02:30Z</time>
      </trkpt>
      <trkpt lat="45.98623" lon="6.56087">
        <ele>1992.8</ele>
        <time>2026-02-02T14:02:31Z</time>
      </trkpt>
      <trkpt lat="45.98624" lon="6.56088">
        <ele>1992.8</ele>
        <time>2026-02-02T14:02:32Z</time>
      </trkpt>
      <trkpt lat="45.98625" lon="6.56089">
        <ele>1992.8</ele>
        <time>2026-02-02T14:02:33Z</time>
      </trkpt>
      <trkpt lat="45.98625" lon="6.56089">
        <ele>1992.8</ele>
        <time>2026-02-02T14:02:34Z</time>
      </trkpt>
      <trkpt lat="45.98625" lon="6.56088">
        <ele>1992.8</ele>
        <time>2026-02-02T14:02:35Z</time>
      </trkpt>
      <trkpt lat="45.98625" lon="6.56088">
        <ele>1992.8</ele>
        <time>2026-02-02T14:02:36Z</time>
      </trkpt>
      <trkpt lat="45.98625" lon="6.56087">
        <ele>1992.8</ele>
        <time>2026-02-02T14:02:37Z</time>
      </trkpt>
      <trkpt lat="45.98625" lon="6.56087">
        <ele>1992.8</ele>
        <time>2026-02-02T14:02:38Z</time>
      </trkpt>
      <trkpt lat="45.98625" lon="6.56087">
        <ele>1992.8</ele>
        <time>2026-02-02T14:02:39Z</time>
      </trkpt>
      <trkpt lat="45.98625" lon="6.56087">
        <ele>1992.8</ele>
        <time>2026-02-02T14:02:40Z</time>
      </trkpt>
      <trkpt lat="45.98625" lon="6.56087">
        <ele>1992.8</ele>
        <time>2026-02-02T14:02:41Z</time>
      </trkpt>
      <trkpt lat="45.98625" lon="6.56087">
        <ele>1992.8</ele>
        <time>2026-02-02T14:02:42Z</time>
      </trkpt>
      <trkpt lat="45.98625" lon="6.56087">
        <ele>1992.8</ele>
        <time>2026-02-02T14:02:43Z</time>
      </trkpt>
      <trkpt lat="45.98625" lon="6.56087">
        <ele>1992.8</ele>
        <time>2026-02-02T14:02:44Z</time>
      </trkpt>
      <trkpt lat="45.98625" lon="6.56087">
        <ele>1992.8</ele>
        <time>2026-02-02T14:02:45Z</time>
      </trkpt>
      <trkpt lat="45.98625" lon="6.56087">
        <ele>1992.8</ele>
        <time>2026-02-02T14:02:46Z</time>
      </trkpt>
      <trkpt lat="45.98625" lon="6.56087">
        <ele>1992.8</ele>
        <time>2026-02-02T14:02:47Z</time>
      </trkpt>
      <trkpt lat="45.98625" lon="6.56087">
        <ele>1992.8</ele>
        <time>2026-02-02T14:02:48Z</time>
      </trkpt>
      <trkpt lat="45.98625" lon="6.56087">
        <ele>1992.8</ele>
        <time>2026-02-02T14:02:49Z</time>
      </trkpt>
      <trkpt lat="45.98625" lon="6.56087">
        <ele>1992.8</ele>
        <time>2026-02-02T14:02:50Z</time>
      </trkpt>
      <trkpt lat="45.98625" lon="6.56087">
        <ele>1992.8</ele>
        <time>2026-02-02T14:02:51Z</time>
      </trkpt>
      <trkpt lat="45.98625" lon="6.56087">
        <ele>1992.8</ele>
        <time>2026-02-02T14:02:52Z</time>
      </trkpt>
      <trkpt lat="45.98625" lon="6.56087">
        <ele>1992.8</ele>
        <time>2026-02-02T14:02:53Z</time>
      </trkpt>
      <trkpt lat="45.98625" lon="6.56087">
        <ele>1992.8</ele>
        <time>2026-02-02T14:02:54Z</time>
      </trkpt>
      <trkpt lat="45.98625" lon="6.56087">
        <ele>1992.8</ele>
        <time>2026-02-02T14:02:55Z</time>
      </trkpt>
      <trkpt lat="45.98625" lon="6.56087">
        <ele>1992.8</ele>
        <time>2026-02-02T14:02:56Z</time>
      </trkpt>
      <trkpt lat="45.98626" lon="6.56088">
        <ele>1992.8</ele>
        <time>2026-02-02T14:02:57Z</time>
      </trkpt>
      <trkpt lat="45.98626" lon="6.56088">
        <ele>1992.7</ele>
        <time>2026-02-02T14:02:58Z</time>
      </trkpt>
      <trkpt lat="45.98627" lon="6.56088">
        <ele>1992.7</ele>
        <time>2026-02-02T14:02:59Z</time>
      </trkpt>
      <trkpt lat="45.98626" lon="6.56088">
        <ele>1992.7</ele>
        <time>2026-02-02T14:03:00Z</time>
      </trkpt>
      <trkpt lat="45.98627" lon="6.56089">
        <ele>1992.7</ele>
        <time>2026-02-02T14:03:01Z</time>
      </trkpt>
      <trkpt lat="45.98628" lon="6.56089">
        <ele>1992.7</ele>
        <time>2026-02-02T14:03:02Z</time>
      </trkpt>
      <trkpt lat="45.98628" lon="6.5609">
        <ele>1992.7</ele>
        <time>2026-02-02T14:03:03Z</time>
      </trkpt>
      <trkpt lat="45.98629" lon="6.5609">
        <ele>1994</ele>
        <time>2026-02-02T14:03:04Z</time>
      </trkpt>
      <trkpt lat="45.9863" lon="6.56091">
        <ele>1994</ele>
        <time>2026-02-02T14:03:05Z</time>
      </trkpt>
      <trkpt lat="45.98631" lon="6.56093">
        <ele>1994</ele>
        <time>2026-02-02T14:03:06Z</time>
      </trkpt>
      <trkpt lat="45.98632" lon="6.56094">
        <ele>1994</ele>
        <time>2026-02-02T14:03:07Z</time>
      </trkpt>
      <trkpt lat="45.98632" lon="6.56095">
        <ele>1995.3</ele>
        <time>2026-02-02T14:03:08Z</time>
      </trkpt>
      <trkpt lat="45.98633" lon="6.56096">
        <ele>1995.3</ele>
        <time>2026-02-02T14:03:09Z</time>
      </trkpt>
      <trkpt lat="45.98634" lon="6.56097">
        <ele>1995.3</ele>
        <time>2026-02-02T14:03:10Z</time>
      </trkpt>
      <trkpt lat="45.98634" lon="6.56099">
        <ele>1996.8</ele>
        <time>2026-02-02T14:03:11Z</time>
      </trkpt>
      <trkpt lat="45.98635" lon="6.561">
        <ele>1996.5</ele>
        <time>2026-02-02T14:03:12Z</time>
      </trkpt>
      <trkpt lat="45.98635" lon="6.561">
        <ele>1996.5</ele>
        <time>2026-02-02T14:03:13Z</time>
      </trkpt>
      <trkpt lat="45.98636" lon="6.56101">
        <ele>1996.5</ele>
        <time>2026-02-02T14:03:14Z</time>
      </trkpt>
      <trkpt lat="45.98636" lon="6.56101">
        <ele>1996.5</ele>
        <time>2026-02-02T14:03:15Z</time>
      </trkpt>
      <trkpt lat="45.98635" lon="6.56101">
        <ele>1996.5</ele>
        <time>2026-02-02T14:03:16Z</time>
      </trkpt>
      <trkpt lat="45.98635" lon="6.56101">
        <ele>1996.5</ele>
        <time>2026-02-02T14:03:17Z</time>
      </trkpt>
      <trkpt lat="45.98635" lon="6.56101">
        <ele>1996.5</ele>
        <time>2026-02-02T14:03:18Z</time>
      </trkpt>
      <trkpt lat="45.98635" lon="6.561">
        <ele>1996.8</ele>
        <time>2026-02-02T14:03:19Z</time>
      </trkpt>
      <trkpt lat="45.98635" lon="6.561">
        <ele>1996.8</ele>
        <time>2026-02-02T14:03:20Z</time>
      </trkpt>
      <trkpt lat="45.98635" lon="6.561">
        <ele>1996.8</ele>
        <time>2026-02-02T14:03:21Z</time>
      </trkpt>
      <trkpt lat="45.98635" lon="6.561">
        <ele>1996.8</ele>
        <time>2026-02-02T14:03:22Z</time>
      </trkpt>
      <trkpt lat="45.98635" lon="6.561">
        <ele>1996.8</ele>
        <time>2026-02-02T14:03:23Z</time>
      </trkpt>
      <trkpt lat="45.98635" lon="6.561">
        <ele>1996.8</ele>
        <time>2026-02-02T14:03:24Z</time>
      </trkpt>
      <trkpt lat="45.98635" lon="6.56101">
        <ele>1996.8</ele>
        <time>2026-02-02T14:03:25Z</time>
      </trkpt>
      <trkpt lat="45.98635" lon="6.56101">
        <ele>1996.5</ele>
        <time>2026-02-02T14:03:26Z</time>
      </trkpt>
      <trkpt lat="45.98635" lon="6.56101">
        <ele>1996.5</ele>
        <time>2026-02-02T14:03:27Z</time>
      </trkpt>
      <trkpt lat="45.98636" lon="6.56102">
        <ele>1996.5</ele>
        <time>2026-02-02T14:03:28Z</time>
      </trkpt>
      <trkpt lat="45.98637" lon="6.56103">
        <ele>1998</ele>
        <time>2026-02-02T14:03:29Z</time>
      </trkpt>
      <trkpt lat="45.98637" lon="6.56104">
        <ele>1998</ele>
        <time>2026-02-02T14:03:30Z</time>
      </trkpt>
      <trkpt lat="45.98638" lon="6.56105">
        <ele>1998</ele>
        <time>2026-02-02T14:03:31Z</time>
      </trkpt>
      <trkpt lat="45.98638" lon="6.56106">
        <ele>1997.6</ele>
        <time>2026-02-02T14:03:32Z</time>
      </trkpt>
      <trkpt lat="45.98639" lon="6.56108">
        <ele>1999.1</ele>
        <time>2026-02-02T14:03:33Z</time>
      </trkpt>
      <trkpt lat="45.9864" lon="6.56109">
        <ele>1999.1</ele>
        <time>2026-02-02T14:03:34Z</time>
      </trkpt>
      <trkpt lat="45.9864" lon="6.5611">
        <ele>1999.1</ele>
        <time>2026-02-02T14:03:35Z</time>
      </trkpt>
      <trkpt lat="45.98641" lon="6.56111">
        <ele>1998.7</ele>
        <time>2026-02-02T14:03:36Z</time>
      </trkpt>
      <trkpt lat="45.98642" lon="6.56112">
        <ele>2000.1</ele>
        <time>2026-02-02T14:03:37Z</time>
      </trkpt>
      <trkpt lat="45.98642" lon="6.56113">
        <ele>2000.1</ele>
        <time>2026-02-02T14:03:38Z</time>
      </trkpt>
      <trkpt lat="45.98643" lon="6.56113">
        <ele>2000.1</ele>
        <time>2026-02-02T14:03:39Z</time>
      </trkpt>
      <trkpt lat="45.98643" lon="6.56114">
        <ele>2000.1</ele>
        <time>2026-02-02T14:03:40Z</time>
      </trkpt>
      <trkpt lat="45.98644" lon="6.56115">
        <ele>1999.6</ele>
        <time>2026-02-02T14:03:41Z</time>
      </trkpt>
      <trkpt lat="45.98645" lon="6.56116">
        <ele>2000.9</ele>
        <time>2026-02-02T14:03:42Z</time>
      </trkpt>
      <trkpt lat="45.98645" lon="6.56116">
        <ele>2000.9</ele>
        <time>2026-02-02T14:03:43Z</time>
      </trkpt>
      <trkpt lat="45.98645" lon="6.56116">
        <ele>2000.9</ele>
        <time>2026-02-02T14:03:44Z</time>
      </trkpt>
      <trkpt lat="45.98646" lon="6.56117">
        <ele>2000.9</ele>
        <time>2026-02-02T14:03:45Z</time>
      </trkpt>
      <trkpt lat="45.98646" lon="6.56116">
        <ele>2000.9</ele>
        <time>2026-02-02T14:03:46Z</time>
      </trkpt>
      <trkpt lat="45.98645" lon="6.56116">
        <ele>2000.9</ele>
        <time>2026-02-02T14:03:47Z</time>
      </trkpt>
      <trkpt lat="45.98645" lon="6.56116">
        <ele>2000.9</ele>
        <time>2026-02-02T14:03:48Z</time>
      </trkpt>
      <trkpt lat="45.98645" lon="6.56116">
        <ele>1999.6</ele>
        <time>2026-02-02T14:03:49Z</time>
      </trkpt>
      <trkpt lat="45.98645" lon="6.56115">
        <ele>1999.6</ele>
        <time>2026-02-02T14:03:50Z</time>
      </trkpt>
      <trkpt lat="45.98645" lon="6.56115">
        <ele>1999.6</ele>
        <time>2026-02-02T14:03:51Z</time>
      </trkpt>
      <trkpt lat="45.98645" lon="6.56115">
        <ele>1999.6</ele>
        <time>2026-02-02T14:03:52Z</time>
      </trkpt>
      <trkpt lat="45.98645" lon="6.56115">
        <ele>1999.6</ele>
        <time>2026-02-02T14:03:53Z</time>
      </trkpt>
      <trkpt lat="45.98645" lon="6.56115">
        <ele>1999.6</ele>
        <time>2026-02-02T14:03:54Z</time>
      </trkpt>
      <trkpt lat="45.98645" lon="6.56115">
        <ele>1999.6</ele>
        <time>2026-02-02T14:03:55Z</time>
      </trkpt>
      <trkpt lat="45.98645" lon="6.56115">
        <ele>1999.6</ele>
        <time>2026-02-02T14:03:56Z</time>
      </trkpt>
      <trkpt lat="45.98645" lon="6.56115">
        <ele>1999.6</ele>
        <time>2026-02-02T14:03:57Z</time>
      </trkpt>
      <trkpt lat="45.98645" lon="6.56115">
        <ele>1999.6</ele>
        <time>2026-02-02T14:03:58Z</time>
      </trkpt>
      <trkpt lat="45.98645" lon="6.56115">
        <ele>1999.6</ele>
        <time>2026-02-02T14:03:59Z</time>
      </trkpt>
      <trkpt lat="45.98645" lon="6.56115">
        <ele>1999.6</ele>
        <time>2026-02-02T14:04:00Z</time>
      </trkpt>
      <trkpt lat="45.98645" lon="6.56115">
        <ele>1999.6</ele>
        <time>2026-02-02T14:04:01Z</time>
      </trkpt>
      <trkpt lat="45.98645" lon="6.56115">
        <ele>1999.6</ele>
        <time>2026-02-02T14:04:02Z</time>
      </trkpt>
      <trkpt lat="45.98645" lon="6.56115">
        <ele>1999.6</ele>
        <time>2026-02-02T14:04:03Z</time>
      </trkpt>
      <trkpt lat="45.98645" lon="6.56115">
        <ele>1999.6</ele>
        <time>2026-02-02T14:04:04Z</time>
      </trkpt>
      <trkpt lat="45.98645" lon="6.56115">
        <ele>1999.6</ele>
        <time>2026-02-02T14:04:05Z</time>
      </trkpt>
      <trkpt lat="45.98646" lon="6.56115">
        <ele>1999.6</ele>
        <time>2026-02-02T14:04:06Z</time>
      </trkpt>
      <trkpt lat="45.98646" lon="6.56116">
        <ele>2000.9</ele>
        <time>2026-02-02T14:04:07Z</time>
      </trkpt>
      <trkpt lat="45.98647" lon="6.56117">
        <ele>2000.9</ele>
        <time>2026-02-02T14:04:08Z</time>
      </trkpt>
      <trkpt lat="45.98647" lon="6.56118">
        <ele>2000.5</ele>
        <time>2026-02-02T14:04:09Z</time>
      </trkpt>
      <trkpt lat="45.98647" lon="6.56118">
        <ele>2000.5</ele>
        <time>2026-02-02T14:04:10Z</time>
      </trkpt>
      <trkpt lat="45.98647" lon="6.56119">
        <ele>2000.5</ele>
        <time>2026-02-02T14:04:11Z</time>
      </trkpt>
      <trkpt lat="45.98648" lon="6.5612">
        <ele>2000.5</ele>
        <time>2026-02-02T14:04:12Z</time>
      </trkpt>
      <trkpt lat="45.98649" lon="6.56121">
        <ele>2001.7</ele>
        <time>2026-02-02T14:04:13Z</time>
      </trkpt>
      <trkpt lat="45.9865" lon="6.56123">
        <ele>2001.2</ele>
        <time>2026-02-02T14:04:15Z</time>
      </trkpt>
      <trkpt lat="45.98651" lon="6.56125">
        <ele>2002.3</ele>
        <time>2026-02-02T14:04:16Z</time>
      </trkpt>
      <trkpt lat="45.98651" lon="6.56126">
        <ele>2002.3</ele>
        <time>2026-02-02T14:04:17Z</time>
      </trkpt>
      <trkpt lat="45.98652" lon="6.56126">
        <ele>2002.3</ele>
        <time>2026-02-02T14:04:18Z</time>
      </trkpt>
      <trkpt lat="45.98652" lon="6.56127">
        <ele>2002.3</ele>
        <time>2026-02-02T14:04:19Z</time>
      </trkpt>
      <trkpt lat="45.98652" lon="6.56128">
        <ele>2002.3</ele>
        <time>2026-02-02T14:04:20Z</time>
      </trkpt>
      <trkpt lat="45.98652" lon="6.56128">
        <ele>2002.3</ele>
        <time>2026-02-02T14:04:21Z</time>
      </trkpt>
      <trkpt lat="45.98652" lon="6.56128">
        <ele>2002.3</ele>
        <time>2026-02-02T14:04:22Z</time>
      </trkpt>
      <trkpt lat="45.98652" lon="6.56128">
        <ele>2002.3</ele>
        <time>2026-02-02T14:04:23Z</time>
      </trkpt>
      <trkpt lat="45.98653" lon="6.56127">
        <ele>2002.3</ele>
        <time>2026-02-02T14:04:24Z</time>
      </trkpt>
      <trkpt lat="45.98653" lon="6.56127">
        <ele>2002.3</ele>
        <time>2026-02-02T14:04:25Z</time>
      </trkpt>
      <trkpt lat="45.98653" lon="6.56127">
        <ele>2002.3</ele>
        <time>2026-02-02T14:04:26Z</time>
      </trkpt>
      <trkpt lat="45.98653" lon="6.56127">
        <ele>2002.3</ele>
        <time>2026-02-02T14:04:27Z</time>
      </trkpt>
      <trkpt lat="45.98653" lon="6.56127">
        <ele>2002.3</ele>
        <time>2026-02-02T14:04:28Z</time>
      </trkpt>
      <trkpt lat="45.98653" lon="6.56128">
        <ele>2001.8</ele>
        <time>2026-02-02T14:04:29Z</time>
      </trkpt>
      <trkpt lat="45.98653" lon="6.56128">
        <ele>2001.8</ele>
        <time>2026-02-02T14:04:30Z</time>
      </trkpt>
      <trkpt lat="45.98653" lon="6.56129">
        <ele>2002.9</ele>
        <time>2026-02-02T14:04:31Z</time>
      </trkpt>
      <trkpt lat="45.98653" lon="6.56129">
        <ele>2002.9</ele>
        <time>2026-02-02T14:04:32Z</time>
      </trkpt>
      <trkpt lat="45.98653" lon="6.56129">
        <ele>2002.9</ele>
        <time>2026-02-02T14:04:33Z</time>
      </trkpt>
      <trkpt lat="45.98652" lon="6.5613">
        <ele>2003.5</ele>
        <time>2026-02-02T14:04:34Z</time>
      </trkpt>
      <trkpt lat="45.98651" lon="6.5613">
        <ele>2003.5</ele>
        <time>2026-02-02T14:04:35Z</time>
      </trkpt>
      <trkpt lat="45.98649" lon="6.5613">
        <ele>2004</ele>
        <time>2026-02-02T14:04:36Z</time>
      </trkpt>
      <trkpt lat="45.98648" lon="6.5613">
        <ele>2004</ele>
        <time>2026-02-02T14:04:37Z</time>
      </trkpt>
      <trkpt lat="45.98647" lon="6.5613">
        <ele>2004</ele>
        <time>2026-02-02T14:04:39Z</time>
      </trkpt>
      <trkpt lat="45.98647" lon="6.56131">
        <ele>2004</ele>
        <time>2026-02-02T14:04:40Z</time>
      </trkpt>
      <trkpt lat="45.98647" lon="6.56131">
        <ele>2004</ele>
        <time>2026-02-02T14:04:41Z</time>
      </trkpt>
      <trkpt lat="45.98647" lon="6.56131">
        <ele>2004</ele>
        <time>2026-02-02T14:04:42Z</time>
      </trkpt>
      <trkpt lat="45.98647" lon="6.56131">
        <ele>2004</ele>
        <time>2026-02-02T14:04:43Z</time>
      </trkpt>
      <trkpt lat="45.98647" lon="6.56131">
        <ele>2004</ele>
        <time>2026-02-02T14:04:44Z</time>
      </trkpt>
      <trkpt lat="45.98647" lon="6.56131">
        <ele>2004</ele>
        <time>2026-02-02T14:04:45Z</time>
      </trkpt>
      <trkpt lat="45.98647" lon="6.56131">
        <ele>2004</ele>
        <time>2026-02-02T14:04:46Z</time>
      </trkpt>
      <trkpt lat="45.98647" lon="6.56131">
        <ele>2004</ele>
        <time>2026-02-02T14:04:48Z</time>
      </trkpt>
      <trkpt lat="45.98647" lon="6.56131">
        <ele>2004</ele>
        <time>2026-02-02T14:04:49Z</time>
      </trkpt>
      <trkpt lat="45.98647" lon="6.56131">
        <ele>2004</ele>
        <time>2026-02-02T14:04:50Z</time>
      </trkpt>
      <trkpt lat="45.98647" lon="6.56131">
        <ele>2004</ele>
        <time>2026-02-02T14:04:51Z</time>
      </trkpt>
      <trkpt lat="45.98647" lon="6.56131">
        <ele>2004</ele>
        <time>2026-02-02T14:04:52Z</time>
      </trkpt>
      <trkpt lat="45.98647" lon="6.56131">
        <ele>2004</ele>
        <time>2026-02-02T14:04:53Z</time>
      </trkpt>
      <trkpt lat="45.98647" lon="6.56131">
        <ele>2004.6</ele>
        <time>2026-02-02T14:04:54Z</time>
      </trkpt>
      <trkpt lat="45.98646" lon="6.56132">
        <ele>2004.6</ele>
        <time>2026-02-02T14:04:55Z</time>
      </trkpt>
      <trkpt lat="45.98645" lon="6.56132">
        <ele>2004.6</ele>
        <time>2026-02-02T14:04:56Z</time>
      </trkpt>
      <trkpt lat="45.98644" lon="6.56133">
        <ele>2004.6</ele>
        <time>2026-02-02T14:04:57Z</time>
      </trkpt>
      <trkpt lat="45.98643" lon="6.56133">
        <ele>2006.4</ele>
        <time>2026-02-02T14:04:58Z</time>
      </trkpt>
      <trkpt lat="45.98643" lon="6.56134">
        <ele>2006.4</ele>
        <time>2026-02-02T14:04:59Z</time>
      </trkpt>
      <trkpt lat="45.98642" lon="6.56135">
        <ele>2006.4</ele>
        <time>2026-02-02T14:05:00Z</time>
      </trkpt>
      <trkpt lat="45.98641" lon="6.56136">
        <ele>2006.4</ele>
        <time>2026-02-02T14:05:01Z</time>
      </trkpt>
      <trkpt lat="45.9864" lon="6.56136">
        <ele>2006.9</ele>
        <time>2026-02-02T14:05:02Z</time>
      </trkpt>
      <trkpt lat="45.98639" lon="6.56136">
        <ele>2006.9</ele>
        <time>2026-02-02T14:05:03Z</time>
      </trkpt>
      <trkpt lat="45.98639" lon="6.56136">
        <ele>2006.9</ele>
        <time>2026-02-02T14:05:04Z</time>
      </trkpt>
      <trkpt lat="45.98638" lon="6.56137">
        <ele>2006.9</ele>
        <time>2026-02-02T14:05:05Z</time>
      </trkpt>
      <trkpt lat="45.98637" lon="6.56137">
        <ele>2008.8</ele>
        <time>2026-02-02T14:05:06Z</time>
      </trkpt>
      <trkpt lat="45.98636" lon="6.56138">
        <ele>2008.8</ele>
        <time>2026-02-02T14:05:07Z</time>
      </trkpt>
      <trkpt lat="45.98635" lon="6.56138">
        <ele>2008.8</ele>
        <time>2026-02-02T14:05:08Z</time>
      </trkpt>
      <trkpt lat="45.98635" lon="6.56138">
        <ele>2008.8</ele>
        <time>2026-02-02T14:05:09Z</time>
      </trkpt>
      <trkpt lat="45.98635" lon="6.56138">
        <ele>2009.3</ele>
        <time>2026-02-02T14:05:11Z</time>
      </trkpt>
      <trkpt lat="45.98634" lon="6.56138">
        <ele>2009.3</ele>
        <time>2026-02-02T14:05:12Z</time>
      </trkpt>
      <trkpt lat="45.98633" lon="6.56139">
        <ele>2009.3</ele>
        <time>2026-02-02T14:05:13Z</time>
      </trkpt>
      <trkpt lat="45.98632" lon="6.56139">
        <ele>2009.3</ele>
        <time>2026-02-02T14:05:14Z</time>
      </trkpt>
      <trkpt lat="45.98632" lon="6.56139">
        <ele>2009.3</ele>
        <time>2026-02-02T14:05:15Z</time>
      </trkpt>
      <trkpt lat="45.98632" lon="6.56139">
        <ele>2009.3</ele>
        <time>2026-02-02T14:05:16Z</time>
      </trkpt>
      <trkpt lat="45.98632" lon="6.56139">
        <ele>2009.3</ele>
        <time>2026-02-02T14:05:17Z</time>
      </trkpt>
      <trkpt lat="45.98632" lon="6.56139">
        <ele>2009.3</ele>
        <time>2026-02-02T14:05:18Z</time>
      </trkpt>
      <trkpt lat="45.98632" lon="6.56139">
        <ele>2009.3</ele>
        <time>2026-02-02T14:05:19Z</time>
      </trkpt>
      <trkpt lat="45.98632" lon="6.56139">
        <ele>2009.3</ele>
        <time>2026-02-02T14:05:21Z</time>
      </trkpt>
      <trkpt lat="45.98632" lon="6.56139">
        <ele>2009.3</ele>
        <time>2026-02-02T14:05:22Z</time>
      </trkpt>
      <trkpt lat="45.98632" lon="6.56139">
        <ele>2009.3</ele>
        <time>2026-02-02T14:05:23Z</time>
      </trkpt>
      <trkpt lat="45.98632" lon="6.56139">
        <ele>2009.3</ele>
        <time>2026-02-02T14:05:24Z</time>
      </trkpt>
      <trkpt lat="45.98632" lon="6.56139">
        <ele>2009.3</ele>
        <time>2026-02-02T14:05:25Z</time>
      </trkpt>
      <trkpt lat="45.98632" lon="6.56139">
        <ele>2009.3</ele>
        <time>2026-02-02T14:05:26Z</time>
      </trkpt>
      <trkpt lat="45.98632" lon="6.56139">
        <ele>2009.3</ele>
        <time>2026-02-02T14:05:27Z</time>
      </trkpt>
      <trkpt lat="45.98632" lon="6.56139">
        <ele>2009.3</ele>
        <time>2026-02-02T14:05:28Z</time>
      </trkpt>
      <trkpt lat="45.98632" lon="6.56139">
        <ele>2009.3</ele>
        <time>2026-02-02T14:05:29Z</time>
      </trkpt>
      <trkpt lat="45.98632" lon="6.56139">
        <ele>2009.3</ele>
        <time>2026-02-02T14:05:30Z</time>
      </trkpt>
      <trkpt lat="45.98632" lon="6.56139">
        <ele>2009.3</ele>
        <time>2026-02-02T14:05:31Z</time>
      </trkpt>
      <trkpt lat="45.98632" lon="6.56139">
        <ele>2009.7</ele>
        <time>2026-02-02T14:05:32Z</time>
      </trkpt>
      <trkpt lat="45.98631" lon="6.5614">
        <ele>2009.7</ele>
        <time>2026-02-02T14:05:33Z</time>
      </trkpt>
      <trkpt lat="45.9863" lon="6.56141">
        <ele>2009.7</ele>
        <time>2026-02-02T14:05:34Z</time>
      </trkpt>
      <trkpt lat="45.98629" lon="6.56142">
        <ele>2011.1</ele>
        <time>2026-02-02T14:05:35Z</time>
      </trkpt>
      <trkpt lat="45.98629" lon="6.56142">
        <ele>2011.5</ele>
        <time>2026-02-02T14:05:36Z</time>
      </trkpt>
      <trkpt lat="45.98628" lon="6.56143">
        <ele>2011.5</ele>
        <time>2026-02-02T14:05:37Z</time>
      </trkpt>
      <trkpt lat="45.98627" lon="6.56144">
        <ele>2011.5</ele>
        <time>2026-02-02T14:05:38Z</time>
      </trkpt>
      <trkpt lat="45.98626" lon="6.56144">
        <ele>2011.5</ele>
        <time>2026-02-02T14:05:39Z</time>
      </trkpt>
      <trkpt lat="45.98625" lon="6.56145">
        <ele>2011.8</ele>
        <time>2026-02-02T14:05:40Z</time>
      </trkpt>
      <trkpt lat="45.98624" lon="6.56145">
        <ele>2011.8</ele>
        <time>2026-02-02T14:05:41Z</time>
      </trkpt>
      <trkpt lat="45.98623" lon="6.56146">
        <ele>2013.2</ele>
        <time>2026-02-02T14:05:42Z</time>
      </trkpt>
      <trkpt lat="45.98622" lon="6.56147">
        <ele>2013.5</ele>
        <time>2026-02-02T14:05:44Z</time>
      </trkpt>
      <trkpt lat="45.98622" lon="6.56147">
        <ele>2013.5</ele>
        <time>2026-02-02T14:05:45Z</time>
      </trkpt>
      <trkpt lat="45.98622" lon="6.56147">
        <ele>2013.5</ele>
        <time>2026-02-02T14:05:46Z</time>
      </trkpt>
      <trkpt lat="45.98622" lon="6.56147">
        <ele>2013.5</ele>
        <time>2026-02-02T14:05:47Z</time>
      </trkpt>
      <trkpt lat="45.98622" lon="6.56147">
        <ele>2013.5</ele>
        <time>2026-02-02T14:05:48Z</time>
      </trkpt>
      <trkpt lat="45.98622" lon="6.56147">
        <ele>2013.5</ele>
        <time>2026-02-02T14:05:49Z</time>
      </trkpt>
      <trkpt lat="45.98623" lon="6.56147">
        <ele>2013.5</ele>
        <time>2026-02-02T14:05:50Z</time>
      </trkpt>
      <trkpt lat="45.98623" lon="6.56147">
        <ele>2013.5</ele>
        <time>2026-02-02T14:05:51Z</time>
      </trkpt>
      <trkpt lat="45.98623" lon="6.56147">
        <ele>2013.5</ele>
        <time>2026-02-02T14:05:52Z</time>
      </trkpt>
      <trkpt lat="45.98623" lon="6.56147">
        <ele>2013.5</ele>
        <time>2026-02-02T14:05:53Z</time>
      </trkpt>
      <trkpt lat="45.98623" lon="6.56147">
        <ele>2013.5</ele>
        <time>2026-02-02T14:05:54Z</time>
      </trkpt>
      <trkpt lat="45.98623" lon="6.56147">
        <ele>2013.5</ele>
        <time>2026-02-02T14:05:55Z</time>
      </trkpt>
      <trkpt lat="45.98623" lon="6.56147">
        <ele>2013.5</ele>
        <time>2026-02-02T14:05:56Z</time>
      </trkpt>
      <trkpt lat="45.98623" lon="6.56147">
        <ele>2013.5</ele>
        <time>2026-02-02T14:05:57Z</time>
      </trkpt>
      <trkpt lat="45.98623" lon="6.56147">
        <ele>2013.5</ele>
        <time>2026-02-02T14:05:58Z</time>
      </trkpt>
      <trkpt lat="45.98623" lon="6.56147">
        <ele>2013.5</ele>
        <time>2026-02-02T14:05:59Z</time>
      </trkpt>
      <trkpt lat="45.98623" lon="6.56147">
        <ele>2013.5</ele>
        <time>2026-02-02T14:06:00Z</time>
      </trkpt>
      <trkpt lat="45.98623" lon="6.56147">
        <ele>2013.5</ele>
        <time>2026-02-02T14:06:01Z</time>
      </trkpt>
      <trkpt lat="45.98623" lon="6.56148">
        <ele>2013.5</ele>
        <time>2026-02-02T14:06:02Z</time>
      </trkpt>
      <trkpt lat="45.98622" lon="6.56148">
        <ele>2013.5</ele>
        <time>2026-02-02T14:06:03Z</time>
      </trkpt>
      <trkpt lat="45.98621" lon="6.56149">
        <ele>2013.5</ele>
        <time>2026-02-02T14:06:04Z</time>
      </trkpt>
      <trkpt lat="45.9862" lon="6.5615">
        <ele>2014.9</ele>
        <time>2026-02-02T14:06:05Z</time>
      </trkpt>
      <trkpt lat="45.98619" lon="6.56151">
        <ele>2015.1</ele>
        <time>2026-02-02T14:06:06Z</time>
      </trkpt>
      <trkpt lat="45.98618" lon="6.56152">
        <ele>2015.1</ele>
        <time>2026-02-02T14:06:07Z</time>
      </trkpt>
      <trkpt lat="45.98618" lon="6.56153">
        <ele>2015.1</ele>
        <time>2026-02-02T14:06:08Z</time>
      </trkpt>
      <trkpt lat="45.98617" lon="6.56154">
        <ele>2015.3</ele>
        <time>2026-02-02T14:06:09Z</time>
      </trkpt>
      <trkpt lat="45.98616" lon="6.56154">
        <ele>2015.3</ele>
        <time>2026-02-02T14:06:10Z</time>
      </trkpt>
      <trkpt lat="45.98615" lon="6.56155">
        <ele>2016.7</ele>
        <time>2026-02-02T14:06:11Z</time>
      </trkpt>
      <trkpt lat="45.98613" lon="6.56155">
        <ele>2016.9</ele>
        <time>2026-02-02T14:06:12Z</time>
      </trkpt>
      <trkpt lat="45.98612" lon="6.56155">
        <ele>2016.9</ele>
        <time>2026-02-02T14:06:13Z</time>
      </trkpt>
      <trkpt lat="45.98611" lon="6.56156">
        <ele>2016.9</ele>
        <time>2026-02-02T14:06:14Z</time>
      </trkpt>
      <trkpt lat="45.9861" lon="6.56156">
        <ele>2017.2</ele>
        <time>2026-02-02T14:06:15Z</time>
      </trkpt>
      <trkpt lat="45.98609" lon="6.56157">
        <ele>2017.2</ele>
        <time>2026-02-02T14:06:17Z</time>
      </trkpt>
      <trkpt lat="45.98608" lon="6.56158">
        <ele>2017.2</ele>
        <time>2026-02-02T14:06:18Z</time>
      </trkpt>
      <trkpt lat="45.98607" lon="6.56158">
        <ele>2017.4</ele>
        <time>2026-02-02T14:06:19Z</time>
      </trkpt>
      <trkpt lat="45.98606" lon="6.56159">
        <ele>2018.8</ele>
        <time>2026-02-02T14:06:20Z</time>
      </trkpt>
      <trkpt lat="45.98606" lon="6.56159">
        <ele>2018.8</ele>
        <time>2026-02-02T14:06:21Z</time>
      </trkpt>
      <trkpt lat="45.98606" lon="6.56159">
        <ele>2018.8</ele>
        <time>2026-02-02T14:06:22Z</time>
      </trkpt>
      <trkpt lat="45.98606" lon="6.56159">
        <ele>2018.8</ele>
        <time>2026-02-02T14:06:23Z</time>
      </trkpt>
      <trkpt lat="45.98606" lon="6.56159">
        <ele>2018.8</ele>
        <time>2026-02-02T14:06:25Z</time>
      </trkpt>
      <trkpt lat="45.98606" lon="6.56159">
        <ele>2018.8</ele>
        <time>2026-02-02T14:06:26Z</time>
      </trkpt>
      <trkpt lat="45.98606" lon="6.56159">
        <ele>2018.8</ele>
        <time>2026-02-02T14:06:27Z</time>
      </trkpt>
      <trkpt lat="45.98607" lon="6.56159">
        <ele>2018.8</ele>
        <time>2026-02-02T14:06:28Z</time>
      </trkpt>
      <trkpt lat="45.98607" lon="6.56159">
        <ele>2018.8</ele>
        <time>2026-02-02T14:06:29Z</time>
      </trkpt>
      <trkpt lat="45.98607" lon="6.56159">
        <ele>2018.8</ele>
        <time>2026-02-02T14:06:30Z</time>
      </trkpt>
      <trkpt lat="45.98607" lon="6.56159">
        <ele>2018.8</ele>
        <time>2026-02-02T14:06:31Z</time>
      </trkpt>
      <trkpt lat="45.98607" lon="6.56159">
        <ele>2018.8</ele>
        <time>2026-02-02T14:06:32Z</time>
      </trkpt>
      <trkpt lat="45.98606" lon="6.56159">
        <ele>2018.8</ele>
        <time>2026-02-02T14:06:33Z</time>
      </trkpt>
      <trkpt lat="45.98606" lon="6.56159">
        <ele>2018.8</ele>
        <time>2026-02-02T14:06:34Z</time>
      </trkpt>
      <trkpt lat="45.98605" lon="6.5616">
        <ele>2018.8</ele>
        <time>2026-02-02T14:06:36Z</time>
      </trkpt>
      <trkpt lat="45.98605" lon="6.5616">
        <ele>2019</ele>
        <time>2026-02-02T14:06:37Z</time>
      </trkpt>
      <trkpt lat="45.98604" lon="6.56161">
        <ele>2019</ele>
        <time>2026-02-02T14:06:38Z</time>
      </trkpt>
      <trkpt lat="45.98603" lon="6.56161">
        <ele>2019</ele>
        <time>2026-02-02T14:06:39Z</time>
      </trkpt>
      <trkpt lat="45.98603" lon="6.56161">
        <ele>2019</ele>
        <time>2026-02-02T14:06:40Z</time>
      </trkpt>
      <trkpt lat="45.98603" lon="6.56161">
        <ele>2019</ele>
        <time>2026-02-02T14:06:41Z</time>
      </trkpt>
      <trkpt lat="45.98602" lon="6.56162">
        <ele>2019.1</ele>
        <time>2026-02-02T14:06:42Z</time>
      </trkpt>
      <trkpt lat="45.98601" lon="6.56162">
        <ele>2019.1</ele>
        <time>2026-02-02T14:06:43Z</time>
      </trkpt>
      <trkpt lat="45.986" lon="6.56163">
        <ele>2020.5</ele>
        <time>2026-02-02T14:06:44Z</time>
      </trkpt>
      <trkpt lat="45.986" lon="6.56163">
        <ele>2020.5</ele>
        <time>2026-02-02T14:06:45Z</time>
      </trkpt>
      <trkpt lat="45.986" lon="6.56163">
        <ele>2020.5</ele>
        <time>2026-02-02T14:06:46Z</time>
      </trkpt>
      <trkpt lat="45.986" lon="6.56164">
        <ele>2020.5</ele>
        <time>2026-02-02T14:06:47Z</time>
      </trkpt>
      <trkpt lat="45.98599" lon="6.56164">
        <ele>2020.5</ele>
        <time>2026-02-02T14:06:48Z</time>
      </trkpt>
      <trkpt lat="45.98599" lon="6.56164">
        <ele>2020.5</ele>
        <time>2026-02-02T14:06:49Z</time>
      </trkpt>
      <trkpt lat="45.98599" lon="6.56164">
        <ele>2020.5</ele>
        <time>2026-02-02T14:06:50Z</time>
      </trkpt>
      <trkpt lat="45.98599" lon="6.56164">
        <ele>2020.7</ele>
        <time>2026-02-02T14:06:51Z</time>
      </trkpt>
      <trkpt lat="45.98599" lon="6.56164">
        <ele>2020.7</ele>
        <time>2026-02-02T14:06:52Z</time>
      </trkpt>
      <trkpt lat="45.98599" lon="6.56164">
        <ele>2020.7</ele>
        <time>2026-02-02T14:06:53Z</time>
      </trkpt>
      <trkpt lat="45.98598" lon="6.56164">
        <ele>2020.7</ele>
        <time>2026-02-02T14:06:54Z</time>
      </trkpt>
      <trkpt lat="45.98598" lon="6.56164">
        <ele>2020.7</ele>
        <time>2026-02-02T14:06:55Z</time>
      </trkpt>
      <trkpt lat="45.98598" lon="6.56165">
        <ele>2020.7</ele>
        <time>2026-02-02T14:06:56Z</time>
      </trkpt>
      <trkpt lat="45.98598" lon="6.56165">
        <ele>2020.7</ele>
        <time>2026-02-02T14:06:57Z</time>
      </trkpt>
      <trkpt lat="45.98598" lon="6.56165">
        <ele>2020.7</ele>
        <time>2026-02-02T14:06:58Z</time>
      </trkpt>
      <trkpt lat="45.98598" lon="6.56165">
        <ele>2020.7</ele>
        <time>2026-02-02T14:06:59Z</time>
      </trkpt>
      <trkpt lat="45.98598" lon="6.56165">
        <ele>2020.7</ele>
        <time>2026-02-02T14:07:00Z</time>
      </trkpt>
      <trkpt lat="45.98597" lon="6.56165">
        <ele>2020.7</ele>
        <time>2026-02-02T14:07:01Z</time>
      </trkpt>
      <trkpt lat="45.98597" lon="6.56165">
        <ele>2020.7</ele>
        <time>2026-02-02T14:07:02Z</time>
      </trkpt>
      <trkpt lat="45.98597" lon="6.56165">
        <ele>2020.7</ele>
        <time>2026-02-02T14:07:03Z</time>
      </trkpt>
      <trkpt lat="45.98597" lon="6.56165">
        <ele>2020.7</ele>
        <time>2026-02-02T14:07:04Z</time>
      </trkpt>
      <trkpt lat="45.98596" lon="6.56166">
        <ele>2020.8</ele>
        <time>2026-02-02T14:07:05Z</time>
      </trkpt>
      <trkpt lat="45.98595" lon="6.56167">
        <ele>2020.8</ele>
        <time>2026-02-02T14:07:06Z</time>
      </trkpt>
      <trkpt lat="45.98595" lon="6.56168">
        <ele>2022.2</ele>
        <time>2026-02-02T14:07:07Z</time>
      </trkpt>
      <trkpt lat="45.98594" lon="6.56169">
        <ele>2022.2</ele>
        <time>2026-02-02T14:07:08Z</time>
      </trkpt>
      <trkpt lat="45.98593" lon="6.5617">
        <ele>2022.2</ele>
        <time>2026-02-02T14:07:09Z</time>
      </trkpt>
      <trkpt lat="45.98593" lon="6.56171">
        <ele>2022.4</ele>
        <time>2026-02-02T14:07:10Z</time>
      </trkpt>
      <trkpt lat="45.98592" lon="6.56171">
        <ele>2022.4</ele>
        <time>2026-02-02T14:07:11Z</time>
      </trkpt>
      <trkpt lat="45.98592" lon="6.56172">
        <ele>2023.7</ele>
        <time>2026-02-02T14:07:12Z</time>
      </trkpt>
      <trkpt lat="45.98591" lon="6.56172">
        <ele>2023.7</ele>
        <time>2026-02-02T14:07:13Z</time>
      </trkpt>
      <trkpt lat="45.98591" lon="6.56172">
        <ele>2023.7</ele>
        <time>2026-02-02T14:07:14Z</time>
      </trkpt>
      <trkpt lat="45.9859" lon="6.56173">
        <ele>2023.9</ele>
        <time>2026-02-02T14:07:15Z</time>
      </trkpt>
      <trkpt lat="45.98589" lon="6.56173">
        <ele>2023.9</ele>
        <time>2026-02-02T14:07:16Z</time>
      </trkpt>
      <trkpt lat="45.98588" lon="6.56173">
        <ele>2023.9</ele>
        <time>2026-02-02T14:07:17Z</time>
      </trkpt>
      <trkpt lat="45.98588" lon="6.56173">
        <ele>2023.9</ele>
        <time>2026-02-02T14:07:19Z</time>
      </trkpt>
      <trkpt lat="45.98588" lon="6.56173">
        <ele>2023.9</ele>
        <time>2026-02-02T14:07:20Z</time>
      </trkpt>
      <trkpt lat="45.98588" lon="6.56173">
        <ele>2023.9</ele>
        <time>2026-02-02T14:07:21Z</time>
      </trkpt>
      <trkpt lat="45.98588" lon="6.56173">
        <ele>2023.9</ele>
        <time>2026-02-02T14:07:22Z</time>
      </trkpt>
      <trkpt lat="45.98588" lon="6.56173">
        <ele>2023.9</ele>
        <time>2026-02-02T14:07:23Z</time>
      </trkpt>
      <trkpt lat="45.98588" lon="6.56173">
        <ele>2023.9</ele>
        <time>2026-02-02T14:07:24Z</time>
      </trkpt>
      <trkpt lat="45.98588" lon="6.56172">
        <ele>2023.9</ele>
        <time>2026-02-02T14:07:25Z</time>
      </trkpt>
      <trkpt lat="45.98588" lon="6.56172">
        <ele>2023.9</ele>
        <time>2026-02-02T14:07:26Z</time>
      </trkpt>
      <trkpt lat="45.98588" lon="6.56172">
        <ele>2023.9</ele>
        <time>2026-02-02T14:07:27Z</time>
      </trkpt>
      <trkpt lat="45.98588" lon="6.56172">
        <ele>2023.9</ele>
        <time>2026-02-02T14:07:29Z</time>
      </trkpt>
      <trkpt lat="45.98588" lon="6.56172">
        <ele>2023.9</ele>
        <time>2026-02-02T14:07:30Z</time>
      </trkpt>
      <trkpt lat="45.98588" lon="6.56172">
        <ele>2023.9</ele>
        <time>2026-02-02T14:07:31Z</time>
      </trkpt>
      <trkpt lat="45.98588" lon="6.56172">
        <ele>2023.9</ele>
        <time>2026-02-02T14:07:32Z</time>
      </trkpt>
      <trkpt lat="45.98588" lon="6.56173">
        <ele>2023.9</ele>
        <time>2026-02-02T14:07:33Z</time>
      </trkpt>
      <trkpt lat="45.98588" lon="6.56173">
        <ele>2023.9</ele>
        <time>2026-02-02T14:07:34Z</time>
      </trkpt>
      <trkpt lat="45.98588" lon="6.56173">
        <ele>2023.9</ele>
        <time>2026-02-02T14:07:35Z</time>
      </trkpt>
      <trkpt lat="45.98587" lon="6.56174">
        <ele>2024.1</ele>
        <time>2026-02-02T14:07:36Z</time>
      </trkpt>
      <trkpt lat="45.98586" lon="6.56174">
        <ele>2024.1</ele>
        <time>2026-02-02T14:07:37Z</time>
      </trkpt>
      <trkpt lat="45.98585" lon="6.56175">
        <ele>2024.1</ele>
        <time>2026-02-02T14:07:38Z</time>
      </trkpt>
      <trkpt lat="45.98585" lon="6.56175">
        <ele>2024.1</ele>
        <time>2026-02-02T14:07:39Z</time>
      </trkpt>
      <trkpt lat="45.98584" lon="6.56175">
        <ele>2024.1</ele>
        <time>2026-02-02T14:07:40Z</time>
      </trkpt>
      <trkpt lat="45.98584" lon="6.56176">
        <ele>2025.6</ele>
        <time>2026-02-02T14:07:41Z</time>
      </trkpt>
      <trkpt lat="45.98584" lon="6.56176">
        <ele>2025.6</ele>
        <time>2026-02-02T14:07:42Z</time>
      </trkpt>
      <trkpt lat="45.98583" lon="6.56176">
        <ele>2025.6</ele>
        <time>2026-02-02T14:07:43Z</time>
      </trkpt>
      <trkpt lat="45.98583" lon="6.56177">
        <ele>2025.6</ele>
        <time>2026-02-02T14:07:44Z</time>
      </trkpt>
      <trkpt lat="45.98582" lon="6.56178">
        <ele>2025.6</ele>
        <time>2026-02-02T14:07:45Z</time>
      </trkpt>
      <trkpt lat="45.98581" lon="6.56178">
        <ele>2025.6</ele>
        <time>2026-02-02T14:07:46Z</time>
      </trkpt>
      <trkpt lat="45.98581" lon="6.56178">
        <ele>2025.8</ele>
        <time>2026-02-02T14:07:47Z</time>
      </trkpt>
      <trkpt lat="45.9858" lon="6.56179">
        <ele>2025.8</ele>
        <time>2026-02-02T14:07:48Z</time>
      </trkpt>
      <trkpt lat="45.98579" lon="6.56179">
        <ele>2025.8</ele>
        <time>2026-02-02T14:07:49Z</time>
      </trkpt>
      <trkpt lat="45.98579" lon="6.56179">
        <ele>2025.8</ele>
        <time>2026-02-02T14:07:50Z</time>
      </trkpt>
      <trkpt lat="45.98578" lon="6.56179">
        <ele>2025.8</ele>
        <time>2026-02-02T14:07:51Z</time>
      </trkpt>
      <trkpt lat="45.98579" lon="6.56179">
        <ele>2025.8</ele>
        <time>2026-02-02T14:07:52Z</time>
      </trkpt>
      <trkpt lat="45.98579" lon="6.56179">
        <ele>2025.8</ele>
        <time>2026-02-02T14:07:53Z</time>
      </trkpt>
      <trkpt lat="45.98579" lon="6.56179">
        <ele>2025.8</ele>
        <time>2026-02-02T14:07:54Z</time>
      </trkpt>
      <trkpt lat="45.98579" lon="6.56179">
        <ele>2025.8</ele>
        <time>2026-02-02T14:07:55Z</time>
      </trkpt>
      <trkpt lat="45.98579" lon="6.56179">
        <ele>2025.8</ele>
        <time>2026-02-02T14:07:56Z</time>
      </trkpt>
      <trkpt lat="45.98579" lon="6.56179">
        <ele>2025.8</ele>
        <time>2026-02-02T14:07:57Z</time>
      </trkpt>
      <trkpt lat="45.98579" lon="6.56179">
        <ele>2025.8</ele>
        <time>2026-02-02T14:07:58Z</time>
      </trkpt>
      <trkpt lat="45.98579" lon="6.56179">
        <ele>2025.8</ele>
        <time>2026-02-02T14:07:59Z</time>
      </trkpt>
      <trkpt lat="45.98579" lon="6.56179">
        <ele>2025.8</ele>
        <time>2026-02-02T14:08:00Z</time>
      </trkpt>
      <trkpt lat="45.98578" lon="6.56179">
        <ele>2025.8</ele>
        <time>2026-02-02T14:08:01Z</time>
      </trkpt>
      <trkpt lat="45.98577" lon="6.56179">
        <ele>2025.9</ele>
        <time>2026-02-02T14:08:03Z</time>
      </trkpt>
      <trkpt lat="45.98576" lon="6.56179">
        <ele>2025.9</ele>
        <time>2026-02-02T14:08:04Z</time>
      </trkpt>
      <trkpt lat="45.98575" lon="6.5618">
        <ele>2025.9</ele>
        <time>2026-02-02T14:08:05Z</time>
      </trkpt>
      <trkpt lat="45.98574" lon="6.5618">
        <ele>2026</ele>
        <time>2026-02-02T14:08:06Z</time>
      </trkpt>
      <trkpt lat="45.98573" lon="6.5618">
        <ele>2026</ele>
        <time>2026-02-02T14:08:07Z</time>
      </trkpt>
      <trkpt lat="45.98572" lon="6.5618">
        <ele>2026</ele>
        <time>2026-02-02T14:08:08Z</time>
      </trkpt>
      <trkpt lat="45.98571" lon="6.5618">
        <ele>2027.5</ele>
        <time>2026-02-02T14:08:09Z</time>
      </trkpt>
      <trkpt lat="45.9857" lon="6.5618">
        <ele>2027.5</ele>
        <time>2026-02-02T14:08:10Z</time>
      </trkpt>
      <trkpt lat="45.9857" lon="6.5618">
        <ele>2027.5</ele>
        <time>2026-02-02T14:08:11Z</time>
      </trkpt>
      <trkpt lat="45.98568" lon="6.5618">
        <ele>2027.6</ele>
        <time>2026-02-02T14:08:12Z</time>
      </trkpt>
      <trkpt lat="45.98568" lon="6.5618">
        <ele>2027.6</ele>
        <time>2026-02-02T14:08:13Z</time>
      </trkpt>
      <trkpt lat="45.98568" lon="6.5618">
        <ele>2027.6</ele>
        <time>2026-02-02T14:08:14Z</time>
      </trkpt>
      <trkpt lat="45.98568" lon="6.5618">
        <ele>2027.6</ele>
        <time>2026-02-02T14:08:15Z</time>
      </trkpt>
      <trkpt lat="45.98568" lon="6.5618">
        <ele>2027.6</ele>
        <time>2026-02-02T14:08:16Z</time>
      </trkpt>
      <trkpt lat="45.98568" lon="6.5618">
        <ele>2027.6</ele>
        <time>2026-02-02T14:08:17Z</time>
      </trkpt>
      <trkpt lat="45.98567" lon="6.5618">
        <ele>2027.6</ele>
        <time>2026-02-02T14:08:18Z</time>
      </trkpt>
      <trkpt lat="45.98567" lon="6.5618">
        <ele>2026.1</ele>
        <time>2026-02-02T14:08:19Z</time>
      </trkpt>
      <trkpt lat="45.98567" lon="6.5618">
        <ele>2026.1</ele>
        <time>2026-02-02T14:08:20Z</time>
      </trkpt>
      <trkpt lat="45.98567" lon="6.5618">
        <ele>2026.1</ele>
        <time>2026-02-02T14:08:21Z</time>
      </trkpt>
      <trkpt lat="45.98567" lon="6.5618">
        <ele>2026.1</ele>
        <time>2026-02-02T14:08:22Z</time>
      </trkpt>
      <trkpt lat="45.98567" lon="6.5618">
        <ele>2026.1</ele>
        <time>2026-02-02T14:08:23Z</time>
      </trkpt>
      <trkpt lat="45.98567" lon="6.5618">
        <ele>2026.1</ele>
        <time>2026-02-02T14:08:24Z</time>
      </trkpt>
      <trkpt lat="45.98566" lon="6.5618">
        <ele>2026.1</ele>
        <time>2026-02-02T14:08:25Z</time>
      </trkpt>
      <trkpt lat="45.98566" lon="6.5618">
        <ele>2026.1</ele>
        <time>2026-02-02T14:08:26Z</time>
      </trkpt>
      <trkpt lat="45.98566" lon="6.5618">
        <ele>2026.1</ele>
        <time>2026-02-02T14:08:27Z</time>
      </trkpt>
      <trkpt lat="45.98566" lon="6.5618">
        <ele>2026.1</ele>
        <time>2026-02-02T14:08:28Z</time>
      </trkpt>
      <trkpt lat="45.98566" lon="6.5618">
        <ele>2026.1</ele>
        <time>2026-02-02T14:08:29Z</time>
      </trkpt>
      <trkpt lat="45.98566" lon="6.5618">
        <ele>2026.1</ele>
        <time>2026-02-02T14:08:30Z</time>
      </trkpt>
      <trkpt lat="45.98565" lon="6.5618">
        <ele>2026.1</ele>
        <time>2026-02-02T14:08:31Z</time>
      </trkpt>
      <trkpt lat="45.98564" lon="6.5618">
        <ele>2026.1</ele>
        <time>2026-02-02T14:08:32Z</time>
      </trkpt>
      <trkpt lat="45.98563" lon="6.5618">
        <ele>2027.6</ele>
        <time>2026-02-02T14:08:33Z</time>
      </trkpt>
      <trkpt lat="45.98563" lon="6.5618">
        <ele>2027.7</ele>
        <time>2026-02-02T14:08:34Z</time>
      </trkpt>
      <trkpt lat="45.98562" lon="6.56181">
        <ele>2027.7</ele>
        <time>2026-02-02T14:08:35Z</time>
      </trkpt>
      <trkpt lat="45.98561" lon="6.56181">
        <ele>2027.7</ele>
        <time>2026-02-02T14:08:36Z</time>
      </trkpt>
      <trkpt lat="45.9856" lon="6.56182">
        <ele>2027.7</ele>
        <time>2026-02-02T14:08:37Z</time>
      </trkpt>
      <trkpt lat="45.98559" lon="6.56182">
        <ele>2027.7</ele>
        <time>2026-02-02T14:08:38Z</time>
      </trkpt>
      <trkpt lat="45.98558" lon="6.56182">
        <ele>2027.7</ele>
        <time>2026-02-02T14:08:39Z</time>
      </trkpt>
      <trkpt lat="45.98557" lon="6.56182">
        <ele>2027.7</ele>
        <time>2026-02-02T14:08:40Z</time>
      </trkpt>
      <trkpt lat="45.98556" lon="6.56183">
        <ele>2027.7</ele>
        <time>2026-02-02T14:08:41Z</time>
      </trkpt>
      <trkpt lat="45.98555" lon="6.56183">
        <ele>2027.7</ele>
        <time>2026-02-02T14:08:42Z</time>
      </trkpt>
      <trkpt lat="45.98554" lon="6.56183">
        <ele>2027.7</ele>
        <time>2026-02-02T14:08:43Z</time>
      </trkpt>
      <trkpt lat="45.98553" lon="6.56183">
        <ele>2027.7</ele>
        <time>2026-02-02T14:08:44Z</time>
      </trkpt>
      <trkpt lat="45.98551" lon="6.56183">
        <ele>2027.6</ele>
        <time>2026-02-02T14:08:45Z</time>
      </trkpt>
      <trkpt lat="45.9855" lon="6.56183">
        <ele>2027.6</ele>
        <time>2026-02-02T14:08:47Z</time>
      </trkpt>
      <trkpt lat="45.98549" lon="6.56183">
        <ele>2027.6</ele>
        <time>2026-02-02T14:08:48Z</time>
      </trkpt>
      <trkpt lat="45.98548" lon="6.56183">
        <ele>2027.6</ele>
        <time>2026-02-02T14:08:49Z</time>
      </trkpt>
      <trkpt lat="45.98548" lon="6.56183">
        <ele>2027.6</ele>
        <time>2026-02-02T14:08:50Z</time>
      </trkpt>
      <trkpt lat="45.98548" lon="6.56183">
        <ele>2027.6</ele>
        <time>2026-02-02T14:08:51Z</time>
      </trkpt>
      <trkpt lat="45.98548" lon="6.56183">
        <ele>2027.6</ele>
        <time>2026-02-02T14:08:52Z</time>
      </trkpt>
      <trkpt lat="45.98548" lon="6.56183">
        <ele>2027.6</ele>
        <time>2026-02-02T14:08:53Z</time>
      </trkpt>
      <trkpt lat="45.98549" lon="6.56184">
        <ele>2027.6</ele>
        <time>2026-02-02T14:08:55Z</time>
      </trkpt>
      <trkpt lat="45.98549" lon="6.56184">
        <ele>2027.6</ele>
        <time>2026-02-02T14:08:56Z</time>
      </trkpt>
      <trkpt lat="45.98549" lon="6.56184">
        <ele>2027.6</ele>
        <time>2026-02-02T14:08:57Z</time>
      </trkpt>
      <trkpt lat="45.98549" lon="6.56184">
        <ele>2027.6</ele>
        <time>2026-02-02T14:08:58Z</time>
      </trkpt>
      <trkpt lat="45.98549" lon="6.56184">
        <ele>2027.6</ele>
        <time>2026-02-02T14:08:59Z</time>
      </trkpt>
      <trkpt lat="45.98549" lon="6.56184">
        <ele>2027.6</ele>
        <time>2026-02-02T14:09:00Z</time>
      </trkpt>
      <trkpt lat="45.98549" lon="6.56184">
        <ele>2027.6</ele>
        <time>2026-02-02T14:09:01Z</time>
      </trkpt>
      <trkpt lat="45.98549" lon="6.56184">
        <ele>2027.6</ele>
        <time>2026-02-02T14:09:02Z</time>
      </trkpt>
      <trkpt lat="45.98549" lon="6.56184">
        <ele>2027.6</ele>
        <time>2026-02-02T14:09:03Z</time>
      </trkpt>
      <trkpt lat="45.98549" lon="6.56184">
        <ele>2027.6</ele>
        <time>2026-02-02T14:09:04Z</time>
      </trkpt>
      <trkpt lat="45.98549" lon="6.56184">
        <ele>2027.6</ele>
        <time>2026-02-02T14:09:05Z</time>
      </trkpt>
      <trkpt lat="45.98548" lon="6.56184">
        <ele>2027.6</ele>
        <time>2026-02-02T14:09:06Z</time>
      </trkpt>
      <trkpt lat="45.98547" lon="6.56184">
        <ele>2027.6</ele>
        <time>2026-02-02T14:09:07Z</time>
      </trkpt>
      <trkpt lat="45.98547" lon="6.56184">
        <ele>2027.6</ele>
        <time>2026-02-02T14:09:08Z</time>
      </trkpt>
      <trkpt lat="45.98546" lon="6.56183">
        <ele>2027.6</ele>
        <time>2026-02-02T14:09:09Z</time>
      </trkpt>
      <trkpt lat="45.98545" lon="6.56183">
        <ele>2027.4</ele>
        <time>2026-02-02T14:09:10Z</time>
      </trkpt>
      <trkpt lat="45.98544" lon="6.56184">
        <ele>2027.4</ele>
        <time>2026-02-02T14:09:11Z</time>
      </trkpt>
      <trkpt lat="45.98543" lon="6.56184">
        <ele>2027.4</ele>
        <time>2026-02-02T14:09:12Z</time>
      </trkpt>
      <trkpt lat="45.98542" lon="6.56184">
        <ele>2027.3</ele>
        <time>2026-02-02T14:09:13Z</time>
      </trkpt>
      <trkpt lat="45.98541" lon="6.56183">
        <ele>2027.3</ele>
        <time>2026-02-02T14:09:14Z</time>
      </trkpt>
      <trkpt lat="45.9854" lon="6.56183">
        <ele>2027.3</ele>
        <time>2026-02-02T14:09:15Z</time>
      </trkpt>
      <trkpt lat="45.98539" lon="6.56183">
        <ele>2027.1</ele>
        <time>2026-02-02T14:09:16Z</time>
      </trkpt>
      <trkpt lat="45.98538" lon="6.56183">
        <ele>2027.1</ele>
        <time>2026-02-02T14:09:17Z</time>
      </trkpt>
      <trkpt lat="45.98537" lon="6.56183">
        <ele>2027.1</ele>
        <time>2026-02-02T14:09:18Z</time>
      </trkpt>
      <trkpt lat="45.98537" lon="6.56183">
        <ele>2027.1</ele>
        <time>2026-02-02T14:09:19Z</time>
      </trkpt>
      <trkpt lat="45.98536" lon="6.56183">
        <ele>2026.9</ele>
        <time>2026-02-02T14:09:20Z</time>
      </trkpt>
      <trkpt lat="45.98534" lon="6.56183">
        <ele>2026.9</ele>
        <time>2026-02-02T14:09:21Z</time>
      </trkpt>
      <trkpt lat="45.98533" lon="6.56183">
        <ele>2026.7</ele>
        <time>2026-02-02T14:09:22Z</time>
      </trkpt>
      <trkpt lat="45.98533" lon="6.56183">
        <ele>2026.7</ele>
        <time>2026-02-02T14:09:23Z</time>
      </trkpt>
      <trkpt lat="45.98532" lon="6.56183">
        <ele>2026.7</ele>
        <time>2026-02-02T14:09:24Z</time>
      </trkpt>
      <trkpt lat="45.98531" lon="6.56183">
        <ele>2026.7</ele>
        <time>2026-02-02T14:09:25Z</time>
      </trkpt>
      <trkpt lat="45.98531" lon="6.56182">
        <ele>2026.7</ele>
        <time>2026-02-02T14:09:26Z</time>
      </trkpt>
      <trkpt lat="45.9853" lon="6.56182">
        <ele>2026.5</ele>
        <time>2026-02-02T14:09:27Z</time>
      </trkpt>
      <trkpt lat="45.9853" lon="6.56182">
        <ele>2026.7</ele>
        <time>2026-02-02T14:09:28Z</time>
      </trkpt>
      <trkpt lat="45.98531" lon="6.56182">
        <ele>2026.7</ele>
        <time>2026-02-02T14:09:29Z</time>
      </trkpt>
      <trkpt lat="45.98531" lon="6.56182">
        <ele>2026.7</ele>
        <time>2026-02-02T14:09:30Z</time>
      </trkpt>
      <trkpt lat="45.98531" lon="6.56182">
        <ele>2026.7</ele>
        <time>2026-02-02T14:09:31Z</time>
      </trkpt>
      <trkpt lat="45.98531" lon="6.56183">
        <ele>2026.7</ele>
        <time>2026-02-02T14:09:32Z</time>
      </trkpt>
      <trkpt lat="45.98531" lon="6.56183">
        <ele>2026.7</ele>
        <time>2026-02-02T14:09:33Z</time>
      </trkpt>
      <trkpt lat="45.98531" lon="6.56183">
        <ele>2026.7</ele>
        <time>2026-02-02T14:09:34Z</time>
      </trkpt>
      <trkpt lat="45.98531" lon="6.56183">
        <ele>2026.7</ele>
        <time>2026-02-02T14:09:35Z</time>
      </trkpt>
      <trkpt lat="45.98531" lon="6.56183">
        <ele>2026.7</ele>
        <time>2026-02-02T14:09:36Z</time>
      </trkpt>
      <trkpt lat="45.98531" lon="6.56183">
        <ele>2026.7</ele>
        <time>2026-02-02T14:09:37Z</time>
      </trkpt>
      <trkpt lat="45.98531" lon="6.56183">
        <ele>2026.7</ele>
        <time>2026-02-02T14:09:38Z</time>
      </trkpt>
      <trkpt lat="45.9853" lon="6.56183">
        <ele>2026.5</ele>
        <time>2026-02-02T14:09:39Z</time>
      </trkpt>
      <trkpt lat="45.9853" lon="6.56183">
        <ele>2026.5</ele>
        <time>2026-02-02T14:09:40Z</time>
      </trkpt>
      <trkpt lat="45.98528" lon="6.56183">
        <ele>2026.5</ele>
        <time>2026-02-02T14:09:41Z</time>
      </trkpt>
      <trkpt lat="45.98527" lon="6.56183">
        <ele>2026.2</ele>
        <time>2026-02-02T14:09:42Z</time>
      </trkpt>
      <trkpt lat="45.98526" lon="6.56183">
        <ele>2026.2</ele>
        <time>2026-02-02T14:09:43Z</time>
      </trkpt>
      <trkpt lat="45.98525" lon="6.56183">
        <ele>2026.2</ele>
        <time>2026-02-02T14:09:44Z</time>
      </trkpt>
      <trkpt lat="45.98523" lon="6.56183">
        <ele>2026</ele>
        <time>2026-02-02T14:09:45Z</time>
      </trkpt>
      <trkpt lat="45.98523" lon="6.56183">
        <ele>2026</ele>
        <time>2026-02-02T14:09:46Z</time>
      </trkpt>
      <trkpt lat="45.98523" lon="6.56183">
        <ele>2026</ele>
        <time>2026-02-02T14:09:47Z</time>
      </trkpt>
      <trkpt lat="45.98522" lon="6.56183">
        <ele>2026</ele>
        <time>2026-02-02T14:09:48Z</time>
      </trkpt>
      <trkpt lat="45.9852" lon="6.56183">
        <ele>2025.8</ele>
        <time>2026-02-02T14:09:49Z</time>
      </trkpt>
      <trkpt lat="45.98519" lon="6.56183">
        <ele>2025.8</ele>
        <time>2026-02-02T14:09:50Z</time>
      </trkpt>
      <trkpt lat="45.98518" lon="6.56184">
        <ele>2025.6</ele>
        <time>2026-02-02T14:09:51Z</time>
      </trkpt>
      <trkpt lat="45.98517" lon="6.56184">
        <ele>2027.3</ele>
        <time>2026-02-02T14:09:52Z</time>
      </trkpt>
      <trkpt lat="45.98517" lon="6.56185">
        <ele>2027.3</ele>
        <time>2026-02-02T14:09:53Z</time>
      </trkpt>
      <trkpt lat="45.98516" lon="6.56186">
        <ele>2027.3</ele>
        <time>2026-02-02T14:09:54Z</time>
      </trkpt>
      <trkpt lat="45.98515" lon="6.56187">
        <ele>2027.1</ele>
        <time>2026-02-02T14:09:55Z</time>
      </trkpt>
      <trkpt lat="45.98516" lon="6.56187">
        <ele>2027.3</ele>
        <time>2026-02-02T14:09:56Z</time>
      </trkpt>
      <trkpt lat="45.98516" lon="6.56187">
        <ele>2027.3</ele>
        <time>2026-02-02T14:09:57Z</time>
      </trkpt>
      <trkpt lat="45.98516" lon="6.56187">
        <ele>2027.3</ele>
        <time>2026-02-02T14:09:58Z</time>
      </trkpt>
      <trkpt lat="45.98516" lon="6.56187">
        <ele>2027.3</ele>
        <time>2026-02-02T14:10:00Z</time>
      </trkpt>
      <trkpt lat="45.98516" lon="6.56187">
        <ele>2027.3</ele>
        <time>2026-02-02T14:10:01Z</time>
      </trkpt>
      <trkpt lat="45.98516" lon="6.56187">
        <ele>2027.3</ele>
        <time>2026-02-02T14:10:02Z</time>
      </trkpt>
      <trkpt lat="45.98516" lon="6.56187">
        <ele>2027.3</ele>
        <time>2026-02-02T14:10:03Z</time>
      </trkpt>
      <trkpt lat="45.98516" lon="6.56187">
        <ele>2027.3</ele>
        <time>2026-02-02T14:10:04Z</time>
      </trkpt>
      <trkpt lat="45.98516" lon="6.56187">
        <ele>2027.3</ele>
        <time>2026-02-02T14:10:05Z</time>
      </trkpt>
      <trkpt lat="45.98516" lon="6.56186">
        <ele>2027.3</ele>
        <time>2026-02-02T14:10:06Z</time>
      </trkpt>
      <trkpt lat="45.98516" lon="6.56186">
        <ele>2027.3</ele>
        <time>2026-02-02T14:10:07Z</time>
      </trkpt>
      <trkpt lat="45.98516" lon="6.56186">
        <ele>2027.3</ele>
        <time>2026-02-02T14:10:08Z</time>
      </trkpt>
      <trkpt lat="45.98517" lon="6.56186">
        <ele>2027.3</ele>
        <time>2026-02-02T14:10:09Z</time>
      </trkpt>
      <trkpt lat="45.98517" lon="6.56186">
        <ele>2027.3</ele>
        <time>2026-02-02T14:10:10Z</time>
      </trkpt>
      <trkpt lat="45.98517" lon="6.56187">
        <ele>2027.3</ele>
        <time>2026-02-02T14:10:11Z</time>
      </trkpt>
      <trkpt lat="45.98517" lon="6.56187">
        <ele>2027.3</ele>
        <time>2026-02-02T14:10:12Z</time>
      </trkpt>
      <trkpt lat="45.98517" lon="6.56187">
        <ele>2027.3</ele>
        <time>2026-02-02T14:10:13Z</time>
      </trkpt>
      <trkpt lat="45.98517" lon="6.56187">
        <ele>2027.3</ele>
        <time>2026-02-02T14:10:14Z</time>
      </trkpt>
      <trkpt lat="45.98517" lon="6.56187">
        <ele>2027.3</ele>
        <time>2026-02-02T14:10:15Z</time>
      </trkpt>
      <trkpt lat="45.98517" lon="6.56187">
        <ele>2027.3</ele>
        <time>2026-02-02T14:10:16Z</time>
      </trkpt>
      <trkpt lat="45.98517" lon="6.56187">
        <ele>2027.3</ele>
        <time>2026-02-02T14:10:17Z</time>
      </trkpt>
      <trkpt lat="45.98517" lon="6.56187">
        <ele>2027.3</ele>
        <time>2026-02-02T14:10:18Z</time>
      </trkpt>
      <trkpt lat="45.98517" lon="6.56187">
        <ele>2027.3</ele>
        <time>2026-02-02T14:10:19Z</time>
      </trkpt>
      <trkpt lat="45.98517" lon="6.56187">
        <ele>2027.3</ele>
        <time>2026-02-02T14:10:20Z</time>
      </trkpt>
      <trkpt lat="45.98517" lon="6.56187">
        <ele>2027.3</ele>
        <time>2026-02-02T14:10:21Z</time>
      </trkpt>
      <trkpt lat="45.98517" lon="6.56187">
        <ele>2027.3</ele>
        <time>2026-02-02T14:10:22Z</time>
      </trkpt>
      <trkpt lat="45.98517" lon="6.56187">
        <ele>2027.3</ele>
        <time>2026-02-02T14:10:23Z</time>
      </trkpt>
      <trkpt lat="45.98517" lon="6.56187">
        <ele>2027.3</ele>
        <time>2026-02-02T14:10:24Z</time>
      </trkpt>
      <trkpt lat="45.98517" lon="6.56187">
        <ele>2027.3</ele>
        <time>2026-02-02T14:10:25Z</time>
      </trkpt>
      <trkpt lat="45.98517" lon="6.56187">
        <ele>2027.3</ele>
        <time>2026-02-02T14:10:26Z</time>
      </trkpt>
      <trkpt lat="45.98517" lon="6.56187">
        <ele>2027.3</ele>
        <time>2026-02-02T14:10:27Z</time>
      </trkpt>
      <trkpt lat="45.98517" lon="6.56187">
        <ele>2027.3</ele>
        <time>2026-02-02T14:10:28Z</time>
      </trkpt>
      <trkpt lat="45.98517" lon="6.56187">
        <ele>2027.3</ele>
        <time>2026-02-02T14:10:29Z</time>
      </trkpt>
      <trkpt lat="45.98517" lon="6.56187">
        <ele>2027.3</ele>
        <time>2026-02-02T14:10:30Z</time>
      </trkpt>
      <trkpt lat="45.98517" lon="6.56186">
        <ele>2027.3</ele>
        <time>2026-02-02T14:10:31Z</time>
      </trkpt>
      <trkpt lat="45.98517" lon="6.56186">
        <ele>2027.3</ele>
        <time>2026-02-02T14:10:32Z</time>
      </trkpt>
      <trkpt lat="45.98517" lon="6.56186">
        <ele>2027.3</ele>
        <time>2026-02-02T14:10:33Z</time>
      </trkpt>
      <trkpt lat="45.98517" lon="6.56186">
        <ele>2027.3</ele>
        <time>2026-02-02T14:10:34Z</time>
      </trkpt>
      <trkpt lat="45.98517" lon="6.56186">
        <ele>2027.3</ele>
        <time>2026-02-02T14:10:35Z</time>
      </trkpt>
      <trkpt lat="45.98517" lon="6.56186">
        <ele>2027.3</ele>
        <time>2026-02-02T14:10:36Z</time>
      </trkpt>
      <trkpt lat="45.98517" lon="6.56186">
        <ele>2027.3</ele>
        <time>2026-02-02T14:10:37Z</time>
      </trkpt>
      <trkpt lat="45.98517" lon="6.56186">
        <ele>2027.3</ele>
        <time>2026-02-02T14:10:38Z</time>
      </trkpt>
      <trkpt lat="45.98517" lon="6.56186">
        <ele>2027.3</ele>
        <time>2026-02-02T14:10:39Z</time>
      </trkpt>
      <trkpt lat="45.98517" lon="6.56186">
        <ele>2027.3</ele>
        <time>2026-02-02T14:10:40Z</time>
      </trkpt>
      <trkpt lat="45.98518" lon="6.56185">
        <ele>2027.3</ele>
        <time>2026-02-02T14:10:41Z</time>
      </trkpt>
      <trkpt lat="45.98518" lon="6.56185">
        <ele>2027.3</ele>
        <time>2026-02-02T14:10:42Z</time>
      </trkpt>
      <trkpt lat="45.98518" lon="6.56185">
        <ele>2027.3</ele>
        <time>2026-02-02T14:10:43Z</time>
      </trkpt>
      <trkpt lat="45.98518" lon="6.56186">
        <ele>2027.3</ele>
        <time>2026-02-02T14:10:44Z</time>
      </trkpt>
      <trkpt lat="45.98518" lon="6.56186">
        <ele>2027.3</ele>
        <time>2026-02-02T14:10:45Z</time>
      </trkpt>
      <trkpt lat="45.98518" lon="6.56186">
        <ele>2027.3</ele>
        <time>2026-02-02T14:10:46Z</time>
      </trkpt>
      <trkpt lat="45.98517" lon="6.56186">
        <ele>2027.3</ele>
        <time>2026-02-02T14:10:47Z</time>
      </trkpt>
      <trkpt lat="45.98517" lon="6.56186">
        <ele>2027.3</ele>
        <time>2026-02-02T14:10:48Z</time>
      </trkpt>
      <trkpt lat="45.98517" lon="6.56186">
        <ele>2027.3</ele>
        <time>2026-02-02T14:10:49Z</time>
      </trkpt>
      <trkpt lat="45.98517" lon="6.56187">
        <ele>2027.3</ele>
        <time>2026-02-02T14:10:50Z</time>
      </trkpt>
      <trkpt lat="45.98517" lon="6.56187">
        <ele>2027.3</ele>
        <time>2026-02-02T14:10:51Z</time>
      </trkpt>
      <trkpt lat="45.98517" lon="6.56187">
        <ele>2027.3</ele>
        <time>2026-02-02T14:10:52Z</time>
      </trkpt>
      <trkpt lat="45.98517" lon="6.56187">
        <ele>2027.3</ele>
        <time>2026-02-02T14:10:53Z</time>
      </trkpt>
      <trkpt lat="45.98517" lon="6.56187">
        <ele>2027.3</ele>
        <time>2026-02-02T14:10:54Z</time>
      </trkpt>
      <trkpt lat="45.98518" lon="6.56186">
        <ele>2027.3</ele>
        <time>2026-02-02T14:10:55Z</time>
      </trkpt>
      <trkpt lat="45.98518" lon="6.56186">
        <ele>2027.3</ele>
        <time>2026-02-02T14:10:56Z</time>
      </trkpt>
      <trkpt lat="45.98518" lon="6.56187">
        <ele>2027.3</ele>
        <time>2026-02-02T14:10:57Z</time>
      </trkpt>
      <trkpt lat="45.98517" lon="6.56187">
        <ele>2027.3</ele>
        <time>2026-02-02T14:10:58Z</time>
      </trkpt>
      <trkpt lat="45.98517" lon="6.56187">
        <ele>2027.3</ele>
        <time>2026-02-02T14:10:59Z</time>
      </trkpt>
      <trkpt lat="45.98517" lon="6.56187">
        <ele>2027.3</ele>
        <time>2026-02-02T14:11:00Z</time>
      </trkpt>
      <trkpt lat="45.98517" lon="6.56187">
        <ele>2027.3</ele>
        <time>2026-02-02T14:11:01Z</time>
      </trkpt>
      <trkpt lat="45.98517" lon="6.56187">
        <ele>2027.3</ele>
        <time>2026-02-02T14:11:02Z</time>
      </trkpt>
      <trkpt lat="45.98517" lon="6.56187">
        <ele>2027.3</ele>
        <time>2026-02-02T14:11:03Z</time>
      </trkpt>
      <trkpt lat="45.98517" lon="6.56187">
        <ele>2027.3</ele>
        <time>2026-02-02T14:11:04Z</time>
      </trkpt>
      <trkpt lat="45.98517" lon="6.56187">
        <ele>2027.3</ele>
        <time>2026-02-02T14:11:05Z</time>
      </trkpt>
      <trkpt lat="45.98517" lon="6.56187">
        <ele>2027.3</ele>
        <time>2026-02-02T14:11:06Z</time>
      </trkpt>
      <trkpt lat="45.98517" lon="6.56187">
        <ele>2027.3</ele>
        <time>2026-02-02T14:11:07Z</time>
      </trkpt>
      <trkpt lat="45.98517" lon="6.56187">
        <ele>2027.3</ele>
        <time>2026-02-02T14:11:08Z</time>
      </trkpt>
      <trkpt lat="45.98517" lon="6.56187">
        <ele>2027.3</ele>
        <time>2026-02-02T14:11:09Z</time>
      </trkpt>
      <trkpt lat="45.98517" lon="6.56187">
        <ele>2027.3</ele>
        <time>2026-02-02T14:11:10Z</time>
      </trkpt>
      <trkpt lat="45.98517" lon="6.56187">
        <ele>2027.3</ele>
        <time>2026-02-02T14:11:11Z</time>
      </trkpt>
      <trkpt lat="45.98517" lon="6.56187">
        <ele>2027.3</ele>
        <time>2026-02-02T14:11:12Z</time>
      </trkpt>
      <trkpt lat="45.98517" lon="6.56187">
        <ele>2027.3</ele>
        <time>2026-02-02T14:11:13Z</time>
      </trkpt>
      <trkpt lat="45.98517" lon="6.56187">
        <ele>2027.3</ele>
        <time>2026-02-02T14:11:14Z</time>
      </trkpt>
      <trkpt lat="45.98517" lon="6.56187">
        <ele>2027.3</ele>
        <time>2026-02-02T14:11:15Z</time>
      </trkpt>
      <trkpt lat="45.98517" lon="6.56187">
        <ele>2027.3</ele>
        <time>2026-02-02T14:11:16Z</time>
      </trkpt>
      <trkpt lat="45.98517" lon="6.56187">
        <ele>2027.3</ele>
        <time>2026-02-02T14:11:17Z</time>
      </trkpt>
      <trkpt lat="45.98517" lon="6.56187">
        <ele>2027.3</ele>
        <time>2026-02-02T14:11:18Z</time>
      </trkpt>
      <trkpt lat="45.98517" lon="6.56187">
        <ele>2027.3</ele>
        <time>2026-02-02T14:11:19Z</time>
      </trkpt>
      <trkpt lat="45.98517" lon="6.56187">
        <ele>2027.3</ele>
        <time>2026-02-02T14:11:20Z</time>
      </trkpt>
      <trkpt lat="45.98517" lon="6.56187">
        <ele>2027.3</ele>
        <time>2026-02-02T14:11:21Z</time>
      </trkpt>
      <trkpt lat="45.98517" lon="6.56188">
        <ele>2027.3</ele>
        <time>2026-02-02T14:11:22Z</time>
      </trkpt>
      <trkpt lat="45.98516" lon="6.56189">
        <ele>2029.2</ele>
        <time>2026-02-02T14:11:23Z</time>
      </trkpt>
      <trkpt lat="45.98515" lon="6.56189">
        <ele>2029</ele>
        <time>2026-02-02T14:11:24Z</time>
      </trkpt>
      <trkpt lat="45.98514" lon="6.56189">
        <ele>2029</ele>
        <time>2026-02-02T14:11:25Z</time>
      </trkpt>
      <trkpt lat="45.98513" lon="6.56189">
        <ele>2029</ele>
        <time>2026-02-02T14:11:26Z</time>
      </trkpt>
      <trkpt lat="45.98512" lon="6.56189">
        <ele>2028.8</ele>
        <time>2026-02-02T14:11:27Z</time>
      </trkpt>
      <trkpt lat="45.98511" lon="6.56189">
        <ele>2028.8</ele>
        <time>2026-02-02T14:11:28Z</time>
      </trkpt>
      <trkpt lat="45.9851" lon="6.56189">
        <ele>2028.8</ele>
        <time>2026-02-02T14:11:29Z</time>
      </trkpt>
      <trkpt lat="45.98509" lon="6.56189">
        <ele>2028.7</ele>
        <time>2026-02-02T14:11:30Z</time>
      </trkpt>
      <trkpt lat="45.98509" lon="6.56189">
        <ele>2028.7</ele>
        <time>2026-02-02T14:11:31Z</time>
      </trkpt>
      <trkpt lat="45.98508" lon="6.56189">
        <ele>2028.7</ele>
        <time>2026-02-02T14:11:32Z</time>
      </trkpt>
      <trkpt lat="45.98507" lon="6.5619">
        <ele>2028.7</ele>
        <time>2026-02-02T14:11:33Z</time>
      </trkpt>
      <trkpt lat="45.98507" lon="6.56191">
        <ele>2028.7</ele>
        <time>2026-02-02T14:11:34Z</time>
      </trkpt>
      <trkpt lat="45.98506" lon="6.56191">
        <ele>2028.5</ele>
        <time>2026-02-02T14:11:35Z</time>
      </trkpt>
      <trkpt lat="45.98505" lon="6.56192">
        <ele>2028.5</ele>
        <time>2026-02-02T14:11:36Z</time>
      </trkpt>
      <trkpt lat="45.98504" lon="6.56192">
        <ele>2028.5</ele>
        <time>2026-02-02T14:11:37Z</time>
      </trkpt>
      <trkpt lat="45.98504" lon="6.56192">
        <ele>2028.5</ele>
        <time>2026-02-02T14:11:38Z</time>
      </trkpt>
      <trkpt lat="45.98503" lon="6.56193">
        <ele>2030.2</ele>
        <time>2026-02-02T14:11:39Z</time>
      </trkpt>
      <trkpt lat="45.98502" lon="6.56194">
        <ele>2030.2</ele>
        <time>2026-02-02T14:11:40Z</time>
      </trkpt>
      <trkpt lat="45.98501" lon="6.56194">
        <ele>2030.2</ele>
        <time>2026-02-02T14:11:41Z</time>
      </trkpt>
      <trkpt lat="45.985" lon="6.56195">
        <ele>2030</ele>
        <time>2026-02-02T14:11:42Z</time>
      </trkpt>
      <trkpt lat="45.985" lon="6.56196">
        <ele>2030</ele>
        <time>2026-02-02T14:11:43Z</time>
      </trkpt>
      <trkpt lat="45.98499" lon="6.56197">
        <ele>2030</ele>
        <time>2026-02-02T14:11:44Z</time>
      </trkpt>
      <trkpt lat="45.98498" lon="6.56197">
        <ele>2031.8</ele>
        <time>2026-02-02T14:11:45Z</time>
      </trkpt>
      <trkpt lat="45.98497" lon="6.56198">
        <ele>2031.6</ele>
        <time>2026-02-02T14:11:46Z</time>
      </trkpt>
      <trkpt lat="45.98496" lon="6.56199">
        <ele>2031.6</ele>
        <time>2026-02-02T14:11:47Z</time>
      </trkpt>
      <trkpt lat="45.98496" lon="6.56199">
        <ele>2031.6</ele>
        <time>2026-02-02T14:11:48Z</time>
      </trkpt>
      <trkpt lat="45.98495" lon="6.56201">
        <ele>2031.6</ele>
        <time>2026-02-02T14:11:49Z</time>
      </trkpt>
      <trkpt lat="45.98494" lon="6.56201">
        <ele>2031.5</ele>
        <time>2026-02-02T14:11:50Z</time>
      </trkpt>
      <trkpt lat="45.98493" lon="6.56202">
        <ele>2033.1</ele>
        <time>2026-02-02T14:11:51Z</time>
      </trkpt>
      <trkpt lat="45.98493" lon="6.56202">
        <ele>2033.1</ele>
        <time>2026-02-02T14:11:52Z</time>
      </trkpt>
      <trkpt lat="45.98493" lon="6.56202">
        <ele>2033.1</ele>
        <time>2026-02-02T14:11:53Z</time>
      </trkpt>
      <trkpt lat="45.98493" lon="6.56202">
        <ele>2033.1</ele>
        <time>2026-02-02T14:11:54Z</time>
      </trkpt>
      <trkpt lat="45.98493" lon="6.56202">
        <ele>2033.1</ele>
        <time>2026-02-02T14:11:55Z</time>
      </trkpt>
      <trkpt lat="45.98493" lon="6.56202">
        <ele>2033.1</ele>
        <time>2026-02-02T14:11:56Z</time>
      </trkpt>
      <trkpt lat="45.98493" lon="6.56202">
        <ele>2033.1</ele>
        <time>2026-02-02T14:11:57Z</time>
      </trkpt>
      <trkpt lat="45.98493" lon="6.56202">
        <ele>2033.1</ele>
        <time>2026-02-02T14:11:58Z</time>
      </trkpt>
      <trkpt lat="45.98493" lon="6.56202">
        <ele>2033.1</ele>
        <time>2026-02-02T14:11:59Z</time>
      </trkpt>
      <trkpt lat="45.98493" lon="6.56202">
        <ele>2033.1</ele>
        <time>2026-02-02T14:12:00Z</time>
      </trkpt>
      <trkpt lat="45.98493" lon="6.56202">
        <ele>2033.1</ele>
        <time>2026-02-02T14:12:01Z</time>
      </trkpt>
      <trkpt lat="45.98493" lon="6.56202">
        <ele>2033.1</ele>
        <time>2026-02-02T14:12:02Z</time>
      </trkpt>
      <trkpt lat="45.98493" lon="6.56202">
        <ele>2033.1</ele>
        <time>2026-02-02T14:12:03Z</time>
      </trkpt>
      <trkpt lat="45.98493" lon="6.56202">
        <ele>2033.1</ele>
        <time>2026-02-02T14:12:04Z</time>
      </trkpt>
      <trkpt lat="45.98493" lon="6.56202">
        <ele>2033.1</ele>
        <time>2026-02-02T14:12:05Z</time>
      </trkpt>
      <trkpt lat="45.98493" lon="6.56202">
        <ele>2033.1</ele>
        <time>2026-02-02T14:12:06Z</time>
      </trkpt>
      <trkpt lat="45.98493" lon="6.56202">
        <ele>2033.1</ele>
        <time>2026-02-02T14:12:07Z</time>
      </trkpt>
      <trkpt lat="45.98493" lon="6.56202">
        <ele>2033.1</ele>
        <time>2026-02-02T14:12:08Z</time>
      </trkpt>
      <trkpt lat="45.98493" lon="6.56202">
        <ele>2033.1</ele>
        <time>2026-02-02T14:12:09Z</time>
      </trkpt>
      <trkpt lat="45.98493" lon="6.56202">
        <ele>2033.1</ele>
        <time>2026-02-02T14:12:10Z</time>
      </trkpt>
      <trkpt lat="45.98493" lon="6.56202">
        <ele>2033.1</ele>
        <time>2026-02-02T14:12:11Z</time>
      </trkpt>
      <trkpt lat="45.98493" lon="6.56202">
        <ele>2033.1</ele>
        <time>2026-02-02T14:12:13Z</time>
      </trkpt>
      <trkpt lat="45.98493" lon="6.56202">
        <ele>2033.1</ele>
        <time>2026-02-02T14:12:14Z</time>
      </trkpt>
      <trkpt lat="45.98493" lon="6.56202">
        <ele>2033.1</ele>
        <time>2026-02-02T14:12:15Z</time>
      </trkpt>
      <trkpt lat="45.98493" lon="6.56202">
        <ele>2033.1</ele>
        <time>2026-02-02T14:12:16Z</time>
      </trkpt>
      <trkpt lat="45.98493" lon="6.56202">
        <ele>2033.1</ele>
        <time>2026-02-02T14:12:17Z</time>
      </trkpt>
      <trkpt lat="45.98493" lon="6.56202">
        <ele>2033.1</ele>
        <time>2026-02-02T14:12:18Z</time>
      </trkpt>
      <trkpt lat="45.98493" lon="6.56202">
        <ele>2033.1</ele>
        <time>2026-02-02T14:12:19Z</time>
      </trkpt>
      <trkpt lat="45.98493" lon="6.56202">
        <ele>2033.1</ele>
        <time>2026-02-02T14:12:20Z</time>
      </trkpt>
      <trkpt lat="45.98493" lon="6.56202">
        <ele>2033.1</ele>
        <time>2026-02-02T14:12:21Z</time>
      </trkpt>
      <trkpt lat="45.98493" lon="6.56203">
        <ele>2033.1</ele>
        <time>2026-02-02T14:12:22Z</time>
      </trkpt>
      <trkpt lat="45.98493" lon="6.56203">
        <ele>2033.1</ele>
        <time>2026-02-02T14:12:23Z</time>
      </trkpt>
      <trkpt lat="45.98493" lon="6.56203">
        <ele>2033.1</ele>
        <time>2026-02-02T14:12:24Z</time>
      </trkpt>
      <trkpt lat="45.98493" lon="6.56203">
        <ele>2033.1</ele>
        <time>2026-02-02T14:12:25Z</time>
      </trkpt>
      <trkpt lat="45.98493" lon="6.56203">
        <ele>2033.1</ele>
        <time>2026-02-02T14:12:26Z</time>
      </trkpt>
      <trkpt lat="45.98493" lon="6.56203">
        <ele>2033.1</ele>
        <time>2026-02-02T14:12:27Z</time>
      </trkpt>
      <trkpt lat="45.98493" lon="6.56203">
        <ele>2033.1</ele>
        <time>2026-02-02T14:12:28Z</time>
      </trkpt>
      <trkpt lat="45.98493" lon="6.56203">
        <ele>2033.1</ele>
        <time>2026-02-02T14:12:29Z</time>
      </trkpt>
      <trkpt lat="45.98493" lon="6.56203">
        <ele>2033.1</ele>
        <time>2026-02-02T14:12:30Z</time>
      </trkpt>
      <trkpt lat="45.98493" lon="6.56203">
        <ele>2033.1</ele>
        <time>2026-02-02T14:12:31Z</time>
      </trkpt>
      <trkpt lat="45.98493" lon="6.56203">
        <ele>2033.1</ele>
        <time>2026-02-02T14:12:32Z</time>
      </trkpt>
      <trkpt lat="45.98493" lon="6.56203">
        <ele>2033.1</ele>
        <time>2026-02-02T14:12:33Z</time>
      </trkpt>
      <trkpt lat="45.98494" lon="6.56202">
        <ele>2033.1</ele>
        <time>2026-02-02T14:12:34Z</time>
      </trkpt>
      <trkpt lat="45.98494" lon="6.56202">
        <ele>2033.1</ele>
        <time>2026-02-02T14:12:36Z</time>
      </trkpt>
      <trkpt lat="45.98494" lon="6.56202">
        <ele>2033.1</ele>
        <time>2026-02-02T14:12:37Z</time>
      </trkpt>
      <trkpt lat="45.98494" lon="6.56202">
        <ele>2033.1</ele>
        <time>2026-02-02T14:12:38Z</time>
      </trkpt>
      <trkpt lat="45.98494" lon="6.56202">
        <ele>2033.1</ele>
        <time>2026-02-02T14:12:39Z</time>
      </trkpt>
      <trkpt lat="45.98494" lon="6.56203">
        <ele>2033.1</ele>
        <time>2026-02-02T14:12:40Z</time>
      </trkpt>
      <trkpt lat="45.98494" lon="6.56203">
        <ele>2033.1</ele>
        <time>2026-02-02T14:12:41Z</time>
      </trkpt>
      <trkpt lat="45.98494" lon="6.56203">
        <ele>2033.1</ele>
        <time>2026-02-02T14:12:42Z</time>
      </trkpt>
      <trkpt lat="45.98494" lon="6.56203">
        <ele>2033.1</ele>
        <time>2026-02-02T14:12:43Z</time>
      </trkpt>
      <trkpt lat="45.98494" lon="6.56202">
        <ele>2033.1</ele>
        <time>2026-02-02T14:12:44Z</time>
      </trkpt>
      <trkpt lat="45.98494" lon="6.56202">
        <ele>2033.1</ele>
        <time>2026-02-02T14:12:45Z</time>
      </trkpt>
      <trkpt lat="45.98494" lon="6.56202">
        <ele>2033.1</ele>
        <time>2026-02-02T14:12:46Z</time>
      </trkpt>
      <trkpt lat="45.98494" lon="6.56203">
        <ele>2033.1</ele>
        <time>2026-02-02T14:12:47Z</time>
      </trkpt>
      <trkpt lat="45.98494" lon="6.56203">
        <ele>2033.1</ele>
        <time>2026-02-02T14:12:48Z</time>
      </trkpt>
      <trkpt lat="45.98494" lon="6.56203">
        <ele>2033.1</ele>
        <time>2026-02-02T14:12:49Z</time>
      </trkpt>
      <trkpt lat="45.98493" lon="6.56204">
        <ele>2033.1</ele>
        <time>2026-02-02T14:12:50Z</time>
      </trkpt>
      <trkpt lat="45.98492" lon="6.56205">
        <ele>2033.1</ele>
        <time>2026-02-02T14:12:51Z</time>
      </trkpt>
      <trkpt lat="45.98491" lon="6.56206">
        <ele>2034.6</ele>
        <time>2026-02-02T14:12:52Z</time>
      </trkpt>
      <trkpt lat="45.9849" lon="6.56207">
        <ele>2034.6</ele>
        <time>2026-02-02T14:12:53Z</time>
      </trkpt>
      <trkpt lat="45.98489" lon="6.56207">
        <ele>2034.6</ele>
        <time>2026-02-02T14:12:54Z</time>
      </trkpt>
      <trkpt lat="45.98488" lon="6.56208">
        <ele>2034.4</ele>
        <time>2026-02-02T14:12:55Z</time>
      </trkpt>
      <trkpt lat="45.98487" lon="6.56209">
        <ele>2034.4</ele>
        <time>2026-02-02T14:12:56Z</time>
      </trkpt>
      <trkpt lat="45.98486" lon="6.56209">
        <ele>2034.4</ele>
        <time>2026-02-02T14:12:57Z</time>
      </trkpt>
      <trkpt lat="45.98485" lon="6.5621">
        <ele>2034.3</ele>
        <time>2026-02-02T14:12:58Z</time>
      </trkpt>
      <trkpt lat="45.98484" lon="6.5621">
        <ele>2035.9</ele>
        <time>2026-02-02T14:12:59Z</time>
      </trkpt>
      <trkpt lat="45.98484" lon="6.56211">
        <ele>2035.9</ele>
        <time>2026-02-02T14:13:00Z</time>
      </trkpt>
      <trkpt lat="45.98483" lon="6.56211">
        <ele>2035.9</ele>
        <time>2026-02-02T14:13:01Z</time>
      </trkpt>
      <trkpt lat="45.98482" lon="6.56212">
        <ele>2035.8</ele>
        <time>2026-02-02T14:13:02Z</time>
      </trkpt>
      <trkpt lat="45.98482" lon="6.56212">
        <ele>2035.8</ele>
        <time>2026-02-02T14:13:03Z</time>
      </trkpt>
      <trkpt lat="45.98481" lon="6.56212">
        <ele>2035.8</ele>
        <time>2026-02-02T14:13:04Z</time>
      </trkpt>
      <trkpt lat="45.98481" lon="6.56213">
        <ele>2035.8</ele>
        <time>2026-02-02T14:13:05Z</time>
      </trkpt>
      <trkpt lat="45.9848" lon="6.56213">
        <ele>2035.8</ele>
        <time>2026-02-02T14:13:06Z</time>
      </trkpt>
      <trkpt lat="45.98479" lon="6.56213">
        <ele>2035.7</ele>
        <time>2026-02-02T14:13:07Z</time>
      </trkpt>
      <trkpt lat="45.98478" lon="6.56214">
        <ele>2035.7</ele>
        <time>2026-02-02T14:13:08Z</time>
      </trkpt>
      <trkpt lat="45.98478" lon="6.56215">
        <ele>2037.3</ele>
        <time>2026-02-02T14:13:09Z</time>
      </trkpt>
      <trkpt lat="45.98477" lon="6.56216">
        <ele>2037.2</ele>
        <time>2026-02-02T14:13:10Z</time>
      </trkpt>
      <trkpt lat="45.98475" lon="6.56216">
        <ele>2037.2</ele>
        <time>2026-02-02T14:13:11Z</time>
      </trkpt>
      <trkpt lat="45.98475" lon="6.56217">
        <ele>2037.2</ele>
        <time>2026-02-02T14:13:12Z</time>
      </trkpt>
      <trkpt lat="45.98474" lon="6.56218">
        <ele>2037.1</ele>
        <time>2026-02-02T14:13:13Z</time>
      </trkpt>
      <trkpt lat="45.98473" lon="6.56219">
        <ele>2038.8</ele>
        <time>2026-02-02T14:13:14Z</time>
      </trkpt>
      <trkpt lat="45.98472" lon="6.5622">
        <ele>2038.8</ele>
        <time>2026-02-02T14:13:15Z</time>
      </trkpt>
      <trkpt lat="45.98471" lon="6.5622">
        <ele>2038.7</ele>
        <time>2026-02-02T14:13:16Z</time>
      </trkpt>
      <trkpt lat="45.9847" lon="6.56221">
        <ele>2038.7</ele>
        <time>2026-02-02T14:13:17Z</time>
      </trkpt>
      <trkpt lat="45.98469" lon="6.56222">
        <ele>2038.7</ele>
        <time>2026-02-02T14:13:18Z</time>
      </trkpt>
      <trkpt lat="45.98468" lon="6.56222">
        <ele>2038.7</ele>
        <time>2026-02-02T14:13:19Z</time>
      </trkpt>
      <trkpt lat="45.98468" lon="6.56223">
        <ele>2038.7</ele>
        <time>2026-02-02T14:13:20Z</time>
      </trkpt>
      <trkpt lat="45.98469" lon="6.56223">
        <ele>2040.5</ele>
        <time>2026-02-02T14:13:21Z</time>
      </trkpt>
      <trkpt lat="45.98469" lon="6.56224">
        <ele>2040.5</ele>
        <time>2026-02-02T14:13:22Z</time>
      </trkpt>
      <trkpt lat="45.98469" lon="6.56224">
        <ele>2040.5</ele>
        <time>2026-02-02T14:13:23Z</time>
      </trkpt>
      <trkpt lat="45.9847" lon="6.56224">
        <ele>2040.5</ele>
        <time>2026-02-02T14:13:24Z</time>
      </trkpt>
      <trkpt lat="45.9847" lon="6.56223">
        <ele>2040.5</ele>
        <time>2026-02-02T14:13:25Z</time>
      </trkpt>
      <trkpt lat="45.9847" lon="6.56223">
        <ele>2040.5</ele>
        <time>2026-02-02T14:13:26Z</time>
      </trkpt>
      <trkpt lat="45.9847" lon="6.56223">
        <ele>2040.5</ele>
        <time>2026-02-02T14:13:27Z</time>
      </trkpt>
      <trkpt lat="45.9847" lon="6.56223">
        <ele>2040.5</ele>
        <time>2026-02-02T14:13:28Z</time>
      </trkpt>
      <trkpt lat="45.9847" lon="6.56223">
        <ele>2038.7</ele>
        <time>2026-02-02T14:13:29Z</time>
      </trkpt>
      <trkpt lat="45.9847" lon="6.56223">
        <ele>2038.7</ele>
        <time>2026-02-02T14:13:30Z</time>
      </trkpt>
      <trkpt lat="45.9847" lon="6.56223">
        <ele>2038.7</ele>
        <time>2026-02-02T14:13:31Z</time>
      </trkpt>
      <trkpt lat="45.9847" lon="6.56223">
        <ele>2038.7</ele>
        <time>2026-02-02T14:13:32Z</time>
      </trkpt>
      <trkpt lat="45.9847" lon="6.56223">
        <ele>2038.7</ele>
        <time>2026-02-02T14:13:33Z</time>
      </trkpt>
      <trkpt lat="45.9847" lon="6.56223">
        <ele>2038.7</ele>
        <time>2026-02-02T14:13:34Z</time>
      </trkpt>
      <trkpt lat="45.9847" lon="6.56223">
        <ele>2038.7</ele>
        <time>2026-02-02T14:13:35Z</time>
      </trkpt>
      <trkpt lat="45.9847" lon="6.56223">
        <ele>2038.7</ele>
        <time>2026-02-02T14:13:36Z</time>
      </trkpt>
      <trkpt lat="45.9847" lon="6.56223">
        <ele>2040.5</ele>
        <time>2026-02-02T14:13:37Z</time>
      </trkpt>
      <trkpt lat="45.9847" lon="6.56224">
        <ele>2040.5</ele>
        <time>2026-02-02T14:13:38Z</time>
      </trkpt>
      <trkpt lat="45.98471" lon="6.56224">
        <ele>2040.5</ele>
        <time>2026-02-02T14:13:39Z</time>
      </trkpt>
      <trkpt lat="45.98471" lon="6.56224">
        <ele>2040.5</ele>
        <time>2026-02-02T14:13:40Z</time>
      </trkpt>
      <trkpt lat="45.98471" lon="6.56224">
        <ele>2040.5</ele>
        <time>2026-02-02T14:13:41Z</time>
      </trkpt>
      <trkpt lat="45.9847" lon="6.56224">
        <ele>2040.5</ele>
        <time>2026-02-02T14:13:42Z</time>
      </trkpt>
      <trkpt lat="45.9847" lon="6.56225">
        <ele>2040.5</ele>
        <time>2026-02-02T14:13:43Z</time>
      </trkpt>
      <trkpt lat="45.9847" lon="6.56225">
        <ele>2040.5</ele>
        <time>2026-02-02T14:13:44Z</time>
      </trkpt>
      <trkpt lat="45.9847" lon="6.56225">
        <ele>2040.5</ele>
        <time>2026-02-02T14:13:45Z</time>
      </trkpt>
      <trkpt lat="45.98471" lon="6.56225">
        <ele>2040.5</ele>
        <time>2026-02-02T14:13:46Z</time>
      </trkpt>
      <trkpt lat="45.98471" lon="6.56225">
        <ele>2040.5</ele>
        <time>2026-02-02T14:13:47Z</time>
      </trkpt>
      <trkpt lat="45.98471" lon="6.56225">
        <ele>2040.6</ele>
        <time>2026-02-02T14:13:48Z</time>
      </trkpt>
      <trkpt lat="45.98471" lon="6.56225">
        <ele>2040.6</ele>
        <time>2026-02-02T14:13:49Z</time>
      </trkpt>
      <trkpt lat="45.98471" lon="6.56225">
        <ele>2040.6</ele>
        <time>2026-02-02T14:13:50Z</time>
      </trkpt>
      <trkpt lat="45.98471" lon="6.56225">
        <ele>2040.6</ele>
        <time>2026-02-02T14:13:51Z</time>
      </trkpt>
      <trkpt lat="45.98471" lon="6.56225">
        <ele>2040.6</ele>
        <time>2026-02-02T14:13:52Z</time>
      </trkpt>
      <trkpt lat="45.98471" lon="6.56225">
        <ele>2040.6</ele>
        <time>2026-02-02T14:13:53Z</time>
      </trkpt>
      <trkpt lat="45.98471" lon="6.56225">
        <ele>2040.6</ele>
        <time>2026-02-02T14:13:54Z</time>
      </trkpt>
      <trkpt lat="45.98472" lon="6.56226">
        <ele>2040.6</ele>
        <time>2026-02-02T14:13:55Z</time>
      </trkpt>
      <trkpt lat="45.98472" lon="6.56227">
        <ele>2040.6</ele>
        <time>2026-02-02T14:13:56Z</time>
      </trkpt>
      <trkpt lat="45.98473" lon="6.56228">
        <ele>2042.5</ele>
        <time>2026-02-02T14:13:57Z</time>
      </trkpt>
      <trkpt lat="45.98474" lon="6.56228">
        <ele>2042.6</ele>
        <time>2026-02-02T14:13:58Z</time>
      </trkpt>
      <trkpt lat="45.98476" lon="6.56228">
        <ele>2042.6</ele>
        <time>2026-02-02T14:13:59Z</time>
      </trkpt>
      <trkpt lat="45.98477" lon="6.56228">
        <ele>2042.8</ele>
        <time>2026-02-02T14:14:00Z</time>
      </trkpt>
      <trkpt lat="45.98478" lon="6.56228">
        <ele>2042.8</ele>
        <time>2026-02-02T14:14:01Z</time>
      </trkpt>
      <trkpt lat="45.98478" lon="6.56228">
        <ele>2042.8</ele>
        <time>2026-02-02T14:14:02Z</time>
      </trkpt>
      <trkpt lat="45.98478" lon="6.56228">
        <ele>2042.8</ele>
        <time>2026-02-02T14:14:03Z</time>
      </trkpt>
      <trkpt lat="45.98479" lon="6.56229">
        <ele>2042.8</ele>
        <time>2026-02-02T14:14:04Z</time>
      </trkpt>
      <trkpt lat="45.98479" lon="6.56229">
        <ele>2042.8</ele>
        <time>2026-02-02T14:14:05Z</time>
      </trkpt>
      <trkpt lat="45.9848" lon="6.56229">
        <ele>2042.9</ele>
        <time>2026-02-02T14:14:06Z</time>
      </trkpt>
      <trkpt lat="45.98481" lon="6.56229">
        <ele>2042.9</ele>
        <time>2026-02-02T14:14:07Z</time>
      </trkpt>
      <trkpt lat="45.98482" lon="6.56229">
        <ele>2042.9</ele>
        <time>2026-02-02T14:14:08Z</time>
      </trkpt>
      <trkpt lat="45.98482" lon="6.56229">
        <ele>2042.9</ele>
        <time>2026-02-02T14:14:09Z</time>
      </trkpt>
      <trkpt lat="45.98483" lon="6.5623">
        <ele>2043</ele>
        <time>2026-02-02T14:14:10Z</time>
      </trkpt>
      <trkpt lat="45.98483" lon="6.5623">
        <ele>2043</ele>
        <time>2026-02-02T14:14:11Z</time>
      </trkpt>
      <trkpt lat="45.98483" lon="6.5623">
        <ele>2043</ele>
        <time>2026-02-02T14:14:12Z</time>
      </trkpt>
      <trkpt lat="45.98483" lon="6.5623">
        <ele>2042.9</ele>
        <time>2026-02-02T14:14:13Z</time>
      </trkpt>
      <trkpt lat="45.98482" lon="6.5623">
        <ele>2042.9</ele>
        <time>2026-02-02T14:14:14Z</time>
      </trkpt>
      <trkpt lat="45.98482" lon="6.5623">
        <ele>2042.9</ele>
        <time>2026-02-02T14:14:15Z</time>
      </trkpt>
      <trkpt lat="45.98482" lon="6.5623">
        <ele>2042.9</ele>
        <time>2026-02-02T14:14:16Z</time>
      </trkpt>
      <trkpt lat="45.98482" lon="6.5623">
        <ele>2042.9</ele>
        <time>2026-02-02T14:14:17Z</time>
      </trkpt>
      <trkpt lat="45.98482" lon="6.5623">
        <ele>2042.9</ele>
        <time>2026-02-02T14:14:18Z</time>
      </trkpt>
      <trkpt lat="45.98482" lon="6.5623">
        <ele>2042.9</ele>
        <time>2026-02-02T14:14:19Z</time>
      </trkpt>
      <trkpt lat="45.98482" lon="6.5623">
        <ele>2042.9</ele>
        <time>2026-02-02T14:14:20Z</time>
      </trkpt>
      <trkpt lat="45.98482" lon="6.5623">
        <ele>2042.9</ele>
        <time>2026-02-02T14:14:21Z</time>
      </trkpt>
      <trkpt lat="45.98482" lon="6.5623">
        <ele>2042.9</ele>
        <time>2026-02-02T14:14:22Z</time>
      </trkpt>
      <trkpt lat="45.98482" lon="6.5623">
        <ele>2042.9</ele>
        <time>2026-02-02T14:14:23Z</time>
      </trkpt>
      <trkpt lat="45.98482" lon="6.5623">
        <ele>2042.9</ele>
        <time>2026-02-02T14:14:24Z</time>
      </trkpt>
      <trkpt lat="45.98482" lon="6.5623">
        <ele>2042.9</ele>
        <time>2026-02-02T14:14:25Z</time>
      </trkpt>
      <trkpt lat="45.98482" lon="6.5623">
        <ele>2042.9</ele>
        <time>2026-02-02T14:14:26Z</time>
      </trkpt>
      <trkpt lat="45.98483" lon="6.5623">
        <ele>2043</ele>
        <time>2026-02-02T14:14:27Z</time>
      </trkpt>
      <trkpt lat="45.98484" lon="6.5623">
        <ele>2043</ele>
        <time>2026-02-02T14:14:28Z</time>
      </trkpt>
      <trkpt lat="45.98485" lon="6.5623">
        <ele>2043</ele>
        <time>2026-02-02T14:14:29Z</time>
      </trkpt>
      <trkpt lat="45.98486" lon="6.56232">
        <ele>2045.1</ele>
        <time>2026-02-02T14:14:30Z</time>
      </trkpt>
      <trkpt lat="45.98487" lon="6.56233">
        <ele>2045.1</ele>
        <time>2026-02-02T14:14:31Z</time>
      </trkpt>
      <trkpt lat="45.98488" lon="6.56234">
        <ele>2045.1</ele>
        <time>2026-02-02T14:14:32Z</time>
      </trkpt>
      <trkpt lat="45.98489" lon="6.56235">
        <ele>2045.2</ele>
        <time>2026-02-02T14:14:33Z</time>
      </trkpt>
      <trkpt lat="45.98489" lon="6.56236">
        <ele>2047.2</ele>
        <time>2026-02-02T14:14:34Z</time>
      </trkpt>
      <trkpt lat="45.9849" lon="6.56237">
        <ele>2047.2</ele>
        <time>2026-02-02T14:14:35Z</time>
      </trkpt>
      <trkpt lat="45.98491" lon="6.56238">
        <ele>2047.2</ele>
        <time>2026-02-02T14:14:36Z</time>
      </trkpt>
      <trkpt lat="45.98491" lon="6.56238">
        <ele>2047.2</ele>
        <time>2026-02-02T14:14:37Z</time>
      </trkpt>
      <trkpt lat="45.98492" lon="6.56239">
        <ele>2047.3</ele>
        <time>2026-02-02T14:14:38Z</time>
      </trkpt>
      <trkpt lat="45.98494" lon="6.5624">
        <ele>2049.3</ele>
        <time>2026-02-02T14:14:39Z</time>
      </trkpt>
      <trkpt lat="45.98495" lon="6.5624">
        <ele>2049.4</ele>
        <time>2026-02-02T14:14:40Z</time>
      </trkpt>
      <trkpt lat="45.98496" lon="6.56241">
        <ele>2049.4</ele>
        <time>2026-02-02T14:14:41Z</time>
      </trkpt>
      <trkpt lat="45.98497" lon="6.56241">
        <ele>2049.4</ele>
        <time>2026-02-02T14:14:43Z</time>
      </trkpt>
      <trkpt lat="45.98497" lon="6.56241">
        <ele>2049.4</ele>
        <time>2026-02-02T14:14:44Z</time>
      </trkpt>
      <trkpt lat="45.98497" lon="6.56241">
        <ele>2049.4</ele>
        <time>2026-02-02T14:14:45Z</time>
      </trkpt>
      <trkpt lat="45.98499" lon="6.56241">
        <ele>2049.5</ele>
        <time>2026-02-02T14:14:46Z</time>
      </trkpt>
      <trkpt lat="45.985" lon="6.56241">
        <ele>2049.5</ele>
        <time>2026-02-02T14:14:47Z</time>
      </trkpt>
      <trkpt lat="45.985" lon="6.56241">
        <ele>2049.5</ele>
        <time>2026-02-02T14:14:48Z</time>
      </trkpt>
      <trkpt lat="45.98501" lon="6.56242">
        <ele>2049.6</ele>
        <time>2026-02-02T14:14:49Z</time>
      </trkpt>
      <trkpt lat="45.98502" lon="6.56242">
        <ele>2049.6</ele>
        <time>2026-02-02T14:14:50Z</time>
      </trkpt>
      <trkpt lat="45.98502" lon="6.56242">
        <ele>2049.6</ele>
        <time>2026-02-02T14:14:51Z</time>
      </trkpt>
      <trkpt lat="45.98502" lon="6.56242">
        <ele>2049.6</ele>
        <time>2026-02-02T14:14:52Z</time>
      </trkpt>
      <trkpt lat="45.98501" lon="6.56242">
        <ele>2049.6</ele>
        <time>2026-02-02T14:14:53Z</time>
      </trkpt>
      <trkpt lat="45.98501" lon="6.56242">
        <ele>2049.6</ele>
        <time>2026-02-02T14:14:54Z</time>
      </trkpt>
      <trkpt lat="45.98501" lon="6.56242">
        <ele>2049.6</ele>
        <time>2026-02-02T14:14:55Z</time>
      </trkpt>
      <trkpt lat="45.98501" lon="6.56242">
        <ele>2049.6</ele>
        <time>2026-02-02T14:14:56Z</time>
      </trkpt>
      <trkpt lat="45.98501" lon="6.56242">
        <ele>2049.6</ele>
        <time>2026-02-02T14:14:57Z</time>
      </trkpt>
      <trkpt lat="45.98501" lon="6.56242">
        <ele>2049.5</ele>
        <time>2026-02-02T14:14:58Z</time>
      </trkpt>
      <trkpt lat="45.985" lon="6.56242">
        <ele>2049.5</ele>
        <time>2026-02-02T14:14:59Z</time>
      </trkpt>
      <trkpt lat="45.985" lon="6.56242">
        <ele>2049.5</ele>
        <time>2026-02-02T14:15:00Z</time>
      </trkpt>
      <trkpt lat="45.985" lon="6.56242">
        <ele>2049.5</ele>
        <time>2026-02-02T14:15:01Z</time>
      </trkpt>
      <trkpt lat="45.985" lon="6.56241">
        <ele>2049.5</ele>
        <time>2026-02-02T14:15:02Z</time>
      </trkpt>
      <trkpt lat="45.985" lon="6.56241">
        <ele>2049.5</ele>
        <time>2026-02-02T14:15:04Z</time>
      </trkpt>
      <trkpt lat="45.985" lon="6.56241">
        <ele>2049.5</ele>
        <time>2026-02-02T14:15:05Z</time>
      </trkpt>
      <trkpt lat="45.985" lon="6.56241">
        <ele>2049.5</ele>
        <time>2026-02-02T14:15:06Z</time>
      </trkpt>
      <trkpt lat="45.985" lon="6.56241">
        <ele>2049.5</ele>
        <time>2026-02-02T14:15:07Z</time>
      </trkpt>
      <trkpt lat="45.985" lon="6.56241">
        <ele>2049.5</ele>
        <time>2026-02-02T14:15:08Z</time>
      </trkpt>
      <trkpt lat="45.985" lon="6.56241">
        <ele>2049.5</ele>
        <time>2026-02-02T14:15:09Z</time>
      </trkpt>
      <trkpt lat="45.98501" lon="6.56241">
        <ele>2049.5</ele>
        <time>2026-02-02T14:15:10Z</time>
      </trkpt>
      <trkpt lat="45.98501" lon="6.56241">
        <ele>2049.6</ele>
        <time>2026-02-02T14:15:11Z</time>
      </trkpt>
      <trkpt lat="45.98501" lon="6.56241">
        <ele>2049.6</ele>
        <time>2026-02-02T14:15:12Z</time>
      </trkpt>
      <trkpt lat="45.98501" lon="6.56241">
        <ele>2049.6</ele>
        <time>2026-02-02T14:15:13Z</time>
      </trkpt>
      <trkpt lat="45.98501" lon="6.56241">
        <ele>2049.6</ele>
        <time>2026-02-02T14:15:14Z</time>
      </trkpt>
      <trkpt lat="45.98501" lon="6.56241">
        <ele>2049.6</ele>
        <time>2026-02-02T14:15:15Z</time>
      </trkpt>
      <trkpt lat="45.98501" lon="6.56241">
        <ele>2049.6</ele>
        <time>2026-02-02T14:15:16Z</time>
      </trkpt>
      <trkpt lat="45.98501" lon="6.56241">
        <ele>2049.6</ele>
        <time>2026-02-02T14:15:17Z</time>
      </trkpt>
      <trkpt lat="45.98501" lon="6.56241">
        <ele>2049.6</ele>
        <time>2026-02-02T14:15:18Z</time>
      </trkpt>
      <trkpt lat="45.98501" lon="6.56241">
        <ele>2049.6</ele>
        <time>2026-02-02T14:15:19Z</time>
      </trkpt>
      <trkpt lat="45.98501" lon="6.56241">
        <ele>2049.6</ele>
        <time>2026-02-02T14:15:20Z</time>
      </trkpt>
      <trkpt lat="45.98501" lon="6.56241">
        <ele>2049.6</ele>
        <time>2026-02-02T14:15:21Z</time>
      </trkpt>
      <trkpt lat="45.98501" lon="6.56241">
        <ele>2049.6</ele>
        <time>2026-02-02T14:15:22Z</time>
      </trkpt>
      <trkpt lat="45.98501" lon="6.56241">
        <ele>2049.6</ele>
        <time>2026-02-02T14:15:23Z</time>
      </trkpt>
      <trkpt lat="45.98501" lon="6.56241">
        <ele>2049.6</ele>
        <time>2026-02-02T14:15:24Z</time>
      </trkpt>
      <trkpt lat="45.98501" lon="6.56241">
        <ele>2049.6</ele>
        <time>2026-02-02T14:15:25Z</time>
      </trkpt>
      <trkpt lat="45.98501" lon="6.56241">
        <ele>2049.6</ele>
        <time>2026-02-02T14:15:26Z</time>
      </trkpt>
      <trkpt lat="45.98501" lon="6.56241">
        <ele>2049.5</ele>
        <time>2026-02-02T14:15:27Z</time>
      </trkpt>
      <trkpt lat="45.985" lon="6.56241">
        <ele>2049.5</ele>
        <time>2026-02-02T14:15:28Z</time>
      </trkpt>
      <trkpt lat="45.985" lon="6.56241">
        <ele>2049.5</ele>
        <time>2026-02-02T14:15:29Z</time>
      </trkpt>
      <trkpt lat="45.985" lon="6.56241">
        <ele>2049.5</ele>
        <time>2026-02-02T14:15:30Z</time>
      </trkpt>
      <trkpt lat="45.985" lon="6.56241">
        <ele>2049.5</ele>
        <time>2026-02-02T14:15:31Z</time>
      </trkpt>
      <trkpt lat="45.985" lon="6.56241">
        <ele>2049.5</ele>
        <time>2026-02-02T14:15:32Z</time>
      </trkpt>
      <trkpt lat="45.98501" lon="6.56241">
        <ele>2049.5</ele>
        <time>2026-02-02T14:15:33Z</time>
      </trkpt>
      <trkpt lat="45.98501" lon="6.56241">
        <ele>2049.5</ele>
        <time>2026-02-02T14:15:34Z</time>
      </trkpt>
      <trkpt lat="45.98501" lon="6.5624">
        <ele>2049.5</ele>
        <time>2026-02-02T14:15:35Z</time>
      </trkpt>
      <trkpt lat="45.98501" lon="6.5624">
        <ele>2049.6</ele>
        <time>2026-02-02T14:15:36Z</time>
      </trkpt>
      <trkpt lat="45.98501" lon="6.5624">
        <ele>2049.6</ele>
        <time>2026-02-02T14:15:37Z</time>
      </trkpt>
      <trkpt lat="45.98501" lon="6.5624">
        <ele>2049.6</ele>
        <time>2026-02-02T14:15:38Z</time>
      </trkpt>
      <trkpt lat="45.98501" lon="6.5624">
        <ele>2049.6</ele>
        <time>2026-02-02T14:15:39Z</time>
      </trkpt>
      <trkpt lat="45.98501" lon="6.5624">
        <ele>2049.6</ele>
        <time>2026-02-02T14:15:40Z</time>
      </trkpt>
      <trkpt lat="45.98501" lon="6.5624">
        <ele>2049.6</ele>
        <time>2026-02-02T14:15:41Z</time>
      </trkpt>
      <trkpt lat="45.98501" lon="6.5624">
        <ele>2049.5</ele>
        <time>2026-02-02T14:15:42Z</time>
      </trkpt>
      <trkpt lat="45.98501" lon="6.5624">
        <ele>2049.5</ele>
        <time>2026-02-02T14:15:43Z</time>
      </trkpt>
      <trkpt lat="45.98501" lon="6.5624">
        <ele>2049.5</ele>
        <time>2026-02-02T14:15:44Z</time>
      </trkpt>
      <trkpt lat="45.98501" lon="6.5624">
        <ele>2049.5</ele>
        <time>2026-02-02T14:15:45Z</time>
      </trkpt>
      <trkpt lat="45.98501" lon="6.5624">
        <ele>2049.5</ele>
        <time>2026-02-02T14:15:46Z</time>
      </trkpt>
      <trkpt lat="45.98501" lon="6.5624">
        <ele>2049.6</ele>
        <time>2026-02-02T14:15:47Z</time>
      </trkpt>
      <trkpt lat="45.98501" lon="6.5624">
        <ele>2049.6</ele>
        <time>2026-02-02T14:15:48Z</time>
      </trkpt>
      <trkpt lat="45.98502" lon="6.56241">
        <ele>2049.6</ele>
        <time>2026-02-02T14:15:49Z</time>
      </trkpt>
      <trkpt lat="45.98503" lon="6.56242">
        <ele>2049.6</ele>
        <time>2026-02-02T14:15:50Z</time>
      </trkpt>
      <trkpt lat="45.98504" lon="6.56243">
        <ele>2049.8</ele>
        <time>2026-02-02T14:15:51Z</time>
      </trkpt>
      <trkpt lat="45.98504" lon="6.56243">
        <ele>2049.8</ele>
        <time>2026-02-02T14:15:52Z</time>
      </trkpt>
      <trkpt lat="45.98505" lon="6.56244">
        <ele>2049.8</ele>
        <time>2026-02-02T14:15:53Z</time>
      </trkpt>
      <trkpt lat="45.98506" lon="6.56244">
        <ele>2049.8</ele>
        <time>2026-02-02T14:15:54Z</time>
      </trkpt>
      <trkpt lat="45.98506" lon="6.56244">
        <ele>2051.7</ele>
        <time>2026-02-02T14:15:55Z</time>
      </trkpt>
      <trkpt lat="45.98508" lon="6.56245">
        <ele>2051.8</ele>
        <time>2026-02-02T14:15:56Z</time>
      </trkpt>
      <trkpt lat="45.98509" lon="6.56246">
        <ele>2051.8</ele>
        <time>2026-02-02T14:15:57Z</time>
      </trkpt>
      <trkpt lat="45.9851" lon="6.56246">
        <ele>2051.9</ele>
        <time>2026-02-02T14:15:58Z</time>
      </trkpt>
      <trkpt lat="45.98511" lon="6.56247">
        <ele>2051.9</ele>
        <time>2026-02-02T14:15:59Z</time>
      </trkpt>
      <trkpt lat="45.98511" lon="6.56247">
        <ele>2051.9</ele>
        <time>2026-02-02T14:16:00Z</time>
      </trkpt>
      <trkpt lat="45.98512" lon="6.56248">
        <ele>2051.9</ele>
        <time>2026-02-02T14:16:01Z</time>
      </trkpt>
      <trkpt lat="45.98513" lon="6.56249">
        <ele>2052.1</ele>
        <time>2026-02-02T14:16:02Z</time>
      </trkpt>
      <trkpt lat="45.98514" lon="6.56249">
        <ele>2054</ele>
        <time>2026-02-02T14:16:03Z</time>
      </trkpt>
      <trkpt lat="45.98515" lon="6.5625">
        <ele>2054</ele>
        <time>2026-02-02T14:16:04Z</time>
      </trkpt>
      <trkpt lat="45.98515" lon="6.5625">
        <ele>2054</ele>
        <time>2026-02-02T14:16:05Z</time>
      </trkpt>
      <trkpt lat="45.98516" lon="6.56251">
        <ele>2054.1</ele>
        <time>2026-02-02T14:16:06Z</time>
      </trkpt>
      <trkpt lat="45.98516" lon="6.56252">
        <ele>2054.1</ele>
        <time>2026-02-02T14:16:07Z</time>
      </trkpt>
      <trkpt lat="45.98517" lon="6.56252">
        <ele>2054.1</ele>
        <time>2026-02-02T14:16:08Z</time>
      </trkpt>
      <trkpt lat="45.98518" lon="6.56253">
        <ele>2054.1</ele>
        <time>2026-02-02T14:16:09Z</time>
      </trkpt>
      <trkpt lat="45.98518" lon="6.56253">
        <ele>2055.9</ele>
        <time>2026-02-02T14:16:10Z</time>
      </trkpt>
      <trkpt lat="45.98519" lon="6.56254">
        <ele>2056</ele>
        <time>2026-02-02T14:16:11Z</time>
      </trkpt>
      <trkpt lat="45.98519" lon="6.56255">
        <ele>2056</ele>
        <time>2026-02-02T14:16:12Z</time>
      </trkpt>
      <trkpt lat="45.9852" lon="6.56256">
        <ele>2056</ele>
        <time>2026-02-02T14:16:13Z</time>
      </trkpt>
      <trkpt lat="45.98521" lon="6.56256">
        <ele>2056</ele>
        <time>2026-02-02T14:16:14Z</time>
      </trkpt>
      <trkpt lat="45.98521" lon="6.56256">
        <ele>2056</ele>
        <time>2026-02-02T14:16:15Z</time>
      </trkpt>
      <trkpt lat="45.98521" lon="6.56256">
        <ele>2056</ele>
        <time>2026-02-02T14:16:16Z</time>
      </trkpt>
      <trkpt lat="45.98521" lon="6.56255">
        <ele>2056</ele>
        <time>2026-02-02T14:16:17Z</time>
      </trkpt>
      <trkpt lat="45.9852" lon="6.56255">
        <ele>2056</ele>
        <time>2026-02-02T14:16:18Z</time>
      </trkpt>
      <trkpt lat="45.9852" lon="6.56255">
        <ele>2056</ele>
        <time>2026-02-02T14:16:19Z</time>
      </trkpt>
      <trkpt lat="45.9852" lon="6.56255">
        <ele>2056</ele>
        <time>2026-02-02T14:16:20Z</time>
      </trkpt>
      <trkpt lat="45.9852" lon="6.56255">
        <ele>2056</ele>
        <time>2026-02-02T14:16:21Z</time>
      </trkpt>
      <trkpt lat="45.9852" lon="6.56255">
        <ele>2056</ele>
        <time>2026-02-02T14:16:22Z</time>
      </trkpt>
      <trkpt lat="45.9852" lon="6.56255">
        <ele>2056</ele>
        <time>2026-02-02T14:16:23Z</time>
      </trkpt>
      <trkpt lat="45.9852" lon="6.56255">
        <ele>2056</ele>
        <time>2026-02-02T14:16:24Z</time>
      </trkpt>
      <trkpt lat="45.9852" lon="6.56255">
        <ele>2056</ele>
        <time>2026-02-02T14:16:25Z</time>
      </trkpt>
      <trkpt lat="45.9852" lon="6.56255">
        <ele>2056</ele>
        <time>2026-02-02T14:16:26Z</time>
      </trkpt>
      <trkpt lat="45.9852" lon="6.56255">
        <ele>2056</ele>
        <time>2026-02-02T14:16:27Z</time>
      </trkpt>
      <trkpt lat="45.9852" lon="6.56255">
        <ele>2056</ele>
        <time>2026-02-02T14:16:28Z</time>
      </trkpt>
      <trkpt lat="45.9852" lon="6.56255">
        <ele>2056</ele>
        <time>2026-02-02T14:16:29Z</time>
      </trkpt>
      <trkpt lat="45.9852" lon="6.56255">
        <ele>2056</ele>
        <time>2026-02-02T14:16:30Z</time>
      </trkpt>
      <trkpt lat="45.9852" lon="6.56255">
        <ele>2056</ele>
        <time>2026-02-02T14:16:31Z</time>
      </trkpt>
      <trkpt lat="45.9852" lon="6.56255">
        <ele>2056</ele>
        <time>2026-02-02T14:16:32Z</time>
      </trkpt>
      <trkpt lat="45.98521" lon="6.56256">
        <ele>2056</ele>
        <time>2026-02-02T14:16:33Z</time>
      </trkpt>
      <trkpt lat="45.98521" lon="6.56256">
        <ele>2056</ele>
        <time>2026-02-02T14:16:34Z</time>
      </trkpt>
      <trkpt lat="45.98521" lon="6.56256">
        <ele>2056</ele>
        <time>2026-02-02T14:16:35Z</time>
      </trkpt>
      <trkpt lat="45.98522" lon="6.56257">
        <ele>2056.1</ele>
        <time>2026-02-02T14:16:36Z</time>
      </trkpt>
      <trkpt lat="45.98523" lon="6.56258">
        <ele>2057.9</ele>
        <time>2026-02-02T14:16:37Z</time>
      </trkpt>
      <trkpt lat="45.98524" lon="6.56258">
        <ele>2057.9</ele>
        <time>2026-02-02T14:16:38Z</time>
      </trkpt>
      <trkpt lat="45.98525" lon="6.5626">
        <ele>2058</ele>
        <time>2026-02-02T14:16:39Z</time>
      </trkpt>
      <trkpt lat="45.98526" lon="6.5626">
        <ele>2058</ele>
        <time>2026-02-02T14:16:40Z</time>
      </trkpt>
      <trkpt lat="45.98526" lon="6.56261">
        <ele>2058</ele>
        <time>2026-02-02T14:16:41Z</time>
      </trkpt>
      <trkpt lat="45.98527" lon="6.56262">
        <ele>2059.8</ele>
        <time>2026-02-02T14:16:42Z</time>
      </trkpt>
      <trkpt lat="45.98527" lon="6.56262">
        <ele>2059.8</ele>
        <time>2026-02-02T14:16:43Z</time>
      </trkpt>
      <trkpt lat="45.98528" lon="6.56263">
        <ele>2059.8</ele>
        <time>2026-02-02T14:16:44Z</time>
      </trkpt>
      <trkpt lat="45.98528" lon="6.56263">
        <ele>2059.8</ele>
        <time>2026-02-02T14:16:45Z</time>
      </trkpt>
      <trkpt lat="45.98528" lon="6.56263">
        <ele>2059.8</ele>
        <time>2026-02-02T14:16:46Z</time>
      </trkpt>
      <trkpt lat="45.98528" lon="6.56263">
        <ele>2059.8</ele>
        <time>2026-02-02T14:16:47Z</time>
      </trkpt>
      <trkpt lat="45.98528" lon="6.56263">
        <ele>2059.8</ele>
        <time>2026-02-02T14:16:48Z</time>
      </trkpt>
      <trkpt lat="45.98528" lon="6.56263">
        <ele>2059.8</ele>
        <time>2026-02-02T14:16:49Z</time>
      </trkpt>
      <trkpt lat="45.98528" lon="6.56263">
        <ele>2059.8</ele>
        <time>2026-02-02T14:16:50Z</time>
      </trkpt>
      <trkpt lat="45.98528" lon="6.56263">
        <ele>2059.8</ele>
        <time>2026-02-02T14:16:51Z</time>
      </trkpt>
      <trkpt lat="45.98528" lon="6.56263">
        <ele>2059.8</ele>
        <time>2026-02-02T14:16:52Z</time>
      </trkpt>
      <trkpt lat="45.98528" lon="6.56263">
        <ele>2059.8</ele>
        <time>2026-02-02T14:16:53Z</time>
      </trkpt>
      <trkpt lat="45.98528" lon="6.56263">
        <ele>2059.8</ele>
        <time>2026-02-02T14:16:54Z</time>
      </trkpt>
      <trkpt lat="45.98528" lon="6.56263">
        <ele>2059.8</ele>
        <time>2026-02-02T14:16:55Z</time>
      </trkpt>
      <trkpt lat="45.98528" lon="6.56263">
        <ele>2059.8</ele>
        <time>2026-02-02T14:16:56Z</time>
      </trkpt>
      <trkpt lat="45.98528" lon="6.56263">
        <ele>2059.8</ele>
        <time>2026-02-02T14:16:57Z</time>
      </trkpt>
      <trkpt lat="45.98528" lon="6.56263">
        <ele>2059.8</ele>
        <time>2026-02-02T14:16:58Z</time>
      </trkpt>
      <trkpt lat="45.98528" lon="6.56263">
        <ele>2059.8</ele>
        <time>2026-02-02T14:16:59Z</time>
      </trkpt>
      <trkpt lat="45.98528" lon="6.56263">
        <ele>2059.8</ele>
        <time>2026-02-02T14:17:00Z</time>
      </trkpt>
      <trkpt lat="45.98528" lon="6.56263">
        <ele>2059.8</ele>
        <time>2026-02-02T14:17:01Z</time>
      </trkpt>
      <trkpt lat="45.98528" lon="6.56263">
        <ele>2059.8</ele>
        <time>2026-02-02T14:17:02Z</time>
      </trkpt>
      <trkpt lat="45.98528" lon="6.56263">
        <ele>2059.8</ele>
        <time>2026-02-02T14:17:03Z</time>
      </trkpt>
      <trkpt lat="45.98528" lon="6.56263">
        <ele>2059.8</ele>
        <time>2026-02-02T14:17:04Z</time>
      </trkpt>
      <trkpt lat="45.98528" lon="6.56263">
        <ele>2059.8</ele>
        <time>2026-02-02T14:17:05Z</time>
      </trkpt>
      <trkpt lat="45.98528" lon="6.56263">
        <ele>2059.8</ele>
        <time>2026-02-02T14:17:06Z</time>
      </trkpt>
      <trkpt lat="45.98527" lon="6.56263">
        <ele>2059.8</ele>
        <time>2026-02-02T14:17:07Z</time>
      </trkpt>
      <trkpt lat="45.98527" lon="6.56263">
        <ele>2059.8</ele>
        <time>2026-02-02T14:17:08Z</time>
      </trkpt>
      <trkpt lat="45.98527" lon="6.56263">
        <ele>2059.8</ele>
        <time>2026-02-02T14:17:09Z</time>
      </trkpt>
      <trkpt lat="45.98527" lon="6.56263">
        <ele>2059.8</ele>
        <time>2026-02-02T14:17:10Z</time>
      </trkpt>
      <trkpt lat="45.98527" lon="6.56264">
        <ele>2059.8</ele>
        <time>2026-02-02T14:17:11Z</time>
      </trkpt>
      <trkpt lat="45.98528" lon="6.56264">
        <ele>2059.8</ele>
        <time>2026-02-02T14:17:12Z</time>
      </trkpt>
      <trkpt lat="45.98529" lon="6.56265">
        <ele>2059.8</ele>
        <time>2026-02-02T14:17:13Z</time>
      </trkpt>
      <trkpt lat="45.9853" lon="6.56265">
        <ele>2059.8</ele>
        <time>2026-02-02T14:17:14Z</time>
      </trkpt>
      <trkpt lat="45.9853" lon="6.56266">
        <ele>2059.8</ele>
        <time>2026-02-02T14:17:15Z</time>
      </trkpt>
      <trkpt lat="45.98531" lon="6.56266">
        <ele>2061.7</ele>
        <time>2026-02-02T14:17:16Z</time>
      </trkpt>
      <trkpt lat="45.98532" lon="6.56267">
        <ele>2061.7</ele>
        <time>2026-02-02T14:17:17Z</time>
      </trkpt>
      <trkpt lat="45.98533" lon="6.56267">
        <ele>2061.7</ele>
        <time>2026-02-02T14:17:18Z</time>
      </trkpt>
      <trkpt lat="45.98535" lon="6.56268">
        <ele>2061.7</ele>
        <time>2026-02-02T14:17:19Z</time>
      </trkpt>
      <trkpt lat="45.98536" lon="6.56268">
        <ele>2061.7</ele>
        <time>2026-02-02T14:17:20Z</time>
      </trkpt>
      <trkpt lat="45.98537" lon="6.56269">
        <ele>2061.6</ele>
        <time>2026-02-02T14:17:21Z</time>
      </trkpt>
      <trkpt lat="45.98538" lon="6.5627">
        <ele>2061.6</ele>
        <time>2026-02-02T14:17:23Z</time>
      </trkpt>
      <trkpt lat="45.98539" lon="6.5627">
        <ele>2063.5</ele>
        <time>2026-02-02T14:17:24Z</time>
      </trkpt>
      <trkpt lat="45.9854" lon="6.56271">
        <ele>2063.5</ele>
        <time>2026-02-02T14:17:25Z</time>
      </trkpt>
      <trkpt lat="45.9854" lon="6.56272">
        <ele>2063.5</ele>
        <time>2026-02-02T14:17:26Z</time>
      </trkpt>
      <trkpt lat="45.9854" lon="6.56272">
        <ele>2063.5</ele>
        <time>2026-02-02T14:17:27Z</time>
      </trkpt>
      <trkpt lat="45.98541" lon="6.56272">
        <ele>2063.5</ele>
        <time>2026-02-02T14:17:28Z</time>
      </trkpt>
      <trkpt lat="45.98541" lon="6.56273">
        <ele>2063.5</ele>
        <time>2026-02-02T14:17:29Z</time>
      </trkpt>
      <trkpt lat="45.9854" lon="6.56273">
        <ele>2063.5</ele>
        <time>2026-02-02T14:17:30Z</time>
      </trkpt>
      <trkpt lat="45.9854" lon="6.56273">
        <ele>2063.5</ele>
        <time>2026-02-02T14:17:31Z</time>
      </trkpt>
      <trkpt lat="45.9854" lon="6.56273">
        <ele>2063.5</ele>
        <time>2026-02-02T14:17:32Z</time>
      </trkpt>
      <trkpt lat="45.9854" lon="6.56273">
        <ele>2063.5</ele>
        <time>2026-02-02T14:17:33Z</time>
      </trkpt>
      <trkpt lat="45.9854" lon="6.56273">
        <ele>2063.5</ele>
        <time>2026-02-02T14:17:34Z</time>
      </trkpt>
      <trkpt lat="45.9854" lon="6.56273">
        <ele>2063.5</ele>
        <time>2026-02-02T14:17:35Z</time>
      </trkpt>
      <trkpt lat="45.9854" lon="6.56273">
        <ele>2063.5</ele>
        <time>2026-02-02T14:17:36Z</time>
      </trkpt>
      <trkpt lat="45.9854" lon="6.56273">
        <ele>2063.5</ele>
        <time>2026-02-02T14:17:37Z</time>
      </trkpt>
      <trkpt lat="45.9854" lon="6.56273">
        <ele>2063.5</ele>
        <time>2026-02-02T14:17:38Z</time>
      </trkpt>
      <trkpt lat="45.9854" lon="6.56273">
        <ele>2063.5</ele>
        <time>2026-02-02T14:17:39Z</time>
      </trkpt>
      <trkpt lat="45.9854" lon="6.56273">
        <ele>2063.5</ele>
        <time>2026-02-02T14:17:40Z</time>
      </trkpt>
      <trkpt lat="45.9854" lon="6.56273">
        <ele>2063.5</ele>
        <time>2026-02-02T14:17:41Z</time>
      </trkpt>
      <trkpt lat="45.9854" lon="6.56273">
        <ele>2063.5</ele>
        <time>2026-02-02T14:17:42Z</time>
      </trkpt>
      <trkpt lat="45.9854" lon="6.56273">
        <ele>2063.5</ele>
        <time>2026-02-02T14:17:43Z</time>
      </trkpt>
      <trkpt lat="45.9854" lon="6.56273">
        <ele>2063.5</ele>
        <time>2026-02-02T14:17:44Z</time>
      </trkpt>
      <trkpt lat="45.9854" lon="6.56274">
        <ele>2063.5</ele>
        <time>2026-02-02T14:17:45Z</time>
      </trkpt>
      <trkpt lat="45.9854" lon="6.56274">
        <ele>2063.5</ele>
        <time>2026-02-02T14:17:46Z</time>
      </trkpt>
      <trkpt lat="45.98541" lon="6.56275">
        <ele>2065.5</ele>
        <time>2026-02-02T14:17:47Z</time>
      </trkpt>
      <trkpt lat="45.98541" lon="6.56276">
        <ele>2065.5</ele>
        <time>2026-02-02T14:17:48Z</time>
      </trkpt>
      <trkpt lat="45.98542" lon="6.56276">
        <ele>2065.5</ele>
        <time>2026-02-02T14:17:49Z</time>
      </trkpt>
      <trkpt lat="45.98542" lon="6.56277">
        <ele>2065.5</ele>
        <time>2026-02-02T14:17:50Z</time>
      </trkpt>
      <trkpt lat="45.98543" lon="6.56277">
        <ele>2065.4</ele>
        <time>2026-02-02T14:17:51Z</time>
      </trkpt>
      <trkpt lat="45.98544" lon="6.56278">
        <ele>2065.4</ele>
        <time>2026-02-02T14:17:52Z</time>
      </trkpt>
      <trkpt lat="45.98544" lon="6.56278">
        <ele>2065.4</ele>
        <time>2026-02-02T14:17:53Z</time>
      </trkpt>
      <trkpt lat="45.98545" lon="6.56279">
        <ele>2065.4</ele>
        <time>2026-02-02T14:17:54Z</time>
      </trkpt>
      <trkpt lat="45.98545" lon="6.56279">
        <ele>2067.2</ele>
        <time>2026-02-02T14:17:55Z</time>
      </trkpt>
      <trkpt lat="45.98546" lon="6.5628">
        <ele>2067.2</ele>
        <time>2026-02-02T14:17:56Z</time>
      </trkpt>
      <trkpt lat="45.98547" lon="6.56281">
        <ele>2067.2</ele>
        <time>2026-02-02T14:17:57Z</time>
      </trkpt>
      <trkpt lat="45.98548" lon="6.56282">
        <ele>2067.2</ele>
        <time>2026-02-02T14:17:58Z</time>
      </trkpt>
      <trkpt lat="45.98549" lon="6.56283">
        <ele>2067</ele>
        <time>2026-02-02T14:17:59Z</time>
      </trkpt>
      <trkpt lat="45.98549" lon="6.56283">
        <ele>2068.9</ele>
        <time>2026-02-02T14:18:00Z</time>
      </trkpt>
      <trkpt lat="45.9855" lon="6.56284">
        <ele>2068.9</ele>
        <time>2026-02-02T14:18:01Z</time>
      </trkpt>
      <trkpt lat="45.98551" lon="6.56285">
        <ele>2068.9</ele>
        <time>2026-02-02T14:18:02Z</time>
      </trkpt>
      <trkpt lat="45.98551" lon="6.56285">
        <ele>2068.9</ele>
        <time>2026-02-02T14:18:03Z</time>
      </trkpt>
      <trkpt lat="45.98552" lon="6.56286">
        <ele>2068.6</ele>
        <time>2026-02-02T14:18:04Z</time>
      </trkpt>
      <trkpt lat="45.98552" lon="6.56286">
        <ele>2068.6</ele>
        <time>2026-02-02T14:18:05Z</time>
      </trkpt>
      <trkpt lat="45.98553" lon="6.56287">
        <ele>2068.6</ele>
        <time>2026-02-02T14:18:06Z</time>
      </trkpt>
      <trkpt lat="45.98553" lon="6.56287">
        <ele>2068.6</ele>
        <time>2026-02-02T14:18:07Z</time>
      </trkpt>
      <trkpt lat="45.98553" lon="6.56287">
        <ele>2068.6</ele>
        <time>2026-02-02T14:18:08Z</time>
      </trkpt>
      <trkpt lat="45.98552" lon="6.56286">
        <ele>2068.6</ele>
        <time>2026-02-02T14:18:09Z</time>
      </trkpt>
      <trkpt lat="45.98552" lon="6.56286">
        <ele>2068.6</ele>
        <time>2026-02-02T14:18:10Z</time>
      </trkpt>
      <trkpt lat="45.98552" lon="6.56286">
        <ele>2068.6</ele>
        <time>2026-02-02T14:18:11Z</time>
      </trkpt>
      <trkpt lat="45.98552" lon="6.56286">
        <ele>2068.6</ele>
        <time>2026-02-02T14:18:12Z</time>
      </trkpt>
      <trkpt lat="45.98552" lon="6.56286">
        <ele>2068.6</ele>
        <time>2026-02-02T14:18:13Z</time>
      </trkpt>
      <trkpt lat="45.98552" lon="6.56286">
        <ele>2068.6</ele>
        <time>2026-02-02T14:18:14Z</time>
      </trkpt>
      <trkpt lat="45.98552" lon="6.56286">
        <ele>2068.6</ele>
        <time>2026-02-02T14:18:15Z</time>
      </trkpt>
      <trkpt lat="45.98552" lon="6.56286">
        <ele>2068.6</ele>
        <time>2026-02-02T14:18:16Z</time>
      </trkpt>
      <trkpt lat="45.98552" lon="6.56286">
        <ele>2068.6</ele>
        <time>2026-02-02T14:18:17Z</time>
      </trkpt>
      <trkpt lat="45.98552" lon="6.56286">
        <ele>2068.6</ele>
        <time>2026-02-02T14:18:18Z</time>
      </trkpt>
      <trkpt lat="45.98552" lon="6.56286">
        <ele>2068.6</ele>
        <time>2026-02-02T14:18:19Z</time>
      </trkpt>
      <trkpt lat="45.98552" lon="6.56286">
        <ele>2068.6</ele>
        <time>2026-02-02T14:18:20Z</time>
      </trkpt>
      <trkpt lat="45.98552" lon="6.56286">
        <ele>2068.6</ele>
        <time>2026-02-02T14:18:21Z</time>
      </trkpt>
      <trkpt lat="45.98552" lon="6.56286">
        <ele>2068.6</ele>
        <time>2026-02-02T14:18:22Z</time>
      </trkpt>
      <trkpt lat="45.98552" lon="6.56287">
        <ele>2068.6</ele>
        <time>2026-02-02T14:18:23Z</time>
      </trkpt>
      <trkpt lat="45.98552" lon="6.56287">
        <ele>2068.6</ele>
        <time>2026-02-02T14:18:24Z</time>
      </trkpt>
      <trkpt lat="45.98553" lon="6.56288">
        <ele>2070.5</ele>
        <time>2026-02-02T14:18:25Z</time>
      </trkpt>
      <trkpt lat="45.98554" lon="6.56289">
        <ele>2070.5</ele>
        <time>2026-02-02T14:18:26Z</time>
      </trkpt>
      <trkpt lat="45.98555" lon="6.56289">
        <ele>2070.1</ele>
        <time>2026-02-02T14:18:27Z</time>
      </trkpt>
      <trkpt lat="45.98556" lon="6.5629">
        <ele>2070.1</ele>
        <time>2026-02-02T14:18:28Z</time>
      </trkpt>
      <trkpt lat="45.98557" lon="6.5629">
        <ele>2070.1</ele>
        <time>2026-02-02T14:18:29Z</time>
      </trkpt>
      <trkpt lat="45.98557" lon="6.5629">
        <ele>2070.1</ele>
        <time>2026-02-02T14:18:30Z</time>
      </trkpt>
      <trkpt lat="45.98556" lon="6.5629">
        <ele>2070.1</ele>
        <time>2026-02-02T14:18:31Z</time>
      </trkpt>
      <trkpt lat="45.98556" lon="6.56291">
        <ele>2070.1</ele>
        <time>2026-02-02T14:18:32Z</time>
      </trkpt>
      <trkpt lat="45.98556" lon="6.56291">
        <ele>2070.1</ele>
        <time>2026-02-02T14:18:33Z</time>
      </trkpt>
      <trkpt lat="45.98556" lon="6.56291">
        <ele>2070.1</ele>
        <time>2026-02-02T14:18:34Z</time>
      </trkpt>
      <trkpt lat="45.98555" lon="6.56291">
        <ele>2070.1</ele>
        <time>2026-02-02T14:18:35Z</time>
      </trkpt>
      <trkpt lat="45.98555" lon="6.56291">
        <ele>2070.1</ele>
        <time>2026-02-02T14:18:36Z</time>
      </trkpt>
      <trkpt lat="45.98555" lon="6.56291">
        <ele>2070.1</ele>
        <time>2026-02-02T14:18:37Z</time>
      </trkpt>
      <trkpt lat="45.98554" lon="6.56291">
        <ele>2070.1</ele>
        <time>2026-02-02T14:18:38Z</time>
      </trkpt>
      <trkpt lat="45.98554" lon="6.56291">
        <ele>2070.5</ele>
        <time>2026-02-02T14:18:39Z</time>
      </trkpt>
      <trkpt lat="45.98554" lon="6.56291">
        <ele>2070.5</ele>
        <time>2026-02-02T14:18:40Z</time>
      </trkpt>
      <trkpt lat="45.98554" lon="6.56291">
        <ele>2070.5</ele>
        <time>2026-02-02T14:18:41Z</time>
      </trkpt>
      <trkpt lat="45.98553" lon="6.56292">
        <ele>2072.2</ele>
        <time>2026-02-02T14:18:42Z</time>
      </trkpt>
      <trkpt lat="45.98553" lon="6.56292">
        <ele>2072.2</ele>
        <time>2026-02-02T14:18:43Z</time>
      </trkpt>
      <trkpt lat="45.98551" lon="6.56292">
        <ele>2072.5</ele>
        <time>2026-02-02T14:18:44Z</time>
      </trkpt>
      <trkpt lat="45.98549" lon="6.56292">
        <ele>2072.5</ele>
        <time>2026-02-02T14:18:46Z</time>
      </trkpt>
      <trkpt lat="45.98548" lon="6.56292">
        <ele>2072.8</ele>
        <time>2026-02-02T14:18:47Z</time>
      </trkpt>
      <trkpt lat="45.98547" lon="6.56292">
        <ele>2072.8</ele>
        <time>2026-02-02T14:18:48Z</time>
      </trkpt>
      <trkpt lat="45.98546" lon="6.56293">
        <ele>2072.8</ele>
        <time>2026-02-02T14:18:49Z</time>
      </trkpt>
      <trkpt lat="45.98546" lon="6.56293">
        <ele>2072.8</ele>
        <time>2026-02-02T14:18:50Z</time>
      </trkpt>
      <trkpt lat="45.98546" lon="6.56293">
        <ele>2072.8</ele>
        <time>2026-02-02T14:18:51Z</time>
      </trkpt>
      <trkpt lat="45.98547" lon="6.56293">
        <ele>2072.8</ele>
        <time>2026-02-02T14:18:52Z</time>
      </trkpt>
      <trkpt lat="45.98547" lon="6.56293">
        <ele>2072.8</ele>
        <time>2026-02-02T14:18:53Z</time>
      </trkpt>
      <trkpt lat="45.98547" lon="6.56293">
        <ele>2072.8</ele>
        <time>2026-02-02T14:18:54Z</time>
      </trkpt>
      <trkpt lat="45.98547" lon="6.56293">
        <ele>2072.8</ele>
        <time>2026-02-02T14:18:55Z</time>
      </trkpt>
      <trkpt lat="45.98547" lon="6.56293">
        <ele>2072.8</ele>
        <time>2026-02-02T14:18:56Z</time>
      </trkpt>
      <trkpt lat="45.98547" lon="6.56293">
        <ele>2072.8</ele>
        <time>2026-02-02T14:18:57Z</time>
      </trkpt>
      <trkpt lat="45.98547" lon="6.56293">
        <ele>2072.8</ele>
        <time>2026-02-02T14:18:58Z</time>
      </trkpt>
      <trkpt lat="45.98547" lon="6.56293">
        <ele>2072.8</ele>
        <time>2026-02-02T14:18:59Z</time>
      </trkpt>
      <trkpt lat="45.98547" lon="6.56293">
        <ele>2072.8</ele>
        <time>2026-02-02T14:19:00Z</time>
      </trkpt>
      <trkpt lat="45.98547" lon="6.56293">
        <ele>2072.8</ele>
        <time>2026-02-02T14:19:01Z</time>
      </trkpt>
      <trkpt lat="45.98547" lon="6.56294">
        <ele>2072.8</ele>
        <time>2026-02-02T14:19:02Z</time>
      </trkpt>
      <trkpt lat="45.98546" lon="6.56294">
        <ele>2072.8</ele>
        <time>2026-02-02T14:19:03Z</time>
      </trkpt>
      <trkpt lat="45.98546" lon="6.56294">
        <ele>2072.8</ele>
        <time>2026-02-02T14:19:04Z</time>
      </trkpt>
      <trkpt lat="45.98544" lon="6.56295">
        <ele>2073</ele>
        <time>2026-02-02T14:19:05Z</time>
      </trkpt>
      <trkpt lat="45.98542" lon="6.56296">
        <ele>2073.2</ele>
        <time>2026-02-02T14:19:07Z</time>
      </trkpt>
      <trkpt lat="45.98541" lon="6.56296">
        <ele>2074.9</ele>
        <time>2026-02-02T14:19:08Z</time>
      </trkpt>
      <trkpt lat="45.9854" lon="6.56296">
        <ele>2074.9</ele>
        <time>2026-02-02T14:19:09Z</time>
      </trkpt>
      <trkpt lat="45.9854" lon="6.56297">
        <ele>2074.9</ele>
        <time>2026-02-02T14:19:10Z</time>
      </trkpt>
      <trkpt lat="45.98539" lon="6.56297">
        <ele>2075.1</ele>
        <time>2026-02-02T14:19:11Z</time>
      </trkpt>
      <trkpt lat="45.98538" lon="6.56298">
        <ele>2075.1</ele>
        <time>2026-02-02T14:19:12Z</time>
      </trkpt>
      <trkpt lat="45.98537" lon="6.56298">
        <ele>2075.1</ele>
        <time>2026-02-02T14:19:13Z</time>
      </trkpt>
      <trkpt lat="45.98536" lon="6.56298">
        <ele>2075.2</ele>
        <time>2026-02-02T14:19:14Z</time>
      </trkpt>
      <trkpt lat="45.98536" lon="6.56299">
        <ele>2075.2</ele>
        <time>2026-02-02T14:19:15Z</time>
      </trkpt>
      <trkpt lat="45.98535" lon="6.56299">
        <ele>2075.2</ele>
        <time>2026-02-02T14:19:16Z</time>
      </trkpt>
      <trkpt lat="45.98534" lon="6.563">
        <ele>2075.2</ele>
        <time>2026-02-02T14:19:17Z</time>
      </trkpt>
      <trkpt lat="45.98533" lon="6.563">
        <ele>2077.2</ele>
        <time>2026-02-02T14:19:18Z</time>
      </trkpt>
      <trkpt lat="45.98532" lon="6.56301">
        <ele>2077.2</ele>
        <time>2026-02-02T14:19:19Z</time>
      </trkpt>
      <trkpt lat="45.98531" lon="6.56301">
        <ele>2077.2</ele>
        <time>2026-02-02T14:19:20Z</time>
      </trkpt>
      <trkpt lat="45.9853" lon="6.56301">
        <ele>2077.4</ele>
        <time>2026-02-02T14:19:21Z</time>
      </trkpt>
      <trkpt lat="45.98529" lon="6.56301">
        <ele>2077.4</ele>
        <time>2026-02-02T14:19:22Z</time>
      </trkpt>
      <trkpt lat="45.98529" lon="6.56301">
        <ele>2077.4</ele>
        <time>2026-02-02T14:19:23Z</time>
      </trkpt>
      <trkpt lat="45.9853" lon="6.56301">
        <ele>2077.4</ele>
        <time>2026-02-02T14:19:24Z</time>
      </trkpt>
      <trkpt lat="45.9853" lon="6.563">
        <ele>2077.4</ele>
        <time>2026-02-02T14:19:25Z</time>
      </trkpt>
      <trkpt lat="45.9853" lon="6.563">
        <ele>2077.4</ele>
        <time>2026-02-02T14:19:26Z</time>
      </trkpt>
      <trkpt lat="45.9853" lon="6.563">
        <ele>2077.4</ele>
        <time>2026-02-02T14:19:27Z</time>
      </trkpt>
      <trkpt lat="45.9853" lon="6.563">
        <ele>2077.4</ele>
        <time>2026-02-02T14:19:28Z</time>
      </trkpt>
      <trkpt lat="45.9853" lon="6.563">
        <ele>2077.4</ele>
        <time>2026-02-02T14:19:29Z</time>
      </trkpt>
      <trkpt lat="45.9853" lon="6.563">
        <ele>2077.4</ele>
        <time>2026-02-02T14:19:30Z</time>
      </trkpt>
      <trkpt lat="45.9853" lon="6.563">
        <ele>2077.4</ele>
        <time>2026-02-02T14:19:31Z</time>
      </trkpt>
      <trkpt lat="45.9853" lon="6.563">
        <ele>2077.4</ele>
        <time>2026-02-02T14:19:32Z</time>
      </trkpt>
      <trkpt lat="45.9853" lon="6.563">
        <ele>2077.4</ele>
        <time>2026-02-02T14:19:33Z</time>
      </trkpt>
      <trkpt lat="45.9853" lon="6.563">
        <ele>2077.4</ele>
        <time>2026-02-02T14:19:34Z</time>
      </trkpt>
      <trkpt lat="45.98529" lon="6.56301">
        <ele>2077.4</ele>
        <time>2026-02-02T14:19:35Z</time>
      </trkpt>
      <trkpt lat="45.98529" lon="6.56301">
        <ele>2077.4</ele>
        <time>2026-02-02T14:19:36Z</time>
      </trkpt>
      <trkpt lat="45.98528" lon="6.56302">
        <ele>2077.4</ele>
        <time>2026-02-02T14:19:37Z</time>
      </trkpt>
      <trkpt lat="45.98527" lon="6.56302">
        <ele>2077.5</ele>
        <time>2026-02-02T14:19:38Z</time>
      </trkpt>
      <trkpt lat="45.98526" lon="6.56302">
        <ele>2077.5</ele>
        <time>2026-02-02T14:19:39Z</time>
      </trkpt>
      <trkpt lat="45.98525" lon="6.56302">
        <ele>2077.5</ele>
        <time>2026-02-02T14:19:40Z</time>
      </trkpt>
      <trkpt lat="45.98524" lon="6.56303">
        <ele>2077.5</ele>
        <time>2026-02-02T14:19:41Z</time>
      </trkpt>
      <trkpt lat="45.98524" lon="6.56303">
        <ele>2077.7</ele>
        <time>2026-02-02T14:19:42Z</time>
      </trkpt>
      <trkpt lat="45.98523" lon="6.56303">
        <ele>2077.7</ele>
        <time>2026-02-02T14:19:43Z</time>
      </trkpt>
      <trkpt lat="45.98522" lon="6.56303">
        <ele>2077.7</ele>
        <time>2026-02-02T14:19:44Z</time>
      </trkpt>
      <trkpt lat="45.98521" lon="6.56303">
        <ele>2077.8</ele>
        <time>2026-02-02T14:19:45Z</time>
      </trkpt>
      <trkpt lat="45.9852" lon="6.56303">
        <ele>2077.8</ele>
        <time>2026-02-02T14:19:46Z</time>
      </trkpt>
      <trkpt lat="45.98518" lon="6.56304">
        <ele>2077.9</ele>
        <time>2026-02-02T14:19:47Z</time>
      </trkpt>
      <trkpt lat="45.98517" lon="6.56304">
        <ele>2077.9</ele>
        <time>2026-02-02T14:19:49Z</time>
      </trkpt>
      <trkpt lat="45.98516" lon="6.56304">
        <ele>2077.9</ele>
        <time>2026-02-02T14:19:50Z</time>
      </trkpt>
      <trkpt lat="45.98515" lon="6.56304">
        <ele>2078</ele>
        <time>2026-02-02T14:19:51Z</time>
      </trkpt>
      <trkpt lat="45.98514" lon="6.56305">
        <ele>2080</ele>
        <time>2026-02-02T14:19:52Z</time>
      </trkpt>
      <trkpt lat="45.98514" lon="6.56305">
        <ele>2080</ele>
        <time>2026-02-02T14:19:53Z</time>
      </trkpt>
      <trkpt lat="45.98514" lon="6.56305">
        <ele>2080</ele>
        <time>2026-02-02T14:19:54Z</time>
      </trkpt>
      <trkpt lat="45.98514" lon="6.56305">
        <ele>2080</ele>
        <time>2026-02-02T14:19:55Z</time>
      </trkpt>
      <trkpt lat="45.98513" lon="6.56305">
        <ele>2080</ele>
        <time>2026-02-02T14:19:56Z</time>
      </trkpt>
      <trkpt lat="45.98513" lon="6.56305">
        <ele>2080</ele>
        <time>2026-02-02T14:19:57Z</time>
      </trkpt>
      <trkpt lat="45.98513" lon="6.56305">
        <ele>2080</ele>
        <time>2026-02-02T14:19:58Z</time>
      </trkpt>
      <trkpt lat="45.98513" lon="6.56305">
        <ele>2080</ele>
        <time>2026-02-02T14:19:59Z</time>
      </trkpt>
      <trkpt lat="45.98513" lon="6.56305">
        <ele>2080</ele>
        <time>2026-02-02T14:20:00Z</time>
      </trkpt>
      <trkpt lat="45.98513" lon="6.56305">
        <ele>2080</ele>
        <time>2026-02-02T14:20:01Z</time>
      </trkpt>
      <trkpt lat="45.98513" lon="6.56306">
        <ele>2080</ele>
        <time>2026-02-02T14:20:02Z</time>
      </trkpt>
      <trkpt lat="45.98512" lon="6.56306">
        <ele>2080.1</ele>
        <time>2026-02-02T14:20:03Z</time>
      </trkpt>
      <trkpt lat="45.98512" lon="6.56306">
        <ele>2080.1</ele>
        <time>2026-02-02T14:20:04Z</time>
      </trkpt>
      <trkpt lat="45.98512" lon="6.56306">
        <ele>2080.1</ele>
        <time>2026-02-02T14:20:05Z</time>
      </trkpt>
      <trkpt lat="45.98512" lon="6.56306">
        <ele>2080.1</ele>
        <time>2026-02-02T14:20:06Z</time>
      </trkpt>
      <trkpt lat="45.98512" lon="6.56306">
        <ele>2080.1</ele>
        <time>2026-02-02T14:20:07Z</time>
      </trkpt>
      <trkpt lat="45.98512" lon="6.56306">
        <ele>2080.1</ele>
        <time>2026-02-02T14:20:08Z</time>
      </trkpt>
      <trkpt lat="45.98511" lon="6.56306">
        <ele>2080.1</ele>
        <time>2026-02-02T14:20:09Z</time>
      </trkpt>
      <trkpt lat="45.9851" lon="6.56307">
        <ele>2080.1</ele>
        <time>2026-02-02T14:20:10Z</time>
      </trkpt>
      <trkpt lat="45.98509" lon="6.56308">
        <ele>2080.2</ele>
        <time>2026-02-02T14:20:11Z</time>
      </trkpt>
      <trkpt lat="45.98508" lon="6.56308">
        <ele>2080.2</ele>
        <time>2026-02-02T14:20:12Z</time>
      </trkpt>
      <trkpt lat="45.98508" lon="6.56309">
        <ele>2082.3</ele>
        <time>2026-02-02T14:20:13Z</time>
      </trkpt>
      <trkpt lat="45.98507" lon="6.56309">
        <ele>2082.3</ele>
        <time>2026-02-02T14:20:14Z</time>
      </trkpt>
      <trkpt lat="45.98506" lon="6.5631">
        <ele>2082.4</ele>
        <time>2026-02-02T14:20:15Z</time>
      </trkpt>
      <trkpt lat="45.98505" lon="6.5631">
        <ele>2082.4</ele>
        <time>2026-02-02T14:20:16Z</time>
      </trkpt>
      <trkpt lat="45.98505" lon="6.56311">
        <ele>2082.4</ele>
        <time>2026-02-02T14:20:17Z</time>
      </trkpt>
      <trkpt lat="45.98504" lon="6.56311">
        <ele>2082.4</ele>
        <time>2026-02-02T14:20:18Z</time>
      </trkpt>
      <trkpt lat="45.98503" lon="6.56312">
        <ele>2082.5</ele>
        <time>2026-02-02T14:20:19Z</time>
      </trkpt>
      <trkpt lat="45.98502" lon="6.56312">
        <ele>2082.5</ele>
        <time>2026-02-02T14:20:20Z</time>
      </trkpt>
      <trkpt lat="45.98501" lon="6.56313">
        <ele>2082.5</ele>
        <time>2026-02-02T14:20:21Z</time>
      </trkpt>
      <trkpt lat="45.985" lon="6.56313">
        <ele>2084.8</ele>
        <time>2026-02-02T14:20:22Z</time>
      </trkpt>
      <trkpt lat="45.98499" lon="6.56314">
        <ele>2084.8</ele>
        <time>2026-02-02T14:20:23Z</time>
      </trkpt>
      <trkpt lat="45.98498" lon="6.56314">
        <ele>2084.8</ele>
        <time>2026-02-02T14:20:24Z</time>
      </trkpt>
      <trkpt lat="45.98497" lon="6.56314">
        <ele>2084.9</ele>
        <time>2026-02-02T14:20:25Z</time>
      </trkpt>
      <trkpt lat="45.98496" lon="6.56315">
        <ele>2084.9</ele>
        <time>2026-02-02T14:20:26Z</time>
      </trkpt>
      <trkpt lat="45.98496" lon="6.56314">
        <ele>2084.9</ele>
        <time>2026-02-02T14:20:27Z</time>
      </trkpt>
      <trkpt lat="45.98497" lon="6.56314">
        <ele>2084.9</ele>
        <time>2026-02-02T14:20:28Z</time>
      </trkpt>
      <trkpt lat="45.98496" lon="6.56314">
        <ele>2084.9</ele>
        <time>2026-02-02T14:20:29Z</time>
      </trkpt>
      <trkpt lat="45.98496" lon="6.56314">
        <ele>2084.9</ele>
        <time>2026-02-02T14:20:30Z</time>
      </trkpt>
      <trkpt lat="45.98496" lon="6.56314">
        <ele>2084.9</ele>
        <time>2026-02-02T14:20:31Z</time>
      </trkpt>
      <trkpt lat="45.98497" lon="6.56314">
        <ele>2084.9</ele>
        <time>2026-02-02T14:20:32Z</time>
      </trkpt>
      <trkpt lat="45.98497" lon="6.56314">
        <ele>2084.9</ele>
        <time>2026-02-02T14:20:33Z</time>
      </trkpt>
      <trkpt lat="45.98497" lon="6.56314">
        <ele>2084.9</ele>
        <time>2026-02-02T14:20:34Z</time>
      </trkpt>
      <trkpt lat="45.98497" lon="6.56314">
        <ele>2084.9</ele>
        <time>2026-02-02T14:20:35Z</time>
      </trkpt>
      <trkpt lat="45.98497" lon="6.56314">
        <ele>2084.9</ele>
        <time>2026-02-02T14:20:36Z</time>
      </trkpt>
      <trkpt lat="45.98497" lon="6.56314">
        <ele>2084.9</ele>
        <time>2026-02-02T14:20:37Z</time>
      </trkpt>
      <trkpt lat="45.98497" lon="6.56314">
        <ele>2084.9</ele>
        <time>2026-02-02T14:20:38Z</time>
      </trkpt>
      <trkpt lat="45.98497" lon="6.56314">
        <ele>2084.9</ele>
        <time>2026-02-02T14:20:39Z</time>
      </trkpt>
      <trkpt lat="45.98497" lon="6.56314">
        <ele>2084.9</ele>
        <time>2026-02-02T14:20:40Z</time>
      </trkpt>
      <trkpt lat="45.98497" lon="6.56314">
        <ele>2084.9</ele>
        <time>2026-02-02T14:20:41Z</time>
      </trkpt>
      <trkpt lat="45.98497" lon="6.56314">
        <ele>2084.9</ele>
        <time>2026-02-02T14:20:42Z</time>
      </trkpt>
      <trkpt lat="45.98497" lon="6.56314">
        <ele>2084.9</ele>
        <time>2026-02-02T14:20:43Z</time>
      </trkpt>
      <trkpt lat="45.98497" lon="6.56314">
        <ele>2084.9</ele>
        <time>2026-02-02T14:20:44Z</time>
      </trkpt>
      <trkpt lat="45.98497" lon="6.56314">
        <ele>2084.9</ele>
        <time>2026-02-02T14:20:45Z</time>
      </trkpt>
      <trkpt lat="45.98497" lon="6.56314">
        <ele>2084.9</ele>
        <time>2026-02-02T14:20:46Z</time>
      </trkpt>
      <trkpt lat="45.98497" lon="6.56314">
        <ele>2084.9</ele>
        <time>2026-02-02T14:20:47Z</time>
      </trkpt>
      <trkpt lat="45.98497" lon="6.56314">
        <ele>2084.9</ele>
        <time>2026-02-02T14:20:48Z</time>
      </trkpt>
      <trkpt lat="45.98497" lon="6.56314">
        <ele>2084.9</ele>
        <time>2026-02-02T14:20:49Z</time>
      </trkpt>
      <trkpt lat="45.98497" lon="6.56314">
        <ele>2084.9</ele>
        <time>2026-02-02T14:20:50Z</time>
      </trkpt>
      <trkpt lat="45.98496" lon="6.56315">
        <ele>2084.9</ele>
        <time>2026-02-02T14:20:51Z</time>
      </trkpt>
      <trkpt lat="45.98495" lon="6.56315">
        <ele>2084.9</ele>
        <time>2026-02-02T14:20:52Z</time>
      </trkpt>
      <trkpt lat="45.98494" lon="6.56315">
        <ele>2084.9</ele>
        <time>2026-02-02T14:20:53Z</time>
      </trkpt>
      <trkpt lat="45.98493" lon="6.56316">
        <ele>2084.9</ele>
        <time>2026-02-02T14:20:54Z</time>
      </trkpt>
      <trkpt lat="45.98493" lon="6.56315">
        <ele>2084.9</ele>
        <time>2026-02-02T14:20:55Z</time>
      </trkpt>
      <trkpt lat="45.98492" lon="6.56316">
        <ele>2084.9</ele>
        <time>2026-02-02T14:20:56Z</time>
      </trkpt>
      <trkpt lat="45.98491" lon="6.56316">
        <ele>2084.9</ele>
        <time>2026-02-02T14:20:57Z</time>
      </trkpt>
      <trkpt lat="45.98491" lon="6.56317">
        <ele>2087.2</ele>
        <time>2026-02-02T14:20:58Z</time>
      </trkpt>
      <trkpt lat="45.9849" lon="6.56318">
        <ele>2087.2</ele>
        <time>2026-02-02T14:20:59Z</time>
      </trkpt>
      <trkpt lat="45.98489" lon="6.56319">
        <ele>2087.2</ele>
        <time>2026-02-02T14:21:00Z</time>
      </trkpt>
      <trkpt lat="45.98488" lon="6.56319">
        <ele>2087.2</ele>
        <time>2026-02-02T14:21:01Z</time>
      </trkpt>
      <trkpt lat="45.98488" lon="6.5632">
        <ele>2087.2</ele>
        <time>2026-02-02T14:21:02Z</time>
      </trkpt>
      <trkpt lat="45.98487" lon="6.56321">
        <ele>2087.2</ele>
        <time>2026-02-02T14:21:03Z</time>
      </trkpt>
      <trkpt lat="45.98487" lon="6.56321">
        <ele>2087.2</ele>
        <time>2026-02-02T14:21:04Z</time>
      </trkpt>
      <trkpt lat="45.98486" lon="6.56322">
        <ele>2089.5</ele>
        <time>2026-02-02T14:21:05Z</time>
      </trkpt>
      <trkpt lat="45.98484" lon="6.56324">
        <ele>2089.4</ele>
        <time>2026-02-02T14:21:06Z</time>
      </trkpt>
      <trkpt lat="45.98483" lon="6.56325">
        <ele>2089.4</ele>
        <time>2026-02-02T14:21:07Z</time>
      </trkpt>
      <trkpt lat="45.98483" lon="6.56326">
        <ele>2089.4</ele>
        <time>2026-02-02T14:21:08Z</time>
      </trkpt>
      <trkpt lat="45.98482" lon="6.56327">
        <ele>2091.7</ele>
        <time>2026-02-02T14:21:10Z</time>
      </trkpt>
      <trkpt lat="45.98481" lon="6.56328">
        <ele>2091.7</ele>
        <time>2026-02-02T14:21:11Z</time>
      </trkpt>
      <trkpt lat="45.9848" lon="6.56328">
        <ele>2091.7</ele>
        <time>2026-02-02T14:21:12Z</time>
      </trkpt>
      <trkpt lat="45.98479" lon="6.56329">
        <ele>2091.7</ele>
        <time>2026-02-02T14:21:13Z</time>
      </trkpt>
      <trkpt lat="45.98479" lon="6.56329">
        <ele>2091.7</ele>
        <time>2026-02-02T14:21:14Z</time>
      </trkpt>
      <trkpt lat="45.98478" lon="6.56329">
        <ele>2091.7</ele>
        <time>2026-02-02T14:21:15Z</time>
      </trkpt>
      <trkpt lat="45.98478" lon="6.56329">
        <ele>2091.7</ele>
        <time>2026-02-02T14:21:16Z</time>
      </trkpt>
      <trkpt lat="45.98479" lon="6.56328">
        <ele>2091.7</ele>
        <time>2026-02-02T14:21:17Z</time>
      </trkpt>
      <trkpt lat="45.98479" lon="6.56328">
        <ele>2091.7</ele>
        <time>2026-02-02T14:21:18Z</time>
      </trkpt>
      <trkpt lat="45.98479" lon="6.56328">
        <ele>2091.7</ele>
        <time>2026-02-02T14:21:19Z</time>
      </trkpt>
      <trkpt lat="45.98479" lon="6.56328">
        <ele>2091.7</ele>
        <time>2026-02-02T14:21:20Z</time>
      </trkpt>
      <trkpt lat="45.98479" lon="6.56328">
        <ele>2091.7</ele>
        <time>2026-02-02T14:21:21Z</time>
      </trkpt>
      <trkpt lat="45.98479" lon="6.56328">
        <ele>2091.7</ele>
        <time>2026-02-02T14:21:22Z</time>
      </trkpt>
      <trkpt lat="45.98479" lon="6.56328">
        <ele>2091.7</ele>
        <time>2026-02-02T14:21:23Z</time>
      </trkpt>
      <trkpt lat="45.98479" lon="6.56328">
        <ele>2091.7</ele>
        <time>2026-02-02T14:21:24Z</time>
      </trkpt>
      <trkpt lat="45.98479" lon="6.56329">
        <ele>2091.7</ele>
        <time>2026-02-02T14:21:25Z</time>
      </trkpt>
      <trkpt lat="45.98479" lon="6.56329">
        <ele>2091.7</ele>
        <time>2026-02-02T14:21:26Z</time>
      </trkpt>
      <trkpt lat="45.9848" lon="6.5633">
        <ele>2091.7</ele>
        <time>2026-02-02T14:21:27Z</time>
      </trkpt>
      <trkpt lat="45.9848" lon="6.56331">
        <ele>2094.1</ele>
        <time>2026-02-02T14:21:28Z</time>
      </trkpt>
      <trkpt lat="45.98482" lon="6.56331">
        <ele>2094.1</ele>
        <time>2026-02-02T14:21:29Z</time>
      </trkpt>
      <trkpt lat="45.98484" lon="6.5633">
        <ele>2094.1</ele>
        <time>2026-02-02T14:21:30Z</time>
      </trkpt>
      <trkpt lat="45.98485" lon="6.5633">
        <ele>2091.8</ele>
        <time>2026-02-02T14:21:31Z</time>
      </trkpt>
      <trkpt lat="45.98486" lon="6.5633">
        <ele>2091.8</ele>
        <time>2026-02-02T14:21:32Z</time>
      </trkpt>
      <trkpt lat="45.98486" lon="6.5633">
        <ele>2094.1</ele>
        <time>2026-02-02T14:21:33Z</time>
      </trkpt>
      <trkpt lat="45.98487" lon="6.56331">
        <ele>2094.1</ele>
        <time>2026-02-02T14:21:34Z</time>
      </trkpt>
      <trkpt lat="45.98487" lon="6.56331">
        <ele>2094.1</ele>
        <time>2026-02-02T14:21:35Z</time>
      </trkpt>
      <trkpt lat="45.98486" lon="6.56331">
        <ele>2094.1</ele>
        <time>2026-02-02T14:21:36Z</time>
      </trkpt>
      <trkpt lat="45.98486" lon="6.56332">
        <ele>2094.1</ele>
        <time>2026-02-02T14:21:37Z</time>
      </trkpt>
      <trkpt lat="45.98486" lon="6.56332">
        <ele>2094.1</ele>
        <time>2026-02-02T14:21:38Z</time>
      </trkpt>
      <trkpt lat="45.98486" lon="6.56332">
        <ele>2094.1</ele>
        <time>2026-02-02T14:21:39Z</time>
      </trkpt>
      <trkpt lat="45.98486" lon="6.56332">
        <ele>2094.1</ele>
        <time>2026-02-02T14:21:40Z</time>
      </trkpt>
      <trkpt lat="45.98486" lon="6.56332">
        <ele>2094.1</ele>
        <time>2026-02-02T14:21:41Z</time>
      </trkpt>
      <trkpt lat="45.98486" lon="6.56332">
        <ele>2094.1</ele>
        <time>2026-02-02T14:21:42Z</time>
      </trkpt>
      <trkpt lat="45.98486" lon="6.56332">
        <ele>2094.1</ele>
        <time>2026-02-02T14:21:43Z</time>
      </trkpt>
      <trkpt lat="45.98486" lon="6.56332">
        <ele>2094.1</ele>
        <time>2026-02-02T14:21:44Z</time>
      </trkpt>
      <trkpt lat="45.98486" lon="6.56332">
        <ele>2094.1</ele>
        <time>2026-02-02T14:21:45Z</time>
      </trkpt>
      <trkpt lat="45.98486" lon="6.56332">
        <ele>2094.1</ele>
        <time>2026-02-02T14:21:46Z</time>
      </trkpt>
      <trkpt lat="45.98486" lon="6.56332">
        <ele>2094.1</ele>
        <time>2026-02-02T14:21:47Z</time>
      </trkpt>
      <trkpt lat="45.98486" lon="6.56332">
        <ele>2094.1</ele>
        <time>2026-02-02T14:21:48Z</time>
      </trkpt>
      <trkpt lat="45.98486" lon="6.56332">
        <ele>2094.1</ele>
        <time>2026-02-02T14:21:49Z</time>
      </trkpt>
      <trkpt lat="45.98486" lon="6.56332">
        <ele>2094.1</ele>
        <time>2026-02-02T14:21:50Z</time>
      </trkpt>
      <trkpt lat="45.98487" lon="6.56332">
        <ele>2094.1</ele>
        <time>2026-02-02T14:21:51Z</time>
      </trkpt>
      <trkpt lat="45.98488" lon="6.56332">
        <ele>2094.1</ele>
        <time>2026-02-02T14:21:52Z</time>
      </trkpt>
      <trkpt lat="45.98489" lon="6.56332">
        <ele>2094.1</ele>
        <time>2026-02-02T14:21:53Z</time>
      </trkpt>
      <trkpt lat="45.9849" lon="6.56332">
        <ele>2094.1</ele>
        <time>2026-02-02T14:21:54Z</time>
      </trkpt>
      <trkpt lat="45.98491" lon="6.56333">
        <ele>2094.1</ele>
        <time>2026-02-02T14:21:55Z</time>
      </trkpt>
      <trkpt lat="45.98493" lon="6.56334">
        <ele>2094</ele>
        <time>2026-02-02T14:21:56Z</time>
      </trkpt>
      <trkpt lat="45.98494" lon="6.56335">
        <ele>2096.2</ele>
        <time>2026-02-02T14:21:57Z</time>
      </trkpt>
      <trkpt lat="45.98495" lon="6.56335">
        <ele>2096.1</ele>
        <time>2026-02-02T14:21:58Z</time>
      </trkpt>
      <trkpt lat="45.98496" lon="6.56336">
        <ele>2096.1</ele>
        <time>2026-02-02T14:21:59Z</time>
      </trkpt>
      <trkpt lat="45.98497" lon="6.56336">
        <ele>2096.1</ele>
        <time>2026-02-02T14:22:00Z</time>
      </trkpt>
      <trkpt lat="45.98498" lon="6.56337">
        <ele>2096.1</ele>
        <time>2026-02-02T14:22:01Z</time>
      </trkpt>
      <trkpt lat="45.98499" lon="6.56337">
        <ele>2095.9</ele>
        <time>2026-02-02T14:22:02Z</time>
      </trkpt>
      <trkpt lat="45.98499" lon="6.56338">
        <ele>2095.9</ele>
        <time>2026-02-02T14:22:03Z</time>
      </trkpt>
      <trkpt lat="45.985" lon="6.56338">
        <ele>2095.9</ele>
        <time>2026-02-02T14:22:04Z</time>
      </trkpt>
      <trkpt lat="45.98501" lon="6.56338">
        <ele>2095.9</ele>
        <time>2026-02-02T14:22:05Z</time>
      </trkpt>
      <trkpt lat="45.98501" lon="6.56339">
        <ele>2097.8</ele>
        <time>2026-02-02T14:22:06Z</time>
      </trkpt>
      <trkpt lat="45.98502" lon="6.56339">
        <ele>2095.7</ele>
        <time>2026-02-02T14:22:07Z</time>
      </trkpt>
      <trkpt lat="45.98504" lon="6.56339">
        <ele>2097.8</ele>
        <time>2026-02-02T14:22:08Z</time>
      </trkpt>
      <trkpt lat="45.98505" lon="6.56339">
        <ele>2097.5</ele>
        <time>2026-02-02T14:22:09Z</time>
      </trkpt>
      <trkpt lat="45.98506" lon="6.56339">
        <ele>2097.5</ele>
        <time>2026-02-02T14:22:10Z</time>
      </trkpt>
      <trkpt lat="45.98507" lon="6.56339">
        <ele>2097.3</ele>
        <time>2026-02-02T14:22:11Z</time>
      </trkpt>
      <trkpt lat="45.98507" lon="6.5634">
        <ele>2097.3</ele>
        <time>2026-02-02T14:22:12Z</time>
      </trkpt>
      <trkpt lat="45.98507" lon="6.5634">
        <ele>2097.3</ele>
        <time>2026-02-02T14:22:13Z</time>
      </trkpt>
      <trkpt lat="45.98507" lon="6.5634">
        <ele>2097.3</ele>
        <time>2026-02-02T14:22:14Z</time>
      </trkpt>
      <trkpt lat="45.98507" lon="6.5634">
        <ele>2097.3</ele>
        <time>2026-02-02T14:22:15Z</time>
      </trkpt>
      <trkpt lat="45.98508" lon="6.5634">
        <ele>2097.3</ele>
        <time>2026-02-02T14:22:16Z</time>
      </trkpt>
      <trkpt lat="45.98508" lon="6.5634">
        <ele>2097.3</ele>
        <time>2026-02-02T14:22:17Z</time>
      </trkpt>
      <trkpt lat="45.98508" lon="6.5634">
        <ele>2097.3</ele>
        <time>2026-02-02T14:22:18Z</time>
      </trkpt>
      <trkpt lat="45.98508" lon="6.5634">
        <ele>2097.3</ele>
        <time>2026-02-02T14:22:19Z</time>
      </trkpt>
      <trkpt lat="45.98508" lon="6.5634">
        <ele>2097.3</ele>
        <time>2026-02-02T14:22:20Z</time>
      </trkpt>
      <trkpt lat="45.98509" lon="6.5634">
        <ele>2097.3</ele>
        <time>2026-02-02T14:22:21Z</time>
      </trkpt>
      <trkpt lat="45.98509" lon="6.5634">
        <ele>2097.3</ele>
        <time>2026-02-02T14:22:22Z</time>
      </trkpt>
      <trkpt lat="45.98509" lon="6.5634">
        <ele>2097.3</ele>
        <time>2026-02-02T14:22:23Z</time>
      </trkpt>
      <trkpt lat="45.98509" lon="6.5634">
        <ele>2097.3</ele>
        <time>2026-02-02T14:22:24Z</time>
      </trkpt>
      <trkpt lat="45.98509" lon="6.5634">
        <ele>2097.3</ele>
        <time>2026-02-02T14:22:25Z</time>
      </trkpt>
      <trkpt lat="45.9851" lon="6.5634">
        <ele>2097</ele>
        <time>2026-02-02T14:22:26Z</time>
      </trkpt>
      <trkpt lat="45.9851" lon="6.5634">
        <ele>2097</ele>
        <time>2026-02-02T14:22:27Z</time>
      </trkpt>
      <trkpt lat="45.9851" lon="6.5634">
        <ele>2097</ele>
        <time>2026-02-02T14:22:28Z</time>
      </trkpt>
      <trkpt lat="45.9851" lon="6.5634">
        <ele>2097</ele>
        <time>2026-02-02T14:22:29Z</time>
      </trkpt>
      <trkpt lat="45.9851" lon="6.5634">
        <ele>2097</ele>
        <time>2026-02-02T14:22:30Z</time>
      </trkpt>
      <trkpt lat="45.9851" lon="6.56341">
        <ele>2097</ele>
        <time>2026-02-02T14:22:31Z</time>
      </trkpt>
      <trkpt lat="45.98511" lon="6.56341">
        <ele>2097</ele>
        <time>2026-02-02T14:22:32Z</time>
      </trkpt>
      <trkpt lat="45.98512" lon="6.56341">
        <ele>2097</ele>
        <time>2026-02-02T14:22:33Z</time>
      </trkpt>
      <trkpt lat="45.98513" lon="6.56342">
        <ele>2096.8</ele>
        <time>2026-02-02T14:22:34Z</time>
      </trkpt>
      <trkpt lat="45.98514" lon="6.56342">
        <ele>2096.8</ele>
        <time>2026-02-02T14:22:35Z</time>
      </trkpt>
      <trkpt lat="45.98515" lon="6.56343">
        <ele>2098.7</ele>
        <time>2026-02-02T14:22:36Z</time>
      </trkpt>
      <trkpt lat="45.98515" lon="6.56344">
        <ele>2098.7</ele>
        <time>2026-02-02T14:22:37Z</time>
      </trkpt>
      <trkpt lat="45.98517" lon="6.56344">
        <ele>2098.4</ele>
        <time>2026-02-02T14:22:38Z</time>
      </trkpt>
      <trkpt lat="45.98517" lon="6.56345">
        <ele>2098.4</ele>
        <time>2026-02-02T14:22:39Z</time>
      </trkpt>
      <trkpt lat="45.98518" lon="6.56345">
        <ele>2098.4</ele>
        <time>2026-02-02T14:22:40Z</time>
      </trkpt>
      <trkpt lat="45.98519" lon="6.56346">
        <ele>2098.1</ele>
        <time>2026-02-02T14:22:41Z</time>
      </trkpt>
      <trkpt lat="45.98519" lon="6.56346">
        <ele>2098.1</ele>
        <time>2026-02-02T14:22:42Z</time>
      </trkpt>
      <trkpt lat="45.98519" lon="6.56347">
        <ele>2098.1</ele>
        <time>2026-02-02T14:22:43Z</time>
      </trkpt>
      <trkpt lat="45.98518" lon="6.56348">
        <ele>2100.3</ele>
        <time>2026-02-02T14:22:44Z</time>
      </trkpt>
      <trkpt lat="45.98518" lon="6.56348">
        <ele>2100.3</ele>
        <time>2026-02-02T14:22:45Z</time>
      </trkpt>
      <trkpt lat="45.98518" lon="6.56347">
        <ele>2098.4</ele>
        <time>2026-02-02T14:22:46Z</time>
      </trkpt>
      <trkpt lat="45.98517" lon="6.56347">
        <ele>2098.4</ele>
        <time>2026-02-02T14:22:47Z</time>
      </trkpt>
      <trkpt lat="45.98517" lon="6.56347">
        <ele>2098.4</ele>
        <time>2026-02-02T14:22:48Z</time>
      </trkpt>
      <trkpt lat="45.98517" lon="6.56347">
        <ele>2098.4</ele>
        <time>2026-02-02T14:22:49Z</time>
      </trkpt>
      <trkpt lat="45.98517" lon="6.56347">
        <ele>2098.4</ele>
        <time>2026-02-02T14:22:50Z</time>
      </trkpt>
      <trkpt lat="45.98517" lon="6.56347">
        <ele>2098.4</ele>
        <time>2026-02-02T14:22:51Z</time>
      </trkpt>
      <trkpt lat="45.98517" lon="6.56347">
        <ele>2098.4</ele>
        <time>2026-02-02T14:22:52Z</time>
      </trkpt>
      <trkpt lat="45.98517" lon="6.56347">
        <ele>2098.4</ele>
        <time>2026-02-02T14:22:53Z</time>
      </trkpt>
      <trkpt lat="45.98517" lon="6.56347">
        <ele>2098.4</ele>
        <time>2026-02-02T14:22:54Z</time>
      </trkpt>
      <trkpt lat="45.98517" lon="6.56347">
        <ele>2098.4</ele>
        <time>2026-02-02T14:22:55Z</time>
      </trkpt>
      <trkpt lat="45.98517" lon="6.56347">
        <ele>2098.4</ele>
        <time>2026-02-02T14:22:56Z</time>
      </trkpt>
      <trkpt lat="45.98517" lon="6.56347">
        <ele>2098.4</ele>
        <time>2026-02-02T14:22:57Z</time>
      </trkpt>
      <trkpt lat="45.98517" lon="6.56347">
        <ele>2098.4</ele>
        <time>2026-02-02T14:22:58Z</time>
      </trkpt>
      <trkpt lat="45.98517" lon="6.56347">
        <ele>2098.4</ele>
        <time>2026-02-02T14:22:59Z</time>
      </trkpt>
      <trkpt lat="45.98517" lon="6.56347">
        <ele>2098.4</ele>
        <time>2026-02-02T14:23:00Z</time>
      </trkpt>
      <trkpt lat="45.98517" lon="6.56347">
        <ele>2098.4</ele>
        <time>2026-02-02T14:23:01Z</time>
      </trkpt>
      <trkpt lat="45.98517" lon="6.56347">
        <ele>2098.4</ele>
        <time>2026-02-02T14:23:02Z</time>
      </trkpt>
      <trkpt lat="45.98517" lon="6.56347">
        <ele>2098.4</ele>
        <time>2026-02-02T14:23:03Z</time>
      </trkpt>
      <trkpt lat="45.98517" lon="6.56347">
        <ele>2098.4</ele>
        <time>2026-02-02T14:23:04Z</time>
      </trkpt>
      <trkpt lat="45.98517" lon="6.56347">
        <ele>2098.4</ele>
        <time>2026-02-02T14:23:05Z</time>
      </trkpt>
      <trkpt lat="45.98517" lon="6.56347">
        <ele>2098.4</ele>
        <time>2026-02-02T14:23:06Z</time>
      </trkpt>
      <trkpt lat="45.98516" lon="6.56347">
        <ele>2100.3</ele>
        <time>2026-02-02T14:23:07Z</time>
      </trkpt>
      <trkpt lat="45.98516" lon="6.56347">
        <ele>2100.3</ele>
        <time>2026-02-02T14:23:08Z</time>
      </trkpt>
      <trkpt lat="45.98516" lon="6.56347">
        <ele>2098.4</ele>
        <time>2026-02-02T14:23:09Z</time>
      </trkpt>
      <trkpt lat="45.98516" lon="6.56347">
        <ele>2098.4</ele>
        <time>2026-02-02T14:23:10Z</time>
      </trkpt>
      <trkpt lat="45.98516" lon="6.56347">
        <ele>2098.4</ele>
        <time>2026-02-02T14:23:11Z</time>
      </trkpt>
      <trkpt lat="45.98516" lon="6.56347">
        <ele>2098.4</ele>
        <time>2026-02-02T14:23:12Z</time>
      </trkpt>
      <trkpt lat="45.98516" lon="6.56347">
        <ele>2098.4</ele>
        <time>2026-02-02T14:23:13Z</time>
      </trkpt>
      <trkpt lat="45.98516" lon="6.56347">
        <ele>2098.4</ele>
        <time>2026-02-02T14:23:14Z</time>
      </trkpt>
      <trkpt lat="45.98516" lon="6.56347">
        <ele>2098.4</ele>
        <time>2026-02-02T14:23:15Z</time>
      </trkpt>
      <trkpt lat="45.98516" lon="6.56347">
        <ele>2098.4</ele>
        <time>2026-02-02T14:23:16Z</time>
      </trkpt>
      <trkpt lat="45.98516" lon="6.56347">
        <ele>2098.4</ele>
        <time>2026-02-02T14:23:17Z</time>
      </trkpt>
      <trkpt lat="45.98516" lon="6.56347">
        <ele>2098.4</ele>
        <time>2026-02-02T14:23:18Z</time>
      </trkpt>
      <trkpt lat="45.98517" lon="6.56347">
        <ele>2098.4</ele>
        <time>2026-02-02T14:23:19Z</time>
      </trkpt>
      <trkpt lat="45.98517" lon="6.56346">
        <ele>2098.4</ele>
        <time>2026-02-02T14:23:20Z</time>
      </trkpt>
      <trkpt lat="45.98517" lon="6.56346">
        <ele>2098.4</ele>
        <time>2026-02-02T14:23:21Z</time>
      </trkpt>
      <trkpt lat="45.98517" lon="6.56346">
        <ele>2098.4</ele>
        <time>2026-02-02T14:23:22Z</time>
      </trkpt>
      <trkpt lat="45.98517" lon="6.56346">
        <ele>2098.4</ele>
        <time>2026-02-02T14:23:23Z</time>
      </trkpt>
      <trkpt lat="45.98517" lon="6.56346">
        <ele>2098.4</ele>
        <time>2026-02-02T14:23:24Z</time>
      </trkpt>
      <trkpt lat="45.98517" lon="6.56346">
        <ele>2098.4</ele>
        <time>2026-02-02T14:23:25Z</time>
      </trkpt>
      <trkpt lat="45.98517" lon="6.56346">
        <ele>2098.4</ele>
        <time>2026-02-02T14:23:26Z</time>
      </trkpt>
      <trkpt lat="45.98517" lon="6.56346">
        <ele>2098.4</ele>
        <time>2026-02-02T14:23:27Z</time>
      </trkpt>
      <trkpt lat="45.98517" lon="6.56346">
        <ele>2098.4</ele>
        <time>2026-02-02T14:23:28Z</time>
      </trkpt>
      <trkpt lat="45.98517" lon="6.56346">
        <ele>2098.4</ele>
        <time>2026-02-02T14:23:29Z</time>
      </trkpt>
      <trkpt lat="45.98517" lon="6.56346">
        <ele>2098.4</ele>
        <time>2026-02-02T14:23:30Z</time>
      </trkpt>
      <trkpt lat="45.98517" lon="6.56346">
        <ele>2098.4</ele>
        <time>2026-02-02T14:23:31Z</time>
      </trkpt>
      <trkpt lat="45.98517" lon="6.56346">
        <ele>2098.4</ele>
        <time>2026-02-02T14:23:32Z</time>
      </trkpt>
      <trkpt lat="45.98517" lon="6.56346">
        <ele>2098.4</ele>
        <time>2026-02-02T14:23:33Z</time>
      </trkpt>
      <trkpt lat="45.98517" lon="6.56346">
        <ele>2098.4</ele>
        <time>2026-02-02T14:23:34Z</time>
      </trkpt>
      <trkpt lat="45.98517" lon="6.56346">
        <ele>2098.4</ele>
        <time>2026-02-02T14:23:35Z</time>
      </trkpt>
      <trkpt lat="45.98517" lon="6.56346">
        <ele>2098.4</ele>
        <time>2026-02-02T14:23:36Z</time>
      </trkpt>
      <trkpt lat="45.98517" lon="6.56346">
        <ele>2098.4</ele>
        <time>2026-02-02T14:23:37Z</time>
      </trkpt>
      <trkpt lat="45.98517" lon="6.56346">
        <ele>2098.4</ele>
        <time>2026-02-02T14:23:38Z</time>
      </trkpt>
      <trkpt lat="45.98517" lon="6.56346">
        <ele>2098.4</ele>
        <time>2026-02-02T14:23:39Z</time>
      </trkpt>
      <trkpt lat="45.98517" lon="6.56346">
        <ele>2098.4</ele>
        <time>2026-02-02T14:23:40Z</time>
      </trkpt>
      <trkpt lat="45.98517" lon="6.56346">
        <ele>2098.4</ele>
        <time>2026-02-02T14:23:41Z</time>
      </trkpt>
      <trkpt lat="45.98517" lon="6.56346">
        <ele>2098.4</ele>
        <time>2026-02-02T14:23:42Z</time>
      </trkpt>
      <trkpt lat="45.98517" lon="6.56346">
        <ele>2098.4</ele>
        <time>2026-02-02T14:23:43Z</time>
      </trkpt>
      <trkpt lat="45.98517" lon="6.56346">
        <ele>2098.4</ele>
        <time>2026-02-02T14:23:44Z</time>
      </trkpt>
      <trkpt lat="45.98517" lon="6.56346">
        <ele>2098.4</ele>
        <time>2026-02-02T14:23:45Z</time>
      </trkpt>
      <trkpt lat="45.98517" lon="6.56346">
        <ele>2098.4</ele>
        <time>2026-02-02T14:23:46Z</time>
      </trkpt>
      <trkpt lat="45.98517" lon="6.56346">
        <ele>2098.4</ele>
        <time>2026-02-02T14:23:47Z</time>
      </trkpt>
      <trkpt lat="45.98517" lon="6.56346">
        <ele>2098.4</ele>
        <time>2026-02-02T14:23:48Z</time>
      </trkpt>
      <trkpt lat="45.98517" lon="6.56346">
        <ele>2098.4</ele>
        <time>2026-02-02T14:23:49Z</time>
      </trkpt>
      <trkpt lat="45.98517" lon="6.56346">
        <ele>2098.4</ele>
        <time>2026-02-02T14:23:50Z</time>
      </trkpt>
      <trkpt lat="45.98517" lon="6.56346">
        <ele>2098.4</ele>
        <time>2026-02-02T14:23:51Z</time>
      </trkpt>
      <trkpt lat="45.98517" lon="6.56346">
        <ele>2098.4</ele>
        <time>2026-02-02T14:23:52Z</time>
      </trkpt>
      <trkpt lat="45.98517" lon="6.56346">
        <ele>2098.4</ele>
        <time>2026-02-02T14:23:53Z</time>
      </trkpt>
      <trkpt lat="45.98517" lon="6.56346">
        <ele>2098.4</ele>
        <time>2026-02-02T14:23:54Z</time>
      </trkpt>
      <trkpt lat="45.98517" lon="6.56346">
        <ele>2098.4</ele>
        <time>2026-02-02T14:23:55Z</time>
      </trkpt>
      <trkpt lat="45.98517" lon="6.56346">
        <ele>2098.4</ele>
        <time>2026-02-02T14:23:56Z</time>
      </trkpt>
      <trkpt lat="45.98517" lon="6.56346">
        <ele>2098.4</ele>
        <time>2026-02-02T14:23:57Z</time>
      </trkpt>
      <trkpt lat="45.98517" lon="6.56346">
        <ele>2098.4</ele>
        <time>2026-02-02T14:23:58Z</time>
      </trkpt>
      <trkpt lat="45.98517" lon="6.56346">
        <ele>2098.4</ele>
        <time>2026-02-02T14:23:59Z</time>
      </trkpt>
      <trkpt lat="45.98517" lon="6.56346">
        <ele>2098.4</ele>
        <time>2026-02-02T14:24:00Z</time>
      </trkpt>
      <trkpt lat="45.98517" lon="6.56346">
        <ele>2098.4</ele>
        <time>2026-02-02T14:24:01Z</time>
      </trkpt>
      <trkpt lat="45.98517" lon="6.56346">
        <ele>2098.4</ele>
        <time>2026-02-02T14:24:02Z</time>
      </trkpt>
      <trkpt lat="45.98517" lon="6.56346">
        <ele>2098.4</ele>
        <time>2026-02-02T14:24:03Z</time>
      </trkpt>
      <trkpt lat="45.98517" lon="6.56346">
        <ele>2098.4</ele>
        <time>2026-02-02T14:24:04Z</time>
      </trkpt>
      <trkpt lat="45.98517" lon="6.56346">
        <ele>2098.4</ele>
        <time>2026-02-02T14:24:05Z</time>
      </trkpt>
      <trkpt lat="45.98517" lon="6.56346">
        <ele>2098.4</ele>
        <time>2026-02-02T14:24:06Z</time>
      </trkpt>
      <trkpt lat="45.98517" lon="6.56346">
        <ele>2098.4</ele>
        <time>2026-02-02T14:24:07Z</time>
      </trkpt>
      <trkpt lat="45.98517" lon="6.56346">
        <ele>2098.4</ele>
        <time>2026-02-02T14:24:08Z</time>
      </trkpt>
      <trkpt lat="45.98517" lon="6.56346">
        <ele>2098.4</ele>
        <time>2026-02-02T14:24:09Z</time>
      </trkpt>
      <trkpt lat="45.98517" lon="6.56346">
        <ele>2098.4</ele>
        <time>2026-02-02T14:24:10Z</time>
      </trkpt>
      <trkpt lat="45.98517" lon="6.56346">
        <ele>2098.4</ele>
        <time>2026-02-02T14:24:11Z</time>
      </trkpt>
      <trkpt lat="45.98517" lon="6.56346">
        <ele>2098.4</ele>
        <time>2026-02-02T14:24:12Z</time>
      </trkpt>
      <trkpt lat="45.98517" lon="6.56346">
        <ele>2098.4</ele>
        <time>2026-02-02T14:24:13Z</time>
      </trkpt>
      <trkpt lat="45.98517" lon="6.56346">
        <ele>2098.4</ele>
        <time>2026-02-02T14:24:14Z</time>
      </trkpt>
      <trkpt lat="45.98517" lon="6.56346">
        <ele>2098.4</ele>
        <time>2026-02-02T14:24:15Z</time>
      </trkpt>
      <trkpt lat="45.98517" lon="6.56346">
        <ele>2098.4</ele>
        <time>2026-02-02T14:24:16Z</time>
      </trkpt>
      <trkpt lat="45.98517" lon="6.56346">
        <ele>2098.4</ele>
        <time>2026-02-02T14:24:17Z</time>
      </trkpt>
      <trkpt lat="45.98517" lon="6.56346">
        <ele>2098.4</ele>
        <time>2026-02-02T14:24:18Z</time>
      </trkpt>
      <trkpt lat="45.98517" lon="6.56346">
        <ele>2098.4</ele>
        <time>2026-02-02T14:24:19Z</time>
      </trkpt>
      <trkpt lat="45.98517" lon="6.56346">
        <ele>2098.4</ele>
        <time>2026-02-02T14:24:20Z</time>
      </trkpt>
      <trkpt lat="45.98517" lon="6.56346">
        <ele>2098.4</ele>
        <time>2026-02-02T14:24:21Z</time>
      </trkpt>
      <trkpt lat="45.98517" lon="6.56346">
        <ele>2098.4</ele>
        <time>2026-02-02T14:24:22Z</time>
      </trkpt>
      <trkpt lat="45.98517" lon="6.56346">
        <ele>2098.4</ele>
        <time>2026-02-02T14:24:23Z</time>
      </trkpt>
      <trkpt lat="45.98517" lon="6.56346">
        <ele>2098.4</ele>
        <time>2026-02-02T14:24:24Z</time>
      </trkpt>
      <trkpt lat="45.98517" lon="6.56346">
        <ele>2098.4</ele>
        <time>2026-02-02T14:24:25Z</time>
      </trkpt>
      <trkpt lat="45.98517" lon="6.56346">
        <ele>2098.4</ele>
        <time>2026-02-02T14:24:26Z</time>
      </trkpt>
      <trkpt lat="45.98517" lon="6.56346">
        <ele>2098.4</ele>
        <time>2026-02-02T14:24:27Z</time>
      </trkpt>
      <trkpt lat="45.98517" lon="6.56346">
        <ele>2098.4</ele>
        <time>2026-02-02T14:24:28Z</time>
      </trkpt>
      <trkpt lat="45.98517" lon="6.56346">
        <ele>2098.4</ele>
        <time>2026-02-02T14:24:29Z</time>
      </trkpt>
      <trkpt lat="45.98517" lon="6.56346">
        <ele>2098.4</ele>
        <time>2026-02-02T14:24:30Z</time>
      </trkpt>
      <trkpt lat="45.98517" lon="6.56346">
        <ele>2098.4</ele>
        <time>2026-02-02T14:24:31Z</time>
      </trkpt>
      <trkpt lat="45.98517" lon="6.56346">
        <ele>2098.4</ele>
        <time>2026-02-02T14:24:32Z</time>
      </trkpt>
      <trkpt lat="45.98517" lon="6.56346">
        <ele>2098.4</ele>
        <time>2026-02-02T14:24:33Z</time>
      </trkpt>
      <trkpt lat="45.98517" lon="6.56346">
        <ele>2098.4</ele>
        <time>2026-02-02T14:24:34Z</time>
      </trkpt>
      <trkpt lat="45.98517" lon="6.56346">
        <ele>2098.4</ele>
        <time>2026-02-02T14:24:35Z</time>
      </trkpt>
      <trkpt lat="45.98517" lon="6.56346">
        <ele>2098.4</ele>
        <time>2026-02-02T14:24:36Z</time>
      </trkpt>
      <trkpt lat="45.98517" lon="6.56346">
        <ele>2098.4</ele>
        <time>2026-02-02T14:24:37Z</time>
      </trkpt>
      <trkpt lat="45.98517" lon="6.56346">
        <ele>2098.4</ele>
        <time>2026-02-02T14:24:38Z</time>
      </trkpt>
      <trkpt lat="45.98517" lon="6.56346">
        <ele>2098.4</ele>
        <time>2026-02-02T14:24:39Z</time>
      </trkpt>
      <trkpt lat="45.98517" lon="6.56346">
        <ele>2098.4</ele>
        <time>2026-02-02T14:24:40Z</time>
      </trkpt>
      <trkpt lat="45.98517" lon="6.56346">
        <ele>2098.4</ele>
        <time>2026-02-02T14:24:41Z</time>
      </trkpt>
      <trkpt lat="45.98517" lon="6.56346">
        <ele>2098.4</ele>
        <time>2026-02-02T14:24:42Z</time>
      </trkpt>
      <trkpt lat="45.98517" lon="6.56346">
        <ele>2098.4</ele>
        <time>2026-02-02T14:24:43Z</time>
      </trkpt>
      <trkpt lat="45.98517" lon="6.56346">
        <ele>2098.4</ele>
        <time>2026-02-02T14:24:44Z</time>
      </trkpt>
      <trkpt lat="45.98517" lon="6.56346">
        <ele>2098.4</ele>
        <time>2026-02-02T14:24:45Z</time>
      </trkpt>
      <trkpt lat="45.98517" lon="6.56346">
        <ele>2098.4</ele>
        <time>2026-02-02T14:24:46Z</time>
      </trkpt>
      <trkpt lat="45.98517" lon="6.56346">
        <ele>2098.4</ele>
        <time>2026-02-02T14:24:47Z</time>
      </trkpt>
      <trkpt lat="45.98517" lon="6.56346">
        <ele>2098.4</ele>
        <time>2026-02-02T14:24:48Z</time>
      </trkpt>
      <trkpt lat="45.98517" lon="6.56346">
        <ele>2098.4</ele>
        <time>2026-02-02T14:24:49Z</time>
      </trkpt>
      <trkpt lat="45.98517" lon="6.56346">
        <ele>2098.4</ele>
        <time>2026-02-02T14:24:50Z</time>
      </trkpt>
      <trkpt lat="45.98517" lon="6.56346">
        <ele>2098.4</ele>
        <time>2026-02-02T14:24:51Z</time>
      </trkpt>
      <trkpt lat="45.98517" lon="6.56346">
        <ele>2098.4</ele>
        <time>2026-02-02T14:24:52Z</time>
      </trkpt>
      <trkpt lat="45.98517" lon="6.56346">
        <ele>2098.4</ele>
        <time>2026-02-02T14:24:53Z</time>
      </trkpt>
      <trkpt lat="45.98517" lon="6.56346">
        <ele>2098.4</ele>
        <time>2026-02-02T14:24:54Z</time>
      </trkpt>
      <trkpt lat="45.98517" lon="6.56346">
        <ele>2098.4</ele>
        <time>2026-02-02T14:24:55Z</time>
      </trkpt>
      <trkpt lat="45.98517" lon="6.56346">
        <ele>2098.4</ele>
        <time>2026-02-02T14:24:56Z</time>
      </trkpt>
      <trkpt lat="45.98517" lon="6.56346">
        <ele>2098.4</ele>
        <time>2026-02-02T14:24:57Z</time>
      </trkpt>
      <trkpt lat="45.98517" lon="6.56346">
        <ele>2098.4</ele>
        <time>2026-02-02T14:24:58Z</time>
      </trkpt>
      <trkpt lat="45.98517" lon="6.56346">
        <ele>2098.4</ele>
        <time>2026-02-02T14:24:59Z</time>
      </trkpt>
      <trkpt lat="45.98517" lon="6.56346">
        <ele>2098.4</ele>
        <time>2026-02-02T14:25:00Z</time>
      </trkpt>
      <trkpt lat="45.98517" lon="6.56346">
        <ele>2098.4</ele>
        <time>2026-02-02T14:25:01Z</time>
      </trkpt>
      <trkpt lat="45.98517" lon="6.56346">
        <ele>2098.4</ele>
        <time>2026-02-02T14:25:02Z</time>
      </trkpt>
      <trkpt lat="45.98517" lon="6.56346">
        <ele>2098.4</ele>
        <time>2026-02-02T14:25:03Z</time>
      </trkpt>
      <trkpt lat="45.98517" lon="6.56346">
        <ele>2098.4</ele>
        <time>2026-02-02T14:25:04Z</time>
      </trkpt>
      <trkpt lat="45.98517" lon="6.56346">
        <ele>2098.4</ele>
        <time>2026-02-02T14:25:05Z</time>
      </trkpt>
      <trkpt lat="45.98517" lon="6.56346">
        <ele>2098.4</ele>
        <time>2026-02-02T14:25:06Z</time>
      </trkpt>
      <trkpt lat="45.98517" lon="6.56346">
        <ele>2098.4</ele>
        <time>2026-02-02T14:25:07Z</time>
      </trkpt>
      <trkpt lat="45.98517" lon="6.56346">
        <ele>2098.4</ele>
        <time>2026-02-02T14:25:08Z</time>
      </trkpt>
      <trkpt lat="45.98516" lon="6.56346">
        <ele>2098.4</ele>
        <time>2026-02-02T14:25:09Z</time>
      </trkpt>
      <trkpt lat="45.98516" lon="6.56346">
        <ele>2098.4</ele>
        <time>2026-02-02T14:25:10Z</time>
      </trkpt>
      <trkpt lat="45.98516" lon="6.56346">
        <ele>2098.4</ele>
        <time>2026-02-02T14:25:11Z</time>
      </trkpt>
      <trkpt lat="45.98516" lon="6.56346">
        <ele>2098.4</ele>
        <time>2026-02-02T14:25:12Z</time>
      </trkpt>
      <trkpt lat="45.98516" lon="6.56346">
        <ele>2098.4</ele>
        <time>2026-02-02T14:25:13Z</time>
      </trkpt>
      <trkpt lat="45.98516" lon="6.56346">
        <ele>2098.4</ele>
        <time>2026-02-02T14:25:14Z</time>
      </trkpt>
      <trkpt lat="45.98516" lon="6.56346">
        <ele>2098.4</ele>
        <time>2026-02-02T14:25:15Z</time>
      </trkpt>
      <trkpt lat="45.98516" lon="6.56346">
        <ele>2098.4</ele>
        <time>2026-02-02T14:25:16Z</time>
      </trkpt>
      <trkpt lat="45.98516" lon="6.56346">
        <ele>2098.4</ele>
        <time>2026-02-02T14:25:17Z</time>
      </trkpt>
      <trkpt lat="45.98516" lon="6.56346">
        <ele>2098.4</ele>
        <time>2026-02-02T14:25:18Z</time>
      </trkpt>
      <trkpt lat="45.98516" lon="6.56346">
        <ele>2098.4</ele>
        <time>2026-02-02T14:25:19Z</time>
      </trkpt>
      <trkpt lat="45.98516" lon="6.56346">
        <ele>2098.4</ele>
        <time>2026-02-02T14:25:20Z</time>
      </trkpt>
      <trkpt lat="45.98516" lon="6.56346">
        <ele>2098.4</ele>
        <time>2026-02-02T14:25:21Z</time>
      </trkpt>
      <trkpt lat="45.98516" lon="6.56346">
        <ele>2098.4</ele>
        <time>2026-02-02T14:25:22Z</time>
      </trkpt>
      <trkpt lat="45.98516" lon="6.56346">
        <ele>2098.4</ele>
        <time>2026-02-02T14:25:23Z</time>
      </trkpt>
      <trkpt lat="45.98516" lon="6.56346">
        <ele>2098.4</ele>
        <time>2026-02-02T14:25:24Z</time>
      </trkpt>
      <trkpt lat="45.98516" lon="6.56346">
        <ele>2098.4</ele>
        <time>2026-02-02T14:25:25Z</time>
      </trkpt>
      <trkpt lat="45.98516" lon="6.56346">
        <ele>2098.4</ele>
        <time>2026-02-02T14:25:26Z</time>
      </trkpt>
      <trkpt lat="45.98516" lon="6.56346">
        <ele>2098.4</ele>
        <time>2026-02-02T14:25:27Z</time>
      </trkpt>
      <trkpt lat="45.98516" lon="6.56346">
        <ele>2098.4</ele>
        <time>2026-02-02T14:25:28Z</time>
      </trkpt>
      <trkpt lat="45.98516" lon="6.56346">
        <ele>2098.4</ele>
        <time>2026-02-02T14:25:29Z</time>
      </trkpt>
      <trkpt lat="45.98516" lon="6.56346">
        <ele>2098.4</ele>
        <time>2026-02-02T14:25:30Z</time>
      </trkpt>
      <trkpt lat="45.98516" lon="6.56346">
        <ele>2098.4</ele>
        <time>2026-02-02T14:25:31Z</time>
      </trkpt>
      <trkpt lat="45.98516" lon="6.56346">
        <ele>2098.4</ele>
        <time>2026-02-02T14:25:32Z</time>
      </trkpt>
      <trkpt lat="45.98517" lon="6.56346">
        <ele>2098.4</ele>
        <time>2026-02-02T14:25:33Z</time>
      </trkpt>
      <trkpt lat="45.98517" lon="6.56346">
        <ele>2098.4</ele>
        <time>2026-02-02T14:25:34Z</time>
      </trkpt>
      <trkpt lat="45.98517" lon="6.56346">
        <ele>2098.4</ele>
        <time>2026-02-02T14:25:35Z</time>
      </trkpt>
      <trkpt lat="45.98517" lon="6.56346">
        <ele>2098.4</ele>
        <time>2026-02-02T14:25:36Z</time>
      </trkpt>
      <trkpt lat="45.98517" lon="6.56346">
        <ele>2098.4</ele>
        <time>2026-02-02T14:25:37Z</time>
      </trkpt>
      <trkpt lat="45.98517" lon="6.56346">
        <ele>2098.4</ele>
        <time>2026-02-02T14:25:38Z</time>
      </trkpt>
      <trkpt lat="45.98517" lon="6.56346">
        <ele>2098.4</ele>
        <time>2026-02-02T14:25:39Z</time>
      </trkpt>
      <trkpt lat="45.98517" lon="6.56346">
        <ele>2098.4</ele>
        <time>2026-02-02T14:25:40Z</time>
      </trkpt>
      <trkpt lat="45.98517" lon="6.56346">
        <ele>2098.4</ele>
        <time>2026-02-02T14:25:41Z</time>
      </trkpt>
      <trkpt lat="45.98517" lon="6.56346">
        <ele>2098.4</ele>
        <time>2026-02-02T14:25:42Z</time>
      </trkpt>
      <trkpt lat="45.98517" lon="6.56346">
        <ele>2098.4</ele>
        <time>2026-02-02T14:25:43Z</time>
      </trkpt>
      <trkpt lat="45.98517" lon="6.56346">
        <ele>2098.4</ele>
        <time>2026-02-02T14:25:44Z</time>
      </trkpt>
      <trkpt lat="45.98517" lon="6.56346">
        <ele>2098.4</ele>
        <time>2026-02-02T14:25:45Z</time>
      </trkpt>
      <trkpt lat="45.98517" lon="6.56346">
        <ele>2098.4</ele>
        <time>2026-02-02T14:25:46Z</time>
      </trkpt>
      <trkpt lat="45.98517" lon="6.56346">
        <ele>2098.4</ele>
        <time>2026-02-02T14:25:47Z</time>
      </trkpt>
      <trkpt lat="45.98517" lon="6.56346">
        <ele>2098.4</ele>
        <time>2026-02-02T14:25:48Z</time>
      </trkpt>
      <trkpt lat="45.98517" lon="6.56346">
        <ele>2098.4</ele>
        <time>2026-02-02T14:25:49Z</time>
      </trkpt>
      <trkpt lat="45.98517" lon="6.56346">
        <ele>2098.4</ele>
        <time>2026-02-02T14:25:50Z</time>
      </trkpt>
      <trkpt lat="45.98517" lon="6.56346">
        <ele>2098.4</ele>
        <time>2026-02-02T14:25:51Z</time>
      </trkpt>
      <trkpt lat="45.98517" lon="6.56346">
        <ele>2098.4</ele>
        <time>2026-02-02T14:25:52Z</time>
      </trkpt>
      <trkpt lat="45.98517" lon="6.56346">
        <ele>2098.4</ele>
        <time>2026-02-02T14:25:53Z</time>
      </trkpt>
      <trkpt lat="45.98517" lon="6.56346">
        <ele>2098.4</ele>
        <time>2026-02-02T14:25:54Z</time>
      </trkpt>
      <trkpt lat="45.98517" lon="6.56346">
        <ele>2098.4</ele>
        <time>2026-02-02T14:25:55Z</time>
      </trkpt>
      <trkpt lat="45.98517" lon="6.56346">
        <ele>2098.4</ele>
        <time>2026-02-02T14:25:56Z</time>
      </trkpt>
      <trkpt lat="45.98517" lon="6.56346">
        <ele>2098.4</ele>
        <time>2026-02-02T14:25:57Z</time>
      </trkpt>
      <trkpt lat="45.98517" lon="6.56346">
        <ele>2098.4</ele>
        <time>2026-02-02T14:25:58Z</time>
      </trkpt>
      <trkpt lat="45.98517" lon="6.56346">
        <ele>2098.4</ele>
        <time>2026-02-02T14:25:59Z</time>
      </trkpt>
      <trkpt lat="45.98517" lon="6.56346">
        <ele>2098.4</ele>
        <time>2026-02-02T14:26:00Z</time>
      </trkpt>
      <trkpt lat="45.98517" lon="6.56346">
        <ele>2098.4</ele>
        <time>2026-02-02T14:26:01Z</time>
      </trkpt>
      <trkpt lat="45.98517" lon="6.56346">
        <ele>2098.4</ele>
        <time>2026-02-02T14:26:02Z</time>
      </trkpt>
      <trkpt lat="45.98517" lon="6.56346">
        <ele>2098.4</ele>
        <time>2026-02-02T14:26:03Z</time>
      </trkpt>
      <trkpt lat="45.98517" lon="6.56346">
        <ele>2098.4</ele>
        <time>2026-02-02T14:26:04Z</time>
      </trkpt>
      <trkpt lat="45.98517" lon="6.56347">
        <ele>2098.4</ele>
        <time>2026-02-02T14:26:05Z</time>
      </trkpt>
      <trkpt lat="45.98517" lon="6.56347">
        <ele>2098.4</ele>
        <time>2026-02-02T14:26:06Z</time>
      </trkpt>
      <trkpt lat="45.98517" lon="6.56347">
        <ele>2098.4</ele>
        <time>2026-02-02T14:26:07Z</time>
      </trkpt>
      <trkpt lat="45.98517" lon="6.56347">
        <ele>2098.4</ele>
        <time>2026-02-02T14:26:08Z</time>
      </trkpt>
      <trkpt lat="45.98517" lon="6.56347">
        <ele>2098.4</ele>
        <time>2026-02-02T14:26:09Z</time>
      </trkpt>
      <trkpt lat="45.98517" lon="6.56347">
        <ele>2098.4</ele>
        <time>2026-02-02T14:26:10Z</time>
      </trkpt>
      <trkpt lat="45.98517" lon="6.56347">
        <ele>2098.4</ele>
        <time>2026-02-02T14:26:11Z</time>
      </trkpt>
      <trkpt lat="45.98517" lon="6.56347">
        <ele>2098.4</ele>
        <time>2026-02-02T14:26:12Z</time>
      </trkpt>
      <trkpt lat="45.98517" lon="6.56347">
        <ele>2098.4</ele>
        <time>2026-02-02T14:26:13Z</time>
      </trkpt>
      <trkpt lat="45.98517" lon="6.56347">
        <ele>2098.4</ele>
        <time>2026-02-02T14:26:14Z</time>
      </trkpt>
      <trkpt lat="45.98517" lon="6.56347">
        <ele>2098.4</ele>
        <time>2026-02-02T14:26:15Z</time>
      </trkpt>
      <trkpt lat="45.98517" lon="6.56347">
        <ele>2098.4</ele>
        <time>2026-02-02T14:26:16Z</time>
      </trkpt>
      <trkpt lat="45.98517" lon="6.56347">
        <ele>2098.4</ele>
        <time>2026-02-02T14:26:17Z</time>
      </trkpt>
      <trkpt lat="45.98517" lon="6.56347">
        <ele>2098.4</ele>
        <time>2026-02-02T14:26:18Z</time>
      </trkpt>
      <trkpt lat="45.98517" lon="6.56347">
        <ele>2098.4</ele>
        <time>2026-02-02T14:26:19Z</time>
      </trkpt>
      <trkpt lat="45.98517" lon="6.56347">
        <ele>2098.4</ele>
        <time>2026-02-02T14:26:20Z</time>
      </trkpt>
      <trkpt lat="45.98517" lon="6.56347">
        <ele>2098.4</ele>
        <time>2026-02-02T14:26:21Z</time>
      </trkpt>
      <trkpt lat="45.98517" lon="6.56347">
        <ele>2098.4</ele>
        <time>2026-02-02T14:26:22Z</time>
      </trkpt>
      <trkpt lat="45.98517" lon="6.56347">
        <ele>2098.4</ele>
        <time>2026-02-02T14:26:23Z</time>
      </trkpt>
      <trkpt lat="45.98517" lon="6.56347">
        <ele>2098.4</ele>
        <time>2026-02-02T14:26:24Z</time>
      </trkpt>
      <trkpt lat="45.98517" lon="6.56347">
        <ele>2098.4</ele>
        <time>2026-02-02T14:26:25Z</time>
      </trkpt>
      <trkpt lat="45.98517" lon="6.56347">
        <ele>2098.4</ele>
        <time>2026-02-02T14:26:26Z</time>
      </trkpt>
      <trkpt lat="45.98517" lon="6.56347">
        <ele>2098.4</ele>
        <time>2026-02-02T14:26:27Z</time>
      </trkpt>
      <trkpt lat="45.98517" lon="6.56347">
        <ele>2098.4</ele>
        <time>2026-02-02T14:26:28Z</time>
      </trkpt>
      <trkpt lat="45.98517" lon="6.56347">
        <ele>2098.4</ele>
        <time>2026-02-02T14:26:29Z</time>
      </trkpt>
      <trkpt lat="45.98517" lon="6.56347">
        <ele>2098.4</ele>
        <time>2026-02-02T14:26:30Z</time>
      </trkpt>
      <trkpt lat="45.98517" lon="6.56347">
        <ele>2098.4</ele>
        <time>2026-02-02T14:26:31Z</time>
      </trkpt>
      <trkpt lat="45.98517" lon="6.56347">
        <ele>2098.4</ele>
        <time>2026-02-02T14:26:32Z</time>
      </trkpt>
      <trkpt lat="45.98517" lon="6.56347">
        <ele>2098.4</ele>
        <time>2026-02-02T14:26:33Z</time>
      </trkpt>
      <trkpt lat="45.98517" lon="6.56347">
        <ele>2098.4</ele>
        <time>2026-02-02T14:26:34Z</time>
      </trkpt>
      <trkpt lat="45.98517" lon="6.56347">
        <ele>2098.4</ele>
        <time>2026-02-02T14:26:35Z</time>
      </trkpt>
      <trkpt lat="45.98517" lon="6.56347">
        <ele>2098.4</ele>
        <time>2026-02-02T14:26:36Z</time>
      </trkpt>
      <trkpt lat="45.98517" lon="6.56347">
        <ele>2098.4</ele>
        <time>2026-02-02T14:26:37Z</time>
      </trkpt>
      <trkpt lat="45.98517" lon="6.56347">
        <ele>2098.4</ele>
        <time>2026-02-02T14:26:38Z</time>
      </trkpt>
      <trkpt lat="45.98517" lon="6.56347">
        <ele>2098.4</ele>
        <time>2026-02-02T14:26:39Z</time>
      </trkpt>
      <trkpt lat="45.98517" lon="6.56346">
        <ele>2098.4</ele>
        <time>2026-02-02T14:26:40Z</time>
      </trkpt>
      <trkpt lat="45.98517" lon="6.56346">
        <ele>2098.4</ele>
        <time>2026-02-02T14:26:41Z</time>
      </trkpt>
      <trkpt lat="45.98517" lon="6.56346">
        <ele>2098.4</ele>
        <time>2026-02-02T14:26:42Z</time>
      </trkpt>
      <trkpt lat="45.98517" lon="6.56346">
        <ele>2098.4</ele>
        <time>2026-02-02T14:26:43Z</time>
      </trkpt>
      <trkpt lat="45.98517" lon="6.56346">
        <ele>2098.4</ele>
        <time>2026-02-02T14:26:44Z</time>
      </trkpt>
      <trkpt lat="45.98517" lon="6.56346">
        <ele>2098.4</ele>
        <time>2026-02-02T14:26:45Z</time>
      </trkpt>
      <trkpt lat="45.98517" lon="6.56346">
        <ele>2098.4</ele>
        <time>2026-02-02T14:26:46Z</time>
      </trkpt>
      <trkpt lat="45.98517" lon="6.56346">
        <ele>2098.4</ele>
        <time>2026-02-02T14:26:47Z</time>
      </trkpt>
      <trkpt lat="45.98518" lon="6.56346">
        <ele>2098.4</ele>
        <time>2026-02-02T14:26:48Z</time>
      </trkpt>
      <trkpt lat="45.98518" lon="6.56346">
        <ele>2098.4</ele>
        <time>2026-02-02T14:26:49Z</time>
      </trkpt>
      <trkpt lat="45.98518" lon="6.56346">
        <ele>2098.4</ele>
        <time>2026-02-02T14:26:50Z</time>
      </trkpt>
      <trkpt lat="45.98518" lon="6.56346">
        <ele>2098.4</ele>
        <time>2026-02-02T14:26:51Z</time>
      </trkpt>
      <trkpt lat="45.98518" lon="6.56346">
        <ele>2098.4</ele>
        <time>2026-02-02T14:26:52Z</time>
      </trkpt>
      <trkpt lat="45.98518" lon="6.56346">
        <ele>2098.4</ele>
        <time>2026-02-02T14:26:53Z</time>
      </trkpt>
      <trkpt lat="45.98518" lon="6.56346">
        <ele>2098.4</ele>
        <time>2026-02-02T14:26:54Z</time>
      </trkpt>
      <trkpt lat="45.98518" lon="6.56346">
        <ele>2098.4</ele>
        <time>2026-02-02T14:26:55Z</time>
      </trkpt>
      <trkpt lat="45.98518" lon="6.56346">
        <ele>2098.4</ele>
        <time>2026-02-02T14:26:56Z</time>
      </trkpt>
      <trkpt lat="45.98518" lon="6.56346">
        <ele>2098.4</ele>
        <time>2026-02-02T14:26:57Z</time>
      </trkpt>
      <trkpt lat="45.98518" lon="6.56346">
        <ele>2098.4</ele>
        <time>2026-02-02T14:26:58Z</time>
      </trkpt>
      <trkpt lat="45.98518" lon="6.56346">
        <ele>2098.4</ele>
        <time>2026-02-02T14:26:59Z</time>
      </trkpt>
      <trkpt lat="45.98518" lon="6.56347">
        <ele>2098.4</ele>
        <time>2026-02-02T14:27:00Z</time>
      </trkpt>
      <trkpt lat="45.98518" lon="6.56347">
        <ele>2098.4</ele>
        <time>2026-02-02T14:27:01Z</time>
      </trkpt>
      <trkpt lat="45.98518" lon="6.56347">
        <ele>2098.4</ele>
        <time>2026-02-02T14:27:02Z</time>
      </trkpt>
      <trkpt lat="45.98517" lon="6.56348">
        <ele>2100.3</ele>
        <time>2026-02-02T14:27:03Z</time>
      </trkpt>
      <trkpt lat="45.98517" lon="6.56349">
        <ele>2100.3</ele>
        <time>2026-02-02T14:27:04Z</time>
      </trkpt>
      <trkpt lat="45.98516" lon="6.56351">
        <ele>2100.3</ele>
        <time>2026-02-02T14:27:05Z</time>
      </trkpt>
      <trkpt lat="45.98515" lon="6.56352">
        <ele>2102.4</ele>
        <time>2026-02-02T14:27:06Z</time>
      </trkpt>
      <trkpt lat="45.98515" lon="6.56353">
        <ele>2102.4</ele>
        <time>2026-02-02T14:27:07Z</time>
      </trkpt>
      <trkpt lat="45.98514" lon="6.56353">
        <ele>2102.4</ele>
        <time>2026-02-02T14:27:08Z</time>
      </trkpt>
      <trkpt lat="45.98513" lon="6.56354">
        <ele>2102.4</ele>
        <time>2026-02-02T14:27:09Z</time>
      </trkpt>
      <trkpt lat="45.98513" lon="6.56354">
        <ele>2102.4</ele>
        <time>2026-02-02T14:27:10Z</time>
      </trkpt>
      <trkpt lat="45.98512" lon="6.56355">
        <ele>2102.7</ele>
        <time>2026-02-02T14:27:11Z</time>
      </trkpt>
      <trkpt lat="45.98511" lon="6.56355">
        <ele>2102.7</ele>
        <time>2026-02-02T14:27:12Z</time>
      </trkpt>
      <trkpt lat="45.9851" lon="6.56356">
        <ele>2102.7</ele>
        <time>2026-02-02T14:27:14Z</time>
      </trkpt>
      <trkpt lat="45.9851" lon="6.56356">
        <ele>2102.7</ele>
        <time>2026-02-02T14:27:15Z</time>
      </trkpt>
      <trkpt lat="45.98509" lon="6.56356">
        <ele>2105.1</ele>
        <time>2026-02-02T14:27:16Z</time>
      </trkpt>
      <trkpt lat="45.98509" lon="6.56356">
        <ele>2105.1</ele>
        <time>2026-02-02T14:27:17Z</time>
      </trkpt>
      <trkpt lat="45.98508" lon="6.56357">
        <ele>2105.1</ele>
        <time>2026-02-02T14:27:18Z</time>
      </trkpt>
      <trkpt lat="45.98507" lon="6.56357">
        <ele>2105.1</ele>
        <time>2026-02-02T14:27:19Z</time>
      </trkpt>
      <trkpt lat="45.98506" lon="6.56357">
        <ele>2105.4</ele>
        <time>2026-02-02T14:27:20Z</time>
      </trkpt>
      <trkpt lat="45.98506" lon="6.56358">
        <ele>2105.4</ele>
        <time>2026-02-02T14:27:21Z</time>
      </trkpt>
      <trkpt lat="45.98505" lon="6.56358">
        <ele>2105.4</ele>
        <time>2026-02-02T14:27:22Z</time>
      </trkpt>
      <trkpt lat="45.98504" lon="6.56359">
        <ele>2105.4</ele>
        <time>2026-02-02T14:27:23Z</time>
      </trkpt>
      <trkpt lat="45.98504" lon="6.56359">
        <ele>2105.7</ele>
        <time>2026-02-02T14:27:24Z</time>
      </trkpt>
      <trkpt lat="45.98503" lon="6.5636">
        <ele>2105.7</ele>
        <time>2026-02-02T14:27:25Z</time>
      </trkpt>
      <trkpt lat="45.98502" lon="6.5636">
        <ele>2107.8</ele>
        <time>2026-02-02T14:27:26Z</time>
      </trkpt>
      <trkpt lat="45.98502" lon="6.56361">
        <ele>2107.8</ele>
        <time>2026-02-02T14:27:27Z</time>
      </trkpt>
      <trkpt lat="45.98501" lon="6.56361">
        <ele>2107.8</ele>
        <time>2026-02-02T14:27:28Z</time>
      </trkpt>
      <trkpt lat="45.98501" lon="6.56361">
        <ele>2107.8</ele>
        <time>2026-02-02T14:27:29Z</time>
      </trkpt>
      <trkpt lat="45.985" lon="6.56362">
        <ele>2108.1</ele>
        <time>2026-02-02T14:27:30Z</time>
      </trkpt>
      <trkpt lat="45.985" lon="6.56362">
        <ele>2108.1</ele>
        <time>2026-02-02T14:27:31Z</time>
      </trkpt>
      <trkpt lat="45.98499" lon="6.56362">
        <ele>2108.1</ele>
        <time>2026-02-02T14:27:32Z</time>
      </trkpt>
      <trkpt lat="45.98498" lon="6.56363">
        <ele>2108.1</ele>
        <time>2026-02-02T14:27:33Z</time>
      </trkpt>
      <trkpt lat="45.98498" lon="6.56363">
        <ele>2108.1</ele>
        <time>2026-02-02T14:27:34Z</time>
      </trkpt>
      <trkpt lat="45.98497" lon="6.56363">
        <ele>2108.4</ele>
        <time>2026-02-02T14:27:35Z</time>
      </trkpt>
      <trkpt lat="45.98496" lon="6.56364">
        <ele>2108.4</ele>
        <time>2026-02-02T14:27:36Z</time>
      </trkpt>
      <trkpt lat="45.98496" lon="6.56364">
        <ele>2108.4</ele>
        <time>2026-02-02T14:27:37Z</time>
      </trkpt>
      <trkpt lat="45.98496" lon="6.56364">
        <ele>2108.4</ele>
        <time>2026-02-02T14:27:38Z</time>
      </trkpt>
      <trkpt lat="45.98495" lon="6.56365">
        <ele>2110.7</ele>
        <time>2026-02-02T14:27:39Z</time>
      </trkpt>
      <trkpt lat="45.98495" lon="6.56365">
        <ele>2110.7</ele>
        <time>2026-02-02T14:27:40Z</time>
      </trkpt>
      <trkpt lat="45.98495" lon="6.56365">
        <ele>2110.7</ele>
        <time>2026-02-02T14:27:41Z</time>
      </trkpt>
      <trkpt lat="45.98495" lon="6.56365">
        <ele>2110.7</ele>
        <time>2026-02-02T14:27:42Z</time>
      </trkpt>
      <trkpt lat="45.98494" lon="6.56365">
        <ele>2111</ele>
        <time>2026-02-02T14:27:43Z</time>
      </trkpt>
      <trkpt lat="45.98494" lon="6.56365">
        <ele>2111</ele>
        <time>2026-02-02T14:27:44Z</time>
      </trkpt>
      <trkpt lat="45.98494" lon="6.56365">
        <ele>2111</ele>
        <time>2026-02-02T14:27:45Z</time>
      </trkpt>
      <trkpt lat="45.98494" lon="6.56365">
        <ele>2111</ele>
        <time>2026-02-02T14:27:46Z</time>
      </trkpt>
      <trkpt lat="45.98493" lon="6.56366">
        <ele>2111</ele>
        <time>2026-02-02T14:27:47Z</time>
      </trkpt>
      <trkpt lat="45.98493" lon="6.56366">
        <ele>2111</ele>
        <time>2026-02-02T14:27:48Z</time>
      </trkpt>
      <trkpt lat="45.98493" lon="6.56366">
        <ele>2111</ele>
        <time>2026-02-02T14:27:49Z</time>
      </trkpt>
      <trkpt lat="45.98493" lon="6.56366">
        <ele>2111</ele>
        <time>2026-02-02T14:27:50Z</time>
      </trkpt>
      <trkpt lat="45.98492" lon="6.56366">
        <ele>2111</ele>
        <time>2026-02-02T14:27:51Z</time>
      </trkpt>
      <trkpt lat="45.98491" lon="6.56367">
        <ele>2111.2</ele>
        <time>2026-02-02T14:27:52Z</time>
      </trkpt>
      <trkpt lat="45.9849" lon="6.56367">
        <ele>2111.2</ele>
        <time>2026-02-02T14:27:53Z</time>
      </trkpt>
      <trkpt lat="45.98489" lon="6.56367">
        <ele>2111.2</ele>
        <time>2026-02-02T14:27:54Z</time>
      </trkpt>
      <trkpt lat="45.98489" lon="6.56368">
        <ele>2111.2</ele>
        <time>2026-02-02T14:27:55Z</time>
      </trkpt>
      <trkpt lat="45.98488" lon="6.56369">
        <ele>2111.5</ele>
        <time>2026-02-02T14:27:56Z</time>
      </trkpt>
      <trkpt lat="45.98487" lon="6.5637">
        <ele>2113.8</ele>
        <time>2026-02-02T14:27:57Z</time>
      </trkpt>
      <trkpt lat="45.98487" lon="6.56371">
        <ele>2113.8</ele>
        <time>2026-02-02T14:27:58Z</time>
      </trkpt>
      <trkpt lat="45.98486" lon="6.56371">
        <ele>2113.8</ele>
        <time>2026-02-02T14:27:59Z</time>
      </trkpt>
      <trkpt lat="45.98486" lon="6.56372">
        <ele>2114.1</ele>
        <time>2026-02-02T14:28:00Z</time>
      </trkpt>
      <trkpt lat="45.98486" lon="6.56372">
        <ele>2114.1</ele>
        <time>2026-02-02T14:28:01Z</time>
      </trkpt>
      <trkpt lat="45.98485" lon="6.56372">
        <ele>2114.1</ele>
        <time>2026-02-02T14:28:02Z</time>
      </trkpt>
      <trkpt lat="45.98485" lon="6.56372">
        <ele>2114.1</ele>
        <time>2026-02-02T14:28:03Z</time>
      </trkpt>
      <trkpt lat="45.98485" lon="6.56372">
        <ele>2114.1</ele>
        <time>2026-02-02T14:28:04Z</time>
      </trkpt>
      <trkpt lat="45.98485" lon="6.56372">
        <ele>2114.1</ele>
        <time>2026-02-02T14:28:05Z</time>
      </trkpt>
      <trkpt lat="45.98485" lon="6.56373">
        <ele>2114.1</ele>
        <time>2026-02-02T14:28:06Z</time>
      </trkpt>
      <trkpt lat="45.98484" lon="6.56373">
        <ele>2114.1</ele>
        <time>2026-02-02T14:28:07Z</time>
      </trkpt>
      <trkpt lat="45.98484" lon="6.56373">
        <ele>2114.1</ele>
        <time>2026-02-02T14:28:08Z</time>
      </trkpt>
      <trkpt lat="45.98484" lon="6.56373">
        <ele>2116.4</ele>
        <time>2026-02-02T14:28:09Z</time>
      </trkpt>
      <trkpt lat="45.98484" lon="6.56373">
        <ele>2116.4</ele>
        <time>2026-02-02T14:28:10Z</time>
      </trkpt>
      <trkpt lat="45.98484" lon="6.56373">
        <ele>2116.4</ele>
        <time>2026-02-02T14:28:11Z</time>
      </trkpt>
      <trkpt lat="45.98484" lon="6.56374">
        <ele>2116.4</ele>
        <time>2026-02-02T14:28:12Z</time>
      </trkpt>
      <trkpt lat="45.98483" lon="6.56374">
        <ele>2116.7</ele>
        <time>2026-02-02T14:28:13Z</time>
      </trkpt>
      <trkpt lat="45.98481" lon="6.56375">
        <ele>2116.7</ele>
        <time>2026-02-02T14:28:14Z</time>
      </trkpt>
      <trkpt lat="45.9848" lon="6.56375">
        <ele>2116.7</ele>
        <time>2026-02-02T14:28:15Z</time>
      </trkpt>
      <trkpt lat="45.9848" lon="6.56375">
        <ele>2116.7</ele>
        <time>2026-02-02T14:28:16Z</time>
      </trkpt>
      <trkpt lat="45.98479" lon="6.56376">
        <ele>2116.9</ele>
        <time>2026-02-02T14:28:17Z</time>
      </trkpt>
      <trkpt lat="45.98478" lon="6.56376">
        <ele>2116.9</ele>
        <time>2026-02-02T14:28:18Z</time>
      </trkpt>
      <trkpt lat="45.98477" lon="6.56377">
        <ele>2116.9</ele>
        <time>2026-02-02T14:28:19Z</time>
      </trkpt>
      <trkpt lat="45.98477" lon="6.56377">
        <ele>2117.1</ele>
        <time>2026-02-02T14:28:20Z</time>
      </trkpt>
      <trkpt lat="45.98476" lon="6.56378">
        <ele>2119.4</ele>
        <time>2026-02-02T14:28:21Z</time>
      </trkpt>
      <trkpt lat="45.98475" lon="6.56378">
        <ele>2119.4</ele>
        <time>2026-02-02T14:28:22Z</time>
      </trkpt>
      <trkpt lat="45.98474" lon="6.56379">
        <ele>2119.4</ele>
        <time>2026-02-02T14:28:23Z</time>
      </trkpt>
      <trkpt lat="45.98474" lon="6.56379">
        <ele>2119.6</ele>
        <time>2026-02-02T14:28:24Z</time>
      </trkpt>
      <trkpt lat="45.98473" lon="6.5638">
        <ele>2119.6</ele>
        <time>2026-02-02T14:28:25Z</time>
      </trkpt>
      <trkpt lat="45.98472" lon="6.5638">
        <ele>2119.6</ele>
        <time>2026-02-02T14:28:26Z</time>
      </trkpt>
      <trkpt lat="45.98471" lon="6.56381">
        <ele>2119.6</ele>
        <time>2026-02-02T14:28:27Z</time>
      </trkpt>
      <trkpt lat="45.98471" lon="6.56381">
        <ele>2119.7</ele>
        <time>2026-02-02T14:28:28Z</time>
      </trkpt>
      <trkpt lat="45.9847" lon="6.56382">
        <ele>2121.9</ele>
        <time>2026-02-02T14:28:29Z</time>
      </trkpt>
      <trkpt lat="45.98469" lon="6.56382">
        <ele>2121.9</ele>
        <time>2026-02-02T14:28:30Z</time>
      </trkpt>
      <trkpt lat="45.98469" lon="6.56383">
        <ele>2121.9</ele>
        <time>2026-02-02T14:28:31Z</time>
      </trkpt>
      <trkpt lat="45.98468" lon="6.56383">
        <ele>2122</ele>
        <time>2026-02-02T14:28:32Z</time>
      </trkpt>
      <trkpt lat="45.98467" lon="6.56384">
        <ele>2122</ele>
        <time>2026-02-02T14:28:33Z</time>
      </trkpt>
      <trkpt lat="45.98466" lon="6.56384">
        <ele>2122</ele>
        <time>2026-02-02T14:28:34Z</time>
      </trkpt>
      <trkpt lat="45.98466" lon="6.56384">
        <ele>2122</ele>
        <time>2026-02-02T14:28:35Z</time>
      </trkpt>
      <trkpt lat="45.98466" lon="6.56384">
        <ele>2122</ele>
        <time>2026-02-02T14:28:36Z</time>
      </trkpt>
      <trkpt lat="45.98467" lon="6.56383">
        <ele>2122</ele>
        <time>2026-02-02T14:28:37Z</time>
      </trkpt>
      <trkpt lat="45.98467" lon="6.56383">
        <ele>2122</ele>
        <time>2026-02-02T14:28:38Z</time>
      </trkpt>
      <trkpt lat="45.98467" lon="6.56383">
        <ele>2122</ele>
        <time>2026-02-02T14:28:39Z</time>
      </trkpt>
      <trkpt lat="45.98467" lon="6.56383">
        <ele>2122</ele>
        <time>2026-02-02T14:28:40Z</time>
      </trkpt>
      <trkpt lat="45.98467" lon="6.56383">
        <ele>2122</ele>
        <time>2026-02-02T14:28:41Z</time>
      </trkpt>
      <trkpt lat="45.98467" lon="6.56383">
        <ele>2122</ele>
        <time>2026-02-02T14:28:42Z</time>
      </trkpt>
      <trkpt lat="45.98467" lon="6.56383">
        <ele>2122</ele>
        <time>2026-02-02T14:28:43Z</time>
      </trkpt>
      <trkpt lat="45.98467" lon="6.56383">
        <ele>2122</ele>
        <time>2026-02-02T14:28:44Z</time>
      </trkpt>
      <trkpt lat="45.98467" lon="6.56384">
        <ele>2122</ele>
        <time>2026-02-02T14:28:45Z</time>
      </trkpt>
      <trkpt lat="45.98466" lon="6.56384">
        <ele>2122</ele>
        <time>2026-02-02T14:28:46Z</time>
      </trkpt>
      <trkpt lat="45.98466" lon="6.56385">
        <ele>2122</ele>
        <time>2026-02-02T14:28:47Z</time>
      </trkpt>
      <trkpt lat="45.98465" lon="6.56386">
        <ele>2122</ele>
        <time>2026-02-02T14:28:48Z</time>
      </trkpt>
      <trkpt lat="45.98464" lon="6.56387">
        <ele>2124.2</ele>
        <time>2026-02-02T14:28:49Z</time>
      </trkpt>
      <trkpt lat="45.98463" lon="6.56388">
        <ele>2124.2</ele>
        <time>2026-02-02T14:28:50Z</time>
      </trkpt>
      <trkpt lat="45.98462" lon="6.56389">
        <ele>2124.2</ele>
        <time>2026-02-02T14:28:51Z</time>
      </trkpt>
      <trkpt lat="45.98462" lon="6.56389">
        <ele>2124.2</ele>
        <time>2026-02-02T14:28:52Z</time>
      </trkpt>
      <trkpt lat="45.98461" lon="6.56389">
        <ele>2124.2</ele>
        <time>2026-02-02T14:28:53Z</time>
      </trkpt>
      <trkpt lat="45.98461" lon="6.5639">
        <ele>2124.2</ele>
        <time>2026-02-02T14:28:54Z</time>
      </trkpt>
      <trkpt lat="45.9846" lon="6.56391">
        <ele>2126.3</ele>
        <time>2026-02-02T14:28:55Z</time>
      </trkpt>
      <trkpt lat="45.98459" lon="6.56391">
        <ele>2126.3</ele>
        <time>2026-02-02T14:28:56Z</time>
      </trkpt>
      <trkpt lat="45.98459" lon="6.56392">
        <ele>2126.3</ele>
        <time>2026-02-02T14:28:57Z</time>
      </trkpt>
      <trkpt lat="45.98458" lon="6.56392">
        <ele>2126.3</ele>
        <time>2026-02-02T14:28:58Z</time>
      </trkpt>
      <trkpt lat="45.98457" lon="6.56393">
        <ele>2126.3</ele>
        <time>2026-02-02T14:28:59Z</time>
      </trkpt>
      <trkpt lat="45.98457" lon="6.56394">
        <ele>2126.3</ele>
        <time>2026-02-02T14:29:00Z</time>
      </trkpt>
      <trkpt lat="45.98456" lon="6.56394">
        <ele>2126.3</ele>
        <time>2026-02-02T14:29:01Z</time>
      </trkpt>
      <trkpt lat="45.98455" lon="6.56395">
        <ele>2128.2</ele>
        <time>2026-02-02T14:29:02Z</time>
      </trkpt>
      <trkpt lat="45.98454" lon="6.56395">
        <ele>2128.2</ele>
        <time>2026-02-02T14:29:03Z</time>
      </trkpt>
      <trkpt lat="45.98454" lon="6.56396">
        <ele>2128.2</ele>
        <time>2026-02-02T14:29:04Z</time>
      </trkpt>
      <trkpt lat="45.98453" lon="6.56397">
        <ele>2128.1</ele>
        <time>2026-02-02T14:29:05Z</time>
      </trkpt>
      <trkpt lat="45.98452" lon="6.56397">
        <ele>2128.1</ele>
        <time>2026-02-02T14:29:06Z</time>
      </trkpt>
      <trkpt lat="45.98451" lon="6.56397">
        <ele>2128.1</ele>
        <time>2026-02-02T14:29:07Z</time>
      </trkpt>
      <trkpt lat="45.9845" lon="6.56398">
        <ele>2128.1</ele>
        <time>2026-02-02T14:29:08Z</time>
      </trkpt>
      <trkpt lat="45.98449" lon="6.56399">
        <ele>2127.9</ele>
        <time>2026-02-02T14:29:09Z</time>
      </trkpt>
      <trkpt lat="45.98449" lon="6.56399">
        <ele>2130</ele>
        <time>2026-02-02T14:29:10Z</time>
      </trkpt>
      <trkpt lat="45.98449" lon="6.56399">
        <ele>2130</ele>
        <time>2026-02-02T14:29:11Z</time>
      </trkpt>
      <trkpt lat="45.98449" lon="6.56399">
        <ele>2130</ele>
        <time>2026-02-02T14:29:12Z</time>
      </trkpt>
      <trkpt lat="45.9845" lon="6.56399">
        <ele>2130</ele>
        <time>2026-02-02T14:29:13Z</time>
      </trkpt>
      <trkpt lat="45.9845" lon="6.56399">
        <ele>2130</ele>
        <time>2026-02-02T14:29:14Z</time>
      </trkpt>
      <trkpt lat="45.9845" lon="6.56399">
        <ele>2130.2</ele>
        <time>2026-02-02T14:29:15Z</time>
      </trkpt>
      <trkpt lat="45.9845" lon="6.56399">
        <ele>2130.2</ele>
        <time>2026-02-02T14:29:16Z</time>
      </trkpt>
      <trkpt lat="45.9845" lon="6.56399">
        <ele>2130.2</ele>
        <time>2026-02-02T14:29:17Z</time>
      </trkpt>
      <trkpt lat="45.9845" lon="6.56399">
        <ele>2130</ele>
        <time>2026-02-02T14:29:18Z</time>
      </trkpt>
      <trkpt lat="45.98449" lon="6.56399">
        <ele>2127.9</ele>
        <time>2026-02-02T14:29:19Z</time>
      </trkpt>
      <trkpt lat="45.98449" lon="6.56399">
        <ele>2127.9</ele>
        <time>2026-02-02T14:29:20Z</time>
      </trkpt>
      <trkpt lat="45.98448" lon="6.56399">
        <ele>2127.9</ele>
        <time>2026-02-02T14:29:21Z</time>
      </trkpt>
      <trkpt lat="45.98447" lon="6.56399">
        <ele>2129.8</ele>
        <time>2026-02-02T14:29:22Z</time>
      </trkpt>
      <trkpt lat="45.98445" lon="6.564">
        <ele>2129.8</ele>
        <time>2026-02-02T14:29:23Z</time>
      </trkpt>
      <trkpt lat="45.98443" lon="6.56401">
        <ele>2129.5</ele>
        <time>2026-02-02T14:29:24Z</time>
      </trkpt>
      <trkpt lat="45.98442" lon="6.56402">
        <ele>2129.5</ele>
        <time>2026-02-02T14:29:25Z</time>
      </trkpt>
      <trkpt lat="45.98441" lon="6.56402">
        <ele>2129.5</ele>
        <time>2026-02-02T14:29:26Z</time>
      </trkpt>
      <trkpt lat="45.98441" lon="6.56403">
        <ele>2129.1</ele>
        <time>2026-02-02T14:29:27Z</time>
      </trkpt>
      <trkpt lat="45.9844" lon="6.56403">
        <ele>2131.4</ele>
        <time>2026-02-02T14:29:28Z</time>
      </trkpt>
      <trkpt lat="45.9844" lon="6.56404">
        <ele>2131.4</ele>
        <time>2026-02-02T14:29:29Z</time>
      </trkpt>
      <trkpt lat="45.98439" lon="6.56405">
        <ele>2131.4</ele>
        <time>2026-02-02T14:29:30Z</time>
      </trkpt>
      <trkpt lat="45.98439" lon="6.56406">
        <ele>2131.4</ele>
        <time>2026-02-02T14:29:31Z</time>
      </trkpt>
      <trkpt lat="45.98439" lon="6.56407">
        <ele>2131.4</ele>
        <time>2026-02-02T14:29:32Z</time>
      </trkpt>
      <trkpt lat="45.98438" lon="6.56408">
        <ele>2133.7</ele>
        <time>2026-02-02T14:29:33Z</time>
      </trkpt>
      <trkpt lat="45.98438" lon="6.56408">
        <ele>2133.4</ele>
        <time>2026-02-02T14:29:34Z</time>
      </trkpt>
      <trkpt lat="45.98437" lon="6.56409">
        <ele>2133.4</ele>
        <time>2026-02-02T14:29:35Z</time>
      </trkpt>
      <trkpt lat="45.98437" lon="6.5641">
        <ele>2133.4</ele>
        <time>2026-02-02T14:29:36Z</time>
      </trkpt>
      <trkpt lat="45.98436" lon="6.56412">
        <ele>2133.4</ele>
        <time>2026-02-02T14:29:37Z</time>
      </trkpt>
      <trkpt lat="45.98436" lon="6.56413">
        <ele>2135.8</ele>
        <time>2026-02-02T14:29:38Z</time>
      </trkpt>
      <trkpt lat="45.98435" lon="6.56414">
        <ele>2135.8</ele>
        <time>2026-02-02T14:29:39Z</time>
      </trkpt>
      <trkpt lat="45.98435" lon="6.56415">
        <ele>2135.5</ele>
        <time>2026-02-02T14:29:40Z</time>
      </trkpt>
      <trkpt lat="45.98434" lon="6.56415">
        <ele>2135.5</ele>
        <time>2026-02-02T14:29:41Z</time>
      </trkpt>
      <trkpt lat="45.98434" lon="6.56415">
        <ele>2135.5</ele>
        <time>2026-02-02T14:29:42Z</time>
      </trkpt>
      <trkpt lat="45.98434" lon="6.56415">
        <ele>2135.5</ele>
        <time>2026-02-02T14:29:43Z</time>
      </trkpt>
      <trkpt lat="45.98435" lon="6.56415">
        <ele>2135.5</ele>
        <time>2026-02-02T14:29:44Z</time>
      </trkpt>
      <trkpt lat="45.98435" lon="6.56415">
        <ele>2135.5</ele>
        <time>2026-02-02T14:29:45Z</time>
      </trkpt>
      <trkpt lat="45.98435" lon="6.56415">
        <ele>2135.8</ele>
        <time>2026-02-02T14:29:46Z</time>
      </trkpt>
      <trkpt lat="45.98435" lon="6.56415">
        <ele>2135.8</ele>
        <time>2026-02-02T14:29:47Z</time>
      </trkpt>
      <trkpt lat="45.98435" lon="6.56414">
        <ele>2135.8</ele>
        <time>2026-02-02T14:29:48Z</time>
      </trkpt>
      <trkpt lat="45.98436" lon="6.56414">
        <ele>2135.8</ele>
        <time>2026-02-02T14:29:49Z</time>
      </trkpt>
      <trkpt lat="45.98436" lon="6.56414">
        <ele>2135.8</ele>
        <time>2026-02-02T14:29:50Z</time>
      </trkpt>
      <trkpt lat="45.98436" lon="6.56414">
        <ele>2135.8</ele>
        <time>2026-02-02T14:29:51Z</time>
      </trkpt>
      <trkpt lat="45.98436" lon="6.56414">
        <ele>2135.8</ele>
        <time>2026-02-02T14:29:52Z</time>
      </trkpt>
      <trkpt lat="45.98436" lon="6.56414">
        <ele>2135.8</ele>
        <time>2026-02-02T14:29:53Z</time>
      </trkpt>
      <trkpt lat="45.98435" lon="6.56414">
        <ele>2135.8</ele>
        <time>2026-02-02T14:29:54Z</time>
      </trkpt>
      <trkpt lat="45.98435" lon="6.56415">
        <ele>2135.8</ele>
        <time>2026-02-02T14:29:55Z</time>
      </trkpt>
      <trkpt lat="45.98435" lon="6.56415">
        <ele>2135.5</ele>
        <time>2026-02-02T14:29:56Z</time>
      </trkpt>
      <trkpt lat="45.98434" lon="6.56416">
        <ele>2137.9</ele>
        <time>2026-02-02T14:29:57Z</time>
      </trkpt>
      <trkpt lat="45.98433" lon="6.56418">
        <ele>2137.9</ele>
        <time>2026-02-02T14:29:58Z</time>
      </trkpt>
      <trkpt lat="45.98432" lon="6.56419">
        <ele>2137.9</ele>
        <time>2026-02-02T14:29:59Z</time>
      </trkpt>
      <trkpt lat="45.98432" lon="6.5642">
        <ele>2137.6</ele>
        <time>2026-02-02T14:30:00Z</time>
      </trkpt>
      <trkpt lat="45.98431" lon="6.56421">
        <ele>2139.9</ele>
        <time>2026-02-02T14:30:01Z</time>
      </trkpt>
      <trkpt lat="45.9843" lon="6.56421">
        <ele>2139.9</ele>
        <time>2026-02-02T14:30:02Z</time>
      </trkpt>
      <trkpt lat="45.9843" lon="6.56422">
        <ele>2139.9</ele>
        <time>2026-02-02T14:30:03Z</time>
      </trkpt>
      <trkpt lat="45.98429" lon="6.56423">
        <ele>2139.5</ele>
        <time>2026-02-02T14:30:04Z</time>
      </trkpt>
      <trkpt lat="45.98428" lon="6.56424">
        <ele>2139.5</ele>
        <time>2026-02-02T14:30:05Z</time>
      </trkpt>
      <trkpt lat="45.98427" lon="6.56425">
        <ele>2139.5</ele>
        <time>2026-02-02T14:30:06Z</time>
      </trkpt>
      <trkpt lat="45.98427" lon="6.56425">
        <ele>2141.6</ele>
        <time>2026-02-02T14:30:07Z</time>
      </trkpt>
      <trkpt lat="45.98426" lon="6.56426">
        <ele>2141.6</ele>
        <time>2026-02-02T14:30:08Z</time>
      </trkpt>
      <trkpt lat="45.98426" lon="6.56427">
        <ele>2141.2</ele>
        <time>2026-02-02T14:30:09Z</time>
      </trkpt>
      <trkpt lat="45.98425" lon="6.56427">
        <ele>2141.2</ele>
        <time>2026-02-02T14:30:10Z</time>
      </trkpt>
      <trkpt lat="45.98424" lon="6.56428">
        <ele>2141.2</ele>
        <time>2026-02-02T14:30:11Z</time>
      </trkpt>
      <trkpt lat="45.98424" lon="6.56429">
        <ele>2141.2</ele>
        <time>2026-02-02T14:30:12Z</time>
      </trkpt>
      <trkpt lat="45.98424" lon="6.56429">
        <ele>2141.2</ele>
        <time>2026-02-02T14:30:13Z</time>
      </trkpt>
      <trkpt lat="45.98424" lon="6.56429">
        <ele>2143.2</ele>
        <time>2026-02-02T14:30:14Z</time>
      </trkpt>
      <trkpt lat="45.98424" lon="6.56429">
        <ele>2143.2</ele>
        <time>2026-02-02T14:30:15Z</time>
      </trkpt>
      <trkpt lat="45.98423" lon="6.5643">
        <ele>2143.2</ele>
        <time>2026-02-02T14:30:16Z</time>
      </trkpt>
      <trkpt lat="45.98423" lon="6.5643">
        <ele>2143.2</ele>
        <time>2026-02-02T14:30:17Z</time>
      </trkpt>
      <trkpt lat="45.98423" lon="6.5643">
        <ele>2142.7</ele>
        <time>2026-02-02T14:30:18Z</time>
      </trkpt>
      <trkpt lat="45.98423" lon="6.5643">
        <ele>2142.7</ele>
        <time>2026-02-02T14:30:19Z</time>
      </trkpt>
      <trkpt lat="45.98422" lon="6.56431">
        <ele>2142.7</ele>
        <time>2026-02-02T14:30:20Z</time>
      </trkpt>
      <trkpt lat="45.98422" lon="6.56431">
        <ele>2142.7</ele>
        <time>2026-02-02T14:30:21Z</time>
      </trkpt>
      <trkpt lat="45.98422" lon="6.56431">
        <ele>2142.7</ele>
        <time>2026-02-02T14:30:22Z</time>
      </trkpt>
      <trkpt lat="45.98422" lon="6.56432">
        <ele>2142.7</ele>
        <time>2026-02-02T14:30:23Z</time>
      </trkpt>
      <trkpt lat="45.98422" lon="6.56432">
        <ele>2142.7</ele>
        <time>2026-02-02T14:30:24Z</time>
      </trkpt>
      <trkpt lat="45.98421" lon="6.56433">
        <ele>2142.7</ele>
        <time>2026-02-02T14:30:25Z</time>
      </trkpt>
      <trkpt lat="45.9842" lon="6.56434">
        <ele>2144</ele>
        <time>2026-02-02T14:30:26Z</time>
      </trkpt>
      <trkpt lat="45.98419" lon="6.56435">
        <ele>2144</ele>
        <time>2026-02-02T14:30:27Z</time>
      </trkpt>
      <trkpt lat="45.98418" lon="6.56436">
        <ele>2144</ele>
        <time>2026-02-02T14:30:28Z</time>
      </trkpt>
      <trkpt lat="45.98418" lon="6.56437">
        <ele>2144</ele>
        <time>2026-02-02T14:30:29Z</time>
      </trkpt>
      <trkpt lat="45.98417" lon="6.56438">
        <ele>2145.8</ele>
        <time>2026-02-02T14:30:30Z</time>
      </trkpt>
      <trkpt lat="45.98417" lon="6.56438">
        <ele>2145.2</ele>
        <time>2026-02-02T14:30:31Z</time>
      </trkpt>
      <trkpt lat="45.98416" lon="6.56439">
        <ele>2145.2</ele>
        <time>2026-02-02T14:30:32Z</time>
      </trkpt>
      <trkpt lat="45.98416" lon="6.5644">
        <ele>2145.2</ele>
        <time>2026-02-02T14:30:33Z</time>
      </trkpt>
      <trkpt lat="45.98416" lon="6.5644">
        <ele>2145.2</ele>
        <time>2026-02-02T14:30:34Z</time>
      </trkpt>
      <trkpt lat="45.98416" lon="6.56439">
        <ele>2145.2</ele>
        <time>2026-02-02T14:30:35Z</time>
      </trkpt>
      <trkpt lat="45.98416" lon="6.56439">
        <ele>2145.2</ele>
        <time>2026-02-02T14:30:36Z</time>
      </trkpt>
      <trkpt lat="45.98416" lon="6.56438">
        <ele>2145.2</ele>
        <time>2026-02-02T14:30:37Z</time>
      </trkpt>
      <trkpt lat="45.98417" lon="6.56438">
        <ele>2145.2</ele>
        <time>2026-02-02T14:30:38Z</time>
      </trkpt>
      <trkpt lat="45.98417" lon="6.56438">
        <ele>2145.2</ele>
        <time>2026-02-02T14:30:39Z</time>
      </trkpt>
      <trkpt lat="45.98417" lon="6.56438">
        <ele>2145.2</ele>
        <time>2026-02-02T14:30:40Z</time>
      </trkpt>
      <trkpt lat="45.98417" lon="6.56438">
        <ele>2145.2</ele>
        <time>2026-02-02T14:30:41Z</time>
      </trkpt>
      <trkpt lat="45.98417" lon="6.56438">
        <ele>2145.2</ele>
        <time>2026-02-02T14:30:42Z</time>
      </trkpt>
      <trkpt lat="45.98417" lon="6.56438">
        <ele>2145.2</ele>
        <time>2026-02-02T14:30:43Z</time>
      </trkpt>
      <trkpt lat="45.98417" lon="6.56438">
        <ele>2145.2</ele>
        <time>2026-02-02T14:30:44Z</time>
      </trkpt>
      <trkpt lat="45.98417" lon="6.56438">
        <ele>2145.2</ele>
        <time>2026-02-02T14:30:45Z</time>
      </trkpt>
      <trkpt lat="45.98417" lon="6.56438">
        <ele>2145.2</ele>
        <time>2026-02-02T14:30:46Z</time>
      </trkpt>
      <trkpt lat="45.98417" lon="6.56437">
        <ele>2145.8</ele>
        <time>2026-02-02T14:30:47Z</time>
      </trkpt>
      <trkpt lat="45.98417" lon="6.56437">
        <ele>2145.2</ele>
        <time>2026-02-02T14:30:48Z</time>
      </trkpt>
      <trkpt lat="45.98417" lon="6.56438">
        <ele>2145.2</ele>
        <time>2026-02-02T14:30:49Z</time>
      </trkpt>
      <trkpt lat="45.98417" lon="6.56438">
        <ele>2145.2</ele>
        <time>2026-02-02T14:30:50Z</time>
      </trkpt>
      <trkpt lat="45.98416" lon="6.56438">
        <ele>2145.2</ele>
        <time>2026-02-02T14:30:51Z</time>
      </trkpt>
      <trkpt lat="45.98415" lon="6.56439">
        <ele>2145.2</ele>
        <time>2026-02-02T14:30:52Z</time>
      </trkpt>
      <trkpt lat="45.98414" lon="6.56441">
        <ele>2145.2</ele>
        <time>2026-02-02T14:30:53Z</time>
      </trkpt>
      <trkpt lat="45.98414" lon="6.56442">
        <ele>2146.4</ele>
        <time>2026-02-02T14:30:54Z</time>
      </trkpt>
      <trkpt lat="45.98413" lon="6.56443">
        <ele>2146.4</ele>
        <time>2026-02-02T14:30:55Z</time>
      </trkpt>
      <trkpt lat="45.98412" lon="6.56444">
        <ele>2146.4</ele>
        <time>2026-02-02T14:30:56Z</time>
      </trkpt>
      <trkpt lat="45.98411" lon="6.56445">
        <ele>2146.4</ele>
        <time>2026-02-02T14:30:57Z</time>
      </trkpt>
      <trkpt lat="45.98411" lon="6.56445">
        <ele>2145.7</ele>
        <time>2026-02-02T14:30:58Z</time>
      </trkpt>
      <trkpt lat="45.98411" lon="6.56446">
        <ele>2147.5</ele>
        <time>2026-02-02T14:30:59Z</time>
      </trkpt>
      <trkpt lat="45.9841" lon="6.56447">
        <ele>2147.5</ele>
        <time>2026-02-02T14:31:00Z</time>
      </trkpt>
      <trkpt lat="45.9841" lon="6.56448">
        <ele>2147.5</ele>
        <time>2026-02-02T14:31:01Z</time>
      </trkpt>
      <trkpt lat="45.98409" lon="6.56449">
        <ele>2147.5</ele>
        <time>2026-02-02T14:31:02Z</time>
      </trkpt>
      <trkpt lat="45.98409" lon="6.5645">
        <ele>2147.5</ele>
        <time>2026-02-02T14:31:03Z</time>
      </trkpt>
      <trkpt lat="45.98408" lon="6.56451">
        <ele>2149.4</ele>
        <time>2026-02-02T14:31:04Z</time>
      </trkpt>
      <trkpt lat="45.98408" lon="6.56452">
        <ele>2148.7</ele>
        <time>2026-02-02T14:31:05Z</time>
      </trkpt>
      <trkpt lat="45.98407" lon="6.56453">
        <ele>2148.7</ele>
        <time>2026-02-02T14:31:06Z</time>
      </trkpt>
      <trkpt lat="45.98407" lon="6.56454">
        <ele>2148.7</ele>
        <time>2026-02-02T14:31:07Z</time>
      </trkpt>
      <trkpt lat="45.98406" lon="6.56455">
        <ele>2148.7</ele>
        <time>2026-02-02T14:31:08Z</time>
      </trkpt>
      <trkpt lat="45.98405" lon="6.56456">
        <ele>2149.8</ele>
        <time>2026-02-02T14:31:09Z</time>
      </trkpt>
      <trkpt lat="45.98405" lon="6.56457">
        <ele>2149.8</ele>
        <time>2026-02-02T14:31:10Z</time>
      </trkpt>
      <trkpt lat="45.98404" lon="6.56458">
        <ele>2149.8</ele>
        <time>2026-02-02T14:31:11Z</time>
      </trkpt>
      <trkpt lat="45.98404" lon="6.56458">
        <ele>2149.8</ele>
        <time>2026-02-02T14:31:12Z</time>
      </trkpt>
      <trkpt lat="45.98403" lon="6.56459">
        <ele>2151.7</ele>
        <time>2026-02-02T14:31:13Z</time>
      </trkpt>
      <trkpt lat="45.98403" lon="6.56459">
        <ele>2151.7</ele>
        <time>2026-02-02T14:31:14Z</time>
      </trkpt>
      <trkpt lat="45.98403" lon="6.5646">
        <ele>2151.7</ele>
        <time>2026-02-02T14:31:15Z</time>
      </trkpt>
      <trkpt lat="45.98403" lon="6.56459">
        <ele>2151.7</ele>
        <time>2026-02-02T14:31:16Z</time>
      </trkpt>
      <trkpt lat="45.98404" lon="6.56459">
        <ele>2151.7</ele>
        <time>2026-02-02T14:31:17Z</time>
      </trkpt>
      <trkpt lat="45.98404" lon="6.56459">
        <ele>2149.8</ele>
        <time>2026-02-02T14:31:18Z</time>
      </trkpt>
      <trkpt lat="45.98405" lon="6.56459">
        <ele>2149.8</ele>
        <time>2026-02-02T14:31:19Z</time>
      </trkpt>
      <trkpt lat="45.98405" lon="6.56459">
        <ele>2149.8</ele>
        <time>2026-02-02T14:31:20Z</time>
      </trkpt>
      <trkpt lat="45.98405" lon="6.56459">
        <ele>2149.8</ele>
        <time>2026-02-02T14:31:21Z</time>
      </trkpt>
      <trkpt lat="45.98405" lon="6.56459">
        <ele>2149.8</ele>
        <time>2026-02-02T14:31:22Z</time>
      </trkpt>
      <trkpt lat="45.98405" lon="6.56459">
        <ele>2149.8</ele>
        <time>2026-02-02T14:31:23Z</time>
      </trkpt>
      <trkpt lat="45.98405" lon="6.56459">
        <ele>2149.8</ele>
        <time>2026-02-02T14:31:24Z</time>
      </trkpt>
      <trkpt lat="45.98405" lon="6.56459">
        <ele>2149.8</ele>
        <time>2026-02-02T14:31:25Z</time>
      </trkpt>
      <trkpt lat="45.98404" lon="6.56459">
        <ele>2149.8</ele>
        <time>2026-02-02T14:31:27Z</time>
      </trkpt>
      <trkpt lat="45.98404" lon="6.56459">
        <ele>2151.7</ele>
        <time>2026-02-02T14:31:28Z</time>
      </trkpt>
      <trkpt lat="45.98403" lon="6.56461">
        <ele>2151.7</ele>
        <time>2026-02-02T14:31:29Z</time>
      </trkpt>
      <trkpt lat="45.98403" lon="6.56463">
        <ele>2151.7</ele>
        <time>2026-02-02T14:31:30Z</time>
      </trkpt>
      <trkpt lat="45.98402" lon="6.56464">
        <ele>2152.8</ele>
        <time>2026-02-02T14:31:31Z</time>
      </trkpt>
      <trkpt lat="45.98401" lon="6.56465">
        <ele>2152.8</ele>
        <time>2026-02-02T14:31:32Z</time>
      </trkpt>
      <trkpt lat="45.98401" lon="6.56466">
        <ele>2152.8</ele>
        <time>2026-02-02T14:31:33Z</time>
      </trkpt>
      <trkpt lat="45.984" lon="6.56467">
        <ele>2152.8</ele>
        <time>2026-02-02T14:31:34Z</time>
      </trkpt>
      <trkpt lat="45.984" lon="6.56469">
        <ele>2154.5</ele>
        <time>2026-02-02T14:31:35Z</time>
      </trkpt>
      <trkpt lat="45.98399" lon="6.5647">
        <ele>2153.8</ele>
        <time>2026-02-02T14:31:36Z</time>
      </trkpt>
      <trkpt lat="45.98399" lon="6.56471">
        <ele>2153.8</ele>
        <time>2026-02-02T14:31:37Z</time>
      </trkpt>
      <trkpt lat="45.98398" lon="6.56472">
        <ele>2155.5</ele>
        <time>2026-02-02T14:31:38Z</time>
      </trkpt>
      <trkpt lat="45.98397" lon="6.56473">
        <ele>2155.5</ele>
        <time>2026-02-02T14:31:39Z</time>
      </trkpt>
      <trkpt lat="45.98397" lon="6.56473">
        <ele>2155.5</ele>
        <time>2026-02-02T14:31:40Z</time>
      </trkpt>
      <trkpt lat="45.98396" lon="6.56474">
        <ele>2154.7</ele>
        <time>2026-02-02T14:31:41Z</time>
      </trkpt>
      <trkpt lat="45.98396" lon="6.56474">
        <ele>2154.7</ele>
        <time>2026-02-02T14:31:42Z</time>
      </trkpt>
      <trkpt lat="45.98396" lon="6.56474">
        <ele>2154.7</ele>
        <time>2026-02-02T14:31:43Z</time>
      </trkpt>
      <trkpt lat="45.98397" lon="6.56473">
        <ele>2155.5</ele>
        <time>2026-02-02T14:31:44Z</time>
      </trkpt>
      <trkpt lat="45.98397" lon="6.56472">
        <ele>2155.5</ele>
        <time>2026-02-02T14:31:45Z</time>
      </trkpt>
      <trkpt lat="45.98397" lon="6.56472">
        <ele>2155.5</ele>
        <time>2026-02-02T14:31:46Z</time>
      </trkpt>
      <trkpt lat="45.98397" lon="6.56472">
        <ele>2153.8</ele>
        <time>2026-02-02T14:31:47Z</time>
      </trkpt>
      <trkpt lat="45.98397" lon="6.56471">
        <ele>2153.8</ele>
        <time>2026-02-02T14:31:48Z</time>
      </trkpt>
      <trkpt lat="45.98397" lon="6.56471">
        <ele>2153.8</ele>
        <time>2026-02-02T14:31:49Z</time>
      </trkpt>
      <trkpt lat="45.98397" lon="6.56471">
        <ele>2153.8</ele>
        <time>2026-02-02T14:31:50Z</time>
      </trkpt>
      <trkpt lat="45.98398" lon="6.56471">
        <ele>2153.8</ele>
        <time>2026-02-02T14:31:51Z</time>
      </trkpt>
      <trkpt lat="45.98398" lon="6.56471">
        <ele>2153.8</ele>
        <time>2026-02-02T14:31:52Z</time>
      </trkpt>
      <trkpt lat="45.98398" lon="6.56471">
        <ele>2153.8</ele>
        <time>2026-02-02T14:31:53Z</time>
      </trkpt>
      <trkpt lat="45.98398" lon="6.56471">
        <ele>2153.8</ele>
        <time>2026-02-02T14:31:54Z</time>
      </trkpt>
      <trkpt lat="45.98398" lon="6.56471">
        <ele>2153.8</ele>
        <time>2026-02-02T14:31:55Z</time>
      </trkpt>
      <trkpt lat="45.98398" lon="6.56471">
        <ele>2153.8</ele>
        <time>2026-02-02T14:31:56Z</time>
      </trkpt>
      <trkpt lat="45.98397" lon="6.56471">
        <ele>2153.8</ele>
        <time>2026-02-02T14:31:57Z</time>
      </trkpt>
      <trkpt lat="45.98397" lon="6.56471">
        <ele>2153.8</ele>
        <time>2026-02-02T14:31:58Z</time>
      </trkpt>
      <trkpt lat="45.98397" lon="6.56472">
        <ele>2153.8</ele>
        <time>2026-02-02T14:31:59Z</time>
      </trkpt>
      <trkpt lat="45.98397" lon="6.56472">
        <ele>2155.5</ele>
        <time>2026-02-02T14:32:00Z</time>
      </trkpt>
      <trkpt lat="45.98396" lon="6.56474">
        <ele>2154.7</ele>
        <time>2026-02-02T14:32:01Z</time>
      </trkpt>
      <trkpt lat="45.98395" lon="6.56476">
        <ele>2156.3</ele>
        <time>2026-02-02T14:32:02Z</time>
      </trkpt>
      <trkpt lat="45.98394" lon="6.56478">
        <ele>2156.3</ele>
        <time>2026-02-02T14:32:03Z</time>
      </trkpt>
      <trkpt lat="45.98393" lon="6.56479">
        <ele>2155.5</ele>
        <time>2026-02-02T14:32:04Z</time>
      </trkpt>
      <trkpt lat="45.98392" lon="6.5648">
        <ele>2155.5</ele>
        <time>2026-02-02T14:32:05Z</time>
      </trkpt>
      <trkpt lat="45.98392" lon="6.56481">
        <ele>2157</ele>
        <time>2026-02-02T14:32:06Z</time>
      </trkpt>
      <trkpt lat="45.98391" lon="6.56481">
        <ele>2157</ele>
        <time>2026-02-02T14:32:07Z</time>
      </trkpt>
      <trkpt lat="45.98391" lon="6.56482">
        <ele>2157</ele>
        <time>2026-02-02T14:32:08Z</time>
      </trkpt>
      <trkpt lat="45.9839" lon="6.56483">
        <ele>2156.2</ele>
        <time>2026-02-02T14:32:09Z</time>
      </trkpt>
      <trkpt lat="45.9839" lon="6.56484">
        <ele>2156.2</ele>
        <time>2026-02-02T14:32:10Z</time>
      </trkpt>
      <trkpt lat="45.98389" lon="6.56484">
        <ele>2156.2</ele>
        <time>2026-02-02T14:32:11Z</time>
      </trkpt>
      <trkpt lat="45.98388" lon="6.56485">
        <ele>2157.7</ele>
        <time>2026-02-02T14:32:12Z</time>
      </trkpt>
      <trkpt lat="45.98388" lon="6.56486">
        <ele>2157.7</ele>
        <time>2026-02-02T14:32:13Z</time>
      </trkpt>
      <trkpt lat="45.98388" lon="6.56486">
        <ele>2157.7</ele>
        <time>2026-02-02T14:32:14Z</time>
      </trkpt>
      <trkpt lat="45.98388" lon="6.56486">
        <ele>2157.7</ele>
        <time>2026-02-02T14:32:15Z</time>
      </trkpt>
      <trkpt lat="45.98388" lon="6.56486">
        <ele>2157.7</ele>
        <time>2026-02-02T14:32:16Z</time>
      </trkpt>
      <trkpt lat="45.98388" lon="6.56486">
        <ele>2157.7</ele>
        <time>2026-02-02T14:32:17Z</time>
      </trkpt>
      <trkpt lat="45.98388" lon="6.56486">
        <ele>2157.7</ele>
        <time>2026-02-02T14:32:18Z</time>
      </trkpt>
      <trkpt lat="45.98388" lon="6.56486">
        <ele>2157.7</ele>
        <time>2026-02-02T14:32:19Z</time>
      </trkpt>
      <trkpt lat="45.98388" lon="6.56485">
        <ele>2157.7</ele>
        <time>2026-02-02T14:32:20Z</time>
      </trkpt>
      <trkpt lat="45.98387" lon="6.56485">
        <ele>2157.7</ele>
        <time>2026-02-02T14:32:21Z</time>
      </trkpt>
      <trkpt lat="45.98387" lon="6.56485">
        <ele>2156.8</ele>
        <time>2026-02-02T14:32:22Z</time>
      </trkpt>
      <trkpt lat="45.98387" lon="6.56485">
        <ele>2156.8</ele>
        <time>2026-02-02T14:32:23Z</time>
      </trkpt>
      <trkpt lat="45.98387" lon="6.56485">
        <ele>2156.8</ele>
        <time>2026-02-02T14:32:24Z</time>
      </trkpt>
      <trkpt lat="45.98386" lon="6.56485">
        <ele>2155.2</ele>
        <time>2026-02-02T14:32:25Z</time>
      </trkpt>
      <trkpt lat="45.98386" lon="6.56485">
        <ele>2155.2</ele>
        <time>2026-02-02T14:32:26Z</time>
      </trkpt>
      <trkpt lat="45.98386" lon="6.56485">
        <ele>2155.2</ele>
        <time>2026-02-02T14:32:27Z</time>
      </trkpt>
      <trkpt lat="45.98386" lon="6.56484">
        <ele>2155.2</ele>
        <time>2026-02-02T14:32:28Z</time>
      </trkpt>
      <trkpt lat="45.98386" lon="6.56484">
        <ele>2155.2</ele>
        <time>2026-02-02T14:32:29Z</time>
      </trkpt>
      <trkpt lat="45.98386" lon="6.56485">
        <ele>2155.2</ele>
        <time>2026-02-02T14:32:30Z</time>
      </trkpt>
      <trkpt lat="45.98386" lon="6.56485">
        <ele>2155.2</ele>
        <time>2026-02-02T14:32:31Z</time>
      </trkpt>
      <trkpt lat="45.98386" lon="6.56485">
        <ele>2156.8</ele>
        <time>2026-02-02T14:32:32Z</time>
      </trkpt>
      <trkpt lat="45.98386" lon="6.56486">
        <ele>2156.8</ele>
        <time>2026-02-02T14:32:33Z</time>
      </trkpt>
      <trkpt lat="45.98385" lon="6.56486">
        <ele>2156.8</ele>
        <time>2026-02-02T14:32:34Z</time>
      </trkpt>
      <trkpt lat="45.98384" lon="6.56488">
        <ele>2156.8</ele>
        <time>2026-02-02T14:32:35Z</time>
      </trkpt>
      <trkpt lat="45.98383" lon="6.56489">
        <ele>2157.4</ele>
        <time>2026-02-02T14:32:36Z</time>
      </trkpt>
      <trkpt lat="45.98382" lon="6.56491">
        <ele>2157.4</ele>
        <time>2026-02-02T14:32:37Z</time>
      </trkpt>
      <trkpt lat="45.98382" lon="6.56493">
        <ele>2157.4</ele>
        <time>2026-02-02T14:32:38Z</time>
      </trkpt>
      <trkpt lat="45.98381" lon="6.56494">
        <ele>2158.1</ele>
        <time>2026-02-02T14:32:39Z</time>
      </trkpt>
      <trkpt lat="45.98381" lon="6.56496">
        <ele>2158.1</ele>
        <time>2026-02-02T14:32:40Z</time>
      </trkpt>
      <trkpt lat="45.9838" lon="6.56497">
        <ele>2158.1</ele>
        <time>2026-02-02T14:32:41Z</time>
      </trkpt>
      <trkpt lat="45.98379" lon="6.56498">
        <ele>2159.7</ele>
        <time>2026-02-02T14:32:42Z</time>
      </trkpt>
      <trkpt lat="45.98379" lon="6.56499">
        <ele>2159.7</ele>
        <time>2026-02-02T14:32:43Z</time>
      </trkpt>
      <trkpt lat="45.98378" lon="6.565">
        <ele>2158.9</ele>
        <time>2026-02-02T14:32:44Z</time>
      </trkpt>
      <trkpt lat="45.98377" lon="6.56501">
        <ele>2158.9</ele>
        <time>2026-02-02T14:32:45Z</time>
      </trkpt>
      <trkpt lat="45.98377" lon="6.56502">
        <ele>2160.5</ele>
        <time>2026-02-02T14:32:46Z</time>
      </trkpt>
      <trkpt lat="45.98377" lon="6.56503">
        <ele>2160.5</ele>
        <time>2026-02-02T14:32:47Z</time>
      </trkpt>
      <trkpt lat="45.98376" lon="6.56504">
        <ele>2160.5</ele>
        <time>2026-02-02T14:32:48Z</time>
      </trkpt>
      <trkpt lat="45.98375" lon="6.56505">
        <ele>2160.5</ele>
        <time>2026-02-02T14:32:49Z</time>
      </trkpt>
      <trkpt lat="45.98375" lon="6.56505">
        <ele>2159.7</ele>
        <time>2026-02-02T14:32:50Z</time>
      </trkpt>
      <trkpt lat="45.98374" lon="6.56506">
        <ele>2161.3</ele>
        <time>2026-02-02T14:32:51Z</time>
      </trkpt>
      <trkpt lat="45.98373" lon="6.56507">
        <ele>2161.3</ele>
        <time>2026-02-02T14:32:52Z</time>
      </trkpt>
      <trkpt lat="45.98373" lon="6.56508">
        <ele>2161.3</ele>
        <time>2026-02-02T14:32:53Z</time>
      </trkpt>
      <trkpt lat="45.98372" lon="6.56509">
        <ele>2160.4</ele>
        <time>2026-02-02T14:32:54Z</time>
      </trkpt>
      <trkpt lat="45.98372" lon="6.5651">
        <ele>2160.4</ele>
        <time>2026-02-02T14:32:55Z</time>
      </trkpt>
      <trkpt lat="45.98371" lon="6.5651">
        <ele>2160.4</ele>
        <time>2026-02-02T14:32:56Z</time>
      </trkpt>
      <trkpt lat="45.98371" lon="6.5651">
        <ele>2160.4</ele>
        <time>2026-02-02T14:32:57Z</time>
      </trkpt>
      <trkpt lat="45.98372" lon="6.56509">
        <ele>2160.4</ele>
        <time>2026-02-02T14:32:58Z</time>
      </trkpt>
      <trkpt lat="45.98372" lon="6.56509">
        <ele>2160.4</ele>
        <time>2026-02-02T14:32:59Z</time>
      </trkpt>
      <trkpt lat="45.98372" lon="6.56508">
        <ele>2160.4</ele>
        <time>2026-02-02T14:33:00Z</time>
      </trkpt>
      <trkpt lat="45.98372" lon="6.56508">
        <ele>2160.4</ele>
        <time>2026-02-02T14:33:01Z</time>
      </trkpt>
      <trkpt lat="45.98372" lon="6.56508">
        <ele>2160.4</ele>
        <time>2026-02-02T14:33:02Z</time>
      </trkpt>
      <trkpt lat="45.98372" lon="6.56508">
        <ele>2160.4</ele>
        <time>2026-02-02T14:33:03Z</time>
      </trkpt>
      <trkpt lat="45.98372" lon="6.56507">
        <ele>2160.4</ele>
        <time>2026-02-02T14:33:04Z</time>
      </trkpt>
      <trkpt lat="45.98372" lon="6.56507">
        <ele>2160.4</ele>
        <time>2026-02-02T14:33:05Z</time>
      </trkpt>
      <trkpt lat="45.98372" lon="6.56507">
        <ele>2161.3</ele>
        <time>2026-02-02T14:33:06Z</time>
      </trkpt>
      <trkpt lat="45.98372" lon="6.56506">
        <ele>2161.3</ele>
        <time>2026-02-02T14:33:07Z</time>
      </trkpt>
      <trkpt lat="45.98372" lon="6.56506">
        <ele>2160.4</ele>
        <time>2026-02-02T14:33:08Z</time>
      </trkpt>
      <trkpt lat="45.98372" lon="6.56506">
        <ele>2160.4</ele>
        <time>2026-02-02T14:33:09Z</time>
      </trkpt>
      <trkpt lat="45.98372" lon="6.56506">
        <ele>2160.4</ele>
        <time>2026-02-02T14:33:10Z</time>
      </trkpt>
      <trkpt lat="45.98372" lon="6.56506">
        <ele>2160.4</ele>
        <time>2026-02-02T14:33:11Z</time>
      </trkpt>
      <trkpt lat="45.98372" lon="6.56506">
        <ele>2160.4</ele>
        <time>2026-02-02T14:33:12Z</time>
      </trkpt>
      <trkpt lat="45.98372" lon="6.56506">
        <ele>2160.4</ele>
        <time>2026-02-02T14:33:13Z</time>
      </trkpt>
      <trkpt lat="45.98371" lon="6.56507">
        <ele>2160.4</ele>
        <time>2026-02-02T14:33:14Z</time>
      </trkpt>
      <trkpt lat="45.98371" lon="6.56507">
        <ele>2160.4</ele>
        <time>2026-02-02T14:33:15Z</time>
      </trkpt>
      <trkpt lat="45.9837" lon="6.56507">
        <ele>2160.4</ele>
        <time>2026-02-02T14:33:16Z</time>
      </trkpt>
      <trkpt lat="45.98369" lon="6.56508">
        <ele>2159.5</ele>
        <time>2026-02-02T14:33:17Z</time>
      </trkpt>
      <trkpt lat="45.98368" lon="6.5651">
        <ele>2159.5</ele>
        <time>2026-02-02T14:33:18Z</time>
      </trkpt>
      <trkpt lat="45.98367" lon="6.56511">
        <ele>2161</ele>
        <time>2026-02-02T14:33:19Z</time>
      </trkpt>
      <trkpt lat="45.98365" lon="6.56513">
        <ele>2160</ele>
        <time>2026-02-02T14:33:20Z</time>
      </trkpt>
      <trkpt lat="45.98364" lon="6.56514">
        <ele>2160</ele>
        <time>2026-02-02T14:33:21Z</time>
      </trkpt>
      <trkpt lat="45.98364" lon="6.56515">
        <ele>2161.4</ele>
        <time>2026-02-02T14:33:22Z</time>
      </trkpt>
      <trkpt lat="45.98363" lon="6.56516">
        <ele>2160.2</ele>
        <time>2026-02-02T14:33:23Z</time>
      </trkpt>
      <trkpt lat="45.98362" lon="6.56517">
        <ele>2160.2</ele>
        <time>2026-02-02T14:33:24Z</time>
      </trkpt>
      <trkpt lat="45.98362" lon="6.56518">
        <ele>2160.2</ele>
        <time>2026-02-02T14:33:25Z</time>
      </trkpt>
      <trkpt lat="45.98361" lon="6.5652">
        <ele>2161.6</ele>
        <time>2026-02-02T14:33:26Z</time>
      </trkpt>
      <trkpt lat="45.9836" lon="6.56521">
        <ele>2160.3</ele>
        <time>2026-02-02T14:33:27Z</time>
      </trkpt>
      <trkpt lat="45.9836" lon="6.56522">
        <ele>2160.3</ele>
        <time>2026-02-02T14:33:28Z</time>
      </trkpt>
      <trkpt lat="45.98359" lon="6.56523">
        <ele>2160.3</ele>
        <time>2026-02-02T14:33:29Z</time>
      </trkpt>
      <trkpt lat="45.98358" lon="6.56524">
        <ele>2161.7</ele>
        <time>2026-02-02T14:33:30Z</time>
      </trkpt>
      <trkpt lat="45.98358" lon="6.56525">
        <ele>2161.7</ele>
        <time>2026-02-02T14:33:31Z</time>
      </trkpt>
      <trkpt lat="45.98358" lon="6.56526">
        <ele>2161.7</ele>
        <time>2026-02-02T14:33:32Z</time>
      </trkpt>
      <trkpt lat="45.98357" lon="6.56527">
        <ele>2160.4</ele>
        <time>2026-02-02T14:33:33Z</time>
      </trkpt>
      <trkpt lat="45.98357" lon="6.56528">
        <ele>2161.7</ele>
        <time>2026-02-02T14:33:34Z</time>
      </trkpt>
      <trkpt lat="45.98357" lon="6.56529">
        <ele>2161.7</ele>
        <time>2026-02-02T14:33:35Z</time>
      </trkpt>
      <trkpt lat="45.98356" lon="6.5653">
        <ele>2161.7</ele>
        <time>2026-02-02T14:33:36Z</time>
      </trkpt>
      <trkpt lat="45.98356" lon="6.56531">
        <ele>2161.7</ele>
        <time>2026-02-02T14:33:37Z</time>
      </trkpt>
      <trkpt lat="45.98355" lon="6.56532">
        <ele>2163</ele>
        <time>2026-02-02T14:33:38Z</time>
      </trkpt>
      <trkpt lat="45.98355" lon="6.56533">
        <ele>2163</ele>
        <time>2026-02-02T14:33:39Z</time>
      </trkpt>
      <trkpt lat="45.98354" lon="6.56535">
        <ele>2161.8</ele>
        <time>2026-02-02T14:33:40Z</time>
      </trkpt>
      <trkpt lat="45.98354" lon="6.56535">
        <ele>2161.8</ele>
        <time>2026-02-02T14:33:41Z</time>
      </trkpt>
      <trkpt lat="45.98354" lon="6.56535">
        <ele>2161.8</ele>
        <time>2026-02-02T14:33:42Z</time>
      </trkpt>
      <trkpt lat="45.98354" lon="6.56535">
        <ele>2161.8</ele>
        <time>2026-02-02T14:33:43Z</time>
      </trkpt>
      <trkpt lat="45.98355" lon="6.56534">
        <ele>2163</ele>
        <time>2026-02-02T14:33:44Z</time>
      </trkpt>
      <trkpt lat="45.98355" lon="6.56534">
        <ele>2163</ele>
        <time>2026-02-02T14:33:45Z</time>
      </trkpt>
      <trkpt lat="45.98355" lon="6.56534">
        <ele>2163</ele>
        <time>2026-02-02T14:33:46Z</time>
      </trkpt>
      <trkpt lat="45.98355" lon="6.56533">
        <ele>2163</ele>
        <time>2026-02-02T14:33:47Z</time>
      </trkpt>
      <trkpt lat="45.98355" lon="6.56533">
        <ele>2163</ele>
        <time>2026-02-02T14:33:48Z</time>
      </trkpt>
      <trkpt lat="45.98355" lon="6.56533">
        <ele>2163</ele>
        <time>2026-02-02T14:33:49Z</time>
      </trkpt>
      <trkpt lat="45.98355" lon="6.56533">
        <ele>2163</ele>
        <time>2026-02-02T14:33:50Z</time>
      </trkpt>
      <trkpt lat="45.98355" lon="6.56533">
        <ele>2163</ele>
        <time>2026-02-02T14:33:51Z</time>
      </trkpt>
      <trkpt lat="45.98355" lon="6.56533">
        <ele>2163</ele>
        <time>2026-02-02T14:33:52Z</time>
      </trkpt>
      <trkpt lat="45.98355" lon="6.56533">
        <ele>2163</ele>
        <time>2026-02-02T14:33:53Z</time>
      </trkpt>
      <trkpt lat="45.98355" lon="6.56533">
        <ele>2163</ele>
        <time>2026-02-02T14:33:54Z</time>
      </trkpt>
      <trkpt lat="45.98355" lon="6.56533">
        <ele>2163</ele>
        <time>2026-02-02T14:33:55Z</time>
      </trkpt>
      <trkpt lat="45.98355" lon="6.56533">
        <ele>2163</ele>
        <time>2026-02-02T14:33:56Z</time>
      </trkpt>
      <trkpt lat="45.98355" lon="6.56533">
        <ele>2163</ele>
        <time>2026-02-02T14:33:57Z</time>
      </trkpt>
      <trkpt lat="45.98356" lon="6.56533">
        <ele>2163</ele>
        <time>2026-02-02T14:33:58Z</time>
      </trkpt>
      <trkpt lat="45.98355" lon="6.56533">
        <ele>2163</ele>
        <time>2026-02-02T14:33:59Z</time>
      </trkpt>
      <trkpt lat="45.98355" lon="6.56533">
        <ele>2163</ele>
        <time>2026-02-02T14:34:00Z</time>
      </trkpt>
      <trkpt lat="45.98355" lon="6.56533">
        <ele>2163</ele>
        <time>2026-02-02T14:34:01Z</time>
      </trkpt>
      <trkpt lat="45.98355" lon="6.56533">
        <ele>2163</ele>
        <time>2026-02-02T14:34:02Z</time>
      </trkpt>
      <trkpt lat="45.98354" lon="6.56532">
        <ele>2161.8</ele>
        <time>2026-02-02T14:34:03Z</time>
      </trkpt>
      <trkpt lat="45.98354" lon="6.56532">
        <ele>2161.8</ele>
        <time>2026-02-02T14:34:04Z</time>
      </trkpt>
      <trkpt lat="45.98354" lon="6.56533">
        <ele>2161.8</ele>
        <time>2026-02-02T14:34:05Z</time>
      </trkpt>
      <trkpt lat="45.98354" lon="6.56534">
        <ele>2161.8</ele>
        <time>2026-02-02T14:34:06Z</time>
      </trkpt>
      <trkpt lat="45.98354" lon="6.56534">
        <ele>2161.8</ele>
        <time>2026-02-02T14:34:07Z</time>
      </trkpt>
      <trkpt lat="45.98353" lon="6.56534">
        <ele>2161.8</ele>
        <time>2026-02-02T14:34:08Z</time>
      </trkpt>
      <trkpt lat="45.98353" lon="6.56535">
        <ele>2161.8</ele>
        <time>2026-02-02T14:34:09Z</time>
      </trkpt>
      <trkpt lat="45.98353" lon="6.56536">
        <ele>2161.8</ele>
        <time>2026-02-02T14:34:10Z</time>
      </trkpt>
      <trkpt lat="45.98352" lon="6.56537">
        <ele>2163.1</ele>
        <time>2026-02-02T14:34:11Z</time>
      </trkpt>
      <trkpt lat="45.98352" lon="6.56539">
        <ele>2163.1</ele>
        <time>2026-02-02T14:34:12Z</time>
      </trkpt>
      <trkpt lat="45.98352" lon="6.56539">
        <ele>2163.1</ele>
        <time>2026-02-02T14:34:13Z</time>
      </trkpt>
      <trkpt lat="45.98351" lon="6.5654">
        <ele>2161.9</ele>
        <time>2026-02-02T14:34:14Z</time>
      </trkpt>
      <trkpt lat="45.98351" lon="6.56541">
        <ele>2163.1</ele>
        <time>2026-02-02T14:34:15Z</time>
      </trkpt>
      <trkpt lat="45.9835" lon="6.56542">
        <ele>2163.1</ele>
        <time>2026-02-02T14:34:16Z</time>
      </trkpt>
      <trkpt lat="45.9835" lon="6.56544">
        <ele>2163.1</ele>
        <time>2026-02-02T14:34:17Z</time>
      </trkpt>
      <trkpt lat="45.9835" lon="6.56545">
        <ele>2164.4</ele>
        <time>2026-02-02T14:34:18Z</time>
      </trkpt>
      <trkpt lat="45.98349" lon="6.56547">
        <ele>2164.4</ele>
        <time>2026-02-02T14:34:19Z</time>
      </trkpt>
      <trkpt lat="45.98349" lon="6.56549">
        <ele>2164.4</ele>
        <time>2026-02-02T14:34:20Z</time>
      </trkpt>
      <trkpt lat="45.98349" lon="6.5655">
        <ele>2165.7</ele>
        <time>2026-02-02T14:34:21Z</time>
      </trkpt>
      <trkpt lat="45.98349" lon="6.56552">
        <ele>2165.7</ele>
        <time>2026-02-02T14:34:22Z</time>
      </trkpt>
      <trkpt lat="45.98349" lon="6.56553">
        <ele>2165.7</ele>
        <time>2026-02-02T14:34:23Z</time>
      </trkpt>
      <trkpt lat="45.98349" lon="6.56554">
        <ele>2166.9</ele>
        <time>2026-02-02T14:34:24Z</time>
      </trkpt>
      <trkpt lat="45.98349" lon="6.56555">
        <ele>2166.9</ele>
        <time>2026-02-02T14:34:25Z</time>
      </trkpt>
      <trkpt lat="45.98349" lon="6.56556">
        <ele>2166.9</ele>
        <time>2026-02-02T14:34:26Z</time>
      </trkpt>
      <trkpt lat="45.98349" lon="6.56556">
        <ele>2166.9</ele>
        <time>2026-02-02T14:34:27Z</time>
      </trkpt>
      <trkpt lat="45.98348" lon="6.56556">
        <ele>2165.6</ele>
        <time>2026-02-02T14:34:28Z</time>
      </trkpt>
      <trkpt lat="45.98348" lon="6.56557">
        <ele>2165.6</ele>
        <time>2026-02-02T14:34:29Z</time>
      </trkpt>
      <trkpt lat="45.98348" lon="6.56557">
        <ele>2165.6</ele>
        <time>2026-02-02T14:34:30Z</time>
      </trkpt>
      <trkpt lat="45.98348" lon="6.56557">
        <ele>2165.6</ele>
        <time>2026-02-02T14:34:31Z</time>
      </trkpt>
      <trkpt lat="45.98348" lon="6.56558">
        <ele>2166.8</ele>
        <time>2026-02-02T14:34:32Z</time>
      </trkpt>
      <trkpt lat="45.98348" lon="6.56558">
        <ele>2166.8</ele>
        <time>2026-02-02T14:34:33Z</time>
      </trkpt>
      <trkpt lat="45.98348" lon="6.56558">
        <ele>2166.8</ele>
        <time>2026-02-02T14:34:34Z</time>
      </trkpt>
      <trkpt lat="45.98348" lon="6.56558">
        <ele>2166.8</ele>
        <time>2026-02-02T14:34:35Z</time>
      </trkpt>
      <trkpt lat="45.98348" lon="6.56559">
        <ele>2166.8</ele>
        <time>2026-02-02T14:34:36Z</time>
      </trkpt>
      <trkpt lat="45.98348" lon="6.56559">
        <ele>2166.8</ele>
        <time>2026-02-02T14:34:37Z</time>
      </trkpt>
      <trkpt lat="45.98347" lon="6.56559">
        <ele>2166.8</ele>
        <time>2026-02-02T14:34:38Z</time>
      </trkpt>
      <trkpt lat="45.98347" lon="6.5656">
        <ele>2166.8</ele>
        <time>2026-02-02T14:34:39Z</time>
      </trkpt>
      <trkpt lat="45.98347" lon="6.5656">
        <ele>2166.8</ele>
        <time>2026-02-02T14:34:40Z</time>
      </trkpt>
      <trkpt lat="45.98347" lon="6.5656">
        <ele>2166.8</ele>
        <time>2026-02-02T14:34:41Z</time>
      </trkpt>
      <trkpt lat="45.98347" lon="6.56561">
        <ele>2166.8</ele>
        <time>2026-02-02T14:34:42Z</time>
      </trkpt>
      <trkpt lat="45.98347" lon="6.56561">
        <ele>2166.8</ele>
        <time>2026-02-02T14:34:43Z</time>
      </trkpt>
      <trkpt lat="45.98346" lon="6.56564">
        <ele>2167.9</ele>
        <time>2026-02-02T14:34:44Z</time>
      </trkpt>
      <trkpt lat="45.98346" lon="6.56565">
        <ele>2167.9</ele>
        <time>2026-02-02T14:34:45Z</time>
      </trkpt>
      <trkpt lat="45.98346" lon="6.56566">
        <ele>2167.9</ele>
        <time>2026-02-02T14:34:46Z</time>
      </trkpt>
      <trkpt lat="45.98346" lon="6.56567">
        <ele>2168.9</ele>
        <time>2026-02-02T14:34:47Z</time>
      </trkpt>
      <trkpt lat="45.98345" lon="6.56568">
        <ele>2167.5</ele>
        <time>2026-02-02T14:34:48Z</time>
      </trkpt>
      <trkpt lat="45.98345" lon="6.56569">
        <ele>2167.5</ele>
        <time>2026-02-02T14:34:49Z</time>
      </trkpt>
      <trkpt lat="45.98345" lon="6.56569">
        <ele>2167.5</ele>
        <time>2026-02-02T14:34:50Z</time>
      </trkpt>
      <trkpt lat="45.98345" lon="6.56569">
        <ele>2167.5</ele>
        <time>2026-02-02T14:34:51Z</time>
      </trkpt>
      <trkpt lat="45.98345" lon="6.56568">
        <ele>2167.5</ele>
        <time>2026-02-02T14:34:52Z</time>
      </trkpt>
      <trkpt lat="45.98345" lon="6.56567">
        <ele>2167.5</ele>
        <time>2026-02-02T14:34:53Z</time>
      </trkpt>
      <trkpt lat="45.98345" lon="6.56567">
        <ele>2167.5</ele>
        <time>2026-02-02T14:34:54Z</time>
      </trkpt>
      <trkpt lat="45.98345" lon="6.56569">
        <ele>2167.5</ele>
        <time>2026-02-02T14:34:55Z</time>
      </trkpt>
      <trkpt lat="45.98344" lon="6.5657">
        <ele>2167.5</ele>
        <time>2026-02-02T14:34:56Z</time>
      </trkpt>
      <trkpt lat="45.98344" lon="6.56569">
        <ele>2167.5</ele>
        <time>2026-02-02T14:34:57Z</time>
      </trkpt>
      <trkpt lat="45.98345" lon="6.56568">
        <ele>2167.5</ele>
        <time>2026-02-02T14:34:58Z</time>
      </trkpt>
      <trkpt lat="45.98345" lon="6.56567">
        <ele>2167.5</ele>
        <time>2026-02-02T14:34:59Z</time>
      </trkpt>
      <trkpt lat="45.98345" lon="6.56566">
        <ele>2167.5</ele>
        <time>2026-02-02T14:35:00Z</time>
      </trkpt>
      <trkpt lat="45.98345" lon="6.56566">
        <ele>2167.5</ele>
        <time>2026-02-02T14:35:01Z</time>
      </trkpt>
      <trkpt lat="45.98346" lon="6.56567">
        <ele>2168.9</ele>
        <time>2026-02-02T14:35:02Z</time>
      </trkpt>
      <trkpt lat="45.98346" lon="6.56567">
        <ele>2168.9</ele>
        <time>2026-02-02T14:35:03Z</time>
      </trkpt>
      <trkpt lat="45.98346" lon="6.56568">
        <ele>2168.9</ele>
        <time>2026-02-02T14:35:04Z</time>
      </trkpt>
      <trkpt lat="45.98346" lon="6.56568">
        <ele>2168.9</ele>
        <time>2026-02-02T14:35:05Z</time>
      </trkpt>
      <trkpt lat="45.98346" lon="6.56568">
        <ele>2168.9</ele>
        <time>2026-02-02T14:35:06Z</time>
      </trkpt>
      <trkpt lat="45.98346" lon="6.56569">
        <ele>2168.9</ele>
        <time>2026-02-02T14:35:07Z</time>
      </trkpt>
      <trkpt lat="45.98346" lon="6.56569">
        <ele>2168.9</ele>
        <time>2026-02-02T14:35:08Z</time>
      </trkpt>
      <trkpt lat="45.98346" lon="6.56569">
        <ele>2168.9</ele>
        <time>2026-02-02T14:35:09Z</time>
      </trkpt>
      <trkpt lat="45.98346" lon="6.5657">
        <ele>2168.9</ele>
        <time>2026-02-02T14:35:10Z</time>
      </trkpt>
      <trkpt lat="45.98346" lon="6.5657">
        <ele>2168.9</ele>
        <time>2026-02-02T14:35:11Z</time>
      </trkpt>
      <trkpt lat="45.98346" lon="6.5657">
        <ele>2168.9</ele>
        <time>2026-02-02T14:35:12Z</time>
      </trkpt>
      <trkpt lat="45.98346" lon="6.5657">
        <ele>2168.9</ele>
        <time>2026-02-02T14:35:13Z</time>
      </trkpt>
      <trkpt lat="45.98346" lon="6.56571">
        <ele>2169.9</ele>
        <time>2026-02-02T14:35:14Z</time>
      </trkpt>
      <trkpt lat="45.98346" lon="6.56571">
        <ele>2169.9</ele>
        <time>2026-02-02T14:35:15Z</time>
      </trkpt>
      <trkpt lat="45.98346" lon="6.56571">
        <ele>2169.9</ele>
        <time>2026-02-02T14:35:16Z</time>
      </trkpt>
      <trkpt lat="45.98346" lon="6.56572">
        <ele>2169.9</ele>
        <time>2026-02-02T14:35:17Z</time>
      </trkpt>
      <trkpt lat="45.98345" lon="6.56577">
        <ele>2169.5</ele>
        <time>2026-02-02T14:35:18Z</time>
      </trkpt>
      <trkpt lat="45.98345" lon="6.56578">
        <ele>2169.5</ele>
        <time>2026-02-02T14:35:19Z</time>
      </trkpt>
      <trkpt lat="45.98345" lon="6.5658">
        <ele>2170.5</ele>
        <time>2026-02-02T14:35:20Z</time>
      </trkpt>
      <trkpt lat="45.98344" lon="6.56582">
        <ele>2170.5</ele>
        <time>2026-02-02T14:35:21Z</time>
      </trkpt>
      <trkpt lat="45.98344" lon="6.56585">
        <ele>2171.5</ele>
        <time>2026-02-02T14:35:22Z</time>
      </trkpt>
      <trkpt lat="45.98344" lon="6.56586">
        <ele>2171.5</ele>
        <time>2026-02-02T14:35:23Z</time>
      </trkpt>
      <trkpt lat="45.98344" lon="6.56587">
        <ele>2171.5</ele>
        <time>2026-02-02T14:35:24Z</time>
      </trkpt>
      <trkpt lat="45.98343" lon="6.5659">
        <ele>2172.6</ele>
        <time>2026-02-02T14:35:25Z</time>
      </trkpt>
      <trkpt lat="45.98342" lon="6.56591">
        <ele>2171.2</ele>
        <time>2026-02-02T14:35:26Z</time>
      </trkpt>
      <trkpt lat="45.98342" lon="6.56592">
        <ele>2172.3</ele>
        <time>2026-02-02T14:35:27Z</time>
      </trkpt>
      <trkpt lat="45.98341" lon="6.56594">
        <ele>2172.3</ele>
        <time>2026-02-02T14:35:28Z</time>
      </trkpt>
      <trkpt lat="45.98341" lon="6.56595">
        <ele>2172.3</ele>
        <time>2026-02-02T14:35:29Z</time>
      </trkpt>
      <trkpt lat="45.9834" lon="6.56596">
        <ele>2172.3</ele>
        <time>2026-02-02T14:35:30Z</time>
      </trkpt>
      <trkpt lat="45.9834" lon="6.56597">
        <ele>2173.3</ele>
        <time>2026-02-02T14:35:31Z</time>
      </trkpt>
      <trkpt lat="45.98339" lon="6.56598">
        <ele>2171.8</ele>
        <time>2026-02-02T14:35:32Z</time>
      </trkpt>
      <trkpt lat="45.98339" lon="6.56599">
        <ele>2171.8</ele>
        <time>2026-02-02T14:35:33Z</time>
      </trkpt>
      <trkpt lat="45.98338" lon="6.566">
        <ele>2171.8</ele>
        <time>2026-02-02T14:35:34Z</time>
      </trkpt>
      <trkpt lat="45.98338" lon="6.56601">
        <ele>2172.8</ele>
        <time>2026-02-02T14:35:35Z</time>
      </trkpt>
      <trkpt lat="45.98338" lon="6.56601">
        <ele>2172.8</ele>
        <time>2026-02-02T14:35:36Z</time>
      </trkpt>
      <trkpt lat="45.98338" lon="6.56601">
        <ele>2172.8</ele>
        <time>2026-02-02T14:35:37Z</time>
      </trkpt>
      <trkpt lat="45.98338" lon="6.566">
        <ele>2171.8</ele>
        <time>2026-02-02T14:35:38Z</time>
      </trkpt>
      <trkpt lat="45.98338" lon="6.566">
        <ele>2171.8</ele>
        <time>2026-02-02T14:35:39Z</time>
      </trkpt>
      <trkpt lat="45.98339" lon="6.566">
        <ele>2171.8</ele>
        <time>2026-02-02T14:35:40Z</time>
      </trkpt>
      <trkpt lat="45.98339" lon="6.566">
        <ele>2171.8</ele>
        <time>2026-02-02T14:35:41Z</time>
      </trkpt>
      <trkpt lat="45.98339" lon="6.566">
        <ele>2171.8</ele>
        <time>2026-02-02T14:35:42Z</time>
      </trkpt>
      <trkpt lat="45.98339" lon="6.566">
        <ele>2171.8</ele>
        <time>2026-02-02T14:35:43Z</time>
      </trkpt>
      <trkpt lat="45.98339" lon="6.56601">
        <ele>2172.8</ele>
        <time>2026-02-02T14:35:44Z</time>
      </trkpt>
      <trkpt lat="45.98339" lon="6.56601">
        <ele>2172.8</ele>
        <time>2026-02-02T14:35:45Z</time>
      </trkpt>
      <trkpt lat="45.98339" lon="6.56601">
        <ele>2172.8</ele>
        <time>2026-02-02T14:35:46Z</time>
      </trkpt>
      <trkpt lat="45.98339" lon="6.56602">
        <ele>2172.8</ele>
        <time>2026-02-02T14:35:47Z</time>
      </trkpt>
      <trkpt lat="45.98339" lon="6.56602">
        <ele>2172.8</ele>
        <time>2026-02-02T14:35:48Z</time>
      </trkpt>
      <trkpt lat="45.98339" lon="6.56602">
        <ele>2172.8</ele>
        <time>2026-02-02T14:35:49Z</time>
      </trkpt>
      <trkpt lat="45.98339" lon="6.56603">
        <ele>2172.8</ele>
        <time>2026-02-02T14:35:50Z</time>
      </trkpt>
      <trkpt lat="45.98339" lon="6.56603">
        <ele>2172.8</ele>
        <time>2026-02-02T14:35:51Z</time>
      </trkpt>
      <trkpt lat="45.98339" lon="6.56603">
        <ele>2172.8</ele>
        <time>2026-02-02T14:35:52Z</time>
      </trkpt>
      <trkpt lat="45.98338" lon="6.56604">
        <ele>2172.8</ele>
        <time>2026-02-02T14:35:53Z</time>
      </trkpt>
      <trkpt lat="45.98338" lon="6.56605">
        <ele>2172.8</ele>
        <time>2026-02-02T14:35:54Z</time>
      </trkpt>
      <trkpt lat="45.98338" lon="6.56606">
        <ele>2173.6</ele>
        <time>2026-02-02T14:35:55Z</time>
      </trkpt>
      <trkpt lat="45.98337" lon="6.56607">
        <ele>2173.6</ele>
        <time>2026-02-02T14:35:56Z</time>
      </trkpt>
      <trkpt lat="45.98337" lon="6.5661">
        <ele>2174.4</ele>
        <time>2026-02-02T14:35:57Z</time>
      </trkpt>
      <trkpt lat="45.98336" lon="6.56612">
        <ele>2172.9</ele>
        <time>2026-02-02T14:35:58Z</time>
      </trkpt>
      <trkpt lat="45.98335" lon="6.56613">
        <ele>2172.9</ele>
        <time>2026-02-02T14:35:59Z</time>
      </trkpt>
      <trkpt lat="45.98335" lon="6.56614">
        <ele>2173.7</ele>
        <time>2026-02-02T14:36:00Z</time>
      </trkpt>
      <trkpt lat="45.98334" lon="6.56615">
        <ele>2173.7</ele>
        <time>2026-02-02T14:36:01Z</time>
      </trkpt>
      <trkpt lat="45.98334" lon="6.56616">
        <ele>2173.7</ele>
        <time>2026-02-02T14:36:02Z</time>
      </trkpt>
      <trkpt lat="45.98334" lon="6.56617">
        <ele>2173.7</ele>
        <time>2026-02-02T14:36:03Z</time>
      </trkpt>
      <trkpt lat="45.98334" lon="6.56616">
        <ele>2173.7</ele>
        <time>2026-02-02T14:36:04Z</time>
      </trkpt>
      <trkpt lat="45.98334" lon="6.56615">
        <ele>2173.7</ele>
        <time>2026-02-02T14:36:05Z</time>
      </trkpt>
      <trkpt lat="45.98334" lon="6.56615">
        <ele>2173.7</ele>
        <time>2026-02-02T14:36:06Z</time>
      </trkpt>
      <trkpt lat="45.98335" lon="6.56615">
        <ele>2173.7</ele>
        <time>2026-02-02T14:36:07Z</time>
      </trkpt>
      <trkpt lat="45.98335" lon="6.56615">
        <ele>2173.7</ele>
        <time>2026-02-02T14:36:08Z</time>
      </trkpt>
      <trkpt lat="45.98335" lon="6.56614">
        <ele>2173.7</ele>
        <time>2026-02-02T14:36:09Z</time>
      </trkpt>
      <trkpt lat="45.98335" lon="6.56614">
        <ele>2173.7</ele>
        <time>2026-02-02T14:36:10Z</time>
      </trkpt>
      <trkpt lat="45.98335" lon="6.56614">
        <ele>2173.7</ele>
        <time>2026-02-02T14:36:11Z</time>
      </trkpt>
      <trkpt lat="45.98334" lon="6.56614">
        <ele>2173.7</ele>
        <time>2026-02-02T14:36:12Z</time>
      </trkpt>
      <trkpt lat="45.98334" lon="6.56615">
        <ele>2173.7</ele>
        <time>2026-02-02T14:36:13Z</time>
      </trkpt>
      <trkpt lat="45.98334" lon="6.56615">
        <ele>2173.7</ele>
        <time>2026-02-02T14:36:14Z</time>
      </trkpt>
      <trkpt lat="45.98334" lon="6.56616">
        <ele>2173.7</ele>
        <time>2026-02-02T14:36:15Z</time>
      </trkpt>
      <trkpt lat="45.98333" lon="6.56618">
        <ele>2172.2</ele>
        <time>2026-02-02T14:36:16Z</time>
      </trkpt>
      <trkpt lat="45.98331" lon="6.56621">
        <ele>2172.9</ele>
        <time>2026-02-02T14:36:17Z</time>
      </trkpt>
      <trkpt lat="45.9833" lon="6.56622">
        <ele>2172.1</ele>
        <time>2026-02-02T14:36:18Z</time>
      </trkpt>
      <trkpt lat="45.9833" lon="6.56624">
        <ele>2172.1</ele>
        <time>2026-02-02T14:36:19Z</time>
      </trkpt>
      <trkpt lat="45.98329" lon="6.56625">
        <ele>2172.1</ele>
        <time>2026-02-02T14:36:20Z</time>
      </trkpt>
      <trkpt lat="45.98329" lon="6.56626">
        <ele>2172.1</ele>
        <time>2026-02-02T14:36:21Z</time>
      </trkpt>
      <trkpt lat="45.98328" lon="6.56627">
        <ele>2172.8</ele>
        <time>2026-02-02T14:36:22Z</time>
      </trkpt>
      <trkpt lat="45.98328" lon="6.56627">
        <ele>2172.8</ele>
        <time>2026-02-02T14:36:23Z</time>
      </trkpt>
      <trkpt lat="45.98328" lon="6.56627">
        <ele>2172.8</ele>
        <time>2026-02-02T14:36:24Z</time>
      </trkpt>
      <trkpt lat="45.98329" lon="6.56626">
        <ele>2172.1</ele>
        <time>2026-02-02T14:36:25Z</time>
      </trkpt>
      <trkpt lat="45.98329" lon="6.56626">
        <ele>2172.1</ele>
        <time>2026-02-02T14:36:26Z</time>
      </trkpt>
      <trkpt lat="45.98329" lon="6.56626">
        <ele>2172.1</ele>
        <time>2026-02-02T14:36:27Z</time>
      </trkpt>
      <trkpt lat="45.9833" lon="6.56626">
        <ele>2172.1</ele>
        <time>2026-02-02T14:36:28Z</time>
      </trkpt>
      <trkpt lat="45.9833" lon="6.56626">
        <ele>2172.1</ele>
        <time>2026-02-02T14:36:29Z</time>
      </trkpt>
      <trkpt lat="45.9833" lon="6.56626">
        <ele>2172.1</ele>
        <time>2026-02-02T14:36:30Z</time>
      </trkpt>
      <trkpt lat="45.9833" lon="6.56626">
        <ele>2172.1</ele>
        <time>2026-02-02T14:36:31Z</time>
      </trkpt>
      <trkpt lat="45.9833" lon="6.56626">
        <ele>2172.1</ele>
        <time>2026-02-02T14:36:32Z</time>
      </trkpt>
      <trkpt lat="45.98331" lon="6.56626">
        <ele>2173.5</ele>
        <time>2026-02-02T14:36:33Z</time>
      </trkpt>
      <trkpt lat="45.98331" lon="6.56626">
        <ele>2173.5</ele>
        <time>2026-02-02T14:36:34Z</time>
      </trkpt>
      <trkpt lat="45.98331" lon="6.56626">
        <ele>2173.5</ele>
        <time>2026-02-02T14:36:35Z</time>
      </trkpt>
      <trkpt lat="45.98331" lon="6.56626">
        <ele>2173.5</ele>
        <time>2026-02-02T14:36:36Z</time>
      </trkpt>
      <trkpt lat="45.98331" lon="6.56626">
        <ele>2173.5</ele>
        <time>2026-02-02T14:36:37Z</time>
      </trkpt>
      <trkpt lat="45.98331" lon="6.56626">
        <ele>2173.5</ele>
        <time>2026-02-02T14:36:38Z</time>
      </trkpt>
      <trkpt lat="45.98331" lon="6.56626">
        <ele>2173.5</ele>
        <time>2026-02-02T14:36:39Z</time>
      </trkpt>
      <trkpt lat="45.98332" lon="6.56627">
        <ele>2174.2</ele>
        <time>2026-02-02T14:36:40Z</time>
      </trkpt>
      <trkpt lat="45.98332" lon="6.56628">
        <ele>2174.2</ele>
        <time>2026-02-02T14:36:41Z</time>
      </trkpt>
      <trkpt lat="45.98332" lon="6.56629">
        <ele>2174.2</ele>
        <time>2026-02-02T14:36:42Z</time>
      </trkpt>
      <trkpt lat="45.98332" lon="6.56631">
        <ele>2174.2</ele>
        <time>2026-02-02T14:36:43Z</time>
      </trkpt>
      <trkpt lat="45.98332" lon="6.56632">
        <ele>2174.9</ele>
        <time>2026-02-02T14:36:44Z</time>
      </trkpt>
      <trkpt lat="45.98332" lon="6.56636">
        <ele>2175.6</ele>
        <time>2026-02-02T14:36:45Z</time>
      </trkpt>
      <trkpt lat="45.98332" lon="6.56637">
        <ele>2175.6</ele>
        <time>2026-02-02T14:36:46Z</time>
      </trkpt>
      <trkpt lat="45.98332" lon="6.5664">
        <ele>2176.4</ele>
        <time>2026-02-02T14:36:47Z</time>
      </trkpt>
      <trkpt lat="45.98331" lon="6.56641">
        <ele>2176.4</ele>
        <time>2026-02-02T14:36:48Z</time>
      </trkpt>
      <trkpt lat="45.98331" lon="6.56642">
        <ele>2176.4</ele>
        <time>2026-02-02T14:36:49Z</time>
      </trkpt>
      <trkpt lat="45.98331" lon="6.56644">
        <ele>2177.1</ele>
        <time>2026-02-02T14:36:50Z</time>
      </trkpt>
      <trkpt lat="45.98331" lon="6.56645">
        <ele>2177.1</ele>
        <time>2026-02-02T14:36:51Z</time>
      </trkpt>
      <trkpt lat="45.9833" lon="6.56647">
        <ele>2175.7</ele>
        <time>2026-02-02T14:36:52Z</time>
      </trkpt>
      <trkpt lat="45.9833" lon="6.56648">
        <ele>2176.4</ele>
        <time>2026-02-02T14:36:53Z</time>
      </trkpt>
      <trkpt lat="45.98329" lon="6.5665">
        <ele>2176.4</ele>
        <time>2026-02-02T14:36:54Z</time>
      </trkpt>
      <trkpt lat="45.98329" lon="6.56651">
        <ele>2176.4</ele>
        <time>2026-02-02T14:36:55Z</time>
      </trkpt>
      <trkpt lat="45.98329" lon="6.56651">
        <ele>2176.4</ele>
        <time>2026-02-02T14:36:56Z</time>
      </trkpt>
      <trkpt lat="45.98329" lon="6.5665">
        <ele>2176.4</ele>
        <time>2026-02-02T14:36:57Z</time>
      </trkpt>
      <trkpt lat="45.98329" lon="6.5665">
        <ele>2176.4</ele>
        <time>2026-02-02T14:36:58Z</time>
      </trkpt>
      <trkpt lat="45.98329" lon="6.5665">
        <ele>2176.4</ele>
        <time>2026-02-02T14:36:59Z</time>
      </trkpt>
      <trkpt lat="45.98329" lon="6.56649">
        <ele>2176.4</ele>
        <time>2026-02-02T14:37:00Z</time>
      </trkpt>
      <trkpt lat="45.98329" lon="6.56649">
        <ele>2176.4</ele>
        <time>2026-02-02T14:37:01Z</time>
      </trkpt>
      <trkpt lat="45.98329" lon="6.56648">
        <ele>2176.4</ele>
        <time>2026-02-02T14:37:02Z</time>
      </trkpt>
      <trkpt lat="45.98329" lon="6.56648">
        <ele>2175.7</ele>
        <time>2026-02-02T14:37:03Z</time>
      </trkpt>
      <trkpt lat="45.98329" lon="6.56648">
        <ele>2175.7</ele>
        <time>2026-02-02T14:37:04Z</time>
      </trkpt>
      <trkpt lat="45.98329" lon="6.56648">
        <ele>2176.4</ele>
        <time>2026-02-02T14:37:05Z</time>
      </trkpt>
      <trkpt lat="45.98329" lon="6.56648">
        <ele>2176.4</ele>
        <time>2026-02-02T14:37:06Z</time>
      </trkpt>
      <trkpt lat="45.98329" lon="6.5665">
        <ele>2176.4</ele>
        <time>2026-02-02T14:37:07Z</time>
      </trkpt>
      <trkpt lat="45.98328" lon="6.56651">
        <ele>2175.1</ele>
        <time>2026-02-02T14:37:08Z</time>
      </trkpt>
      <trkpt lat="45.98326" lon="6.56654">
        <ele>2175.8</ele>
        <time>2026-02-02T14:37:09Z</time>
      </trkpt>
      <trkpt lat="45.98326" lon="6.56657">
        <ele>2176.5</ele>
        <time>2026-02-02T14:37:10Z</time>
      </trkpt>
      <trkpt lat="45.98325" lon="6.56658">
        <ele>2176.5</ele>
        <time>2026-02-02T14:37:11Z</time>
      </trkpt>
      <trkpt lat="45.98325" lon="6.56659">
        <ele>2176.5</ele>
        <time>2026-02-02T14:37:12Z</time>
      </trkpt>
      <trkpt lat="45.98325" lon="6.56661">
        <ele>2177.2</ele>
        <time>2026-02-02T14:37:13Z</time>
      </trkpt>
      <trkpt lat="45.98325" lon="6.56662">
        <ele>2177.2</ele>
        <time>2026-02-02T14:37:14Z</time>
      </trkpt>
      <trkpt lat="45.98324" lon="6.56663">
        <ele>2176</ele>
        <time>2026-02-02T14:37:15Z</time>
      </trkpt>
      <trkpt lat="45.98325" lon="6.56663">
        <ele>2176</ele>
        <time>2026-02-02T14:37:16Z</time>
      </trkpt>
      <trkpt lat="45.98325" lon="6.56664">
        <ele>2177.2</ele>
        <time>2026-02-02T14:37:17Z</time>
      </trkpt>
      <trkpt lat="45.98325" lon="6.56665">
        <ele>2177.2</ele>
        <time>2026-02-02T14:37:18Z</time>
      </trkpt>
      <trkpt lat="45.98325" lon="6.56665">
        <ele>2177.9</ele>
        <time>2026-02-02T14:37:19Z</time>
      </trkpt>
      <trkpt lat="45.98325" lon="6.56666">
        <ele>2177.9</ele>
        <time>2026-02-02T14:37:20Z</time>
      </trkpt>
      <trkpt lat="45.98325" lon="6.56667">
        <ele>2177.9</ele>
        <time>2026-02-02T14:37:21Z</time>
      </trkpt>
      <trkpt lat="45.98325" lon="6.56668">
        <ele>2177.9</ele>
        <time>2026-02-02T14:37:22Z</time>
      </trkpt>
      <trkpt lat="45.98325" lon="6.56669">
        <ele>2177.9</ele>
        <time>2026-02-02T14:37:23Z</time>
      </trkpt>
      <trkpt lat="45.98325" lon="6.56669">
        <ele>2177.9</ele>
        <time>2026-02-02T14:37:24Z</time>
      </trkpt>
      <trkpt lat="45.98325" lon="6.5667">
        <ele>2178.7</ele>
        <time>2026-02-02T14:37:25Z</time>
      </trkpt>
      <trkpt lat="45.98325" lon="6.5667">
        <ele>2178.7</ele>
        <time>2026-02-02T14:37:26Z</time>
      </trkpt>
      <trkpt lat="45.98325" lon="6.5667">
        <ele>2178.7</ele>
        <time>2026-02-02T14:37:27Z</time>
      </trkpt>
      <trkpt lat="45.98325" lon="6.56671">
        <ele>2178.7</ele>
        <time>2026-02-02T14:37:28Z</time>
      </trkpt>
      <trkpt lat="45.98325" lon="6.56671">
        <ele>2178.7</ele>
        <time>2026-02-02T14:37:29Z</time>
      </trkpt>
      <trkpt lat="45.98325" lon="6.56672">
        <ele>2177.6</ele>
        <time>2026-02-02T14:37:30Z</time>
      </trkpt>
      <trkpt lat="45.98324" lon="6.56674">
        <ele>2178.5</ele>
        <time>2026-02-02T14:37:31Z</time>
      </trkpt>
      <trkpt lat="45.98324" lon="6.56676">
        <ele>2178.5</ele>
        <time>2026-02-02T14:37:32Z</time>
      </trkpt>
      <trkpt lat="45.98324" lon="6.56677">
        <ele>2178.5</ele>
        <time>2026-02-02T14:37:33Z</time>
      </trkpt>
      <trkpt lat="45.98323" lon="6.5668">
        <ele>2179.5</ele>
        <time>2026-02-02T14:37:34Z</time>
      </trkpt>
      <trkpt lat="45.98322" lon="6.56681">
        <ele>2179.5</ele>
        <time>2026-02-02T14:37:35Z</time>
      </trkpt>
      <trkpt lat="45.98322" lon="6.56682">
        <ele>2179.5</ele>
        <time>2026-02-02T14:37:36Z</time>
      </trkpt>
      <trkpt lat="45.98321" lon="6.56683">
        <ele>2179.4</ele>
        <time>2026-02-02T14:37:37Z</time>
      </trkpt>
      <trkpt lat="45.98321" lon="6.56685">
        <ele>2179.4</ele>
        <time>2026-02-02T14:37:38Z</time>
      </trkpt>
      <trkpt lat="45.98321" lon="6.56686">
        <ele>2179.4</ele>
        <time>2026-02-02T14:37:39Z</time>
      </trkpt>
      <trkpt lat="45.9832" lon="6.56688">
        <ele>2180.5</ele>
        <time>2026-02-02T14:37:40Z</time>
      </trkpt>
      <trkpt lat="45.9832" lon="6.56689">
        <ele>2180.5</ele>
        <time>2026-02-02T14:37:41Z</time>
      </trkpt>
      <trkpt lat="45.9832" lon="6.56691">
        <ele>2181.6</ele>
        <time>2026-02-02T14:37:42Z</time>
      </trkpt>
      <trkpt lat="45.9832" lon="6.56692">
        <ele>2181.6</ele>
        <time>2026-02-02T14:37:43Z</time>
      </trkpt>
      <trkpt lat="45.9832" lon="6.56694">
        <ele>2181.6</ele>
        <time>2026-02-02T14:37:44Z</time>
      </trkpt>
      <trkpt lat="45.9832" lon="6.56695">
        <ele>2182.8</ele>
        <time>2026-02-02T14:37:45Z</time>
      </trkpt>
      <trkpt lat="45.9832" lon="6.56696">
        <ele>2182.8</ele>
        <time>2026-02-02T14:37:46Z</time>
      </trkpt>
      <trkpt lat="45.9832" lon="6.56697">
        <ele>2182.8</ele>
        <time>2026-02-02T14:37:47Z</time>
      </trkpt>
      <trkpt lat="45.98319" lon="6.56697">
        <ele>2182.8</ele>
        <time>2026-02-02T14:37:48Z</time>
      </trkpt>
      <trkpt lat="45.98319" lon="6.56696">
        <ele>2182.8</ele>
        <time>2026-02-02T14:37:49Z</time>
      </trkpt>
      <trkpt lat="45.98319" lon="6.56696">
        <ele>2182.8</ele>
        <time>2026-02-02T14:37:50Z</time>
      </trkpt>
      <trkpt lat="45.98319" lon="6.56695">
        <ele>2182.8</ele>
        <time>2026-02-02T14:37:51Z</time>
      </trkpt>
      <trkpt lat="45.98319" lon="6.56695">
        <ele>2181.6</ele>
        <time>2026-02-02T14:37:52Z</time>
      </trkpt>
      <trkpt lat="45.98319" lon="6.56694">
        <ele>2181.6</ele>
        <time>2026-02-02T14:37:53Z</time>
      </trkpt>
      <trkpt lat="45.98319" lon="6.56694">
        <ele>2181.6</ele>
        <time>2026-02-02T14:37:54Z</time>
      </trkpt>
      <trkpt lat="45.98319" lon="6.56694">
        <ele>2181.6</ele>
        <time>2026-02-02T14:37:55Z</time>
      </trkpt>
      <trkpt lat="45.98319" lon="6.56694">
        <ele>2181.6</ele>
        <time>2026-02-02T14:37:56Z</time>
      </trkpt>
      <trkpt lat="45.98319" lon="6.56694">
        <ele>2181.6</ele>
        <time>2026-02-02T14:37:57Z</time>
      </trkpt>
      <trkpt lat="45.98319" lon="6.56693">
        <ele>2181.6</ele>
        <time>2026-02-02T14:37:58Z</time>
      </trkpt>
      <trkpt lat="45.98319" lon="6.56693">
        <ele>2181.6</ele>
        <time>2026-02-02T14:37:59Z</time>
      </trkpt>
      <trkpt lat="45.98319" lon="6.56693">
        <ele>2181.6</ele>
        <time>2026-02-02T14:38:00Z</time>
      </trkpt>
      <trkpt lat="45.9832" lon="6.56693">
        <ele>2181.6</ele>
        <time>2026-02-02T14:38:01Z</time>
      </trkpt>
      <trkpt lat="45.9832" lon="6.56692">
        <ele>2181.6</ele>
        <time>2026-02-02T14:38:02Z</time>
      </trkpt>
      <trkpt lat="45.9832" lon="6.56693">
        <ele>2181.6</ele>
        <time>2026-02-02T14:38:03Z</time>
      </trkpt>
      <trkpt lat="45.9832" lon="6.56693">
        <ele>2181.6</ele>
        <time>2026-02-02T14:38:04Z</time>
      </trkpt>
      <trkpt lat="45.9832" lon="6.56693">
        <ele>2181.6</ele>
        <time>2026-02-02T14:38:05Z</time>
      </trkpt>
      <trkpt lat="45.9832" lon="6.56694">
        <ele>2181.6</ele>
        <time>2026-02-02T14:38:06Z</time>
      </trkpt>
      <trkpt lat="45.9832" lon="6.56696">
        <ele>2182.8</ele>
        <time>2026-02-02T14:38:07Z</time>
      </trkpt>
      <trkpt lat="45.9832" lon="6.567">
        <ele>2183.9</ele>
        <time>2026-02-02T14:38:08Z</time>
      </trkpt>
      <trkpt lat="45.9832" lon="6.56702">
        <ele>2183.9</ele>
        <time>2026-02-02T14:38:09Z</time>
      </trkpt>
      <trkpt lat="45.9832" lon="6.56704">
        <ele>2185</ele>
        <time>2026-02-02T14:38:10Z</time>
      </trkpt>
      <trkpt lat="45.9832" lon="6.56705">
        <ele>2185</ele>
        <time>2026-02-02T14:38:11Z</time>
      </trkpt>
      <trkpt lat="45.9832" lon="6.56707">
        <ele>2185</ele>
        <time>2026-02-02T14:38:12Z</time>
      </trkpt>
      <trkpt lat="45.9832" lon="6.56708">
        <ele>2186.1</ele>
        <time>2026-02-02T14:38:13Z</time>
      </trkpt>
      <trkpt lat="45.9832" lon="6.5671">
        <ele>2186.1</ele>
        <time>2026-02-02T14:38:14Z</time>
      </trkpt>
      <trkpt lat="45.9832" lon="6.56711">
        <ele>2186.1</ele>
        <time>2026-02-02T14:38:15Z</time>
      </trkpt>
      <trkpt lat="45.9832" lon="6.56712">
        <ele>2187.2</ele>
        <time>2026-02-02T14:38:16Z</time>
      </trkpt>
      <trkpt lat="45.9832" lon="6.56714">
        <ele>2187.2</ele>
        <time>2026-02-02T14:38:17Z</time>
      </trkpt>
      <trkpt lat="45.98319" lon="6.56715">
        <ele>2187.2</ele>
        <time>2026-02-02T14:38:18Z</time>
      </trkpt>
      <trkpt lat="45.98319" lon="6.56716">
        <ele>2187.2</ele>
        <time>2026-02-02T14:38:19Z</time>
      </trkpt>
      <trkpt lat="45.98319" lon="6.56717">
        <ele>2188.4</ele>
        <time>2026-02-02T14:38:20Z</time>
      </trkpt>
      <trkpt lat="45.98319" lon="6.56719">
        <ele>2187.3</ele>
        <time>2026-02-02T14:38:21Z</time>
      </trkpt>
      <trkpt lat="45.98318" lon="6.5672">
        <ele>2187.3</ele>
        <time>2026-02-02T14:38:22Z</time>
      </trkpt>
      <trkpt lat="45.98318" lon="6.56721">
        <ele>2188.5</ele>
        <time>2026-02-02T14:38:23Z</time>
      </trkpt>
      <trkpt lat="45.98318" lon="6.56722">
        <ele>2188.5</ele>
        <time>2026-02-02T14:38:24Z</time>
      </trkpt>
      <trkpt lat="45.98318" lon="6.56721">
        <ele>2188.5</ele>
        <time>2026-02-02T14:38:25Z</time>
      </trkpt>
      <trkpt lat="45.98318" lon="6.56721">
        <ele>2187.3</ele>
        <time>2026-02-02T14:38:26Z</time>
      </trkpt>
      <trkpt lat="45.98318" lon="6.5672">
        <ele>2187.3</ele>
        <time>2026-02-02T14:38:27Z</time>
      </trkpt>
      <trkpt lat="45.98318" lon="6.5672">
        <ele>2187.3</ele>
        <time>2026-02-02T14:38:28Z</time>
      </trkpt>
      <trkpt lat="45.98318" lon="6.5672">
        <ele>2187.3</ele>
        <time>2026-02-02T14:38:29Z</time>
      </trkpt>
      <trkpt lat="45.98318" lon="6.5672">
        <ele>2187.3</ele>
        <time>2026-02-02T14:38:30Z</time>
      </trkpt>
      <trkpt lat="45.98318" lon="6.5672">
        <ele>2187.3</ele>
        <time>2026-02-02T14:38:31Z</time>
      </trkpt>
      <trkpt lat="45.98318" lon="6.5672">
        <ele>2187.3</ele>
        <time>2026-02-02T14:38:32Z</time>
      </trkpt>
      <trkpt lat="45.98318" lon="6.5672">
        <ele>2187.3</ele>
        <time>2026-02-02T14:38:33Z</time>
      </trkpt>
      <trkpt lat="45.98318" lon="6.5672">
        <ele>2187.3</ele>
        <time>2026-02-02T14:38:34Z</time>
      </trkpt>
      <trkpt lat="45.98318" lon="6.5672">
        <ele>2187.3</ele>
        <time>2026-02-02T14:38:35Z</time>
      </trkpt>
      <trkpt lat="45.98318" lon="6.56721">
        <ele>2188.5</ele>
        <time>2026-02-02T14:38:36Z</time>
      </trkpt>
      <trkpt lat="45.98318" lon="6.56721">
        <ele>2188.5</ele>
        <time>2026-02-02T14:38:37Z</time>
      </trkpt>
      <trkpt lat="45.98318" lon="6.56722">
        <ele>2188.5</ele>
        <time>2026-02-02T14:38:38Z</time>
      </trkpt>
      <trkpt lat="45.98318" lon="6.56724">
        <ele>2188.5</ele>
        <time>2026-02-02T14:38:39Z</time>
      </trkpt>
      <trkpt lat="45.98317" lon="6.56726">
        <ele>2189.7</ele>
        <time>2026-02-02T14:38:40Z</time>
      </trkpt>
      <trkpt lat="45.98316" lon="6.56728">
        <ele>2189.7</ele>
        <time>2026-02-02T14:38:41Z</time>
      </trkpt>
      <trkpt lat="45.98315" lon="6.56729">
        <ele>2189.9</ele>
        <time>2026-02-02T14:38:42Z</time>
      </trkpt>
      <trkpt lat="45.98315" lon="6.56731">
        <ele>2189.9</ele>
        <time>2026-02-02T14:38:43Z</time>
      </trkpt>
      <trkpt lat="45.98314" lon="6.56732">
        <ele>2189.9</ele>
        <time>2026-02-02T14:38:44Z</time>
      </trkpt>
      <trkpt lat="45.98314" lon="6.56734">
        <ele>2191</ele>
        <time>2026-02-02T14:38:45Z</time>
      </trkpt>
      <trkpt lat="45.98314" lon="6.56735">
        <ele>2191</ele>
        <time>2026-02-02T14:38:46Z</time>
      </trkpt>
      <trkpt lat="45.98314" lon="6.56737">
        <ele>2191</ele>
        <time>2026-02-02T14:38:47Z</time>
      </trkpt>
      <trkpt lat="45.98313" lon="6.56738">
        <ele>2192</ele>
        <time>2026-02-02T14:38:48Z</time>
      </trkpt>
      <trkpt lat="45.98313" lon="6.5674">
        <ele>2192</ele>
        <time>2026-02-02T14:38:49Z</time>
      </trkpt>
      <trkpt lat="45.98313" lon="6.56742">
        <ele>2192</ele>
        <time>2026-02-02T14:38:50Z</time>
      </trkpt>
      <trkpt lat="45.98313" lon="6.56743">
        <ele>2192.9</ele>
        <time>2026-02-02T14:38:51Z</time>
      </trkpt>
      <trkpt lat="45.98313" lon="6.56743">
        <ele>2192.9</ele>
        <time>2026-02-02T14:38:52Z</time>
      </trkpt>
      <trkpt lat="45.98313" lon="6.56743">
        <ele>2192.9</ele>
        <time>2026-02-02T14:38:53Z</time>
      </trkpt>
      <trkpt lat="45.98313" lon="6.56744">
        <ele>2192</ele>
        <time>2026-02-02T14:38:54Z</time>
      </trkpt>
      <trkpt lat="45.98313" lon="6.56744">
        <ele>2192</ele>
        <time>2026-02-02T14:38:55Z</time>
      </trkpt>
      <trkpt lat="45.98313" lon="6.56744">
        <ele>2192</ele>
        <time>2026-02-02T14:38:56Z</time>
      </trkpt>
      <trkpt lat="45.98313" lon="6.56744">
        <ele>2192</ele>
        <time>2026-02-02T14:38:57Z</time>
      </trkpt>
      <trkpt lat="45.98313" lon="6.56745">
        <ele>2192</ele>
        <time>2026-02-02T14:38:58Z</time>
      </trkpt>
      <trkpt lat="45.98313" lon="6.56745">
        <ele>2192</ele>
        <time>2026-02-02T14:38:59Z</time>
      </trkpt>
      <trkpt lat="45.98313" lon="6.56745">
        <ele>2192</ele>
        <time>2026-02-02T14:39:00Z</time>
      </trkpt>
      <trkpt lat="45.98313" lon="6.56745">
        <ele>2192</ele>
        <time>2026-02-02T14:39:01Z</time>
      </trkpt>
      <trkpt lat="45.98313" lon="6.56745">
        <ele>2192</ele>
        <time>2026-02-02T14:39:02Z</time>
      </trkpt>
      <trkpt lat="45.98313" lon="6.56746">
        <ele>2192</ele>
        <time>2026-02-02T14:39:03Z</time>
      </trkpt>
      <trkpt lat="45.98313" lon="6.56746">
        <ele>2192</ele>
        <time>2026-02-02T14:39:04Z</time>
      </trkpt>
      <trkpt lat="45.98313" lon="6.56746">
        <ele>2192</ele>
        <time>2026-02-02T14:39:05Z</time>
      </trkpt>
      <trkpt lat="45.98313" lon="6.56746">
        <ele>2192.9</ele>
        <time>2026-02-02T14:39:06Z</time>
      </trkpt>
      <trkpt lat="45.98313" lon="6.56747">
        <ele>2192.9</ele>
        <time>2026-02-02T14:39:07Z</time>
      </trkpt>
      <trkpt lat="45.98313" lon="6.56747">
        <ele>2192.9</ele>
        <time>2026-02-02T14:39:08Z</time>
      </trkpt>
      <trkpt lat="45.98312" lon="6.56747">
        <ele>2192.9</ele>
        <time>2026-02-02T14:39:09Z</time>
      </trkpt>
      <trkpt lat="45.98312" lon="6.56747">
        <ele>2192.9</ele>
        <time>2026-02-02T14:39:10Z</time>
      </trkpt>
      <trkpt lat="45.98312" lon="6.56748">
        <ele>2192.9</ele>
        <time>2026-02-02T14:39:11Z</time>
      </trkpt>
      <trkpt lat="45.98312" lon="6.56748">
        <ele>2192.9</ele>
        <time>2026-02-02T14:39:12Z</time>
      </trkpt>
      <trkpt lat="45.98312" lon="6.56751">
        <ele>2193.8</ele>
        <time>2026-02-02T14:39:13Z</time>
      </trkpt>
      <trkpt lat="45.98312" lon="6.56752">
        <ele>2193.8</ele>
        <time>2026-02-02T14:39:14Z</time>
      </trkpt>
      <trkpt lat="45.98311" lon="6.56753">
        <ele>2193.8</ele>
        <time>2026-02-02T14:39:15Z</time>
      </trkpt>
      <trkpt lat="45.98311" lon="6.56755">
        <ele>2193.8</ele>
        <time>2026-02-02T14:39:16Z</time>
      </trkpt>
      <trkpt lat="45.98311" lon="6.56756">
        <ele>2194.6</ele>
        <time>2026-02-02T14:39:17Z</time>
      </trkpt>
      <trkpt lat="45.9831" lon="6.56758">
        <ele>2194.6</ele>
        <time>2026-02-02T14:39:18Z</time>
      </trkpt>
      <trkpt lat="45.9831" lon="6.56759">
        <ele>2193.7</ele>
        <time>2026-02-02T14:39:19Z</time>
      </trkpt>
      <trkpt lat="45.98309" lon="6.5676">
        <ele>2194.5</ele>
        <time>2026-02-02T14:39:20Z</time>
      </trkpt>
      <trkpt lat="45.98309" lon="6.56762">
        <ele>2194.5</ele>
        <time>2026-02-02T14:39:21Z</time>
      </trkpt>
      <trkpt lat="45.98308" lon="6.56763">
        <ele>2194.5</ele>
        <time>2026-02-02T14:39:22Z</time>
      </trkpt>
      <trkpt lat="45.98308" lon="6.56765">
        <ele>2195.2</ele>
        <time>2026-02-02T14:39:23Z</time>
      </trkpt>
      <trkpt lat="45.98307" lon="6.56766">
        <ele>2195.2</ele>
        <time>2026-02-02T14:39:24Z</time>
      </trkpt>
      <trkpt lat="45.98307" lon="6.56767">
        <ele>2195.2</ele>
        <time>2026-02-02T14:39:25Z</time>
      </trkpt>
      <trkpt lat="45.98307" lon="6.56769">
        <ele>2195.2</ele>
        <time>2026-02-02T14:39:26Z</time>
      </trkpt>
      <trkpt lat="45.98306" lon="6.5677">
        <ele>2195.2</ele>
        <time>2026-02-02T14:39:27Z</time>
      </trkpt>
      <trkpt lat="45.98306" lon="6.5677">
        <ele>2195.2</ele>
        <time>2026-02-02T14:39:28Z</time>
      </trkpt>
      <trkpt lat="45.98306" lon="6.56771">
        <ele>2195.2</ele>
        <time>2026-02-02T14:39:29Z</time>
      </trkpt>
      <trkpt lat="45.98306" lon="6.56771">
        <ele>2195.2</ele>
        <time>2026-02-02T14:39:30Z</time>
      </trkpt>
      <trkpt lat="45.98306" lon="6.56771">
        <ele>2195.2</ele>
        <time>2026-02-02T14:39:31Z</time>
      </trkpt>
      <trkpt lat="45.98305" lon="6.56772">
        <ele>2195.2</ele>
        <time>2026-02-02T14:39:32Z</time>
      </trkpt>
      <trkpt lat="45.98305" lon="6.56772">
        <ele>2195.2</ele>
        <time>2026-02-02T14:39:33Z</time>
      </trkpt>
      <trkpt lat="45.98305" lon="6.56772">
        <ele>2196</ele>
        <time>2026-02-02T14:39:34Z</time>
      </trkpt>
      <trkpt lat="45.98305" lon="6.56773">
        <ele>2196</ele>
        <time>2026-02-02T14:39:35Z</time>
      </trkpt>
      <trkpt lat="45.98305" lon="6.56773">
        <ele>2196</ele>
        <time>2026-02-02T14:39:36Z</time>
      </trkpt>
      <trkpt lat="45.98305" lon="6.56773">
        <ele>2196</ele>
        <time>2026-02-02T14:39:37Z</time>
      </trkpt>
      <trkpt lat="45.98305" lon="6.56774">
        <ele>2196</ele>
        <time>2026-02-02T14:39:38Z</time>
      </trkpt>
      <trkpt lat="45.98305" lon="6.56774">
        <ele>2196</ele>
        <time>2026-02-02T14:39:39Z</time>
      </trkpt>
      <trkpt lat="45.98304" lon="6.56775">
        <ele>2196</ele>
        <time>2026-02-02T14:39:40Z</time>
      </trkpt>
      <trkpt lat="45.98304" lon="6.56775">
        <ele>2196</ele>
        <time>2026-02-02T14:39:41Z</time>
      </trkpt>
      <trkpt lat="45.98304" lon="6.56776">
        <ele>2196</ele>
        <time>2026-02-02T14:39:42Z</time>
      </trkpt>
      <trkpt lat="45.98304" lon="6.56778">
        <ele>2196.8</ele>
        <time>2026-02-02T14:39:43Z</time>
      </trkpt>
      <trkpt lat="45.98304" lon="6.56779">
        <ele>2196.8</ele>
        <time>2026-02-02T14:39:44Z</time>
      </trkpt>
      <trkpt lat="45.98304" lon="6.56781">
        <ele>2196.8</ele>
        <time>2026-02-02T14:39:45Z</time>
      </trkpt>
      <trkpt lat="45.98304" lon="6.56782">
        <ele>2197.6</ele>
        <time>2026-02-02T14:39:46Z</time>
      </trkpt>
      <trkpt lat="45.98304" lon="6.56783">
        <ele>2196.8</ele>
        <time>2026-02-02T14:39:47Z</time>
      </trkpt>
      <trkpt lat="45.98303" lon="6.56786">
        <ele>2197.5</ele>
        <time>2026-02-02T14:39:48Z</time>
      </trkpt>
      <trkpt lat="45.98303" lon="6.56787">
        <ele>2197.5</ele>
        <time>2026-02-02T14:39:49Z</time>
      </trkpt>
      <trkpt lat="45.98303" lon="6.56787">
        <ele>2197.5</ele>
        <time>2026-02-02T14:39:50Z</time>
      </trkpt>
      <trkpt lat="45.98303" lon="6.56788">
        <ele>2197.5</ele>
        <time>2026-02-02T14:39:51Z</time>
      </trkpt>
      <trkpt lat="45.98302" lon="6.5679">
        <ele>2198.3</ele>
        <time>2026-02-02T14:39:52Z</time>
      </trkpt>
      <trkpt lat="45.98302" lon="6.56792">
        <ele>2198.3</ele>
        <time>2026-02-02T14:39:53Z</time>
      </trkpt>
      <trkpt lat="45.98302" lon="6.56793">
        <ele>2198.3</ele>
        <time>2026-02-02T14:39:54Z</time>
      </trkpt>
      <trkpt lat="45.98302" lon="6.56795">
        <ele>2199</ele>
        <time>2026-02-02T14:39:55Z</time>
      </trkpt>
      <trkpt lat="45.98302" lon="6.56796">
        <ele>2199</ele>
        <time>2026-02-02T14:39:56Z</time>
      </trkpt>
      <trkpt lat="45.98302" lon="6.56797">
        <ele>2199</ele>
        <time>2026-02-02T14:39:57Z</time>
      </trkpt>
      <trkpt lat="45.98302" lon="6.56798">
        <ele>2199.7</ele>
        <time>2026-02-02T14:39:58Z</time>
      </trkpt>
      <trkpt lat="45.98301" lon="6.56799">
        <ele>2199.7</ele>
        <time>2026-02-02T14:39:59Z</time>
      </trkpt>
      <trkpt lat="45.98301" lon="6.56798">
        <ele>2199.7</ele>
        <time>2026-02-02T14:40:00Z</time>
      </trkpt>
      <trkpt lat="45.98302" lon="6.56798">
        <ele>2199</ele>
        <time>2026-02-02T14:40:01Z</time>
      </trkpt>
      <trkpt lat="45.98302" lon="6.56797">
        <ele>2199</ele>
        <time>2026-02-02T14:40:02Z</time>
      </trkpt>
      <trkpt lat="45.98302" lon="6.56796">
        <ele>2199</ele>
        <time>2026-02-02T14:40:03Z</time>
      </trkpt>
      <trkpt lat="45.98302" lon="6.56796">
        <ele>2199</ele>
        <time>2026-02-02T14:40:04Z</time>
      </trkpt>
      <trkpt lat="45.98302" lon="6.56796">
        <ele>2199</ele>
        <time>2026-02-02T14:40:05Z</time>
      </trkpt>
      <trkpt lat="45.98302" lon="6.56796">
        <ele>2199</ele>
        <time>2026-02-02T14:40:06Z</time>
      </trkpt>
      <trkpt lat="45.98302" lon="6.56796">
        <ele>2199</ele>
        <time>2026-02-02T14:40:07Z</time>
      </trkpt>
      <trkpt lat="45.98302" lon="6.56796">
        <ele>2199</ele>
        <time>2026-02-02T14:40:08Z</time>
      </trkpt>
      <trkpt lat="45.98302" lon="6.56796">
        <ele>2199</ele>
        <time>2026-02-02T14:40:09Z</time>
      </trkpt>
      <trkpt lat="45.98302" lon="6.56796">
        <ele>2199</ele>
        <time>2026-02-02T14:40:10Z</time>
      </trkpt>
      <trkpt lat="45.98302" lon="6.56796">
        <ele>2199</ele>
        <time>2026-02-02T14:40:11Z</time>
      </trkpt>
      <trkpt lat="45.98302" lon="6.56797">
        <ele>2199</ele>
        <time>2026-02-02T14:40:12Z</time>
      </trkpt>
      <trkpt lat="45.98302" lon="6.56797">
        <ele>2199</ele>
        <time>2026-02-02T14:40:13Z</time>
      </trkpt>
      <trkpt lat="45.98302" lon="6.56797">
        <ele>2199</ele>
        <time>2026-02-02T14:40:14Z</time>
      </trkpt>
      <trkpt lat="45.98302" lon="6.56797">
        <ele>2199</ele>
        <time>2026-02-02T14:40:15Z</time>
      </trkpt>
      <trkpt lat="45.98302" lon="6.56798">
        <ele>2199.7</ele>
        <time>2026-02-02T14:40:16Z</time>
      </trkpt>
      <trkpt lat="45.98302" lon="6.56799">
        <ele>2199.7</ele>
        <time>2026-02-02T14:40:17Z</time>
      </trkpt>
      <trkpt lat="45.98301" lon="6.56801">
        <ele>2199</ele>
        <time>2026-02-02T14:40:18Z</time>
      </trkpt>
      <trkpt lat="45.983" lon="6.56803">
        <ele>2199.7</ele>
        <time>2026-02-02T14:40:19Z</time>
      </trkpt>
      <trkpt lat="45.98299" lon="6.56805">
        <ele>2199.7</ele>
        <time>2026-02-02T14:40:20Z</time>
      </trkpt>
      <trkpt lat="45.98297" lon="6.56808">
        <ele>2199.9</ele>
        <time>2026-02-02T14:40:21Z</time>
      </trkpt>
      <trkpt lat="45.98297" lon="6.56808">
        <ele>2199.9</ele>
        <time>2026-02-02T14:40:22Z</time>
      </trkpt>
      <trkpt lat="45.98296" lon="6.56809">
        <ele>2199.9</ele>
        <time>2026-02-02T14:40:23Z</time>
      </trkpt>
      <trkpt lat="45.98296" lon="6.56811">
        <ele>2199.9</ele>
        <time>2026-02-02T14:40:24Z</time>
      </trkpt>
      <trkpt lat="45.98295" lon="6.56812">
        <ele>2200.8</ele>
        <time>2026-02-02T14:40:25Z</time>
      </trkpt>
      <trkpt lat="45.98294" lon="6.56812">
        <ele>2200.3</ele>
        <time>2026-02-02T14:40:26Z</time>
      </trkpt>
      <trkpt lat="45.98294" lon="6.56813">
        <ele>2200.3</ele>
        <time>2026-02-02T14:40:27Z</time>
      </trkpt>
      <trkpt lat="45.98293" lon="6.56813">
        <ele>2200.3</ele>
        <time>2026-02-02T14:40:28Z</time>
      </trkpt>
      <trkpt lat="45.98293" lon="6.56814">
        <ele>2200.3</ele>
        <time>2026-02-02T14:40:29Z</time>
      </trkpt>
      <trkpt lat="45.98292" lon="6.56815">
        <ele>2201.2</ele>
        <time>2026-02-02T14:40:30Z</time>
      </trkpt>
      <trkpt lat="45.98292" lon="6.56816">
        <ele>2201.2</ele>
        <time>2026-02-02T14:40:31Z</time>
      </trkpt>
      <trkpt lat="45.98292" lon="6.56817">
        <ele>2200.7</ele>
        <time>2026-02-02T14:40:32Z</time>
      </trkpt>
      <trkpt lat="45.98291" lon="6.56818">
        <ele>2200.7</ele>
        <time>2026-02-02T14:40:33Z</time>
      </trkpt>
      <trkpt lat="45.98291" lon="6.56819">
        <ele>2200.7</ele>
        <time>2026-02-02T14:40:34Z</time>
      </trkpt>
      <trkpt lat="45.98291" lon="6.56821">
        <ele>2201.6</ele>
        <time>2026-02-02T14:40:35Z</time>
      </trkpt>
      <trkpt lat="45.98291" lon="6.56822">
        <ele>2201.6</ele>
        <time>2026-02-02T14:40:36Z</time>
      </trkpt>
      <trkpt lat="45.98292" lon="6.56822">
        <ele>2202</ele>
        <time>2026-02-02T14:40:37Z</time>
      </trkpt>
      <trkpt lat="45.98293" lon="6.56823">
        <ele>2202</ele>
        <time>2026-02-02T14:40:38Z</time>
      </trkpt>
      <trkpt lat="45.98293" lon="6.56822">
        <ele>2202</ele>
        <time>2026-02-02T14:40:39Z</time>
      </trkpt>
      <trkpt lat="45.98293" lon="6.56821">
        <ele>2202</ele>
        <time>2026-02-02T14:40:40Z</time>
      </trkpt>
      <trkpt lat="45.98293" lon="6.56821">
        <ele>2202</ele>
        <time>2026-02-02T14:40:41Z</time>
      </trkpt>
      <trkpt lat="45.98292" lon="6.5682">
        <ele>2202</ele>
        <time>2026-02-02T14:40:42Z</time>
      </trkpt>
      <trkpt lat="45.98292" lon="6.5682">
        <ele>2202</ele>
        <time>2026-02-02T14:40:43Z</time>
      </trkpt>
      <trkpt lat="45.98292" lon="6.5682">
        <ele>2202</ele>
        <time>2026-02-02T14:40:44Z</time>
      </trkpt>
      <trkpt lat="45.98292" lon="6.5682">
        <ele>2202</ele>
        <time>2026-02-02T14:40:45Z</time>
      </trkpt>
      <trkpt lat="45.98292" lon="6.5682">
        <ele>2202</ele>
        <time>2026-02-02T14:40:46Z</time>
      </trkpt>
      <trkpt lat="45.98292" lon="6.5682">
        <ele>2201.6</ele>
        <time>2026-02-02T14:40:47Z</time>
      </trkpt>
      <trkpt lat="45.98292" lon="6.5682">
        <ele>2201.6</ele>
        <time>2026-02-02T14:40:48Z</time>
      </trkpt>
      <trkpt lat="45.98291" lon="6.5682">
        <ele>2201.6</ele>
        <time>2026-02-02T14:40:49Z</time>
      </trkpt>
      <trkpt lat="45.98291" lon="6.5682">
        <ele>2201.6</ele>
        <time>2026-02-02T14:40:50Z</time>
      </trkpt>
      <trkpt lat="45.98291" lon="6.5682">
        <ele>2201.6</ele>
        <time>2026-02-02T14:40:51Z</time>
      </trkpt>
      <trkpt lat="45.98291" lon="6.56819">
        <ele>2201.6</ele>
        <time>2026-02-02T14:40:52Z</time>
      </trkpt>
      <trkpt lat="45.98291" lon="6.56819">
        <ele>2200.7</ele>
        <time>2026-02-02T14:40:53Z</time>
      </trkpt>
      <trkpt lat="45.98291" lon="6.56819">
        <ele>2200.7</ele>
        <time>2026-02-02T14:40:54Z</time>
      </trkpt>
      <trkpt lat="45.98291" lon="6.56819">
        <ele>2200.7</ele>
        <time>2026-02-02T14:40:55Z</time>
      </trkpt>
      <trkpt lat="45.98291" lon="6.56819">
        <ele>2200.7</ele>
        <time>2026-02-02T14:40:56Z</time>
      </trkpt>
      <trkpt lat="45.9829" lon="6.5682">
        <ele>2201.6</ele>
        <time>2026-02-02T14:40:57Z</time>
      </trkpt>
      <trkpt lat="45.9829" lon="6.5682">
        <ele>2201.6</ele>
        <time>2026-02-02T14:40:58Z</time>
      </trkpt>
      <trkpt lat="45.9829" lon="6.5682">
        <ele>2201.6</ele>
        <time>2026-02-02T14:40:59Z</time>
      </trkpt>
      <trkpt lat="45.98289" lon="6.5682">
        <ele>2201.6</ele>
        <time>2026-02-02T14:41:00Z</time>
      </trkpt>
      <trkpt lat="45.98289" lon="6.5682">
        <ele>2201.6</ele>
        <time>2026-02-02T14:41:01Z</time>
      </trkpt>
      <trkpt lat="45.98289" lon="6.5682">
        <ele>2201.6</ele>
        <time>2026-02-02T14:41:02Z</time>
      </trkpt>
      <trkpt lat="45.98289" lon="6.5682">
        <ele>2201.1</ele>
        <time>2026-02-02T14:41:03Z</time>
      </trkpt>
      <trkpt lat="45.98289" lon="6.5682">
        <ele>2201.1</ele>
        <time>2026-02-02T14:41:04Z</time>
      </trkpt>
      <trkpt lat="45.98289" lon="6.5682">
        <ele>2201.1</ele>
        <time>2026-02-02T14:41:05Z</time>
      </trkpt>
      <trkpt lat="45.98289" lon="6.5682">
        <ele>2201.1</ele>
        <time>2026-02-02T14:41:06Z</time>
      </trkpt>
      <trkpt lat="45.98289" lon="6.5682">
        <ele>2201.1</ele>
        <time>2026-02-02T14:41:07Z</time>
      </trkpt>
      <trkpt lat="45.98289" lon="6.5682">
        <ele>2201.1</ele>
        <time>2026-02-02T14:41:08Z</time>
      </trkpt>
      <trkpt lat="45.98288" lon="6.5682">
        <ele>2201.1</ele>
        <time>2026-02-02T14:41:09Z</time>
      </trkpt>
      <trkpt lat="45.98288" lon="6.56821">
        <ele>2201.1</ele>
        <time>2026-02-02T14:41:10Z</time>
      </trkpt>
      <trkpt lat="45.98288" lon="6.56821">
        <ele>2201.1</ele>
        <time>2026-02-02T14:41:11Z</time>
      </trkpt>
      <trkpt lat="45.98289" lon="6.56821">
        <ele>2201.1</ele>
        <time>2026-02-02T14:41:12Z</time>
      </trkpt>
      <trkpt lat="45.98288" lon="6.56822">
        <ele>2201.1</ele>
        <time>2026-02-02T14:41:13Z</time>
      </trkpt>
      <trkpt lat="45.98288" lon="6.56822">
        <ele>2201.1</ele>
        <time>2026-02-02T14:41:14Z</time>
      </trkpt>
      <trkpt lat="45.98288" lon="6.56822">
        <ele>2201.1</ele>
        <time>2026-02-02T14:41:15Z</time>
      </trkpt>
      <trkpt lat="45.98288" lon="6.56822">
        <ele>2201.1</ele>
        <time>2026-02-02T14:41:16Z</time>
      </trkpt>
      <trkpt lat="45.98288" lon="6.56822">
        <ele>2201.1</ele>
        <time>2026-02-02T14:41:17Z</time>
      </trkpt>
      <trkpt lat="45.98288" lon="6.56823">
        <ele>2201.1</ele>
        <time>2026-02-02T14:41:18Z</time>
      </trkpt>
      <trkpt lat="45.98289" lon="6.56823">
        <ele>2201.1</ele>
        <time>2026-02-02T14:41:19Z</time>
      </trkpt>
      <trkpt lat="45.98288" lon="6.56823">
        <ele>2201.1</ele>
        <time>2026-02-02T14:41:20Z</time>
      </trkpt>
      <trkpt lat="45.98289" lon="6.56822">
        <ele>2201.1</ele>
        <time>2026-02-02T14:41:21Z</time>
      </trkpt>
      <trkpt lat="45.98289" lon="6.56822">
        <ele>2201.1</ele>
        <time>2026-02-02T14:41:22Z</time>
      </trkpt>
      <trkpt lat="45.98289" lon="6.56822">
        <ele>2201.1</ele>
        <time>2026-02-02T14:41:23Z</time>
      </trkpt>
      <trkpt lat="45.98288" lon="6.56822">
        <ele>2201.1</ele>
        <time>2026-02-02T14:41:24Z</time>
      </trkpt>
      <trkpt lat="45.98288" lon="6.56822">
        <ele>2201.1</ele>
        <time>2026-02-02T14:41:25Z</time>
      </trkpt>
      <trkpt lat="45.98288" lon="6.56823">
        <ele>2201.1</ele>
        <time>2026-02-02T14:41:26Z</time>
      </trkpt>
      <trkpt lat="45.98288" lon="6.56823">
        <ele>2201.1</ele>
        <time>2026-02-02T14:41:27Z</time>
      </trkpt>
      <trkpt lat="45.98288" lon="6.56824">
        <ele>2201.1</ele>
        <time>2026-02-02T14:41:28Z</time>
      </trkpt>
      <trkpt lat="45.98288" lon="6.56824">
        <ele>2201.1</ele>
        <time>2026-02-02T14:41:29Z</time>
      </trkpt>
      <trkpt lat="45.98288" lon="6.56824">
        <ele>2201.1</ele>
        <time>2026-02-02T14:41:30Z</time>
      </trkpt>
      <trkpt lat="45.98288" lon="6.56824">
        <ele>2202</ele>
        <time>2026-02-02T14:41:31Z</time>
      </trkpt>
      <trkpt lat="45.98288" lon="6.56825">
        <ele>2202</ele>
        <time>2026-02-02T14:41:32Z</time>
      </trkpt>
      <trkpt lat="45.98289" lon="6.56825">
        <ele>2202</ele>
        <time>2026-02-02T14:41:33Z</time>
      </trkpt>
      <trkpt lat="45.98289" lon="6.56827">
        <ele>2202</ele>
        <time>2026-02-02T14:41:34Z</time>
      </trkpt>
      <trkpt lat="45.98289" lon="6.56828">
        <ele>2202.9</ele>
        <time>2026-02-02T14:41:35Z</time>
      </trkpt>
      <trkpt lat="45.98289" lon="6.56829">
        <ele>2202.9</ele>
        <time>2026-02-02T14:41:36Z</time>
      </trkpt>
      <trkpt lat="45.98289" lon="6.5683">
        <ele>2202.9</ele>
        <time>2026-02-02T14:41:37Z</time>
      </trkpt>
      <trkpt lat="45.98289" lon="6.56832">
        <ele>2202.9</ele>
        <time>2026-02-02T14:41:38Z</time>
      </trkpt>
      <trkpt lat="45.98288" lon="6.56834">
        <ele>2203.7</ele>
        <time>2026-02-02T14:41:39Z</time>
      </trkpt>
      <trkpt lat="45.98288" lon="6.56836">
        <ele>2203.7</ele>
        <time>2026-02-02T14:41:40Z</time>
      </trkpt>
      <trkpt lat="45.98287" lon="6.56838">
        <ele>2204.5</ele>
        <time>2026-02-02T14:41:41Z</time>
      </trkpt>
      <trkpt lat="45.98287" lon="6.56839">
        <ele>2204.5</ele>
        <time>2026-02-02T14:41:42Z</time>
      </trkpt>
      <trkpt lat="45.98287" lon="6.56839">
        <ele>2204.5</ele>
        <time>2026-02-02T14:41:43Z</time>
      </trkpt>
      <trkpt lat="45.98288" lon="6.5684">
        <ele>2204.5</ele>
        <time>2026-02-02T14:41:44Z</time>
      </trkpt>
      <trkpt lat="45.9829" lon="6.56839">
        <ele>2204.9</ele>
        <time>2026-02-02T14:41:45Z</time>
      </trkpt>
      <trkpt lat="45.98291" lon="6.5684">
        <ele>2204.9</ele>
        <time>2026-02-02T14:41:46Z</time>
      </trkpt>
      <trkpt lat="45.98292" lon="6.56839">
        <ele>2205.3</ele>
        <time>2026-02-02T14:41:47Z</time>
      </trkpt>
      <trkpt lat="45.98293" lon="6.5684">
        <ele>2205.3</ele>
        <time>2026-02-02T14:41:48Z</time>
      </trkpt>
      <trkpt lat="45.98293" lon="6.5684">
        <ele>2205.3</ele>
        <time>2026-02-02T14:41:49Z</time>
      </trkpt>
      <trkpt lat="45.98293" lon="6.56842">
        <ele>2206</ele>
        <time>2026-02-02T14:41:50Z</time>
      </trkpt>
      <trkpt lat="45.98293" lon="6.56843">
        <ele>2206</ele>
        <time>2026-02-02T14:41:51Z</time>
      </trkpt>
      <trkpt lat="45.98293" lon="6.56844">
        <ele>2206</ele>
        <time>2026-02-02T14:41:52Z</time>
      </trkpt>
      <trkpt lat="45.98292" lon="6.56846">
        <ele>2206.7</ele>
        <time>2026-02-02T14:41:53Z</time>
      </trkpt>
      <trkpt lat="45.98292" lon="6.56847">
        <ele>2206.7</ele>
        <time>2026-02-02T14:41:54Z</time>
      </trkpt>
      <trkpt lat="45.98292" lon="6.56848">
        <ele>2206.7</ele>
        <time>2026-02-02T14:41:55Z</time>
      </trkpt>
      <trkpt lat="45.98292" lon="6.5685">
        <ele>2207.4</ele>
        <time>2026-02-02T14:41:56Z</time>
      </trkpt>
      <trkpt lat="45.98293" lon="6.56851">
        <ele>2207.4</ele>
        <time>2026-02-02T14:41:57Z</time>
      </trkpt>
      <trkpt lat="45.98293" lon="6.56851">
        <ele>2207.4</ele>
        <time>2026-02-02T14:41:58Z</time>
      </trkpt>
      <trkpt lat="45.98293" lon="6.5685">
        <ele>2207.4</ele>
        <time>2026-02-02T14:41:59Z</time>
      </trkpt>
      <trkpt lat="45.98293" lon="6.5685">
        <ele>2207.4</ele>
        <time>2026-02-02T14:42:00Z</time>
      </trkpt>
      <trkpt lat="45.98292" lon="6.56849">
        <ele>2207.4</ele>
        <time>2026-02-02T14:42:01Z</time>
      </trkpt>
      <trkpt lat="45.98292" lon="6.56849">
        <ele>2206.7</ele>
        <time>2026-02-02T14:42:02Z</time>
      </trkpt>
      <trkpt lat="45.98292" lon="6.56849">
        <ele>2206.4</ele>
        <time>2026-02-02T14:42:03Z</time>
      </trkpt>
      <trkpt lat="45.98291" lon="6.56849">
        <ele>2206.4</ele>
        <time>2026-02-02T14:42:04Z</time>
      </trkpt>
      <trkpt lat="45.98291" lon="6.56849">
        <ele>2206.4</ele>
        <time>2026-02-02T14:42:05Z</time>
      </trkpt>
      <trkpt lat="45.98291" lon="6.56849">
        <ele>2206.4</ele>
        <time>2026-02-02T14:42:06Z</time>
      </trkpt>
      <trkpt lat="45.98291" lon="6.56849">
        <ele>2206.4</ele>
        <time>2026-02-02T14:42:07Z</time>
      </trkpt>
      <trkpt lat="45.98291" lon="6.56849">
        <ele>2206.4</ele>
        <time>2026-02-02T14:42:08Z</time>
      </trkpt>
      <trkpt lat="45.98291" lon="6.56849">
        <ele>2206.4</ele>
        <time>2026-02-02T14:42:09Z</time>
      </trkpt>
      <trkpt lat="45.98291" lon="6.56849">
        <ele>2206.4</ele>
        <time>2026-02-02T14:42:10Z</time>
      </trkpt>
      <trkpt lat="45.98291" lon="6.56849">
        <ele>2206.4</ele>
        <time>2026-02-02T14:42:11Z</time>
      </trkpt>
      <trkpt lat="45.98291" lon="6.56849">
        <ele>2206.4</ele>
        <time>2026-02-02T14:42:12Z</time>
      </trkpt>
      <trkpt lat="45.98291" lon="6.56849">
        <ele>2206.4</ele>
        <time>2026-02-02T14:42:13Z</time>
      </trkpt>
      <trkpt lat="45.9829" lon="6.56849">
        <ele>2206.4</ele>
        <time>2026-02-02T14:42:14Z</time>
      </trkpt>
      <trkpt lat="45.9829" lon="6.56848">
        <ele>2206.4</ele>
        <time>2026-02-02T14:42:15Z</time>
      </trkpt>
      <trkpt lat="45.9829" lon="6.56848">
        <ele>2206.4</ele>
        <time>2026-02-02T14:42:16Z</time>
      </trkpt>
      <trkpt lat="45.9829" lon="6.56848">
        <ele>2206.4</ele>
        <time>2026-02-02T14:42:17Z</time>
      </trkpt>
      <trkpt lat="45.98291" lon="6.56848">
        <ele>2206.4</ele>
        <time>2026-02-02T14:42:18Z</time>
      </trkpt>
      <trkpt lat="45.98291" lon="6.56848">
        <ele>2206.4</ele>
        <time>2026-02-02T14:42:19Z</time>
      </trkpt>
      <trkpt lat="45.98291" lon="6.56848">
        <ele>2206.4</ele>
        <time>2026-02-02T14:42:20Z</time>
      </trkpt>
      <trkpt lat="45.98291" lon="6.56848">
        <ele>2206.4</ele>
        <time>2026-02-02T14:42:21Z</time>
      </trkpt>
      <trkpt lat="45.98291" lon="6.56848">
        <ele>2206.4</ele>
        <time>2026-02-02T14:42:22Z</time>
      </trkpt>
      <trkpt lat="45.98291" lon="6.56848">
        <ele>2206.4</ele>
        <time>2026-02-02T14:42:23Z</time>
      </trkpt>
      <trkpt lat="45.98292" lon="6.56848">
        <ele>2206.7</ele>
        <time>2026-02-02T14:42:24Z</time>
      </trkpt>
      <trkpt lat="45.98292" lon="6.56848">
        <ele>2206.7</ele>
        <time>2026-02-02T14:42:25Z</time>
      </trkpt>
      <trkpt lat="45.98293" lon="6.56849">
        <ele>2206.7</ele>
        <time>2026-02-02T14:42:26Z</time>
      </trkpt>
      <trkpt lat="45.98293" lon="6.56849">
        <ele>2206.7</ele>
        <time>2026-02-02T14:42:27Z</time>
      </trkpt>
      <trkpt lat="45.98294" lon="6.5685">
        <ele>2207.4</ele>
        <time>2026-02-02T14:42:28Z</time>
      </trkpt>
      <trkpt lat="45.98294" lon="6.56851">
        <ele>2207.4</ele>
        <time>2026-02-02T14:42:29Z</time>
      </trkpt>
      <trkpt lat="45.98295" lon="6.56852">
        <ele>2207.8</ele>
        <time>2026-02-02T14:42:30Z</time>
      </trkpt>
      <trkpt lat="45.98296" lon="6.56853">
        <ele>2207.8</ele>
        <time>2026-02-02T14:42:31Z</time>
      </trkpt>
      <trkpt lat="45.98296" lon="6.56854">
        <ele>2208.5</ele>
        <time>2026-02-02T14:42:32Z</time>
      </trkpt>
      <trkpt lat="45.98297" lon="6.56855">
        <ele>2208.5</ele>
        <time>2026-02-02T14:42:33Z</time>
      </trkpt>
      <trkpt lat="45.98297" lon="6.56856">
        <ele>2208.5</ele>
        <time>2026-02-02T14:42:34Z</time>
      </trkpt>
      <trkpt lat="45.98297" lon="6.56858">
        <ele>2209.2</ele>
        <time>2026-02-02T14:42:35Z</time>
      </trkpt>
      <trkpt lat="45.98298" lon="6.5686">
        <ele>2209.6</ele>
        <time>2026-02-02T14:42:36Z</time>
      </trkpt>
      <trkpt lat="45.98299" lon="6.56861">
        <ele>2209.6</ele>
        <time>2026-02-02T14:42:37Z</time>
      </trkpt>
      <trkpt lat="45.983" lon="6.56861">
        <ele>2209.6</ele>
        <time>2026-02-02T14:42:38Z</time>
      </trkpt>
      <trkpt lat="45.98301" lon="6.56862">
        <ele>2209.6</ele>
        <time>2026-02-02T14:42:39Z</time>
      </trkpt>
      <trkpt lat="45.98302" lon="6.56862">
        <ele>2210</ele>
        <time>2026-02-02T14:42:40Z</time>
      </trkpt>
      <trkpt lat="45.98303" lon="6.56862">
        <ele>2210</ele>
        <time>2026-02-02T14:42:41Z</time>
      </trkpt>
      <trkpt lat="45.98303" lon="6.56861">
        <ele>2210</ele>
        <time>2026-02-02T14:42:42Z</time>
      </trkpt>
      <trkpt lat="45.98303" lon="6.56861">
        <ele>2210</ele>
        <time>2026-02-02T14:42:43Z</time>
      </trkpt>
      <trkpt lat="45.98303" lon="6.56861">
        <ele>2210</ele>
        <time>2026-02-02T14:42:44Z</time>
      </trkpt>
      <trkpt lat="45.98303" lon="6.56861">
        <ele>2210</ele>
        <time>2026-02-02T14:42:45Z</time>
      </trkpt>
      <trkpt lat="45.98303" lon="6.56861">
        <ele>2210</ele>
        <time>2026-02-02T14:42:46Z</time>
      </trkpt>
      <trkpt lat="45.98303" lon="6.56861">
        <ele>2210</ele>
        <time>2026-02-02T14:42:47Z</time>
      </trkpt>
      <trkpt lat="45.98302" lon="6.56861">
        <ele>2210</ele>
        <time>2026-02-02T14:42:48Z</time>
      </trkpt>
      <trkpt lat="45.98302" lon="6.56862">
        <ele>2210</ele>
        <time>2026-02-02T14:42:49Z</time>
      </trkpt>
      <trkpt lat="45.98302" lon="6.56862">
        <ele>2210</ele>
        <time>2026-02-02T14:42:50Z</time>
      </trkpt>
      <trkpt lat="45.98302" lon="6.56862">
        <ele>2210.7</ele>
        <time>2026-02-02T14:42:51Z</time>
      </trkpt>
      <trkpt lat="45.98302" lon="6.56863">
        <ele>2210.7</ele>
        <time>2026-02-02T14:42:52Z</time>
      </trkpt>
      <trkpt lat="45.98303" lon="6.56863">
        <ele>2210.7</ele>
        <time>2026-02-02T14:42:53Z</time>
      </trkpt>
      <trkpt lat="45.98304" lon="6.56864">
        <ele>2211.1</ele>
        <time>2026-02-02T14:42:54Z</time>
      </trkpt>
      <trkpt lat="45.98306" lon="6.56866">
        <ele>2211.1</ele>
        <time>2026-02-02T14:42:55Z</time>
      </trkpt>
      <trkpt lat="45.98307" lon="6.56867">
        <ele>2211.8</ele>
        <time>2026-02-02T14:42:56Z</time>
      </trkpt>
      <trkpt lat="45.98307" lon="6.56868">
        <ele>2212.2</ele>
        <time>2026-02-02T14:42:57Z</time>
      </trkpt>
      <trkpt lat="45.98308" lon="6.5687">
        <ele>2212.2</ele>
        <time>2026-02-02T14:42:58Z</time>
      </trkpt>
      <trkpt lat="45.98308" lon="6.56871">
        <ele>2212.2</ele>
        <time>2026-02-02T14:42:59Z</time>
      </trkpt>
      <trkpt lat="45.98308" lon="6.56872">
        <ele>2212.8</ele>
        <time>2026-02-02T14:43:00Z</time>
      </trkpt>
      <trkpt lat="45.98308" lon="6.56873">
        <ele>2212.8</ele>
        <time>2026-02-02T14:43:01Z</time>
      </trkpt>
      <trkpt lat="45.98308" lon="6.56874">
        <ele>2212.8</ele>
        <time>2026-02-02T14:43:02Z</time>
      </trkpt>
      <trkpt lat="45.98308" lon="6.56875">
        <ele>2212.8</ele>
        <time>2026-02-02T14:43:03Z</time>
      </trkpt>
      <trkpt lat="45.98309" lon="6.56876">
        <ele>2213.5</ele>
        <time>2026-02-02T14:43:04Z</time>
      </trkpt>
      <trkpt lat="45.9831" lon="6.56876">
        <ele>2213.5</ele>
        <time>2026-02-02T14:43:05Z</time>
      </trkpt>
      <trkpt lat="45.9831" lon="6.56876">
        <ele>2213.5</ele>
        <time>2026-02-02T14:43:06Z</time>
      </trkpt>
      <trkpt lat="45.98309" lon="6.56875">
        <ele>2213.5</ele>
        <time>2026-02-02T14:43:07Z</time>
      </trkpt>
      <trkpt lat="45.98307" lon="6.56876">
        <ele>2213.5</ele>
        <time>2026-02-02T14:43:08Z</time>
      </trkpt>
      <trkpt lat="45.98307" lon="6.56876">
        <ele>2213.5</ele>
        <time>2026-02-02T14:43:09Z</time>
      </trkpt>
      <trkpt lat="45.98306" lon="6.56875">
        <ele>2213.1</ele>
        <time>2026-02-02T14:43:10Z</time>
      </trkpt>
      <trkpt lat="45.98306" lon="6.56875">
        <ele>2213.1</ele>
        <time>2026-02-02T14:43:11Z</time>
      </trkpt>
      <trkpt lat="45.98306" lon="6.56875">
        <ele>2212.4</ele>
        <time>2026-02-02T14:43:12Z</time>
      </trkpt>
      <trkpt lat="45.98306" lon="6.56875">
        <ele>2212.4</ele>
        <time>2026-02-02T14:43:13Z</time>
      </trkpt>
      <trkpt lat="45.98305" lon="6.56875">
        <ele>2212.4</ele>
        <time>2026-02-02T14:43:14Z</time>
      </trkpt>
      <trkpt lat="45.98305" lon="6.56875">
        <ele>2212.4</ele>
        <time>2026-02-02T14:43:15Z</time>
      </trkpt>
      <trkpt lat="45.98305" lon="6.56875">
        <ele>2212.4</ele>
        <time>2026-02-02T14:43:16Z</time>
      </trkpt>
      <trkpt lat="45.98305" lon="6.56874">
        <ele>2212.4</ele>
        <time>2026-02-02T14:43:17Z</time>
      </trkpt>
      <trkpt lat="45.98305" lon="6.56874">
        <ele>2212.4</ele>
        <time>2026-02-02T14:43:18Z</time>
      </trkpt>
      <trkpt lat="45.98305" lon="6.56874">
        <ele>2212.4</ele>
        <time>2026-02-02T14:43:19Z</time>
      </trkpt>
      <trkpt lat="45.98305" lon="6.56874">
        <ele>2212.4</ele>
        <time>2026-02-02T14:43:20Z</time>
      </trkpt>
      <trkpt lat="45.98305" lon="6.56874">
        <ele>2212.4</ele>
        <time>2026-02-02T14:43:21Z</time>
      </trkpt>
      <trkpt lat="45.98304" lon="6.56874">
        <ele>2212.4</ele>
        <time>2026-02-02T14:43:22Z</time>
      </trkpt>
      <trkpt lat="45.98304" lon="6.56874">
        <ele>2212.4</ele>
        <time>2026-02-02T14:43:23Z</time>
      </trkpt>
      <trkpt lat="45.98303" lon="6.56872">
        <ele>2212.1</ele>
        <time>2026-02-02T14:43:24Z</time>
      </trkpt>
      <trkpt lat="45.98303" lon="6.56872">
        <ele>2212.1</ele>
        <time>2026-02-02T14:43:25Z</time>
      </trkpt>
      <trkpt lat="45.98303" lon="6.56872">
        <ele>2212.1</ele>
        <time>2026-02-02T14:43:26Z</time>
      </trkpt>
      <trkpt lat="45.98303" lon="6.56873">
        <ele>2212.1</ele>
        <time>2026-02-02T14:43:27Z</time>
      </trkpt>
      <trkpt lat="45.98303" lon="6.56873">
        <ele>2212.1</ele>
        <time>2026-02-02T14:43:28Z</time>
      </trkpt>
      <trkpt lat="45.98304" lon="6.56874">
        <ele>2212.4</ele>
        <time>2026-02-02T14:43:29Z</time>
      </trkpt>
      <trkpt lat="45.98304" lon="6.56874">
        <ele>2212.4</ele>
        <time>2026-02-02T14:43:30Z</time>
      </trkpt>
      <trkpt lat="45.98304" lon="6.56874">
        <ele>2212.4</ele>
        <time>2026-02-02T14:43:31Z</time>
      </trkpt>
      <trkpt lat="45.98304" lon="6.56874">
        <ele>2212.4</ele>
        <time>2026-02-02T14:43:32Z</time>
      </trkpt>
      <trkpt lat="45.98304" lon="6.56874">
        <ele>2212.4</ele>
        <time>2026-02-02T14:43:33Z</time>
      </trkpt>
      <trkpt lat="45.98304" lon="6.56874">
        <ele>2212.4</ele>
        <time>2026-02-02T14:43:34Z</time>
      </trkpt>
      <trkpt lat="45.98304" lon="6.56874">
        <ele>2212.4</ele>
        <time>2026-02-02T14:43:35Z</time>
      </trkpt>
      <trkpt lat="45.98305" lon="6.56874">
        <ele>2212.4</ele>
        <time>2026-02-02T14:43:36Z</time>
      </trkpt>
      <trkpt lat="45.98305" lon="6.56875">
        <ele>2212.4</ele>
        <time>2026-02-02T14:43:37Z</time>
      </trkpt>
      <trkpt lat="45.98305" lon="6.56876">
        <ele>2213.1</ele>
        <time>2026-02-02T14:43:38Z</time>
      </trkpt>
      <trkpt lat="45.98305" lon="6.56876">
        <ele>2213.1</ele>
        <time>2026-02-02T14:43:39Z</time>
      </trkpt>
      <trkpt lat="45.98306" lon="6.56877">
        <ele>2213.1</ele>
        <time>2026-02-02T14:43:40Z</time>
      </trkpt>
      <trkpt lat="45.98306" lon="6.56877">
        <ele>2213.1</ele>
        <time>2026-02-02T14:43:41Z</time>
      </trkpt>
      <trkpt lat="45.98306" lon="6.56878">
        <ele>2213.1</ele>
        <time>2026-02-02T14:43:42Z</time>
      </trkpt>
      <trkpt lat="45.98306" lon="6.56878">
        <ele>2213.1</ele>
        <time>2026-02-02T14:43:43Z</time>
      </trkpt>
      <trkpt lat="45.98306" lon="6.56878">
        <ele>2213.1</ele>
        <time>2026-02-02T14:43:44Z</time>
      </trkpt>
      <trkpt lat="45.98306" lon="6.56878">
        <ele>2213.1</ele>
        <time>2026-02-02T14:43:45Z</time>
      </trkpt>
      <trkpt lat="45.98307" lon="6.56878">
        <ele>2213.1</ele>
        <time>2026-02-02T14:43:46Z</time>
      </trkpt>
      <trkpt lat="45.98307" lon="6.56878">
        <ele>2213.1</ele>
        <time>2026-02-02T14:43:47Z</time>
      </trkpt>
      <trkpt lat="45.98307" lon="6.56878">
        <ele>2213.1</ele>
        <time>2026-02-02T14:43:48Z</time>
      </trkpt>
      <trkpt lat="45.98307" lon="6.56878">
        <ele>2213.1</ele>
        <time>2026-02-02T14:43:49Z</time>
      </trkpt>
      <trkpt lat="45.98307" lon="6.56879">
        <ele>2213.1</ele>
        <time>2026-02-02T14:43:50Z</time>
      </trkpt>
      <trkpt lat="45.98307" lon="6.56879">
        <ele>2213.5</ele>
        <time>2026-02-02T14:43:51Z</time>
      </trkpt>
      <trkpt lat="45.98307" lon="6.5688">
        <ele>2214.1</ele>
        <time>2026-02-02T14:43:52Z</time>
      </trkpt>
      <trkpt lat="45.98309" lon="6.56882">
        <ele>2214.1</ele>
        <time>2026-02-02T14:43:53Z</time>
      </trkpt>
      <trkpt lat="45.98309" lon="6.56882">
        <ele>2214.1</ele>
        <time>2026-02-02T14:43:54Z</time>
      </trkpt>
      <trkpt lat="45.9831" lon="6.56883">
        <ele>2214.5</ele>
        <time>2026-02-02T14:43:55Z</time>
      </trkpt>
      <trkpt lat="45.98311" lon="6.56884">
        <ele>2215.2</ele>
        <time>2026-02-02T14:43:56Z</time>
      </trkpt>
      <trkpt lat="45.98312" lon="6.56884">
        <ele>2215.2</ele>
        <time>2026-02-02T14:43:57Z</time>
      </trkpt>
      <trkpt lat="45.98314" lon="6.56884">
        <ele>2214.9</ele>
        <time>2026-02-02T14:43:58Z</time>
      </trkpt>
      <trkpt lat="45.98315" lon="6.56884">
        <ele>2214.9</ele>
        <time>2026-02-02T14:43:59Z</time>
      </trkpt>
      <trkpt lat="45.98315" lon="6.56884">
        <ele>2214.9</ele>
        <time>2026-02-02T14:44:00Z</time>
      </trkpt>
      <trkpt lat="45.98316" lon="6.56884">
        <ele>2216</ele>
        <time>2026-02-02T14:44:01Z</time>
      </trkpt>
      <trkpt lat="45.98317" lon="6.56884">
        <ele>2216</ele>
        <time>2026-02-02T14:44:02Z</time>
      </trkpt>
      <trkpt lat="45.98318" lon="6.56886">
        <ele>2216</ele>
        <time>2026-02-02T14:44:03Z</time>
      </trkpt>
      <trkpt lat="45.98319" lon="6.56886">
        <ele>2216</ele>
        <time>2026-02-02T14:44:04Z</time>
      </trkpt>
      <trkpt lat="45.98319" lon="6.56887">
        <ele>2216.4</ele>
        <time>2026-02-02T14:44:05Z</time>
      </trkpt>
      <trkpt lat="45.98319" lon="6.56888">
        <ele>2217</ele>
        <time>2026-02-02T14:44:06Z</time>
      </trkpt>
      <trkpt lat="45.9832" lon="6.5689">
        <ele>2217</ele>
        <time>2026-02-02T14:44:07Z</time>
      </trkpt>
      <trkpt lat="45.9832" lon="6.5689">
        <ele>2217</ele>
        <time>2026-02-02T14:44:08Z</time>
      </trkpt>
      <trkpt lat="45.9832" lon="6.56891">
        <ele>2217</ele>
        <time>2026-02-02T14:44:09Z</time>
      </trkpt>
      <trkpt lat="45.98321" lon="6.56893">
        <ele>2217.7</ele>
        <time>2026-02-02T14:44:10Z</time>
      </trkpt>
      <trkpt lat="45.98322" lon="6.56892">
        <ele>2217.7</ele>
        <time>2026-02-02T14:44:11Z</time>
      </trkpt>
      <trkpt lat="45.98322" lon="6.56892">
        <ele>2218.1</ele>
        <time>2026-02-02T14:44:12Z</time>
      </trkpt>
      <trkpt lat="45.98322" lon="6.56892">
        <ele>2217.5</ele>
        <time>2026-02-02T14:44:13Z</time>
      </trkpt>
      <trkpt lat="45.98322" lon="6.56892">
        <ele>2217.5</ele>
        <time>2026-02-02T14:44:14Z</time>
      </trkpt>
      <trkpt lat="45.98322" lon="6.56892">
        <ele>2217.5</ele>
        <time>2026-02-02T14:44:15Z</time>
      </trkpt>
      <trkpt lat="45.98322" lon="6.56891">
        <ele>2217.5</ele>
        <time>2026-02-02T14:44:16Z</time>
      </trkpt>
      <trkpt lat="45.98322" lon="6.56891">
        <ele>2217.5</ele>
        <time>2026-02-02T14:44:17Z</time>
      </trkpt>
      <trkpt lat="45.98322" lon="6.56891">
        <ele>2217</ele>
        <time>2026-02-02T14:44:18Z</time>
      </trkpt>
      <trkpt lat="45.98321" lon="6.56891">
        <ele>2217</ele>
        <time>2026-02-02T14:44:19Z</time>
      </trkpt>
      <trkpt lat="45.98321" lon="6.56891">
        <ele>2217</ele>
        <time>2026-02-02T14:44:20Z</time>
      </trkpt>
      <trkpt lat="45.98321" lon="6.56891">
        <ele>2217</ele>
        <time>2026-02-02T14:44:21Z</time>
      </trkpt>
      <trkpt lat="45.98321" lon="6.56891">
        <ele>2217</ele>
        <time>2026-02-02T14:44:22Z</time>
      </trkpt>
      <trkpt lat="45.98321" lon="6.56891">
        <ele>2217</ele>
        <time>2026-02-02T14:44:23Z</time>
      </trkpt>
      <trkpt lat="45.98321" lon="6.56891">
        <ele>2217</ele>
        <time>2026-02-02T14:44:24Z</time>
      </trkpt>
      <trkpt lat="45.98321" lon="6.56891">
        <ele>2217</ele>
        <time>2026-02-02T14:44:25Z</time>
      </trkpt>
      <trkpt lat="45.9832" lon="6.56891">
        <ele>2217</ele>
        <time>2026-02-02T14:44:26Z</time>
      </trkpt>
      <trkpt lat="45.9832" lon="6.56891">
        <ele>2217</ele>
        <time>2026-02-02T14:44:27Z</time>
      </trkpt>
      <trkpt lat="45.9832" lon="6.56891">
        <ele>2217</ele>
        <time>2026-02-02T14:44:28Z</time>
      </trkpt>
      <trkpt lat="45.9832" lon="6.56891">
        <ele>2217</ele>
        <time>2026-02-02T14:44:29Z</time>
      </trkpt>
      <trkpt lat="45.9832" lon="6.56891">
        <ele>2217</ele>
        <time>2026-02-02T14:44:30Z</time>
      </trkpt>
      <trkpt lat="45.9832" lon="6.56891">
        <ele>2217</ele>
        <time>2026-02-02T14:44:31Z</time>
      </trkpt>
      <trkpt lat="45.9832" lon="6.56891">
        <ele>2217</ele>
        <time>2026-02-02T14:44:32Z</time>
      </trkpt>
      <trkpt lat="45.9832" lon="6.56891">
        <ele>2217</ele>
        <time>2026-02-02T14:44:33Z</time>
      </trkpt>
      <trkpt lat="45.9832" lon="6.56891">
        <ele>2217</ele>
        <time>2026-02-02T14:44:34Z</time>
      </trkpt>
      <trkpt lat="45.9832" lon="6.56891">
        <ele>2217</ele>
        <time>2026-02-02T14:44:35Z</time>
      </trkpt>
      <trkpt lat="45.9832" lon="6.56891">
        <ele>2217</ele>
        <time>2026-02-02T14:44:36Z</time>
      </trkpt>
      <trkpt lat="45.9832" lon="6.56891">
        <ele>2217</ele>
        <time>2026-02-02T14:44:37Z</time>
      </trkpt>
      <trkpt lat="45.9832" lon="6.56891">
        <ele>2217</ele>
        <time>2026-02-02T14:44:38Z</time>
      </trkpt>
      <trkpt lat="45.9832" lon="6.56891">
        <ele>2217</ele>
        <time>2026-02-02T14:44:39Z</time>
      </trkpt>
      <trkpt lat="45.9832" lon="6.56891">
        <ele>2217</ele>
        <time>2026-02-02T14:44:40Z</time>
      </trkpt>
      <trkpt lat="45.9832" lon="6.56891">
        <ele>2217</ele>
        <time>2026-02-02T14:44:41Z</time>
      </trkpt>
      <trkpt lat="45.9832" lon="6.56891">
        <ele>2217</ele>
        <time>2026-02-02T14:44:42Z</time>
      </trkpt>
      <trkpt lat="45.9832" lon="6.56891">
        <ele>2217</ele>
        <time>2026-02-02T14:44:43Z</time>
      </trkpt>
      <trkpt lat="45.9832" lon="6.56891">
        <ele>2217</ele>
        <time>2026-02-02T14:44:44Z</time>
      </trkpt>
      <trkpt lat="45.9832" lon="6.56891">
        <ele>2217</ele>
        <time>2026-02-02T14:44:45Z</time>
      </trkpt>
      <trkpt lat="45.9832" lon="6.56891">
        <ele>2217</ele>
        <time>2026-02-02T14:44:46Z</time>
      </trkpt>
      <trkpt lat="45.9832" lon="6.56891">
        <ele>2217</ele>
        <time>2026-02-02T14:44:47Z</time>
      </trkpt>
      <trkpt lat="45.9832" lon="6.56891">
        <ele>2217</ele>
        <time>2026-02-02T14:44:48Z</time>
      </trkpt>
      <trkpt lat="45.9832" lon="6.56891">
        <ele>2217</ele>
        <time>2026-02-02T14:44:49Z</time>
      </trkpt>
      <trkpt lat="45.98321" lon="6.56891">
        <ele>2217</ele>
        <time>2026-02-02T14:44:50Z</time>
      </trkpt>
      <trkpt lat="45.98321" lon="6.56891">
        <ele>2217</ele>
        <time>2026-02-02T14:44:51Z</time>
      </trkpt>
      <trkpt lat="45.98321" lon="6.56891">
        <ele>2217</ele>
        <time>2026-02-02T14:44:52Z</time>
      </trkpt>
      <trkpt lat="45.98321" lon="6.56891">
        <ele>2217</ele>
        <time>2026-02-02T14:44:53Z</time>
      </trkpt>
      <trkpt lat="45.98321" lon="6.56891">
        <ele>2217</ele>
        <time>2026-02-02T14:44:54Z</time>
      </trkpt>
      <trkpt lat="45.98321" lon="6.56891">
        <ele>2217</ele>
        <time>2026-02-02T14:44:55Z</time>
      </trkpt>
      <trkpt lat="45.98321" lon="6.56891">
        <ele>2217</ele>
        <time>2026-02-02T14:44:56Z</time>
      </trkpt>
      <trkpt lat="45.98321" lon="6.56891">
        <ele>2217</ele>
        <time>2026-02-02T14:44:57Z</time>
      </trkpt>
      <trkpt lat="45.98322" lon="6.56891">
        <ele>2217.5</ele>
        <time>2026-02-02T14:44:58Z</time>
      </trkpt>
      <trkpt lat="45.98323" lon="6.56892">
        <ele>2217.5</ele>
        <time>2026-02-02T14:44:59Z</time>
      </trkpt>
      <trkpt lat="45.98324" lon="6.56892">
        <ele>2217.5</ele>
        <time>2026-02-02T14:45:00Z</time>
      </trkpt>
      <trkpt lat="45.98326" lon="6.56893">
        <ele>2218.6</ele>
        <time>2026-02-02T14:45:01Z</time>
      </trkpt>
      <trkpt lat="45.98327" lon="6.56894">
        <ele>2218.6</ele>
        <time>2026-02-02T14:45:02Z</time>
      </trkpt>
      <trkpt lat="45.98327" lon="6.56895">
        <ele>2218.6</ele>
        <time>2026-02-02T14:45:03Z</time>
      </trkpt>
      <trkpt lat="45.98327" lon="6.56897">
        <ele>2219.2</ele>
        <time>2026-02-02T14:45:04Z</time>
      </trkpt>
      <trkpt lat="45.98327" lon="6.569">
        <ele>2219.2</ele>
        <time>2026-02-02T14:45:05Z</time>
      </trkpt>
      <trkpt lat="45.98327" lon="6.56901">
        <ele>2219.9</ele>
        <time>2026-02-02T14:45:06Z</time>
      </trkpt>
      <trkpt lat="45.98328" lon="6.56902">
        <ele>2220.4</ele>
        <time>2026-02-02T14:45:07Z</time>
      </trkpt>
      <trkpt lat="45.98329" lon="6.56903">
        <ele>2220.4</ele>
        <time>2026-02-02T14:45:08Z</time>
      </trkpt>
      <trkpt lat="45.9833" lon="6.56904">
        <ele>2220.4</ele>
        <time>2026-02-02T14:45:09Z</time>
      </trkpt>
      <trkpt lat="45.98332" lon="6.56904">
        <ele>2221</ele>
        <time>2026-02-02T14:45:10Z</time>
      </trkpt>
      <trkpt lat="45.98333" lon="6.56905">
        <ele>2221</ele>
        <time>2026-02-02T14:45:11Z</time>
      </trkpt>
      <trkpt lat="45.98333" lon="6.56905">
        <ele>2221</ele>
        <time>2026-02-02T14:45:12Z</time>
      </trkpt>
      <trkpt lat="45.98333" lon="6.56906">
        <ele>2221.6</ele>
        <time>2026-02-02T14:45:13Z</time>
      </trkpt>
      <trkpt lat="45.98333" lon="6.56907">
        <ele>2221.6</ele>
        <time>2026-02-02T14:45:14Z</time>
      </trkpt>
      <trkpt lat="45.98334" lon="6.56907">
        <ele>2222.3</ele>
        <time>2026-02-02T14:45:15Z</time>
      </trkpt>
      <trkpt lat="45.98334" lon="6.56909">
        <ele>2222.3</ele>
        <time>2026-02-02T14:45:16Z</time>
      </trkpt>
      <trkpt lat="45.98334" lon="6.5691">
        <ele>2222.9</ele>
        <time>2026-02-02T14:45:17Z</time>
      </trkpt>
      <trkpt lat="45.98334" lon="6.56911">
        <ele>2222.9</ele>
        <time>2026-02-02T14:45:18Z</time>
      </trkpt>
      <trkpt lat="45.98334" lon="6.56912">
        <ele>2222.9</ele>
        <time>2026-02-02T14:45:19Z</time>
      </trkpt>
      <trkpt lat="45.98334" lon="6.56912">
        <ele>2222.9</ele>
        <time>2026-02-02T14:45:20Z</time>
      </trkpt>
      <trkpt lat="45.98333" lon="6.56914">
        <ele>2222.3</ele>
        <time>2026-02-02T14:45:21Z</time>
      </trkpt>
      <trkpt lat="45.98333" lon="6.56914">
        <ele>2223</ele>
        <time>2026-02-02T14:45:22Z</time>
      </trkpt>
      <trkpt lat="45.98333" lon="6.56914">
        <ele>2223</ele>
        <time>2026-02-02T14:45:23Z</time>
      </trkpt>
      <trkpt lat="45.98333" lon="6.56914">
        <ele>2223</ele>
        <time>2026-02-02T14:45:24Z</time>
      </trkpt>
      <trkpt lat="45.98333" lon="6.56914">
        <ele>2223</ele>
        <time>2026-02-02T14:45:25Z</time>
      </trkpt>
      <trkpt lat="45.98333" lon="6.56914">
        <ele>2223</ele>
        <time>2026-02-02T14:45:26Z</time>
      </trkpt>
      <trkpt lat="45.98333" lon="6.56914">
        <ele>2223</ele>
        <time>2026-02-02T14:45:27Z</time>
      </trkpt>
      <trkpt lat="45.98333" lon="6.56914">
        <ele>2223</ele>
        <time>2026-02-02T14:45:28Z</time>
      </trkpt>
      <trkpt lat="45.98333" lon="6.56914">
        <ele>2223</ele>
        <time>2026-02-02T14:45:29Z</time>
      </trkpt>
      <trkpt lat="45.98333" lon="6.56914">
        <ele>2223</ele>
        <time>2026-02-02T14:45:30Z</time>
      </trkpt>
      <trkpt lat="45.98333" lon="6.56914">
        <ele>2223</ele>
        <time>2026-02-02T14:45:31Z</time>
      </trkpt>
      <trkpt lat="45.98333" lon="6.56914">
        <ele>2223</ele>
        <time>2026-02-02T14:45:32Z</time>
      </trkpt>
      <trkpt lat="45.98333" lon="6.56914">
        <ele>2223</ele>
        <time>2026-02-02T14:45:33Z</time>
      </trkpt>
      <trkpt lat="45.98333" lon="6.56915">
        <ele>2223</ele>
        <time>2026-02-02T14:45:34Z</time>
      </trkpt>
      <trkpt lat="45.98333" lon="6.56915">
        <ele>2223</ele>
        <time>2026-02-02T14:45:35Z</time>
      </trkpt>
      <trkpt lat="45.98333" lon="6.56915">
        <ele>2223</ele>
        <time>2026-02-02T14:45:36Z</time>
      </trkpt>
      <trkpt lat="45.98333" lon="6.56916">
        <ele>2223</ele>
        <time>2026-02-02T14:45:37Z</time>
      </trkpt>
      <trkpt lat="45.98331" lon="6.56917">
        <ele>2223</ele>
        <time>2026-02-02T14:45:38Z</time>
      </trkpt>
      <trkpt lat="45.9833" lon="6.56918">
        <ele>2222.5</ele>
        <time>2026-02-02T14:45:39Z</time>
      </trkpt>
      <trkpt lat="45.9833" lon="6.56919">
        <ele>2223.2</ele>
        <time>2026-02-02T14:45:40Z</time>
      </trkpt>
      <trkpt lat="45.98329" lon="6.5692">
        <ele>2223.2</ele>
        <time>2026-02-02T14:45:41Z</time>
      </trkpt>
      <trkpt lat="45.98329" lon="6.56921">
        <ele>2223.2</ele>
        <time>2026-02-02T14:45:42Z</time>
      </trkpt>
      <trkpt lat="45.98329" lon="6.56922">
        <ele>2223.2</ele>
        <time>2026-02-02T14:45:43Z</time>
      </trkpt>
      <trkpt lat="45.98329" lon="6.56923">
        <ele>2223.9</ele>
        <time>2026-02-02T14:45:44Z</time>
      </trkpt>
      <trkpt lat="45.98329" lon="6.56925">
        <ele>2223.9</ele>
        <time>2026-02-02T14:45:45Z</time>
      </trkpt>
      <trkpt lat="45.98328" lon="6.56925">
        <ele>2223.9</ele>
        <time>2026-02-02T14:45:46Z</time>
      </trkpt>
      <trkpt lat="45.98328" lon="6.56927">
        <ele>2224.6</ele>
        <time>2026-02-02T14:45:47Z</time>
      </trkpt>
      <trkpt lat="45.98328" lon="6.56928">
        <ele>2224.6</ele>
        <time>2026-02-02T14:45:48Z</time>
      </trkpt>
      <trkpt lat="45.98328" lon="6.56927">
        <ele>2224.3</ele>
        <time>2026-02-02T14:45:49Z</time>
      </trkpt>
      <trkpt lat="45.98328" lon="6.56927">
        <ele>2224.3</ele>
        <time>2026-02-02T14:45:50Z</time>
      </trkpt>
      <trkpt lat="45.98328" lon="6.56927">
        <ele>2224.3</ele>
        <time>2026-02-02T14:45:51Z</time>
      </trkpt>
      <trkpt lat="45.98328" lon="6.56927">
        <ele>2224.3</ele>
        <time>2026-02-02T14:45:52Z</time>
      </trkpt>
      <trkpt lat="45.98328" lon="6.56927">
        <ele>2224.3</ele>
        <time>2026-02-02T14:45:53Z</time>
      </trkpt>
      <trkpt lat="45.98328" lon="6.56927">
        <ele>2224.3</ele>
        <time>2026-02-02T14:45:54Z</time>
      </trkpt>
      <trkpt lat="45.98328" lon="6.56927">
        <ele>2224.3</ele>
        <time>2026-02-02T14:45:55Z</time>
      </trkpt>
      <trkpt lat="45.98328" lon="6.56927">
        <ele>2224.6</ele>
        <time>2026-02-02T14:45:56Z</time>
      </trkpt>
      <trkpt lat="45.98328" lon="6.56926">
        <ele>2223.9</ele>
        <time>2026-02-02T14:45:57Z</time>
      </trkpt>
      <trkpt lat="45.98328" lon="6.56926">
        <ele>2223.9</ele>
        <time>2026-02-02T14:45:58Z</time>
      </trkpt>
      <trkpt lat="45.98328" lon="6.56926">
        <ele>2223.9</ele>
        <time>2026-02-02T14:45:59Z</time>
      </trkpt>
      <trkpt lat="45.98328" lon="6.56926">
        <ele>2223.9</ele>
        <time>2026-02-02T14:46:00Z</time>
      </trkpt>
      <trkpt lat="45.98328" lon="6.56926">
        <ele>2223.9</ele>
        <time>2026-02-02T14:46:01Z</time>
      </trkpt>
      <trkpt lat="45.98328" lon="6.56926">
        <ele>2223.9</ele>
        <time>2026-02-02T14:46:02Z</time>
      </trkpt>
      <trkpt lat="45.98328" lon="6.56926">
        <ele>2223.9</ele>
        <time>2026-02-02T14:46:03Z</time>
      </trkpt>
      <trkpt lat="45.98328" lon="6.56926">
        <ele>2223.9</ele>
        <time>2026-02-02T14:46:04Z</time>
      </trkpt>
      <trkpt lat="45.98328" lon="6.56926">
        <ele>2223.9</ele>
        <time>2026-02-02T14:46:05Z</time>
      </trkpt>
      <trkpt lat="45.98328" lon="6.56926">
        <ele>2223.9</ele>
        <time>2026-02-02T14:46:06Z</time>
      </trkpt>
      <trkpt lat="45.98328" lon="6.56926">
        <ele>2223.9</ele>
        <time>2026-02-02T14:46:07Z</time>
      </trkpt>
      <trkpt lat="45.98328" lon="6.56926">
        <ele>2223.9</ele>
        <time>2026-02-02T14:46:08Z</time>
      </trkpt>
      <trkpt lat="45.98328" lon="6.56926">
        <ele>2223.9</ele>
        <time>2026-02-02T14:46:09Z</time>
      </trkpt>
      <trkpt lat="45.98328" lon="6.56926">
        <ele>2223.9</ele>
        <time>2026-02-02T14:46:10Z</time>
      </trkpt>
      <trkpt lat="45.98328" lon="6.56926">
        <ele>2223.9</ele>
        <time>2026-02-02T14:46:11Z</time>
      </trkpt>
      <trkpt lat="45.98328" lon="6.56926">
        <ele>2223.9</ele>
        <time>2026-02-02T14:46:12Z</time>
      </trkpt>
      <trkpt lat="45.98328" lon="6.56926">
        <ele>2223.9</ele>
        <time>2026-02-02T14:46:13Z</time>
      </trkpt>
      <trkpt lat="45.98328" lon="6.56927">
        <ele>2223.9</ele>
        <time>2026-02-02T14:46:14Z</time>
      </trkpt>
      <trkpt lat="45.98328" lon="6.56927">
        <ele>2224.6</ele>
        <time>2026-02-02T14:46:15Z</time>
      </trkpt>
      <trkpt lat="45.98328" lon="6.56928">
        <ele>2224.6</ele>
        <time>2026-02-02T14:46:16Z</time>
      </trkpt>
      <trkpt lat="45.98328" lon="6.5693">
        <ele>2224.6</ele>
        <time>2026-02-02T14:46:17Z</time>
      </trkpt>
      <trkpt lat="45.98328" lon="6.56931">
        <ele>2225.4</ele>
        <time>2026-02-02T14:46:18Z</time>
      </trkpt>
      <trkpt lat="45.98328" lon="6.56932">
        <ele>2225.4</ele>
        <time>2026-02-02T14:46:19Z</time>
      </trkpt>
      <trkpt lat="45.98327" lon="6.56933">
        <ele>2225</ele>
        <time>2026-02-02T14:46:20Z</time>
      </trkpt>
      <trkpt lat="45.98327" lon="6.56935">
        <ele>2225</ele>
        <time>2026-02-02T14:46:21Z</time>
      </trkpt>
      <trkpt lat="45.98327" lon="6.56936">
        <ele>2225.8</ele>
        <time>2026-02-02T14:46:22Z</time>
      </trkpt>
      <trkpt lat="45.98327" lon="6.56937">
        <ele>2225.8</ele>
        <time>2026-02-02T14:46:23Z</time>
      </trkpt>
      <trkpt lat="45.98327" lon="6.56938">
        <ele>2225.8</ele>
        <time>2026-02-02T14:46:24Z</time>
      </trkpt>
      <trkpt lat="45.98327" lon="6.56939">
        <ele>2225.8</ele>
        <time>2026-02-02T14:46:25Z</time>
      </trkpt>
      <trkpt lat="45.98327" lon="6.56941">
        <ele>2226.6</ele>
        <time>2026-02-02T14:46:26Z</time>
      </trkpt>
      <trkpt lat="45.98326" lon="6.56944">
        <ele>2227.5</ele>
        <time>2026-02-02T14:46:27Z</time>
      </trkpt>
      <trkpt lat="45.98326" lon="6.56946">
        <ele>2227.5</ele>
        <time>2026-02-02T14:46:28Z</time>
      </trkpt>
      <trkpt lat="45.98326" lon="6.56948">
        <ele>2227.5</ele>
        <time>2026-02-02T14:46:29Z</time>
      </trkpt>
      <trkpt lat="45.98326" lon="6.56951">
        <ele>2228.5</ele>
        <time>2026-02-02T14:46:30Z</time>
      </trkpt>
      <trkpt lat="45.98325" lon="6.56952">
        <ele>2228.5</ele>
        <time>2026-02-02T14:46:31Z</time>
      </trkpt>
      <trkpt lat="45.98325" lon="6.56953">
        <ele>2229.4</ele>
        <time>2026-02-02T14:46:32Z</time>
      </trkpt>
      <trkpt lat="45.98324" lon="6.56956">
        <ele>2229.2</ele>
        <time>2026-02-02T14:46:33Z</time>
      </trkpt>
      <trkpt lat="45.98324" lon="6.56957">
        <ele>2230.2</ele>
        <time>2026-02-02T14:46:34Z</time>
      </trkpt>
      <trkpt lat="45.98324" lon="6.56958">
        <ele>2230.2</ele>
        <time>2026-02-02T14:46:35Z</time>
      </trkpt>
      <trkpt lat="45.98324" lon="6.5696">
        <ele>2230.2</ele>
        <time>2026-02-02T14:46:36Z</time>
      </trkpt>
      <trkpt lat="45.98323" lon="6.56961">
        <ele>2231.2</ele>
        <time>2026-02-02T14:46:37Z</time>
      </trkpt>
      <trkpt lat="45.98323" lon="6.56963">
        <ele>2231.2</ele>
        <time>2026-02-02T14:46:38Z</time>
      </trkpt>
      <trkpt lat="45.98323" lon="6.56964">
        <ele>2231.2</ele>
        <time>2026-02-02T14:46:39Z</time>
      </trkpt>
      <trkpt lat="45.98323" lon="6.56965">
        <ele>2231.2</ele>
        <time>2026-02-02T14:46:40Z</time>
      </trkpt>
      <trkpt lat="45.98322" lon="6.56965">
        <ele>2231.2</ele>
        <time>2026-02-02T14:46:41Z</time>
      </trkpt>
      <trkpt lat="45.98321" lon="6.56965">
        <ele>2231</ele>
        <time>2026-02-02T14:46:42Z</time>
      </trkpt>
      <trkpt lat="45.98321" lon="6.56965">
        <ele>2231</ele>
        <time>2026-02-02T14:46:43Z</time>
      </trkpt>
      <trkpt lat="45.98322" lon="6.56965">
        <ele>2231.2</ele>
        <time>2026-02-02T14:46:44Z</time>
      </trkpt>
      <trkpt lat="45.98322" lon="6.56965">
        <ele>2231.2</ele>
        <time>2026-02-02T14:46:45Z</time>
      </trkpt>
      <trkpt lat="45.98321" lon="6.56965">
        <ele>2232</ele>
        <time>2026-02-02T14:46:46Z</time>
      </trkpt>
      <trkpt lat="45.98321" lon="6.56965">
        <ele>2232</ele>
        <time>2026-02-02T14:46:47Z</time>
      </trkpt>
      <trkpt lat="45.98321" lon="6.56965">
        <ele>2232</ele>
        <time>2026-02-02T14:46:48Z</time>
      </trkpt>
      <trkpt lat="45.98321" lon="6.56965">
        <ele>2231</ele>
        <time>2026-02-02T14:46:49Z</time>
      </trkpt>
      <trkpt lat="45.98322" lon="6.56965">
        <ele>2231.2</ele>
        <time>2026-02-02T14:46:50Z</time>
      </trkpt>
      <trkpt lat="45.98322" lon="6.56965">
        <ele>2231.2</ele>
        <time>2026-02-02T14:46:51Z</time>
      </trkpt>
      <trkpt lat="45.98322" lon="6.56965">
        <ele>2231.2</ele>
        <time>2026-02-02T14:46:52Z</time>
      </trkpt>
      <trkpt lat="45.98322" lon="6.56965">
        <ele>2231.2</ele>
        <time>2026-02-02T14:46:53Z</time>
      </trkpt>
      <trkpt lat="45.98322" lon="6.56965">
        <ele>2231.2</ele>
        <time>2026-02-02T14:46:54Z</time>
      </trkpt>
      <trkpt lat="45.98322" lon="6.56965">
        <ele>2231.2</ele>
        <time>2026-02-02T14:46:55Z</time>
      </trkpt>
      <trkpt lat="45.98322" lon="6.56965">
        <ele>2231.2</ele>
        <time>2026-02-02T14:46:56Z</time>
      </trkpt>
      <trkpt lat="45.98322" lon="6.56965">
        <ele>2231.2</ele>
        <time>2026-02-02T14:46:57Z</time>
      </trkpt>
      <trkpt lat="45.98322" lon="6.56965">
        <ele>2231.2</ele>
        <time>2026-02-02T14:46:58Z</time>
      </trkpt>
      <trkpt lat="45.98322" lon="6.56965">
        <ele>2231.2</ele>
        <time>2026-02-02T14:46:59Z</time>
      </trkpt>
      <trkpt lat="45.98322" lon="6.56965">
        <ele>2231.2</ele>
        <time>2026-02-02T14:47:00Z</time>
      </trkpt>
      <trkpt lat="45.98322" lon="6.56965">
        <ele>2232.2</ele>
        <time>2026-02-02T14:47:01Z</time>
      </trkpt>
      <trkpt lat="45.98322" lon="6.56965">
        <ele>2232</ele>
        <time>2026-02-02T14:47:02Z</time>
      </trkpt>
      <trkpt lat="45.98322" lon="6.56967">
        <ele>2232.2</ele>
        <time>2026-02-02T14:47:03Z</time>
      </trkpt>
      <trkpt lat="45.98322" lon="6.56968">
        <ele>2232.2</ele>
        <time>2026-02-02T14:47:04Z</time>
      </trkpt>
      <trkpt lat="45.98322" lon="6.5697">
        <ele>2233.2</ele>
        <time>2026-02-02T14:47:05Z</time>
      </trkpt>
      <trkpt lat="45.98322" lon="6.56971">
        <ele>2233.2</ele>
        <time>2026-02-02T14:47:06Z</time>
      </trkpt>
      <trkpt lat="45.98322" lon="6.56973">
        <ele>2233.2</ele>
        <time>2026-02-02T14:47:07Z</time>
      </trkpt>
      <trkpt lat="45.98322" lon="6.56974">
        <ele>2233.2</ele>
        <time>2026-02-02T14:47:08Z</time>
      </trkpt>
      <trkpt lat="45.98322" lon="6.56975">
        <ele>2234</ele>
        <time>2026-02-02T14:47:09Z</time>
      </trkpt>
      <trkpt lat="45.98322" lon="6.56976">
        <ele>2234</ele>
        <time>2026-02-02T14:47:10Z</time>
      </trkpt>
      <trkpt lat="45.98322" lon="6.56977">
        <ele>2234.2</ele>
        <time>2026-02-02T14:47:11Z</time>
      </trkpt>
      <trkpt lat="45.98322" lon="6.56978">
        <ele>2234.2</ele>
        <time>2026-02-02T14:47:12Z</time>
      </trkpt>
      <trkpt lat="45.98323" lon="6.5698">
        <ele>2235.2</ele>
        <time>2026-02-02T14:47:13Z</time>
      </trkpt>
      <trkpt lat="45.98323" lon="6.56981">
        <ele>2235.2</ele>
        <time>2026-02-02T14:47:14Z</time>
      </trkpt>
      <trkpt lat="45.98324" lon="6.56982">
        <ele>2235.2</ele>
        <time>2026-02-02T14:47:15Z</time>
      </trkpt>
      <trkpt lat="45.98324" lon="6.56983">
        <ele>2236.8</ele>
        <time>2026-02-02T14:47:16Z</time>
      </trkpt>
      <trkpt lat="45.98324" lon="6.56985">
        <ele>2236.8</ele>
        <time>2026-02-02T14:47:17Z</time>
      </trkpt>
      <trkpt lat="45.98322" lon="6.56987">
        <ele>2236.8</ele>
        <time>2026-02-02T14:47:18Z</time>
      </trkpt>
      <trkpt lat="45.98322" lon="6.56988">
        <ele>2237.9</ele>
        <time>2026-02-02T14:47:19Z</time>
      </trkpt>
      <trkpt lat="45.98322" lon="6.56988">
        <ele>2237.8</ele>
        <time>2026-02-02T14:47:20Z</time>
      </trkpt>
      <trkpt lat="45.98321" lon="6.56989">
        <ele>2237.8</ele>
        <time>2026-02-02T14:47:21Z</time>
      </trkpt>
      <trkpt lat="45.98321" lon="6.5699">
        <ele>2237.8</ele>
        <time>2026-02-02T14:47:22Z</time>
      </trkpt>
      <trkpt lat="45.98321" lon="6.5699">
        <ele>2237.8</ele>
        <time>2026-02-02T14:47:23Z</time>
      </trkpt>
      <trkpt lat="45.98321" lon="6.5699">
        <ele>2237.8</ele>
        <time>2026-02-02T14:47:24Z</time>
      </trkpt>
      <trkpt lat="45.98321" lon="6.5699">
        <ele>2237.8</ele>
        <time>2026-02-02T14:47:25Z</time>
      </trkpt>
      <trkpt lat="45.98321" lon="6.5699">
        <ele>2237.8</ele>
        <time>2026-02-02T14:47:26Z</time>
      </trkpt>
      <trkpt lat="45.98321" lon="6.5699">
        <ele>2237.8</ele>
        <time>2026-02-02T14:47:27Z</time>
      </trkpt>
      <trkpt lat="45.98321" lon="6.5699">
        <ele>2237.8</ele>
        <time>2026-02-02T14:47:28Z</time>
      </trkpt>
      <trkpt lat="45.98321" lon="6.5699">
        <ele>2237.8</ele>
        <time>2026-02-02T14:47:29Z</time>
      </trkpt>
      <trkpt lat="45.98321" lon="6.5699">
        <ele>2237.8</ele>
        <time>2026-02-02T14:47:30Z</time>
      </trkpt>
      <trkpt lat="45.98321" lon="6.5699">
        <ele>2237.8</ele>
        <time>2026-02-02T14:47:31Z</time>
      </trkpt>
      <trkpt lat="45.98321" lon="6.5699">
        <ele>2237.8</ele>
        <time>2026-02-02T14:47:32Z</time>
      </trkpt>
      <trkpt lat="45.98321" lon="6.5699">
        <ele>2237.8</ele>
        <time>2026-02-02T14:47:33Z</time>
      </trkpt>
      <trkpt lat="45.98321" lon="6.5699">
        <ele>2237.8</ele>
        <time>2026-02-02T14:47:34Z</time>
      </trkpt>
      <trkpt lat="45.98321" lon="6.5699">
        <ele>2237.8</ele>
        <time>2026-02-02T14:47:35Z</time>
      </trkpt>
      <trkpt lat="45.98321" lon="6.5699">
        <ele>2237.8</ele>
        <time>2026-02-02T14:47:36Z</time>
      </trkpt>
      <trkpt lat="45.98321" lon="6.5699">
        <ele>2237.8</ele>
        <time>2026-02-02T14:47:37Z</time>
      </trkpt>
      <trkpt lat="45.98321" lon="6.5699">
        <ele>2237.8</ele>
        <time>2026-02-02T14:47:38Z</time>
      </trkpt>
      <trkpt lat="45.98321" lon="6.5699">
        <ele>2237.8</ele>
        <time>2026-02-02T14:47:39Z</time>
      </trkpt>
      <trkpt lat="45.98321" lon="6.5699">
        <ele>2237.8</ele>
        <time>2026-02-02T14:47:40Z</time>
      </trkpt>
      <trkpt lat="45.98321" lon="6.5699">
        <ele>2237.8</ele>
        <time>2026-02-02T14:47:41Z</time>
      </trkpt>
      <trkpt lat="45.98321" lon="6.5699">
        <ele>2237.8</ele>
        <time>2026-02-02T14:47:42Z</time>
      </trkpt>
      <trkpt lat="45.98321" lon="6.5699">
        <ele>2237.8</ele>
        <time>2026-02-02T14:47:43Z</time>
      </trkpt>
      <trkpt lat="45.98321" lon="6.5699">
        <ele>2237.8</ele>
        <time>2026-02-02T14:47:44Z</time>
      </trkpt>
      <trkpt lat="45.98321" lon="6.5699">
        <ele>2237.8</ele>
        <time>2026-02-02T14:47:45Z</time>
      </trkpt>
      <trkpt lat="45.98321" lon="6.5699">
        <ele>2237.8</ele>
        <time>2026-02-02T14:47:46Z</time>
      </trkpt>
      <trkpt lat="45.98321" lon="6.5699">
        <ele>2237.8</ele>
        <time>2026-02-02T14:47:47Z</time>
      </trkpt>
      <trkpt lat="45.98321" lon="6.56989">
        <ele>2237.8</ele>
        <time>2026-02-02T14:47:48Z</time>
      </trkpt>
      <trkpt lat="45.98322" lon="6.56989">
        <ele>2237.8</ele>
        <time>2026-02-02T14:47:49Z</time>
      </trkpt>
      <trkpt lat="45.98322" lon="6.56989">
        <ele>2237.9</ele>
        <time>2026-02-02T14:47:50Z</time>
      </trkpt>
      <trkpt lat="45.98322" lon="6.56988">
        <ele>2237.9</ele>
        <time>2026-02-02T14:47:51Z</time>
      </trkpt>
      <trkpt lat="45.98322" lon="6.56988">
        <ele>2237.9</ele>
        <time>2026-02-02T14:47:52Z</time>
      </trkpt>
      <trkpt lat="45.98322" lon="6.56987">
        <ele>2237.9</ele>
        <time>2026-02-02T14:47:53Z</time>
      </trkpt>
      <trkpt lat="45.98322" lon="6.56987">
        <ele>2237.9</ele>
        <time>2026-02-02T14:47:54Z</time>
      </trkpt>
      <trkpt lat="45.98322" lon="6.56988">
        <ele>2237.8</ele>
        <time>2026-02-02T14:47:55Z</time>
      </trkpt>
      <trkpt lat="45.9832" lon="6.56988">
        <ele>2237.8</ele>
        <time>2026-02-02T14:47:56Z</time>
      </trkpt>
      <trkpt lat="45.98319" lon="6.56989">
        <ele>2237.8</ele>
        <time>2026-02-02T14:47:57Z</time>
      </trkpt>
      <trkpt lat="45.98318" lon="6.56989">
        <ele>2237.7</ele>
        <time>2026-02-02T14:47:58Z</time>
      </trkpt>
      <trkpt lat="45.98318" lon="6.56989">
        <ele>2237.7</ele>
        <time>2026-02-02T14:47:59Z</time>
      </trkpt>
      <trkpt lat="45.98317" lon="6.56989">
        <ele>2237.7</ele>
        <time>2026-02-02T14:48:00Z</time>
      </trkpt>
      <trkpt lat="45.98317" lon="6.56989">
        <ele>2237.7</ele>
        <time>2026-02-02T14:48:01Z</time>
      </trkpt>
      <trkpt lat="45.98316" lon="6.56989">
        <ele>2237.7</ele>
        <time>2026-02-02T14:48:02Z</time>
      </trkpt>
      <trkpt lat="45.98315" lon="6.56989">
        <ele>2237.6</ele>
        <time>2026-02-02T14:48:03Z</time>
      </trkpt>
      <trkpt lat="45.98315" lon="6.5699">
        <ele>2237.6</ele>
        <time>2026-02-02T14:48:04Z</time>
      </trkpt>
      <trkpt lat="45.98314" lon="6.5699">
        <ele>2237.6</ele>
        <time>2026-02-02T14:48:05Z</time>
      </trkpt>
      <trkpt lat="45.98313" lon="6.56991">
        <ele>2237.6</ele>
        <time>2026-02-02T14:48:06Z</time>
      </trkpt>
      <trkpt lat="45.98312" lon="6.56991">
        <ele>2237.6</ele>
        <time>2026-02-02T14:48:07Z</time>
      </trkpt>
      <trkpt lat="45.9831" lon="6.56992">
        <ele>2238.9</ele>
        <time>2026-02-02T14:48:08Z</time>
      </trkpt>
      <trkpt lat="45.98309" lon="6.56993">
        <ele>2238.9</ele>
        <time>2026-02-02T14:48:09Z</time>
      </trkpt>
      <trkpt lat="45.98308" lon="6.56994">
        <ele>2238.9</ele>
        <time>2026-02-02T14:48:10Z</time>
      </trkpt>
      <trkpt lat="45.98308" lon="6.56994">
        <ele>2238.9</ele>
        <time>2026-02-02T14:48:11Z</time>
      </trkpt>
      <trkpt lat="45.98308" lon="6.56993">
        <ele>2238.9</ele>
        <time>2026-02-02T14:48:12Z</time>
      </trkpt>
      <trkpt lat="45.98308" lon="6.56993">
        <ele>2238.9</ele>
        <time>2026-02-02T14:48:13Z</time>
      </trkpt>
      <trkpt lat="45.98308" lon="6.56993">
        <ele>2238.9</ele>
        <time>2026-02-02T14:48:14Z</time>
      </trkpt>
      <trkpt lat="45.98308" lon="6.56993">
        <ele>2238.9</ele>
        <time>2026-02-02T14:48:15Z</time>
      </trkpt>
      <trkpt lat="45.98308" lon="6.56993">
        <ele>2238.9</ele>
        <time>2026-02-02T14:48:16Z</time>
      </trkpt>
      <trkpt lat="45.98308" lon="6.56993">
        <ele>2238.9</ele>
        <time>2026-02-02T14:48:17Z</time>
      </trkpt>
      <trkpt lat="45.98308" lon="6.56993">
        <ele>2238.9</ele>
        <time>2026-02-02T14:48:18Z</time>
      </trkpt>
      <trkpt lat="45.98308" lon="6.56993">
        <ele>2238.9</ele>
        <time>2026-02-02T14:48:19Z</time>
      </trkpt>
      <trkpt lat="45.98308" lon="6.56994">
        <ele>2238.9</ele>
        <time>2026-02-02T14:48:20Z</time>
      </trkpt>
      <trkpt lat="45.98307" lon="6.56993">
        <ele>2238.9</ele>
        <time>2026-02-02T14:48:21Z</time>
      </trkpt>
      <trkpt lat="45.98307" lon="6.56993">
        <ele>2238.9</ele>
        <time>2026-02-02T14:48:22Z</time>
      </trkpt>
      <trkpt lat="45.98306" lon="6.56993">
        <ele>2239</ele>
        <time>2026-02-02T14:48:23Z</time>
      </trkpt>
      <trkpt lat="45.98306" lon="6.56994">
        <ele>2239</ele>
        <time>2026-02-02T14:48:24Z</time>
      </trkpt>
      <trkpt lat="45.98305" lon="6.56994">
        <ele>2239</ele>
        <time>2026-02-02T14:48:25Z</time>
      </trkpt>
      <trkpt lat="45.98305" lon="6.56995">
        <ele>2239</ele>
        <time>2026-02-02T14:48:26Z</time>
      </trkpt>
      <trkpt lat="45.98305" lon="6.56996">
        <ele>2240.4</ele>
        <time>2026-02-02T14:48:27Z</time>
      </trkpt>
      <trkpt lat="45.98305" lon="6.56998">
        <ele>2240.4</ele>
        <time>2026-02-02T14:48:28Z</time>
      </trkpt>
      <trkpt lat="45.98306" lon="6.56999">
        <ele>2240.4</ele>
        <time>2026-02-02T14:48:29Z</time>
      </trkpt>
      <trkpt lat="45.98306" lon="6.57">
        <ele>2241.8</ele>
        <time>2026-02-02T14:48:30Z</time>
      </trkpt>
      <trkpt lat="45.98306" lon="6.57001">
        <ele>2241.8</ele>
        <time>2026-02-02T14:48:31Z</time>
      </trkpt>
      <trkpt lat="45.98306" lon="6.57002">
        <ele>2241.8</ele>
        <time>2026-02-02T14:48:32Z</time>
      </trkpt>
      <trkpt lat="45.98307" lon="6.57003">
        <ele>2241.8</ele>
        <time>2026-02-02T14:48:33Z</time>
      </trkpt>
      <trkpt lat="45.98307" lon="6.57005">
        <ele>2243</ele>
        <time>2026-02-02T14:48:34Z</time>
      </trkpt>
      <trkpt lat="45.98308" lon="6.57005">
        <ele>2243</ele>
        <time>2026-02-02T14:48:35Z</time>
      </trkpt>
      <trkpt lat="45.98308" lon="6.57005">
        <ele>2243</ele>
        <time>2026-02-02T14:48:36Z</time>
      </trkpt>
      <trkpt lat="45.98307" lon="6.57006">
        <ele>2243</ele>
        <time>2026-02-02T14:48:37Z</time>
      </trkpt>
      <trkpt lat="45.98307" lon="6.57007">
        <ele>2243</ele>
        <time>2026-02-02T14:48:38Z</time>
      </trkpt>
      <trkpt lat="45.98307" lon="6.57006">
        <ele>2243.2</ele>
        <time>2026-02-02T14:48:39Z</time>
      </trkpt>
      <trkpt lat="45.98307" lon="6.57005">
        <ele>2243</ele>
        <time>2026-02-02T14:48:40Z</time>
      </trkpt>
      <trkpt lat="45.98307" lon="6.57005">
        <ele>2243</ele>
        <time>2026-02-02T14:48:41Z</time>
      </trkpt>
      <trkpt lat="45.98307" lon="6.57006">
        <ele>2243</ele>
        <time>2026-02-02T14:48:42Z</time>
      </trkpt>
      <trkpt lat="45.98307" lon="6.57005">
        <ele>2243</ele>
        <time>2026-02-02T14:48:43Z</time>
      </trkpt>
      <trkpt lat="45.98307" lon="6.57005">
        <ele>2243</ele>
        <time>2026-02-02T14:48:44Z</time>
      </trkpt>
      <trkpt lat="45.98307" lon="6.57005">
        <ele>2243</ele>
        <time>2026-02-02T14:48:45Z</time>
      </trkpt>
      <trkpt lat="45.98308" lon="6.57004">
        <ele>2243</ele>
        <time>2026-02-02T14:48:46Z</time>
      </trkpt>
      <trkpt lat="45.98308" lon="6.57003">
        <ele>2241.7</ele>
        <time>2026-02-02T14:48:47Z</time>
      </trkpt>
      <trkpt lat="45.98308" lon="6.57003">
        <ele>2241.7</ele>
        <time>2026-02-02T14:48:48Z</time>
      </trkpt>
      <trkpt lat="45.98307" lon="6.57003">
        <ele>2241.7</ele>
        <time>2026-02-02T14:48:49Z</time>
      </trkpt>
      <trkpt lat="45.98307" lon="6.57003">
        <ele>2241.7</ele>
        <time>2026-02-02T14:48:50Z</time>
      </trkpt>
      <trkpt lat="45.98307" lon="6.57004">
        <ele>2241.7</ele>
        <time>2026-02-02T14:48:51Z</time>
      </trkpt>
      <trkpt lat="45.98307" lon="6.57004">
        <ele>2243</ele>
        <time>2026-02-02T14:48:52Z</time>
      </trkpt>
      <trkpt lat="45.98307" lon="6.57004">
        <ele>2243</ele>
        <time>2026-02-02T14:48:53Z</time>
      </trkpt>
      <trkpt lat="45.98307" lon="6.57005">
        <ele>2243</ele>
        <time>2026-02-02T14:48:54Z</time>
      </trkpt>
      <trkpt lat="45.98307" lon="6.57005">
        <ele>2243</ele>
        <time>2026-02-02T14:48:55Z</time>
      </trkpt>
      <trkpt lat="45.98307" lon="6.57005">
        <ele>2243</ele>
        <time>2026-02-02T14:48:56Z</time>
      </trkpt>
      <trkpt lat="45.98307" lon="6.57004">
        <ele>2243</ele>
        <time>2026-02-02T14:48:57Z</time>
      </trkpt>
      <trkpt lat="45.98307" lon="6.57004">
        <ele>2241.7</ele>
        <time>2026-02-02T14:48:58Z</time>
      </trkpt>
      <trkpt lat="45.98307" lon="6.57004">
        <ele>2241.7</ele>
        <time>2026-02-02T14:48:59Z</time>
      </trkpt>
      <trkpt lat="45.98307" lon="6.57003">
        <ele>2241.7</ele>
        <time>2026-02-02T14:49:00Z</time>
      </trkpt>
      <trkpt lat="45.98307" lon="6.57004">
        <ele>2241.7</ele>
        <time>2026-02-02T14:49:01Z</time>
      </trkpt>
      <trkpt lat="45.98308" lon="6.57004">
        <ele>2241.7</ele>
        <time>2026-02-02T14:49:02Z</time>
      </trkpt>
      <trkpt lat="45.98308" lon="6.57004">
        <ele>2241.7</ele>
        <time>2026-02-02T14:49:03Z</time>
      </trkpt>
      <trkpt lat="45.98308" lon="6.57004">
        <ele>2241.7</ele>
        <time>2026-02-02T14:49:04Z</time>
      </trkpt>
      <trkpt lat="45.98308" lon="6.57004">
        <ele>2241.7</ele>
        <time>2026-02-02T14:49:05Z</time>
      </trkpt>
      <trkpt lat="45.98308" lon="6.57004">
        <ele>2241.7</ele>
        <time>2026-02-02T14:49:06Z</time>
      </trkpt>
      <trkpt lat="45.98307" lon="6.57004">
        <ele>2243</ele>
        <time>2026-02-02T14:49:07Z</time>
      </trkpt>
      <trkpt lat="45.98307" lon="6.57004">
        <ele>2243</ele>
        <time>2026-02-02T14:49:08Z</time>
      </trkpt>
      <trkpt lat="45.98307" lon="6.57004">
        <ele>2243</ele>
        <time>2026-02-02T14:49:09Z</time>
      </trkpt>
      <trkpt lat="45.98307" lon="6.57004">
        <ele>2243</ele>
        <time>2026-02-02T14:49:10Z</time>
      </trkpt>
      <trkpt lat="45.98307" lon="6.57004">
        <ele>2243</ele>
        <time>2026-02-02T14:49:11Z</time>
      </trkpt>
      <trkpt lat="45.98307" lon="6.57004">
        <ele>2243</ele>
        <time>2026-02-02T14:49:12Z</time>
      </trkpt>
      <trkpt lat="45.98307" lon="6.57004">
        <ele>2243</ele>
        <time>2026-02-02T14:49:13Z</time>
      </trkpt>
      <trkpt lat="45.98307" lon="6.57004">
        <ele>2243</ele>
        <time>2026-02-02T14:49:14Z</time>
      </trkpt>
      <trkpt lat="45.98307" lon="6.57004">
        <ele>2243</ele>
        <time>2026-02-02T14:49:15Z</time>
      </trkpt>
      <trkpt lat="45.98307" lon="6.57004">
        <ele>2243</ele>
        <time>2026-02-02T14:49:16Z</time>
      </trkpt>
      <trkpt lat="45.98307" lon="6.57004">
        <ele>2243</ele>
        <time>2026-02-02T14:49:17Z</time>
      </trkpt>
      <trkpt lat="45.98307" lon="6.57004">
        <ele>2243</ele>
        <time>2026-02-02T14:49:18Z</time>
      </trkpt>
      <trkpt lat="45.98307" lon="6.57004">
        <ele>2243</ele>
        <time>2026-02-02T14:49:19Z</time>
      </trkpt>
      <trkpt lat="45.98308" lon="6.57004">
        <ele>2243</ele>
        <time>2026-02-02T14:49:20Z</time>
      </trkpt>
      <trkpt lat="45.98307" lon="6.57005">
        <ele>2243</ele>
        <time>2026-02-02T14:49:21Z</time>
      </trkpt>
      <trkpt lat="45.98307" lon="6.57005">
        <ele>2243</ele>
        <time>2026-02-02T14:49:22Z</time>
      </trkpt>
      <trkpt lat="45.98307" lon="6.57005">
        <ele>2243</ele>
        <time>2026-02-02T14:49:23Z</time>
      </trkpt>
      <trkpt lat="45.98307" lon="6.57005">
        <ele>2243</ele>
        <time>2026-02-02T14:49:24Z</time>
      </trkpt>
      <trkpt lat="45.98307" lon="6.57005">
        <ele>2243</ele>
        <time>2026-02-02T14:49:25Z</time>
      </trkpt>
      <trkpt lat="45.98307" lon="6.57005">
        <ele>2243</ele>
        <time>2026-02-02T14:49:26Z</time>
      </trkpt>
      <trkpt lat="45.98307" lon="6.57005">
        <ele>2243</ele>
        <time>2026-02-02T14:49:27Z</time>
      </trkpt>
      <trkpt lat="45.98307" lon="6.57005">
        <ele>2243</ele>
        <time>2026-02-02T14:49:28Z</time>
      </trkpt>
      <trkpt lat="45.98307" lon="6.57005">
        <ele>2243</ele>
        <time>2026-02-02T14:49:29Z</time>
      </trkpt>
      <trkpt lat="45.98308" lon="6.57005">
        <ele>2243</ele>
        <time>2026-02-02T14:49:30Z</time>
      </trkpt>
      <trkpt lat="45.98308" lon="6.57005">
        <ele>2243</ele>
        <time>2026-02-02T14:49:31Z</time>
      </trkpt>
      <trkpt lat="45.98308" lon="6.57005">
        <ele>2243</ele>
        <time>2026-02-02T14:49:32Z</time>
      </trkpt>
      <trkpt lat="45.98308" lon="6.57005">
        <ele>2243</ele>
        <time>2026-02-02T14:49:33Z</time>
      </trkpt>
      <trkpt lat="45.98308" lon="6.57005">
        <ele>2243</ele>
        <time>2026-02-02T14:49:34Z</time>
      </trkpt>
      <trkpt lat="45.98309" lon="6.57005">
        <ele>2243</ele>
        <time>2026-02-02T14:49:35Z</time>
      </trkpt>
      <trkpt lat="45.98309" lon="6.57005">
        <ele>2243</ele>
        <time>2026-02-02T14:49:36Z</time>
      </trkpt>
      <trkpt lat="45.98309" lon="6.57005">
        <ele>2243</ele>
        <time>2026-02-02T14:49:37Z</time>
      </trkpt>
      <trkpt lat="45.9831" lon="6.57006">
        <ele>2243</ele>
        <time>2026-02-02T14:49:38Z</time>
      </trkpt>
      <trkpt lat="45.9831" lon="6.57006">
        <ele>2242.9</ele>
        <time>2026-02-02T14:49:39Z</time>
      </trkpt>
      <trkpt lat="45.9831" lon="6.57007">
        <ele>2242.9</ele>
        <time>2026-02-02T14:49:40Z</time>
      </trkpt>
      <trkpt lat="45.9831" lon="6.57007">
        <ele>2242.9</ele>
        <time>2026-02-02T14:49:41Z</time>
      </trkpt>
      <trkpt lat="45.9831" lon="6.57007">
        <ele>2242.9</ele>
        <time>2026-02-02T14:49:42Z</time>
      </trkpt>
      <trkpt lat="45.9831" lon="6.57007">
        <ele>2242.9</ele>
        <time>2026-02-02T14:49:43Z</time>
      </trkpt>
      <trkpt lat="45.9831" lon="6.57007">
        <ele>2242.9</ele>
        <time>2026-02-02T14:49:44Z</time>
      </trkpt>
      <trkpt lat="45.9831" lon="6.57007">
        <ele>2242.9</ele>
        <time>2026-02-02T14:49:45Z</time>
      </trkpt>
      <trkpt lat="45.9831" lon="6.57007">
        <ele>2242.9</ele>
        <time>2026-02-02T14:49:46Z</time>
      </trkpt>
      <trkpt lat="45.9831" lon="6.57007">
        <ele>2242.9</ele>
        <time>2026-02-02T14:49:47Z</time>
      </trkpt>
      <trkpt lat="45.9831" lon="6.57007">
        <ele>2242.9</ele>
        <time>2026-02-02T14:49:48Z</time>
      </trkpt>
      <trkpt lat="45.9831" lon="6.57007">
        <ele>2242.9</ele>
        <time>2026-02-02T14:49:49Z</time>
      </trkpt>
      <trkpt lat="45.98311" lon="6.57008">
        <ele>2242.9</ele>
        <time>2026-02-02T14:49:50Z</time>
      </trkpt>
      <trkpt lat="45.98311" lon="6.57008">
        <ele>2242.9</ele>
        <time>2026-02-02T14:49:51Z</time>
      </trkpt>
      <trkpt lat="45.98311" lon="6.57008">
        <ele>2242.9</ele>
        <time>2026-02-02T14:49:52Z</time>
      </trkpt>
      <trkpt lat="45.98311" lon="6.57008">
        <ele>2242.9</ele>
        <time>2026-02-02T14:49:53Z</time>
      </trkpt>
      <trkpt lat="45.98311" lon="6.57008">
        <ele>2242.9</ele>
        <time>2026-02-02T14:49:54Z</time>
      </trkpt>
      <trkpt lat="45.98311" lon="6.57008">
        <ele>2242.9</ele>
        <time>2026-02-02T14:49:55Z</time>
      </trkpt>
      <trkpt lat="45.98311" lon="6.57008">
        <ele>2242.9</ele>
        <time>2026-02-02T14:49:56Z</time>
      </trkpt>
      <trkpt lat="45.9831" lon="6.57007">
        <ele>2242.9</ele>
        <time>2026-02-02T14:49:57Z</time>
      </trkpt>
      <trkpt lat="45.9831" lon="6.57007">
        <ele>2242.9</ele>
        <time>2026-02-02T14:49:58Z</time>
      </trkpt>
      <trkpt lat="45.9831" lon="6.57007">
        <ele>2242.9</ele>
        <time>2026-02-02T14:49:59Z</time>
      </trkpt>
      <trkpt lat="45.9831" lon="6.57008">
        <ele>2243</ele>
        <time>2026-02-02T14:50:00Z</time>
      </trkpt>
      <trkpt lat="45.9831" lon="6.57008">
        <ele>2243</ele>
        <time>2026-02-02T14:50:01Z</time>
      </trkpt>
      <trkpt lat="45.9831" lon="6.57008">
        <ele>2243</ele>
        <time>2026-02-02T14:50:02Z</time>
      </trkpt>
      <trkpt lat="45.9831" lon="6.57008">
        <ele>2243</ele>
        <time>2026-02-02T14:50:03Z</time>
      </trkpt>
      <trkpt lat="45.9831" lon="6.57008">
        <ele>2243</ele>
        <time>2026-02-02T14:50:04Z</time>
      </trkpt>
      <trkpt lat="45.9831" lon="6.57008">
        <ele>2243</ele>
        <time>2026-02-02T14:50:05Z</time>
      </trkpt>
      <trkpt lat="45.9831" lon="6.57008">
        <ele>2243</ele>
        <time>2026-02-02T14:50:06Z</time>
      </trkpt>
      <trkpt lat="45.9831" lon="6.57008">
        <ele>2243</ele>
        <time>2026-02-02T14:50:07Z</time>
      </trkpt>
      <trkpt lat="45.9831" lon="6.57008">
        <ele>2243</ele>
        <time>2026-02-02T14:50:08Z</time>
      </trkpt>
      <trkpt lat="45.9831" lon="6.57008">
        <ele>2242.9</ele>
        <time>2026-02-02T14:50:09Z</time>
      </trkpt>
      <trkpt lat="45.9831" lon="6.57008">
        <ele>2242.9</ele>
        <time>2026-02-02T14:50:10Z</time>
      </trkpt>
      <trkpt lat="45.98309" lon="6.57009">
        <ele>2244.3</ele>
        <time>2026-02-02T14:50:11Z</time>
      </trkpt>
      <trkpt lat="45.98309" lon="6.57009">
        <ele>2244.3</ele>
        <time>2026-02-02T14:50:12Z</time>
      </trkpt>
      <trkpt lat="45.98309" lon="6.57009">
        <ele>2244.3</ele>
        <time>2026-02-02T14:50:13Z</time>
      </trkpt>
      <trkpt lat="45.98309" lon="6.57009">
        <ele>2244.3</ele>
        <time>2026-02-02T14:50:14Z</time>
      </trkpt>
      <trkpt lat="45.98309" lon="6.57009">
        <ele>2244.3</ele>
        <time>2026-02-02T14:50:15Z</time>
      </trkpt>
      <trkpt lat="45.98309" lon="6.57009">
        <ele>2244.3</ele>
        <time>2026-02-02T14:50:16Z</time>
      </trkpt>
      <trkpt lat="45.98309" lon="6.57009">
        <ele>2244.3</ele>
        <time>2026-02-02T14:50:17Z</time>
      </trkpt>
      <trkpt lat="45.9831" lon="6.57009">
        <ele>2244.3</ele>
        <time>2026-02-02T14:50:18Z</time>
      </trkpt>
      <trkpt lat="45.9831" lon="6.57009">
        <ele>2244.3</ele>
        <time>2026-02-02T14:50:19Z</time>
      </trkpt>
      <trkpt lat="45.9831" lon="6.57009">
        <ele>2244.2</ele>
        <time>2026-02-02T14:50:20Z</time>
      </trkpt>
      <trkpt lat="45.9831" lon="6.57009">
        <ele>2244.2</ele>
        <time>2026-02-02T14:50:21Z</time>
      </trkpt>
      <trkpt lat="45.9831" lon="6.57009">
        <ele>2244.2</ele>
        <time>2026-02-02T14:50:22Z</time>
      </trkpt>
      <trkpt lat="45.9831" lon="6.5701">
        <ele>2244.2</ele>
        <time>2026-02-02T14:50:23Z</time>
      </trkpt>
      <trkpt lat="45.98309" lon="6.57009">
        <ele>2244.3</ele>
        <time>2026-02-02T14:50:24Z</time>
      </trkpt>
      <trkpt lat="45.98309" lon="6.57009">
        <ele>2244.3</ele>
        <time>2026-02-02T14:50:25Z</time>
      </trkpt>
      <trkpt lat="45.98309" lon="6.57009">
        <ele>2244.3</ele>
        <time>2026-02-02T14:50:26Z</time>
      </trkpt>
      <trkpt lat="45.98309" lon="6.57009">
        <ele>2244.3</ele>
        <time>2026-02-02T14:50:27Z</time>
      </trkpt>
      <trkpt lat="45.98309" lon="6.57009">
        <ele>2244.3</ele>
        <time>2026-02-02T14:50:28Z</time>
      </trkpt>
      <trkpt lat="45.98309" lon="6.57009">
        <ele>2244.3</ele>
        <time>2026-02-02T14:50:29Z</time>
      </trkpt>
      <trkpt lat="45.98309" lon="6.57009">
        <ele>2244.3</ele>
        <time>2026-02-02T14:50:30Z</time>
      </trkpt>
      <trkpt lat="45.98309" lon="6.57009">
        <ele>2244.3</ele>
        <time>2026-02-02T14:50:31Z</time>
      </trkpt>
      <trkpt lat="45.98309" lon="6.5701">
        <ele>2244.3</ele>
        <time>2026-02-02T14:50:32Z</time>
      </trkpt>
      <trkpt lat="45.98309" lon="6.5701">
        <ele>2244.3</ele>
        <time>2026-02-02T14:50:33Z</time>
      </trkpt>
      <trkpt lat="45.98309" lon="6.5701">
        <ele>2244.3</ele>
        <time>2026-02-02T14:50:34Z</time>
      </trkpt>
      <trkpt lat="45.98309" lon="6.5701">
        <ele>2244.3</ele>
        <time>2026-02-02T14:50:35Z</time>
      </trkpt>
      <trkpt lat="45.98309" lon="6.5701">
        <ele>2244.3</ele>
        <time>2026-02-02T14:50:36Z</time>
      </trkpt>
      <trkpt lat="45.98309" lon="6.5701">
        <ele>2244.3</ele>
        <time>2026-02-02T14:50:37Z</time>
      </trkpt>
      <trkpt lat="45.98309" lon="6.5701">
        <ele>2244.3</ele>
        <time>2026-02-02T14:50:38Z</time>
      </trkpt>
      <trkpt lat="45.98309" lon="6.5701">
        <ele>2244.3</ele>
        <time>2026-02-02T14:50:39Z</time>
      </trkpt>
      <trkpt lat="45.98309" lon="6.5701">
        <ele>2244.3</ele>
        <time>2026-02-02T14:50:40Z</time>
      </trkpt>
      <trkpt lat="45.98309" lon="6.57011">
        <ele>2244.3</ele>
        <time>2026-02-02T14:50:41Z</time>
      </trkpt>
      <trkpt lat="45.98308" lon="6.57011">
        <ele>2244.3</ele>
        <time>2026-02-02T14:50:42Z</time>
      </trkpt>
      <trkpt lat="45.98308" lon="6.57011">
        <ele>2244.3</ele>
        <time>2026-02-02T14:50:43Z</time>
      </trkpt>
      <trkpt lat="45.98308" lon="6.57011">
        <ele>2244.3</ele>
        <time>2026-02-02T14:50:44Z</time>
      </trkpt>
      <trkpt lat="45.98309" lon="6.57011">
        <ele>2244.3</ele>
        <time>2026-02-02T14:50:45Z</time>
      </trkpt>
      <trkpt lat="45.98309" lon="6.57011">
        <ele>2244.3</ele>
        <time>2026-02-02T14:50:46Z</time>
      </trkpt>
      <trkpt lat="45.98309" lon="6.57011">
        <ele>2244.3</ele>
        <time>2026-02-02T14:50:47Z</time>
      </trkpt>
      <trkpt lat="45.98309" lon="6.57011">
        <ele>2244.3</ele>
        <time>2026-02-02T14:50:48Z</time>
      </trkpt>
      <trkpt lat="45.98309" lon="6.5701">
        <ele>2244.3</ele>
        <time>2026-02-02T14:50:49Z</time>
      </trkpt>
      <trkpt lat="45.98309" lon="6.57011">
        <ele>2244.3</ele>
        <time>2026-02-02T14:50:50Z</time>
      </trkpt>
      <trkpt lat="45.98309" lon="6.57011">
        <ele>2244.3</ele>
        <time>2026-02-02T14:50:51Z</time>
      </trkpt>
      <trkpt lat="45.98309" lon="6.57011">
        <ele>2244.3</ele>
        <time>2026-02-02T14:50:52Z</time>
      </trkpt>
      <trkpt lat="45.98309" lon="6.57011">
        <ele>2244.3</ele>
        <time>2026-02-02T14:50:53Z</time>
      </trkpt>
      <trkpt lat="45.98309" lon="6.57013">
        <ele>2245.6</ele>
        <time>2026-02-02T14:50:54Z</time>
      </trkpt>
      <trkpt lat="45.98309" lon="6.57013">
        <ele>2245.6</ele>
        <time>2026-02-02T14:50:55Z</time>
      </trkpt>
      <trkpt lat="45.98309" lon="6.57013">
        <ele>2245.6</ele>
        <time>2026-02-02T14:50:56Z</time>
      </trkpt>
      <trkpt lat="45.98309" lon="6.57013">
        <ele>2245.6</ele>
        <time>2026-02-02T14:50:57Z</time>
      </trkpt>
      <trkpt lat="45.98309" lon="6.57013">
        <ele>2245.6</ele>
        <time>2026-02-02T14:50:58Z</time>
      </trkpt>
      <trkpt lat="45.98309" lon="6.57013">
        <ele>2245.6</ele>
        <time>2026-02-02T14:50:59Z</time>
      </trkpt>
      <trkpt lat="45.98309" lon="6.57013">
        <ele>2245.6</ele>
        <time>2026-02-02T14:51:00Z</time>
      </trkpt>
      <trkpt lat="45.98309" lon="6.57013">
        <ele>2245.6</ele>
        <time>2026-02-02T14:51:01Z</time>
      </trkpt>
      <trkpt lat="45.98309" lon="6.57013">
        <ele>2245.6</ele>
        <time>2026-02-02T14:51:02Z</time>
      </trkpt>
      <trkpt lat="45.98309" lon="6.57013">
        <ele>2245.6</ele>
        <time>2026-02-02T14:51:03Z</time>
      </trkpt>
      <trkpt lat="45.98309" lon="6.57013">
        <ele>2245.6</ele>
        <time>2026-02-02T14:51:04Z</time>
      </trkpt>
      <trkpt lat="45.98309" lon="6.57013">
        <ele>2245.6</ele>
        <time>2026-02-02T14:51:05Z</time>
      </trkpt>
      <trkpt lat="45.98309" lon="6.57013">
        <ele>2245.6</ele>
        <time>2026-02-02T14:51:06Z</time>
      </trkpt>
      <trkpt lat="45.98309" lon="6.57013">
        <ele>2245.6</ele>
        <time>2026-02-02T14:51:07Z</time>
      </trkpt>
      <trkpt lat="45.98309" lon="6.57013">
        <ele>2245.6</ele>
        <time>2026-02-02T14:51:08Z</time>
      </trkpt>
      <trkpt lat="45.98309" lon="6.57013">
        <ele>2245.6</ele>
        <time>2026-02-02T14:51:09Z</time>
      </trkpt>
      <trkpt lat="45.98308" lon="6.57013">
        <ele>2245.6</ele>
        <time>2026-02-02T14:51:10Z</time>
      </trkpt>
      <trkpt lat="45.98308" lon="6.57013">
        <ele>2245.6</ele>
        <time>2026-02-02T14:51:11Z</time>
      </trkpt>
      <trkpt lat="45.98307" lon="6.57013">
        <ele>2245.6</ele>
        <time>2026-02-02T14:51:12Z</time>
      </trkpt>
      <trkpt lat="45.98307" lon="6.57013">
        <ele>2245.6</ele>
        <time>2026-02-02T14:51:13Z</time>
      </trkpt>
      <trkpt lat="45.98307" lon="6.57014">
        <ele>2245.6</ele>
        <time>2026-02-02T14:51:14Z</time>
      </trkpt>
      <trkpt lat="45.98307" lon="6.57014">
        <ele>2245.6</ele>
        <time>2026-02-02T14:51:15Z</time>
      </trkpt>
      <trkpt lat="45.98307" lon="6.57014">
        <ele>2245.6</ele>
        <time>2026-02-02T14:51:16Z</time>
      </trkpt>
      <trkpt lat="45.98307" lon="6.57014">
        <ele>2245.6</ele>
        <time>2026-02-02T14:51:17Z</time>
      </trkpt>
      <trkpt lat="45.98307" lon="6.57014">
        <ele>2245.6</ele>
        <time>2026-02-02T14:51:18Z</time>
      </trkpt>
      <trkpt lat="45.98307" lon="6.57014">
        <ele>2245.6</ele>
        <time>2026-02-02T14:51:19Z</time>
      </trkpt>
      <trkpt lat="45.98308" lon="6.57014">
        <ele>2245.6</ele>
        <time>2026-02-02T14:51:20Z</time>
      </trkpt>
      <trkpt lat="45.98308" lon="6.57014">
        <ele>2245.6</ele>
        <time>2026-02-02T14:51:21Z</time>
      </trkpt>
      <trkpt lat="45.98307" lon="6.57015">
        <ele>2245.6</ele>
        <time>2026-02-02T14:51:22Z</time>
      </trkpt>
      <trkpt lat="45.98308" lon="6.57015">
        <ele>2245.6</ele>
        <time>2026-02-02T14:51:23Z</time>
      </trkpt>
      <trkpt lat="45.98307" lon="6.57015">
        <ele>2245.6</ele>
        <time>2026-02-02T14:51:24Z</time>
      </trkpt>
      <trkpt lat="45.98307" lon="6.57014">
        <ele>2245.6</ele>
        <time>2026-02-02T14:51:25Z</time>
      </trkpt>
      <trkpt lat="45.98308" lon="6.57013">
        <ele>2245.6</ele>
        <time>2026-02-02T14:51:26Z</time>
      </trkpt>
      <trkpt lat="45.98308" lon="6.57012">
        <ele>2244.3</ele>
        <time>2026-02-02T14:51:27Z</time>
      </trkpt>
      <trkpt lat="45.98308" lon="6.57012">
        <ele>2244.3</ele>
        <time>2026-02-02T14:51:28Z</time>
      </trkpt>
      <trkpt lat="45.98308" lon="6.57012">
        <ele>2244.3</ele>
        <time>2026-02-02T14:51:29Z</time>
      </trkpt>
      <trkpt lat="45.98309" lon="6.57012">
        <ele>2244.3</ele>
        <time>2026-02-02T14:51:30Z</time>
      </trkpt>
      <trkpt lat="45.98309" lon="6.57013">
        <ele>2245.6</ele>
        <time>2026-02-02T14:51:31Z</time>
      </trkpt>
      <trkpt lat="45.9831" lon="6.57013">
        <ele>2245.5</ele>
        <time>2026-02-02T14:51:32Z</time>
      </trkpt>
      <trkpt lat="45.9831" lon="6.57014">
        <ele>2245.5</ele>
        <time>2026-02-02T14:51:33Z</time>
      </trkpt>
      <trkpt lat="45.9831" lon="6.57015">
        <ele>2245.5</ele>
        <time>2026-02-02T14:51:34Z</time>
      </trkpt>
      <trkpt lat="45.9831" lon="6.57015">
        <ele>2245.5</ele>
        <time>2026-02-02T14:51:35Z</time>
      </trkpt>
      <trkpt lat="45.98311" lon="6.57016">
        <ele>2245.5</ele>
        <time>2026-02-02T14:51:36Z</time>
      </trkpt>
      <trkpt lat="45.98311" lon="6.57017">
        <ele>2246.7</ele>
        <time>2026-02-02T14:51:37Z</time>
      </trkpt>
      <trkpt lat="45.98311" lon="6.57017">
        <ele>2246.7</ele>
        <time>2026-02-02T14:51:38Z</time>
      </trkpt>
      <trkpt lat="45.98311" lon="6.57017">
        <ele>2246.7</ele>
        <time>2026-02-02T14:51:39Z</time>
      </trkpt>
      <trkpt lat="45.98311" lon="6.57017">
        <ele>2246.7</ele>
        <time>2026-02-02T14:51:40Z</time>
      </trkpt>
      <trkpt lat="45.98312" lon="6.57017">
        <ele>2246.7</ele>
        <time>2026-02-02T14:51:41Z</time>
      </trkpt>
      <trkpt lat="45.98312" lon="6.57017">
        <ele>2246.7</ele>
        <time>2026-02-02T14:51:42Z</time>
      </trkpt>
      <trkpt lat="45.98312" lon="6.57017">
        <ele>2246.7</ele>
        <time>2026-02-02T14:51:43Z</time>
      </trkpt>
      <trkpt lat="45.98312" lon="6.57017">
        <ele>2246.7</ele>
        <time>2026-02-02T14:51:44Z</time>
      </trkpt>
      <trkpt lat="45.98312" lon="6.57017">
        <ele>2246.7</ele>
        <time>2026-02-02T14:51:45Z</time>
      </trkpt>
      <trkpt lat="45.98312" lon="6.57017">
        <ele>2246.7</ele>
        <time>2026-02-02T14:51:46Z</time>
      </trkpt>
      <trkpt lat="45.98312" lon="6.57016">
        <ele>2245.5</ele>
        <time>2026-02-02T14:51:47Z</time>
      </trkpt>
      <trkpt lat="45.98312" lon="6.57016">
        <ele>2245.5</ele>
        <time>2026-02-02T14:51:48Z</time>
      </trkpt>
      <trkpt lat="45.98312" lon="6.57015">
        <ele>2245.5</ele>
        <time>2026-02-02T14:51:49Z</time>
      </trkpt>
      <trkpt lat="45.98313" lon="6.57014">
        <ele>2245.5</ele>
        <time>2026-02-02T14:51:50Z</time>
      </trkpt>
      <trkpt lat="45.98313" lon="6.57014">
        <ele>2245.4</ele>
        <time>2026-02-02T14:51:51Z</time>
      </trkpt>
      <trkpt lat="45.98314" lon="6.57014">
        <ele>2245.4</ele>
        <time>2026-02-02T14:51:52Z</time>
      </trkpt>
      <trkpt lat="45.98315" lon="6.57014">
        <ele>2245.4</ele>
        <time>2026-02-02T14:51:53Z</time>
      </trkpt>
      <trkpt lat="45.98315" lon="6.57014">
        <ele>2245.4</ele>
        <time>2026-02-02T14:51:54Z</time>
      </trkpt>
      <trkpt lat="45.98316" lon="6.57014">
        <ele>2245.4</ele>
        <time>2026-02-02T14:51:55Z</time>
      </trkpt>
      <trkpt lat="45.98316" lon="6.57014">
        <ele>2245.4</ele>
        <time>2026-02-02T14:51:56Z</time>
      </trkpt>
      <trkpt lat="45.98316" lon="6.57014">
        <ele>2245.4</ele>
        <time>2026-02-02T14:51:57Z</time>
      </trkpt>
      <trkpt lat="45.98317" lon="6.57013">
        <ele>2245.4</ele>
        <time>2026-02-02T14:51:58Z</time>
      </trkpt>
      <trkpt lat="45.98318" lon="6.57014">
        <ele>2245.4</ele>
        <time>2026-02-02T14:51:59Z</time>
      </trkpt>
      <trkpt lat="45.98318" lon="6.57015">
        <ele>2245.4</ele>
        <time>2026-02-02T14:52:00Z</time>
      </trkpt>
      <trkpt lat="45.98319" lon="6.57014">
        <ele>2245.4</ele>
        <time>2026-02-02T14:52:01Z</time>
      </trkpt>
      <trkpt lat="45.9832" lon="6.57014">
        <ele>2245.4</ele>
        <time>2026-02-02T14:52:02Z</time>
      </trkpt>
      <trkpt lat="45.98321" lon="6.57014">
        <ele>2245.4</ele>
        <time>2026-02-02T14:52:03Z</time>
      </trkpt>
      <trkpt lat="45.98321" lon="6.57014">
        <ele>2245.4</ele>
        <time>2026-02-02T14:52:04Z</time>
      </trkpt>
      <trkpt lat="45.98322" lon="6.57014">
        <ele>2245.5</ele>
        <time>2026-02-02T14:52:05Z</time>
      </trkpt>
      <trkpt lat="45.98321" lon="6.57015">
        <ele>2245.4</ele>
        <time>2026-02-02T14:52:06Z</time>
      </trkpt>
      <trkpt lat="45.98321" lon="6.57015">
        <ele>2245.4</ele>
        <time>2026-02-02T14:52:07Z</time>
      </trkpt>
      <trkpt lat="45.98321" lon="6.57015">
        <ele>2245.4</ele>
        <time>2026-02-02T14:52:08Z</time>
      </trkpt>
      <trkpt lat="45.98321" lon="6.57015">
        <ele>2245.4</ele>
        <time>2026-02-02T14:52:09Z</time>
      </trkpt>
      <trkpt lat="45.98321" lon="6.57015">
        <ele>2245.4</ele>
        <time>2026-02-02T14:52:10Z</time>
      </trkpt>
      <trkpt lat="45.98321" lon="6.57015">
        <ele>2245.4</ele>
        <time>2026-02-02T14:52:11Z</time>
      </trkpt>
      <trkpt lat="45.98321" lon="6.57015">
        <ele>2245.4</ele>
        <time>2026-02-02T14:52:12Z</time>
      </trkpt>
      <trkpt lat="45.98321" lon="6.57015">
        <ele>2245.4</ele>
        <time>2026-02-02T14:52:13Z</time>
      </trkpt>
      <trkpt lat="45.98321" lon="6.57015">
        <ele>2245.4</ele>
        <time>2026-02-02T14:52:14Z</time>
      </trkpt>
      <trkpt lat="45.98321" lon="6.57015">
        <ele>2245.4</ele>
        <time>2026-02-02T14:52:15Z</time>
      </trkpt>
      <trkpt lat="45.98321" lon="6.57015">
        <ele>2245.4</ele>
        <time>2026-02-02T14:52:16Z</time>
      </trkpt>
      <trkpt lat="45.98321" lon="6.57015">
        <ele>2245.4</ele>
        <time>2026-02-02T14:52:17Z</time>
      </trkpt>
      <trkpt lat="45.98321" lon="6.57015">
        <ele>2245.4</ele>
        <time>2026-02-02T14:52:18Z</time>
      </trkpt>
      <trkpt lat="45.98321" lon="6.57015">
        <ele>2245.4</ele>
        <time>2026-02-02T14:52:19Z</time>
      </trkpt>
      <trkpt lat="45.98321" lon="6.57015">
        <ele>2245.4</ele>
        <time>2026-02-02T14:52:20Z</time>
      </trkpt>
      <trkpt lat="45.98322" lon="6.57015">
        <ele>2245.4</ele>
        <time>2026-02-02T14:52:21Z</time>
      </trkpt>
      <trkpt lat="45.98322" lon="6.57016">
        <ele>2245.5</ele>
        <time>2026-02-02T14:52:22Z</time>
      </trkpt>
      <trkpt lat="45.98322" lon="6.57016">
        <ele>2245.5</ele>
        <time>2026-02-02T14:52:23Z</time>
      </trkpt>
      <trkpt lat="45.98323" lon="6.57016">
        <ele>2245.5</ele>
        <time>2026-02-02T14:52:24Z</time>
      </trkpt>
      <trkpt lat="45.98323" lon="6.57016">
        <ele>2245.5</ele>
        <time>2026-02-02T14:52:25Z</time>
      </trkpt>
      <trkpt lat="45.98324" lon="6.57016">
        <ele>2245.5</ele>
        <time>2026-02-02T14:52:26Z</time>
      </trkpt>
      <trkpt lat="45.98325" lon="6.57016">
        <ele>2245.7</ele>
        <time>2026-02-02T14:52:27Z</time>
      </trkpt>
      <trkpt lat="45.98326" lon="6.57016">
        <ele>2245.7</ele>
        <time>2026-02-02T14:52:28Z</time>
      </trkpt>
      <trkpt lat="45.98327" lon="6.57017">
        <ele>2245.7</ele>
        <time>2026-02-02T14:52:29Z</time>
      </trkpt>
      <trkpt lat="45.98328" lon="6.57015">
        <ele>2245.7</ele>
        <time>2026-02-02T14:52:30Z</time>
      </trkpt>
      <trkpt lat="45.98328" lon="6.57016">
        <ele>2245.9</ele>
        <time>2026-02-02T14:52:31Z</time>
      </trkpt>
      <trkpt lat="45.98329" lon="6.57016">
        <ele>2245.9</ele>
        <time>2026-02-02T14:52:32Z</time>
      </trkpt>
      <trkpt lat="45.9833" lon="6.57016">
        <ele>2245.9</ele>
        <time>2026-02-02T14:52:33Z</time>
      </trkpt>
      <trkpt lat="45.98331" lon="6.57017">
        <ele>2246.2</ele>
        <time>2026-02-02T14:52:34Z</time>
      </trkpt>
      <trkpt lat="45.98332" lon="6.57017">
        <ele>2247.4</ele>
        <time>2026-02-02T14:52:35Z</time>
      </trkpt>
      <trkpt lat="45.98332" lon="6.57018">
        <ele>2247.4</ele>
        <time>2026-02-02T14:52:36Z</time>
      </trkpt>
      <trkpt lat="45.98332" lon="6.57019">
        <ele>2247.4</ele>
        <time>2026-02-02T14:52:37Z</time>
      </trkpt>
      <trkpt lat="45.98332" lon="6.5702">
        <ele>2247.4</ele>
        <time>2026-02-02T14:52:38Z</time>
      </trkpt>
      <trkpt lat="45.98332" lon="6.57021">
        <ele>2248.6</ele>
        <time>2026-02-02T14:52:39Z</time>
      </trkpt>
      <trkpt lat="45.98332" lon="6.57022">
        <ele>2248.6</ele>
        <time>2026-02-02T14:52:40Z</time>
      </trkpt>
      <trkpt lat="45.98332" lon="6.57023">
        <ele>2248.6</ele>
        <time>2026-02-02T14:52:41Z</time>
      </trkpt>
      <trkpt lat="45.98331" lon="6.57025">
        <ele>2248.6</ele>
        <time>2026-02-02T14:52:42Z</time>
      </trkpt>
      <trkpt lat="45.98331" lon="6.57026">
        <ele>2249.9</ele>
        <time>2026-02-02T14:52:43Z</time>
      </trkpt>
      <trkpt lat="45.9833" lon="6.57027">
        <ele>2249.6</ele>
        <time>2026-02-02T14:52:44Z</time>
      </trkpt>
      <trkpt lat="45.9833" lon="6.57027">
        <ele>2249.6</ele>
        <time>2026-02-02T14:52:45Z</time>
      </trkpt>
      <trkpt lat="45.9833" lon="6.57026">
        <ele>2249.6</ele>
        <time>2026-02-02T14:52:46Z</time>
      </trkpt>
      <trkpt lat="45.98331" lon="6.57026">
        <ele>2249.9</ele>
        <time>2026-02-02T14:52:47Z</time>
      </trkpt>
      <trkpt lat="45.98331" lon="6.57026">
        <ele>2249.9</ele>
        <time>2026-02-02T14:52:48Z</time>
      </trkpt>
      <trkpt lat="45.98331" lon="6.57026">
        <ele>2249.9</ele>
        <time>2026-02-02T14:52:49Z</time>
      </trkpt>
      <trkpt lat="45.98331" lon="6.57026">
        <ele>2249.9</ele>
        <time>2026-02-02T14:52:50Z</time>
      </trkpt>
      <trkpt lat="45.98331" lon="6.57026">
        <ele>2249.9</ele>
        <time>2026-02-02T14:52:51Z</time>
      </trkpt>
      <trkpt lat="45.98331" lon="6.57026">
        <ele>2249.9</ele>
        <time>2026-02-02T14:52:52Z</time>
      </trkpt>
      <trkpt lat="45.98331" lon="6.57026">
        <ele>2249.9</ele>
        <time>2026-02-02T14:52:53Z</time>
      </trkpt>
      <trkpt lat="45.98331" lon="6.57026">
        <ele>2249.9</ele>
        <time>2026-02-02T14:52:54Z</time>
      </trkpt>
      <trkpt lat="45.98331" lon="6.57026">
        <ele>2249.9</ele>
        <time>2026-02-02T14:52:55Z</time>
      </trkpt>
      <trkpt lat="45.98331" lon="6.57026">
        <ele>2249.9</ele>
        <time>2026-02-02T14:52:56Z</time>
      </trkpt>
      <trkpt lat="45.98332" lon="6.57026">
        <ele>2249.9</ele>
        <time>2026-02-02T14:52:57Z</time>
      </trkpt>
      <trkpt lat="45.98332" lon="6.57026">
        <ele>2249.9</ele>
        <time>2026-02-02T14:52:58Z</time>
      </trkpt>
      <trkpt lat="45.98332" lon="6.57026">
        <ele>2249.9</ele>
        <time>2026-02-02T14:52:59Z</time>
      </trkpt>
      <trkpt lat="45.98332" lon="6.57026">
        <ele>2249.9</ele>
        <time>2026-02-02T14:53:00Z</time>
      </trkpt>
      <trkpt lat="45.98332" lon="6.57026">
        <ele>2249.9</ele>
        <time>2026-02-02T14:53:01Z</time>
      </trkpt>
      <trkpt lat="45.98332" lon="6.57027">
        <ele>2249.9</ele>
        <time>2026-02-02T14:53:02Z</time>
      </trkpt>
      <trkpt lat="45.98332" lon="6.57028">
        <ele>2249.9</ele>
        <time>2026-02-02T14:53:03Z</time>
      </trkpt>
      <trkpt lat="45.98331" lon="6.57029">
        <ele>2249.9</ele>
        <time>2026-02-02T14:53:04Z</time>
      </trkpt>
      <trkpt lat="45.98331" lon="6.57029">
        <ele>2249.9</ele>
        <time>2026-02-02T14:53:05Z</time>
      </trkpt>
      <trkpt lat="45.98331" lon="6.57028">
        <ele>2249.9</ele>
        <time>2026-02-02T14:53:06Z</time>
      </trkpt>
      <trkpt lat="45.9833" lon="6.5703">
        <ele>2250.9</ele>
        <time>2026-02-02T14:53:07Z</time>
      </trkpt>
      <trkpt lat="45.98329" lon="6.57031">
        <ele>2250.9</ele>
        <time>2026-02-02T14:53:08Z</time>
      </trkpt>
      <trkpt lat="45.98328" lon="6.57032">
        <ele>2250.9</ele>
        <time>2026-02-02T14:53:09Z</time>
      </trkpt>
      <trkpt lat="45.98328" lon="6.57032">
        <ele>2250.7</ele>
        <time>2026-02-02T14:53:10Z</time>
      </trkpt>
      <trkpt lat="45.98327" lon="6.57033">
        <ele>2250.7</ele>
        <time>2026-02-02T14:53:11Z</time>
      </trkpt>
      <trkpt lat="45.98326" lon="6.57033">
        <ele>2250.7</ele>
        <time>2026-02-02T14:53:13Z</time>
      </trkpt>
      <trkpt lat="45.98326" lon="6.57033">
        <ele>2250.7</ele>
        <time>2026-02-02T14:53:14Z</time>
      </trkpt>
      <trkpt lat="45.98326" lon="6.57033">
        <ele>2250.7</ele>
        <time>2026-02-02T14:53:15Z</time>
      </trkpt>
      <trkpt lat="45.98326" lon="6.57033">
        <ele>2250.7</ele>
        <time>2026-02-02T14:53:16Z</time>
      </trkpt>
      <trkpt lat="45.98326" lon="6.57033">
        <ele>2250.7</ele>
        <time>2026-02-02T14:53:17Z</time>
      </trkpt>
      <trkpt lat="45.98326" lon="6.57033">
        <ele>2250.7</ele>
        <time>2026-02-02T14:53:18Z</time>
      </trkpt>
      <trkpt lat="45.98326" lon="6.57033">
        <ele>2250.7</ele>
        <time>2026-02-02T14:53:19Z</time>
      </trkpt>
      <trkpt lat="45.98325" lon="6.57033">
        <ele>2250.7</ele>
        <time>2026-02-02T14:53:20Z</time>
      </trkpt>
      <trkpt lat="45.98324" lon="6.57034">
        <ele>2250.6</ele>
        <time>2026-02-02T14:53:21Z</time>
      </trkpt>
      <trkpt lat="45.98323" lon="6.57035">
        <ele>2252.1</ele>
        <time>2026-02-02T14:53:22Z</time>
      </trkpt>
      <trkpt lat="45.98323" lon="6.57035">
        <ele>2252.1</ele>
        <time>2026-02-02T14:53:23Z</time>
      </trkpt>
      <trkpt lat="45.98323" lon="6.57036">
        <ele>2252.1</ele>
        <time>2026-02-02T14:53:24Z</time>
      </trkpt>
      <trkpt lat="45.98322" lon="6.57037">
        <ele>2252.1</ele>
        <time>2026-02-02T14:53:25Z</time>
      </trkpt>
      <trkpt lat="45.98322" lon="6.57037">
        <ele>2252.1</ele>
        <time>2026-02-02T14:53:26Z</time>
      </trkpt>
      <trkpt lat="45.98323" lon="6.57037">
        <ele>2252.1</ele>
        <time>2026-02-02T14:53:27Z</time>
      </trkpt>
      <trkpt lat="45.98323" lon="6.57037">
        <ele>2252.1</ele>
        <time>2026-02-02T14:53:28Z</time>
      </trkpt>
      <trkpt lat="45.98323" lon="6.57036">
        <ele>2252.1</ele>
        <time>2026-02-02T14:53:29Z</time>
      </trkpt>
      <trkpt lat="45.98324" lon="6.57036">
        <ele>2252.1</ele>
        <time>2026-02-02T14:53:30Z</time>
      </trkpt>
      <trkpt lat="45.98324" lon="6.57036">
        <ele>2252.1</ele>
        <time>2026-02-02T14:53:31Z</time>
      </trkpt>
      <trkpt lat="45.98324" lon="6.57036">
        <ele>2252.1</ele>
        <time>2026-02-02T14:53:32Z</time>
      </trkpt>
      <trkpt lat="45.98324" lon="6.57036">
        <ele>2252.1</ele>
        <time>2026-02-02T14:53:33Z</time>
      </trkpt>
      <trkpt lat="45.98324" lon="6.57036">
        <ele>2252.1</ele>
        <time>2026-02-02T14:53:34Z</time>
      </trkpt>
      <trkpt lat="45.98324" lon="6.57036">
        <ele>2252.1</ele>
        <time>2026-02-02T14:53:35Z</time>
      </trkpt>
      <trkpt lat="45.98324" lon="6.57036">
        <ele>2252.1</ele>
        <time>2026-02-02T14:53:36Z</time>
      </trkpt>
      <trkpt lat="45.98324" lon="6.57036">
        <ele>2252.1</ele>
        <time>2026-02-02T14:53:37Z</time>
      </trkpt>
      <trkpt lat="45.98324" lon="6.57036">
        <ele>2252.1</ele>
        <time>2026-02-02T14:53:38Z</time>
      </trkpt>
      <trkpt lat="45.98324" lon="6.57036">
        <ele>2252.1</ele>
        <time>2026-02-02T14:53:39Z</time>
      </trkpt>
      <trkpt lat="45.98324" lon="6.57036">
        <ele>2252.1</ele>
        <time>2026-02-02T14:53:40Z</time>
      </trkpt>
      <trkpt lat="45.98324" lon="6.57036">
        <ele>2252.1</ele>
        <time>2026-02-02T14:53:41Z</time>
      </trkpt>
      <trkpt lat="45.98324" lon="6.57036">
        <ele>2252.1</ele>
        <time>2026-02-02T14:53:42Z</time>
      </trkpt>
      <trkpt lat="45.98324" lon="6.57036">
        <ele>2252.1</ele>
        <time>2026-02-02T14:53:43Z</time>
      </trkpt>
      <trkpt lat="45.98323" lon="6.57036">
        <ele>2252.1</ele>
        <time>2026-02-02T14:53:44Z</time>
      </trkpt>
      <trkpt lat="45.98323" lon="6.57037">
        <ele>2252.1</ele>
        <time>2026-02-02T14:53:45Z</time>
      </trkpt>
      <trkpt lat="45.98323" lon="6.57037">
        <ele>2252.1</ele>
        <time>2026-02-02T14:53:46Z</time>
      </trkpt>
      <trkpt lat="45.98323" lon="6.57038">
        <ele>2252.1</ele>
        <time>2026-02-02T14:53:47Z</time>
      </trkpt>
      <trkpt lat="45.98322" lon="6.57039">
        <ele>2253.6</ele>
        <time>2026-02-02T14:53:48Z</time>
      </trkpt>
      <trkpt lat="45.98322" lon="6.5704">
        <ele>2253.6</ele>
        <time>2026-02-02T14:53:49Z</time>
      </trkpt>
      <trkpt lat="45.98322" lon="6.57041">
        <ele>2253.6</ele>
        <time>2026-02-02T14:53:50Z</time>
      </trkpt>
      <trkpt lat="45.98323" lon="6.57041">
        <ele>2253.6</ele>
        <time>2026-02-02T14:53:51Z</time>
      </trkpt>
      <trkpt lat="45.98323" lon="6.57042">
        <ele>2253.6</ele>
        <time>2026-02-02T14:53:52Z</time>
      </trkpt>
      <trkpt lat="45.98324" lon="6.57042">
        <ele>2253.6</ele>
        <time>2026-02-02T14:53:53Z</time>
      </trkpt>
      <trkpt lat="45.98324" lon="6.57042">
        <ele>2253.6</ele>
        <time>2026-02-02T14:53:54Z</time>
      </trkpt>
      <trkpt lat="45.98325" lon="6.57043">
        <ele>2253.7</ele>
        <time>2026-02-02T14:53:55Z</time>
      </trkpt>
      <trkpt lat="45.98325" lon="6.57043">
        <ele>2255.3</ele>
        <time>2026-02-02T14:53:56Z</time>
      </trkpt>
      <trkpt lat="45.98326" lon="6.57044">
        <ele>2255.3</ele>
        <time>2026-02-02T14:53:57Z</time>
      </trkpt>
      <trkpt lat="45.98326" lon="6.57044">
        <ele>2255.3</ele>
        <time>2026-02-02T14:53:58Z</time>
      </trkpt>
      <trkpt lat="45.98327" lon="6.57044">
        <ele>2255.3</ele>
        <time>2026-02-02T14:53:59Z</time>
      </trkpt>
      <trkpt lat="45.98327" lon="6.57045">
        <ele>2255.3</ele>
        <time>2026-02-02T14:54:00Z</time>
      </trkpt>
      <trkpt lat="45.98327" lon="6.57044">
        <ele>2255.3</ele>
        <time>2026-02-02T14:54:01Z</time>
      </trkpt>
      <trkpt lat="45.98327" lon="6.57044">
        <ele>2255.3</ele>
        <time>2026-02-02T14:54:02Z</time>
      </trkpt>
      <trkpt lat="45.98326" lon="6.57044">
        <ele>2255.3</ele>
        <time>2026-02-02T14:54:03Z</time>
      </trkpt>
      <trkpt lat="45.98326" lon="6.57044">
        <ele>2255.3</ele>
        <time>2026-02-02T14:54:04Z</time>
      </trkpt>
      <trkpt lat="45.98326" lon="6.57044">
        <ele>2255.3</ele>
        <time>2026-02-02T14:54:05Z</time>
      </trkpt>
      <trkpt lat="45.98326" lon="6.57044">
        <ele>2255.3</ele>
        <time>2026-02-02T14:54:06Z</time>
      </trkpt>
      <trkpt lat="45.98326" lon="6.57044">
        <ele>2255.3</ele>
        <time>2026-02-02T14:54:07Z</time>
      </trkpt>
      <trkpt lat="45.98326" lon="6.57044">
        <ele>2255.3</ele>
        <time>2026-02-02T14:54:08Z</time>
      </trkpt>
      <trkpt lat="45.98325" lon="6.57044">
        <ele>2255.3</ele>
        <time>2026-02-02T14:54:09Z</time>
      </trkpt>
      <trkpt lat="45.98325" lon="6.57044">
        <ele>2255.3</ele>
        <time>2026-02-02T14:54:10Z</time>
      </trkpt>
      <trkpt lat="45.98325" lon="6.57044">
        <ele>2255.3</ele>
        <time>2026-02-02T14:54:11Z</time>
      </trkpt>
      <trkpt lat="45.98325" lon="6.57044">
        <ele>2255.3</ele>
        <time>2026-02-02T14:54:12Z</time>
      </trkpt>
      <trkpt lat="45.98325" lon="6.57044">
        <ele>2255.3</ele>
        <time>2026-02-02T14:54:13Z</time>
      </trkpt>
      <trkpt lat="45.98325" lon="6.57044">
        <ele>2255.3</ele>
        <time>2026-02-02T14:54:14Z</time>
      </trkpt>
      <trkpt lat="45.98325" lon="6.57044">
        <ele>2255.3</ele>
        <time>2026-02-02T14:54:15Z</time>
      </trkpt>
      <trkpt lat="45.98325" lon="6.57044">
        <ele>2255.3</ele>
        <time>2026-02-02T14:54:16Z</time>
      </trkpt>
      <trkpt lat="45.98325" lon="6.57044">
        <ele>2255.3</ele>
        <time>2026-02-02T14:54:17Z</time>
      </trkpt>
      <trkpt lat="45.98325" lon="6.57044">
        <ele>2255.3</ele>
        <time>2026-02-02T14:54:18Z</time>
      </trkpt>
      <trkpt lat="45.98325" lon="6.57044">
        <ele>2255.3</ele>
        <time>2026-02-02T14:54:19Z</time>
      </trkpt>
      <trkpt lat="45.98325" lon="6.57044">
        <ele>2255.3</ele>
        <time>2026-02-02T14:54:20Z</time>
      </trkpt>
      <trkpt lat="45.98325" lon="6.57043">
        <ele>2255.3</ele>
        <time>2026-02-02T14:54:21Z</time>
      </trkpt>
      <trkpt lat="45.98325" lon="6.57043">
        <ele>2255.3</ele>
        <time>2026-02-02T14:54:22Z</time>
      </trkpt>
      <trkpt lat="45.98325" lon="6.57043">
        <ele>2255.2</ele>
        <time>2026-02-02T14:54:23Z</time>
      </trkpt>
      <trkpt lat="45.98324" lon="6.57043">
        <ele>2255.2</ele>
        <time>2026-02-02T14:54:24Z</time>
      </trkpt>
      <trkpt lat="45.98324" lon="6.57043">
        <ele>2255.2</ele>
        <time>2026-02-02T14:54:25Z</time>
      </trkpt>
      <trkpt lat="45.98324" lon="6.57042">
        <ele>2253.6</ele>
        <time>2026-02-02T14:54:26Z</time>
      </trkpt>
      <trkpt lat="45.98324" lon="6.57043">
        <ele>2255.2</ele>
        <time>2026-02-02T14:54:27Z</time>
      </trkpt>
      <trkpt lat="45.98324" lon="6.57044">
        <ele>2255.2</ele>
        <time>2026-02-02T14:54:28Z</time>
      </trkpt>
      <trkpt lat="45.98325" lon="6.57045">
        <ele>2255.3</ele>
        <time>2026-02-02T14:54:29Z</time>
      </trkpt>
      <trkpt lat="45.98326" lon="6.57045">
        <ele>2255.3</ele>
        <time>2026-02-02T14:54:30Z</time>
      </trkpt>
      <trkpt lat="45.98326" lon="6.57046">
        <ele>2255.3</ele>
        <time>2026-02-02T14:54:31Z</time>
      </trkpt>
      <trkpt lat="45.98327" lon="6.57046">
        <ele>2255.3</ele>
        <time>2026-02-02T14:54:32Z</time>
      </trkpt>
      <trkpt lat="45.98328" lon="6.57047">
        <ele>2257</ele>
        <time>2026-02-02T14:54:33Z</time>
      </trkpt>
      <trkpt lat="45.98328" lon="6.57047">
        <ele>2257</ele>
        <time>2026-02-02T14:54:34Z</time>
      </trkpt>
      <trkpt lat="45.98328" lon="6.57048">
        <ele>2257</ele>
        <time>2026-02-02T14:54:35Z</time>
      </trkpt>
      <trkpt lat="45.9833" lon="6.57048">
        <ele>2257</ele>
        <time>2026-02-02T14:54:36Z</time>
      </trkpt>
      <trkpt lat="45.98332" lon="6.57048">
        <ele>2257.2</ele>
        <time>2026-02-02T14:54:37Z</time>
      </trkpt>
      <trkpt lat="45.98332" lon="6.57049">
        <ele>2257.2</ele>
        <time>2026-02-02T14:54:38Z</time>
      </trkpt>
      <trkpt lat="45.98333" lon="6.5705">
        <ele>2257.2</ele>
        <time>2026-02-02T14:54:39Z</time>
      </trkpt>
      <trkpt lat="45.98333" lon="6.57051">
        <ele>2257.2</ele>
        <time>2026-02-02T14:54:40Z</time>
      </trkpt>
      <trkpt lat="45.98334" lon="6.57051">
        <ele>2257.2</ele>
        <time>2026-02-02T14:54:41Z</time>
      </trkpt>
      <trkpt lat="45.98333" lon="6.57052">
        <ele>2258.8</ele>
        <time>2026-02-02T14:54:42Z</time>
      </trkpt>
      <trkpt lat="45.98333" lon="6.57051">
        <ele>2258.8</ele>
        <time>2026-02-02T14:54:43Z</time>
      </trkpt>
      <trkpt lat="45.98332" lon="6.57052">
        <ele>2258.8</ele>
        <time>2026-02-02T14:54:44Z</time>
      </trkpt>
      <trkpt lat="45.98331" lon="6.57052">
        <ele>2258.8</ele>
        <time>2026-02-02T14:54:45Z</time>
      </trkpt>
      <trkpt lat="45.9833" lon="6.57053">
        <ele>2258.7</ele>
        <time>2026-02-02T14:54:46Z</time>
      </trkpt>
      <trkpt lat="45.9833" lon="6.57053">
        <ele>2258.7</ele>
        <time>2026-02-02T14:54:47Z</time>
      </trkpt>
      <trkpt lat="45.98329" lon="6.57053">
        <ele>2258.7</ele>
        <time>2026-02-02T14:54:48Z</time>
      </trkpt>
      <trkpt lat="45.9833" lon="6.57053">
        <ele>2258.7</ele>
        <time>2026-02-02T14:54:49Z</time>
      </trkpt>
      <trkpt lat="45.9833" lon="6.57052">
        <ele>2258.7</ele>
        <time>2026-02-02T14:54:50Z</time>
      </trkpt>
      <trkpt lat="45.98331" lon="6.57052">
        <ele>2258.8</ele>
        <time>2026-02-02T14:54:51Z</time>
      </trkpt>
      <trkpt lat="45.98331" lon="6.57052">
        <ele>2258.8</ele>
        <time>2026-02-02T14:54:52Z</time>
      </trkpt>
      <trkpt lat="45.98331" lon="6.57052">
        <ele>2258.8</ele>
        <time>2026-02-02T14:54:53Z</time>
      </trkpt>
      <trkpt lat="45.98331" lon="6.57052">
        <ele>2258.8</ele>
        <time>2026-02-02T14:54:54Z</time>
      </trkpt>
      <trkpt lat="45.98331" lon="6.57052">
        <ele>2258.8</ele>
        <time>2026-02-02T14:54:55Z</time>
      </trkpt>
      <trkpt lat="45.98331" lon="6.57052">
        <ele>2258.8</ele>
        <time>2026-02-02T14:54:56Z</time>
      </trkpt>
      <trkpt lat="45.98331" lon="6.57052">
        <ele>2258.8</ele>
        <time>2026-02-02T14:54:57Z</time>
      </trkpt>
      <trkpt lat="45.98331" lon="6.57052">
        <ele>2258.8</ele>
        <time>2026-02-02T14:54:58Z</time>
      </trkpt>
      <trkpt lat="45.98331" lon="6.57052">
        <ele>2258.8</ele>
        <time>2026-02-02T14:54:59Z</time>
      </trkpt>
      <trkpt lat="45.98331" lon="6.57052">
        <ele>2258.8</ele>
        <time>2026-02-02T14:55:00Z</time>
      </trkpt>
      <trkpt lat="45.98331" lon="6.57052">
        <ele>2258.8</ele>
        <time>2026-02-02T14:55:01Z</time>
      </trkpt>
      <trkpt lat="45.98331" lon="6.57052">
        <ele>2258.8</ele>
        <time>2026-02-02T14:55:02Z</time>
      </trkpt>
      <trkpt lat="45.98331" lon="6.57052">
        <ele>2258.8</ele>
        <time>2026-02-02T14:55:03Z</time>
      </trkpt>
      <trkpt lat="45.98331" lon="6.57052">
        <ele>2258.8</ele>
        <time>2026-02-02T14:55:04Z</time>
      </trkpt>
      <trkpt lat="45.98331" lon="6.57052">
        <ele>2258.8</ele>
        <time>2026-02-02T14:55:05Z</time>
      </trkpt>
      <trkpt lat="45.98331" lon="6.57052">
        <ele>2258.8</ele>
        <time>2026-02-02T14:55:06Z</time>
      </trkpt>
      <trkpt lat="45.98331" lon="6.57053">
        <ele>2258.8</ele>
        <time>2026-02-02T14:55:07Z</time>
      </trkpt>
      <trkpt lat="45.98331" lon="6.57053">
        <ele>2258.8</ele>
        <time>2026-02-02T14:55:08Z</time>
      </trkpt>
      <trkpt lat="45.9833" lon="6.57054">
        <ele>2258.7</ele>
        <time>2026-02-02T14:55:09Z</time>
      </trkpt>
      <trkpt lat="45.98329" lon="6.57055">
        <ele>2258.7</ele>
        <time>2026-02-02T14:55:10Z</time>
      </trkpt>
      <trkpt lat="45.98329" lon="6.57056">
        <ele>2260.3</ele>
        <time>2026-02-02T14:55:11Z</time>
      </trkpt>
      <trkpt lat="45.98328" lon="6.57057">
        <ele>2260.3</ele>
        <time>2026-02-02T14:55:12Z</time>
      </trkpt>
      <trkpt lat="45.98327" lon="6.57058">
        <ele>2260.2</ele>
        <time>2026-02-02T14:55:13Z</time>
      </trkpt>
      <trkpt lat="45.98326" lon="6.5706">
        <ele>2261.8</ele>
        <time>2026-02-02T14:55:14Z</time>
      </trkpt>
      <trkpt lat="45.98326" lon="6.57061">
        <ele>2261.8</ele>
        <time>2026-02-02T14:55:15Z</time>
      </trkpt>
      <trkpt lat="45.98325" lon="6.57062">
        <ele>2261.8</ele>
        <time>2026-02-02T14:55:16Z</time>
      </trkpt>
      <trkpt lat="45.98324" lon="6.57063">
        <ele>2261.8</ele>
        <time>2026-02-02T14:55:17Z</time>
      </trkpt>
      <trkpt lat="45.98324" lon="6.57064">
        <ele>2263.3</ele>
        <time>2026-02-02T14:55:18Z</time>
      </trkpt>
      <trkpt lat="45.98323" lon="6.57065">
        <ele>2263.3</ele>
        <time>2026-02-02T14:55:19Z</time>
      </trkpt>
      <trkpt lat="45.98323" lon="6.57065">
        <ele>2263.3</ele>
        <time>2026-02-02T14:55:20Z</time>
      </trkpt>
      <trkpt lat="45.98322" lon="6.57066">
        <ele>2263.3</ele>
        <time>2026-02-02T14:55:21Z</time>
      </trkpt>
      <trkpt lat="45.98321" lon="6.57067">
        <ele>2263.3</ele>
        <time>2026-02-02T14:55:22Z</time>
      </trkpt>
      <trkpt lat="45.98321" lon="6.57067">
        <ele>2263.3</ele>
        <time>2026-02-02T14:55:23Z</time>
      </trkpt>
      <trkpt lat="45.9832" lon="6.57068">
        <ele>2263.3</ele>
        <time>2026-02-02T14:55:24Z</time>
      </trkpt>
      <trkpt lat="45.9832" lon="6.57067">
        <ele>2263.3</ele>
        <time>2026-02-02T14:55:25Z</time>
      </trkpt>
      <trkpt lat="45.9832" lon="6.57067">
        <ele>2263.3</ele>
        <time>2026-02-02T14:55:26Z</time>
      </trkpt>
      <trkpt lat="45.9832" lon="6.57067">
        <ele>2263.3</ele>
        <time>2026-02-02T14:55:27Z</time>
      </trkpt>
      <trkpt lat="45.98321" lon="6.57067">
        <ele>2263.3</ele>
        <time>2026-02-02T14:55:28Z</time>
      </trkpt>
      <trkpt lat="45.98321" lon="6.57067">
        <ele>2263.3</ele>
        <time>2026-02-02T14:55:29Z</time>
      </trkpt>
      <trkpt lat="45.98321" lon="6.57067">
        <ele>2263.3</ele>
        <time>2026-02-02T14:55:30Z</time>
      </trkpt>
      <trkpt lat="45.98321" lon="6.57067">
        <ele>2263.3</ele>
        <time>2026-02-02T14:55:31Z</time>
      </trkpt>
      <trkpt lat="45.98321" lon="6.57067">
        <ele>2263.3</ele>
        <time>2026-02-02T14:55:32Z</time>
      </trkpt>
      <trkpt lat="45.98321" lon="6.57067">
        <ele>2263.3</ele>
        <time>2026-02-02T14:55:33Z</time>
      </trkpt>
      <trkpt lat="45.98321" lon="6.57067">
        <ele>2263.3</ele>
        <time>2026-02-02T14:55:34Z</time>
      </trkpt>
      <trkpt lat="45.98321" lon="6.57067">
        <ele>2263.3</ele>
        <time>2026-02-02T14:55:35Z</time>
      </trkpt>
      <trkpt lat="45.98321" lon="6.57067">
        <ele>2263.3</ele>
        <time>2026-02-02T14:55:36Z</time>
      </trkpt>
      <trkpt lat="45.98321" lon="6.57067">
        <ele>2263.3</ele>
        <time>2026-02-02T14:55:37Z</time>
      </trkpt>
      <trkpt lat="45.98321" lon="6.57067">
        <ele>2263.3</ele>
        <time>2026-02-02T14:55:38Z</time>
      </trkpt>
      <trkpt lat="45.98321" lon="6.57067">
        <ele>2263.3</ele>
        <time>2026-02-02T14:55:39Z</time>
      </trkpt>
      <trkpt lat="45.98321" lon="6.57067">
        <ele>2263.3</ele>
        <time>2026-02-02T14:55:40Z</time>
      </trkpt>
      <trkpt lat="45.98321" lon="6.57067">
        <ele>2263.3</ele>
        <time>2026-02-02T14:55:41Z</time>
      </trkpt>
      <trkpt lat="45.98321" lon="6.57066">
        <ele>2263.3</ele>
        <time>2026-02-02T14:55:42Z</time>
      </trkpt>
      <trkpt lat="45.98321" lon="6.57066">
        <ele>2263.3</ele>
        <time>2026-02-02T14:55:43Z</time>
      </trkpt>
      <trkpt lat="45.98321" lon="6.57066">
        <ele>2263.3</ele>
        <time>2026-02-02T14:55:44Z</time>
      </trkpt>
      <trkpt lat="45.98321" lon="6.57066">
        <ele>2263.3</ele>
        <time>2026-02-02T14:55:45Z</time>
      </trkpt>
      <trkpt lat="45.98321" lon="6.57066">
        <ele>2263.3</ele>
        <time>2026-02-02T14:55:46Z</time>
      </trkpt>
      <trkpt lat="45.98321" lon="6.57066">
        <ele>2263.3</ele>
        <time>2026-02-02T14:55:47Z</time>
      </trkpt>
      <trkpt lat="45.98321" lon="6.57066">
        <ele>2263.3</ele>
        <time>2026-02-02T14:55:48Z</time>
      </trkpt>
      <trkpt lat="45.98321" lon="6.57066">
        <ele>2263.3</ele>
        <time>2026-02-02T14:55:49Z</time>
      </trkpt>
      <trkpt lat="45.98321" lon="6.57066">
        <ele>2263.3</ele>
        <time>2026-02-02T14:55:50Z</time>
      </trkpt>
      <trkpt lat="45.98321" lon="6.57066">
        <ele>2263.3</ele>
        <time>2026-02-02T14:55:51Z</time>
      </trkpt>
      <trkpt lat="45.98322" lon="6.57067">
        <ele>2263.3</ele>
        <time>2026-02-02T14:55:52Z</time>
      </trkpt>
      <trkpt lat="45.98322" lon="6.57067">
        <ele>2263.3</ele>
        <time>2026-02-02T14:55:53Z</time>
      </trkpt>
      <trkpt lat="45.98322" lon="6.57067">
        <ele>2263.3</ele>
        <time>2026-02-02T14:55:54Z</time>
      </trkpt>
      <trkpt lat="45.98322" lon="6.57067">
        <ele>2263.3</ele>
        <time>2026-02-02T14:55:55Z</time>
      </trkpt>
      <trkpt lat="45.98322" lon="6.57067">
        <ele>2263.3</ele>
        <time>2026-02-02T14:55:56Z</time>
      </trkpt>
      <trkpt lat="45.98322" lon="6.57067">
        <ele>2263.3</ele>
        <time>2026-02-02T14:55:57Z</time>
      </trkpt>
      <trkpt lat="45.98322" lon="6.57067">
        <ele>2263.3</ele>
        <time>2026-02-02T14:55:58Z</time>
      </trkpt>
      <trkpt lat="45.98322" lon="6.57067">
        <ele>2263.3</ele>
        <time>2026-02-02T14:55:59Z</time>
      </trkpt>
      <trkpt lat="45.98322" lon="6.57067">
        <ele>2263.3</ele>
        <time>2026-02-02T14:56:00Z</time>
      </trkpt>
      <trkpt lat="45.98322" lon="6.57068">
        <ele>2263.3</ele>
        <time>2026-02-02T14:56:01Z</time>
      </trkpt>
      <trkpt lat="45.98322" lon="6.57069">
        <ele>2264.9</ele>
        <time>2026-02-02T14:56:02Z</time>
      </trkpt>
      <trkpt lat="45.98322" lon="6.57069">
        <ele>2264.9</ele>
        <time>2026-02-02T14:56:03Z</time>
      </trkpt>
      <trkpt lat="45.98321" lon="6.5707">
        <ele>2264.9</ele>
        <time>2026-02-02T14:56:04Z</time>
      </trkpt>
      <trkpt lat="45.98321" lon="6.57069">
        <ele>2264.9</ele>
        <time>2026-02-02T14:56:05Z</time>
      </trkpt>
      <trkpt lat="45.98321" lon="6.57069">
        <ele>2264.9</ele>
        <time>2026-02-02T14:56:06Z</time>
      </trkpt>
      <trkpt lat="45.9832" lon="6.5707">
        <ele>2264.9</ele>
        <time>2026-02-02T14:56:07Z</time>
      </trkpt>
      <trkpt lat="45.98319" lon="6.57071">
        <ele>2264.9</ele>
        <time>2026-02-02T14:56:08Z</time>
      </trkpt>
      <trkpt lat="45.98318" lon="6.57072">
        <ele>2265</ele>
        <time>2026-02-02T14:56:09Z</time>
      </trkpt>
      <trkpt lat="45.98317" lon="6.57072">
        <ele>2265</ele>
        <time>2026-02-02T14:56:10Z</time>
      </trkpt>
      <trkpt lat="45.98316" lon="6.57073">
        <ele>2266.7</ele>
        <time>2026-02-02T14:56:11Z</time>
      </trkpt>
      <trkpt lat="45.98315" lon="6.57074">
        <ele>2266.7</ele>
        <time>2026-02-02T14:56:12Z</time>
      </trkpt>
      <trkpt lat="45.98315" lon="6.57075">
        <ele>2266.7</ele>
        <time>2026-02-02T14:56:13Z</time>
      </trkpt>
      <trkpt lat="45.98314" lon="6.57075">
        <ele>2266.7</ele>
        <time>2026-02-02T14:56:14Z</time>
      </trkpt>
      <trkpt lat="45.98313" lon="6.57075">
        <ele>2266.7</ele>
        <time>2026-02-02T14:56:15Z</time>
      </trkpt>
      <trkpt lat="45.98313" lon="6.57076">
        <ele>2266.7</ele>
        <time>2026-02-02T14:56:16Z</time>
      </trkpt>
      <trkpt lat="45.98313" lon="6.57076">
        <ele>2266.7</ele>
        <time>2026-02-02T14:56:17Z</time>
      </trkpt>
      <trkpt lat="45.98313" lon="6.57076">
        <ele>2266.7</ele>
        <time>2026-02-02T14:56:18Z</time>
      </trkpt>
      <trkpt lat="45.98313" lon="6.57076">
        <ele>2266.7</ele>
        <time>2026-02-02T14:56:19Z</time>
      </trkpt>
      <trkpt lat="45.98313" lon="6.57076">
        <ele>2266.7</ele>
        <time>2026-02-02T14:56:20Z</time>
      </trkpt>
      <trkpt lat="45.98313" lon="6.57075">
        <ele>2266.7</ele>
        <time>2026-02-02T14:56:21Z</time>
      </trkpt>
      <trkpt lat="45.98313" lon="6.57075">
        <ele>2266.7</ele>
        <time>2026-02-02T14:56:22Z</time>
      </trkpt>
      <trkpt lat="45.98312" lon="6.57075">
        <ele>2266.9</ele>
        <time>2026-02-02T14:56:23Z</time>
      </trkpt>
      <trkpt lat="45.98312" lon="6.57074">
        <ele>2266.9</ele>
        <time>2026-02-02T14:56:24Z</time>
      </trkpt>
      <trkpt lat="45.98312" lon="6.57074">
        <ele>2266.9</ele>
        <time>2026-02-02T14:56:25Z</time>
      </trkpt>
      <trkpt lat="45.98311" lon="6.57074">
        <ele>2266.9</ele>
        <time>2026-02-02T14:56:26Z</time>
      </trkpt>
      <trkpt lat="45.98311" lon="6.57074">
        <ele>2266.9</ele>
        <time>2026-02-02T14:56:27Z</time>
      </trkpt>
      <trkpt lat="45.98311" lon="6.57074">
        <ele>2266.9</ele>
        <time>2026-02-02T14:56:28Z</time>
      </trkpt>
      <trkpt lat="45.98311" lon="6.57073">
        <ele>2266.9</ele>
        <time>2026-02-02T14:56:29Z</time>
      </trkpt>
      <trkpt lat="45.98311" lon="6.57073">
        <ele>2266.9</ele>
        <time>2026-02-02T14:56:30Z</time>
      </trkpt>
      <trkpt lat="45.98311" lon="6.57073">
        <ele>2266.9</ele>
        <time>2026-02-02T14:56:31Z</time>
      </trkpt>
      <trkpt lat="45.9831" lon="6.57073">
        <ele>2266.9</ele>
        <time>2026-02-02T14:56:32Z</time>
      </trkpt>
      <trkpt lat="45.9831" lon="6.57073">
        <ele>2266.9</ele>
        <time>2026-02-02T14:56:33Z</time>
      </trkpt>
      <trkpt lat="45.9831" lon="6.57073">
        <ele>2266.9</ele>
        <time>2026-02-02T14:56:34Z</time>
      </trkpt>
      <trkpt lat="45.9831" lon="6.57073">
        <ele>2266.9</ele>
        <time>2026-02-02T14:56:35Z</time>
      </trkpt>
      <trkpt lat="45.9831" lon="6.57073">
        <ele>2266.9</ele>
        <time>2026-02-02T14:56:36Z</time>
      </trkpt>
      <trkpt lat="45.9831" lon="6.57074">
        <ele>2266.9</ele>
        <time>2026-02-02T14:56:37Z</time>
      </trkpt>
      <trkpt lat="45.9831" lon="6.57075">
        <ele>2266.9</ele>
        <time>2026-02-02T14:56:38Z</time>
      </trkpt>
      <trkpt lat="45.9831" lon="6.57075">
        <ele>2266.9</ele>
        <time>2026-02-02T14:56:39Z</time>
      </trkpt>
      <trkpt lat="45.98311" lon="6.57076">
        <ele>2266.9</ele>
        <time>2026-02-02T14:56:40Z</time>
      </trkpt>
      <trkpt lat="45.98311" lon="6.57076">
        <ele>2266.9</ele>
        <time>2026-02-02T14:56:41Z</time>
      </trkpt>
      <trkpt lat="45.98311" lon="6.57076">
        <ele>2266.9</ele>
        <time>2026-02-02T14:56:42Z</time>
      </trkpt>
      <trkpt lat="45.98312" lon="6.57077">
        <ele>2268.6</ele>
        <time>2026-02-02T14:56:43Z</time>
      </trkpt>
      <trkpt lat="45.98313" lon="6.57078">
        <ele>2268.6</ele>
        <time>2026-02-02T14:56:44Z</time>
      </trkpt>
      <trkpt lat="45.98313" lon="6.57079">
        <ele>2268.5</ele>
        <time>2026-02-02T14:56:45Z</time>
      </trkpt>
      <trkpt lat="45.98314" lon="6.5708">
        <ele>2268.5</ele>
        <time>2026-02-02T14:56:46Z</time>
      </trkpt>
      <trkpt lat="45.98315" lon="6.5708">
        <ele>2268.5</ele>
        <time>2026-02-02T14:56:47Z</time>
      </trkpt>
      <trkpt lat="45.98315" lon="6.57081">
        <ele>2268.5</ele>
        <time>2026-02-02T14:56:48Z</time>
      </trkpt>
      <trkpt lat="45.98316" lon="6.57081">
        <ele>2270.3</ele>
        <time>2026-02-02T14:56:49Z</time>
      </trkpt>
      <trkpt lat="45.98317" lon="6.57082">
        <ele>2270.3</ele>
        <time>2026-02-02T14:56:50Z</time>
      </trkpt>
      <trkpt lat="45.98317" lon="6.57082">
        <ele>2270.3</ele>
        <time>2026-02-02T14:56:51Z</time>
      </trkpt>
      <trkpt lat="45.98318" lon="6.57083">
        <ele>2270.3</ele>
        <time>2026-02-02T14:56:52Z</time>
      </trkpt>
      <trkpt lat="45.98318" lon="6.57083">
        <ele>2270.3</ele>
        <time>2026-02-02T14:56:53Z</time>
      </trkpt>
      <trkpt lat="45.98318" lon="6.57082">
        <ele>2270.3</ele>
        <time>2026-02-02T14:56:54Z</time>
      </trkpt>
      <trkpt lat="45.98318" lon="6.57082">
        <ele>2270.3</ele>
        <time>2026-02-02T14:56:55Z</time>
      </trkpt>
      <trkpt lat="45.98317" lon="6.57082">
        <ele>2270.3</ele>
        <time>2026-02-02T14:56:56Z</time>
      </trkpt>
      <trkpt lat="45.98317" lon="6.57082">
        <ele>2270.3</ele>
        <time>2026-02-02T14:56:57Z</time>
      </trkpt>
      <trkpt lat="45.98317" lon="6.57082">
        <ele>2270.3</ele>
        <time>2026-02-02T14:56:58Z</time>
      </trkpt>
      <trkpt lat="45.98317" lon="6.57082">
        <ele>2270.3</ele>
        <time>2026-02-02T14:56:59Z</time>
      </trkpt>
      <trkpt lat="45.98317" lon="6.57082">
        <ele>2270.3</ele>
        <time>2026-02-02T14:57:00Z</time>
      </trkpt>
      <trkpt lat="45.98317" lon="6.57082">
        <ele>2270.3</ele>
        <time>2026-02-02T14:57:01Z</time>
      </trkpt>
      <trkpt lat="45.98317" lon="6.57082">
        <ele>2270.3</ele>
        <time>2026-02-02T14:57:02Z</time>
      </trkpt>
      <trkpt lat="45.98317" lon="6.57082">
        <ele>2270.3</ele>
        <time>2026-02-02T14:57:03Z</time>
      </trkpt>
      <trkpt lat="45.98317" lon="6.57082">
        <ele>2270.3</ele>
        <time>2026-02-02T14:57:04Z</time>
      </trkpt>
      <trkpt lat="45.98317" lon="6.57082">
        <ele>2270.3</ele>
        <time>2026-02-02T14:57:05Z</time>
      </trkpt>
      <trkpt lat="45.98317" lon="6.57082">
        <ele>2270.3</ele>
        <time>2026-02-02T14:57:06Z</time>
      </trkpt>
      <trkpt lat="45.98317" lon="6.57082">
        <ele>2270.3</ele>
        <time>2026-02-02T14:57:07Z</time>
      </trkpt>
      <trkpt lat="45.98317" lon="6.57082">
        <ele>2270.3</ele>
        <time>2026-02-02T14:57:08Z</time>
      </trkpt>
      <trkpt lat="45.98317" lon="6.57082">
        <ele>2270.3</ele>
        <time>2026-02-02T14:57:09Z</time>
      </trkpt>
      <trkpt lat="45.98318" lon="6.57083">
        <ele>2270.3</ele>
        <time>2026-02-02T14:57:10Z</time>
      </trkpt>
      <trkpt lat="45.98318" lon="6.57083">
        <ele>2270.3</ele>
        <time>2026-02-02T14:57:11Z</time>
      </trkpt>
      <trkpt lat="45.98318" lon="6.57084">
        <ele>2270.3</ele>
        <time>2026-02-02T14:57:12Z</time>
      </trkpt>
      <trkpt lat="45.98317" lon="6.57085">
        <ele>2270.3</ele>
        <time>2026-02-02T14:57:13Z</time>
      </trkpt>
      <trkpt lat="45.98316" lon="6.57086">
        <ele>2272.2</ele>
        <time>2026-02-02T14:57:14Z</time>
      </trkpt>
      <trkpt lat="45.98315" lon="6.57086">
        <ele>2272.3</ele>
        <time>2026-02-02T14:57:15Z</time>
      </trkpt>
      <trkpt lat="45.98315" lon="6.57087">
        <ele>2272.3</ele>
        <time>2026-02-02T14:57:16Z</time>
      </trkpt>
      <trkpt lat="45.98314" lon="6.57087">
        <ele>2272.3</ele>
        <time>2026-02-02T14:57:17Z</time>
      </trkpt>
      <trkpt lat="45.98314" lon="6.57087">
        <ele>2272.3</ele>
        <time>2026-02-02T14:57:18Z</time>
      </trkpt>
      <trkpt lat="45.98313" lon="6.57088">
        <ele>2272.3</ele>
        <time>2026-02-02T14:57:19Z</time>
      </trkpt>
      <trkpt lat="45.98313" lon="6.57089">
        <ele>2272.5</ele>
        <time>2026-02-02T14:57:20Z</time>
      </trkpt>
      <trkpt lat="45.98312" lon="6.57089">
        <ele>2272.5</ele>
        <time>2026-02-02T14:57:21Z</time>
      </trkpt>
      <trkpt lat="45.98312" lon="6.57089">
        <ele>2272.5</ele>
        <time>2026-02-02T14:57:22Z</time>
      </trkpt>
      <trkpt lat="45.98313" lon="6.57089">
        <ele>2272.3</ele>
        <time>2026-02-02T14:57:23Z</time>
      </trkpt>
      <trkpt lat="45.98313" lon="6.57089">
        <ele>2272.3</ele>
        <time>2026-02-02T14:57:24Z</time>
      </trkpt>
      <trkpt lat="45.98314" lon="6.57089">
        <ele>2272.3</ele>
        <time>2026-02-02T14:57:25Z</time>
      </trkpt>
      <trkpt lat="45.98314" lon="6.57089">
        <ele>2272.3</ele>
        <time>2026-02-02T14:57:26Z</time>
      </trkpt>
      <trkpt lat="45.98314" lon="6.57089">
        <ele>2272.3</ele>
        <time>2026-02-02T14:57:27Z</time>
      </trkpt>
      <trkpt lat="45.98314" lon="6.57089">
        <ele>2272.3</ele>
        <time>2026-02-02T14:57:28Z</time>
      </trkpt>
      <trkpt lat="45.98314" lon="6.57089">
        <ele>2272.3</ele>
        <time>2026-02-02T14:57:29Z</time>
      </trkpt>
      <trkpt lat="45.98314" lon="6.57089">
        <ele>2272.3</ele>
        <time>2026-02-02T14:57:30Z</time>
      </trkpt>
      <trkpt lat="45.98314" lon="6.57089">
        <ele>2272.3</ele>
        <time>2026-02-02T14:57:31Z</time>
      </trkpt>
      <trkpt lat="45.98314" lon="6.57089">
        <ele>2272.3</ele>
        <time>2026-02-02T14:57:32Z</time>
      </trkpt>
      <trkpt lat="45.98314" lon="6.57089">
        <ele>2272.3</ele>
        <time>2026-02-02T14:57:33Z</time>
      </trkpt>
      <trkpt lat="45.98314" lon="6.57089">
        <ele>2272.3</ele>
        <time>2026-02-02T14:57:34Z</time>
      </trkpt>
      <trkpt lat="45.98314" lon="6.57089">
        <ele>2272.3</ele>
        <time>2026-02-02T14:57:35Z</time>
      </trkpt>
      <trkpt lat="45.98314" lon="6.57089">
        <ele>2272.3</ele>
        <time>2026-02-02T14:57:36Z</time>
      </trkpt>
      <trkpt lat="45.98314" lon="6.57089">
        <ele>2272.3</ele>
        <time>2026-02-02T14:57:37Z</time>
      </trkpt>
      <trkpt lat="45.98314" lon="6.57089">
        <ele>2272.3</ele>
        <time>2026-02-02T14:57:38Z</time>
      </trkpt>
      <trkpt lat="45.98314" lon="6.57089">
        <ele>2272.3</ele>
        <time>2026-02-02T14:57:39Z</time>
      </trkpt>
      <trkpt lat="45.98314" lon="6.57089">
        <ele>2272.3</ele>
        <time>2026-02-02T14:57:40Z</time>
      </trkpt>
      <trkpt lat="45.98313" lon="6.57089">
        <ele>2272.3</ele>
        <time>2026-02-02T14:57:41Z</time>
      </trkpt>
      <trkpt lat="45.98313" lon="6.57089">
        <ele>2272.5</ele>
        <time>2026-02-02T14:57:42Z</time>
      </trkpt>
      <trkpt lat="45.98312" lon="6.57089">
        <ele>2272.5</ele>
        <time>2026-02-02T14:57:43Z</time>
      </trkpt>
      <trkpt lat="45.98311" lon="6.57089">
        <ele>2272.5</ele>
        <time>2026-02-02T14:57:44Z</time>
      </trkpt>
      <trkpt lat="45.98311" lon="6.5709">
        <ele>2272.5</ele>
        <time>2026-02-02T14:57:45Z</time>
      </trkpt>
      <trkpt lat="45.98311" lon="6.5709">
        <ele>2272.5</ele>
        <time>2026-02-02T14:57:46Z</time>
      </trkpt>
      <trkpt lat="45.98311" lon="6.5709">
        <ele>2274.4</ele>
        <time>2026-02-02T14:57:47Z</time>
      </trkpt>
      <trkpt lat="45.98311" lon="6.5709">
        <ele>2274.4</ele>
        <time>2026-02-02T14:57:48Z</time>
      </trkpt>
      <trkpt lat="45.98311" lon="6.57091">
        <ele>2274.4</ele>
        <time>2026-02-02T14:57:49Z</time>
      </trkpt>
      <trkpt lat="45.98311" lon="6.57091">
        <ele>2274.4</ele>
        <time>2026-02-02T14:57:50Z</time>
      </trkpt>
      <trkpt lat="45.98311" lon="6.57091">
        <ele>2274.4</ele>
        <time>2026-02-02T14:57:51Z</time>
      </trkpt>
      <trkpt lat="45.98311" lon="6.57091">
        <ele>2274.4</ele>
        <time>2026-02-02T14:57:52Z</time>
      </trkpt>
      <trkpt lat="45.98311" lon="6.57091">
        <ele>2274.4</ele>
        <time>2026-02-02T14:57:53Z</time>
      </trkpt>
      <trkpt lat="45.98311" lon="6.5709">
        <ele>2274.4</ele>
        <time>2026-02-02T14:57:54Z</time>
      </trkpt>
      <trkpt lat="45.98311" lon="6.5709">
        <ele>2274.4</ele>
        <time>2026-02-02T14:57:55Z</time>
      </trkpt>
      <trkpt lat="45.98311" lon="6.5709">
        <ele>2274.4</ele>
        <time>2026-02-02T14:57:56Z</time>
      </trkpt>
      <trkpt lat="45.98311" lon="6.5709">
        <ele>2274.4</ele>
        <time>2026-02-02T14:57:57Z</time>
      </trkpt>
      <trkpt lat="45.98311" lon="6.57091">
        <ele>2274.4</ele>
        <time>2026-02-02T14:57:58Z</time>
      </trkpt>
      <trkpt lat="45.98311" lon="6.57091">
        <ele>2274.4</ele>
        <time>2026-02-02T14:57:59Z</time>
      </trkpt>
      <trkpt lat="45.98311" lon="6.57091">
        <ele>2274.4</ele>
        <time>2026-02-02T14:58:00Z</time>
      </trkpt>
      <trkpt lat="45.98311" lon="6.57091">
        <ele>2274.4</ele>
        <time>2026-02-02T14:58:01Z</time>
      </trkpt>
      <trkpt lat="45.98311" lon="6.57091">
        <ele>2274.4</ele>
        <time>2026-02-02T14:58:02Z</time>
      </trkpt>
      <trkpt lat="45.98311" lon="6.57091">
        <ele>2274.4</ele>
        <time>2026-02-02T14:58:03Z</time>
      </trkpt>
      <trkpt lat="45.98311" lon="6.57091">
        <ele>2274.4</ele>
        <time>2026-02-02T14:58:04Z</time>
      </trkpt>
      <trkpt lat="45.98311" lon="6.57091">
        <ele>2274.4</ele>
        <time>2026-02-02T14:58:05Z</time>
      </trkpt>
      <trkpt lat="45.98312" lon="6.57092">
        <ele>2274.4</ele>
        <time>2026-02-02T14:58:06Z</time>
      </trkpt>
      <trkpt lat="45.98312" lon="6.57092">
        <ele>2274.4</ele>
        <time>2026-02-02T14:58:07Z</time>
      </trkpt>
      <trkpt lat="45.98312" lon="6.57092">
        <ele>2274.4</ele>
        <time>2026-02-02T14:58:08Z</time>
      </trkpt>
      <trkpt lat="45.98312" lon="6.57093">
        <ele>2274.4</ele>
        <time>2026-02-02T14:58:09Z</time>
      </trkpt>
      <trkpt lat="45.98313" lon="6.57093">
        <ele>2274.2</ele>
        <time>2026-02-02T14:58:10Z</time>
      </trkpt>
      <trkpt lat="45.98314" lon="6.57093">
        <ele>2274.2</ele>
        <time>2026-02-02T14:58:11Z</time>
      </trkpt>
      <trkpt lat="45.98315" lon="6.57094">
        <ele>2274.2</ele>
        <time>2026-02-02T14:58:12Z</time>
      </trkpt>
      <trkpt lat="45.98316" lon="6.57094">
        <ele>2276</ele>
        <time>2026-02-02T14:58:13Z</time>
      </trkpt>
      <trkpt lat="45.98317" lon="6.57095">
        <ele>2276</ele>
        <time>2026-02-02T14:58:14Z</time>
      </trkpt>
      <trkpt lat="45.98318" lon="6.57095">
        <ele>2276</ele>
        <time>2026-02-02T14:58:15Z</time>
      </trkpt>
      <trkpt lat="45.98318" lon="6.57095">
        <ele>2276</ele>
        <time>2026-02-02T14:58:16Z</time>
      </trkpt>
      <trkpt lat="45.98319" lon="6.57095">
        <ele>2275.9</ele>
        <time>2026-02-02T14:58:17Z</time>
      </trkpt>
      <trkpt lat="45.9832" lon="6.57095">
        <ele>2275.9</ele>
        <time>2026-02-02T14:58:18Z</time>
      </trkpt>
      <trkpt lat="45.9832" lon="6.57095">
        <ele>2275.9</ele>
        <time>2026-02-02T14:58:19Z</time>
      </trkpt>
      <trkpt lat="45.98319" lon="6.57095">
        <ele>2275.9</ele>
        <time>2026-02-02T14:58:20Z</time>
      </trkpt>
      <trkpt lat="45.98318" lon="6.57095">
        <ele>2276</ele>
        <time>2026-02-02T14:58:21Z</time>
      </trkpt>
      <trkpt lat="45.98318" lon="6.57095">
        <ele>2276</ele>
        <time>2026-02-02T14:58:22Z</time>
      </trkpt>
      <trkpt lat="45.98317" lon="6.57096">
        <ele>2276</ele>
        <time>2026-02-02T14:58:23Z</time>
      </trkpt>
      <trkpt lat="45.98317" lon="6.57096">
        <ele>2276</ele>
        <time>2026-02-02T14:58:24Z</time>
      </trkpt>
      <trkpt lat="45.98317" lon="6.57096">
        <ele>2276</ele>
        <time>2026-02-02T14:58:25Z</time>
      </trkpt>
      <trkpt lat="45.98317" lon="6.57096">
        <ele>2276</ele>
        <time>2026-02-02T14:58:26Z</time>
      </trkpt>
      <trkpt lat="45.98316" lon="6.57096">
        <ele>2276</ele>
        <time>2026-02-02T14:58:27Z</time>
      </trkpt>
      <trkpt lat="45.98317" lon="6.57096">
        <ele>2276</ele>
        <time>2026-02-02T14:58:28Z</time>
      </trkpt>
      <trkpt lat="45.98317" lon="6.57096">
        <ele>2276</ele>
        <time>2026-02-02T14:58:29Z</time>
      </trkpt>
      <trkpt lat="45.98318" lon="6.57096">
        <ele>2276</ele>
        <time>2026-02-02T14:58:30Z</time>
      </trkpt>
      <trkpt lat="45.98318" lon="6.57096">
        <ele>2276</ele>
        <time>2026-02-02T14:58:31Z</time>
      </trkpt>
      <trkpt lat="45.98319" lon="6.57097">
        <ele>2276</ele>
        <time>2026-02-02T14:58:32Z</time>
      </trkpt>
      <trkpt lat="45.98319" lon="6.57097">
        <ele>2275.9</ele>
        <time>2026-02-02T14:58:33Z</time>
      </trkpt>
      <trkpt lat="45.9832" lon="6.57097">
        <ele>2275.9</ele>
        <time>2026-02-02T14:58:34Z</time>
      </trkpt>
      <trkpt lat="45.9832" lon="6.57097">
        <ele>2275.9</ele>
        <time>2026-02-02T14:58:35Z</time>
      </trkpt>
      <trkpt lat="45.98321" lon="6.57098">
        <ele>2275.9</ele>
        <time>2026-02-02T14:58:36Z</time>
      </trkpt>
      <trkpt lat="45.98322" lon="6.57099">
        <ele>2277.6</ele>
        <time>2026-02-02T14:58:37Z</time>
      </trkpt>
      <trkpt lat="45.98323" lon="6.571">
        <ele>2277.6</ele>
        <time>2026-02-02T14:58:38Z</time>
      </trkpt>
      <trkpt lat="45.98324" lon="6.571">
        <ele>2277.6</ele>
        <time>2026-02-02T14:58:39Z</time>
      </trkpt>
      <trkpt lat="45.98325" lon="6.571">
        <ele>2277.6</ele>
        <time>2026-02-02T14:58:40Z</time>
      </trkpt>
      <trkpt lat="45.98325" lon="6.571">
        <ele>2277.6</ele>
        <time>2026-02-02T14:58:41Z</time>
      </trkpt>
      <trkpt lat="45.98326" lon="6.571">
        <ele>2277.6</ele>
        <time>2026-02-02T14:58:42Z</time>
      </trkpt>
      <trkpt lat="45.98326" lon="6.57101">
        <ele>2277.6</ele>
        <time>2026-02-02T14:58:43Z</time>
      </trkpt>
      <trkpt lat="45.98326" lon="6.57101">
        <ele>2277.6</ele>
        <time>2026-02-02T14:58:44Z</time>
      </trkpt>
      <trkpt lat="45.98326" lon="6.57101">
        <ele>2277.6</ele>
        <time>2026-02-02T14:58:45Z</time>
      </trkpt>
      <trkpt lat="45.98326" lon="6.57101">
        <ele>2277.6</ele>
        <time>2026-02-02T14:58:46Z</time>
      </trkpt>
      <trkpt lat="45.98326" lon="6.57101">
        <ele>2277.6</ele>
        <time>2026-02-02T14:58:47Z</time>
      </trkpt>
      <trkpt lat="45.98326" lon="6.57101">
        <ele>2277.6</ele>
        <time>2026-02-02T14:58:48Z</time>
      </trkpt>
      <trkpt lat="45.98326" lon="6.571">
        <ele>2277.6</ele>
        <time>2026-02-02T14:58:49Z</time>
      </trkpt>
      <trkpt lat="45.98326" lon="6.571">
        <ele>2277.6</ele>
        <time>2026-02-02T14:58:50Z</time>
      </trkpt>
      <trkpt lat="45.98326" lon="6.571">
        <ele>2277.6</ele>
        <time>2026-02-02T14:58:51Z</time>
      </trkpt>
      <trkpt lat="45.98326" lon="6.571">
        <ele>2277.6</ele>
        <time>2026-02-02T14:58:52Z</time>
      </trkpt>
      <trkpt lat="45.98326" lon="6.571">
        <ele>2277.6</ele>
        <time>2026-02-02T14:58:53Z</time>
      </trkpt>
      <trkpt lat="45.98326" lon="6.571">
        <ele>2277.6</ele>
        <time>2026-02-02T14:58:54Z</time>
      </trkpt>
      <trkpt lat="45.98326" lon="6.571">
        <ele>2277.6</ele>
        <time>2026-02-02T14:58:55Z</time>
      </trkpt>
      <trkpt lat="45.98326" lon="6.571">
        <ele>2277.6</ele>
        <time>2026-02-02T14:58:56Z</time>
      </trkpt>
      <trkpt lat="45.98326" lon="6.571">
        <ele>2277.6</ele>
        <time>2026-02-02T14:58:57Z</time>
      </trkpt>
      <trkpt lat="45.98325" lon="6.571">
        <ele>2277.6</ele>
        <time>2026-02-02T14:58:58Z</time>
      </trkpt>
      <trkpt lat="45.98325" lon="6.571">
        <ele>2277.6</ele>
        <time>2026-02-02T14:58:59Z</time>
      </trkpt>
      <trkpt lat="45.98325" lon="6.571">
        <ele>2277.6</ele>
        <time>2026-02-02T14:59:00Z</time>
      </trkpt>
      <trkpt lat="45.98325" lon="6.571">
        <ele>2277.6</ele>
        <time>2026-02-02T14:59:01Z</time>
      </trkpt>
      <trkpt lat="45.98325" lon="6.571">
        <ele>2277.6</ele>
        <time>2026-02-02T14:59:02Z</time>
      </trkpt>
      <trkpt lat="45.98325" lon="6.571">
        <ele>2277.6</ele>
        <time>2026-02-02T14:59:03Z</time>
      </trkpt>
      <trkpt lat="45.98325" lon="6.571">
        <ele>2277.6</ele>
        <time>2026-02-02T14:59:04Z</time>
      </trkpt>
      <trkpt lat="45.98325" lon="6.571">
        <ele>2277.6</ele>
        <time>2026-02-02T14:59:05Z</time>
      </trkpt>
      <trkpt lat="45.98325" lon="6.571">
        <ele>2277.6</ele>
        <time>2026-02-02T14:59:06Z</time>
      </trkpt>
      <trkpt lat="45.98326" lon="6.571">
        <ele>2277.6</ele>
        <time>2026-02-02T14:59:08Z</time>
      </trkpt>
      <trkpt lat="45.98327" lon="6.57101">
        <ele>2277.6</ele>
        <time>2026-02-02T14:59:09Z</time>
      </trkpt>
      <trkpt lat="45.98327" lon="6.57101">
        <ele>2277.6</ele>
        <time>2026-02-02T14:59:10Z</time>
      </trkpt>
      <trkpt lat="45.98327" lon="6.57101">
        <ele>2277.6</ele>
        <time>2026-02-02T14:59:11Z</time>
      </trkpt>
      <trkpt lat="45.98327" lon="6.57102">
        <ele>2277.6</ele>
        <time>2026-02-02T14:59:12Z</time>
      </trkpt>
      <trkpt lat="45.98326" lon="6.57102">
        <ele>2277.6</ele>
        <time>2026-02-02T14:59:13Z</time>
      </trkpt>
      <trkpt lat="45.98326" lon="6.57103">
        <ele>2279.4</ele>
        <time>2026-02-02T14:59:14Z</time>
      </trkpt>
      <trkpt lat="45.98326" lon="6.57104">
        <ele>2279.4</ele>
        <time>2026-02-02T14:59:15Z</time>
      </trkpt>
      <trkpt lat="45.98326" lon="6.57105">
        <ele>2279.4</ele>
        <time>2026-02-02T14:59:16Z</time>
      </trkpt>
      <trkpt lat="45.98326" lon="6.57106">
        <ele>2279.4</ele>
        <time>2026-02-02T14:59:17Z</time>
      </trkpt>
      <trkpt lat="45.98326" lon="6.57106">
        <ele>2279.4</ele>
        <time>2026-02-02T14:59:18Z</time>
      </trkpt>
      <trkpt lat="45.98325" lon="6.57107">
        <ele>2281.2</ele>
        <time>2026-02-02T14:59:19Z</time>
      </trkpt>
      <trkpt lat="45.98325" lon="6.57109">
        <ele>2281.2</ele>
        <time>2026-02-02T14:59:20Z</time>
      </trkpt>
      <trkpt lat="45.98324" lon="6.5711">
        <ele>2281.2</ele>
        <time>2026-02-02T14:59:21Z</time>
      </trkpt>
      <trkpt lat="45.98324" lon="6.57111">
        <ele>2281.2</ele>
        <time>2026-02-02T14:59:22Z</time>
      </trkpt>
      <trkpt lat="45.98323" lon="6.57112">
        <ele>2283</ele>
        <time>2026-02-02T14:59:23Z</time>
      </trkpt>
      <trkpt lat="45.98322" lon="6.57112">
        <ele>2283.1</ele>
        <time>2026-02-02T14:59:24Z</time>
      </trkpt>
      <trkpt lat="45.9832" lon="6.57112">
        <ele>2283.1</ele>
        <time>2026-02-02T14:59:25Z</time>
      </trkpt>
      <trkpt lat="45.9832" lon="6.57112">
        <ele>2283.2</ele>
        <time>2026-02-02T14:59:26Z</time>
      </trkpt>
      <trkpt lat="45.98319" lon="6.57113">
        <ele>2283.2</ele>
        <time>2026-02-02T14:59:27Z</time>
      </trkpt>
      <trkpt lat="45.98318" lon="6.57113">
        <ele>2283.3</ele>
        <time>2026-02-02T14:59:28Z</time>
      </trkpt>
      <trkpt lat="45.98318" lon="6.57113">
        <ele>2283.3</ele>
        <time>2026-02-02T14:59:29Z</time>
      </trkpt>
      <trkpt lat="45.98318" lon="6.57113">
        <ele>2283.3</ele>
        <time>2026-02-02T14:59:30Z</time>
      </trkpt>
      <trkpt lat="45.98318" lon="6.57112">
        <ele>2283.3</ele>
        <time>2026-02-02T14:59:31Z</time>
      </trkpt>
      <trkpt lat="45.98318" lon="6.57112">
        <ele>2283.3</ele>
        <time>2026-02-02T14:59:32Z</time>
      </trkpt>
      <trkpt lat="45.98319" lon="6.57112">
        <ele>2283.4</ele>
        <time>2026-02-02T14:59:33Z</time>
      </trkpt>
      <trkpt lat="45.98319" lon="6.57112">
        <ele>2283.4</ele>
        <time>2026-02-02T14:59:34Z</time>
      </trkpt>
      <trkpt lat="45.98319" lon="6.57111">
        <ele>2283.4</ele>
        <time>2026-02-02T14:59:35Z</time>
      </trkpt>
      <trkpt lat="45.98319" lon="6.57111">
        <ele>2283.4</ele>
        <time>2026-02-02T14:59:36Z</time>
      </trkpt>
      <trkpt lat="45.98319" lon="6.57111">
        <ele>2283.4</ele>
        <time>2026-02-02T14:59:37Z</time>
      </trkpt>
      <trkpt lat="45.98319" lon="6.57111">
        <ele>2283.4</ele>
        <time>2026-02-02T14:59:38Z</time>
      </trkpt>
      <trkpt lat="45.98319" lon="6.57111">
        <ele>2283.4</ele>
        <time>2026-02-02T14:59:39Z</time>
      </trkpt>
      <trkpt lat="45.98319" lon="6.57111">
        <ele>2283.4</ele>
        <time>2026-02-02T14:59:40Z</time>
      </trkpt>
      <trkpt lat="45.98319" lon="6.57111">
        <ele>2283.4</ele>
        <time>2026-02-02T14:59:41Z</time>
      </trkpt>
      <trkpt lat="45.98319" lon="6.57111">
        <ele>2283.4</ele>
        <time>2026-02-02T14:59:42Z</time>
      </trkpt>
      <trkpt lat="45.98318" lon="6.57111">
        <ele>2283.4</ele>
        <time>2026-02-02T14:59:43Z</time>
      </trkpt>
      <trkpt lat="45.98318" lon="6.57111">
        <ele>2283.5</ele>
        <time>2026-02-02T14:59:44Z</time>
      </trkpt>
      <trkpt lat="45.98317" lon="6.57111">
        <ele>2283.5</ele>
        <time>2026-02-02T14:59:45Z</time>
      </trkpt>
      <trkpt lat="45.98316" lon="6.57112">
        <ele>2283.5</ele>
        <time>2026-02-02T14:59:46Z</time>
      </trkpt>
      <trkpt lat="45.98314" lon="6.57113">
        <ele>2283.6</ele>
        <time>2026-02-02T14:59:47Z</time>
      </trkpt>
      <trkpt lat="45.98312" lon="6.57113">
        <ele>2283.7</ele>
        <time>2026-02-02T14:59:49Z</time>
      </trkpt>
      <trkpt lat="45.98311" lon="6.57113">
        <ele>2283.7</ele>
        <time>2026-02-02T14:59:50Z</time>
      </trkpt>
      <trkpt lat="45.9831" lon="6.57114">
        <ele>2283.7</ele>
        <time>2026-02-02T14:59:51Z</time>
      </trkpt>
      <trkpt lat="45.98309" lon="6.57114">
        <ele>2283.8</ele>
        <time>2026-02-02T14:59:52Z</time>
      </trkpt>
      <trkpt lat="45.98308" lon="6.57114">
        <ele>2283.8</ele>
        <time>2026-02-02T14:59:53Z</time>
      </trkpt>
      <trkpt lat="45.98308" lon="6.57114">
        <ele>2283.8</ele>
        <time>2026-02-02T14:59:54Z</time>
      </trkpt>
      <trkpt lat="45.98308" lon="6.57114">
        <ele>2283.8</ele>
        <time>2026-02-02T14:59:55Z</time>
      </trkpt>
      <trkpt lat="45.98308" lon="6.57114">
        <ele>2283.8</ele>
        <time>2026-02-02T14:59:56Z</time>
      </trkpt>
      <trkpt lat="45.98307" lon="6.57114">
        <ele>2283.8</ele>
        <time>2026-02-02T14:59:57Z</time>
      </trkpt>
      <trkpt lat="45.98307" lon="6.57114">
        <ele>2283.8</ele>
        <time>2026-02-02T14:59:58Z</time>
      </trkpt>
      <trkpt lat="45.98307" lon="6.57114">
        <ele>2283.8</ele>
        <time>2026-02-02T14:59:59Z</time>
      </trkpt>
      <trkpt lat="45.98307" lon="6.57114">
        <ele>2283.8</ele>
        <time>2026-02-02T15:00:00Z</time>
      </trkpt>
      <trkpt lat="45.98307" lon="6.57114">
        <ele>2283.8</ele>
        <time>2026-02-02T15:00:01Z</time>
      </trkpt>
      <trkpt lat="45.98307" lon="6.57114">
        <ele>2283.8</ele>
        <time>2026-02-02T15:00:02Z</time>
      </trkpt>
      <trkpt lat="45.98307" lon="6.57113">
        <ele>2283.8</ele>
        <time>2026-02-02T15:00:03Z</time>
      </trkpt>
      <trkpt lat="45.98307" lon="6.57113">
        <ele>2283.8</ele>
        <time>2026-02-02T15:00:04Z</time>
      </trkpt>
      <trkpt lat="45.98307" lon="6.57113">
        <ele>2283.8</ele>
        <time>2026-02-02T15:00:05Z</time>
      </trkpt>
      <trkpt lat="45.98307" lon="6.57113">
        <ele>2283.8</ele>
        <time>2026-02-02T15:00:06Z</time>
      </trkpt>
      <trkpt lat="45.98307" lon="6.57113">
        <ele>2283.8</ele>
        <time>2026-02-02T15:00:07Z</time>
      </trkpt>
      <trkpt lat="45.98306" lon="6.57113">
        <ele>2283.8</ele>
        <time>2026-02-02T15:00:08Z</time>
      </trkpt>
      <trkpt lat="45.98306" lon="6.57113">
        <ele>2283.8</ele>
        <time>2026-02-02T15:00:09Z</time>
      </trkpt>
      <trkpt lat="45.98306" lon="6.57113">
        <ele>2283.8</ele>
        <time>2026-02-02T15:00:10Z</time>
      </trkpt>
      <trkpt lat="45.98306" lon="6.57113">
        <ele>2283.8</ele>
        <time>2026-02-02T15:00:11Z</time>
      </trkpt>
      <trkpt lat="45.98306" lon="6.57113">
        <ele>2283.8</ele>
        <time>2026-02-02T15:00:12Z</time>
      </trkpt>
      <trkpt lat="45.98306" lon="6.57113">
        <ele>2283.8</ele>
        <time>2026-02-02T15:00:13Z</time>
      </trkpt>
      <trkpt lat="45.98306" lon="6.57113">
        <ele>2283.8</ele>
        <time>2026-02-02T15:00:14Z</time>
      </trkpt>
      <trkpt lat="45.98306" lon="6.57113">
        <ele>2283.8</ele>
        <time>2026-02-02T15:00:15Z</time>
      </trkpt>
      <trkpt lat="45.98306" lon="6.57113">
        <ele>2283.8</ele>
        <time>2026-02-02T15:00:16Z</time>
      </trkpt>
      <trkpt lat="45.98306" lon="6.57113">
        <ele>2283.8</ele>
        <time>2026-02-02T15:00:17Z</time>
      </trkpt>
      <trkpt lat="45.98305" lon="6.57113">
        <ele>2283.8</ele>
        <time>2026-02-02T15:00:18Z</time>
      </trkpt>
      <trkpt lat="45.98305" lon="6.57113">
        <ele>2283.8</ele>
        <time>2026-02-02T15:00:19Z</time>
      </trkpt>
      <trkpt lat="45.98305" lon="6.57113">
        <ele>2283.8</ele>
        <time>2026-02-02T15:00:20Z</time>
      </trkpt>
      <trkpt lat="45.98304" lon="6.57113">
        <ele>2283.9</ele>
        <time>2026-02-02T15:00:21Z</time>
      </trkpt>
      <trkpt lat="45.98303" lon="6.57114">
        <ele>2283.9</ele>
        <time>2026-02-02T15:00:22Z</time>
      </trkpt>
      <trkpt lat="45.98302" lon="6.57113">
        <ele>2283.9</ele>
        <time>2026-02-02T15:00:23Z</time>
      </trkpt>
      <trkpt lat="45.98301" lon="6.57114">
        <ele>2283.9</ele>
        <time>2026-02-02T15:00:24Z</time>
      </trkpt>
      <trkpt lat="45.983" lon="6.57114">
        <ele>2283.9</ele>
        <time>2026-02-02T15:00:25Z</time>
      </trkpt>
      <trkpt lat="45.98299" lon="6.57114">
        <ele>2283.9</ele>
        <time>2026-02-02T15:00:26Z</time>
      </trkpt>
      <trkpt lat="45.98298" lon="6.57114">
        <ele>2283.9</ele>
        <time>2026-02-02T15:00:27Z</time>
      </trkpt>
      <trkpt lat="45.98297" lon="6.57114">
        <ele>2283.9</ele>
        <time>2026-02-02T15:00:28Z</time>
      </trkpt>
      <trkpt lat="45.98297" lon="6.57114">
        <ele>2283.9</ele>
        <time>2026-02-02T15:00:29Z</time>
      </trkpt>
      <trkpt lat="45.98296" lon="6.57114">
        <ele>2283.9</ele>
        <time>2026-02-02T15:00:30Z</time>
      </trkpt>
      <trkpt lat="45.98296" lon="6.57114">
        <ele>2283.9</ele>
        <time>2026-02-02T15:00:31Z</time>
      </trkpt>
      <trkpt lat="45.98296" lon="6.57114">
        <ele>2283.9</ele>
        <time>2026-02-02T15:00:32Z</time>
      </trkpt>
      <trkpt lat="45.98297" lon="6.57114">
        <ele>2283.9</ele>
        <time>2026-02-02T15:00:33Z</time>
      </trkpt>
      <trkpt lat="45.98297" lon="6.57114">
        <ele>2283.9</ele>
        <time>2026-02-02T15:00:34Z</time>
      </trkpt>
      <trkpt lat="45.98297" lon="6.57114">
        <ele>2283.9</ele>
        <time>2026-02-02T15:00:35Z</time>
      </trkpt>
      <trkpt lat="45.98297" lon="6.57114">
        <ele>2283.9</ele>
        <time>2026-02-02T15:00:36Z</time>
      </trkpt>
      <trkpt lat="45.98297" lon="6.57114">
        <ele>2283.9</ele>
        <time>2026-02-02T15:00:37Z</time>
      </trkpt>
      <trkpt lat="45.98297" lon="6.57113">
        <ele>2283.9</ele>
        <time>2026-02-02T15:00:38Z</time>
      </trkpt>
      <trkpt lat="45.98297" lon="6.57113">
        <ele>2283.9</ele>
        <time>2026-02-02T15:00:39Z</time>
      </trkpt>
      <trkpt lat="45.98298" lon="6.57113">
        <ele>2283.9</ele>
        <time>2026-02-02T15:00:40Z</time>
      </trkpt>
      <trkpt lat="45.98298" lon="6.57113">
        <ele>2283.9</ele>
        <time>2026-02-02T15:00:41Z</time>
      </trkpt>
      <trkpt lat="45.98298" lon="6.57113">
        <ele>2283.9</ele>
        <time>2026-02-02T15:00:42Z</time>
      </trkpt>
      <trkpt lat="45.98298" lon="6.57113">
        <ele>2283.9</ele>
        <time>2026-02-02T15:00:43Z</time>
      </trkpt>
      <trkpt lat="45.98298" lon="6.57113">
        <ele>2283.9</ele>
        <time>2026-02-02T15:00:44Z</time>
      </trkpt>
      <trkpt lat="45.98298" lon="6.57113">
        <ele>2283.9</ele>
        <time>2026-02-02T15:00:45Z</time>
      </trkpt>
      <trkpt lat="45.98298" lon="6.57113">
        <ele>2283.9</ele>
        <time>2026-02-02T15:00:46Z</time>
      </trkpt>
      <trkpt lat="45.98298" lon="6.57113">
        <ele>2283.9</ele>
        <time>2026-02-02T15:00:47Z</time>
      </trkpt>
      <trkpt lat="45.98298" lon="6.57113">
        <ele>2283.9</ele>
        <time>2026-02-02T15:00:48Z</time>
      </trkpt>
      <trkpt lat="45.98298" lon="6.57113">
        <ele>2283.9</ele>
        <time>2026-02-02T15:00:49Z</time>
      </trkpt>
      <trkpt lat="45.98298" lon="6.57113">
        <ele>2283.9</ele>
        <time>2026-02-02T15:00:50Z</time>
      </trkpt>
      <trkpt lat="45.98298" lon="6.57113">
        <ele>2283.9</ele>
        <time>2026-02-02T15:00:51Z</time>
      </trkpt>
      <trkpt lat="45.98297" lon="6.57113">
        <ele>2283.9</ele>
        <time>2026-02-02T15:00:52Z</time>
      </trkpt>
      <trkpt lat="45.98297" lon="6.57113">
        <ele>2283.9</ele>
        <time>2026-02-02T15:00:53Z</time>
      </trkpt>
      <trkpt lat="45.98296" lon="6.57114">
        <ele>2283.9</ele>
        <time>2026-02-02T15:00:54Z</time>
      </trkpt>
      <trkpt lat="45.98295" lon="6.57114">
        <ele>2283.9</ele>
        <time>2026-02-02T15:00:55Z</time>
      </trkpt>
      <trkpt lat="45.98296" lon="6.57114">
        <ele>2283.9</ele>
        <time>2026-02-02T15:00:56Z</time>
      </trkpt>
      <trkpt lat="45.98296" lon="6.57114">
        <ele>2283.9</ele>
        <time>2026-02-02T15:00:57Z</time>
      </trkpt>
      <trkpt lat="45.98295" lon="6.57115">
        <ele>2283.9</ele>
        <time>2026-02-02T15:00:58Z</time>
      </trkpt>
      <trkpt lat="45.98294" lon="6.57118">
        <ele>2283.9</ele>
        <time>2026-02-02T15:00:59Z</time>
      </trkpt>
      <trkpt lat="45.98294" lon="6.57119">
        <ele>2283.9</ele>
        <time>2026-02-02T15:01:00Z</time>
      </trkpt>
      <trkpt lat="45.98294" lon="6.5712">
        <ele>2283.9</ele>
        <time>2026-02-02T15:01:01Z</time>
      </trkpt>
      <trkpt lat="45.98294" lon="6.57122">
        <ele>2283.9</ele>
        <time>2026-02-02T15:01:02Z</time>
      </trkpt>
      <trkpt lat="45.98294" lon="6.57122">
        <ele>2283.9</ele>
        <time>2026-02-02T15:01:03Z</time>
      </trkpt>
      <trkpt lat="45.98294" lon="6.57123">
        <ele>2283.9</ele>
        <time>2026-02-02T15:01:04Z</time>
      </trkpt>
      <trkpt lat="45.98294" lon="6.57123">
        <ele>2283.9</ele>
        <time>2026-02-02T15:01:05Z</time>
      </trkpt>
      <trkpt lat="45.98293" lon="6.57123">
        <ele>2283.9</ele>
        <time>2026-02-02T15:01:06Z</time>
      </trkpt>
      <trkpt lat="45.98293" lon="6.57123">
        <ele>2283.9</ele>
        <time>2026-02-02T15:01:07Z</time>
      </trkpt>
      <trkpt lat="45.98293" lon="6.57122">
        <ele>2283.9</ele>
        <time>2026-02-02T15:01:08Z</time>
      </trkpt>
      <trkpt lat="45.98293" lon="6.57121">
        <ele>2284</ele>
        <time>2026-02-02T15:01:09Z</time>
      </trkpt>
      <trkpt lat="45.98293" lon="6.5712">
        <ele>2284</ele>
        <time>2026-02-02T15:01:10Z</time>
      </trkpt>
      <trkpt lat="45.98292" lon="6.5712">
        <ele>2284</ele>
        <time>2026-02-02T15:01:11Z</time>
      </trkpt>
      <trkpt lat="45.98292" lon="6.5712">
        <ele>2284</ele>
        <time>2026-02-02T15:01:12Z</time>
      </trkpt>
      <trkpt lat="45.98292" lon="6.5712">
        <ele>2284</ele>
        <time>2026-02-02T15:01:13Z</time>
      </trkpt>
      <trkpt lat="45.98291" lon="6.5712">
        <ele>2284</ele>
        <time>2026-02-02T15:01:14Z</time>
      </trkpt>
      <trkpt lat="45.98291" lon="6.5712">
        <ele>2284</ele>
        <time>2026-02-02T15:01:15Z</time>
      </trkpt>
      <trkpt lat="45.98291" lon="6.57121">
        <ele>2284</ele>
        <time>2026-02-02T15:01:16Z</time>
      </trkpt>
      <trkpt lat="45.98291" lon="6.57121">
        <ele>2284.1</ele>
        <time>2026-02-02T15:01:17Z</time>
      </trkpt>
      <trkpt lat="45.98291" lon="6.57122">
        <ele>2284.1</ele>
        <time>2026-02-02T15:01:18Z</time>
      </trkpt>
      <trkpt lat="45.98291" lon="6.57124">
        <ele>2284.1</ele>
        <time>2026-02-02T15:01:19Z</time>
      </trkpt>
      <trkpt lat="45.98291" lon="6.57128">
        <ele>2284.3</ele>
        <time>2026-02-02T15:01:20Z</time>
      </trkpt>
      <trkpt lat="45.98291" lon="6.5713">
        <ele>2284.3</ele>
        <time>2026-02-02T15:01:21Z</time>
      </trkpt>
      <trkpt lat="45.98291" lon="6.57132">
        <ele>2284.4</ele>
        <time>2026-02-02T15:01:22Z</time>
      </trkpt>
      <trkpt lat="45.98292" lon="6.57133">
        <ele>2284.5</ele>
        <time>2026-02-02T15:01:23Z</time>
      </trkpt>
      <trkpt lat="45.98292" lon="6.57134">
        <ele>2284.5</ele>
        <time>2026-02-02T15:01:24Z</time>
      </trkpt>
      <trkpt lat="45.98292" lon="6.57135">
        <ele>2284.6</ele>
        <time>2026-02-02T15:01:25Z</time>
      </trkpt>
      <trkpt lat="45.98292" lon="6.57136">
        <ele>2284.6</ele>
        <time>2026-02-02T15:01:26Z</time>
      </trkpt>
      <trkpt lat="45.98292" lon="6.57135">
        <ele>2284.7</ele>
        <time>2026-02-02T15:01:27Z</time>
      </trkpt>
      <trkpt lat="45.98292" lon="6.57134">
        <ele>2284.8</ele>
        <time>2026-02-02T15:01:28Z</time>
      </trkpt>
      <trkpt lat="45.98292" lon="6.57133">
        <ele>2284.8</ele>
        <time>2026-02-02T15:01:29Z</time>
      </trkpt>
      <trkpt lat="45.98292" lon="6.57133">
        <ele>2284.8</ele>
        <time>2026-02-02T15:01:30Z</time>
      </trkpt>
      <trkpt lat="45.98292" lon="6.57133">
        <ele>2284.8</ele>
        <time>2026-02-02T15:01:31Z</time>
      </trkpt>
      <trkpt lat="45.98292" lon="6.57133">
        <ele>2284.8</ele>
        <time>2026-02-02T15:01:32Z</time>
      </trkpt>
      <trkpt lat="45.98292" lon="6.57133">
        <ele>2284.9</ele>
        <time>2026-02-02T15:01:33Z</time>
      </trkpt>
      <trkpt lat="45.98292" lon="6.57133">
        <ele>2284.9</ele>
        <time>2026-02-02T15:01:34Z</time>
      </trkpt>
      <trkpt lat="45.98292" lon="6.57133">
        <ele>2284.9</ele>
        <time>2026-02-02T15:01:35Z</time>
      </trkpt>
      <trkpt lat="45.98293" lon="6.57133">
        <ele>2284.9</ele>
        <time>2026-02-02T15:01:36Z</time>
      </trkpt>
      <trkpt lat="45.98293" lon="6.57133">
        <ele>2284.9</ele>
        <time>2026-02-02T15:01:37Z</time>
      </trkpt>
      <trkpt lat="45.98293" lon="6.57133">
        <ele>2284.9</ele>
        <time>2026-02-02T15:01:38Z</time>
      </trkpt>
      <trkpt lat="45.98293" lon="6.57133">
        <ele>2284.9</ele>
        <time>2026-02-02T15:01:39Z</time>
      </trkpt>
      <trkpt lat="45.98293" lon="6.57132">
        <ele>2284.9</ele>
        <time>2026-02-02T15:01:40Z</time>
      </trkpt>
      <trkpt lat="45.98293" lon="6.57132">
        <ele>2285</ele>
        <time>2026-02-02T15:01:41Z</time>
      </trkpt>
      <trkpt lat="45.98293" lon="6.57132">
        <ele>2285</ele>
        <time>2026-02-02T15:01:42Z</time>
      </trkpt>
      <trkpt lat="45.98293" lon="6.57132">
        <ele>2285</ele>
        <time>2026-02-02T15:01:43Z</time>
      </trkpt>
      <trkpt lat="45.98292" lon="6.57133">
        <ele>2285.1</ele>
        <time>2026-02-02T15:01:44Z</time>
      </trkpt>
      <trkpt lat="45.98291" lon="6.57133">
        <ele>2285.1</ele>
        <time>2026-02-02T15:01:45Z</time>
      </trkpt>
      <trkpt lat="45.98291" lon="6.57133">
        <ele>2285.1</ele>
        <time>2026-02-02T15:01:46Z</time>
      </trkpt>
      <trkpt lat="45.98291" lon="6.57133">
        <ele>2285.1</ele>
        <time>2026-02-02T15:01:47Z</time>
      </trkpt>
      <trkpt lat="45.98291" lon="6.57133">
        <ele>2285.1</ele>
        <time>2026-02-02T15:01:48Z</time>
      </trkpt>
      <trkpt lat="45.98291" lon="6.57133">
        <ele>2285.2</ele>
        <time>2026-02-02T15:01:49Z</time>
      </trkpt>
      <trkpt lat="45.98291" lon="6.57134">
        <ele>2285.2</ele>
        <time>2026-02-02T15:01:50Z</time>
      </trkpt>
      <trkpt lat="45.98292" lon="6.57134">
        <ele>2285.3</ele>
        <time>2026-02-02T15:01:51Z</time>
      </trkpt>
      <trkpt lat="45.98292" lon="6.57135">
        <ele>2285.4</ele>
        <time>2026-02-02T15:01:52Z</time>
      </trkpt>
      <trkpt lat="45.98292" lon="6.57136">
        <ele>2285.5</ele>
        <time>2026-02-02T15:01:53Z</time>
      </trkpt>
      <trkpt lat="45.98293" lon="6.57137">
        <ele>2285.6</ele>
        <time>2026-02-02T15:01:54Z</time>
      </trkpt>
      <trkpt lat="45.98293" lon="6.57138">
        <ele>2285.7</ele>
        <time>2026-02-02T15:01:55Z</time>
      </trkpt>
      <trkpt lat="45.98293" lon="6.57138">
        <ele>2285.7</ele>
        <time>2026-02-02T15:01:56Z</time>
      </trkpt>
      <trkpt lat="45.98294" lon="6.57142">
        <ele>2286.1</ele>
        <time>2026-02-02T15:01:57Z</time>
      </trkpt>
      <trkpt lat="45.98294" lon="6.57143">
        <ele>2286.2</ele>
        <time>2026-02-02T15:01:58Z</time>
      </trkpt>
      <trkpt lat="45.98293" lon="6.57143">
        <ele>2286.3</ele>
        <time>2026-02-02T15:01:59Z</time>
      </trkpt>
      <trkpt lat="45.98293" lon="6.57143">
        <ele>2286.3</ele>
        <time>2026-02-02T15:02:00Z</time>
      </trkpt>
      <trkpt lat="45.98293" lon="6.57142">
        <ele>2286.4</ele>
        <time>2026-02-02T15:02:01Z</time>
      </trkpt>
      <trkpt lat="45.98293" lon="6.57142">
        <ele>2286.4</ele>
        <time>2026-02-02T15:02:02Z</time>
      </trkpt>
      <trkpt lat="45.98293" lon="6.57142">
        <ele>2286.4</ele>
        <time>2026-02-02T15:02:03Z</time>
      </trkpt>
      <trkpt lat="45.98293" lon="6.57142">
        <ele>2286.4</ele>
        <time>2026-02-02T15:02:04Z</time>
      </trkpt>
      <trkpt lat="45.98293" lon="6.57142">
        <ele>2286.4</ele>
        <time>2026-02-02T15:02:05Z</time>
      </trkpt>
      <trkpt lat="45.98293" lon="6.57142">
        <ele>2286.4</ele>
        <time>2026-02-02T15:02:06Z</time>
      </trkpt>
      <trkpt lat="45.98293" lon="6.57142">
        <ele>2286.4</ele>
        <time>2026-02-02T15:02:07Z</time>
      </trkpt>
      <trkpt lat="45.98293" lon="6.57142">
        <ele>2286.4</ele>
        <time>2026-02-02T15:02:08Z</time>
      </trkpt>
      <trkpt lat="45.98293" lon="6.57142">
        <ele>2286.4</ele>
        <time>2026-02-02T15:02:09Z</time>
      </trkpt>
      <trkpt lat="45.98293" lon="6.57143">
        <ele>2286.4</ele>
        <time>2026-02-02T15:02:10Z</time>
      </trkpt>
      <trkpt lat="45.98293" lon="6.57143">
        <ele>2286.5</ele>
        <time>2026-02-02T15:02:11Z</time>
      </trkpt>
      <trkpt lat="45.98293" lon="6.57143">
        <ele>2286.5</ele>
        <time>2026-02-02T15:02:12Z</time>
      </trkpt>
      <trkpt lat="45.98293" lon="6.57143">
        <ele>2286.5</ele>
        <time>2026-02-02T15:02:13Z</time>
      </trkpt>
      <trkpt lat="45.98293" lon="6.57143">
        <ele>2286.5</ele>
        <time>2026-02-02T15:02:14Z</time>
      </trkpt>
      <trkpt lat="45.98293" lon="6.57143">
        <ele>2286.5</ele>
        <time>2026-02-02T15:02:15Z</time>
      </trkpt>
      <trkpt lat="45.98293" lon="6.57143">
        <ele>2286.6</ele>
        <time>2026-02-02T15:02:16Z</time>
      </trkpt>
      <trkpt lat="45.98293" lon="6.57143">
        <ele>2286.6</ele>
        <time>2026-02-02T15:02:17Z</time>
      </trkpt>
      <trkpt lat="45.98293" lon="6.57144">
        <ele>2286.7</ele>
        <time>2026-02-02T15:02:18Z</time>
      </trkpt>
      <trkpt lat="45.98292" lon="6.57145">
        <ele>2286.9</ele>
        <time>2026-02-02T15:02:19Z</time>
      </trkpt>
      <trkpt lat="45.98292" lon="6.57146">
        <ele>2287.1</ele>
        <time>2026-02-02T15:02:20Z</time>
      </trkpt>
      <trkpt lat="45.98292" lon="6.57145">
        <ele>2287.2</ele>
        <time>2026-02-02T15:02:21Z</time>
      </trkpt>
      <trkpt lat="45.98292" lon="6.57147">
        <ele>2287.4</ele>
        <time>2026-02-02T15:02:22Z</time>
      </trkpt>
      <trkpt lat="45.98292" lon="6.57149">
        <ele>2287.7</ele>
        <time>2026-02-02T15:02:23Z</time>
      </trkpt>
      <trkpt lat="45.98292" lon="6.57151">
        <ele>2287.9</ele>
        <time>2026-02-02T15:02:24Z</time>
      </trkpt>
      <trkpt lat="45.98291" lon="6.57152">
        <ele>2288.2</ele>
        <time>2026-02-02T15:02:25Z</time>
      </trkpt>
      <trkpt lat="45.98291" lon="6.57154">
        <ele>2288.4</ele>
        <time>2026-02-02T15:02:26Z</time>
      </trkpt>
      <trkpt lat="45.98291" lon="6.57156">
        <ele>2288.6</ele>
        <time>2026-02-02T15:02:27Z</time>
      </trkpt>
      <trkpt lat="45.98291" lon="6.57159">
        <ele>2289</ele>
        <time>2026-02-02T15:02:28Z</time>
      </trkpt>
      <trkpt lat="45.9829" lon="6.5716">
        <ele>2289.2</ele>
        <time>2026-02-02T15:02:29Z</time>
      </trkpt>
      <trkpt lat="45.9829" lon="6.57161">
        <ele>2289.4</ele>
        <time>2026-02-02T15:02:30Z</time>
      </trkpt>
      <trkpt lat="45.98289" lon="6.57163">
        <ele>2289.6</ele>
        <time>2026-02-02T15:02:31Z</time>
      </trkpt>
      <trkpt lat="45.98289" lon="6.57164">
        <ele>2289.9</ele>
        <time>2026-02-02T15:02:32Z</time>
      </trkpt>
      <trkpt lat="45.98289" lon="6.57166">
        <ele>2290.1</ele>
        <time>2026-02-02T15:02:33Z</time>
      </trkpt>
      <trkpt lat="45.98288" lon="6.57166">
        <ele>2290.2</ele>
        <time>2026-02-02T15:02:34Z</time>
      </trkpt>
      <trkpt lat="45.98288" lon="6.57167">
        <ele>2290.3</ele>
        <time>2026-02-02T15:02:35Z</time>
      </trkpt>
      <trkpt lat="45.98289" lon="6.57167">
        <ele>2290.4</ele>
        <time>2026-02-02T15:02:36Z</time>
      </trkpt>
      <trkpt lat="45.98289" lon="6.57167">
        <ele>2290.5</ele>
        <time>2026-02-02T15:02:37Z</time>
      </trkpt>
      <trkpt lat="45.9829" lon="6.57167">
        <ele>2290.6</ele>
        <time>2026-02-02T15:02:38Z</time>
      </trkpt>
      <trkpt lat="45.9829" lon="6.57167">
        <ele>2290.6</ele>
        <time>2026-02-02T15:02:39Z</time>
      </trkpt>
      <trkpt lat="45.9829" lon="6.57167">
        <ele>2290.6</ele>
        <time>2026-02-02T15:02:40Z</time>
      </trkpt>
      <trkpt lat="45.9829" lon="6.57167">
        <ele>2290.6</ele>
        <time>2026-02-02T15:02:41Z</time>
      </trkpt>
      <trkpt lat="45.9829" lon="6.57167">
        <ele>2290.6</ele>
        <time>2026-02-02T15:02:42Z</time>
      </trkpt>
      <trkpt lat="45.9829" lon="6.57167">
        <ele>2290.6</ele>
        <time>2026-02-02T15:02:43Z</time>
      </trkpt>
      <trkpt lat="45.9829" lon="6.57167">
        <ele>2290.6</ele>
        <time>2026-02-02T15:02:44Z</time>
      </trkpt>
      <trkpt lat="45.9829" lon="6.57167">
        <ele>2290.6</ele>
        <time>2026-02-02T15:02:45Z</time>
      </trkpt>
      <trkpt lat="45.9829" lon="6.57167">
        <ele>2290.7</ele>
        <time>2026-02-02T15:02:46Z</time>
      </trkpt>
      <trkpt lat="45.9829" lon="6.57167">
        <ele>2290.7</ele>
        <time>2026-02-02T15:02:47Z</time>
      </trkpt>
      <trkpt lat="45.9829" lon="6.57167">
        <ele>2290.7</ele>
        <time>2026-02-02T15:02:48Z</time>
      </trkpt>
      <trkpt lat="45.9829" lon="6.57167">
        <ele>2290.7</ele>
        <time>2026-02-02T15:02:49Z</time>
      </trkpt>
      <trkpt lat="45.9829" lon="6.57167">
        <ele>2290.7</ele>
        <time>2026-02-02T15:02:50Z</time>
      </trkpt>
      <trkpt lat="45.9829" lon="6.57167">
        <ele>2290.7</ele>
        <time>2026-02-02T15:02:51Z</time>
      </trkpt>
      <trkpt lat="45.9829" lon="6.57167">
        <ele>2290.7</ele>
        <time>2026-02-02T15:02:52Z</time>
      </trkpt>
      <trkpt lat="45.9829" lon="6.57166">
        <ele>2290.7</ele>
        <time>2026-02-02T15:02:53Z</time>
      </trkpt>
      <trkpt lat="45.9829" lon="6.57167">
        <ele>2290.8</ele>
        <time>2026-02-02T15:02:54Z</time>
      </trkpt>
      <trkpt lat="45.98291" lon="6.57167">
        <ele>2290.9</ele>
        <time>2026-02-02T15:02:55Z</time>
      </trkpt>
      <trkpt lat="45.9829" lon="6.57167">
        <ele>2290.9</ele>
        <time>2026-02-02T15:02:56Z</time>
      </trkpt>
      <trkpt lat="45.9829" lon="6.57167">
        <ele>2290.9</ele>
        <time>2026-02-02T15:02:57Z</time>
      </trkpt>
      <trkpt lat="45.98289" lon="6.57168">
        <ele>2291.2</ele>
        <time>2026-02-02T15:02:58Z</time>
      </trkpt>
      <trkpt lat="45.98289" lon="6.57169">
        <ele>2291.4</ele>
        <time>2026-02-02T15:02:59Z</time>
      </trkpt>
      <trkpt lat="45.98289" lon="6.5717">
        <ele>2291.4</ele>
        <time>2026-02-02T15:03:00Z</time>
      </trkpt>
      <trkpt lat="45.98289" lon="6.57171">
        <ele>2291.7</ele>
        <time>2026-02-02T15:03:01Z</time>
      </trkpt>
      <trkpt lat="45.98288" lon="6.57174">
        <ele>2292.1</ele>
        <time>2026-02-02T15:03:02Z</time>
      </trkpt>
      <trkpt lat="45.98287" lon="6.57176">
        <ele>2292.4</ele>
        <time>2026-02-02T15:03:03Z</time>
      </trkpt>
      <trkpt lat="45.98286" lon="6.57178">
        <ele>2292.7</ele>
        <time>2026-02-02T15:03:04Z</time>
      </trkpt>
      <trkpt lat="45.98285" lon="6.57179">
        <ele>2293</ele>
        <time>2026-02-02T15:03:05Z</time>
      </trkpt>
      <trkpt lat="45.98284" lon="6.57181">
        <ele>2293.3</ele>
        <time>2026-02-02T15:03:06Z</time>
      </trkpt>
      <trkpt lat="45.98284" lon="6.57182">
        <ele>2293.4</ele>
        <time>2026-02-02T15:03:07Z</time>
      </trkpt>
      <trkpt lat="45.98283" lon="6.57183">
        <ele>2293.7</ele>
        <time>2026-02-02T15:03:08Z</time>
      </trkpt>
      <trkpt lat="45.98282" lon="6.57185">
        <ele>2293.9</ele>
        <time>2026-02-02T15:03:09Z</time>
      </trkpt>
      <trkpt lat="45.98282" lon="6.57185">
        <ele>2294</ele>
        <time>2026-02-02T15:03:10Z</time>
      </trkpt>
      <trkpt lat="45.98281" lon="6.57185">
        <ele>2294.1</ele>
        <time>2026-02-02T15:03:11Z</time>
      </trkpt>
      <trkpt lat="45.98281" lon="6.57185">
        <ele>2294.2</ele>
        <time>2026-02-02T15:03:12Z</time>
      </trkpt>
      <trkpt lat="45.98281" lon="6.57184">
        <ele>2294.3</ele>
        <time>2026-02-02T15:03:13Z</time>
      </trkpt>
      <trkpt lat="45.98281" lon="6.57184">
        <ele>2294.3</ele>
        <time>2026-02-02T15:03:14Z</time>
      </trkpt>
      <trkpt lat="45.98281" lon="6.57184">
        <ele>2294.4</ele>
        <time>2026-02-02T15:03:15Z</time>
      </trkpt>
      <trkpt lat="45.98281" lon="6.57184">
        <ele>2294.4</ele>
        <time>2026-02-02T15:03:16Z</time>
      </trkpt>
      <trkpt lat="45.98281" lon="6.57183">
        <ele>2294.4</ele>
        <time>2026-02-02T15:03:17Z</time>
      </trkpt>
      <trkpt lat="45.98281" lon="6.57183">
        <ele>2294.4</ele>
        <time>2026-02-02T15:03:18Z</time>
      </trkpt>
      <trkpt lat="45.98281" lon="6.57183">
        <ele>2294.4</ele>
        <time>2026-02-02T15:03:19Z</time>
      </trkpt>
      <trkpt lat="45.98281" lon="6.57183">
        <ele>2294.4</ele>
        <time>2026-02-02T15:03:20Z</time>
      </trkpt>
      <trkpt lat="45.98281" lon="6.57183">
        <ele>2294.4</ele>
        <time>2026-02-02T15:03:21Z</time>
      </trkpt>
      <trkpt lat="45.98281" lon="6.57183">
        <ele>2294.4</ele>
        <time>2026-02-02T15:03:22Z</time>
      </trkpt>
      <trkpt lat="45.98281" lon="6.57183">
        <ele>2294.4</ele>
        <time>2026-02-02T15:03:23Z</time>
      </trkpt>
      <trkpt lat="45.98281" lon="6.57183">
        <ele>2294.5</ele>
        <time>2026-02-02T15:03:24Z</time>
      </trkpt>
      <trkpt lat="45.98281" lon="6.57183">
        <ele>2294.5</ele>
        <time>2026-02-02T15:03:25Z</time>
      </trkpt>
      <trkpt lat="45.98281" lon="6.57183">
        <ele>2294.5</ele>
        <time>2026-02-02T15:03:26Z</time>
      </trkpt>
      <trkpt lat="45.98281" lon="6.57183">
        <ele>2294.5</ele>
        <time>2026-02-02T15:03:27Z</time>
      </trkpt>
      <trkpt lat="45.98281" lon="6.57182">
        <ele>2294.5</ele>
        <time>2026-02-02T15:03:28Z</time>
      </trkpt>
      <trkpt lat="45.98281" lon="6.57182">
        <ele>2294.5</ele>
        <time>2026-02-02T15:03:29Z</time>
      </trkpt>
      <trkpt lat="45.98281" lon="6.57182">
        <ele>2294.6</ele>
        <time>2026-02-02T15:03:30Z</time>
      </trkpt>
      <trkpt lat="45.98281" lon="6.57183">
        <ele>2294.6</ele>
        <time>2026-02-02T15:03:31Z</time>
      </trkpt>
      <trkpt lat="45.9828" lon="6.57183">
        <ele>2294.8</ele>
        <time>2026-02-02T15:03:32Z</time>
      </trkpt>
      <trkpt lat="45.98279" lon="6.57184">
        <ele>2294.9</ele>
        <time>2026-02-02T15:03:33Z</time>
      </trkpt>
      <trkpt lat="45.98279" lon="6.57185">
        <ele>2295.1</ele>
        <time>2026-02-02T15:03:34Z</time>
      </trkpt>
      <trkpt lat="45.98279" lon="6.57185">
        <ele>2295.1</ele>
        <time>2026-02-02T15:03:35Z</time>
      </trkpt>
      <trkpt lat="45.98279" lon="6.57186">
        <ele>2295.3</ele>
        <time>2026-02-02T15:03:36Z</time>
      </trkpt>
      <trkpt lat="45.98278" lon="6.57187">
        <ele>2295.5</ele>
        <time>2026-02-02T15:03:37Z</time>
      </trkpt>
      <trkpt lat="45.98278" lon="6.57187">
        <ele>2295.6</ele>
        <time>2026-02-02T15:03:38Z</time>
      </trkpt>
      <trkpt lat="45.98277" lon="6.57188">
        <ele>2295.7</ele>
        <time>2026-02-02T15:03:39Z</time>
      </trkpt>
      <trkpt lat="45.98277" lon="6.57189">
        <ele>2295.9</ele>
        <time>2026-02-02T15:03:40Z</time>
      </trkpt>
      <trkpt lat="45.98276" lon="6.5719">
        <ele>2296.1</ele>
        <time>2026-02-02T15:03:41Z</time>
      </trkpt>
      <trkpt lat="45.98275" lon="6.5719">
        <ele>2296.2</ele>
        <time>2026-02-02T15:03:42Z</time>
      </trkpt>
      <trkpt lat="45.98275" lon="6.57191">
        <ele>2296.4</ele>
        <time>2026-02-02T15:03:43Z</time>
      </trkpt>
      <trkpt lat="45.98274" lon="6.57192">
        <ele>2296.5</ele>
        <time>2026-02-02T15:03:44Z</time>
      </trkpt>
      <trkpt lat="45.98273" lon="6.57193">
        <ele>2296.7</ele>
        <time>2026-02-02T15:03:45Z</time>
      </trkpt>
      <trkpt lat="45.98272" lon="6.57194">
        <ele>2296.8</ele>
        <time>2026-02-02T15:03:46Z</time>
      </trkpt>
      <trkpt lat="45.98272" lon="6.57194">
        <ele>2296.8</ele>
        <time>2026-02-02T15:03:47Z</time>
      </trkpt>
      <trkpt lat="45.98273" lon="6.57194">
        <ele>2296.9</ele>
        <time>2026-02-02T15:03:48Z</time>
      </trkpt>
      <trkpt lat="45.98273" lon="6.57194">
        <ele>2296.9</ele>
        <time>2026-02-02T15:03:49Z</time>
      </trkpt>
      <trkpt lat="45.98273" lon="6.57194">
        <ele>2297</ele>
        <time>2026-02-02T15:03:50Z</time>
      </trkpt>
      <trkpt lat="45.98273" lon="6.57193">
        <ele>2297.1</ele>
        <time>2026-02-02T15:03:51Z</time>
      </trkpt>
      <trkpt lat="45.98273" lon="6.57193">
        <ele>2297.1</ele>
        <time>2026-02-02T15:03:52Z</time>
      </trkpt>
      <trkpt lat="45.98273" lon="6.57193">
        <ele>2297.1</ele>
        <time>2026-02-02T15:03:53Z</time>
      </trkpt>
      <trkpt lat="45.98273" lon="6.57193">
        <ele>2297.1</ele>
        <time>2026-02-02T15:03:54Z</time>
      </trkpt>
      <trkpt lat="45.98273" lon="6.57193">
        <ele>2297.1</ele>
        <time>2026-02-02T15:03:55Z</time>
      </trkpt>
      <trkpt lat="45.98273" lon="6.57193">
        <ele>2297.1</ele>
        <time>2026-02-02T15:03:56Z</time>
      </trkpt>
      <trkpt lat="45.98273" lon="6.57193">
        <ele>2297.1</ele>
        <time>2026-02-02T15:03:57Z</time>
      </trkpt>
      <trkpt lat="45.98273" lon="6.57193">
        <ele>2297.2</ele>
        <time>2026-02-02T15:03:58Z</time>
      </trkpt>
      <trkpt lat="45.98273" lon="6.57193">
        <ele>2297.2</ele>
        <time>2026-02-02T15:03:59Z</time>
      </trkpt>
      <trkpt lat="45.98273" lon="6.57193">
        <ele>2297.2</ele>
        <time>2026-02-02T15:04:00Z</time>
      </trkpt>
      <trkpt lat="45.98273" lon="6.57192">
        <ele>2297.3</ele>
        <time>2026-02-02T15:04:01Z</time>
      </trkpt>
      <trkpt lat="45.98273" lon="6.57192">
        <ele>2297.3</ele>
        <time>2026-02-02T15:04:02Z</time>
      </trkpt>
      <trkpt lat="45.98274" lon="6.57193">
        <ele>2297.4</ele>
        <time>2026-02-02T15:04:03Z</time>
      </trkpt>
      <trkpt lat="45.98274" lon="6.57194">
        <ele>2297.5</ele>
        <time>2026-02-02T15:04:04Z</time>
      </trkpt>
      <trkpt lat="45.98274" lon="6.57195">
        <ele>2297.6</ele>
        <time>2026-02-02T15:04:05Z</time>
      </trkpt>
      <trkpt lat="45.98274" lon="6.57197">
        <ele>2297.8</ele>
        <time>2026-02-02T15:04:06Z</time>
      </trkpt>
      <trkpt lat="45.98274" lon="6.57198">
        <ele>2298</ele>
        <time>2026-02-02T15:04:07Z</time>
      </trkpt>
      <trkpt lat="45.98273" lon="6.57199">
        <ele>2298.1</ele>
        <time>2026-02-02T15:04:08Z</time>
      </trkpt>
      <trkpt lat="45.98273" lon="6.572">
        <ele>2298.3</ele>
        <time>2026-02-02T15:04:09Z</time>
      </trkpt>
      <trkpt lat="45.98272" lon="6.57201">
        <ele>2298.4</ele>
        <time>2026-02-02T15:04:10Z</time>
      </trkpt>
      <trkpt lat="45.98272" lon="6.57201">
        <ele>2298.5</ele>
        <time>2026-02-02T15:04:11Z</time>
      </trkpt>
      <trkpt lat="45.98271" lon="6.57202">
        <ele>2298.6</ele>
        <time>2026-02-02T15:04:12Z</time>
      </trkpt>
      <trkpt lat="45.98271" lon="6.57204">
        <ele>2298.8</ele>
        <time>2026-02-02T15:04:13Z</time>
      </trkpt>
      <trkpt lat="45.9827" lon="6.57205">
        <ele>2299</ele>
        <time>2026-02-02T15:04:14Z</time>
      </trkpt>
      <trkpt lat="45.9827" lon="6.57206">
        <ele>2299.1</ele>
        <time>2026-02-02T15:04:15Z</time>
      </trkpt>
      <trkpt lat="45.9827" lon="6.57206">
        <ele>2299.2</ele>
        <time>2026-02-02T15:04:16Z</time>
      </trkpt>
      <trkpt lat="45.9827" lon="6.57206">
        <ele>2299.2</ele>
        <time>2026-02-02T15:04:17Z</time>
      </trkpt>
      <trkpt lat="45.9827" lon="6.57207">
        <ele>2299.2</ele>
        <time>2026-02-02T15:04:18Z</time>
      </trkpt>
      <trkpt lat="45.9827" lon="6.57207">
        <ele>2299.2</ele>
        <time>2026-02-02T15:04:19Z</time>
      </trkpt>
      <trkpt lat="45.98269" lon="6.57207">
        <ele>2299.3</ele>
        <time>2026-02-02T15:04:20Z</time>
      </trkpt>
      <trkpt lat="45.98269" lon="6.57207">
        <ele>2299.3</ele>
        <time>2026-02-02T15:04:21Z</time>
      </trkpt>
      <trkpt lat="45.98269" lon="6.57207">
        <ele>2299.3</ele>
        <time>2026-02-02T15:04:22Z</time>
      </trkpt>
      <trkpt lat="45.98269" lon="6.57208">
        <ele>2299.4</ele>
        <time>2026-02-02T15:04:23Z</time>
      </trkpt>
      <trkpt lat="45.98269" lon="6.57208">
        <ele>2299.4</ele>
        <time>2026-02-02T15:04:24Z</time>
      </trkpt>
      <trkpt lat="45.98269" lon="6.57208">
        <ele>2299.4</ele>
        <time>2026-02-02T15:04:25Z</time>
      </trkpt>
      <trkpt lat="45.98269" lon="6.57208">
        <ele>2299.4</ele>
        <time>2026-02-02T15:04:26Z</time>
      </trkpt>
      <trkpt lat="45.98269" lon="6.57208">
        <ele>2299.5</ele>
        <time>2026-02-02T15:04:27Z</time>
      </trkpt>
      <trkpt lat="45.98269" lon="6.57208">
        <ele>2299.5</ele>
        <time>2026-02-02T15:04:28Z</time>
      </trkpt>
      <trkpt lat="45.98269" lon="6.57209">
        <ele>2299.5</ele>
        <time>2026-02-02T15:04:29Z</time>
      </trkpt>
      <trkpt lat="45.98268" lon="6.57209">
        <ele>2299.5</ele>
        <time>2026-02-02T15:04:30Z</time>
      </trkpt>
      <trkpt lat="45.98268" lon="6.57209">
        <ele>2299.6</ele>
        <time>2026-02-02T15:04:31Z</time>
      </trkpt>
      <trkpt lat="45.98268" lon="6.57209">
        <ele>2299.6</ele>
        <time>2026-02-02T15:04:32Z</time>
      </trkpt>
      <trkpt lat="45.98268" lon="6.57209">
        <ele>2299.6</ele>
        <time>2026-02-02T15:04:33Z</time>
      </trkpt>
      <trkpt lat="45.98268" lon="6.5721">
        <ele>2299.6</ele>
        <time>2026-02-02T15:04:34Z</time>
      </trkpt>
      <trkpt lat="45.98267" lon="6.57211">
        <ele>2299.8</ele>
        <time>2026-02-02T15:04:35Z</time>
      </trkpt>
      <trkpt lat="45.98267" lon="6.57211">
        <ele>2300</ele>
        <time>2026-02-02T15:04:36Z</time>
      </trkpt>
      <trkpt lat="45.98266" lon="6.57212">
        <ele>2300.1</ele>
        <time>2026-02-02T15:04:37Z</time>
      </trkpt>
      <trkpt lat="45.98266" lon="6.57213">
        <ele>2300.2</ele>
        <time>2026-02-02T15:04:38Z</time>
      </trkpt>
      <trkpt lat="45.98266" lon="6.57215">
        <ele>2300.4</ele>
        <time>2026-02-02T15:04:39Z</time>
      </trkpt>
      <trkpt lat="45.98266" lon="6.57216">
        <ele>2300.6</ele>
        <time>2026-02-02T15:04:40Z</time>
      </trkpt>
      <trkpt lat="45.98266" lon="6.57217">
        <ele>2300.7</ele>
        <time>2026-02-02T15:04:41Z</time>
      </trkpt>
      <trkpt lat="45.98266" lon="6.57218">
        <ele>2300.8</ele>
        <time>2026-02-02T15:04:42Z</time>
      </trkpt>
      <trkpt lat="45.98266" lon="6.57218">
        <ele>2300.8</ele>
        <time>2026-02-02T15:04:43Z</time>
      </trkpt>
      <trkpt lat="45.98266" lon="6.57218">
        <ele>2300.8</ele>
        <time>2026-02-02T15:04:44Z</time>
      </trkpt>
      <trkpt lat="45.98266" lon="6.57218">
        <ele>2300.8</ele>
        <time>2026-02-02T15:04:45Z</time>
      </trkpt>
      <trkpt lat="45.98266" lon="6.57218">
        <ele>2300.8</ele>
        <time>2026-02-02T15:04:46Z</time>
      </trkpt>
      <trkpt lat="45.98266" lon="6.57218">
        <ele>2300.8</ele>
        <time>2026-02-02T15:04:47Z</time>
      </trkpt>
      <trkpt lat="45.98266" lon="6.57218">
        <ele>2300.8</ele>
        <time>2026-02-02T15:04:48Z</time>
      </trkpt>
      <trkpt lat="45.98266" lon="6.57218">
        <ele>2300.8</ele>
        <time>2026-02-02T15:04:49Z</time>
      </trkpt>
      <trkpt lat="45.98266" lon="6.57218">
        <ele>2300.8</ele>
        <time>2026-02-02T15:04:50Z</time>
      </trkpt>
      <trkpt lat="45.98266" lon="6.57218">
        <ele>2300.8</ele>
        <time>2026-02-02T15:04:51Z</time>
      </trkpt>
      <trkpt lat="45.98266" lon="6.57219">
        <ele>2301</ele>
        <time>2026-02-02T15:04:52Z</time>
      </trkpt>
      <trkpt lat="45.98266" lon="6.57219">
        <ele>2301</ele>
        <time>2026-02-02T15:04:53Z</time>
      </trkpt>
      <trkpt lat="45.98266" lon="6.57219">
        <ele>2301</ele>
        <time>2026-02-02T15:04:54Z</time>
      </trkpt>
      <trkpt lat="45.98266" lon="6.57219">
        <ele>2301</ele>
        <time>2026-02-02T15:04:55Z</time>
      </trkpt>
      <trkpt lat="45.98266" lon="6.5722">
        <ele>2301.1</ele>
        <time>2026-02-02T15:04:56Z</time>
      </trkpt>
      <trkpt lat="45.98266" lon="6.5722">
        <ele>2301.1</ele>
        <time>2026-02-02T15:04:57Z</time>
      </trkpt>
      <trkpt lat="45.98266" lon="6.5722">
        <ele>2301.2</ele>
        <time>2026-02-02T15:04:58Z</time>
      </trkpt>
      <trkpt lat="45.98265" lon="6.5722">
        <ele>2301.3</ele>
        <time>2026-02-02T15:04:59Z</time>
      </trkpt>
      <trkpt lat="45.98265" lon="6.57221">
        <ele>2301.5</ele>
        <time>2026-02-02T15:05:00Z</time>
      </trkpt>
      <trkpt lat="45.98264" lon="6.57222">
        <ele>2301.6</ele>
        <time>2026-02-02T15:05:01Z</time>
      </trkpt>
      <trkpt lat="45.98264" lon="6.57223">
        <ele>2301.8</ele>
        <time>2026-02-02T15:05:02Z</time>
      </trkpt>
      <trkpt lat="45.98263" lon="6.57223">
        <ele>2302</ele>
        <time>2026-02-02T15:05:03Z</time>
      </trkpt>
      <trkpt lat="45.98262" lon="6.57223">
        <ele>2302.1</ele>
        <time>2026-02-02T15:05:04Z</time>
      </trkpt>
      <trkpt lat="45.98262" lon="6.57224">
        <ele>2302.3</ele>
        <time>2026-02-02T15:05:05Z</time>
      </trkpt>
      <trkpt lat="45.98261" lon="6.57226">
        <ele>2302.5</ele>
        <time>2026-02-02T15:05:06Z</time>
      </trkpt>
      <trkpt lat="45.98261" lon="6.57227">
        <ele>2302.7</ele>
        <time>2026-02-02T15:05:07Z</time>
      </trkpt>
      <trkpt lat="45.9826" lon="6.57228">
        <ele>2302.8</ele>
        <time>2026-02-02T15:05:08Z</time>
      </trkpt>
      <trkpt lat="45.9826" lon="6.5723">
        <ele>2303</ele>
        <time>2026-02-02T15:05:09Z</time>
      </trkpt>
      <trkpt lat="45.98259" lon="6.57231">
        <ele>2303.3</ele>
        <time>2026-02-02T15:05:10Z</time>
      </trkpt>
      <trkpt lat="45.98258" lon="6.57231">
        <ele>2303.5</ele>
        <time>2026-02-02T15:05:11Z</time>
      </trkpt>
      <trkpt lat="45.98257" lon="6.57233">
        <ele>2303.8</ele>
        <time>2026-02-02T15:05:12Z</time>
      </trkpt>
      <trkpt lat="45.98256" lon="6.57234">
        <ele>2304</ele>
        <time>2026-02-02T15:05:13Z</time>
      </trkpt>
      <trkpt lat="45.98255" lon="6.57235">
        <ele>2304.2</ele>
        <time>2026-02-02T15:05:14Z</time>
      </trkpt>
      <trkpt lat="45.98254" lon="6.57236">
        <ele>2304.4</ele>
        <time>2026-02-02T15:05:15Z</time>
      </trkpt>
      <trkpt lat="45.98253" lon="6.57236">
        <ele>2304.6</ele>
        <time>2026-02-02T15:05:16Z</time>
      </trkpt>
      <trkpt lat="45.98253" lon="6.57237">
        <ele>2304.8</ele>
        <time>2026-02-02T15:05:17Z</time>
      </trkpt>
      <trkpt lat="45.98252" lon="6.57238">
        <ele>2305</ele>
        <time>2026-02-02T15:05:18Z</time>
      </trkpt>
      <trkpt lat="45.98251" lon="6.57238">
        <ele>2305.1</ele>
        <time>2026-02-02T15:05:19Z</time>
      </trkpt>
      <trkpt lat="45.98251" lon="6.57239">
        <ele>2305.3</ele>
        <time>2026-02-02T15:05:20Z</time>
      </trkpt>
      <trkpt lat="45.98251" lon="6.57239">
        <ele>2305.3</ele>
        <time>2026-02-02T15:05:21Z</time>
      </trkpt>
      <trkpt lat="45.98251" lon="6.57239">
        <ele>2305.4</ele>
        <time>2026-02-02T15:05:22Z</time>
      </trkpt>
      <trkpt lat="45.98251" lon="6.57239">
        <ele>2305.4</ele>
        <time>2026-02-02T15:05:23Z</time>
      </trkpt>
      <trkpt lat="45.98251" lon="6.57239">
        <ele>2305.4</ele>
        <time>2026-02-02T15:05:24Z</time>
      </trkpt>
      <trkpt lat="45.98251" lon="6.57239">
        <ele>2305.4</ele>
        <time>2026-02-02T15:05:25Z</time>
      </trkpt>
      <trkpt lat="45.98251" lon="6.57239">
        <ele>2305.4</ele>
        <time>2026-02-02T15:05:26Z</time>
      </trkpt>
      <trkpt lat="45.98251" lon="6.57239">
        <ele>2305.5</ele>
        <time>2026-02-02T15:05:27Z</time>
      </trkpt>
      <trkpt lat="45.98251" lon="6.57239">
        <ele>2305.5</ele>
        <time>2026-02-02T15:05:28Z</time>
      </trkpt>
      <trkpt lat="45.98251" lon="6.57238">
        <ele>2305.5</ele>
        <time>2026-02-02T15:05:29Z</time>
      </trkpt>
      <trkpt lat="45.98251" lon="6.57238">
        <ele>2305.5</ele>
        <time>2026-02-02T15:05:30Z</time>
      </trkpt>
      <trkpt lat="45.98251" lon="6.57238">
        <ele>2305.5</ele>
        <time>2026-02-02T15:05:31Z</time>
      </trkpt>
      <trkpt lat="45.98251" lon="6.57238">
        <ele>2305.5</ele>
        <time>2026-02-02T15:05:32Z</time>
      </trkpt>
      <trkpt lat="45.98251" lon="6.57238">
        <ele>2305.5</ele>
        <time>2026-02-02T15:05:33Z</time>
      </trkpt>
      <trkpt lat="45.98251" lon="6.57238">
        <ele>2305.6</ele>
        <time>2026-02-02T15:05:34Z</time>
      </trkpt>
      <trkpt lat="45.98251" lon="6.57238">
        <ele>2305.6</ele>
        <time>2026-02-02T15:05:35Z</time>
      </trkpt>
      <trkpt lat="45.98251" lon="6.57238">
        <ele>2305.6</ele>
        <time>2026-02-02T15:05:36Z</time>
      </trkpt>
      <trkpt lat="45.98252" lon="6.57238">
        <ele>2305.6</ele>
        <time>2026-02-02T15:05:37Z</time>
      </trkpt>
      <trkpt lat="45.98251" lon="6.57238">
        <ele>2305.6</ele>
        <time>2026-02-02T15:05:38Z</time>
      </trkpt>
      <trkpt lat="45.98251" lon="6.57238">
        <ele>2305.8</ele>
        <time>2026-02-02T15:05:39Z</time>
      </trkpt>
      <trkpt lat="45.9825" lon="6.57239">
        <ele>2306</ele>
        <time>2026-02-02T15:05:40Z</time>
      </trkpt>
      <trkpt lat="45.98249" lon="6.5724">
        <ele>2306.3</ele>
        <time>2026-02-02T15:05:41Z</time>
      </trkpt>
      <trkpt lat="45.98248" lon="6.57241">
        <ele>2306.5</ele>
        <time>2026-02-02T15:05:42Z</time>
      </trkpt>
      <trkpt lat="45.98247" lon="6.57242">
        <ele>2306.7</ele>
        <time>2026-02-02T15:05:43Z</time>
      </trkpt>
      <trkpt lat="45.98247" lon="6.57244">
        <ele>2307</ele>
        <time>2026-02-02T15:05:44Z</time>
      </trkpt>
      <trkpt lat="45.98246" lon="6.57245">
        <ele>2307.2</ele>
        <time>2026-02-02T15:05:45Z</time>
      </trkpt>
      <trkpt lat="45.98245" lon="6.57246">
        <ele>2307.4</ele>
        <time>2026-02-02T15:05:46Z</time>
      </trkpt>
      <trkpt lat="45.98245" lon="6.57247">
        <ele>2307.6</ele>
        <time>2026-02-02T15:05:47Z</time>
      </trkpt>
      <trkpt lat="45.98244" lon="6.57248">
        <ele>2307.8</ele>
        <time>2026-02-02T15:05:48Z</time>
      </trkpt>
      <trkpt lat="45.98244" lon="6.57249">
        <ele>2308</ele>
        <time>2026-02-02T15:05:49Z</time>
      </trkpt>
      <trkpt lat="45.98243" lon="6.5725">
        <ele>2308.2</ele>
        <time>2026-02-02T15:05:50Z</time>
      </trkpt>
      <trkpt lat="45.98242" lon="6.57251">
        <ele>2308.5</ele>
        <time>2026-02-02T15:05:51Z</time>
      </trkpt>
      <trkpt lat="45.98241" lon="6.57252">
        <ele>2308.7</ele>
        <time>2026-02-02T15:05:52Z</time>
      </trkpt>
      <trkpt lat="45.98241" lon="6.57253">
        <ele>2308.9</ele>
        <time>2026-02-02T15:05:53Z</time>
      </trkpt>
      <trkpt lat="45.9824" lon="6.57253">
        <ele>2309.1</ele>
        <time>2026-02-02T15:05:54Z</time>
      </trkpt>
      <trkpt lat="45.98239" lon="6.57255">
        <ele>2309.3</ele>
        <time>2026-02-02T15:05:55Z</time>
      </trkpt>
      <trkpt lat="45.98239" lon="6.57256">
        <ele>2309.5</ele>
        <time>2026-02-02T15:05:56Z</time>
      </trkpt>
      <trkpt lat="45.98238" lon="6.57256">
        <ele>2309.7</ele>
        <time>2026-02-02T15:05:57Z</time>
      </trkpt>
      <trkpt lat="45.98238" lon="6.57257">
        <ele>2309.8</ele>
        <time>2026-02-02T15:05:58Z</time>
      </trkpt>
      <trkpt lat="45.98238" lon="6.57257">
        <ele>2309.9</ele>
        <time>2026-02-02T15:05:59Z</time>
      </trkpt>
      <trkpt lat="45.98238" lon="6.57257">
        <ele>2309.9</ele>
        <time>2026-02-02T15:06:00Z</time>
      </trkpt>
      <trkpt lat="45.98238" lon="6.57258">
        <ele>2309.9</ele>
        <time>2026-02-02T15:06:01Z</time>
      </trkpt>
      <trkpt lat="45.98238" lon="6.57258">
        <ele>2310</ele>
        <time>2026-02-02T15:06:02Z</time>
      </trkpt>
      <trkpt lat="45.98238" lon="6.57258">
        <ele>2310</ele>
        <time>2026-02-02T15:06:03Z</time>
      </trkpt>
      <trkpt lat="45.98238" lon="6.57258">
        <ele>2310.1</ele>
        <time>2026-02-02T15:06:04Z</time>
      </trkpt>
      <trkpt lat="45.98238" lon="6.57259">
        <ele>2310.1</ele>
        <time>2026-02-02T15:06:05Z</time>
      </trkpt>
      <trkpt lat="45.98238" lon="6.57259">
        <ele>2310.1</ele>
        <time>2026-02-02T15:06:06Z</time>
      </trkpt>
      <trkpt lat="45.98238" lon="6.57259">
        <ele>2310.2</ele>
        <time>2026-02-02T15:06:07Z</time>
      </trkpt>
      <trkpt lat="45.98238" lon="6.57259">
        <ele>2310.2</ele>
        <time>2026-02-02T15:06:08Z</time>
      </trkpt>
      <trkpt lat="45.98238" lon="6.5726">
        <ele>2310.3</ele>
        <time>2026-02-02T15:06:09Z</time>
      </trkpt>
      <trkpt lat="45.98238" lon="6.5726">
        <ele>2310.3</ele>
        <time>2026-02-02T15:06:10Z</time>
      </trkpt>
      <trkpt lat="45.98238" lon="6.5726">
        <ele>2310.3</ele>
        <time>2026-02-02T15:06:11Z</time>
      </trkpt>
      <trkpt lat="45.98238" lon="6.5726">
        <ele>2310.4</ele>
        <time>2026-02-02T15:06:12Z</time>
      </trkpt>
      <trkpt lat="45.98237" lon="6.5726">
        <ele>2310.4</ele>
        <time>2026-02-02T15:06:13Z</time>
      </trkpt>
      <trkpt lat="45.98237" lon="6.57261">
        <ele>2310.5</ele>
        <time>2026-02-02T15:06:14Z</time>
      </trkpt>
      <trkpt lat="45.98237" lon="6.57261">
        <ele>2310.5</ele>
        <time>2026-02-02T15:06:15Z</time>
      </trkpt>
      <trkpt lat="45.98237" lon="6.57261">
        <ele>2310.5</ele>
        <time>2026-02-02T15:06:16Z</time>
      </trkpt>
      <trkpt lat="45.98237" lon="6.57261">
        <ele>2310.6</ele>
        <time>2026-02-02T15:06:17Z</time>
      </trkpt>
      <trkpt lat="45.98237" lon="6.57262">
        <ele>2310.6</ele>
        <time>2026-02-02T15:06:18Z</time>
      </trkpt>
      <trkpt lat="45.98237" lon="6.57263">
        <ele>2310.9</ele>
        <time>2026-02-02T15:06:19Z</time>
      </trkpt>
      <trkpt lat="45.98236" lon="6.57264">
        <ele>2311.1</ele>
        <time>2026-02-02T15:06:20Z</time>
      </trkpt>
      <trkpt lat="45.98236" lon="6.57266">
        <ele>2311.4</ele>
        <time>2026-02-02T15:06:21Z</time>
      </trkpt>
      <trkpt lat="45.98235" lon="6.57267">
        <ele>2311.6</ele>
        <time>2026-02-02T15:06:22Z</time>
      </trkpt>
      <trkpt lat="45.98234" lon="6.57268">
        <ele>2311.8</ele>
        <time>2026-02-02T15:06:23Z</time>
      </trkpt>
      <trkpt lat="45.98234" lon="6.57269">
        <ele>2312.1</ele>
        <time>2026-02-02T15:06:24Z</time>
      </trkpt>
      <trkpt lat="45.98233" lon="6.5727">
        <ele>2312.3</ele>
        <time>2026-02-02T15:06:25Z</time>
      </trkpt>
      <trkpt lat="45.98232" lon="6.57271">
        <ele>2312.5</ele>
        <time>2026-02-02T15:06:26Z</time>
      </trkpt>
      <trkpt lat="45.98232" lon="6.57271">
        <ele>2312.6</ele>
        <time>2026-02-02T15:06:27Z</time>
      </trkpt>
      <trkpt lat="45.98231" lon="6.57272">
        <ele>2312.8</ele>
        <time>2026-02-02T15:06:28Z</time>
      </trkpt>
      <trkpt lat="45.98231" lon="6.57272">
        <ele>2312.9</ele>
        <time>2026-02-02T15:06:29Z</time>
      </trkpt>
      <trkpt lat="45.9823" lon="6.57273">
        <ele>2313</ele>
        <time>2026-02-02T15:06:30Z</time>
      </trkpt>
      <trkpt lat="45.9823" lon="6.57273">
        <ele>2313.1</ele>
        <time>2026-02-02T15:06:31Z</time>
      </trkpt>
      <trkpt lat="45.98229" lon="6.57273">
        <ele>2313.2</ele>
        <time>2026-02-02T15:06:32Z</time>
      </trkpt>
      <trkpt lat="45.98229" lon="6.57273">
        <ele>2313.3</ele>
        <time>2026-02-02T15:06:33Z</time>
      </trkpt>
      <trkpt lat="45.98229" lon="6.57273">
        <ele>2313.3</ele>
        <time>2026-02-02T15:06:34Z</time>
      </trkpt>
      <trkpt lat="45.98229" lon="6.57273">
        <ele>2313.3</ele>
        <time>2026-02-02T15:06:35Z</time>
      </trkpt>
      <trkpt lat="45.98229" lon="6.57272">
        <ele>2313.4</ele>
        <time>2026-02-02T15:06:36Z</time>
      </trkpt>
      <trkpt lat="45.98229" lon="6.57272">
        <ele>2313.4</ele>
        <time>2026-02-02T15:06:37Z</time>
      </trkpt>
      <trkpt lat="45.98229" lon="6.57272">
        <ele>2313.4</ele>
        <time>2026-02-02T15:06:38Z</time>
      </trkpt>
      <trkpt lat="45.98229" lon="6.57272">
        <ele>2313.4</ele>
        <time>2026-02-02T15:06:39Z</time>
      </trkpt>
      <trkpt lat="45.98229" lon="6.57272">
        <ele>2313.4</ele>
        <time>2026-02-02T15:06:40Z</time>
      </trkpt>
      <trkpt lat="45.98229" lon="6.57272">
        <ele>2313.5</ele>
        <time>2026-02-02T15:06:41Z</time>
      </trkpt>
      <trkpt lat="45.98229" lon="6.57272">
        <ele>2313.5</ele>
        <time>2026-02-02T15:06:42Z</time>
      </trkpt>
      <trkpt lat="45.9823" lon="6.57272">
        <ele>2313.5</ele>
        <time>2026-02-02T15:06:43Z</time>
      </trkpt>
      <trkpt lat="45.9823" lon="6.57271">
        <ele>2313.6</ele>
        <time>2026-02-02T15:06:44Z</time>
      </trkpt>
      <trkpt lat="45.9823" lon="6.57271">
        <ele>2313.7</ele>
        <time>2026-02-02T15:06:45Z</time>
      </trkpt>
      <trkpt lat="45.9823" lon="6.5727">
        <ele>2313.8</ele>
        <time>2026-02-02T15:06:46Z</time>
      </trkpt>
      <trkpt lat="45.9823" lon="6.5727">
        <ele>2313.8</ele>
        <time>2026-02-02T15:06:47Z</time>
      </trkpt>
      <trkpt lat="45.98231" lon="6.5727">
        <ele>2313.8</ele>
        <time>2026-02-02T15:06:48Z</time>
      </trkpt>
      <trkpt lat="45.98231" lon="6.5727">
        <ele>2313.8</ele>
        <time>2026-02-02T15:06:49Z</time>
      </trkpt>
      <trkpt lat="45.98231" lon="6.5727">
        <ele>2313.9</ele>
        <time>2026-02-02T15:06:50Z</time>
      </trkpt>
      <trkpt lat="45.98231" lon="6.5727">
        <ele>2313.9</ele>
        <time>2026-02-02T15:06:51Z</time>
      </trkpt>
      <trkpt lat="45.98231" lon="6.57269">
        <ele>2314</ele>
        <time>2026-02-02T15:06:52Z</time>
      </trkpt>
      <trkpt lat="45.98231" lon="6.57269">
        <ele>2314</ele>
        <time>2026-02-02T15:06:53Z</time>
      </trkpt>
      <trkpt lat="45.98231" lon="6.57269">
        <ele>2314</ele>
        <time>2026-02-02T15:06:54Z</time>
      </trkpt>
      <trkpt lat="45.98231" lon="6.57269">
        <ele>2314</ele>
        <time>2026-02-02T15:06:55Z</time>
      </trkpt>
      <trkpt lat="45.98231" lon="6.57269">
        <ele>2314</ele>
        <time>2026-02-02T15:06:56Z</time>
      </trkpt>
      <trkpt lat="45.98231" lon="6.57269">
        <ele>2314</ele>
        <time>2026-02-02T15:06:57Z</time>
      </trkpt>
      <trkpt lat="45.98231" lon="6.57269">
        <ele>2314</ele>
        <time>2026-02-02T15:06:58Z</time>
      </trkpt>
      <trkpt lat="45.98231" lon="6.57269">
        <ele>2314</ele>
        <time>2026-02-02T15:06:59Z</time>
      </trkpt>
      <trkpt lat="45.98231" lon="6.5727">
        <ele>2314.1</ele>
        <time>2026-02-02T15:07:00Z</time>
      </trkpt>
      <trkpt lat="45.9823" lon="6.57271">
        <ele>2314.2</ele>
        <time>2026-02-02T15:07:01Z</time>
      </trkpt>
      <trkpt lat="45.9823" lon="6.57272">
        <ele>2314.4</ele>
        <time>2026-02-02T15:07:02Z</time>
      </trkpt>
      <trkpt lat="45.98229" lon="6.57273">
        <ele>2314.6</ele>
        <time>2026-02-02T15:07:03Z</time>
      </trkpt>
      <trkpt lat="45.98228" lon="6.57274">
        <ele>2314.8</ele>
        <time>2026-02-02T15:07:04Z</time>
      </trkpt>
      <trkpt lat="45.98227" lon="6.57275">
        <ele>2315</ele>
        <time>2026-02-02T15:07:05Z</time>
      </trkpt>
      <trkpt lat="45.98226" lon="6.57275">
        <ele>2315.1</ele>
        <time>2026-02-02T15:07:06Z</time>
      </trkpt>
      <trkpt lat="45.98226" lon="6.57275">
        <ele>2315.1</ele>
        <time>2026-02-02T15:07:07Z</time>
      </trkpt>
      <trkpt lat="45.98225" lon="6.57277">
        <ele>2315.4</ele>
        <time>2026-02-02T15:07:08Z</time>
      </trkpt>
      <trkpt lat="45.98225" lon="6.57278">
        <ele>2315.5</ele>
        <time>2026-02-02T15:07:09Z</time>
      </trkpt>
      <trkpt lat="45.98223" lon="6.57279">
        <ele>2315.7</ele>
        <time>2026-02-02T15:07:10Z</time>
      </trkpt>
      <trkpt lat="45.98222" lon="6.5728">
        <ele>2315.9</ele>
        <time>2026-02-02T15:07:11Z</time>
      </trkpt>
      <trkpt lat="45.98221" lon="6.57281">
        <ele>2316.1</ele>
        <time>2026-02-02T15:07:12Z</time>
      </trkpt>
      <trkpt lat="45.9822" lon="6.57282">
        <ele>2316.2</ele>
        <time>2026-02-02T15:07:13Z</time>
      </trkpt>
      <trkpt lat="45.9822" lon="6.57283">
        <ele>2316.3</ele>
        <time>2026-02-02T15:07:14Z</time>
      </trkpt>
      <trkpt lat="45.98219" lon="6.57285">
        <ele>2316.5</ele>
        <time>2026-02-02T15:07:15Z</time>
      </trkpt>
      <trkpt lat="45.98219" lon="6.57285">
        <ele>2316.5</ele>
        <time>2026-02-02T15:07:16Z</time>
      </trkpt>
      <trkpt lat="45.98219" lon="6.57285">
        <ele>2316.5</ele>
        <time>2026-02-02T15:07:17Z</time>
      </trkpt>
      <trkpt lat="45.98219" lon="6.57285">
        <ele>2316.5</ele>
        <time>2026-02-02T15:07:18Z</time>
      </trkpt>
      <trkpt lat="45.98219" lon="6.57286">
        <ele>2316.5</ele>
        <time>2026-02-02T15:07:19Z</time>
      </trkpt>
      <trkpt lat="45.98219" lon="6.57286">
        <ele>2316.5</ele>
        <time>2026-02-02T15:07:20Z</time>
      </trkpt>
      <trkpt lat="45.98219" lon="6.57286">
        <ele>2316.6</ele>
        <time>2026-02-02T15:07:21Z</time>
      </trkpt>
      <trkpt lat="45.98219" lon="6.57286">
        <ele>2316.6</ele>
        <time>2026-02-02T15:07:22Z</time>
      </trkpt>
      <trkpt lat="45.98219" lon="6.57286">
        <ele>2316.6</ele>
        <time>2026-02-02T15:07:23Z</time>
      </trkpt>
      <trkpt lat="45.98219" lon="6.57286">
        <ele>2316.6</ele>
        <time>2026-02-02T15:07:24Z</time>
      </trkpt>
      <trkpt lat="45.98219" lon="6.57287">
        <ele>2316.6</ele>
        <time>2026-02-02T15:07:25Z</time>
      </trkpt>
      <trkpt lat="45.98219" lon="6.57287">
        <ele>2316.6</ele>
        <time>2026-02-02T15:07:26Z</time>
      </trkpt>
      <trkpt lat="45.98218" lon="6.57287">
        <ele>2316.7</ele>
        <time>2026-02-02T15:07:27Z</time>
      </trkpt>
      <trkpt lat="45.98218" lon="6.57287">
        <ele>2316.7</ele>
        <time>2026-02-02T15:07:28Z</time>
      </trkpt>
      <trkpt lat="45.98218" lon="6.57287">
        <ele>2316.7</ele>
        <time>2026-02-02T15:07:29Z</time>
      </trkpt>
      <trkpt lat="45.98218" lon="6.57288">
        <ele>2316.7</ele>
        <time>2026-02-02T15:07:30Z</time>
      </trkpt>
      <trkpt lat="45.98218" lon="6.57288">
        <ele>2316.7</ele>
        <time>2026-02-02T15:07:31Z</time>
      </trkpt>
      <trkpt lat="45.98218" lon="6.57288">
        <ele>2316.7</ele>
        <time>2026-02-02T15:07:32Z</time>
      </trkpt>
      <trkpt lat="45.98218" lon="6.57288">
        <ele>2316.7</ele>
        <time>2026-02-02T15:07:33Z</time>
      </trkpt>
      <trkpt lat="45.98218" lon="6.57288">
        <ele>2316.7</ele>
        <time>2026-02-02T15:07:34Z</time>
      </trkpt>
      <trkpt lat="45.98218" lon="6.57288">
        <ele>2316.8</ele>
        <time>2026-02-02T15:07:35Z</time>
      </trkpt>
      <trkpt lat="45.98218" lon="6.57289">
        <ele>2316.8</ele>
        <time>2026-02-02T15:07:36Z</time>
      </trkpt>
      <trkpt lat="45.98218" lon="6.57289">
        <ele>2316.8</ele>
        <time>2026-02-02T15:07:37Z</time>
      </trkpt>
      <trkpt lat="45.98217" lon="6.5729">
        <ele>2316.9</ele>
        <time>2026-02-02T15:07:38Z</time>
      </trkpt>
      <trkpt lat="45.98217" lon="6.57291">
        <ele>2317</ele>
        <time>2026-02-02T15:07:39Z</time>
      </trkpt>
      <trkpt lat="45.98216" lon="6.57292">
        <ele>2317.1</ele>
        <time>2026-02-02T15:07:40Z</time>
      </trkpt>
      <trkpt lat="45.98215" lon="6.57293">
        <ele>2317.1</ele>
        <time>2026-02-02T15:07:41Z</time>
      </trkpt>
      <trkpt lat="45.98215" lon="6.57294">
        <ele>2317.2</ele>
        <time>2026-02-02T15:07:42Z</time>
      </trkpt>
      <trkpt lat="45.98215" lon="6.57295">
        <ele>2317.3</ele>
        <time>2026-02-02T15:07:43Z</time>
      </trkpt>
      <trkpt lat="45.98214" lon="6.57297">
        <ele>2317.4</ele>
        <time>2026-02-02T15:07:44Z</time>
      </trkpt>
      <trkpt lat="45.98214" lon="6.57298">
        <ele>2317.5</ele>
        <time>2026-02-02T15:07:45Z</time>
      </trkpt>
      <trkpt lat="45.98214" lon="6.57299">
        <ele>2317.5</ele>
        <time>2026-02-02T15:07:46Z</time>
      </trkpt>
      <trkpt lat="45.98213" lon="6.573">
        <ele>2317.6</ele>
        <time>2026-02-02T15:07:47Z</time>
      </trkpt>
      <trkpt lat="45.98213" lon="6.57301">
        <ele>2317.7</ele>
        <time>2026-02-02T15:07:48Z</time>
      </trkpt>
      <trkpt lat="45.98212" lon="6.57303">
        <ele>2317.8</ele>
        <time>2026-02-02T15:07:49Z</time>
      </trkpt>
      <trkpt lat="45.98212" lon="6.57305">
        <ele>2317.9</ele>
        <time>2026-02-02T15:07:50Z</time>
      </trkpt>
      <trkpt lat="45.98212" lon="6.57306">
        <ele>2318</ele>
        <time>2026-02-02T15:07:51Z</time>
      </trkpt>
      <trkpt lat="45.98211" lon="6.57307">
        <ele>2318</ele>
        <time>2026-02-02T15:07:52Z</time>
      </trkpt>
      <trkpt lat="45.98211" lon="6.57307">
        <ele>2318</ele>
        <time>2026-02-02T15:07:53Z</time>
      </trkpt>
      <trkpt lat="45.98211" lon="6.57307">
        <ele>2318.1</ele>
        <time>2026-02-02T15:07:54Z</time>
      </trkpt>
      <trkpt lat="45.98211" lon="6.57307">
        <ele>2318.1</ele>
        <time>2026-02-02T15:07:55Z</time>
      </trkpt>
      <trkpt lat="45.98211" lon="6.57307">
        <ele>2318.1</ele>
        <time>2026-02-02T15:07:56Z</time>
      </trkpt>
      <trkpt lat="45.98211" lon="6.57307">
        <ele>2318.1</ele>
        <time>2026-02-02T15:07:57Z</time>
      </trkpt>
      <trkpt lat="45.98211" lon="6.57307">
        <ele>2318.1</ele>
        <time>2026-02-02T15:07:58Z</time>
      </trkpt>
      <trkpt lat="45.98211" lon="6.57307">
        <ele>2318.1</ele>
        <time>2026-02-02T15:07:59Z</time>
      </trkpt>
      <trkpt lat="45.98211" lon="6.57307">
        <ele>2318.1</ele>
        <time>2026-02-02T15:08:00Z</time>
      </trkpt>
      <trkpt lat="45.98211" lon="6.57307">
        <ele>2318.1</ele>
        <time>2026-02-02T15:08:01Z</time>
      </trkpt>
      <trkpt lat="45.9821" lon="6.57308">
        <ele>2318.2</ele>
        <time>2026-02-02T15:08:02Z</time>
      </trkpt>
      <trkpt lat="45.98209" lon="6.57311">
        <ele>2318.4</ele>
        <time>2026-02-02T15:08:03Z</time>
      </trkpt>
      <trkpt lat="45.98209" lon="6.57312">
        <ele>2318.5</ele>
        <time>2026-02-02T15:08:04Z</time>
      </trkpt>
      <trkpt lat="45.98208" lon="6.57313">
        <ele>2318.6</ele>
        <time>2026-02-02T15:08:05Z</time>
      </trkpt>
      <trkpt lat="45.98207" lon="6.57314">
        <ele>2318.7</ele>
        <time>2026-02-02T15:08:06Z</time>
      </trkpt>
      <trkpt lat="45.98207" lon="6.57315">
        <ele>2318.7</ele>
        <time>2026-02-02T15:08:07Z</time>
      </trkpt>
      <trkpt lat="45.98206" lon="6.57316">
        <ele>2318.8</ele>
        <time>2026-02-02T15:08:08Z</time>
      </trkpt>
      <trkpt lat="45.98205" lon="6.57317">
        <ele>2319</ele>
        <time>2026-02-02T15:08:09Z</time>
      </trkpt>
      <trkpt lat="45.98204" lon="6.57318">
        <ele>2319</ele>
        <time>2026-02-02T15:08:10Z</time>
      </trkpt>
      <trkpt lat="45.98204" lon="6.57319">
        <ele>2319.1</ele>
        <time>2026-02-02T15:08:11Z</time>
      </trkpt>
      <trkpt lat="45.98203" lon="6.57319">
        <ele>2319.1</ele>
        <time>2026-02-02T15:08:12Z</time>
      </trkpt>
      <trkpt lat="45.98203" lon="6.57319">
        <ele>2319.2</ele>
        <time>2026-02-02T15:08:13Z</time>
      </trkpt>
      <trkpt lat="45.98203" lon="6.57318">
        <ele>2319.2</ele>
        <time>2026-02-02T15:08:14Z</time>
      </trkpt>
      <trkpt lat="45.98203" lon="6.57318">
        <ele>2319.2</ele>
        <time>2026-02-02T15:08:15Z</time>
      </trkpt>
      <trkpt lat="45.98203" lon="6.57318">
        <ele>2319.2</ele>
        <time>2026-02-02T15:08:16Z</time>
      </trkpt>
      <trkpt lat="45.98203" lon="6.57318">
        <ele>2319.2</ele>
        <time>2026-02-02T15:08:17Z</time>
      </trkpt>
      <trkpt lat="45.98203" lon="6.57318">
        <ele>2319.2</ele>
        <time>2026-02-02T15:08:18Z</time>
      </trkpt>
      <trkpt lat="45.98203" lon="6.57318">
        <ele>2319.2</ele>
        <time>2026-02-02T15:08:19Z</time>
      </trkpt>
      <trkpt lat="45.98203" lon="6.57318">
        <ele>2319.2</ele>
        <time>2026-02-02T15:08:20Z</time>
      </trkpt>
      <trkpt lat="45.98203" lon="6.57318">
        <ele>2319.3</ele>
        <time>2026-02-02T15:08:21Z</time>
      </trkpt>
      <trkpt lat="45.98202" lon="6.57319">
        <ele>2319.4</ele>
        <time>2026-02-02T15:08:22Z</time>
      </trkpt>
      <trkpt lat="45.98201" lon="6.5732">
        <ele>2319.5</ele>
        <time>2026-02-02T15:08:23Z</time>
      </trkpt>
      <trkpt lat="45.98199" lon="6.57321">
        <ele>2319.7</ele>
        <time>2026-02-02T15:08:24Z</time>
      </trkpt>
      <trkpt lat="45.98198" lon="6.57322">
        <ele>2319.8</ele>
        <time>2026-02-02T15:08:25Z</time>
      </trkpt>
      <trkpt lat="45.98198" lon="6.57322">
        <ele>2319.9</ele>
        <time>2026-02-02T15:08:26Z</time>
      </trkpt>
      <trkpt lat="45.98197" lon="6.57323">
        <ele>2320</ele>
        <time>2026-02-02T15:08:27Z</time>
      </trkpt>
      <trkpt lat="45.98196" lon="6.57324">
        <ele>2320.1</ele>
        <time>2026-02-02T15:08:28Z</time>
      </trkpt>
      <trkpt lat="45.98195" lon="6.57325">
        <ele>2320.2</ele>
        <time>2026-02-02T15:08:29Z</time>
      </trkpt>
      <trkpt lat="45.98194" lon="6.57325">
        <ele>2320.3</ele>
        <time>2026-02-02T15:08:30Z</time>
      </trkpt>
      <trkpt lat="45.98194" lon="6.57325">
        <ele>2320.4</ele>
        <time>2026-02-02T15:08:31Z</time>
      </trkpt>
      <trkpt lat="45.98195" lon="6.57325">
        <ele>2320.4</ele>
        <time>2026-02-02T15:08:32Z</time>
      </trkpt>
      <trkpt lat="45.98195" lon="6.57325">
        <ele>2320.4</ele>
        <time>2026-02-02T15:08:33Z</time>
      </trkpt>
      <trkpt lat="45.98195" lon="6.57325">
        <ele>2320.4</ele>
        <time>2026-02-02T15:08:34Z</time>
      </trkpt>
      <trkpt lat="45.98195" lon="6.57325">
        <ele>2320.4</ele>
        <time>2026-02-02T15:08:35Z</time>
      </trkpt>
      <trkpt lat="45.98195" lon="6.57325">
        <ele>2320.4</ele>
        <time>2026-02-02T15:08:36Z</time>
      </trkpt>
      <trkpt lat="45.98195" lon="6.57325">
        <ele>2320.4</ele>
        <time>2026-02-02T15:08:37Z</time>
      </trkpt>
      <trkpt lat="45.98195" lon="6.57325">
        <ele>2320.4</ele>
        <time>2026-02-02T15:08:38Z</time>
      </trkpt>
      <trkpt lat="45.98195" lon="6.57325">
        <ele>2320.4</ele>
        <time>2026-02-02T15:08:39Z</time>
      </trkpt>
      <trkpt lat="45.98195" lon="6.57325">
        <ele>2320.4</ele>
        <time>2026-02-02T15:08:40Z</time>
      </trkpt>
      <trkpt lat="45.98195" lon="6.57325">
        <ele>2320.5</ele>
        <time>2026-02-02T15:08:41Z</time>
      </trkpt>
      <trkpt lat="45.98195" lon="6.57325">
        <ele>2320.5</ele>
        <time>2026-02-02T15:08:42Z</time>
      </trkpt>
      <trkpt lat="45.98194" lon="6.57325">
        <ele>2320.5</ele>
        <time>2026-02-02T15:08:43Z</time>
      </trkpt>
      <trkpt lat="45.98194" lon="6.57326">
        <ele>2320.6</ele>
        <time>2026-02-02T15:08:44Z</time>
      </trkpt>
      <trkpt lat="45.98193" lon="6.57327">
        <ele>2320.7</ele>
        <time>2026-02-02T15:08:45Z</time>
      </trkpt>
      <trkpt lat="45.98193" lon="6.57327">
        <ele>2320.7</ele>
        <time>2026-02-02T15:08:46Z</time>
      </trkpt>
      <trkpt lat="45.98193" lon="6.57328">
        <ele>2320.8</ele>
        <time>2026-02-02T15:08:47Z</time>
      </trkpt>
      <trkpt lat="45.98193" lon="6.57328">
        <ele>2320.8</ele>
        <time>2026-02-02T15:08:48Z</time>
      </trkpt>
      <trkpt lat="45.98191" lon="6.5733">
        <ele>2321</ele>
        <time>2026-02-02T15:08:49Z</time>
      </trkpt>
      <trkpt lat="45.9819" lon="6.57331">
        <ele>2321.2</ele>
        <time>2026-02-02T15:08:50Z</time>
      </trkpt>
      <trkpt lat="45.9819" lon="6.57333">
        <ele>2321.3</ele>
        <time>2026-02-02T15:08:51Z</time>
      </trkpt>
      <trkpt lat="45.98189" lon="6.57334">
        <ele>2321.4</ele>
        <time>2026-02-02T15:08:52Z</time>
      </trkpt>
      <trkpt lat="45.98189" lon="6.57334">
        <ele>2321.5</ele>
        <time>2026-02-02T15:08:53Z</time>
      </trkpt>
      <trkpt lat="45.98189" lon="6.57334">
        <ele>2321.5</ele>
        <time>2026-02-02T15:08:54Z</time>
      </trkpt>
      <trkpt lat="45.98189" lon="6.57335">
        <ele>2321.5</ele>
        <time>2026-02-02T15:08:55Z</time>
      </trkpt>
      <trkpt lat="45.98189" lon="6.57335">
        <ele>2321.6</ele>
        <time>2026-02-02T15:08:56Z</time>
      </trkpt>
      <trkpt lat="45.98189" lon="6.57335">
        <ele>2321.6</ele>
        <time>2026-02-02T15:08:57Z</time>
      </trkpt>
      <trkpt lat="45.98189" lon="6.57335">
        <ele>2321.6</ele>
        <time>2026-02-02T15:08:58Z</time>
      </trkpt>
      <trkpt lat="45.98189" lon="6.57335">
        <ele>2321.6</ele>
        <time>2026-02-02T15:08:59Z</time>
      </trkpt>
      <trkpt lat="45.98189" lon="6.57335">
        <ele>2321.6</ele>
        <time>2026-02-02T15:09:00Z</time>
      </trkpt>
      <trkpt lat="45.98189" lon="6.57335">
        <ele>2321.6</ele>
        <time>2026-02-02T15:09:01Z</time>
      </trkpt>
      <trkpt lat="45.98189" lon="6.57335">
        <ele>2321.6</ele>
        <time>2026-02-02T15:09:02Z</time>
      </trkpt>
      <trkpt lat="45.98189" lon="6.57335">
        <ele>2321.6</ele>
        <time>2026-02-02T15:09:03Z</time>
      </trkpt>
      <trkpt lat="45.98189" lon="6.57335">
        <ele>2321.6</ele>
        <time>2026-02-02T15:09:04Z</time>
      </trkpt>
      <trkpt lat="45.98189" lon="6.57335">
        <ele>2321.6</ele>
        <time>2026-02-02T15:09:05Z</time>
      </trkpt>
      <trkpt lat="45.98189" lon="6.57335">
        <ele>2321.6</ele>
        <time>2026-02-02T15:09:06Z</time>
      </trkpt>
      <trkpt lat="45.9819" lon="6.57335">
        <ele>2321.6</ele>
        <time>2026-02-02T15:09:07Z</time>
      </trkpt>
      <trkpt lat="45.9819" lon="6.57335">
        <ele>2321.6</ele>
        <time>2026-02-02T15:09:08Z</time>
      </trkpt>
      <trkpt lat="45.9819" lon="6.57335">
        <ele>2321.6</ele>
        <time>2026-02-02T15:09:09Z</time>
      </trkpt>
      <trkpt lat="45.98188" lon="6.57335">
        <ele>2321.8</ele>
        <time>2026-02-02T15:09:10Z</time>
      </trkpt>
      <trkpt lat="45.98188" lon="6.57335">
        <ele>2321.9</ele>
        <time>2026-02-02T15:09:11Z</time>
      </trkpt>
      <trkpt lat="45.98188" lon="6.57335">
        <ele>2321.9</ele>
        <time>2026-02-02T15:09:12Z</time>
      </trkpt>
      <trkpt lat="45.98188" lon="6.57335">
        <ele>2321.9</ele>
        <time>2026-02-02T15:09:13Z</time>
      </trkpt>
      <trkpt lat="45.98188" lon="6.57335">
        <ele>2321.9</ele>
        <time>2026-02-02T15:09:14Z</time>
      </trkpt>
      <trkpt lat="45.98188" lon="6.57335">
        <ele>2321.9</ele>
        <time>2026-02-02T15:09:15Z</time>
      </trkpt>
      <trkpt lat="45.98188" lon="6.57335">
        <ele>2321.9</ele>
        <time>2026-02-02T15:09:16Z</time>
      </trkpt>
      <trkpt lat="45.98188" lon="6.57336">
        <ele>2321.9</ele>
        <time>2026-02-02T15:09:17Z</time>
      </trkpt>
      <trkpt lat="45.98188" lon="6.57337">
        <ele>2322</ele>
        <time>2026-02-02T15:09:18Z</time>
      </trkpt>
      <trkpt lat="45.98188" lon="6.57338">
        <ele>2322.1</ele>
        <time>2026-02-02T15:09:19Z</time>
      </trkpt>
      <trkpt lat="45.98188" lon="6.5734">
        <ele>2322.3</ele>
        <time>2026-02-02T15:09:20Z</time>
      </trkpt>
      <trkpt lat="45.98187" lon="6.57341">
        <ele>2322.4</ele>
        <time>2026-02-02T15:09:21Z</time>
      </trkpt>
      <trkpt lat="45.98187" lon="6.57342">
        <ele>2322.5</ele>
        <time>2026-02-02T15:09:22Z</time>
      </trkpt>
      <trkpt lat="45.98186" lon="6.57343">
        <ele>2322.7</ele>
        <time>2026-02-02T15:09:23Z</time>
      </trkpt>
      <trkpt lat="45.98186" lon="6.57344">
        <ele>2322.7</ele>
        <time>2026-02-02T15:09:24Z</time>
      </trkpt>
      <trkpt lat="45.98185" lon="6.57344">
        <ele>2322.8</ele>
        <time>2026-02-02T15:09:25Z</time>
      </trkpt>
      <trkpt lat="45.98185" lon="6.57344">
        <ele>2322.9</ele>
        <time>2026-02-02T15:09:26Z</time>
      </trkpt>
      <trkpt lat="45.98185" lon="6.57344">
        <ele>2322.9</ele>
        <time>2026-02-02T15:09:27Z</time>
      </trkpt>
      <trkpt lat="45.98185" lon="6.57345">
        <ele>2323</ele>
        <time>2026-02-02T15:09:28Z</time>
      </trkpt>
      <trkpt lat="45.98185" lon="6.57345">
        <ele>2323</ele>
        <time>2026-02-02T15:09:29Z</time>
      </trkpt>
      <trkpt lat="45.98185" lon="6.57345">
        <ele>2323</ele>
        <time>2026-02-02T15:09:30Z</time>
      </trkpt>
      <trkpt lat="45.98185" lon="6.57345">
        <ele>2323</ele>
        <time>2026-02-02T15:09:31Z</time>
      </trkpt>
      <trkpt lat="45.98185" lon="6.57345">
        <ele>2323</ele>
        <time>2026-02-02T15:09:32Z</time>
      </trkpt>
      <trkpt lat="45.98184" lon="6.57345">
        <ele>2323</ele>
        <time>2026-02-02T15:09:33Z</time>
      </trkpt>
      <trkpt lat="45.98184" lon="6.57345">
        <ele>2323</ele>
        <time>2026-02-02T15:09:34Z</time>
      </trkpt>
      <trkpt lat="45.98184" lon="6.57345">
        <ele>2323</ele>
        <time>2026-02-02T15:09:35Z</time>
      </trkpt>
      <trkpt lat="45.98184" lon="6.57345">
        <ele>2323</ele>
        <time>2026-02-02T15:09:36Z</time>
      </trkpt>
      <trkpt lat="45.98184" lon="6.57345">
        <ele>2323.1</ele>
        <time>2026-02-02T15:09:37Z</time>
      </trkpt>
      <trkpt lat="45.98184" lon="6.57345">
        <ele>2323.1</ele>
        <time>2026-02-02T15:09:38Z</time>
      </trkpt>
      <trkpt lat="45.98184" lon="6.57345">
        <ele>2323.1</ele>
        <time>2026-02-02T15:09:39Z</time>
      </trkpt>
      <trkpt lat="45.98184" lon="6.57345">
        <ele>2323.1</ele>
        <time>2026-02-02T15:09:40Z</time>
      </trkpt>
      <trkpt lat="45.98184" lon="6.57345">
        <ele>2323.1</ele>
        <time>2026-02-02T15:09:41Z</time>
      </trkpt>
      <trkpt lat="45.98184" lon="6.57345">
        <ele>2323.1</ele>
        <time>2026-02-02T15:09:42Z</time>
      </trkpt>
      <trkpt lat="45.98184" lon="6.57345">
        <ele>2323.1</ele>
        <time>2026-02-02T15:09:43Z</time>
      </trkpt>
      <trkpt lat="45.98184" lon="6.57345">
        <ele>2323.1</ele>
        <time>2026-02-02T15:09:44Z</time>
      </trkpt>
      <trkpt lat="45.98184" lon="6.57345">
        <ele>2323.1</ele>
        <time>2026-02-02T15:09:45Z</time>
      </trkpt>
      <trkpt lat="45.98184" lon="6.57345">
        <ele>2323.1</ele>
        <time>2026-02-02T15:09:46Z</time>
      </trkpt>
      <trkpt lat="45.98184" lon="6.57345">
        <ele>2323.1</ele>
        <time>2026-02-02T15:09:47Z</time>
      </trkpt>
      <trkpt lat="45.98184" lon="6.57345">
        <ele>2323.1</ele>
        <time>2026-02-02T15:09:48Z</time>
      </trkpt>
      <trkpt lat="45.98184" lon="6.57345">
        <ele>2323.1</ele>
        <time>2026-02-02T15:09:49Z</time>
      </trkpt>
      <trkpt lat="45.98184" lon="6.57345">
        <ele>2323.1</ele>
        <time>2026-02-02T15:09:50Z</time>
      </trkpt>
      <trkpt lat="45.98184" lon="6.57345">
        <ele>2323.1</ele>
        <time>2026-02-02T15:09:51Z</time>
      </trkpt>
      <trkpt lat="45.98185" lon="6.57346">
        <ele>2323.2</ele>
        <time>2026-02-02T15:09:52Z</time>
      </trkpt>
      <trkpt lat="45.98185" lon="6.57346">
        <ele>2323.3</ele>
        <time>2026-02-02T15:09:53Z</time>
      </trkpt>
      <trkpt lat="45.98184" lon="6.57346">
        <ele>2323.3</ele>
        <time>2026-02-02T15:09:54Z</time>
      </trkpt>
      <trkpt lat="45.98184" lon="6.57346">
        <ele>2323.3</ele>
        <time>2026-02-02T15:09:55Z</time>
      </trkpt>
      <trkpt lat="45.98184" lon="6.57346">
        <ele>2323.3</ele>
        <time>2026-02-02T15:09:56Z</time>
      </trkpt>
      <trkpt lat="45.98184" lon="6.57346">
        <ele>2323.3</ele>
        <time>2026-02-02T15:09:57Z</time>
      </trkpt>
      <trkpt lat="45.98184" lon="6.57346">
        <ele>2323.3</ele>
        <time>2026-02-02T15:09:58Z</time>
      </trkpt>
      <trkpt lat="45.98184" lon="6.57346">
        <ele>2323.4</ele>
        <time>2026-02-02T15:09:59Z</time>
      </trkpt>
      <trkpt lat="45.98183" lon="6.57346">
        <ele>2323.5</ele>
        <time>2026-02-02T15:10:00Z</time>
      </trkpt>
      <trkpt lat="45.98183" lon="6.57346">
        <ele>2323.6</ele>
        <time>2026-02-02T15:10:01Z</time>
      </trkpt>
      <trkpt lat="45.98182" lon="6.57347">
        <ele>2323.7</ele>
        <time>2026-02-02T15:10:02Z</time>
      </trkpt>
      <trkpt lat="45.9818" lon="6.57348">
        <ele>2323.9</ele>
        <time>2026-02-02T15:10:03Z</time>
      </trkpt>
      <trkpt lat="45.98179" lon="6.57348">
        <ele>2324</ele>
        <time>2026-02-02T15:10:04Z</time>
      </trkpt>
      <trkpt lat="45.98178" lon="6.57348">
        <ele>2324.2</ele>
        <time>2026-02-02T15:10:05Z</time>
      </trkpt>
      <trkpt lat="45.98177" lon="6.57349">
        <ele>2324.3</ele>
        <time>2026-02-02T15:10:06Z</time>
      </trkpt>
      <trkpt lat="45.98176" lon="6.57349">
        <ele>2324.4</ele>
        <time>2026-02-02T15:10:07Z</time>
      </trkpt>
      <trkpt lat="45.98176" lon="6.57349">
        <ele>2324.5</ele>
        <time>2026-02-02T15:10:08Z</time>
      </trkpt>
      <trkpt lat="45.98176" lon="6.57348">
        <ele>2324.5</ele>
        <time>2026-02-02T15:10:09Z</time>
      </trkpt>
      <trkpt lat="45.98175" lon="6.57349">
        <ele>2324.6</ele>
        <time>2026-02-02T15:10:10Z</time>
      </trkpt>
      <trkpt lat="45.98174" lon="6.57349">
        <ele>2324.7</ele>
        <time>2026-02-02T15:10:11Z</time>
      </trkpt>
      <trkpt lat="45.98173" lon="6.57349">
        <ele>2324.8</ele>
        <time>2026-02-02T15:10:12Z</time>
      </trkpt>
      <trkpt lat="45.98172" lon="6.57349">
        <ele>2324.9</ele>
        <time>2026-02-02T15:10:13Z</time>
      </trkpt>
      <trkpt lat="45.98171" lon="6.57349">
        <ele>2325</ele>
        <time>2026-02-02T15:10:14Z</time>
      </trkpt>
      <trkpt lat="45.9817" lon="6.57349">
        <ele>2325.2</ele>
        <time>2026-02-02T15:10:15Z</time>
      </trkpt>
      <trkpt lat="45.9817" lon="6.57349">
        <ele>2325.3</ele>
        <time>2026-02-02T15:10:16Z</time>
      </trkpt>
      <trkpt lat="45.9817" lon="6.57349">
        <ele>2325.3</ele>
        <time>2026-02-02T15:10:17Z</time>
      </trkpt>
      <trkpt lat="45.98169" lon="6.57349">
        <ele>2325.3</ele>
        <time>2026-02-02T15:10:18Z</time>
      </trkpt>
      <trkpt lat="45.98168" lon="6.57349">
        <ele>2325.4</ele>
        <time>2026-02-02T15:10:19Z</time>
      </trkpt>
      <trkpt lat="45.98167" lon="6.57349">
        <ele>2325.5</ele>
        <time>2026-02-02T15:10:20Z</time>
      </trkpt>
      <trkpt lat="45.98167" lon="6.57348">
        <ele>2325.6</ele>
        <time>2026-02-02T15:10:21Z</time>
      </trkpt>
      <trkpt lat="45.98167" lon="6.57348">
        <ele>2325.6</ele>
        <time>2026-02-02T15:10:22Z</time>
      </trkpt>
      <trkpt lat="45.98167" lon="6.57348">
        <ele>2325.6</ele>
        <time>2026-02-02T15:10:23Z</time>
      </trkpt>
      <trkpt lat="45.98167" lon="6.57348">
        <ele>2325.6</ele>
        <time>2026-02-02T15:10:24Z</time>
      </trkpt>
      <trkpt lat="45.98167" lon="6.57348">
        <ele>2325.6</ele>
        <time>2026-02-02T15:10:25Z</time>
      </trkpt>
      <trkpt lat="45.98167" lon="6.57348">
        <ele>2325.6</ele>
        <time>2026-02-02T15:10:26Z</time>
      </trkpt>
      <trkpt lat="45.98167" lon="6.57348">
        <ele>2325.6</ele>
        <time>2026-02-02T15:10:27Z</time>
      </trkpt>
      <trkpt lat="45.98167" lon="6.57348">
        <ele>2325.6</ele>
        <time>2026-02-02T15:10:28Z</time>
      </trkpt>
      <trkpt lat="45.98167" lon="6.57348">
        <ele>2325.6</ele>
        <time>2026-02-02T15:10:29Z</time>
      </trkpt>
      <trkpt lat="45.98167" lon="6.57348">
        <ele>2325.6</ele>
        <time>2026-02-02T15:10:30Z</time>
      </trkpt>
      <trkpt lat="45.98167" lon="6.57348">
        <ele>2325.6</ele>
        <time>2026-02-02T15:10:31Z</time>
      </trkpt>
      <trkpt lat="45.98167" lon="6.57348">
        <ele>2325.6</ele>
        <time>2026-02-02T15:10:32Z</time>
      </trkpt>
      <trkpt lat="45.98167" lon="6.57348">
        <ele>2325.7</ele>
        <time>2026-02-02T15:10:33Z</time>
      </trkpt>
      <trkpt lat="45.98167" lon="6.57348">
        <ele>2325.7</ele>
        <time>2026-02-02T15:10:34Z</time>
      </trkpt>
      <trkpt lat="45.98167" lon="6.57348">
        <ele>2325.7</ele>
        <time>2026-02-02T15:10:35Z</time>
      </trkpt>
      <trkpt lat="45.98167" lon="6.57348">
        <ele>2325.7</ele>
        <time>2026-02-02T15:10:36Z</time>
      </trkpt>
      <trkpt lat="45.98167" lon="6.57348">
        <ele>2325.7</ele>
        <time>2026-02-02T15:10:37Z</time>
      </trkpt>
      <trkpt lat="45.98167" lon="6.57348">
        <ele>2325.7</ele>
        <time>2026-02-02T15:10:38Z</time>
      </trkpt>
      <trkpt lat="45.98167" lon="6.57348">
        <ele>2325.7</ele>
        <time>2026-02-02T15:10:39Z</time>
      </trkpt>
      <trkpt lat="45.98167" lon="6.57349">
        <ele>2325.8</ele>
        <time>2026-02-02T15:10:40Z</time>
      </trkpt>
      <trkpt lat="45.98167" lon="6.57349">
        <ele>2325.8</ele>
        <time>2026-02-02T15:10:41Z</time>
      </trkpt>
      <trkpt lat="45.98166" lon="6.5735">
        <ele>2325.9</ele>
        <time>2026-02-02T15:10:42Z</time>
      </trkpt>
      <trkpt lat="45.98166" lon="6.5735">
        <ele>2326</ele>
        <time>2026-02-02T15:10:43Z</time>
      </trkpt>
      <trkpt lat="45.98165" lon="6.57351">
        <ele>2326.1</ele>
        <time>2026-02-02T15:10:44Z</time>
      </trkpt>
      <trkpt lat="45.98166" lon="6.5735">
        <ele>2326.2</ele>
        <time>2026-02-02T15:10:45Z</time>
      </trkpt>
      <trkpt lat="45.98165" lon="6.5735">
        <ele>2326.2</ele>
        <time>2026-02-02T15:10:46Z</time>
      </trkpt>
      <trkpt lat="45.98165" lon="6.57351">
        <ele>2326.3</ele>
        <time>2026-02-02T15:10:47Z</time>
      </trkpt>
      <trkpt lat="45.98165" lon="6.57352">
        <ele>2326.4</ele>
        <time>2026-02-02T15:10:48Z</time>
      </trkpt>
      <trkpt lat="45.98165" lon="6.57353">
        <ele>2326.5</ele>
        <time>2026-02-02T15:10:49Z</time>
      </trkpt>
      <trkpt lat="45.98165" lon="6.57355">
        <ele>2326.6</ele>
        <time>2026-02-02T15:10:50Z</time>
      </trkpt>
      <trkpt lat="45.98165" lon="6.57356">
        <ele>2326.7</ele>
        <time>2026-02-02T15:10:51Z</time>
      </trkpt>
      <trkpt lat="45.98165" lon="6.57356">
        <ele>2326.7</ele>
        <time>2026-02-02T15:10:53Z</time>
      </trkpt>
      <trkpt lat="45.98165" lon="6.57356">
        <ele>2326.7</ele>
        <time>2026-02-02T15:10:54Z</time>
      </trkpt>
      <trkpt lat="45.98165" lon="6.57356">
        <ele>2326.8</ele>
        <time>2026-02-02T15:10:55Z</time>
      </trkpt>
      <trkpt lat="45.98165" lon="6.57356">
        <ele>2326.8</ele>
        <time>2026-02-02T15:10:56Z</time>
      </trkpt>
      <trkpt lat="45.98165" lon="6.57356">
        <ele>2326.8</ele>
        <time>2026-02-02T15:10:57Z</time>
      </trkpt>
      <trkpt lat="45.98165" lon="6.57356">
        <ele>2326.8</ele>
        <time>2026-02-02T15:10:58Z</time>
      </trkpt>
      <trkpt lat="45.98166" lon="6.57356">
        <ele>2326.8</ele>
        <time>2026-02-02T15:10:59Z</time>
      </trkpt>
      <trkpt lat="45.98166" lon="6.57357">
        <ele>2326.9</ele>
        <time>2026-02-02T15:11:00Z</time>
      </trkpt>
      <trkpt lat="45.98166" lon="6.57357">
        <ele>2326.9</ele>
        <time>2026-02-02T15:11:01Z</time>
      </trkpt>
      <trkpt lat="45.98166" lon="6.57357">
        <ele>2326.9</ele>
        <time>2026-02-02T15:11:02Z</time>
      </trkpt>
      <trkpt lat="45.98166" lon="6.57357">
        <ele>2326.9</ele>
        <time>2026-02-02T15:11:03Z</time>
      </trkpt>
      <trkpt lat="45.98166" lon="6.57357">
        <ele>2326.9</ele>
        <time>2026-02-02T15:11:04Z</time>
      </trkpt>
      <trkpt lat="45.98166" lon="6.57357">
        <ele>2326.9</ele>
        <time>2026-02-02T15:11:05Z</time>
      </trkpt>
      <trkpt lat="45.98166" lon="6.57357">
        <ele>2326.9</ele>
        <time>2026-02-02T15:11:06Z</time>
      </trkpt>
      <trkpt lat="45.98166" lon="6.57357">
        <ele>2326.9</ele>
        <time>2026-02-02T15:11:07Z</time>
      </trkpt>
      <trkpt lat="45.98166" lon="6.57357">
        <ele>2326.9</ele>
        <time>2026-02-02T15:11:08Z</time>
      </trkpt>
      <trkpt lat="45.98166" lon="6.57357">
        <ele>2326.9</ele>
        <time>2026-02-02T15:11:09Z</time>
      </trkpt>
      <trkpt lat="45.98166" lon="6.57357">
        <ele>2327</ele>
        <time>2026-02-02T15:11:10Z</time>
      </trkpt>
      <trkpt lat="45.98166" lon="6.57357">
        <ele>2327</ele>
        <time>2026-02-02T15:11:11Z</time>
      </trkpt>
      <trkpt lat="45.98166" lon="6.57357">
        <ele>2327</ele>
        <time>2026-02-02T15:11:12Z</time>
      </trkpt>
      <trkpt lat="45.98166" lon="6.57357">
        <ele>2327</ele>
        <time>2026-02-02T15:11:13Z</time>
      </trkpt>
      <trkpt lat="45.98166" lon="6.57357">
        <ele>2327</ele>
        <time>2026-02-02T15:11:14Z</time>
      </trkpt>
      <trkpt lat="45.98166" lon="6.57357">
        <ele>2327</ele>
        <time>2026-02-02T15:11:15Z</time>
      </trkpt>
      <trkpt lat="45.98166" lon="6.57357">
        <ele>2327</ele>
        <time>2026-02-02T15:11:16Z</time>
      </trkpt>
      <trkpt lat="45.98166" lon="6.57358">
        <ele>2327</ele>
        <time>2026-02-02T15:11:17Z</time>
      </trkpt>
      <trkpt lat="45.98166" lon="6.57358">
        <ele>2327.1</ele>
        <time>2026-02-02T15:11:18Z</time>
      </trkpt>
      <trkpt lat="45.98167" lon="6.57358">
        <ele>2327.1</ele>
        <time>2026-02-02T15:11:19Z</time>
      </trkpt>
      <trkpt lat="45.98167" lon="6.57358">
        <ele>2327.2</ele>
        <time>2026-02-02T15:11:20Z</time>
      </trkpt>
      <trkpt lat="45.98167" lon="6.57359">
        <ele>2327.2</ele>
        <time>2026-02-02T15:11:21Z</time>
      </trkpt>
      <trkpt lat="45.98167" lon="6.57359">
        <ele>2327.3</ele>
        <time>2026-02-02T15:11:22Z</time>
      </trkpt>
      <trkpt lat="45.98168" lon="6.5736">
        <ele>2327.4</ele>
        <time>2026-02-02T15:11:23Z</time>
      </trkpt>
      <trkpt lat="45.98168" lon="6.57361">
        <ele>2327.5</ele>
        <time>2026-02-02T15:11:24Z</time>
      </trkpt>
      <trkpt lat="45.98168" lon="6.57361">
        <ele>2327.5</ele>
        <time>2026-02-02T15:11:25Z</time>
      </trkpt>
      <trkpt lat="45.98169" lon="6.57362">
        <ele>2327.7</ele>
        <time>2026-02-02T15:11:26Z</time>
      </trkpt>
      <trkpt lat="45.9817" lon="6.57362">
        <ele>2327.7</ele>
        <time>2026-02-02T15:11:27Z</time>
      </trkpt>
      <trkpt lat="45.9817" lon="6.57363">
        <ele>2327.8</ele>
        <time>2026-02-02T15:11:28Z</time>
      </trkpt>
      <trkpt lat="45.9817" lon="6.57363">
        <ele>2327.9</ele>
        <time>2026-02-02T15:11:29Z</time>
      </trkpt>
      <trkpt lat="45.98168" lon="6.57364">
        <ele>2328.1</ele>
        <time>2026-02-02T15:11:30Z</time>
      </trkpt>
      <trkpt lat="45.98167" lon="6.57366">
        <ele>2328.4</ele>
        <time>2026-02-02T15:11:31Z</time>
      </trkpt>
      <trkpt lat="45.98164" lon="6.57366">
        <ele>2328.8</ele>
        <time>2026-02-02T15:11:32Z</time>
      </trkpt>
      <trkpt lat="45.98164" lon="6.57366">
        <ele>2328.8</ele>
        <time>2026-02-02T15:11:33Z</time>
      </trkpt>
      <trkpt lat="45.98163" lon="6.57366">
        <ele>2329</ele>
        <time>2026-02-02T15:11:34Z</time>
      </trkpt>
      <trkpt lat="45.98162" lon="6.57366">
        <ele>2329.2</ele>
        <time>2026-02-02T15:11:35Z</time>
      </trkpt>
      <trkpt lat="45.98161" lon="6.57366">
        <ele>2329.3</ele>
        <time>2026-02-02T15:11:36Z</time>
      </trkpt>
      <trkpt lat="45.9816" lon="6.57366">
        <ele>2329.5</ele>
        <time>2026-02-02T15:11:37Z</time>
      </trkpt>
      <trkpt lat="45.98161" lon="6.57366">
        <ele>2329.6</ele>
        <time>2026-02-02T15:11:38Z</time>
      </trkpt>
      <trkpt lat="45.98159" lon="6.57366">
        <ele>2330</ele>
        <time>2026-02-02T15:11:39Z</time>
      </trkpt>
      <trkpt lat="45.98158" lon="6.57366">
        <ele>2330.1</ele>
        <time>2026-02-02T15:11:40Z</time>
      </trkpt>
      <trkpt lat="45.98156" lon="6.57366">
        <ele>2330.4</ele>
        <time>2026-02-02T15:11:41Z</time>
      </trkpt>
      <trkpt lat="45.98156" lon="6.57366">
        <ele>2330.5</ele>
        <time>2026-02-02T15:11:42Z</time>
      </trkpt>
      <trkpt lat="45.98156" lon="6.57366">
        <ele>2330.5</ele>
        <time>2026-02-02T15:11:43Z</time>
      </trkpt>
      <trkpt lat="45.98156" lon="6.57366">
        <ele>2330.6</ele>
        <time>2026-02-02T15:11:44Z</time>
      </trkpt>
      <trkpt lat="45.98156" lon="6.57366">
        <ele>2330.6</ele>
        <time>2026-02-02T15:11:45Z</time>
      </trkpt>
      <trkpt lat="45.98156" lon="6.57366">
        <ele>2330.6</ele>
        <time>2026-02-02T15:11:46Z</time>
      </trkpt>
      <trkpt lat="45.98156" lon="6.57366">
        <ele>2330.6</ele>
        <time>2026-02-02T15:11:47Z</time>
      </trkpt>
      <trkpt lat="45.98156" lon="6.57367">
        <ele>2330.6</ele>
        <time>2026-02-02T15:11:48Z</time>
      </trkpt>
      <trkpt lat="45.98156" lon="6.57367">
        <ele>2330.6</ele>
        <time>2026-02-02T15:11:49Z</time>
      </trkpt>
      <trkpt lat="45.98156" lon="6.57367">
        <ele>2330.6</ele>
        <time>2026-02-02T15:11:50Z</time>
      </trkpt>
      <trkpt lat="45.98156" lon="6.57367">
        <ele>2330.7</ele>
        <time>2026-02-02T15:11:51Z</time>
      </trkpt>
      <trkpt lat="45.98156" lon="6.57367">
        <ele>2330.7</ele>
        <time>2026-02-02T15:11:52Z</time>
      </trkpt>
      <trkpt lat="45.98156" lon="6.57367">
        <ele>2330.7</ele>
        <time>2026-02-02T15:11:53Z</time>
      </trkpt>
      <trkpt lat="45.98156" lon="6.57367">
        <ele>2330.7</ele>
        <time>2026-02-02T15:11:54Z</time>
      </trkpt>
      <trkpt lat="45.98156" lon="6.57367">
        <ele>2330.7</ele>
        <time>2026-02-02T15:11:55Z</time>
      </trkpt>
      <trkpt lat="45.98156" lon="6.57367">
        <ele>2330.7</ele>
        <time>2026-02-02T15:11:56Z</time>
      </trkpt>
      <trkpt lat="45.98156" lon="6.57367">
        <ele>2330.7</ele>
        <time>2026-02-02T15:11:57Z</time>
      </trkpt>
      <trkpt lat="45.98156" lon="6.57367">
        <ele>2330.7</ele>
        <time>2026-02-02T15:11:58Z</time>
      </trkpt>
      <trkpt lat="45.98156" lon="6.57367">
        <ele>2330.7</ele>
        <time>2026-02-02T15:11:59Z</time>
      </trkpt>
      <trkpt lat="45.98156" lon="6.57367">
        <ele>2330.7</ele>
        <time>2026-02-02T15:12:00Z</time>
      </trkpt>
      <trkpt lat="45.98156" lon="6.57367">
        <ele>2330.7</ele>
        <time>2026-02-02T15:12:01Z</time>
      </trkpt>
      <trkpt lat="45.98156" lon="6.57367">
        <ele>2330.7</ele>
        <time>2026-02-02T15:12:02Z</time>
      </trkpt>
      <trkpt lat="45.98155" lon="6.57367">
        <ele>2330.8</ele>
        <time>2026-02-02T15:12:03Z</time>
      </trkpt>
      <trkpt lat="45.98155" lon="6.57368">
        <ele>2330.9</ele>
        <time>2026-02-02T15:12:04Z</time>
      </trkpt>
      <trkpt lat="45.98154" lon="6.57368">
        <ele>2331.1</ele>
        <time>2026-02-02T15:12:05Z</time>
      </trkpt>
      <trkpt lat="45.98153" lon="6.57368">
        <ele>2331.2</ele>
        <time>2026-02-02T15:12:06Z</time>
      </trkpt>
      <trkpt lat="45.98154" lon="6.57367">
        <ele>2331.3</ele>
        <time>2026-02-02T15:12:07Z</time>
      </trkpt>
      <trkpt lat="45.98153" lon="6.57367">
        <ele>2331.4</ele>
        <time>2026-02-02T15:12:08Z</time>
      </trkpt>
      <trkpt lat="45.98153" lon="6.57367">
        <ele>2331.5</ele>
        <time>2026-02-02T15:12:09Z</time>
      </trkpt>
      <trkpt lat="45.98152" lon="6.57367">
        <ele>2331.7</ele>
        <time>2026-02-02T15:12:10Z</time>
      </trkpt>
      <trkpt lat="45.98151" lon="6.57366">
        <ele>2331.8</ele>
        <time>2026-02-02T15:12:11Z</time>
      </trkpt>
      <trkpt lat="45.98151" lon="6.57366">
        <ele>2331.9</ele>
        <time>2026-02-02T15:12:12Z</time>
      </trkpt>
      <trkpt lat="45.9815" lon="6.57366">
        <ele>2331.9</ele>
        <time>2026-02-02T15:12:13Z</time>
      </trkpt>
      <trkpt lat="45.9815" lon="6.57366">
        <ele>2332</ele>
        <time>2026-02-02T15:12:14Z</time>
      </trkpt>
      <trkpt lat="45.9815" lon="6.57365">
        <ele>2332.1</ele>
        <time>2026-02-02T15:12:15Z</time>
      </trkpt>
      <trkpt lat="45.9815" lon="6.57365">
        <ele>2332.2</ele>
        <time>2026-02-02T15:12:16Z</time>
      </trkpt>
      <trkpt lat="45.98149" lon="6.57365">
        <ele>2332.2</ele>
        <time>2026-02-02T15:12:17Z</time>
      </trkpt>
      <trkpt lat="45.98149" lon="6.57364">
        <ele>2332.4</ele>
        <time>2026-02-02T15:12:18Z</time>
      </trkpt>
      <trkpt lat="45.98147" lon="6.57363">
        <ele>2332.6</ele>
        <time>2026-02-02T15:12:19Z</time>
      </trkpt>
      <trkpt lat="45.98147" lon="6.57362">
        <ele>2332.8</ele>
        <time>2026-02-02T15:12:20Z</time>
      </trkpt>
      <trkpt lat="45.98147" lon="6.57362">
        <ele>2332.8</ele>
        <time>2026-02-02T15:12:21Z</time>
      </trkpt>
      <trkpt lat="45.98147" lon="6.57362">
        <ele>2332.9</ele>
        <time>2026-02-02T15:12:22Z</time>
      </trkpt>
      <trkpt lat="45.98147" lon="6.57361">
        <ele>2332.9</ele>
        <time>2026-02-02T15:12:23Z</time>
      </trkpt>
      <trkpt lat="45.98146" lon="6.57361">
        <ele>2333</ele>
        <time>2026-02-02T15:12:24Z</time>
      </trkpt>
      <trkpt lat="45.98146" lon="6.57361">
        <ele>2333</ele>
        <time>2026-02-02T15:12:25Z</time>
      </trkpt>
      <trkpt lat="45.98146" lon="6.57361">
        <ele>2333.1</ele>
        <time>2026-02-02T15:12:26Z</time>
      </trkpt>
      <trkpt lat="45.98146" lon="6.5736">
        <ele>2333.1</ele>
        <time>2026-02-02T15:12:27Z</time>
      </trkpt>
      <trkpt lat="45.98146" lon="6.5736">
        <ele>2333.1</ele>
        <time>2026-02-02T15:12:28Z</time>
      </trkpt>
      <trkpt lat="45.98146" lon="6.5736">
        <ele>2333.2</ele>
        <time>2026-02-02T15:12:29Z</time>
      </trkpt>
      <trkpt lat="45.98146" lon="6.5736">
        <ele>2333.2</ele>
        <time>2026-02-02T15:12:30Z</time>
      </trkpt>
      <trkpt lat="45.98145" lon="6.5736">
        <ele>2333.3</ele>
        <time>2026-02-02T15:12:31Z</time>
      </trkpt>
      <trkpt lat="45.98145" lon="6.5736">
        <ele>2333.4</ele>
        <time>2026-02-02T15:12:32Z</time>
      </trkpt>
      <trkpt lat="45.98145" lon="6.5736">
        <ele>2333.5</ele>
        <time>2026-02-02T15:12:33Z</time>
      </trkpt>
      <trkpt lat="45.98144" lon="6.57361">
        <ele>2333.5</ele>
        <time>2026-02-02T15:12:34Z</time>
      </trkpt>
      <trkpt lat="45.98144" lon="6.57361">
        <ele>2333.5</ele>
        <time>2026-02-02T15:12:35Z</time>
      </trkpt>
      <trkpt lat="45.98145" lon="6.57361">
        <ele>2333.6</ele>
        <time>2026-02-02T15:12:36Z</time>
      </trkpt>
      <trkpt lat="45.98145" lon="6.57361">
        <ele>2333.6</ele>
        <time>2026-02-02T15:12:37Z</time>
      </trkpt>
      <trkpt lat="45.98145" lon="6.57362">
        <ele>2333.6</ele>
        <time>2026-02-02T15:12:38Z</time>
      </trkpt>
      <trkpt lat="45.98145" lon="6.57362">
        <ele>2333.7</ele>
        <time>2026-02-02T15:12:39Z</time>
      </trkpt>
      <trkpt lat="45.98145" lon="6.57361">
        <ele>2333.7</ele>
        <time>2026-02-02T15:12:40Z</time>
      </trkpt>
      <trkpt lat="45.98145" lon="6.57361">
        <ele>2333.7</ele>
        <time>2026-02-02T15:12:41Z</time>
      </trkpt>
      <trkpt lat="45.98145" lon="6.57361">
        <ele>2333.7</ele>
        <time>2026-02-02T15:12:42Z</time>
      </trkpt>
      <trkpt lat="45.98145" lon="6.57361">
        <ele>2333.7</ele>
        <time>2026-02-02T15:12:43Z</time>
      </trkpt>
      <trkpt lat="45.98145" lon="6.57361">
        <ele>2333.7</ele>
        <time>2026-02-02T15:12:44Z</time>
      </trkpt>
      <trkpt lat="45.98145" lon="6.57361">
        <ele>2333.7</ele>
        <time>2026-02-02T15:12:45Z</time>
      </trkpt>
      <trkpt lat="45.98145" lon="6.57361">
        <ele>2333.7</ele>
        <time>2026-02-02T15:12:46Z</time>
      </trkpt>
      <trkpt lat="45.98145" lon="6.57361">
        <ele>2333.7</ele>
        <time>2026-02-02T15:12:47Z</time>
      </trkpt>
      <trkpt lat="45.98145" lon="6.57361">
        <ele>2333.7</ele>
        <time>2026-02-02T15:12:48Z</time>
      </trkpt>
      <trkpt lat="45.98145" lon="6.57361">
        <ele>2333.7</ele>
        <time>2026-02-02T15:12:49Z</time>
      </trkpt>
      <trkpt lat="45.98145" lon="6.57361">
        <ele>2333.7</ele>
        <time>2026-02-02T15:12:50Z</time>
      </trkpt>
      <trkpt lat="45.98145" lon="6.57362">
        <ele>2333.8</ele>
        <time>2026-02-02T15:12:51Z</time>
      </trkpt>
      <trkpt lat="45.98146" lon="6.57363">
        <ele>2334</ele>
        <time>2026-02-02T15:12:52Z</time>
      </trkpt>
      <trkpt lat="45.98146" lon="6.57365">
        <ele>2334.2</ele>
        <time>2026-02-02T15:12:53Z</time>
      </trkpt>
      <trkpt lat="45.98145" lon="6.57365">
        <ele>2334.4</ele>
        <time>2026-02-02T15:12:54Z</time>
      </trkpt>
      <trkpt lat="45.98145" lon="6.57367">
        <ele>2334.6</ele>
        <time>2026-02-02T15:12:55Z</time>
      </trkpt>
      <trkpt lat="45.98145" lon="6.57367">
        <ele>2334.7</ele>
        <time>2026-02-02T15:12:56Z</time>
      </trkpt>
      <trkpt lat="45.98145" lon="6.57367">
        <ele>2334.7</ele>
        <time>2026-02-02T15:12:57Z</time>
      </trkpt>
      <trkpt lat="45.98145" lon="6.57369">
        <ele>2334.9</ele>
        <time>2026-02-02T15:12:58Z</time>
      </trkpt>
      <trkpt lat="45.98145" lon="6.5737">
        <ele>2335.1</ele>
        <time>2026-02-02T15:12:59Z</time>
      </trkpt>
      <trkpt lat="45.98146" lon="6.57371">
        <ele>2335.3</ele>
        <time>2026-02-02T15:13:00Z</time>
      </trkpt>
      <trkpt lat="45.98146" lon="6.57372">
        <ele>2335.4</ele>
        <time>2026-02-02T15:13:01Z</time>
      </trkpt>
      <trkpt lat="45.98147" lon="6.57372">
        <ele>2335.5</ele>
        <time>2026-02-02T15:13:02Z</time>
      </trkpt>
      <trkpt lat="45.98147" lon="6.57373">
        <ele>2335.6</ele>
        <time>2026-02-02T15:13:03Z</time>
      </trkpt>
      <trkpt lat="45.98147" lon="6.57374">
        <ele>2335.7</ele>
        <time>2026-02-02T15:13:04Z</time>
      </trkpt>
      <trkpt lat="45.98147" lon="6.57374">
        <ele>2335.8</ele>
        <time>2026-02-02T15:13:05Z</time>
      </trkpt>
      <trkpt lat="45.98148" lon="6.57375">
        <ele>2336</ele>
        <time>2026-02-02T15:13:06Z</time>
      </trkpt>
      <trkpt lat="45.98148" lon="6.57376">
        <ele>2336.2</ele>
        <time>2026-02-02T15:13:07Z</time>
      </trkpt>
      <trkpt lat="45.98147" lon="6.57375">
        <ele>2336.5</ele>
        <time>2026-02-02T15:13:08Z</time>
      </trkpt>
      <trkpt lat="45.98147" lon="6.57376">
        <ele>2336.6</ele>
        <time>2026-02-02T15:13:09Z</time>
      </trkpt>
      <trkpt lat="45.98147" lon="6.57376">
        <ele>2336.7</ele>
        <time>2026-02-02T15:13:10Z</time>
      </trkpt>
      <trkpt lat="45.98147" lon="6.57377">
        <ele>2336.7</ele>
        <time>2026-02-02T15:13:11Z</time>
      </trkpt>
      <trkpt lat="45.98147" lon="6.57377">
        <ele>2336.8</ele>
        <time>2026-02-02T15:13:12Z</time>
      </trkpt>
      <trkpt lat="45.98147" lon="6.57377">
        <ele>2336.8</ele>
        <time>2026-02-02T15:13:13Z</time>
      </trkpt>
      <trkpt lat="45.98146" lon="6.57377">
        <ele>2336.9</ele>
        <time>2026-02-02T15:13:14Z</time>
      </trkpt>
      <trkpt lat="45.98146" lon="6.57377">
        <ele>2336.9</ele>
        <time>2026-02-02T15:13:15Z</time>
      </trkpt>
      <trkpt lat="45.98146" lon="6.57377">
        <ele>2336.9</ele>
        <time>2026-02-02T15:13:16Z</time>
      </trkpt>
      <trkpt lat="45.98146" lon="6.57377">
        <ele>2337</ele>
        <time>2026-02-02T15:13:17Z</time>
      </trkpt>
      <trkpt lat="45.98146" lon="6.57378">
        <ele>2337.1</ele>
        <time>2026-02-02T15:13:18Z</time>
      </trkpt>
      <trkpt lat="45.98146" lon="6.57378">
        <ele>2337.1</ele>
        <time>2026-02-02T15:13:19Z</time>
      </trkpt>
      <trkpt lat="45.98146" lon="6.57378">
        <ele>2337.1</ele>
        <time>2026-02-02T15:13:20Z</time>
      </trkpt>
      <trkpt lat="45.98146" lon="6.57378">
        <ele>2337.1</ele>
        <time>2026-02-02T15:13:21Z</time>
      </trkpt>
      <trkpt lat="45.98146" lon="6.57378">
        <ele>2337.1</ele>
        <time>2026-02-02T15:13:22Z</time>
      </trkpt>
      <trkpt lat="45.98146" lon="6.57378">
        <ele>2337.1</ele>
        <time>2026-02-02T15:13:23Z</time>
      </trkpt>
      <trkpt lat="45.98145" lon="6.57377">
        <ele>2337.2</ele>
        <time>2026-02-02T15:13:24Z</time>
      </trkpt>
      <trkpt lat="45.98145" lon="6.57377">
        <ele>2337.4</ele>
        <time>2026-02-02T15:13:25Z</time>
      </trkpt>
      <trkpt lat="45.98144" lon="6.57377">
        <ele>2337.5</ele>
        <time>2026-02-02T15:13:26Z</time>
      </trkpt>
      <trkpt lat="45.98144" lon="6.57377">
        <ele>2337.5</ele>
        <time>2026-02-02T15:13:27Z</time>
      </trkpt>
      <trkpt lat="45.98144" lon="6.57377">
        <ele>2337.6</ele>
        <time>2026-02-02T15:13:28Z</time>
      </trkpt>
      <trkpt lat="45.98144" lon="6.57377">
        <ele>2337.6</ele>
        <time>2026-02-02T15:13:29Z</time>
      </trkpt>
      <trkpt lat="45.98143" lon="6.57377">
        <ele>2337.7</ele>
        <time>2026-02-02T15:13:30Z</time>
      </trkpt>
      <trkpt lat="45.98143" lon="6.57377">
        <ele>2337.7</ele>
        <time>2026-02-02T15:13:31Z</time>
      </trkpt>
      <trkpt lat="45.98143" lon="6.57377">
        <ele>2337.8</ele>
        <time>2026-02-02T15:13:32Z</time>
      </trkpt>
      <trkpt lat="45.98143" lon="6.57377">
        <ele>2337.8</ele>
        <time>2026-02-02T15:13:33Z</time>
      </trkpt>
      <trkpt lat="45.98142" lon="6.57376">
        <ele>2337.9</ele>
        <time>2026-02-02T15:13:34Z</time>
      </trkpt>
      <trkpt lat="45.98142" lon="6.57376">
        <ele>2337.9</ele>
        <time>2026-02-02T15:13:35Z</time>
      </trkpt>
      <trkpt lat="45.98142" lon="6.57376">
        <ele>2338</ele>
        <time>2026-02-02T15:13:36Z</time>
      </trkpt>
      <trkpt lat="45.98141" lon="6.57376">
        <ele>2338.2</ele>
        <time>2026-02-02T15:13:37Z</time>
      </trkpt>
      <trkpt lat="45.98141" lon="6.57376">
        <ele>2338.3</ele>
        <time>2026-02-02T15:13:38Z</time>
      </trkpt>
      <trkpt lat="45.9814" lon="6.57376">
        <ele>2338.4</ele>
        <time>2026-02-02T15:13:39Z</time>
      </trkpt>
      <trkpt lat="45.9814" lon="6.57376">
        <ele>2338.4</ele>
        <time>2026-02-02T15:13:40Z</time>
      </trkpt>
      <trkpt lat="45.98139" lon="6.57376">
        <ele>2338.6</ele>
        <time>2026-02-02T15:13:41Z</time>
      </trkpt>
      <trkpt lat="45.98139" lon="6.57376">
        <ele>2338.7</ele>
        <time>2026-02-02T15:13:42Z</time>
      </trkpt>
      <trkpt lat="45.98139" lon="6.57375">
        <ele>2338.8</ele>
        <time>2026-02-02T15:13:43Z</time>
      </trkpt>
      <trkpt lat="45.98138" lon="6.57374">
        <ele>2339</ele>
        <time>2026-02-02T15:13:44Z</time>
      </trkpt>
      <trkpt lat="45.98138" lon="6.57374">
        <ele>2339.1</ele>
        <time>2026-02-02T15:13:45Z</time>
      </trkpt>
      <trkpt lat="45.98137" lon="6.57373">
        <ele>2339.3</ele>
        <time>2026-02-02T15:13:46Z</time>
      </trkpt>
      <trkpt lat="45.98136" lon="6.57372">
        <ele>2339.4</ele>
        <time>2026-02-02T15:13:47Z</time>
      </trkpt>
      <trkpt lat="45.98136" lon="6.57372">
        <ele>2339.6</ele>
        <time>2026-02-02T15:13:48Z</time>
      </trkpt>
      <trkpt lat="45.98136" lon="6.57372">
        <ele>2339.6</ele>
        <time>2026-02-02T15:13:49Z</time>
      </trkpt>
      <trkpt lat="45.98135" lon="6.57372">
        <ele>2339.7</ele>
        <time>2026-02-02T15:13:50Z</time>
      </trkpt>
      <trkpt lat="45.98135" lon="6.57372">
        <ele>2339.8</ele>
        <time>2026-02-02T15:13:51Z</time>
      </trkpt>
      <trkpt lat="45.98134" lon="6.57372">
        <ele>2339.9</ele>
        <time>2026-02-02T15:13:52Z</time>
      </trkpt>
      <trkpt lat="45.98134" lon="6.57373">
        <ele>2340</ele>
        <time>2026-02-02T15:13:53Z</time>
      </trkpt>
      <trkpt lat="45.98134" lon="6.57373">
        <ele>2340</ele>
        <time>2026-02-02T15:13:54Z</time>
      </trkpt>
      <trkpt lat="45.98134" lon="6.57373">
        <ele>2340</ele>
        <time>2026-02-02T15:13:55Z</time>
      </trkpt>
      <trkpt lat="45.98134" lon="6.57373">
        <ele>2340</ele>
        <time>2026-02-02T15:13:56Z</time>
      </trkpt>
      <trkpt lat="45.98134" lon="6.57373">
        <ele>2340.1</ele>
        <time>2026-02-02T15:13:57Z</time>
      </trkpt>
      <trkpt lat="45.98134" lon="6.57373">
        <ele>2340.1</ele>
        <time>2026-02-02T15:13:58Z</time>
      </trkpt>
      <trkpt lat="45.98134" lon="6.57373">
        <ele>2340.1</ele>
        <time>2026-02-02T15:13:59Z</time>
      </trkpt>
      <trkpt lat="45.98134" lon="6.57373">
        <ele>2340.1</ele>
        <time>2026-02-02T15:14:00Z</time>
      </trkpt>
      <trkpt lat="45.98134" lon="6.57373">
        <ele>2340.1</ele>
        <time>2026-02-02T15:14:01Z</time>
      </trkpt>
      <trkpt lat="45.98134" lon="6.57373">
        <ele>2340.1</ele>
        <time>2026-02-02T15:14:02Z</time>
      </trkpt>
      <trkpt lat="45.98134" lon="6.57373">
        <ele>2340.1</ele>
        <time>2026-02-02T15:14:03Z</time>
      </trkpt>
      <trkpt lat="45.98134" lon="6.57373">
        <ele>2340.1</ele>
        <time>2026-02-02T15:14:04Z</time>
      </trkpt>
      <trkpt lat="45.98134" lon="6.57373">
        <ele>2340.1</ele>
        <time>2026-02-02T15:14:05Z</time>
      </trkpt>
      <trkpt lat="45.98134" lon="6.57373">
        <ele>2340.1</ele>
        <time>2026-02-02T15:14:06Z</time>
      </trkpt>
      <trkpt lat="45.98134" lon="6.57373">
        <ele>2340.1</ele>
        <time>2026-02-02T15:14:07Z</time>
      </trkpt>
      <trkpt lat="45.98134" lon="6.57373">
        <ele>2340.1</ele>
        <time>2026-02-02T15:14:08Z</time>
      </trkpt>
      <trkpt lat="45.98134" lon="6.57373">
        <ele>2340.1</ele>
        <time>2026-02-02T15:14:09Z</time>
      </trkpt>
      <trkpt lat="45.98134" lon="6.57373">
        <ele>2340.2</ele>
        <time>2026-02-02T15:14:10Z</time>
      </trkpt>
      <trkpt lat="45.98134" lon="6.57374">
        <ele>2340.3</ele>
        <time>2026-02-02T15:14:11Z</time>
      </trkpt>
      <trkpt lat="45.98134" lon="6.57376">
        <ele>2340.5</ele>
        <time>2026-02-02T15:14:12Z</time>
      </trkpt>
      <trkpt lat="45.98134" lon="6.57377">
        <ele>2340.7</ele>
        <time>2026-02-02T15:14:13Z</time>
      </trkpt>
      <trkpt lat="45.98134" lon="6.57378">
        <ele>2340.8</ele>
        <time>2026-02-02T15:14:14Z</time>
      </trkpt>
      <trkpt lat="45.98134" lon="6.57379">
        <ele>2340.9</ele>
        <time>2026-02-02T15:14:15Z</time>
      </trkpt>
      <trkpt lat="45.98134" lon="6.57381">
        <ele>2341.1</ele>
        <time>2026-02-02T15:14:16Z</time>
      </trkpt>
      <trkpt lat="45.98133" lon="6.57382">
        <ele>2341.3</ele>
        <time>2026-02-02T15:14:17Z</time>
      </trkpt>
      <trkpt lat="45.98133" lon="6.57384">
        <ele>2341.5</ele>
        <time>2026-02-02T15:14:18Z</time>
      </trkpt>
      <trkpt lat="45.98133" lon="6.57385">
        <ele>2341.6</ele>
        <time>2026-02-02T15:14:19Z</time>
      </trkpt>
      <trkpt lat="45.98133" lon="6.57386">
        <ele>2341.8</ele>
        <time>2026-02-02T15:14:20Z</time>
      </trkpt>
      <trkpt lat="45.98132" lon="6.57388">
        <ele>2342</ele>
        <time>2026-02-02T15:14:21Z</time>
      </trkpt>
      <trkpt lat="45.98131" lon="6.5739">
        <ele>2342.3</ele>
        <time>2026-02-02T15:14:22Z</time>
      </trkpt>
      <trkpt lat="45.9813" lon="6.57391">
        <ele>2342.4</ele>
        <time>2026-02-02T15:14:23Z</time>
      </trkpt>
      <trkpt lat="45.98129" lon="6.57391">
        <ele>2342.5</ele>
        <time>2026-02-02T15:14:24Z</time>
      </trkpt>
      <trkpt lat="45.98128" lon="6.57392">
        <ele>2342.7</ele>
        <time>2026-02-02T15:14:25Z</time>
      </trkpt>
      <trkpt lat="45.98128" lon="6.57392">
        <ele>2342.8</ele>
        <time>2026-02-02T15:14:26Z</time>
      </trkpt>
      <trkpt lat="45.98127" lon="6.57393">
        <ele>2343</ele>
        <time>2026-02-02T15:14:27Z</time>
      </trkpt>
      <trkpt lat="45.98126" lon="6.57393">
        <ele>2343.1</ele>
        <time>2026-02-02T15:14:28Z</time>
      </trkpt>
      <trkpt lat="45.98125" lon="6.57394">
        <ele>2343.2</ele>
        <time>2026-02-02T15:14:29Z</time>
      </trkpt>
      <trkpt lat="45.98124" lon="6.57394">
        <ele>2343.3</ele>
        <time>2026-02-02T15:14:30Z</time>
      </trkpt>
      <trkpt lat="45.98123" lon="6.57395">
        <ele>2343.4</ele>
        <time>2026-02-02T15:14:31Z</time>
      </trkpt>
      <trkpt lat="45.98122" lon="6.57396">
        <ele>2343.6</ele>
        <time>2026-02-02T15:14:32Z</time>
      </trkpt>
      <trkpt lat="45.98122" lon="6.57398">
        <ele>2343.7</ele>
        <time>2026-02-02T15:14:33Z</time>
      </trkpt>
      <trkpt lat="45.98121" lon="6.57399">
        <ele>2343.8</ele>
        <time>2026-02-02T15:14:34Z</time>
      </trkpt>
      <trkpt lat="45.98121" lon="6.574">
        <ele>2344</ele>
        <time>2026-02-02T15:14:35Z</time>
      </trkpt>
      <trkpt lat="45.9812" lon="6.57402">
        <ele>2344.1</ele>
        <time>2026-02-02T15:14:36Z</time>
      </trkpt>
      <trkpt lat="45.9812" lon="6.57403">
        <ele>2344.2</ele>
        <time>2026-02-02T15:14:37Z</time>
      </trkpt>
      <trkpt lat="45.9812" lon="6.57404">
        <ele>2344.2</ele>
        <time>2026-02-02T15:14:38Z</time>
      </trkpt>
      <trkpt lat="45.9812" lon="6.57405">
        <ele>2344.3</ele>
        <time>2026-02-02T15:14:39Z</time>
      </trkpt>
      <trkpt lat="45.9812" lon="6.57406">
        <ele>2344</ele>
        <time>2026-02-02T15:14:40Z</time>
      </trkpt>
      <trkpt lat="45.98119" lon="6.57407">
        <ele>2342.9</ele>
        <time>2026-02-02T15:14:41Z</time>
      </trkpt>
      <trkpt lat="45.98119" lon="6.57409">
        <ele>2341.9</ele>
        <time>2026-02-02T15:14:42Z</time>
      </trkpt>
      <trkpt lat="45.98119" lon="6.5741">
        <ele>2340.8</ele>
        <time>2026-02-02T15:14:43Z</time>
      </trkpt>
      <trkpt lat="45.98118" lon="6.57411">
        <ele>2340</ele>
        <time>2026-02-02T15:14:44Z</time>
      </trkpt>
      <trkpt lat="45.98118" lon="6.57413">
        <ele>2338.7</ele>
        <time>2026-02-02T15:14:45Z</time>
      </trkpt>
      <trkpt lat="45.98117" lon="6.57414">
        <ele>2337.5</ele>
        <time>2026-02-02T15:14:46Z</time>
      </trkpt>
      <trkpt lat="45.98116" lon="6.57415">
        <ele>2336.5</ele>
        <time>2026-02-02T15:14:47Z</time>
      </trkpt>
      <trkpt lat="45.98116" lon="6.57417">
        <ele>2335.3</ele>
        <time>2026-02-02T15:14:48Z</time>
      </trkpt>
      <trkpt lat="45.98116" lon="6.57418">
        <ele>2334.1</ele>
        <time>2026-02-02T15:14:49Z</time>
      </trkpt>
      <trkpt lat="45.98115" lon="6.57419">
        <ele>2333.2</ele>
        <time>2026-02-02T15:14:50Z</time>
      </trkpt>
      <trkpt lat="45.98115" lon="6.57421">
        <ele>2331.9</ele>
        <time>2026-02-02T15:14:51Z</time>
      </trkpt>
      <trkpt lat="45.98114" lon="6.57422">
        <ele>2330.8</ele>
        <time>2026-02-02T15:14:52Z</time>
      </trkpt>
      <trkpt lat="45.98114" lon="6.57424">
        <ele>2329.7</ele>
        <time>2026-02-02T15:14:53Z</time>
      </trkpt>
      <trkpt lat="45.98114" lon="6.57425">
        <ele>2328.5</ele>
        <time>2026-02-02T15:14:54Z</time>
      </trkpt>
      <trkpt lat="45.98113" lon="6.57427">
        <ele>2327.6</ele>
        <time>2026-02-02T15:14:55Z</time>
      </trkpt>
      <trkpt lat="45.98113" lon="6.57428">
        <ele>2326.5</ele>
        <time>2026-02-02T15:14:56Z</time>
      </trkpt>
      <trkpt lat="45.98113" lon="6.57429">
        <ele>2325.3</ele>
        <time>2026-02-02T15:14:57Z</time>
      </trkpt>
      <trkpt lat="45.98112" lon="6.57431">
        <ele>2324.1</ele>
        <time>2026-02-02T15:14:58Z</time>
      </trkpt>
      <trkpt lat="45.98112" lon="6.57432">
        <ele>2323.5</ele>
        <time>2026-02-02T15:14:59Z</time>
      </trkpt>
      <trkpt lat="45.98111" lon="6.57434">
        <ele>2323.6</ele>
        <time>2026-02-02T15:15:00Z</time>
      </trkpt>
      <trkpt lat="45.98111" lon="6.57435">
        <ele>2323.7</ele>
        <time>2026-02-02T15:15:01Z</time>
      </trkpt>
      <trkpt lat="45.9811" lon="6.57436">
        <ele>2323.8</ele>
        <time>2026-02-02T15:15:02Z</time>
      </trkpt>
      <trkpt lat="45.9811" lon="6.57438">
        <ele>2323.8</ele>
        <time>2026-02-02T15:15:03Z</time>
      </trkpt>
      <trkpt lat="45.9811" lon="6.57439">
        <ele>2323.9</ele>
        <time>2026-02-02T15:15:04Z</time>
      </trkpt>
      <trkpt lat="45.9811" lon="6.5744">
        <ele>2324</ele>
        <time>2026-02-02T15:15:05Z</time>
      </trkpt>
      <trkpt lat="45.9811" lon="6.57441">
        <ele>2324.1</ele>
        <time>2026-02-02T15:15:06Z</time>
      </trkpt>
      <trkpt lat="45.9811" lon="6.57443">
        <ele>2324.2</ele>
        <time>2026-02-02T15:15:07Z</time>
      </trkpt>
      <trkpt lat="45.9811" lon="6.57444">
        <ele>2324.3</ele>
        <time>2026-02-02T15:15:08Z</time>
      </trkpt>
      <trkpt lat="45.9811" lon="6.57445">
        <ele>2324.3</ele>
        <time>2026-02-02T15:15:09Z</time>
      </trkpt>
      <trkpt lat="45.9811" lon="6.57446">
        <ele>2324.4</ele>
        <time>2026-02-02T15:15:10Z</time>
      </trkpt>
      <trkpt lat="45.9811" lon="6.57447">
        <ele>2324.4</ele>
        <time>2026-02-02T15:15:11Z</time>
      </trkpt>
      <trkpt lat="45.9811" lon="6.57447">
        <ele>2324.5</ele>
        <time>2026-02-02T15:15:12Z</time>
      </trkpt>
      <trkpt lat="45.9811" lon="6.57448">
        <ele>2324.5</ele>
        <time>2026-02-02T15:15:13Z</time>
      </trkpt>
      <trkpt lat="45.9811" lon="6.57448">
        <ele>2324.5</ele>
        <time>2026-02-02T15:15:14Z</time>
      </trkpt>
      <trkpt lat="45.9811" lon="6.57449">
        <ele>2324.6</ele>
        <time>2026-02-02T15:15:15Z</time>
      </trkpt>
      <trkpt lat="45.98111" lon="6.57451">
        <ele>2324.7</ele>
        <time>2026-02-02T15:15:16Z</time>
      </trkpt>
      <trkpt lat="45.98111" lon="6.57451">
        <ele>2324.8</ele>
        <time>2026-02-02T15:15:17Z</time>
      </trkpt>
      <trkpt lat="45.98111" lon="6.57452">
        <ele>2324.8</ele>
        <time>2026-02-02T15:15:18Z</time>
      </trkpt>
      <trkpt lat="45.98111" lon="6.57453">
        <ele>2324.9</ele>
        <time>2026-02-02T15:15:19Z</time>
      </trkpt>
      <trkpt lat="45.98111" lon="6.57453">
        <ele>2324.9</ele>
        <time>2026-02-02T15:15:20Z</time>
      </trkpt>
      <trkpt lat="45.98111" lon="6.57453">
        <ele>2324.9</ele>
        <time>2026-02-02T15:15:21Z</time>
      </trkpt>
      <trkpt lat="45.98111" lon="6.57452">
        <ele>2324.9</ele>
        <time>2026-02-02T15:15:22Z</time>
      </trkpt>
      <trkpt lat="45.98111" lon="6.57452">
        <ele>2325</ele>
        <time>2026-02-02T15:15:23Z</time>
      </trkpt>
      <trkpt lat="45.98111" lon="6.57452">
        <ele>2325</ele>
        <time>2026-02-02T15:15:24Z</time>
      </trkpt>
      <trkpt lat="45.98111" lon="6.57452">
        <ele>2325</ele>
        <time>2026-02-02T15:15:25Z</time>
      </trkpt>
      <trkpt lat="45.98111" lon="6.57452">
        <ele>2325</ele>
        <time>2026-02-02T15:15:26Z</time>
      </trkpt>
      <trkpt lat="45.98111" lon="6.57452">
        <ele>2325</ele>
        <time>2026-02-02T15:15:27Z</time>
      </trkpt>
      <trkpt lat="45.98111" lon="6.57452">
        <ele>2325</ele>
        <time>2026-02-02T15:15:28Z</time>
      </trkpt>
      <trkpt lat="45.98111" lon="6.57452">
        <ele>2325</ele>
        <time>2026-02-02T15:15:29Z</time>
      </trkpt>
      <trkpt lat="45.9811" lon="6.57452">
        <ele>2325</ele>
        <time>2026-02-02T15:15:30Z</time>
      </trkpt>
      <trkpt lat="45.9811" lon="6.57451">
        <ele>2325.1</ele>
        <time>2026-02-02T15:15:31Z</time>
      </trkpt>
      <trkpt lat="45.9811" lon="6.5745">
        <ele>2325.2</ele>
        <time>2026-02-02T15:15:32Z</time>
      </trkpt>
      <trkpt lat="45.9811" lon="6.57448">
        <ele>2325.3</ele>
        <time>2026-02-02T15:15:33Z</time>
      </trkpt>
      <trkpt lat="45.9811" lon="6.57446">
        <ele>2325.4</ele>
        <time>2026-02-02T15:15:34Z</time>
      </trkpt>
      <trkpt lat="45.9811" lon="6.57445">
        <ele>2325.5</ele>
        <time>2026-02-02T15:15:35Z</time>
      </trkpt>
      <trkpt lat="45.9811" lon="6.57444">
        <ele>2325.6</ele>
        <time>2026-02-02T15:15:36Z</time>
      </trkpt>
      <trkpt lat="45.9811" lon="6.57444">
        <ele>2325.6</ele>
        <time>2026-02-02T15:15:38Z</time>
      </trkpt>
      <trkpt lat="45.9811" lon="6.57444">
        <ele>2325.6</ele>
        <time>2026-02-02T15:15:39Z</time>
      </trkpt>
      <trkpt lat="45.9811" lon="6.57445">
        <ele>2325.6</ele>
        <time>2026-02-02T15:15:40Z</time>
      </trkpt>
      <trkpt lat="45.9811" lon="6.57445">
        <ele>2325.7</ele>
        <time>2026-02-02T15:15:41Z</time>
      </trkpt>
      <trkpt lat="45.9811" lon="6.57446">
        <ele>2325.7</ele>
        <time>2026-02-02T15:15:42Z</time>
      </trkpt>
      <trkpt lat="45.9811" lon="6.57446">
        <ele>2325.7</ele>
        <time>2026-02-02T15:15:43Z</time>
      </trkpt>
      <trkpt lat="45.9811" lon="6.57446">
        <ele>2325.7</ele>
        <time>2026-02-02T15:15:44Z</time>
      </trkpt>
      <trkpt lat="45.9811" lon="6.57446">
        <ele>2325.7</ele>
        <time>2026-02-02T15:15:45Z</time>
      </trkpt>
      <trkpt lat="45.9811" lon="6.57446">
        <ele>2325.7</ele>
        <time>2026-02-02T15:15:46Z</time>
      </trkpt>
      <trkpt lat="45.9811" lon="6.57446">
        <ele>2325.7</ele>
        <time>2026-02-02T15:15:47Z</time>
      </trkpt>
      <trkpt lat="45.9811" lon="6.57446">
        <ele>2325.7</ele>
        <time>2026-02-02T15:15:48Z</time>
      </trkpt>
      <trkpt lat="45.9811" lon="6.57445">
        <ele>2325.8</ele>
        <time>2026-02-02T15:15:49Z</time>
      </trkpt>
      <trkpt lat="45.9811" lon="6.57445">
        <ele>2325.8</ele>
        <time>2026-02-02T15:15:50Z</time>
      </trkpt>
      <trkpt lat="45.9811" lon="6.57445">
        <ele>2325.8</ele>
        <time>2026-02-02T15:15:51Z</time>
      </trkpt>
      <trkpt lat="45.9811" lon="6.57444">
        <ele>2325.8</ele>
        <time>2026-02-02T15:15:52Z</time>
      </trkpt>
      <trkpt lat="45.98109" lon="6.57443">
        <ele>2325.9</ele>
        <time>2026-02-02T15:15:53Z</time>
      </trkpt>
      <trkpt lat="45.98109" lon="6.57443">
        <ele>2325.9</ele>
        <time>2026-02-02T15:15:54Z</time>
      </trkpt>
      <trkpt lat="45.98109" lon="6.57443">
        <ele>2325.9</ele>
        <time>2026-02-02T15:15:55Z</time>
      </trkpt>
      <trkpt lat="45.98109" lon="6.57443">
        <ele>2325.9</ele>
        <time>2026-02-02T15:15:56Z</time>
      </trkpt>
      <trkpt lat="45.98109" lon="6.57444">
        <ele>2326</ele>
        <time>2026-02-02T15:15:57Z</time>
      </trkpt>
      <trkpt lat="45.98109" lon="6.57444">
        <ele>2326</ele>
        <time>2026-02-02T15:15:58Z</time>
      </trkpt>
      <trkpt lat="45.98109" lon="6.57444">
        <ele>2326</ele>
        <time>2026-02-02T15:15:59Z</time>
      </trkpt>
      <trkpt lat="45.98109" lon="6.57444">
        <ele>2326</ele>
        <time>2026-02-02T15:16:00Z</time>
      </trkpt>
      <trkpt lat="45.98109" lon="6.57444">
        <ele>2326</ele>
        <time>2026-02-02T15:16:01Z</time>
      </trkpt>
      <trkpt lat="45.98109" lon="6.57444">
        <ele>2326</ele>
        <time>2026-02-02T15:16:02Z</time>
      </trkpt>
      <trkpt lat="45.98109" lon="6.57444">
        <ele>2326</ele>
        <time>2026-02-02T15:16:03Z</time>
      </trkpt>
      <trkpt lat="45.98108" lon="6.57444">
        <ele>2326.1</ele>
        <time>2026-02-02T15:16:04Z</time>
      </trkpt>
      <trkpt lat="45.98107" lon="6.57443">
        <ele>2326.2</ele>
        <time>2026-02-02T15:16:05Z</time>
      </trkpt>
      <trkpt lat="45.98106" lon="6.57442">
        <ele>2326.3</ele>
        <time>2026-02-02T15:16:06Z</time>
      </trkpt>
      <trkpt lat="45.98106" lon="6.57443">
        <ele>2326.4</ele>
        <time>2026-02-02T15:16:07Z</time>
      </trkpt>
      <trkpt lat="45.98106" lon="6.57443">
        <ele>2326.4</ele>
        <time>2026-02-02T15:16:08Z</time>
      </trkpt>
      <trkpt lat="45.98106" lon="6.57444">
        <ele>2326.4</ele>
        <time>2026-02-02T15:16:09Z</time>
      </trkpt>
      <trkpt lat="45.98107" lon="6.57444">
        <ele>2326.5</ele>
        <time>2026-02-02T15:16:10Z</time>
      </trkpt>
      <trkpt lat="45.98107" lon="6.57444">
        <ele>2326.5</ele>
        <time>2026-02-02T15:16:11Z</time>
      </trkpt>
      <trkpt lat="45.98107" lon="6.57444">
        <ele>2326.5</ele>
        <time>2026-02-02T15:16:12Z</time>
      </trkpt>
      <trkpt lat="45.98107" lon="6.57445">
        <ele>2326.6</ele>
        <time>2026-02-02T15:16:13Z</time>
      </trkpt>
      <trkpt lat="45.98108" lon="6.57444">
        <ele>2326.7</ele>
        <time>2026-02-02T15:16:14Z</time>
      </trkpt>
      <trkpt lat="45.98108" lon="6.57444">
        <ele>2326.7</ele>
        <time>2026-02-02T15:16:15Z</time>
      </trkpt>
      <trkpt lat="45.98108" lon="6.57444">
        <ele>2326.7</ele>
        <time>2026-02-02T15:16:16Z</time>
      </trkpt>
      <trkpt lat="45.98108" lon="6.57444">
        <ele>2326.7</ele>
        <time>2026-02-02T15:16:17Z</time>
      </trkpt>
      <trkpt lat="45.98108" lon="6.57445">
        <ele>2326.8</ele>
        <time>2026-02-02T15:16:18Z</time>
      </trkpt>
      <trkpt lat="45.98108" lon="6.57445">
        <ele>2326.8</ele>
        <time>2026-02-02T15:16:19Z</time>
      </trkpt>
      <trkpt lat="45.98108" lon="6.57445">
        <ele>2326.8</ele>
        <time>2026-02-02T15:16:20Z</time>
      </trkpt>
      <trkpt lat="45.98108" lon="6.57445">
        <ele>2326.8</ele>
        <time>2026-02-02T15:16:21Z</time>
      </trkpt>
      <trkpt lat="45.98108" lon="6.57445">
        <ele>2326.8</ele>
        <time>2026-02-02T15:16:22Z</time>
      </trkpt>
      <trkpt lat="45.98108" lon="6.57446">
        <ele>2326.9</ele>
        <time>2026-02-02T15:16:23Z</time>
      </trkpt>
      <trkpt lat="45.98108" lon="6.57446">
        <ele>2326.9</ele>
        <time>2026-02-02T15:16:24Z</time>
      </trkpt>
      <trkpt lat="45.98108" lon="6.57446">
        <ele>2326.9</ele>
        <time>2026-02-02T15:16:25Z</time>
      </trkpt>
      <trkpt lat="45.98108" lon="6.57446">
        <ele>2326.9</ele>
        <time>2026-02-02T15:16:26Z</time>
      </trkpt>
      <trkpt lat="45.98108" lon="6.57446">
        <ele>2326.9</ele>
        <time>2026-02-02T15:16:27Z</time>
      </trkpt>
      <trkpt lat="45.98108" lon="6.57446">
        <ele>2326.9</ele>
        <time>2026-02-02T15:16:28Z</time>
      </trkpt>
      <trkpt lat="45.98108" lon="6.57446">
        <ele>2326.9</ele>
        <time>2026-02-02T15:16:29Z</time>
      </trkpt>
      <trkpt lat="45.98108" lon="6.57446">
        <ele>2326.9</ele>
        <time>2026-02-02T15:16:30Z</time>
      </trkpt>
      <trkpt lat="45.98107" lon="6.57446">
        <ele>2327</ele>
        <time>2026-02-02T15:16:31Z</time>
      </trkpt>
      <trkpt lat="45.98107" lon="6.57446">
        <ele>2327</ele>
        <time>2026-02-02T15:16:32Z</time>
      </trkpt>
      <trkpt lat="45.98107" lon="6.57446">
        <ele>2327</ele>
        <time>2026-02-02T15:16:33Z</time>
      </trkpt>
      <trkpt lat="45.98107" lon="6.57446">
        <ele>2327.1</ele>
        <time>2026-02-02T15:16:34Z</time>
      </trkpt>
      <trkpt lat="45.98107" lon="6.57445">
        <ele>2327.1</ele>
        <time>2026-02-02T15:16:35Z</time>
      </trkpt>
      <trkpt lat="45.98108" lon="6.57445">
        <ele>2327.1</ele>
        <time>2026-02-02T15:16:36Z</time>
      </trkpt>
      <trkpt lat="45.98108" lon="6.57446">
        <ele>2327.2</ele>
        <time>2026-02-02T15:16:37Z</time>
      </trkpt>
      <trkpt lat="45.98108" lon="6.57446">
        <ele>2327.2</ele>
        <time>2026-02-02T15:16:38Z</time>
      </trkpt>
      <trkpt lat="45.98108" lon="6.57446">
        <ele>2327.3</ele>
        <time>2026-02-02T15:16:39Z</time>
      </trkpt>
      <trkpt lat="45.98108" lon="6.57447">
        <ele>2327.3</ele>
        <time>2026-02-02T15:16:40Z</time>
      </trkpt>
      <trkpt lat="45.98108" lon="6.57448">
        <ele>2327.3</ele>
        <time>2026-02-02T15:16:41Z</time>
      </trkpt>
      <trkpt lat="45.98108" lon="6.57448">
        <ele>2327.3</ele>
        <time>2026-02-02T15:16:42Z</time>
      </trkpt>
      <trkpt lat="45.98108" lon="6.57448">
        <ele>2327.4</ele>
        <time>2026-02-02T15:16:43Z</time>
      </trkpt>
      <trkpt lat="45.98108" lon="6.57448">
        <ele>2327.4</ele>
        <time>2026-02-02T15:16:44Z</time>
      </trkpt>
      <trkpt lat="45.98108" lon="6.57448">
        <ele>2327.4</ele>
        <time>2026-02-02T15:16:45Z</time>
      </trkpt>
      <trkpt lat="45.98108" lon="6.57448">
        <ele>2327.4</ele>
        <time>2026-02-02T15:16:46Z</time>
      </trkpt>
      <trkpt lat="45.98108" lon="6.57448">
        <ele>2327.4</ele>
        <time>2026-02-02T15:16:47Z</time>
      </trkpt>
      <trkpt lat="45.98108" lon="6.57448">
        <ele>2327.4</ele>
        <time>2026-02-02T15:16:48Z</time>
      </trkpt>
      <trkpt lat="45.98108" lon="6.57448">
        <ele>2327.4</ele>
        <time>2026-02-02T15:16:49Z</time>
      </trkpt>
      <trkpt lat="45.98108" lon="6.57449">
        <ele>2327.4</ele>
        <time>2026-02-02T15:16:50Z</time>
      </trkpt>
      <trkpt lat="45.98108" lon="6.57449">
        <ele>2327.4</ele>
        <time>2026-02-02T15:16:51Z</time>
      </trkpt>
      <trkpt lat="45.98108" lon="6.57449">
        <ele>2327.4</ele>
        <time>2026-02-02T15:16:52Z</time>
      </trkpt>
      <trkpt lat="45.98109" lon="6.57449">
        <ele>2327.5</ele>
        <time>2026-02-02T15:16:53Z</time>
      </trkpt>
      <trkpt lat="45.98109" lon="6.57448">
        <ele>2327.5</ele>
        <time>2026-02-02T15:16:54Z</time>
      </trkpt>
      <trkpt lat="45.98109" lon="6.57447">
        <ele>2327.6</ele>
        <time>2026-02-02T15:16:55Z</time>
      </trkpt>
      <trkpt lat="45.98109" lon="6.57447">
        <ele>2327.6</ele>
        <time>2026-02-02T15:16:56Z</time>
      </trkpt>
      <trkpt lat="45.9811" lon="6.57448">
        <ele>2327.7</ele>
        <time>2026-02-02T15:16:57Z</time>
      </trkpt>
      <trkpt lat="45.9811" lon="6.57448">
        <ele>2327.8</ele>
        <time>2026-02-02T15:16:58Z</time>
      </trkpt>
      <trkpt lat="45.9811" lon="6.57449">
        <ele>2327.8</ele>
        <time>2026-02-02T15:16:59Z</time>
      </trkpt>
      <trkpt lat="45.9811" lon="6.57449">
        <ele>2327.8</ele>
        <time>2026-02-02T15:17:00Z</time>
      </trkpt>
      <trkpt lat="45.9811" lon="6.57449">
        <ele>2327.8</ele>
        <time>2026-02-02T15:17:01Z</time>
      </trkpt>
      <trkpt lat="45.98109" lon="6.57448">
        <ele>2327.9</ele>
        <time>2026-02-02T15:17:02Z</time>
      </trkpt>
      <trkpt lat="45.98109" lon="6.57447">
        <ele>2328</ele>
        <time>2026-02-02T15:17:03Z</time>
      </trkpt>
      <trkpt lat="45.9811" lon="6.57447">
        <ele>2328</ele>
        <time>2026-02-02T15:17:04Z</time>
      </trkpt>
      <trkpt lat="45.98111" lon="6.57448">
        <ele>2328.1</ele>
        <time>2026-02-02T15:17:05Z</time>
      </trkpt>
      <trkpt lat="45.9811" lon="6.5745">
        <ele>2328.2</ele>
        <time>2026-02-02T15:17:06Z</time>
      </trkpt>
      <trkpt lat="45.9811" lon="6.5745">
        <ele>2328.2</ele>
        <time>2026-02-02T15:17:07Z</time>
      </trkpt>
      <trkpt lat="45.9811" lon="6.5745">
        <ele>2328.2</ele>
        <time>2026-02-02T15:17:08Z</time>
      </trkpt>
      <trkpt lat="45.98111" lon="6.5745">
        <ele>2328.3</ele>
        <time>2026-02-02T15:17:09Z</time>
      </trkpt>
      <trkpt lat="45.9811" lon="6.5745">
        <ele>2328.4</ele>
        <time>2026-02-02T15:17:10Z</time>
      </trkpt>
      <trkpt lat="45.9811" lon="6.57449">
        <ele>2328.4</ele>
        <time>2026-02-02T15:17:11Z</time>
      </trkpt>
      <trkpt lat="45.9811" lon="6.57449">
        <ele>2328.5</ele>
        <time>2026-02-02T15:17:12Z</time>
      </trkpt>
      <trkpt lat="45.9811" lon="6.57448">
        <ele>2328.5</ele>
        <time>2026-02-02T15:17:13Z</time>
      </trkpt>
      <trkpt lat="45.9811" lon="6.57448">
        <ele>2328.5</ele>
        <time>2026-02-02T15:17:14Z</time>
      </trkpt>
      <trkpt lat="45.9811" lon="6.57448">
        <ele>2328.6</ele>
        <time>2026-02-02T15:17:15Z</time>
      </trkpt>
      <trkpt lat="45.9811" lon="6.57449">
        <ele>2328.6</ele>
        <time>2026-02-02T15:17:16Z</time>
      </trkpt>
      <trkpt lat="45.9811" lon="6.57449">
        <ele>2328.6</ele>
        <time>2026-02-02T15:17:17Z</time>
      </trkpt>
      <trkpt lat="45.98109" lon="6.57448">
        <ele>2328.7</ele>
        <time>2026-02-02T15:17:18Z</time>
      </trkpt>
      <trkpt lat="45.98109" lon="6.57448">
        <ele>2328.7</ele>
        <time>2026-02-02T15:17:19Z</time>
      </trkpt>
      <trkpt lat="45.98109" lon="6.57448">
        <ele>2328.8</ele>
        <time>2026-02-02T15:17:20Z</time>
      </trkpt>
      <trkpt lat="45.98109" lon="6.57447">
        <ele>2328.8</ele>
        <time>2026-02-02T15:17:21Z</time>
      </trkpt>
      <trkpt lat="45.98109" lon="6.57447">
        <ele>2328.8</ele>
        <time>2026-02-02T15:17:22Z</time>
      </trkpt>
      <trkpt lat="45.98109" lon="6.57447">
        <ele>2328.8</ele>
        <time>2026-02-02T15:17:23Z</time>
      </trkpt>
      <trkpt lat="45.98109" lon="6.57447">
        <ele>2328.8</ele>
        <time>2026-02-02T15:17:24Z</time>
      </trkpt>
      <trkpt lat="45.98109" lon="6.57447">
        <ele>2328.8</ele>
        <time>2026-02-02T15:17:25Z</time>
      </trkpt>
      <trkpt lat="45.98109" lon="6.57447">
        <ele>2328.8</ele>
        <time>2026-02-02T15:17:26Z</time>
      </trkpt>
      <trkpt lat="45.98109" lon="6.57447">
        <ele>2328.8</ele>
        <time>2026-02-02T15:17:27Z</time>
      </trkpt>
      <trkpt lat="45.98109" lon="6.57447">
        <ele>2328.8</ele>
        <time>2026-02-02T15:17:28Z</time>
      </trkpt>
      <trkpt lat="45.98109" lon="6.57447">
        <ele>2328.8</ele>
        <time>2026-02-02T15:17:29Z</time>
      </trkpt>
      <trkpt lat="45.98109" lon="6.57447">
        <ele>2328.8</ele>
        <time>2026-02-02T15:17:30Z</time>
      </trkpt>
      <trkpt lat="45.98109" lon="6.57447">
        <ele>2328.8</ele>
        <time>2026-02-02T15:17:31Z</time>
      </trkpt>
      <trkpt lat="45.98108" lon="6.57447">
        <ele>2328.9</ele>
        <time>2026-02-02T15:17:32Z</time>
      </trkpt>
      <trkpt lat="45.98108" lon="6.57447">
        <ele>2328.9</ele>
        <time>2026-02-02T15:17:33Z</time>
      </trkpt>
      <trkpt lat="45.98108" lon="6.57447">
        <ele>2328.9</ele>
        <time>2026-02-02T15:17:34Z</time>
      </trkpt>
      <trkpt lat="45.98108" lon="6.57447">
        <ele>2328.9</ele>
        <time>2026-02-02T15:17:35Z</time>
      </trkpt>
      <trkpt lat="45.98108" lon="6.57447">
        <ele>2328.9</ele>
        <time>2026-02-02T15:17:36Z</time>
      </trkpt>
      <trkpt lat="45.98108" lon="6.57446">
        <ele>2328.9</ele>
        <time>2026-02-02T15:17:37Z</time>
      </trkpt>
      <trkpt lat="45.98109" lon="6.57447">
        <ele>2328.9</ele>
        <time>2026-02-02T15:17:38Z</time>
      </trkpt>
      <trkpt lat="45.98109" lon="6.57447">
        <ele>2329</ele>
        <time>2026-02-02T15:17:39Z</time>
      </trkpt>
      <trkpt lat="45.98109" lon="6.57447">
        <ele>2329</ele>
        <time>2026-02-02T15:17:40Z</time>
      </trkpt>
      <trkpt lat="45.98109" lon="6.57447">
        <ele>2329</ele>
        <time>2026-02-02T15:17:41Z</time>
      </trkpt>
      <trkpt lat="45.98109" lon="6.57447">
        <ele>2329</ele>
        <time>2026-02-02T15:17:42Z</time>
      </trkpt>
      <trkpt lat="45.98109" lon="6.57447">
        <ele>2329</ele>
        <time>2026-02-02T15:17:43Z</time>
      </trkpt>
      <trkpt lat="45.98109" lon="6.57447">
        <ele>2329</ele>
        <time>2026-02-02T15:17:44Z</time>
      </trkpt>
      <trkpt lat="45.98109" lon="6.57447">
        <ele>2329</ele>
        <time>2026-02-02T15:17:45Z</time>
      </trkpt>
      <trkpt lat="45.98109" lon="6.57447">
        <ele>2329</ele>
        <time>2026-02-02T15:17:46Z</time>
      </trkpt>
      <trkpt lat="45.98109" lon="6.57447">
        <ele>2329</ele>
        <time>2026-02-02T15:17:47Z</time>
      </trkpt>
      <trkpt lat="45.98109" lon="6.57447">
        <ele>2329</ele>
        <time>2026-02-02T15:17:48Z</time>
      </trkpt>
      <trkpt lat="45.98109" lon="6.57447">
        <ele>2329</ele>
        <time>2026-02-02T15:17:49Z</time>
      </trkpt>
      <trkpt lat="45.98109" lon="6.57447">
        <ele>2329</ele>
        <time>2026-02-02T15:17:50Z</time>
      </trkpt>
      <trkpt lat="45.98109" lon="6.57447">
        <ele>2329</ele>
        <time>2026-02-02T15:17:51Z</time>
      </trkpt>
      <trkpt lat="45.98109" lon="6.57447">
        <ele>2329</ele>
        <time>2026-02-02T15:17:52Z</time>
      </trkpt>
      <trkpt lat="45.98109" lon="6.57447">
        <ele>2329</ele>
        <time>2026-02-02T15:17:53Z</time>
      </trkpt>
      <trkpt lat="45.98109" lon="6.57447">
        <ele>2329</ele>
        <time>2026-02-02T15:17:54Z</time>
      </trkpt>
      <trkpt lat="45.98109" lon="6.57447">
        <ele>2329</ele>
        <time>2026-02-02T15:17:55Z</time>
      </trkpt>
      <trkpt lat="45.98109" lon="6.57447">
        <ele>2329</ele>
        <time>2026-02-02T15:17:56Z</time>
      </trkpt>
      <trkpt lat="45.98109" lon="6.57447">
        <ele>2329</ele>
        <time>2026-02-02T15:17:57Z</time>
      </trkpt>
      <trkpt lat="45.98109" lon="6.57447">
        <ele>2329</ele>
        <time>2026-02-02T15:17:58Z</time>
      </trkpt>
      <trkpt lat="45.98109" lon="6.57447">
        <ele>2329</ele>
        <time>2026-02-02T15:17:59Z</time>
      </trkpt>
      <trkpt lat="45.98109" lon="6.57448">
        <ele>2329</ele>
        <time>2026-02-02T15:18:00Z</time>
      </trkpt>
      <trkpt lat="45.98109" lon="6.57448">
        <ele>2329</ele>
        <time>2026-02-02T15:18:01Z</time>
      </trkpt>
      <trkpt lat="45.98109" lon="6.57448">
        <ele>2329</ele>
        <time>2026-02-02T15:18:02Z</time>
      </trkpt>
      <trkpt lat="45.98109" lon="6.57448">
        <ele>2329</ele>
        <time>2026-02-02T15:18:03Z</time>
      </trkpt>
      <trkpt lat="45.98109" lon="6.57448">
        <ele>2329</ele>
        <time>2026-02-02T15:18:04Z</time>
      </trkpt>
      <trkpt lat="45.9811" lon="6.57448">
        <ele>2329.1</ele>
        <time>2026-02-02T15:18:05Z</time>
      </trkpt>
      <trkpt lat="45.9811" lon="6.57448">
        <ele>2329.1</ele>
        <time>2026-02-02T15:18:06Z</time>
      </trkpt>
      <trkpt lat="45.9811" lon="6.57448">
        <ele>2329.1</ele>
        <time>2026-02-02T15:18:07Z</time>
      </trkpt>
      <trkpt lat="45.98109" lon="6.57448">
        <ele>2329.2</ele>
        <time>2026-02-02T15:18:08Z</time>
      </trkpt>
      <trkpt lat="45.98109" lon="6.57449">
        <ele>2329.2</ele>
        <time>2026-02-02T15:18:09Z</time>
      </trkpt>
      <trkpt lat="45.9811" lon="6.57448">
        <ele>2329.2</ele>
        <time>2026-02-02T15:18:10Z</time>
      </trkpt>
      <trkpt lat="45.9811" lon="6.57448">
        <ele>2329.3</ele>
        <time>2026-02-02T15:18:11Z</time>
      </trkpt>
      <trkpt lat="45.9811" lon="6.57448">
        <ele>2329.3</ele>
        <time>2026-02-02T15:18:12Z</time>
      </trkpt>
      <trkpt lat="45.9811" lon="6.57448">
        <ele>2329.3</ele>
        <time>2026-02-02T15:18:13Z</time>
      </trkpt>
      <trkpt lat="45.9811" lon="6.57448">
        <ele>2329.3</ele>
        <time>2026-02-02T15:18:14Z</time>
      </trkpt>
      <trkpt lat="45.9811" lon="6.57449">
        <ele>2329.4</ele>
        <time>2026-02-02T15:18:15Z</time>
      </trkpt>
      <trkpt lat="45.98111" lon="6.5745">
        <ele>2329.5</ele>
        <time>2026-02-02T15:18:16Z</time>
      </trkpt>
      <trkpt lat="45.98111" lon="6.5745">
        <ele>2329.5</ele>
        <time>2026-02-02T15:18:17Z</time>
      </trkpt>
      <trkpt lat="45.98111" lon="6.57449">
        <ele>2329.5</ele>
        <time>2026-02-02T15:18:18Z</time>
      </trkpt>
      <trkpt lat="45.9811" lon="6.57449">
        <ele>2329.6</ele>
        <time>2026-02-02T15:18:19Z</time>
      </trkpt>
      <trkpt lat="45.98112" lon="6.57451">
        <ele>2329.8</ele>
        <time>2026-02-02T15:18:20Z</time>
      </trkpt>
      <trkpt lat="45.98112" lon="6.57451">
        <ele>2329.8</ele>
        <time>2026-02-02T15:18:21Z</time>
      </trkpt>
      <trkpt lat="45.98112" lon="6.57451">
        <ele>2329.8</ele>
        <time>2026-02-02T15:18:22Z</time>
      </trkpt>
      <trkpt lat="45.98112" lon="6.57451">
        <ele>2329.8</ele>
        <time>2026-02-02T15:18:23Z</time>
      </trkpt>
      <trkpt lat="45.98112" lon="6.57452">
        <ele>2329.8</ele>
        <time>2026-02-02T15:18:24Z</time>
      </trkpt>
      <trkpt lat="45.98112" lon="6.57453">
        <ele>2329.9</ele>
        <time>2026-02-02T15:18:25Z</time>
      </trkpt>
      <trkpt lat="45.98113" lon="6.57452">
        <ele>2330</ele>
        <time>2026-02-02T15:18:26Z</time>
      </trkpt>
      <trkpt lat="45.98113" lon="6.57452">
        <ele>2330</ele>
        <time>2026-02-02T15:18:27Z</time>
      </trkpt>
      <trkpt lat="45.98113" lon="6.57452">
        <ele>2330</ele>
        <time>2026-02-02T15:18:28Z</time>
      </trkpt>
      <trkpt lat="45.98113" lon="6.57453">
        <ele>2330</ele>
        <time>2026-02-02T15:18:29Z</time>
      </trkpt>
      <trkpt lat="45.98113" lon="6.57453">
        <ele>2330.1</ele>
        <time>2026-02-02T15:18:30Z</time>
      </trkpt>
      <trkpt lat="45.98113" lon="6.57453">
        <ele>2330.1</ele>
        <time>2026-02-02T15:18:31Z</time>
      </trkpt>
      <trkpt lat="45.98113" lon="6.57454">
        <ele>2330.1</ele>
        <time>2026-02-02T15:18:32Z</time>
      </trkpt>
      <trkpt lat="45.98113" lon="6.57453">
        <ele>2330.2</ele>
        <time>2026-02-02T15:18:33Z</time>
      </trkpt>
      <trkpt lat="45.98113" lon="6.57452">
        <ele>2330.2</ele>
        <time>2026-02-02T15:18:34Z</time>
      </trkpt>
      <trkpt lat="45.98113" lon="6.57451">
        <ele>2330.3</ele>
        <time>2026-02-02T15:18:35Z</time>
      </trkpt>
      <trkpt lat="45.98112" lon="6.5745">
        <ele>2330.3</ele>
        <time>2026-02-02T15:18:36Z</time>
      </trkpt>
      <trkpt lat="45.98112" lon="6.5745">
        <ele>2330.4</ele>
        <time>2026-02-02T15:18:37Z</time>
      </trkpt>
      <trkpt lat="45.98112" lon="6.5745">
        <ele>2330.4</ele>
        <time>2026-02-02T15:18:38Z</time>
      </trkpt>
      <trkpt lat="45.98112" lon="6.5745">
        <ele>2330.4</ele>
        <time>2026-02-02T15:18:39Z</time>
      </trkpt>
      <trkpt lat="45.9811" lon="6.5745">
        <ele>2330.5</ele>
        <time>2026-02-02T15:18:40Z</time>
      </trkpt>
      <trkpt lat="45.98111" lon="6.57451">
        <ele>2330.5</ele>
        <time>2026-02-02T15:18:41Z</time>
      </trkpt>
      <trkpt lat="45.98111" lon="6.57451">
        <ele>2330.6</ele>
        <time>2026-02-02T15:18:42Z</time>
      </trkpt>
      <trkpt lat="45.98111" lon="6.57451">
        <ele>2330.6</ele>
        <time>2026-02-02T15:18:43Z</time>
      </trkpt>
      <trkpt lat="45.98111" lon="6.57451">
        <ele>2330.6</ele>
        <time>2026-02-02T15:18:44Z</time>
      </trkpt>
      <trkpt lat="45.98111" lon="6.5745">
        <ele>2330.6</ele>
        <time>2026-02-02T15:18:45Z</time>
      </trkpt>
      <trkpt lat="45.98111" lon="6.5745">
        <ele>2330.6</ele>
        <time>2026-02-02T15:18:46Z</time>
      </trkpt>
      <trkpt lat="45.9811" lon="6.5745">
        <ele>2330.7</ele>
        <time>2026-02-02T15:18:47Z</time>
      </trkpt>
      <trkpt lat="45.9811" lon="6.5745">
        <ele>2330.8</ele>
        <time>2026-02-02T15:18:48Z</time>
      </trkpt>
      <trkpt lat="45.9811" lon="6.5745">
        <ele>2330.8</ele>
        <time>2026-02-02T15:18:49Z</time>
      </trkpt>
      <trkpt lat="45.9811" lon="6.5745">
        <ele>2330.8</ele>
        <time>2026-02-02T15:18:50Z</time>
      </trkpt>
      <trkpt lat="45.9811" lon="6.57449">
        <ele>2330.8</ele>
        <time>2026-02-02T15:18:51Z</time>
      </trkpt>
      <trkpt lat="45.9811" lon="6.57449">
        <ele>2330.8</ele>
        <time>2026-02-02T15:18:52Z</time>
      </trkpt>
      <trkpt lat="45.9811" lon="6.57449">
        <ele>2330.8</ele>
        <time>2026-02-02T15:18:53Z</time>
      </trkpt>
      <trkpt lat="45.9811" lon="6.57449">
        <ele>2330.8</ele>
        <time>2026-02-02T15:18:54Z</time>
      </trkpt>
      <trkpt lat="45.9811" lon="6.57449">
        <ele>2330.8</ele>
        <time>2026-02-02T15:18:55Z</time>
      </trkpt>
      <trkpt lat="45.9811" lon="6.57449">
        <ele>2330.8</ele>
        <time>2026-02-02T15:18:56Z</time>
      </trkpt>
      <trkpt lat="45.9811" lon="6.57449">
        <ele>2330.8</ele>
        <time>2026-02-02T15:18:57Z</time>
      </trkpt>
      <trkpt lat="45.9811" lon="6.57449">
        <ele>2330.8</ele>
        <time>2026-02-02T15:18:58Z</time>
      </trkpt>
      <trkpt lat="45.9811" lon="6.57449">
        <ele>2330.8</ele>
        <time>2026-02-02T15:18:59Z</time>
      </trkpt>
      <trkpt lat="45.9811" lon="6.57449">
        <ele>2330.8</ele>
        <time>2026-02-02T15:19:00Z</time>
      </trkpt>
      <trkpt lat="45.9811" lon="6.57449">
        <ele>2330.8</ele>
        <time>2026-02-02T15:19:01Z</time>
      </trkpt>
      <trkpt lat="45.9811" lon="6.57449">
        <ele>2330.8</ele>
        <time>2026-02-02T15:19:02Z</time>
      </trkpt>
      <trkpt lat="45.9811" lon="6.57449">
        <ele>2330.8</ele>
        <time>2026-02-02T15:19:03Z</time>
      </trkpt>
      <trkpt lat="45.98111" lon="6.57449">
        <ele>2330.9</ele>
        <time>2026-02-02T15:19:04Z</time>
      </trkpt>
      <trkpt lat="45.98111" lon="6.57449">
        <ele>2330.9</ele>
        <time>2026-02-02T15:19:05Z</time>
      </trkpt>
      <trkpt lat="45.98111" lon="6.57449">
        <ele>2330.9</ele>
        <time>2026-02-02T15:19:06Z</time>
      </trkpt>
      <trkpt lat="45.98111" lon="6.57448">
        <ele>2330.9</ele>
        <time>2026-02-02T15:19:07Z</time>
      </trkpt>
      <trkpt lat="45.98111" lon="6.57447">
        <ele>2331</ele>
        <time>2026-02-02T15:19:08Z</time>
      </trkpt>
      <trkpt lat="45.98112" lon="6.57447">
        <ele>2331.1</ele>
        <time>2026-02-02T15:19:09Z</time>
      </trkpt>
      <trkpt lat="45.98112" lon="6.57446">
        <ele>2331.1</ele>
        <time>2026-02-02T15:19:10Z</time>
      </trkpt>
      <trkpt lat="45.98112" lon="6.57446">
        <ele>2331.1</ele>
        <time>2026-02-02T15:19:11Z</time>
      </trkpt>
      <trkpt lat="45.98112" lon="6.57445">
        <ele>2331.1</ele>
        <time>2026-02-02T15:19:12Z</time>
      </trkpt>
      <trkpt lat="45.98112" lon="6.57446">
        <ele>2331.1</ele>
        <time>2026-02-02T15:19:13Z</time>
      </trkpt>
      <trkpt lat="45.98112" lon="6.57446">
        <ele>2331.1</ele>
        <time>2026-02-02T15:19:14Z</time>
      </trkpt>
      <trkpt lat="45.98112" lon="6.57446">
        <ele>2331.1</ele>
        <time>2026-02-02T15:19:15Z</time>
      </trkpt>
      <trkpt lat="45.98112" lon="6.57446">
        <ele>2331.1</ele>
        <time>2026-02-02T15:19:16Z</time>
      </trkpt>
      <trkpt lat="45.98112" lon="6.57446">
        <ele>2331.1</ele>
        <time>2026-02-02T15:19:17Z</time>
      </trkpt>
      <trkpt lat="45.98112" lon="6.57446">
        <ele>2331.1</ele>
        <time>2026-02-02T15:19:18Z</time>
      </trkpt>
      <trkpt lat="45.98112" lon="6.57446">
        <ele>2331.2</ele>
        <time>2026-02-02T15:19:19Z</time>
      </trkpt>
      <trkpt lat="45.98111" lon="6.57446">
        <ele>2331.2</ele>
        <time>2026-02-02T15:19:20Z</time>
      </trkpt>
      <trkpt lat="45.98111" lon="6.57446">
        <ele>2331.2</ele>
        <time>2026-02-02T15:19:21Z</time>
      </trkpt>
      <trkpt lat="45.98112" lon="6.57446">
        <ele>2331.2</ele>
        <time>2026-02-02T15:19:22Z</time>
      </trkpt>
      <trkpt lat="45.98112" lon="6.57446">
        <ele>2331.2</ele>
        <time>2026-02-02T15:19:23Z</time>
      </trkpt>
      <trkpt lat="45.98112" lon="6.57447">
        <ele>2331.3</ele>
        <time>2026-02-02T15:19:24Z</time>
      </trkpt>
      <trkpt lat="45.98112" lon="6.57447">
        <ele>2331.3</ele>
        <time>2026-02-02T15:19:25Z</time>
      </trkpt>
      <trkpt lat="45.98112" lon="6.57447">
        <ele>2331.3</ele>
        <time>2026-02-02T15:19:26Z</time>
      </trkpt>
      <trkpt lat="45.98112" lon="6.57447">
        <ele>2331.3</ele>
        <time>2026-02-02T15:19:27Z</time>
      </trkpt>
      <trkpt lat="45.98112" lon="6.57447">
        <ele>2331.3</ele>
        <time>2026-02-02T15:19:28Z</time>
      </trkpt>
      <trkpt lat="45.98112" lon="6.57447">
        <ele>2331.3</ele>
        <time>2026-02-02T15:19:29Z</time>
      </trkpt>
      <trkpt lat="45.98112" lon="6.57447">
        <ele>2331.3</ele>
        <time>2026-02-02T15:19:30Z</time>
      </trkpt>
      <trkpt lat="45.98112" lon="6.57447">
        <ele>2331.3</ele>
        <time>2026-02-02T15:19:31Z</time>
      </trkpt>
      <trkpt lat="45.98112" lon="6.57447">
        <ele>2331.3</ele>
        <time>2026-02-02T15:19:32Z</time>
      </trkpt>
      <trkpt lat="45.98112" lon="6.57447">
        <ele>2331.3</ele>
        <time>2026-02-02T15:19:33Z</time>
      </trkpt>
      <trkpt lat="45.98112" lon="6.57447">
        <ele>2331.3</ele>
        <time>2026-02-02T15:19:34Z</time>
      </trkpt>
      <trkpt lat="45.98112" lon="6.57447">
        <ele>2331.3</ele>
        <time>2026-02-02T15:19:35Z</time>
      </trkpt>
      <trkpt lat="45.98112" lon="6.57447">
        <ele>2331.4</ele>
        <time>2026-02-02T15:19:36Z</time>
      </trkpt>
      <trkpt lat="45.98112" lon="6.57447">
        <ele>2331.4</ele>
        <time>2026-02-02T15:19:37Z</time>
      </trkpt>
      <trkpt lat="45.98112" lon="6.57447">
        <ele>2331.4</ele>
        <time>2026-02-02T15:19:38Z</time>
      </trkpt>
      <trkpt lat="45.98112" lon="6.57447">
        <ele>2331.4</ele>
        <time>2026-02-02T15:19:39Z</time>
      </trkpt>
      <trkpt lat="45.98112" lon="6.57447">
        <ele>2331.4</ele>
        <time>2026-02-02T15:19:40Z</time>
      </trkpt>
      <trkpt lat="45.98112" lon="6.57447">
        <ele>2331.4</ele>
        <time>2026-02-02T15:19:41Z</time>
      </trkpt>
      <trkpt lat="45.98112" lon="6.57447">
        <ele>2331.4</ele>
        <time>2026-02-02T15:19:42Z</time>
      </trkpt>
      <trkpt lat="45.98112" lon="6.57448">
        <ele>2331.4</ele>
        <time>2026-02-02T15:19:43Z</time>
      </trkpt>
      <trkpt lat="45.98112" lon="6.57448">
        <ele>2331.4</ele>
        <time>2026-02-02T15:19:44Z</time>
      </trkpt>
      <trkpt lat="45.98112" lon="6.57448">
        <ele>2331.5</ele>
        <time>2026-02-02T15:19:45Z</time>
      </trkpt>
      <trkpt lat="45.98112" lon="6.57448">
        <ele>2331.5</ele>
        <time>2026-02-02T15:19:46Z</time>
      </trkpt>
      <trkpt lat="45.98113" lon="6.57448">
        <ele>2331.5</ele>
        <time>2026-02-02T15:19:47Z</time>
      </trkpt>
      <trkpt lat="45.98113" lon="6.57449">
        <ele>2331.6</ele>
        <time>2026-02-02T15:19:48Z</time>
      </trkpt>
      <trkpt lat="45.98113" lon="6.57449">
        <ele>2331.6</ele>
        <time>2026-02-02T15:19:49Z</time>
      </trkpt>
      <trkpt lat="45.98113" lon="6.57449">
        <ele>2331.6</ele>
        <time>2026-02-02T15:19:50Z</time>
      </trkpt>
      <trkpt lat="45.98113" lon="6.57449">
        <ele>2331.6</ele>
        <time>2026-02-02T15:19:51Z</time>
      </trkpt>
      <trkpt lat="45.98112" lon="6.57449">
        <ele>2331.6</ele>
        <time>2026-02-02T15:19:52Z</time>
      </trkpt>
      <trkpt lat="45.98112" lon="6.57449">
        <ele>2331.6</ele>
        <time>2026-02-02T15:19:53Z</time>
      </trkpt>
      <trkpt lat="45.98112" lon="6.5745">
        <ele>2331.6</ele>
        <time>2026-02-02T15:19:54Z</time>
      </trkpt>
      <trkpt lat="45.98112" lon="6.57449">
        <ele>2331.6</ele>
        <time>2026-02-02T15:19:55Z</time>
      </trkpt>
      <trkpt lat="45.98113" lon="6.57449">
        <ele>2331.6</ele>
        <time>2026-02-02T15:19:56Z</time>
      </trkpt>
      <trkpt lat="45.98113" lon="6.57449">
        <ele>2331.6</ele>
        <time>2026-02-02T15:19:57Z</time>
      </trkpt>
      <trkpt lat="45.98113" lon="6.57449">
        <ele>2331.6</ele>
        <time>2026-02-02T15:19:58Z</time>
      </trkpt>
      <trkpt lat="45.98113" lon="6.57449">
        <ele>2331.7</ele>
        <time>2026-02-02T15:19:59Z</time>
      </trkpt>
      <trkpt lat="45.98113" lon="6.5745">
        <ele>2331.7</ele>
        <time>2026-02-02T15:20:00Z</time>
      </trkpt>
      <trkpt lat="45.98113" lon="6.5745">
        <ele>2331.7</ele>
        <time>2026-02-02T15:20:01Z</time>
      </trkpt>
      <trkpt lat="45.98113" lon="6.5745">
        <ele>2331.7</ele>
        <time>2026-02-02T15:20:02Z</time>
      </trkpt>
      <trkpt lat="45.98113" lon="6.5745">
        <ele>2331.7</ele>
        <time>2026-02-02T15:20:03Z</time>
      </trkpt>
      <trkpt lat="45.98113" lon="6.5745">
        <ele>2331.7</ele>
        <time>2026-02-02T15:20:04Z</time>
      </trkpt>
      <trkpt lat="45.98113" lon="6.57449">
        <ele>2331.7</ele>
        <time>2026-02-02T15:20:05Z</time>
      </trkpt>
      <trkpt lat="45.98113" lon="6.57449">
        <ele>2331.7</ele>
        <time>2026-02-02T15:20:06Z</time>
      </trkpt>
      <trkpt lat="45.98113" lon="6.57449">
        <ele>2331.7</ele>
        <time>2026-02-02T15:20:07Z</time>
      </trkpt>
      <trkpt lat="45.98113" lon="6.57448">
        <ele>2331.8</ele>
        <time>2026-02-02T15:20:08Z</time>
      </trkpt>
      <trkpt lat="45.98113" lon="6.57449">
        <ele>2331.8</ele>
        <time>2026-02-02T15:20:09Z</time>
      </trkpt>
      <trkpt lat="45.98113" lon="6.57449">
        <ele>2331.8</ele>
        <time>2026-02-02T15:20:10Z</time>
      </trkpt>
      <trkpt lat="45.98113" lon="6.57449">
        <ele>2331.8</ele>
        <time>2026-02-02T15:20:11Z</time>
      </trkpt>
      <trkpt lat="45.98113" lon="6.57449">
        <ele>2331.8</ele>
        <time>2026-02-02T15:20:12Z</time>
      </trkpt>
      <trkpt lat="45.98113" lon="6.57449">
        <ele>2331.8</ele>
        <time>2026-02-02T15:20:13Z</time>
      </trkpt>
      <trkpt lat="45.98113" lon="6.57449">
        <ele>2331.8</ele>
        <time>2026-02-02T15:20:14Z</time>
      </trkpt>
      <trkpt lat="45.98112" lon="6.57449">
        <ele>2331.9</ele>
        <time>2026-02-02T15:20:15Z</time>
      </trkpt>
      <trkpt lat="45.98112" lon="6.57449">
        <ele>2331.9</ele>
        <time>2026-02-02T15:20:16Z</time>
      </trkpt>
      <trkpt lat="45.98112" lon="6.57448">
        <ele>2331.9</ele>
        <time>2026-02-02T15:20:17Z</time>
      </trkpt>
      <trkpt lat="45.98112" lon="6.57448">
        <ele>2332</ele>
        <time>2026-02-02T15:20:18Z</time>
      </trkpt>
      <trkpt lat="45.98113" lon="6.57447">
        <ele>2332</ele>
        <time>2026-02-02T15:20:19Z</time>
      </trkpt>
      <trkpt lat="45.98113" lon="6.57447">
        <ele>2332</ele>
        <time>2026-02-02T15:20:20Z</time>
      </trkpt>
      <trkpt lat="45.98113" lon="6.57447">
        <ele>2332</ele>
        <time>2026-02-02T15:20:21Z</time>
      </trkpt>
      <trkpt lat="45.98113" lon="6.57447">
        <ele>2332</ele>
        <time>2026-02-02T15:20:22Z</time>
      </trkpt>
      <trkpt lat="45.98113" lon="6.57447">
        <ele>2332</ele>
        <time>2026-02-02T15:20:23Z</time>
      </trkpt>
      <trkpt lat="45.98113" lon="6.57447">
        <ele>2332</ele>
        <time>2026-02-02T15:20:24Z</time>
      </trkpt>
      <trkpt lat="45.98113" lon="6.57447">
        <ele>2332</ele>
        <time>2026-02-02T15:20:25Z</time>
      </trkpt>
      <trkpt lat="45.98113" lon="6.57447">
        <ele>2332</ele>
        <time>2026-02-02T15:20:26Z</time>
      </trkpt>
      <trkpt lat="45.98113" lon="6.57447">
        <ele>2332</ele>
        <time>2026-02-02T15:20:27Z</time>
      </trkpt>
      <trkpt lat="45.98113" lon="6.57447">
        <ele>2332</ele>
        <time>2026-02-02T15:20:28Z</time>
      </trkpt>
      <trkpt lat="45.98113" lon="6.57447">
        <ele>2332</ele>
        <time>2026-02-02T15:20:29Z</time>
      </trkpt>
      <trkpt lat="45.98113" lon="6.57447">
        <ele>2332</ele>
        <time>2026-02-02T15:20:30Z</time>
      </trkpt>
      <trkpt lat="45.98113" lon="6.57447">
        <ele>2332</ele>
        <time>2026-02-02T15:20:31Z</time>
      </trkpt>
      <trkpt lat="45.98113" lon="6.57447">
        <ele>2332</ele>
        <time>2026-02-02T15:20:32Z</time>
      </trkpt>
      <trkpt lat="45.98113" lon="6.57447">
        <ele>2332</ele>
        <time>2026-02-02T15:20:33Z</time>
      </trkpt>
      <trkpt lat="45.98113" lon="6.57447">
        <ele>2332</ele>
        <time>2026-02-02T15:20:34Z</time>
      </trkpt>
      <trkpt lat="45.98113" lon="6.57447">
        <ele>2332</ele>
        <time>2026-02-02T15:20:35Z</time>
      </trkpt>
      <trkpt lat="45.98113" lon="6.57447">
        <ele>2332</ele>
        <time>2026-02-02T15:20:36Z</time>
      </trkpt>
      <trkpt lat="45.98112" lon="6.57446">
        <ele>2332.1</ele>
        <time>2026-02-02T15:20:37Z</time>
      </trkpt>
      <trkpt lat="45.98112" lon="6.57446">
        <ele>2332.1</ele>
        <time>2026-02-02T15:20:38Z</time>
      </trkpt>
      <trkpt lat="45.98113" lon="6.57447">
        <ele>2332.1</ele>
        <time>2026-02-02T15:20:39Z</time>
      </trkpt>
      <trkpt lat="45.98113" lon="6.57447">
        <ele>2332.1</ele>
        <time>2026-02-02T15:20:40Z</time>
      </trkpt>
      <trkpt lat="45.98112" lon="6.57446">
        <ele>2332.2</ele>
        <time>2026-02-02T15:20:41Z</time>
      </trkpt>
      <trkpt lat="45.98112" lon="6.57446">
        <ele>2332.2</ele>
        <time>2026-02-02T15:20:42Z</time>
      </trkpt>
      <trkpt lat="45.98112" lon="6.57446">
        <ele>2332.2</ele>
        <time>2026-02-02T15:20:43Z</time>
      </trkpt>
      <trkpt lat="45.98112" lon="6.57446">
        <ele>2332.2</ele>
        <time>2026-02-02T15:20:44Z</time>
      </trkpt>
      <trkpt lat="45.98112" lon="6.57446">
        <ele>2332.2</ele>
        <time>2026-02-02T15:20:45Z</time>
      </trkpt>
      <trkpt lat="45.98112" lon="6.57446">
        <ele>2332.2</ele>
        <time>2026-02-02T15:20:46Z</time>
      </trkpt>
      <trkpt lat="45.98112" lon="6.57446">
        <ele>2332.2</ele>
        <time>2026-02-02T15:20:47Z</time>
      </trkpt>
      <trkpt lat="45.98112" lon="6.57446">
        <ele>2332.2</ele>
        <time>2026-02-02T15:20:48Z</time>
      </trkpt>
      <trkpt lat="45.98112" lon="6.57446">
        <ele>2332.2</ele>
        <time>2026-02-02T15:20:49Z</time>
      </trkpt>
      <trkpt lat="45.98112" lon="6.57446">
        <ele>2332.2</ele>
        <time>2026-02-02T15:20:50Z</time>
      </trkpt>
      <trkpt lat="45.98112" lon="6.57446">
        <ele>2332.2</ele>
        <time>2026-02-02T15:20:51Z</time>
      </trkpt>
      <trkpt lat="45.98112" lon="6.57446">
        <ele>2332.2</ele>
        <time>2026-02-02T15:20:52Z</time>
      </trkpt>
      <trkpt lat="45.98112" lon="6.57446">
        <ele>2332.2</ele>
        <time>2026-02-02T15:20:53Z</time>
      </trkpt>
      <trkpt lat="45.98112" lon="6.57446">
        <ele>2332.2</ele>
        <time>2026-02-02T15:20:54Z</time>
      </trkpt>
      <trkpt lat="45.98112" lon="6.57446">
        <ele>2332.2</ele>
        <time>2026-02-02T15:20:55Z</time>
      </trkpt>
      <trkpt lat="45.98112" lon="6.57446">
        <ele>2332.2</ele>
        <time>2026-02-02T15:20:56Z</time>
      </trkpt>
      <trkpt lat="45.98112" lon="6.57446">
        <ele>2332.2</ele>
        <time>2026-02-02T15:20:57Z</time>
      </trkpt>
      <trkpt lat="45.98112" lon="6.57446">
        <ele>2332.2</ele>
        <time>2026-02-02T15:20:58Z</time>
      </trkpt>
      <trkpt lat="45.98112" lon="6.57446">
        <ele>2332.2</ele>
        <time>2026-02-02T15:20:59Z</time>
      </trkpt>
      <trkpt lat="45.98112" lon="6.57446">
        <ele>2332.2</ele>
        <time>2026-02-02T15:21:00Z</time>
      </trkpt>
      <trkpt lat="45.98112" lon="6.57446">
        <ele>2332.2</ele>
        <time>2026-02-02T15:21:01Z</time>
      </trkpt>
      <trkpt lat="45.98112" lon="6.57446">
        <ele>2332.2</ele>
        <time>2026-02-02T15:21:02Z</time>
      </trkpt>
      <trkpt lat="45.98112" lon="6.57446">
        <ele>2332.2</ele>
        <time>2026-02-02T15:21:03Z</time>
      </trkpt>
      <trkpt lat="45.98113" lon="6.57446">
        <ele>2332.2</ele>
        <time>2026-02-02T15:21:04Z</time>
      </trkpt>
      <trkpt lat="45.98112" lon="6.57445">
        <ele>2332.2</ele>
        <time>2026-02-02T15:21:05Z</time>
      </trkpt>
      <trkpt lat="45.98112" lon="6.57445">
        <ele>2332.3</ele>
        <time>2026-02-02T15:21:06Z</time>
      </trkpt>
      <trkpt lat="45.98112" lon="6.57446">
        <ele>2332.3</ele>
        <time>2026-02-02T15:21:07Z</time>
      </trkpt>
      <trkpt lat="45.98112" lon="6.57446">
        <ele>2332.3</ele>
        <time>2026-02-02T15:21:08Z</time>
      </trkpt>
      <trkpt lat="45.98112" lon="6.57446">
        <ele>2332.3</ele>
        <time>2026-02-02T15:21:09Z</time>
      </trkpt>
      <trkpt lat="45.98112" lon="6.57446">
        <ele>2332.3</ele>
        <time>2026-02-02T15:21:10Z</time>
      </trkpt>
      <trkpt lat="45.98111" lon="6.57445">
        <ele>2332.4</ele>
        <time>2026-02-02T15:21:11Z</time>
      </trkpt>
      <trkpt lat="45.98111" lon="6.57445">
        <ele>2332.4</ele>
        <time>2026-02-02T15:21:12Z</time>
      </trkpt>
      <trkpt lat="45.98111" lon="6.57444">
        <ele>2332.4</ele>
        <time>2026-02-02T15:21:13Z</time>
      </trkpt>
      <trkpt lat="45.98111" lon="6.57444">
        <ele>2332.4</ele>
        <time>2026-02-02T15:21:14Z</time>
      </trkpt>
      <trkpt lat="45.98111" lon="6.57444">
        <ele>2332.5</ele>
        <time>2026-02-02T15:21:15Z</time>
      </trkpt>
      <trkpt lat="45.9811" lon="6.57443">
        <ele>2332.5</ele>
        <time>2026-02-02T15:21:16Z</time>
      </trkpt>
      <trkpt lat="45.9811" lon="6.57443">
        <ele>2332.5</ele>
        <time>2026-02-02T15:21:17Z</time>
      </trkpt>
      <trkpt lat="45.9811" lon="6.57443">
        <ele>2332.5</ele>
        <time>2026-02-02T15:21:18Z</time>
      </trkpt>
      <trkpt lat="45.9811" lon="6.57443">
        <ele>2332.5</ele>
        <time>2026-02-02T15:21:19Z</time>
      </trkpt>
      <trkpt lat="45.9811" lon="6.57443">
        <ele>2332.5</ele>
        <time>2026-02-02T15:21:20Z</time>
      </trkpt>
      <trkpt lat="45.9811" lon="6.57443">
        <ele>2332.5</ele>
        <time>2026-02-02T15:21:21Z</time>
      </trkpt>
      <trkpt lat="45.9811" lon="6.57443">
        <ele>2332.5</ele>
        <time>2026-02-02T15:21:22Z</time>
      </trkpt>
      <trkpt lat="45.98111" lon="6.57444">
        <ele>2332.6</ele>
        <time>2026-02-02T15:21:23Z</time>
      </trkpt>
      <trkpt lat="45.98111" lon="6.57445">
        <ele>2332.6</ele>
        <time>2026-02-02T15:21:24Z</time>
      </trkpt>
      <trkpt lat="45.98111" lon="6.57445">
        <ele>2332.6</ele>
        <time>2026-02-02T15:21:25Z</time>
      </trkpt>
      <trkpt lat="45.98111" lon="6.57444">
        <ele>2332.7</ele>
        <time>2026-02-02T15:21:26Z</time>
      </trkpt>
      <trkpt lat="45.98111" lon="6.57444">
        <ele>2332.7</ele>
        <time>2026-02-02T15:21:27Z</time>
      </trkpt>
      <trkpt lat="45.98111" lon="6.57443">
        <ele>2332.7</ele>
        <time>2026-02-02T15:21:28Z</time>
      </trkpt>
      <trkpt lat="45.98111" lon="6.57443">
        <ele>2332.8</ele>
        <time>2026-02-02T15:21:29Z</time>
      </trkpt>
      <trkpt lat="45.98111" lon="6.57443">
        <ele>2332.8</ele>
        <time>2026-02-02T15:21:30Z</time>
      </trkpt>
      <trkpt lat="45.98111" lon="6.57443">
        <ele>2332.8</ele>
        <time>2026-02-02T15:21:31Z</time>
      </trkpt>
      <trkpt lat="45.98112" lon="6.57443">
        <ele>2332.8</ele>
        <time>2026-02-02T15:21:32Z</time>
      </trkpt>
      <trkpt lat="45.98112" lon="6.57444">
        <ele>2332.9</ele>
        <time>2026-02-02T15:21:33Z</time>
      </trkpt>
      <trkpt lat="45.98113" lon="6.57444">
        <ele>2332.9</ele>
        <time>2026-02-02T15:21:34Z</time>
      </trkpt>
      <trkpt lat="45.98113" lon="6.57443">
        <ele>2332.9</ele>
        <time>2026-02-02T15:21:35Z</time>
      </trkpt>
      <trkpt lat="45.98113" lon="6.57444">
        <ele>2333</ele>
        <time>2026-02-02T15:21:36Z</time>
      </trkpt>
      <trkpt lat="45.98113" lon="6.57443">
        <ele>2333</ele>
        <time>2026-02-02T15:21:37Z</time>
      </trkpt>
      <trkpt lat="45.98113" lon="6.57443">
        <ele>2333</ele>
        <time>2026-02-02T15:21:38Z</time>
      </trkpt>
      <trkpt lat="45.98112" lon="6.57442">
        <ele>2333</ele>
        <time>2026-02-02T15:21:39Z</time>
      </trkpt>
      <trkpt lat="45.98112" lon="6.57443">
        <ele>2333.1</ele>
        <time>2026-02-02T15:21:40Z</time>
      </trkpt>
      <trkpt lat="45.98112" lon="6.57442">
        <ele>2333.1</ele>
        <time>2026-02-02T15:21:41Z</time>
      </trkpt>
      <trkpt lat="45.98112" lon="6.57442">
        <ele>2333.1</ele>
        <time>2026-02-02T15:21:42Z</time>
      </trkpt>
      <trkpt lat="45.98112" lon="6.57442">
        <ele>2333.1</ele>
        <time>2026-02-02T15:21:43Z</time>
      </trkpt>
      <trkpt lat="45.98112" lon="6.57443">
        <ele>2333.1</ele>
        <time>2026-02-02T15:21:44Z</time>
      </trkpt>
      <trkpt lat="45.98112" lon="6.57443">
        <ele>2333.1</ele>
        <time>2026-02-02T15:21:45Z</time>
      </trkpt>
      <trkpt lat="45.98112" lon="6.57443">
        <ele>2333.1</ele>
        <time>2026-02-02T15:21:46Z</time>
      </trkpt>
      <trkpt lat="45.98112" lon="6.57443">
        <ele>2333.1</ele>
        <time>2026-02-02T15:21:47Z</time>
      </trkpt>
      <trkpt lat="45.98112" lon="6.57443">
        <ele>2333.1</ele>
        <time>2026-02-02T15:21:48Z</time>
      </trkpt>
      <trkpt lat="45.98112" lon="6.57443">
        <ele>2333.1</ele>
        <time>2026-02-02T15:21:49Z</time>
      </trkpt>
      <trkpt lat="45.98112" lon="6.57443">
        <ele>2333.1</ele>
        <time>2026-02-02T15:21:50Z</time>
      </trkpt>
      <trkpt lat="45.98112" lon="6.57443">
        <ele>2333.2</ele>
        <time>2026-02-02T15:21:51Z</time>
      </trkpt>
      <trkpt lat="45.98112" lon="6.57444">
        <ele>2333.2</ele>
        <time>2026-02-02T15:21:52Z</time>
      </trkpt>
      <trkpt lat="45.98111" lon="6.57445">
        <ele>2333.2</ele>
        <time>2026-02-02T15:21:53Z</time>
      </trkpt>
      <trkpt lat="45.98111" lon="6.57443">
        <ele>2333.3</ele>
        <time>2026-02-02T15:21:54Z</time>
      </trkpt>
      <trkpt lat="45.98111" lon="6.57443">
        <ele>2333.3</ele>
        <time>2026-02-02T15:21:55Z</time>
      </trkpt>
      <trkpt lat="45.98112" lon="6.57443">
        <ele>2333.3</ele>
        <time>2026-02-02T15:21:56Z</time>
      </trkpt>
      <trkpt lat="45.98112" lon="6.57443">
        <ele>2333.4</ele>
        <time>2026-02-02T15:21:57Z</time>
      </trkpt>
      <trkpt lat="45.98112" lon="6.57443">
        <ele>2333.4</ele>
        <time>2026-02-02T15:21:58Z</time>
      </trkpt>
      <trkpt lat="45.98112" lon="6.57443">
        <ele>2333.4</ele>
        <time>2026-02-02T15:21:59Z</time>
      </trkpt>
      <trkpt lat="45.98113" lon="6.57442">
        <ele>2333.4</ele>
        <time>2026-02-02T15:22:00Z</time>
      </trkpt>
      <trkpt lat="45.98112" lon="6.57441">
        <ele>2333.4</ele>
        <time>2026-02-02T15:22:01Z</time>
      </trkpt>
      <trkpt lat="45.98113" lon="6.57442">
        <ele>2333.4</ele>
        <time>2026-02-02T15:22:02Z</time>
      </trkpt>
      <trkpt lat="45.98112" lon="6.57442">
        <ele>2333.5</ele>
        <time>2026-02-02T15:22:03Z</time>
      </trkpt>
      <trkpt lat="45.98113" lon="6.57442">
        <ele>2333.5</ele>
        <time>2026-02-02T15:22:04Z</time>
      </trkpt>
      <trkpt lat="45.98113" lon="6.57442">
        <ele>2333.5</ele>
        <time>2026-02-02T15:22:05Z</time>
      </trkpt>
      <trkpt lat="45.98112" lon="6.57443">
        <ele>2333.5</ele>
        <time>2026-02-02T15:22:06Z</time>
      </trkpt>
      <trkpt lat="45.98112" lon="6.57442">
        <ele>2333.5</ele>
        <time>2026-02-02T15:22:07Z</time>
      </trkpt>
      <trkpt lat="45.98112" lon="6.57442">
        <ele>2333.5</ele>
        <time>2026-02-02T15:22:08Z</time>
      </trkpt>
      <trkpt lat="45.98112" lon="6.57442">
        <ele>2333.5</ele>
        <time>2026-02-02T15:22:09Z</time>
      </trkpt>
      <trkpt lat="45.98112" lon="6.57442">
        <ele>2333.5</ele>
        <time>2026-02-02T15:22:10Z</time>
      </trkpt>
      <trkpt lat="45.98112" lon="6.57442">
        <ele>2333.5</ele>
        <time>2026-02-02T15:22:11Z</time>
      </trkpt>
      <trkpt lat="45.98113" lon="6.57442">
        <ele>2333.5</ele>
        <time>2026-02-02T15:22:12Z</time>
      </trkpt>
      <trkpt lat="45.98112" lon="6.57441">
        <ele>2333.6</ele>
        <time>2026-02-02T15:22:13Z</time>
      </trkpt>
      <trkpt lat="45.98112" lon="6.5744">
        <ele>2333.6</ele>
        <time>2026-02-02T15:22:14Z</time>
      </trkpt>
      <trkpt lat="45.98112" lon="6.5744">
        <ele>2333.6</ele>
        <time>2026-02-02T15:22:15Z</time>
      </trkpt>
      <trkpt lat="45.98112" lon="6.5744">
        <ele>2333.6</ele>
        <time>2026-02-02T15:22:16Z</time>
      </trkpt>
      <trkpt lat="45.98112" lon="6.5744">
        <ele>2333.6</ele>
        <time>2026-02-02T15:22:17Z</time>
      </trkpt>
      <trkpt lat="45.98112" lon="6.5744">
        <ele>2333.6</ele>
        <time>2026-02-02T15:22:18Z</time>
      </trkpt>
      <trkpt lat="45.98112" lon="6.5744">
        <ele>2333.6</ele>
        <time>2026-02-02T15:22:19Z</time>
      </trkpt>
      <trkpt lat="45.98112" lon="6.5744">
        <ele>2333.6</ele>
        <time>2026-02-02T15:22:20Z</time>
      </trkpt>
      <trkpt lat="45.98112" lon="6.5744">
        <ele>2333.6</ele>
        <time>2026-02-02T15:22:21Z</time>
      </trkpt>
      <trkpt lat="45.98112" lon="6.5744">
        <ele>2333.6</ele>
        <time>2026-02-02T15:22:22Z</time>
      </trkpt>
      <trkpt lat="45.98112" lon="6.5744">
        <ele>2333.6</ele>
        <time>2026-02-02T15:22:23Z</time>
      </trkpt>
      <trkpt lat="45.98112" lon="6.5744">
        <ele>2333.6</ele>
        <time>2026-02-02T15:22:24Z</time>
      </trkpt>
      <trkpt lat="45.98112" lon="6.5744">
        <ele>2333.6</ele>
        <time>2026-02-02T15:22:25Z</time>
      </trkpt>
      <trkpt lat="45.98112" lon="6.5744">
        <ele>2333.6</ele>
        <time>2026-02-02T15:22:26Z</time>
      </trkpt>
      <trkpt lat="45.98112" lon="6.5744">
        <ele>2333.6</ele>
        <time>2026-02-02T15:22:27Z</time>
      </trkpt>
      <trkpt lat="45.98112" lon="6.5744">
        <ele>2333.6</ele>
        <time>2026-02-02T15:22:28Z</time>
      </trkpt>
      <trkpt lat="45.98112" lon="6.5744">
        <ele>2333.6</ele>
        <time>2026-02-02T15:22:29Z</time>
      </trkpt>
      <trkpt lat="45.98112" lon="6.5744">
        <ele>2333.6</ele>
        <time>2026-02-02T15:22:30Z</time>
      </trkpt>
      <trkpt lat="45.98112" lon="6.5744">
        <ele>2333.6</ele>
        <time>2026-02-02T15:22:31Z</time>
      </trkpt>
      <trkpt lat="45.98112" lon="6.5744">
        <ele>2333.6</ele>
        <time>2026-02-02T15:22:32Z</time>
      </trkpt>
      <trkpt lat="45.98112" lon="6.5744">
        <ele>2333.6</ele>
        <time>2026-02-02T15:22:33Z</time>
      </trkpt>
      <trkpt lat="45.98112" lon="6.5744">
        <ele>2333.6</ele>
        <time>2026-02-02T15:22:34Z</time>
      </trkpt>
      <trkpt lat="45.98112" lon="6.5744">
        <ele>2333.6</ele>
        <time>2026-02-02T15:22:35Z</time>
      </trkpt>
      <trkpt lat="45.98112" lon="6.5744">
        <ele>2333.6</ele>
        <time>2026-02-02T15:22:36Z</time>
      </trkpt>
      <trkpt lat="45.98112" lon="6.5744">
        <ele>2333.7</ele>
        <time>2026-02-02T15:22:37Z</time>
      </trkpt>
      <trkpt lat="45.98112" lon="6.5744">
        <ele>2333.7</ele>
        <time>2026-02-02T15:22:38Z</time>
      </trkpt>
      <trkpt lat="45.98112" lon="6.5744">
        <ele>2333.7</ele>
        <time>2026-02-02T15:22:39Z</time>
      </trkpt>
      <trkpt lat="45.98112" lon="6.5744">
        <ele>2333.7</ele>
        <time>2026-02-02T15:22:40Z</time>
      </trkpt>
      <trkpt lat="45.98112" lon="6.5744">
        <ele>2333.7</ele>
        <time>2026-02-02T15:22:41Z</time>
      </trkpt>
      <trkpt lat="45.98112" lon="6.5744">
        <ele>2333.7</ele>
        <time>2026-02-02T15:22:42Z</time>
      </trkpt>
      <trkpt lat="45.98112" lon="6.5744">
        <ele>2333.7</ele>
        <time>2026-02-02T15:22:43Z</time>
      </trkpt>
      <trkpt lat="45.98112" lon="6.5744">
        <ele>2333.7</ele>
        <time>2026-02-02T15:22:44Z</time>
      </trkpt>
      <trkpt lat="45.98112" lon="6.5744">
        <ele>2333.7</ele>
        <time>2026-02-02T15:22:45Z</time>
      </trkpt>
      <trkpt lat="45.98112" lon="6.5744">
        <ele>2333.7</ele>
        <time>2026-02-02T15:22:46Z</time>
      </trkpt>
      <trkpt lat="45.98112" lon="6.5744">
        <ele>2333.7</ele>
        <time>2026-02-02T15:22:47Z</time>
      </trkpt>
      <trkpt lat="45.98112" lon="6.5744">
        <ele>2333.7</ele>
        <time>2026-02-02T15:22:48Z</time>
      </trkpt>
      <trkpt lat="45.98112" lon="6.5744">
        <ele>2333.7</ele>
        <time>2026-02-02T15:22:49Z</time>
      </trkpt>
      <trkpt lat="45.98112" lon="6.5744">
        <ele>2333.7</ele>
        <time>2026-02-02T15:22:50Z</time>
      </trkpt>
      <trkpt lat="45.98112" lon="6.5744">
        <ele>2333.7</ele>
        <time>2026-02-02T15:22:51Z</time>
      </trkpt>
      <trkpt lat="45.98112" lon="6.5744">
        <ele>2333.7</ele>
        <time>2026-02-02T15:22:52Z</time>
      </trkpt>
      <trkpt lat="45.98112" lon="6.5744">
        <ele>2333.7</ele>
        <time>2026-02-02T15:22:53Z</time>
      </trkpt>
      <trkpt lat="45.98112" lon="6.5744">
        <ele>2333.7</ele>
        <time>2026-02-02T15:22:54Z</time>
      </trkpt>
      <trkpt lat="45.98112" lon="6.57441">
        <ele>2333.7</ele>
        <time>2026-02-02T15:22:55Z</time>
      </trkpt>
      <trkpt lat="45.98113" lon="6.57441">
        <ele>2333.7</ele>
        <time>2026-02-02T15:22:56Z</time>
      </trkpt>
      <trkpt lat="45.98113" lon="6.57441">
        <ele>2333.7</ele>
        <time>2026-02-02T15:22:57Z</time>
      </trkpt>
      <trkpt lat="45.98113" lon="6.57441">
        <ele>2333.7</ele>
        <time>2026-02-02T15:22:58Z</time>
      </trkpt>
      <trkpt lat="45.98113" lon="6.57442">
        <ele>2333.7</ele>
        <time>2026-02-02T15:22:59Z</time>
      </trkpt>
      <trkpt lat="45.98112" lon="6.57442">
        <ele>2333.8</ele>
        <time>2026-02-02T15:23:00Z</time>
      </trkpt>
      <trkpt lat="45.98112" lon="6.57442">
        <ele>2333.8</ele>
        <time>2026-02-02T15:23:01Z</time>
      </trkpt>
      <trkpt lat="45.98112" lon="6.57442">
        <ele>2333.8</ele>
        <time>2026-02-02T15:23:02Z</time>
      </trkpt>
      <trkpt lat="45.98112" lon="6.57442">
        <ele>2333.8</ele>
        <time>2026-02-02T15:23:03Z</time>
      </trkpt>
      <trkpt lat="45.98112" lon="6.57442">
        <ele>2333.8</ele>
        <time>2026-02-02T15:23:04Z</time>
      </trkpt>
      <trkpt lat="45.98112" lon="6.57442">
        <ele>2333.8</ele>
        <time>2026-02-02T15:23:05Z</time>
      </trkpt>
      <trkpt lat="45.98112" lon="6.57442">
        <ele>2333.8</ele>
        <time>2026-02-02T15:23:06Z</time>
      </trkpt>
      <trkpt lat="45.98112" lon="6.57442">
        <ele>2333.8</ele>
        <time>2026-02-02T15:23:07Z</time>
      </trkpt>
      <trkpt lat="45.98112" lon="6.57442">
        <ele>2333.8</ele>
        <time>2026-02-02T15:23:08Z</time>
      </trkpt>
      <trkpt lat="45.98112" lon="6.57442">
        <ele>2333.8</ele>
        <time>2026-02-02T15:23:09Z</time>
      </trkpt>
      <trkpt lat="45.98112" lon="6.57442">
        <ele>2333.8</ele>
        <time>2026-02-02T15:23:10Z</time>
      </trkpt>
      <trkpt lat="45.98112" lon="6.57442">
        <ele>2333.8</ele>
        <time>2026-02-02T15:23:11Z</time>
      </trkpt>
      <trkpt lat="45.98112" lon="6.57443">
        <ele>2333.8</ele>
        <time>2026-02-02T15:23:12Z</time>
      </trkpt>
      <trkpt lat="45.98112" lon="6.57443">
        <ele>2333.8</ele>
        <time>2026-02-02T15:23:13Z</time>
      </trkpt>
      <trkpt lat="45.98113" lon="6.57444">
        <ele>2333.9</ele>
        <time>2026-02-02T15:23:14Z</time>
      </trkpt>
      <trkpt lat="45.98113" lon="6.57445">
        <ele>2333.9</ele>
        <time>2026-02-02T15:23:15Z</time>
      </trkpt>
      <trkpt lat="45.98112" lon="6.57445">
        <ele>2333.9</ele>
        <time>2026-02-02T15:23:16Z</time>
      </trkpt>
      <trkpt lat="45.98112" lon="6.57445">
        <ele>2333.9</ele>
        <time>2026-02-02T15:23:17Z</time>
      </trkpt>
      <trkpt lat="45.98112" lon="6.57445">
        <ele>2333.9</ele>
        <time>2026-02-02T15:23:18Z</time>
      </trkpt>
      <trkpt lat="45.98111" lon="6.57445">
        <ele>2333.9</ele>
        <time>2026-02-02T15:23:19Z</time>
      </trkpt>
      <trkpt lat="45.98111" lon="6.57445">
        <ele>2334</ele>
        <time>2026-02-02T15:23:20Z</time>
      </trkpt>
      <trkpt lat="45.9811" lon="6.57443">
        <ele>2334</ele>
        <time>2026-02-02T15:23:21Z</time>
      </trkpt>
      <trkpt lat="45.98107" lon="6.57438">
        <ele>2334.2</ele>
        <time>2026-02-02T15:23:22Z</time>
      </trkpt>
      <trkpt lat="45.98106" lon="6.57437">
        <ele>2334.2</ele>
        <time>2026-02-02T15:23:23Z</time>
      </trkpt>
      <trkpt lat="45.98104" lon="6.57434">
        <ele>2334.3</ele>
        <time>2026-02-02T15:23:24Z</time>
      </trkpt>
      <trkpt lat="45.98101" lon="6.57436">
        <ele>2334.4</ele>
        <time>2026-02-02T15:23:25Z</time>
      </trkpt>
      <trkpt lat="45.98101" lon="6.57438">
        <ele>2334.4</ele>
        <time>2026-02-02T15:23:26Z</time>
      </trkpt>
      <trkpt lat="45.981" lon="6.57442">
        <ele>2334.5</ele>
        <time>2026-02-02T15:23:27Z</time>
      </trkpt>
      <trkpt lat="45.98099" lon="6.57444">
        <ele>2334.5</ele>
        <time>2026-02-02T15:23:28Z</time>
      </trkpt>
      <trkpt lat="45.981" lon="6.57448">
        <ele>2334.6</ele>
        <time>2026-02-02T15:23:29Z</time>
      </trkpt>
      <trkpt lat="45.98102" lon="6.57451">
        <ele>2334.7</ele>
        <time>2026-02-02T15:23:30Z</time>
      </trkpt>
      <trkpt lat="45.98102" lon="6.57451">
        <ele>2334.7</ele>
        <time>2026-02-02T15:23:31Z</time>
      </trkpt>
      <trkpt lat="45.98101" lon="6.57451">
        <ele>2334.7</ele>
        <time>2026-02-02T15:23:32Z</time>
      </trkpt>
      <trkpt lat="45.98101" lon="6.57452">
        <ele>2334.7</ele>
        <time>2026-02-02T15:23:33Z</time>
      </trkpt>
      <trkpt lat="45.98101" lon="6.57453">
        <ele>2334.7</ele>
        <time>2026-02-02T15:23:34Z</time>
      </trkpt>
      <trkpt lat="45.98101" lon="6.57456">
        <ele>2334.7</ele>
        <time>2026-02-02T15:23:35Z</time>
      </trkpt>
      <trkpt lat="45.98101" lon="6.5746">
        <ele>2334.8</ele>
        <time>2026-02-02T15:23:36Z</time>
      </trkpt>
      <trkpt lat="45.98101" lon="6.57461">
        <ele>2334.8</ele>
        <time>2026-02-02T15:23:37Z</time>
      </trkpt>
      <trkpt lat="45.98101" lon="6.57465">
        <ele>2334.8</ele>
        <time>2026-02-02T15:23:38Z</time>
      </trkpt>
      <trkpt lat="45.98102" lon="6.57467">
        <ele>2334.8</ele>
        <time>2026-02-02T15:23:39Z</time>
      </trkpt>
      <trkpt lat="45.98102" lon="6.57468">
        <ele>2334.8</ele>
        <time>2026-02-02T15:23:40Z</time>
      </trkpt>
      <trkpt lat="45.98103" lon="6.57469">
        <ele>2334.8</ele>
        <time>2026-02-02T15:23:41Z</time>
      </trkpt>
      <trkpt lat="45.98103" lon="6.57469">
        <ele>2334.9</ele>
        <time>2026-02-02T15:23:42Z</time>
      </trkpt>
      <trkpt lat="45.98103" lon="6.57471">
        <ele>2334.9</ele>
        <time>2026-02-02T15:23:43Z</time>
      </trkpt>
      <trkpt lat="45.98103" lon="6.57471">
        <ele>2334.9</ele>
        <time>2026-02-02T15:23:44Z</time>
      </trkpt>
      <trkpt lat="45.98103" lon="6.57471">
        <ele>2334.9</ele>
        <time>2026-02-02T15:23:45Z</time>
      </trkpt>
      <trkpt lat="45.98103" lon="6.57471">
        <ele>2334.9</ele>
        <time>2026-02-02T15:23:46Z</time>
      </trkpt>
      <trkpt lat="45.98103" lon="6.57471">
        <ele>2334.9</ele>
        <time>2026-02-02T15:23:47Z</time>
      </trkpt>
      <trkpt lat="45.98103" lon="6.57471">
        <ele>2334.9</ele>
        <time>2026-02-02T15:23:48Z</time>
      </trkpt>
      <trkpt lat="45.98103" lon="6.57471">
        <ele>2334.9</ele>
        <time>2026-02-02T15:23:49Z</time>
      </trkpt>
      <trkpt lat="45.98103" lon="6.57471">
        <ele>2334.9</ele>
        <time>2026-02-02T15:23:50Z</time>
      </trkpt>
      <trkpt lat="45.98103" lon="6.57471">
        <ele>2334.9</ele>
        <time>2026-02-02T15:23:51Z</time>
      </trkpt>
      <trkpt lat="45.98102" lon="6.5747">
        <ele>2334.9</ele>
        <time>2026-02-02T15:23:52Z</time>
      </trkpt>
      <trkpt lat="45.98102" lon="6.57471">
        <ele>2334.9</ele>
        <time>2026-02-02T15:23:53Z</time>
      </trkpt>
      <trkpt lat="45.98102" lon="6.57471">
        <ele>2334.9</ele>
        <time>2026-02-02T15:23:54Z</time>
      </trkpt>
      <trkpt lat="45.98102" lon="6.57471">
        <ele>2334.9</ele>
        <time>2026-02-02T15:23:55Z</time>
      </trkpt>
      <trkpt lat="45.98102" lon="6.57471">
        <ele>2334.9</ele>
        <time>2026-02-02T15:23:56Z</time>
      </trkpt>
      <trkpt lat="45.98102" lon="6.57471">
        <ele>2334.9</ele>
        <time>2026-02-02T15:23:57Z</time>
      </trkpt>
      <trkpt lat="45.98101" lon="6.57469">
        <ele>2334.9</ele>
        <time>2026-02-02T15:23:58Z</time>
      </trkpt>
      <trkpt lat="45.98101" lon="6.57468">
        <ele>2334.9</ele>
        <time>2026-02-02T15:23:59Z</time>
      </trkpt>
      <trkpt lat="45.98101" lon="6.57468">
        <ele>2334.9</ele>
        <time>2026-02-02T15:24:00Z</time>
      </trkpt>
      <trkpt lat="45.98101" lon="6.57468">
        <ele>2334.9</ele>
        <time>2026-02-02T15:24:01Z</time>
      </trkpt>
      <trkpt lat="45.98099" lon="6.57468">
        <ele>2334.9</ele>
        <time>2026-02-02T15:24:02Z</time>
      </trkpt>
      <trkpt lat="45.98099" lon="6.57467">
        <ele>2335</ele>
        <time>2026-02-02T15:24:04Z</time>
      </trkpt>
      <trkpt lat="45.98099" lon="6.57467">
        <ele>2335</ele>
        <time>2026-02-02T15:24:05Z</time>
      </trkpt>
      <trkpt lat="45.98099" lon="6.57467">
        <ele>2335</ele>
        <time>2026-02-02T15:24:06Z</time>
      </trkpt>
      <trkpt lat="45.98099" lon="6.57467">
        <ele>2335</ele>
        <time>2026-02-02T15:24:07Z</time>
      </trkpt>
      <trkpt lat="45.98099" lon="6.57467">
        <ele>2335</ele>
        <time>2026-02-02T15:24:08Z</time>
      </trkpt>
      <trkpt lat="45.98099" lon="6.57467">
        <ele>2335</ele>
        <time>2026-02-02T15:24:09Z</time>
      </trkpt>
      <trkpt lat="45.98099" lon="6.57467">
        <ele>2335</ele>
        <time>2026-02-02T15:24:10Z</time>
      </trkpt>
      <trkpt lat="45.98099" lon="6.57467">
        <ele>2335</ele>
        <time>2026-02-02T15:24:11Z</time>
      </trkpt>
      <trkpt lat="45.98099" lon="6.57467">
        <ele>2335</ele>
        <time>2026-02-02T15:24:12Z</time>
      </trkpt>
      <trkpt lat="45.98099" lon="6.57467">
        <ele>2335</ele>
        <time>2026-02-02T15:24:13Z</time>
      </trkpt>
      <trkpt lat="45.98099" lon="6.57467">
        <ele>2335</ele>
        <time>2026-02-02T15:24:14Z</time>
      </trkpt>
      <trkpt lat="45.98099" lon="6.57467">
        <ele>2335</ele>
        <time>2026-02-02T15:24:15Z</time>
      </trkpt>
      <trkpt lat="45.98099" lon="6.57467">
        <ele>2335</ele>
        <time>2026-02-02T15:24:16Z</time>
      </trkpt>
      <trkpt lat="45.98099" lon="6.57467">
        <ele>2335</ele>
        <time>2026-02-02T15:24:17Z</time>
      </trkpt>
      <trkpt lat="45.98099" lon="6.57467">
        <ele>2335</ele>
        <time>2026-02-02T15:24:18Z</time>
      </trkpt>
      <trkpt lat="45.98099" lon="6.57467">
        <ele>2335</ele>
        <time>2026-02-02T15:24:19Z</time>
      </trkpt>
      <trkpt lat="45.98099" lon="6.57467">
        <ele>2335</ele>
        <time>2026-02-02T15:24:20Z</time>
      </trkpt>
      <trkpt lat="45.981" lon="6.57466">
        <ele>2335</ele>
        <time>2026-02-02T15:24:21Z</time>
      </trkpt>
      <trkpt lat="45.981" lon="6.57467">
        <ele>2335</ele>
        <time>2026-02-02T15:24:22Z</time>
      </trkpt>
      <trkpt lat="45.981" lon="6.57467">
        <ele>2335</ele>
        <time>2026-02-02T15:24:23Z</time>
      </trkpt>
      <trkpt lat="45.981" lon="6.57467">
        <ele>2335</ele>
        <time>2026-02-02T15:24:24Z</time>
      </trkpt>
      <trkpt lat="45.981" lon="6.57467">
        <ele>2335</ele>
        <time>2026-02-02T15:24:25Z</time>
      </trkpt>
      <trkpt lat="45.981" lon="6.57467">
        <ele>2335</ele>
        <time>2026-02-02T15:24:26Z</time>
      </trkpt>
      <trkpt lat="45.981" lon="6.57466">
        <ele>2335</ele>
        <time>2026-02-02T15:24:27Z</time>
      </trkpt>
      <trkpt lat="45.981" lon="6.57466">
        <ele>2335</ele>
        <time>2026-02-02T15:24:28Z</time>
      </trkpt>
      <trkpt lat="45.98101" lon="6.57466">
        <ele>2335</ele>
        <time>2026-02-02T15:24:29Z</time>
      </trkpt>
      <trkpt lat="45.98101" lon="6.57466">
        <ele>2335</ele>
        <time>2026-02-02T15:24:30Z</time>
      </trkpt>
      <trkpt lat="45.98101" lon="6.57465">
        <ele>2335</ele>
        <time>2026-02-02T15:24:31Z</time>
      </trkpt>
      <trkpt lat="45.98101" lon="6.57466">
        <ele>2335</ele>
        <time>2026-02-02T15:24:32Z</time>
      </trkpt>
      <trkpt lat="45.98101" lon="6.57466">
        <ele>2335</ele>
        <time>2026-02-02T15:24:33Z</time>
      </trkpt>
      <trkpt lat="45.98102" lon="6.5747">
        <ele>2335</ele>
        <time>2026-02-02T15:24:34Z</time>
      </trkpt>
      <trkpt lat="45.98103" lon="6.57472">
        <ele>2335</ele>
        <time>2026-02-02T15:24:35Z</time>
      </trkpt>
      <trkpt lat="45.98103" lon="6.57473">
        <ele>2335</ele>
        <time>2026-02-02T15:24:36Z</time>
      </trkpt>
      <trkpt lat="45.98104" lon="6.57474">
        <ele>2335</ele>
        <time>2026-02-02T15:24:37Z</time>
      </trkpt>
      <trkpt lat="45.98104" lon="6.57476">
        <ele>2335</ele>
        <time>2026-02-02T15:24:38Z</time>
      </trkpt>
      <trkpt lat="45.98102" lon="6.57477">
        <ele>2335</ele>
        <time>2026-02-02T15:24:39Z</time>
      </trkpt>
      <trkpt lat="45.981" lon="6.57479">
        <ele>2335.1</ele>
        <time>2026-02-02T15:24:40Z</time>
      </trkpt>
      <trkpt lat="45.98097" lon="6.57479">
        <ele>2335.1</ele>
        <time>2026-02-02T15:24:41Z</time>
      </trkpt>
      <trkpt lat="45.98096" lon="6.57479">
        <ele>2335.1</ele>
        <time>2026-02-02T15:24:42Z</time>
      </trkpt>
      <trkpt lat="45.98097" lon="6.57478">
        <ele>2335.1</ele>
        <time>2026-02-02T15:24:43Z</time>
      </trkpt>
      <trkpt lat="45.98096" lon="6.57479">
        <ele>2335.1</ele>
        <time>2026-02-02T15:24:44Z</time>
      </trkpt>
      <trkpt lat="45.98096" lon="6.57478">
        <ele>2335.1</ele>
        <time>2026-02-02T15:24:45Z</time>
      </trkpt>
      <trkpt lat="45.98095" lon="6.57478">
        <ele>2335.1</ele>
        <time>2026-02-02T15:24:46Z</time>
      </trkpt>
      <trkpt lat="45.98094" lon="6.57479">
        <ele>2335.1</ele>
        <time>2026-02-02T15:24:47Z</time>
      </trkpt>
      <trkpt lat="45.98093" lon="6.5748">
        <ele>2335.1</ele>
        <time>2026-02-02T15:24:48Z</time>
      </trkpt>
      <trkpt lat="45.98094" lon="6.57483">
        <ele>2335.1</ele>
        <time>2026-02-02T15:24:49Z</time>
      </trkpt>
      <trkpt lat="45.98095" lon="6.57485">
        <ele>2335.1</ele>
        <time>2026-02-02T15:24:50Z</time>
      </trkpt>
      <trkpt lat="45.98097" lon="6.57488">
        <ele>2335.1</ele>
        <time>2026-02-02T15:24:51Z</time>
      </trkpt>
      <trkpt lat="45.98097" lon="6.5749">
        <ele>2335.1</ele>
        <time>2026-02-02T15:24:52Z</time>
      </trkpt>
      <trkpt lat="45.98098" lon="6.57491">
        <ele>2335.1</ele>
        <time>2026-02-02T15:24:53Z</time>
      </trkpt>
      <trkpt lat="45.98098" lon="6.57492">
        <ele>2335.1</ele>
        <time>2026-02-02T15:24:54Z</time>
      </trkpt>
      <trkpt lat="45.98098" lon="6.57491">
        <ele>2335.1</ele>
        <time>2026-02-02T15:24:55Z</time>
      </trkpt>
      <trkpt lat="45.98098" lon="6.57491">
        <ele>2335.1</ele>
        <time>2026-02-02T15:24:56Z</time>
      </trkpt>
      <trkpt lat="45.98098" lon="6.57491">
        <ele>2335.1</ele>
        <time>2026-02-02T15:24:57Z</time>
      </trkpt>
      <trkpt lat="45.98098" lon="6.57491">
        <ele>2335.1</ele>
        <time>2026-02-02T15:24:58Z</time>
      </trkpt>
      <trkpt lat="45.98098" lon="6.57491">
        <ele>2335.1</ele>
        <time>2026-02-02T15:24:59Z</time>
      </trkpt>
      <trkpt lat="45.98098" lon="6.57491">
        <ele>2335.1</ele>
        <time>2026-02-02T15:25:00Z</time>
      </trkpt>
      <trkpt lat="45.98098" lon="6.57491">
        <ele>2335.1</ele>
        <time>2026-02-02T15:25:01Z</time>
      </trkpt>
      <trkpt lat="45.98098" lon="6.57491">
        <ele>2335.1</ele>
        <time>2026-02-02T15:25:02Z</time>
      </trkpt>
      <trkpt lat="45.98098" lon="6.57491">
        <ele>2335.1</ele>
        <time>2026-02-02T15:25:03Z</time>
      </trkpt>
      <trkpt lat="45.98098" lon="6.57491">
        <ele>2335.1</ele>
        <time>2026-02-02T15:25:04Z</time>
      </trkpt>
      <trkpt lat="45.98098" lon="6.57492">
        <ele>2335.1</ele>
        <time>2026-02-02T15:25:05Z</time>
      </trkpt>
      <trkpt lat="45.98097" lon="6.57494">
        <ele>2335.1</ele>
        <time>2026-02-02T15:25:06Z</time>
      </trkpt>
      <trkpt lat="45.98095" lon="6.57496">
        <ele>2335.1</ele>
        <time>2026-02-02T15:25:07Z</time>
      </trkpt>
      <trkpt lat="45.98095" lon="6.57495">
        <ele>2335.1</ele>
        <time>2026-02-02T15:25:08Z</time>
      </trkpt>
      <trkpt lat="45.98095" lon="6.57495">
        <ele>2335.1</ele>
        <time>2026-02-02T15:25:10Z</time>
      </trkpt>
      <trkpt lat="45.98095" lon="6.57494">
        <ele>2335.1</ele>
        <time>2026-02-02T15:25:11Z</time>
      </trkpt>
      <trkpt lat="45.98095" lon="6.57493">
        <ele>2335.1</ele>
        <time>2026-02-02T15:25:12Z</time>
      </trkpt>
      <trkpt lat="45.98095" lon="6.57493">
        <ele>2335.1</ele>
        <time>2026-02-02T15:25:13Z</time>
      </trkpt>
      <trkpt lat="45.98096" lon="6.57493">
        <ele>2335.1</ele>
        <time>2026-02-02T15:25:14Z</time>
      </trkpt>
      <trkpt lat="45.98096" lon="6.57494">
        <ele>2335.1</ele>
        <time>2026-02-02T15:25:15Z</time>
      </trkpt>
      <trkpt lat="45.98095" lon="6.57494">
        <ele>2335.1</ele>
        <time>2026-02-02T15:25:16Z</time>
      </trkpt>
      <trkpt lat="45.98096" lon="6.57494">
        <ele>2335.1</ele>
        <time>2026-02-02T15:25:17Z</time>
      </trkpt>
      <trkpt lat="45.98096" lon="6.57494">
        <ele>2335.1</ele>
        <time>2026-02-02T15:25:18Z</time>
      </trkpt>
      <trkpt lat="45.98097" lon="6.57496">
        <ele>2335.1</ele>
        <time>2026-02-02T15:25:19Z</time>
      </trkpt>
      <trkpt lat="45.98097" lon="6.57497">
        <ele>2335.1</ele>
        <time>2026-02-02T15:25:20Z</time>
      </trkpt>
      <trkpt lat="45.98098" lon="6.57499">
        <ele>2335.1</ele>
        <time>2026-02-02T15:25:21Z</time>
      </trkpt>
      <trkpt lat="45.98099" lon="6.575">
        <ele>2335.1</ele>
        <time>2026-02-02T15:25:22Z</time>
      </trkpt>
      <trkpt lat="45.98099" lon="6.575">
        <ele>2335.1</ele>
        <time>2026-02-02T15:25:23Z</time>
      </trkpt>
      <trkpt lat="45.981" lon="6.57499">
        <ele>2335.1</ele>
        <time>2026-02-02T15:25:24Z</time>
      </trkpt>
      <trkpt lat="45.98099" lon="6.57498">
        <ele>2335.1</ele>
        <time>2026-02-02T15:25:25Z</time>
      </trkpt>
      <trkpt lat="45.98099" lon="6.57499">
        <ele>2335.1</ele>
        <time>2026-02-02T15:25:26Z</time>
      </trkpt>
      <trkpt lat="45.98099" lon="6.57499">
        <ele>2335.1</ele>
        <time>2026-02-02T15:25:27Z</time>
      </trkpt>
      <trkpt lat="45.98099" lon="6.57499">
        <ele>2335.1</ele>
        <time>2026-02-02T15:25:28Z</time>
      </trkpt>
      <trkpt lat="45.98099" lon="6.57499">
        <ele>2335.1</ele>
        <time>2026-02-02T15:25:29Z</time>
      </trkpt>
      <trkpt lat="45.98099" lon="6.57499">
        <ele>2335.1</ele>
        <time>2026-02-02T15:25:30Z</time>
      </trkpt>
      <trkpt lat="45.98099" lon="6.575">
        <ele>2335.1</ele>
        <time>2026-02-02T15:25:31Z</time>
      </trkpt>
      <trkpt lat="45.98099" lon="6.575">
        <ele>2335.1</ele>
        <time>2026-02-02T15:25:32Z</time>
      </trkpt>
      <trkpt lat="45.98098" lon="6.575">
        <ele>2335.1</ele>
        <time>2026-02-02T15:25:33Z</time>
      </trkpt>
      <trkpt lat="45.98098" lon="6.575">
        <ele>2335.1</ele>
        <time>2026-02-02T15:25:34Z</time>
      </trkpt>
      <trkpt lat="45.98098" lon="6.575">
        <ele>2335.1</ele>
        <time>2026-02-02T15:25:35Z</time>
      </trkpt>
      <trkpt lat="45.98098" lon="6.575">
        <ele>2335.1</ele>
        <time>2026-02-02T15:25:36Z</time>
      </trkpt>
      <trkpt lat="45.98098" lon="6.575">
        <ele>2335.1</ele>
        <time>2026-02-02T15:25:37Z</time>
      </trkpt>
      <trkpt lat="45.98098" lon="6.575">
        <ele>2335.1</ele>
        <time>2026-02-02T15:25:38Z</time>
      </trkpt>
      <trkpt lat="45.98098" lon="6.575">
        <ele>2335.1</ele>
        <time>2026-02-02T15:25:39Z</time>
      </trkpt>
      <trkpt lat="45.98098" lon="6.575">
        <ele>2335.1</ele>
        <time>2026-02-02T15:25:40Z</time>
      </trkpt>
      <trkpt lat="45.98098" lon="6.575">
        <ele>2335.1</ele>
        <time>2026-02-02T15:25:41Z</time>
      </trkpt>
      <trkpt lat="45.98098" lon="6.575">
        <ele>2335.1</ele>
        <time>2026-02-02T15:25:42Z</time>
      </trkpt>
      <trkpt lat="45.98098" lon="6.575">
        <ele>2335.1</ele>
        <time>2026-02-02T15:25:43Z</time>
      </trkpt>
      <trkpt lat="45.98098" lon="6.575">
        <ele>2335.1</ele>
        <time>2026-02-02T15:25:44Z</time>
      </trkpt>
      <trkpt lat="45.98097" lon="6.57501">
        <ele>2335.1</ele>
        <time>2026-02-02T15:25:45Z</time>
      </trkpt>
      <trkpt lat="45.98098" lon="6.575">
        <ele>2335.1</ele>
        <time>2026-02-02T15:25:46Z</time>
      </trkpt>
      <trkpt lat="45.98098" lon="6.575">
        <ele>2335.1</ele>
        <time>2026-02-02T15:25:47Z</time>
      </trkpt>
      <trkpt lat="45.98098" lon="6.575">
        <ele>2335.1</ele>
        <time>2026-02-02T15:25:48Z</time>
      </trkpt>
      <trkpt lat="45.98098" lon="6.575">
        <ele>2335.1</ele>
        <time>2026-02-02T15:25:49Z</time>
      </trkpt>
      <trkpt lat="45.98098" lon="6.575">
        <ele>2335.1</ele>
        <time>2026-02-02T15:25:50Z</time>
      </trkpt>
      <trkpt lat="45.98098" lon="6.575">
        <ele>2335.1</ele>
        <time>2026-02-02T15:25:51Z</time>
      </trkpt>
      <trkpt lat="45.98098" lon="6.575">
        <ele>2335.1</ele>
        <time>2026-02-02T15:25:52Z</time>
      </trkpt>
      <trkpt lat="45.98098" lon="6.575">
        <ele>2335.1</ele>
        <time>2026-02-02T15:25:53Z</time>
      </trkpt>
      <trkpt lat="45.98098" lon="6.575">
        <ele>2335.1</ele>
        <time>2026-02-02T15:25:54Z</time>
      </trkpt>
      <trkpt lat="45.98098" lon="6.575">
        <ele>2335.1</ele>
        <time>2026-02-02T15:25:55Z</time>
      </trkpt>
      <trkpt lat="45.98098" lon="6.575">
        <ele>2335.1</ele>
        <time>2026-02-02T15:25:56Z</time>
      </trkpt>
      <trkpt lat="45.98098" lon="6.575">
        <ele>2335.1</ele>
        <time>2026-02-02T15:25:57Z</time>
      </trkpt>
      <trkpt lat="45.98098" lon="6.575">
        <ele>2335.1</ele>
        <time>2026-02-02T15:25:58Z</time>
      </trkpt>
      <trkpt lat="45.98098" lon="6.57499">
        <ele>2335.1</ele>
        <time>2026-02-02T15:25:59Z</time>
      </trkpt>
      <trkpt lat="45.98098" lon="6.57499">
        <ele>2335.1</ele>
        <time>2026-02-02T15:26:00Z</time>
      </trkpt>
      <trkpt lat="45.98097" lon="6.57498">
        <ele>2335.1</ele>
        <time>2026-02-02T15:26:01Z</time>
      </trkpt>
      <trkpt lat="45.98098" lon="6.57499">
        <ele>2335.1</ele>
        <time>2026-02-02T15:26:02Z</time>
      </trkpt>
      <trkpt lat="45.98097" lon="6.57499">
        <ele>2335.1</ele>
        <time>2026-02-02T15:26:03Z</time>
      </trkpt>
      <trkpt lat="45.98097" lon="6.57498">
        <ele>2335.1</ele>
        <time>2026-02-02T15:26:04Z</time>
      </trkpt>
      <trkpt lat="45.98097" lon="6.57498">
        <ele>2335.1</ele>
        <time>2026-02-02T15:26:05Z</time>
      </trkpt>
      <trkpt lat="45.98097" lon="6.57498">
        <ele>2335.1</ele>
        <time>2026-02-02T15:26:06Z</time>
      </trkpt>
      <trkpt lat="45.98097" lon="6.57498">
        <ele>2335.1</ele>
        <time>2026-02-02T15:26:07Z</time>
      </trkpt>
      <trkpt lat="45.98097" lon="6.57498">
        <ele>2335.1</ele>
        <time>2026-02-02T15:26:08Z</time>
      </trkpt>
      <trkpt lat="45.98096" lon="6.57498">
        <ele>2335.1</ele>
        <time>2026-02-02T15:26:09Z</time>
      </trkpt>
      <trkpt lat="45.98096" lon="6.57497">
        <ele>2335.1</ele>
        <time>2026-02-02T15:26:10Z</time>
      </trkpt>
      <trkpt lat="45.98096" lon="6.57497">
        <ele>2335.1</ele>
        <time>2026-02-02T15:26:11Z</time>
      </trkpt>
      <trkpt lat="45.98096" lon="6.57497">
        <ele>2335.1</ele>
        <time>2026-02-02T15:26:12Z</time>
      </trkpt>
      <trkpt lat="45.98096" lon="6.57497">
        <ele>2335.1</ele>
        <time>2026-02-02T15:26:13Z</time>
      </trkpt>
      <trkpt lat="45.98096" lon="6.57497">
        <ele>2335.1</ele>
        <time>2026-02-02T15:26:14Z</time>
      </trkpt>
      <trkpt lat="45.98096" lon="6.57497">
        <ele>2335.1</ele>
        <time>2026-02-02T15:26:15Z</time>
      </trkpt>
      <trkpt lat="45.98096" lon="6.57497">
        <ele>2335.1</ele>
        <time>2026-02-02T15:26:16Z</time>
      </trkpt>
      <trkpt lat="45.98096" lon="6.57497">
        <ele>2335.1</ele>
        <time>2026-02-02T15:26:17Z</time>
      </trkpt>
      <trkpt lat="45.98097" lon="6.57497">
        <ele>2335.1</ele>
        <time>2026-02-02T15:26:18Z</time>
      </trkpt>
      <trkpt lat="45.98098" lon="6.57497">
        <ele>2335.2</ele>
        <time>2026-02-02T15:26:19Z</time>
      </trkpt>
      <trkpt lat="45.98098" lon="6.57497">
        <ele>2335.2</ele>
        <time>2026-02-02T15:26:20Z</time>
      </trkpt>
      <trkpt lat="45.98098" lon="6.57498">
        <ele>2335.2</ele>
        <time>2026-02-02T15:26:21Z</time>
      </trkpt>
      <trkpt lat="45.98098" lon="6.57498">
        <ele>2335.2</ele>
        <time>2026-02-02T15:26:22Z</time>
      </trkpt>
      <trkpt lat="45.98098" lon="6.57498">
        <ele>2335.2</ele>
        <time>2026-02-02T15:26:23Z</time>
      </trkpt>
      <trkpt lat="45.98098" lon="6.57498">
        <ele>2335.2</ele>
        <time>2026-02-02T15:26:24Z</time>
      </trkpt>
      <trkpt lat="45.98098" lon="6.57498">
        <ele>2335.2</ele>
        <time>2026-02-02T15:26:25Z</time>
      </trkpt>
      <trkpt lat="45.98098" lon="6.57498">
        <ele>2335.2</ele>
        <time>2026-02-02T15:26:26Z</time>
      </trkpt>
      <trkpt lat="45.98098" lon="6.57498">
        <ele>2335.2</ele>
        <time>2026-02-02T15:26:27Z</time>
      </trkpt>
      <trkpt lat="45.98098" lon="6.57498">
        <ele>2335.2</ele>
        <time>2026-02-02T15:26:28Z</time>
      </trkpt>
      <trkpt lat="45.98098" lon="6.57498">
        <ele>2335.2</ele>
        <time>2026-02-02T15:26:29Z</time>
      </trkpt>
      <trkpt lat="45.98098" lon="6.57497">
        <ele>2335.2</ele>
        <time>2026-02-02T15:26:30Z</time>
      </trkpt>
      <trkpt lat="45.98097" lon="6.57497">
        <ele>2335.2</ele>
        <time>2026-02-02T15:26:31Z</time>
      </trkpt>
      <trkpt lat="45.98097" lon="6.57497">
        <ele>2335.2</ele>
        <time>2026-02-02T15:26:32Z</time>
      </trkpt>
      <trkpt lat="45.98097" lon="6.57497">
        <ele>2335.2</ele>
        <time>2026-02-02T15:26:33Z</time>
      </trkpt>
      <trkpt lat="45.98097" lon="6.57497">
        <ele>2335.2</ele>
        <time>2026-02-02T15:26:34Z</time>
      </trkpt>
      <trkpt lat="45.98097" lon="6.57497">
        <ele>2335.2</ele>
        <time>2026-02-02T15:26:35Z</time>
      </trkpt>
      <trkpt lat="45.98097" lon="6.57497">
        <ele>2335.2</ele>
        <time>2026-02-02T15:26:36Z</time>
      </trkpt>
      <trkpt lat="45.98097" lon="6.57497">
        <ele>2335.2</ele>
        <time>2026-02-02T15:26:37Z</time>
      </trkpt>
      <trkpt lat="45.98097" lon="6.57497">
        <ele>2335.2</ele>
        <time>2026-02-02T15:26:38Z</time>
      </trkpt>
      <trkpt lat="45.98097" lon="6.57497">
        <ele>2335.2</ele>
        <time>2026-02-02T15:26:39Z</time>
      </trkpt>
      <trkpt lat="45.98097" lon="6.57497">
        <ele>2335.2</ele>
        <time>2026-02-02T15:26:40Z</time>
      </trkpt>
      <trkpt lat="45.98097" lon="6.57497">
        <ele>2335.2</ele>
        <time>2026-02-02T15:26:41Z</time>
      </trkpt>
      <trkpt lat="45.98097" lon="6.57497">
        <ele>2335.2</ele>
        <time>2026-02-02T15:26:42Z</time>
      </trkpt>
      <trkpt lat="45.98097" lon="6.57497">
        <ele>2335.2</ele>
        <time>2026-02-02T15:26:43Z</time>
      </trkpt>
      <trkpt lat="45.98097" lon="6.57497">
        <ele>2335.2</ele>
        <time>2026-02-02T15:26:44Z</time>
      </trkpt>
      <trkpt lat="45.98096" lon="6.57497">
        <ele>2335.2</ele>
        <time>2026-02-02T15:26:45Z</time>
      </trkpt>
      <trkpt lat="45.98096" lon="6.57497">
        <ele>2335.2</ele>
        <time>2026-02-02T15:26:46Z</time>
      </trkpt>
      <trkpt lat="45.98096" lon="6.57497">
        <ele>2335.2</ele>
        <time>2026-02-02T15:26:47Z</time>
      </trkpt>
      <trkpt lat="45.98096" lon="6.57497">
        <ele>2335.2</ele>
        <time>2026-02-02T15:26:48Z</time>
      </trkpt>
      <trkpt lat="45.98096" lon="6.57497">
        <ele>2335.2</ele>
        <time>2026-02-02T15:26:49Z</time>
      </trkpt>
      <trkpt lat="45.98096" lon="6.57497">
        <ele>2335.2</ele>
        <time>2026-02-02T15:26:50Z</time>
      </trkpt>
      <trkpt lat="45.98096" lon="6.57497">
        <ele>2335.2</ele>
        <time>2026-02-02T15:26:51Z</time>
      </trkpt>
      <trkpt lat="45.98096" lon="6.57497">
        <ele>2335.2</ele>
        <time>2026-02-02T15:26:52Z</time>
      </trkpt>
      <trkpt lat="45.98096" lon="6.57497">
        <ele>2335.2</ele>
        <time>2026-02-02T15:26:53Z</time>
      </trkpt>
      <trkpt lat="45.98096" lon="6.57497">
        <ele>2335.2</ele>
        <time>2026-02-02T15:26:54Z</time>
      </trkpt>
      <trkpt lat="45.98096" lon="6.57497">
        <ele>2335.2</ele>
        <time>2026-02-02T15:26:55Z</time>
      </trkpt>
      <trkpt lat="45.98096" lon="6.57497">
        <ele>2335.2</ele>
        <time>2026-02-02T15:26:56Z</time>
      </trkpt>
      <trkpt lat="45.98096" lon="6.57497">
        <ele>2335.2</ele>
        <time>2026-02-02T15:26:57Z</time>
      </trkpt>
      <trkpt lat="45.98096" lon="6.57497">
        <ele>2335.2</ele>
        <time>2026-02-02T15:26:58Z</time>
      </trkpt>
      <trkpt lat="45.98096" lon="6.57497">
        <ele>2335.2</ele>
        <time>2026-02-02T15:26:59Z</time>
      </trkpt>
      <trkpt lat="45.98096" lon="6.57497">
        <ele>2335.2</ele>
        <time>2026-02-02T15:27:00Z</time>
      </trkpt>
      <trkpt lat="45.98096" lon="6.57497">
        <ele>2335.2</ele>
        <time>2026-02-02T15:27:01Z</time>
      </trkpt>
      <trkpt lat="45.98096" lon="6.57497">
        <ele>2335.2</ele>
        <time>2026-02-02T15:27:02Z</time>
      </trkpt>
      <trkpt lat="45.98096" lon="6.57497">
        <ele>2335.2</ele>
        <time>2026-02-02T15:27:03Z</time>
      </trkpt>
      <trkpt lat="45.98096" lon="6.57497">
        <ele>2335.2</ele>
        <time>2026-02-02T15:27:04Z</time>
      </trkpt>
      <trkpt lat="45.98096" lon="6.57497">
        <ele>2335.2</ele>
        <time>2026-02-02T15:27:05Z</time>
      </trkpt>
      <trkpt lat="45.98096" lon="6.57497">
        <ele>2335.2</ele>
        <time>2026-02-02T15:27:06Z</time>
      </trkpt>
      <trkpt lat="45.98096" lon="6.57497">
        <ele>2335.2</ele>
        <time>2026-02-02T15:27:07Z</time>
      </trkpt>
      <trkpt lat="45.98096" lon="6.57497">
        <ele>2335.2</ele>
        <time>2026-02-02T15:27:08Z</time>
      </trkpt>
      <trkpt lat="45.98096" lon="6.57497">
        <ele>2335.2</ele>
        <time>2026-02-02T15:27:09Z</time>
      </trkpt>
      <trkpt lat="45.98096" lon="6.57497">
        <ele>2335.2</ele>
        <time>2026-02-02T15:27:10Z</time>
      </trkpt>
      <trkpt lat="45.98096" lon="6.57497">
        <ele>2335.2</ele>
        <time>2026-02-02T15:27:11Z</time>
      </trkpt>
      <trkpt lat="45.98096" lon="6.57497">
        <ele>2335.2</ele>
        <time>2026-02-02T15:27:12Z</time>
      </trkpt>
      <trkpt lat="45.98096" lon="6.57497">
        <ele>2335.2</ele>
        <time>2026-02-02T15:27:13Z</time>
      </trkpt>
      <trkpt lat="45.98096" lon="6.57497">
        <ele>2335.2</ele>
        <time>2026-02-02T15:27:14Z</time>
      </trkpt>
      <trkpt lat="45.98096" lon="6.57497">
        <ele>2335.2</ele>
        <time>2026-02-02T15:27:15Z</time>
      </trkpt>
      <trkpt lat="45.98096" lon="6.57497">
        <ele>2335.2</ele>
        <time>2026-02-02T15:27:16Z</time>
      </trkpt>
      <trkpt lat="45.98096" lon="6.57497">
        <ele>2335.2</ele>
        <time>2026-02-02T15:27:17Z</time>
      </trkpt>
      <trkpt lat="45.98096" lon="6.57497">
        <ele>2335.2</ele>
        <time>2026-02-02T15:27:18Z</time>
      </trkpt>
      <trkpt lat="45.98096" lon="6.57497">
        <ele>2335.2</ele>
        <time>2026-02-02T15:27:19Z</time>
      </trkpt>
      <trkpt lat="45.98096" lon="6.57497">
        <ele>2335.2</ele>
        <time>2026-02-02T15:27:20Z</time>
      </trkpt>
      <trkpt lat="45.98096" lon="6.57497">
        <ele>2335.2</ele>
        <time>2026-02-02T15:27:21Z</time>
      </trkpt>
      <trkpt lat="45.98096" lon="6.57497">
        <ele>2335.2</ele>
        <time>2026-02-02T15:27:22Z</time>
      </trkpt>
      <trkpt lat="45.98095" lon="6.57497">
        <ele>2335.2</ele>
        <time>2026-02-02T15:27:23Z</time>
      </trkpt>
      <trkpt lat="45.98095" lon="6.57497">
        <ele>2335.2</ele>
        <time>2026-02-02T15:27:24Z</time>
      </trkpt>
      <trkpt lat="45.98095" lon="6.57497">
        <ele>2335.2</ele>
        <time>2026-02-02T15:27:25Z</time>
      </trkpt>
      <trkpt lat="45.98095" lon="6.57497">
        <ele>2335.2</ele>
        <time>2026-02-02T15:27:27Z</time>
      </trkpt>
      <trkpt lat="45.98095" lon="6.57497">
        <ele>2335.2</ele>
        <time>2026-02-02T15:27:28Z</time>
      </trkpt>
      <trkpt lat="45.98095" lon="6.57497">
        <ele>2335.2</ele>
        <time>2026-02-02T15:27:29Z</time>
      </trkpt>
      <trkpt lat="45.98095" lon="6.57497">
        <ele>2335.2</ele>
        <time>2026-02-02T15:27:30Z</time>
      </trkpt>
      <trkpt lat="45.98095" lon="6.57497">
        <ele>2335.2</ele>
        <time>2026-02-02T15:27:31Z</time>
      </trkpt>
      <trkpt lat="45.98095" lon="6.57497">
        <ele>2335.2</ele>
        <time>2026-02-02T15:27:32Z</time>
      </trkpt>
      <trkpt lat="45.98095" lon="6.57497">
        <ele>2335.2</ele>
        <time>2026-02-02T15:27:33Z</time>
      </trkpt>
      <trkpt lat="45.98095" lon="6.57497">
        <ele>2335.2</ele>
        <time>2026-02-02T15:27:34Z</time>
      </trkpt>
      <trkpt lat="45.98095" lon="6.57497">
        <ele>2335.2</ele>
        <time>2026-02-02T15:27:35Z</time>
      </trkpt>
      <trkpt lat="45.98095" lon="6.57497">
        <ele>2335.2</ele>
        <time>2026-02-02T15:27:36Z</time>
      </trkpt>
      <trkpt lat="45.98095" lon="6.57497">
        <ele>2335.2</ele>
        <time>2026-02-02T15:27:37Z</time>
      </trkpt>
      <trkpt lat="45.98095" lon="6.57497">
        <ele>2335.2</ele>
        <time>2026-02-02T15:27:38Z</time>
      </trkpt>
      <trkpt lat="45.98095" lon="6.57497">
        <ele>2335.2</ele>
        <time>2026-02-02T15:27:39Z</time>
      </trkpt>
      <trkpt lat="45.98095" lon="6.57497">
        <ele>2335.2</ele>
        <time>2026-02-02T15:27:40Z</time>
      </trkpt>
      <trkpt lat="45.98094" lon="6.57497">
        <ele>2335.2</ele>
        <time>2026-02-02T15:27:41Z</time>
      </trkpt>
      <trkpt lat="45.98095" lon="6.57497">
        <ele>2335.2</ele>
        <time>2026-02-02T15:27:42Z</time>
      </trkpt>
      <trkpt lat="45.98095" lon="6.57496">
        <ele>2335.2</ele>
        <time>2026-02-02T15:27:43Z</time>
      </trkpt>
      <trkpt lat="45.98095" lon="6.57496">
        <ele>2335.2</ele>
        <time>2026-02-02T15:27:44Z</time>
      </trkpt>
      <trkpt lat="45.98095" lon="6.57496">
        <ele>2335.2</ele>
        <time>2026-02-02T15:27:45Z</time>
      </trkpt>
      <trkpt lat="45.98095" lon="6.57496">
        <ele>2335.2</ele>
        <time>2026-02-02T15:27:46Z</time>
      </trkpt>
      <trkpt lat="45.98095" lon="6.57496">
        <ele>2335.2</ele>
        <time>2026-02-02T15:27:47Z</time>
      </trkpt>
      <trkpt lat="45.98095" lon="6.57496">
        <ele>2335.2</ele>
        <time>2026-02-02T15:27:48Z</time>
      </trkpt>
      <trkpt lat="45.98095" lon="6.57496">
        <ele>2335.2</ele>
        <time>2026-02-02T15:27:49Z</time>
      </trkpt>
      <trkpt lat="45.98095" lon="6.57496">
        <ele>2335.2</ele>
        <time>2026-02-02T15:27:50Z</time>
      </trkpt>
      <trkpt lat="45.98095" lon="6.57496">
        <ele>2335.2</ele>
        <time>2026-02-02T15:27:51Z</time>
      </trkpt>
      <trkpt lat="45.98095" lon="6.57496">
        <ele>2335.2</ele>
        <time>2026-02-02T15:27:52Z</time>
      </trkpt>
      <trkpt lat="45.98095" lon="6.57496">
        <ele>2335.2</ele>
        <time>2026-02-02T15:27:53Z</time>
      </trkpt>
      <trkpt lat="45.98095" lon="6.57496">
        <ele>2335.2</ele>
        <time>2026-02-02T15:27:54Z</time>
      </trkpt>
      <trkpt lat="45.98095" lon="6.57496">
        <ele>2335.2</ele>
        <time>2026-02-02T15:27:55Z</time>
      </trkpt>
      <trkpt lat="45.98095" lon="6.57496">
        <ele>2335.2</ele>
        <time>2026-02-02T15:27:56Z</time>
      </trkpt>
      <trkpt lat="45.98095" lon="6.57496">
        <ele>2335.2</ele>
        <time>2026-02-02T15:27:57Z</time>
      </trkpt>
      <trkpt lat="45.98095" lon="6.57496">
        <ele>2335.2</ele>
        <time>2026-02-02T15:27:58Z</time>
      </trkpt>
      <trkpt lat="45.98095" lon="6.57496">
        <ele>2335.2</ele>
        <time>2026-02-02T15:27:59Z</time>
      </trkpt>
      <trkpt lat="45.98095" lon="6.57496">
        <ele>2335.2</ele>
        <time>2026-02-02T15:28:00Z</time>
      </trkpt>
      <trkpt lat="45.98095" lon="6.57496">
        <ele>2335.2</ele>
        <time>2026-02-02T15:28:01Z</time>
      </trkpt>
      <trkpt lat="45.98095" lon="6.57496">
        <ele>2335.2</ele>
        <time>2026-02-02T15:28:02Z</time>
      </trkpt>
      <trkpt lat="45.98095" lon="6.57496">
        <ele>2335.2</ele>
        <time>2026-02-02T15:28:03Z</time>
      </trkpt>
      <trkpt lat="45.98095" lon="6.57496">
        <ele>2335.2</ele>
        <time>2026-02-02T15:28:04Z</time>
      </trkpt>
      <trkpt lat="45.98095" lon="6.57496">
        <ele>2335.2</ele>
        <time>2026-02-02T15:28:05Z</time>
      </trkpt>
      <trkpt lat="45.98095" lon="6.57496">
        <ele>2335.2</ele>
        <time>2026-02-02T15:28:06Z</time>
      </trkpt>
      <trkpt lat="45.98096" lon="6.57496">
        <ele>2335.2</ele>
        <time>2026-02-02T15:28:07Z</time>
      </trkpt>
      <trkpt lat="45.98096" lon="6.57496">
        <ele>2335.2</ele>
        <time>2026-02-02T15:28:08Z</time>
      </trkpt>
      <trkpt lat="45.98096" lon="6.57496">
        <ele>2335.2</ele>
        <time>2026-02-02T15:28:09Z</time>
      </trkpt>
      <trkpt lat="45.98096" lon="6.57496">
        <ele>2335.2</ele>
        <time>2026-02-02T15:28:10Z</time>
      </trkpt>
      <trkpt lat="45.98096" lon="6.57496">
        <ele>2335.2</ele>
        <time>2026-02-02T15:28:11Z</time>
      </trkpt>
      <trkpt lat="45.98096" lon="6.57496">
        <ele>2335.2</ele>
        <time>2026-02-02T15:28:12Z</time>
      </trkpt>
      <trkpt lat="45.98096" lon="6.57496">
        <ele>2335.2</ele>
        <time>2026-02-02T15:28:13Z</time>
      </trkpt>
      <trkpt lat="45.98096" lon="6.57496">
        <ele>2335.2</ele>
        <time>2026-02-02T15:28:14Z</time>
      </trkpt>
      <trkpt lat="45.98096" lon="6.57496">
        <ele>2335.2</ele>
        <time>2026-02-02T15:28:15Z</time>
      </trkpt>
      <trkpt lat="45.98096" lon="6.57496">
        <ele>2335.2</ele>
        <time>2026-02-02T15:28:16Z</time>
      </trkpt>
      <trkpt lat="45.98096" lon="6.57496">
        <ele>2335.2</ele>
        <time>2026-02-02T15:28:17Z</time>
      </trkpt>
      <trkpt lat="45.98096" lon="6.57496">
        <ele>2335.2</ele>
        <time>2026-02-02T15:28:18Z</time>
      </trkpt>
      <trkpt lat="45.98096" lon="6.57496">
        <ele>2335.2</ele>
        <time>2026-02-02T15:28:19Z</time>
      </trkpt>
      <trkpt lat="45.98096" lon="6.57496">
        <ele>2335.2</ele>
        <time>2026-02-02T15:28:20Z</time>
      </trkpt>
      <trkpt lat="45.98096" lon="6.57496">
        <ele>2335.2</ele>
        <time>2026-02-02T15:28:21Z</time>
      </trkpt>
      <trkpt lat="45.98096" lon="6.57496">
        <ele>2335.2</ele>
        <time>2026-02-02T15:28:22Z</time>
      </trkpt>
      <trkpt lat="45.98096" lon="6.57496">
        <ele>2335.2</ele>
        <time>2026-02-02T15:28:23Z</time>
      </trkpt>
      <trkpt lat="45.98096" lon="6.57496">
        <ele>2335.2</ele>
        <time>2026-02-02T15:28:24Z</time>
      </trkpt>
      <trkpt lat="45.98096" lon="6.57496">
        <ele>2335.2</ele>
        <time>2026-02-02T15:28:25Z</time>
      </trkpt>
      <trkpt lat="45.98096" lon="6.57496">
        <ele>2335.2</ele>
        <time>2026-02-02T15:28:26Z</time>
      </trkpt>
      <trkpt lat="45.98096" lon="6.57496">
        <ele>2335.2</ele>
        <time>2026-02-02T15:28:27Z</time>
      </trkpt>
      <trkpt lat="45.98096" lon="6.57496">
        <ele>2335.2</ele>
        <time>2026-02-02T15:28:28Z</time>
      </trkpt>
      <trkpt lat="45.98096" lon="6.57496">
        <ele>2335.2</ele>
        <time>2026-02-02T15:28:29Z</time>
      </trkpt>
      <trkpt lat="45.98096" lon="6.57496">
        <ele>2335.2</ele>
        <time>2026-02-02T15:28:30Z</time>
      </trkpt>
      <trkpt lat="45.98096" lon="6.57496">
        <ele>2335.2</ele>
        <time>2026-02-02T15:28:31Z</time>
      </trkpt>
      <trkpt lat="45.98096" lon="6.57496">
        <ele>2335.2</ele>
        <time>2026-02-02T15:28:32Z</time>
      </trkpt>
      <trkpt lat="45.98096" lon="6.57496">
        <ele>2335.1</ele>
        <time>2026-02-02T15:28:33Z</time>
      </trkpt>
      <trkpt lat="45.98096" lon="6.57496">
        <ele>2335.1</ele>
        <time>2026-02-02T15:28:34Z</time>
      </trkpt>
      <trkpt lat="45.98096" lon="6.57497">
        <ele>2335</ele>
        <time>2026-02-02T15:28:35Z</time>
      </trkpt>
      <trkpt lat="45.98096" lon="6.57496">
        <ele>2335</ele>
        <time>2026-02-02T15:28:36Z</time>
      </trkpt>
      <trkpt lat="45.98096" lon="6.57496">
        <ele>2335</ele>
        <time>2026-02-02T15:28:37Z</time>
      </trkpt>
      <trkpt lat="45.98096" lon="6.57496">
        <ele>2335</ele>
        <time>2026-02-02T15:28:38Z</time>
      </trkpt>
      <trkpt lat="45.98096" lon="6.57496">
        <ele>2335</ele>
        <time>2026-02-02T15:28:39Z</time>
      </trkpt>
      <trkpt lat="45.98096" lon="6.57496">
        <ele>2335</ele>
        <time>2026-02-02T15:28:40Z</time>
      </trkpt>
      <trkpt lat="45.98096" lon="6.57496">
        <ele>2335</ele>
        <time>2026-02-02T15:28:41Z</time>
      </trkpt>
      <trkpt lat="45.98096" lon="6.57496">
        <ele>2335</ele>
        <time>2026-02-02T15:28:42Z</time>
      </trkpt>
      <trkpt lat="45.98096" lon="6.57496">
        <ele>2335</ele>
        <time>2026-02-02T15:28:43Z</time>
      </trkpt>
      <trkpt lat="45.98096" lon="6.57496">
        <ele>2334.9</ele>
        <time>2026-02-02T15:28:44Z</time>
      </trkpt>
      <trkpt lat="45.98096" lon="6.57496">
        <ele>2334.9</ele>
        <time>2026-02-02T15:28:45Z</time>
      </trkpt>
      <trkpt lat="45.98096" lon="6.57496">
        <ele>2334.9</ele>
        <time>2026-02-02T15:28:46Z</time>
      </trkpt>
      <trkpt lat="45.98095" lon="6.57496">
        <ele>2334.8</ele>
        <time>2026-02-02T15:28:47Z</time>
      </trkpt>
      <trkpt lat="45.98095" lon="6.57496">
        <ele>2334.8</ele>
        <time>2026-02-02T15:28:48Z</time>
      </trkpt>
      <trkpt lat="45.98095" lon="6.57496">
        <ele>2334.8</ele>
        <time>2026-02-02T15:28:49Z</time>
      </trkpt>
      <trkpt lat="45.98095" lon="6.57496">
        <ele>2334.7</ele>
        <time>2026-02-02T15:28:50Z</time>
      </trkpt>
      <trkpt lat="45.98095" lon="6.57496">
        <ele>2334.7</ele>
        <time>2026-02-02T15:28:51Z</time>
      </trkpt>
      <trkpt lat="45.98095" lon="6.57496">
        <ele>2334.7</ele>
        <time>2026-02-02T15:28:52Z</time>
      </trkpt>
      <trkpt lat="45.98095" lon="6.57496">
        <ele>2334.7</ele>
        <time>2026-02-02T15:28:53Z</time>
      </trkpt>
      <trkpt lat="45.98095" lon="6.57496">
        <ele>2334.7</ele>
        <time>2026-02-02T15:28:54Z</time>
      </trkpt>
      <trkpt lat="45.98095" lon="6.57496">
        <ele>2334.7</ele>
        <time>2026-02-02T15:28:55Z</time>
      </trkpt>
      <trkpt lat="45.98096" lon="6.57497">
        <ele>2334.6</ele>
        <time>2026-02-02T15:28:56Z</time>
      </trkpt>
      <trkpt lat="45.98096" lon="6.57497">
        <ele>2334.6</ele>
        <time>2026-02-02T15:28:57Z</time>
      </trkpt>
      <trkpt lat="45.98096" lon="6.57498">
        <ele>2334.5</ele>
        <time>2026-02-02T15:28:58Z</time>
      </trkpt>
      <trkpt lat="45.98096" lon="6.57498">
        <ele>2334.5</ele>
        <time>2026-02-02T15:28:59Z</time>
      </trkpt>
      <trkpt lat="45.98096" lon="6.57498">
        <ele>2334.5</ele>
        <time>2026-02-02T15:29:00Z</time>
      </trkpt>
      <trkpt lat="45.98096" lon="6.57498">
        <ele>2334.5</ele>
        <time>2026-02-02T15:29:01Z</time>
      </trkpt>
      <trkpt lat="45.98096" lon="6.57497">
        <ele>2334.5</ele>
        <time>2026-02-02T15:29:02Z</time>
      </trkpt>
      <trkpt lat="45.98096" lon="6.57497">
        <ele>2334.5</ele>
        <time>2026-02-02T15:29:03Z</time>
      </trkpt>
      <trkpt lat="45.98096" lon="6.57497">
        <ele>2334.5</ele>
        <time>2026-02-02T15:29:04Z</time>
      </trkpt>
      <trkpt lat="45.98096" lon="6.57497">
        <ele>2334.5</ele>
        <time>2026-02-02T15:29:05Z</time>
      </trkpt>
      <trkpt lat="45.98096" lon="6.57497">
        <ele>2334.5</ele>
        <time>2026-02-02T15:29:06Z</time>
      </trkpt>
      <trkpt lat="45.98096" lon="6.57497">
        <ele>2334.5</ele>
        <time>2026-02-02T15:29:07Z</time>
      </trkpt>
      <trkpt lat="45.98096" lon="6.57497">
        <ele>2334.5</ele>
        <time>2026-02-02T15:29:08Z</time>
      </trkpt>
      <trkpt lat="45.98096" lon="6.57497">
        <ele>2334.5</ele>
        <time>2026-02-02T15:29:09Z</time>
      </trkpt>
      <trkpt lat="45.98096" lon="6.57497">
        <ele>2334.5</ele>
        <time>2026-02-02T15:29:10Z</time>
      </trkpt>
      <trkpt lat="45.98095" lon="6.57498">
        <ele>2334.5</ele>
        <time>2026-02-02T15:29:11Z</time>
      </trkpt>
      <trkpt lat="45.98095" lon="6.57497">
        <ele>2334.4</ele>
        <time>2026-02-02T15:29:12Z</time>
      </trkpt>
      <trkpt lat="45.98095" lon="6.57497">
        <ele>2334.3</ele>
        <time>2026-02-02T15:29:13Z</time>
      </trkpt>
      <trkpt lat="45.98095" lon="6.57497">
        <ele>2334.3</ele>
        <time>2026-02-02T15:29:14Z</time>
      </trkpt>
      <trkpt lat="45.98095" lon="6.57497">
        <ele>2334.2</ele>
        <time>2026-02-02T15:29:15Z</time>
      </trkpt>
      <trkpt lat="45.98095" lon="6.57497">
        <ele>2334.2</ele>
        <time>2026-02-02T15:29:16Z</time>
      </trkpt>
      <trkpt lat="45.98095" lon="6.57497">
        <ele>2334.2</ele>
        <time>2026-02-02T15:29:17Z</time>
      </trkpt>
      <trkpt lat="45.98095" lon="6.57497">
        <ele>2334.2</ele>
        <time>2026-02-02T15:29:18Z</time>
      </trkpt>
      <trkpt lat="45.98095" lon="6.57497">
        <ele>2334.2</ele>
        <time>2026-02-02T15:29:19Z</time>
      </trkpt>
      <trkpt lat="45.98095" lon="6.57497">
        <ele>2334.2</ele>
        <time>2026-02-02T15:29:20Z</time>
      </trkpt>
      <trkpt lat="45.98095" lon="6.57497">
        <ele>2334.1</ele>
        <time>2026-02-02T15:29:21Z</time>
      </trkpt>
      <trkpt lat="45.98095" lon="6.57497">
        <ele>2334.1</ele>
        <time>2026-02-02T15:29:22Z</time>
      </trkpt>
      <trkpt lat="45.98095" lon="6.57497">
        <ele>2334.1</ele>
        <time>2026-02-02T15:29:23Z</time>
      </trkpt>
      <trkpt lat="45.98095" lon="6.57497">
        <ele>2334.1</ele>
        <time>2026-02-02T15:29:24Z</time>
      </trkpt>
      <trkpt lat="45.98095" lon="6.57497">
        <ele>2334.1</ele>
        <time>2026-02-02T15:29:25Z</time>
      </trkpt>
      <trkpt lat="45.98095" lon="6.57497">
        <ele>2334.1</ele>
        <time>2026-02-02T15:29:26Z</time>
      </trkpt>
      <trkpt lat="45.98095" lon="6.57497">
        <ele>2334.1</ele>
        <time>2026-02-02T15:29:27Z</time>
      </trkpt>
      <trkpt lat="45.98094" lon="6.57497">
        <ele>2334.1</ele>
        <time>2026-02-02T15:29:28Z</time>
      </trkpt>
      <trkpt lat="45.98094" lon="6.57497">
        <ele>2334.1</ele>
        <time>2026-02-02T15:29:29Z</time>
      </trkpt>
      <trkpt lat="45.98094" lon="6.57497">
        <ele>2334</ele>
        <time>2026-02-02T15:29:30Z</time>
      </trkpt>
      <trkpt lat="45.98094" lon="6.57497">
        <ele>2334</ele>
        <time>2026-02-02T15:29:31Z</time>
      </trkpt>
      <trkpt lat="45.98094" lon="6.57497">
        <ele>2334</ele>
        <time>2026-02-02T15:29:32Z</time>
      </trkpt>
      <trkpt lat="45.98094" lon="6.57497">
        <ele>2334</ele>
        <time>2026-02-02T15:29:33Z</time>
      </trkpt>
      <trkpt lat="45.98094" lon="6.57497">
        <ele>2334</ele>
        <time>2026-02-02T15:29:34Z</time>
      </trkpt>
      <trkpt lat="45.98094" lon="6.57497">
        <ele>2334</ele>
        <time>2026-02-02T15:29:35Z</time>
      </trkpt>
      <trkpt lat="45.98094" lon="6.57497">
        <ele>2333.9</ele>
        <time>2026-02-02T15:29:36Z</time>
      </trkpt>
      <trkpt lat="45.98094" lon="6.57497">
        <ele>2333.9</ele>
        <time>2026-02-02T15:29:37Z</time>
      </trkpt>
      <trkpt lat="45.98094" lon="6.57497">
        <ele>2333.9</ele>
        <time>2026-02-02T15:29:38Z</time>
      </trkpt>
      <trkpt lat="45.98094" lon="6.57497">
        <ele>2333.9</ele>
        <time>2026-02-02T15:29:39Z</time>
      </trkpt>
      <trkpt lat="45.98094" lon="6.57497">
        <ele>2333.9</ele>
        <time>2026-02-02T15:29:40Z</time>
      </trkpt>
      <trkpt lat="45.98094" lon="6.57497">
        <ele>2333.9</ele>
        <time>2026-02-02T15:29:41Z</time>
      </trkpt>
      <trkpt lat="45.98094" lon="6.57497">
        <ele>2333.9</ele>
        <time>2026-02-02T15:29:42Z</time>
      </trkpt>
      <trkpt lat="45.98094" lon="6.57497">
        <ele>2333.9</ele>
        <time>2026-02-02T15:29:43Z</time>
      </trkpt>
      <trkpt lat="45.98094" lon="6.57497">
        <ele>2333.9</ele>
        <time>2026-02-02T15:29:44Z</time>
      </trkpt>
      <trkpt lat="45.98094" lon="6.57497">
        <ele>2333.9</ele>
        <time>2026-02-02T15:29:45Z</time>
      </trkpt>
      <trkpt lat="45.98094" lon="6.57497">
        <ele>2333.8</ele>
        <time>2026-02-02T15:29:46Z</time>
      </trkpt>
      <trkpt lat="45.98094" lon="6.57497">
        <ele>2333.8</ele>
        <time>2026-02-02T15:29:47Z</time>
      </trkpt>
      <trkpt lat="45.98094" lon="6.57497">
        <ele>2333.8</ele>
        <time>2026-02-02T15:29:48Z</time>
      </trkpt>
      <trkpt lat="45.98094" lon="6.57497">
        <ele>2333.8</ele>
        <time>2026-02-02T15:29:49Z</time>
      </trkpt>
      <trkpt lat="45.98094" lon="6.57497">
        <ele>2333.8</ele>
        <time>2026-02-02T15:29:50Z</time>
      </trkpt>
      <trkpt lat="45.98094" lon="6.57497">
        <ele>2333.8</ele>
        <time>2026-02-02T15:29:51Z</time>
      </trkpt>
      <trkpt lat="45.98094" lon="6.57497">
        <ele>2333.8</ele>
        <time>2026-02-02T15:29:52Z</time>
      </trkpt>
      <trkpt lat="45.98094" lon="6.57497">
        <ele>2333.7</ele>
        <time>2026-02-02T15:29:53Z</time>
      </trkpt>
      <trkpt lat="45.98093" lon="6.57497">
        <ele>2333.7</ele>
        <time>2026-02-02T15:29:54Z</time>
      </trkpt>
      <trkpt lat="45.98093" lon="6.57497">
        <ele>2333.7</ele>
        <time>2026-02-02T15:29:55Z</time>
      </trkpt>
      <trkpt lat="45.98093" lon="6.57497">
        <ele>2333.6</ele>
        <time>2026-02-02T15:29:56Z</time>
      </trkpt>
      <trkpt lat="45.98093" lon="6.57497">
        <ele>2333.6</ele>
        <time>2026-02-02T15:29:57Z</time>
      </trkpt>
      <trkpt lat="45.98093" lon="6.57497">
        <ele>2333.6</ele>
        <time>2026-02-02T15:29:58Z</time>
      </trkpt>
      <trkpt lat="45.98092" lon="6.57496">
        <ele>2333.5</ele>
        <time>2026-02-02T15:29:59Z</time>
      </trkpt>
      <trkpt lat="45.98092" lon="6.57496">
        <ele>2333.4</ele>
        <time>2026-02-02T15:30:00Z</time>
      </trkpt>
      <trkpt lat="45.98092" lon="6.57496">
        <ele>2333.4</ele>
        <time>2026-02-02T15:30:01Z</time>
      </trkpt>
      <trkpt lat="45.98092" lon="6.57496">
        <ele>2333.4</ele>
        <time>2026-02-02T15:30:02Z</time>
      </trkpt>
      <trkpt lat="45.98092" lon="6.57496">
        <ele>2333.4</ele>
        <time>2026-02-02T15:30:03Z</time>
      </trkpt>
      <trkpt lat="45.98092" lon="6.57496">
        <ele>2333.4</ele>
        <time>2026-02-02T15:30:04Z</time>
      </trkpt>
      <trkpt lat="45.98092" lon="6.57496">
        <ele>2333.4</ele>
        <time>2026-02-02T15:30:05Z</time>
      </trkpt>
      <trkpt lat="45.98092" lon="6.57496">
        <ele>2333.4</ele>
        <time>2026-02-02T15:30:06Z</time>
      </trkpt>
      <trkpt lat="45.98092" lon="6.57496">
        <ele>2333.4</ele>
        <time>2026-02-02T15:30:07Z</time>
      </trkpt>
      <trkpt lat="45.98092" lon="6.57496">
        <ele>2333.4</ele>
        <time>2026-02-02T15:30:08Z</time>
      </trkpt>
      <trkpt lat="45.98092" lon="6.57496">
        <ele>2333.4</ele>
        <time>2026-02-02T15:30:09Z</time>
      </trkpt>
      <trkpt lat="45.98092" lon="6.57496">
        <ele>2333.4</ele>
        <time>2026-02-02T15:30:10Z</time>
      </trkpt>
      <trkpt lat="45.98092" lon="6.57496">
        <ele>2333.4</ele>
        <time>2026-02-02T15:30:11Z</time>
      </trkpt>
      <trkpt lat="45.98092" lon="6.57496">
        <ele>2333.4</ele>
        <time>2026-02-02T15:30:12Z</time>
      </trkpt>
      <trkpt lat="45.98092" lon="6.57496">
        <ele>2333.3</ele>
        <time>2026-02-02T15:30:13Z</time>
      </trkpt>
      <trkpt lat="45.98092" lon="6.57496">
        <ele>2333.3</ele>
        <time>2026-02-02T15:30:14Z</time>
      </trkpt>
      <trkpt lat="45.98092" lon="6.57496">
        <ele>2333.3</ele>
        <time>2026-02-02T15:30:15Z</time>
      </trkpt>
      <trkpt lat="45.98092" lon="6.57496">
        <ele>2333.3</ele>
        <time>2026-02-02T15:30:16Z</time>
      </trkpt>
      <trkpt lat="45.98092" lon="6.57496">
        <ele>2333.3</ele>
        <time>2026-02-02T15:30:17Z</time>
      </trkpt>
      <trkpt lat="45.98092" lon="6.57496">
        <ele>2333.3</ele>
        <time>2026-02-02T15:30:18Z</time>
      </trkpt>
      <trkpt lat="45.98092" lon="6.57496">
        <ele>2333.3</ele>
        <time>2026-02-02T15:30:19Z</time>
      </trkpt>
      <trkpt lat="45.98092" lon="6.57496">
        <ele>2333.3</ele>
        <time>2026-02-02T15:30:20Z</time>
      </trkpt>
      <trkpt lat="45.98092" lon="6.57496">
        <ele>2333.3</ele>
        <time>2026-02-02T15:30:21Z</time>
      </trkpt>
      <trkpt lat="45.98092" lon="6.57496">
        <ele>2333.3</ele>
        <time>2026-02-02T15:30:22Z</time>
      </trkpt>
      <trkpt lat="45.98092" lon="6.57496">
        <ele>2333.3</ele>
        <time>2026-02-02T15:30:23Z</time>
      </trkpt>
      <trkpt lat="45.98092" lon="6.57496">
        <ele>2333.3</ele>
        <time>2026-02-02T15:30:24Z</time>
      </trkpt>
      <trkpt lat="45.98092" lon="6.57496">
        <ele>2333.3</ele>
        <time>2026-02-02T15:30:25Z</time>
      </trkpt>
      <trkpt lat="45.98092" lon="6.57496">
        <ele>2333.3</ele>
        <time>2026-02-02T15:30:26Z</time>
      </trkpt>
      <trkpt lat="45.98092" lon="6.57497">
        <ele>2333.3</ele>
        <time>2026-02-02T15:30:27Z</time>
      </trkpt>
      <trkpt lat="45.98092" lon="6.57497">
        <ele>2333.2</ele>
        <time>2026-02-02T15:30:28Z</time>
      </trkpt>
      <trkpt lat="45.98093" lon="6.57498">
        <ele>2333.1</ele>
        <time>2026-02-02T15:30:29Z</time>
      </trkpt>
      <trkpt lat="45.98093" lon="6.57499">
        <ele>2333</ele>
        <time>2026-02-02T15:30:30Z</time>
      </trkpt>
      <trkpt lat="45.98094" lon="6.575">
        <ele>2332.8</ele>
        <time>2026-02-02T15:30:31Z</time>
      </trkpt>
      <trkpt lat="45.98094" lon="6.57502">
        <ele>2332.6</ele>
        <time>2026-02-02T15:30:32Z</time>
      </trkpt>
      <trkpt lat="45.98095" lon="6.57501">
        <ele>2332.4</ele>
        <time>2026-02-02T15:30:33Z</time>
      </trkpt>
      <trkpt lat="45.98096" lon="6.57503">
        <ele>2332</ele>
        <time>2026-02-02T15:30:34Z</time>
      </trkpt>
      <trkpt lat="45.98098" lon="6.57506">
        <ele>2331.5</ele>
        <time>2026-02-02T15:30:35Z</time>
      </trkpt>
      <trkpt lat="45.98098" lon="6.57508">
        <ele>2331.4</ele>
        <time>2026-02-02T15:30:36Z</time>
      </trkpt>
      <trkpt lat="45.98098" lon="6.57512">
        <ele>2330.8</ele>
        <time>2026-02-02T15:30:37Z</time>
      </trkpt>
      <trkpt lat="45.98098" lon="6.57513">
        <ele>2330.7</ele>
        <time>2026-02-02T15:30:38Z</time>
      </trkpt>
      <trkpt lat="45.98095" lon="6.57515">
        <ele>2330.1</ele>
        <time>2026-02-02T15:30:39Z</time>
      </trkpt>
      <trkpt lat="45.98094" lon="6.57515">
        <ele>2329.9</ele>
        <time>2026-02-02T15:30:40Z</time>
      </trkpt>
      <trkpt lat="45.98091" lon="6.57513">
        <ele>2329.4</ele>
        <time>2026-02-02T15:30:41Z</time>
      </trkpt>
      <trkpt lat="45.98089" lon="6.57511">
        <ele>2328.9</ele>
        <time>2026-02-02T15:30:42Z</time>
      </trkpt>
      <trkpt lat="45.98086" lon="6.57509">
        <ele>2328.3</ele>
        <time>2026-02-02T15:30:43Z</time>
      </trkpt>
      <trkpt lat="45.98085" lon="6.57508">
        <ele>2328</ele>
        <time>2026-02-02T15:30:44Z</time>
      </trkpt>
      <trkpt lat="45.98083" lon="6.57501">
        <ele>2327.1</ele>
        <time>2026-02-02T15:30:45Z</time>
      </trkpt>
      <trkpt lat="45.9808" lon="6.57499">
        <ele>2326.5</ele>
        <time>2026-02-02T15:30:46Z</time>
      </trkpt>
      <trkpt lat="45.98079" lon="6.57499">
        <ele>2326.3</ele>
        <time>2026-02-02T15:30:47Z</time>
      </trkpt>
      <trkpt lat="45.98076" lon="6.57498">
        <ele>2325.7</ele>
        <time>2026-02-02T15:30:48Z</time>
      </trkpt>
      <trkpt lat="45.98075" lon="6.57498">
        <ele>2325.5</ele>
        <time>2026-02-02T15:30:49Z</time>
      </trkpt>
      <trkpt lat="45.98074" lon="6.57498">
        <ele>2325.4</ele>
        <time>2026-02-02T15:30:50Z</time>
      </trkpt>
      <trkpt lat="45.98074" lon="6.57498">
        <ele>2325.2</ele>
        <time>2026-02-02T15:30:51Z</time>
      </trkpt>
      <trkpt lat="45.98073" lon="6.57497">
        <ele>2325.1</ele>
        <time>2026-02-02T15:30:52Z</time>
      </trkpt>
      <trkpt lat="45.98072" lon="6.57497">
        <ele>2324.9</ele>
        <time>2026-02-02T15:30:53Z</time>
      </trkpt>
      <trkpt lat="45.98072" lon="6.57497">
        <ele>2324.9</ele>
        <time>2026-02-02T15:30:54Z</time>
      </trkpt>
      <trkpt lat="45.98072" lon="6.57497">
        <ele>2324.9</ele>
        <time>2026-02-02T15:30:55Z</time>
      </trkpt>
      <trkpt lat="45.98073" lon="6.57497">
        <ele>2324.9</ele>
        <time>2026-02-02T15:30:56Z</time>
      </trkpt>
      <trkpt lat="45.98072" lon="6.57497">
        <ele>2324.7</ele>
        <time>2026-02-02T15:30:57Z</time>
      </trkpt>
      <trkpt lat="45.98071" lon="6.57497">
        <ele>2324.5</ele>
        <time>2026-02-02T15:30:58Z</time>
      </trkpt>
      <trkpt lat="45.9807" lon="6.57498">
        <ele>2324.4</ele>
        <time>2026-02-02T15:30:59Z</time>
      </trkpt>
      <trkpt lat="45.98069" lon="6.57497">
        <ele>2324.2</ele>
        <time>2026-02-02T15:31:00Z</time>
      </trkpt>
      <trkpt lat="45.98069" lon="6.57498">
        <ele>2324</ele>
        <time>2026-02-02T15:31:01Z</time>
      </trkpt>
      <trkpt lat="45.98068" lon="6.57501">
        <ele>2323.6</ele>
        <time>2026-02-02T15:31:02Z</time>
      </trkpt>
      <trkpt lat="45.9807" lon="6.57505">
        <ele>2323</ele>
        <time>2026-02-02T15:31:03Z</time>
      </trkpt>
      <trkpt lat="45.9807" lon="6.57506">
        <ele>2322.7</ele>
        <time>2026-02-02T15:31:04Z</time>
      </trkpt>
      <trkpt lat="45.98073" lon="6.5751">
        <ele>2321.9</ele>
        <time>2026-02-02T15:31:05Z</time>
      </trkpt>
      <trkpt lat="45.98074" lon="6.57511">
        <ele>2321.6</ele>
        <time>2026-02-02T15:31:06Z</time>
      </trkpt>
      <trkpt lat="45.98077" lon="6.57514">
        <ele>2320.9</ele>
        <time>2026-02-02T15:31:07Z</time>
      </trkpt>
      <trkpt lat="45.98078" lon="6.57518">
        <ele>2320.2</ele>
        <time>2026-02-02T15:31:08Z</time>
      </trkpt>
      <trkpt lat="45.98078" lon="6.57522">
        <ele>2319.6</ele>
        <time>2026-02-02T15:31:09Z</time>
      </trkpt>
      <trkpt lat="45.98078" lon="6.57526">
        <ele>2318.9</ele>
        <time>2026-02-02T15:31:10Z</time>
      </trkpt>
      <trkpt lat="45.98078" lon="6.57528">
        <ele>2318.7</ele>
        <time>2026-02-02T15:31:11Z</time>
      </trkpt>
      <trkpt lat="45.98076" lon="6.57529">
        <ele>2318</ele>
        <time>2026-02-02T15:31:12Z</time>
      </trkpt>
      <trkpt lat="45.98074" lon="6.57529">
        <ele>2317.7</ele>
        <time>2026-02-02T15:31:13Z</time>
      </trkpt>
      <trkpt lat="45.98072" lon="6.57526">
        <ele>2317</ele>
        <time>2026-02-02T15:31:14Z</time>
      </trkpt>
      <trkpt lat="45.98069" lon="6.57523">
        <ele>2316.1</ele>
        <time>2026-02-02T15:31:15Z</time>
      </trkpt>
      <trkpt lat="45.98066" lon="6.57521">
        <ele>2315.3</ele>
        <time>2026-02-02T15:31:16Z</time>
      </trkpt>
      <trkpt lat="45.98063" lon="6.5752">
        <ele>2314.4</ele>
        <time>2026-02-02T15:31:17Z</time>
      </trkpt>
      <trkpt lat="45.98059" lon="6.57518">
        <ele>2313.5</ele>
        <time>2026-02-02T15:31:18Z</time>
      </trkpt>
      <trkpt lat="45.98056" lon="6.57517">
        <ele>2312.7</ele>
        <time>2026-02-02T15:31:19Z</time>
      </trkpt>
      <trkpt lat="45.98055" lon="6.57517">
        <ele>2312.5</ele>
        <time>2026-02-02T15:31:20Z</time>
      </trkpt>
      <trkpt lat="45.98054" lon="6.57516">
        <ele>2312.2</ele>
        <time>2026-02-02T15:31:21Z</time>
      </trkpt>
      <trkpt lat="45.98054" lon="6.57515">
        <ele>2312</ele>
        <time>2026-02-02T15:31:22Z</time>
      </trkpt>
      <trkpt lat="45.98054" lon="6.57515">
        <ele>2312</ele>
        <time>2026-02-02T15:31:23Z</time>
      </trkpt>
      <trkpt lat="45.98054" lon="6.57515">
        <ele>2312</ele>
        <time>2026-02-02T15:31:24Z</time>
      </trkpt>
      <trkpt lat="45.98054" lon="6.57515">
        <ele>2312</ele>
        <time>2026-02-02T15:31:25Z</time>
      </trkpt>
      <trkpt lat="45.98054" lon="6.57515">
        <ele>2312</ele>
        <time>2026-02-02T15:31:26Z</time>
      </trkpt>
      <trkpt lat="45.98054" lon="6.57515">
        <ele>2312</ele>
        <time>2026-02-02T15:31:27Z</time>
      </trkpt>
      <trkpt lat="45.98054" lon="6.57515">
        <ele>2312</ele>
        <time>2026-02-02T15:31:28Z</time>
      </trkpt>
      <trkpt lat="45.98054" lon="6.57515">
        <ele>2312</ele>
        <time>2026-02-02T15:31:29Z</time>
      </trkpt>
      <trkpt lat="45.98054" lon="6.57515">
        <ele>2312</ele>
        <time>2026-02-02T15:31:30Z</time>
      </trkpt>
      <trkpt lat="45.98054" lon="6.57515">
        <ele>2312</ele>
        <time>2026-02-02T15:31:31Z</time>
      </trkpt>
      <trkpt lat="45.98054" lon="6.57515">
        <ele>2312</ele>
        <time>2026-02-02T15:31:32Z</time>
      </trkpt>
      <trkpt lat="45.98054" lon="6.57515">
        <ele>2311.9</ele>
        <time>2026-02-02T15:31:33Z</time>
      </trkpt>
      <trkpt lat="45.98054" lon="6.57514">
        <ele>2311.8</ele>
        <time>2026-02-02T15:31:34Z</time>
      </trkpt>
      <trkpt lat="45.98052" lon="6.57514">
        <ele>2311.5</ele>
        <time>2026-02-02T15:31:35Z</time>
      </trkpt>
      <trkpt lat="45.98051" lon="6.57516">
        <ele>2311</ele>
        <time>2026-02-02T15:31:36Z</time>
      </trkpt>
      <trkpt lat="45.98051" lon="6.57517">
        <ele>2310.8</ele>
        <time>2026-02-02T15:31:37Z</time>
      </trkpt>
      <trkpt lat="45.9805" lon="6.57519">
        <ele>2310.6</ele>
        <time>2026-02-02T15:31:38Z</time>
      </trkpt>
      <trkpt lat="45.98053" lon="6.57522">
        <ele>2309.7</ele>
        <time>2026-02-02T15:31:39Z</time>
      </trkpt>
      <trkpt lat="45.98058" lon="6.57524">
        <ele>2308.4</ele>
        <time>2026-02-02T15:31:40Z</time>
      </trkpt>
      <trkpt lat="45.98061" lon="6.57528">
        <ele>2307.5</ele>
        <time>2026-02-02T15:31:41Z</time>
      </trkpt>
      <trkpt lat="45.98061" lon="6.5753">
        <ele>2307.1</ele>
        <time>2026-02-02T15:31:42Z</time>
      </trkpt>
      <trkpt lat="45.98063" lon="6.57534">
        <ele>2306.3</ele>
        <time>2026-02-02T15:31:43Z</time>
      </trkpt>
      <trkpt lat="45.98064" lon="6.57539">
        <ele>2305.6</ele>
        <time>2026-02-02T15:31:44Z</time>
      </trkpt>
      <trkpt lat="45.98064" lon="6.57543">
        <ele>2304.9</ele>
        <time>2026-02-02T15:31:45Z</time>
      </trkpt>
      <trkpt lat="45.98065" lon="6.57545">
        <ele>2304.5</ele>
        <time>2026-02-02T15:31:46Z</time>
      </trkpt>
      <trkpt lat="45.98065" lon="6.57547">
        <ele>2304.1</ele>
        <time>2026-02-02T15:31:47Z</time>
      </trkpt>
      <trkpt lat="45.98066" lon="6.57548">
        <ele>2303.8</ele>
        <time>2026-02-02T15:31:48Z</time>
      </trkpt>
      <trkpt lat="45.98064" lon="6.57549">
        <ele>2303.4</ele>
        <time>2026-02-02T15:31:49Z</time>
      </trkpt>
      <trkpt lat="45.98063" lon="6.57548">
        <ele>2303.1</ele>
        <time>2026-02-02T15:31:50Z</time>
      </trkpt>
      <trkpt lat="45.98062" lon="6.57548">
        <ele>2302.8</ele>
        <time>2026-02-02T15:31:51Z</time>
      </trkpt>
      <trkpt lat="45.98059" lon="6.57545">
        <ele>2302</ele>
        <time>2026-02-02T15:31:52Z</time>
      </trkpt>
      <trkpt lat="45.98056" lon="6.57542">
        <ele>2301.2</ele>
        <time>2026-02-02T15:31:53Z</time>
      </trkpt>
      <trkpt lat="45.98054" lon="6.5754">
        <ele>2300.5</ele>
        <time>2026-02-02T15:31:54Z</time>
      </trkpt>
      <trkpt lat="45.98051" lon="6.57537">
        <ele>2299.8</ele>
        <time>2026-02-02T15:31:55Z</time>
      </trkpt>
      <trkpt lat="45.98048" lon="6.57535">
        <ele>2299.2</ele>
        <time>2026-02-02T15:31:56Z</time>
      </trkpt>
      <trkpt lat="45.98046" lon="6.57534">
        <ele>2298.6</ele>
        <time>2026-02-02T15:31:57Z</time>
      </trkpt>
      <trkpt lat="45.98045" lon="6.57533">
        <ele>2298.3</ele>
        <time>2026-02-02T15:31:58Z</time>
      </trkpt>
      <trkpt lat="45.98042" lon="6.57533">
        <ele>2297.7</ele>
        <time>2026-02-02T15:31:59Z</time>
      </trkpt>
      <trkpt lat="45.98041" lon="6.57533">
        <ele>2297.4</ele>
        <time>2026-02-02T15:32:00Z</time>
      </trkpt>
      <trkpt lat="45.98039" lon="6.57533">
        <ele>2297</ele>
        <time>2026-02-02T15:32:01Z</time>
      </trkpt>
      <trkpt lat="45.98038" lon="6.57534">
        <ele>2296.7</ele>
        <time>2026-02-02T15:32:02Z</time>
      </trkpt>
      <trkpt lat="45.98039" lon="6.57538">
        <ele>2296.1</ele>
        <time>2026-02-02T15:32:03Z</time>
      </trkpt>
      <trkpt lat="45.9804" lon="6.57539">
        <ele>2295.7</ele>
        <time>2026-02-02T15:32:04Z</time>
      </trkpt>
      <trkpt lat="45.9804" lon="6.57541">
        <ele>2295.5</ele>
        <time>2026-02-02T15:32:05Z</time>
      </trkpt>
      <trkpt lat="45.9804" lon="6.57541">
        <ele>2295.4</ele>
        <time>2026-02-02T15:32:06Z</time>
      </trkpt>
      <trkpt lat="45.9804" lon="6.57543">
        <ele>2295.1</ele>
        <time>2026-02-02T15:32:07Z</time>
      </trkpt>
      <trkpt lat="45.98039" lon="6.57543">
        <ele>2294.9</ele>
        <time>2026-02-02T15:32:08Z</time>
      </trkpt>
      <trkpt lat="45.98036" lon="6.57541">
        <ele>2294.3</ele>
        <time>2026-02-02T15:32:09Z</time>
      </trkpt>
      <trkpt lat="45.98033" lon="6.57541">
        <ele>2293.5</ele>
        <time>2026-02-02T15:32:10Z</time>
      </trkpt>
      <trkpt lat="45.98032" lon="6.57541">
        <ele>2293.3</ele>
        <time>2026-02-02T15:32:11Z</time>
      </trkpt>
      <trkpt lat="45.9803" lon="6.57541">
        <ele>2293</ele>
        <time>2026-02-02T15:32:12Z</time>
      </trkpt>
      <trkpt lat="45.9803" lon="6.57541">
        <ele>2292.8</ele>
        <time>2026-02-02T15:32:13Z</time>
      </trkpt>
      <trkpt lat="45.98029" lon="6.57542">
        <ele>2292.6</ele>
        <time>2026-02-02T15:32:14Z</time>
      </trkpt>
      <trkpt lat="45.98029" lon="6.57542">
        <ele>2292.5</ele>
        <time>2026-02-02T15:32:15Z</time>
      </trkpt>
      <trkpt lat="45.98029" lon="6.57542">
        <ele>2292.5</ele>
        <time>2026-02-02T15:32:16Z</time>
      </trkpt>
      <trkpt lat="45.98029" lon="6.57542">
        <ele>2292.5</ele>
        <time>2026-02-02T15:32:17Z</time>
      </trkpt>
      <trkpt lat="45.98029" lon="6.57543">
        <ele>2292.5</ele>
        <time>2026-02-02T15:32:18Z</time>
      </trkpt>
      <trkpt lat="45.98029" lon="6.57543">
        <ele>2292.5</ele>
        <time>2026-02-02T15:32:19Z</time>
      </trkpt>
      <trkpt lat="45.98029" lon="6.57543">
        <ele>2292.5</ele>
        <time>2026-02-02T15:32:20Z</time>
      </trkpt>
      <trkpt lat="45.98029" lon="6.57543">
        <ele>2292.4</ele>
        <time>2026-02-02T15:32:21Z</time>
      </trkpt>
      <trkpt lat="45.98029" lon="6.57543">
        <ele>2292.4</ele>
        <time>2026-02-02T15:32:22Z</time>
      </trkpt>
      <trkpt lat="45.98029" lon="6.57543">
        <ele>2292.4</ele>
        <time>2026-02-02T15:32:23Z</time>
      </trkpt>
      <trkpt lat="45.98029" lon="6.57543">
        <ele>2292.4</ele>
        <time>2026-02-02T15:32:24Z</time>
      </trkpt>
      <trkpt lat="45.98029" lon="6.57543">
        <ele>2292.4</ele>
        <time>2026-02-02T15:32:25Z</time>
      </trkpt>
      <trkpt lat="45.98029" lon="6.57543">
        <ele>2292.4</ele>
        <time>2026-02-02T15:32:26Z</time>
      </trkpt>
      <trkpt lat="45.98029" lon="6.57544">
        <ele>2292.3</ele>
        <time>2026-02-02T15:32:27Z</time>
      </trkpt>
      <trkpt lat="45.98029" lon="6.57544">
        <ele>2292.3</ele>
        <time>2026-02-02T15:32:28Z</time>
      </trkpt>
      <trkpt lat="45.98029" lon="6.57544">
        <ele>2292.3</ele>
        <time>2026-02-02T15:32:29Z</time>
      </trkpt>
      <trkpt lat="45.98028" lon="6.57544">
        <ele>2292.3</ele>
        <time>2026-02-02T15:32:30Z</time>
      </trkpt>
      <trkpt lat="45.98028" lon="6.57544">
        <ele>2292.3</ele>
        <time>2026-02-02T15:32:31Z</time>
      </trkpt>
      <trkpt lat="45.98028" lon="6.57544">
        <ele>2292.2</ele>
        <time>2026-02-02T15:32:32Z</time>
      </trkpt>
      <trkpt lat="45.98028" lon="6.57544">
        <ele>2292.2</ele>
        <time>2026-02-02T15:32:33Z</time>
      </trkpt>
      <trkpt lat="45.98028" lon="6.57544">
        <ele>2292.2</ele>
        <time>2026-02-02T15:32:34Z</time>
      </trkpt>
      <trkpt lat="45.98028" lon="6.57544">
        <ele>2292.2</ele>
        <time>2026-02-02T15:32:35Z</time>
      </trkpt>
      <trkpt lat="45.98028" lon="6.57545">
        <ele>2292.2</ele>
        <time>2026-02-02T15:32:36Z</time>
      </trkpt>
      <trkpt lat="45.98028" lon="6.57545">
        <ele>2292.2</ele>
        <time>2026-02-02T15:32:37Z</time>
      </trkpt>
      <trkpt lat="45.98028" lon="6.57545">
        <ele>2292.1</ele>
        <time>2026-02-02T15:32:38Z</time>
      </trkpt>
      <trkpt lat="45.98028" lon="6.57545">
        <ele>2292.1</ele>
        <time>2026-02-02T15:32:39Z</time>
      </trkpt>
      <trkpt lat="45.98028" lon="6.57545">
        <ele>2292.1</ele>
        <time>2026-02-02T15:32:40Z</time>
      </trkpt>
      <trkpt lat="45.98028" lon="6.57545">
        <ele>2292.1</ele>
        <time>2026-02-02T15:32:41Z</time>
      </trkpt>
      <trkpt lat="45.98028" lon="6.57545">
        <ele>2292.1</ele>
        <time>2026-02-02T15:32:42Z</time>
      </trkpt>
      <trkpt lat="45.98028" lon="6.57545">
        <ele>2292.1</ele>
        <time>2026-02-02T15:32:43Z</time>
      </trkpt>
      <trkpt lat="45.98028" lon="6.57545">
        <ele>2292</ele>
        <time>2026-02-02T15:32:44Z</time>
      </trkpt>
      <trkpt lat="45.98028" lon="6.57545">
        <ele>2292</ele>
        <time>2026-02-02T15:32:45Z</time>
      </trkpt>
      <trkpt lat="45.98028" lon="6.57546">
        <ele>2292</ele>
        <time>2026-02-02T15:32:46Z</time>
      </trkpt>
      <trkpt lat="45.98028" lon="6.57546">
        <ele>2292</ele>
        <time>2026-02-02T15:32:47Z</time>
      </trkpt>
      <trkpt lat="45.98028" lon="6.57546">
        <ele>2292</ele>
        <time>2026-02-02T15:32:48Z</time>
      </trkpt>
      <trkpt lat="45.98028" lon="6.57546">
        <ele>2291.9</ele>
        <time>2026-02-02T15:32:49Z</time>
      </trkpt>
      <trkpt lat="45.98028" lon="6.57546">
        <ele>2291.9</ele>
        <time>2026-02-02T15:32:50Z</time>
      </trkpt>
      <trkpt lat="45.98028" lon="6.57546">
        <ele>2291.9</ele>
        <time>2026-02-02T15:32:51Z</time>
      </trkpt>
      <trkpt lat="45.98028" lon="6.57546">
        <ele>2291.9</ele>
        <time>2026-02-02T15:32:52Z</time>
      </trkpt>
      <trkpt lat="45.98028" lon="6.57546">
        <ele>2291.9</ele>
        <time>2026-02-02T15:32:53Z</time>
      </trkpt>
      <trkpt lat="45.98028" lon="6.57546">
        <ele>2291.9</ele>
        <time>2026-02-02T15:32:54Z</time>
      </trkpt>
      <trkpt lat="45.98028" lon="6.57547">
        <ele>2291.8</ele>
        <time>2026-02-02T15:32:55Z</time>
      </trkpt>
      <trkpt lat="45.98028" lon="6.57547">
        <ele>2291.8</ele>
        <time>2026-02-02T15:32:56Z</time>
      </trkpt>
      <trkpt lat="45.98028" lon="6.57547">
        <ele>2291.8</ele>
        <time>2026-02-02T15:32:57Z</time>
      </trkpt>
      <trkpt lat="45.98028" lon="6.57547">
        <ele>2291.8</ele>
        <time>2026-02-02T15:32:58Z</time>
      </trkpt>
      <trkpt lat="45.98028" lon="6.57547">
        <ele>2291.8</ele>
        <time>2026-02-02T15:32:59Z</time>
      </trkpt>
      <trkpt lat="45.98028" lon="6.57547">
        <ele>2291.8</ele>
        <time>2026-02-02T15:33:00Z</time>
      </trkpt>
      <trkpt lat="45.98028" lon="6.57547">
        <ele>2291.7</ele>
        <time>2026-02-02T15:33:01Z</time>
      </trkpt>
      <trkpt lat="45.98028" lon="6.57547">
        <ele>2291.7</ele>
        <time>2026-02-02T15:33:02Z</time>
      </trkpt>
      <trkpt lat="45.98028" lon="6.57547">
        <ele>2291.7</ele>
        <time>2026-02-02T15:33:03Z</time>
      </trkpt>
      <trkpt lat="45.98028" lon="6.57548">
        <ele>2291.7</ele>
        <time>2026-02-02T15:33:04Z</time>
      </trkpt>
      <trkpt lat="45.98028" lon="6.57548">
        <ele>2291.7</ele>
        <time>2026-02-02T15:33:05Z</time>
      </trkpt>
      <trkpt lat="45.98028" lon="6.57548">
        <ele>2291.6</ele>
        <time>2026-02-02T15:33:06Z</time>
      </trkpt>
      <trkpt lat="45.9803" lon="6.57551">
        <ele>2293.2</ele>
        <time>2026-02-02T15:33:07Z</time>
      </trkpt>
      <trkpt lat="45.98033" lon="6.57556">
        <ele>2294.8</ele>
        <time>2026-02-02T15:33:08Z</time>
      </trkpt>
      <trkpt lat="45.98035" lon="6.57559">
        <ele>2294.8</ele>
        <time>2026-02-02T15:33:09Z</time>
      </trkpt>
      <trkpt lat="45.98037" lon="6.57562">
        <ele>2296.4</ele>
        <time>2026-02-02T15:33:10Z</time>
      </trkpt>
      <trkpt lat="45.98038" lon="6.57566">
        <ele>2296.4</ele>
        <time>2026-02-02T15:33:11Z</time>
      </trkpt>
      <trkpt lat="45.98039" lon="6.5757">
        <ele>2298.1</ele>
        <time>2026-02-02T15:33:12Z</time>
      </trkpt>
      <trkpt lat="45.98041" lon="6.57575">
        <ele>2298.5</ele>
        <time>2026-02-02T15:33:13Z</time>
      </trkpt>
      <trkpt lat="45.98042" lon="6.57579">
        <ele>2300.7</ele>
        <time>2026-02-02T15:33:14Z</time>
      </trkpt>
      <trkpt lat="45.98044" lon="6.57584">
        <ele>2301.1</ele>
        <time>2026-02-02T15:33:15Z</time>
      </trkpt>
      <trkpt lat="45.98045" lon="6.57589">
        <ele>2303.6</ele>
        <time>2026-02-02T15:33:16Z</time>
      </trkpt>
      <trkpt lat="45.98046" lon="6.57593">
        <ele>2304.1</ele>
        <time>2026-02-02T15:33:17Z</time>
      </trkpt>
      <trkpt lat="45.98046" lon="6.57598">
        <ele>2304.6</ele>
        <time>2026-02-02T15:33:18Z</time>
      </trkpt>
      <trkpt lat="45.98046" lon="6.576">
        <ele>2304.6</ele>
        <time>2026-02-02T15:33:19Z</time>
      </trkpt>
      <trkpt lat="45.98047" lon="6.57604">
        <ele>2305.1</ele>
        <time>2026-02-02T15:33:20Z</time>
      </trkpt>
      <trkpt lat="45.98047" lon="6.57609">
        <ele>2306.3</ele>
        <time>2026-02-02T15:33:21Z</time>
      </trkpt>
      <trkpt lat="45.98048" lon="6.57614">
        <ele>2309.6</ele>
        <time>2026-02-02T15:33:22Z</time>
      </trkpt>
      <trkpt lat="45.98049" lon="6.57619">
        <ele>2310.6</ele>
        <time>2026-02-02T15:33:23Z</time>
      </trkpt>
      <trkpt lat="45.98049" lon="6.57621">
        <ele>2310.6</ele>
        <time>2026-02-02T15:33:24Z</time>
      </trkpt>
      <trkpt lat="45.9805" lon="6.57624">
        <ele>2311.7</ele>
        <time>2026-02-02T15:33:25Z</time>
      </trkpt>
      <trkpt lat="45.9805" lon="6.57625">
        <ele>2311.7</ele>
        <time>2026-02-02T15:33:26Z</time>
      </trkpt>
      <trkpt lat="45.9805" lon="6.57625">
        <ele>2311.7</ele>
        <time>2026-02-02T15:33:27Z</time>
      </trkpt>
      <trkpt lat="45.98046" lon="6.57624">
        <ele>2309.1</ele>
        <time>2026-02-02T15:33:28Z</time>
      </trkpt>
      <trkpt lat="45.98044" lon="6.57623">
        <ele>2306.5</ele>
        <time>2026-02-02T15:33:29Z</time>
      </trkpt>
      <trkpt lat="45.9804" lon="6.57617">
        <ele>2302.4</ele>
        <time>2026-02-02T15:33:30Z</time>
      </trkpt>
      <trkpt lat="45.98037" lon="6.57611">
        <ele>2299.5</ele>
        <time>2026-02-02T15:33:31Z</time>
      </trkpt>
      <trkpt lat="45.98034" lon="6.57606">
        <ele>2296.7</ele>
        <time>2026-02-02T15:33:32Z</time>
      </trkpt>
      <trkpt lat="45.98032" lon="6.57601">
        <ele>2294</ele>
        <time>2026-02-02T15:33:33Z</time>
      </trkpt>
      <trkpt lat="45.9803" lon="6.57597">
        <ele>2293.9</ele>
        <time>2026-02-02T15:33:34Z</time>
      </trkpt>
      <trkpt lat="45.98026" lon="6.57593">
        <ele>2288.9</ele>
        <time>2026-02-02T15:33:35Z</time>
      </trkpt>
      <trkpt lat="45.98024" lon="6.5759">
        <ele>2289</ele>
        <time>2026-02-02T15:33:36Z</time>
      </trkpt>
      <trkpt lat="45.9802" lon="6.57586">
        <ele>2284.7</ele>
        <time>2026-02-02T15:33:37Z</time>
      </trkpt>
      <trkpt lat="45.98017" lon="6.57584">
        <ele>2282.8</ele>
        <time>2026-02-02T15:33:38Z</time>
      </trkpt>
      <trkpt lat="45.98013" lon="6.57581">
        <ele>2281.1</ele>
        <time>2026-02-02T15:33:39Z</time>
      </trkpt>
      <trkpt lat="45.98009" lon="6.57579">
        <ele>2279.3</ele>
        <time>2026-02-02T15:33:40Z</time>
      </trkpt>
      <trkpt lat="45.98005" lon="6.57576">
        <ele>2275.1</ele>
        <time>2026-02-02T15:33:41Z</time>
      </trkpt>
      <trkpt lat="45.98001" lon="6.57573">
        <ele>2273.2</ele>
        <time>2026-02-02T15:33:42Z</time>
      </trkpt>
      <trkpt lat="45.97997" lon="6.57571">
        <ele>2271.1</ele>
        <time>2026-02-02T15:33:43Z</time>
      </trkpt>
      <trkpt lat="45.97993" lon="6.5757">
        <ele>2268.3</ele>
        <time>2026-02-02T15:33:44Z</time>
      </trkpt>
      <trkpt lat="45.9799" lon="6.5757">
        <ele>2267</ele>
        <time>2026-02-02T15:33:45Z</time>
      </trkpt>
      <trkpt lat="45.97987" lon="6.57569">
        <ele>2265.9</ele>
        <time>2026-02-02T15:33:46Z</time>
      </trkpt>
      <trkpt lat="45.97986" lon="6.57569">
        <ele>2265.9</ele>
        <time>2026-02-02T15:33:47Z</time>
      </trkpt>
      <trkpt lat="45.97986" lon="6.57569">
        <ele>2265.9</ele>
        <time>2026-02-02T15:33:48Z</time>
      </trkpt>
      <trkpt lat="45.97986" lon="6.57569">
        <ele>2265.9</ele>
        <time>2026-02-02T15:33:49Z</time>
      </trkpt>
      <trkpt lat="45.97986" lon="6.57569">
        <ele>2265.9</ele>
        <time>2026-02-02T15:33:50Z</time>
      </trkpt>
      <trkpt lat="45.97986" lon="6.57568">
        <ele>2265.9</ele>
        <time>2026-02-02T15:33:51Z</time>
      </trkpt>
      <trkpt lat="45.97985" lon="6.57567">
        <ele>2265.9</ele>
        <time>2026-02-02T15:33:52Z</time>
      </trkpt>
      <trkpt lat="45.97985" lon="6.57567">
        <ele>2265.9</ele>
        <time>2026-02-02T15:33:53Z</time>
      </trkpt>
      <trkpt lat="45.97986" lon="6.57567">
        <ele>2265.9</ele>
        <time>2026-02-02T15:33:54Z</time>
      </trkpt>
      <trkpt lat="45.97987" lon="6.57568">
        <ele>2265.9</ele>
        <time>2026-02-02T15:33:55Z</time>
      </trkpt>
      <trkpt lat="45.97987" lon="6.57568">
        <ele>2266</ele>
        <time>2026-02-02T15:33:56Z</time>
      </trkpt>
      <trkpt lat="45.97988" lon="6.57568">
        <ele>2267.1</ele>
        <time>2026-02-02T15:33:57Z</time>
      </trkpt>
      <trkpt lat="45.97989" lon="6.57568">
        <ele>2267.1</ele>
        <time>2026-02-02T15:33:58Z</time>
      </trkpt>
      <trkpt lat="45.97989" lon="6.57569">
        <ele>2267.1</ele>
        <time>2026-02-02T15:33:59Z</time>
      </trkpt>
      <trkpt lat="45.9799" lon="6.5757">
        <ele>2267.1</ele>
        <time>2026-02-02T15:34:00Z</time>
      </trkpt>
      <trkpt lat="45.9799" lon="6.57571">
        <ele>2266.5</ele>
        <time>2026-02-02T15:34:01Z</time>
      </trkpt>
      <trkpt lat="45.9799" lon="6.57574">
        <ele>2266.5</ele>
        <time>2026-02-02T15:34:02Z</time>
      </trkpt>
      <trkpt lat="45.97992" lon="6.57579">
        <ele>2267.6</ele>
        <time>2026-02-02T15:34:03Z</time>
      </trkpt>
      <trkpt lat="45.97995" lon="6.57585">
        <ele>2269.3</ele>
        <time>2026-02-02T15:34:04Z</time>
      </trkpt>
      <trkpt lat="45.97999" lon="6.57589">
        <ele>2270.9</ele>
        <time>2026-02-02T15:34:05Z</time>
      </trkpt>
      <trkpt lat="45.98002" lon="6.57594">
        <ele>2272.4</ele>
        <time>2026-02-02T15:34:06Z</time>
      </trkpt>
      <trkpt lat="45.98004" lon="6.57598">
        <ele>2273.7</ele>
        <time>2026-02-02T15:34:07Z</time>
      </trkpt>
      <trkpt lat="45.98005" lon="6.57601">
        <ele>2272.5</ele>
        <time>2026-02-02T15:34:08Z</time>
      </trkpt>
      <trkpt lat="45.98008" lon="6.57607">
        <ele>2273.8</ele>
        <time>2026-02-02T15:34:09Z</time>
      </trkpt>
      <trkpt lat="45.9801" lon="6.57612">
        <ele>2275.4</ele>
        <time>2026-02-02T15:34:10Z</time>
      </trkpt>
      <trkpt lat="45.98012" lon="6.57615">
        <ele>2277.4</ele>
        <time>2026-02-02T15:34:11Z</time>
      </trkpt>
      <trkpt lat="45.98013" lon="6.5762">
        <ele>2276.9</ele>
        <time>2026-02-02T15:34:12Z</time>
      </trkpt>
      <trkpt lat="45.98014" lon="6.57625">
        <ele>2276.6</ele>
        <time>2026-02-02T15:34:13Z</time>
      </trkpt>
      <trkpt lat="45.98015" lon="6.5763">
        <ele>2279.9</ele>
        <time>2026-02-02T15:34:14Z</time>
      </trkpt>
      <trkpt lat="45.98016" lon="6.57634">
        <ele>2280.3</ele>
        <time>2026-02-02T15:34:15Z</time>
      </trkpt>
      <trkpt lat="45.98016" lon="6.57639">
        <ele>2281.5</ele>
        <time>2026-02-02T15:34:16Z</time>
      </trkpt>
      <trkpt lat="45.98017" lon="6.57645">
        <ele>2282.3</ele>
        <time>2026-02-02T15:34:17Z</time>
      </trkpt>
      <trkpt lat="45.98018" lon="6.5765">
        <ele>2286.4</ele>
        <time>2026-02-02T15:34:18Z</time>
      </trkpt>
      <trkpt lat="45.98018" lon="6.57656">
        <ele>2287.1</ele>
        <time>2026-02-02T15:34:19Z</time>
      </trkpt>
      <trkpt lat="45.98019" lon="6.5766">
        <ele>2287.8</ele>
        <time>2026-02-02T15:34:20Z</time>
      </trkpt>
      <trkpt lat="45.98021" lon="6.57664">
        <ele>2291.9</ele>
        <time>2026-02-02T15:34:21Z</time>
      </trkpt>
      <trkpt lat="45.98021" lon="6.57666">
        <ele>2292.4</ele>
        <time>2026-02-02T15:34:22Z</time>
      </trkpt>
      <trkpt lat="45.98021" lon="6.57668">
        <ele>2292.4</ele>
        <time>2026-02-02T15:34:23Z</time>
      </trkpt>
      <trkpt lat="45.98021" lon="6.57668">
        <ele>2292.4</ele>
        <time>2026-02-02T15:34:24Z</time>
      </trkpt>
      <trkpt lat="45.98021" lon="6.57668">
        <ele>2292.4</ele>
        <time>2026-02-02T15:34:25Z</time>
      </trkpt>
      <trkpt lat="45.98021" lon="6.57669">
        <ele>2292.4</ele>
        <time>2026-02-02T15:34:26Z</time>
      </trkpt>
      <trkpt lat="45.9802" lon="6.57669">
        <ele>2289</ele>
        <time>2026-02-02T15:34:27Z</time>
      </trkpt>
      <trkpt lat="45.9802" lon="6.57669">
        <ele>2289.1</ele>
        <time>2026-02-02T15:34:28Z</time>
      </trkpt>
      <trkpt lat="45.9802" lon="6.5767">
        <ele>2289.1</ele>
        <time>2026-02-02T15:34:29Z</time>
      </trkpt>
      <trkpt lat="45.9802" lon="6.5767">
        <ele>2289.1</ele>
        <time>2026-02-02T15:34:30Z</time>
      </trkpt>
      <trkpt lat="45.98019" lon="6.5767">
        <ele>2289.1</ele>
        <time>2026-02-02T15:34:31Z</time>
      </trkpt>
      <trkpt lat="45.98019" lon="6.57671">
        <ele>2289.1</ele>
        <time>2026-02-02T15:34:32Z</time>
      </trkpt>
      <trkpt lat="45.98018" lon="6.57676">
        <ele>2289.3</ele>
        <time>2026-02-02T15:34:33Z</time>
      </trkpt>
      <trkpt lat="45.98018" lon="6.57677">
        <ele>2289.3</ele>
        <time>2026-02-02T15:34:34Z</time>
      </trkpt>
      <trkpt lat="45.98018" lon="6.57679">
        <ele>2289.4</ele>
        <time>2026-02-02T15:34:35Z</time>
      </trkpt>
      <trkpt lat="45.98016" lon="6.5768">
        <ele>2285.9</ele>
        <time>2026-02-02T15:34:36Z</time>
      </trkpt>
      <trkpt lat="45.98012" lon="6.57676">
        <ele>2282.4</ele>
        <time>2026-02-02T15:34:37Z</time>
      </trkpt>
      <trkpt lat="45.9801" lon="6.57673">
        <ele>2278.8</ele>
        <time>2026-02-02T15:34:38Z</time>
      </trkpt>
      <trkpt lat="45.98008" lon="6.57666">
        <ele>2275.2</ele>
        <time>2026-02-02T15:34:39Z</time>
      </trkpt>
      <trkpt lat="45.98005" lon="6.57662">
        <ele>2271.4</ele>
        <time>2026-02-02T15:34:40Z</time>
      </trkpt>
      <trkpt lat="45.98003" lon="6.57657">
        <ele>2267.4</ele>
        <time>2026-02-02T15:34:41Z</time>
      </trkpt>
      <trkpt lat="45.98" lon="6.57653">
        <ele>2266.7</ele>
        <time>2026-02-02T15:34:42Z</time>
      </trkpt>
      <trkpt lat="45.97996" lon="6.57649">
        <ele>2259.3</ele>
        <time>2026-02-02T15:34:43Z</time>
      </trkpt>
      <trkpt lat="45.97992" lon="6.57644">
        <ele>2255.4</ele>
        <time>2026-02-02T15:34:44Z</time>
      </trkpt>
      <trkpt lat="45.97988" lon="6.57639">
        <ele>2251.7</ele>
        <time>2026-02-02T15:34:45Z</time>
      </trkpt>
      <trkpt lat="45.97984" lon="6.57635">
        <ele>2246.5</ele>
        <time>2026-02-02T15:34:46Z</time>
      </trkpt>
      <trkpt lat="45.9798" lon="6.5763">
        <ele>2244.7</ele>
        <time>2026-02-02T15:34:47Z</time>
      </trkpt>
      <trkpt lat="45.97975" lon="6.57627">
        <ele>2242.1</ele>
        <time>2026-02-02T15:34:48Z</time>
      </trkpt>
      <trkpt lat="45.9797" lon="6.57625">
        <ele>2242</ele>
        <time>2026-02-02T15:34:49Z</time>
      </trkpt>
      <trkpt lat="45.97965" lon="6.57623">
        <ele>2240.3</ele>
        <time>2026-02-02T15:34:50Z</time>
      </trkpt>
      <trkpt lat="45.97962" lon="6.57621">
        <ele>2240.5</ele>
        <time>2026-02-02T15:34:51Z</time>
      </trkpt>
      <trkpt lat="45.97959" lon="6.57619">
        <ele>2239.8</ele>
        <time>2026-02-02T15:34:52Z</time>
      </trkpt>
      <trkpt lat="45.97957" lon="6.57616">
        <ele>2239.9</ele>
        <time>2026-02-02T15:34:53Z</time>
      </trkpt>
      <trkpt lat="45.97956" lon="6.57613">
        <ele>2240.7</ele>
        <time>2026-02-02T15:34:54Z</time>
      </trkpt>
      <trkpt lat="45.97956" lon="6.57612">
        <ele>2240.7</ele>
        <time>2026-02-02T15:34:55Z</time>
      </trkpt>
      <trkpt lat="45.97955" lon="6.57612">
        <ele>2240.7</ele>
        <time>2026-02-02T15:34:56Z</time>
      </trkpt>
      <trkpt lat="45.97955" lon="6.57612">
        <ele>2240</ele>
        <time>2026-02-02T15:34:57Z</time>
      </trkpt>
      <trkpt lat="45.97954" lon="6.57612">
        <ele>2240</ele>
        <time>2026-02-02T15:34:58Z</time>
      </trkpt>
      <trkpt lat="45.97954" lon="6.57612">
        <ele>2240</ele>
        <time>2026-02-02T15:34:59Z</time>
      </trkpt>
      <trkpt lat="45.97953" lon="6.57612">
        <ele>2240</ele>
        <time>2026-02-02T15:35:00Z</time>
      </trkpt>
      <trkpt lat="45.97953" lon="6.57612">
        <ele>2240</ele>
        <time>2026-02-02T15:35:01Z</time>
      </trkpt>
      <trkpt lat="45.97952" lon="6.57612">
        <ele>2240</ele>
        <time>2026-02-02T15:35:02Z</time>
      </trkpt>
      <trkpt lat="45.97952" lon="6.57612">
        <ele>2239.3</ele>
        <time>2026-02-02T15:35:03Z</time>
      </trkpt>
      <trkpt lat="45.97951" lon="6.57612">
        <ele>2239.3</ele>
        <time>2026-02-02T15:35:04Z</time>
      </trkpt>
      <trkpt lat="45.97946" lon="6.57612">
        <ele>2238.5</ele>
        <time>2026-02-02T15:35:05Z</time>
      </trkpt>
      <trkpt lat="45.97943" lon="6.57611">
        <ele>2237.6</ele>
        <time>2026-02-02T15:35:06Z</time>
      </trkpt>
      <trkpt lat="45.9794" lon="6.5761">
        <ele>2236.8</ele>
        <time>2026-02-02T15:35:07Z</time>
      </trkpt>
      <trkpt lat="45.9794" lon="6.57611">
        <ele>2236.1</ele>
        <time>2026-02-02T15:35:08Z</time>
      </trkpt>
      <trkpt lat="45.9794" lon="6.57612">
        <ele>2236.1</ele>
        <time>2026-02-02T15:35:09Z</time>
      </trkpt>
      <trkpt lat="45.97939" lon="6.57613">
        <ele>2236.1</ele>
        <time>2026-02-02T15:35:10Z</time>
      </trkpt>
      <trkpt lat="45.97939" lon="6.57614">
        <ele>2234.8</ele>
        <time>2026-02-02T15:35:11Z</time>
      </trkpt>
      <trkpt lat="45.97939" lon="6.57615">
        <ele>2234.8</ele>
        <time>2026-02-02T15:35:12Z</time>
      </trkpt>
      <trkpt lat="45.97939" lon="6.57616">
        <ele>2234.8</ele>
        <time>2026-02-02T15:35:13Z</time>
      </trkpt>
      <trkpt lat="45.97939" lon="6.57617">
        <ele>2234.8</ele>
        <time>2026-02-02T15:35:14Z</time>
      </trkpt>
      <trkpt lat="45.97941" lon="6.57625">
        <ele>2233.3</ele>
        <time>2026-02-02T15:35:15Z</time>
      </trkpt>
      <trkpt lat="45.97945" lon="6.57631">
        <ele>2231.9</ele>
        <time>2026-02-02T15:35:16Z</time>
      </trkpt>
      <trkpt lat="45.97948" lon="6.57636">
        <ele>2231.9</ele>
        <time>2026-02-02T15:35:17Z</time>
      </trkpt>
      <trkpt lat="45.97951" lon="6.57641">
        <ele>2231.8</ele>
        <time>2026-02-02T15:35:18Z</time>
      </trkpt>
      <trkpt lat="45.97954" lon="6.57646">
        <ele>2231.9</ele>
        <time>2026-02-02T15:35:19Z</time>
      </trkpt>
      <trkpt lat="45.97957" lon="6.5765">
        <ele>2232.3</ele>
        <time>2026-02-02T15:35:20Z</time>
      </trkpt>
      <trkpt lat="45.9796" lon="6.57655">
        <ele>2233</ele>
        <time>2026-02-02T15:35:21Z</time>
      </trkpt>
      <trkpt lat="45.97962" lon="6.5766">
        <ele>2234.3</ele>
        <time>2026-02-02T15:35:22Z</time>
      </trkpt>
      <trkpt lat="45.97965" lon="6.57666">
        <ele>2235.8</ele>
        <time>2026-02-02T15:35:23Z</time>
      </trkpt>
      <trkpt lat="45.97967" lon="6.57673">
        <ele>2237.8</ele>
        <time>2026-02-02T15:35:24Z</time>
      </trkpt>
      <trkpt lat="45.97969" lon="6.57679">
        <ele>2237.9</ele>
        <time>2026-02-02T15:35:25Z</time>
      </trkpt>
      <trkpt lat="45.97971" lon="6.57684">
        <ele>2240.3</ele>
        <time>2026-02-02T15:35:26Z</time>
      </trkpt>
      <trkpt lat="45.97973" lon="6.57689">
        <ele>2243</ele>
        <time>2026-02-02T15:35:27Z</time>
      </trkpt>
      <trkpt lat="45.97974" lon="6.57695">
        <ele>2243.3</ele>
        <time>2026-02-02T15:35:28Z</time>
      </trkpt>
      <trkpt lat="45.97975" lon="6.57699">
        <ele>2243.6</ele>
        <time>2026-02-02T15:35:29Z</time>
      </trkpt>
      <trkpt lat="45.97975" lon="6.57705">
        <ele>2244.1</ele>
        <time>2026-02-02T15:35:30Z</time>
      </trkpt>
      <trkpt lat="45.97975" lon="6.57707">
        <ele>2244.1</ele>
        <time>2026-02-02T15:35:31Z</time>
      </trkpt>
      <trkpt lat="45.97976" lon="6.57711">
        <ele>2244.3</ele>
        <time>2026-02-02T15:35:32Z</time>
      </trkpt>
      <trkpt lat="45.97976" lon="6.57716">
        <ele>2244.5</ele>
        <time>2026-02-02T15:35:33Z</time>
      </trkpt>
      <trkpt lat="45.97976" lon="6.5772">
        <ele>2247.1</ele>
        <time>2026-02-02T15:35:34Z</time>
      </trkpt>
      <trkpt lat="45.97976" lon="6.57726">
        <ele>2247.1</ele>
        <time>2026-02-02T15:35:35Z</time>
      </trkpt>
      <trkpt lat="45.97975" lon="6.57731">
        <ele>2244.5</ele>
        <time>2026-02-02T15:35:36Z</time>
      </trkpt>
      <trkpt lat="45.97975" lon="6.57736">
        <ele>2244.5</ele>
        <time>2026-02-02T15:35:37Z</time>
      </trkpt>
      <trkpt lat="45.97975" lon="6.57742">
        <ele>2244.6</ele>
        <time>2026-02-02T15:35:38Z</time>
      </trkpt>
      <trkpt lat="45.97974" lon="6.57748">
        <ele>2244.6</ele>
        <time>2026-02-02T15:35:39Z</time>
      </trkpt>
      <trkpt lat="45.97975" lon="6.57752">
        <ele>2244.6</ele>
        <time>2026-02-02T15:35:40Z</time>
      </trkpt>
      <trkpt lat="45.97975" lon="6.57752">
        <ele>2244.6</ele>
        <time>2026-02-02T15:35:41Z</time>
      </trkpt>
      <trkpt lat="45.97975" lon="6.57752">
        <ele>2244.6</ele>
        <time>2026-02-02T15:35:42Z</time>
      </trkpt>
      <trkpt lat="45.97975" lon="6.57752">
        <ele>2244.6</ele>
        <time>2026-02-02T15:35:43Z</time>
      </trkpt>
      <trkpt lat="45.97976" lon="6.57752">
        <ele>2244.6</ele>
        <time>2026-02-02T15:35:44Z</time>
      </trkpt>
      <trkpt lat="45.97976" lon="6.57752">
        <ele>2244.7</ele>
        <time>2026-02-02T15:35:45Z</time>
      </trkpt>
      <trkpt lat="45.97976" lon="6.57752">
        <ele>2244.7</ele>
        <time>2026-02-02T15:35:46Z</time>
      </trkpt>
      <trkpt lat="45.97975" lon="6.57753">
        <ele>2244.7</ele>
        <time>2026-02-02T15:35:47Z</time>
      </trkpt>
      <trkpt lat="45.97975" lon="6.57753">
        <ele>2244.7</ele>
        <time>2026-02-02T15:35:48Z</time>
      </trkpt>
      <trkpt lat="45.97975" lon="6.57752">
        <ele>2244.7</ele>
        <time>2026-02-02T15:35:49Z</time>
      </trkpt>
      <trkpt lat="45.97974" lon="6.57752">
        <ele>2244.7</ele>
        <time>2026-02-02T15:35:50Z</time>
      </trkpt>
      <trkpt lat="45.97972" lon="6.57752">
        <ele>2242</ele>
        <time>2026-02-02T15:35:51Z</time>
      </trkpt>
      <trkpt lat="45.97969" lon="6.57748">
        <ele>2239.3</ele>
        <time>2026-02-02T15:35:52Z</time>
      </trkpt>
      <trkpt lat="45.97968" lon="6.57743">
        <ele>2239.4</ele>
        <time>2026-02-02T15:35:53Z</time>
      </trkpt>
      <trkpt lat="45.97966" lon="6.57738">
        <ele>2236.9</ele>
        <time>2026-02-02T15:35:54Z</time>
      </trkpt>
      <trkpt lat="45.97964" lon="6.57733">
        <ele>2237.1</ele>
        <time>2026-02-02T15:35:55Z</time>
      </trkpt>
      <trkpt lat="45.97962" lon="6.57727">
        <ele>2234.8</ele>
        <time>2026-02-02T15:35:56Z</time>
      </trkpt>
      <trkpt lat="45.97958" lon="6.57721">
        <ele>2230.8</ele>
        <time>2026-02-02T15:35:57Z</time>
      </trkpt>
      <trkpt lat="45.97953" lon="6.57714">
        <ele>2229.3</ele>
        <time>2026-02-02T15:35:58Z</time>
      </trkpt>
      <trkpt lat="45.97948" lon="6.57708">
        <ele>2225.9</ele>
        <time>2026-02-02T15:35:59Z</time>
      </trkpt>
      <trkpt lat="45.97942" lon="6.57701">
        <ele>2222.2</ele>
        <time>2026-02-02T15:36:00Z</time>
      </trkpt>
      <trkpt lat="45.97936" lon="6.57695">
        <ele>2220</ele>
        <time>2026-02-02T15:36:01Z</time>
      </trkpt>
      <trkpt lat="45.9793" lon="6.5769">
        <ele>2218.1</ele>
        <time>2026-02-02T15:36:02Z</time>
      </trkpt>
      <trkpt lat="45.97926" lon="6.57686">
        <ele>2217.5</ele>
        <time>2026-02-02T15:36:03Z</time>
      </trkpt>
      <trkpt lat="45.9792" lon="6.57682">
        <ele>2214.3</ele>
        <time>2026-02-02T15:36:04Z</time>
      </trkpt>
      <trkpt lat="45.97916" lon="6.5768">
        <ele>2213.5</ele>
        <time>2026-02-02T15:36:05Z</time>
      </trkpt>
      <trkpt lat="45.97912" lon="6.57677">
        <ele>2211.3</ele>
        <time>2026-02-02T15:36:06Z</time>
      </trkpt>
      <trkpt lat="45.97909" lon="6.57673">
        <ele>2211.1</ele>
        <time>2026-02-02T15:36:07Z</time>
      </trkpt>
      <trkpt lat="45.97906" lon="6.57671">
        <ele>2209.9</ele>
        <time>2026-02-02T15:36:08Z</time>
      </trkpt>
      <trkpt lat="45.97903" lon="6.57669">
        <ele>2210.1</ele>
        <time>2026-02-02T15:36:09Z</time>
      </trkpt>
      <trkpt lat="45.97901" lon="6.57667">
        <ele>2209.1</ele>
        <time>2026-02-02T15:36:10Z</time>
      </trkpt>
      <trkpt lat="45.97897" lon="6.57666">
        <ele>2208.1</ele>
        <time>2026-02-02T15:36:11Z</time>
      </trkpt>
      <trkpt lat="45.97894" lon="6.57665">
        <ele>2207</ele>
        <time>2026-02-02T15:36:12Z</time>
      </trkpt>
      <trkpt lat="45.97889" lon="6.57663">
        <ele>2207.7</ele>
        <time>2026-02-02T15:36:13Z</time>
      </trkpt>
      <trkpt lat="45.97888" lon="6.57662">
        <ele>2206.7</ele>
        <time>2026-02-02T15:36:14Z</time>
      </trkpt>
      <trkpt lat="45.97888" lon="6.57661">
        <ele>2206.7</ele>
        <time>2026-02-02T15:36:15Z</time>
      </trkpt>
      <trkpt lat="45.97887" lon="6.57661">
        <ele>2206.7</ele>
        <time>2026-02-02T15:36:16Z</time>
      </trkpt>
      <trkpt lat="45.97888" lon="6.5766">
        <ele>2208.5</ele>
        <time>2026-02-02T15:36:17Z</time>
      </trkpt>
      <trkpt lat="45.97888" lon="6.57661">
        <ele>2206.7</ele>
        <time>2026-02-02T15:36:18Z</time>
      </trkpt>
      <trkpt lat="45.97888" lon="6.57661">
        <ele>2206.7</ele>
        <time>2026-02-02T15:36:19Z</time>
      </trkpt>
      <trkpt lat="45.97889" lon="6.57662">
        <ele>2206.7</ele>
        <time>2026-02-02T15:36:20Z</time>
      </trkpt>
      <trkpt lat="45.97889" lon="6.57663">
        <ele>2206.8</ele>
        <time>2026-02-02T15:36:21Z</time>
      </trkpt>
      <trkpt lat="45.97889" lon="6.57664">
        <ele>2207.7</ele>
        <time>2026-02-02T15:36:22Z</time>
      </trkpt>
      <trkpt lat="45.9789" lon="6.57664">
        <ele>2207.7</ele>
        <time>2026-02-02T15:36:23Z</time>
      </trkpt>
      <trkpt lat="45.9789" lon="6.57665">
        <ele>2206</ele>
        <time>2026-02-02T15:36:24Z</time>
      </trkpt>
      <trkpt lat="45.9789" lon="6.57666">
        <ele>2206</ele>
        <time>2026-02-02T15:36:25Z</time>
      </trkpt>
      <trkpt lat="45.97893" lon="6.5767">
        <ele>2205.4</ele>
        <time>2026-02-02T15:36:26Z</time>
      </trkpt>
      <trkpt lat="45.97897" lon="6.57676">
        <ele>2205</ele>
        <time>2026-02-02T15:36:27Z</time>
      </trkpt>
      <trkpt lat="45.979" lon="6.57682">
        <ele>2203.3</ele>
        <time>2026-02-02T15:36:28Z</time>
      </trkpt>
      <trkpt lat="45.97903" lon="6.57688">
        <ele>2203.3</ele>
        <time>2026-02-02T15:36:29Z</time>
      </trkpt>
      <trkpt lat="45.97906" lon="6.57692">
        <ele>2203.4</ele>
        <time>2026-02-02T15:36:30Z</time>
      </trkpt>
      <trkpt lat="45.97907" lon="6.57696">
        <ele>2203.6</ele>
        <time>2026-02-02T15:36:31Z</time>
      </trkpt>
      <trkpt lat="45.9791" lon="6.57699">
        <ele>2203.6</ele>
        <time>2026-02-02T15:36:32Z</time>
      </trkpt>
      <trkpt lat="45.97912" lon="6.57703">
        <ele>2204</ele>
        <time>2026-02-02T15:36:33Z</time>
      </trkpt>
      <trkpt lat="45.97915" lon="6.57708">
        <ele>2203.3</ele>
        <time>2026-02-02T15:36:34Z</time>
      </trkpt>
      <trkpt lat="45.97918" lon="6.57712">
        <ele>2204.3</ele>
        <time>2026-02-02T15:36:35Z</time>
      </trkpt>
      <trkpt lat="45.9792" lon="6.57717">
        <ele>2205.5</ele>
        <time>2026-02-02T15:36:36Z</time>
      </trkpt>
      <trkpt lat="45.97922" lon="6.57722">
        <ele>2204.3</ele>
        <time>2026-02-02T15:36:37Z</time>
      </trkpt>
      <trkpt lat="45.97924" lon="6.57726">
        <ele>2205.7</ele>
        <time>2026-02-02T15:36:38Z</time>
      </trkpt>
      <trkpt lat="45.97926" lon="6.57731">
        <ele>2207.2</ele>
        <time>2026-02-02T15:36:39Z</time>
      </trkpt>
      <trkpt lat="45.97928" lon="6.57737">
        <ele>2206.3</ele>
        <time>2026-02-02T15:36:40Z</time>
      </trkpt>
      <trkpt lat="45.97929" lon="6.57743">
        <ele>2207</ele>
        <time>2026-02-02T15:36:41Z</time>
      </trkpt>
      <trkpt lat="45.9793" lon="6.57749">
        <ele>2206.3</ele>
        <time>2026-02-02T15:36:42Z</time>
      </trkpt>
      <trkpt lat="45.9793" lon="6.57755">
        <ele>2204.6</ele>
        <time>2026-02-02T15:36:43Z</time>
      </trkpt>
      <trkpt lat="45.97931" lon="6.57761">
        <ele>2203.8</ele>
        <time>2026-02-02T15:36:44Z</time>
      </trkpt>
      <trkpt lat="45.97931" lon="6.57766">
        <ele>2203</ele>
        <time>2026-02-02T15:36:45Z</time>
      </trkpt>
      <trkpt lat="45.9793" lon="6.57772">
        <ele>2202.2</ele>
        <time>2026-02-02T15:36:46Z</time>
      </trkpt>
      <trkpt lat="45.97929" lon="6.57776">
        <ele>2201.4</ele>
        <time>2026-02-02T15:36:47Z</time>
      </trkpt>
      <trkpt lat="45.97929" lon="6.57781">
        <ele>2200</ele>
        <time>2026-02-02T15:36:48Z</time>
      </trkpt>
      <trkpt lat="45.97928" lon="6.57784">
        <ele>2200</ele>
        <time>2026-02-02T15:36:49Z</time>
      </trkpt>
      <trkpt lat="45.97927" lon="6.57785">
        <ele>2196.4</ele>
        <time>2026-02-02T15:36:50Z</time>
      </trkpt>
      <trkpt lat="45.97927" lon="6.57786">
        <ele>2196.4</ele>
        <time>2026-02-02T15:36:51Z</time>
      </trkpt>
      <trkpt lat="45.97924" lon="6.57787">
        <ele>2193.2</ele>
        <time>2026-02-02T15:36:52Z</time>
      </trkpt>
      <trkpt lat="45.97923" lon="6.57787">
        <ele>2193.3</ele>
        <time>2026-02-02T15:36:53Z</time>
      </trkpt>
      <trkpt lat="45.97921" lon="6.57784">
        <ele>2190.6</ele>
        <time>2026-02-02T15:36:54Z</time>
      </trkpt>
      <trkpt lat="45.97919" lon="6.57779">
        <ele>2187.9</ele>
        <time>2026-02-02T15:36:55Z</time>
      </trkpt>
      <trkpt lat="45.97916" lon="6.57771">
        <ele>2186.4</ele>
        <time>2026-02-02T15:36:56Z</time>
      </trkpt>
      <trkpt lat="45.97912" lon="6.57762">
        <ele>2185.5</ele>
        <time>2026-02-02T15:36:57Z</time>
      </trkpt>
      <trkpt lat="45.97908" lon="6.57755">
        <ele>2184</ele>
        <time>2026-02-02T15:36:58Z</time>
      </trkpt>
      <trkpt lat="45.97905" lon="6.57749">
        <ele>2184.3</ele>
        <time>2026-02-02T15:36:59Z</time>
      </trkpt>
      <trkpt lat="45.97901" lon="6.57744">
        <ele>2180.9</ele>
        <time>2026-02-02T15:37:00Z</time>
      </trkpt>
      <trkpt lat="45.97897" lon="6.57739">
        <ele>2179.9</ele>
        <time>2026-02-02T15:37:01Z</time>
      </trkpt>
      <trkpt lat="45.97892" lon="6.57736">
        <ele>2176.4</ele>
        <time>2026-02-02T15:37:02Z</time>
      </trkpt>
      <trkpt lat="45.97888" lon="6.57732">
        <ele>2175.7</ele>
        <time>2026-02-02T15:37:03Z</time>
      </trkpt>
      <trkpt lat="45.97885" lon="6.57728">
        <ele>2175.2</ele>
        <time>2026-02-02T15:37:04Z</time>
      </trkpt>
      <trkpt lat="45.97882" lon="6.57724">
        <ele>2175.1</ele>
        <time>2026-02-02T15:37:05Z</time>
      </trkpt>
      <trkpt lat="45.97879" lon="6.57722">
        <ele>2173</ele>
        <time>2026-02-02T15:37:06Z</time>
      </trkpt>
      <trkpt lat="45.97875" lon="6.5772">
        <ele>2173.4</ele>
        <time>2026-02-02T15:37:07Z</time>
      </trkpt>
      <trkpt lat="45.97871" lon="6.57718">
        <ele>2169.7</ele>
        <time>2026-02-02T15:37:08Z</time>
      </trkpt>
      <trkpt lat="45.97867" lon="6.57717">
        <ele>2167.8</ele>
        <time>2026-02-02T15:37:09Z</time>
      </trkpt>
      <trkpt lat="45.97863" lon="6.57715">
        <ele>2168.4</ele>
        <time>2026-02-02T15:37:10Z</time>
      </trkpt>
      <trkpt lat="45.9786" lon="6.57713">
        <ele>2166.3</ele>
        <time>2026-02-02T15:37:11Z</time>
      </trkpt>
      <trkpt lat="45.97858" lon="6.57711">
        <ele>2166.9</ele>
        <time>2026-02-02T15:37:12Z</time>
      </trkpt>
      <trkpt lat="45.97857" lon="6.57711">
        <ele>2166.9</ele>
        <time>2026-02-02T15:37:13Z</time>
      </trkpt>
      <trkpt lat="45.97857" lon="6.57711">
        <ele>2166.9</ele>
        <time>2026-02-02T15:37:14Z</time>
      </trkpt>
      <trkpt lat="45.97857" lon="6.57712">
        <ele>2166.9</ele>
        <time>2026-02-02T15:37:15Z</time>
      </trkpt>
      <trkpt lat="45.97858" lon="6.57712">
        <ele>2166.9</ele>
        <time>2026-02-02T15:37:16Z</time>
      </trkpt>
      <trkpt lat="45.97858" lon="6.57712">
        <ele>2164.3</ele>
        <time>2026-02-02T15:37:17Z</time>
      </trkpt>
      <trkpt lat="45.97858" lon="6.57713">
        <ele>2164.3</ele>
        <time>2026-02-02T15:37:18Z</time>
      </trkpt>
      <trkpt lat="45.97858" lon="6.57713">
        <ele>2164.3</ele>
        <time>2026-02-02T15:37:19Z</time>
      </trkpt>
      <trkpt lat="45.97858" lon="6.57713">
        <ele>2164.3</ele>
        <time>2026-02-02T15:37:20Z</time>
      </trkpt>
      <trkpt lat="45.97859" lon="6.57714">
        <ele>2164.3</ele>
        <time>2026-02-02T15:37:21Z</time>
      </trkpt>
      <trkpt lat="45.97859" lon="6.57714">
        <ele>2164.3</ele>
        <time>2026-02-02T15:37:22Z</time>
      </trkpt>
      <trkpt lat="45.97859" lon="6.57714">
        <ele>2164.3</ele>
        <time>2026-02-02T15:37:23Z</time>
      </trkpt>
      <trkpt lat="45.97859" lon="6.57715">
        <ele>2166.4</ele>
        <time>2026-02-02T15:37:24Z</time>
      </trkpt>
      <trkpt lat="45.9786" lon="6.57715">
        <ele>2166.4</ele>
        <time>2026-02-02T15:37:25Z</time>
      </trkpt>
      <trkpt lat="45.9786" lon="6.57715">
        <ele>2166.4</ele>
        <time>2026-02-02T15:37:26Z</time>
      </trkpt>
      <trkpt lat="45.9786" lon="6.57716">
        <ele>2166.4</ele>
        <time>2026-02-02T15:37:27Z</time>
      </trkpt>
      <trkpt lat="45.9786" lon="6.57716">
        <ele>2166.4</ele>
        <time>2026-02-02T15:37:28Z</time>
      </trkpt>
      <trkpt lat="45.97862" lon="6.5772">
        <ele>2163.9</ele>
        <time>2026-02-02T15:37:29Z</time>
      </trkpt>
      <trkpt lat="45.97865" lon="6.57724">
        <ele>2163.5</ele>
        <time>2026-02-02T15:37:30Z</time>
      </trkpt>
      <trkpt lat="45.97868" lon="6.57731">
        <ele>2161</ele>
        <time>2026-02-02T15:37:31Z</time>
      </trkpt>
      <trkpt lat="45.97871" lon="6.57737">
        <ele>2161</ele>
        <time>2026-02-02T15:37:32Z</time>
      </trkpt>
      <trkpt lat="45.97873" lon="6.57742">
        <ele>2159.3</ele>
        <time>2026-02-02T15:37:33Z</time>
      </trkpt>
      <trkpt lat="45.97876" lon="6.57748">
        <ele>2159.6</ele>
        <time>2026-02-02T15:37:34Z</time>
      </trkpt>
      <trkpt lat="45.97879" lon="6.57753">
        <ele>2160</ele>
        <time>2026-02-02T15:37:35Z</time>
      </trkpt>
      <trkpt lat="45.97882" lon="6.57757">
        <ele>2160.6</ele>
        <time>2026-02-02T15:37:36Z</time>
      </trkpt>
      <trkpt lat="45.97884" lon="6.57762">
        <ele>2161.3</ele>
        <time>2026-02-02T15:37:37Z</time>
      </trkpt>
      <trkpt lat="45.97886" lon="6.57767">
        <ele>2159.2</ele>
        <time>2026-02-02T15:37:38Z</time>
      </trkpt>
      <trkpt lat="45.97887" lon="6.57772">
        <ele>2158</ele>
        <time>2026-02-02T15:37:39Z</time>
      </trkpt>
      <trkpt lat="45.97888" lon="6.57778">
        <ele>2156.1</ele>
        <time>2026-02-02T15:37:40Z</time>
      </trkpt>
      <trkpt lat="45.97889" lon="6.57785">
        <ele>2154.3</ele>
        <time>2026-02-02T15:37:41Z</time>
      </trkpt>
      <trkpt lat="45.9789" lon="6.57791">
        <ele>2154.8</ele>
        <time>2026-02-02T15:37:42Z</time>
      </trkpt>
      <trkpt lat="45.97891" lon="6.57795">
        <ele>2153.6</ele>
        <time>2026-02-02T15:37:43Z</time>
      </trkpt>
      <trkpt lat="45.97891" lon="6.57798">
        <ele>2152.6</ele>
        <time>2026-02-02T15:37:44Z</time>
      </trkpt>
      <trkpt lat="45.97891" lon="6.578">
        <ele>2152.6</ele>
        <time>2026-02-02T15:37:45Z</time>
      </trkpt>
      <trkpt lat="45.97891" lon="6.57806">
        <ele>2151.7</ele>
        <time>2026-02-02T15:37:46Z</time>
      </trkpt>
      <trkpt lat="45.97891" lon="6.57808">
        <ele>2150.9</ele>
        <time>2026-02-02T15:37:47Z</time>
      </trkpt>
      <trkpt lat="45.9789" lon="6.57813">
        <ele>2150.2</ele>
        <time>2026-02-02T15:37:48Z</time>
      </trkpt>
      <trkpt lat="45.97887" lon="6.57819">
        <ele>2145.9</ele>
        <time>2026-02-02T15:37:49Z</time>
      </trkpt>
      <trkpt lat="45.97888" lon="6.57825">
        <ele>2145</ele>
        <time>2026-02-02T15:37:50Z</time>
      </trkpt>
      <trkpt lat="45.97888" lon="6.57833">
        <ele>2144.2</ele>
        <time>2026-02-02T15:37:51Z</time>
      </trkpt>
      <trkpt lat="45.97888" lon="6.57838">
        <ele>2143.9</ele>
        <time>2026-02-02T15:37:52Z</time>
      </trkpt>
      <trkpt lat="45.97889" lon="6.57843">
        <ele>2143.8</ele>
        <time>2026-02-02T15:37:53Z</time>
      </trkpt>
      <trkpt lat="45.97889" lon="6.57847">
        <ele>2143.7</ele>
        <time>2026-02-02T15:37:54Z</time>
      </trkpt>
      <trkpt lat="45.97888" lon="6.57853">
        <ele>2143.9</ele>
        <time>2026-02-02T15:37:55Z</time>
      </trkpt>
      <trkpt lat="45.97888" lon="6.57855">
        <ele>2144.1</ele>
        <time>2026-02-02T15:37:56Z</time>
      </trkpt>
      <trkpt lat="45.97888" lon="6.57861">
        <ele>2144.6</ele>
        <time>2026-02-02T15:37:57Z</time>
      </trkpt>
      <trkpt lat="45.97887" lon="6.57867">
        <ele>2145.6</ele>
        <time>2026-02-02T15:37:58Z</time>
      </trkpt>
      <trkpt lat="45.97886" lon="6.57873">
        <ele>2142.6</ele>
        <time>2026-02-02T15:37:59Z</time>
      </trkpt>
      <trkpt lat="45.97884" lon="6.57874">
        <ele>2142.6</ele>
        <time>2026-02-02T15:38:00Z</time>
      </trkpt>
      <trkpt lat="45.97883" lon="6.57874">
        <ele>2142.6</ele>
        <time>2026-02-02T15:38:01Z</time>
      </trkpt>
      <trkpt lat="45.97884" lon="6.57873">
        <ele>2142.6</ele>
        <time>2026-02-02T15:38:02Z</time>
      </trkpt>
      <trkpt lat="45.97884" lon="6.57872">
        <ele>2142.6</ele>
        <time>2026-02-02T15:38:03Z</time>
      </trkpt>
      <trkpt lat="45.97885" lon="6.57872">
        <ele>2142.6</ele>
        <time>2026-02-02T15:38:04Z</time>
      </trkpt>
      <trkpt lat="45.97885" lon="6.57872">
        <ele>2142.6</ele>
        <time>2026-02-02T15:38:05Z</time>
      </trkpt>
      <trkpt lat="45.97885" lon="6.57872">
        <ele>2142.7</ele>
        <time>2026-02-02T15:38:06Z</time>
      </trkpt>
      <trkpt lat="45.97885" lon="6.57872">
        <ele>2142.7</ele>
        <time>2026-02-02T15:38:07Z</time>
      </trkpt>
      <trkpt lat="45.97885" lon="6.57872">
        <ele>2142.7</ele>
        <time>2026-02-02T15:38:08Z</time>
      </trkpt>
      <trkpt lat="45.97885" lon="6.57872">
        <ele>2142.7</ele>
        <time>2026-02-02T15:38:09Z</time>
      </trkpt>
      <trkpt lat="45.97885" lon="6.57872">
        <ele>2142.7</ele>
        <time>2026-02-02T15:38:10Z</time>
      </trkpt>
      <trkpt lat="45.97885" lon="6.57872">
        <ele>2142.7</ele>
        <time>2026-02-02T15:38:11Z</time>
      </trkpt>
      <trkpt lat="45.97885" lon="6.57872">
        <ele>2142.7</ele>
        <time>2026-02-02T15:38:12Z</time>
      </trkpt>
      <trkpt lat="45.97885" lon="6.57871">
        <ele>2142.1</ele>
        <time>2026-02-02T15:38:13Z</time>
      </trkpt>
      <trkpt lat="45.97885" lon="6.5787">
        <ele>2142.1</ele>
        <time>2026-02-02T15:38:14Z</time>
      </trkpt>
      <trkpt lat="45.97884" lon="6.5787">
        <ele>2142.1</ele>
        <time>2026-02-02T15:38:15Z</time>
      </trkpt>
      <trkpt lat="45.97881" lon="6.57864">
        <ele>2137.9</ele>
        <time>2026-02-02T15:38:16Z</time>
      </trkpt>
      <trkpt lat="45.9788" lon="6.5786">
        <ele>2133.9</ele>
        <time>2026-02-02T15:38:17Z</time>
      </trkpt>
      <trkpt lat="45.97878" lon="6.57855">
        <ele>2133.5</ele>
        <time>2026-02-02T15:38:18Z</time>
      </trkpt>
      <trkpt lat="45.97875" lon="6.57849">
        <ele>2129.9</ele>
        <time>2026-02-02T15:38:19Z</time>
      </trkpt>
      <trkpt lat="45.97871" lon="6.57842">
        <ele>2124.3</ele>
        <time>2026-02-02T15:38:20Z</time>
      </trkpt>
      <trkpt lat="45.97869" lon="6.57836">
        <ele>2125.1</ele>
        <time>2026-02-02T15:38:21Z</time>
      </trkpt>
      <trkpt lat="45.97868" lon="6.5783">
        <ele>2122.9</ele>
        <time>2026-02-02T15:38:22Z</time>
      </trkpt>
      <trkpt lat="45.97866" lon="6.57824">
        <ele>2123.5</ele>
        <time>2026-02-02T15:38:23Z</time>
      </trkpt>
      <trkpt lat="45.97863" lon="6.57818">
        <ele>2121.9</ele>
        <time>2026-02-02T15:38:24Z</time>
      </trkpt>
      <trkpt lat="45.9786" lon="6.57812">
        <ele>2119.7</ele>
        <time>2026-02-02T15:38:25Z</time>
      </trkpt>
      <trkpt lat="45.97855" lon="6.57807">
        <ele>2115.1</ele>
        <time>2026-02-02T15:38:26Z</time>
      </trkpt>
      <trkpt lat="45.97849" lon="6.57801">
        <ele>2113</ele>
        <time>2026-02-02T15:38:27Z</time>
      </trkpt>
      <trkpt lat="45.97843" lon="6.57796">
        <ele>2110.5</ele>
        <time>2026-02-02T15:38:28Z</time>
      </trkpt>
      <trkpt lat="45.97838" lon="6.5779">
        <ele>2107.6</ele>
        <time>2026-02-02T15:38:29Z</time>
      </trkpt>
      <trkpt lat="45.97834" lon="6.57785">
        <ele>2108.3</ele>
        <time>2026-02-02T15:38:30Z</time>
      </trkpt>
      <trkpt lat="45.97829" lon="6.5778">
        <ele>2105.8</ele>
        <time>2026-02-02T15:38:31Z</time>
      </trkpt>
      <trkpt lat="45.97824" lon="6.57775">
        <ele>2105.8</ele>
        <time>2026-02-02T15:38:32Z</time>
      </trkpt>
      <trkpt lat="45.97819" lon="6.57771">
        <ele>2104.7</ele>
        <time>2026-02-02T15:38:33Z</time>
      </trkpt>
      <trkpt lat="45.97813" lon="6.57768">
        <ele>2104</ele>
        <time>2026-02-02T15:38:34Z</time>
      </trkpt>
      <trkpt lat="45.97807" lon="6.57767">
        <ele>2101.5</ele>
        <time>2026-02-02T15:38:35Z</time>
      </trkpt>
      <trkpt lat="45.97801" lon="6.57767">
        <ele>2099.5</ele>
        <time>2026-02-02T15:38:36Z</time>
      </trkpt>
      <trkpt lat="45.97796" lon="6.57768">
        <ele>2095.4</ele>
        <time>2026-02-02T15:38:37Z</time>
      </trkpt>
      <trkpt lat="45.97792" lon="6.57768">
        <ele>2094.7</ele>
        <time>2026-02-02T15:38:38Z</time>
      </trkpt>
      <trkpt lat="45.97787" lon="6.57769">
        <ele>2093.4</ele>
        <time>2026-02-02T15:38:39Z</time>
      </trkpt>
      <trkpt lat="45.97784" lon="6.57769">
        <ele>2092.7</ele>
        <time>2026-02-02T15:38:40Z</time>
      </trkpt>
      <trkpt lat="45.97782" lon="6.57768">
        <ele>2092.7</ele>
        <time>2026-02-02T15:38:41Z</time>
      </trkpt>
      <trkpt lat="45.97782" lon="6.57766">
        <ele>2094.7</ele>
        <time>2026-02-02T15:38:42Z</time>
      </trkpt>
      <trkpt lat="45.97782" lon="6.57766">
        <ele>2094.7</ele>
        <time>2026-02-02T15:38:43Z</time>
      </trkpt>
      <trkpt lat="45.97782" lon="6.57766">
        <ele>2094.7</ele>
        <time>2026-02-02T15:38:44Z</time>
      </trkpt>
      <trkpt lat="45.97782" lon="6.57766">
        <ele>2094.7</ele>
        <time>2026-02-02T15:38:45Z</time>
      </trkpt>
      <trkpt lat="45.97782" lon="6.57766">
        <ele>2094.7</ele>
        <time>2026-02-02T15:38:46Z</time>
      </trkpt>
      <trkpt lat="45.97782" lon="6.57766">
        <ele>2094.7</ele>
        <time>2026-02-02T15:38:47Z</time>
      </trkpt>
      <trkpt lat="45.97782" lon="6.57766">
        <ele>2094.8</ele>
        <time>2026-02-02T15:38:48Z</time>
      </trkpt>
      <trkpt lat="45.97782" lon="6.57766">
        <ele>2094.8</ele>
        <time>2026-02-02T15:38:49Z</time>
      </trkpt>
      <trkpt lat="45.97782" lon="6.57766">
        <ele>2094.8</ele>
        <time>2026-02-02T15:38:50Z</time>
      </trkpt>
      <trkpt lat="45.97782" lon="6.57766">
        <ele>2094.8</ele>
        <time>2026-02-02T15:38:51Z</time>
      </trkpt>
      <trkpt lat="45.97783" lon="6.57766">
        <ele>2095.5</ele>
        <time>2026-02-02T15:38:52Z</time>
      </trkpt>
      <trkpt lat="45.97784" lon="6.57766">
        <ele>2095.5</ele>
        <time>2026-02-02T15:38:53Z</time>
      </trkpt>
      <trkpt lat="45.97784" lon="6.57767">
        <ele>2095.5</ele>
        <time>2026-02-02T15:38:54Z</time>
      </trkpt>
      <trkpt lat="45.97782" lon="6.57768">
        <ele>2092.8</ele>
        <time>2026-02-02T15:38:55Z</time>
      </trkpt>
      <trkpt lat="45.9778" lon="6.57769">
        <ele>2092.1</ele>
        <time>2026-02-02T15:38:56Z</time>
      </trkpt>
      <trkpt lat="45.97776" lon="6.57769">
        <ele>2090.6</ele>
        <time>2026-02-02T15:38:57Z</time>
      </trkpt>
      <trkpt lat="45.97774" lon="6.57769">
        <ele>2090.6</ele>
        <time>2026-02-02T15:38:58Z</time>
      </trkpt>
      <trkpt lat="45.97771" lon="6.57769">
        <ele>2089.9</ele>
        <time>2026-02-02T15:38:59Z</time>
      </trkpt>
      <trkpt lat="45.9777" lon="6.5777">
        <ele>2089.4</ele>
        <time>2026-02-02T15:39:00Z</time>
      </trkpt>
      <trkpt lat="45.9777" lon="6.57774">
        <ele>2087.3</ele>
        <time>2026-02-02T15:39:01Z</time>
      </trkpt>
      <trkpt lat="45.97772" lon="6.57779">
        <ele>2084.8</ele>
        <time>2026-02-02T15:39:02Z</time>
      </trkpt>
      <trkpt lat="45.97773" lon="6.5778">
        <ele>2085.5</ele>
        <time>2026-02-02T15:39:03Z</time>
      </trkpt>
      <trkpt lat="45.97776" lon="6.57783">
        <ele>2084.1</ele>
        <time>2026-02-02T15:39:04Z</time>
      </trkpt>
      <trkpt lat="45.97779" lon="6.57786">
        <ele>2082.9</ele>
        <time>2026-02-02T15:39:05Z</time>
      </trkpt>
      <trkpt lat="45.97782" lon="6.5779">
        <ele>2081.8</ele>
        <time>2026-02-02T15:39:06Z</time>
      </trkpt>
      <trkpt lat="45.97785" lon="6.57794">
        <ele>2082.7</ele>
        <time>2026-02-02T15:39:07Z</time>
      </trkpt>
      <trkpt lat="45.97789" lon="6.57799">
        <ele>2079.9</ele>
        <time>2026-02-02T15:39:08Z</time>
      </trkpt>
      <trkpt lat="45.97794" lon="6.57804">
        <ele>2079.1</ele>
        <time>2026-02-02T15:39:09Z</time>
      </trkpt>
      <trkpt lat="45.97796" lon="6.57809">
        <ele>2078.4</ele>
        <time>2026-02-02T15:39:10Z</time>
      </trkpt>
      <trkpt lat="45.97799" lon="6.57814">
        <ele>2077.9</ele>
        <time>2026-02-02T15:39:11Z</time>
      </trkpt>
      <trkpt lat="45.97802" lon="6.57818">
        <ele>2077.7</ele>
        <time>2026-02-02T15:39:12Z</time>
      </trkpt>
      <trkpt lat="45.97804" lon="6.57823">
        <ele>2077.8</ele>
        <time>2026-02-02T15:39:13Z</time>
      </trkpt>
      <trkpt lat="45.97805" lon="6.57828">
        <ele>2075.3</ele>
        <time>2026-02-02T15:39:14Z</time>
      </trkpt>
      <trkpt lat="45.97807" lon="6.57833">
        <ele>2075.9</ele>
        <time>2026-02-02T15:39:15Z</time>
      </trkpt>
      <trkpt lat="45.97807" lon="6.57837">
        <ele>2074.9</ele>
        <time>2026-02-02T15:39:16Z</time>
      </trkpt>
      <trkpt lat="45.97809" lon="6.57842">
        <ele>2075.8</ele>
        <time>2026-02-02T15:39:17Z</time>
      </trkpt>
      <trkpt lat="45.9781" lon="6.57846">
        <ele>2075.1</ele>
        <time>2026-02-02T15:39:18Z</time>
      </trkpt>
      <trkpt lat="45.97812" lon="6.57851">
        <ele>2074.4</ele>
        <time>2026-02-02T15:39:19Z</time>
      </trkpt>
      <trkpt lat="45.97813" lon="6.57856">
        <ele>2075.9</ele>
        <time>2026-02-02T15:39:20Z</time>
      </trkpt>
      <trkpt lat="45.97814" lon="6.57863">
        <ele>2075.3</ele>
        <time>2026-02-02T15:39:21Z</time>
      </trkpt>
      <trkpt lat="45.97814" lon="6.5787">
        <ele>2075.2</ele>
        <time>2026-02-02T15:39:22Z</time>
      </trkpt>
      <trkpt lat="45.97814" lon="6.57877">
        <ele>2075.3</ele>
        <time>2026-02-02T15:39:23Z</time>
      </trkpt>
      <trkpt lat="45.97814" lon="6.57885">
        <ele>2075.7</ele>
        <time>2026-02-02T15:39:24Z</time>
      </trkpt>
      <trkpt lat="45.97814" lon="6.57893">
        <ele>2076.1</ele>
        <time>2026-02-02T15:39:25Z</time>
      </trkpt>
      <trkpt lat="45.97813" lon="6.579">
        <ele>2076.4</ele>
        <time>2026-02-02T15:39:26Z</time>
      </trkpt>
      <trkpt lat="45.97812" lon="6.57905">
        <ele>2077.1</ele>
        <time>2026-02-02T15:39:27Z</time>
      </trkpt>
      <trkpt lat="45.97811" lon="6.57909">
        <ele>2074.7</ele>
        <time>2026-02-02T15:39:28Z</time>
      </trkpt>
      <trkpt lat="45.97809" lon="6.57912">
        <ele>2075</ele>
        <time>2026-02-02T15:39:29Z</time>
      </trkpt>
      <trkpt lat="45.97808" lon="6.57915">
        <ele>2072.9</ele>
        <time>2026-02-02T15:39:30Z</time>
      </trkpt>
      <trkpt lat="45.97806" lon="6.57919">
        <ele>2070.8</ele>
        <time>2026-02-02T15:39:31Z</time>
      </trkpt>
      <trkpt lat="45.97804" lon="6.57924">
        <ele>2071.1</ele>
        <time>2026-02-02T15:39:32Z</time>
      </trkpt>
      <trkpt lat="45.97803" lon="6.5793">
        <ele>2071.5</ele>
        <time>2026-02-02T15:39:33Z</time>
      </trkpt>
      <trkpt lat="45.97802" lon="6.57936">
        <ele>2069.9</ele>
        <time>2026-02-02T15:39:34Z</time>
      </trkpt>
      <trkpt lat="45.97801" lon="6.5794">
        <ele>2070.5</ele>
        <time>2026-02-02T15:39:35Z</time>
      </trkpt>
      <trkpt lat="45.97798" lon="6.57942">
        <ele>2068</ele>
        <time>2026-02-02T15:39:36Z</time>
      </trkpt>
      <trkpt lat="45.97796" lon="6.57941">
        <ele>2065.6</ele>
        <time>2026-02-02T15:39:37Z</time>
      </trkpt>
      <trkpt lat="45.97793" lon="6.57939">
        <ele>2062.8</ele>
        <time>2026-02-02T15:39:38Z</time>
      </trkpt>
      <trkpt lat="45.9779" lon="6.57938">
        <ele>2060.6</ele>
        <time>2026-02-02T15:39:39Z</time>
      </trkpt>
      <trkpt lat="45.97788" lon="6.57943">
        <ele>2061.1</ele>
        <time>2026-02-02T15:39:40Z</time>
      </trkpt>
      <trkpt lat="45.97789" lon="6.5795">
        <ele>2062.3</ele>
        <time>2026-02-02T15:39:41Z</time>
      </trkpt>
      <trkpt lat="45.9779" lon="6.57956">
        <ele>2062.9</ele>
        <time>2026-02-02T15:39:42Z</time>
      </trkpt>
      <trkpt lat="45.97789" lon="6.57958">
        <ele>2063.6</ele>
        <time>2026-02-02T15:39:43Z</time>
      </trkpt>
      <trkpt lat="45.97789" lon="6.57958">
        <ele>2063.6</ele>
        <time>2026-02-02T15:39:44Z</time>
      </trkpt>
      <trkpt lat="45.97789" lon="6.57958">
        <ele>2063.6</ele>
        <time>2026-02-02T15:39:45Z</time>
      </trkpt>
      <trkpt lat="45.97789" lon="6.57957">
        <ele>2063.6</ele>
        <time>2026-02-02T15:39:46Z</time>
      </trkpt>
      <trkpt lat="45.97789" lon="6.57957">
        <ele>2063.6</ele>
        <time>2026-02-02T15:39:47Z</time>
      </trkpt>
      <trkpt lat="45.97789" lon="6.57957">
        <ele>2063.6</ele>
        <time>2026-02-02T15:39:48Z</time>
      </trkpt>
      <trkpt lat="45.97789" lon="6.57956">
        <ele>2063</ele>
        <time>2026-02-02T15:39:49Z</time>
      </trkpt>
      <trkpt lat="45.97788" lon="6.57956">
        <ele>2063</ele>
        <time>2026-02-02T15:39:50Z</time>
      </trkpt>
      <trkpt lat="45.97788" lon="6.57956">
        <ele>2063</ele>
        <time>2026-02-02T15:39:51Z</time>
      </trkpt>
      <trkpt lat="45.97788" lon="6.57955">
        <ele>2063</ele>
        <time>2026-02-02T15:39:52Z</time>
      </trkpt>
      <trkpt lat="45.97788" lon="6.57955">
        <ele>2063</ele>
        <time>2026-02-02T15:39:53Z</time>
      </trkpt>
      <trkpt lat="45.97788" lon="6.57955">
        <ele>2063</ele>
        <time>2026-02-02T15:39:54Z</time>
      </trkpt>
      <trkpt lat="45.97788" lon="6.57955">
        <ele>2060.7</ele>
        <time>2026-02-02T15:39:55Z</time>
      </trkpt>
      <trkpt lat="45.97788" lon="6.57954">
        <ele>2060.7</ele>
        <time>2026-02-02T15:39:56Z</time>
      </trkpt>
      <trkpt lat="45.97787" lon="6.57954">
        <ele>2060.7</ele>
        <time>2026-02-02T15:39:57Z</time>
      </trkpt>
      <trkpt lat="45.97787" lon="6.57954">
        <ele>2060.8</ele>
        <time>2026-02-02T15:39:58Z</time>
      </trkpt>
      <trkpt lat="45.97787" lon="6.57953">
        <ele>2060.8</ele>
        <time>2026-02-02T15:39:59Z</time>
      </trkpt>
      <trkpt lat="45.97787" lon="6.57953">
        <ele>2060.8</ele>
        <time>2026-02-02T15:40:00Z</time>
      </trkpt>
      <trkpt lat="45.97787" lon="6.57953">
        <ele>2060.8</ele>
        <time>2026-02-02T15:40:01Z</time>
      </trkpt>
      <trkpt lat="45.97787" lon="6.57952">
        <ele>2060.2</ele>
        <time>2026-02-02T15:40:02Z</time>
      </trkpt>
      <trkpt lat="45.97786" lon="6.57946">
        <ele>2059.6</ele>
        <time>2026-02-02T15:40:03Z</time>
      </trkpt>
      <trkpt lat="45.97785" lon="6.5794">
        <ele>2056.8</ele>
        <time>2026-02-02T15:40:04Z</time>
      </trkpt>
      <trkpt lat="45.97783" lon="6.57934">
        <ele>2056.1</ele>
        <time>2026-02-02T15:40:05Z</time>
      </trkpt>
      <trkpt lat="45.97782" lon="6.57929">
        <ele>2053.5</ele>
        <time>2026-02-02T15:40:06Z</time>
      </trkpt>
      <trkpt lat="45.97779" lon="6.57921">
        <ele>2053.3</ele>
        <time>2026-02-02T15:40:07Z</time>
      </trkpt>
      <trkpt lat="45.97776" lon="6.57912">
        <ele>2051</ele>
        <time>2026-02-02T15:40:08Z</time>
      </trkpt>
      <trkpt lat="45.97773" lon="6.57902">
        <ele>2049.1</ele>
        <time>2026-02-02T15:40:09Z</time>
      </trkpt>
      <trkpt lat="45.9777" lon="6.57894">
        <ele>2047.6</ele>
        <time>2026-02-02T15:40:10Z</time>
      </trkpt>
      <trkpt lat="45.97766" lon="6.57887">
        <ele>2045.4</ele>
        <time>2026-02-02T15:40:11Z</time>
      </trkpt>
      <trkpt lat="45.97761" lon="6.57879">
        <ele>2044.2</ele>
        <time>2026-02-02T15:40:12Z</time>
      </trkpt>
      <trkpt lat="45.97755" lon="6.57873">
        <ele>2043.7</ele>
        <time>2026-02-02T15:40:13Z</time>
      </trkpt>
      <trkpt lat="45.97749" lon="6.57866">
        <ele>2043.3</ele>
        <time>2026-02-02T15:40:14Z</time>
      </trkpt>
      <trkpt lat="45.97745" lon="6.57861">
        <ele>2042.7</ele>
        <time>2026-02-02T15:40:15Z</time>
      </trkpt>
      <trkpt lat="45.97741" lon="6.57857">
        <ele>2043.5</ele>
        <time>2026-02-02T15:40:16Z</time>
      </trkpt>
      <trkpt lat="45.97737" lon="6.57856">
        <ele>2042.5</ele>
        <time>2026-02-02T15:40:17Z</time>
      </trkpt>
      <trkpt lat="45.97733" lon="6.57856">
        <ele>2041.9</ele>
        <time>2026-02-02T15:40:18Z</time>
      </trkpt>
      <trkpt lat="45.97729" lon="6.57859">
        <ele>2039.7</ele>
        <time>2026-02-02T15:40:19Z</time>
      </trkpt>
      <trkpt lat="45.97724" lon="6.57862">
        <ele>2038.1</ele>
        <time>2026-02-02T15:40:20Z</time>
      </trkpt>
      <trkpt lat="45.97721" lon="6.57866">
        <ele>2035.6</ele>
        <time>2026-02-02T15:40:21Z</time>
      </trkpt>
      <trkpt lat="45.97718" lon="6.5787">
        <ele>2033.1</ele>
        <time>2026-02-02T15:40:22Z</time>
      </trkpt>
      <trkpt lat="45.97716" lon="6.57874">
        <ele>2030.6</ele>
        <time>2026-02-02T15:40:23Z</time>
      </trkpt>
      <trkpt lat="45.97713" lon="6.57879">
        <ele>2029.2</ele>
        <time>2026-02-02T15:40:24Z</time>
      </trkpt>
      <trkpt lat="45.97712" lon="6.57883">
        <ele>2026.7</ele>
        <time>2026-02-02T15:40:25Z</time>
      </trkpt>
      <trkpt lat="45.9771" lon="6.57888">
        <ele>2024.3</ele>
        <time>2026-02-02T15:40:26Z</time>
      </trkpt>
      <trkpt lat="45.97708" lon="6.57894">
        <ele>2021.3</ele>
        <time>2026-02-02T15:40:27Z</time>
      </trkpt>
      <trkpt lat="45.97704" lon="6.57899">
        <ele>2017.5</ele>
        <time>2026-02-02T15:40:28Z</time>
      </trkpt>
      <trkpt lat="45.97701" lon="6.57903">
        <ele>2014.6</ele>
        <time>2026-02-02T15:40:29Z</time>
      </trkpt>
      <trkpt lat="45.97697" lon="6.57907">
        <ele>2011.6</ele>
        <time>2026-02-02T15:40:30Z</time>
      </trkpt>
      <trkpt lat="45.97693" lon="6.5791">
        <ele>2008.2</ele>
        <time>2026-02-02T15:40:31Z</time>
      </trkpt>
      <trkpt lat="45.9769" lon="6.57912">
        <ele>2006.5</ele>
        <time>2026-02-02T15:40:32Z</time>
      </trkpt>
      <trkpt lat="45.97687" lon="6.57915">
        <ele>2003</ele>
        <time>2026-02-02T15:40:33Z</time>
      </trkpt>
      <trkpt lat="45.97683" lon="6.57917">
        <ele>1999.6</ele>
        <time>2026-02-02T15:40:34Z</time>
      </trkpt>
      <trkpt lat="45.9768" lon="6.57918">
        <ele>1996.1</ele>
        <time>2026-02-02T15:40:35Z</time>
      </trkpt>
      <trkpt lat="45.97676" lon="6.5792">
        <ele>1994.4</ele>
        <time>2026-02-02T15:40:36Z</time>
      </trkpt>
      <trkpt lat="45.97672" lon="6.57923">
        <ele>1990.8</ele>
        <time>2026-02-02T15:40:37Z</time>
      </trkpt>
      <trkpt lat="45.97667" lon="6.57925">
        <ele>1986.6</ele>
        <time>2026-02-02T15:40:38Z</time>
      </trkpt>
      <trkpt lat="45.97663" lon="6.57926">
        <ele>1984.6</ele>
        <time>2026-02-02T15:40:39Z</time>
      </trkpt>
      <trkpt lat="45.97659" lon="6.57926">
        <ele>1981</ele>
        <time>2026-02-02T15:40:40Z</time>
      </trkpt>
      <trkpt lat="45.97656" lon="6.57926">
        <ele>1979.4</ele>
        <time>2026-02-02T15:40:41Z</time>
      </trkpt>
      <trkpt lat="45.97653" lon="6.57925">
        <ele>1977.9</ele>
        <time>2026-02-02T15:40:42Z</time>
      </trkpt>
      <trkpt lat="45.97649" lon="6.57924">
        <ele>1976.5</ele>
        <time>2026-02-02T15:40:43Z</time>
      </trkpt>
      <trkpt lat="45.97648" lon="6.57924">
        <ele>1976.5</ele>
        <time>2026-02-02T15:40:44Z</time>
      </trkpt>
      <trkpt lat="45.97644" lon="6.57925">
        <ele>1973.7</ele>
        <time>2026-02-02T15:40:45Z</time>
      </trkpt>
      <trkpt lat="45.97643" lon="6.57925">
        <ele>1973.7</ele>
        <time>2026-02-02T15:40:46Z</time>
      </trkpt>
      <trkpt lat="45.97639" lon="6.57924">
        <ele>1972.4</ele>
        <time>2026-02-02T15:40:47Z</time>
      </trkpt>
      <trkpt lat="45.97635" lon="6.57924">
        <ele>1969.7</ele>
        <time>2026-02-02T15:40:48Z</time>
      </trkpt>
      <trkpt lat="45.97632" lon="6.57923">
        <ele>1968.5</ele>
        <time>2026-02-02T15:40:49Z</time>
      </trkpt>
      <trkpt lat="45.9763" lon="6.57922">
        <ele>1970.6</ele>
        <time>2026-02-02T15:40:50Z</time>
      </trkpt>
      <trkpt lat="45.9763" lon="6.57921">
        <ele>1969.3</ele>
        <time>2026-02-02T15:40:51Z</time>
      </trkpt>
      <trkpt lat="45.9763" lon="6.57921">
        <ele>1969.4</ele>
        <time>2026-02-02T15:40:52Z</time>
      </trkpt>
      <trkpt lat="45.9763" lon="6.57922">
        <ele>1969.4</ele>
        <time>2026-02-02T15:40:53Z</time>
      </trkpt>
      <trkpt lat="45.9763" lon="6.57922">
        <ele>1969.4</ele>
        <time>2026-02-02T15:40:54Z</time>
      </trkpt>
      <trkpt lat="45.9763" lon="6.57922">
        <ele>1970.6</ele>
        <time>2026-02-02T15:40:55Z</time>
      </trkpt>
      <trkpt lat="45.9763" lon="6.57923">
        <ele>1968.5</ele>
        <time>2026-02-02T15:40:56Z</time>
      </trkpt>
      <trkpt lat="45.9763" lon="6.57923">
        <ele>1968.5</ele>
        <time>2026-02-02T15:40:57Z</time>
      </trkpt>
      <trkpt lat="45.9763" lon="6.57923">
        <ele>1968.5</ele>
        <time>2026-02-02T15:40:58Z</time>
      </trkpt>
      <trkpt lat="45.9763" lon="6.57924">
        <ele>1968.5</ele>
        <time>2026-02-02T15:40:59Z</time>
      </trkpt>
      <trkpt lat="45.9763" lon="6.57924">
        <ele>1968.5</ele>
        <time>2026-02-02T15:41:00Z</time>
      </trkpt>
      <trkpt lat="45.9763" lon="6.57924">
        <ele>1968.6</ele>
        <time>2026-02-02T15:41:01Z</time>
      </trkpt>
      <trkpt lat="45.9763" lon="6.57925">
        <ele>1968.6</ele>
        <time>2026-02-02T15:41:02Z</time>
      </trkpt>
      <trkpt lat="45.9763" lon="6.57925">
        <ele>1968.6</ele>
        <time>2026-02-02T15:41:03Z</time>
      </trkpt>
      <trkpt lat="45.9763" lon="6.57925">
        <ele>1968.6</ele>
        <time>2026-02-02T15:41:04Z</time>
      </trkpt>
      <trkpt lat="45.9763" lon="6.57926">
        <ele>1968.6</ele>
        <time>2026-02-02T15:41:05Z</time>
      </trkpt>
      <trkpt lat="45.9763" lon="6.57926">
        <ele>1968.6</ele>
        <time>2026-02-02T15:41:06Z</time>
      </trkpt>
      <trkpt lat="45.9763" lon="6.57926">
        <ele>1968.6</ele>
        <time>2026-02-02T15:41:07Z</time>
      </trkpt>
      <trkpt lat="45.9763" lon="6.57926">
        <ele>1968.6</ele>
        <time>2026-02-02T15:41:08Z</time>
      </trkpt>
      <trkpt lat="45.9763" lon="6.57927">
        <ele>1966.6</ele>
        <time>2026-02-02T15:41:09Z</time>
      </trkpt>
      <trkpt lat="45.9763" lon="6.57927">
        <ele>1966.6</ele>
        <time>2026-02-02T15:41:10Z</time>
      </trkpt>
      <trkpt lat="45.9763" lon="6.57927">
        <ele>1966.7</ele>
        <time>2026-02-02T15:41:11Z</time>
      </trkpt>
      <trkpt lat="45.97631" lon="6.57928">
        <ele>1966.7</ele>
        <time>2026-02-02T15:41:12Z</time>
      </trkpt>
      <trkpt lat="45.97631" lon="6.57928">
        <ele>1966.7</ele>
        <time>2026-02-02T15:41:13Z</time>
      </trkpt>
      <trkpt lat="45.97631" lon="6.57928">
        <ele>1966.7</ele>
        <time>2026-02-02T15:41:14Z</time>
      </trkpt>
      <trkpt lat="45.97631" lon="6.57929">
        <ele>1966.7</ele>
        <time>2026-02-02T15:41:15Z</time>
      </trkpt>
      <trkpt lat="45.97631" lon="6.57929">
        <ele>1966.7</ele>
        <time>2026-02-02T15:41:16Z</time>
      </trkpt>
      <trkpt lat="45.97631" lon="6.57929">
        <ele>1966.7</ele>
        <time>2026-02-02T15:41:17Z</time>
      </trkpt>
      <trkpt lat="45.97631" lon="6.5793">
        <ele>1966.7</ele>
        <time>2026-02-02T15:41:18Z</time>
      </trkpt>
      <trkpt lat="45.97632" lon="6.57935">
        <ele>1962.9</ele>
        <time>2026-02-02T15:41:19Z</time>
      </trkpt>
      <trkpt lat="45.97635" lon="6.57938">
        <ele>1964.3</ele>
        <time>2026-02-02T15:41:20Z</time>
      </trkpt>
      <trkpt lat="45.97637" lon="6.5794">
        <ele>1963.9</ele>
        <time>2026-02-02T15:41:21Z</time>
      </trkpt>
      <trkpt lat="45.9764" lon="6.57943">
        <ele>1965.5</ele>
        <time>2026-02-02T15:41:22Z</time>
      </trkpt>
      <trkpt lat="45.97641" lon="6.57944">
        <ele>1963.6</ele>
        <time>2026-02-02T15:41:23Z</time>
      </trkpt>
      <trkpt lat="45.97643" lon="6.57947">
        <ele>1965.3</ele>
        <time>2026-02-02T15:41:24Z</time>
      </trkpt>
      <trkpt lat="45.97646" lon="6.57949">
        <ele>1965.2</ele>
        <time>2026-02-02T15:41:25Z</time>
      </trkpt>
      <trkpt lat="45.97647" lon="6.57951">
        <ele>1965.2</ele>
        <time>2026-02-02T15:41:26Z</time>
      </trkpt>
      <trkpt lat="45.9765" lon="6.57953">
        <ele>1965.4</ele>
        <time>2026-02-02T15:41:27Z</time>
      </trkpt>
      <trkpt lat="45.97654" lon="6.57955">
        <ele>1968.9</ele>
        <time>2026-02-02T15:41:28Z</time>
      </trkpt>
      <trkpt lat="45.97657" lon="6.57958">
        <ele>1969.5</ele>
        <time>2026-02-02T15:41:29Z</time>
      </trkpt>
      <trkpt lat="45.97661" lon="6.57959">
        <ele>1971.5</ele>
        <time>2026-02-02T15:41:30Z</time>
      </trkpt>
      <trkpt lat="45.97664" lon="6.5796">
        <ele>1973.7</ele>
        <time>2026-02-02T15:41:31Z</time>
      </trkpt>
      <trkpt lat="45.97667" lon="6.57961">
        <ele>1975.1</ele>
        <time>2026-02-02T15:41:32Z</time>
      </trkpt>
      <trkpt lat="45.9767" lon="6.57963">
        <ele>1977.6</ele>
        <time>2026-02-02T15:41:33Z</time>
      </trkpt>
      <trkpt lat="45.97673" lon="6.57967">
        <ele>1979.1</ele>
        <time>2026-02-02T15:41:34Z</time>
      </trkpt>
      <trkpt lat="45.97679" lon="6.57972">
        <ele>1982.5</ele>
        <time>2026-02-02T15:41:35Z</time>
      </trkpt>
      <trkpt lat="45.97684" lon="6.57977">
        <ele>1985.8</ele>
        <time>2026-02-02T15:41:36Z</time>
      </trkpt>
      <trkpt lat="45.97688" lon="6.57983">
        <ele>1986.6</ele>
        <time>2026-02-02T15:41:37Z</time>
      </trkpt>
      <trkpt lat="45.9769" lon="6.57989">
        <ele>1988.5</ele>
        <time>2026-02-02T15:41:38Z</time>
      </trkpt>
      <trkpt lat="45.97694" lon="6.57995">
        <ele>1990.7</ele>
        <time>2026-02-02T15:41:39Z</time>
      </trkpt>
      <trkpt lat="45.97696" lon="6.58001">
        <ele>1992.4</ele>
        <time>2026-02-02T15:41:40Z</time>
      </trkpt>
      <trkpt lat="45.97696" lon="6.58008">
        <ele>1992</ele>
        <time>2026-02-02T15:41:41Z</time>
      </trkpt>
      <trkpt lat="45.97697" lon="6.58016">
        <ele>1991.3</ele>
        <time>2026-02-02T15:41:42Z</time>
      </trkpt>
      <trkpt lat="45.97697" lon="6.58021">
        <ele>1990.6</ele>
        <time>2026-02-02T15:41:43Z</time>
      </trkpt>
      <trkpt lat="45.97695" lon="6.58025">
        <ele>1987.6</ele>
        <time>2026-02-02T15:41:44Z</time>
      </trkpt>
      <trkpt lat="45.97694" lon="6.58026">
        <ele>1987.1</ele>
        <time>2026-02-02T15:41:45Z</time>
      </trkpt>
      <trkpt lat="45.97691" lon="6.58023">
        <ele>1984.5</ele>
        <time>2026-02-02T15:41:46Z</time>
      </trkpt>
      <trkpt lat="45.97688" lon="6.58017">
        <ele>1982.1</ele>
        <time>2026-02-02T15:41:47Z</time>
      </trkpt>
      <trkpt lat="45.97682" lon="6.58012">
        <ele>1978</ele>
        <time>2026-02-02T15:41:48Z</time>
      </trkpt>
      <trkpt lat="45.97675" lon="6.58006">
        <ele>1973.8</ele>
        <time>2026-02-02T15:41:49Z</time>
      </trkpt>
      <trkpt lat="45.97668" lon="6.58003">
        <ele>1966.2</ele>
        <time>2026-02-02T15:41:50Z</time>
      </trkpt>
      <trkpt lat="45.97662" lon="6.58001">
        <ele>1960.8</ele>
        <time>2026-02-02T15:41:51Z</time>
      </trkpt>
      <trkpt lat="45.97656" lon="6.58001">
        <ele>1956.3</ele>
        <time>2026-02-02T15:41:52Z</time>
      </trkpt>
      <trkpt lat="45.97651" lon="6.58004">
        <ele>1952.1</ele>
        <time>2026-02-02T15:41:53Z</time>
      </trkpt>
      <trkpt lat="45.97646" lon="6.58006">
        <ele>1948.9</ele>
        <time>2026-02-02T15:41:54Z</time>
      </trkpt>
      <trkpt lat="45.97643" lon="6.58007">
        <ele>1946.8</ele>
        <time>2026-02-02T15:41:55Z</time>
      </trkpt>
      <trkpt lat="45.9764" lon="6.58007">
        <ele>1944.8</ele>
        <time>2026-02-02T15:41:56Z</time>
      </trkpt>
      <trkpt lat="45.97637" lon="6.58005">
        <ele>1942.9</ele>
        <time>2026-02-02T15:41:57Z</time>
      </trkpt>
      <trkpt lat="45.97634" lon="6.58002">
        <ele>1942.2</ele>
        <time>2026-02-02T15:41:58Z</time>
      </trkpt>
      <trkpt lat="45.97632" lon="6.57999">
        <ele>1941.7</ele>
        <time>2026-02-02T15:41:59Z</time>
      </trkpt>
      <trkpt lat="45.97631" lon="6.57997">
        <ele>1941.7</ele>
        <time>2026-02-02T15:42:00Z</time>
      </trkpt>
      <trkpt lat="45.97632" lon="6.57998">
        <ele>1941.7</ele>
        <time>2026-02-02T15:42:01Z</time>
      </trkpt>
      <trkpt lat="45.97632" lon="6.57998">
        <ele>1941.7</ele>
        <time>2026-02-02T15:42:02Z</time>
      </trkpt>
      <trkpt lat="45.97632" lon="6.57999">
        <ele>1941.7</ele>
        <time>2026-02-02T15:42:03Z</time>
      </trkpt>
      <trkpt lat="45.97632" lon="6.57999">
        <ele>1941.7</ele>
        <time>2026-02-02T15:42:04Z</time>
      </trkpt>
      <trkpt lat="45.97632" lon="6.58">
        <ele>1940.5</ele>
        <time>2026-02-02T15:42:05Z</time>
      </trkpt>
      <trkpt lat="45.97632" lon="6.58">
        <ele>1940.5</ele>
        <time>2026-02-02T15:42:06Z</time>
      </trkpt>
      <trkpt lat="45.97632" lon="6.58001">
        <ele>1940.5</ele>
        <time>2026-02-02T15:42:07Z</time>
      </trkpt>
      <trkpt lat="45.97632" lon="6.58001">
        <ele>1940.5</ele>
        <time>2026-02-02T15:42:08Z</time>
      </trkpt>
      <trkpt lat="45.97632" lon="6.58001">
        <ele>1940.5</ele>
        <time>2026-02-02T15:42:09Z</time>
      </trkpt>
      <trkpt lat="45.97632" lon="6.58002">
        <ele>1940.5</ele>
        <time>2026-02-02T15:42:10Z</time>
      </trkpt>
      <trkpt lat="45.97632" lon="6.58002">
        <ele>1940.6</ele>
        <time>2026-02-02T15:42:11Z</time>
      </trkpt>
      <trkpt lat="45.97633" lon="6.58003">
        <ele>1940.6</ele>
        <time>2026-02-02T15:42:12Z</time>
      </trkpt>
      <trkpt lat="45.97633" lon="6.58003">
        <ele>1940.6</ele>
        <time>2026-02-02T15:42:13Z</time>
      </trkpt>
      <trkpt lat="45.97633" lon="6.58004">
        <ele>1940.6</ele>
        <time>2026-02-02T15:42:14Z</time>
      </trkpt>
      <trkpt lat="45.97633" lon="6.58004">
        <ele>1941.1</ele>
        <time>2026-02-02T15:42:15Z</time>
      </trkpt>
      <trkpt lat="45.97633" lon="6.58005">
        <ele>1941.1</ele>
        <time>2026-02-02T15:42:16Z</time>
      </trkpt>
      <trkpt lat="45.97633" lon="6.58005">
        <ele>1941.2</ele>
        <time>2026-02-02T15:42:17Z</time>
      </trkpt>
      <trkpt lat="45.97633" lon="6.58005">
        <ele>1941.2</ele>
        <time>2026-02-02T15:42:18Z</time>
      </trkpt>
      <trkpt lat="45.97633" lon="6.58006">
        <ele>1941.2</ele>
        <time>2026-02-02T15:42:19Z</time>
      </trkpt>
      <trkpt lat="45.97633" lon="6.58006">
        <ele>1941.2</ele>
        <time>2026-02-02T15:42:20Z</time>
      </trkpt>
      <trkpt lat="45.97633" lon="6.58007">
        <ele>1941.2</ele>
        <time>2026-02-02T15:42:21Z</time>
      </trkpt>
      <trkpt lat="45.97633" lon="6.58007">
        <ele>1941.2</ele>
        <time>2026-02-02T15:42:22Z</time>
      </trkpt>
      <trkpt lat="45.97634" lon="6.58008">
        <ele>1941.2</ele>
        <time>2026-02-02T15:42:23Z</time>
      </trkpt>
      <trkpt lat="45.97634" lon="6.58008">
        <ele>1940.1</ele>
        <time>2026-02-02T15:42:24Z</time>
      </trkpt>
      <trkpt lat="45.97635" lon="6.58013">
        <ele>1938.9</ele>
        <time>2026-02-02T15:42:25Z</time>
      </trkpt>
      <trkpt lat="45.97638" lon="6.58016">
        <ele>1940.8</ele>
        <time>2026-02-02T15:42:26Z</time>
      </trkpt>
      <trkpt lat="45.97639" lon="6.58017">
        <ele>1941.6</ele>
        <time>2026-02-02T15:42:27Z</time>
      </trkpt>
      <trkpt lat="45.97644" lon="6.58021">
        <ele>1943.7</ele>
        <time>2026-02-02T15:42:28Z</time>
      </trkpt>
      <trkpt lat="45.97648" lon="6.58026">
        <ele>1945.7</ele>
        <time>2026-02-02T15:42:29Z</time>
      </trkpt>
      <trkpt lat="45.97652" lon="6.58032">
        <ele>1946.7</ele>
        <time>2026-02-02T15:42:30Z</time>
      </trkpt>
      <trkpt lat="45.97656" lon="6.58039">
        <ele>1947</ele>
        <time>2026-02-02T15:42:31Z</time>
      </trkpt>
      <trkpt lat="45.9766" lon="6.58047">
        <ele>1950.8</ele>
        <time>2026-02-02T15:42:32Z</time>
      </trkpt>
      <trkpt lat="45.97663" lon="6.58055">
        <ele>1953.4</ele>
        <time>2026-02-02T15:42:33Z</time>
      </trkpt>
      <trkpt lat="45.97664" lon="6.58062">
        <ele>1952.6</ele>
        <time>2026-02-02T15:42:34Z</time>
      </trkpt>
      <trkpt lat="45.97664" lon="6.58068">
        <ele>1952.3</ele>
        <time>2026-02-02T15:42:35Z</time>
      </trkpt>
      <trkpt lat="45.97664" lon="6.58074">
        <ele>1951.7</ele>
        <time>2026-02-02T15:42:36Z</time>
      </trkpt>
      <trkpt lat="45.97665" lon="6.5808">
        <ele>1951.5</ele>
        <time>2026-02-02T15:42:37Z</time>
      </trkpt>
      <trkpt lat="45.97665" lon="6.58085">
        <ele>1950.6</ele>
        <time>2026-02-02T15:42:38Z</time>
      </trkpt>
      <trkpt lat="45.97666" lon="6.58091">
        <ele>1953.5</ele>
        <time>2026-02-02T15:42:39Z</time>
      </trkpt>
      <trkpt lat="45.97666" lon="6.58097">
        <ele>1952.8</ele>
        <time>2026-02-02T15:42:40Z</time>
      </trkpt>
      <trkpt lat="45.97666" lon="6.58102">
        <ele>1952.2</ele>
        <time>2026-02-02T15:42:41Z</time>
      </trkpt>
      <trkpt lat="45.97665" lon="6.58106">
        <ele>1947.8</ele>
        <time>2026-02-02T15:42:42Z</time>
      </trkpt>
      <trkpt lat="45.97663" lon="6.58109">
        <ele>1947</ele>
        <time>2026-02-02T15:42:43Z</time>
      </trkpt>
      <trkpt lat="45.97658" lon="6.58108">
        <ele>1940.5</ele>
        <time>2026-02-02T15:42:44Z</time>
      </trkpt>
      <trkpt lat="45.97652" lon="6.58107">
        <ele>1934.9</ele>
        <time>2026-02-02T15:42:45Z</time>
      </trkpt>
      <trkpt lat="45.97646" lon="6.58111">
        <ele>1929.5</ele>
        <time>2026-02-02T15:42:46Z</time>
      </trkpt>
      <trkpt lat="45.97641" lon="6.58116">
        <ele>1922.9</ele>
        <time>2026-02-02T15:42:47Z</time>
      </trkpt>
      <trkpt lat="45.97639" lon="6.58112">
        <ele>1923.4</ele>
        <time>2026-02-02T15:42:48Z</time>
      </trkpt>
      <trkpt lat="45.97639" lon="6.5811">
        <ele>1924.2</ele>
        <time>2026-02-02T15:42:49Z</time>
      </trkpt>
      <trkpt lat="45.97637" lon="6.58106">
        <ele>1922.6</ele>
        <time>2026-02-02T15:42:50Z</time>
      </trkpt>
      <trkpt lat="45.97635" lon="6.58101">
        <ele>1921</ele>
        <time>2026-02-02T15:42:51Z</time>
      </trkpt>
      <trkpt lat="45.97634" lon="6.58098">
        <ele>1921.7</ele>
        <time>2026-02-02T15:42:52Z</time>
      </trkpt>
      <trkpt lat="45.97635" lon="6.58098">
        <ele>1921.7</ele>
        <time>2026-02-02T15:42:53Z</time>
      </trkpt>
      <trkpt lat="45.97635" lon="6.58098">
        <ele>1921</ele>
        <time>2026-02-02T15:42:54Z</time>
      </trkpt>
      <trkpt lat="45.97634" lon="6.58098">
        <ele>1921.8</ele>
        <time>2026-02-02T15:42:55Z</time>
      </trkpt>
      <trkpt lat="45.97635" lon="6.58098">
        <ele>1921.8</ele>
        <time>2026-02-02T15:42:56Z</time>
      </trkpt>
      <trkpt lat="45.97635" lon="6.58098">
        <ele>1921.8</ele>
        <time>2026-02-02T15:42:57Z</time>
      </trkpt>
      <trkpt lat="45.97635" lon="6.58098">
        <ele>1921.8</ele>
        <time>2026-02-02T15:42:58Z</time>
      </trkpt>
      <trkpt lat="45.97635" lon="6.58098">
        <ele>1921.8</ele>
        <time>2026-02-02T15:42:59Z</time>
      </trkpt>
      <trkpt lat="45.97635" lon="6.58098">
        <ele>1921.8</ele>
        <time>2026-02-02T15:43:00Z</time>
      </trkpt>
      <trkpt lat="45.97635" lon="6.58098">
        <ele>1921.8</ele>
        <time>2026-02-02T15:43:01Z</time>
      </trkpt>
      <trkpt lat="45.97635" lon="6.58097">
        <ele>1921.8</ele>
        <time>2026-02-02T15:43:02Z</time>
      </trkpt>
      <trkpt lat="45.97636" lon="6.58097">
        <ele>1921.8</ele>
        <time>2026-02-02T15:43:03Z</time>
      </trkpt>
      <trkpt lat="45.97636" lon="6.58097">
        <ele>1921.8</ele>
        <time>2026-02-02T15:43:04Z</time>
      </trkpt>
      <trkpt lat="45.97636" lon="6.58097">
        <ele>1921.8</ele>
        <time>2026-02-02T15:43:05Z</time>
      </trkpt>
      <trkpt lat="45.97636" lon="6.58097">
        <ele>1921.8</ele>
        <time>2026-02-02T15:43:06Z</time>
      </trkpt>
      <trkpt lat="45.97636" lon="6.58097">
        <ele>1921.8</ele>
        <time>2026-02-02T15:43:07Z</time>
      </trkpt>
      <trkpt lat="45.97636" lon="6.58097">
        <ele>1921.8</ele>
        <time>2026-02-02T15:43:08Z</time>
      </trkpt>
      <trkpt lat="45.97636" lon="6.58097">
        <ele>1921.9</ele>
        <time>2026-02-02T15:43:09Z</time>
      </trkpt>
      <trkpt lat="45.97636" lon="6.58097">
        <ele>1921.9</ele>
        <time>2026-02-02T15:43:10Z</time>
      </trkpt>
      <trkpt lat="45.97636" lon="6.58097">
        <ele>1921.9</ele>
        <time>2026-02-02T15:43:11Z</time>
      </trkpt>
      <trkpt lat="45.97636" lon="6.58097">
        <ele>1921.9</ele>
        <time>2026-02-02T15:43:12Z</time>
      </trkpt>
      <trkpt lat="45.97636" lon="6.58097">
        <ele>1921.9</ele>
        <time>2026-02-02T15:43:13Z</time>
      </trkpt>
      <trkpt lat="45.97636" lon="6.58097">
        <ele>1921.9</ele>
        <time>2026-02-02T15:43:14Z</time>
      </trkpt>
      <trkpt lat="45.97636" lon="6.58097">
        <ele>1921.9</ele>
        <time>2026-02-02T15:43:15Z</time>
      </trkpt>
      <trkpt lat="45.97636" lon="6.58097">
        <ele>1921.9</ele>
        <time>2026-02-02T15:43:16Z</time>
      </trkpt>
      <trkpt lat="45.97636" lon="6.58097">
        <ele>1921.9</ele>
        <time>2026-02-02T15:43:17Z</time>
      </trkpt>
      <trkpt lat="45.97638" lon="6.58096">
        <ele>1924.4</ele>
        <time>2026-02-02T15:43:18Z</time>
      </trkpt>
      <trkpt lat="45.97638" lon="6.58098">
        <ele>1924.4</ele>
        <time>2026-02-02T15:43:19Z</time>
      </trkpt>
      <trkpt lat="45.97636" lon="6.58098">
        <ele>1924.4</ele>
        <time>2026-02-02T15:43:20Z</time>
      </trkpt>
      <trkpt lat="45.97636" lon="6.58098">
        <ele>1923.6</ele>
        <time>2026-02-02T15:43:21Z</time>
      </trkpt>
      <trkpt lat="45.97636" lon="6.58098">
        <ele>1924.5</ele>
        <time>2026-02-02T15:43:22Z</time>
      </trkpt>
      <trkpt lat="45.97636" lon="6.58098">
        <ele>1924.5</ele>
        <time>2026-02-02T15:43:23Z</time>
      </trkpt>
      <trkpt lat="45.97636" lon="6.58098">
        <ele>1924.5</ele>
        <time>2026-02-02T15:43:24Z</time>
      </trkpt>
      <trkpt lat="45.97637" lon="6.58097">
        <ele>1924.5</ele>
        <time>2026-02-02T15:43:25Z</time>
      </trkpt>
      <trkpt lat="45.97637" lon="6.58098">
        <ele>1924.5</ele>
        <time>2026-02-02T15:43:26Z</time>
      </trkpt>
      <trkpt lat="45.97637" lon="6.58098">
        <ele>1924.5</ele>
        <time>2026-02-02T15:43:27Z</time>
      </trkpt>
      <trkpt lat="45.97637" lon="6.58098">
        <ele>1924.5</ele>
        <time>2026-02-02T15:43:29Z</time>
      </trkpt>
      <trkpt lat="45.97639" lon="6.58097">
        <ele>1927.2</ele>
        <time>2026-02-02T15:43:30Z</time>
      </trkpt>
      <trkpt lat="45.97638" lon="6.58098">
        <ele>1924.5</ele>
        <time>2026-02-02T15:43:31Z</time>
      </trkpt>
      <trkpt lat="45.97638" lon="6.58097">
        <ele>1924.5</ele>
        <time>2026-02-02T15:43:32Z</time>
      </trkpt>
      <trkpt lat="45.97638" lon="6.58097">
        <ele>1924.5</ele>
        <time>2026-02-02T15:43:33Z</time>
      </trkpt>
      <trkpt lat="45.97638" lon="6.58097">
        <ele>1924.5</ele>
        <time>2026-02-02T15:43:34Z</time>
      </trkpt>
      <trkpt lat="45.97638" lon="6.58098">
        <ele>1924.5</ele>
        <time>2026-02-02T15:43:35Z</time>
      </trkpt>
      <trkpt lat="45.97637" lon="6.58097">
        <ele>1924.6</ele>
        <time>2026-02-02T15:43:36Z</time>
      </trkpt>
      <trkpt lat="45.97636" lon="6.58095">
        <ele>1924.6</ele>
        <time>2026-02-02T15:43:37Z</time>
      </trkpt>
      <trkpt lat="45.97634" lon="6.58091">
        <ele>1922.7</ele>
        <time>2026-02-02T15:43:38Z</time>
      </trkpt>
      <trkpt lat="45.97631" lon="6.58087">
        <ele>1921</ele>
        <time>2026-02-02T15:43:39Z</time>
      </trkpt>
      <trkpt lat="45.97629" lon="6.58083">
        <ele>1919.3</ele>
        <time>2026-02-02T15:43:40Z</time>
      </trkpt>
      <trkpt lat="45.97625" lon="6.58079">
        <ele>1918.3</ele>
        <time>2026-02-02T15:43:41Z</time>
      </trkpt>
      <trkpt lat="45.97621" lon="6.58076">
        <ele>1915.5</ele>
        <time>2026-02-02T15:43:42Z</time>
      </trkpt>
      <trkpt lat="45.97617" lon="6.58075">
        <ele>1913.8</ele>
        <time>2026-02-02T15:43:43Z</time>
      </trkpt>
      <trkpt lat="45.97613" lon="6.58074">
        <ele>1912</ele>
        <time>2026-02-02T15:43:44Z</time>
      </trkpt>
      <trkpt lat="45.97608" lon="6.58073">
        <ele>1908.3</ele>
        <time>2026-02-02T15:43:45Z</time>
      </trkpt>
      <trkpt lat="45.97604" lon="6.58071">
        <ele>1907.6</ele>
        <time>2026-02-02T15:43:46Z</time>
      </trkpt>
      <trkpt lat="45.976" lon="6.58069">
        <ele>1904.9</ele>
        <time>2026-02-02T15:43:47Z</time>
      </trkpt>
      <trkpt lat="45.97597" lon="6.58066">
        <ele>1904.8</ele>
        <time>2026-02-02T15:43:48Z</time>
      </trkpt>
      <trkpt lat="45.97594" lon="6.58064">
        <ele>1903.7</ele>
        <time>2026-02-02T15:43:49Z</time>
      </trkpt>
      <trkpt lat="45.9759" lon="6.58061">
        <ele>1903.5</ele>
        <time>2026-02-02T15:43:50Z</time>
      </trkpt>
      <trkpt lat="45.97587" lon="6.5806">
        <ele>1902.2</ele>
        <time>2026-02-02T15:43:51Z</time>
      </trkpt>
      <trkpt lat="45.97584" lon="6.58059">
        <ele>1902</ele>
        <time>2026-02-02T15:43:52Z</time>
      </trkpt>
      <trkpt lat="45.97582" lon="6.58058">
        <ele>1902</ele>
        <time>2026-02-02T15:43:53Z</time>
      </trkpt>
      <trkpt lat="45.97579" lon="6.58057">
        <ele>1900.7</ele>
        <time>2026-02-02T15:43:54Z</time>
      </trkpt>
      <trkpt lat="45.97578" lon="6.58056">
        <ele>1899.5</ele>
        <time>2026-02-02T15:43:55Z</time>
      </trkpt>
      <trkpt lat="45.97577" lon="6.58056">
        <ele>1899.5</ele>
        <time>2026-02-02T15:43:56Z</time>
      </trkpt>
      <trkpt lat="45.97573" lon="6.58055">
        <ele>1898.6</ele>
        <time>2026-02-02T15:43:57Z</time>
      </trkpt>
      <trkpt lat="45.97567" lon="6.58051">
        <ele>1897.8</ele>
        <time>2026-02-02T15:43:58Z</time>
      </trkpt>
      <trkpt lat="45.97563" lon="6.58047">
        <ele>1896.8</ele>
        <time>2026-02-02T15:43:59Z</time>
      </trkpt>
      <trkpt lat="45.9756" lon="6.58044">
        <ele>1896.8</ele>
        <time>2026-02-02T15:44:00Z</time>
      </trkpt>
      <trkpt lat="45.97558" lon="6.58041">
        <ele>1898</ele>
        <time>2026-02-02T15:44:01Z</time>
      </trkpt>
      <trkpt lat="45.97558" lon="6.58038">
        <ele>1899.3</ele>
        <time>2026-02-02T15:44:02Z</time>
      </trkpt>
      <trkpt lat="45.97558" lon="6.58036">
        <ele>1899.3</ele>
        <time>2026-02-02T15:44:03Z</time>
      </trkpt>
      <trkpt lat="45.97558" lon="6.58034">
        <ele>1900.5</ele>
        <time>2026-02-02T15:44:04Z</time>
      </trkpt>
      <trkpt lat="45.97558" lon="6.58031">
        <ele>1899.4</ele>
        <time>2026-02-02T15:44:05Z</time>
      </trkpt>
      <trkpt lat="45.97559" lon="6.58042">
        <ele>1898</ele>
        <time>2026-02-02T15:44:06Z</time>
      </trkpt>
      <trkpt lat="45.9756" lon="6.58046">
        <ele>1896.9</ele>
        <time>2026-02-02T15:44:07Z</time>
      </trkpt>
      <trkpt lat="45.9756" lon="6.5805">
        <ele>1895.7</ele>
        <time>2026-02-02T15:44:08Z</time>
      </trkpt>
      <trkpt lat="45.9756" lon="6.5805">
        <ele>1895.7</ele>
        <time>2026-02-02T15:44:09Z</time>
      </trkpt>
      <trkpt lat="45.9756" lon="6.5805">
        <ele>1895.7</ele>
        <time>2026-02-02T15:44:10Z</time>
      </trkpt>
      <trkpt lat="45.9756" lon="6.58049">
        <ele>1895.7</ele>
        <time>2026-02-02T15:44:11Z</time>
      </trkpt>
      <trkpt lat="45.97559" lon="6.58049">
        <ele>1895.7</ele>
        <time>2026-02-02T15:44:12Z</time>
      </trkpt>
      <trkpt lat="45.97559" lon="6.58048">
        <ele>1895.7</ele>
        <time>2026-02-02T15:44:13Z</time>
      </trkpt>
      <trkpt lat="45.9756" lon="6.58048">
        <ele>1895.7</ele>
        <time>2026-02-02T15:44:14Z</time>
      </trkpt>
      <trkpt lat="45.97561" lon="6.58047">
        <ele>1895.8</ele>
        <time>2026-02-02T15:44:15Z</time>
      </trkpt>
      <trkpt lat="45.97561" lon="6.58047">
        <ele>1895.8</ele>
        <time>2026-02-02T15:44:16Z</time>
      </trkpt>
      <trkpt lat="45.97562" lon="6.58047">
        <ele>1898.1</ele>
        <time>2026-02-02T15:44:17Z</time>
      </trkpt>
      <trkpt lat="45.97562" lon="6.58046">
        <ele>1898.1</ele>
        <time>2026-02-02T15:44:18Z</time>
      </trkpt>
      <trkpt lat="45.97561" lon="6.58046">
        <ele>1898.1</ele>
        <time>2026-02-02T15:44:19Z</time>
      </trkpt>
      <trkpt lat="45.97561" lon="6.58046">
        <ele>1898.1</ele>
        <time>2026-02-02T15:44:21Z</time>
      </trkpt>
      <trkpt lat="45.97561" lon="6.58046">
        <ele>1897</ele>
        <time>2026-02-02T15:44:22Z</time>
      </trkpt>
      <trkpt lat="45.97561" lon="6.58046">
        <ele>1897</ele>
        <time>2026-02-02T15:44:23Z</time>
      </trkpt>
      <trkpt lat="45.97561" lon="6.58046">
        <ele>1897</ele>
        <time>2026-02-02T15:44:24Z</time>
      </trkpt>
      <trkpt lat="45.97561" lon="6.58046">
        <ele>1897</ele>
        <time>2026-02-02T15:44:25Z</time>
      </trkpt>
      <trkpt lat="45.9756" lon="6.58046">
        <ele>1897</ele>
        <time>2026-02-02T15:44:26Z</time>
      </trkpt>
      <trkpt lat="45.9756" lon="6.58046">
        <ele>1897</ele>
        <time>2026-02-02T15:44:27Z</time>
      </trkpt>
      <trkpt lat="45.9756" lon="6.58046">
        <ele>1897</ele>
        <time>2026-02-02T15:44:28Z</time>
      </trkpt>
      <trkpt lat="45.9756" lon="6.58046">
        <ele>1897</ele>
        <time>2026-02-02T15:44:29Z</time>
      </trkpt>
      <trkpt lat="45.9756" lon="6.58046">
        <ele>1897</ele>
        <time>2026-02-02T15:44:30Z</time>
      </trkpt>
      <trkpt lat="45.9756" lon="6.58046">
        <ele>1897</ele>
        <time>2026-02-02T15:44:31Z</time>
      </trkpt>
      <trkpt lat="45.97559" lon="6.58046">
        <ele>1897</ele>
        <time>2026-02-02T15:44:32Z</time>
      </trkpt>
      <trkpt lat="45.97559" lon="6.58046">
        <ele>1897</ele>
        <time>2026-02-02T15:44:33Z</time>
      </trkpt>
      <trkpt lat="45.97559" lon="6.58046">
        <ele>1897</ele>
        <time>2026-02-02T15:44:34Z</time>
      </trkpt>
      <trkpt lat="45.97559" lon="6.58046">
        <ele>1897</ele>
        <time>2026-02-02T15:44:35Z</time>
      </trkpt>
      <trkpt lat="45.97559" lon="6.58045">
        <ele>1897.1</ele>
        <time>2026-02-02T15:44:36Z</time>
      </trkpt>
      <trkpt lat="45.97559" lon="6.58045">
        <ele>1897.1</ele>
        <time>2026-02-02T15:44:37Z</time>
      </trkpt>
      <trkpt lat="45.97558" lon="6.58045">
        <ele>1897.1</ele>
        <time>2026-02-02T15:44:38Z</time>
      </trkpt>
      <trkpt lat="45.97558" lon="6.58045">
        <ele>1897.1</ele>
        <time>2026-02-02T15:44:39Z</time>
      </trkpt>
      <trkpt lat="45.97558" lon="6.58045">
        <ele>1895.9</ele>
        <time>2026-02-02T15:44:40Z</time>
      </trkpt>
      <trkpt lat="45.97558" lon="6.58045">
        <ele>1895.9</ele>
        <time>2026-02-02T15:44:41Z</time>
      </trkpt>
      <trkpt lat="45.97554" lon="6.58042">
        <ele>1895.9</ele>
        <time>2026-02-02T15:44:42Z</time>
      </trkpt>
      <trkpt lat="45.97553" lon="6.58041">
        <ele>1895.9</ele>
        <time>2026-02-02T15:44:43Z</time>
      </trkpt>
      <trkpt lat="45.97551" lon="6.5804">
        <ele>1894.8</ele>
        <time>2026-02-02T15:44:44Z</time>
      </trkpt>
      <trkpt lat="45.9755" lon="6.5804">
        <ele>1894.8</ele>
        <time>2026-02-02T15:44:45Z</time>
      </trkpt>
      <trkpt lat="45.97548" lon="6.58041">
        <ele>1893.7</ele>
        <time>2026-02-02T15:44:46Z</time>
      </trkpt>
      <trkpt lat="45.97547" lon="6.58041">
        <ele>1893.7</ele>
        <time>2026-02-02T15:44:47Z</time>
      </trkpt>
      <trkpt lat="45.97547" lon="6.58042">
        <ele>1893.7</ele>
        <time>2026-02-02T15:44:48Z</time>
      </trkpt>
      <trkpt lat="45.97547" lon="6.58042">
        <ele>1893.7</ele>
        <time>2026-02-02T15:44:49Z</time>
      </trkpt>
      <trkpt lat="45.97547" lon="6.58042">
        <ele>1893.7</ele>
        <time>2026-02-02T15:44:50Z</time>
      </trkpt>
      <trkpt lat="45.97547" lon="6.58043">
        <ele>1892.5</ele>
        <time>2026-02-02T15:44:51Z</time>
      </trkpt>
      <trkpt lat="45.97547" lon="6.58043">
        <ele>1892.5</ele>
        <time>2026-02-02T15:44:52Z</time>
      </trkpt>
      <trkpt lat="45.97547" lon="6.58044">
        <ele>1892.5</ele>
        <time>2026-02-02T15:44:53Z</time>
      </trkpt>
      <trkpt lat="45.97547" lon="6.58044">
        <ele>1892.5</ele>
        <time>2026-02-02T15:44:54Z</time>
      </trkpt>
      <trkpt lat="45.97547" lon="6.58045">
        <ele>1892.5</ele>
        <time>2026-02-02T15:44:55Z</time>
      </trkpt>
      <trkpt lat="45.97547" lon="6.58045">
        <ele>1892.5</ele>
        <time>2026-02-02T15:44:56Z</time>
      </trkpt>
      <trkpt lat="45.97547" lon="6.58046">
        <ele>1892.5</ele>
        <time>2026-02-02T15:44:57Z</time>
      </trkpt>
      <trkpt lat="45.97547" lon="6.58046">
        <ele>1892.5</ele>
        <time>2026-02-02T15:44:58Z</time>
      </trkpt>
      <trkpt lat="45.97547" lon="6.58047">
        <ele>1892.6</ele>
        <time>2026-02-02T15:44:59Z</time>
      </trkpt>
      <trkpt lat="45.97547" lon="6.58047">
        <ele>1891.4</ele>
        <time>2026-02-02T15:45:00Z</time>
      </trkpt>
      <trkpt lat="45.97547" lon="6.58048">
        <ele>1891.4</ele>
        <time>2026-02-02T15:45:01Z</time>
      </trkpt>
      <trkpt lat="45.97547" lon="6.58048">
        <ele>1891.4</ele>
        <time>2026-02-02T15:45:02Z</time>
      </trkpt>
      <trkpt lat="45.97547" lon="6.58048">
        <ele>1891.4</ele>
        <time>2026-02-02T15:45:03Z</time>
      </trkpt>
      <trkpt lat="45.97547" lon="6.58049">
        <ele>1891.4</ele>
        <time>2026-02-02T15:45:04Z</time>
      </trkpt>
      <trkpt lat="45.97547" lon="6.58049">
        <ele>1891.4</ele>
        <time>2026-02-02T15:45:05Z</time>
      </trkpt>
      <trkpt lat="45.97547" lon="6.5805">
        <ele>1891.5</ele>
        <time>2026-02-02T15:45:06Z</time>
      </trkpt>
      <trkpt lat="45.97547" lon="6.5805">
        <ele>1891.5</ele>
        <time>2026-02-02T15:45:07Z</time>
      </trkpt>
      <trkpt lat="45.97547" lon="6.58046">
        <ele>1892.6</ele>
        <time>2026-02-02T15:45:08Z</time>
      </trkpt>
      <trkpt lat="45.97547" lon="6.58045">
        <ele>1892.6</ele>
        <time>2026-02-02T15:45:09Z</time>
      </trkpt>
      <trkpt lat="45.97551" lon="6.58051">
        <ele>1891.5</ele>
        <time>2026-02-02T15:45:10Z</time>
      </trkpt>
      <trkpt lat="45.97554" lon="6.58058">
        <ele>1891.6</ele>
        <time>2026-02-02T15:45:11Z</time>
      </trkpt>
      <trkpt lat="45.97558" lon="6.58065">
        <ele>1890.5</ele>
        <time>2026-02-02T15:45:12Z</time>
      </trkpt>
      <trkpt lat="45.97561" lon="6.58072">
        <ele>1891.6</ele>
        <time>2026-02-02T15:45:13Z</time>
      </trkpt>
      <trkpt lat="45.97562" lon="6.58074">
        <ele>1890.5</ele>
        <time>2026-02-02T15:45:14Z</time>
      </trkpt>
      <trkpt lat="45.97563" lon="6.58076">
        <ele>1890.5</ele>
        <time>2026-02-02T15:45:15Z</time>
      </trkpt>
      <trkpt lat="45.97569" lon="6.58087">
        <ele>1888.8</ele>
        <time>2026-02-02T15:45:16Z</time>
      </trkpt>
      <trkpt lat="45.97571" lon="6.58092">
        <ele>1888.9</ele>
        <time>2026-02-02T15:45:17Z</time>
      </trkpt>
      <trkpt lat="45.97574" lon="6.58097">
        <ele>1889</ele>
        <time>2026-02-02T15:45:18Z</time>
      </trkpt>
      <trkpt lat="45.97576" lon="6.58101">
        <ele>1889.4</ele>
        <time>2026-02-02T15:45:19Z</time>
      </trkpt>
      <trkpt lat="45.97578" lon="6.58105">
        <ele>1888.7</ele>
        <time>2026-02-02T15:45:20Z</time>
      </trkpt>
      <trkpt lat="45.97579" lon="6.58108">
        <ele>1889.2</ele>
        <time>2026-02-02T15:45:21Z</time>
      </trkpt>
      <trkpt lat="45.9758" lon="6.58111">
        <ele>1889.2</ele>
        <time>2026-02-02T15:45:22Z</time>
      </trkpt>
      <trkpt lat="45.97581" lon="6.58112">
        <ele>1888.4</ele>
        <time>2026-02-02T15:45:23Z</time>
      </trkpt>
      <trkpt lat="45.97582" lon="6.58118">
        <ele>1887.6</ele>
        <time>2026-02-02T15:45:24Z</time>
      </trkpt>
      <trkpt lat="45.97581" lon="6.5812">
        <ele>1886.8</ele>
        <time>2026-02-02T15:45:25Z</time>
      </trkpt>
      <trkpt lat="45.97577" lon="6.5812">
        <ele>1885.6</ele>
        <time>2026-02-02T15:45:26Z</time>
      </trkpt>
      <trkpt lat="45.97575" lon="6.58118">
        <ele>1885.3</ele>
        <time>2026-02-02T15:45:27Z</time>
      </trkpt>
      <trkpt lat="45.97571" lon="6.58117">
        <ele>1884.4</ele>
        <time>2026-02-02T15:45:28Z</time>
      </trkpt>
      <trkpt lat="45.97567" lon="6.58115">
        <ele>1883.3</ele>
        <time>2026-02-02T15:45:29Z</time>
      </trkpt>
      <trkpt lat="45.97562" lon="6.58112">
        <ele>1882.3</ele>
        <time>2026-02-02T15:45:30Z</time>
      </trkpt>
      <trkpt lat="45.97557" lon="6.5811">
        <ele>1880.9</ele>
        <time>2026-02-02T15:45:31Z</time>
      </trkpt>
      <trkpt lat="45.97553" lon="6.58107">
        <ele>1879.7</ele>
        <time>2026-02-02T15:45:32Z</time>
      </trkpt>
      <trkpt lat="45.97549" lon="6.58105">
        <ele>1878.4</ele>
        <time>2026-02-02T15:45:33Z</time>
      </trkpt>
      <trkpt lat="45.97542" lon="6.58102">
        <ele>1877.1</ele>
        <time>2026-02-02T15:45:34Z</time>
      </trkpt>
      <trkpt lat="45.97536" lon="6.58099">
        <ele>1875.2</ele>
        <time>2026-02-02T15:45:35Z</time>
      </trkpt>
      <trkpt lat="45.97531" lon="6.58096">
        <ele>1873.7</ele>
        <time>2026-02-02T15:45:36Z</time>
      </trkpt>
      <trkpt lat="45.97527" lon="6.58094">
        <ele>1873.2</ele>
        <time>2026-02-02T15:45:37Z</time>
      </trkpt>
      <trkpt lat="45.97522" lon="6.5809">
        <ele>1871.8</ele>
        <time>2026-02-02T15:45:38Z</time>
      </trkpt>
      <trkpt lat="45.97519" lon="6.58088">
        <ele>1870</ele>
        <time>2026-02-02T15:45:39Z</time>
      </trkpt>
      <trkpt lat="45.97517" lon="6.58085">
        <ele>1871</ele>
        <time>2026-02-02T15:45:40Z</time>
      </trkpt>
      <trkpt lat="45.97517" lon="6.58084">
        <ele>1871</ele>
        <time>2026-02-02T15:45:41Z</time>
      </trkpt>
      <trkpt lat="45.97514" lon="6.58086">
        <ele>1868.9</ele>
        <time>2026-02-02T15:45:42Z</time>
      </trkpt>
      <trkpt lat="45.97512" lon="6.58089">
        <ele>1867.8</ele>
        <time>2026-02-02T15:45:43Z</time>
      </trkpt>
      <trkpt lat="45.97513" lon="6.58095">
        <ele>1866.1</ele>
        <time>2026-02-02T15:45:44Z</time>
      </trkpt>
      <trkpt lat="45.97515" lon="6.58098">
        <ele>1867.2</ele>
        <time>2026-02-02T15:45:45Z</time>
      </trkpt>
      <trkpt lat="45.97517" lon="6.58102">
        <ele>1867.6</ele>
        <time>2026-02-02T15:45:46Z</time>
      </trkpt>
      <trkpt lat="45.97519" lon="6.58107">
        <ele>1866</ele>
        <time>2026-02-02T15:45:47Z</time>
      </trkpt>
      <trkpt lat="45.97521" lon="6.58111">
        <ele>1867.3</ele>
        <time>2026-02-02T15:45:48Z</time>
      </trkpt>
      <trkpt lat="45.97523" lon="6.58114">
        <ele>1867.8</ele>
        <time>2026-02-02T15:45:49Z</time>
      </trkpt>
      <trkpt lat="45.97526" lon="6.5812">
        <ele>1867.2</ele>
        <time>2026-02-02T15:45:50Z</time>
      </trkpt>
      <trkpt lat="45.97527" lon="6.58122">
        <ele>1867.2</ele>
        <time>2026-02-02T15:45:51Z</time>
      </trkpt>
      <trkpt lat="45.97529" lon="6.58125">
        <ele>1867.5</ele>
        <time>2026-02-02T15:45:52Z</time>
      </trkpt>
      <trkpt lat="45.97531" lon="6.58129">
        <ele>1866.5</ele>
        <time>2026-02-02T15:45:53Z</time>
      </trkpt>
      <trkpt lat="45.97533" lon="6.58134">
        <ele>1866.8</ele>
        <time>2026-02-02T15:45:54Z</time>
      </trkpt>
      <trkpt lat="45.97534" lon="6.58137">
        <ele>1865.8</ele>
        <time>2026-02-02T15:45:55Z</time>
      </trkpt>
      <trkpt lat="45.97535" lon="6.58141">
        <ele>1867</ele>
        <time>2026-02-02T15:45:56Z</time>
      </trkpt>
      <trkpt lat="45.97535" lon="6.58145">
        <ele>1865.9</ele>
        <time>2026-02-02T15:45:57Z</time>
      </trkpt>
      <trkpt lat="45.97535" lon="6.5815">
        <ele>1864.9</ele>
        <time>2026-02-02T15:45:58Z</time>
      </trkpt>
      <trkpt lat="45.97535" lon="6.58151">
        <ele>1863.8</ele>
        <time>2026-02-02T15:45:59Z</time>
      </trkpt>
      <trkpt lat="45.97533" lon="6.58155">
        <ele>1861.3</ele>
        <time>2026-02-02T15:46:00Z</time>
      </trkpt>
      <trkpt lat="45.97529" lon="6.58156">
        <ele>1859.9</ele>
        <time>2026-02-02T15:46:01Z</time>
      </trkpt>
      <trkpt lat="45.97525" lon="6.58151">
        <ele>1858.1</ele>
        <time>2026-02-02T15:46:02Z</time>
      </trkpt>
      <trkpt lat="45.97521" lon="6.58148">
        <ele>1857.8</ele>
        <time>2026-02-02T15:46:03Z</time>
      </trkpt>
      <trkpt lat="45.97517" lon="6.58143">
        <ele>1857.6</ele>
        <time>2026-02-02T15:46:04Z</time>
      </trkpt>
      <trkpt lat="45.97515" lon="6.5814">
        <ele>1857.5</ele>
        <time>2026-02-02T15:46:05Z</time>
      </trkpt>
      <trkpt lat="45.97511" lon="6.58136">
        <ele>1857.4</ele>
        <time>2026-02-02T15:46:06Z</time>
      </trkpt>
      <trkpt lat="45.9751" lon="6.58135">
        <ele>1856</ele>
        <time>2026-02-02T15:46:07Z</time>
      </trkpt>
      <trkpt lat="45.97506" lon="6.5813">
        <ele>1855.7</ele>
        <time>2026-02-02T15:46:08Z</time>
      </trkpt>
      <trkpt lat="45.97503" lon="6.58127">
        <ele>1855.2</ele>
        <time>2026-02-02T15:46:09Z</time>
      </trkpt>
      <trkpt lat="45.97502" lon="6.58126">
        <ele>1855.2</ele>
        <time>2026-02-02T15:46:10Z</time>
      </trkpt>
      <trkpt lat="45.97499" lon="6.58122">
        <ele>1854.6</ele>
        <time>2026-02-02T15:46:11Z</time>
      </trkpt>
      <trkpt lat="45.97498" lon="6.58121">
        <ele>1852.9</ele>
        <time>2026-02-02T15:46:12Z</time>
      </trkpt>
      <trkpt lat="45.97495" lon="6.58118">
        <ele>1852.4</ele>
        <time>2026-02-02T15:46:13Z</time>
      </trkpt>
      <trkpt lat="45.97492" lon="6.58115">
        <ele>1852</ele>
        <time>2026-02-02T15:46:14Z</time>
      </trkpt>
      <trkpt lat="45.9749" lon="6.58111">
        <ele>1852</ele>
        <time>2026-02-02T15:46:15Z</time>
      </trkpt>
      <trkpt lat="45.97487" lon="6.58106">
        <ele>1852.7</ele>
        <time>2026-02-02T15:46:16Z</time>
      </trkpt>
      <trkpt lat="45.97485" lon="6.58102">
        <ele>1852.3</ele>
        <time>2026-02-02T15:46:17Z</time>
      </trkpt>
      <trkpt lat="45.97485" lon="6.581">
        <ele>1852.3</ele>
        <time>2026-02-02T15:46:18Z</time>
      </trkpt>
      <trkpt lat="45.97485" lon="6.58099">
        <ele>1852.3</ele>
        <time>2026-02-02T15:46:19Z</time>
      </trkpt>
      <trkpt lat="45.97485" lon="6.58098">
        <ele>1853.3</ele>
        <time>2026-02-02T15:46:20Z</time>
      </trkpt>
      <trkpt lat="45.97485" lon="6.58098">
        <ele>1853.3</ele>
        <time>2026-02-02T15:46:21Z</time>
      </trkpt>
      <trkpt lat="45.97485" lon="6.58098">
        <ele>1853.3</ele>
        <time>2026-02-02T15:46:22Z</time>
      </trkpt>
      <trkpt lat="45.97485" lon="6.58098">
        <ele>1853.3</ele>
        <time>2026-02-02T15:46:23Z</time>
      </trkpt>
      <trkpt lat="45.97485" lon="6.58098">
        <ele>1853.3</ele>
        <time>2026-02-02T15:46:24Z</time>
      </trkpt>
      <trkpt lat="45.97485" lon="6.58098">
        <ele>1853.3</ele>
        <time>2026-02-02T15:46:25Z</time>
      </trkpt>
      <trkpt lat="45.97485" lon="6.58098">
        <ele>1853.3</ele>
        <time>2026-02-02T15:46:26Z</time>
      </trkpt>
      <trkpt lat="45.97485" lon="6.58098">
        <ele>1853.3</ele>
        <time>2026-02-02T15:46:27Z</time>
      </trkpt>
      <trkpt lat="45.97485" lon="6.58098">
        <ele>1853.3</ele>
        <time>2026-02-02T15:46:28Z</time>
      </trkpt>
      <trkpt lat="45.97485" lon="6.58098">
        <ele>1853.3</ele>
        <time>2026-02-02T15:46:29Z</time>
      </trkpt>
      <trkpt lat="45.97485" lon="6.58098">
        <ele>1853.3</ele>
        <time>2026-02-02T15:46:30Z</time>
      </trkpt>
      <trkpt lat="45.97485" lon="6.58098">
        <ele>1853.4</ele>
        <time>2026-02-02T15:46:31Z</time>
      </trkpt>
      <trkpt lat="45.97485" lon="6.58098">
        <ele>1853.4</ele>
        <time>2026-02-02T15:46:32Z</time>
      </trkpt>
      <trkpt lat="45.97485" lon="6.58098">
        <ele>1853.4</ele>
        <time>2026-02-02T15:46:33Z</time>
      </trkpt>
      <trkpt lat="45.97485" lon="6.58098">
        <ele>1853.4</ele>
        <time>2026-02-02T15:46:34Z</time>
      </trkpt>
      <trkpt lat="45.97485" lon="6.58098">
        <ele>1853.4</ele>
        <time>2026-02-02T15:46:35Z</time>
      </trkpt>
      <trkpt lat="45.97485" lon="6.58099">
        <ele>1852.4</ele>
        <time>2026-02-02T15:46:36Z</time>
      </trkpt>
      <trkpt lat="45.97484" lon="6.58099">
        <ele>1852.4</ele>
        <time>2026-02-02T15:46:37Z</time>
      </trkpt>
      <trkpt lat="45.97482" lon="6.58096">
        <ele>1851.9</ele>
        <time>2026-02-02T15:46:38Z</time>
      </trkpt>
      <trkpt lat="45.97478" lon="6.5809">
        <ele>1851.4</ele>
        <time>2026-02-02T15:46:39Z</time>
      </trkpt>
      <trkpt lat="45.97474" lon="6.58084">
        <ele>1850.7</ele>
        <time>2026-02-02T15:46:40Z</time>
      </trkpt>
      <trkpt lat="45.9747" lon="6.5808">
        <ele>1851.3</ele>
        <time>2026-02-02T15:46:41Z</time>
      </trkpt>
      <trkpt lat="45.97467" lon="6.58078">
        <ele>1849.8</ele>
        <time>2026-02-02T15:46:42Z</time>
      </trkpt>
      <trkpt lat="45.97464" lon="6.58077">
        <ele>1849.8</ele>
        <time>2026-02-02T15:46:43Z</time>
      </trkpt>
      <trkpt lat="45.97461" lon="6.58076">
        <ele>1848.3</ele>
        <time>2026-02-02T15:46:44Z</time>
      </trkpt>
      <trkpt lat="45.97457" lon="6.58075">
        <ele>1846.9</ele>
        <time>2026-02-02T15:46:45Z</time>
      </trkpt>
      <trkpt lat="45.97456" lon="6.58074">
        <ele>1845.6</ele>
        <time>2026-02-02T15:46:46Z</time>
      </trkpt>
      <trkpt lat="45.97453" lon="6.58071">
        <ele>1845.8</ele>
        <time>2026-02-02T15:46:47Z</time>
      </trkpt>
      <trkpt lat="45.97451" lon="6.58067">
        <ele>1847.4</ele>
        <time>2026-02-02T15:46:48Z</time>
      </trkpt>
      <trkpt lat="45.97448" lon="6.58062">
        <ele>1846.1</ele>
        <time>2026-02-02T15:46:49Z</time>
      </trkpt>
      <trkpt lat="45.97444" lon="6.5806">
        <ele>1844.5</ele>
        <time>2026-02-02T15:46:50Z</time>
      </trkpt>
      <trkpt lat="45.97441" lon="6.58058">
        <ele>1844.5</ele>
        <time>2026-02-02T15:46:51Z</time>
      </trkpt>
      <trkpt lat="45.97438" lon="6.58056">
        <ele>1843</ele>
        <time>2026-02-02T15:46:52Z</time>
      </trkpt>
      <trkpt lat="45.97434" lon="6.58053">
        <ele>1843.2</ele>
        <time>2026-02-02T15:46:53Z</time>
      </trkpt>
      <trkpt lat="45.9743" lon="6.5805">
        <ele>1842.4</ele>
        <time>2026-02-02T15:46:54Z</time>
      </trkpt>
      <trkpt lat="45.97425" lon="6.58047">
        <ele>1843</ele>
        <time>2026-02-02T15:46:55Z</time>
      </trkpt>
      <trkpt lat="45.97419" lon="6.58043">
        <ele>1840.3</ele>
        <time>2026-02-02T15:46:56Z</time>
      </trkpt>
      <trkpt lat="45.97414" lon="6.58039">
        <ele>1839.1</ele>
        <time>2026-02-02T15:46:57Z</time>
      </trkpt>
      <trkpt lat="45.97408" lon="6.58035">
        <ele>1838.4</ele>
        <time>2026-02-02T15:46:58Z</time>
      </trkpt>
      <trkpt lat="45.97404" lon="6.58034">
        <ele>1838.4</ele>
        <time>2026-02-02T15:46:59Z</time>
      </trkpt>
      <trkpt lat="45.97401" lon="6.58034">
        <ele>1835.1</ele>
        <time>2026-02-02T15:47:00Z</time>
      </trkpt>
      <trkpt lat="45.97398" lon="6.58035">
        <ele>1833.6</ele>
        <time>2026-02-02T15:47:01Z</time>
      </trkpt>
      <trkpt lat="45.97394" lon="6.58036">
        <ele>1832.1</ele>
        <time>2026-02-02T15:47:02Z</time>
      </trkpt>
      <trkpt lat="45.9739" lon="6.58036">
        <ele>1828.9</ele>
        <time>2026-02-02T15:47:03Z</time>
      </trkpt>
      <trkpt lat="45.97387" lon="6.58036">
        <ele>1827.3</ele>
        <time>2026-02-02T15:47:04Z</time>
      </trkpt>
      <trkpt lat="45.97383" lon="6.58035">
        <ele>1825.7</ele>
        <time>2026-02-02T15:47:05Z</time>
      </trkpt>
      <trkpt lat="45.97381" lon="6.58032">
        <ele>1826.3</ele>
        <time>2026-02-02T15:47:06Z</time>
      </trkpt>
      <trkpt lat="45.97377" lon="6.58029">
        <ele>1826.9</ele>
        <time>2026-02-02T15:47:07Z</time>
      </trkpt>
      <trkpt lat="45.97376" lon="6.58028">
        <ele>1825.4</ele>
        <time>2026-02-02T15:47:08Z</time>
      </trkpt>
      <trkpt lat="45.97372" lon="6.58027">
        <ele>1824</ele>
        <time>2026-02-02T15:47:09Z</time>
      </trkpt>
      <trkpt lat="45.97367" lon="6.58024">
        <ele>1823</ele>
        <time>2026-02-02T15:47:10Z</time>
      </trkpt>
      <trkpt lat="45.97364" lon="6.5802">
        <ele>1823.3</ele>
        <time>2026-02-02T15:47:11Z</time>
      </trkpt>
      <trkpt lat="45.97362" lon="6.58017">
        <ele>1823.3</ele>
        <time>2026-02-02T15:47:12Z</time>
      </trkpt>
      <trkpt lat="45.97361" lon="6.58016">
        <ele>1823.5</ele>
        <time>2026-02-02T15:47:13Z</time>
      </trkpt>
      <trkpt lat="45.97361" lon="6.58017">
        <ele>1821.5</ele>
        <time>2026-02-02T15:47:14Z</time>
      </trkpt>
      <trkpt lat="45.97361" lon="6.58017">
        <ele>1821.5</ele>
        <time>2026-02-02T15:47:15Z</time>
      </trkpt>
      <trkpt lat="45.9736" lon="6.58017">
        <ele>1821.5</ele>
        <time>2026-02-02T15:47:16Z</time>
      </trkpt>
      <trkpt lat="45.9736" lon="6.58017">
        <ele>1821.5</ele>
        <time>2026-02-02T15:47:17Z</time>
      </trkpt>
      <trkpt lat="45.9736" lon="6.58017">
        <ele>1821.6</ele>
        <time>2026-02-02T15:47:18Z</time>
      </trkpt>
      <trkpt lat="45.97359" lon="6.58017">
        <ele>1821.6</ele>
        <time>2026-02-02T15:47:19Z</time>
      </trkpt>
      <trkpt lat="45.97359" lon="6.58017">
        <ele>1821.6</ele>
        <time>2026-02-02T15:47:20Z</time>
      </trkpt>
      <trkpt lat="45.97359" lon="6.58017">
        <ele>1821.6</ele>
        <time>2026-02-02T15:47:21Z</time>
      </trkpt>
      <trkpt lat="45.97358" lon="6.58017">
        <ele>1821.6</ele>
        <time>2026-02-02T15:47:22Z</time>
      </trkpt>
      <trkpt lat="45.97358" lon="6.58018">
        <ele>1819.8</ele>
        <time>2026-02-02T15:47:23Z</time>
      </trkpt>
      <trkpt lat="45.97358" lon="6.58018">
        <ele>1819.8</ele>
        <time>2026-02-02T15:47:24Z</time>
      </trkpt>
      <trkpt lat="45.97357" lon="6.58018">
        <ele>1819.8</ele>
        <time>2026-02-02T15:47:25Z</time>
      </trkpt>
      <trkpt lat="45.97357" lon="6.58018">
        <ele>1819.8</ele>
        <time>2026-02-02T15:47:26Z</time>
      </trkpt>
      <trkpt lat="45.97357" lon="6.58018">
        <ele>1819.8</ele>
        <time>2026-02-02T15:47:27Z</time>
      </trkpt>
      <trkpt lat="45.97356" lon="6.58024">
        <ele>1817.8</ele>
        <time>2026-02-02T15:47:28Z</time>
      </trkpt>
      <trkpt lat="45.97357" lon="6.5803">
        <ele>1815.7</ele>
        <time>2026-02-02T15:47:29Z</time>
      </trkpt>
      <trkpt lat="45.97358" lon="6.58033">
        <ele>1813.6</ele>
        <time>2026-02-02T15:47:30Z</time>
      </trkpt>
      <trkpt lat="45.97359" lon="6.58034">
        <ele>1815.4</ele>
        <time>2026-02-02T15:47:31Z</time>
      </trkpt>
      <trkpt lat="45.97359" lon="6.58037">
        <ele>1813.3</ele>
        <time>2026-02-02T15:47:32Z</time>
      </trkpt>
      <trkpt lat="45.97354" lon="6.5804">
        <ele>1807.8</ele>
        <time>2026-02-02T15:47:33Z</time>
      </trkpt>
      <trkpt lat="45.9735" lon="6.5804">
        <ele>1806.2</ele>
        <time>2026-02-02T15:47:34Z</time>
      </trkpt>
      <trkpt lat="45.97348" lon="6.58037">
        <ele>1806.8</ele>
        <time>2026-02-02T15:47:35Z</time>
      </trkpt>
      <trkpt lat="45.97347" lon="6.58038">
        <ele>1806.8</ele>
        <time>2026-02-02T15:47:36Z</time>
      </trkpt>
      <trkpt lat="45.97347" lon="6.58044">
        <ele>1802.8</ele>
        <time>2026-02-02T15:47:37Z</time>
      </trkpt>
      <trkpt lat="45.97349" lon="6.5805">
        <ele>1801</ele>
        <time>2026-02-02T15:47:38Z</time>
      </trkpt>
      <trkpt lat="45.97351" lon="6.58056">
        <ele>1798.9</ele>
        <time>2026-02-02T15:47:39Z</time>
      </trkpt>
      <trkpt lat="45.97349" lon="6.58057">
        <ele>1797.5</ele>
        <time>2026-02-02T15:47:40Z</time>
      </trkpt>
      <trkpt lat="45.97347" lon="6.58056">
        <ele>1797.5</ele>
        <time>2026-02-02T15:47:41Z</time>
      </trkpt>
      <trkpt lat="45.97343" lon="6.58052">
        <ele>1796.4</ele>
        <time>2026-02-02T15:47:42Z</time>
      </trkpt>
      <trkpt lat="45.97341" lon="6.58048">
        <ele>1798.1</ele>
        <time>2026-02-02T15:47:43Z</time>
      </trkpt>
      <trkpt lat="45.97336" lon="6.58045">
        <ele>1796.5</ele>
        <time>2026-02-02T15:47:44Z</time>
      </trkpt>
      <trkpt lat="45.97332" lon="6.58042">
        <ele>1796.6</ele>
        <time>2026-02-02T15:47:45Z</time>
      </trkpt>
      <trkpt lat="45.97329" lon="6.5804">
        <ele>1794.9</ele>
        <time>2026-02-02T15:47:46Z</time>
      </trkpt>
      <trkpt lat="45.97326" lon="6.58037">
        <ele>1795.3</ele>
        <time>2026-02-02T15:47:47Z</time>
      </trkpt>
      <trkpt lat="45.97322" lon="6.58034">
        <ele>1794.4</ele>
        <time>2026-02-02T15:47:48Z</time>
      </trkpt>
      <trkpt lat="45.97317" lon="6.58032">
        <ele>1793</ele>
        <time>2026-02-02T15:47:49Z</time>
      </trkpt>
      <trkpt lat="45.97312" lon="6.58029">
        <ele>1792.1</ele>
        <time>2026-02-02T15:47:50Z</time>
      </trkpt>
      <trkpt lat="45.97308" lon="6.58026">
        <ele>1789</ele>
        <time>2026-02-02T15:47:51Z</time>
      </trkpt>
      <trkpt lat="45.97306" lon="6.58025">
        <ele>1790.9</ele>
        <time>2026-02-02T15:47:52Z</time>
      </trkpt>
      <trkpt lat="45.97306" lon="6.58025">
        <ele>1790.9</ele>
        <time>2026-02-02T15:47:53Z</time>
      </trkpt>
      <trkpt lat="45.97306" lon="6.58024">
        <ele>1790.9</ele>
        <time>2026-02-02T15:47:54Z</time>
      </trkpt>
      <trkpt lat="45.97306" lon="6.58025">
        <ele>1790.9</ele>
        <time>2026-02-02T15:47:55Z</time>
      </trkpt>
      <trkpt lat="45.97306" lon="6.58026">
        <ele>1789.1</ele>
        <time>2026-02-02T15:47:56Z</time>
      </trkpt>
      <trkpt lat="45.97304" lon="6.58027">
        <ele>1787.6</ele>
        <time>2026-02-02T15:47:57Z</time>
      </trkpt>
      <trkpt lat="45.97304" lon="6.58033">
        <ele>1785.8</ele>
        <time>2026-02-02T15:47:58Z</time>
      </trkpt>
      <trkpt lat="45.97307" lon="6.5804">
        <ele>1783.6</ele>
        <time>2026-02-02T15:47:59Z</time>
      </trkpt>
      <trkpt lat="45.97308" lon="6.58043">
        <ele>1783.4</ele>
        <time>2026-02-02T15:48:00Z</time>
      </trkpt>
      <trkpt lat="45.97311" lon="6.58049">
        <ele>1783.2</ele>
        <time>2026-02-02T15:48:01Z</time>
      </trkpt>
      <trkpt lat="45.97314" lon="6.58054">
        <ele>1783.1</ele>
        <time>2026-02-02T15:48:02Z</time>
      </trkpt>
      <trkpt lat="45.97316" lon="6.58059">
        <ele>1781.6</ele>
        <time>2026-02-02T15:48:03Z</time>
      </trkpt>
      <trkpt lat="45.97319" lon="6.58064">
        <ele>1781.4</ele>
        <time>2026-02-02T15:48:04Z</time>
      </trkpt>
      <trkpt lat="45.97322" lon="6.5807">
        <ele>1779.7</ele>
        <time>2026-02-02T15:48:05Z</time>
      </trkpt>
      <trkpt lat="45.97326" lon="6.58077">
        <ele>1780.6</ele>
        <time>2026-02-02T15:48:06Z</time>
      </trkpt>
      <trkpt lat="45.97329" lon="6.58083">
        <ele>1777.5</ele>
        <time>2026-02-02T15:48:07Z</time>
      </trkpt>
      <trkpt lat="45.97331" lon="6.58087">
        <ele>1775.9</ele>
        <time>2026-02-02T15:48:08Z</time>
      </trkpt>
      <trkpt lat="45.97334" lon="6.5809">
        <ele>1775.8</ele>
        <time>2026-02-02T15:48:09Z</time>
      </trkpt>
      <trkpt lat="45.97335" lon="6.58094">
        <ele>1777.2</ele>
        <time>2026-02-02T15:48:10Z</time>
      </trkpt>
      <trkpt lat="45.97337" lon="6.58098">
        <ele>1775.8</ele>
        <time>2026-02-02T15:48:11Z</time>
      </trkpt>
      <trkpt lat="45.97339" lon="6.58101">
        <ele>1775.8</ele>
        <time>2026-02-02T15:48:12Z</time>
      </trkpt>
      <trkpt lat="45.9734" lon="6.58105">
        <ele>1774.4</ele>
        <time>2026-02-02T15:48:13Z</time>
      </trkpt>
      <trkpt lat="45.97342" lon="6.58109">
        <ele>1774.3</ele>
        <time>2026-02-02T15:48:14Z</time>
      </trkpt>
      <trkpt lat="45.97343" lon="6.5811">
        <ele>1774.3</ele>
        <time>2026-02-02T15:48:15Z</time>
      </trkpt>
      <trkpt lat="45.97346" lon="6.58113">
        <ele>1774.1</ele>
        <time>2026-02-02T15:48:16Z</time>
      </trkpt>
      <trkpt lat="45.97347" lon="6.58115">
        <ele>1775.2</ele>
        <time>2026-02-02T15:48:17Z</time>
      </trkpt>
      <trkpt lat="45.97349" lon="6.58119">
        <ele>1774.9</ele>
        <time>2026-02-02T15:48:18Z</time>
      </trkpt>
      <trkpt lat="45.97352" lon="6.58123">
        <ele>1773.4</ele>
        <time>2026-02-02T15:48:19Z</time>
      </trkpt>
      <trkpt lat="45.97354" lon="6.58127">
        <ele>1773.2</ele>
        <time>2026-02-02T15:48:20Z</time>
      </trkpt>
      <trkpt lat="45.97358" lon="6.5813">
        <ele>1773.2</ele>
        <time>2026-02-02T15:48:21Z</time>
      </trkpt>
      <trkpt lat="45.97361" lon="6.58133">
        <ele>1773.2</ele>
        <time>2026-02-02T15:48:22Z</time>
      </trkpt>
      <trkpt lat="45.97365" lon="6.58137">
        <ele>1776.3</ele>
        <time>2026-02-02T15:48:23Z</time>
      </trkpt>
      <trkpt lat="45.97369" lon="6.58142">
        <ele>1775</ele>
        <time>2026-02-02T15:48:24Z</time>
      </trkpt>
      <trkpt lat="45.97372" lon="6.58148">
        <ele>1775.1</ele>
        <time>2026-02-02T15:48:25Z</time>
      </trkpt>
      <trkpt lat="45.97374" lon="6.58153">
        <ele>1775.2</ele>
        <time>2026-02-02T15:48:26Z</time>
      </trkpt>
      <trkpt lat="45.97375" lon="6.58159">
        <ele>1772.2</ele>
        <time>2026-02-02T15:48:27Z</time>
      </trkpt>
      <trkpt lat="45.97377" lon="6.58165">
        <ele>1772.1</ele>
        <time>2026-02-02T15:48:28Z</time>
      </trkpt>
      <trkpt lat="45.97379" lon="6.58171">
        <ele>1770.4</ele>
        <time>2026-02-02T15:48:29Z</time>
      </trkpt>
      <trkpt lat="45.97379" lon="6.58175">
        <ele>1768.8</ele>
        <time>2026-02-02T15:48:30Z</time>
      </trkpt>
      <trkpt lat="45.97379" lon="6.58174">
        <ele>1768.8</ele>
        <time>2026-02-02T15:48:31Z</time>
      </trkpt>
      <trkpt lat="45.97378" lon="6.58174">
        <ele>1768.8</ele>
        <time>2026-02-02T15:48:32Z</time>
      </trkpt>
      <trkpt lat="45.97378" lon="6.58175">
        <ele>1768.8</ele>
        <time>2026-02-02T15:48:33Z</time>
      </trkpt>
      <trkpt lat="45.97378" lon="6.58176">
        <ele>1767.2</ele>
        <time>2026-02-02T15:48:34Z</time>
      </trkpt>
      <trkpt lat="45.97378" lon="6.58176">
        <ele>1767.2</ele>
        <time>2026-02-02T15:48:35Z</time>
      </trkpt>
      <trkpt lat="45.97378" lon="6.58177">
        <ele>1767.2</ele>
        <time>2026-02-02T15:48:36Z</time>
      </trkpt>
      <trkpt lat="45.97378" lon="6.58177">
        <ele>1767.2</ele>
        <time>2026-02-02T15:48:37Z</time>
      </trkpt>
      <trkpt lat="45.97377" lon="6.58178">
        <ele>1767.2</ele>
        <time>2026-02-02T15:48:38Z</time>
      </trkpt>
      <trkpt lat="45.97377" lon="6.58178">
        <ele>1767.2</ele>
        <time>2026-02-02T15:48:39Z</time>
      </trkpt>
      <trkpt lat="45.97377" lon="6.58179">
        <ele>1767.2</ele>
        <time>2026-02-02T15:48:40Z</time>
      </trkpt>
      <trkpt lat="45.97377" lon="6.58179">
        <ele>1767.2</ele>
        <time>2026-02-02T15:48:41Z</time>
      </trkpt>
      <trkpt lat="45.97377" lon="6.5818">
        <ele>1765.6</ele>
        <time>2026-02-02T15:48:42Z</time>
      </trkpt>
      <trkpt lat="45.97377" lon="6.58181">
        <ele>1765.6</ele>
        <time>2026-02-02T15:48:43Z</time>
      </trkpt>
      <trkpt lat="45.97376" lon="6.58181">
        <ele>1765.6</ele>
        <time>2026-02-02T15:48:44Z</time>
      </trkpt>
      <trkpt lat="45.97376" lon="6.58182">
        <ele>1764.1</ele>
        <time>2026-02-02T15:48:45Z</time>
      </trkpt>
      <trkpt lat="45.97373" lon="6.58184">
        <ele>1762.7</ele>
        <time>2026-02-02T15:48:46Z</time>
      </trkpt>
      <trkpt lat="45.9737" lon="6.58182">
        <ele>1761.2</ele>
        <time>2026-02-02T15:48:47Z</time>
      </trkpt>
      <trkpt lat="45.97367" lon="6.58179">
        <ele>1761.3</ele>
        <time>2026-02-02T15:48:48Z</time>
      </trkpt>
      <trkpt lat="45.97363" lon="6.58175">
        <ele>1761.4</ele>
        <time>2026-02-02T15:48:49Z</time>
      </trkpt>
      <trkpt lat="45.97359" lon="6.58171">
        <ele>1759.8</ele>
        <time>2026-02-02T15:48:50Z</time>
      </trkpt>
      <trkpt lat="45.97355" lon="6.58168">
        <ele>1758.4</ele>
        <time>2026-02-02T15:48:51Z</time>
      </trkpt>
      <trkpt lat="45.9735" lon="6.58165">
        <ele>1758.8</ele>
        <time>2026-02-02T15:48:52Z</time>
      </trkpt>
      <trkpt lat="45.97346" lon="6.58163">
        <ele>1756.4</ele>
        <time>2026-02-02T15:48:53Z</time>
      </trkpt>
      <trkpt lat="45.97342" lon="6.58162">
        <ele>1756.9</ele>
        <time>2026-02-02T15:48:54Z</time>
      </trkpt>
      <trkpt lat="45.97338" lon="6.58162">
        <ele>1755.6</ele>
        <time>2026-02-02T15:48:55Z</time>
      </trkpt>
      <trkpt lat="45.97335" lon="6.5816">
        <ele>1754.2</ele>
        <time>2026-02-02T15:48:56Z</time>
      </trkpt>
      <trkpt lat="45.97333" lon="6.58157">
        <ele>1754.4</ele>
        <time>2026-02-02T15:48:57Z</time>
      </trkpt>
      <trkpt lat="45.97329" lon="6.58156">
        <ele>1753.1</ele>
        <time>2026-02-02T15:48:58Z</time>
      </trkpt>
      <trkpt lat="45.97324" lon="6.58155">
        <ele>1750.8</ele>
        <time>2026-02-02T15:48:59Z</time>
      </trkpt>
      <trkpt lat="45.97319" lon="6.58153">
        <ele>1750.2</ele>
        <time>2026-02-02T15:49:00Z</time>
      </trkpt>
      <trkpt lat="45.97316" lon="6.5815">
        <ele>1749.2</ele>
        <time>2026-02-02T15:49:01Z</time>
      </trkpt>
      <trkpt lat="45.97312" lon="6.58149">
        <ele>1749.5</ele>
        <time>2026-02-02T15:49:02Z</time>
      </trkpt>
      <trkpt lat="45.97308" lon="6.58147">
        <ele>1748.4</ele>
        <time>2026-02-02T15:49:03Z</time>
      </trkpt>
      <trkpt lat="45.97304" lon="6.58146">
        <ele>1746.4</ele>
        <time>2026-02-02T15:49:04Z</time>
      </trkpt>
      <trkpt lat="45.97302" lon="6.58145">
        <ele>1746.8</ele>
        <time>2026-02-02T15:49:05Z</time>
      </trkpt>
      <trkpt lat="45.97298" lon="6.58147">
        <ele>1744.7</ele>
        <time>2026-02-02T15:49:06Z</time>
      </trkpt>
      <trkpt lat="45.97297" lon="6.58152">
        <ele>1743.4</ele>
        <time>2026-02-02T15:49:07Z</time>
      </trkpt>
      <trkpt lat="45.97297" lon="6.58155">
        <ele>1742</ele>
        <time>2026-02-02T15:49:08Z</time>
      </trkpt>
      <trkpt lat="45.973" lon="6.5816">
        <ele>1741.3</ele>
        <time>2026-02-02T15:49:09Z</time>
      </trkpt>
      <trkpt lat="45.97303" lon="6.58165">
        <ele>1740.7</ele>
        <time>2026-02-02T15:49:10Z</time>
      </trkpt>
      <trkpt lat="45.97307" lon="6.58169">
        <ele>1740</ele>
        <time>2026-02-02T15:49:11Z</time>
      </trkpt>
      <trkpt lat="45.9731" lon="6.58172">
        <ele>1739.5</ele>
        <time>2026-02-02T15:49:12Z</time>
      </trkpt>
      <trkpt lat="45.97312" lon="6.58175">
        <ele>1740.5</ele>
        <time>2026-02-02T15:49:13Z</time>
      </trkpt>
      <trkpt lat="45.97315" lon="6.58178">
        <ele>1740</ele>
        <time>2026-02-02T15:49:14Z</time>
      </trkpt>
      <trkpt lat="45.97317" lon="6.58181">
        <ele>1739.5</ele>
        <time>2026-02-02T15:49:15Z</time>
      </trkpt>
      <trkpt lat="45.9732" lon="6.58185">
        <ele>1739</ele>
        <time>2026-02-02T15:49:16Z</time>
      </trkpt>
      <trkpt lat="45.9732" lon="6.58186">
        <ele>1739</ele>
        <time>2026-02-02T15:49:17Z</time>
      </trkpt>
      <trkpt lat="45.97321" lon="6.58187">
        <ele>1739</ele>
        <time>2026-02-02T15:49:18Z</time>
      </trkpt>
      <trkpt lat="45.97321" lon="6.58188">
        <ele>1739</ele>
        <time>2026-02-02T15:49:19Z</time>
      </trkpt>
      <trkpt lat="45.97321" lon="6.58188">
        <ele>1739</ele>
        <time>2026-02-02T15:49:20Z</time>
      </trkpt>
      <trkpt lat="45.97321" lon="6.58188">
        <ele>1739</ele>
        <time>2026-02-02T15:49:21Z</time>
      </trkpt>
      <trkpt lat="45.97321" lon="6.58189">
        <ele>1737.5</ele>
        <time>2026-02-02T15:49:22Z</time>
      </trkpt>
      <trkpt lat="45.97321" lon="6.58189">
        <ele>1737.5</ele>
        <time>2026-02-02T15:49:23Z</time>
      </trkpt>
      <trkpt lat="45.97321" lon="6.5819">
        <ele>1737.5</ele>
        <time>2026-02-02T15:49:24Z</time>
      </trkpt>
      <trkpt lat="45.97321" lon="6.5819">
        <ele>1737.5</ele>
        <time>2026-02-02T15:49:25Z</time>
      </trkpt>
      <trkpt lat="45.97321" lon="6.5819">
        <ele>1737.5</ele>
        <time>2026-02-02T15:49:26Z</time>
      </trkpt>
      <trkpt lat="45.97321" lon="6.58191">
        <ele>1737.5</ele>
        <time>2026-02-02T15:49:27Z</time>
      </trkpt>
      <trkpt lat="45.9732" lon="6.58191">
        <ele>1737.5</ele>
        <time>2026-02-02T15:49:28Z</time>
      </trkpt>
      <trkpt lat="45.9732" lon="6.58191">
        <ele>1737.5</ele>
        <time>2026-02-02T15:49:29Z</time>
      </trkpt>
      <trkpt lat="45.9732" lon="6.58192">
        <ele>1737.5</ele>
        <time>2026-02-02T15:49:30Z</time>
      </trkpt>
      <trkpt lat="45.9732" lon="6.58192">
        <ele>1737.5</ele>
        <time>2026-02-02T15:49:31Z</time>
      </trkpt>
      <trkpt lat="45.9732" lon="6.58193">
        <ele>1737.6</ele>
        <time>2026-02-02T15:49:32Z</time>
      </trkpt>
      <trkpt lat="45.9732" lon="6.58193">
        <ele>1736</ele>
        <time>2026-02-02T15:49:33Z</time>
      </trkpt>
      <trkpt lat="45.9732" lon="6.58193">
        <ele>1736</ele>
        <time>2026-02-02T15:49:34Z</time>
      </trkpt>
      <trkpt lat="45.9732" lon="6.58194">
        <ele>1736</ele>
        <time>2026-02-02T15:49:35Z</time>
      </trkpt>
      <trkpt lat="45.9732" lon="6.58194">
        <ele>1735.2</ele>
        <time>2026-02-02T15:49:36Z</time>
      </trkpt>
      <trkpt lat="45.97319" lon="6.58194">
        <ele>1735.2</ele>
        <time>2026-02-02T15:49:37Z</time>
      </trkpt>
      <trkpt lat="45.97316" lon="6.58197">
        <ele>1732.7</ele>
        <time>2026-02-02T15:49:38Z</time>
      </trkpt>
      <trkpt lat="45.97312" lon="6.58197">
        <ele>1731.8</ele>
        <time>2026-02-02T15:49:39Z</time>
      </trkpt>
      <trkpt lat="45.97307" lon="6.58198">
        <ele>1729.9</ele>
        <time>2026-02-02T15:49:40Z</time>
      </trkpt>
      <trkpt lat="45.97303" lon="6.58196">
        <ele>1730.5</ele>
        <time>2026-02-02T15:49:41Z</time>
      </trkpt>
      <trkpt lat="45.97298" lon="6.58194">
        <ele>1728.9</ele>
        <time>2026-02-02T15:49:42Z</time>
      </trkpt>
      <trkpt lat="45.97295" lon="6.58193">
        <ele>1728.2</ele>
        <time>2026-02-02T15:49:43Z</time>
      </trkpt>
      <trkpt lat="45.97292" lon="6.58193">
        <ele>1727.5</ele>
        <time>2026-02-02T15:49:44Z</time>
      </trkpt>
      <trkpt lat="45.97289" lon="6.58192">
        <ele>1728.3</ele>
        <time>2026-02-02T15:49:45Z</time>
      </trkpt>
      <trkpt lat="45.97288" lon="6.58191">
        <ele>1728.3</ele>
        <time>2026-02-02T15:49:46Z</time>
      </trkpt>
      <trkpt lat="45.97285" lon="6.58193">
        <ele>1726.2</ele>
        <time>2026-02-02T15:49:47Z</time>
      </trkpt>
      <trkpt lat="45.97284" lon="6.58194">
        <ele>1726.2</ele>
        <time>2026-02-02T15:49:48Z</time>
      </trkpt>
      <trkpt lat="45.97281" lon="6.58196">
        <ele>1725.5</ele>
        <time>2026-02-02T15:49:49Z</time>
      </trkpt>
      <trkpt lat="45.97279" lon="6.58198">
        <ele>1723.3</ele>
        <time>2026-02-02T15:49:50Z</time>
      </trkpt>
      <trkpt lat="45.97277" lon="6.58201">
        <ele>1722.5</ele>
        <time>2026-02-02T15:49:51Z</time>
      </trkpt>
      <trkpt lat="45.97276" lon="6.58202">
        <ele>1720.9</ele>
        <time>2026-02-02T15:49:52Z</time>
      </trkpt>
      <trkpt lat="45.97277" lon="6.58207">
        <ele>1719.4</ele>
        <time>2026-02-02T15:49:53Z</time>
      </trkpt>
      <trkpt lat="45.97278" lon="6.58211">
        <ele>1717.8</ele>
        <time>2026-02-02T15:49:54Z</time>
      </trkpt>
      <trkpt lat="45.97282" lon="6.58213">
        <ele>1719.4</ele>
        <time>2026-02-02T15:49:55Z</time>
      </trkpt>
      <trkpt lat="45.97286" lon="6.58215">
        <ele>1718.6</ele>
        <time>2026-02-02T15:49:56Z</time>
      </trkpt>
      <trkpt lat="45.9729" lon="6.58218">
        <ele>1720</ele>
        <time>2026-02-02T15:49:57Z</time>
      </trkpt>
      <trkpt lat="45.97293" lon="6.5822">
        <ele>1719.2</ele>
        <time>2026-02-02T15:49:58Z</time>
      </trkpt>
      <trkpt lat="45.97296" lon="6.58223">
        <ele>1718.4</ele>
        <time>2026-02-02T15:49:59Z</time>
      </trkpt>
      <trkpt lat="45.97298" lon="6.58227">
        <ele>1717</ele>
        <time>2026-02-02T15:50:00Z</time>
      </trkpt>
      <trkpt lat="45.973" lon="6.58231">
        <ele>1717.8</ele>
        <time>2026-02-02T15:50:01Z</time>
      </trkpt>
      <trkpt lat="45.97302" lon="6.58236">
        <ele>1715.2</ele>
        <time>2026-02-02T15:50:02Z</time>
      </trkpt>
      <trkpt lat="45.97304" lon="6.5824">
        <ele>1714.7</ele>
        <time>2026-02-02T15:50:03Z</time>
      </trkpt>
      <trkpt lat="45.97305" lon="6.58245">
        <ele>1714.3</ele>
        <time>2026-02-02T15:50:04Z</time>
      </trkpt>
      <trkpt lat="45.97306" lon="6.5825">
        <ele>1712.9</ele>
        <time>2026-02-02T15:50:05Z</time>
      </trkpt>
      <trkpt lat="45.97306" lon="6.58252">
        <ele>1712.9</ele>
        <time>2026-02-02T15:50:06Z</time>
      </trkpt>
      <trkpt lat="45.97305" lon="6.58258">
        <ele>1710.1</ele>
        <time>2026-02-02T15:50:07Z</time>
      </trkpt>
      <trkpt lat="45.97302" lon="6.5826">
        <ele>1709.2</ele>
        <time>2026-02-02T15:50:08Z</time>
      </trkpt>
      <trkpt lat="45.97298" lon="6.58258">
        <ele>1707.5</ele>
        <time>2026-02-02T15:50:09Z</time>
      </trkpt>
      <trkpt lat="45.97292" lon="6.58255">
        <ele>1707.4</ele>
        <time>2026-02-02T15:50:10Z</time>
      </trkpt>
      <trkpt lat="45.97287" lon="6.58254">
        <ele>1706.6</ele>
        <time>2026-02-02T15:50:11Z</time>
      </trkpt>
      <trkpt lat="45.97282" lon="6.58252">
        <ele>1706.5</ele>
        <time>2026-02-02T15:50:12Z</time>
      </trkpt>
      <trkpt lat="45.97276" lon="6.5825">
        <ele>1704.8</ele>
        <time>2026-02-02T15:50:13Z</time>
      </trkpt>
      <trkpt lat="45.97271" lon="6.58248">
        <ele>1704.6</ele>
        <time>2026-02-02T15:50:14Z</time>
      </trkpt>
      <trkpt lat="45.97267" lon="6.5825">
        <ele>1702.5</ele>
        <time>2026-02-02T15:50:15Z</time>
      </trkpt>
      <trkpt lat="45.97264" lon="6.58252">
        <ele>1701.9</ele>
        <time>2026-02-02T15:50:16Z</time>
      </trkpt>
      <trkpt lat="45.97261" lon="6.58254">
        <ele>1699.9</ele>
        <time>2026-02-02T15:50:17Z</time>
      </trkpt>
      <trkpt lat="45.97258" lon="6.58256">
        <ele>1699.2</ele>
        <time>2026-02-02T15:50:18Z</time>
      </trkpt>
      <trkpt lat="45.97254" lon="6.58258">
        <ele>1697.1</ele>
        <time>2026-02-02T15:50:19Z</time>
      </trkpt>
      <trkpt lat="45.9725" lon="6.58259">
        <ele>1695.3</ele>
        <time>2026-02-02T15:50:20Z</time>
      </trkpt>
      <trkpt lat="45.97246" lon="6.58261">
        <ele>1694.4</ele>
        <time>2026-02-02T15:50:21Z</time>
      </trkpt>
      <trkpt lat="45.97243" lon="6.58262">
        <ele>1692.2</ele>
        <time>2026-02-02T15:50:22Z</time>
      </trkpt>
      <trkpt lat="45.9724" lon="6.58263">
        <ele>1691.4</ele>
        <time>2026-02-02T15:50:23Z</time>
      </trkpt>
      <trkpt lat="45.97237" lon="6.58263">
        <ele>1690.6</ele>
        <time>2026-02-02T15:50:24Z</time>
      </trkpt>
      <trkpt lat="45.97235" lon="6.58262">
        <ele>1689.7</ele>
        <time>2026-02-02T15:50:25Z</time>
      </trkpt>
      <trkpt lat="45.97234" lon="6.58262">
        <ele>1689.7</ele>
        <time>2026-02-02T15:50:26Z</time>
      </trkpt>
      <trkpt lat="45.97234" lon="6.58262">
        <ele>1689.7</ele>
        <time>2026-02-02T15:50:27Z</time>
      </trkpt>
      <trkpt lat="45.97234" lon="6.58262">
        <ele>1689.7</ele>
        <time>2026-02-02T15:50:28Z</time>
      </trkpt>
      <trkpt lat="45.97234" lon="6.58262">
        <ele>1689.7</ele>
        <time>2026-02-02T15:50:29Z</time>
      </trkpt>
      <trkpt lat="45.97234" lon="6.58262">
        <ele>1689.7</ele>
        <time>2026-02-02T15:50:30Z</time>
      </trkpt>
      <trkpt lat="45.97234" lon="6.58262">
        <ele>1689.7</ele>
        <time>2026-02-02T15:50:31Z</time>
      </trkpt>
      <trkpt lat="45.97234" lon="6.58262">
        <ele>1689.7</ele>
        <time>2026-02-02T15:50:32Z</time>
      </trkpt>
      <trkpt lat="45.97234" lon="6.58262">
        <ele>1689.8</ele>
        <time>2026-02-02T15:50:33Z</time>
      </trkpt>
      <trkpt lat="45.97234" lon="6.58262">
        <ele>1689.8</ele>
        <time>2026-02-02T15:50:34Z</time>
      </trkpt>
      <trkpt lat="45.97234" lon="6.58261">
        <ele>1689.8</ele>
        <time>2026-02-02T15:50:35Z</time>
      </trkpt>
      <trkpt lat="45.97234" lon="6.58262">
        <ele>1689.8</ele>
        <time>2026-02-02T15:50:36Z</time>
      </trkpt>
      <trkpt lat="45.97234" lon="6.58263">
        <ele>1689.8</ele>
        <time>2026-02-02T15:50:37Z</time>
      </trkpt>
      <trkpt lat="45.97234" lon="6.58264">
        <ele>1689.8</ele>
        <time>2026-02-02T15:50:38Z</time>
      </trkpt>
      <trkpt lat="45.97234" lon="6.58265">
        <ele>1689.8</ele>
        <time>2026-02-02T15:50:39Z</time>
      </trkpt>
      <trkpt lat="45.97233" lon="6.58266">
        <ele>1688.5</ele>
        <time>2026-02-02T15:50:40Z</time>
      </trkpt>
      <trkpt lat="45.97233" lon="6.58267">
        <ele>1688.6</ele>
        <time>2026-02-02T15:50:41Z</time>
      </trkpt>
      <trkpt lat="45.97233" lon="6.58268">
        <ele>1688.6</ele>
        <time>2026-02-02T15:50:42Z</time>
      </trkpt>
      <trkpt lat="45.97233" lon="6.58269">
        <ele>1687.5</ele>
        <time>2026-02-02T15:50:43Z</time>
      </trkpt>
      <trkpt lat="45.97233" lon="6.58272">
        <ele>1687.4</ele>
        <time>2026-02-02T15:50:44Z</time>
      </trkpt>
      <trkpt lat="45.97233" lon="6.58274">
        <ele>1686.3</ele>
        <time>2026-02-02T15:50:45Z</time>
      </trkpt>
      <trkpt lat="45.97232" lon="6.58276">
        <ele>1685.2</ele>
        <time>2026-02-02T15:50:46Z</time>
      </trkpt>
      <trkpt lat="45.97229" lon="6.58275">
        <ele>1684</ele>
        <time>2026-02-02T15:50:47Z</time>
      </trkpt>
      <trkpt lat="45.97227" lon="6.58273">
        <ele>1685.2</ele>
        <time>2026-02-02T15:50:48Z</time>
      </trkpt>
      <trkpt lat="45.97225" lon="6.58271">
        <ele>1683.9</ele>
        <time>2026-02-02T15:50:49Z</time>
      </trkpt>
      <trkpt lat="45.97222" lon="6.58268">
        <ele>1683.8</ele>
        <time>2026-02-02T15:50:50Z</time>
      </trkpt>
      <trkpt lat="45.97219" lon="6.58266">
        <ele>1682.5</ele>
        <time>2026-02-02T15:50:51Z</time>
      </trkpt>
      <trkpt lat="45.97218" lon="6.58266">
        <ele>1681</ele>
        <time>2026-02-02T15:50:52Z</time>
      </trkpt>
      <trkpt lat="45.97215" lon="6.58264">
        <ele>1681.1</ele>
        <time>2026-02-02T15:50:53Z</time>
      </trkpt>
      <trkpt lat="45.97213" lon="6.58262">
        <ele>1681.1</ele>
        <time>2026-02-02T15:50:54Z</time>
      </trkpt>
      <trkpt lat="45.9721" lon="6.58261">
        <ele>1681.2</ele>
        <time>2026-02-02T15:50:55Z</time>
      </trkpt>
      <trkpt lat="45.97206" lon="6.5826">
        <ele>1678.2</ele>
        <time>2026-02-02T15:50:56Z</time>
      </trkpt>
      <trkpt lat="45.97205" lon="6.58259">
        <ele>1678.2</ele>
        <time>2026-02-02T15:50:57Z</time>
      </trkpt>
      <trkpt lat="45.97202" lon="6.58258">
        <ele>1676.7</ele>
        <time>2026-02-02T15:50:58Z</time>
      </trkpt>
      <trkpt lat="45.97198" lon="6.58258">
        <ele>1675</ele>
        <time>2026-02-02T15:50:59Z</time>
      </trkpt>
      <trkpt lat="45.97197" lon="6.58259">
        <ele>1673.2</ele>
        <time>2026-02-02T15:51:00Z</time>
      </trkpt>
      <trkpt lat="45.97196" lon="6.58264">
        <ele>1671.6</ele>
        <time>2026-02-02T15:51:01Z</time>
      </trkpt>
      <trkpt lat="45.97198" lon="6.58269">
        <ele>1671.9</ele>
        <time>2026-02-02T15:51:02Z</time>
      </trkpt>
      <trkpt lat="45.97199" lon="6.58269">
        <ele>1671.9</ele>
        <time>2026-02-02T15:51:03Z</time>
      </trkpt>
      <trkpt lat="45.972" lon="6.5827">
        <ele>1671.9</ele>
        <time>2026-02-02T15:51:04Z</time>
      </trkpt>
      <trkpt lat="45.97201" lon="6.58271">
        <ele>1672.2</ele>
        <time>2026-02-02T15:51:05Z</time>
      </trkpt>
      <trkpt lat="45.97203" lon="6.58277">
        <ele>1672.4</ele>
        <time>2026-02-02T15:51:06Z</time>
      </trkpt>
      <trkpt lat="45.97205" lon="6.58279">
        <ele>1671.1</ele>
        <time>2026-02-02T15:51:07Z</time>
      </trkpt>
      <trkpt lat="45.97206" lon="6.58283">
        <ele>1669.8</ele>
        <time>2026-02-02T15:51:08Z</time>
      </trkpt>
      <trkpt lat="45.97207" lon="6.58289">
        <ele>1670.1</ele>
        <time>2026-02-02T15:51:09Z</time>
      </trkpt>
      <trkpt lat="45.97208" lon="6.58292">
        <ele>1668.8</ele>
        <time>2026-02-02T15:51:10Z</time>
      </trkpt>
      <trkpt lat="45.97208" lon="6.583">
        <ele>1667.5</ele>
        <time>2026-02-02T15:51:11Z</time>
      </trkpt>
      <trkpt lat="45.97209" lon="6.58307">
        <ele>1666.5</ele>
        <time>2026-02-02T15:51:12Z</time>
      </trkpt>
      <trkpt lat="45.97211" lon="6.58313">
        <ele>1664.2</ele>
        <time>2026-02-02T15:51:13Z</time>
      </trkpt>
      <trkpt lat="45.97213" lon="6.58318">
        <ele>1664.7</ele>
        <time>2026-02-02T15:51:14Z</time>
      </trkpt>
      <trkpt lat="45.97214" lon="6.58324">
        <ele>1663.7</ele>
        <time>2026-02-02T15:51:15Z</time>
      </trkpt>
      <trkpt lat="45.97216" lon="6.58328">
        <ele>1664.2</ele>
        <time>2026-02-02T15:51:16Z</time>
      </trkpt>
      <trkpt lat="45.97217" lon="6.5833">
        <ele>1664.2</ele>
        <time>2026-02-02T15:51:17Z</time>
      </trkpt>
      <trkpt lat="45.97217" lon="6.5833">
        <ele>1664.3</ele>
        <time>2026-02-02T15:51:18Z</time>
      </trkpt>
      <trkpt lat="45.97217" lon="6.5833">
        <ele>1664.3</ele>
        <time>2026-02-02T15:51:19Z</time>
      </trkpt>
      <trkpt lat="45.97216" lon="6.5833">
        <ele>1663.2</ele>
        <time>2026-02-02T15:51:20Z</time>
      </trkpt>
      <trkpt lat="45.97216" lon="6.5833">
        <ele>1663.2</ele>
        <time>2026-02-02T15:51:21Z</time>
      </trkpt>
      <trkpt lat="45.97216" lon="6.58331">
        <ele>1663.2</ele>
        <time>2026-02-02T15:51:22Z</time>
      </trkpt>
      <trkpt lat="45.97216" lon="6.58331">
        <ele>1663.2</ele>
        <time>2026-02-02T15:51:23Z</time>
      </trkpt>
      <trkpt lat="45.97216" lon="6.58331">
        <ele>1663.3</ele>
        <time>2026-02-02T15:51:24Z</time>
      </trkpt>
      <trkpt lat="45.97216" lon="6.58331">
        <ele>1663.3</ele>
        <time>2026-02-02T15:51:25Z</time>
      </trkpt>
      <trkpt lat="45.97215" lon="6.58331">
        <ele>1663.3</ele>
        <time>2026-02-02T15:51:26Z</time>
      </trkpt>
      <trkpt lat="45.97215" lon="6.58332">
        <ele>1661.7</ele>
        <time>2026-02-02T15:51:27Z</time>
      </trkpt>
      <trkpt lat="45.97215" lon="6.58332">
        <ele>1661.8</ele>
        <time>2026-02-02T15:51:28Z</time>
      </trkpt>
      <trkpt lat="45.97215" lon="6.58332">
        <ele>1661.8</ele>
        <time>2026-02-02T15:51:29Z</time>
      </trkpt>
      <trkpt lat="45.97215" lon="6.58332">
        <ele>1661.8</ele>
        <time>2026-02-02T15:51:30Z</time>
      </trkpt>
      <trkpt lat="45.97214" lon="6.58332">
        <ele>1661.8</ele>
        <time>2026-02-02T15:51:31Z</time>
      </trkpt>
      <trkpt lat="45.97214" lon="6.58333">
        <ele>1661.8</ele>
        <time>2026-02-02T15:51:32Z</time>
      </trkpt>
      <trkpt lat="45.97214" lon="6.58333">
        <ele>1661.8</ele>
        <time>2026-02-02T15:51:33Z</time>
      </trkpt>
      <trkpt lat="45.97214" lon="6.58333">
        <ele>1661.8</ele>
        <time>2026-02-02T15:51:34Z</time>
      </trkpt>
      <trkpt lat="45.97211" lon="6.58334">
        <ele>1660.3</ele>
        <time>2026-02-02T15:51:35Z</time>
      </trkpt>
      <trkpt lat="45.97207" lon="6.58334">
        <ele>1658.8</ele>
        <time>2026-02-02T15:51:36Z</time>
      </trkpt>
      <trkpt lat="45.97206" lon="6.58334">
        <ele>1657.3</ele>
        <time>2026-02-02T15:51:37Z</time>
      </trkpt>
      <trkpt lat="45.97201" lon="6.58332">
        <ele>1655.7</ele>
        <time>2026-02-02T15:51:38Z</time>
      </trkpt>
      <trkpt lat="45.97196" lon="6.5833">
        <ele>1653.4</ele>
        <time>2026-02-02T15:51:39Z</time>
      </trkpt>
      <trkpt lat="45.97192" lon="6.58328">
        <ele>1651.6</ele>
        <time>2026-02-02T15:51:40Z</time>
      </trkpt>
      <trkpt lat="45.97188" lon="6.58326">
        <ele>1649.2</ele>
        <time>2026-02-02T15:51:41Z</time>
      </trkpt>
      <trkpt lat="45.97185" lon="6.58324">
        <ele>1647.6</ele>
        <time>2026-02-02T15:51:42Z</time>
      </trkpt>
      <trkpt lat="45.97181" lon="6.58323">
        <ele>1646.2</ele>
        <time>2026-02-02T15:51:43Z</time>
      </trkpt>
      <trkpt lat="45.97178" lon="6.58321">
        <ele>1645.8</ele>
        <time>2026-02-02T15:51:44Z</time>
      </trkpt>
      <trkpt lat="45.97175" lon="6.58321">
        <ele>1644.3</ele>
        <time>2026-02-02T15:51:45Z</time>
      </trkpt>
      <trkpt lat="45.97171" lon="6.58319">
        <ele>1642.7</ele>
        <time>2026-02-02T15:51:46Z</time>
      </trkpt>
      <trkpt lat="45.97168" lon="6.58317">
        <ele>1642</ele>
        <time>2026-02-02T15:51:47Z</time>
      </trkpt>
      <trkpt lat="45.97165" lon="6.58315">
        <ele>1640.3</ele>
        <time>2026-02-02T15:51:48Z</time>
      </trkpt>
      <trkpt lat="45.97163" lon="6.58314">
        <ele>1638.6</ele>
        <time>2026-02-02T15:51:49Z</time>
      </trkpt>
      <trkpt lat="45.97159" lon="6.58312">
        <ele>1638.1</ele>
        <time>2026-02-02T15:51:50Z</time>
      </trkpt>
      <trkpt lat="45.97156" lon="6.58311">
        <ele>1636.7</ele>
        <time>2026-02-02T15:51:51Z</time>
      </trkpt>
      <trkpt lat="45.97152" lon="6.5831">
        <ele>1634</ele>
        <time>2026-02-02T15:51:52Z</time>
      </trkpt>
      <trkpt lat="45.97149" lon="6.5831">
        <ele>1632.5</ele>
        <time>2026-02-02T15:51:53Z</time>
      </trkpt>
      <trkpt lat="45.97146" lon="6.58311">
        <ele>1631</ele>
        <time>2026-02-02T15:51:54Z</time>
      </trkpt>
      <trkpt lat="45.97142" lon="6.5831">
        <ele>1629.4</ele>
        <time>2026-02-02T15:51:55Z</time>
      </trkpt>
      <trkpt lat="45.97138" lon="6.58307">
        <ele>1628.9</ele>
        <time>2026-02-02T15:51:56Z</time>
      </trkpt>
      <trkpt lat="45.97137" lon="6.58305">
        <ele>1627.3</ele>
        <time>2026-02-02T15:51:57Z</time>
      </trkpt>
      <trkpt lat="45.97135" lon="6.58307">
        <ele>1627.3</ele>
        <time>2026-02-02T15:51:58Z</time>
      </trkpt>
      <trkpt lat="45.97134" lon="6.58311">
        <ele>1624.7</ele>
        <time>2026-02-02T15:51:59Z</time>
      </trkpt>
      <trkpt lat="45.97134" lon="6.58318">
        <ele>1622.9</ele>
        <time>2026-02-02T15:52:00Z</time>
      </trkpt>
      <trkpt lat="45.97135" lon="6.58323">
        <ele>1623.7</ele>
        <time>2026-02-02T15:52:01Z</time>
      </trkpt>
      <trkpt lat="45.97135" lon="6.58327">
        <ele>1621.4</ele>
        <time>2026-02-02T15:52:02Z</time>
      </trkpt>
      <trkpt lat="45.97134" lon="6.5833">
        <ele>1620.7</ele>
        <time>2026-02-02T15:52:03Z</time>
      </trkpt>
      <trkpt lat="45.97135" lon="6.58332">
        <ele>1622.2</ele>
        <time>2026-02-02T15:52:04Z</time>
      </trkpt>
      <trkpt lat="45.97135" lon="6.58333">
        <ele>1622.2</ele>
        <time>2026-02-02T15:52:05Z</time>
      </trkpt>
      <trkpt lat="45.97135" lon="6.58332">
        <ele>1620.7</ele>
        <time>2026-02-02T15:52:06Z</time>
      </trkpt>
      <trkpt lat="45.97135" lon="6.58332">
        <ele>1620.7</ele>
        <time>2026-02-02T15:52:07Z</time>
      </trkpt>
      <trkpt lat="45.97135" lon="6.58332">
        <ele>1620.7</ele>
        <time>2026-02-02T15:52:08Z</time>
      </trkpt>
      <trkpt lat="45.97135" lon="6.58332">
        <ele>1620.7</ele>
        <time>2026-02-02T15:52:09Z</time>
      </trkpt>
      <trkpt lat="45.97135" lon="6.58332">
        <ele>1622.3</ele>
        <time>2026-02-02T15:52:10Z</time>
      </trkpt>
      <trkpt lat="45.97135" lon="6.58332">
        <ele>1622.3</ele>
        <time>2026-02-02T15:52:11Z</time>
      </trkpt>
      <trkpt lat="45.97135" lon="6.58332">
        <ele>1622.3</ele>
        <time>2026-02-02T15:52:12Z</time>
      </trkpt>
      <trkpt lat="45.97135" lon="6.58332">
        <ele>1622.3</ele>
        <time>2026-02-02T15:52:13Z</time>
      </trkpt>
      <trkpt lat="45.97135" lon="6.58332">
        <ele>1622.3</ele>
        <time>2026-02-02T15:52:14Z</time>
      </trkpt>
      <trkpt lat="45.97135" lon="6.58332">
        <ele>1622.3</ele>
        <time>2026-02-02T15:52:15Z</time>
      </trkpt>
      <trkpt lat="45.97135" lon="6.58332">
        <ele>1622.3</ele>
        <time>2026-02-02T15:52:16Z</time>
      </trkpt>
      <trkpt lat="45.97134" lon="6.58333">
        <ele>1620.8</ele>
        <time>2026-02-02T15:52:17Z</time>
      </trkpt>
      <trkpt lat="45.97132" lon="6.58335">
        <ele>1620.1</ele>
        <time>2026-02-02T15:52:18Z</time>
      </trkpt>
      <trkpt lat="45.97129" lon="6.58335">
        <ele>1618.6</ele>
        <time>2026-02-02T15:52:19Z</time>
      </trkpt>
      <trkpt lat="45.97126" lon="6.58332">
        <ele>1617.9</ele>
        <time>2026-02-02T15:52:20Z</time>
      </trkpt>
      <trkpt lat="45.97122" lon="6.58327">
        <ele>1615.8</ele>
        <time>2026-02-02T15:52:21Z</time>
      </trkpt>
      <trkpt lat="45.97119" lon="6.58325">
        <ele>1615.1</ele>
        <time>2026-02-02T15:52:22Z</time>
      </trkpt>
      <trkpt lat="45.97116" lon="6.5832">
        <ele>1614.4</ele>
        <time>2026-02-02T15:52:23Z</time>
      </trkpt>
      <trkpt lat="45.97114" lon="6.58315">
        <ele>1615.3</ele>
        <time>2026-02-02T15:52:24Z</time>
      </trkpt>
      <trkpt lat="45.97112" lon="6.58311">
        <ele>1614.7</ele>
        <time>2026-02-02T15:52:25Z</time>
      </trkpt>
      <trkpt lat="45.9711" lon="6.58306">
        <ele>1614.2</ele>
        <time>2026-02-02T15:52:26Z</time>
      </trkpt>
      <trkpt lat="45.9711" lon="6.58305">
        <ele>1614.2</ele>
        <time>2026-02-02T15:52:27Z</time>
      </trkpt>
      <trkpt lat="45.97108" lon="6.58302">
        <ele>1615.3</ele>
        <time>2026-02-02T15:52:28Z</time>
      </trkpt>
      <trkpt lat="45.97106" lon="6.58297">
        <ele>1614.9</ele>
        <time>2026-02-02T15:52:29Z</time>
      </trkpt>
      <trkpt lat="45.97105" lon="6.58296">
        <ele>1616</ele>
        <time>2026-02-02T15:52:30Z</time>
      </trkpt>
      <trkpt lat="45.97103" lon="6.58292">
        <ele>1614.5</ele>
        <time>2026-02-02T15:52:31Z</time>
      </trkpt>
      <trkpt lat="45.97101" lon="6.58289">
        <ele>1614.2</ele>
        <time>2026-02-02T15:52:32Z</time>
      </trkpt>
      <trkpt lat="45.97099" lon="6.58285">
        <ele>1614</ele>
        <time>2026-02-02T15:52:33Z</time>
      </trkpt>
      <trkpt lat="45.97096" lon="6.5828">
        <ele>1615.1</ele>
        <time>2026-02-02T15:52:34Z</time>
      </trkpt>
      <trkpt lat="45.97096" lon="6.58278">
        <ele>1615</ele>
        <time>2026-02-02T15:52:35Z</time>
      </trkpt>
      <trkpt lat="45.97093" lon="6.58274">
        <ele>1616.1</ele>
        <time>2026-02-02T15:52:36Z</time>
      </trkpt>
      <trkpt lat="45.97092" lon="6.58272">
        <ele>1614.9</ele>
        <time>2026-02-02T15:52:37Z</time>
      </trkpt>
      <trkpt lat="45.9709" lon="6.58268">
        <ele>1614.7</ele>
        <time>2026-02-02T15:52:38Z</time>
      </trkpt>
      <trkpt lat="45.97088" lon="6.58267">
        <ele>1614.7</ele>
        <time>2026-02-02T15:52:39Z</time>
      </trkpt>
      <trkpt lat="45.97086" lon="6.58261">
        <ele>1614.4</ele>
        <time>2026-02-02T15:52:40Z</time>
      </trkpt>
      <trkpt lat="45.97084" lon="6.58257">
        <ele>1614.1</ele>
        <time>2026-02-02T15:52:41Z</time>
      </trkpt>
      <trkpt lat="45.97081" lon="6.58254">
        <ele>1615.4</ele>
        <time>2026-02-02T15:52:42Z</time>
      </trkpt>
      <trkpt lat="45.97078" lon="6.58252">
        <ele>1615.1</ele>
        <time>2026-02-02T15:52:43Z</time>
      </trkpt>
      <trkpt lat="45.97075" lon="6.5825">
        <ele>1613.7</ele>
        <time>2026-02-02T15:52:44Z</time>
      </trkpt>
      <trkpt lat="45.97071" lon="6.58248">
        <ele>1612.3</ele>
        <time>2026-02-02T15:52:45Z</time>
      </trkpt>
      <trkpt lat="45.9707" lon="6.58248">
        <ele>1612.3</ele>
        <time>2026-02-02T15:52:46Z</time>
      </trkpt>
      <trkpt lat="45.97068" lon="6.58248">
        <ele>1611</ele>
        <time>2026-02-02T15:52:47Z</time>
      </trkpt>
      <trkpt lat="45.97068" lon="6.58248">
        <ele>1611</ele>
        <time>2026-02-02T15:52:48Z</time>
      </trkpt>
      <trkpt lat="45.97068" lon="6.58248">
        <ele>1611</ele>
        <time>2026-02-02T15:52:49Z</time>
      </trkpt>
      <trkpt lat="45.97068" lon="6.58248">
        <ele>1611</ele>
        <time>2026-02-02T15:52:50Z</time>
      </trkpt>
      <trkpt lat="45.97068" lon="6.58248">
        <ele>1611</ele>
        <time>2026-02-02T15:52:51Z</time>
      </trkpt>
      <trkpt lat="45.97068" lon="6.58248">
        <ele>1611</ele>
        <time>2026-02-02T15:52:52Z</time>
      </trkpt>
      <trkpt lat="45.97068" lon="6.58248">
        <ele>1611</ele>
        <time>2026-02-02T15:52:53Z</time>
      </trkpt>
      <trkpt lat="45.97068" lon="6.58248">
        <ele>1611</ele>
        <time>2026-02-02T15:52:54Z</time>
      </trkpt>
      <trkpt lat="45.97068" lon="6.58248">
        <ele>1611</ele>
        <time>2026-02-02T15:52:55Z</time>
      </trkpt>
      <trkpt lat="45.97068" lon="6.58248">
        <ele>1611.1</ele>
        <time>2026-02-02T15:52:56Z</time>
      </trkpt>
      <trkpt lat="45.97068" lon="6.58248">
        <ele>1611.1</ele>
        <time>2026-02-02T15:52:57Z</time>
      </trkpt>
      <trkpt lat="45.97068" lon="6.58248">
        <ele>1611.1</ele>
        <time>2026-02-02T15:52:58Z</time>
      </trkpt>
      <trkpt lat="45.97068" lon="6.58248">
        <ele>1611.1</ele>
        <time>2026-02-02T15:52:59Z</time>
      </trkpt>
      <trkpt lat="45.97068" lon="6.58248">
        <ele>1611.1</ele>
        <time>2026-02-02T15:53:00Z</time>
      </trkpt>
      <trkpt lat="45.97068" lon="6.58247">
        <ele>1611.1</ele>
        <time>2026-02-02T15:53:01Z</time>
      </trkpt>
      <trkpt lat="45.97066" lon="6.58246">
        <ele>1611.1</ele>
        <time>2026-02-02T15:53:02Z</time>
      </trkpt>
      <trkpt lat="45.97063" lon="6.58249">
        <ele>1608.5</ele>
        <time>2026-02-02T15:53:03Z</time>
      </trkpt>
      <trkpt lat="45.97062" lon="6.5825">
        <ele>1606.9</ele>
        <time>2026-02-02T15:53:04Z</time>
      </trkpt>
      <trkpt lat="45.97063" lon="6.58256">
        <ele>1605.7</ele>
        <time>2026-02-02T15:53:05Z</time>
      </trkpt>
      <trkpt lat="45.97065" lon="6.58262">
        <ele>1604.8</ele>
        <time>2026-02-02T15:53:06Z</time>
      </trkpt>
      <trkpt lat="45.97065" lon="6.58267">
        <ele>1603.6</ele>
        <time>2026-02-02T15:53:07Z</time>
      </trkpt>
      <trkpt lat="45.97066" lon="6.58271">
        <ele>1603.9</ele>
        <time>2026-02-02T15:53:08Z</time>
      </trkpt>
      <trkpt lat="45.97067" lon="6.58276">
        <ele>1602.8</ele>
        <time>2026-02-02T15:53:09Z</time>
      </trkpt>
      <trkpt lat="45.97068" lon="6.58281">
        <ele>1601.7</ele>
        <time>2026-02-02T15:53:10Z</time>
      </trkpt>
      <trkpt lat="45.97069" lon="6.58286">
        <ele>1600.7</ele>
        <time>2026-02-02T15:53:11Z</time>
      </trkpt>
      <trkpt lat="45.9707" lon="6.58291">
        <ele>1600.9</ele>
        <time>2026-02-02T15:53:12Z</time>
      </trkpt>
      <trkpt lat="45.9707" lon="6.58296">
        <ele>1598.7</ele>
        <time>2026-02-02T15:53:13Z</time>
      </trkpt>
      <trkpt lat="45.9707" lon="6.58301">
        <ele>1597.5</ele>
        <time>2026-02-02T15:53:14Z</time>
      </trkpt>
      <trkpt lat="45.97071" lon="6.58307">
        <ele>1596.4</ele>
        <time>2026-02-02T15:53:15Z</time>
      </trkpt>
      <trkpt lat="45.9707" lon="6.58309">
        <ele>1595.4</ele>
        <time>2026-02-02T15:53:16Z</time>
      </trkpt>
      <trkpt lat="45.97067" lon="6.58313">
        <ele>1593.1</ele>
        <time>2026-02-02T15:53:17Z</time>
      </trkpt>
      <trkpt lat="45.97061" lon="6.58313">
        <ele>1590.3</ele>
        <time>2026-02-02T15:53:18Z</time>
      </trkpt>
      <trkpt lat="45.97057" lon="6.58307">
        <ele>1589.3</ele>
        <time>2026-02-02T15:53:19Z</time>
      </trkpt>
      <trkpt lat="45.97053" lon="6.58303">
        <ele>1589</ele>
        <time>2026-02-02T15:53:20Z</time>
      </trkpt>
      <trkpt lat="45.9705" lon="6.583">
        <ele>1588.6</ele>
        <time>2026-02-02T15:53:21Z</time>
      </trkpt>
      <trkpt lat="45.97047" lon="6.58297">
        <ele>1587.2</ele>
        <time>2026-02-02T15:53:22Z</time>
      </trkpt>
      <trkpt lat="45.97044" lon="6.58296">
        <ele>1586.9</ele>
        <time>2026-02-02T15:53:23Z</time>
      </trkpt>
      <trkpt lat="45.97041" lon="6.58292">
        <ele>1585.6</ele>
        <time>2026-02-02T15:53:24Z</time>
      </trkpt>
      <trkpt lat="45.97039" lon="6.58291">
        <ele>1585.2</ele>
        <time>2026-02-02T15:53:25Z</time>
      </trkpt>
      <trkpt lat="45.97037" lon="6.58288">
        <ele>1585.2</ele>
        <time>2026-02-02T15:53:26Z</time>
      </trkpt>
      <trkpt lat="45.97034" lon="6.58286">
        <ele>1584.9</ele>
        <time>2026-02-02T15:53:27Z</time>
      </trkpt>
      <trkpt lat="45.97031" lon="6.58283">
        <ele>1584.5</ele>
        <time>2026-02-02T15:53:28Z</time>
      </trkpt>
      <trkpt lat="45.9703" lon="6.58282">
        <ele>1584.5</ele>
        <time>2026-02-02T15:53:29Z</time>
      </trkpt>
      <trkpt lat="45.9703" lon="6.5828">
        <ele>1583.1</ele>
        <time>2026-02-02T15:53:30Z</time>
      </trkpt>
      <trkpt lat="45.97031" lon="6.5828">
        <ele>1584.5</ele>
        <time>2026-02-02T15:53:31Z</time>
      </trkpt>
      <trkpt lat="45.97031" lon="6.5828">
        <ele>1584.5</ele>
        <time>2026-02-02T15:53:32Z</time>
      </trkpt>
      <trkpt lat="45.97031" lon="6.5828">
        <ele>1584.5</ele>
        <time>2026-02-02T15:53:33Z</time>
      </trkpt>
      <trkpt lat="45.97031" lon="6.5828">
        <ele>1584.6</ele>
        <time>2026-02-02T15:53:34Z</time>
      </trkpt>
      <trkpt lat="45.97031" lon="6.5828">
        <ele>1584.6</ele>
        <time>2026-02-02T15:53:35Z</time>
      </trkpt>
      <trkpt lat="45.97031" lon="6.5828">
        <ele>1584.6</ele>
        <time>2026-02-02T15:53:36Z</time>
      </trkpt>
      <trkpt lat="45.97031" lon="6.5828">
        <ele>1584.6</ele>
        <time>2026-02-02T15:53:37Z</time>
      </trkpt>
      <trkpt lat="45.97031" lon="6.5828">
        <ele>1584.6</ele>
        <time>2026-02-02T15:53:38Z</time>
      </trkpt>
      <trkpt lat="45.97031" lon="6.5828">
        <ele>1584.6</ele>
        <time>2026-02-02T15:53:39Z</time>
      </trkpt>
      <trkpt lat="45.97031" lon="6.5828">
        <ele>1584.6</ele>
        <time>2026-02-02T15:53:40Z</time>
      </trkpt>
      <trkpt lat="45.97031" lon="6.58281">
        <ele>1584.6</ele>
        <time>2026-02-02T15:53:41Z</time>
      </trkpt>
      <trkpt lat="45.97031" lon="6.58281">
        <ele>1584.6</ele>
        <time>2026-02-02T15:53:42Z</time>
      </trkpt>
      <trkpt lat="45.97031" lon="6.58281">
        <ele>1584.6</ele>
        <time>2026-02-02T15:53:43Z</time>
      </trkpt>
      <trkpt lat="45.97031" lon="6.58281">
        <ele>1584.6</ele>
        <time>2026-02-02T15:53:44Z</time>
      </trkpt>
      <trkpt lat="45.9703" lon="6.58281">
        <ele>1584.6</ele>
        <time>2026-02-02T15:53:45Z</time>
      </trkpt>
      <trkpt lat="45.9703" lon="6.58282">
        <ele>1583.3</ele>
        <time>2026-02-02T15:53:46Z</time>
      </trkpt>
      <trkpt lat="45.9703" lon="6.58282">
        <ele>1583.3</ele>
        <time>2026-02-02T15:53:47Z</time>
      </trkpt>
      <trkpt lat="45.9703" lon="6.58282">
        <ele>1583.3</ele>
        <time>2026-02-02T15:53:48Z</time>
      </trkpt>
      <trkpt lat="45.9703" lon="6.58282">
        <ele>1583.3</ele>
        <time>2026-02-02T15:53:49Z</time>
      </trkpt>
      <trkpt lat="45.97029" lon="6.58282">
        <ele>1583.3</ele>
        <time>2026-02-02T15:53:50Z</time>
      </trkpt>
      <trkpt lat="45.97029" lon="6.58282">
        <ele>1583.3</ele>
        <time>2026-02-02T15:53:51Z</time>
      </trkpt>
      <trkpt lat="45.97029" lon="6.58282">
        <ele>1583.3</ele>
        <time>2026-02-02T15:53:52Z</time>
      </trkpt>
      <trkpt lat="45.97027" lon="6.58283">
        <ele>1582.3</ele>
        <time>2026-02-02T15:53:53Z</time>
      </trkpt>
      <trkpt lat="45.97026" lon="6.58287">
        <ele>1580.9</ele>
        <time>2026-02-02T15:53:54Z</time>
      </trkpt>
      <trkpt lat="45.97027" lon="6.58291">
        <ele>1580</ele>
        <time>2026-02-02T15:53:55Z</time>
      </trkpt>
      <trkpt lat="45.97027" lon="6.58296">
        <ele>1579.3</ele>
        <time>2026-02-02T15:53:56Z</time>
      </trkpt>
      <trkpt lat="45.97027" lon="6.58301">
        <ele>1578.2</ele>
        <time>2026-02-02T15:53:57Z</time>
      </trkpt>
      <trkpt lat="45.97027" lon="6.58306">
        <ele>1575.8</ele>
        <time>2026-02-02T15:53:58Z</time>
      </trkpt>
      <trkpt lat="45.97028" lon="6.58313">
        <ele>1576.2</ele>
        <time>2026-02-02T15:53:59Z</time>
      </trkpt>
      <trkpt lat="45.9703" lon="6.5832">
        <ele>1574.5</ele>
        <time>2026-02-02T15:54:00Z</time>
      </trkpt>
      <trkpt lat="45.97032" lon="6.58325">
        <ele>1575.1</ele>
        <time>2026-02-02T15:54:01Z</time>
      </trkpt>
      <trkpt lat="45.97033" lon="6.5833">
        <ele>1574.5</ele>
        <time>2026-02-02T15:54:02Z</time>
      </trkpt>
      <trkpt lat="45.97034" lon="6.58334">
        <ele>1574.4</ele>
        <time>2026-02-02T15:54:03Z</time>
      </trkpt>
      <trkpt lat="45.97034" lon="6.58336">
        <ele>1574.4</ele>
        <time>2026-02-02T15:54:04Z</time>
      </trkpt>
      <trkpt lat="45.97035" lon="6.5834">
        <ele>1573.7</ele>
        <time>2026-02-02T15:54:05Z</time>
      </trkpt>
      <trkpt lat="45.97036" lon="6.58342">
        <ele>1573.7</ele>
        <time>2026-02-02T15:54:06Z</time>
      </trkpt>
      <trkpt lat="45.97036" lon="6.58348">
        <ele>1572.2</ele>
        <time>2026-02-02T15:54:07Z</time>
      </trkpt>
      <trkpt lat="45.97036" lon="6.58351">
        <ele>1572.2</ele>
        <time>2026-02-02T15:54:08Z</time>
      </trkpt>
      <trkpt lat="45.97032" lon="6.58356">
        <ele>1570.2</ele>
        <time>2026-02-02T15:54:09Z</time>
      </trkpt>
      <trkpt lat="45.97027" lon="6.5836">
        <ele>1567.2</ele>
        <time>2026-02-02T15:54:10Z</time>
      </trkpt>
      <trkpt lat="45.97021" lon="6.58363">
        <ele>1565.4</ele>
        <time>2026-02-02T15:54:11Z</time>
      </trkpt>
      <trkpt lat="45.97016" lon="6.58365">
        <ele>1562.8</ele>
        <time>2026-02-02T15:54:12Z</time>
      </trkpt>
      <trkpt lat="45.97012" lon="6.58366">
        <ele>1561.2</ele>
        <time>2026-02-02T15:54:13Z</time>
      </trkpt>
      <trkpt lat="45.97009" lon="6.58366">
        <ele>1560.4</ele>
        <time>2026-02-02T15:54:14Z</time>
      </trkpt>
      <trkpt lat="45.97005" lon="6.58367">
        <ele>1559.6</ele>
        <time>2026-02-02T15:54:15Z</time>
      </trkpt>
      <trkpt lat="45.97001" lon="6.58368">
        <ele>1558.8</ele>
        <time>2026-02-02T15:54:16Z</time>
      </trkpt>
      <trkpt lat="45.96998" lon="6.58371">
        <ele>1557.4</ele>
        <time>2026-02-02T15:54:17Z</time>
      </trkpt>
      <trkpt lat="45.96994" lon="6.58372">
        <ele>1555.9</ele>
        <time>2026-02-02T15:54:18Z</time>
      </trkpt>
      <trkpt lat="45.96991" lon="6.58374">
        <ele>1554.8</ele>
        <time>2026-02-02T15:54:19Z</time>
      </trkpt>
      <trkpt lat="45.96987" lon="6.58377">
        <ele>1554.3</ele>
        <time>2026-02-02T15:54:20Z</time>
      </trkpt>
      <trkpt lat="45.96984" lon="6.5838">
        <ele>1553.4</ele>
        <time>2026-02-02T15:54:21Z</time>
      </trkpt>
      <trkpt lat="45.96981" lon="6.58382">
        <ele>1552.3</ele>
        <time>2026-02-02T15:54:22Z</time>
      </trkpt>
      <trkpt lat="45.96979" lon="6.58386">
        <ele>1551.3</ele>
        <time>2026-02-02T15:54:23Z</time>
      </trkpt>
      <trkpt lat="45.96977" lon="6.58391">
        <ele>1550.7</ele>
        <time>2026-02-02T15:54:24Z</time>
      </trkpt>
      <trkpt lat="45.96975" lon="6.58395">
        <ele>1549.6</ele>
        <time>2026-02-02T15:54:25Z</time>
      </trkpt>
      <trkpt lat="45.96974" lon="6.584">
        <ele>1549.1</ele>
        <time>2026-02-02T15:54:26Z</time>
      </trkpt>
      <trkpt lat="45.96972" lon="6.58405">
        <ele>1548.2</ele>
        <time>2026-02-02T15:54:27Z</time>
      </trkpt>
      <trkpt lat="45.96969" lon="6.58411">
        <ele>1547.3</ele>
        <time>2026-02-02T15:54:28Z</time>
      </trkpt>
      <trkpt lat="45.96968" lon="6.58418">
        <ele>1546</ele>
        <time>2026-02-02T15:54:29Z</time>
      </trkpt>
      <trkpt lat="45.96966" lon="6.58424">
        <ele>1545.4</ele>
        <time>2026-02-02T15:54:30Z</time>
      </trkpt>
      <trkpt lat="45.96964" lon="6.5843">
        <ele>1543.8</ele>
        <time>2026-02-02T15:54:31Z</time>
      </trkpt>
      <trkpt lat="45.96962" lon="6.58436">
        <ele>1543</ele>
        <time>2026-02-02T15:54:32Z</time>
      </trkpt>
      <trkpt lat="45.96959" lon="6.58442">
        <ele>1541</ele>
        <time>2026-02-02T15:54:33Z</time>
      </trkpt>
      <trkpt lat="45.96957" lon="6.58446">
        <ele>1539.8</ele>
        <time>2026-02-02T15:54:34Z</time>
      </trkpt>
      <trkpt lat="45.96955" lon="6.5845">
        <ele>1539.5</ele>
        <time>2026-02-02T15:54:35Z</time>
      </trkpt>
      <trkpt lat="45.96954" lon="6.58453">
        <ele>1538.6</ele>
        <time>2026-02-02T15:54:36Z</time>
      </trkpt>
      <trkpt lat="45.96953" lon="6.58458">
        <ele>1537.8</ele>
        <time>2026-02-02T15:54:37Z</time>
      </trkpt>
      <trkpt lat="45.96953" lon="6.5846">
        <ele>1536.6</ele>
        <time>2026-02-02T15:54:38Z</time>
      </trkpt>
      <trkpt lat="45.96952" lon="6.58462">
        <ele>1536.6</ele>
        <time>2026-02-02T15:54:39Z</time>
      </trkpt>
      <trkpt lat="45.96952" lon="6.58463">
        <ele>1535.8</ele>
        <time>2026-02-02T15:54:40Z</time>
      </trkpt>
      <trkpt lat="45.96951" lon="6.58464">
        <ele>1535.8</ele>
        <time>2026-02-02T15:54:41Z</time>
      </trkpt>
      <trkpt lat="45.96951" lon="6.58465">
        <ele>1535.8</ele>
        <time>2026-02-02T15:54:42Z</time>
      </trkpt>
      <trkpt lat="45.96951" lon="6.58466">
        <ele>1535.8</ele>
        <time>2026-02-02T15:54:43Z</time>
      </trkpt>
      <trkpt lat="45.96951" lon="6.58467">
        <ele>1535.8</ele>
        <time>2026-02-02T15:54:44Z</time>
      </trkpt>
      <trkpt lat="45.96951" lon="6.58468">
        <ele>1534.9</ele>
        <time>2026-02-02T15:54:45Z</time>
      </trkpt>
      <trkpt lat="45.9695" lon="6.58469">
        <ele>1534.9</ele>
        <time>2026-02-02T15:54:46Z</time>
      </trkpt>
      <trkpt lat="45.9695" lon="6.58469">
        <ele>1534.9</ele>
        <time>2026-02-02T15:54:47Z</time>
      </trkpt>
      <trkpt lat="45.9695" lon="6.58469">
        <ele>1534.9</ele>
        <time>2026-02-02T15:54:48Z</time>
      </trkpt>
      <trkpt lat="45.9695" lon="6.58469">
        <ele>1535</ele>
        <time>2026-02-02T15:54:49Z</time>
      </trkpt>
      <trkpt lat="45.9695" lon="6.5847">
        <ele>1534.5</ele>
        <time>2026-02-02T15:54:50Z</time>
      </trkpt>
      <trkpt lat="45.96949" lon="6.58471">
        <ele>1534.5</ele>
        <time>2026-02-02T15:54:51Z</time>
      </trkpt>
      <trkpt lat="45.96947" lon="6.58472">
        <ele>1533.5</ele>
        <time>2026-02-02T15:54:52Z</time>
      </trkpt>
      <trkpt lat="45.96946" lon="6.58473">
        <ele>1532.9</ele>
        <time>2026-02-02T15:54:53Z</time>
      </trkpt>
      <trkpt lat="45.96945" lon="6.58473">
        <ele>1532.9</ele>
        <time>2026-02-02T15:54:54Z</time>
      </trkpt>
      <trkpt lat="45.96944" lon="6.58473">
        <ele>1532.3</ele>
        <time>2026-02-02T15:54:55Z</time>
      </trkpt>
      <trkpt lat="45.96942" lon="6.58471">
        <ele>1533.3</ele>
        <time>2026-02-02T15:54:56Z</time>
      </trkpt>
      <trkpt lat="45.96941" lon="6.58471">
        <ele>1533.4</ele>
        <time>2026-02-02T15:54:57Z</time>
      </trkpt>
      <trkpt lat="45.96939" lon="6.58469">
        <ele>1532.7</ele>
        <time>2026-02-02T15:54:58Z</time>
      </trkpt>
      <trkpt lat="45.96937" lon="6.58467">
        <ele>1533.1</ele>
        <time>2026-02-02T15:54:59Z</time>
      </trkpt>
      <trkpt lat="45.96933" lon="6.58464">
        <ele>1532.5</ele>
        <time>2026-02-02T15:55:00Z</time>
      </trkpt>
      <trkpt lat="45.96932" lon="6.58464">
        <ele>1532</ele>
        <time>2026-02-02T15:55:01Z</time>
      </trkpt>
      <trkpt lat="45.96929" lon="6.58462">
        <ele>1532.4</ele>
        <time>2026-02-02T15:55:02Z</time>
      </trkpt>
      <trkpt lat="45.96926" lon="6.5846">
        <ele>1531.8</ele>
        <time>2026-02-02T15:55:03Z</time>
      </trkpt>
      <trkpt lat="45.96923" lon="6.58458">
        <ele>1532</ele>
        <time>2026-02-02T15:55:04Z</time>
      </trkpt>
      <trkpt lat="45.96921" lon="6.58455">
        <ele>1532</ele>
        <time>2026-02-02T15:55:05Z</time>
      </trkpt>
      <trkpt lat="45.96918" lon="6.58451">
        <ele>1532.1</ele>
        <time>2026-02-02T15:55:06Z</time>
      </trkpt>
      <trkpt lat="45.96916" lon="6.5845">
        <ele>1532.2</ele>
        <time>2026-02-02T15:55:07Z</time>
      </trkpt>
      <trkpt lat="45.96914" lon="6.58448">
        <ele>1532.2</ele>
        <time>2026-02-02T15:55:08Z</time>
      </trkpt>
      <trkpt lat="45.96911" lon="6.58445">
        <ele>1532.3</ele>
        <time>2026-02-02T15:55:09Z</time>
      </trkpt>
      <trkpt lat="45.96908" lon="6.58442">
        <ele>1531.5</ele>
        <time>2026-02-02T15:55:10Z</time>
      </trkpt>
      <trkpt lat="45.96905" lon="6.58438">
        <ele>1530.9</ele>
        <time>2026-02-02T15:55:11Z</time>
      </trkpt>
      <trkpt lat="45.96902" lon="6.58436">
        <ele>1531.9</ele>
        <time>2026-02-02T15:55:12Z</time>
      </trkpt>
      <trkpt lat="45.969" lon="6.58432">
        <ele>1532</ele>
        <time>2026-02-02T15:55:13Z</time>
      </trkpt>
      <trkpt lat="45.96897" lon="6.5843">
        <ele>1531.1</ele>
        <time>2026-02-02T15:55:14Z</time>
      </trkpt>
      <trkpt lat="45.96895" lon="6.58426">
        <ele>1531.1</ele>
        <time>2026-02-02T15:55:15Z</time>
      </trkpt>
      <trkpt lat="45.96892" lon="6.58423">
        <ele>1530.9</ele>
        <time>2026-02-02T15:55:16Z</time>
      </trkpt>
      <trkpt lat="45.9689" lon="6.58421">
        <ele>1529.8</ele>
        <time>2026-02-02T15:55:17Z</time>
      </trkpt>
      <trkpt lat="45.96887" lon="6.58417">
        <ele>1529.5</ele>
        <time>2026-02-02T15:55:18Z</time>
      </trkpt>
      <trkpt lat="45.96884" lon="6.58414">
        <ele>1530.3</ele>
        <time>2026-02-02T15:55:19Z</time>
      </trkpt>
      <trkpt lat="45.96882" lon="6.58411">
        <ele>1529.9</ele>
        <time>2026-02-02T15:55:20Z</time>
      </trkpt>
      <trkpt lat="45.96879" lon="6.58407">
        <ele>1529.6</ele>
        <time>2026-02-02T15:55:21Z</time>
      </trkpt>
      <trkpt lat="45.96876" lon="6.58404">
        <ele>1528.4</ele>
        <time>2026-02-02T15:55:22Z</time>
      </trkpt>
      <trkpt lat="45.96873" lon="6.58401">
        <ele>1528</ele>
        <time>2026-02-02T15:55:23Z</time>
      </trkpt>
      <trkpt lat="45.96871" lon="6.58399">
        <ele>1526.8</ele>
        <time>2026-02-02T15:55:24Z</time>
      </trkpt>
      <trkpt lat="45.96869" lon="6.58396">
        <ele>1526.4</ele>
        <time>2026-02-02T15:55:25Z</time>
      </trkpt>
      <trkpt lat="45.96866" lon="6.58393">
        <ele>1527.2</ele>
        <time>2026-02-02T15:55:26Z</time>
      </trkpt>
      <trkpt lat="45.96864" lon="6.58389">
        <ele>1526.7</ele>
        <time>2026-02-02T15:55:27Z</time>
      </trkpt>
      <trkpt lat="45.96862" lon="6.58385">
        <ele>1526.1</ele>
        <time>2026-02-02T15:55:28Z</time>
      </trkpt>
      <trkpt lat="45.96859" lon="6.58382">
        <ele>1524.8</ele>
        <time>2026-02-02T15:55:29Z</time>
      </trkpt>
      <trkpt lat="45.96856" lon="6.58378">
        <ele>1524.2</ele>
        <time>2026-02-02T15:55:30Z</time>
      </trkpt>
      <trkpt lat="45.96853" lon="6.58376">
        <ele>1523.6</ele>
        <time>2026-02-02T15:55:31Z</time>
      </trkpt>
      <trkpt lat="45.96851" lon="6.58373">
        <ele>1522.4</ele>
        <time>2026-02-02T15:55:32Z</time>
      </trkpt>
      <trkpt lat="45.96848" lon="6.58369">
        <ele>1523</ele>
        <time>2026-02-02T15:55:33Z</time>
      </trkpt>
      <trkpt lat="45.96848" lon="6.58368">
        <ele>1522.5</ele>
        <time>2026-02-02T15:55:34Z</time>
      </trkpt>
      <trkpt lat="45.96845" lon="6.58365">
        <ele>1521.4</ele>
        <time>2026-02-02T15:55:35Z</time>
      </trkpt>
      <trkpt lat="45.96844" lon="6.58364">
        <ele>1522.1</ele>
        <time>2026-02-02T15:55:36Z</time>
      </trkpt>
      <trkpt lat="45.96844" lon="6.58363">
        <ele>1522.1</ele>
        <time>2026-02-02T15:55:37Z</time>
      </trkpt>
      <trkpt lat="45.96843" lon="6.58363">
        <ele>1522.1</ele>
        <time>2026-02-02T15:55:38Z</time>
      </trkpt>
      <trkpt lat="45.96843" lon="6.58363">
        <ele>1522.1</ele>
        <time>2026-02-02T15:55:39Z</time>
      </trkpt>
      <trkpt lat="45.96843" lon="6.58363">
        <ele>1522.1</ele>
        <time>2026-02-02T15:55:40Z</time>
      </trkpt>
      <trkpt lat="45.96843" lon="6.58364">
        <ele>1522.1</ele>
        <time>2026-02-02T15:55:41Z</time>
      </trkpt>
      <trkpt lat="45.96842" lon="6.58364">
        <ele>1521</ele>
        <time>2026-02-02T15:55:42Z</time>
      </trkpt>
      <trkpt lat="45.96842" lon="6.58364">
        <ele>1521</ele>
        <time>2026-02-02T15:55:43Z</time>
      </trkpt>
      <trkpt lat="45.96842" lon="6.58364">
        <ele>1521</ele>
        <time>2026-02-02T15:55:44Z</time>
      </trkpt>
      <trkpt lat="45.96841" lon="6.58364">
        <ele>1521</ele>
        <time>2026-02-02T15:55:45Z</time>
      </trkpt>
      <trkpt lat="45.96841" lon="6.58364">
        <ele>1521</ele>
        <time>2026-02-02T15:55:46Z</time>
      </trkpt>
      <trkpt lat="45.96841" lon="6.58364">
        <ele>1520.4</ele>
        <time>2026-02-02T15:55:47Z</time>
      </trkpt>
      <trkpt lat="45.96841" lon="6.58365">
        <ele>1520.4</ele>
        <time>2026-02-02T15:55:48Z</time>
      </trkpt>
      <trkpt lat="45.9684" lon="6.58365">
        <ele>1520.4</ele>
        <time>2026-02-02T15:55:49Z</time>
      </trkpt>
      <trkpt lat="45.9684" lon="6.58365">
        <ele>1520.4</ele>
        <time>2026-02-02T15:55:50Z</time>
      </trkpt>
      <trkpt lat="45.9684" lon="6.58365">
        <ele>1520.4</ele>
        <time>2026-02-02T15:55:51Z</time>
      </trkpt>
      <trkpt lat="45.9684" lon="6.58365">
        <ele>1520.4</ele>
        <time>2026-02-02T15:55:52Z</time>
      </trkpt>
      <trkpt lat="45.96839" lon="6.58365">
        <ele>1519.3</ele>
        <time>2026-02-02T15:55:53Z</time>
      </trkpt>
      <trkpt lat="45.96838" lon="6.58374">
        <ele>1518</ele>
        <time>2026-02-02T15:55:54Z</time>
      </trkpt>
      <trkpt lat="45.96838" lon="6.5838">
        <ele>1517.3</ele>
        <time>2026-02-02T15:55:55Z</time>
      </trkpt>
      <trkpt lat="45.96838" lon="6.58385">
        <ele>1516.6</ele>
        <time>2026-02-02T15:55:56Z</time>
      </trkpt>
      <trkpt lat="45.96839" lon="6.5839">
        <ele>1515.1</ele>
        <time>2026-02-02T15:55:57Z</time>
      </trkpt>
      <trkpt lat="45.9684" lon="6.58395">
        <ele>1515.5</ele>
        <time>2026-02-02T15:55:58Z</time>
      </trkpt>
      <trkpt lat="45.9684" lon="6.58397">
        <ele>1515.5</ele>
        <time>2026-02-02T15:55:59Z</time>
      </trkpt>
      <trkpt lat="45.96841" lon="6.584">
        <ele>1514.8</ele>
        <time>2026-02-02T15:56:00Z</time>
      </trkpt>
      <trkpt lat="45.96842" lon="6.58405">
        <ele>1514.1</ele>
        <time>2026-02-02T15:56:01Z</time>
      </trkpt>
      <trkpt lat="45.96843" lon="6.58408">
        <ele>1514.4</ele>
        <time>2026-02-02T15:56:02Z</time>
      </trkpt>
      <trkpt lat="45.96842" lon="6.58412">
        <ele>1512.7</ele>
        <time>2026-02-02T15:56:03Z</time>
      </trkpt>
      <trkpt lat="45.96841" lon="6.58414">
        <ele>1512.6</ele>
        <time>2026-02-02T15:56:04Z</time>
      </trkpt>
      <trkpt lat="45.96839" lon="6.58418">
        <ele>1511.9</ele>
        <time>2026-02-02T15:56:05Z</time>
      </trkpt>
      <trkpt lat="45.96836" lon="6.5842">
        <ele>1511.3</ele>
        <time>2026-02-02T15:56:06Z</time>
      </trkpt>
      <trkpt lat="45.96834" lon="6.58423">
        <ele>1510.7</ele>
        <time>2026-02-02T15:56:07Z</time>
      </trkpt>
      <trkpt lat="45.96832" lon="6.58427">
        <ele>1510.1</ele>
        <time>2026-02-02T15:56:08Z</time>
      </trkpt>
      <trkpt lat="45.96829" lon="6.5843">
        <ele>1509.6</ele>
        <time>2026-02-02T15:56:09Z</time>
      </trkpt>
      <trkpt lat="45.96828" lon="6.58435">
        <ele>1509</ele>
        <time>2026-02-02T15:56:10Z</time>
      </trkpt>
      <trkpt lat="45.96826" lon="6.5844">
        <ele>1508.5</ele>
        <time>2026-02-02T15:56:11Z</time>
      </trkpt>
      <trkpt lat="45.96825" lon="6.58442">
        <ele>1508.3</ele>
        <time>2026-02-02T15:56:12Z</time>
      </trkpt>
      <trkpt lat="45.96823" lon="6.58447">
        <ele>1507.9</ele>
        <time>2026-02-02T15:56:13Z</time>
      </trkpt>
      <trkpt lat="45.96823" lon="6.58448">
        <ele>1507.7</ele>
        <time>2026-02-02T15:56:14Z</time>
      </trkpt>
      <trkpt lat="45.96822" lon="6.58454">
        <ele>1507.3</ele>
        <time>2026-02-02T15:56:15Z</time>
      </trkpt>
      <trkpt lat="45.96821" lon="6.58455">
        <ele>1507.2</ele>
        <time>2026-02-02T15:56:16Z</time>
      </trkpt>
      <trkpt lat="45.9682" lon="6.58459">
        <ele>1507</ele>
        <time>2026-02-02T15:56:17Z</time>
      </trkpt>
      <trkpt lat="45.96819" lon="6.58463">
        <ele>1506.7</ele>
        <time>2026-02-02T15:56:18Z</time>
      </trkpt>
      <trkpt lat="45.96817" lon="6.58468">
        <ele>1506.5</ele>
        <time>2026-02-02T15:56:19Z</time>
      </trkpt>
      <trkpt lat="45.96817" lon="6.58469">
        <ele>1506.4</ele>
        <time>2026-02-02T15:56:20Z</time>
      </trkpt>
      <trkpt lat="45.96816" lon="6.58471">
        <ele>1506.3</ele>
        <time>2026-02-02T15:56:21Z</time>
      </trkpt>
      <trkpt lat="45.96815" lon="6.58473">
        <ele>1506.3</ele>
        <time>2026-02-02T15:56:22Z</time>
      </trkpt>
      <trkpt lat="45.96814" lon="6.58473">
        <ele>1506.3</ele>
        <time>2026-02-02T15:56:23Z</time>
      </trkpt>
      <trkpt lat="45.96813" lon="6.58475">
        <ele>1506.3</ele>
        <time>2026-02-02T15:56:24Z</time>
      </trkpt>
      <trkpt lat="45.96811" lon="6.58478">
        <ele>1506.4</ele>
        <time>2026-02-02T15:56:25Z</time>
      </trkpt>
      <trkpt lat="45.9681" lon="6.58479">
        <ele>1506.4</ele>
        <time>2026-02-02T15:56:26Z</time>
      </trkpt>
      <trkpt lat="45.96808" lon="6.58482">
        <ele>1506.5</ele>
        <time>2026-02-02T15:56:27Z</time>
      </trkpt>
      <trkpt lat="45.96807" lon="6.58482">
        <ele>1506.5</ele>
        <time>2026-02-02T15:56:28Z</time>
      </trkpt>
      <trkpt lat="45.96806" lon="6.58483">
        <ele>1506.5</ele>
        <time>2026-02-02T15:56:29Z</time>
      </trkpt>
      <trkpt lat="45.96806" lon="6.58483">
        <ele>1506.5</ele>
        <time>2026-02-02T15:56:30Z</time>
      </trkpt>
      <trkpt lat="45.96805" lon="6.58485">
        <ele>1506.5</ele>
        <time>2026-02-02T15:56:31Z</time>
      </trkpt>
      <trkpt lat="45.96805" lon="6.58486">
        <ele>1506.6</ele>
        <time>2026-02-02T15:56:32Z</time>
      </trkpt>
      <trkpt lat="45.96804" lon="6.58487">
        <ele>1506.6</ele>
        <time>2026-02-02T15:56:33Z</time>
      </trkpt>
      <trkpt lat="45.96804" lon="6.58487">
        <ele>1506.6</ele>
        <time>2026-02-02T15:56:34Z</time>
      </trkpt>
      <trkpt lat="45.96803" lon="6.58488">
        <ele>1506.6</ele>
        <time>2026-02-02T15:56:35Z</time>
      </trkpt>
      <trkpt lat="45.96803" lon="6.58489">
        <ele>1506.6</ele>
        <time>2026-02-02T15:56:36Z</time>
      </trkpt>
      <trkpt lat="45.96803" lon="6.5849">
        <ele>1506.6</ele>
        <time>2026-02-02T15:56:37Z</time>
      </trkpt>
      <trkpt lat="45.96803" lon="6.58491">
        <ele>1506.7</ele>
        <time>2026-02-02T15:56:38Z</time>
      </trkpt>
      <trkpt lat="45.96802" lon="6.58492">
        <ele>1506.7</ele>
        <time>2026-02-02T15:56:39Z</time>
      </trkpt>
      <trkpt lat="45.96802" lon="6.58492">
        <ele>1506.7</ele>
        <time>2026-02-02T15:56:40Z</time>
      </trkpt>
      <trkpt lat="45.96802" lon="6.58492">
        <ele>1506.7</ele>
        <time>2026-02-02T15:56:41Z</time>
      </trkpt>
      <trkpt lat="45.96803" lon="6.58493">
        <ele>1506.7</ele>
        <time>2026-02-02T15:56:42Z</time>
      </trkpt>
      <trkpt lat="45.96803" lon="6.58494">
        <ele>1506.7</ele>
        <time>2026-02-02T15:56:43Z</time>
      </trkpt>
      <trkpt lat="45.96803" lon="6.58496">
        <ele>1506.7</ele>
        <time>2026-02-02T15:56:44Z</time>
      </trkpt>
      <trkpt lat="45.96804" lon="6.58497">
        <ele>1506.7</ele>
        <time>2026-02-02T15:56:45Z</time>
      </trkpt>
      <trkpt lat="45.96804" lon="6.58498">
        <ele>1506.8</ele>
        <time>2026-02-02T15:56:46Z</time>
      </trkpt>
      <trkpt lat="45.96805" lon="6.585">
        <ele>1506.8</ele>
        <time>2026-02-02T15:56:47Z</time>
      </trkpt>
      <trkpt lat="45.96804" lon="6.58502">
        <ele>1506.8</ele>
        <time>2026-02-02T15:56:48Z</time>
      </trkpt>
      <trkpt lat="45.96804" lon="6.58503">
        <ele>1506.8</ele>
        <time>2026-02-02T15:56:49Z</time>
      </trkpt>
      <trkpt lat="45.96805" lon="6.58504">
        <ele>1506.8</ele>
        <time>2026-02-02T15:56:50Z</time>
      </trkpt>
      <trkpt lat="45.96805" lon="6.58505">
        <ele>1506.8</ele>
        <time>2026-02-02T15:56:51Z</time>
      </trkpt>
      <trkpt lat="45.96805" lon="6.58507">
        <ele>1506.8</ele>
        <time>2026-02-02T15:56:52Z</time>
      </trkpt>
      <trkpt lat="45.96805" lon="6.58508">
        <ele>1506.7</ele>
        <time>2026-02-02T15:56:53Z</time>
      </trkpt>
      <trkpt lat="45.96805" lon="6.58508">
        <ele>1506.7</ele>
        <time>2026-02-02T15:56:54Z</time>
      </trkpt>
      <trkpt lat="45.96806" lon="6.58509">
        <ele>1506.7</ele>
        <time>2026-02-02T15:56:55Z</time>
      </trkpt>
      <trkpt lat="45.96806" lon="6.5851">
        <ele>1506.7</ele>
        <time>2026-02-02T15:56:56Z</time>
      </trkpt>
      <trkpt lat="45.96806" lon="6.58511">
        <ele>1506.7</ele>
        <time>2026-02-02T15:56:57Z</time>
      </trkpt>
      <trkpt lat="45.96806" lon="6.58513">
        <ele>1506.7</ele>
        <time>2026-02-02T15:56:58Z</time>
      </trkpt>
      <trkpt lat="45.96806" lon="6.58514">
        <ele>1506.7</ele>
        <time>2026-02-02T15:56:59Z</time>
      </trkpt>
      <trkpt lat="45.96807" lon="6.58515">
        <ele>1506.7</ele>
        <time>2026-02-02T15:57:00Z</time>
      </trkpt>
      <trkpt lat="45.96807" lon="6.58516">
        <ele>1506.6</ele>
        <time>2026-02-02T15:57:01Z</time>
      </trkpt>
      <trkpt lat="45.96807" lon="6.58518">
        <ele>1506.6</ele>
        <time>2026-02-02T15:57:02Z</time>
      </trkpt>
      <trkpt lat="45.96807" lon="6.58519">
        <ele>1506.6</ele>
        <time>2026-02-02T15:57:03Z</time>
      </trkpt>
      <trkpt lat="45.96807" lon="6.5852">
        <ele>1506.5</ele>
        <time>2026-02-02T15:57:04Z</time>
      </trkpt>
      <trkpt lat="45.96808" lon="6.58522">
        <ele>1506.5</ele>
        <time>2026-02-02T15:57:05Z</time>
      </trkpt>
      <trkpt lat="45.96808" lon="6.58523">
        <ele>1506.5</ele>
        <time>2026-02-02T15:57:06Z</time>
      </trkpt>
      <trkpt lat="45.96808" lon="6.58525">
        <ele>1506.4</ele>
        <time>2026-02-02T15:57:07Z</time>
      </trkpt>
      <trkpt lat="45.96809" lon="6.58527">
        <ele>1506.3</ele>
        <time>2026-02-02T15:57:08Z</time>
      </trkpt>
      <trkpt lat="45.96811" lon="6.58531">
        <ele>1506.2</ele>
        <time>2026-02-02T15:57:09Z</time>
      </trkpt>
      <trkpt lat="45.96812" lon="6.58532">
        <ele>1506.1</ele>
        <time>2026-02-02T15:57:10Z</time>
      </trkpt>
      <trkpt lat="45.96813" lon="6.58533">
        <ele>1506.1</ele>
        <time>2026-02-02T15:57:11Z</time>
      </trkpt>
      <trkpt lat="45.96814" lon="6.58535">
        <ele>1506</ele>
        <time>2026-02-02T15:57:12Z</time>
      </trkpt>
      <trkpt lat="45.96814" lon="6.58537">
        <ele>1505.9</ele>
        <time>2026-02-02T15:57:13Z</time>
      </trkpt>
      <trkpt lat="45.96815" lon="6.58538">
        <ele>1505.8</ele>
        <time>2026-02-02T15:57:14Z</time>
      </trkpt>
      <trkpt lat="45.96816" lon="6.58538">
        <ele>1505.8</ele>
        <time>2026-02-02T15:57:15Z</time>
      </trkpt>
      <trkpt lat="45.96816" lon="6.58538">
        <ele>1505.8</ele>
        <time>2026-02-02T15:57:16Z</time>
      </trkpt>
      <trkpt lat="45.96816" lon="6.58539">
        <ele>1505.7</ele>
        <time>2026-02-02T15:57:17Z</time>
      </trkpt>
      <trkpt lat="45.96817" lon="6.5854">
        <ele>1505.6</ele>
        <time>2026-02-02T15:57:18Z</time>
      </trkpt>
      <trkpt lat="45.96818" lon="6.58541">
        <ele>1505.5</ele>
        <time>2026-02-02T15:57:19Z</time>
      </trkpt>
      <trkpt lat="45.9682" lon="6.58543">
        <ele>1505.3</ele>
        <time>2026-02-02T15:57:20Z</time>
      </trkpt>
      <trkpt lat="45.96822" lon="6.58544">
        <ele>1505.2</ele>
        <time>2026-02-02T15:57:21Z</time>
      </trkpt>
      <trkpt lat="45.96824" lon="6.58547">
        <ele>1504.9</ele>
        <time>2026-02-02T15:57:22Z</time>
      </trkpt>
      <trkpt lat="45.96825" lon="6.58549">
        <ele>1504.8</ele>
        <time>2026-02-02T15:57:23Z</time>
      </trkpt>
      <trkpt lat="45.96826" lon="6.58553">
        <ele>1504.5</ele>
        <time>2026-02-02T15:57:24Z</time>
      </trkpt>
      <trkpt lat="45.96827" lon="6.58558">
        <ele>1504.2</ele>
        <time>2026-02-02T15:57:25Z</time>
      </trkpt>
      <trkpt lat="45.96827" lon="6.58564">
        <ele>1503.8</ele>
        <time>2026-02-02T15:57:26Z</time>
      </trkpt>
      <trkpt lat="45.96829" lon="6.5857">
        <ele>1503.4</ele>
        <time>2026-02-02T15:57:27Z</time>
      </trkpt>
      <trkpt lat="45.9683" lon="6.58576">
        <ele>1503</ele>
        <time>2026-02-02T15:57:28Z</time>
      </trkpt>
      <trkpt lat="45.9683" lon="6.58582">
        <ele>1502.6</ele>
        <time>2026-02-02T15:57:29Z</time>
      </trkpt>
      <trkpt lat="45.96832" lon="6.58588">
        <ele>1502.3</ele>
        <time>2026-02-02T15:57:30Z</time>
      </trkpt>
      <trkpt lat="45.96834" lon="6.58594">
        <ele>1501.9</ele>
        <time>2026-02-02T15:57:31Z</time>
      </trkpt>
      <trkpt lat="45.96835" lon="6.58599">
        <ele>1501.7</ele>
        <time>2026-02-02T15:57:32Z</time>
      </trkpt>
      <trkpt lat="45.96837" lon="6.58605">
        <ele>1501.5</ele>
        <time>2026-02-02T15:57:33Z</time>
      </trkpt>
      <trkpt lat="45.96838" lon="6.58609">
        <ele>1501.3</ele>
        <time>2026-02-02T15:57:34Z</time>
      </trkpt>
      <trkpt lat="45.96839" lon="6.58613">
        <ele>1501.2</ele>
        <time>2026-02-02T15:57:35Z</time>
      </trkpt>
      <trkpt lat="45.96841" lon="6.58617">
        <ele>1501.1</ele>
        <time>2026-02-02T15:57:36Z</time>
      </trkpt>
      <trkpt lat="45.96842" lon="6.58618">
        <ele>1501.1</ele>
        <time>2026-02-02T15:57:37Z</time>
      </trkpt>
      <trkpt lat="45.96842" lon="6.5862">
        <ele>1501.1</ele>
        <time>2026-02-02T15:57:38Z</time>
      </trkpt>
      <trkpt lat="45.96843" lon="6.58622">
        <ele>1501.1</ele>
        <time>2026-02-02T15:57:39Z</time>
      </trkpt>
      <trkpt lat="45.96843" lon="6.58623">
        <ele>1501</ele>
        <time>2026-02-02T15:57:40Z</time>
      </trkpt>
      <trkpt lat="45.96843" lon="6.58624">
        <ele>1501</ele>
        <time>2026-02-02T15:57:41Z</time>
      </trkpt>
      <trkpt lat="45.96844" lon="6.58626">
        <ele>1501</ele>
        <time>2026-02-02T15:57:42Z</time>
      </trkpt>
      <trkpt lat="45.96844" lon="6.58626">
        <ele>1501</ele>
        <time>2026-02-02T15:57:43Z</time>
      </trkpt>
      <trkpt lat="45.96845" lon="6.58627">
        <ele>1501</ele>
        <time>2026-02-02T15:57:44Z</time>
      </trkpt>
      <trkpt lat="45.96845" lon="6.58628">
        <ele>1500.9</ele>
        <time>2026-02-02T15:57:45Z</time>
      </trkpt>
      <trkpt lat="45.96845" lon="6.58629">
        <ele>1500.9</ele>
        <time>2026-02-02T15:57:46Z</time>
      </trkpt>
      <trkpt lat="45.96845" lon="6.5863">
        <ele>1500.9</ele>
        <time>2026-02-02T15:57:47Z</time>
      </trkpt>
      <trkpt lat="45.96846" lon="6.58631">
        <ele>1500.9</ele>
        <time>2026-02-02T15:57:48Z</time>
      </trkpt>
      <trkpt lat="45.96846" lon="6.58631">
        <ele>1500.9</ele>
        <time>2026-02-02T15:57:49Z</time>
      </trkpt>
      <trkpt lat="45.96847" lon="6.58632">
        <ele>1500.8</ele>
        <time>2026-02-02T15:57:50Z</time>
      </trkpt>
      <trkpt lat="45.96847" lon="6.58634">
        <ele>1500.8</ele>
        <time>2026-02-02T15:57:51Z</time>
      </trkpt>
      <trkpt lat="45.96848" lon="6.58635">
        <ele>1500.8</ele>
        <time>2026-02-02T15:57:52Z</time>
      </trkpt>
      <trkpt lat="45.96848" lon="6.58636">
        <ele>1500.8</ele>
        <time>2026-02-02T15:57:53Z</time>
      </trkpt>
      <trkpt lat="45.96849" lon="6.58638">
        <ele>1500.7</ele>
        <time>2026-02-02T15:57:54Z</time>
      </trkpt>
      <trkpt lat="45.96849" lon="6.58639">
        <ele>1500.7</ele>
        <time>2026-02-02T15:57:55Z</time>
      </trkpt>
      <trkpt lat="45.96848" lon="6.58641">
        <ele>1500.6</ele>
        <time>2026-02-02T15:57:56Z</time>
      </trkpt>
      <trkpt lat="45.96848" lon="6.58643">
        <ele>1500.6</ele>
        <time>2026-02-02T15:57:57Z</time>
      </trkpt>
      <trkpt lat="45.96848" lon="6.58644">
        <ele>1500.6</ele>
        <time>2026-02-02T15:57:58Z</time>
      </trkpt>
      <trkpt lat="45.96847" lon="6.58647">
        <ele>1500.5</ele>
        <time>2026-02-02T15:57:59Z</time>
      </trkpt>
      <trkpt lat="45.96847" lon="6.58649">
        <ele>1500.5</ele>
        <time>2026-02-02T15:58:00Z</time>
      </trkpt>
      <trkpt lat="45.96847" lon="6.58652">
        <ele>1500.4</ele>
        <time>2026-02-02T15:58:01Z</time>
      </trkpt>
      <trkpt lat="45.96847" lon="6.58654">
        <ele>1500.4</ele>
        <time>2026-02-02T15:58:02Z</time>
      </trkpt>
      <trkpt lat="45.96847" lon="6.58658">
        <ele>1500.3</ele>
        <time>2026-02-02T15:58:03Z</time>
      </trkpt>
      <trkpt lat="45.96847" lon="6.58659">
        <ele>1500.3</ele>
        <time>2026-02-02T15:58:04Z</time>
      </trkpt>
      <trkpt lat="45.96846" lon="6.58665">
        <ele>1500.2</ele>
        <time>2026-02-02T15:58:05Z</time>
      </trkpt>
      <trkpt lat="45.96845" lon="6.58667">
        <ele>1500.1</ele>
        <time>2026-02-02T15:58:06Z</time>
      </trkpt>
      <trkpt lat="45.96845" lon="6.58671">
        <ele>1500.1</ele>
        <time>2026-02-02T15:58:07Z</time>
      </trkpt>
      <trkpt lat="45.96845" lon="6.58675">
        <ele>1500</ele>
        <time>2026-02-02T15:58:08Z</time>
      </trkpt>
      <trkpt lat="45.96846" lon="6.58681">
        <ele>1500</ele>
        <time>2026-02-02T15:58:09Z</time>
      </trkpt>
      <trkpt lat="45.96846" lon="6.58683">
        <ele>1500</ele>
        <time>2026-02-02T15:58:10Z</time>
      </trkpt>
      <trkpt lat="45.96846" lon="6.58687">
        <ele>1499.9</ele>
        <time>2026-02-02T15:58:11Z</time>
      </trkpt>
      <trkpt lat="45.96846" lon="6.58689">
        <ele>1499.9</ele>
        <time>2026-02-02T15:58:12Z</time>
      </trkpt>
      <trkpt lat="45.96846" lon="6.58691">
        <ele>1499.9</ele>
        <time>2026-02-02T15:58:13Z</time>
      </trkpt>
      <trkpt lat="45.96846" lon="6.58694">
        <ele>1499.9</ele>
        <time>2026-02-02T15:58:14Z</time>
      </trkpt>
      <trkpt lat="45.96846" lon="6.58696">
        <ele>1499.9</ele>
        <time>2026-02-02T15:58:15Z</time>
      </trkpt>
      <trkpt lat="45.96845" lon="6.58698">
        <ele>1499.8</ele>
        <time>2026-02-02T15:58:16Z</time>
      </trkpt>
      <trkpt lat="45.96845" lon="6.587">
        <ele>1499.8</ele>
        <time>2026-02-02T15:58:17Z</time>
      </trkpt>
      <trkpt lat="45.96843" lon="6.58701">
        <ele>1499.8</ele>
        <time>2026-02-02T15:58:18Z</time>
      </trkpt>
      <trkpt lat="45.96842" lon="6.58703">
        <ele>1499.8</ele>
        <time>2026-02-02T15:58:19Z</time>
      </trkpt>
      <trkpt lat="45.96842" lon="6.58704">
        <ele>1499.8</ele>
        <time>2026-02-02T15:58:20Z</time>
      </trkpt>
      <trkpt lat="45.96842" lon="6.58705">
        <ele>1499.8</ele>
        <time>2026-02-02T15:58:21Z</time>
      </trkpt>
      <trkpt lat="45.96841" lon="6.58706">
        <ele>1499.8</ele>
        <time>2026-02-02T15:58:22Z</time>
      </trkpt>
      <trkpt lat="45.96841" lon="6.58707">
        <ele>1499.7</ele>
        <time>2026-02-02T15:58:23Z</time>
      </trkpt>
      <trkpt lat="45.9684" lon="6.58708">
        <ele>1499.7</ele>
        <time>2026-02-02T15:58:24Z</time>
      </trkpt>
      <trkpt lat="45.96841" lon="6.5871">
        <ele>1499.7</ele>
        <time>2026-02-02T15:58:25Z</time>
      </trkpt>
      <trkpt lat="45.96841" lon="6.58712">
        <ele>1499.7</ele>
        <time>2026-02-02T15:58:26Z</time>
      </trkpt>
      <trkpt lat="45.96842" lon="6.58713">
        <ele>1499.6</ele>
        <time>2026-02-02T15:58:27Z</time>
      </trkpt>
      <trkpt lat="45.96843" lon="6.58714">
        <ele>1499.6</ele>
        <time>2026-02-02T15:58:28Z</time>
      </trkpt>
      <trkpt lat="45.96844" lon="6.58716">
        <ele>1499.6</ele>
        <time>2026-02-02T15:58:29Z</time>
      </trkpt>
      <trkpt lat="45.96844" lon="6.58718">
        <ele>1499.5</ele>
        <time>2026-02-02T15:58:30Z</time>
      </trkpt>
      <trkpt lat="45.96845" lon="6.58721">
        <ele>1499.5</ele>
        <time>2026-02-02T15:58:31Z</time>
      </trkpt>
      <trkpt lat="45.96847" lon="6.58725">
        <ele>1499.4</ele>
        <time>2026-02-02T15:58:32Z</time>
      </trkpt>
      <trkpt lat="45.96848" lon="6.58726">
        <ele>1499.4</ele>
        <time>2026-02-02T15:58:33Z</time>
      </trkpt>
      <trkpt lat="45.96849" lon="6.5873">
        <ele>1499.3</ele>
        <time>2026-02-02T15:58:34Z</time>
      </trkpt>
      <trkpt lat="45.96849" lon="6.58732">
        <ele>1499.3</ele>
        <time>2026-02-02T15:58:35Z</time>
      </trkpt>
      <trkpt lat="45.9685" lon="6.58736">
        <ele>1499.2</ele>
        <time>2026-02-02T15:58:36Z</time>
      </trkpt>
      <trkpt lat="45.9685" lon="6.5874">
        <ele>1499.1</ele>
        <time>2026-02-02T15:58:37Z</time>
      </trkpt>
      <trkpt lat="45.9685" lon="6.58745">
        <ele>1499.1</ele>
        <time>2026-02-02T15:58:38Z</time>
      </trkpt>
      <trkpt lat="45.9685" lon="6.58746">
        <ele>1499.1</ele>
        <time>2026-02-02T15:58:39Z</time>
      </trkpt>
      <trkpt lat="45.96851" lon="6.58751">
        <ele>1499</ele>
        <time>2026-02-02T15:58:40Z</time>
      </trkpt>
      <trkpt lat="45.96852" lon="6.58753">
        <ele>1499</ele>
        <time>2026-02-02T15:58:41Z</time>
      </trkpt>
      <trkpt lat="45.96854" lon="6.58757">
        <ele>1498.9</ele>
        <time>2026-02-02T15:58:42Z</time>
      </trkpt>
      <trkpt lat="45.96855" lon="6.58759">
        <ele>1498.9</ele>
        <time>2026-02-02T15:58:43Z</time>
      </trkpt>
      <trkpt lat="45.96856" lon="6.5876">
        <ele>1498.9</ele>
        <time>2026-02-02T15:58:44Z</time>
      </trkpt>
      <trkpt lat="45.96857" lon="6.58761">
        <ele>1498.9</ele>
        <time>2026-02-02T15:58:45Z</time>
      </trkpt>
      <trkpt lat="45.96858" lon="6.58762">
        <ele>1498.8</ele>
        <time>2026-02-02T15:58:46Z</time>
      </trkpt>
      <trkpt lat="45.96858" lon="6.58763">
        <ele>1498.8</ele>
        <time>2026-02-02T15:58:47Z</time>
      </trkpt>
      <trkpt lat="45.96859" lon="6.58764">
        <ele>1498.8</ele>
        <time>2026-02-02T15:58:48Z</time>
      </trkpt>
      <trkpt lat="45.9686" lon="6.58766">
        <ele>1498.8</ele>
        <time>2026-02-02T15:58:49Z</time>
      </trkpt>
      <trkpt lat="45.9686" lon="6.58766">
        <ele>1498.8</ele>
        <time>2026-02-02T15:58:50Z</time>
      </trkpt>
      <trkpt lat="45.96862" lon="6.58767">
        <ele>1498.7</ele>
        <time>2026-02-02T15:58:51Z</time>
      </trkpt>
      <trkpt lat="45.96864" lon="6.5877">
        <ele>1498.7</ele>
        <time>2026-02-02T15:58:52Z</time>
      </trkpt>
      <trkpt lat="45.96865" lon="6.58772">
        <ele>1498.6</ele>
        <time>2026-02-02T15:58:53Z</time>
      </trkpt>
      <trkpt lat="45.96868" lon="6.58775">
        <ele>1498.5</ele>
        <time>2026-02-02T15:58:54Z</time>
      </trkpt>
      <trkpt lat="45.96869" lon="6.58777">
        <ele>1498.5</ele>
        <time>2026-02-02T15:58:55Z</time>
      </trkpt>
      <trkpt lat="45.96871" lon="6.5878">
        <ele>1498.5</ele>
        <time>2026-02-02T15:58:56Z</time>
      </trkpt>
      <trkpt lat="45.96872" lon="6.58781">
        <ele>1498.5</ele>
        <time>2026-02-02T15:58:57Z</time>
      </trkpt>
      <trkpt lat="45.96872" lon="6.58783">
        <ele>1498.4</ele>
        <time>2026-02-02T15:58:58Z</time>
      </trkpt>
      <trkpt lat="45.96873" lon="6.58784">
        <ele>1498.4</ele>
        <time>2026-02-02T15:58:59Z</time>
      </trkpt>
      <trkpt lat="45.96873" lon="6.58785">
        <ele>1498.4</ele>
        <time>2026-02-02T15:59:00Z</time>
      </trkpt>
      <trkpt lat="45.96874" lon="6.58786">
        <ele>1498.4</ele>
        <time>2026-02-02T15:59:01Z</time>
      </trkpt>
      <trkpt lat="45.96874" lon="6.58787">
        <ele>1498.4</ele>
        <time>2026-02-02T15:59:02Z</time>
      </trkpt>
      <trkpt lat="45.96875" lon="6.58789">
        <ele>1498.4</ele>
        <time>2026-02-02T15:59:03Z</time>
      </trkpt>
      <trkpt lat="45.96875" lon="6.58791">
        <ele>1498.4</ele>
        <time>2026-02-02T15:59:04Z</time>
      </trkpt>
      <trkpt lat="45.96875" lon="6.58793">
        <ele>1498.3</ele>
        <time>2026-02-02T15:59:05Z</time>
      </trkpt>
      <trkpt lat="45.96876" lon="6.58795">
        <ele>1498.3</ele>
        <time>2026-02-02T15:59:06Z</time>
      </trkpt>
      <trkpt lat="45.96876" lon="6.58797">
        <ele>1498.3</ele>
        <time>2026-02-02T15:59:07Z</time>
      </trkpt>
      <trkpt lat="45.96877" lon="6.58799">
        <ele>1498.2</ele>
        <time>2026-02-02T15:59:08Z</time>
      </trkpt>
      <trkpt lat="45.96877" lon="6.58801">
        <ele>1498.2</ele>
        <time>2026-02-02T15:59:09Z</time>
      </trkpt>
      <trkpt lat="45.96877" lon="6.58804">
        <ele>1498.2</ele>
        <time>2026-02-02T15:59:10Z</time>
      </trkpt>
      <trkpt lat="45.96876" lon="6.58808">
        <ele>1498.1</ele>
        <time>2026-02-02T15:59:11Z</time>
      </trkpt>
      <trkpt lat="45.96875" lon="6.58809">
        <ele>1498.1</ele>
        <time>2026-02-02T15:59:12Z</time>
      </trkpt>
      <trkpt lat="45.96875" lon="6.58811">
        <ele>1498.1</ele>
        <time>2026-02-02T15:59:13Z</time>
      </trkpt>
      <trkpt lat="45.96874" lon="6.58814">
        <ele>1498</ele>
        <time>2026-02-02T15:59:14Z</time>
      </trkpt>
      <trkpt lat="45.96873" lon="6.58815">
        <ele>1498</ele>
        <time>2026-02-02T15:59:15Z</time>
      </trkpt>
      <trkpt lat="45.96873" lon="6.58818">
        <ele>1498</ele>
        <time>2026-02-02T15:59:16Z</time>
      </trkpt>
      <trkpt lat="45.96872" lon="6.5882">
        <ele>1497.9</ele>
        <time>2026-02-02T15:59:17Z</time>
      </trkpt>
      <trkpt lat="45.96871" lon="6.58822">
        <ele>1497.9</ele>
        <time>2026-02-02T15:59:18Z</time>
      </trkpt>
      <trkpt lat="45.9687" lon="6.58827">
        <ele>1497.9</ele>
        <time>2026-02-02T15:59:19Z</time>
      </trkpt>
      <trkpt lat="45.9687" lon="6.58828">
        <ele>1497.9</ele>
        <time>2026-02-02T15:59:20Z</time>
      </trkpt>
      <trkpt lat="45.9687" lon="6.58833">
        <ele>1497.9</ele>
        <time>2026-02-02T15:59:21Z</time>
      </trkpt>
      <trkpt lat="45.9687" lon="6.58834">
        <ele>1497.9</ele>
        <time>2026-02-02T15:59:22Z</time>
      </trkpt>
      <trkpt lat="45.96871" lon="6.58838">
        <ele>1497.9</ele>
        <time>2026-02-02T15:59:23Z</time>
      </trkpt>
      <trkpt lat="45.96871" lon="6.5884">
        <ele>1498</ele>
        <time>2026-02-02T15:59:24Z</time>
      </trkpt>
      <trkpt lat="45.96871" lon="6.58843">
        <ele>1498</ele>
        <time>2026-02-02T15:59:25Z</time>
      </trkpt>
      <trkpt lat="45.96871" lon="6.58845">
        <ele>1498.1</ele>
        <time>2026-02-02T15:59:26Z</time>
      </trkpt>
      <trkpt lat="45.96871" lon="6.58847">
        <ele>1498.1</ele>
        <time>2026-02-02T15:59:27Z</time>
      </trkpt>
      <trkpt lat="45.96871" lon="6.58848">
        <ele>1498.1</ele>
        <time>2026-02-02T15:59:28Z</time>
      </trkpt>
      <trkpt lat="45.96871" lon="6.5885">
        <ele>1498.2</ele>
        <time>2026-02-02T15:59:29Z</time>
      </trkpt>
      <trkpt lat="45.96871" lon="6.58851">
        <ele>1498.2</ele>
        <time>2026-02-02T15:59:30Z</time>
      </trkpt>
      <trkpt lat="45.96871" lon="6.58853">
        <ele>1498.2</ele>
        <time>2026-02-02T15:59:31Z</time>
      </trkpt>
      <trkpt lat="45.96871" lon="6.58853">
        <ele>1498.2</ele>
        <time>2026-02-02T15:59:32Z</time>
      </trkpt>
      <trkpt lat="45.96871" lon="6.58854">
        <ele>1498.3</ele>
        <time>2026-02-02T15:59:33Z</time>
      </trkpt>
      <trkpt lat="45.9687" lon="6.58855">
        <ele>1498.3</ele>
        <time>2026-02-02T15:59:34Z</time>
      </trkpt>
      <trkpt lat="45.9687" lon="6.58856">
        <ele>1498.3</ele>
        <time>2026-02-02T15:59:35Z</time>
      </trkpt>
      <trkpt lat="45.96869" lon="6.58857">
        <ele>1498.3</ele>
        <time>2026-02-02T15:59:36Z</time>
      </trkpt>
      <trkpt lat="45.96869" lon="6.58858">
        <ele>1498.4</ele>
        <time>2026-02-02T15:59:37Z</time>
      </trkpt>
      <trkpt lat="45.96869" lon="6.58858">
        <ele>1498.4</ele>
        <time>2026-02-02T15:59:38Z</time>
      </trkpt>
      <trkpt lat="45.96868" lon="6.5886">
        <ele>1498.4</ele>
        <time>2026-02-02T15:59:39Z</time>
      </trkpt>
      <trkpt lat="45.96868" lon="6.58861">
        <ele>1498.4</ele>
        <time>2026-02-02T15:59:40Z</time>
      </trkpt>
      <trkpt lat="45.96868" lon="6.58861">
        <ele>1498.5</ele>
        <time>2026-02-02T15:59:41Z</time>
      </trkpt>
      <trkpt lat="45.96868" lon="6.58862">
        <ele>1498.5</ele>
        <time>2026-02-02T15:59:42Z</time>
      </trkpt>
      <trkpt lat="45.96868" lon="6.58862">
        <ele>1498.5</ele>
        <time>2026-02-02T15:59:43Z</time>
      </trkpt>
      <trkpt lat="45.96867" lon="6.58862">
        <ele>1498.5</ele>
        <time>2026-02-02T15:59:44Z</time>
      </trkpt>
      <trkpt lat="45.96867" lon="6.58862">
        <ele>1498.5</ele>
        <time>2026-02-02T15:59:45Z</time>
      </trkpt>
      <trkpt lat="45.96866" lon="6.58863">
        <ele>1498.5</ele>
        <time>2026-02-02T15:59:46Z</time>
      </trkpt>
      <trkpt lat="45.96866" lon="6.58864">
        <ele>1498.5</ele>
        <time>2026-02-02T15:59:47Z</time>
      </trkpt>
      <trkpt lat="45.96865" lon="6.58865">
        <ele>1498.6</ele>
        <time>2026-02-02T15:59:48Z</time>
      </trkpt>
      <trkpt lat="45.96864" lon="6.58866">
        <ele>1498.6</ele>
        <time>2026-02-02T15:59:49Z</time>
      </trkpt>
      <trkpt lat="45.96864" lon="6.58867">
        <ele>1498.6</ele>
        <time>2026-02-02T15:59:50Z</time>
      </trkpt>
      <trkpt lat="45.96863" lon="6.58868">
        <ele>1498.6</ele>
        <time>2026-02-02T15:59:51Z</time>
      </trkpt>
      <trkpt lat="45.96863" lon="6.58868">
        <ele>1498.6</ele>
        <time>2026-02-02T15:59:52Z</time>
      </trkpt>
      <trkpt lat="45.96862" lon="6.58869">
        <ele>1498.6</ele>
        <time>2026-02-02T15:59:53Z</time>
      </trkpt>
      <trkpt lat="45.96862" lon="6.5887">
        <ele>1498.7</ele>
        <time>2026-02-02T15:59:54Z</time>
      </trkpt>
      <trkpt lat="45.96861" lon="6.58871">
        <ele>1498.7</ele>
        <time>2026-02-02T15:59:55Z</time>
      </trkpt>
      <trkpt lat="45.96861" lon="6.58872">
        <ele>1498.7</ele>
        <time>2026-02-02T15:59:56Z</time>
      </trkpt>
      <trkpt lat="45.9686" lon="6.58874">
        <ele>1498.7</ele>
        <time>2026-02-02T15:59:57Z</time>
      </trkpt>
      <trkpt lat="45.96859" lon="6.58875">
        <ele>1498.7</ele>
        <time>2026-02-02T15:59:58Z</time>
      </trkpt>
      <trkpt lat="45.96858" lon="6.58876">
        <ele>1498.7</ele>
        <time>2026-02-02T15:59:59Z</time>
      </trkpt>
      <trkpt lat="45.96857" lon="6.58877">
        <ele>1498.7</ele>
        <time>2026-02-02T16:00:00Z</time>
      </trkpt>
      <trkpt lat="45.96857" lon="6.58878">
        <ele>1498.7</ele>
        <time>2026-02-02T16:00:01Z</time>
      </trkpt>
      <trkpt lat="45.96856" lon="6.58879">
        <ele>1498.7</ele>
        <time>2026-02-02T16:00:02Z</time>
      </trkpt>
      <trkpt lat="45.96855" lon="6.5888">
        <ele>1498.7</ele>
        <time>2026-02-02T16:00:03Z</time>
      </trkpt>
      <trkpt lat="45.96855" lon="6.58882">
        <ele>1498.7</ele>
        <time>2026-02-02T16:00:04Z</time>
      </trkpt>
      <trkpt lat="45.96855" lon="6.58882">
        <ele>1498.7</ele>
        <time>2026-02-02T16:00:05Z</time>
      </trkpt>
      <trkpt lat="45.96854" lon="6.58883">
        <ele>1498.7</ele>
        <time>2026-02-02T16:00:06Z</time>
      </trkpt>
      <trkpt lat="45.96854" lon="6.58884">
        <ele>1498.7</ele>
        <time>2026-02-02T16:00:07Z</time>
      </trkpt>
      <trkpt lat="45.96853" lon="6.58885">
        <ele>1498.7</ele>
        <time>2026-02-02T16:00:08Z</time>
      </trkpt>
      <trkpt lat="45.96852" lon="6.58886">
        <ele>1498.7</ele>
        <time>2026-02-02T16:00:09Z</time>
      </trkpt>
      <trkpt lat="45.96852" lon="6.58888">
        <ele>1498.7</ele>
        <time>2026-02-02T16:00:10Z</time>
      </trkpt>
      <trkpt lat="45.96851" lon="6.58889">
        <ele>1498.7</ele>
        <time>2026-02-02T16:00:11Z</time>
      </trkpt>
      <trkpt lat="45.96851" lon="6.58891">
        <ele>1498.7</ele>
        <time>2026-02-02T16:00:12Z</time>
      </trkpt>
      <trkpt lat="45.9685" lon="6.58892">
        <ele>1498.7</ele>
        <time>2026-02-02T16:00:13Z</time>
      </trkpt>
      <trkpt lat="45.9685" lon="6.58893">
        <ele>1498.7</ele>
        <time>2026-02-02T16:00:14Z</time>
      </trkpt>
      <trkpt lat="45.96849" lon="6.58897">
        <ele>1498.7</ele>
        <time>2026-02-02T16:00:15Z</time>
      </trkpt>
      <trkpt lat="45.96849" lon="6.58898">
        <ele>1498.7</ele>
        <time>2026-02-02T16:00:16Z</time>
      </trkpt>
      <trkpt lat="45.96848" lon="6.58903">
        <ele>1498.7</ele>
        <time>2026-02-02T16:00:17Z</time>
      </trkpt>
      <trkpt lat="45.96847" lon="6.58904">
        <ele>1498.7</ele>
        <time>2026-02-02T16:00:18Z</time>
      </trkpt>
      <trkpt lat="45.96847" lon="6.58906">
        <ele>1498.7</ele>
        <time>2026-02-02T16:00:19Z</time>
      </trkpt>
      <trkpt lat="45.96846" lon="6.58907">
        <ele>1498.7</ele>
        <time>2026-02-02T16:00:20Z</time>
      </trkpt>
      <trkpt lat="45.96847" lon="6.58907">
        <ele>1498.7</ele>
        <time>2026-02-02T16:00:21Z</time>
      </trkpt>
      <trkpt lat="45.96846" lon="6.58909">
        <ele>1498.7</ele>
        <time>2026-02-02T16:00:22Z</time>
      </trkpt>
      <trkpt lat="45.96845" lon="6.5891">
        <ele>1498.7</ele>
        <time>2026-02-02T16:00:23Z</time>
      </trkpt>
      <trkpt lat="45.96845" lon="6.58911">
        <ele>1498.7</ele>
        <time>2026-02-02T16:00:24Z</time>
      </trkpt>
      <trkpt lat="45.96844" lon="6.58913">
        <ele>1498.7</ele>
        <time>2026-02-02T16:00:25Z</time>
      </trkpt>
      <trkpt lat="45.96844" lon="6.58914">
        <ele>1498.7</ele>
        <time>2026-02-02T16:00:26Z</time>
      </trkpt>
      <trkpt lat="45.96843" lon="6.58915">
        <ele>1498.7</ele>
        <time>2026-02-02T16:00:27Z</time>
      </trkpt>
      <trkpt lat="45.96843" lon="6.58916">
        <ele>1498.7</ele>
        <time>2026-02-02T16:00:28Z</time>
      </trkpt>
      <trkpt lat="45.96842" lon="6.58918">
        <ele>1498.6</ele>
        <time>2026-02-02T16:00:29Z</time>
      </trkpt>
      <trkpt lat="45.96842" lon="6.5892">
        <ele>1498.6</ele>
        <time>2026-02-02T16:00:30Z</time>
      </trkpt>
      <trkpt lat="45.96841" lon="6.58925">
        <ele>1498.6</ele>
        <time>2026-02-02T16:00:31Z</time>
      </trkpt>
      <trkpt lat="45.9684" lon="6.58927">
        <ele>1498.5</ele>
        <time>2026-02-02T16:00:32Z</time>
      </trkpt>
      <trkpt lat="45.96839" lon="6.58931">
        <ele>1498.5</ele>
        <time>2026-02-02T16:00:33Z</time>
      </trkpt>
      <trkpt lat="45.96839" lon="6.58933">
        <ele>1498.4</ele>
        <time>2026-02-02T16:00:34Z</time>
      </trkpt>
      <trkpt lat="45.96838" lon="6.58937">
        <ele>1498.4</ele>
        <time>2026-02-02T16:00:35Z</time>
      </trkpt>
      <trkpt lat="45.96838" lon="6.58938">
        <ele>1498.3</ele>
        <time>2026-02-02T16:00:36Z</time>
      </trkpt>
      <trkpt lat="45.96837" lon="6.58943">
        <ele>1498.2</ele>
        <time>2026-02-02T16:00:37Z</time>
      </trkpt>
      <trkpt lat="45.96837" lon="6.58945">
        <ele>1498.2</ele>
        <time>2026-02-02T16:00:38Z</time>
      </trkpt>
      <trkpt lat="45.96836" lon="6.58949">
        <ele>1498.1</ele>
        <time>2026-02-02T16:00:39Z</time>
      </trkpt>
      <trkpt lat="45.96835" lon="6.58953">
        <ele>1498</ele>
        <time>2026-02-02T16:00:40Z</time>
      </trkpt>
      <trkpt lat="45.96835" lon="6.58957">
        <ele>1497.9</ele>
        <time>2026-02-02T16:00:41Z</time>
      </trkpt>
      <trkpt lat="45.96834" lon="6.58962">
        <ele>1497.7</ele>
        <time>2026-02-02T16:00:42Z</time>
      </trkpt>
      <trkpt lat="45.96834" lon="6.58964">
        <ele>1497.7</ele>
        <time>2026-02-02T16:00:43Z</time>
      </trkpt>
      <trkpt lat="45.96832" lon="6.58968">
        <ele>1497.6</ele>
        <time>2026-02-02T16:00:44Z</time>
      </trkpt>
      <trkpt lat="45.96831" lon="6.58971">
        <ele>1497.5</ele>
        <time>2026-02-02T16:00:45Z</time>
      </trkpt>
      <trkpt lat="45.96829" lon="6.58976">
        <ele>1497.4</ele>
        <time>2026-02-02T16:00:46Z</time>
      </trkpt>
      <trkpt lat="45.96828" lon="6.58978">
        <ele>1497.3</ele>
        <time>2026-02-02T16:00:47Z</time>
      </trkpt>
      <trkpt lat="45.96826" lon="6.58981">
        <ele>1497.2</ele>
        <time>2026-02-02T16:00:48Z</time>
      </trkpt>
      <trkpt lat="45.96825" lon="6.58982">
        <ele>1497.2</ele>
        <time>2026-02-02T16:00:49Z</time>
      </trkpt>
      <trkpt lat="45.96824" lon="6.58984">
        <ele>1497.1</ele>
        <time>2026-02-02T16:00:50Z</time>
      </trkpt>
      <trkpt lat="45.96823" lon="6.58986">
        <ele>1497</ele>
        <time>2026-02-02T16:00:51Z</time>
      </trkpt>
      <trkpt lat="45.96822" lon="6.58988">
        <ele>1496.9</ele>
        <time>2026-02-02T16:00:52Z</time>
      </trkpt>
      <trkpt lat="45.96821" lon="6.58989">
        <ele>1496.8</ele>
        <time>2026-02-02T16:00:53Z</time>
      </trkpt>
      <trkpt lat="45.9682" lon="6.58994">
        <ele>1496.5</ele>
        <time>2026-02-02T16:00:54Z</time>
      </trkpt>
      <trkpt lat="45.9682" lon="6.58995">
        <ele>1496.4</ele>
        <time>2026-02-02T16:00:55Z</time>
      </trkpt>
      <trkpt lat="45.96821" lon="6.59">
        <ele>1496.1</ele>
        <time>2026-02-02T16:00:56Z</time>
      </trkpt>
      <trkpt lat="45.96821" lon="6.59005">
        <ele>1495.7</ele>
        <time>2026-02-02T16:00:57Z</time>
      </trkpt>
      <trkpt lat="45.96823" lon="6.59011">
        <ele>1495.4</ele>
        <time>2026-02-02T16:00:58Z</time>
      </trkpt>
      <trkpt lat="45.96824" lon="6.59017">
        <ele>1495</ele>
        <time>2026-02-02T16:00:59Z</time>
      </trkpt>
      <trkpt lat="45.96825" lon="6.59023">
        <ele>1494.7</ele>
        <time>2026-02-02T16:01:00Z</time>
      </trkpt>
      <trkpt lat="45.96827" lon="6.59029">
        <ele>1494.5</ele>
        <time>2026-02-02T16:01:01Z</time>
      </trkpt>
      <trkpt lat="45.96828" lon="6.59034">
        <ele>1494.2</ele>
        <time>2026-02-02T16:01:02Z</time>
      </trkpt>
      <trkpt lat="45.96829" lon="6.59039">
        <ele>1494.1</ele>
        <time>2026-02-02T16:01:03Z</time>
      </trkpt>
      <trkpt lat="45.9683" lon="6.59043">
        <ele>1494</ele>
        <time>2026-02-02T16:01:04Z</time>
      </trkpt>
      <trkpt lat="45.96831" lon="6.59047">
        <ele>1493.8</ele>
        <time>2026-02-02T16:01:05Z</time>
      </trkpt>
      <trkpt lat="45.96832" lon="6.59052">
        <ele>1493.7</ele>
        <time>2026-02-02T16:01:06Z</time>
      </trkpt>
      <trkpt lat="45.96833" lon="6.59057">
        <ele>1493.6</ele>
        <time>2026-02-02T16:01:07Z</time>
      </trkpt>
      <trkpt lat="45.96834" lon="6.59059">
        <ele>1493.5</ele>
        <time>2026-02-02T16:01:08Z</time>
      </trkpt>
      <trkpt lat="45.96835" lon="6.59064">
        <ele>1493.4</ele>
        <time>2026-02-02T16:01:09Z</time>
      </trkpt>
      <trkpt lat="45.96836" lon="6.59067">
        <ele>1493.3</ele>
        <time>2026-02-02T16:01:10Z</time>
      </trkpt>
      <trkpt lat="45.96837" lon="6.59071">
        <ele>1493.1</ele>
        <time>2026-02-02T16:01:11Z</time>
      </trkpt>
      <trkpt lat="45.96838" lon="6.59075">
        <ele>1493</ele>
        <time>2026-02-02T16:01:12Z</time>
      </trkpt>
      <trkpt lat="45.96839" lon="6.59079">
        <ele>1492.8</ele>
        <time>2026-02-02T16:01:13Z</time>
      </trkpt>
      <trkpt lat="45.9684" lon="6.59083">
        <ele>1492.6</ele>
        <time>2026-02-02T16:01:14Z</time>
      </trkpt>
      <trkpt lat="45.96841" lon="6.59087">
        <ele>1492.3</ele>
        <time>2026-02-02T16:01:15Z</time>
      </trkpt>
      <trkpt lat="45.96842" lon="6.59092">
        <ele>1492</ele>
        <time>2026-02-02T16:01:16Z</time>
      </trkpt>
      <trkpt lat="45.96842" lon="6.59094">
        <ele>1491.8</ele>
        <time>2026-02-02T16:01:17Z</time>
      </trkpt>
      <trkpt lat="45.96842" lon="6.59099">
        <ele>1491.3</ele>
        <time>2026-02-02T16:01:18Z</time>
      </trkpt>
      <trkpt lat="45.96842" lon="6.59101">
        <ele>1491.2</ele>
        <time>2026-02-02T16:01:19Z</time>
      </trkpt>
      <trkpt lat="45.96842" lon="6.59106">
        <ele>1490.7</ele>
        <time>2026-02-02T16:01:20Z</time>
      </trkpt>
      <trkpt lat="45.96842" lon="6.5911">
        <ele>1490.3</ele>
        <time>2026-02-02T16:01:21Z</time>
      </trkpt>
      <trkpt lat="45.96842" lon="6.59115">
        <ele>1489.8</ele>
        <time>2026-02-02T16:01:22Z</time>
      </trkpt>
      <trkpt lat="45.9684" lon="6.59121">
        <ele>1489.1</ele>
        <time>2026-02-02T16:01:23Z</time>
      </trkpt>
      <trkpt lat="45.96839" lon="6.59129">
        <ele>1488.2</ele>
        <time>2026-02-02T16:01:24Z</time>
      </trkpt>
      <trkpt lat="45.96838" lon="6.59138">
        <ele>1487.3</ele>
        <time>2026-02-02T16:01:25Z</time>
      </trkpt>
      <trkpt lat="45.96838" lon="6.59146">
        <ele>1486.4</ele>
        <time>2026-02-02T16:01:26Z</time>
      </trkpt>
      <trkpt lat="45.96836" lon="6.59154">
        <ele>1485.5</ele>
        <time>2026-02-02T16:01:27Z</time>
      </trkpt>
      <trkpt lat="45.96833" lon="6.59162">
        <ele>1484.6</ele>
        <time>2026-02-02T16:01:28Z</time>
      </trkpt>
      <trkpt lat="45.96831" lon="6.59172">
        <ele>1483.6</ele>
        <time>2026-02-02T16:01:29Z</time>
      </trkpt>
      <trkpt lat="45.9683" lon="6.59182">
        <ele>1482.7</ele>
        <time>2026-02-02T16:01:30Z</time>
      </trkpt>
      <trkpt lat="45.9683" lon="6.59194">
        <ele>1481.9</ele>
        <time>2026-02-02T16:01:31Z</time>
      </trkpt>
      <trkpt lat="45.96832" lon="6.59205">
        <ele>1481.3</ele>
        <time>2026-02-02T16:01:32Z</time>
      </trkpt>
      <trkpt lat="45.96833" lon="6.59213">
        <ele>1480.9</ele>
        <time>2026-02-02T16:01:33Z</time>
      </trkpt>
      <trkpt lat="45.96833" lon="6.59221">
        <ele>1480.5</ele>
        <time>2026-02-02T16:01:34Z</time>
      </trkpt>
      <trkpt lat="45.96834" lon="6.59227">
        <ele>1480.3</ele>
        <time>2026-02-02T16:01:35Z</time>
      </trkpt>
      <trkpt lat="45.96835" lon="6.59233">
        <ele>1480</ele>
        <time>2026-02-02T16:01:36Z</time>
      </trkpt>
      <trkpt lat="45.96837" lon="6.59238">
        <ele>1479.8</ele>
        <time>2026-02-02T16:01:37Z</time>
      </trkpt>
      <trkpt lat="45.96839" lon="6.59242">
        <ele>1479.7</ele>
        <time>2026-02-02T16:01:38Z</time>
      </trkpt>
      <trkpt lat="45.96841" lon="6.59245">
        <ele>1479.5</ele>
        <time>2026-02-02T16:01:39Z</time>
      </trkpt>
      <trkpt lat="45.96842" lon="6.59249">
        <ele>1479.4</ele>
        <time>2026-02-02T16:01:40Z</time>
      </trkpt>
      <trkpt lat="45.96844" lon="6.59254">
        <ele>1479.3</ele>
        <time>2026-02-02T16:01:41Z</time>
      </trkpt>
      <trkpt lat="45.96845" lon="6.59257">
        <ele>1479.1</ele>
        <time>2026-02-02T16:01:42Z</time>
      </trkpt>
      <trkpt lat="45.96847" lon="6.59261">
        <ele>1479</ele>
        <time>2026-02-02T16:01:43Z</time>
      </trkpt>
      <trkpt lat="45.96848" lon="6.59266">
        <ele>1478.8</ele>
        <time>2026-02-02T16:01:44Z</time>
      </trkpt>
      <trkpt lat="45.96849" lon="6.59267">
        <ele>1478.8</ele>
        <time>2026-02-02T16:01:45Z</time>
      </trkpt>
      <trkpt lat="45.9685" lon="6.59271">
        <ele>1478.6</ele>
        <time>2026-02-02T16:01:46Z</time>
      </trkpt>
      <trkpt lat="45.96851" lon="6.59272">
        <ele>1478.5</ele>
        <time>2026-02-02T16:01:47Z</time>
      </trkpt>
      <trkpt lat="45.96851" lon="6.59277">
        <ele>1478.3</ele>
        <time>2026-02-02T16:01:48Z</time>
      </trkpt>
      <trkpt lat="45.96851" lon="6.59278">
        <ele>1478.2</ele>
        <time>2026-02-02T16:01:49Z</time>
      </trkpt>
      <trkpt lat="45.96852" lon="6.59282">
        <ele>1478</ele>
        <time>2026-02-02T16:01:50Z</time>
      </trkpt>
      <trkpt lat="45.96853" lon="6.59286">
        <ele>1477.7</ele>
        <time>2026-02-02T16:01:51Z</time>
      </trkpt>
      <trkpt lat="45.96853" lon="6.5929">
        <ele>1477.4</ele>
        <time>2026-02-02T16:01:52Z</time>
      </trkpt>
      <trkpt lat="45.96853" lon="6.59292">
        <ele>1477.3</ele>
        <time>2026-02-02T16:01:53Z</time>
      </trkpt>
      <trkpt lat="45.96854" lon="6.59294">
        <ele>1477.1</ele>
        <time>2026-02-02T16:01:54Z</time>
      </trkpt>
      <trkpt lat="45.96854" lon="6.59296">
        <ele>1477</ele>
        <time>2026-02-02T16:01:55Z</time>
      </trkpt>
      <trkpt lat="45.96855" lon="6.59301">
        <ele>1476.6</ele>
        <time>2026-02-02T16:01:56Z</time>
      </trkpt>
      <trkpt lat="45.96855" lon="6.59303">
        <ele>1476.5</ele>
        <time>2026-02-02T16:01:57Z</time>
      </trkpt>
      <trkpt lat="45.96856" lon="6.5931">
        <ele>1476</ele>
        <time>2026-02-02T16:01:58Z</time>
      </trkpt>
      <trkpt lat="45.96857" lon="6.59317">
        <ele>1475.6</ele>
        <time>2026-02-02T16:01:59Z</time>
      </trkpt>
      <trkpt lat="45.96857" lon="6.59322">
        <ele>1475.2</ele>
        <time>2026-02-02T16:02:00Z</time>
      </trkpt>
      <trkpt lat="45.96859" lon="6.59327">
        <ele>1474.8</ele>
        <time>2026-02-02T16:02:01Z</time>
      </trkpt>
      <trkpt lat="45.9686" lon="6.59332">
        <ele>1474.5</ele>
        <time>2026-02-02T16:02:02Z</time>
      </trkpt>
      <trkpt lat="45.96861" lon="6.59337">
        <ele>1474.1</ele>
        <time>2026-02-02T16:02:03Z</time>
      </trkpt>
      <trkpt lat="45.96862" lon="6.59342">
        <ele>1473.8</ele>
        <time>2026-02-02T16:02:04Z</time>
      </trkpt>
      <trkpt lat="45.96862" lon="6.59347">
        <ele>1473.3</ele>
        <time>2026-02-02T16:02:05Z</time>
      </trkpt>
      <trkpt lat="45.96863" lon="6.59352">
        <ele>1472.9</ele>
        <time>2026-02-02T16:02:06Z</time>
      </trkpt>
      <trkpt lat="45.96864" lon="6.59357">
        <ele>1472.5</ele>
        <time>2026-02-02T16:02:07Z</time>
      </trkpt>
      <trkpt lat="45.96865" lon="6.5936">
        <ele>1472.2</ele>
        <time>2026-02-02T16:02:08Z</time>
      </trkpt>
      <trkpt lat="45.96865" lon="6.59364">
        <ele>1471.8</ele>
        <time>2026-02-02T16:02:09Z</time>
      </trkpt>
      <trkpt lat="45.96866" lon="6.59368">
        <ele>1471.5</ele>
        <time>2026-02-02T16:02:10Z</time>
      </trkpt>
      <trkpt lat="45.96867" lon="6.59372">
        <ele>1471.1</ele>
        <time>2026-02-02T16:02:11Z</time>
      </trkpt>
      <trkpt lat="45.96867" lon="6.59378">
        <ele>1470.7</ele>
        <time>2026-02-02T16:02:12Z</time>
      </trkpt>
      <trkpt lat="45.96867" lon="6.59384">
        <ele>1470.3</ele>
        <time>2026-02-02T16:02:13Z</time>
      </trkpt>
      <trkpt lat="45.96864" lon="6.59393">
        <ele>1469.6</ele>
        <time>2026-02-02T16:02:14Z</time>
      </trkpt>
      <trkpt lat="45.96862" lon="6.59401">
        <ele>1469</ele>
        <time>2026-02-02T16:02:15Z</time>
      </trkpt>
      <trkpt lat="45.9686" lon="6.59407">
        <ele>1468.4</ele>
        <time>2026-02-02T16:02:16Z</time>
      </trkpt>
      <trkpt lat="45.96859" lon="6.59413">
        <ele>1467.9</ele>
        <time>2026-02-02T16:02:17Z</time>
      </trkpt>
      <trkpt lat="45.96858" lon="6.59418">
        <ele>1467.4</ele>
        <time>2026-02-02T16:02:18Z</time>
      </trkpt>
      <trkpt lat="45.96858" lon="6.59419">
        <ele>1467.2</ele>
        <time>2026-02-02T16:02:19Z</time>
      </trkpt>
      <trkpt lat="45.96857" lon="6.59423">
        <ele>1466.7</ele>
        <time>2026-02-02T16:02:20Z</time>
      </trkpt>
      <trkpt lat="45.96856" lon="6.59427">
        <ele>1466.2</ele>
        <time>2026-02-02T16:02:21Z</time>
      </trkpt>
      <trkpt lat="45.96854" lon="6.59432">
        <ele>1465.5</ele>
        <time>2026-02-02T16:02:22Z</time>
      </trkpt>
      <trkpt lat="45.96852" lon="6.59437">
        <ele>1464.8</ele>
        <time>2026-02-02T16:02:23Z</time>
      </trkpt>
      <trkpt lat="45.96849" lon="6.59441">
        <ele>1463.9</ele>
        <time>2026-02-02T16:02:24Z</time>
      </trkpt>
      <trkpt lat="45.96844" lon="6.59447">
        <ele>1462.6</ele>
        <time>2026-02-02T16:02:25Z</time>
      </trkpt>
      <trkpt lat="45.96838" lon="6.59454">
        <ele>1461</ele>
        <time>2026-02-02T16:02:26Z</time>
      </trkpt>
      <trkpt lat="45.96835" lon="6.59461">
        <ele>1459.4</ele>
        <time>2026-02-02T16:02:27Z</time>
      </trkpt>
      <trkpt lat="45.96832" lon="6.59465">
        <ele>1458.4</ele>
        <time>2026-02-02T16:02:28Z</time>
      </trkpt>
      <trkpt lat="45.96827" lon="6.59465">
        <ele>1457.2</ele>
        <time>2026-02-02T16:02:29Z</time>
      </trkpt>
      <trkpt lat="45.96826" lon="6.59466">
        <ele>1456.6</ele>
        <time>2026-02-02T16:02:30Z</time>
      </trkpt>
      <trkpt lat="45.96824" lon="6.59467">
        <ele>1456</ele>
        <time>2026-02-02T16:02:31Z</time>
      </trkpt>
      <trkpt lat="45.96823" lon="6.59468">
        <ele>1455.8</ele>
        <time>2026-02-02T16:02:32Z</time>
      </trkpt>
      <trkpt lat="45.96821" lon="6.59467">
        <ele>1455.2</ele>
        <time>2026-02-02T16:02:33Z</time>
      </trkpt>
      <trkpt lat="45.9682" lon="6.59467">
        <ele>1454.9</ele>
        <time>2026-02-02T16:02:34Z</time>
      </trkpt>
      <trkpt lat="45.96818" lon="6.59467">
        <ele>1454.4</ele>
        <time>2026-02-02T16:02:35Z</time>
      </trkpt>
      <trkpt lat="45.96817" lon="6.59467">
        <ele>1454.1</ele>
        <time>2026-02-02T16:02:36Z</time>
      </trkpt>
      <trkpt lat="45.96816" lon="6.59467">
        <ele>1453.8</ele>
        <time>2026-02-02T16:02:37Z</time>
      </trkpt>
      <trkpt lat="45.96815" lon="6.59467">
        <ele>1453.5</ele>
        <time>2026-02-02T16:02:38Z</time>
      </trkpt>
      <trkpt lat="45.96813" lon="6.59467">
        <ele>1452.8</ele>
        <time>2026-02-02T16:02:39Z</time>
      </trkpt>
      <trkpt lat="45.96809" lon="6.59467">
        <ele>1452</ele>
        <time>2026-02-02T16:02:40Z</time>
      </trkpt>
      <trkpt lat="45.96806" lon="6.59467">
        <ele>1451</ele>
        <time>2026-02-02T16:02:41Z</time>
      </trkpt>
      <trkpt lat="45.96805" lon="6.59467">
        <ele>1450.6</ele>
        <time>2026-02-02T16:02:42Z</time>
      </trkpt>
      <trkpt lat="45.96802" lon="6.59467">
        <ele>1449.9</ele>
        <time>2026-02-02T16:02:43Z</time>
      </trkpt>
      <trkpt lat="45.96798" lon="6.59468">
        <ele>1449.1</ele>
        <time>2026-02-02T16:02:44Z</time>
      </trkpt>
      <trkpt lat="45.96797" lon="6.59469">
        <ele>1448.7</ele>
        <time>2026-02-02T16:02:45Z</time>
      </trkpt>
      <trkpt lat="45.96794" lon="6.5947">
        <ele>1448</ele>
        <time>2026-02-02T16:02:46Z</time>
      </trkpt>
      <trkpt lat="45.96791" lon="6.59471">
        <ele>1447.3</ele>
        <time>2026-02-02T16:02:47Z</time>
      </trkpt>
      <trkpt lat="45.96788" lon="6.59471">
        <ele>1446.5</ele>
        <time>2026-02-02T16:02:48Z</time>
      </trkpt>
      <trkpt lat="45.96784" lon="6.5947">
        <ele>1445.5</ele>
        <time>2026-02-02T16:02:49Z</time>
      </trkpt>
      <trkpt lat="45.96781" lon="6.59469">
        <ele>1444.6</ele>
        <time>2026-02-02T16:02:50Z</time>
      </trkpt>
      <trkpt lat="45.96777" lon="6.59469">
        <ele>1443.9</ele>
        <time>2026-02-02T16:02:51Z</time>
      </trkpt>
      <trkpt lat="45.96776" lon="6.59469">
        <ele>1443.4</ele>
        <time>2026-02-02T16:02:52Z</time>
      </trkpt>
      <trkpt lat="45.96775" lon="6.59471">
        <ele>1443.1</ele>
        <time>2026-02-02T16:02:53Z</time>
      </trkpt>
      <trkpt lat="45.96775" lon="6.59471">
        <ele>1443</ele>
        <time>2026-02-02T16:02:54Z</time>
      </trkpt>
      <trkpt lat="45.96773" lon="6.59471">
        <ele>1442.7</ele>
        <time>2026-02-02T16:02:55Z</time>
      </trkpt>
      <trkpt lat="45.96772" lon="6.59472">
        <ele>1442.3</ele>
        <time>2026-02-02T16:02:56Z</time>
      </trkpt>
      <trkpt lat="45.96772" lon="6.59472">
        <ele>1442.3</ele>
        <time>2026-02-02T16:02:57Z</time>
      </trkpt>
      <trkpt lat="45.96771" lon="6.59472">
        <ele>1442</ele>
        <time>2026-02-02T16:02:58Z</time>
      </trkpt>
      <trkpt lat="45.9677" lon="6.59473">
        <ele>1441.7</ele>
        <time>2026-02-02T16:02:59Z</time>
      </trkpt>
      <trkpt lat="45.96766" lon="6.59473">
        <ele>1440.8</ele>
        <time>2026-02-02T16:03:00Z</time>
      </trkpt>
      <trkpt lat="45.96765" lon="6.59473">
        <ele>1440.5</ele>
        <time>2026-02-02T16:03:01Z</time>
      </trkpt>
      <trkpt lat="45.96761" lon="6.59473">
        <ele>1439.3</ele>
        <time>2026-02-02T16:03:02Z</time>
      </trkpt>
      <trkpt lat="45.96757" lon="6.59472">
        <ele>1438.4</ele>
        <time>2026-02-02T16:03:03Z</time>
      </trkpt>
      <trkpt lat="45.96753" lon="6.59474">
        <ele>1437.4</ele>
        <time>2026-02-02T16:03:04Z</time>
      </trkpt>
      <trkpt lat="45.96752" lon="6.59478">
        <ele>1436.4</ele>
        <time>2026-02-02T16:03:05Z</time>
      </trkpt>
      <trkpt lat="45.96754" lon="6.59484">
        <ele>1435.1</ele>
        <time>2026-02-02T16:03:06Z</time>
      </trkpt>
      <trkpt lat="45.96756" lon="6.59489">
        <ele>1434</ele>
        <time>2026-02-02T16:03:07Z</time>
      </trkpt>
      <trkpt lat="45.9676" lon="6.5949">
        <ele>1433.1</ele>
        <time>2026-02-02T16:03:08Z</time>
      </trkpt>
      <trkpt lat="45.96765" lon="6.5949">
        <ele>1431.7</ele>
        <time>2026-02-02T16:03:09Z</time>
      </trkpt>
      <trkpt lat="45.96771" lon="6.59493">
        <ele>1430.1</ele>
        <time>2026-02-02T16:03:10Z</time>
      </trkpt>
      <trkpt lat="45.96777" lon="6.59497">
        <ele>1428.5</ele>
        <time>2026-02-02T16:03:11Z</time>
      </trkpt>
      <trkpt lat="45.9678" lon="6.59501">
        <ele>1427.4</ele>
        <time>2026-02-02T16:03:12Z</time>
      </trkpt>
      <trkpt lat="45.96785" lon="6.59507">
        <ele>1426</ele>
        <time>2026-02-02T16:03:13Z</time>
      </trkpt>
      <trkpt lat="45.9679" lon="6.59512">
        <ele>1424.7</ele>
        <time>2026-02-02T16:03:14Z</time>
      </trkpt>
      <trkpt lat="45.96794" lon="6.59518">
        <ele>1423.4</ele>
        <time>2026-02-02T16:03:15Z</time>
      </trkpt>
      <trkpt lat="45.96798" lon="6.59522">
        <ele>1422.2</ele>
        <time>2026-02-02T16:03:16Z</time>
      </trkpt>
      <trkpt lat="45.96803" lon="6.59526">
        <ele>1420.7</ele>
        <time>2026-02-02T16:03:17Z</time>
      </trkpt>
      <trkpt lat="45.96807" lon="6.59532">
        <ele>1419.2</ele>
        <time>2026-02-02T16:03:18Z</time>
      </trkpt>
      <trkpt lat="45.96808" lon="6.59537">
        <ele>1418.2</ele>
        <time>2026-02-02T16:03:19Z</time>
      </trkpt>
      <trkpt lat="45.96805" lon="6.59542">
        <ele>1416.9</ele>
        <time>2026-02-02T16:03:20Z</time>
      </trkpt>
      <trkpt lat="45.96801" lon="6.59544">
        <ele>1415.6</ele>
        <time>2026-02-02T16:03:21Z</time>
      </trkpt>
      <trkpt lat="45.96796" lon="6.59545">
        <ele>1414.3</ele>
        <time>2026-02-02T16:03:22Z</time>
      </trkpt>
      <trkpt lat="45.9679" lon="6.59549">
        <ele>1412.4</ele>
        <time>2026-02-02T16:03:23Z</time>
      </trkpt>
      <trkpt lat="45.96786" lon="6.59556">
        <ele>1410.7</ele>
        <time>2026-02-02T16:03:24Z</time>
      </trkpt>
      <trkpt lat="45.96784" lon="6.59563">
        <ele>1409.2</ele>
        <time>2026-02-02T16:03:25Z</time>
      </trkpt>
      <trkpt lat="45.96785" lon="6.5957">
        <ele>1408</ele>
        <time>2026-02-02T16:03:26Z</time>
      </trkpt>
      <trkpt lat="45.96789" lon="6.59572">
        <ele>1406.9</ele>
        <time>2026-02-02T16:03:27Z</time>
      </trkpt>
      <trkpt lat="45.96796" lon="6.59568">
        <ele>1405.1</ele>
        <time>2026-02-02T16:03:28Z</time>
      </trkpt>
      <trkpt lat="45.96802" lon="6.59567">
        <ele>1403.7</ele>
        <time>2026-02-02T16:03:29Z</time>
      </trkpt>
      <trkpt lat="45.96809" lon="6.5957">
        <ele>1401.9</ele>
        <time>2026-02-02T16:03:30Z</time>
      </trkpt>
      <trkpt lat="45.96813" lon="6.59575">
        <ele>1400.8</ele>
        <time>2026-02-02T16:03:31Z</time>
      </trkpt>
      <trkpt lat="45.96818" lon="6.59581">
        <ele>1399.4</ele>
        <time>2026-02-02T16:03:32Z</time>
      </trkpt>
      <trkpt lat="45.96821" lon="6.59586">
        <ele>1398.4</ele>
        <time>2026-02-02T16:03:33Z</time>
      </trkpt>
      <trkpt lat="45.96826" lon="6.59591">
        <ele>1397.3</ele>
        <time>2026-02-02T16:03:34Z</time>
      </trkpt>
      <trkpt lat="45.9683" lon="6.59596">
        <ele>1396</ele>
        <time>2026-02-02T16:03:35Z</time>
      </trkpt>
      <trkpt lat="45.96835" lon="6.59603">
        <ele>1394.6</ele>
        <time>2026-02-02T16:03:36Z</time>
      </trkpt>
      <trkpt lat="45.96831" lon="6.59609">
        <ele>1393.4</ele>
        <time>2026-02-02T16:03:37Z</time>
      </trkpt>
      <trkpt lat="45.96828" lon="6.59609">
        <ele>1392.6</ele>
        <time>2026-02-02T16:03:38Z</time>
      </trkpt>
      <trkpt lat="45.96823" lon="6.59604">
        <ele>1391.2</ele>
        <time>2026-02-02T16:03:39Z</time>
      </trkpt>
      <trkpt lat="45.96818" lon="6.59602">
        <ele>1390</ele>
        <time>2026-02-02T16:03:40Z</time>
      </trkpt>
      <trkpt lat="45.96813" lon="6.59607">
        <ele>1388.5</ele>
        <time>2026-02-02T16:03:41Z</time>
      </trkpt>
      <trkpt lat="45.96811" lon="6.59615">
        <ele>1386.9</ele>
        <time>2026-02-02T16:03:42Z</time>
      </trkpt>
      <trkpt lat="45.9681" lon="6.59624">
        <ele>1385.5</ele>
        <time>2026-02-02T16:03:43Z</time>
      </trkpt>
      <trkpt lat="45.96812" lon="6.59631">
        <ele>1384</ele>
        <time>2026-02-02T16:03:44Z</time>
      </trkpt>
      <trkpt lat="45.96816" lon="6.59638">
        <ele>1382.1</ele>
        <time>2026-02-02T16:03:45Z</time>
      </trkpt>
      <trkpt lat="45.9682" lon="6.59643">
        <ele>1380.6</ele>
        <time>2026-02-02T16:03:46Z</time>
      </trkpt>
      <trkpt lat="45.96822" lon="6.59643">
        <ele>1380</ele>
        <time>2026-02-02T16:03:47Z</time>
      </trkpt>
      <trkpt lat="45.96823" lon="6.59643">
        <ele>1379.6</ele>
        <time>2026-02-02T16:03:48Z</time>
      </trkpt>
      <trkpt lat="45.96824" lon="6.59645">
        <ele>1378.9</ele>
        <time>2026-02-02T16:03:49Z</time>
      </trkpt>
      <trkpt lat="45.96825" lon="6.59647">
        <ele>1378.4</ele>
        <time>2026-02-02T16:03:50Z</time>
      </trkpt>
      <trkpt lat="45.96827" lon="6.59649">
        <ele>1377.9</ele>
        <time>2026-02-02T16:03:51Z</time>
      </trkpt>
      <trkpt lat="45.9683" lon="6.59655">
        <ele>1376.4</ele>
        <time>2026-02-02T16:03:52Z</time>
      </trkpt>
      <trkpt lat="45.96834" lon="6.5966">
        <ele>1374.9</ele>
        <time>2026-02-02T16:03:53Z</time>
      </trkpt>
      <trkpt lat="45.96839" lon="6.59662">
        <ele>1373.3</ele>
        <time>2026-02-02T16:03:54Z</time>
      </trkpt>
      <trkpt lat="45.96845" lon="6.59663">
        <ele>1371.7</ele>
        <time>2026-02-02T16:03:55Z</time>
      </trkpt>
      <trkpt lat="45.96849" lon="6.59672">
        <ele>1369.8</ele>
        <time>2026-02-02T16:03:56Z</time>
      </trkpt>
      <trkpt lat="45.96846" lon="6.59683">
        <ele>1365.8</ele>
        <time>2026-02-02T16:03:57Z</time>
      </trkpt>
      <trkpt lat="45.96841" lon="6.59685">
        <ele>1364.3</ele>
        <time>2026-02-02T16:03:58Z</time>
      </trkpt>
      <trkpt lat="45.96836" lon="6.59683">
        <ele>1362.9</ele>
        <time>2026-02-02T16:03:59Z</time>
      </trkpt>
      <trkpt lat="45.96832" lon="6.59684">
        <ele>1361.7</ele>
        <time>2026-02-02T16:04:00Z</time>
      </trkpt>
      <trkpt lat="45.96829" lon="6.59685">
        <ele>1360.8</ele>
        <time>2026-02-02T16:04:01Z</time>
      </trkpt>
      <trkpt lat="45.96825" lon="6.59687">
        <ele>1359.6</ele>
        <time>2026-02-02T16:04:02Z</time>
      </trkpt>
      <trkpt lat="45.96822" lon="6.59685">
        <ele>1358.6</ele>
        <time>2026-02-02T16:04:03Z</time>
      </trkpt>
      <trkpt lat="45.96821" lon="6.59685">
        <ele>1358.3</ele>
        <time>2026-02-02T16:04:04Z</time>
      </trkpt>
      <trkpt lat="45.96821" lon="6.59683">
        <ele>1357.9</ele>
        <time>2026-02-02T16:04:05Z</time>
      </trkpt>
      <trkpt lat="45.96821" lon="6.59681">
        <ele>1357.4</ele>
        <time>2026-02-02T16:04:06Z</time>
      </trkpt>
      <trkpt lat="45.96821" lon="6.59681">
        <ele>1357.3</ele>
        <time>2026-02-02T16:04:07Z</time>
      </trkpt>
      <trkpt lat="45.9682" lon="6.59682">
        <ele>1356.9</ele>
        <time>2026-02-02T16:04:08Z</time>
      </trkpt>
      <trkpt lat="45.96819" lon="6.59684">
        <ele>1356.3</ele>
        <time>2026-02-02T16:04:09Z</time>
      </trkpt>
      <trkpt lat="45.96815" lon="6.59686">
        <ele>1355.2</ele>
        <time>2026-02-02T16:04:10Z</time>
      </trkpt>
      <trkpt lat="45.96814" lon="6.59686">
        <ele>1354.8</ele>
        <time>2026-02-02T16:04:11Z</time>
      </trkpt>
      <trkpt lat="45.96811" lon="6.59685">
        <ele>1353.7</ele>
        <time>2026-02-02T16:04:12Z</time>
      </trkpt>
      <trkpt lat="45.9681" lon="6.59684">
        <ele>1353.4</ele>
        <time>2026-02-02T16:04:13Z</time>
      </trkpt>
      <trkpt lat="45.96807" lon="6.59684">
        <ele>1352.4</ele>
        <time>2026-02-02T16:04:14Z</time>
      </trkpt>
      <trkpt lat="45.96805" lon="6.59684">
        <ele>1351.9</ele>
        <time>2026-02-02T16:04:15Z</time>
      </trkpt>
      <trkpt lat="45.96802" lon="6.59684">
        <ele>1351</ele>
        <time>2026-02-02T16:04:16Z</time>
      </trkpt>
      <trkpt lat="45.96799" lon="6.59683">
        <ele>1350</ele>
        <time>2026-02-02T16:04:17Z</time>
      </trkpt>
      <trkpt lat="45.96798" lon="6.59683">
        <ele>1349.7</ele>
        <time>2026-02-02T16:04:18Z</time>
      </trkpt>
      <trkpt lat="45.96795" lon="6.59682">
        <ele>1348.6</ele>
        <time>2026-02-02T16:04:19Z</time>
      </trkpt>
      <trkpt lat="45.9679" lon="6.59682">
        <ele>1347.1</ele>
        <time>2026-02-02T16:04:20Z</time>
      </trkpt>
      <trkpt lat="45.96785" lon="6.59683">
        <ele>1345.8</ele>
        <time>2026-02-02T16:04:21Z</time>
      </trkpt>
      <trkpt lat="45.96784" lon="6.59678">
        <ele>1344.9</ele>
        <time>2026-02-02T16:04:22Z</time>
      </trkpt>
      <trkpt lat="45.96783" lon="6.59677">
        <ele>1344.6</ele>
        <time>2026-02-02T16:04:23Z</time>
      </trkpt>
      <trkpt lat="45.96781" lon="6.59678">
        <ele>1344</ele>
        <time>2026-02-02T16:04:24Z</time>
      </trkpt>
      <trkpt lat="45.9678" lon="6.59678">
        <ele>1343.7</ele>
        <time>2026-02-02T16:04:25Z</time>
      </trkpt>
      <trkpt lat="45.96778" lon="6.59679">
        <ele>1343.3</ele>
        <time>2026-02-02T16:04:26Z</time>
      </trkpt>
      <trkpt lat="45.96774" lon="6.59679">
        <ele>1342.3</ele>
        <time>2026-02-02T16:04:27Z</time>
      </trkpt>
      <trkpt lat="45.96768" lon="6.59676">
        <ele>1341.1</ele>
        <time>2026-02-02T16:04:28Z</time>
      </trkpt>
      <trkpt lat="45.96762" lon="6.59675">
        <ele>1340</ele>
        <time>2026-02-02T16:04:29Z</time>
      </trkpt>
      <trkpt lat="45.96758" lon="6.59673">
        <ele>1339.1</ele>
        <time>2026-02-02T16:04:30Z</time>
      </trkpt>
      <trkpt lat="45.96753" lon="6.5967">
        <ele>1338.3</ele>
        <time>2026-02-02T16:04:31Z</time>
      </trkpt>
      <trkpt lat="45.96749" lon="6.59666">
        <ele>1337.5</ele>
        <time>2026-02-02T16:04:32Z</time>
      </trkpt>
      <trkpt lat="45.96744" lon="6.59663">
        <ele>1336.6</ele>
        <time>2026-02-02T16:04:33Z</time>
      </trkpt>
      <trkpt lat="45.9674" lon="6.59661">
        <ele>1335.9</ele>
        <time>2026-02-02T16:04:34Z</time>
      </trkpt>
      <trkpt lat="45.96736" lon="6.59658">
        <ele>1335.1</ele>
        <time>2026-02-02T16:04:35Z</time>
      </trkpt>
      <trkpt lat="45.96733" lon="6.59656">
        <ele>1334.4</ele>
        <time>2026-02-02T16:04:36Z</time>
      </trkpt>
      <trkpt lat="45.9673" lon="6.59654">
        <ele>1333.6</ele>
        <time>2026-02-02T16:04:37Z</time>
      </trkpt>
      <trkpt lat="45.96727" lon="6.59651">
        <ele>1332.6</ele>
        <time>2026-02-02T16:04:38Z</time>
      </trkpt>
      <trkpt lat="45.96723" lon="6.59649">
        <ele>1331.6</ele>
        <time>2026-02-02T16:04:39Z</time>
      </trkpt>
      <trkpt lat="45.96719" lon="6.59647">
        <ele>1330.5</ele>
        <time>2026-02-02T16:04:40Z</time>
      </trkpt>
      <trkpt lat="45.96716" lon="6.59646">
        <ele>1329.6</ele>
        <time>2026-02-02T16:04:41Z</time>
      </trkpt>
      <trkpt lat="45.96713" lon="6.59644">
        <ele>1328.8</ele>
        <time>2026-02-02T16:04:42Z</time>
      </trkpt>
      <trkpt lat="45.96711" lon="6.59643">
        <ele>1328.1</ele>
        <time>2026-02-02T16:04:43Z</time>
      </trkpt>
      <trkpt lat="45.9671" lon="6.59643">
        <ele>1327.7</ele>
        <time>2026-02-02T16:04:44Z</time>
      </trkpt>
      <trkpt lat="45.96706" lon="6.59642">
        <ele>1326.8</ele>
        <time>2026-02-02T16:04:45Z</time>
      </trkpt>
      <trkpt lat="45.96701" lon="6.5964">
        <ele>1325.4</ele>
        <time>2026-02-02T16:04:46Z</time>
      </trkpt>
      <trkpt lat="45.96696" lon="6.59641">
        <ele>1324</ele>
        <time>2026-02-02T16:04:47Z</time>
      </trkpt>
      <trkpt lat="45.96689" lon="6.59643">
        <ele>1322.3</ele>
        <time>2026-02-02T16:04:48Z</time>
      </trkpt>
      <trkpt lat="45.96685" lon="6.59646">
        <ele>1321</ele>
        <time>2026-02-02T16:04:49Z</time>
      </trkpt>
      <trkpt lat="45.96681" lon="6.59653">
        <ele>1319.3</ele>
        <time>2026-02-02T16:04:50Z</time>
      </trkpt>
      <trkpt lat="45.96681" lon="6.59662">
        <ele>1317.7</ele>
        <time>2026-02-02T16:04:51Z</time>
      </trkpt>
      <trkpt lat="45.96681" lon="6.59665">
        <ele>1317.1</ele>
        <time>2026-02-02T16:04:52Z</time>
      </trkpt>
      <trkpt lat="45.96681" lon="6.59665">
        <ele>1317</ele>
        <time>2026-02-02T16:04:53Z</time>
      </trkpt>
      <trkpt lat="45.96679" lon="6.59669">
        <ele>1316.1</ele>
        <time>2026-02-02T16:04:54Z</time>
      </trkpt>
      <trkpt lat="45.96678" lon="6.5967">
        <ele>1315.6</ele>
        <time>2026-02-02T16:04:55Z</time>
      </trkpt>
      <trkpt lat="45.96675" lon="6.59672">
        <ele>1314.9</ele>
        <time>2026-02-02T16:04:56Z</time>
      </trkpt>
      <trkpt lat="45.96674" lon="6.59672">
        <ele>1314.4</ele>
        <time>2026-02-02T16:04:57Z</time>
      </trkpt>
      <trkpt lat="45.96675" lon="6.59673">
        <ele>1314.1</ele>
        <time>2026-02-02T16:04:58Z</time>
      </trkpt>
      <trkpt lat="45.96675" lon="6.59673">
        <ele>1314.1</ele>
        <time>2026-02-02T16:04:59Z</time>
      </trkpt>
      <trkpt lat="45.96675" lon="6.59673">
        <ele>1314.1</ele>
        <time>2026-02-02T16:05:00Z</time>
      </trkpt>
      <trkpt lat="45.96675" lon="6.59674">
        <ele>1314</ele>
        <time>2026-02-02T16:05:01Z</time>
      </trkpt>
      <trkpt lat="45.96674" lon="6.59674">
        <ele>1313.6</ele>
        <time>2026-02-02T16:05:02Z</time>
      </trkpt>
      <trkpt lat="45.96673" lon="6.59674">
        <ele>1313.3</ele>
        <time>2026-02-02T16:05:03Z</time>
      </trkpt>
      <trkpt lat="45.96671" lon="6.59674">
        <ele>1312.9</ele>
        <time>2026-02-02T16:05:04Z</time>
      </trkpt>
      <trkpt lat="45.9667" lon="6.59674">
        <ele>1312.4</ele>
        <time>2026-02-02T16:05:05Z</time>
      </trkpt>
      <trkpt lat="45.96667" lon="6.59675">
        <ele>1311.5</ele>
        <time>2026-02-02T16:05:06Z</time>
      </trkpt>
      <trkpt lat="45.96665" lon="6.59675">
        <ele>1311.1</ele>
        <time>2026-02-02T16:05:07Z</time>
      </trkpt>
      <trkpt lat="45.96662" lon="6.59677">
        <ele>1310</ele>
        <time>2026-02-02T16:05:08Z</time>
      </trkpt>
      <trkpt lat="45.96657" lon="6.59676">
        <ele>1308.8</ele>
        <time>2026-02-02T16:05:09Z</time>
      </trkpt>
      <trkpt lat="45.96654" lon="6.59675">
        <ele>1307.8</ele>
        <time>2026-02-02T16:05:10Z</time>
      </trkpt>
      <trkpt lat="45.9665" lon="6.59674">
        <ele>1306.7</ele>
        <time>2026-02-02T16:05:11Z</time>
      </trkpt>
      <trkpt lat="45.96648" lon="6.59673">
        <ele>1306.3</ele>
        <time>2026-02-02T16:05:12Z</time>
      </trkpt>
      <trkpt lat="45.96645" lon="6.59673">
        <ele>1305.4</ele>
        <time>2026-02-02T16:05:13Z</time>
      </trkpt>
      <trkpt lat="45.96642" lon="6.59671">
        <ele>1304.6</ele>
        <time>2026-02-02T16:05:14Z</time>
      </trkpt>
      <trkpt lat="45.96641" lon="6.59668">
        <ele>1303.9</ele>
        <time>2026-02-02T16:05:15Z</time>
      </trkpt>
      <trkpt lat="45.9664" lon="6.59664">
        <ele>1303.2</ele>
        <time>2026-02-02T16:05:16Z</time>
      </trkpt>
      <trkpt lat="45.96638" lon="6.59659">
        <ele>1302.2</ele>
        <time>2026-02-02T16:05:17Z</time>
      </trkpt>
      <trkpt lat="45.96634" lon="6.59656">
        <ele>1301</ele>
        <time>2026-02-02T16:05:18Z</time>
      </trkpt>
      <trkpt lat="45.9663" lon="6.59658">
        <ele>1300</ele>
        <time>2026-02-02T16:05:19Z</time>
      </trkpt>
      <trkpt lat="45.96631" lon="6.59662">
        <ele>1299.2</ele>
        <time>2026-02-02T16:05:20Z</time>
      </trkpt>
      <trkpt lat="45.96632" lon="6.59664">
        <ele>1298.8</ele>
        <time>2026-02-02T16:05:21Z</time>
      </trkpt>
      <trkpt lat="45.96634" lon="6.59669">
        <ele>1297.8</ele>
        <time>2026-02-02T16:05:22Z</time>
      </trkpt>
      <trkpt lat="45.96636" lon="6.59675">
        <ele>1296.7</ele>
        <time>2026-02-02T16:05:23Z</time>
      </trkpt>
      <trkpt lat="45.96638" lon="6.59679">
        <ele>1295.8</ele>
        <time>2026-02-02T16:05:24Z</time>
      </trkpt>
      <trkpt lat="45.96639" lon="6.59682">
        <ele>1295.3</ele>
        <time>2026-02-02T16:05:25Z</time>
      </trkpt>
      <trkpt lat="45.9664" lon="6.59683">
        <ele>1295.1</ele>
        <time>2026-02-02T16:05:26Z</time>
      </trkpt>
      <trkpt lat="45.96641" lon="6.59684">
        <ele>1294.8</ele>
        <time>2026-02-02T16:05:27Z</time>
      </trkpt>
      <trkpt lat="45.96642" lon="6.59686">
        <ele>1294.5</ele>
        <time>2026-02-02T16:05:28Z</time>
      </trkpt>
      <trkpt lat="45.96645" lon="6.59689">
        <ele>1293.6</ele>
        <time>2026-02-02T16:05:29Z</time>
      </trkpt>
      <trkpt lat="45.96646" lon="6.59691">
        <ele>1293.2</ele>
        <time>2026-02-02T16:05:30Z</time>
      </trkpt>
      <trkpt lat="45.96649" lon="6.59693">
        <ele>1292.4</ele>
        <time>2026-02-02T16:05:31Z</time>
      </trkpt>
      <trkpt lat="45.96652" lon="6.59697">
        <ele>1291.5</ele>
        <time>2026-02-02T16:05:32Z</time>
      </trkpt>
      <trkpt lat="45.96655" lon="6.597">
        <ele>1290.5</ele>
        <time>2026-02-02T16:05:33Z</time>
      </trkpt>
      <trkpt lat="45.96658" lon="6.597">
        <ele>1289.7</ele>
        <time>2026-02-02T16:05:34Z</time>
      </trkpt>
      <trkpt lat="45.9666" lon="6.59702">
        <ele>1289</ele>
        <time>2026-02-02T16:05:35Z</time>
      </trkpt>
      <trkpt lat="45.96661" lon="6.59703">
        <ele>1288.7</ele>
        <time>2026-02-02T16:05:36Z</time>
      </trkpt>
      <trkpt lat="45.96662" lon="6.59705">
        <ele>1288.4</ele>
        <time>2026-02-02T16:05:37Z</time>
      </trkpt>
      <trkpt lat="45.96666" lon="6.59706">
        <ele>1287.4</ele>
        <time>2026-02-02T16:05:38Z</time>
      </trkpt>
      <trkpt lat="45.96669" lon="6.59706">
        <ele>1286.5</ele>
        <time>2026-02-02T16:05:39Z</time>
      </trkpt>
      <trkpt lat="45.9667" lon="6.59707">
        <ele>1286.2</ele>
        <time>2026-02-02T16:05:40Z</time>
      </trkpt>
      <trkpt lat="45.96673" lon="6.59709">
        <ele>1285.4</ele>
        <time>2026-02-02T16:05:41Z</time>
      </trkpt>
      <trkpt lat="45.96674" lon="6.59709">
        <ele>1285.1</ele>
        <time>2026-02-02T16:05:42Z</time>
      </trkpt>
      <trkpt lat="45.96678" lon="6.5971">
        <ele>1284.1</ele>
        <time>2026-02-02T16:05:43Z</time>
      </trkpt>
      <trkpt lat="45.96683" lon="6.59712">
        <ele>1282.6</ele>
        <time>2026-02-02T16:05:44Z</time>
      </trkpt>
      <trkpt lat="45.96686" lon="6.59717">
        <ele>1281.4</ele>
        <time>2026-02-02T16:05:45Z</time>
      </trkpt>
      <trkpt lat="45.96683" lon="6.59723">
        <ele>1279.9</ele>
        <time>2026-02-02T16:05:46Z</time>
      </trkpt>
      <trkpt lat="45.9668" lon="6.59723">
        <ele>1279.2</ele>
        <time>2026-02-02T16:05:47Z</time>
      </trkpt>
      <trkpt lat="45.96677" lon="6.59724">
        <ele>1278.2</ele>
        <time>2026-02-02T16:05:48Z</time>
      </trkpt>
      <trkpt lat="45.96674" lon="6.59724">
        <ele>1277.3</ele>
        <time>2026-02-02T16:05:49Z</time>
      </trkpt>
      <trkpt lat="45.96671" lon="6.59725">
        <ele>1276.5</ele>
        <time>2026-02-02T16:05:50Z</time>
      </trkpt>
      <trkpt lat="45.9667" lon="6.59725">
        <ele>1276.3</ele>
        <time>2026-02-02T16:05:51Z</time>
      </trkpt>
      <trkpt lat="45.96667" lon="6.59727">
        <ele>1275.4</ele>
        <time>2026-02-02T16:05:52Z</time>
      </trkpt>
      <trkpt lat="45.96666" lon="6.59727">
        <ele>1275.1</ele>
        <time>2026-02-02T16:05:53Z</time>
      </trkpt>
      <trkpt lat="45.96663" lon="6.59728">
        <ele>1274.5</ele>
        <time>2026-02-02T16:05:54Z</time>
      </trkpt>
      <trkpt lat="45.96662" lon="6.59727">
        <ele>1274.3</ele>
        <time>2026-02-02T16:05:55Z</time>
      </trkpt>
      <trkpt lat="45.96662" lon="6.59728">
        <ele>1274</ele>
        <time>2026-02-02T16:05:56Z</time>
      </trkpt>
      <trkpt lat="45.96661" lon="6.59729">
        <ele>1273.9</ele>
        <time>2026-02-02T16:05:57Z</time>
      </trkpt>
      <trkpt lat="45.96661" lon="6.59729">
        <ele>1273.8</ele>
        <time>2026-02-02T16:05:58Z</time>
      </trkpt>
      <trkpt lat="45.9666" lon="6.59729">
        <ele>1273.7</ele>
        <time>2026-02-02T16:05:59Z</time>
      </trkpt>
      <trkpt lat="45.9666" lon="6.59729">
        <ele>1273.5</ele>
        <time>2026-02-02T16:06:00Z</time>
      </trkpt>
      <trkpt lat="45.96659" lon="6.5973">
        <ele>1273.4</ele>
        <time>2026-02-02T16:06:01Z</time>
      </trkpt>
      <trkpt lat="45.96659" lon="6.5973">
        <ele>1273.3</ele>
        <time>2026-02-02T16:06:02Z</time>
      </trkpt>
      <trkpt lat="45.96657" lon="6.59731">
        <ele>1272.8</ele>
        <time>2026-02-02T16:06:03Z</time>
      </trkpt>
      <trkpt lat="45.96656" lon="6.59731">
        <ele>1272.6</ele>
        <time>2026-02-02T16:06:04Z</time>
      </trkpt>
      <trkpt lat="45.96656" lon="6.59731">
        <ele>1272.4</ele>
        <time>2026-02-02T16:06:05Z</time>
      </trkpt>
      <trkpt lat="45.96655" lon="6.59731">
        <ele>1272.2</ele>
        <time>2026-02-02T16:06:06Z</time>
      </trkpt>
      <trkpt lat="45.96655" lon="6.59731">
        <ele>1272.2</ele>
        <time>2026-02-02T16:06:07Z</time>
      </trkpt>
      <trkpt lat="45.96654" lon="6.59732">
        <ele>1272</ele>
        <time>2026-02-02T16:06:08Z</time>
      </trkpt>
      <trkpt lat="45.96654" lon="6.59733">
        <ele>1271.8</ele>
        <time>2026-02-02T16:06:09Z</time>
      </trkpt>
      <trkpt lat="45.96653" lon="6.59733">
        <ele>1271.6</ele>
        <time>2026-02-02T16:06:10Z</time>
      </trkpt>
      <trkpt lat="45.96652" lon="6.59733">
        <ele>1271.3</ele>
        <time>2026-02-02T16:06:11Z</time>
      </trkpt>
      <trkpt lat="45.9665" lon="6.59733">
        <ele>1271</ele>
        <time>2026-02-02T16:06:12Z</time>
      </trkpt>
      <trkpt lat="45.9665" lon="6.59733">
        <ele>1270.9</ele>
        <time>2026-02-02T16:06:13Z</time>
      </trkpt>
      <trkpt lat="45.9665" lon="6.59733">
        <ele>1270.9</ele>
        <time>2026-02-02T16:06:14Z</time>
      </trkpt>
      <trkpt lat="45.9665" lon="6.59733">
        <ele>1270.7</ele>
        <time>2026-02-02T16:06:15Z</time>
      </trkpt>
      <trkpt lat="45.96648" lon="6.59733">
        <ele>1270.3</ele>
        <time>2026-02-02T16:06:16Z</time>
      </trkpt>
      <trkpt lat="45.96647" lon="6.59733">
        <ele>1270.1</ele>
        <time>2026-02-02T16:06:17Z</time>
      </trkpt>
      <trkpt lat="45.96646" lon="6.59733">
        <ele>1269.9</ele>
        <time>2026-02-02T16:06:18Z</time>
      </trkpt>
      <trkpt lat="45.96645" lon="6.59734">
        <ele>1269.7</ele>
        <time>2026-02-02T16:06:19Z</time>
      </trkpt>
      <trkpt lat="45.96644" lon="6.59734">
        <ele>1269.4</ele>
        <time>2026-02-02T16:06:20Z</time>
      </trkpt>
      <trkpt lat="45.96641" lon="6.59736">
        <ele>1268.5</ele>
        <time>2026-02-02T16:06:21Z</time>
      </trkpt>
      <trkpt lat="45.96639" lon="6.59737">
        <ele>1268.1</ele>
        <time>2026-02-02T16:06:22Z</time>
      </trkpt>
      <trkpt lat="45.96632" lon="6.59741">
        <ele>1266.6</ele>
        <time>2026-02-02T16:06:23Z</time>
      </trkpt>
      <trkpt lat="45.96628" lon="6.59744">
        <ele>1265.7</ele>
        <time>2026-02-02T16:06:24Z</time>
      </trkpt>
      <trkpt lat="45.96627" lon="6.59744">
        <ele>1265.5</ele>
        <time>2026-02-02T16:06:25Z</time>
      </trkpt>
      <trkpt lat="45.96625" lon="6.59743">
        <ele>1265.1</ele>
        <time>2026-02-02T16:06:26Z</time>
      </trkpt>
      <trkpt lat="45.96622" lon="6.59742">
        <ele>1264.4</ele>
        <time>2026-02-02T16:06:27Z</time>
      </trkpt>
      <trkpt lat="45.9662" lon="6.59742">
        <ele>1264.2</ele>
        <time>2026-02-02T16:06:28Z</time>
      </trkpt>
      <trkpt lat="45.96618" lon="6.5974">
        <ele>1263.6</ele>
        <time>2026-02-02T16:06:29Z</time>
      </trkpt>
      <trkpt lat="45.96615" lon="6.59738">
        <ele>1263.1</ele>
        <time>2026-02-02T16:06:30Z</time>
      </trkpt>
      <trkpt lat="45.96612" lon="6.59737">
        <ele>1262.4</ele>
        <time>2026-02-02T16:06:31Z</time>
      </trkpt>
      <trkpt lat="45.96607" lon="6.59735">
        <ele>1261.4</ele>
        <time>2026-02-02T16:06:32Z</time>
      </trkpt>
      <trkpt lat="45.96605" lon="6.59739">
        <ele>1260.9</ele>
        <time>2026-02-02T16:06:33Z</time>
      </trkpt>
      <trkpt lat="45.96606" lon="6.59744">
        <ele>1260.2</ele>
        <time>2026-02-02T16:06:34Z</time>
      </trkpt>
      <trkpt lat="45.96609" lon="6.59747">
        <ele>1259.5</ele>
        <time>2026-02-02T16:06:35Z</time>
      </trkpt>
      <trkpt lat="45.96611" lon="6.59752">
        <ele>1258.7</ele>
        <time>2026-02-02T16:06:36Z</time>
      </trkpt>
      <trkpt lat="45.96614" lon="6.59757">
        <ele>1257.8</ele>
        <time>2026-02-02T16:06:37Z</time>
      </trkpt>
      <trkpt lat="45.96618" lon="6.5976">
        <ele>1256.9</ele>
        <time>2026-02-02T16:06:38Z</time>
      </trkpt>
      <trkpt lat="45.96622" lon="6.59763">
        <ele>1255.9</ele>
        <time>2026-02-02T16:06:39Z</time>
      </trkpt>
      <trkpt lat="45.96627" lon="6.59765">
        <ele>1254.8</ele>
        <time>2026-02-02T16:06:40Z</time>
      </trkpt>
      <trkpt lat="45.96631" lon="6.59767">
        <ele>1254</ele>
        <time>2026-02-02T16:06:41Z</time>
      </trkpt>
      <trkpt lat="45.96634" lon="6.59769">
        <ele>1253.2</ele>
        <time>2026-02-02T16:06:42Z</time>
      </trkpt>
      <trkpt lat="45.96637" lon="6.59769">
        <ele>1252.6</ele>
        <time>2026-02-02T16:06:43Z</time>
      </trkpt>
      <trkpt lat="45.9664" lon="6.5977">
        <ele>1251.9</ele>
        <time>2026-02-02T16:06:44Z</time>
      </trkpt>
      <trkpt lat="45.96642" lon="6.59771">
        <ele>1251.3</ele>
        <time>2026-02-02T16:06:45Z</time>
      </trkpt>
      <trkpt lat="45.96645" lon="6.59771">
        <ele>1250.7</ele>
        <time>2026-02-02T16:06:46Z</time>
      </trkpt>
      <trkpt lat="45.96646" lon="6.59771">
        <ele>1250.5</ele>
        <time>2026-02-02T16:06:47Z</time>
      </trkpt>
      <trkpt lat="45.96649" lon="6.59774">
        <ele>1249.7</ele>
        <time>2026-02-02T16:06:48Z</time>
      </trkpt>
      <trkpt lat="45.9665" lon="6.59775">
        <ele>1249.5</ele>
        <time>2026-02-02T16:06:49Z</time>
      </trkpt>
      <trkpt lat="45.96651" lon="6.59776">
        <ele>1249</ele>
        <time>2026-02-02T16:06:50Z</time>
      </trkpt>
      <trkpt lat="45.96653" lon="6.59776">
        <ele>1248.7</ele>
        <time>2026-02-02T16:06:51Z</time>
      </trkpt>
      <trkpt lat="45.96654" lon="6.59777">
        <ele>1248.3</ele>
        <time>2026-02-02T16:06:52Z</time>
      </trkpt>
      <trkpt lat="45.96655" lon="6.59779">
        <ele>1247.9</ele>
        <time>2026-02-02T16:06:53Z</time>
      </trkpt>
      <trkpt lat="45.96657" lon="6.59779">
        <ele>1247.5</ele>
        <time>2026-02-02T16:06:54Z</time>
      </trkpt>
      <trkpt lat="45.96659" lon="6.59779">
        <ele>1247.2</ele>
        <time>2026-02-02T16:06:55Z</time>
      </trkpt>
      <trkpt lat="45.9666" lon="6.59779">
        <ele>1246.8</ele>
        <time>2026-02-02T16:06:56Z</time>
      </trkpt>
      <trkpt lat="45.96662" lon="6.5978">
        <ele>1246.4</ele>
        <time>2026-02-02T16:06:57Z</time>
      </trkpt>
      <trkpt lat="45.96664" lon="6.59783">
        <ele>1245.6</ele>
        <time>2026-02-02T16:06:58Z</time>
      </trkpt>
      <trkpt lat="45.96665" lon="6.59784">
        <ele>1245.4</ele>
        <time>2026-02-02T16:06:59Z</time>
      </trkpt>
      <trkpt lat="45.96667" lon="6.59787">
        <ele>1244.7</ele>
        <time>2026-02-02T16:07:00Z</time>
      </trkpt>
      <trkpt lat="45.9667" lon="6.59789">
        <ele>1243.9</ele>
        <time>2026-02-02T16:07:01Z</time>
      </trkpt>
      <trkpt lat="45.96673" lon="6.5979">
        <ele>1243.2</ele>
        <time>2026-02-02T16:07:02Z</time>
      </trkpt>
      <trkpt lat="45.96676" lon="6.59792">
        <ele>1242.4</ele>
        <time>2026-02-02T16:07:03Z</time>
      </trkpt>
      <trkpt lat="45.9668" lon="6.59794">
        <ele>1241.4</ele>
        <time>2026-02-02T16:07:04Z</time>
      </trkpt>
      <trkpt lat="45.96684" lon="6.59798">
        <ele>1240.1</ele>
        <time>2026-02-02T16:07:05Z</time>
      </trkpt>
      <trkpt lat="45.96686" lon="6.59803">
        <ele>1239.1</ele>
        <time>2026-02-02T16:07:06Z</time>
      </trkpt>
      <trkpt lat="45.96685" lon="6.59807">
        <ele>1238.4</ele>
        <time>2026-02-02T16:07:07Z</time>
      </trkpt>
      <trkpt lat="45.96684" lon="6.59809">
        <ele>1238</ele>
        <time>2026-02-02T16:07:08Z</time>
      </trkpt>
      <trkpt lat="45.96682" lon="6.59811">
        <ele>1237.3</ele>
        <time>2026-02-02T16:07:09Z</time>
      </trkpt>
      <trkpt lat="45.96678" lon="6.59814">
        <ele>1236.3</ele>
        <time>2026-02-02T16:07:10Z</time>
      </trkpt>
      <trkpt lat="45.96677" lon="6.59815">
        <ele>1236</ele>
        <time>2026-02-02T16:07:11Z</time>
      </trkpt>
      <trkpt lat="45.96674" lon="6.59816">
        <ele>1235.4</ele>
        <time>2026-02-02T16:07:12Z</time>
      </trkpt>
      <trkpt lat="45.96671" lon="6.59819">
        <ele>1234.4</ele>
        <time>2026-02-02T16:07:13Z</time>
      </trkpt>
      <trkpt lat="45.96669" lon="6.59819">
        <ele>1234</ele>
        <time>2026-02-02T16:07:14Z</time>
      </trkpt>
      <trkpt lat="45.96666" lon="6.5982">
        <ele>1233.3</ele>
        <time>2026-02-02T16:07:15Z</time>
      </trkpt>
      <trkpt lat="45.96665" lon="6.5982">
        <ele>1233</ele>
        <time>2026-02-02T16:07:16Z</time>
      </trkpt>
      <trkpt lat="45.96663" lon="6.59822">
        <ele>1232.6</ele>
        <time>2026-02-02T16:07:17Z</time>
      </trkpt>
      <trkpt lat="45.96662" lon="6.59822">
        <ele>1232.3</ele>
        <time>2026-02-02T16:07:18Z</time>
      </trkpt>
      <trkpt lat="45.96659" lon="6.59825">
        <ele>1231.5</ele>
        <time>2026-02-02T16:07:19Z</time>
      </trkpt>
      <trkpt lat="45.96658" lon="6.59826">
        <ele>1231.2</ele>
        <time>2026-02-02T16:07:20Z</time>
      </trkpt>
      <trkpt lat="45.96654" lon="6.59829">
        <ele>1230.3</ele>
        <time>2026-02-02T16:07:21Z</time>
      </trkpt>
      <trkpt lat="45.96651" lon="6.59831">
        <ele>1229.6</ele>
        <time>2026-02-02T16:07:22Z</time>
      </trkpt>
      <trkpt lat="45.96648" lon="6.59832">
        <ele>1228.9</ele>
        <time>2026-02-02T16:07:23Z</time>
      </trkpt>
      <trkpt lat="45.96645" lon="6.59833">
        <ele>1228.1</ele>
        <time>2026-02-02T16:07:24Z</time>
      </trkpt>
      <trkpt lat="45.96644" lon="6.59833">
        <ele>1227.9</ele>
        <time>2026-02-02T16:07:25Z</time>
      </trkpt>
      <trkpt lat="45.9664" lon="6.59835">
        <ele>1227</ele>
        <time>2026-02-02T16:07:26Z</time>
      </trkpt>
      <trkpt lat="45.96639" lon="6.59835">
        <ele>1226.7</ele>
        <time>2026-02-02T16:07:27Z</time>
      </trkpt>
      <trkpt lat="45.96638" lon="6.59836">
        <ele>1226.4</ele>
        <time>2026-02-02T16:07:28Z</time>
      </trkpt>
      <trkpt lat="45.96636" lon="6.59836">
        <ele>1226</ele>
        <time>2026-02-02T16:07:29Z</time>
      </trkpt>
      <trkpt lat="45.96635" lon="6.59837">
        <ele>1225.7</ele>
        <time>2026-02-02T16:07:30Z</time>
      </trkpt>
      <trkpt lat="45.96634" lon="6.59837">
        <ele>1225.6</ele>
        <time>2026-02-02T16:07:31Z</time>
      </trkpt>
      <trkpt lat="45.96633" lon="6.59837">
        <ele>1225.3</ele>
        <time>2026-02-02T16:07:32Z</time>
      </trkpt>
      <trkpt lat="45.96633" lon="6.59837">
        <ele>1225.1</ele>
        <time>2026-02-02T16:07:33Z</time>
      </trkpt>
      <trkpt lat="45.96632" lon="6.59838">
        <ele>1225</ele>
        <time>2026-02-02T16:07:34Z</time>
      </trkpt>
      <trkpt lat="45.96631" lon="6.59839">
        <ele>1224.6</ele>
        <time>2026-02-02T16:07:35Z</time>
      </trkpt>
      <trkpt lat="45.9663" lon="6.59839">
        <ele>1224.5</ele>
        <time>2026-02-02T16:07:36Z</time>
      </trkpt>
      <trkpt lat="45.9663" lon="6.5984">
        <ele>1224.4</ele>
        <time>2026-02-02T16:07:37Z</time>
      </trkpt>
      <trkpt lat="45.96629" lon="6.5984">
        <ele>1224.2</ele>
        <time>2026-02-02T16:07:38Z</time>
      </trkpt>
      <trkpt lat="45.96629" lon="6.59841">
        <ele>1224</ele>
        <time>2026-02-02T16:07:39Z</time>
      </trkpt>
      <trkpt lat="45.96629" lon="6.59841">
        <ele>1224</ele>
        <time>2026-02-02T16:07:40Z</time>
      </trkpt>
      <trkpt lat="45.96628" lon="6.59841">
        <ele>1224</ele>
        <time>2026-02-02T16:07:41Z</time>
      </trkpt>
      <trkpt lat="45.96629" lon="6.59841">
        <ele>1223.9</ele>
        <time>2026-02-02T16:07:42Z</time>
      </trkpt>
      <trkpt lat="45.96628" lon="6.5984">
        <ele>1223.7</ele>
        <time>2026-02-02T16:07:43Z</time>
      </trkpt>
      <trkpt lat="45.96627" lon="6.5984">
        <ele>1223.5</ele>
        <time>2026-02-02T16:07:44Z</time>
      </trkpt>
      <trkpt lat="45.96627" lon="6.5984">
        <ele>1223.5</ele>
        <time>2026-02-02T16:07:45Z</time>
      </trkpt>
      <trkpt lat="45.96627" lon="6.5984">
        <ele>1223.4</ele>
        <time>2026-02-02T16:07:46Z</time>
      </trkpt>
      <trkpt lat="45.96626" lon="6.59841">
        <ele>1223.2</ele>
        <time>2026-02-02T16:07:47Z</time>
      </trkpt>
      <trkpt lat="45.96626" lon="6.59841">
        <ele>1223.1</ele>
        <time>2026-02-02T16:07:48Z</time>
      </trkpt>
      <trkpt lat="45.96625" lon="6.59841">
        <ele>1223</ele>
        <time>2026-02-02T16:07:49Z</time>
      </trkpt>
      <trkpt lat="45.96625" lon="6.59842">
        <ele>1222.9</ele>
        <time>2026-02-02T16:07:50Z</time>
      </trkpt>
      <trkpt lat="45.96625" lon="6.59842">
        <ele>1222.8</ele>
        <time>2026-02-02T16:07:51Z</time>
      </trkpt>
      <trkpt lat="45.96624" lon="6.59842">
        <ele>1222.7</ele>
        <time>2026-02-02T16:07:52Z</time>
      </trkpt>
      <trkpt lat="45.96624" lon="6.59842">
        <ele>1222.6</ele>
        <time>2026-02-02T16:07:53Z</time>
      </trkpt>
      <trkpt lat="45.96623" lon="6.59842">
        <ele>1222.4</ele>
        <time>2026-02-02T16:07:54Z</time>
      </trkpt>
      <trkpt lat="45.96622" lon="6.59841">
        <ele>1222.1</ele>
        <time>2026-02-02T16:07:55Z</time>
      </trkpt>
      <trkpt lat="45.96619" lon="6.59842">
        <ele>1221.4</ele>
        <time>2026-02-02T16:07:56Z</time>
      </trkpt>
      <trkpt lat="45.96618" lon="6.59842">
        <ele>1221</ele>
        <time>2026-02-02T16:07:57Z</time>
      </trkpt>
      <trkpt lat="45.96614" lon="6.59844">
        <ele>1220.3</ele>
        <time>2026-02-02T16:07:58Z</time>
      </trkpt>
      <trkpt lat="45.96612" lon="6.59847">
        <ele>1219.5</ele>
        <time>2026-02-02T16:07:59Z</time>
      </trkpt>
      <trkpt lat="45.9661" lon="6.59848">
        <ele>1219.1</ele>
        <time>2026-02-02T16:08:00Z</time>
      </trkpt>
      <trkpt lat="45.96608" lon="6.5985">
        <ele>1218.5</ele>
        <time>2026-02-02T16:08:01Z</time>
      </trkpt>
      <trkpt lat="45.96606" lon="6.59852">
        <ele>1217.8</ele>
        <time>2026-02-02T16:08:02Z</time>
      </trkpt>
      <trkpt lat="45.96602" lon="6.59853">
        <ele>1217</ele>
        <time>2026-02-02T16:08:03Z</time>
      </trkpt>
      <trkpt lat="45.96598" lon="6.59852">
        <ele>1215.9</ele>
        <time>2026-02-02T16:08:04Z</time>
      </trkpt>
      <trkpt lat="45.96594" lon="6.59851">
        <ele>1215.1</ele>
        <time>2026-02-02T16:08:05Z</time>
      </trkpt>
      <trkpt lat="45.96593" lon="6.59851">
        <ele>1214.8</ele>
        <time>2026-02-02T16:08:06Z</time>
      </trkpt>
      <trkpt lat="45.96591" lon="6.59851">
        <ele>1214.3</ele>
        <time>2026-02-02T16:08:07Z</time>
      </trkpt>
      <trkpt lat="45.9659" lon="6.59851">
        <ele>1214</ele>
        <time>2026-02-02T16:08:08Z</time>
      </trkpt>
      <trkpt lat="45.96586" lon="6.59852">
        <ele>1213</ele>
        <time>2026-02-02T16:08:09Z</time>
      </trkpt>
      <trkpt lat="45.96585" lon="6.59852">
        <ele>1212.7</ele>
        <time>2026-02-02T16:08:10Z</time>
      </trkpt>
      <trkpt lat="45.96581" lon="6.59854">
        <ele>1211.6</ele>
        <time>2026-02-02T16:08:11Z</time>
      </trkpt>
      <trkpt lat="45.96579" lon="6.59854">
        <ele>1211.1</ele>
        <time>2026-02-02T16:08:12Z</time>
      </trkpt>
      <trkpt lat="45.96574" lon="6.59854">
        <ele>1210.1</ele>
        <time>2026-02-02T16:08:13Z</time>
      </trkpt>
      <trkpt lat="45.96573" lon="6.59854">
        <ele>1209.8</ele>
        <time>2026-02-02T16:08:14Z</time>
      </trkpt>
      <trkpt lat="45.96573" lon="6.59855">
        <ele>1209.7</ele>
        <time>2026-02-02T16:08:15Z</time>
      </trkpt>
      <trkpt lat="45.96573" lon="6.59856">
        <ele>1209.5</ele>
        <time>2026-02-02T16:08:16Z</time>
      </trkpt>
      <trkpt lat="45.96572" lon="6.59857">
        <ele>1209.2</ele>
        <time>2026-02-02T16:08:17Z</time>
      </trkpt>
      <trkpt lat="45.96569" lon="6.59858">
        <ele>1208.6</ele>
        <time>2026-02-02T16:08:18Z</time>
      </trkpt>
      <trkpt lat="45.96564" lon="6.59856">
        <ele>1207.5</ele>
        <time>2026-02-02T16:08:19Z</time>
      </trkpt>
      <trkpt lat="45.9656" lon="6.59856">
        <ele>1206.8</ele>
        <time>2026-02-02T16:08:20Z</time>
      </trkpt>
      <trkpt lat="45.96555" lon="6.59855">
        <ele>1206.1</ele>
        <time>2026-02-02T16:08:21Z</time>
      </trkpt>
      <trkpt lat="45.9655" lon="6.59854">
        <ele>1205.4</ele>
        <time>2026-02-02T16:08:22Z</time>
      </trkpt>
      <trkpt lat="45.96547" lon="6.59854">
        <ele>1204.9</ele>
        <time>2026-02-02T16:08:23Z</time>
      </trkpt>
      <trkpt lat="45.96546" lon="6.59854">
        <ele>1204.7</ele>
        <time>2026-02-02T16:08:24Z</time>
      </trkpt>
      <trkpt lat="45.96545" lon="6.59855">
        <ele>1204.6</ele>
        <time>2026-02-02T16:08:25Z</time>
      </trkpt>
      <trkpt lat="45.96544" lon="6.59856">
        <ele>1204.4</ele>
        <time>2026-02-02T16:08:26Z</time>
      </trkpt>
      <trkpt lat="45.96541" lon="6.59858">
        <ele>1203.8</ele>
        <time>2026-02-02T16:08:27Z</time>
      </trkpt>
      <trkpt lat="45.9654" lon="6.59858">
        <ele>1203.6</ele>
        <time>2026-02-02T16:08:28Z</time>
      </trkpt>
      <trkpt lat="45.96537" lon="6.59859">
        <ele>1202.9</ele>
        <time>2026-02-02T16:08:29Z</time>
      </trkpt>
      <trkpt lat="45.96532" lon="6.59862">
        <ele>1201.8</ele>
        <time>2026-02-02T16:08:30Z</time>
      </trkpt>
      <trkpt lat="45.96528" lon="6.59862">
        <ele>1200.9</ele>
        <time>2026-02-02T16:08:31Z</time>
      </trkpt>
      <trkpt lat="45.96525" lon="6.59862">
        <ele>1200.1</ele>
        <time>2026-02-02T16:08:32Z</time>
      </trkpt>
      <trkpt lat="45.96521" lon="6.5986">
        <ele>1199.2</ele>
        <time>2026-02-02T16:08:33Z</time>
      </trkpt>
      <trkpt lat="45.9652" lon="6.5986">
        <ele>1198.9</ele>
        <time>2026-02-02T16:08:34Z</time>
      </trkpt>
      <trkpt lat="45.96516" lon="6.59859">
        <ele>1197.9</ele>
        <time>2026-02-02T16:08:35Z</time>
      </trkpt>
      <trkpt lat="45.96514" lon="6.59859">
        <ele>1197.4</ele>
        <time>2026-02-02T16:08:36Z</time>
      </trkpt>
      <trkpt lat="45.96509" lon="6.59859">
        <ele>1196</ele>
        <time>2026-02-02T16:08:37Z</time>
      </trkpt>
      <trkpt lat="45.96505" lon="6.59858">
        <ele>1194.9</ele>
        <time>2026-02-02T16:08:38Z</time>
      </trkpt>
      <trkpt lat="45.96502" lon="6.59857">
        <ele>1193.8</ele>
        <time>2026-02-02T16:08:39Z</time>
      </trkpt>
      <trkpt lat="45.965" lon="6.59858">
        <ele>1193.3</ele>
        <time>2026-02-02T16:08:40Z</time>
      </trkpt>
      <trkpt lat="45.96498" lon="6.59858">
        <ele>1192.9</ele>
        <time>2026-02-02T16:08:41Z</time>
      </trkpt>
      <trkpt lat="45.96495" lon="6.59858">
        <ele>1192.1</ele>
        <time>2026-02-02T16:08:42Z</time>
      </trkpt>
      <trkpt lat="45.96491" lon="6.59859">
        <ele>1190.9</ele>
        <time>2026-02-02T16:08:43Z</time>
      </trkpt>
      <trkpt lat="45.96486" lon="6.59863">
        <ele>1189.4</ele>
        <time>2026-02-02T16:08:44Z</time>
      </trkpt>
      <trkpt lat="45.96481" lon="6.59868">
        <ele>1187.7</ele>
        <time>2026-02-02T16:08:45Z</time>
      </trkpt>
      <trkpt lat="45.96474" lon="6.59873">
        <ele>1186.1</ele>
        <time>2026-02-02T16:08:46Z</time>
      </trkpt>
      <trkpt lat="45.96468" lon="6.59877">
        <ele>1184.6</ele>
        <time>2026-02-02T16:08:47Z</time>
      </trkpt>
      <trkpt lat="45.96462" lon="6.5988">
        <ele>1183.6</ele>
        <time>2026-02-02T16:08:48Z</time>
      </trkpt>
      <trkpt lat="45.96456" lon="6.59882">
        <ele>1182.7</ele>
        <time>2026-02-02T16:08:49Z</time>
      </trkpt>
      <trkpt lat="45.96452" lon="6.59884">
        <ele>1182</ele>
        <time>2026-02-02T16:08:50Z</time>
      </trkpt>
      <trkpt lat="45.96447" lon="6.59888">
        <ele>1181.2</ele>
        <time>2026-02-02T16:08:51Z</time>
      </trkpt>
      <trkpt lat="45.96442" lon="6.59892">
        <ele>1180.3</ele>
        <time>2026-02-02T16:08:52Z</time>
      </trkpt>
      <trkpt lat="45.96436" lon="6.59894">
        <ele>1179.5</ele>
        <time>2026-02-02T16:08:53Z</time>
      </trkpt>
      <trkpt lat="45.96431" lon="6.59899">
        <ele>1178.6</ele>
        <time>2026-02-02T16:08:54Z</time>
      </trkpt>
      <trkpt lat="45.96428" lon="6.59904">
        <ele>1177.8</ele>
        <time>2026-02-02T16:08:55Z</time>
      </trkpt>
      <trkpt lat="45.96423" lon="6.59907">
        <ele>1177.1</ele>
        <time>2026-02-02T16:08:56Z</time>
      </trkpt>
      <trkpt lat="45.9642" lon="6.59908">
        <ele>1176.6</ele>
        <time>2026-02-02T16:08:57Z</time>
      </trkpt>
      <trkpt lat="45.96418" lon="6.59911">
        <ele>1176.1</ele>
        <time>2026-02-02T16:08:58Z</time>
      </trkpt>
      <trkpt lat="45.96415" lon="6.59915">
        <ele>1175.5</ele>
        <time>2026-02-02T16:08:59Z</time>
      </trkpt>
      <trkpt lat="45.96414" lon="6.59917">
        <ele>1175.3</ele>
        <time>2026-02-02T16:09:00Z</time>
      </trkpt>
      <trkpt lat="45.96412" lon="6.5992">
        <ele>1174.8</ele>
        <time>2026-02-02T16:09:01Z</time>
      </trkpt>
      <trkpt lat="45.96411" lon="6.59921">
        <ele>1174.6</ele>
        <time>2026-02-02T16:09:02Z</time>
      </trkpt>
      <trkpt lat="45.96408" lon="6.59923">
        <ele>1174.1</ele>
        <time>2026-02-02T16:09:03Z</time>
      </trkpt>
      <trkpt lat="45.96407" lon="6.59924">
        <ele>1174</ele>
        <time>2026-02-02T16:09:04Z</time>
      </trkpt>
      <trkpt lat="45.96405" lon="6.59925">
        <ele>1173.6</ele>
        <time>2026-02-02T16:09:05Z</time>
      </trkpt>
      <trkpt lat="45.96404" lon="6.59925">
        <ele>1173.5</ele>
        <time>2026-02-02T16:09:06Z</time>
      </trkpt>
      <trkpt lat="45.96404" lon="6.59926">
        <ele>1173.4</ele>
        <time>2026-02-02T16:09:07Z</time>
      </trkpt>
      <trkpt lat="45.96403" lon="6.59926">
        <ele>1173.2</ele>
        <time>2026-02-02T16:09:08Z</time>
      </trkpt>
      <trkpt lat="45.96402" lon="6.59927">
        <ele>1173</ele>
        <time>2026-02-02T16:09:09Z</time>
      </trkpt>
      <trkpt lat="45.96401" lon="6.59927">
        <ele>1172.9</ele>
        <time>2026-02-02T16:09:10Z</time>
      </trkpt>
      <trkpt lat="45.964" lon="6.59927">
        <ele>1172.7</ele>
        <time>2026-02-02T16:09:11Z</time>
      </trkpt>
      <trkpt lat="45.96399" lon="6.59926">
        <ele>1172.7</ele>
        <time>2026-02-02T16:09:12Z</time>
      </trkpt>
      <trkpt lat="45.96399" lon="6.59927">
        <ele>1172.5</ele>
        <time>2026-02-02T16:09:13Z</time>
      </trkpt>
      <trkpt lat="45.96399" lon="6.59927">
        <ele>1172.5</ele>
        <time>2026-02-02T16:09:14Z</time>
      </trkpt>
      <trkpt lat="45.96399" lon="6.59926">
        <ele>1172.4</ele>
        <time>2026-02-02T16:09:15Z</time>
      </trkpt>
      <trkpt lat="45.96398" lon="6.59927">
        <ele>1172.2</ele>
        <time>2026-02-02T16:09:16Z</time>
      </trkpt>
      <trkpt lat="45.96397" lon="6.59928">
        <ele>1172.1</ele>
        <time>2026-02-02T16:09:17Z</time>
      </trkpt>
      <trkpt lat="45.96397" lon="6.59928">
        <ele>1172</ele>
        <time>2026-02-02T16:09:18Z</time>
      </trkpt>
      <trkpt lat="45.96396" lon="6.59928">
        <ele>1171.9</ele>
        <time>2026-02-02T16:09:19Z</time>
      </trkpt>
      <trkpt lat="45.96394" lon="6.59928">
        <ele>1171.6</ele>
        <time>2026-02-02T16:09:20Z</time>
      </trkpt>
      <trkpt lat="45.96394" lon="6.59928">
        <ele>1171.6</ele>
        <time>2026-02-02T16:09:21Z</time>
      </trkpt>
      <trkpt lat="45.96393" lon="6.59928">
        <ele>1171.5</ele>
        <time>2026-02-02T16:09:22Z</time>
      </trkpt>
      <trkpt lat="45.96392" lon="6.59928">
        <ele>1171.2</ele>
        <time>2026-02-02T16:09:23Z</time>
      </trkpt>
      <trkpt lat="45.96391" lon="6.59929">
        <ele>1171</ele>
        <time>2026-02-02T16:09:24Z</time>
      </trkpt>
      <trkpt lat="45.96388" lon="6.5993">
        <ele>1170.5</ele>
        <time>2026-02-02T16:09:25Z</time>
      </trkpt>
      <trkpt lat="45.96387" lon="6.5993">
        <ele>1170.3</ele>
        <time>2026-02-02T16:09:26Z</time>
      </trkpt>
      <trkpt lat="45.96384" lon="6.59932">
        <ele>1169.9</ele>
        <time>2026-02-02T16:09:27Z</time>
      </trkpt>
      <trkpt lat="45.96382" lon="6.59934">
        <ele>1169.4</ele>
        <time>2026-02-02T16:09:28Z</time>
      </trkpt>
      <trkpt lat="45.96379" lon="6.59936">
        <ele>1168.9</ele>
        <time>2026-02-02T16:09:29Z</time>
      </trkpt>
      <trkpt lat="45.96375" lon="6.59938">
        <ele>1168.3</ele>
        <time>2026-02-02T16:09:30Z</time>
      </trkpt>
      <trkpt lat="45.96372" lon="6.59941">
        <ele>1167.7</ele>
        <time>2026-02-02T16:09:31Z</time>
      </trkpt>
      <trkpt lat="45.96368" lon="6.59944">
        <ele>1167.2</ele>
        <time>2026-02-02T16:09:32Z</time>
      </trkpt>
      <trkpt lat="45.96364" lon="6.59947">
        <ele>1166.6</ele>
        <time>2026-02-02T16:09:33Z</time>
      </trkpt>
      <trkpt lat="45.9636" lon="6.59952">
        <ele>1166.1</ele>
        <time>2026-02-02T16:09:34Z</time>
      </trkpt>
      <trkpt lat="45.96356" lon="6.59957">
        <ele>1165.6</ele>
        <time>2026-02-02T16:09:35Z</time>
      </trkpt>
      <trkpt lat="45.96352" lon="6.59961">
        <ele>1165.1</ele>
        <time>2026-02-02T16:09:36Z</time>
      </trkpt>
      <trkpt lat="45.9635" lon="6.59964">
        <ele>1164.8</ele>
        <time>2026-02-02T16:09:37Z</time>
      </trkpt>
      <trkpt lat="45.96346" lon="6.59967">
        <ele>1164.5</ele>
        <time>2026-02-02T16:09:38Z</time>
      </trkpt>
      <trkpt lat="45.96344" lon="6.5997">
        <ele>1164.2</ele>
        <time>2026-02-02T16:09:39Z</time>
      </trkpt>
      <trkpt lat="45.9634" lon="6.59973">
        <ele>1163.8</ele>
        <time>2026-02-02T16:09:40Z</time>
      </trkpt>
      <trkpt lat="45.96338" lon="6.59976">
        <ele>1163.5</ele>
        <time>2026-02-02T16:09:41Z</time>
      </trkpt>
      <trkpt lat="45.96335" lon="6.59977">
        <ele>1163.2</ele>
        <time>2026-02-02T16:09:42Z</time>
      </trkpt>
      <trkpt lat="45.96332" lon="6.59979">
        <ele>1162.8</ele>
        <time>2026-02-02T16:09:43Z</time>
      </trkpt>
      <trkpt lat="45.96329" lon="6.59981">
        <ele>1162.4</ele>
        <time>2026-02-02T16:09:44Z</time>
      </trkpt>
      <trkpt lat="45.96326" lon="6.59984">
        <ele>1161.8</ele>
        <time>2026-02-02T16:09:45Z</time>
      </trkpt>
      <trkpt lat="45.96323" lon="6.59985">
        <ele>1161.3</ele>
        <time>2026-02-02T16:09:46Z</time>
      </trkpt>
      <trkpt lat="45.96319" lon="6.59987">
        <ele>1160.6</ele>
        <time>2026-02-02T16:09:47Z</time>
      </trkpt>
      <trkpt lat="45.96316" lon="6.5999">
        <ele>1159.8</ele>
        <time>2026-02-02T16:09:48Z</time>
      </trkpt>
      <trkpt lat="45.9631" lon="6.59993">
        <ele>1158.4</ele>
        <time>2026-02-02T16:09:49Z</time>
      </trkpt>
      <trkpt lat="45.96305" lon="6.59996">
        <ele>1157.3</ele>
        <time>2026-02-02T16:09:50Z</time>
      </trkpt>
      <trkpt lat="45.96299" lon="6.6">
        <ele>1155.9</ele>
        <time>2026-02-02T16:09:51Z</time>
      </trkpt>
      <trkpt lat="45.96292" lon="6.60003">
        <ele>1154.6</ele>
        <time>2026-02-02T16:09:52Z</time>
      </trkpt>
      <trkpt lat="45.96285" lon="6.60008">
        <ele>1153.5</ele>
        <time>2026-02-02T16:09:53Z</time>
      </trkpt>
      <trkpt lat="45.96279" lon="6.60012">
        <ele>1152.5</ele>
        <time>2026-02-02T16:09:54Z</time>
      </trkpt>
      <trkpt lat="45.96272" lon="6.60017">
        <ele>1152</ele>
        <time>2026-02-02T16:09:55Z</time>
      </trkpt>
      <trkpt lat="45.96266" lon="6.60022">
        <ele>1151.7</ele>
        <time>2026-02-02T16:09:56Z</time>
      </trkpt>
      <trkpt lat="45.96261" lon="6.60027">
        <ele>1151.5</ele>
        <time>2026-02-02T16:09:57Z</time>
      </trkpt>
      <trkpt lat="45.96257" lon="6.60031">
        <ele>1151.4</ele>
        <time>2026-02-02T16:09:58Z</time>
      </trkpt>
      <trkpt lat="45.96253" lon="6.60035">
        <ele>1151.3</ele>
        <time>2026-02-02T16:09:59Z</time>
      </trkpt>
      <trkpt lat="45.96249" lon="6.60039">
        <ele>1151.2</ele>
        <time>2026-02-02T16:10:00Z</time>
      </trkpt>
      <trkpt lat="45.96246" lon="6.60042">
        <ele>1151.1</ele>
        <time>2026-02-02T16:10:01Z</time>
      </trkpt>
      <trkpt lat="45.96245" lon="6.60043">
        <ele>1151.1</ele>
        <time>2026-02-02T16:10:02Z</time>
      </trkpt>
      <trkpt lat="45.96242" lon="6.60048">
        <ele>1150.9</ele>
        <time>2026-02-02T16:10:03Z</time>
      </trkpt>
      <trkpt lat="45.96241" lon="6.6005">
        <ele>1150.8</ele>
        <time>2026-02-02T16:10:04Z</time>
      </trkpt>
      <trkpt lat="45.9624" lon="6.60054">
        <ele>1150.6</ele>
        <time>2026-02-02T16:10:05Z</time>
      </trkpt>
      <trkpt lat="45.96239" lon="6.60056">
        <ele>1150.5</ele>
        <time>2026-02-02T16:10:06Z</time>
      </trkpt>
      <trkpt lat="45.96237" lon="6.60058">
        <ele>1150.3</ele>
        <time>2026-02-02T16:10:07Z</time>
      </trkpt>
      <trkpt lat="45.96236" lon="6.60059">
        <ele>1150.2</ele>
        <time>2026-02-02T16:10:08Z</time>
      </trkpt>
      <trkpt lat="45.96235" lon="6.6006">
        <ele>1150.1</ele>
        <time>2026-02-02T16:10:09Z</time>
      </trkpt>
      <trkpt lat="45.96234" lon="6.60061">
        <ele>1150</ele>
        <time>2026-02-02T16:10:10Z</time>
      </trkpt>
      <trkpt lat="45.96233" lon="6.60062">
        <ele>1149.9</ele>
        <time>2026-02-02T16:10:11Z</time>
      </trkpt>
      <trkpt lat="45.96232" lon="6.60063">
        <ele>1149.7</ele>
        <time>2026-02-02T16:10:12Z</time>
      </trkpt>
      <trkpt lat="45.96232" lon="6.60063">
        <ele>1149.7</ele>
        <time>2026-02-02T16:10:13Z</time>
      </trkpt>
      <trkpt lat="45.96231" lon="6.60065">
        <ele>1149.5</ele>
        <time>2026-02-02T16:10:14Z</time>
      </trkpt>
      <trkpt lat="45.9623" lon="6.60066">
        <ele>1149.4</ele>
        <time>2026-02-02T16:10:15Z</time>
      </trkpt>
      <trkpt lat="45.9623" lon="6.60068">
        <ele>1149.2</ele>
        <time>2026-02-02T16:10:16Z</time>
      </trkpt>
      <trkpt lat="45.9623" lon="6.60069">
        <ele>1149.1</ele>
        <time>2026-02-02T16:10:17Z</time>
      </trkpt>
      <trkpt lat="45.96229" lon="6.6007">
        <ele>1149</ele>
        <time>2026-02-02T16:10:18Z</time>
      </trkpt>
      <trkpt lat="45.96229" lon="6.60071">
        <ele>1148.9</ele>
        <time>2026-02-02T16:10:19Z</time>
      </trkpt>
      <trkpt lat="45.96229" lon="6.60073">
        <ele>1148.7</ele>
        <time>2026-02-02T16:10:20Z</time>
      </trkpt>
      <trkpt lat="45.96229" lon="6.60073">
        <ele>1148.7</ele>
        <time>2026-02-02T16:10:21Z</time>
      </trkpt>
      <trkpt lat="45.96229" lon="6.60073">
        <ele>1148.6</ele>
        <time>2026-02-02T16:10:22Z</time>
      </trkpt>
      <trkpt lat="45.96229" lon="6.60072">
        <ele>1148.6</ele>
        <time>2026-02-02T16:10:23Z</time>
      </trkpt>
      <trkpt lat="45.96228" lon="6.60072">
        <ele>1148.5</ele>
        <time>2026-02-02T16:10:24Z</time>
      </trkpt>
      <trkpt lat="45.96227" lon="6.60073">
        <ele>1148.4</ele>
        <time>2026-02-02T16:10:25Z</time>
      </trkpt>
      <trkpt lat="45.96227" lon="6.60074">
        <ele>1148.3</ele>
        <time>2026-02-02T16:10:26Z</time>
      </trkpt>
      <trkpt lat="45.96226" lon="6.60074">
        <ele>1148.1</ele>
        <time>2026-02-02T16:10:27Z</time>
      </trkpt>
      <trkpt lat="45.96226" lon="6.60075">
        <ele>1148.1</ele>
        <time>2026-02-02T16:10:28Z</time>
      </trkpt>
      <trkpt lat="45.96225" lon="6.60075">
        <ele>1147.9</ele>
        <time>2026-02-02T16:10:29Z</time>
      </trkpt>
      <trkpt lat="45.96224" lon="6.60075">
        <ele>1147.9</ele>
        <time>2026-02-02T16:10:30Z</time>
      </trkpt>
      <trkpt lat="45.96224" lon="6.60076">
        <ele>1147.8</ele>
        <time>2026-02-02T16:10:31Z</time>
      </trkpt>
      <trkpt lat="45.96224" lon="6.60076">
        <ele>1147.7</ele>
        <time>2026-02-02T16:10:32Z</time>
      </trkpt>
      <trkpt lat="45.96224" lon="6.60076">
        <ele>1147.7</ele>
        <time>2026-02-02T16:10:33Z</time>
      </trkpt>
      <trkpt lat="45.96224" lon="6.60076">
        <ele>1147.7</ele>
        <time>2026-02-02T16:10:34Z</time>
      </trkpt>
      <trkpt lat="45.96224" lon="6.60076">
        <ele>1147.7</ele>
        <time>2026-02-02T16:10:35Z</time>
      </trkpt>
      <trkpt lat="45.96224" lon="6.60077">
        <ele>1147.6</ele>
        <time>2026-02-02T16:10:36Z</time>
      </trkpt>
      <trkpt lat="45.96223" lon="6.60078">
        <ele>1147.6</ele>
        <time>2026-02-02T16:10:37Z</time>
      </trkpt>
      <trkpt lat="45.96223" lon="6.60078">
        <ele>1147.5</ele>
        <time>2026-02-02T16:10:38Z</time>
      </trkpt>
      <trkpt lat="45.96223" lon="6.60078">
        <ele>1147.5</ele>
        <time>2026-02-02T16:10:39Z</time>
      </trkpt>
      <trkpt lat="45.96223" lon="6.60078">
        <ele>1147.5</ele>
        <time>2026-02-02T16:10:40Z</time>
      </trkpt>
      <trkpt lat="45.96223" lon="6.60079">
        <ele>1147.4</ele>
        <time>2026-02-02T16:10:41Z</time>
      </trkpt>
      <trkpt lat="45.96222" lon="6.60079">
        <ele>1147.4</ele>
        <time>2026-02-02T16:10:42Z</time>
      </trkpt>
      <trkpt lat="45.96222" lon="6.60079">
        <ele>1147.3</ele>
        <time>2026-02-02T16:10:43Z</time>
      </trkpt>
      <trkpt lat="45.96222" lon="6.60079">
        <ele>1147.3</ele>
        <time>2026-02-02T16:10:44Z</time>
      </trkpt>
      <trkpt lat="45.96222" lon="6.6008">
        <ele>1147.3</ele>
        <time>2026-02-02T16:10:45Z</time>
      </trkpt>
      <trkpt lat="45.96222" lon="6.6008">
        <ele>1147.2</ele>
        <time>2026-02-02T16:10:46Z</time>
      </trkpt>
      <trkpt lat="45.96221" lon="6.6008">
        <ele>1147.2</ele>
        <time>2026-02-02T16:10:47Z</time>
      </trkpt>
      <trkpt lat="45.96221" lon="6.6008">
        <ele>1147.2</ele>
        <time>2026-02-02T16:10:48Z</time>
      </trkpt>
      <trkpt lat="45.96221" lon="6.60081">
        <ele>1147.1</ele>
        <time>2026-02-02T16:10:49Z</time>
      </trkpt>
      <trkpt lat="45.96221" lon="6.60081">
        <ele>1147.1</ele>
        <time>2026-02-02T16:10:50Z</time>
      </trkpt>
      <trkpt lat="45.9622" lon="6.60082">
        <ele>1147</ele>
        <time>2026-02-02T16:10:51Z</time>
      </trkpt>
      <trkpt lat="45.9622" lon="6.60082">
        <ele>1146.9</ele>
        <time>2026-02-02T16:10:52Z</time>
      </trkpt>
      <trkpt lat="45.9622" lon="6.60083">
        <ele>1146.8</ele>
        <time>2026-02-02T16:10:53Z</time>
      </trkpt>
      <trkpt lat="45.96219" lon="6.60083">
        <ele>1146.8</ele>
        <time>2026-02-02T16:10:54Z</time>
      </trkpt>
      <trkpt lat="45.96219" lon="6.60084">
        <ele>1146.7</ele>
        <time>2026-02-02T16:10:55Z</time>
      </trkpt>
      <trkpt lat="45.96219" lon="6.60084">
        <ele>1146.6</ele>
        <time>2026-02-02T16:10:56Z</time>
      </trkpt>
      <trkpt lat="45.96218" lon="6.60085">
        <ele>1146.6</ele>
        <time>2026-02-02T16:10:57Z</time>
      </trkpt>
      <trkpt lat="45.96218" lon="6.60085">
        <ele>1146.6</ele>
        <time>2026-02-02T16:10:58Z</time>
      </trkpt>
      <trkpt lat="45.96218" lon="6.60085">
        <ele>1146.6</ele>
        <time>2026-02-02T16:10:59Z</time>
      </trkpt>
      <trkpt lat="45.96218" lon="6.60086">
        <ele>1146.4</ele>
        <time>2026-02-02T16:11:00Z</time>
      </trkpt>
      <trkpt lat="45.96218" lon="6.60087">
        <ele>1146.3</ele>
        <time>2026-02-02T16:11:01Z</time>
      </trkpt>
      <trkpt lat="45.96217" lon="6.60087">
        <ele>1146.2</ele>
        <time>2026-02-02T16:11:02Z</time>
      </trkpt>
      <trkpt lat="45.96216" lon="6.60088">
        <ele>1146.1</ele>
        <time>2026-02-02T16:11:03Z</time>
      </trkpt>
      <trkpt lat="45.96216" lon="6.60088">
        <ele>1146</ele>
        <time>2026-02-02T16:11:04Z</time>
      </trkpt>
      <trkpt lat="45.96216" lon="6.60088">
        <ele>1146</ele>
        <time>2026-02-02T16:11:05Z</time>
      </trkpt>
      <trkpt lat="45.96216" lon="6.60089">
        <ele>1145.9</ele>
        <time>2026-02-02T16:11:06Z</time>
      </trkpt>
      <trkpt lat="45.96216" lon="6.60089">
        <ele>1145.9</ele>
        <time>2026-02-02T16:11:07Z</time>
      </trkpt>
      <trkpt lat="45.96216" lon="6.6009">
        <ele>1145.8</ele>
        <time>2026-02-02T16:11:08Z</time>
      </trkpt>
      <trkpt lat="45.96216" lon="6.6009">
        <ele>1145.8</ele>
        <time>2026-02-02T16:11:09Z</time>
      </trkpt>
      <trkpt lat="45.96216" lon="6.60089">
        <ele>1145.8</ele>
        <time>2026-02-02T16:11:10Z</time>
      </trkpt>
      <trkpt lat="45.96216" lon="6.60089">
        <ele>1145.8</ele>
        <time>2026-02-02T16:11:11Z</time>
      </trkpt>
      <trkpt lat="45.96215" lon="6.60087">
        <ele>1145.6</ele>
        <time>2026-02-02T16:11:12Z</time>
      </trkpt>
      <trkpt lat="45.96214" lon="6.60086">
        <ele>1145.4</ele>
        <time>2026-02-02T16:11:13Z</time>
      </trkpt>
      <trkpt lat="45.96213" lon="6.60087">
        <ele>1145.3</ele>
        <time>2026-02-02T16:11:14Z</time>
      </trkpt>
      <trkpt lat="45.96213" lon="6.60087">
        <ele>1145.2</ele>
        <time>2026-02-02T16:11:15Z</time>
      </trkpt>
      <trkpt lat="45.96212" lon="6.60088">
        <ele>1145.1</ele>
        <time>2026-02-02T16:11:16Z</time>
      </trkpt>
      <trkpt lat="45.96211" lon="6.60089">
        <ele>1144.9</ele>
        <time>2026-02-02T16:11:17Z</time>
      </trkpt>
      <trkpt lat="45.96209" lon="6.60092">
        <ele>1144.5</ele>
        <time>2026-02-02T16:11:18Z</time>
      </trkpt>
      <trkpt lat="45.96208" lon="6.60093">
        <ele>1144.4</ele>
        <time>2026-02-02T16:11:19Z</time>
      </trkpt>
      <trkpt lat="45.96206" lon="6.60097">
        <ele>1143.9</ele>
        <time>2026-02-02T16:11:20Z</time>
      </trkpt>
      <trkpt lat="45.96205" lon="6.60098">
        <ele>1143.8</ele>
        <time>2026-02-02T16:11:21Z</time>
      </trkpt>
      <trkpt lat="45.96204" lon="6.60101">
        <ele>1143.4</ele>
        <time>2026-02-02T16:11:22Z</time>
      </trkpt>
      <trkpt lat="45.96203" lon="6.60105">
        <ele>1143</ele>
        <time>2026-02-02T16:11:23Z</time>
      </trkpt>
      <trkpt lat="45.96201" lon="6.6011">
        <ele>1142.4</ele>
        <time>2026-02-02T16:11:24Z</time>
      </trkpt>
      <trkpt lat="45.962" lon="6.60111">
        <ele>1142.2</ele>
        <time>2026-02-02T16:11:25Z</time>
      </trkpt>
      <trkpt lat="45.96197" lon="6.60113">
        <ele>1141.7</ele>
        <time>2026-02-02T16:11:26Z</time>
      </trkpt>
      <trkpt lat="45.96194" lon="6.60113">
        <ele>1141.1</ele>
        <time>2026-02-02T16:11:27Z</time>
      </trkpt>
      <trkpt lat="45.96191" lon="6.60116">
        <ele>1140.4</ele>
        <time>2026-02-02T16:11:28Z</time>
      </trkpt>
      <trkpt lat="45.96188" lon="6.60119">
        <ele>1139.8</ele>
        <time>2026-02-02T16:11:29Z</time>
      </trkpt>
      <trkpt lat="45.96185" lon="6.60121">
        <ele>1139.3</ele>
        <time>2026-02-02T16:11:30Z</time>
      </trkpt>
      <trkpt lat="45.96182" lon="6.60123">
        <ele>1138.7</ele>
        <time>2026-02-02T16:11:31Z</time>
      </trkpt>
      <trkpt lat="45.96178" lon="6.60125">
        <ele>1138</ele>
        <time>2026-02-02T16:11:32Z</time>
      </trkpt>
      <trkpt lat="45.96174" lon="6.60129">
        <ele>1137.1</ele>
        <time>2026-02-02T16:11:33Z</time>
      </trkpt>
      <trkpt lat="45.9617" lon="6.60132">
        <ele>1136.3</ele>
        <time>2026-02-02T16:11:34Z</time>
      </trkpt>
      <trkpt lat="45.96165" lon="6.60137">
        <ele>1135.4</ele>
        <time>2026-02-02T16:11:35Z</time>
      </trkpt>
      <trkpt lat="45.96161" lon="6.60141">
        <ele>1134.5</ele>
        <time>2026-02-02T16:11:36Z</time>
      </trkpt>
      <trkpt lat="45.96158" lon="6.60144">
        <ele>1133.8</ele>
        <time>2026-02-02T16:11:37Z</time>
      </trkpt>
      <trkpt lat="45.96158" lon="6.60146">
        <ele>1133.6</ele>
        <time>2026-02-02T16:11:38Z</time>
      </trkpt>
      <trkpt lat="45.96158" lon="6.60147">
        <ele>1133.4</ele>
        <time>2026-02-02T16:11:39Z</time>
      </trkpt>
      <trkpt lat="45.96158" lon="6.60148">
        <ele>1133.3</ele>
        <time>2026-02-02T16:11:40Z</time>
      </trkpt>
      <trkpt lat="45.96159" lon="6.6015">
        <ele>1133.1</ele>
        <time>2026-02-02T16:11:41Z</time>
      </trkpt>
      <trkpt lat="45.96158" lon="6.60151">
        <ele>1133</ele>
        <time>2026-02-02T16:11:42Z</time>
      </trkpt>
      <trkpt lat="45.96157" lon="6.60151">
        <ele>1133</ele>
        <time>2026-02-02T16:11:43Z</time>
      </trkpt>
      <trkpt lat="45.96155" lon="6.60152">
        <ele>1133</ele>
        <time>2026-02-02T16:11:44Z</time>
      </trkpt>
      <trkpt lat="45.96152" lon="6.60154">
        <ele>1131.7</ele>
        <time>2026-02-02T16:11:45Z</time>
      </trkpt>
      <trkpt lat="45.9615" lon="6.60156">
        <ele>1131.6</ele>
        <time>2026-02-02T16:11:46Z</time>
      </trkpt>
      <trkpt lat="45.96147" lon="6.60158">
        <ele>1131.6</ele>
        <time>2026-02-02T16:11:47Z</time>
      </trkpt>
      <trkpt lat="45.96144" lon="6.6016">
        <ele>1130.3</ele>
        <time>2026-02-02T16:11:48Z</time>
      </trkpt>
      <trkpt lat="45.96143" lon="6.60161">
        <ele>1130.4</ele>
        <time>2026-02-02T16:11:49Z</time>
      </trkpt>
      <trkpt lat="45.9614" lon="6.60163">
        <ele>1129.1</ele>
        <time>2026-02-02T16:11:50Z</time>
      </trkpt>
      <trkpt lat="45.96137" lon="6.60165">
        <ele>1129.2</ele>
        <time>2026-02-02T16:11:51Z</time>
      </trkpt>
      <trkpt lat="45.96136" lon="6.60165">
        <ele>1129.2</ele>
        <time>2026-02-02T16:11:52Z</time>
      </trkpt>
      <trkpt lat="45.96133" lon="6.60167">
        <ele>1129.2</ele>
        <time>2026-02-02T16:11:53Z</time>
      </trkpt>
      <trkpt lat="45.96132" lon="6.60167">
        <ele>1128</ele>
        <time>2026-02-02T16:11:54Z</time>
      </trkpt>
      <trkpt lat="45.96129" lon="6.6017">
        <ele>1128.1</ele>
        <time>2026-02-02T16:11:55Z</time>
      </trkpt>
      <trkpt lat="45.96127" lon="6.60177">
        <ele>1125.6</ele>
        <time>2026-02-02T16:11:56Z</time>
      </trkpt>
      <trkpt lat="45.96125" lon="6.60181">
        <ele>1124.4</ele>
        <time>2026-02-02T16:11:57Z</time>
      </trkpt>
      <trkpt lat="45.96124" lon="6.60185">
        <ele>1123.1</ele>
        <time>2026-02-02T16:11:58Z</time>
      </trkpt>
      <trkpt lat="45.96125" lon="6.6019">
        <ele>1121.9</ele>
        <time>2026-02-02T16:11:59Z</time>
      </trkpt>
      <trkpt lat="45.96126" lon="6.60191">
        <ele>1121.9</ele>
        <time>2026-02-02T16:12:00Z</time>
      </trkpt>
      <trkpt lat="45.96127" lon="6.60193">
        <ele>1120.6</ele>
        <time>2026-02-02T16:12:01Z</time>
      </trkpt>
      <trkpt lat="45.96128" lon="6.60195">
        <ele>1120.7</ele>
        <time>2026-02-02T16:12:02Z</time>
      </trkpt>
      <trkpt lat="45.96128" lon="6.60199">
        <ele>1119.5</ele>
        <time>2026-02-02T16:12:03Z</time>
      </trkpt>
      <trkpt lat="45.96128" lon="6.60201">
        <ele>1118.3</ele>
        <time>2026-02-02T16:12:04Z</time>
      </trkpt>
      <trkpt lat="45.96129" lon="6.60205">
        <ele>1118.4</ele>
        <time>2026-02-02T16:12:05Z</time>
      </trkpt>
      <trkpt lat="45.96131" lon="6.60208">
        <ele>1117.3</ele>
        <time>2026-02-02T16:12:06Z</time>
      </trkpt>
      <trkpt lat="45.96132" lon="6.60209">
        <ele>1117.3</ele>
        <time>2026-02-02T16:12:07Z</time>
      </trkpt>
      <trkpt lat="45.96133" lon="6.60211">
        <ele>1116.3</ele>
        <time>2026-02-02T16:12:08Z</time>
      </trkpt>
      <trkpt lat="45.96133" lon="6.60213">
        <ele>1116.3</ele>
        <time>2026-02-02T16:12:09Z</time>
      </trkpt>
      <trkpt lat="45.96132" lon="6.60214">
        <ele>1116.4</ele>
        <time>2026-02-02T16:12:10Z</time>
      </trkpt>
      <trkpt lat="45.96131" lon="6.60215">
        <ele>1115.4</ele>
        <time>2026-02-02T16:12:11Z</time>
      </trkpt>
      <trkpt lat="45.96131" lon="6.60215">
        <ele>1115.4</ele>
        <time>2026-02-02T16:12:12Z</time>
      </trkpt>
      <trkpt lat="45.9613" lon="6.60216">
        <ele>1115.4</ele>
        <time>2026-02-02T16:12:13Z</time>
      </trkpt>
      <trkpt lat="45.9613" lon="6.60216">
        <ele>1115.5</ele>
        <time>2026-02-02T16:12:14Z</time>
      </trkpt>
      <trkpt lat="45.96129" lon="6.60216">
        <ele>1115.5</ele>
        <time>2026-02-02T16:12:15Z</time>
      </trkpt>
      <trkpt lat="45.96128" lon="6.60216">
        <ele>1115.6</ele>
        <time>2026-02-02T16:12:16Z</time>
      </trkpt>
      <trkpt lat="45.96127" lon="6.60217">
        <ele>1115.6</ele>
        <time>2026-02-02T16:12:17Z</time>
      </trkpt>
      <trkpt lat="45.96126" lon="6.60217">
        <ele>1115.7</ele>
        <time>2026-02-02T16:12:18Z</time>
      </trkpt>
      <trkpt lat="45.96126" lon="6.60217">
        <ele>1115.7</ele>
        <time>2026-02-02T16:12:19Z</time>
      </trkpt>
      <trkpt lat="45.96125" lon="6.60218">
        <ele>1115.7</ele>
        <time>2026-02-02T16:12:20Z</time>
      </trkpt>
      <trkpt lat="45.96124" lon="6.60218">
        <ele>1115.7</ele>
        <time>2026-02-02T16:12:21Z</time>
      </trkpt>
      <trkpt lat="45.96124" lon="6.60218">
        <ele>1115.8</ele>
        <time>2026-02-02T16:12:22Z</time>
      </trkpt>
      <trkpt lat="45.96123" lon="6.60218">
        <ele>1115.8</ele>
        <time>2026-02-02T16:12:23Z</time>
      </trkpt>
      <trkpt lat="45.96123" lon="6.60218">
        <ele>1115.8</ele>
        <time>2026-02-02T16:12:24Z</time>
      </trkpt>
      <trkpt lat="45.96123" lon="6.60218">
        <ele>1114.8</ele>
        <time>2026-02-02T16:12:25Z</time>
      </trkpt>
      <trkpt lat="45.96123" lon="6.60219">
        <ele>1114.9</ele>
        <time>2026-02-02T16:12:26Z</time>
      </trkpt>
      <trkpt lat="45.96124" lon="6.60219">
        <ele>1114.9</ele>
        <time>2026-02-02T16:12:27Z</time>
      </trkpt>
      <trkpt lat="45.96124" lon="6.60219">
        <ele>1114.9</ele>
        <time>2026-02-02T16:12:28Z</time>
      </trkpt>
      <trkpt lat="45.96124" lon="6.6022">
        <ele>1114.9</ele>
        <time>2026-02-02T16:12:29Z</time>
      </trkpt>
      <trkpt lat="45.96124" lon="6.6022">
        <ele>1115</ele>
        <time>2026-02-02T16:12:30Z</time>
      </trkpt>
      <trkpt lat="45.96124" lon="6.6022">
        <ele>1115</ele>
        <time>2026-02-02T16:12:31Z</time>
      </trkpt>
      <trkpt lat="45.96124" lon="6.60221">
        <ele>1115</ele>
        <time>2026-02-02T16:12:32Z</time>
      </trkpt>
      <trkpt lat="45.96124" lon="6.60221">
        <ele>1115</ele>
        <time>2026-02-02T16:12:33Z</time>
      </trkpt>
      <trkpt lat="45.96124" lon="6.60221">
        <ele>1115.1</ele>
        <time>2026-02-02T16:12:34Z</time>
      </trkpt>
      <trkpt lat="45.96124" lon="6.60221">
        <ele>1115.1</ele>
        <time>2026-02-02T16:12:35Z</time>
      </trkpt>
      <trkpt lat="45.96124" lon="6.60222">
        <ele>1115.1</ele>
        <time>2026-02-02T16:12:36Z</time>
      </trkpt>
      <trkpt lat="45.96124" lon="6.60222">
        <ele>1115.2</ele>
        <time>2026-02-02T16:12:37Z</time>
      </trkpt>
      <trkpt lat="45.96124" lon="6.60222">
        <ele>1115.2</ele>
        <time>2026-02-02T16:12:38Z</time>
      </trkpt>
      <trkpt lat="45.96124" lon="6.60223">
        <ele>1114.2</ele>
        <time>2026-02-02T16:12:39Z</time>
      </trkpt>
      <trkpt lat="45.96124" lon="6.60223">
        <ele>1114.2</ele>
        <time>2026-02-02T16:12:40Z</time>
      </trkpt>
      <trkpt lat="45.96124" lon="6.60223">
        <ele>1114.2</ele>
        <time>2026-02-02T16:12:41Z</time>
      </trkpt>
      <trkpt lat="45.96126" lon="6.60227">
        <ele>1113.2</ele>
        <time>2026-02-02T16:12:42Z</time>
      </trkpt>
      <trkpt lat="45.96127" lon="6.60229">
        <ele>1113.1</ele>
        <time>2026-02-02T16:12:43Z</time>
      </trkpt>
      <trkpt lat="45.96129" lon="6.60234">
        <ele>1112.1</ele>
        <time>2026-02-02T16:12:44Z</time>
      </trkpt>
      <trkpt lat="45.96131" lon="6.60243">
        <ele>1109.9</ele>
        <time>2026-02-02T16:12:45Z</time>
      </trkpt>
      <trkpt lat="45.96131" lon="6.60251">
        <ele>1107.9</ele>
        <time>2026-02-02T16:12:46Z</time>
      </trkpt>
      <trkpt lat="45.96129" lon="6.6026">
        <ele>1106.2</ele>
        <time>2026-02-02T16:12:47Z</time>
      </trkpt>
      <trkpt lat="45.96127" lon="6.60267">
        <ele>1104.6</ele>
        <time>2026-02-02T16:12:48Z</time>
      </trkpt>
      <trkpt lat="45.96123" lon="6.60273">
        <ele>1104</ele>
        <time>2026-02-02T16:12:49Z</time>
      </trkpt>
      <trkpt lat="45.9612" lon="6.60278">
        <ele>1103.3</ele>
        <time>2026-02-02T16:12:50Z</time>
      </trkpt>
      <trkpt lat="45.96118" lon="6.60284">
        <ele>1101.2</ele>
        <time>2026-02-02T16:12:51Z</time>
      </trkpt>
      <trkpt lat="45.96116" lon="6.60288">
        <ele>1100.7</ele>
        <time>2026-02-02T16:12:52Z</time>
      </trkpt>
      <trkpt lat="45.96115" lon="6.60295">
        <ele>1100</ele>
        <time>2026-02-02T16:12:53Z</time>
      </trkpt>
      <trkpt lat="45.96115" lon="6.60302">
        <ele>1098.7</ele>
        <time>2026-02-02T16:12:54Z</time>
      </trkpt>
      <trkpt lat="45.96116" lon="6.60309">
        <ele>1097.3</ele>
        <time>2026-02-02T16:12:55Z</time>
      </trkpt>
      <trkpt lat="45.96117" lon="6.60315">
        <ele>1096.7</ele>
        <time>2026-02-02T16:12:56Z</time>
      </trkpt>
      <trkpt lat="45.96117" lon="6.60321">
        <ele>1096</ele>
        <time>2026-02-02T16:12:57Z</time>
      </trkpt>
      <trkpt lat="45.96118" lon="6.60327">
        <ele>1094.4</ele>
        <time>2026-02-02T16:12:58Z</time>
      </trkpt>
      <trkpt lat="45.96119" lon="6.60332">
        <ele>1093.8</ele>
        <time>2026-02-02T16:12:59Z</time>
      </trkpt>
      <trkpt lat="45.96121" lon="6.60336">
        <ele>1092.9</ele>
        <time>2026-02-02T16:13:00Z</time>
      </trkpt>
      <trkpt lat="45.96124" lon="6.6034">
        <ele>1092</ele>
        <time>2026-02-02T16:13:01Z</time>
      </trkpt>
      <trkpt lat="45.9613" lon="6.60341">
        <ele>1091.5</ele>
        <time>2026-02-02T16:13:02Z</time>
      </trkpt>
      <trkpt lat="45.96134" lon="6.60343">
        <ele>1090.7</ele>
        <time>2026-02-02T16:13:03Z</time>
      </trkpt>
      <trkpt lat="45.96137" lon="6.60347">
        <ele>1089.9</ele>
        <time>2026-02-02T16:13:04Z</time>
      </trkpt>
      <trkpt lat="45.9614" lon="6.60353">
        <ele>1089.1</ele>
        <time>2026-02-02T16:13:05Z</time>
      </trkpt>
      <trkpt lat="45.9614" lon="6.60358">
        <ele>1088.5</ele>
        <time>2026-02-02T16:13:06Z</time>
      </trkpt>
      <trkpt lat="45.9614" lon="6.60362">
        <ele>1087.9</ele>
        <time>2026-02-02T16:13:07Z</time>
      </trkpt>
      <trkpt lat="45.96139" lon="6.60367">
        <ele>1087.3</ele>
        <time>2026-02-02T16:13:08Z</time>
      </trkpt>
      <trkpt lat="45.96139" lon="6.60371">
        <ele>1086.7</ele>
        <time>2026-02-02T16:13:09Z</time>
      </trkpt>
      <trkpt lat="45.96139" lon="6.60375">
        <ele>1086.1</ele>
        <time>2026-02-02T16:13:10Z</time>
      </trkpt>
      <trkpt lat="45.96138" lon="6.6038">
        <ele>1085.9</ele>
        <time>2026-02-02T16:13:11Z</time>
      </trkpt>
      <trkpt lat="45.96137" lon="6.60385">
        <ele>1085.4</ele>
        <time>2026-02-02T16:13:12Z</time>
      </trkpt>
      <trkpt lat="45.96135" lon="6.6039">
        <ele>1085.1</ele>
        <time>2026-02-02T16:13:13Z</time>
      </trkpt>
      <trkpt lat="45.96134" lon="6.60395">
        <ele>1084.1</ele>
        <time>2026-02-02T16:13:14Z</time>
      </trkpt>
      <trkpt lat="45.96132" lon="6.60401">
        <ele>1083.8</ele>
        <time>2026-02-02T16:13:15Z</time>
      </trkpt>
      <trkpt lat="45.9613" lon="6.60407">
        <ele>1083.3</ele>
        <time>2026-02-02T16:13:16Z</time>
      </trkpt>
      <trkpt lat="45.96126" lon="6.60412">
        <ele>1082.5</ele>
        <time>2026-02-02T16:13:17Z</time>
      </trkpt>
      <trkpt lat="45.96123" lon="6.60418">
        <ele>1082.2</ele>
        <time>2026-02-02T16:13:18Z</time>
      </trkpt>
      <trkpt lat="45.96119" lon="6.60424">
        <ele>1081.9</ele>
        <time>2026-02-02T16:13:19Z</time>
      </trkpt>
      <trkpt lat="45.96116" lon="6.60431">
        <ele>1081</ele>
        <time>2026-02-02T16:13:20Z</time>
      </trkpt>
      <trkpt lat="45.96113" lon="6.60438">
        <ele>1080.3</ele>
        <time>2026-02-02T16:13:21Z</time>
      </trkpt>
      <trkpt lat="45.96112" lon="6.60444">
        <ele>1079.7</ele>
        <time>2026-02-02T16:13:22Z</time>
      </trkpt>
      <trkpt lat="45.96115" lon="6.60448">
        <ele>1078.6</ele>
        <time>2026-02-02T16:13:23Z</time>
      </trkpt>
      <trkpt lat="45.96117" lon="6.6045">
        <ele>1078.6</ele>
        <time>2026-02-02T16:13:24Z</time>
      </trkpt>
      <trkpt lat="45.9612" lon="6.60451">
        <ele>1077.4</ele>
        <time>2026-02-02T16:13:25Z</time>
      </trkpt>
      <trkpt lat="45.96124" lon="6.60454">
        <ele>1076.5</ele>
        <time>2026-02-02T16:13:26Z</time>
      </trkpt>
      <trkpt lat="45.96126" lon="6.6046">
        <ele>1075</ele>
        <time>2026-02-02T16:13:27Z</time>
      </trkpt>
      <trkpt lat="45.96127" lon="6.60465">
        <ele>1073.7</ele>
        <time>2026-02-02T16:13:28Z</time>
      </trkpt>
      <trkpt lat="45.96128" lon="6.60472">
        <ele>1072.3</ele>
        <time>2026-02-02T16:13:29Z</time>
      </trkpt>
      <trkpt lat="45.96127" lon="6.60478">
        <ele>1071.6</ele>
        <time>2026-02-02T16:13:30Z</time>
      </trkpt>
      <trkpt lat="45.96126" lon="6.60484">
        <ele>1071</ele>
        <time>2026-02-02T16:13:31Z</time>
      </trkpt>
      <trkpt lat="45.96126" lon="6.60489">
        <ele>1070.9</ele>
        <time>2026-02-02T16:13:32Z</time>
      </trkpt>
      <trkpt lat="45.96125" lon="6.60494">
        <ele>1069.6</ele>
        <time>2026-02-02T16:13:33Z</time>
      </trkpt>
      <trkpt lat="45.96124" lon="6.60497">
        <ele>1069.6</ele>
        <time>2026-02-02T16:13:34Z</time>
      </trkpt>
      <trkpt lat="45.96124" lon="6.60502">
        <ele>1068.1</ele>
        <time>2026-02-02T16:13:35Z</time>
      </trkpt>
      <trkpt lat="45.96123" lon="6.60507">
        <ele>1067.8</ele>
        <time>2026-02-02T16:13:36Z</time>
      </trkpt>
      <trkpt lat="45.96121" lon="6.60513">
        <ele>1067.1</ele>
        <time>2026-02-02T16:13:37Z</time>
      </trkpt>
      <trkpt lat="45.96118" lon="6.60518">
        <ele>1066.9</ele>
        <time>2026-02-02T16:13:38Z</time>
      </trkpt>
      <trkpt lat="45.96116" lon="6.60523">
        <ele>1066.8</ele>
        <time>2026-02-02T16:13:39Z</time>
      </trkpt>
      <trkpt lat="45.96113" lon="6.60526">
        <ele>1066.6</ele>
        <time>2026-02-02T16:13:40Z</time>
      </trkpt>
      <trkpt lat="45.96111" lon="6.60529">
        <ele>1066.5</ele>
        <time>2026-02-02T16:13:41Z</time>
      </trkpt>
      <trkpt lat="45.96109" lon="6.60533">
        <ele>1065.7</ele>
        <time>2026-02-02T16:13:42Z</time>
      </trkpt>
      <trkpt lat="45.96109" lon="6.60535">
        <ele>1065.7</ele>
        <time>2026-02-02T16:13:43Z</time>
      </trkpt>
      <trkpt lat="45.96108" lon="6.60541">
        <ele>1064.6</ele>
        <time>2026-02-02T16:13:44Z</time>
      </trkpt>
      <trkpt lat="45.96108" lon="6.60543">
        <ele>1064.6</ele>
        <time>2026-02-02T16:13:45Z</time>
      </trkpt>
      <trkpt lat="45.96107" lon="6.60547">
        <ele>1063.8</ele>
        <time>2026-02-02T16:13:46Z</time>
      </trkpt>
      <trkpt lat="45.96106" lon="6.60548">
        <ele>1063.8</ele>
        <time>2026-02-02T16:13:47Z</time>
      </trkpt>
      <trkpt lat="45.96105" lon="6.60548">
        <ele>1064.4</ele>
        <time>2026-02-02T16:13:48Z</time>
      </trkpt>
      <trkpt lat="45.96104" lon="6.60547">
        <ele>1064.4</ele>
        <time>2026-02-02T16:13:49Z</time>
      </trkpt>
      <trkpt lat="45.96104" lon="6.60547">
        <ele>1064.5</ele>
        <time>2026-02-02T16:13:50Z</time>
      </trkpt>
      <trkpt lat="45.96104" lon="6.60547">
        <ele>1064.5</ele>
        <time>2026-02-02T16:13:51Z</time>
      </trkpt>
      <trkpt lat="45.96104" lon="6.60547">
        <ele>1064.5</ele>
        <time>2026-02-02T16:13:52Z</time>
      </trkpt>
      <trkpt lat="45.96104" lon="6.60547">
        <ele>1064.5</ele>
        <time>2026-02-02T16:13:53Z</time>
      </trkpt>
      <trkpt lat="45.96105" lon="6.60548">
        <ele>1064.6</ele>
        <time>2026-02-02T16:13:54Z</time>
      </trkpt>
      <trkpt lat="45.96104" lon="6.60549">
        <ele>1063.6</ele>
        <time>2026-02-02T16:13:55Z</time>
      </trkpt>
      <trkpt lat="45.96104" lon="6.60549">
        <ele>1063.7</ele>
        <time>2026-02-02T16:13:56Z</time>
      </trkpt>
      <trkpt lat="45.96104" lon="6.60549">
        <ele>1063.7</ele>
        <time>2026-02-02T16:13:57Z</time>
      </trkpt>
      <trkpt lat="45.96104" lon="6.60549">
        <ele>1063.7</ele>
        <time>2026-02-02T16:13:58Z</time>
      </trkpt>
      <trkpt lat="45.96104" lon="6.60549">
        <ele>1063.7</ele>
        <time>2026-02-02T16:13:59Z</time>
      </trkpt>
      <trkpt lat="45.96104" lon="6.60549">
        <ele>1063.8</ele>
        <time>2026-02-02T16:14:00Z</time>
      </trkpt>
      <trkpt lat="45.96104" lon="6.60549">
        <ele>1063.8</ele>
        <time>2026-02-02T16:14:01Z</time>
      </trkpt>
      <trkpt lat="45.96104" lon="6.60549">
        <ele>1063.8</ele>
        <time>2026-02-02T16:14:02Z</time>
      </trkpt>
      <trkpt lat="45.96104" lon="6.60549">
        <ele>1063.9</ele>
        <time>2026-02-02T16:14:03Z</time>
      </trkpt>
      <trkpt lat="45.96104" lon="6.60549">
        <ele>1063.9</ele>
        <time>2026-02-02T16:14:04Z</time>
      </trkpt>
      <trkpt lat="45.96104" lon="6.60549">
        <ele>1063.9</ele>
        <time>2026-02-02T16:14:05Z</time>
      </trkpt>
      <trkpt lat="45.96104" lon="6.60549">
        <ele>1063.9</ele>
        <time>2026-02-02T16:14:06Z</time>
      </trkpt>
      <trkpt lat="45.96104" lon="6.60549">
        <ele>1064</ele>
        <time>2026-02-02T16:14:07Z</time>
      </trkpt>
      <trkpt lat="45.96104" lon="6.60549">
        <ele>1064</ele>
        <time>2026-02-02T16:14:08Z</time>
      </trkpt>
      <trkpt lat="45.96104" lon="6.60549">
        <ele>1064</ele>
        <time>2026-02-02T16:14:09Z</time>
      </trkpt>
      <trkpt lat="45.96104" lon="6.6055">
        <ele>1064</ele>
        <time>2026-02-02T16:14:10Z</time>
      </trkpt>
      <trkpt lat="45.96103" lon="6.6055">
        <ele>1064.1</ele>
        <time>2026-02-02T16:14:11Z</time>
      </trkpt>
      <trkpt lat="45.96103" lon="6.6055">
        <ele>1064.1</ele>
        <time>2026-02-02T16:14:12Z</time>
      </trkpt>
      <trkpt lat="45.96103" lon="6.6055">
        <ele>1064.1</ele>
        <time>2026-02-02T16:14:13Z</time>
      </trkpt>
      <trkpt lat="45.96103" lon="6.6055">
        <ele>1064.2</ele>
        <time>2026-02-02T16:14:14Z</time>
      </trkpt>
      <trkpt lat="45.96103" lon="6.6055">
        <ele>1064.2</ele>
        <time>2026-02-02T16:14:15Z</time>
      </trkpt>
      <trkpt lat="45.96104" lon="6.60548">
        <ele>1065.2</ele>
        <time>2026-02-02T16:14:16Z</time>
      </trkpt>
      <trkpt lat="45.96103" lon="6.60549">
        <ele>1065.2</ele>
        <time>2026-02-02T16:14:17Z</time>
      </trkpt>
      <trkpt lat="45.96103" lon="6.6055">
        <ele>1064.8</ele>
        <time>2026-02-02T16:14:18Z</time>
      </trkpt>
      <trkpt lat="45.96102" lon="6.60551">
        <ele>1064.9</ele>
        <time>2026-02-02T16:14:19Z</time>
      </trkpt>
      <trkpt lat="45.96104" lon="6.60553">
        <ele>1063.4</ele>
        <time>2026-02-02T16:14:20Z</time>
      </trkpt>
      <trkpt lat="45.96104" lon="6.60555">
        <ele>1063.4</ele>
        <time>2026-02-02T16:14:21Z</time>
      </trkpt>
      <trkpt lat="45.96104" lon="6.60556">
        <ele>1063.4</ele>
        <time>2026-02-02T16:14:22Z</time>
      </trkpt>
      <trkpt lat="45.96104" lon="6.60561">
        <ele>1062.5</ele>
        <time>2026-02-02T16:14:23Z</time>
      </trkpt>
      <trkpt lat="45.96103" lon="6.60562">
        <ele>1061.7</ele>
        <time>2026-02-02T16:14:24Z</time>
      </trkpt>
      <trkpt lat="45.96103" lon="6.60567">
        <ele>1060.9</ele>
        <time>2026-02-02T16:14:25Z</time>
      </trkpt>
      <trkpt lat="45.96105" lon="6.60572">
        <ele>1060.1</ele>
        <time>2026-02-02T16:14:26Z</time>
      </trkpt>
      <trkpt lat="45.96107" lon="6.60575">
        <ele>1058.6</ele>
        <time>2026-02-02T16:14:27Z</time>
      </trkpt>
      <trkpt lat="45.96109" lon="6.60575">
        <ele>1058.1</ele>
        <time>2026-02-02T16:14:28Z</time>
      </trkpt>
      <trkpt lat="45.96111" lon="6.60574">
        <ele>1058.9</ele>
        <time>2026-02-02T16:14:29Z</time>
      </trkpt>
      <trkpt lat="45.96112" lon="6.60574">
        <ele>1058.4</ele>
        <time>2026-02-02T16:14:30Z</time>
      </trkpt>
      <trkpt lat="45.96113" lon="6.60573">
        <ele>1058.4</ele>
        <time>2026-02-02T16:14:31Z</time>
      </trkpt>
      <trkpt lat="45.96114" lon="6.60573">
        <ele>1058.4</ele>
        <time>2026-02-02T16:14:32Z</time>
      </trkpt>
      <trkpt lat="45.96114" lon="6.60573">
        <ele>1058.4</ele>
        <time>2026-02-02T16:14:33Z</time>
      </trkpt>
      <trkpt lat="45.96114" lon="6.60574">
        <ele>1058.5</ele>
        <time>2026-02-02T16:14:34Z</time>
      </trkpt>
      <trkpt lat="45.96114" lon="6.60574">
        <ele>1058.5</ele>
        <time>2026-02-02T16:14:35Z</time>
      </trkpt>
      <trkpt lat="45.96115" lon="6.60573">
        <ele>1057.9</ele>
        <time>2026-02-02T16:14:36Z</time>
      </trkpt>
      <trkpt lat="45.96113" lon="6.60572">
        <ele>1058.6</ele>
        <time>2026-02-02T16:14:37Z</time>
      </trkpt>
      <trkpt lat="45.96113" lon="6.60572">
        <ele>1058.6</ele>
        <time>2026-02-02T16:14:38Z</time>
      </trkpt>
      <trkpt lat="45.96112" lon="6.60572">
        <ele>1058.6</ele>
        <time>2026-02-02T16:14:39Z</time>
      </trkpt>
      <trkpt lat="45.96112" lon="6.60574">
        <ele>1058.6</ele>
        <time>2026-02-02T16:14:40Z</time>
      </trkpt>
      <trkpt lat="45.96113" lon="6.60576">
        <ele>1057.8</ele>
        <time>2026-02-02T16:14:41Z</time>
      </trkpt>
      <trkpt lat="45.96114" lon="6.60578">
        <ele>1057.9</ele>
        <time>2026-02-02T16:14:42Z</time>
      </trkpt>
      <trkpt lat="45.96114" lon="6.6058">
        <ele>1057</ele>
        <time>2026-02-02T16:14:43Z</time>
      </trkpt>
      <trkpt lat="45.96116" lon="6.60582">
        <ele>1056.5</ele>
        <time>2026-02-02T16:14:44Z</time>
      </trkpt>
      <trkpt lat="45.96116" lon="6.60584">
        <ele>1055.6</ele>
        <time>2026-02-02T16:14:45Z</time>
      </trkpt>
      <trkpt lat="45.96116" lon="6.60586">
        <ele>1055.6</ele>
        <time>2026-02-02T16:14:46Z</time>
      </trkpt>
      <trkpt lat="45.96115" lon="6.6059">
        <ele>1054.7</ele>
        <time>2026-02-02T16:14:47Z</time>
      </trkpt>
      <trkpt lat="45.96115" lon="6.60591">
        <ele>1054.7</ele>
        <time>2026-02-02T16:14:48Z</time>
      </trkpt>
      <trkpt lat="45.96114" lon="6.60595">
        <ele>1054.4</ele>
        <time>2026-02-02T16:14:49Z</time>
      </trkpt>
      <trkpt lat="45.96113" lon="6.60597">
        <ele>1053.5</ele>
        <time>2026-02-02T16:14:50Z</time>
      </trkpt>
      <trkpt lat="45.96113" lon="6.60601">
        <ele>1052.6</ele>
        <time>2026-02-02T16:14:51Z</time>
      </trkpt>
      <trkpt lat="45.96115" lon="6.60605">
        <ele>1051.1</ele>
        <time>2026-02-02T16:14:52Z</time>
      </trkpt>
      <trkpt lat="45.96115" lon="6.60606">
        <ele>1051.1</ele>
        <time>2026-02-02T16:14:53Z</time>
      </trkpt>
      <trkpt lat="45.96116" lon="6.60606">
        <ele>1051.2</ele>
        <time>2026-02-02T16:14:54Z</time>
      </trkpt>
      <trkpt lat="45.96117" lon="6.60607">
        <ele>1051.2</ele>
        <time>2026-02-02T16:14:55Z</time>
      </trkpt>
      <trkpt lat="45.96118" lon="6.60608">
        <ele>1050.7</ele>
        <time>2026-02-02T16:14:56Z</time>
      </trkpt>
      <trkpt lat="45.96118" lon="6.60609">
        <ele>1049.8</ele>
        <time>2026-02-02T16:14:57Z</time>
      </trkpt>
      <trkpt lat="45.96118" lon="6.6061">
        <ele>1049.9</ele>
        <time>2026-02-02T16:14:58Z</time>
      </trkpt>
      <trkpt lat="45.96118" lon="6.6061">
        <ele>1049.9</ele>
        <time>2026-02-02T16:14:59Z</time>
      </trkpt>
      <trkpt lat="45.96118" lon="6.6061">
        <ele>1049.9</ele>
        <time>2026-02-02T16:15:00Z</time>
      </trkpt>
      <trkpt lat="45.96118" lon="6.60611">
        <ele>1049.9</ele>
        <time>2026-02-02T16:15:01Z</time>
      </trkpt>
      <trkpt lat="45.96118" lon="6.60611">
        <ele>1050</ele>
        <time>2026-02-02T16:15:02Z</time>
      </trkpt>
      <trkpt lat="45.96119" lon="6.60612">
        <ele>1050</ele>
        <time>2026-02-02T16:15:03Z</time>
      </trkpt>
      <trkpt lat="45.96119" lon="6.60613">
        <ele>1049.1</ele>
        <time>2026-02-02T16:15:04Z</time>
      </trkpt>
      <trkpt lat="45.96119" lon="6.60614">
        <ele>1049.2</ele>
        <time>2026-02-02T16:15:05Z</time>
      </trkpt>
      <trkpt lat="45.9612" lon="6.60615">
        <ele>1049.2</ele>
        <time>2026-02-02T16:15:06Z</time>
      </trkpt>
      <trkpt lat="45.9612" lon="6.60616">
        <ele>1049.2</ele>
        <time>2026-02-02T16:15:07Z</time>
      </trkpt>
      <trkpt lat="45.9612" lon="6.60619">
        <ele>1048.4</ele>
        <time>2026-02-02T16:15:08Z</time>
      </trkpt>
      <trkpt lat="45.96121" lon="6.60621">
        <ele>1047.9</ele>
        <time>2026-02-02T16:15:09Z</time>
      </trkpt>
      <trkpt lat="45.96122" lon="6.60623">
        <ele>1047.1</ele>
        <time>2026-02-02T16:15:10Z</time>
      </trkpt>
      <trkpt lat="45.96122" lon="6.60623">
        <ele>1047.1</ele>
        <time>2026-02-02T16:15:11Z</time>
      </trkpt>
      <trkpt lat="45.96123" lon="6.60624">
        <ele>1047.1</ele>
        <time>2026-02-02T16:15:12Z</time>
      </trkpt>
      <trkpt lat="45.96123" lon="6.60624">
        <ele>1047.1</ele>
        <time>2026-02-02T16:15:13Z</time>
      </trkpt>
      <trkpt lat="45.96124" lon="6.60625">
        <ele>1046.7</ele>
        <time>2026-02-02T16:15:14Z</time>
      </trkpt>
      <trkpt lat="45.96126" lon="6.60631">
        <ele>1044.8</ele>
        <time>2026-02-02T16:15:15Z</time>
      </trkpt>
      <trkpt lat="45.96126" lon="6.60633">
        <ele>1044.8</ele>
        <time>2026-02-02T16:15:16Z</time>
      </trkpt>
      <trkpt lat="45.96128" lon="6.6064">
        <ele>1042.3</ele>
        <time>2026-02-02T16:15:17Z</time>
      </trkpt>
      <trkpt lat="45.96131" lon="6.60648">
        <ele>1040</ele>
        <time>2026-02-02T16:15:18Z</time>
      </trkpt>
      <trkpt lat="45.96134" lon="6.60653">
        <ele>1038.8</ele>
        <time>2026-02-02T16:15:19Z</time>
      </trkpt>
      <trkpt lat="45.96138" lon="6.60656">
        <ele>1037.6</ele>
        <time>2026-02-02T16:15:20Z</time>
      </trkpt>
      <trkpt lat="45.96141" lon="6.60657">
        <ele>1037.4</ele>
        <time>2026-02-02T16:15:21Z</time>
      </trkpt>
      <trkpt lat="45.96145" lon="6.60661">
        <ele>1036.1</ele>
        <time>2026-02-02T16:15:22Z</time>
      </trkpt>
      <trkpt lat="45.96146" lon="6.60663">
        <ele>1036.1</ele>
        <time>2026-02-02T16:15:23Z</time>
      </trkpt>
      <trkpt lat="45.96148" lon="6.60666">
        <ele>1035.1</ele>
        <time>2026-02-02T16:15:24Z</time>
      </trkpt>
      <trkpt lat="45.96149" lon="6.6067">
        <ele>1034.2</ele>
        <time>2026-02-02T16:15:25Z</time>
      </trkpt>
      <trkpt lat="45.96149" lon="6.60671">
        <ele>1034.2</ele>
        <time>2026-02-02T16:15:26Z</time>
      </trkpt>
      <trkpt lat="45.96148" lon="6.60671">
        <ele>1034.3</ele>
        <time>2026-02-02T16:15:27Z</time>
      </trkpt>
      <trkpt lat="45.96147" lon="6.6067">
        <ele>1034.5</ele>
        <time>2026-02-02T16:15:28Z</time>
      </trkpt>
      <trkpt lat="45.96147" lon="6.60669">
        <ele>1034.5</ele>
        <time>2026-02-02T16:15:29Z</time>
      </trkpt>
      <trkpt lat="45.96144" lon="6.60674">
        <ele>1033.8</ele>
        <time>2026-02-02T16:15:30Z</time>
      </trkpt>
      <trkpt lat="45.96143" lon="6.60678">
        <ele>1032.8</ele>
        <time>2026-02-02T16:15:31Z</time>
      </trkpt>
      <trkpt lat="45.96142" lon="6.60684">
        <ele>1031.7</ele>
        <time>2026-02-02T16:15:32Z</time>
      </trkpt>
      <trkpt lat="45.96142" lon="6.6069">
        <ele>1030.6</ele>
        <time>2026-02-02T16:15:33Z</time>
      </trkpt>
      <trkpt lat="45.96143" lon="6.60695">
        <ele>1028.4</ele>
        <time>2026-02-02T16:15:34Z</time>
      </trkpt>
      <trkpt lat="45.96143" lon="6.60701">
        <ele>1027.3</ele>
        <time>2026-02-02T16:15:35Z</time>
      </trkpt>
      <trkpt lat="45.96141" lon="6.60705">
        <ele>1026.2</ele>
        <time>2026-02-02T16:15:36Z</time>
      </trkpt>
      <trkpt lat="45.96139" lon="6.60707">
        <ele>1026.2</ele>
        <time>2026-02-02T16:15:37Z</time>
      </trkpt>
      <trkpt lat="45.96137" lon="6.60707">
        <ele>1026.2</ele>
        <time>2026-02-02T16:15:38Z</time>
      </trkpt>
      <trkpt lat="45.96134" lon="6.60708">
        <ele>1025.1</ele>
        <time>2026-02-02T16:15:39Z</time>
      </trkpt>
      <trkpt lat="45.96131" lon="6.60708">
        <ele>1025.1</ele>
        <time>2026-02-02T16:15:40Z</time>
      </trkpt>
      <trkpt lat="45.96129" lon="6.60711">
        <ele>1025.1</ele>
        <time>2026-02-02T16:15:41Z</time>
      </trkpt>
      <trkpt lat="45.96129" lon="6.60712">
        <ele>1023.9</ele>
        <time>2026-02-02T16:15:42Z</time>
      </trkpt>
      <trkpt lat="45.96129" lon="6.60718">
        <ele>1022.6</ele>
        <time>2026-02-02T16:15:43Z</time>
      </trkpt>
      <trkpt lat="45.96131" lon="6.60725">
        <ele>1020</ele>
        <time>2026-02-02T16:15:44Z</time>
      </trkpt>
      <trkpt lat="45.96134" lon="6.60726">
        <ele>1020.1</ele>
        <time>2026-02-02T16:15:45Z</time>
      </trkpt>
      <trkpt lat="45.96136" lon="6.60729">
        <ele>1020.3</ele>
        <time>2026-02-02T16:15:46Z</time>
      </trkpt>
      <trkpt lat="45.96136" lon="6.60731">
        <ele>1018.9</ele>
        <time>2026-02-02T16:15:47Z</time>
      </trkpt>
      <trkpt lat="45.96135" lon="6.60732">
        <ele>1018.9</ele>
        <time>2026-02-02T16:15:48Z</time>
      </trkpt>
      <trkpt lat="45.96134" lon="6.60734">
        <ele>1017.6</ele>
        <time>2026-02-02T16:15:49Z</time>
      </trkpt>
      <trkpt lat="45.96133" lon="6.60735">
        <ele>1017.6</ele>
        <time>2026-02-02T16:15:50Z</time>
      </trkpt>
      <trkpt lat="45.96134" lon="6.60738">
        <ele>1017.6</ele>
        <time>2026-02-02T16:15:51Z</time>
      </trkpt>
      <trkpt lat="45.96134" lon="6.60739">
        <ele>1016.3</ele>
        <time>2026-02-02T16:15:52Z</time>
      </trkpt>
      <trkpt lat="45.96135" lon="6.60741">
        <ele>1016.4</ele>
        <time>2026-02-02T16:15:53Z</time>
      </trkpt>
      <trkpt lat="45.96135" lon="6.60747">
        <ele>1013.8</ele>
        <time>2026-02-02T16:15:54Z</time>
      </trkpt>
      <trkpt lat="45.96133" lon="6.60751">
        <ele>1012.5</ele>
        <time>2026-02-02T16:15:55Z</time>
      </trkpt>
      <trkpt lat="45.9613" lon="6.60755">
        <ele>1011.2</ele>
        <time>2026-02-02T16:15:56Z</time>
      </trkpt>
      <trkpt lat="45.96128" lon="6.60756">
        <ele>1011.1</ele>
        <time>2026-02-02T16:15:57Z</time>
      </trkpt>
      <trkpt lat="45.96128" lon="6.6076">
        <ele>1009.8</ele>
        <time>2026-02-02T16:15:58Z</time>
      </trkpt>
      <trkpt lat="45.9613" lon="6.60765">
        <ele>1008.5</ele>
        <time>2026-02-02T16:15:59Z</time>
      </trkpt>
      <trkpt lat="45.96132" lon="6.60768">
        <ele>1007.1</ele>
        <time>2026-02-02T16:16:00Z</time>
      </trkpt>
      <trkpt lat="45.96133" lon="6.60772">
        <ele>1005.7</ele>
        <time>2026-02-02T16:16:01Z</time>
      </trkpt>
      <trkpt lat="45.96133" lon="6.60774">
        <ele>1005.7</ele>
        <time>2026-02-02T16:16:02Z</time>
      </trkpt>
      <trkpt lat="45.96132" lon="6.60774">
        <ele>1005.7</ele>
        <time>2026-02-02T16:16:03Z</time>
      </trkpt>
      <trkpt lat="45.96129" lon="6.60773">
        <ele>1005.6</ele>
        <time>2026-02-02T16:16:04Z</time>
      </trkpt>
      <trkpt lat="45.96129" lon="6.60771">
        <ele>1007.2</ele>
        <time>2026-02-02T16:16:05Z</time>
      </trkpt>
      <trkpt lat="45.96129" lon="6.60771">
        <ele>1007.2</ele>
        <time>2026-02-02T16:16:06Z</time>
      </trkpt>
      <trkpt lat="45.96129" lon="6.60771">
        <ele>1007.2</ele>
        <time>2026-02-02T16:16:07Z</time>
      </trkpt>
      <trkpt lat="45.9613" lon="6.6077">
        <ele>1007.3</ele>
        <time>2026-02-02T16:16:08Z</time>
      </trkpt>
      <trkpt lat="45.9613" lon="6.6077">
        <ele>1007.3</ele>
        <time>2026-02-02T16:16:09Z</time>
      </trkpt>
      <trkpt lat="45.9613" lon="6.6077">
        <ele>1007.4</ele>
        <time>2026-02-02T16:16:10Z</time>
      </trkpt>
      <trkpt lat="45.9613" lon="6.6077">
        <ele>1007.4</ele>
        <time>2026-02-02T16:16:11Z</time>
      </trkpt>
      <trkpt lat="45.9613" lon="6.60771">
        <ele>1007.4</ele>
        <time>2026-02-02T16:16:12Z</time>
      </trkpt>
      <trkpt lat="45.9613" lon="6.60771">
        <ele>1007.4</ele>
        <time>2026-02-02T16:16:13Z</time>
      </trkpt>
      <trkpt lat="45.9613" lon="6.60771">
        <ele>1007.5</ele>
        <time>2026-02-02T16:16:14Z</time>
      </trkpt>
      <trkpt lat="45.9613" lon="6.60771">
        <ele>1007.5</ele>
        <time>2026-02-02T16:16:15Z</time>
      </trkpt>
      <trkpt lat="45.9613" lon="6.60771">
        <ele>1007.5</ele>
        <time>2026-02-02T16:16:16Z</time>
      </trkpt>
      <trkpt lat="45.9613" lon="6.60771">
        <ele>1007.6</ele>
        <time>2026-02-02T16:16:17Z</time>
      </trkpt>
      <trkpt lat="45.9613" lon="6.60769">
        <ele>1007.6</ele>
        <time>2026-02-02T16:16:18Z</time>
      </trkpt>
      <trkpt lat="45.9613" lon="6.60769">
        <ele>1007.6</ele>
        <time>2026-02-02T16:16:19Z</time>
      </trkpt>
      <trkpt lat="45.96128" lon="6.60771">
        <ele>1007.6</ele>
        <time>2026-02-02T16:16:20Z</time>
      </trkpt>
      <trkpt lat="45.96129" lon="6.60773">
        <ele>1006.1</ele>
        <time>2026-02-02T16:16:21Z</time>
      </trkpt>
      <trkpt lat="45.96129" lon="6.60775">
        <ele>1006.1</ele>
        <time>2026-02-02T16:16:22Z</time>
      </trkpt>
      <trkpt lat="45.96129" lon="6.60776">
        <ele>1004.7</ele>
        <time>2026-02-02T16:16:23Z</time>
      </trkpt>
      <trkpt lat="45.9613" lon="6.6078">
        <ele>1004.7</ele>
        <time>2026-02-02T16:16:24Z</time>
      </trkpt>
      <trkpt lat="45.96132" lon="6.60782">
        <ele>1003.2</ele>
        <time>2026-02-02T16:16:25Z</time>
      </trkpt>
      <trkpt lat="45.96133" lon="6.60783">
        <ele>1003.3</ele>
        <time>2026-02-02T16:16:26Z</time>
      </trkpt>
      <trkpt lat="45.96134" lon="6.60783">
        <ele>1003.4</ele>
        <time>2026-02-02T16:16:27Z</time>
      </trkpt>
      <trkpt lat="45.96135" lon="6.60784">
        <ele>1003.4</ele>
        <time>2026-02-02T16:16:28Z</time>
      </trkpt>
      <trkpt lat="45.96136" lon="6.60784">
        <ele>1003.5</ele>
        <time>2026-02-02T16:16:29Z</time>
      </trkpt>
      <trkpt lat="45.96138" lon="6.60785">
        <ele>1002.1</ele>
        <time>2026-02-02T16:16:30Z</time>
      </trkpt>
      <trkpt lat="45.96137" lon="6.60787">
        <ele>1001.9</ele>
        <time>2026-02-02T16:16:31Z</time>
      </trkpt>
      <trkpt lat="45.96136" lon="6.60787">
        <ele>1001.8</ele>
        <time>2026-02-02T16:16:32Z</time>
      </trkpt>
      <trkpt lat="45.96134" lon="6.60788">
        <ele>1001.6</ele>
        <time>2026-02-02T16:16:33Z</time>
      </trkpt>
      <trkpt lat="45.96131" lon="6.6079">
        <ele>1001.1</ele>
        <time>2026-02-02T16:16:34Z</time>
      </trkpt>
      <trkpt lat="45.96129" lon="6.6079">
        <ele>1000.9</ele>
        <time>2026-02-02T16:16:35Z</time>
      </trkpt>
      <trkpt lat="45.96126" lon="6.60792">
        <ele>1000.4</ele>
        <time>2026-02-02T16:16:36Z</time>
      </trkpt>
      <trkpt lat="45.96122" lon="6.60793">
        <ele>999.9</ele>
        <time>2026-02-02T16:16:37Z</time>
      </trkpt>
      <trkpt lat="45.96119" lon="6.60793">
        <ele>999.4</ele>
        <time>2026-02-02T16:16:38Z</time>
      </trkpt>
      <trkpt lat="45.96116" lon="6.60791">
        <ele>999</ele>
        <time>2026-02-02T16:16:39Z</time>
      </trkpt>
      <trkpt lat="45.96114" lon="6.60789">
        <ele>998.8</ele>
        <time>2026-02-02T16:16:40Z</time>
      </trkpt>
      <trkpt lat="45.96113" lon="6.60789">
        <ele>998.7</ele>
        <time>2026-02-02T16:16:41Z</time>
      </trkpt>
      <trkpt lat="45.96113" lon="6.60789">
        <ele>998.7</ele>
        <time>2026-02-02T16:16:42Z</time>
      </trkpt>
      <trkpt lat="45.96113" lon="6.60789">
        <ele>998.6</ele>
        <time>2026-02-02T16:16:43Z</time>
      </trkpt>
      <trkpt lat="45.96113" lon="6.60789">
        <ele>998.6</ele>
        <time>2026-02-02T16:16:44Z</time>
      </trkpt>
      <trkpt lat="45.96113" lon="6.60789">
        <ele>998.6</ele>
        <time>2026-02-02T16:16:45Z</time>
      </trkpt>
      <trkpt lat="45.96113" lon="6.60789">
        <ele>998.6</ele>
        <time>2026-02-02T16:16:46Z</time>
      </trkpt>
      <trkpt lat="45.96113" lon="6.60787">
        <ele>998.5</ele>
        <time>2026-02-02T16:16:47Z</time>
      </trkpt>
      <trkpt lat="45.96113" lon="6.60787">
        <ele>998.5</ele>
        <time>2026-02-02T16:16:48Z</time>
      </trkpt>
      <trkpt lat="45.96113" lon="6.60787">
        <ele>998.5</ele>
        <time>2026-02-02T16:16:49Z</time>
      </trkpt>
      <trkpt lat="45.96113" lon="6.60787">
        <ele>998.5</ele>
        <time>2026-02-02T16:16:50Z</time>
      </trkpt>
      <trkpt lat="45.96113" lon="6.60787">
        <ele>998.5</ele>
        <time>2026-02-02T16:16:51Z</time>
      </trkpt>
      <trkpt lat="45.96113" lon="6.60787">
        <ele>998.5</ele>
        <time>2026-02-02T16:16:52Z</time>
      </trkpt>
      <trkpt lat="45.96114" lon="6.60787">
        <ele>998.4</ele>
        <time>2026-02-02T16:16:53Z</time>
      </trkpt>
      <trkpt lat="45.96114" lon="6.60788">
        <ele>998.4</ele>
        <time>2026-02-02T16:16:54Z</time>
      </trkpt>
      <trkpt lat="45.96113" lon="6.60787">
        <ele>998.3</ele>
        <time>2026-02-02T16:16:55Z</time>
      </trkpt>
      <trkpt lat="45.96113" lon="6.60786">
        <ele>998.2</ele>
        <time>2026-02-02T16:16:56Z</time>
      </trkpt>
      <trkpt lat="45.96113" lon="6.60785">
        <ele>998.1</ele>
        <time>2026-02-02T16:16:57Z</time>
      </trkpt>
      <trkpt lat="45.96114" lon="6.60784">
        <ele>998.1</ele>
        <time>2026-02-02T16:16:58Z</time>
      </trkpt>
      <trkpt lat="45.96114" lon="6.60784">
        <ele>998.1</ele>
        <time>2026-02-02T16:16:59Z</time>
      </trkpt>
      <trkpt lat="45.96114" lon="6.60784">
        <ele>998.1</ele>
        <time>2026-02-02T16:17:00Z</time>
      </trkpt>
      <trkpt lat="45.96114" lon="6.60784">
        <ele>998.1</ele>
        <time>2026-02-02T16:17:01Z</time>
      </trkpt>
      <trkpt lat="45.96115" lon="6.60783">
        <ele>998</ele>
        <time>2026-02-02T16:17:02Z</time>
      </trkpt>
      <trkpt lat="45.96115" lon="6.60782">
        <ele>997.9</ele>
        <time>2026-02-02T16:17:03Z</time>
      </trkpt>
      <trkpt lat="45.96115" lon="6.60781">
        <ele>997.9</ele>
        <time>2026-02-02T16:17:04Z</time>
      </trkpt>
      <trkpt lat="45.96116" lon="6.60781">
        <ele>997.9</ele>
        <time>2026-02-02T16:17:05Z</time>
      </trkpt>
      <trkpt lat="45.96115" lon="6.60781">
        <ele>997.9</ele>
        <time>2026-02-02T16:17:06Z</time>
      </trkpt>
      <trkpt lat="45.96115" lon="6.60781">
        <ele>997.9</ele>
        <time>2026-02-02T16:17:07Z</time>
      </trkpt>
      <trkpt lat="45.96115" lon="6.6078">
        <ele>997.8</ele>
        <time>2026-02-02T16:17:08Z</time>
      </trkpt>
      <trkpt lat="45.96115" lon="6.6078">
        <ele>997.8</ele>
        <time>2026-02-02T16:17:09Z</time>
      </trkpt>
      <trkpt lat="45.96115" lon="6.60779">
        <ele>997.8</ele>
        <time>2026-02-02T16:17:10Z</time>
      </trkpt>
      <trkpt lat="45.96115" lon="6.60779">
        <ele>997.8</ele>
        <time>2026-02-02T16:17:11Z</time>
      </trkpt>
      <trkpt lat="45.96115" lon="6.60779">
        <ele>997.8</ele>
        <time>2026-02-02T16:17:12Z</time>
      </trkpt>
      <trkpt lat="45.96114" lon="6.60779">
        <ele>997.7</ele>
        <time>2026-02-02T16:17:13Z</time>
      </trkpt>
      <trkpt lat="45.96112" lon="6.60779">
        <ele>997.6</ele>
        <time>2026-02-02T16:17:14Z</time>
      </trkpt>
      <trkpt lat="45.96111" lon="6.60778">
        <ele>997.6</ele>
        <time>2026-02-02T16:17:15Z</time>
      </trkpt>
      <trkpt lat="45.96109" lon="6.60777">
        <ele>997.5</ele>
        <time>2026-02-02T16:17:16Z</time>
      </trkpt>
      <trkpt lat="45.96108" lon="6.60777">
        <ele>997.5</ele>
        <time>2026-02-02T16:17:17Z</time>
      </trkpt>
      <trkpt lat="45.96107" lon="6.60775">
        <ele>997.4</ele>
        <time>2026-02-02T16:17:18Z</time>
      </trkpt>
      <trkpt lat="45.96105" lon="6.60775">
        <ele>997.4</ele>
        <time>2026-02-02T16:17:19Z</time>
      </trkpt>
      <trkpt lat="45.96104" lon="6.60775">
        <ele>997.4</ele>
        <time>2026-02-02T16:17:20Z</time>
      </trkpt>
      <trkpt lat="45.96102" lon="6.60776">
        <ele>997.4</ele>
        <time>2026-02-02T16:17:21Z</time>
      </trkpt>
      <trkpt lat="45.96101" lon="6.60777">
        <ele>997.4</ele>
        <time>2026-02-02T16:17:22Z</time>
      </trkpt>
      <trkpt lat="45.96099" lon="6.60778">
        <ele>997.4</ele>
        <time>2026-02-02T16:17:23Z</time>
      </trkpt>
      <trkpt lat="45.96098" lon="6.60779">
        <ele>997.4</ele>
        <time>2026-02-02T16:17:24Z</time>
      </trkpt>
      <trkpt lat="45.96098" lon="6.6078">
        <ele>997.4</ele>
        <time>2026-02-02T16:17:25Z</time>
      </trkpt>
      <trkpt lat="45.96096" lon="6.60781">
        <ele>997.4</ele>
        <time>2026-02-02T16:17:26Z</time>
      </trkpt>
      <trkpt lat="45.96095" lon="6.60782">
        <ele>997.4</ele>
        <time>2026-02-02T16:17:27Z</time>
      </trkpt>
      <trkpt lat="45.96095" lon="6.60783">
        <ele>997.4</ele>
        <time>2026-02-02T16:17:28Z</time>
      </trkpt>
      <trkpt lat="45.96093" lon="6.60784">
        <ele>997.5</ele>
        <time>2026-02-02T16:17:29Z</time>
      </trkpt>
      <trkpt lat="45.96092" lon="6.60785">
        <ele>997.5</ele>
        <time>2026-02-02T16:17:30Z</time>
      </trkpt>
      <trkpt lat="45.96091" lon="6.60785">
        <ele>997.6</ele>
        <time>2026-02-02T16:17:31Z</time>
      </trkpt>
      <trkpt lat="45.9609" lon="6.60786">
        <ele>997.6</ele>
        <time>2026-02-02T16:17:32Z</time>
      </trkpt>
      <trkpt lat="45.96088" lon="6.60787">
        <ele>997.7</ele>
        <time>2026-02-02T16:17:33Z</time>
      </trkpt>
      <trkpt lat="45.96087" lon="6.60788">
        <ele>997.8</ele>
        <time>2026-02-02T16:17:34Z</time>
      </trkpt>
      <trkpt lat="45.96085" lon="6.60788">
        <ele>997.8</ele>
        <time>2026-02-02T16:17:35Z</time>
      </trkpt>
      <trkpt lat="45.96084" lon="6.60789">
        <ele>997.9</ele>
        <time>2026-02-02T16:17:36Z</time>
      </trkpt>
      <trkpt lat="45.96082" lon="6.60789">
        <ele>998</ele>
        <time>2026-02-02T16:17:37Z</time>
      </trkpt>
      <trkpt lat="45.96081" lon="6.6079">
        <ele>998.1</ele>
        <time>2026-02-02T16:17:38Z</time>
      </trkpt>
      <trkpt lat="45.9608" lon="6.6079">
        <ele>998.2</ele>
        <time>2026-02-02T16:17:39Z</time>
      </trkpt>
      <trkpt lat="45.96078" lon="6.6079">
        <ele>998.3</ele>
        <time>2026-02-02T16:17:40Z</time>
      </trkpt>
      <trkpt lat="45.96077" lon="6.60791">
        <ele>998.4</ele>
        <time>2026-02-02T16:17:41Z</time>
      </trkpt>
      <trkpt lat="45.96075" lon="6.60792">
        <ele>998.6</ele>
        <time>2026-02-02T16:17:42Z</time>
      </trkpt>
      <trkpt lat="45.96074" lon="6.60793">
        <ele>998.6</ele>
        <time>2026-02-02T16:17:43Z</time>
      </trkpt>
      <trkpt lat="45.96073" lon="6.60793">
        <ele>998.7</ele>
        <time>2026-02-02T16:17:44Z</time>
      </trkpt>
      <trkpt lat="45.96072" lon="6.60794">
        <ele>998.8</ele>
        <time>2026-02-02T16:17:45Z</time>
      </trkpt>
      <trkpt lat="45.9607" lon="6.60795">
        <ele>998.9</ele>
        <time>2026-02-02T16:17:46Z</time>
      </trkpt>
      <trkpt lat="45.96069" lon="6.60797">
        <ele>999.1</ele>
        <time>2026-02-02T16:17:47Z</time>
      </trkpt>
      <trkpt lat="45.96068" lon="6.60797">
        <ele>999.1</ele>
        <time>2026-02-02T16:17:48Z</time>
      </trkpt>
      <trkpt lat="45.96067" lon="6.60798">
        <ele>999.2</ele>
        <time>2026-02-02T16:17:49Z</time>
      </trkpt>
      <trkpt lat="45.96066" lon="6.60799">
        <ele>999.3</ele>
        <time>2026-02-02T16:17:50Z</time>
      </trkpt>
      <trkpt lat="45.96065" lon="6.60799">
        <ele>999.3</ele>
        <time>2026-02-02T16:17:51Z</time>
      </trkpt>
      <trkpt lat="45.96064" lon="6.60799">
        <ele>999.4</ele>
        <time>2026-02-02T16:17:52Z</time>
      </trkpt>
      <trkpt lat="45.96063" lon="6.608">
        <ele>999.5</ele>
        <time>2026-02-02T16:17:53Z</time>
      </trkpt>
      <trkpt lat="45.96062" lon="6.608">
        <ele>999.5</ele>
        <time>2026-02-02T16:17:54Z</time>
      </trkpt>
      <trkpt lat="45.96061" lon="6.608">
        <ele>999.6</ele>
        <time>2026-02-02T16:17:55Z</time>
      </trkpt>
      <trkpt lat="45.96061" lon="6.608">
        <ele>999.6</ele>
        <time>2026-02-02T16:17:56Z</time>
      </trkpt>
      <trkpt lat="45.9606" lon="6.608">
        <ele>999.6</ele>
        <time>2026-02-02T16:17:57Z</time>
      </trkpt>
      <trkpt lat="45.96059" lon="6.60801">
        <ele>999.7</ele>
        <time>2026-02-02T16:17:58Z</time>
      </trkpt>
      <trkpt lat="45.96058" lon="6.60801">
        <ele>999.7</ele>
        <time>2026-02-02T16:17:59Z</time>
      </trkpt>
      <trkpt lat="45.96057" lon="6.60801">
        <ele>999.8</ele>
        <time>2026-02-02T16:18:00Z</time>
      </trkpt>
      <trkpt lat="45.96056" lon="6.60802">
        <ele>999.8</ele>
        <time>2026-02-02T16:18:01Z</time>
      </trkpt>
      <trkpt lat="45.96055" lon="6.60802">
        <ele>999.8</ele>
        <time>2026-02-02T16:18:02Z</time>
      </trkpt>
      <trkpt lat="45.96053" lon="6.60803">
        <ele>999.9</ele>
        <time>2026-02-02T16:18:03Z</time>
      </trkpt>
      <trkpt lat="45.96052" lon="6.60804">
        <ele>999.9</ele>
        <time>2026-02-02T16:18:04Z</time>
      </trkpt>
      <trkpt lat="45.96052" lon="6.60805">
        <ele>999.9</ele>
        <time>2026-02-02T16:18:05Z</time>
      </trkpt>
      <trkpt lat="45.9605" lon="6.60805">
        <ele>999.9</ele>
        <time>2026-02-02T16:18:06Z</time>
      </trkpt>
      <trkpt lat="45.96049" lon="6.60806">
        <ele>999.9</ele>
        <time>2026-02-02T16:18:07Z</time>
      </trkpt>
      <trkpt lat="45.96048" lon="6.60807">
        <ele>1000</ele>
        <time>2026-02-02T16:18:08Z</time>
      </trkpt>
      <trkpt lat="45.96048" lon="6.60808">
        <ele>1000</ele>
        <time>2026-02-02T16:18:09Z</time>
      </trkpt>
      <trkpt lat="45.96047" lon="6.6081">
        <ele>999.9</ele>
        <time>2026-02-02T16:18:10Z</time>
      </trkpt>
      <trkpt lat="45.96046" lon="6.60811">
        <ele>999.9</ele>
        <time>2026-02-02T16:18:11Z</time>
      </trkpt>
      <trkpt lat="45.96046" lon="6.60812">
        <ele>999.9</ele>
        <time>2026-02-02T16:18:12Z</time>
      </trkpt>
      <trkpt lat="45.96045" lon="6.60813">
        <ele>999.9</ele>
        <time>2026-02-02T16:18:13Z</time>
      </trkpt>
      <trkpt lat="45.96044" lon="6.60814">
        <ele>999.9</ele>
        <time>2026-02-02T16:18:14Z</time>
      </trkpt>
      <trkpt lat="45.96043" lon="6.60815">
        <ele>999.9</ele>
        <time>2026-02-02T16:18:15Z</time>
      </trkpt>
      <trkpt lat="45.96042" lon="6.60817">
        <ele>999.8</ele>
        <time>2026-02-02T16:18:16Z</time>
      </trkpt>
      <trkpt lat="45.96042" lon="6.60818">
        <ele>999.8</ele>
        <time>2026-02-02T16:18:17Z</time>
      </trkpt>
      <trkpt lat="45.96041" lon="6.60819">
        <ele>999.8</ele>
        <time>2026-02-02T16:18:18Z</time>
      </trkpt>
      <trkpt lat="45.9604" lon="6.6082">
        <ele>999.7</ele>
        <time>2026-02-02T16:18:19Z</time>
      </trkpt>
      <trkpt lat="45.96039" lon="6.60821">
        <ele>999.7</ele>
        <time>2026-02-02T16:18:20Z</time>
      </trkpt>
      <trkpt lat="45.96038" lon="6.60822">
        <ele>999.7</ele>
        <time>2026-02-02T16:18:21Z</time>
      </trkpt>
      <trkpt lat="45.96038" lon="6.60822">
        <ele>999.6</ele>
        <time>2026-02-02T16:18:22Z</time>
      </trkpt>
      <trkpt lat="45.96038" lon="6.60823">
        <ele>999.6</ele>
        <time>2026-02-02T16:18:23Z</time>
      </trkpt>
      <trkpt lat="45.96038" lon="6.60823">
        <ele>999.6</ele>
        <time>2026-02-02T16:18:24Z</time>
      </trkpt>
      <trkpt lat="45.96038" lon="6.60823">
        <ele>999.6</ele>
        <time>2026-02-02T16:18:25Z</time>
      </trkpt>
      <trkpt lat="45.96038" lon="6.60823">
        <ele>999.6</ele>
        <time>2026-02-02T16:18:26Z</time>
      </trkpt>
      <trkpt lat="45.96038" lon="6.60823">
        <ele>999.6</ele>
        <time>2026-02-02T16:18:27Z</time>
      </trkpt>
      <trkpt lat="45.96038" lon="6.60823">
        <ele>999.6</ele>
        <time>2026-02-02T16:18:28Z</time>
      </trkpt>
      <trkpt lat="45.96038" lon="6.60823">
        <ele>999.6</ele>
        <time>2026-02-02T16:18:29Z</time>
      </trkpt>
      <trkpt lat="45.96038" lon="6.60823">
        <ele>999.6</ele>
        <time>2026-02-02T16:18:30Z</time>
      </trkpt>
      <trkpt lat="45.96038" lon="6.60823">
        <ele>999.6</ele>
        <time>2026-02-02T16:18:31Z</time>
      </trkpt>
      <trkpt lat="45.96039" lon="6.60824">
        <ele>999.5</ele>
        <time>2026-02-02T16:18:32Z</time>
      </trkpt>
      <trkpt lat="45.96039" lon="6.60824">
        <ele>999.5</ele>
        <time>2026-02-02T16:18:33Z</time>
      </trkpt>
      <trkpt lat="45.96039" lon="6.60824">
        <ele>999.5</ele>
        <time>2026-02-02T16:18:34Z</time>
      </trkpt>
      <trkpt lat="45.96039" lon="6.60824">
        <ele>999.5</ele>
        <time>2026-02-02T16:18:35Z</time>
      </trkpt>
      <trkpt lat="45.96039" lon="6.60824">
        <ele>999.5</ele>
        <time>2026-02-02T16:18:36Z</time>
      </trkpt>
      <trkpt lat="45.96039" lon="6.60824">
        <ele>999.5</ele>
        <time>2026-02-02T16:18:37Z</time>
      </trkpt>
      <trkpt lat="45.96039" lon="6.60824">
        <ele>999.5</ele>
        <time>2026-02-02T16:18:38Z</time>
      </trkpt>
      <trkpt lat="45.96039" lon="6.60824">
        <ele>999.5</ele>
        <time>2026-02-02T16:18:39Z</time>
      </trkpt>
      <trkpt lat="45.96039" lon="6.60824">
        <ele>999.5</ele>
        <time>2026-02-02T16:18:40Z</time>
      </trkpt>
      <trkpt lat="45.96039" lon="6.60824">
        <ele>999.5</ele>
        <time>2026-02-02T16:18:41Z</time>
      </trkpt>
      <trkpt lat="45.96039" lon="6.60824">
        <ele>999.5</ele>
        <time>2026-02-02T16:18:42Z</time>
      </trkpt>
      <trkpt lat="45.96039" lon="6.60824">
        <ele>999.5</ele>
        <time>2026-02-02T16:18:43Z</time>
      </trkpt>
      <trkpt lat="45.96039" lon="6.60824">
        <ele>999.5</ele>
        <time>2026-02-02T16:18:44Z</time>
      </trkpt>
      <trkpt lat="45.96038" lon="6.60824">
        <ele>999.5</ele>
        <time>2026-02-02T16:18:45Z</time>
      </trkpt>
      <trkpt lat="45.96038" lon="6.60824">
        <ele>999.5</ele>
        <time>2026-02-02T16:18:46Z</time>
      </trkpt>
      <trkpt lat="45.96038" lon="6.60824">
        <ele>999.5</ele>
        <time>2026-02-02T16:18:47Z</time>
      </trkpt>
      <trkpt lat="45.96038" lon="6.60824">
        <ele>999.5</ele>
        <time>2026-02-02T16:18:48Z</time>
      </trkpt>
      <trkpt lat="45.96038" lon="6.60824">
        <ele>999.5</ele>
        <time>2026-02-02T16:18:49Z</time>
      </trkpt>
      <trkpt lat="45.96038" lon="6.60824">
        <ele>999.5</ele>
        <time>2026-02-02T16:18:50Z</time>
      </trkpt>
      <trkpt lat="45.96038" lon="6.60823">
        <ele>999.4</ele>
        <time>2026-02-02T16:18:51Z</time>
      </trkpt>
      <trkpt lat="45.96038" lon="6.60823">
        <ele>999.4</ele>
        <time>2026-02-02T16:18:52Z</time>
      </trkpt>
      <trkpt lat="45.96038" lon="6.60823">
        <ele>999.4</ele>
        <time>2026-02-02T16:18:53Z</time>
      </trkpt>
      <trkpt lat="45.96038" lon="6.60823">
        <ele>999.4</ele>
        <time>2026-02-02T16:18:54Z</time>
      </trkpt>
      <trkpt lat="45.96038" lon="6.60823">
        <ele>999.4</ele>
        <time>2026-02-02T16:18:55Z</time>
      </trkpt>
      <trkpt lat="45.96037" lon="6.60825">
        <ele>999.3</ele>
        <time>2026-02-02T16:18:56Z</time>
      </trkpt>
      <trkpt lat="45.96037" lon="6.60827">
        <ele>999.2</ele>
        <time>2026-02-02T16:18:57Z</time>
      </trkpt>
      <trkpt lat="45.96033" lon="6.60835">
        <ele>998.9</ele>
        <time>2026-02-02T16:18:58Z</time>
      </trkpt>
      <trkpt lat="45.96031" lon="6.60838">
        <ele>998.7</ele>
        <time>2026-02-02T16:18:59Z</time>
      </trkpt>
      <trkpt lat="45.96029" lon="6.60841">
        <ele>998.5</ele>
        <time>2026-02-02T16:19:00Z</time>
      </trkpt>
      <trkpt lat="45.96027" lon="6.60843">
        <ele>998.4</ele>
        <time>2026-02-02T16:19:01Z</time>
      </trkpt>
      <trkpt lat="45.96024" lon="6.60845">
        <ele>998.2</ele>
        <time>2026-02-02T16:19:02Z</time>
      </trkpt>
      <trkpt lat="45.96023" lon="6.60845">
        <ele>998.1</ele>
        <time>2026-02-02T16:19:03Z</time>
      </trkpt>
      <trkpt lat="45.9602" lon="6.60849">
        <ele>997.9</ele>
        <time>2026-02-02T16:19:04Z</time>
      </trkpt>
      <trkpt lat="45.96019" lon="6.6085">
        <ele>997.8</ele>
        <time>2026-02-02T16:19:05Z</time>
      </trkpt>
      <trkpt lat="45.96017" lon="6.60854">
        <ele>997.6</ele>
        <time>2026-02-02T16:19:06Z</time>
      </trkpt>
      <trkpt lat="45.96016" lon="6.60855">
        <ele>997.6</ele>
        <time>2026-02-02T16:19:07Z</time>
      </trkpt>
      <trkpt lat="45.96014" lon="6.60858">
        <ele>997.4</ele>
        <time>2026-02-02T16:19:08Z</time>
      </trkpt>
      <trkpt lat="45.96013" lon="6.6086">
        <ele>997.3</ele>
        <time>2026-02-02T16:19:09Z</time>
      </trkpt>
      <trkpt lat="45.96011" lon="6.60862">
        <ele>997.1</ele>
        <time>2026-02-02T16:19:10Z</time>
      </trkpt>
      <trkpt lat="45.96007" lon="6.60863">
        <ele>996.9</ele>
        <time>2026-02-02T16:19:11Z</time>
      </trkpt>
      <trkpt lat="45.96006" lon="6.60863">
        <ele>996.8</ele>
        <time>2026-02-02T16:19:12Z</time>
      </trkpt>
      <trkpt lat="45.96003" lon="6.60865">
        <ele>996.6</ele>
        <time>2026-02-02T16:19:13Z</time>
      </trkpt>
      <trkpt lat="45.96003" lon="6.60866">
        <ele>996.6</ele>
        <time>2026-02-02T16:19:14Z</time>
      </trkpt>
      <trkpt lat="45.96" lon="6.60869">
        <ele>996.4</ele>
        <time>2026-02-02T16:19:15Z</time>
      </trkpt>
      <trkpt lat="45.95999" lon="6.6087">
        <ele>996.3</ele>
        <time>2026-02-02T16:19:16Z</time>
      </trkpt>
      <trkpt lat="45.95996" lon="6.60874">
        <ele>996</ele>
        <time>2026-02-02T16:19:17Z</time>
      </trkpt>
      <trkpt lat="45.95993" lon="6.60878">
        <ele>995.8</ele>
        <time>2026-02-02T16:19:18Z</time>
      </trkpt>
      <trkpt lat="45.95992" lon="6.60881">
        <ele>995.6</ele>
        <time>2026-02-02T16:19:19Z</time>
      </trkpt>
      <trkpt lat="45.9599" lon="6.60885">
        <ele>995.3</ele>
        <time>2026-02-02T16:19:20Z</time>
      </trkpt>
      <trkpt lat="45.95988" lon="6.60888">
        <ele>995.1</ele>
        <time>2026-02-02T16:19:21Z</time>
      </trkpt>
      <trkpt lat="45.95986" lon="6.60891">
        <ele>994.9</ele>
        <time>2026-02-02T16:19:22Z</time>
      </trkpt>
      <trkpt lat="45.95983" lon="6.60895">
        <ele>994.5</ele>
        <time>2026-02-02T16:19:23Z</time>
      </trkpt>
      <trkpt lat="45.95982" lon="6.60897">
        <ele>994.4</ele>
        <time>2026-02-02T16:19:24Z</time>
      </trkpt>
      <trkpt lat="45.95979" lon="6.60899">
        <ele>994.8</ele>
        <time>2026-02-02T16:19:25Z</time>
      </trkpt>
      <trkpt lat="45.95978" lon="6.609">
        <ele>994.7</ele>
        <time>2026-02-02T16:19:26Z</time>
      </trkpt>
      <trkpt lat="45.95976" lon="6.60902">
        <ele>993.9</ele>
        <time>2026-02-02T16:19:27Z</time>
      </trkpt>
      <trkpt lat="45.95973" lon="6.60906">
        <ele>993.1</ele>
        <time>2026-02-02T16:19:28Z</time>
      </trkpt>
      <trkpt lat="45.95972" lon="6.60907">
        <ele>993</ele>
        <time>2026-02-02T16:19:29Z</time>
      </trkpt>
      <trkpt lat="45.95969" lon="6.60911">
        <ele>992.1</ele>
        <time>2026-02-02T16:19:30Z</time>
      </trkpt>
      <trkpt lat="45.95968" lon="6.60912">
        <ele>992.6</ele>
        <time>2026-02-02T16:19:31Z</time>
      </trkpt>
      <trkpt lat="45.95966" lon="6.60915">
        <ele>991.2</ele>
        <time>2026-02-02T16:19:32Z</time>
      </trkpt>
      <trkpt lat="45.95962" lon="6.60918">
        <ele>990.4</ele>
        <time>2026-02-02T16:19:33Z</time>
      </trkpt>
      <trkpt lat="45.95959" lon="6.60922">
        <ele>991.3</ele>
        <time>2026-02-02T16:19:34Z</time>
      </trkpt>
      <trkpt lat="45.95956" lon="6.60926">
        <ele>990.6</ele>
        <time>2026-02-02T16:19:35Z</time>
      </trkpt>
      <trkpt lat="45.95954" lon="6.60929">
        <ele>989.4</ele>
        <time>2026-02-02T16:19:36Z</time>
      </trkpt>
      <trkpt lat="45.95952" lon="6.60934">
        <ele>988.9</ele>
        <time>2026-02-02T16:19:37Z</time>
      </trkpt>
      <trkpt lat="45.95951" lon="6.60935">
        <ele>987.8</ele>
        <time>2026-02-02T16:19:38Z</time>
      </trkpt>
      <trkpt lat="45.95949" lon="6.60938">
        <ele>988.3</ele>
        <time>2026-02-02T16:19:39Z</time>
      </trkpt>
      <trkpt lat="45.95948" lon="6.60939">
        <ele>988.2</ele>
        <time>2026-02-02T16:19:40Z</time>
      </trkpt>
      <trkpt lat="45.95946" lon="6.60942">
        <ele>987.6</ele>
        <time>2026-02-02T16:19:41Z</time>
      </trkpt>
      <trkpt lat="45.95945" lon="6.60943">
        <ele>987.5</ele>
        <time>2026-02-02T16:19:42Z</time>
      </trkpt>
      <trkpt lat="45.95943" lon="6.60944">
        <ele>986.9</ele>
        <time>2026-02-02T16:19:43Z</time>
      </trkpt>
      <trkpt lat="45.95941" lon="6.60944">
        <ele>987.3</ele>
        <time>2026-02-02T16:19:44Z</time>
      </trkpt>
      <trkpt lat="45.9594" lon="6.60944">
        <ele>987.2</ele>
        <time>2026-02-02T16:19:45Z</time>
      </trkpt>
      <trkpt lat="45.95939" lon="6.60944">
        <ele>987.1</ele>
        <time>2026-02-02T16:19:46Z</time>
      </trkpt>
      <trkpt lat="45.95939" lon="6.60944">
        <ele>987.1</ele>
        <time>2026-02-02T16:19:47Z</time>
      </trkpt>
      <trkpt lat="45.95938" lon="6.60944">
        <ele>987.4</ele>
        <time>2026-02-02T16:19:48Z</time>
      </trkpt>
      <trkpt lat="45.95937" lon="6.60944">
        <ele>987.4</ele>
        <time>2026-02-02T16:19:49Z</time>
      </trkpt>
      <trkpt lat="45.95936" lon="6.60944">
        <ele>987.3</ele>
        <time>2026-02-02T16:19:50Z</time>
      </trkpt>
      <trkpt lat="45.95936" lon="6.60943">
        <ele>988.4</ele>
        <time>2026-02-02T16:19:51Z</time>
      </trkpt>
      <trkpt lat="45.95935" lon="6.60943">
        <ele>988.8</ele>
        <time>2026-02-02T16:19:52Z</time>
      </trkpt>
      <trkpt lat="45.95935" lon="6.60943">
        <ele>988.7</ele>
        <time>2026-02-02T16:19:53Z</time>
      </trkpt>
      <trkpt lat="45.95934" lon="6.60944">
        <ele>988.6</ele>
        <time>2026-02-02T16:19:54Z</time>
      </trkpt>
      <trkpt lat="45.95934" lon="6.60944">
        <ele>987.4</ele>
        <time>2026-02-02T16:19:55Z</time>
      </trkpt>
      <trkpt lat="45.95933" lon="6.60945">
        <ele>987.3</ele>
        <time>2026-02-02T16:19:56Z</time>
      </trkpt>
      <trkpt lat="45.95933" lon="6.60946">
        <ele>987.2</ele>
        <time>2026-02-02T16:19:57Z</time>
      </trkpt>
      <trkpt lat="45.95932" lon="6.60946">
        <ele>987.6</ele>
        <time>2026-02-02T16:19:58Z</time>
      </trkpt>
      <trkpt lat="45.95932" lon="6.60947">
        <ele>987.5</ele>
        <time>2026-02-02T16:19:59Z</time>
      </trkpt>
      <trkpt lat="45.95931" lon="6.60948">
        <ele>986.2</ele>
        <time>2026-02-02T16:20:00Z</time>
      </trkpt>
      <trkpt lat="45.95931" lon="6.60949">
        <ele>986.2</ele>
        <time>2026-02-02T16:20:01Z</time>
      </trkpt>
      <trkpt lat="45.9593" lon="6.6095">
        <ele>986.1</ele>
        <time>2026-02-02T16:20:02Z</time>
      </trkpt>
      <trkpt lat="45.9593" lon="6.60951">
        <ele>986</ele>
        <time>2026-02-02T16:20:03Z</time>
      </trkpt>
      <trkpt lat="45.95929" lon="6.60952">
        <ele>986.3</ele>
        <time>2026-02-02T16:20:04Z</time>
      </trkpt>
      <trkpt lat="45.95928" lon="6.60952">
        <ele>985.1</ele>
        <time>2026-02-02T16:20:05Z</time>
      </trkpt>
      <trkpt lat="45.95928" lon="6.60953">
        <ele>985</ele>
        <time>2026-02-02T16:20:06Z</time>
      </trkpt>
      <trkpt lat="45.95927" lon="6.60955">
        <ele>984.9</ele>
        <time>2026-02-02T16:20:07Z</time>
      </trkpt>
      <trkpt lat="45.95928" lon="6.60956">
        <ele>984.9</ele>
        <time>2026-02-02T16:20:08Z</time>
      </trkpt>
      <trkpt lat="45.95928" lon="6.60958">
        <ele>983.7</ele>
        <time>2026-02-02T16:20:09Z</time>
      </trkpt>
      <trkpt lat="45.95929" lon="6.60961">
        <ele>982.5</ele>
        <time>2026-02-02T16:20:10Z</time>
      </trkpt>
      <trkpt lat="45.9593" lon="6.60965">
        <ele>981</ele>
        <time>2026-02-02T16:20:11Z</time>
      </trkpt>
      <trkpt lat="45.95931" lon="6.6097">
        <ele>979.9</ele>
        <time>2026-02-02T16:20:12Z</time>
      </trkpt>
      <trkpt lat="45.95932" lon="6.60974">
        <ele>978.9</ele>
        <time>2026-02-02T16:20:13Z</time>
      </trkpt>
      <trkpt lat="45.95934" lon="6.60979">
        <ele>977.6</ele>
        <time>2026-02-02T16:20:14Z</time>
      </trkpt>
      <trkpt lat="45.95935" lon="6.60985">
        <ele>976.6</ele>
        <time>2026-02-02T16:20:15Z</time>
      </trkpt>
      <trkpt lat="45.95935" lon="6.6099">
        <ele>975.6</ele>
        <time>2026-02-02T16:20:16Z</time>
      </trkpt>
      <trkpt lat="45.95935" lon="6.60995">
        <ele>974.6</ele>
        <time>2026-02-02T16:20:17Z</time>
      </trkpt>
      <trkpt lat="45.95936" lon="6.60999">
        <ele>973.2</ele>
        <time>2026-02-02T16:20:18Z</time>
      </trkpt>
      <trkpt lat="45.95935" lon="6.61004">
        <ele>971.7</ele>
        <time>2026-02-02T16:20:19Z</time>
      </trkpt>
      <trkpt lat="45.95935" lon="6.61005">
        <ele>971.6</ele>
        <time>2026-02-02T16:20:20Z</time>
      </trkpt>
      <trkpt lat="45.95934" lon="6.61007">
        <ele>971.6</ele>
        <time>2026-02-02T16:20:21Z</time>
      </trkpt>
      <trkpt lat="45.95933" lon="6.61009">
        <ele>970.7</ele>
        <time>2026-02-02T16:20:22Z</time>
      </trkpt>
      <trkpt lat="45.95932" lon="6.6101">
        <ele>971</ele>
        <time>2026-02-02T16:20:23Z</time>
      </trkpt>
      <trkpt lat="45.95932" lon="6.61012">
        <ele>970.9</ele>
        <time>2026-02-02T16:20:24Z</time>
      </trkpt>
      <trkpt lat="45.95932" lon="6.61013">
        <ele>970.1</ele>
        <time>2026-02-02T16:20:25Z</time>
      </trkpt>
      <trkpt lat="45.95932" lon="6.61013">
        <ele>970</ele>
        <time>2026-02-02T16:20:26Z</time>
      </trkpt>
      <trkpt lat="45.95932" lon="6.61014">
        <ele>969.9</ele>
        <time>2026-02-02T16:20:27Z</time>
      </trkpt>
      <trkpt lat="45.95932" lon="6.61014">
        <ele>969.9</ele>
        <time>2026-02-02T16:20:28Z</time>
      </trkpt>
      <trkpt lat="45.95933" lon="6.61015">
        <ele>969.4</ele>
        <time>2026-02-02T16:20:29Z</time>
      </trkpt>
      <trkpt lat="45.95933" lon="6.61015">
        <ele>969.3</ele>
        <time>2026-02-02T16:20:30Z</time>
      </trkpt>
      <trkpt lat="45.95933" lon="6.61015">
        <ele>969.3</ele>
        <time>2026-02-02T16:20:31Z</time>
      </trkpt>
      <trkpt lat="45.95933" lon="6.61015">
        <ele>969.2</ele>
        <time>2026-02-02T16:20:32Z</time>
      </trkpt>
      <trkpt lat="45.95933" lon="6.61015">
        <ele>969.1</ele>
        <time>2026-02-02T16:20:33Z</time>
      </trkpt>
      <trkpt lat="45.95933" lon="6.61015">
        <ele>969.1</ele>
        <time>2026-02-02T16:20:34Z</time>
      </trkpt>
      <trkpt lat="45.95933" lon="6.61015">
        <ele>969</ele>
        <time>2026-02-02T16:20:35Z</time>
      </trkpt>
      <trkpt lat="45.95933" lon="6.61015">
        <ele>968.9</ele>
        <time>2026-02-02T16:20:36Z</time>
      </trkpt>
      <trkpt lat="45.95933" lon="6.61014">
        <ele>968.8</ele>
        <time>2026-02-02T16:20:37Z</time>
      </trkpt>
      <trkpt lat="45.95933" lon="6.61014">
        <ele>968.8</ele>
        <time>2026-02-02T16:20:38Z</time>
      </trkpt>
      <trkpt lat="45.95933" lon="6.61014">
        <ele>968.7</ele>
        <time>2026-02-02T16:20:39Z</time>
      </trkpt>
      <trkpt lat="45.95933" lon="6.61014">
        <ele>968.6</ele>
        <time>2026-02-02T16:20:40Z</time>
      </trkpt>
      <trkpt lat="45.95933" lon="6.61014">
        <ele>968.6</ele>
        <time>2026-02-02T16:20:41Z</time>
      </trkpt>
      <trkpt lat="45.95933" lon="6.61014">
        <ele>968.5</ele>
        <time>2026-02-02T16:20:42Z</time>
      </trkpt>
      <trkpt lat="45.95932" lon="6.61014">
        <ele>968.8</ele>
        <time>2026-02-02T16:20:43Z</time>
      </trkpt>
      <trkpt lat="45.95932" lon="6.61013">
        <ele>968.8</ele>
        <time>2026-02-02T16:20:44Z</time>
      </trkpt>
      <trkpt lat="45.95932" lon="6.61013">
        <ele>968.7</ele>
        <time>2026-02-02T16:20:45Z</time>
      </trkpt>
      <trkpt lat="45.95932" lon="6.61014">
        <ele>968.6</ele>
        <time>2026-02-02T16:20:46Z</time>
      </trkpt>
      <trkpt lat="45.95932" lon="6.61014">
        <ele>968.6</ele>
        <time>2026-02-02T16:20:47Z</time>
      </trkpt>
      <trkpt lat="45.95932" lon="6.61015">
        <ele>968.5</ele>
        <time>2026-02-02T16:20:48Z</time>
      </trkpt>
      <trkpt lat="45.95932" lon="6.61016">
        <ele>968.4</ele>
        <time>2026-02-02T16:20:49Z</time>
      </trkpt>
      <trkpt lat="45.95932" lon="6.61016">
        <ele>968.4</ele>
        <time>2026-02-02T16:20:50Z</time>
      </trkpt>
      <trkpt lat="45.95932" lon="6.61017">
        <ele>967.6</ele>
        <time>2026-02-02T16:20:51Z</time>
      </trkpt>
      <trkpt lat="45.95932" lon="6.61016">
        <ele>968.2</ele>
        <time>2026-02-02T16:20:52Z</time>
      </trkpt>
      <trkpt lat="45.95932" lon="6.61016">
        <ele>968.2</ele>
        <time>2026-02-02T16:20:53Z</time>
      </trkpt>
      <trkpt lat="45.95933" lon="6.61016">
        <ele>967.7</ele>
        <time>2026-02-02T16:20:54Z</time>
      </trkpt>
      <trkpt lat="45.95933" lon="6.61016">
        <ele>967.6</ele>
        <time>2026-02-02T16:20:55Z</time>
      </trkpt>
      <trkpt lat="45.95933" lon="6.61016">
        <ele>967.6</ele>
        <time>2026-02-02T16:20:56Z</time>
      </trkpt>
      <trkpt lat="45.95932" lon="6.61017">
        <ele>967.1</ele>
        <time>2026-02-02T16:20:57Z</time>
      </trkpt>
      <trkpt lat="45.95932" lon="6.61017">
        <ele>967.1</ele>
        <time>2026-02-02T16:20:58Z</time>
      </trkpt>
      <trkpt lat="45.95933" lon="6.61018">
        <ele>966.6</ele>
        <time>2026-02-02T16:20:59Z</time>
      </trkpt>
      <trkpt lat="45.95933" lon="6.61018">
        <ele>966.5</ele>
        <time>2026-02-02T16:21:00Z</time>
      </trkpt>
      <trkpt lat="45.95933" lon="6.61018">
        <ele>966.5</ele>
        <time>2026-02-02T16:21:01Z</time>
      </trkpt>
      <trkpt lat="45.95932" lon="6.61017">
        <ele>966.8</ele>
        <time>2026-02-02T16:21:02Z</time>
      </trkpt>
      <trkpt lat="45.95933" lon="6.61016">
        <ele>967.1</ele>
        <time>2026-02-02T16:21:03Z</time>
      </trkpt>
      <trkpt lat="45.95933" lon="6.61016">
        <ele>967</ele>
        <time>2026-02-02T16:21:04Z</time>
      </trkpt>
      <trkpt lat="45.95933" lon="6.61016">
        <ele>966.9</ele>
        <time>2026-02-02T16:21:05Z</time>
      </trkpt>
      <trkpt lat="45.95933" lon="6.61018">
        <ele>966.1</ele>
        <time>2026-02-02T16:21:06Z</time>
      </trkpt>
      <trkpt lat="45.95933" lon="6.61018">
        <ele>966.1</ele>
        <time>2026-02-02T16:21:07Z</time>
      </trkpt>
      <trkpt lat="45.95934" lon="6.61019">
        <ele>966</ele>
        <time>2026-02-02T16:21:08Z</time>
      </trkpt>
      <trkpt lat="45.95934" lon="6.61021">
        <ele>965.2</ele>
        <time>2026-02-02T16:21:09Z</time>
      </trkpt>
      <trkpt lat="45.95934" lon="6.61023">
        <ele>965.1</ele>
        <time>2026-02-02T16:21:10Z</time>
      </trkpt>
      <trkpt lat="45.95934" lon="6.61025">
        <ele>965.1</ele>
        <time>2026-02-02T16:21:11Z</time>
      </trkpt>
      <trkpt lat="45.95934" lon="6.61027">
        <ele>964.2</ele>
        <time>2026-02-02T16:21:12Z</time>
      </trkpt>
      <trkpt lat="45.95934" lon="6.61028">
        <ele>964.2</ele>
        <time>2026-02-02T16:21:13Z</time>
      </trkpt>
      <trkpt lat="45.95933" lon="6.6103">
        <ele>963.3</ele>
        <time>2026-02-02T16:21:14Z</time>
      </trkpt>
      <trkpt lat="45.95933" lon="6.61032">
        <ele>963.3</ele>
        <time>2026-02-02T16:21:15Z</time>
      </trkpt>
      <trkpt lat="45.95933" lon="6.61033">
        <ele>963.2</ele>
        <time>2026-02-02T16:21:16Z</time>
      </trkpt>
      <trkpt lat="45.95934" lon="6.61034">
        <ele>962.3</ele>
        <time>2026-02-02T16:21:17Z</time>
      </trkpt>
      <trkpt lat="45.95934" lon="6.61036">
        <ele>962.3</ele>
        <time>2026-02-02T16:21:18Z</time>
      </trkpt>
      <trkpt lat="45.95934" lon="6.61037">
        <ele>962.2</ele>
        <time>2026-02-02T16:21:19Z</time>
      </trkpt>
      <trkpt lat="45.95934" lon="6.61037">
        <ele>962.1</ele>
        <time>2026-02-02T16:21:20Z</time>
      </trkpt>
      <trkpt lat="45.95933" lon="6.61037">
        <ele>962.1</ele>
        <time>2026-02-02T16:21:21Z</time>
      </trkpt>
      <trkpt lat="45.95932" lon="6.61037">
        <ele>962.4</ele>
        <time>2026-02-02T16:21:22Z</time>
      </trkpt>
      <trkpt lat="45.95931" lon="6.61036">
        <ele>962.3</ele>
        <time>2026-02-02T16:21:23Z</time>
      </trkpt>
      <trkpt lat="45.95929" lon="6.61035">
        <ele>962.7</ele>
        <time>2026-02-02T16:21:24Z</time>
      </trkpt>
      <trkpt lat="45.95928" lon="6.61035">
        <ele>962.6</ele>
        <time>2026-02-02T16:21:25Z</time>
      </trkpt>
      <trkpt lat="45.95927" lon="6.61034">
        <ele>962.5</ele>
        <time>2026-02-02T16:21:26Z</time>
      </trkpt>
      <trkpt lat="45.95925" lon="6.61034">
        <ele>962.8</ele>
        <time>2026-02-02T16:21:27Z</time>
      </trkpt>
      <trkpt lat="45.95924" lon="6.61034">
        <ele>962.7</ele>
        <time>2026-02-02T16:21:28Z</time>
      </trkpt>
      <trkpt lat="45.95923" lon="6.61034">
        <ele>963</ele>
        <time>2026-02-02T16:21:29Z</time>
      </trkpt>
      <trkpt lat="45.95921" lon="6.61035">
        <ele>962.9</ele>
        <time>2026-02-02T16:21:30Z</time>
      </trkpt>
      <trkpt lat="45.9592" lon="6.61035">
        <ele>963.2</ele>
        <time>2026-02-02T16:21:31Z</time>
      </trkpt>
      <trkpt lat="45.95919" lon="6.61036">
        <ele>963.1</ele>
        <time>2026-02-02T16:21:32Z</time>
      </trkpt>
      <trkpt lat="45.95919" lon="6.61036">
        <ele>963</ele>
        <time>2026-02-02T16:21:33Z</time>
      </trkpt>
      <trkpt lat="45.95918" lon="6.61036">
        <ele>963</ele>
        <time>2026-02-02T16:21:34Z</time>
      </trkpt>
      <trkpt lat="45.95917" lon="6.61037">
        <ele>963.2</ele>
        <time>2026-02-02T16:21:35Z</time>
      </trkpt>
      <trkpt lat="45.95917" lon="6.61039">
        <ele>962.3</ele>
        <time>2026-02-02T16:21:36Z</time>
      </trkpt>
      <trkpt lat="45.95917" lon="6.6104">
        <ele>962.3</ele>
        <time>2026-02-02T16:21:37Z</time>
      </trkpt>
      <trkpt lat="45.95917" lon="6.61042">
        <ele>962.2</ele>
        <time>2026-02-02T16:21:38Z</time>
      </trkpt>
      <trkpt lat="45.95919" lon="6.61044">
        <ele>961</ele>
        <time>2026-02-02T16:21:39Z</time>
      </trkpt>
      <trkpt lat="45.95919" lon="6.61046">
        <ele>960.9</ele>
        <time>2026-02-02T16:21:40Z</time>
      </trkpt>
      <trkpt lat="45.95919" lon="6.61047">
        <ele>960</ele>
        <time>2026-02-02T16:21:41Z</time>
      </trkpt>
      <trkpt lat="45.95919" lon="6.61048">
        <ele>960</ele>
        <time>2026-02-02T16:21:42Z</time>
      </trkpt>
      <trkpt lat="45.9592" lon="6.61049">
        <ele>959.9</ele>
        <time>2026-02-02T16:21:43Z</time>
      </trkpt>
      <trkpt lat="45.95922" lon="6.61051">
        <ele>958.7</ele>
        <time>2026-02-02T16:21:44Z</time>
      </trkpt>
      <trkpt lat="45.95922" lon="6.61052">
        <ele>958.6</ele>
        <time>2026-02-02T16:21:45Z</time>
      </trkpt>
      <trkpt lat="45.95923" lon="6.61053">
        <ele>958.6</ele>
        <time>2026-02-02T16:21:46Z</time>
      </trkpt>
      <trkpt lat="45.95923" lon="6.61054">
        <ele>958.5</ele>
        <time>2026-02-02T16:21:47Z</time>
      </trkpt>
      <trkpt lat="45.95923" lon="6.61055">
        <ele>958.6</ele>
        <time>2026-02-02T16:21:48Z</time>
      </trkpt>
      <trkpt lat="45.95923" lon="6.61056">
        <ele>958.6</ele>
        <time>2026-02-02T16:21:49Z</time>
      </trkpt>
      <trkpt lat="45.95923" lon="6.61056">
        <ele>958.7</ele>
        <time>2026-02-02T16:21:50Z</time>
      </trkpt>
      <trkpt lat="45.95922" lon="6.61057">
        <ele>958.7</ele>
        <time>2026-02-02T16:21:51Z</time>
      </trkpt>
      <trkpt lat="45.9592" lon="6.6106">
        <ele>958.9</ele>
        <time>2026-02-02T16:21:52Z</time>
      </trkpt>
      <trkpt lat="45.9592" lon="6.6106">
        <ele>959</ele>
        <time>2026-02-02T16:21:53Z</time>
      </trkpt>
      <trkpt lat="45.95919" lon="6.61061">
        <ele>959</ele>
        <time>2026-02-02T16:21:54Z</time>
      </trkpt>
      <trkpt lat="45.95918" lon="6.61061">
        <ele>959.1</ele>
        <time>2026-02-02T16:21:55Z</time>
      </trkpt>
      <trkpt lat="45.95916" lon="6.61062">
        <ele>959.3</ele>
        <time>2026-02-02T16:21:56Z</time>
      </trkpt>
      <trkpt lat="45.95915" lon="6.61062">
        <ele>959.4</ele>
        <time>2026-02-02T16:21:57Z</time>
      </trkpt>
      <trkpt lat="45.95913" lon="6.61063">
        <ele>959.5</ele>
        <time>2026-02-02T16:21:58Z</time>
      </trkpt>
      <trkpt lat="45.95912" lon="6.61063">
        <ele>959.7</ele>
        <time>2026-02-02T16:21:59Z</time>
      </trkpt>
      <trkpt lat="45.9591" lon="6.61063">
        <ele>959.8</ele>
        <time>2026-02-02T16:22:00Z</time>
      </trkpt>
      <trkpt lat="45.95909" lon="6.61063">
        <ele>959.9</ele>
        <time>2026-02-02T16:22:01Z</time>
      </trkpt>
      <trkpt lat="45.95907" lon="6.61063">
        <ele>960</ele>
        <time>2026-02-02T16:22:02Z</time>
      </trkpt>
      <trkpt lat="45.95905" lon="6.61063">
        <ele>960.2</ele>
        <time>2026-02-02T16:22:03Z</time>
      </trkpt>
      <trkpt lat="45.95903" lon="6.61063">
        <ele>960.3</ele>
        <time>2026-02-02T16:22:04Z</time>
      </trkpt>
      <trkpt lat="45.95902" lon="6.61063">
        <ele>960.5</ele>
        <time>2026-02-02T16:22:05Z</time>
      </trkpt>
      <trkpt lat="45.959" lon="6.61063">
        <ele>960.6</ele>
        <time>2026-02-02T16:22:06Z</time>
      </trkpt>
      <trkpt lat="45.95899" lon="6.61062">
        <ele>960.7</ele>
        <time>2026-02-02T16:22:07Z</time>
      </trkpt>
      <trkpt lat="45.95897" lon="6.61062">
        <ele>960.8</ele>
        <time>2026-02-02T16:22:08Z</time>
      </trkpt>
      <trkpt lat="45.95896" lon="6.61062">
        <ele>961</ele>
        <time>2026-02-02T16:22:09Z</time>
      </trkpt>
      <trkpt lat="45.95894" lon="6.61062">
        <ele>961.1</ele>
        <time>2026-02-02T16:22:10Z</time>
      </trkpt>
      <trkpt lat="45.95893" lon="6.61062">
        <ele>961.2</ele>
        <time>2026-02-02T16:22:11Z</time>
      </trkpt>
      <trkpt lat="45.95891" lon="6.61061">
        <ele>961.4</ele>
        <time>2026-02-02T16:22:12Z</time>
      </trkpt>
      <trkpt lat="45.95889" lon="6.61061">
        <ele>961.6</ele>
        <time>2026-02-02T16:22:13Z</time>
      </trkpt>
      <trkpt lat="45.95888" lon="6.61061">
        <ele>961.7</ele>
        <time>2026-02-02T16:22:14Z</time>
      </trkpt>
      <trkpt lat="45.95887" lon="6.6106">
        <ele>961.7</ele>
        <time>2026-02-02T16:22:15Z</time>
      </trkpt>
      <trkpt lat="45.95885" lon="6.6106">
        <ele>961.9</ele>
        <time>2026-02-02T16:22:16Z</time>
      </trkpt>
      <trkpt lat="45.95884" lon="6.61059">
        <ele>962</ele>
        <time>2026-02-02T16:22:17Z</time>
      </trkpt>
      <trkpt lat="45.95883" lon="6.61059">
        <ele>962.1</ele>
        <time>2026-02-02T16:22:18Z</time>
      </trkpt>
      <trkpt lat="45.95882" lon="6.6106">
        <ele>962.2</ele>
        <time>2026-02-02T16:22:19Z</time>
      </trkpt>
      <trkpt lat="45.95881" lon="6.61061">
        <ele>962.4</ele>
        <time>2026-02-02T16:22:20Z</time>
      </trkpt>
      <trkpt lat="45.9588" lon="6.61061">
        <ele>962.5</ele>
        <time>2026-02-02T16:22:21Z</time>
      </trkpt>
      <trkpt lat="45.95878" lon="6.61059">
        <ele>962.7</ele>
        <time>2026-02-02T16:22:22Z</time>
      </trkpt>
      <trkpt lat="45.95877" lon="6.61058">
        <ele>962.8</ele>
        <time>2026-02-02T16:22:23Z</time>
      </trkpt>
      <trkpt lat="45.95876" lon="6.61057">
        <ele>962.9</ele>
        <time>2026-02-02T16:22:24Z</time>
      </trkpt>
      <trkpt lat="45.95875" lon="6.61056">
        <ele>963.1</ele>
        <time>2026-02-02T16:22:25Z</time>
      </trkpt>
      <trkpt lat="45.95874" lon="6.61056">
        <ele>963.2</ele>
        <time>2026-02-02T16:22:26Z</time>
      </trkpt>
      <trkpt lat="45.95872" lon="6.61055">
        <ele>963.3</ele>
        <time>2026-02-02T16:22:27Z</time>
      </trkpt>
      <trkpt lat="45.9587" lon="6.61055">
        <ele>963.6</ele>
        <time>2026-02-02T16:22:29Z</time>
      </trkpt>
      <trkpt lat="45.95869" lon="6.61055">
        <ele>963.7</ele>
        <time>2026-02-02T16:22:30Z</time>
      </trkpt>
      <trkpt lat="45.95867" lon="6.61054">
        <ele>963.9</ele>
        <time>2026-02-02T16:22:31Z</time>
      </trkpt>
      <trkpt lat="45.95866" lon="6.61054">
        <ele>964</ele>
        <time>2026-02-02T16:22:32Z</time>
      </trkpt>
      <trkpt lat="45.95864" lon="6.61053">
        <ele>964.2</ele>
        <time>2026-02-02T16:22:33Z</time>
      </trkpt>
      <trkpt lat="45.95863" lon="6.61052">
        <ele>964.3</ele>
        <time>2026-02-02T16:22:34Z</time>
      </trkpt>
      <trkpt lat="45.95862" lon="6.61051">
        <ele>964.4</ele>
        <time>2026-02-02T16:22:35Z</time>
      </trkpt>
      <trkpt lat="45.9586" lon="6.6105">
        <ele>964.6</ele>
        <time>2026-02-02T16:22:36Z</time>
      </trkpt>
      <trkpt lat="45.95859" lon="6.6105">
        <ele>964.8</ele>
        <time>2026-02-02T16:22:37Z</time>
      </trkpt>
      <trkpt lat="45.95858" lon="6.61049">
        <ele>964.9</ele>
        <time>2026-02-02T16:22:38Z</time>
      </trkpt>
      <trkpt lat="45.95857" lon="6.61048">
        <ele>965</ele>
        <time>2026-02-02T16:22:39Z</time>
      </trkpt>
      <trkpt lat="45.95855" lon="6.61047">
        <ele>965.2</ele>
        <time>2026-02-02T16:22:40Z</time>
      </trkpt>
      <trkpt lat="45.95854" lon="6.61046">
        <ele>965.4</ele>
        <time>2026-02-02T16:22:41Z</time>
      </trkpt>
      <trkpt lat="45.95853" lon="6.61045">
        <ele>965.5</ele>
        <time>2026-02-02T16:22:42Z</time>
      </trkpt>
      <trkpt lat="45.95851" lon="6.61044">
        <ele>965.7</ele>
        <time>2026-02-02T16:22:44Z</time>
      </trkpt>
      <trkpt lat="45.9585" lon="6.61044">
        <ele>965.9</ele>
        <time>2026-02-02T16:22:45Z</time>
      </trkpt>
      <trkpt lat="45.95848" lon="6.61043">
        <ele>966.1</ele>
        <time>2026-02-02T16:22:46Z</time>
      </trkpt>
      <trkpt lat="45.95847" lon="6.61042">
        <ele>966.2</ele>
        <time>2026-02-02T16:22:47Z</time>
      </trkpt>
      <trkpt lat="45.95846" lon="6.61042">
        <ele>966.3</ele>
        <time>2026-02-02T16:22:48Z</time>
      </trkpt>
      <trkpt lat="45.95845" lon="6.61041">
        <ele>966.4</ele>
        <time>2026-02-02T16:22:49Z</time>
      </trkpt>
      <trkpt lat="45.95843" lon="6.6104">
        <ele>966.6</ele>
        <time>2026-02-02T16:22:50Z</time>
      </trkpt>
      <trkpt lat="45.95842" lon="6.61038">
        <ele>966.8</ele>
        <time>2026-02-02T16:22:51Z</time>
      </trkpt>
      <trkpt lat="45.95841" lon="6.61038">
        <ele>966.9</ele>
        <time>2026-02-02T16:22:52Z</time>
      </trkpt>
      <trkpt lat="45.9584" lon="6.61037">
        <ele>967</ele>
        <time>2026-02-02T16:22:53Z</time>
      </trkpt>
      <trkpt lat="45.95839" lon="6.61036">
        <ele>967.1</ele>
        <time>2026-02-02T16:22:54Z</time>
      </trkpt>
      <trkpt lat="45.95837" lon="6.61036">
        <ele>967.3</ele>
        <time>2026-02-02T16:22:55Z</time>
      </trkpt>
      <trkpt lat="45.95836" lon="6.61035">
        <ele>967.4</ele>
        <time>2026-02-02T16:22:56Z</time>
      </trkpt>
      <trkpt lat="45.95835" lon="6.61035">
        <ele>967.6</ele>
        <time>2026-02-02T16:22:57Z</time>
      </trkpt>
      <trkpt lat="45.95833" lon="6.61034">
        <ele>967.7</ele>
        <time>2026-02-02T16:22:58Z</time>
      </trkpt>
      <trkpt lat="45.95832" lon="6.61033">
        <ele>967.9</ele>
        <time>2026-02-02T16:22:59Z</time>
      </trkpt>
      <trkpt lat="45.9583" lon="6.61032">
        <ele>968</ele>
        <time>2026-02-02T16:23:00Z</time>
      </trkpt>
      <trkpt lat="45.95829" lon="6.61031">
        <ele>968.2</ele>
        <time>2026-02-02T16:23:01Z</time>
      </trkpt>
      <trkpt lat="45.95828" lon="6.6103">
        <ele>968.4</ele>
        <time>2026-02-02T16:23:02Z</time>
      </trkpt>
      <trkpt lat="45.95827" lon="6.61029">
        <ele>968.5</ele>
        <time>2026-02-02T16:23:03Z</time>
      </trkpt>
      <trkpt lat="45.95825" lon="6.61028">
        <ele>968.6</ele>
        <time>2026-02-02T16:23:04Z</time>
      </trkpt>
      <trkpt lat="45.95825" lon="6.61027">
        <ele>968.8</ele>
        <time>2026-02-02T16:23:05Z</time>
      </trkpt>
      <trkpt lat="45.95824" lon="6.61026">
        <ele>968.9</ele>
        <time>2026-02-02T16:23:06Z</time>
      </trkpt>
      <trkpt lat="45.95823" lon="6.61025">
        <ele>969</ele>
        <time>2026-02-02T16:23:07Z</time>
      </trkpt>
      <trkpt lat="45.95822" lon="6.61024">
        <ele>969.1</ele>
        <time>2026-02-02T16:23:08Z</time>
      </trkpt>
      <trkpt lat="45.95821" lon="6.61023">
        <ele>969.2</ele>
        <time>2026-02-02T16:23:09Z</time>
      </trkpt>
      <trkpt lat="45.95819" lon="6.61021">
        <ele>969.4</ele>
        <time>2026-02-02T16:23:10Z</time>
      </trkpt>
      <trkpt lat="45.95818" lon="6.61021">
        <ele>969.5</ele>
        <time>2026-02-02T16:23:11Z</time>
      </trkpt>
      <trkpt lat="45.95817" lon="6.6102">
        <ele>969.6</ele>
        <time>2026-02-02T16:23:12Z</time>
      </trkpt>
      <trkpt lat="45.95816" lon="6.6102">
        <ele>969.8</ele>
        <time>2026-02-02T16:23:13Z</time>
      </trkpt>
      <trkpt lat="45.95815" lon="6.61019">
        <ele>969.9</ele>
        <time>2026-02-02T16:23:14Z</time>
      </trkpt>
      <trkpt lat="45.95814" lon="6.61018">
        <ele>970</ele>
        <time>2026-02-02T16:23:15Z</time>
      </trkpt>
      <trkpt lat="45.95812" lon="6.61017">
        <ele>970.1</ele>
        <time>2026-02-02T16:23:16Z</time>
      </trkpt>
      <trkpt lat="45.95812" lon="6.61016">
        <ele>970.2</ele>
        <time>2026-02-02T16:23:17Z</time>
      </trkpt>
      <trkpt lat="45.95811" lon="6.61015">
        <ele>970.3</ele>
        <time>2026-02-02T16:23:18Z</time>
      </trkpt>
      <trkpt lat="45.9581" lon="6.61014">
        <ele>970.5</ele>
        <time>2026-02-02T16:23:19Z</time>
      </trkpt>
      <trkpt lat="45.95808" lon="6.61013">
        <ele>970.6</ele>
        <time>2026-02-02T16:23:20Z</time>
      </trkpt>
      <trkpt lat="45.95807" lon="6.61012">
        <ele>970.7</ele>
        <time>2026-02-02T16:23:21Z</time>
      </trkpt>
      <trkpt lat="45.95806" lon="6.61011">
        <ele>970.9</ele>
        <time>2026-02-02T16:23:22Z</time>
      </trkpt>
      <trkpt lat="45.95804" lon="6.6101">
        <ele>971</ele>
        <time>2026-02-02T16:23:23Z</time>
      </trkpt>
      <trkpt lat="45.95803" lon="6.61009">
        <ele>971.3</ele>
        <time>2026-02-02T16:23:24Z</time>
      </trkpt>
      <trkpt lat="45.95802" lon="6.61008">
        <ele>971.5</ele>
        <time>2026-02-02T16:23:25Z</time>
      </trkpt>
      <trkpt lat="45.958" lon="6.61007">
        <ele>971.7</ele>
        <time>2026-02-02T16:23:26Z</time>
      </trkpt>
      <trkpt lat="45.95799" lon="6.61006">
        <ele>972</ele>
        <time>2026-02-02T16:23:27Z</time>
      </trkpt>
      <trkpt lat="45.95797" lon="6.61006">
        <ele>972.2</ele>
        <time>2026-02-02T16:23:28Z</time>
      </trkpt>
      <trkpt lat="45.95796" lon="6.61005">
        <ele>972.5</ele>
        <time>2026-02-02T16:23:29Z</time>
      </trkpt>
      <trkpt lat="45.95795" lon="6.61005">
        <ele>972.7</ele>
        <time>2026-02-02T16:23:30Z</time>
      </trkpt>
      <trkpt lat="45.95792" lon="6.61004">
        <ele>973.1</ele>
        <time>2026-02-02T16:23:31Z</time>
      </trkpt>
      <trkpt lat="45.95791" lon="6.61003">
        <ele>973.3</ele>
        <time>2026-02-02T16:23:32Z</time>
      </trkpt>
      <trkpt lat="45.95789" lon="6.61003">
        <ele>973.6</ele>
        <time>2026-02-02T16:23:34Z</time>
      </trkpt>
      <trkpt lat="45.95786" lon="6.61001">
        <ele>974</ele>
        <time>2026-02-02T16:23:35Z</time>
      </trkpt>
      <trkpt lat="45.95785" lon="6.61001">
        <ele>974.2</ele>
        <time>2026-02-02T16:23:37Z</time>
      </trkpt>
      <trkpt lat="45.95783" lon="6.61001">
        <ele>974.5</ele>
        <time>2026-02-02T16:23:38Z</time>
      </trkpt>
      <trkpt lat="45.95781" lon="6.61001">
        <ele>974.7</ele>
        <time>2026-02-02T16:23:39Z</time>
      </trkpt>
      <trkpt lat="45.9578" lon="6.61001">
        <ele>974.9</ele>
        <time>2026-02-02T16:23:40Z</time>
      </trkpt>
      <trkpt lat="45.95778" lon="6.61001">
        <ele>975.1</ele>
        <time>2026-02-02T16:23:41Z</time>
      </trkpt>
      <trkpt lat="45.95777" lon="6.61002">
        <ele>975.4</ele>
        <time>2026-02-02T16:23:42Z</time>
      </trkpt>
      <trkpt lat="45.95776" lon="6.61002">
        <ele>975.6</ele>
        <time>2026-02-02T16:23:43Z</time>
      </trkpt>
      <trkpt lat="45.95774" lon="6.61001">
        <ele>975.8</ele>
        <time>2026-02-02T16:23:44Z</time>
      </trkpt>
      <trkpt lat="45.95772" lon="6.61001">
        <ele>975.9</ele>
        <time>2026-02-02T16:23:45Z</time>
      </trkpt>
      <trkpt lat="45.95771" lon="6.61">
        <ele>975.8</ele>
        <time>2026-02-02T16:23:46Z</time>
      </trkpt>
      <trkpt lat="45.95769" lon="6.61">
        <ele>975.7</ele>
        <time>2026-02-02T16:23:47Z</time>
      </trkpt>
      <trkpt lat="45.95768" lon="6.60997">
        <ele>975.6</ele>
        <time>2026-02-02T16:23:48Z</time>
      </trkpt>
      <trkpt lat="45.95767" lon="6.60997">
        <ele>975.5</ele>
        <time>2026-02-02T16:23:49Z</time>
      </trkpt>
      <trkpt lat="45.95764" lon="6.60998">
        <ele>975.4</ele>
        <time>2026-02-02T16:23:50Z</time>
      </trkpt>
      <trkpt lat="45.95763" lon="6.60998">
        <ele>975.4</ele>
        <time>2026-02-02T16:23:51Z</time>
      </trkpt>
      <trkpt lat="45.95761" lon="6.60999">
        <ele>975.5</ele>
        <time>2026-02-02T16:23:52Z</time>
      </trkpt>
      <trkpt lat="45.9576" lon="6.61">
        <ele>975.5</ele>
        <time>2026-02-02T16:23:53Z</time>
      </trkpt>
      <trkpt lat="45.95758" lon="6.61">
        <ele>975.5</ele>
        <time>2026-02-02T16:23:54Z</time>
      </trkpt>
      <trkpt lat="45.95757" lon="6.61">
        <ele>975.5</ele>
        <time>2026-02-02T16:23:55Z</time>
      </trkpt>
      <trkpt lat="45.95756" lon="6.61001">
        <ele>975.5</ele>
        <time>2026-02-02T16:23:56Z</time>
      </trkpt>
      <trkpt lat="45.95754" lon="6.61001">
        <ele>975.5</ele>
        <time>2026-02-02T16:23:57Z</time>
      </trkpt>
      <trkpt lat="45.95752" lon="6.61001">
        <ele>975.5</ele>
        <time>2026-02-02T16:23:58Z</time>
      </trkpt>
      <trkpt lat="45.95751" lon="6.61001">
        <ele>975.5</ele>
        <time>2026-02-02T16:23:59Z</time>
      </trkpt>
      <trkpt lat="45.95749" lon="6.61001">
        <ele>975.6</ele>
        <time>2026-02-02T16:24:00Z</time>
      </trkpt>
      <trkpt lat="45.95748" lon="6.61001">
        <ele>975.6</ele>
        <time>2026-02-02T16:24:01Z</time>
      </trkpt>
      <trkpt lat="45.95744" lon="6.61003">
        <ele>975.6</ele>
        <time>2026-02-02T16:24:02Z</time>
      </trkpt>
      <trkpt lat="45.95744" lon="6.61004">
        <ele>975.6</ele>
        <time>2026-02-02T16:24:03Z</time>
      </trkpt>
      <trkpt lat="45.95742" lon="6.61005">
        <ele>975.6</ele>
        <time>2026-02-02T16:24:04Z</time>
      </trkpt>
      <trkpt lat="45.95741" lon="6.61006">
        <ele>975.6</ele>
        <time>2026-02-02T16:24:05Z</time>
      </trkpt>
      <trkpt lat="45.95739" lon="6.61007">
        <ele>975.6</ele>
        <time>2026-02-02T16:24:07Z</time>
      </trkpt>
      <trkpt lat="45.95738" lon="6.61008">
        <ele>975.7</ele>
        <time>2026-02-02T16:24:08Z</time>
      </trkpt>
      <trkpt lat="45.95738" lon="6.61009">
        <ele>975.7</ele>
        <time>2026-02-02T16:24:09Z</time>
      </trkpt>
      <trkpt lat="45.95736" lon="6.6101">
        <ele>975.7</ele>
        <time>2026-02-02T16:24:10Z</time>
      </trkpt>
      <trkpt lat="45.95735" lon="6.61011">
        <ele>975.7</ele>
        <time>2026-02-02T16:24:11Z</time>
      </trkpt>
      <trkpt lat="45.95734" lon="6.61012">
        <ele>975.7</ele>
        <time>2026-02-02T16:24:12Z</time>
      </trkpt>
      <trkpt lat="45.95733" lon="6.61014">
        <ele>975.7</ele>
        <time>2026-02-02T16:24:13Z</time>
      </trkpt>
      <trkpt lat="45.95732" lon="6.61015">
        <ele>975.7</ele>
        <time>2026-02-02T16:24:14Z</time>
      </trkpt>
      <trkpt lat="45.95731" lon="6.61017">
        <ele>975.7</ele>
        <time>2026-02-02T16:24:15Z</time>
      </trkpt>
      <trkpt lat="45.9573" lon="6.61019">
        <ele>975.8</ele>
        <time>2026-02-02T16:24:16Z</time>
      </trkpt>
      <trkpt lat="45.9573" lon="6.61021">
        <ele>975.8</ele>
        <time>2026-02-02T16:24:17Z</time>
      </trkpt>
      <trkpt lat="45.9573" lon="6.61022">
        <ele>975.8</ele>
        <time>2026-02-02T16:24:18Z</time>
      </trkpt>
      <trkpt lat="45.95731" lon="6.61023">
        <ele>975.8</ele>
        <time>2026-02-02T16:24:19Z</time>
      </trkpt>
      <trkpt lat="45.95732" lon="6.61022">
        <ele>975.8</ele>
        <time>2026-02-02T16:24:20Z</time>
      </trkpt>
      <trkpt lat="45.95732" lon="6.6102">
        <ele>975.8</ele>
        <time>2026-02-02T16:24:21Z</time>
      </trkpt>
      <trkpt lat="45.95732" lon="6.61018">
        <ele>975.8</ele>
        <time>2026-02-02T16:24:22Z</time>
      </trkpt>
      <trkpt lat="45.95732" lon="6.61017">
        <ele>975.9</ele>
        <time>2026-02-02T16:24:23Z</time>
      </trkpt>
      <trkpt lat="45.95733" lon="6.61017">
        <ele>975.9</ele>
        <time>2026-02-02T16:24:24Z</time>
      </trkpt>
    </trkseg>
  </trk>
</gpx>